<?xml version="1.0" encoding="UTF-8"?>
<gpx version="1.1" creator="https://www.youtrack.es" xsi:schemaLocation="http://www.topografix.com/GPX/1/1 http://www.topografix.com/GPX/1/1/gpx.xsd http://www.garmin.com/xmlschemas/GpxExtensions/v3 http://www.garmin.com/xmlschemas/GpxExtensionsv3.xsd http://www.garmin.com/xmlschemas/TrackPointExtension/v1 http://www.garmin.com/xmlschemas/TrackPointExtensionv1.xsd" xmlns:gpxtpx="http://www.garmin.com/xmlschemas/TrackPointExtension/v1" xmlns:gpxx="http://www.garmin.com/xmlschemas/GpxExtensions/v3" xmlns:xsi="http://www.w3.org/2001/XMLSchema-instance">
  <metadata>
    <author>
      <name>Aitor Antxustegi</name>
      <email id="kaolaa" domain="gmail.com"/>
    </author>
    <link href="https://www.youtrack.es">
      <text>YouTrack.es</text>
    </link>
    <time>2026-05-08T17:02:50Z</time>
  </metadata>
  <trk>
    <src>https://www.youtrack.es</src>
    <link href="https://www.youtrack.es/ruta/16758-ponferrada-quiroga">
      <text>YouTrack.es</text>
    </link>
    <trkseg>
      <trkpt lat="42.4759290" lon="-7.2718680">
        <ele>270.1</ele>
        <time>2014-10-02T06:10:30Z</time>
      </trkpt>
      <trkpt lat="42.4758830" lon="-7.2718740">
        <ele>270.1</ele>
        <time>2014-10-02T06:10:49Z</time>
      </trkpt>
      <trkpt lat="42.4759160" lon="-7.2719040">
        <ele>270.2</ele>
        <time>2014-10-02T06:10:52Z</time>
      </trkpt>
      <trkpt lat="42.4759430" lon="-7.2719660">
        <ele>270.3</ele>
        <time>2014-10-02T06:10:54Z</time>
      </trkpt>
      <trkpt lat="42.4759580" lon="-7.2720110">
        <ele>270.4</ele>
        <time>2014-10-02T06:10:55Z</time>
      </trkpt>
      <trkpt lat="42.4759680" lon="-7.2720450">
        <ele>270.4</ele>
        <time>2014-10-02T06:10:56Z</time>
      </trkpt>
      <trkpt lat="42.4759760" lon="-7.2720830">
        <ele>270.5</ele>
        <time>2014-10-02T06:10:57Z</time>
      </trkpt>
      <trkpt lat="42.4759810" lon="-7.2721210">
        <ele>270.5</ele>
        <time>2014-10-02T06:10:58Z</time>
      </trkpt>
      <trkpt lat="42.4759900" lon="-7.2721940">
        <ele>270.6</ele>
        <time>2014-10-02T06:11:00Z</time>
      </trkpt>
      <trkpt lat="42.4759960" lon="-7.2722350">
        <ele>270.7</ele>
        <time>2014-10-02T06:11:01Z</time>
      </trkpt>
      <trkpt lat="42.4760090" lon="-7.2722800">
        <ele>270.7</ele>
        <time>2014-10-02T06:11:02Z</time>
      </trkpt>
      <trkpt lat="42.4760240" lon="-7.2723200">
        <ele>270.8</ele>
        <time>2014-10-02T06:11:03Z</time>
      </trkpt>
      <trkpt lat="42.4760420" lon="-7.2723620">
        <ele>270.8</ele>
        <time>2014-10-02T06:11:04Z</time>
      </trkpt>
      <trkpt lat="42.4760760" lon="-7.2724220">
        <ele>270.9</ele>
        <time>2014-10-02T06:11:06Z</time>
      </trkpt>
      <trkpt lat="42.4760910" lon="-7.2724570">
        <ele>271.0</ele>
        <time>2014-10-02T06:11:07Z</time>
      </trkpt>
      <trkpt lat="42.4761080" lon="-7.2724950">
        <ele>271.1</ele>
        <time>2014-10-02T06:11:08Z</time>
      </trkpt>
      <trkpt lat="42.4761250" lon="-7.2725300">
        <ele>271.2</ele>
        <time>2014-10-02T06:11:09Z</time>
      </trkpt>
      <trkpt lat="42.4761470" lon="-7.2725640">
        <ele>271.4</ele>
        <time>2014-10-02T06:11:10Z</time>
      </trkpt>
      <trkpt lat="42.4761650" lon="-7.2726140">
        <ele>271.5</ele>
        <time>2014-10-02T06:11:11Z</time>
      </trkpt>
      <trkpt lat="42.4761830" lon="-7.2726570">
        <ele>271.6</ele>
        <time>2014-10-02T06:11:12Z</time>
      </trkpt>
      <trkpt lat="42.4762000" lon="-7.2726960">
        <ele>271.7</ele>
        <time>2014-10-02T06:11:13Z</time>
      </trkpt>
      <trkpt lat="42.4762180" lon="-7.2727330">
        <ele>271.9</ele>
        <time>2014-10-02T06:11:14Z</time>
      </trkpt>
      <trkpt lat="42.4762330" lon="-7.2727750">
        <ele>272.0</ele>
        <time>2014-10-02T06:11:15Z</time>
      </trkpt>
      <trkpt lat="42.4762460" lon="-7.2728210">
        <ele>272.1</ele>
        <time>2014-10-02T06:11:16Z</time>
      </trkpt>
      <trkpt lat="42.4762600" lon="-7.2728700">
        <ele>272.3</ele>
        <time>2014-10-02T06:11:17Z</time>
      </trkpt>
      <trkpt lat="42.4762690" lon="-7.2729160">
        <ele>272.4</ele>
        <time>2014-10-02T06:11:18Z</time>
      </trkpt>
      <trkpt lat="42.4762890" lon="-7.2729640">
        <ele>272.5</ele>
        <time>2014-10-02T06:11:19Z</time>
      </trkpt>
      <trkpt lat="42.4763100" lon="-7.2730190">
        <ele>272.7</ele>
        <time>2014-10-02T06:11:20Z</time>
      </trkpt>
      <trkpt lat="42.4763220" lon="-7.2730650">
        <ele>272.8</ele>
        <time>2014-10-02T06:11:21Z</time>
      </trkpt>
      <trkpt lat="42.4763320" lon="-7.2731130">
        <ele>272.9</ele>
        <time>2014-10-02T06:11:22Z</time>
      </trkpt>
      <trkpt lat="42.4763410" lon="-7.2731640">
        <ele>273.0</ele>
        <time>2014-10-02T06:11:23Z</time>
      </trkpt>
      <trkpt lat="42.4763450" lon="-7.2732150">
        <ele>273.1</ele>
        <time>2014-10-02T06:11:24Z</time>
      </trkpt>
      <trkpt lat="42.4763450" lon="-7.2732700">
        <ele>273.2</ele>
        <time>2014-10-02T06:11:25Z</time>
      </trkpt>
      <trkpt lat="42.4763450" lon="-7.2733260">
        <ele>273.2</ele>
        <time>2014-10-02T06:11:26Z</time>
      </trkpt>
      <trkpt lat="42.4763450" lon="-7.2733970">
        <ele>273.2</ele>
        <time>2014-10-02T06:11:27Z</time>
      </trkpt>
      <trkpt lat="42.4763450" lon="-7.2734650">
        <ele>273.2</ele>
        <time>2014-10-02T06:11:28Z</time>
      </trkpt>
      <trkpt lat="42.4763390" lon="-7.2735300">
        <ele>273.2</ele>
        <time>2014-10-02T06:11:29Z</time>
      </trkpt>
      <trkpt lat="42.4763290" lon="-7.2735890">
        <ele>273.2</ele>
        <time>2014-10-02T06:11:30Z</time>
      </trkpt>
      <trkpt lat="42.4763200" lon="-7.2736470">
        <ele>273.2</ele>
        <time>2014-10-02T06:11:31Z</time>
      </trkpt>
      <trkpt lat="42.4763100" lon="-7.2737070">
        <ele>273.2</ele>
        <time>2014-10-02T06:11:32Z</time>
      </trkpt>
      <trkpt lat="42.4763030" lon="-7.2737720">
        <ele>273.1</ele>
        <time>2014-10-02T06:11:33Z</time>
      </trkpt>
      <trkpt lat="42.4763000" lon="-7.2738340">
        <ele>273.1</ele>
        <time>2014-10-02T06:11:34Z</time>
      </trkpt>
      <trkpt lat="42.4762970" lon="-7.2739050">
        <ele>273.1</ele>
        <time>2014-10-02T06:11:35Z</time>
      </trkpt>
      <trkpt lat="42.4762920" lon="-7.2739790">
        <ele>273.0</ele>
        <time>2014-10-02T06:11:36Z</time>
      </trkpt>
      <trkpt lat="42.4762860" lon="-7.2740510">
        <ele>273.0</ele>
        <time>2014-10-02T06:11:37Z</time>
      </trkpt>
      <trkpt lat="42.4762810" lon="-7.2741210">
        <ele>273.0</ele>
        <time>2014-10-02T06:11:38Z</time>
      </trkpt>
      <trkpt lat="42.4762790" lon="-7.2742080">
        <ele>272.9</ele>
        <time>2014-10-02T06:11:39Z</time>
      </trkpt>
      <trkpt lat="42.4762730" lon="-7.2742860">
        <ele>272.9</ele>
        <time>2014-10-02T06:11:40Z</time>
      </trkpt>
      <trkpt lat="42.4762680" lon="-7.2743650">
        <ele>272.8</ele>
        <time>2014-10-02T06:11:41Z</time>
      </trkpt>
      <trkpt lat="42.4762570" lon="-7.2744430">
        <ele>272.8</ele>
        <time>2014-10-02T06:11:42Z</time>
      </trkpt>
      <trkpt lat="42.4762450" lon="-7.2745190">
        <ele>272.7</ele>
        <time>2014-10-02T06:11:43Z</time>
      </trkpt>
      <trkpt lat="42.4762320" lon="-7.2745990">
        <ele>272.6</ele>
        <time>2014-10-02T06:11:44Z</time>
      </trkpt>
      <trkpt lat="42.4762060" lon="-7.2746650">
        <ele>272.5</ele>
        <time>2014-10-02T06:11:45Z</time>
      </trkpt>
      <trkpt lat="42.4761750" lon="-7.2747350">
        <ele>272.5</ele>
        <time>2014-10-02T06:11:46Z</time>
      </trkpt>
      <trkpt lat="42.4761490" lon="-7.2748090">
        <ele>272.4</ele>
        <time>2014-10-02T06:11:47Z</time>
      </trkpt>
      <trkpt lat="42.4761220" lon="-7.2748790">
        <ele>272.3</ele>
        <time>2014-10-02T06:11:48Z</time>
      </trkpt>
      <trkpt lat="42.4760950" lon="-7.2749550">
        <ele>272.2</ele>
        <time>2014-10-02T06:11:49Z</time>
      </trkpt>
      <trkpt lat="42.4760680" lon="-7.2750340">
        <ele>272.1</ele>
        <time>2014-10-02T06:11:50Z</time>
      </trkpt>
      <trkpt lat="42.4760390" lon="-7.2751050">
        <ele>271.9</ele>
        <time>2014-10-02T06:11:51Z</time>
      </trkpt>
      <trkpt lat="42.4760060" lon="-7.2751720">
        <ele>271.8</ele>
        <time>2014-10-02T06:11:52Z</time>
      </trkpt>
      <trkpt lat="42.4759720" lon="-7.2752350">
        <ele>271.7</ele>
        <time>2014-10-02T06:11:53Z</time>
      </trkpt>
      <trkpt lat="42.4759360" lon="-7.2753000">
        <ele>271.6</ele>
        <time>2014-10-02T06:11:54Z</time>
      </trkpt>
      <trkpt lat="42.4758990" lon="-7.2753640">
        <ele>271.4</ele>
        <time>2014-10-02T06:11:55Z</time>
      </trkpt>
      <trkpt lat="42.4758620" lon="-7.2754390">
        <ele>271.1</ele>
        <time>2014-10-02T06:11:56Z</time>
      </trkpt>
      <trkpt lat="42.4758270" lon="-7.2755230">
        <ele>270.9</ele>
        <time>2014-10-02T06:11:57Z</time>
      </trkpt>
      <trkpt lat="42.4757870" lon="-7.2755950">
        <ele>270.6</ele>
        <time>2014-10-02T06:11:58Z</time>
      </trkpt>
      <trkpt lat="42.4757550" lon="-7.2756510">
        <ele>270.3</ele>
        <time>2014-10-02T06:11:59Z</time>
      </trkpt>
      <trkpt lat="42.4757240" lon="-7.2757100">
        <ele>270.1</ele>
        <time>2014-10-02T06:12:00Z</time>
      </trkpt>
      <trkpt lat="42.4756850" lon="-7.2757780">
        <ele>269.8</ele>
        <time>2014-10-02T06:12:01Z</time>
      </trkpt>
      <trkpt lat="42.4756460" lon="-7.2758510">
        <ele>269.5</ele>
        <time>2014-10-02T06:12:02Z</time>
      </trkpt>
      <trkpt lat="42.4756030" lon="-7.2759300">
        <ele>269.2</ele>
        <time>2014-10-02T06:12:03Z</time>
      </trkpt>
      <trkpt lat="42.4755570" lon="-7.2760120">
        <ele>268.8</ele>
        <time>2014-10-02T06:12:04Z</time>
      </trkpt>
      <trkpt lat="42.4755110" lon="-7.2761010">
        <ele>268.4</ele>
        <time>2014-10-02T06:12:05Z</time>
      </trkpt>
      <trkpt lat="42.4754640" lon="-7.2761880">
        <ele>268.0</ele>
        <time>2014-10-02T06:12:06Z</time>
      </trkpt>
      <trkpt lat="42.4754170" lon="-7.2762770">
        <ele>267.6</ele>
        <time>2014-10-02T06:12:07Z</time>
      </trkpt>
      <trkpt lat="42.4753710" lon="-7.2763640">
        <ele>267.2</ele>
        <time>2014-10-02T06:12:08Z</time>
      </trkpt>
      <trkpt lat="42.4753260" lon="-7.2764520">
        <ele>266.8</ele>
        <time>2014-10-02T06:12:09Z</time>
      </trkpt>
      <trkpt lat="42.4752830" lon="-7.2765400">
        <ele>266.4</ele>
        <time>2014-10-02T06:12:10Z</time>
      </trkpt>
      <trkpt lat="42.4752350" lon="-7.2766350">
        <ele>265.9</ele>
        <time>2014-10-02T06:12:11Z</time>
      </trkpt>
      <trkpt lat="42.4751840" lon="-7.2767310">
        <ele>265.1</ele>
        <time>2014-10-02T06:12:12Z</time>
      </trkpt>
      <trkpt lat="42.4751340" lon="-7.2768250">
        <ele>264.5</ele>
        <time>2014-10-02T06:12:13Z</time>
      </trkpt>
      <trkpt lat="42.4750810" lon="-7.2769170">
        <ele>263.8</ele>
        <time>2014-10-02T06:12:14Z</time>
      </trkpt>
      <trkpt lat="42.4750240" lon="-7.2770060">
        <ele>263.1</ele>
        <time>2014-10-02T06:12:15Z</time>
      </trkpt>
      <trkpt lat="42.4749580" lon="-7.2770970">
        <ele>262.3</ele>
        <time>2014-10-02T06:12:16Z</time>
      </trkpt>
      <trkpt lat="42.4748890" lon="-7.2771870">
        <ele>261.7</ele>
        <time>2014-10-02T06:12:17Z</time>
      </trkpt>
      <trkpt lat="42.4748190" lon="-7.2772800">
        <ele>261.0</ele>
        <time>2014-10-02T06:12:18Z</time>
      </trkpt>
      <trkpt lat="42.4747450" lon="-7.2773810">
        <ele>260.3</ele>
        <time>2014-10-02T06:12:19Z</time>
      </trkpt>
      <trkpt lat="42.4746700" lon="-7.2774870">
        <ele>259.5</ele>
        <time>2014-10-02T06:12:20Z</time>
      </trkpt>
      <trkpt lat="42.4745940" lon="-7.2775950">
        <ele>258.6</ele>
        <time>2014-10-02T06:12:21Z</time>
      </trkpt>
      <trkpt lat="42.4745210" lon="-7.2777030">
        <ele>257.9</ele>
        <time>2014-10-02T06:12:22Z</time>
      </trkpt>
      <trkpt lat="42.4744480" lon="-7.2778120">
        <ele>257.4</ele>
        <time>2014-10-02T06:12:23Z</time>
      </trkpt>
      <trkpt lat="42.4743760" lon="-7.2779260">
        <ele>256.8</ele>
        <time>2014-10-02T06:12:24Z</time>
      </trkpt>
      <trkpt lat="42.4743020" lon="-7.2780400">
        <ele>256.3</ele>
        <time>2014-10-02T06:12:25Z</time>
      </trkpt>
      <trkpt lat="42.4742280" lon="-7.2781560">
        <ele>255.4</ele>
        <time>2014-10-02T06:12:26Z</time>
      </trkpt>
      <trkpt lat="42.4741650" lon="-7.2782600">
        <ele>254.5</ele>
        <time>2014-10-02T06:12:27Z</time>
      </trkpt>
      <trkpt lat="42.4740180" lon="-7.2784920">
        <ele>252.6</ele>
        <time>2014-10-02T06:12:29Z</time>
      </trkpt>
      <trkpt lat="42.4739430" lon="-7.2786140">
        <ele>251.7</ele>
        <time>2014-10-02T06:12:30Z</time>
      </trkpt>
      <trkpt lat="42.4738640" lon="-7.2787460">
        <ele>251.3</ele>
        <time>2014-10-02T06:12:31Z</time>
      </trkpt>
      <trkpt lat="42.4737820" lon="-7.2788790">
        <ele>250.8</ele>
        <time>2014-10-02T06:12:32Z</time>
      </trkpt>
      <trkpt lat="42.4737020" lon="-7.2790160">
        <ele>250.2</ele>
        <time>2014-10-02T06:12:33Z</time>
      </trkpt>
      <trkpt lat="42.4736300" lon="-7.2791460">
        <ele>249.5</ele>
        <time>2014-10-02T06:12:34Z</time>
      </trkpt>
      <trkpt lat="42.4735620" lon="-7.2792790">
        <ele>248.7</ele>
        <time>2014-10-02T06:12:35Z</time>
      </trkpt>
      <trkpt lat="42.4735020" lon="-7.2794130">
        <ele>248.8</ele>
        <time>2014-10-02T06:12:36Z</time>
      </trkpt>
      <trkpt lat="42.4734500" lon="-7.2795490">
        <ele>248.2</ele>
        <time>2014-10-02T06:12:37Z</time>
      </trkpt>
      <trkpt lat="42.4734010" lon="-7.2796910">
        <ele>247.2</ele>
        <time>2014-10-02T06:12:38Z</time>
      </trkpt>
      <trkpt lat="42.4733580" lon="-7.2798380">
        <ele>246.2</ele>
        <time>2014-10-02T06:12:39Z</time>
      </trkpt>
      <trkpt lat="42.4733210" lon="-7.2799710">
        <ele>245.2</ele>
        <time>2014-10-02T06:12:40Z</time>
      </trkpt>
      <trkpt lat="42.4732850" lon="-7.2801070">
        <ele>244.6</ele>
        <time>2014-10-02T06:12:41Z</time>
      </trkpt>
      <trkpt lat="42.4732470" lon="-7.2802480">
        <ele>244.0</ele>
        <time>2014-10-02T06:12:42Z</time>
      </trkpt>
      <trkpt lat="42.4732080" lon="-7.2803980">
        <ele>243.5</ele>
        <time>2014-10-02T06:12:43Z</time>
      </trkpt>
      <trkpt lat="42.4731680" lon="-7.2805500">
        <ele>243.1</ele>
        <time>2014-10-02T06:12:44Z</time>
      </trkpt>
      <trkpt lat="42.4731300" lon="-7.2806990">
        <ele>242.9</ele>
        <time>2014-10-02T06:12:45Z</time>
      </trkpt>
      <trkpt lat="42.4730930" lon="-7.2808440">
        <ele>243.5</ele>
        <time>2014-10-02T06:12:46Z</time>
      </trkpt>
      <trkpt lat="42.4730520" lon="-7.2809630">
        <ele>243.7</ele>
        <time>2014-10-02T06:12:47Z</time>
      </trkpt>
      <trkpt lat="42.4729820" lon="-7.2810360">
        <ele>243.2</ele>
        <time>2014-10-02T06:12:48Z</time>
      </trkpt>
      <trkpt lat="42.4728990" lon="-7.2810790">
        <ele>242.6</ele>
        <time>2014-10-02T06:12:49Z</time>
      </trkpt>
      <trkpt lat="42.4728190" lon="-7.2811100">
        <ele>241.9</ele>
        <time>2014-10-02T06:12:50Z</time>
      </trkpt>
      <trkpt lat="42.4727370" lon="-7.2811030">
        <ele>241.6</ele>
        <time>2014-10-02T06:12:51Z</time>
      </trkpt>
      <trkpt lat="42.4726600" lon="-7.2810950">
        <ele>241.5</ele>
        <time>2014-10-02T06:12:52Z</time>
      </trkpt>
      <trkpt lat="42.4725780" lon="-7.2810870">
        <ele>241.5</ele>
        <time>2014-10-02T06:12:53Z</time>
      </trkpt>
      <trkpt lat="42.4724980" lon="-7.2810820">
        <ele>241.6</ele>
        <time>2014-10-02T06:12:54Z</time>
      </trkpt>
      <trkpt lat="42.4724170" lon="-7.2810750">
        <ele>241.7</ele>
        <time>2014-10-02T06:12:55Z</time>
      </trkpt>
      <trkpt lat="42.4723370" lon="-7.2810720">
        <ele>241.7</ele>
        <time>2014-10-02T06:12:56Z</time>
      </trkpt>
      <trkpt lat="42.4722610" lon="-7.2810720">
        <ele>241.8</ele>
        <time>2014-10-02T06:12:57Z</time>
      </trkpt>
      <trkpt lat="42.4721870" lon="-7.2810760">
        <ele>241.8</ele>
        <time>2014-10-02T06:12:58Z</time>
      </trkpt>
      <trkpt lat="42.4721160" lon="-7.2810810">
        <ele>241.8</ele>
        <time>2014-10-02T06:12:59Z</time>
      </trkpt>
      <trkpt lat="42.4720460" lon="-7.2810830">
        <ele>241.9</ele>
        <time>2014-10-02T06:13:00Z</time>
      </trkpt>
      <trkpt lat="42.4719750" lon="-7.2810850">
        <ele>241.9</ele>
        <time>2014-10-02T06:13:01Z</time>
      </trkpt>
      <trkpt lat="42.4719050" lon="-7.2810870">
        <ele>241.9</ele>
        <time>2014-10-02T06:13:02Z</time>
      </trkpt>
      <trkpt lat="42.4718320" lon="-7.2810880">
        <ele>241.9</ele>
        <time>2014-10-02T06:13:03Z</time>
      </trkpt>
      <trkpt lat="42.4717620" lon="-7.2810880">
        <ele>241.9</ele>
        <time>2014-10-02T06:13:04Z</time>
      </trkpt>
      <trkpt lat="42.4716930" lon="-7.2810880">
        <ele>241.8</ele>
        <time>2014-10-02T06:13:05Z</time>
      </trkpt>
      <trkpt lat="42.4716230" lon="-7.2810880">
        <ele>241.8</ele>
        <time>2014-10-02T06:13:06Z</time>
      </trkpt>
      <trkpt lat="42.4715530" lon="-7.2810890">
        <ele>241.8</ele>
        <time>2014-10-02T06:13:07Z</time>
      </trkpt>
      <trkpt lat="42.4714820" lon="-7.2810880">
        <ele>241.8</ele>
        <time>2014-10-02T06:13:08Z</time>
      </trkpt>
      <trkpt lat="42.4714120" lon="-7.2810850">
        <ele>241.8</ele>
        <time>2014-10-02T06:13:09Z</time>
      </trkpt>
      <trkpt lat="42.4713420" lon="-7.2810840">
        <ele>241.8</ele>
        <time>2014-10-02T06:13:10Z</time>
      </trkpt>
      <trkpt lat="42.4712740" lon="-7.2810840">
        <ele>241.8</ele>
        <time>2014-10-02T06:13:11Z</time>
      </trkpt>
      <trkpt lat="42.4712030" lon="-7.2810830">
        <ele>241.8</ele>
        <time>2014-10-02T06:13:12Z</time>
      </trkpt>
      <trkpt lat="42.4711330" lon="-7.2810810">
        <ele>241.8</ele>
        <time>2014-10-02T06:13:13Z</time>
      </trkpt>
      <trkpt lat="42.4710640" lon="-7.2810790">
        <ele>241.7</ele>
        <time>2014-10-02T06:13:14Z</time>
      </trkpt>
      <trkpt lat="42.4709950" lon="-7.2810780">
        <ele>241.7</ele>
        <time>2014-10-02T06:13:15Z</time>
      </trkpt>
      <trkpt lat="42.4709250" lon="-7.2810760">
        <ele>241.6</ele>
        <time>2014-10-02T06:13:16Z</time>
      </trkpt>
      <trkpt lat="42.4708550" lon="-7.2810750">
        <ele>241.5</ele>
        <time>2014-10-02T06:13:17Z</time>
      </trkpt>
      <trkpt lat="42.4707830" lon="-7.2810740">
        <ele>241.4</ele>
        <time>2014-10-02T06:13:18Z</time>
      </trkpt>
      <trkpt lat="42.4707110" lon="-7.2810750">
        <ele>241.3</ele>
        <time>2014-10-02T06:13:19Z</time>
      </trkpt>
      <trkpt lat="42.4706380" lon="-7.2810760">
        <ele>241.2</ele>
        <time>2014-10-02T06:13:20Z</time>
      </trkpt>
      <trkpt lat="42.4705660" lon="-7.2810790">
        <ele>241.0</ele>
        <time>2014-10-02T06:13:21Z</time>
      </trkpt>
      <trkpt lat="42.4704950" lon="-7.2810860">
        <ele>240.9</ele>
        <time>2014-10-02T06:13:22Z</time>
      </trkpt>
      <trkpt lat="42.4704250" lon="-7.2811000">
        <ele>240.6</ele>
        <time>2014-10-02T06:13:23Z</time>
      </trkpt>
      <trkpt lat="42.4703540" lon="-7.2811210">
        <ele>240.3</ele>
        <time>2014-10-02T06:13:24Z</time>
      </trkpt>
      <trkpt lat="42.4702830" lon="-7.2811520">
        <ele>240.1</ele>
        <time>2014-10-02T06:13:25Z</time>
      </trkpt>
      <trkpt lat="42.4702130" lon="-7.2811900">
        <ele>240.0</ele>
        <time>2014-10-02T06:13:26Z</time>
      </trkpt>
      <trkpt lat="42.4701460" lon="-7.2812520">
        <ele>239.8</ele>
        <time>2014-10-02T06:13:27Z</time>
      </trkpt>
      <trkpt lat="42.4700800" lon="-7.2813140">
        <ele>239.7</ele>
        <time>2014-10-02T06:13:28Z</time>
      </trkpt>
      <trkpt lat="42.4700130" lon="-7.2813820">
        <ele>239.5</ele>
        <time>2014-10-02T06:13:29Z</time>
      </trkpt>
      <trkpt lat="42.4699480" lon="-7.2814550">
        <ele>239.3</ele>
        <time>2014-10-02T06:13:30Z</time>
      </trkpt>
      <trkpt lat="42.4698890" lon="-7.2815300">
        <ele>239.1</ele>
        <time>2014-10-02T06:13:31Z</time>
      </trkpt>
      <trkpt lat="42.4698320" lon="-7.2816060">
        <ele>239.2</ele>
        <time>2014-10-02T06:13:32Z</time>
      </trkpt>
      <trkpt lat="42.4697750" lon="-7.2816870">
        <ele>239.3</ele>
        <time>2014-10-02T06:13:33Z</time>
      </trkpt>
      <trkpt lat="42.4697190" lon="-7.2817670">
        <ele>239.3</ele>
        <time>2014-10-02T06:13:34Z</time>
      </trkpt>
      <trkpt lat="42.4696650" lon="-7.2818470">
        <ele>239.3</ele>
        <time>2014-10-02T06:13:35Z</time>
      </trkpt>
      <trkpt lat="42.4696130" lon="-7.2819240">
        <ele>239.3</ele>
        <time>2014-10-02T06:13:36Z</time>
      </trkpt>
      <trkpt lat="42.4695610" lon="-7.2819990">
        <ele>239.4</ele>
        <time>2014-10-02T06:13:37Z</time>
      </trkpt>
      <trkpt lat="42.4695090" lon="-7.2820720">
        <ele>239.4</ele>
        <time>2014-10-02T06:13:38Z</time>
      </trkpt>
      <trkpt lat="42.4694550" lon="-7.2821470">
        <ele>239.5</ele>
        <time>2014-10-02T06:13:39Z</time>
      </trkpt>
      <trkpt lat="42.4693990" lon="-7.2822170">
        <ele>239.5</ele>
        <time>2014-10-02T06:13:40Z</time>
      </trkpt>
      <trkpt lat="42.4693440" lon="-7.2822870">
        <ele>239.5</ele>
        <time>2014-10-02T06:13:41Z</time>
      </trkpt>
      <trkpt lat="42.4692920" lon="-7.2823560">
        <ele>239.5</ele>
        <time>2014-10-02T06:13:42Z</time>
      </trkpt>
      <trkpt lat="42.4692400" lon="-7.2824290">
        <ele>239.6</ele>
        <time>2014-10-02T06:13:43Z</time>
      </trkpt>
      <trkpt lat="42.4691900" lon="-7.2825040">
        <ele>239.7</ele>
        <time>2014-10-02T06:13:44Z</time>
      </trkpt>
      <trkpt lat="42.4691410" lon="-7.2825820">
        <ele>239.7</ele>
        <time>2014-10-02T06:13:45Z</time>
      </trkpt>
      <trkpt lat="42.4690920" lon="-7.2826580">
        <ele>239.7</ele>
        <time>2014-10-02T06:13:46Z</time>
      </trkpt>
      <trkpt lat="42.4690430" lon="-7.2827310">
        <ele>239.8</ele>
        <time>2014-10-02T06:13:47Z</time>
      </trkpt>
      <trkpt lat="42.4689940" lon="-7.2828040">
        <ele>239.8</ele>
        <time>2014-10-02T06:13:48Z</time>
      </trkpt>
      <trkpt lat="42.4689450" lon="-7.2828740">
        <ele>239.8</ele>
        <time>2014-10-02T06:13:49Z</time>
      </trkpt>
      <trkpt lat="42.4688950" lon="-7.2829410">
        <ele>239.8</ele>
        <time>2014-10-02T06:13:50Z</time>
      </trkpt>
      <trkpt lat="42.4688440" lon="-7.2830110">
        <ele>239.8</ele>
        <time>2014-10-02T06:13:51Z</time>
      </trkpt>
      <trkpt lat="42.4687930" lon="-7.2830810">
        <ele>239.8</ele>
        <time>2014-10-02T06:13:52Z</time>
      </trkpt>
      <trkpt lat="42.4687420" lon="-7.2831480">
        <ele>239.7</ele>
        <time>2014-10-02T06:13:53Z</time>
      </trkpt>
      <trkpt lat="42.4686910" lon="-7.2832140">
        <ele>239.7</ele>
        <time>2014-10-02T06:13:54Z</time>
      </trkpt>
      <trkpt lat="42.4686390" lon="-7.2832820">
        <ele>239.7</ele>
        <time>2014-10-02T06:13:55Z</time>
      </trkpt>
      <trkpt lat="42.4685890" lon="-7.2833480">
        <ele>239.7</ele>
        <time>2014-10-02T06:13:56Z</time>
      </trkpt>
      <trkpt lat="42.4685360" lon="-7.2834180">
        <ele>239.7</ele>
        <time>2014-10-02T06:13:57Z</time>
      </trkpt>
      <trkpt lat="42.4684860" lon="-7.2834830">
        <ele>239.7</ele>
        <time>2014-10-02T06:13:58Z</time>
      </trkpt>
      <trkpt lat="42.4684370" lon="-7.2835470">
        <ele>239.7</ele>
        <time>2014-10-02T06:13:59Z</time>
      </trkpt>
      <trkpt lat="42.4683860" lon="-7.2836140">
        <ele>239.7</ele>
        <time>2014-10-02T06:14:00Z</time>
      </trkpt>
      <trkpt lat="42.4683350" lon="-7.2836800">
        <ele>239.7</ele>
        <time>2014-10-02T06:14:01Z</time>
      </trkpt>
      <trkpt lat="42.4682830" lon="-7.2837460">
        <ele>239.6</ele>
        <time>2014-10-02T06:14:02Z</time>
      </trkpt>
      <trkpt lat="42.4682330" lon="-7.2838130">
        <ele>239.6</ele>
        <time>2014-10-02T06:14:03Z</time>
      </trkpt>
      <trkpt lat="42.4681850" lon="-7.2838800">
        <ele>239.6</ele>
        <time>2014-10-02T06:14:04Z</time>
      </trkpt>
      <trkpt lat="42.4681370" lon="-7.2839440">
        <ele>239.7</ele>
        <time>2014-10-02T06:14:05Z</time>
      </trkpt>
      <trkpt lat="42.4680880" lon="-7.2840110">
        <ele>239.7</ele>
        <time>2014-10-02T06:14:06Z</time>
      </trkpt>
      <trkpt lat="42.4680380" lon="-7.2840760">
        <ele>239.7</ele>
        <time>2014-10-02T06:14:07Z</time>
      </trkpt>
      <trkpt lat="42.4679840" lon="-7.2841430">
        <ele>239.6</ele>
        <time>2014-10-02T06:14:08Z</time>
      </trkpt>
      <trkpt lat="42.4679300" lon="-7.2842100">
        <ele>239.5</ele>
        <time>2014-10-02T06:14:09Z</time>
      </trkpt>
      <trkpt lat="42.4678790" lon="-7.2842760">
        <ele>239.5</ele>
        <time>2014-10-02T06:14:10Z</time>
      </trkpt>
      <trkpt lat="42.4678290" lon="-7.2843450">
        <ele>239.4</ele>
        <time>2014-10-02T06:14:11Z</time>
      </trkpt>
      <trkpt lat="42.4677780" lon="-7.2844200">
        <ele>239.4</ele>
        <time>2014-10-02T06:14:12Z</time>
      </trkpt>
      <trkpt lat="42.4677290" lon="-7.2844910">
        <ele>239.3</ele>
        <time>2014-10-02T06:14:13Z</time>
      </trkpt>
      <trkpt lat="42.4676800" lon="-7.2845640">
        <ele>239.3</ele>
        <time>2014-10-02T06:14:14Z</time>
      </trkpt>
      <trkpt lat="42.4676320" lon="-7.2846320">
        <ele>239.4</ele>
        <time>2014-10-02T06:14:15Z</time>
      </trkpt>
      <trkpt lat="42.4675830" lon="-7.2846990">
        <ele>239.4</ele>
        <time>2014-10-02T06:14:16Z</time>
      </trkpt>
      <trkpt lat="42.4675330" lon="-7.2847650">
        <ele>239.3</ele>
        <time>2014-10-02T06:14:17Z</time>
      </trkpt>
      <trkpt lat="42.4674860" lon="-7.2848340">
        <ele>239.3</ele>
        <time>2014-10-02T06:14:18Z</time>
      </trkpt>
      <trkpt lat="42.4674390" lon="-7.2849020">
        <ele>239.3</ele>
        <time>2014-10-02T06:14:19Z</time>
      </trkpt>
      <trkpt lat="42.4673890" lon="-7.2849700">
        <ele>239.2</ele>
        <time>2014-10-02T06:14:20Z</time>
      </trkpt>
      <trkpt lat="42.4673430" lon="-7.2850310">
        <ele>239.2</ele>
        <time>2014-10-02T06:14:21Z</time>
      </trkpt>
      <trkpt lat="42.4672970" lon="-7.2850950">
        <ele>239.2</ele>
        <time>2014-10-02T06:14:22Z</time>
      </trkpt>
      <trkpt lat="42.4672490" lon="-7.2851600">
        <ele>239.3</ele>
        <time>2014-10-02T06:14:23Z</time>
      </trkpt>
      <trkpt lat="42.4671990" lon="-7.2852270">
        <ele>239.3</ele>
        <time>2014-10-02T06:14:24Z</time>
      </trkpt>
      <trkpt lat="42.4671510" lon="-7.2852920">
        <ele>239.3</ele>
        <time>2014-10-02T06:14:25Z</time>
      </trkpt>
      <trkpt lat="42.4671090" lon="-7.2853590">
        <ele>239.4</ele>
        <time>2014-10-02T06:14:26Z</time>
      </trkpt>
      <trkpt lat="42.4670650" lon="-7.2854260">
        <ele>239.5</ele>
        <time>2014-10-02T06:14:27Z</time>
      </trkpt>
      <trkpt lat="42.4670210" lon="-7.2854860">
        <ele>239.5</ele>
        <time>2014-10-02T06:14:28Z</time>
      </trkpt>
      <trkpt lat="42.4669750" lon="-7.2855450">
        <ele>239.6</ele>
        <time>2014-10-02T06:14:29Z</time>
      </trkpt>
      <trkpt lat="42.4669250" lon="-7.2856080">
        <ele>239.6</ele>
        <time>2014-10-02T06:14:30Z</time>
      </trkpt>
      <trkpt lat="42.4668690" lon="-7.2856720">
        <ele>239.6</ele>
        <time>2014-10-02T06:14:31Z</time>
      </trkpt>
      <trkpt lat="42.4668130" lon="-7.2857410">
        <ele>239.7</ele>
        <time>2014-10-02T06:14:32Z</time>
      </trkpt>
      <trkpt lat="42.4667600" lon="-7.2858070">
        <ele>239.7</ele>
        <time>2014-10-02T06:14:33Z</time>
      </trkpt>
      <trkpt lat="42.4667060" lon="-7.2858790">
        <ele>239.7</ele>
        <time>2014-10-02T06:14:34Z</time>
      </trkpt>
      <trkpt lat="42.4666550" lon="-7.2859480">
        <ele>239.7</ele>
        <time>2014-10-02T06:14:35Z</time>
      </trkpt>
      <trkpt lat="42.4666060" lon="-7.2860150">
        <ele>239.7</ele>
        <time>2014-10-02T06:14:36Z</time>
      </trkpt>
      <trkpt lat="42.4665570" lon="-7.2860820">
        <ele>239.8</ele>
        <time>2014-10-02T06:14:37Z</time>
      </trkpt>
      <trkpt lat="42.4665070" lon="-7.2861530">
        <ele>239.9</ele>
        <time>2014-10-02T06:14:38Z</time>
      </trkpt>
      <trkpt lat="42.4664600" lon="-7.2862190">
        <ele>240.0</ele>
        <time>2014-10-02T06:14:39Z</time>
      </trkpt>
      <trkpt lat="42.4664160" lon="-7.2862800">
        <ele>240.1</ele>
        <time>2014-10-02T06:14:40Z</time>
      </trkpt>
      <trkpt lat="42.4663730" lon="-7.2863470">
        <ele>240.2</ele>
        <time>2014-10-02T06:14:41Z</time>
      </trkpt>
      <trkpt lat="42.4663340" lon="-7.2864140">
        <ele>240.3</ele>
        <time>2014-10-02T06:14:42Z</time>
      </trkpt>
      <trkpt lat="42.4663060" lon="-7.2864890">
        <ele>240.4</ele>
        <time>2014-10-02T06:14:43Z</time>
      </trkpt>
      <trkpt lat="42.4662800" lon="-7.2865630">
        <ele>240.6</ele>
        <time>2014-10-02T06:14:44Z</time>
      </trkpt>
      <trkpt lat="42.4662580" lon="-7.2866390">
        <ele>240.7</ele>
        <time>2014-10-02T06:14:45Z</time>
      </trkpt>
      <trkpt lat="42.4662400" lon="-7.2867160">
        <ele>240.9</ele>
        <time>2014-10-02T06:14:46Z</time>
      </trkpt>
      <trkpt lat="42.4662350" lon="-7.2867990">
        <ele>241.0</ele>
        <time>2014-10-02T06:14:47Z</time>
      </trkpt>
      <trkpt lat="42.4662330" lon="-7.2868800">
        <ele>241.2</ele>
        <time>2014-10-02T06:14:48Z</time>
      </trkpt>
      <trkpt lat="42.4662360" lon="-7.2869550">
        <ele>241.2</ele>
        <time>2014-10-02T06:14:49Z</time>
      </trkpt>
      <trkpt lat="42.4662440" lon="-7.2870220">
        <ele>241.2</ele>
        <time>2014-10-02T06:14:50Z</time>
      </trkpt>
      <trkpt lat="42.4662500" lon="-7.2870850">
        <ele>241.5</ele>
        <time>2014-10-02T06:14:51Z</time>
      </trkpt>
      <trkpt lat="42.4662540" lon="-7.2871510">
        <ele>241.9</ele>
        <time>2014-10-02T06:14:52Z</time>
      </trkpt>
      <trkpt lat="42.4662390" lon="-7.2872100">
        <ele>242.2</ele>
        <time>2014-10-02T06:14:53Z</time>
      </trkpt>
      <trkpt lat="42.4662100" lon="-7.2872680">
        <ele>242.5</ele>
        <time>2014-10-02T06:14:54Z</time>
      </trkpt>
      <trkpt lat="42.4661740" lon="-7.2873130">
        <ele>242.8</ele>
        <time>2014-10-02T06:14:55Z</time>
      </trkpt>
      <trkpt lat="42.4661330" lon="-7.2873570">
        <ele>243.1</ele>
        <time>2014-10-02T06:14:56Z</time>
      </trkpt>
      <trkpt lat="42.4660860" lon="-7.2873870">
        <ele>243.2</ele>
        <time>2014-10-02T06:14:57Z</time>
      </trkpt>
      <trkpt lat="42.4660350" lon="-7.2874180">
        <ele>243.3</ele>
        <time>2014-10-02T06:14:58Z</time>
      </trkpt>
      <trkpt lat="42.4659810" lon="-7.2874520">
        <ele>243.4</ele>
        <time>2014-10-02T06:14:59Z</time>
      </trkpt>
      <trkpt lat="42.4659260" lon="-7.2874900">
        <ele>243.5</ele>
        <time>2014-10-02T06:15:00Z</time>
      </trkpt>
      <trkpt lat="42.4658760" lon="-7.2875310">
        <ele>243.6</ele>
        <time>2014-10-02T06:15:01Z</time>
      </trkpt>
      <trkpt lat="42.4658300" lon="-7.2875740">
        <ele>243.8</ele>
        <time>2014-10-02T06:15:02Z</time>
      </trkpt>
      <trkpt lat="42.4657860" lon="-7.2876140">
        <ele>243.9</ele>
        <time>2014-10-02T06:15:03Z</time>
      </trkpt>
      <trkpt lat="42.4657390" lon="-7.2876550">
        <ele>244.0</ele>
        <time>2014-10-02T06:15:04Z</time>
      </trkpt>
      <trkpt lat="42.4656960" lon="-7.2876930">
        <ele>244.1</ele>
        <time>2014-10-02T06:15:05Z</time>
      </trkpt>
      <trkpt lat="42.4656560" lon="-7.2877260">
        <ele>244.2</ele>
        <time>2014-10-02T06:15:06Z</time>
      </trkpt>
      <trkpt lat="42.4656170" lon="-7.2877610">
        <ele>244.3</ele>
        <time>2014-10-02T06:15:07Z</time>
      </trkpt>
      <trkpt lat="42.4655790" lon="-7.2877940">
        <ele>244.5</ele>
        <time>2014-10-02T06:15:08Z</time>
      </trkpt>
      <trkpt lat="42.4655390" lon="-7.2878290">
        <ele>244.7</ele>
        <time>2014-10-02T06:15:09Z</time>
      </trkpt>
      <trkpt lat="42.4654980" lon="-7.2878640">
        <ele>245.0</ele>
        <time>2014-10-02T06:15:10Z</time>
      </trkpt>
      <trkpt lat="42.4654610" lon="-7.2878980">
        <ele>245.1</ele>
        <time>2014-10-02T06:15:11Z</time>
      </trkpt>
      <trkpt lat="42.4654210" lon="-7.2879360">
        <ele>245.2</ele>
        <time>2014-10-02T06:15:12Z</time>
      </trkpt>
      <trkpt lat="42.4653950" lon="-7.2879880">
        <ele>245.2</ele>
        <time>2014-10-02T06:15:13Z</time>
      </trkpt>
      <trkpt lat="42.4653800" lon="-7.2880450">
        <ele>245.3</ele>
        <time>2014-10-02T06:15:14Z</time>
      </trkpt>
      <trkpt lat="42.4653680" lon="-7.2881090">
        <ele>245.4</ele>
        <time>2014-10-02T06:15:15Z</time>
      </trkpt>
      <trkpt lat="42.4653730" lon="-7.2881810">
        <ele>245.5</ele>
        <time>2014-10-02T06:15:16Z</time>
      </trkpt>
      <trkpt lat="42.4653820" lon="-7.2882710">
        <ele>245.6</ele>
        <time>2014-10-02T06:15:17Z</time>
      </trkpt>
      <trkpt lat="42.4653960" lon="-7.2883680">
        <ele>245.7</ele>
        <time>2014-10-02T06:15:18Z</time>
      </trkpt>
      <trkpt lat="42.4654080" lon="-7.2884530">
        <ele>245.7</ele>
        <time>2014-10-02T06:15:19Z</time>
      </trkpt>
      <trkpt lat="42.4654190" lon="-7.2885330">
        <ele>245.8</ele>
        <time>2014-10-02T06:15:20Z</time>
      </trkpt>
      <trkpt lat="42.4654280" lon="-7.2886100">
        <ele>245.9</ele>
        <time>2014-10-02T06:15:21Z</time>
      </trkpt>
      <trkpt lat="42.4654370" lon="-7.2886800">
        <ele>246.0</ele>
        <time>2014-10-02T06:15:22Z</time>
      </trkpt>
      <trkpt lat="42.4654450" lon="-7.2887480">
        <ele>246.0</ele>
        <time>2014-10-02T06:15:23Z</time>
      </trkpt>
      <trkpt lat="42.4654500" lon="-7.2888200">
        <ele>246.1</ele>
        <time>2014-10-02T06:15:24Z</time>
      </trkpt>
      <trkpt lat="42.4654550" lon="-7.2888910">
        <ele>246.3</ele>
        <time>2014-10-02T06:15:25Z</time>
      </trkpt>
      <trkpt lat="42.4654590" lon="-7.2889620">
        <ele>246.4</ele>
        <time>2014-10-02T06:15:26Z</time>
      </trkpt>
      <trkpt lat="42.4654620" lon="-7.2890290">
        <ele>246.4</ele>
        <time>2014-10-02T06:15:27Z</time>
      </trkpt>
      <trkpt lat="42.4654640" lon="-7.2890950">
        <ele>246.5</ele>
        <time>2014-10-02T06:15:28Z</time>
      </trkpt>
      <trkpt lat="42.4654690" lon="-7.2891640">
        <ele>246.6</ele>
        <time>2014-10-02T06:15:29Z</time>
      </trkpt>
      <trkpt lat="42.4654750" lon="-7.2892310">
        <ele>246.7</ele>
        <time>2014-10-02T06:15:30Z</time>
      </trkpt>
      <trkpt lat="42.4654840" lon="-7.2892990">
        <ele>246.8</ele>
        <time>2014-10-02T06:15:31Z</time>
      </trkpt>
      <trkpt lat="42.4654920" lon="-7.2893650">
        <ele>246.8</ele>
        <time>2014-10-02T06:15:32Z</time>
      </trkpt>
      <trkpt lat="42.4654990" lon="-7.2894310">
        <ele>246.9</ele>
        <time>2014-10-02T06:15:33Z</time>
      </trkpt>
      <trkpt lat="42.4654980" lon="-7.2895100">
        <ele>247.0</ele>
        <time>2014-10-02T06:15:34Z</time>
      </trkpt>
      <trkpt lat="42.4654840" lon="-7.2895780">
        <ele>247.1</ele>
        <time>2014-10-02T06:15:35Z</time>
      </trkpt>
      <trkpt lat="42.4654560" lon="-7.2896220">
        <ele>247.2</ele>
        <time>2014-10-02T06:15:36Z</time>
      </trkpt>
      <trkpt lat="42.4654220" lon="-7.2896360">
        <ele>247.2</ele>
        <time>2014-10-02T06:15:37Z</time>
      </trkpt>
      <trkpt lat="42.4653820" lon="-7.2896430">
        <ele>247.3</ele>
        <time>2014-10-02T06:15:38Z</time>
      </trkpt>
      <trkpt lat="42.4653430" lon="-7.2896470">
        <ele>247.4</ele>
        <time>2014-10-02T06:15:39Z</time>
      </trkpt>
      <trkpt lat="42.4653050" lon="-7.2896470">
        <ele>247.5</ele>
        <time>2014-10-02T06:15:40Z</time>
      </trkpt>
      <trkpt lat="42.4652740" lon="-7.2896490">
        <ele>247.5</ele>
        <time>2014-10-02T06:15:41Z</time>
      </trkpt>
      <trkpt lat="42.4652420" lon="-7.2896510">
        <ele>247.5</ele>
        <time>2014-10-02T06:15:42Z</time>
      </trkpt>
      <trkpt lat="42.4652070" lon="-7.2896600">
        <ele>247.6</ele>
        <time>2014-10-02T06:15:43Z</time>
      </trkpt>
      <trkpt lat="42.4651740" lon="-7.2896700">
        <ele>247.6</ele>
        <time>2014-10-02T06:15:44Z</time>
      </trkpt>
      <trkpt lat="42.4651350" lon="-7.2896810">
        <ele>247.7</ele>
        <time>2014-10-02T06:15:45Z</time>
      </trkpt>
      <trkpt lat="42.4651070" lon="-7.2896910">
        <ele>247.7</ele>
        <time>2014-10-02T06:15:46Z</time>
      </trkpt>
      <trkpt lat="42.4650630" lon="-7.2897080">
        <ele>248.0</ele>
        <time>2014-10-02T06:15:48Z</time>
      </trkpt>
      <trkpt lat="42.4650360" lon="-7.2897190">
        <ele>248.3</ele>
        <time>2014-10-02T06:15:49Z</time>
      </trkpt>
      <trkpt lat="42.4649790" lon="-7.2897370">
        <ele>248.7</ele>
        <time>2014-10-02T06:15:51Z</time>
      </trkpt>
      <trkpt lat="42.4649480" lon="-7.2897500">
        <ele>248.9</ele>
        <time>2014-10-02T06:15:52Z</time>
      </trkpt>
      <trkpt lat="42.4649200" lon="-7.2897620">
        <ele>249.2</ele>
        <time>2014-10-02T06:15:53Z</time>
      </trkpt>
      <trkpt lat="42.4648910" lon="-7.2897870">
        <ele>249.4</ele>
        <time>2014-10-02T06:15:54Z</time>
      </trkpt>
      <trkpt lat="42.4648570" lon="-7.2897990">
        <ele>249.6</ele>
        <time>2014-10-02T06:15:55Z</time>
      </trkpt>
      <trkpt lat="42.4648240" lon="-7.2898110">
        <ele>249.9</ele>
        <time>2014-10-02T06:15:56Z</time>
      </trkpt>
      <trkpt lat="42.4647900" lon="-7.2898230">
        <ele>250.1</ele>
        <time>2014-10-02T06:15:57Z</time>
      </trkpt>
      <trkpt lat="42.4647580" lon="-7.2898330">
        <ele>250.3</ele>
        <time>2014-10-02T06:15:58Z</time>
      </trkpt>
      <trkpt lat="42.4647240" lon="-7.2898400">
        <ele>250.5</ele>
        <time>2014-10-02T06:15:59Z</time>
      </trkpt>
      <trkpt lat="42.4646860" lon="-7.2898420">
        <ele>250.8</ele>
        <time>2014-10-02T06:16:00Z</time>
      </trkpt>
      <trkpt lat="42.4646480" lon="-7.2898400">
        <ele>251.0</ele>
        <time>2014-10-02T06:16:01Z</time>
      </trkpt>
      <trkpt lat="42.4646120" lon="-7.2898340">
        <ele>251.2</ele>
        <time>2014-10-02T06:16:02Z</time>
      </trkpt>
      <trkpt lat="42.4645760" lon="-7.2898210">
        <ele>251.4</ele>
        <time>2014-10-02T06:16:03Z</time>
      </trkpt>
      <trkpt lat="42.4645430" lon="-7.2898090">
        <ele>251.6</ele>
        <time>2014-10-02T06:16:04Z</time>
      </trkpt>
      <trkpt lat="42.4645110" lon="-7.2897950">
        <ele>251.7</ele>
        <time>2014-10-02T06:16:05Z</time>
      </trkpt>
      <trkpt lat="42.4644780" lon="-7.2897780">
        <ele>251.9</ele>
        <time>2014-10-02T06:16:06Z</time>
      </trkpt>
      <trkpt lat="42.4644440" lon="-7.2897600">
        <ele>252.1</ele>
        <time>2014-10-02T06:16:07Z</time>
      </trkpt>
      <trkpt lat="42.4644090" lon="-7.2897400">
        <ele>252.2</ele>
        <time>2014-10-02T06:16:08Z</time>
      </trkpt>
      <trkpt lat="42.4643750" lon="-7.2897210">
        <ele>252.4</ele>
        <time>2014-10-02T06:16:09Z</time>
      </trkpt>
      <trkpt lat="42.4643400" lon="-7.2897070">
        <ele>252.5</ele>
        <time>2014-10-02T06:16:10Z</time>
      </trkpt>
      <trkpt lat="42.4643020" lon="-7.2897050">
        <ele>252.7</ele>
        <time>2014-10-02T06:16:11Z</time>
      </trkpt>
      <trkpt lat="42.4642680" lon="-7.2897150">
        <ele>252.9</ele>
        <time>2014-10-02T06:16:12Z</time>
      </trkpt>
      <trkpt lat="42.4642380" lon="-7.2897400">
        <ele>253.0</ele>
        <time>2014-10-02T06:16:13Z</time>
      </trkpt>
      <trkpt lat="42.4642060" lon="-7.2897720">
        <ele>253.1</ele>
        <time>2014-10-02T06:16:14Z</time>
      </trkpt>
      <trkpt lat="42.4641720" lon="-7.2898100">
        <ele>253.3</ele>
        <time>2014-10-02T06:16:15Z</time>
      </trkpt>
      <trkpt lat="42.4641420" lon="-7.2898470">
        <ele>253.4</ele>
        <time>2014-10-02T06:16:16Z</time>
      </trkpt>
      <trkpt lat="42.4641130" lon="-7.2898870">
        <ele>253.5</ele>
        <time>2014-10-02T06:16:17Z</time>
      </trkpt>
      <trkpt lat="42.4640840" lon="-7.2899280">
        <ele>253.6</ele>
        <time>2014-10-02T06:16:18Z</time>
      </trkpt>
      <trkpt lat="42.4640540" lon="-7.2899700">
        <ele>253.7</ele>
        <time>2014-10-02T06:16:19Z</time>
      </trkpt>
      <trkpt lat="42.4640240" lon="-7.2900100">
        <ele>253.7</ele>
        <time>2014-10-02T06:16:20Z</time>
      </trkpt>
      <trkpt lat="42.4639930" lon="-7.2900500">
        <ele>253.8</ele>
        <time>2014-10-02T06:16:21Z</time>
      </trkpt>
      <trkpt lat="42.4639620" lon="-7.2900870">
        <ele>253.9</ele>
        <time>2014-10-02T06:16:22Z</time>
      </trkpt>
      <trkpt lat="42.4639260" lon="-7.2901260">
        <ele>254.1</ele>
        <time>2014-10-02T06:16:23Z</time>
      </trkpt>
      <trkpt lat="42.4638900" lon="-7.2901630">
        <ele>254.2</ele>
        <time>2014-10-02T06:16:24Z</time>
      </trkpt>
      <trkpt lat="42.4638530" lon="-7.2902000">
        <ele>254.3</ele>
        <time>2014-10-02T06:16:25Z</time>
      </trkpt>
      <trkpt lat="42.4638130" lon="-7.2902350">
        <ele>254.5</ele>
        <time>2014-10-02T06:16:26Z</time>
      </trkpt>
      <trkpt lat="42.4637720" lon="-7.2902680">
        <ele>254.7</ele>
        <time>2014-10-02T06:16:27Z</time>
      </trkpt>
      <trkpt lat="42.4637360" lon="-7.2902950">
        <ele>254.9</ele>
        <time>2014-10-02T06:16:28Z</time>
      </trkpt>
      <trkpt lat="42.4637010" lon="-7.2903180">
        <ele>255.1</ele>
        <time>2014-10-02T06:16:29Z</time>
      </trkpt>
      <trkpt lat="42.4636680" lon="-7.2903380">
        <ele>255.2</ele>
        <time>2014-10-02T06:16:30Z</time>
      </trkpt>
      <trkpt lat="42.4636340" lon="-7.2903560">
        <ele>255.4</ele>
        <time>2014-10-02T06:16:31Z</time>
      </trkpt>
      <trkpt lat="42.4636000" lon="-7.2903710">
        <ele>255.6</ele>
        <time>2014-10-02T06:16:32Z</time>
      </trkpt>
      <trkpt lat="42.4635630" lon="-7.2903770">
        <ele>255.8</ele>
        <time>2014-10-02T06:16:33Z</time>
      </trkpt>
      <trkpt lat="42.4635270" lon="-7.2903830">
        <ele>256.0</ele>
        <time>2014-10-02T06:16:34Z</time>
      </trkpt>
      <trkpt lat="42.4634920" lon="-7.2903850">
        <ele>256.1</ele>
        <time>2014-10-02T06:16:35Z</time>
      </trkpt>
      <trkpt lat="42.4634560" lon="-7.2903830">
        <ele>256.3</ele>
        <time>2014-10-02T06:16:36Z</time>
      </trkpt>
      <trkpt lat="42.4634180" lon="-7.2903670">
        <ele>256.4</ele>
        <time>2014-10-02T06:16:37Z</time>
      </trkpt>
      <trkpt lat="42.4633800" lon="-7.2903470">
        <ele>256.6</ele>
        <time>2014-10-02T06:16:38Z</time>
      </trkpt>
      <trkpt lat="42.4633500" lon="-7.2903190">
        <ele>256.7</ele>
        <time>2014-10-02T06:16:39Z</time>
      </trkpt>
      <trkpt lat="42.4633170" lon="-7.2902890">
        <ele>256.8</ele>
        <time>2014-10-02T06:16:40Z</time>
      </trkpt>
      <trkpt lat="42.4632870" lon="-7.2902590">
        <ele>256.9</ele>
        <time>2014-10-02T06:16:41Z</time>
      </trkpt>
      <trkpt lat="42.4632580" lon="-7.2902280">
        <ele>257.1</ele>
        <time>2014-10-02T06:16:42Z</time>
      </trkpt>
      <trkpt lat="42.4632290" lon="-7.2901980">
        <ele>257.2</ele>
        <time>2014-10-02T06:16:43Z</time>
      </trkpt>
      <trkpt lat="42.4631980" lon="-7.2901650">
        <ele>257.3</ele>
        <time>2014-10-02T06:16:44Z</time>
      </trkpt>
      <trkpt lat="42.4631660" lon="-7.2901280">
        <ele>257.5</ele>
        <time>2014-10-02T06:16:45Z</time>
      </trkpt>
      <trkpt lat="42.4631320" lon="-7.2900860">
        <ele>257.7</ele>
        <time>2014-10-02T06:16:46Z</time>
      </trkpt>
      <trkpt lat="42.4630990" lon="-7.2900500">
        <ele>257.9</ele>
        <time>2014-10-02T06:16:47Z</time>
      </trkpt>
      <trkpt lat="42.4630680" lon="-7.2900170">
        <ele>258.0</ele>
        <time>2014-10-02T06:16:48Z</time>
      </trkpt>
      <trkpt lat="42.4630350" lon="-7.2899940">
        <ele>258.4</ele>
        <time>2014-10-02T06:16:49Z</time>
      </trkpt>
      <trkpt lat="42.4630010" lon="-7.2899740">
        <ele>258.7</ele>
        <time>2014-10-02T06:16:50Z</time>
      </trkpt>
      <trkpt lat="42.4629690" lon="-7.2899540">
        <ele>259.1</ele>
        <time>2014-10-02T06:16:51Z</time>
      </trkpt>
      <trkpt lat="42.4629360" lon="-7.2899520">
        <ele>259.5</ele>
        <time>2014-10-02T06:16:52Z</time>
      </trkpt>
      <trkpt lat="42.4629060" lon="-7.2899490">
        <ele>259.8</ele>
        <time>2014-10-02T06:16:53Z</time>
      </trkpt>
      <trkpt lat="42.4628830" lon="-7.2899690">
        <ele>260.1</ele>
        <time>2014-10-02T06:16:54Z</time>
      </trkpt>
      <trkpt lat="42.4628610" lon="-7.2900020">
        <ele>260.6</ele>
        <time>2014-10-02T06:16:55Z</time>
      </trkpt>
      <trkpt lat="42.4628430" lon="-7.2900290">
        <ele>260.9</ele>
        <time>2014-10-02T06:16:56Z</time>
      </trkpt>
      <trkpt lat="42.4628230" lon="-7.2900580">
        <ele>261.3</ele>
        <time>2014-10-02T06:16:57Z</time>
      </trkpt>
      <trkpt lat="42.4628020" lon="-7.2900850">
        <ele>261.7</ele>
        <time>2014-10-02T06:16:58Z</time>
      </trkpt>
      <trkpt lat="42.4627760" lon="-7.2901250">
        <ele>262.3</ele>
        <time>2014-10-02T06:17:00Z</time>
      </trkpt>
      <trkpt lat="42.4627530" lon="-7.2901660">
        <ele>262.8</ele>
        <time>2014-10-02T06:17:02Z</time>
      </trkpt>
      <trkpt lat="42.4627340" lon="-7.2902060">
        <ele>263.4</ele>
        <time>2014-10-02T06:17:04Z</time>
      </trkpt>
      <trkpt lat="42.4627150" lon="-7.2902490">
        <ele>263.9</ele>
        <time>2014-10-02T06:17:06Z</time>
      </trkpt>
      <trkpt lat="42.4626920" lon="-7.2902950">
        <ele>264.5</ele>
        <time>2014-10-02T06:17:08Z</time>
      </trkpt>
      <trkpt lat="42.4626700" lon="-7.2903420">
        <ele>265.1</ele>
        <time>2014-10-02T06:17:10Z</time>
      </trkpt>
      <trkpt lat="42.4626460" lon="-7.2903920">
        <ele>265.8</ele>
        <time>2014-10-02T06:17:12Z</time>
      </trkpt>
      <trkpt lat="42.4626260" lon="-7.2904390">
        <ele>266.4</ele>
        <time>2014-10-02T06:17:14Z</time>
      </trkpt>
      <trkpt lat="42.4626050" lon="-7.2904890">
        <ele>267.0</ele>
        <time>2014-10-02T06:17:16Z</time>
      </trkpt>
      <trkpt lat="42.4625790" lon="-7.2905420">
        <ele>267.7</ele>
        <time>2014-10-02T06:17:18Z</time>
      </trkpt>
      <trkpt lat="42.4625570" lon="-7.2905840">
        <ele>268.2</ele>
        <time>2014-10-02T06:17:20Z</time>
      </trkpt>
      <trkpt lat="42.4625290" lon="-7.2906290">
        <ele>268.8</ele>
        <time>2014-10-02T06:17:22Z</time>
      </trkpt>
      <trkpt lat="42.4625020" lon="-7.2906710">
        <ele>269.4</ele>
        <time>2014-10-02T06:17:24Z</time>
      </trkpt>
      <trkpt lat="42.4624750" lon="-7.2907140">
        <ele>269.9</ele>
        <time>2014-10-02T06:17:26Z</time>
      </trkpt>
      <trkpt lat="42.4624410" lon="-7.2907570">
        <ele>270.5</ele>
        <time>2014-10-02T06:17:28Z</time>
      </trkpt>
      <trkpt lat="42.4623980" lon="-7.2907920">
        <ele>271.1</ele>
        <time>2014-10-02T06:17:30Z</time>
      </trkpt>
      <trkpt lat="42.4623520" lon="-7.2908090">
        <ele>271.6</ele>
        <time>2014-10-02T06:17:32Z</time>
      </trkpt>
      <trkpt lat="42.4623030" lon="-7.2908140">
        <ele>272.1</ele>
        <time>2014-10-02T06:17:34Z</time>
      </trkpt>
      <trkpt lat="42.4622570" lon="-7.2908120">
        <ele>272.5</ele>
        <time>2014-10-02T06:17:36Z</time>
      </trkpt>
      <trkpt lat="42.4622100" lon="-7.2907930">
        <ele>273.0</ele>
        <time>2014-10-02T06:17:38Z</time>
      </trkpt>
      <trkpt lat="42.4621600" lon="-7.2907690">
        <ele>273.4</ele>
        <time>2014-10-02T06:17:40Z</time>
      </trkpt>
      <trkpt lat="42.4621340" lon="-7.2907550">
        <ele>273.7</ele>
        <time>2014-10-02T06:17:41Z</time>
      </trkpt>
      <trkpt lat="42.4621080" lon="-7.2907400">
        <ele>273.9</ele>
        <time>2014-10-02T06:17:42Z</time>
      </trkpt>
      <trkpt lat="42.4620590" lon="-7.2907110">
        <ele>274.4</ele>
        <time>2014-10-02T06:17:44Z</time>
      </trkpt>
      <trkpt lat="42.4620150" lon="-7.2906840">
        <ele>274.8</ele>
        <time>2014-10-02T06:17:46Z</time>
      </trkpt>
      <trkpt lat="42.4619740" lon="-7.2906560">
        <ele>275.2</ele>
        <time>2014-10-02T06:17:48Z</time>
      </trkpt>
      <trkpt lat="42.4619330" lon="-7.2906270">
        <ele>275.7</ele>
        <time>2014-10-02T06:17:50Z</time>
      </trkpt>
      <trkpt lat="42.4618950" lon="-7.2905890">
        <ele>276.1</ele>
        <time>2014-10-02T06:17:52Z</time>
      </trkpt>
      <trkpt lat="42.4618580" lon="-7.2905410">
        <ele>276.6</ele>
        <time>2014-10-02T06:17:54Z</time>
      </trkpt>
      <trkpt lat="42.4618380" lon="-7.2905140">
        <ele>276.8</ele>
        <time>2014-10-02T06:17:55Z</time>
      </trkpt>
      <trkpt lat="42.4618000" lon="-7.2904640">
        <ele>277.3</ele>
        <time>2014-10-02T06:17:57Z</time>
      </trkpt>
      <trkpt lat="42.4617800" lon="-7.2904360">
        <ele>277.6</ele>
        <time>2014-10-02T06:17:58Z</time>
      </trkpt>
      <trkpt lat="42.4617440" lon="-7.2903880">
        <ele>278.0</ele>
        <time>2014-10-02T06:18:00Z</time>
      </trkpt>
      <trkpt lat="42.4617090" lon="-7.2903380">
        <ele>278.5</ele>
        <time>2014-10-02T06:18:02Z</time>
      </trkpt>
      <trkpt lat="42.4616710" lon="-7.2902840">
        <ele>279.0</ele>
        <time>2014-10-02T06:18:04Z</time>
      </trkpt>
      <trkpt lat="42.4616520" lon="-7.2902560">
        <ele>279.3</ele>
        <time>2014-10-02T06:18:05Z</time>
      </trkpt>
      <trkpt lat="42.4616190" lon="-7.2902110">
        <ele>279.7</ele>
        <time>2014-10-02T06:18:07Z</time>
      </trkpt>
      <trkpt lat="42.4615870" lon="-7.2901640">
        <ele>280.2</ele>
        <time>2014-10-02T06:18:09Z</time>
      </trkpt>
      <trkpt lat="42.4615560" lon="-7.2901100">
        <ele>280.6</ele>
        <time>2014-10-02T06:18:11Z</time>
      </trkpt>
      <trkpt lat="42.4615250" lon="-7.2900520">
        <ele>281.1</ele>
        <time>2014-10-02T06:18:13Z</time>
      </trkpt>
      <trkpt lat="42.4615120" lon="-7.2900190">
        <ele>281.4</ele>
        <time>2014-10-02T06:18:14Z</time>
      </trkpt>
      <trkpt lat="42.4614940" lon="-7.2899460">
        <ele>281.8</ele>
        <time>2014-10-02T06:18:16Z</time>
      </trkpt>
      <trkpt lat="42.4614890" lon="-7.2899060">
        <ele>282.1</ele>
        <time>2014-10-02T06:18:17Z</time>
      </trkpt>
      <trkpt lat="42.4614850" lon="-7.2898640">
        <ele>282.3</ele>
        <time>2014-10-02T06:18:18Z</time>
      </trkpt>
      <trkpt lat="42.4614820" lon="-7.2898210">
        <ele>282.6</ele>
        <time>2014-10-02T06:18:19Z</time>
      </trkpt>
      <trkpt lat="42.4614800" lon="-7.2897780">
        <ele>282.8</ele>
        <time>2014-10-02T06:18:20Z</time>
      </trkpt>
      <trkpt lat="42.4614780" lon="-7.2897350">
        <ele>283.1</ele>
        <time>2014-10-02T06:18:21Z</time>
      </trkpt>
      <trkpt lat="42.4614780" lon="-7.2896920">
        <ele>283.3</ele>
        <time>2014-10-02T06:18:22Z</time>
      </trkpt>
      <trkpt lat="42.4614790" lon="-7.2896490">
        <ele>283.5</ele>
        <time>2014-10-02T06:18:23Z</time>
      </trkpt>
      <trkpt lat="42.4614820" lon="-7.2896100">
        <ele>283.8</ele>
        <time>2014-10-02T06:18:24Z</time>
      </trkpt>
      <trkpt lat="42.4614840" lon="-7.2895730">
        <ele>284.0</ele>
        <time>2014-10-02T06:18:25Z</time>
      </trkpt>
      <trkpt lat="42.4614860" lon="-7.2895340">
        <ele>284.2</ele>
        <time>2014-10-02T06:18:26Z</time>
      </trkpt>
      <trkpt lat="42.4614880" lon="-7.2894930">
        <ele>284.4</ele>
        <time>2014-10-02T06:18:27Z</time>
      </trkpt>
      <trkpt lat="42.4614890" lon="-7.2894500">
        <ele>284.6</ele>
        <time>2014-10-02T06:18:28Z</time>
      </trkpt>
      <trkpt lat="42.4614890" lon="-7.2894130">
        <ele>284.8</ele>
        <time>2014-10-02T06:18:29Z</time>
      </trkpt>
      <trkpt lat="42.4614880" lon="-7.2893720">
        <ele>285.0</ele>
        <time>2014-10-02T06:18:30Z</time>
      </trkpt>
      <trkpt lat="42.4614870" lon="-7.2893300">
        <ele>285.2</ele>
        <time>2014-10-02T06:18:31Z</time>
      </trkpt>
      <trkpt lat="42.4614870" lon="-7.2892860">
        <ele>285.5</ele>
        <time>2014-10-02T06:18:32Z</time>
      </trkpt>
      <trkpt lat="42.4614870" lon="-7.2892380">
        <ele>285.8</ele>
        <time>2014-10-02T06:18:33Z</time>
      </trkpt>
      <trkpt lat="42.4614870" lon="-7.2891920">
        <ele>286.1</ele>
        <time>2014-10-02T06:18:34Z</time>
      </trkpt>
      <trkpt lat="42.4614900" lon="-7.2891550">
        <ele>286.4</ele>
        <time>2014-10-02T06:18:35Z</time>
      </trkpt>
      <trkpt lat="42.4614930" lon="-7.2891130">
        <ele>286.7</ele>
        <time>2014-10-02T06:18:36Z</time>
      </trkpt>
      <trkpt lat="42.4614960" lon="-7.2890720">
        <ele>287.0</ele>
        <time>2014-10-02T06:18:37Z</time>
      </trkpt>
      <trkpt lat="42.4614990" lon="-7.2890350">
        <ele>287.3</ele>
        <time>2014-10-02T06:18:38Z</time>
      </trkpt>
      <trkpt lat="42.4615020" lon="-7.2889680">
        <ele>287.9</ele>
        <time>2014-10-02T06:18:40Z</time>
      </trkpt>
      <trkpt lat="42.4615000" lon="-7.2889070">
        <ele>288.4</ele>
        <time>2014-10-02T06:18:42Z</time>
      </trkpt>
      <trkpt lat="42.4614930" lon="-7.2888450">
        <ele>289.0</ele>
        <time>2014-10-02T06:18:44Z</time>
      </trkpt>
      <trkpt lat="42.4614820" lon="-7.2887810">
        <ele>289.6</ele>
        <time>2014-10-02T06:18:46Z</time>
      </trkpt>
      <trkpt lat="42.4614680" lon="-7.2887260">
        <ele>290.2</ele>
        <time>2014-10-02T06:18:48Z</time>
      </trkpt>
      <trkpt lat="42.4614370" lon="-7.2886450">
        <ele>291.1</ele>
        <time>2014-10-02T06:18:51Z</time>
      </trkpt>
      <trkpt lat="42.4614040" lon="-7.2886110">
        <ele>291.8</ele>
        <time>2014-10-02T06:18:53Z</time>
      </trkpt>
      <trkpt lat="42.4613630" lon="-7.2885810">
        <ele>292.4</ele>
        <time>2014-10-02T06:18:55Z</time>
      </trkpt>
      <trkpt lat="42.4613170" lon="-7.2885570">
        <ele>293.1</ele>
        <time>2014-10-02T06:18:57Z</time>
      </trkpt>
      <trkpt lat="42.4612700" lon="-7.2885510">
        <ele>293.7</ele>
        <time>2014-10-02T06:18:59Z</time>
      </trkpt>
      <trkpt lat="42.4612210" lon="-7.2885510">
        <ele>294.4</ele>
        <time>2014-10-02T06:19:01Z</time>
      </trkpt>
      <trkpt lat="42.4611770" lon="-7.2885740">
        <ele>295.1</ele>
        <time>2014-10-02T06:19:03Z</time>
      </trkpt>
      <trkpt lat="42.4611330" lon="-7.2885990">
        <ele>295.7</ele>
        <time>2014-10-02T06:19:05Z</time>
      </trkpt>
      <trkpt lat="42.4610920" lon="-7.2886330">
        <ele>296.4</ele>
        <time>2014-10-02T06:19:07Z</time>
      </trkpt>
      <trkpt lat="42.4610600" lon="-7.2886730">
        <ele>297.0</ele>
        <time>2014-10-02T06:19:09Z</time>
      </trkpt>
      <trkpt lat="42.4610320" lon="-7.2887200">
        <ele>297.6</ele>
        <time>2014-10-02T06:19:11Z</time>
      </trkpt>
      <trkpt lat="42.4610060" lon="-7.2887700">
        <ele>298.2</ele>
        <time>2014-10-02T06:19:13Z</time>
      </trkpt>
      <trkpt lat="42.4609890" lon="-7.2888160">
        <ele>298.7</ele>
        <time>2014-10-02T06:19:15Z</time>
      </trkpt>
      <trkpt lat="42.4609680" lon="-7.2888680">
        <ele>299.3</ele>
        <time>2014-10-02T06:19:17Z</time>
      </trkpt>
      <trkpt lat="42.4609480" lon="-7.2889210">
        <ele>299.9</ele>
        <time>2014-10-02T06:19:19Z</time>
      </trkpt>
      <trkpt lat="42.4609280" lon="-7.2889760">
        <ele>300.5</ele>
        <time>2014-10-02T06:19:21Z</time>
      </trkpt>
      <trkpt lat="42.4609070" lon="-7.2890360">
        <ele>301.1</ele>
        <time>2014-10-02T06:19:23Z</time>
      </trkpt>
      <trkpt lat="42.4608830" lon="-7.2890930">
        <ele>301.7</ele>
        <time>2014-10-02T06:19:25Z</time>
      </trkpt>
      <trkpt lat="42.4608600" lon="-7.2891470">
        <ele>302.3</ele>
        <time>2014-10-02T06:19:27Z</time>
      </trkpt>
      <trkpt lat="42.4608340" lon="-7.2892050">
        <ele>302.9</ele>
        <time>2014-10-02T06:19:29Z</time>
      </trkpt>
      <trkpt lat="42.4608090" lon="-7.2892650">
        <ele>303.6</ele>
        <time>2014-10-02T06:19:31Z</time>
      </trkpt>
      <trkpt lat="42.4607960" lon="-7.2893000">
        <ele>304.0</ele>
        <time>2014-10-02T06:19:32Z</time>
      </trkpt>
      <trkpt lat="42.4607730" lon="-7.2893580">
        <ele>304.6</ele>
        <time>2014-10-02T06:19:34Z</time>
      </trkpt>
      <trkpt lat="42.4607500" lon="-7.2894090">
        <ele>305.2</ele>
        <time>2014-10-02T06:19:36Z</time>
      </trkpt>
      <trkpt lat="42.4607290" lon="-7.2894490">
        <ele>305.6</ele>
        <time>2014-10-02T06:19:38Z</time>
      </trkpt>
      <trkpt lat="42.4607060" lon="-7.2894950">
        <ele>306.1</ele>
        <time>2014-10-02T06:19:40Z</time>
      </trkpt>
      <trkpt lat="42.4606830" lon="-7.2895360">
        <ele>306.6</ele>
        <time>2014-10-02T06:19:42Z</time>
      </trkpt>
      <trkpt lat="42.4606540" lon="-7.2895750">
        <ele>307.1</ele>
        <time>2014-10-02T06:19:44Z</time>
      </trkpt>
      <trkpt lat="42.4606160" lon="-7.2896170">
        <ele>307.7</ele>
        <time>2014-10-02T06:19:46Z</time>
      </trkpt>
      <trkpt lat="42.4605800" lon="-7.2896520">
        <ele>308.3</ele>
        <time>2014-10-02T06:19:48Z</time>
      </trkpt>
      <trkpt lat="42.4605430" lon="-7.2896820">
        <ele>308.8</ele>
        <time>2014-10-02T06:19:50Z</time>
      </trkpt>
      <trkpt lat="42.4605050" lon="-7.2897110">
        <ele>309.4</ele>
        <time>2014-10-02T06:19:52Z</time>
      </trkpt>
      <trkpt lat="42.4604660" lon="-7.2897440">
        <ele>310.0</ele>
        <time>2014-10-02T06:19:54Z</time>
      </trkpt>
      <trkpt lat="42.4604250" lon="-7.2897820">
        <ele>310.6</ele>
        <time>2014-10-02T06:19:56Z</time>
      </trkpt>
      <trkpt lat="42.4603870" lon="-7.2898110">
        <ele>311.2</ele>
        <time>2014-10-02T06:19:58Z</time>
      </trkpt>
      <trkpt lat="42.4603460" lon="-7.2898350">
        <ele>311.7</ele>
        <time>2014-10-02T06:20:00Z</time>
      </trkpt>
      <trkpt lat="42.4603040" lon="-7.2898500">
        <ele>312.3</ele>
        <time>2014-10-02T06:20:02Z</time>
      </trkpt>
      <trkpt lat="42.4602620" lon="-7.2898650">
        <ele>312.8</ele>
        <time>2014-10-02T06:20:04Z</time>
      </trkpt>
      <trkpt lat="42.4602190" lon="-7.2898770">
        <ele>313.3</ele>
        <time>2014-10-02T06:20:06Z</time>
      </trkpt>
      <trkpt lat="42.4601760" lon="-7.2898860">
        <ele>313.8</ele>
        <time>2014-10-02T06:20:08Z</time>
      </trkpt>
      <trkpt lat="42.4601300" lon="-7.2898960">
        <ele>314.4</ele>
        <time>2014-10-02T06:20:10Z</time>
      </trkpt>
      <trkpt lat="42.4600840" lon="-7.2899110">
        <ele>314.9</ele>
        <time>2014-10-02T06:20:12Z</time>
      </trkpt>
      <trkpt lat="42.4600390" lon="-7.2899200">
        <ele>315.5</ele>
        <time>2014-10-02T06:20:14Z</time>
      </trkpt>
      <trkpt lat="42.4599920" lon="-7.2899310">
        <ele>316.0</ele>
        <time>2014-10-02T06:20:16Z</time>
      </trkpt>
      <trkpt lat="42.4599450" lon="-7.2899420">
        <ele>316.6</ele>
        <time>2014-10-02T06:20:18Z</time>
      </trkpt>
      <trkpt lat="42.4598990" lon="-7.2899610">
        <ele>317.2</ele>
        <time>2014-10-02T06:20:20Z</time>
      </trkpt>
      <trkpt lat="42.4598580" lon="-7.2899760">
        <ele>317.7</ele>
        <time>2014-10-02T06:20:22Z</time>
      </trkpt>
      <trkpt lat="42.4598150" lon="-7.2899880">
        <ele>318.2</ele>
        <time>2014-10-02T06:20:24Z</time>
      </trkpt>
      <trkpt lat="42.4597720" lon="-7.2899970">
        <ele>318.8</ele>
        <time>2014-10-02T06:20:26Z</time>
      </trkpt>
      <trkpt lat="42.4597290" lon="-7.2900070">
        <ele>319.3</ele>
        <time>2014-10-02T06:20:28Z</time>
      </trkpt>
      <trkpt lat="42.4596870" lon="-7.2900090">
        <ele>319.8</ele>
        <time>2014-10-02T06:20:30Z</time>
      </trkpt>
      <trkpt lat="42.4596450" lon="-7.2900210">
        <ele>320.3</ele>
        <time>2014-10-02T06:20:32Z</time>
      </trkpt>
      <trkpt lat="42.4595990" lon="-7.2900320">
        <ele>320.9</ele>
        <time>2014-10-02T06:20:34Z</time>
      </trkpt>
      <trkpt lat="42.4595590" lon="-7.2900380">
        <ele>321.5</ele>
        <time>2014-10-02T06:20:36Z</time>
      </trkpt>
      <trkpt lat="42.4595200" lon="-7.2900420">
        <ele>321.9</ele>
        <time>2014-10-02T06:20:38Z</time>
      </trkpt>
      <trkpt lat="42.4594780" lon="-7.2900490">
        <ele>322.5</ele>
        <time>2014-10-02T06:20:40Z</time>
      </trkpt>
      <trkpt lat="42.4594360" lon="-7.2900570">
        <ele>323.0</ele>
        <time>2014-10-02T06:20:42Z</time>
      </trkpt>
      <trkpt lat="42.4593960" lon="-7.2900770">
        <ele>323.5</ele>
        <time>2014-10-02T06:20:44Z</time>
      </trkpt>
      <trkpt lat="42.4593560" lon="-7.2900880">
        <ele>324.0</ele>
        <time>2014-10-02T06:20:46Z</time>
      </trkpt>
      <trkpt lat="42.4593160" lon="-7.2901000">
        <ele>324.5</ele>
        <time>2014-10-02T06:20:48Z</time>
      </trkpt>
      <trkpt lat="42.4592720" lon="-7.2901040">
        <ele>325.1</ele>
        <time>2014-10-02T06:20:50Z</time>
      </trkpt>
      <trkpt lat="42.4592250" lon="-7.2901030">
        <ele>325.6</ele>
        <time>2014-10-02T06:20:52Z</time>
      </trkpt>
      <trkpt lat="42.4591830" lon="-7.2901000">
        <ele>326.2</ele>
        <time>2014-10-02T06:20:54Z</time>
      </trkpt>
      <trkpt lat="42.4591390" lon="-7.2901000">
        <ele>326.7</ele>
        <time>2014-10-02T06:20:56Z</time>
      </trkpt>
      <trkpt lat="42.4590990" lon="-7.2901030">
        <ele>327.2</ele>
        <time>2014-10-02T06:20:58Z</time>
      </trkpt>
      <trkpt lat="42.4590580" lon="-7.2900940">
        <ele>327.7</ele>
        <time>2014-10-02T06:21:00Z</time>
      </trkpt>
      <trkpt lat="42.4590160" lon="-7.2900790">
        <ele>328.3</ele>
        <time>2014-10-02T06:21:02Z</time>
      </trkpt>
      <trkpt lat="42.4589720" lon="-7.2900560">
        <ele>328.9</ele>
        <time>2014-10-02T06:21:04Z</time>
      </trkpt>
      <trkpt lat="42.4589360" lon="-7.2900330">
        <ele>329.4</ele>
        <time>2014-10-02T06:21:06Z</time>
      </trkpt>
      <trkpt lat="42.4589010" lon="-7.2900060">
        <ele>330.0</ele>
        <time>2014-10-02T06:21:08Z</time>
      </trkpt>
      <trkpt lat="42.4588720" lon="-7.2899700">
        <ele>330.5</ele>
        <time>2014-10-02T06:21:10Z</time>
      </trkpt>
      <trkpt lat="42.4588400" lon="-7.2899280">
        <ele>331.1</ele>
        <time>2014-10-02T06:21:12Z</time>
      </trkpt>
      <trkpt lat="42.4588110" lon="-7.2898810">
        <ele>331.6</ele>
        <time>2014-10-02T06:21:14Z</time>
      </trkpt>
      <trkpt lat="42.4587850" lon="-7.2898340">
        <ele>332.2</ele>
        <time>2014-10-02T06:21:16Z</time>
      </trkpt>
      <trkpt lat="42.4587640" lon="-7.2897960">
        <ele>332.6</ele>
        <time>2014-10-02T06:21:18Z</time>
      </trkpt>
      <trkpt lat="42.4587420" lon="-7.2897530">
        <ele>333.1</ele>
        <time>2014-10-02T06:21:20Z</time>
      </trkpt>
      <trkpt lat="42.4587240" lon="-7.2897060">
        <ele>333.6</ele>
        <time>2014-10-02T06:21:22Z</time>
      </trkpt>
      <trkpt lat="42.4587080" lon="-7.2896510">
        <ele>334.2</ele>
        <time>2014-10-02T06:21:24Z</time>
      </trkpt>
      <trkpt lat="42.4586950" lon="-7.2895860">
        <ele>334.8</ele>
        <time>2014-10-02T06:21:26Z</time>
      </trkpt>
      <trkpt lat="42.4586920" lon="-7.2895460">
        <ele>335.2</ele>
        <time>2014-10-02T06:21:27Z</time>
      </trkpt>
      <trkpt lat="42.4586880" lon="-7.2894790">
        <ele>335.9</ele>
        <time>2014-10-02T06:21:29Z</time>
      </trkpt>
      <trkpt lat="42.4586920" lon="-7.2894180">
        <ele>336.4</ele>
        <time>2014-10-02T06:21:31Z</time>
      </trkpt>
      <trkpt lat="42.4586980" lon="-7.2893560">
        <ele>337.0</ele>
        <time>2014-10-02T06:21:33Z</time>
      </trkpt>
      <trkpt lat="42.4587030" lon="-7.2892870">
        <ele>337.6</ele>
        <time>2014-10-02T06:21:35Z</time>
      </trkpt>
      <trkpt lat="42.4587060" lon="-7.2892190">
        <ele>338.3</ele>
        <time>2014-10-02T06:21:37Z</time>
      </trkpt>
      <trkpt lat="42.4587050" lon="-7.2891820">
        <ele>338.6</ele>
        <time>2014-10-02T06:21:38Z</time>
      </trkpt>
      <trkpt lat="42.4587080" lon="-7.2891220">
        <ele>339.1</ele>
        <time>2014-10-02T06:21:40Z</time>
      </trkpt>
      <trkpt lat="42.4587120" lon="-7.2890630">
        <ele>339.7</ele>
        <time>2014-10-02T06:21:42Z</time>
      </trkpt>
      <trkpt lat="42.4587170" lon="-7.2890110">
        <ele>340.2</ele>
        <time>2014-10-02T06:21:44Z</time>
      </trkpt>
      <trkpt lat="42.4587220" lon="-7.2889590">
        <ele>340.6</ele>
        <time>2014-10-02T06:21:46Z</time>
      </trkpt>
      <trkpt lat="42.4587310" lon="-7.2889020">
        <ele>341.2</ele>
        <time>2014-10-02T06:21:48Z</time>
      </trkpt>
      <trkpt lat="42.4587380" lon="-7.2888490">
        <ele>341.7</ele>
        <time>2014-10-02T06:21:50Z</time>
      </trkpt>
      <trkpt lat="42.4587430" lon="-7.2887890">
        <ele>342.2</ele>
        <time>2014-10-02T06:21:52Z</time>
      </trkpt>
      <trkpt lat="42.4587530" lon="-7.2887260">
        <ele>342.8</ele>
        <time>2014-10-02T06:21:54Z</time>
      </trkpt>
      <trkpt lat="42.4587610" lon="-7.2886630">
        <ele>343.4</ele>
        <time>2014-10-02T06:21:56Z</time>
      </trkpt>
      <trkpt lat="42.4587690" lon="-7.2886100">
        <ele>343.9</ele>
        <time>2014-10-02T06:21:58Z</time>
      </trkpt>
      <trkpt lat="42.4587760" lon="-7.2885500">
        <ele>344.4</ele>
        <time>2014-10-02T06:22:00Z</time>
      </trkpt>
      <trkpt lat="42.4587770" lon="-7.2884880">
        <ele>345.0</ele>
        <time>2014-10-02T06:22:02Z</time>
      </trkpt>
      <trkpt lat="42.4587800" lon="-7.2884400">
        <ele>345.4</ele>
        <time>2014-10-02T06:22:04Z</time>
      </trkpt>
      <trkpt lat="42.4587760" lon="-7.2883750">
        <ele>346.0</ele>
        <time>2014-10-02T06:22:06Z</time>
      </trkpt>
      <trkpt lat="42.4587770" lon="-7.2883130">
        <ele>346.6</ele>
        <time>2014-10-02T06:22:08Z</time>
      </trkpt>
      <trkpt lat="42.4587750" lon="-7.2882450">
        <ele>347.2</ele>
        <time>2014-10-02T06:22:10Z</time>
      </trkpt>
      <trkpt lat="42.4587730" lon="-7.2881890">
        <ele>347.7</ele>
        <time>2014-10-02T06:22:12Z</time>
      </trkpt>
      <trkpt lat="42.4587660" lon="-7.2881350">
        <ele>348.2</ele>
        <time>2014-10-02T06:22:14Z</time>
      </trkpt>
      <trkpt lat="42.4587610" lon="-7.2880760">
        <ele>348.7</ele>
        <time>2014-10-02T06:22:16Z</time>
      </trkpt>
      <trkpt lat="42.4587570" lon="-7.2880110">
        <ele>349.3</ele>
        <time>2014-10-02T06:22:18Z</time>
      </trkpt>
      <trkpt lat="42.4587500" lon="-7.2879500">
        <ele>349.9</ele>
        <time>2014-10-02T06:22:20Z</time>
      </trkpt>
      <trkpt lat="42.4587380" lon="-7.2878850">
        <ele>350.5</ele>
        <time>2014-10-02T06:22:22Z</time>
      </trkpt>
      <trkpt lat="42.4587280" lon="-7.2878240">
        <ele>351.1</ele>
        <time>2014-10-02T06:22:24Z</time>
      </trkpt>
      <trkpt lat="42.4587180" lon="-7.2877650">
        <ele>351.6</ele>
        <time>2014-10-02T06:22:26Z</time>
      </trkpt>
      <trkpt lat="42.4587080" lon="-7.2877160">
        <ele>352.1</ele>
        <time>2014-10-02T06:22:28Z</time>
      </trkpt>
      <trkpt lat="42.4586970" lon="-7.2876600">
        <ele>352.7</ele>
        <time>2014-10-02T06:22:30Z</time>
      </trkpt>
      <trkpt lat="42.4586840" lon="-7.2876110">
        <ele>353.1</ele>
        <time>2014-10-02T06:22:32Z</time>
      </trkpt>
      <trkpt lat="42.4586680" lon="-7.2875580">
        <ele>353.7</ele>
        <time>2014-10-02T06:22:34Z</time>
      </trkpt>
      <trkpt lat="42.4586510" lon="-7.2875040">
        <ele>354.2</ele>
        <time>2014-10-02T06:22:36Z</time>
      </trkpt>
      <trkpt lat="42.4586370" lon="-7.2874540">
        <ele>354.6</ele>
        <time>2014-10-02T06:22:38Z</time>
      </trkpt>
      <trkpt lat="42.4586230" lon="-7.2873960">
        <ele>355.2</ele>
        <time>2014-10-02T06:22:40Z</time>
      </trkpt>
      <trkpt lat="42.4586060" lon="-7.2873280">
        <ele>355.8</ele>
        <time>2014-10-02T06:22:42Z</time>
      </trkpt>
      <trkpt lat="42.4585910" lon="-7.2872710">
        <ele>356.4</ele>
        <time>2014-10-02T06:22:44Z</time>
      </trkpt>
      <trkpt lat="42.4585740" lon="-7.2872160">
        <ele>356.9</ele>
        <time>2014-10-02T06:22:46Z</time>
      </trkpt>
      <trkpt lat="42.4585550" lon="-7.2871660">
        <ele>357.4</ele>
        <time>2014-10-02T06:22:48Z</time>
      </trkpt>
      <trkpt lat="42.4585360" lon="-7.2871060">
        <ele>358.1</ele>
        <time>2014-10-02T06:22:50Z</time>
      </trkpt>
      <trkpt lat="42.4585200" lon="-7.2870460">
        <ele>358.7</ele>
        <time>2014-10-02T06:22:52Z</time>
      </trkpt>
      <trkpt lat="42.4584980" lon="-7.2869770">
        <ele>359.3</ele>
        <time>2014-10-02T06:22:54Z</time>
      </trkpt>
      <trkpt lat="42.4584770" lon="-7.2869110">
        <ele>360.0</ele>
        <time>2014-10-02T06:22:56Z</time>
      </trkpt>
      <trkpt lat="42.4584640" lon="-7.2868700">
        <ele>360.4</ele>
        <time>2014-10-02T06:22:57Z</time>
      </trkpt>
      <trkpt lat="42.4584480" lon="-7.2868070">
        <ele>361.0</ele>
        <time>2014-10-02T06:22:59Z</time>
      </trkpt>
      <trkpt lat="42.4584200" lon="-7.2867480">
        <ele>361.7</ele>
        <time>2014-10-02T06:23:01Z</time>
      </trkpt>
      <trkpt lat="42.4583910" lon="-7.2866900">
        <ele>362.4</ele>
        <time>2014-10-02T06:23:03Z</time>
      </trkpt>
      <trkpt lat="42.4583690" lon="-7.2866280">
        <ele>363.0</ele>
        <time>2014-10-02T06:23:05Z</time>
      </trkpt>
      <trkpt lat="42.4583390" lon="-7.2865750">
        <ele>363.7</ele>
        <time>2014-10-02T06:23:07Z</time>
      </trkpt>
      <trkpt lat="42.4582980" lon="-7.2865240">
        <ele>364.4</ele>
        <time>2014-10-02T06:23:09Z</time>
      </trkpt>
      <trkpt lat="42.4582760" lon="-7.2864990">
        <ele>364.7</ele>
        <time>2014-10-02T06:23:10Z</time>
      </trkpt>
      <trkpt lat="42.4582540" lon="-7.2864770">
        <ele>365.1</ele>
        <time>2014-10-02T06:23:11Z</time>
      </trkpt>
      <trkpt lat="42.4582060" lon="-7.2864500">
        <ele>365.8</ele>
        <time>2014-10-02T06:23:13Z</time>
      </trkpt>
      <trkpt lat="42.4581630" lon="-7.2864260">
        <ele>366.4</ele>
        <time>2014-10-02T06:23:15Z</time>
      </trkpt>
      <trkpt lat="42.4581270" lon="-7.2863870">
        <ele>367.0</ele>
        <time>2014-10-02T06:23:17Z</time>
      </trkpt>
      <trkpt lat="42.4580880" lon="-7.2863510">
        <ele>367.6</ele>
        <time>2014-10-02T06:23:19Z</time>
      </trkpt>
      <trkpt lat="42.4580640" lon="-7.2863320">
        <ele>368.0</ele>
        <time>2014-10-02T06:23:20Z</time>
      </trkpt>
      <trkpt lat="42.4580170" lon="-7.2863040">
        <ele>368.6</ele>
        <time>2014-10-02T06:23:22Z</time>
      </trkpt>
      <trkpt lat="42.4579700" lon="-7.2862770">
        <ele>369.3</ele>
        <time>2014-10-02T06:23:24Z</time>
      </trkpt>
      <trkpt lat="42.4579240" lon="-7.2862520">
        <ele>369.9</ele>
        <time>2014-10-02T06:23:26Z</time>
      </trkpt>
      <trkpt lat="42.4578830" lon="-7.2862260">
        <ele>370.5</ele>
        <time>2014-10-02T06:23:28Z</time>
      </trkpt>
      <trkpt lat="42.4578400" lon="-7.2862150">
        <ele>371.1</ele>
        <time>2014-10-02T06:23:30Z</time>
      </trkpt>
      <trkpt lat="42.4577950" lon="-7.2862190">
        <ele>371.7</ele>
        <time>2014-10-02T06:23:32Z</time>
      </trkpt>
      <trkpt lat="42.4577490" lon="-7.2862390">
        <ele>372.3</ele>
        <time>2014-10-02T06:23:34Z</time>
      </trkpt>
      <trkpt lat="42.4577030" lon="-7.2862560">
        <ele>372.9</ele>
        <time>2014-10-02T06:23:36Z</time>
      </trkpt>
      <trkpt lat="42.4576550" lon="-7.2862610">
        <ele>373.5</ele>
        <time>2014-10-02T06:23:38Z</time>
      </trkpt>
      <trkpt lat="42.4576270" lon="-7.2862650">
        <ele>373.8</ele>
        <time>2014-10-02T06:23:39Z</time>
      </trkpt>
      <trkpt lat="42.4575780" lon="-7.2862950">
        <ele>374.5</ele>
        <time>2014-10-02T06:23:41Z</time>
      </trkpt>
      <trkpt lat="42.4575330" lon="-7.2863110">
        <ele>375.1</ele>
        <time>2014-10-02T06:23:43Z</time>
      </trkpt>
      <trkpt lat="42.4574970" lon="-7.2863220">
        <ele>375.6</ele>
        <time>2014-10-02T06:23:45Z</time>
      </trkpt>
      <trkpt lat="42.4574580" lon="-7.2863410">
        <ele>376.3</ele>
        <time>2014-10-02T06:23:47Z</time>
      </trkpt>
      <trkpt lat="42.4574180" lon="-7.2863700">
        <ele>376.9</ele>
        <time>2014-10-02T06:23:49Z</time>
      </trkpt>
      <trkpt lat="42.4573760" lon="-7.2864010">
        <ele>377.4</ele>
        <time>2014-10-02T06:23:51Z</time>
      </trkpt>
      <trkpt lat="42.4573350" lon="-7.2864330">
        <ele>378.0</ele>
        <time>2014-10-02T06:23:53Z</time>
      </trkpt>
      <trkpt lat="42.4572940" lon="-7.2864680">
        <ele>378.5</ele>
        <time>2014-10-02T06:23:55Z</time>
      </trkpt>
      <trkpt lat="42.4572560" lon="-7.2865100">
        <ele>379.1</ele>
        <time>2014-10-02T06:23:57Z</time>
      </trkpt>
      <trkpt lat="42.4572210" lon="-7.2865520">
        <ele>379.6</ele>
        <time>2014-10-02T06:23:59Z</time>
      </trkpt>
      <trkpt lat="42.4571890" lon="-7.2865930">
        <ele>380.1</ele>
        <time>2014-10-02T06:24:01Z</time>
      </trkpt>
      <trkpt lat="42.4571580" lon="-7.2866380">
        <ele>380.6</ele>
        <time>2014-10-02T06:24:03Z</time>
      </trkpt>
      <trkpt lat="42.4571290" lon="-7.2866840">
        <ele>381.1</ele>
        <time>2014-10-02T06:24:05Z</time>
      </trkpt>
      <trkpt lat="42.4570990" lon="-7.2867320">
        <ele>381.7</ele>
        <time>2014-10-02T06:24:07Z</time>
      </trkpt>
      <trkpt lat="42.4570720" lon="-7.2867770">
        <ele>382.1</ele>
        <time>2014-10-02T06:24:09Z</time>
      </trkpt>
      <trkpt lat="42.4570500" lon="-7.2868170">
        <ele>382.5</ele>
        <time>2014-10-02T06:24:11Z</time>
      </trkpt>
      <trkpt lat="42.4570290" lon="-7.2868550">
        <ele>382.9</ele>
        <time>2014-10-02T06:24:13Z</time>
      </trkpt>
      <trkpt lat="42.4570060" lon="-7.2869010">
        <ele>383.3</ele>
        <time>2014-10-02T06:24:15Z</time>
      </trkpt>
      <trkpt lat="42.4569800" lon="-7.2869580">
        <ele>383.7</ele>
        <time>2014-10-02T06:24:17Z</time>
      </trkpt>
      <trkpt lat="42.4569580" lon="-7.2870080">
        <ele>384.1</ele>
        <time>2014-10-02T06:24:19Z</time>
      </trkpt>
      <trkpt lat="42.4569370" lon="-7.2870660">
        <ele>384.6</ele>
        <time>2014-10-02T06:24:21Z</time>
      </trkpt>
      <trkpt lat="42.4569140" lon="-7.2871270">
        <ele>385.0</ele>
        <time>2014-10-02T06:24:23Z</time>
      </trkpt>
      <trkpt lat="42.4568910" lon="-7.2871820">
        <ele>385.4</ele>
        <time>2014-10-02T06:24:25Z</time>
      </trkpt>
      <trkpt lat="42.4568660" lon="-7.2872370">
        <ele>385.7</ele>
        <time>2014-10-02T06:24:27Z</time>
      </trkpt>
      <trkpt lat="42.4568370" lon="-7.2872980">
        <ele>386.1</ele>
        <time>2014-10-02T06:24:29Z</time>
      </trkpt>
      <trkpt lat="42.4568190" lon="-7.2873290">
        <ele>386.4</ele>
        <time>2014-10-02T06:24:30Z</time>
      </trkpt>
      <trkpt lat="42.4568030" lon="-7.2873600">
        <ele>386.6</ele>
        <time>2014-10-02T06:24:31Z</time>
      </trkpt>
      <trkpt lat="42.4567880" lon="-7.2873920">
        <ele>386.8</ele>
        <time>2014-10-02T06:24:32Z</time>
      </trkpt>
      <trkpt lat="42.4567750" lon="-7.2874270">
        <ele>387.0</ele>
        <time>2014-10-02T06:24:33Z</time>
      </trkpt>
      <trkpt lat="42.4567610" lon="-7.2874600">
        <ele>387.2</ele>
        <time>2014-10-02T06:24:34Z</time>
      </trkpt>
      <trkpt lat="42.4567350" lon="-7.2875260">
        <ele>387.5</ele>
        <time>2014-10-02T06:24:36Z</time>
      </trkpt>
      <trkpt lat="42.4567200" lon="-7.2875620">
        <ele>387.7</ele>
        <time>2014-10-02T06:24:37Z</time>
      </trkpt>
      <trkpt lat="42.4567050" lon="-7.2875960">
        <ele>387.8</ele>
        <time>2014-10-02T06:24:38Z</time>
      </trkpt>
      <trkpt lat="42.4566890" lon="-7.2876300">
        <ele>388.0</ele>
        <time>2014-10-02T06:24:39Z</time>
      </trkpt>
      <trkpt lat="42.4566730" lon="-7.2876640">
        <ele>388.2</ele>
        <time>2014-10-02T06:24:40Z</time>
      </trkpt>
      <trkpt lat="42.4566550" lon="-7.2876970">
        <ele>388.3</ele>
        <time>2014-10-02T06:24:41Z</time>
      </trkpt>
      <trkpt lat="42.4566390" lon="-7.2877290">
        <ele>388.5</ele>
        <time>2014-10-02T06:24:42Z</time>
      </trkpt>
      <trkpt lat="42.4566230" lon="-7.2877620">
        <ele>388.7</ele>
        <time>2014-10-02T06:24:43Z</time>
      </trkpt>
      <trkpt lat="42.4566060" lon="-7.2877930">
        <ele>388.8</ele>
        <time>2014-10-02T06:24:44Z</time>
      </trkpt>
      <trkpt lat="42.4565880" lon="-7.2878240">
        <ele>388.9</ele>
        <time>2014-10-02T06:24:45Z</time>
      </trkpt>
      <trkpt lat="42.4565700" lon="-7.2878550">
        <ele>389.1</ele>
        <time>2014-10-02T06:24:46Z</time>
      </trkpt>
      <trkpt lat="42.4565500" lon="-7.2878860">
        <ele>389.2</ele>
        <time>2014-10-02T06:24:47Z</time>
      </trkpt>
      <trkpt lat="42.4565330" lon="-7.2879180">
        <ele>389.3</ele>
        <time>2014-10-02T06:24:48Z</time>
      </trkpt>
      <trkpt lat="42.4565140" lon="-7.2879540">
        <ele>389.5</ele>
        <time>2014-10-02T06:24:49Z</time>
      </trkpt>
      <trkpt lat="42.4564940" lon="-7.2879920">
        <ele>389.6</ele>
        <time>2014-10-02T06:24:50Z</time>
      </trkpt>
      <trkpt lat="42.4564750" lon="-7.2880270">
        <ele>389.8</ele>
        <time>2014-10-02T06:24:51Z</time>
      </trkpt>
      <trkpt lat="42.4564540" lon="-7.2880640">
        <ele>389.9</ele>
        <time>2014-10-02T06:24:52Z</time>
      </trkpt>
      <trkpt lat="42.4564320" lon="-7.2880990">
        <ele>390.0</ele>
        <time>2014-10-02T06:24:53Z</time>
      </trkpt>
      <trkpt lat="42.4564080" lon="-7.2881370">
        <ele>390.1</ele>
        <time>2014-10-02T06:24:54Z</time>
      </trkpt>
      <trkpt lat="42.4563820" lon="-7.2881760">
        <ele>390.2</ele>
        <time>2014-10-02T06:24:55Z</time>
      </trkpt>
      <trkpt lat="42.4563540" lon="-7.2882150">
        <ele>390.3</ele>
        <time>2014-10-02T06:24:56Z</time>
      </trkpt>
      <trkpt lat="42.4563280" lon="-7.2882540">
        <ele>390.3</ele>
        <time>2014-10-02T06:24:57Z</time>
      </trkpt>
      <trkpt lat="42.4563000" lon="-7.2882910">
        <ele>390.4</ele>
        <time>2014-10-02T06:24:58Z</time>
      </trkpt>
      <trkpt lat="42.4562710" lon="-7.2883310">
        <ele>390.5</ele>
        <time>2014-10-02T06:24:59Z</time>
      </trkpt>
      <trkpt lat="42.4562410" lon="-7.2883730">
        <ele>390.5</ele>
        <time>2014-10-02T06:25:00Z</time>
      </trkpt>
      <trkpt lat="42.4562110" lon="-7.2884140">
        <ele>390.5</ele>
        <time>2014-10-02T06:25:01Z</time>
      </trkpt>
      <trkpt lat="42.4561800" lon="-7.2884550">
        <ele>390.5</ele>
        <time>2014-10-02T06:25:02Z</time>
      </trkpt>
      <trkpt lat="42.4561490" lon="-7.2884960">
        <ele>390.5</ele>
        <time>2014-10-02T06:25:03Z</time>
      </trkpt>
      <trkpt lat="42.4561180" lon="-7.2885380">
        <ele>390.5</ele>
        <time>2014-10-02T06:25:04Z</time>
      </trkpt>
      <trkpt lat="42.4560860" lon="-7.2885830">
        <ele>390.4</ele>
        <time>2014-10-02T06:25:05Z</time>
      </trkpt>
      <trkpt lat="42.4560510" lon="-7.2886270">
        <ele>390.4</ele>
        <time>2014-10-02T06:25:06Z</time>
      </trkpt>
      <trkpt lat="42.4560160" lon="-7.2886700">
        <ele>390.3</ele>
        <time>2014-10-02T06:25:07Z</time>
      </trkpt>
      <trkpt lat="42.4559810" lon="-7.2887130">
        <ele>390.3</ele>
        <time>2014-10-02T06:25:08Z</time>
      </trkpt>
      <trkpt lat="42.4559430" lon="-7.2887590">
        <ele>390.2</ele>
        <time>2014-10-02T06:25:09Z</time>
      </trkpt>
      <trkpt lat="42.4559050" lon="-7.2888060">
        <ele>390.1</ele>
        <time>2014-10-02T06:25:10Z</time>
      </trkpt>
      <trkpt lat="42.4558660" lon="-7.2888510">
        <ele>390.0</ele>
        <time>2014-10-02T06:25:11Z</time>
      </trkpt>
      <trkpt lat="42.4558260" lon="-7.2888950">
        <ele>389.8</ele>
        <time>2014-10-02T06:25:12Z</time>
      </trkpt>
      <trkpt lat="42.4557870" lon="-7.2889380">
        <ele>389.7</ele>
        <time>2014-10-02T06:25:13Z</time>
      </trkpt>
      <trkpt lat="42.4557450" lon="-7.2889870">
        <ele>389.5</ele>
        <time>2014-10-02T06:25:14Z</time>
      </trkpt>
      <trkpt lat="42.4557020" lon="-7.2890390">
        <ele>389.4</ele>
        <time>2014-10-02T06:25:15Z</time>
      </trkpt>
      <trkpt lat="42.4556590" lon="-7.2890930">
        <ele>389.3</ele>
        <time>2014-10-02T06:25:16Z</time>
      </trkpt>
      <trkpt lat="42.4556150" lon="-7.2891470">
        <ele>389.2</ele>
        <time>2014-10-02T06:25:17Z</time>
      </trkpt>
      <trkpt lat="42.4555690" lon="-7.2892030">
        <ele>389.0</ele>
        <time>2014-10-02T06:25:18Z</time>
      </trkpt>
      <trkpt lat="42.4555250" lon="-7.2892590">
        <ele>388.9</ele>
        <time>2014-10-02T06:25:19Z</time>
      </trkpt>
      <trkpt lat="42.4554800" lon="-7.2893140">
        <ele>388.7</ele>
        <time>2014-10-02T06:25:20Z</time>
      </trkpt>
      <trkpt lat="42.4554340" lon="-7.2893710">
        <ele>388.5</ele>
        <time>2014-10-02T06:25:21Z</time>
      </trkpt>
      <trkpt lat="42.4553890" lon="-7.2894290">
        <ele>388.3</ele>
        <time>2014-10-02T06:25:22Z</time>
      </trkpt>
      <trkpt lat="42.4553450" lon="-7.2894850">
        <ele>388.2</ele>
        <time>2014-10-02T06:25:23Z</time>
      </trkpt>
      <trkpt lat="42.4553010" lon="-7.2895420">
        <ele>388.0</ele>
        <time>2014-10-02T06:25:24Z</time>
      </trkpt>
      <trkpt lat="42.4552580" lon="-7.2895980">
        <ele>387.9</ele>
        <time>2014-10-02T06:25:25Z</time>
      </trkpt>
      <trkpt lat="42.4552160" lon="-7.2896550">
        <ele>387.8</ele>
        <time>2014-10-02T06:25:26Z</time>
      </trkpt>
      <trkpt lat="42.4551740" lon="-7.2897130">
        <ele>387.8</ele>
        <time>2014-10-02T06:25:27Z</time>
      </trkpt>
      <trkpt lat="42.4551310" lon="-7.2897720">
        <ele>387.7</ele>
        <time>2014-10-02T06:25:28Z</time>
      </trkpt>
      <trkpt lat="42.4550880" lon="-7.2898300">
        <ele>387.7</ele>
        <time>2014-10-02T06:25:29Z</time>
      </trkpt>
      <trkpt lat="42.4550450" lon="-7.2898860">
        <ele>387.8</ele>
        <time>2014-10-02T06:25:30Z</time>
      </trkpt>
      <trkpt lat="42.4550010" lon="-7.2899360">
        <ele>387.8</ele>
        <time>2014-10-02T06:25:31Z</time>
      </trkpt>
      <trkpt lat="42.4549560" lon="-7.2899890">
        <ele>387.9</ele>
        <time>2014-10-02T06:25:32Z</time>
      </trkpt>
      <trkpt lat="42.4549080" lon="-7.2900410">
        <ele>387.9</ele>
        <time>2014-10-02T06:25:33Z</time>
      </trkpt>
      <trkpt lat="42.4548620" lon="-7.2900880">
        <ele>388.0</ele>
        <time>2014-10-02T06:25:34Z</time>
      </trkpt>
      <trkpt lat="42.4548130" lon="-7.2901320">
        <ele>388.2</ele>
        <time>2014-10-02T06:25:35Z</time>
      </trkpt>
      <trkpt lat="42.4547630" lon="-7.2901730">
        <ele>388.3</ele>
        <time>2014-10-02T06:25:36Z</time>
      </trkpt>
      <trkpt lat="42.4547120" lon="-7.2902130">
        <ele>388.5</ele>
        <time>2014-10-02T06:25:37Z</time>
      </trkpt>
      <trkpt lat="42.4546610" lon="-7.2902480">
        <ele>388.7</ele>
        <time>2014-10-02T06:25:38Z</time>
      </trkpt>
      <trkpt lat="42.4546120" lon="-7.2902770">
        <ele>389.0</ele>
        <time>2014-10-02T06:25:39Z</time>
      </trkpt>
      <trkpt lat="42.4545620" lon="-7.2903040">
        <ele>389.3</ele>
        <time>2014-10-02T06:25:40Z</time>
      </trkpt>
      <trkpt lat="42.4545130" lon="-7.2903280">
        <ele>389.6</ele>
        <time>2014-10-02T06:25:41Z</time>
      </trkpt>
      <trkpt lat="42.4544650" lon="-7.2903480">
        <ele>389.9</ele>
        <time>2014-10-02T06:25:42Z</time>
      </trkpt>
      <trkpt lat="42.4544190" lon="-7.2903620">
        <ele>390.1</ele>
        <time>2014-10-02T06:25:43Z</time>
      </trkpt>
      <trkpt lat="42.4543740" lon="-7.2903770">
        <ele>390.4</ele>
        <time>2014-10-02T06:25:44Z</time>
      </trkpt>
      <trkpt lat="42.4543330" lon="-7.2903890">
        <ele>390.7</ele>
        <time>2014-10-02T06:25:45Z</time>
      </trkpt>
      <trkpt lat="42.4542920" lon="-7.2904040">
        <ele>391.0</ele>
        <time>2014-10-02T06:25:46Z</time>
      </trkpt>
      <trkpt lat="42.4542550" lon="-7.2904150">
        <ele>391.3</ele>
        <time>2014-10-02T06:25:47Z</time>
      </trkpt>
      <trkpt lat="42.4542200" lon="-7.2904280">
        <ele>391.6</ele>
        <time>2014-10-02T06:25:48Z</time>
      </trkpt>
      <trkpt lat="42.4541820" lon="-7.2904420">
        <ele>391.9</ele>
        <time>2014-10-02T06:25:49Z</time>
      </trkpt>
      <trkpt lat="42.4541490" lon="-7.2904560">
        <ele>392.2</ele>
        <time>2014-10-02T06:25:50Z</time>
      </trkpt>
      <trkpt lat="42.4541150" lon="-7.2904700">
        <ele>392.5</ele>
        <time>2014-10-02T06:25:51Z</time>
      </trkpt>
      <trkpt lat="42.4540850" lon="-7.2904820">
        <ele>392.7</ele>
        <time>2014-10-02T06:25:52Z</time>
      </trkpt>
      <trkpt lat="42.4540510" lon="-7.2904940">
        <ele>393.0</ele>
        <time>2014-10-02T06:25:53Z</time>
      </trkpt>
      <trkpt lat="42.4540170" lon="-7.2905070">
        <ele>393.3</ele>
        <time>2014-10-02T06:25:54Z</time>
      </trkpt>
      <trkpt lat="42.4539840" lon="-7.2905200">
        <ele>393.6</ele>
        <time>2014-10-02T06:25:55Z</time>
      </trkpt>
      <trkpt lat="42.4539520" lon="-7.2905330">
        <ele>393.9</ele>
        <time>2014-10-02T06:25:56Z</time>
      </trkpt>
      <trkpt lat="42.4539210" lon="-7.2905470">
        <ele>394.1</ele>
        <time>2014-10-02T06:25:57Z</time>
      </trkpt>
      <trkpt lat="42.4538890" lon="-7.2905590">
        <ele>394.4</ele>
        <time>2014-10-02T06:25:58Z</time>
      </trkpt>
      <trkpt lat="42.4538580" lon="-7.2905710">
        <ele>394.6</ele>
        <time>2014-10-02T06:25:59Z</time>
      </trkpt>
      <trkpt lat="42.4538270" lon="-7.2905830">
        <ele>394.8</ele>
        <time>2014-10-02T06:26:00Z</time>
      </trkpt>
      <trkpt lat="42.4537950" lon="-7.2905960">
        <ele>395.0</ele>
        <time>2014-10-02T06:26:01Z</time>
      </trkpt>
      <trkpt lat="42.4537640" lon="-7.2906070">
        <ele>395.2</ele>
        <time>2014-10-02T06:26:02Z</time>
      </trkpt>
      <trkpt lat="42.4537320" lon="-7.2906180">
        <ele>395.5</ele>
        <time>2014-10-02T06:26:03Z</time>
      </trkpt>
      <trkpt lat="42.4536990" lon="-7.2906270">
        <ele>395.8</ele>
        <time>2014-10-02T06:26:04Z</time>
      </trkpt>
      <trkpt lat="42.4536660" lon="-7.2906370">
        <ele>396.1</ele>
        <time>2014-10-02T06:26:05Z</time>
      </trkpt>
      <trkpt lat="42.4536320" lon="-7.2906470">
        <ele>396.3</ele>
        <time>2014-10-02T06:26:06Z</time>
      </trkpt>
      <trkpt lat="42.4535970" lon="-7.2906580">
        <ele>396.6</ele>
        <time>2014-10-02T06:26:07Z</time>
      </trkpt>
      <trkpt lat="42.4535630" lon="-7.2906700">
        <ele>396.8</ele>
        <time>2014-10-02T06:26:08Z</time>
      </trkpt>
      <trkpt lat="42.4535280" lon="-7.2906810">
        <ele>397.0</ele>
        <time>2014-10-02T06:26:09Z</time>
      </trkpt>
      <trkpt lat="42.4534920" lon="-7.2906910">
        <ele>397.2</ele>
        <time>2014-10-02T06:26:10Z</time>
      </trkpt>
      <trkpt lat="42.4534560" lon="-7.2907000">
        <ele>397.4</ele>
        <time>2014-10-02T06:26:11Z</time>
      </trkpt>
      <trkpt lat="42.4534200" lon="-7.2907100">
        <ele>397.6</ele>
        <time>2014-10-02T06:26:12Z</time>
      </trkpt>
      <trkpt lat="42.4533820" lon="-7.2907190">
        <ele>397.9</ele>
        <time>2014-10-02T06:26:13Z</time>
      </trkpt>
      <trkpt lat="42.4533480" lon="-7.2907270">
        <ele>398.1</ele>
        <time>2014-10-02T06:26:14Z</time>
      </trkpt>
      <trkpt lat="42.4533110" lon="-7.2907330">
        <ele>398.2</ele>
        <time>2014-10-02T06:26:15Z</time>
      </trkpt>
      <trkpt lat="42.4532720" lon="-7.2907380">
        <ele>398.4</ele>
        <time>2014-10-02T06:26:16Z</time>
      </trkpt>
      <trkpt lat="42.4532350" lon="-7.2907430">
        <ele>398.6</ele>
        <time>2014-10-02T06:26:17Z</time>
      </trkpt>
      <trkpt lat="42.4531970" lon="-7.2907480">
        <ele>398.8</ele>
        <time>2014-10-02T06:26:18Z</time>
      </trkpt>
      <trkpt lat="42.4531590" lon="-7.2907530">
        <ele>399.0</ele>
        <time>2014-10-02T06:26:19Z</time>
      </trkpt>
      <trkpt lat="42.4531230" lon="-7.2907580">
        <ele>399.2</ele>
        <time>2014-10-02T06:26:20Z</time>
      </trkpt>
      <trkpt lat="42.4530850" lon="-7.2907620">
        <ele>399.4</ele>
        <time>2014-10-02T06:26:21Z</time>
      </trkpt>
      <trkpt lat="42.4530470" lon="-7.2907670">
        <ele>399.6</ele>
        <time>2014-10-02T06:26:22Z</time>
      </trkpt>
      <trkpt lat="42.4530100" lon="-7.2907670">
        <ele>399.9</ele>
        <time>2014-10-02T06:26:23Z</time>
      </trkpt>
      <trkpt lat="42.4529760" lon="-7.2907630">
        <ele>400.1</ele>
        <time>2014-10-02T06:26:24Z</time>
      </trkpt>
      <trkpt lat="42.4529410" lon="-7.2907560">
        <ele>400.3</ele>
        <time>2014-10-02T06:26:25Z</time>
      </trkpt>
      <trkpt lat="42.4529060" lon="-7.2907480">
        <ele>400.6</ele>
        <time>2014-10-02T06:26:26Z</time>
      </trkpt>
      <trkpt lat="42.4528750" lon="-7.2907400">
        <ele>400.8</ele>
        <time>2014-10-02T06:26:27Z</time>
      </trkpt>
      <trkpt lat="42.4528430" lon="-7.2907310">
        <ele>401.1</ele>
        <time>2014-10-02T06:26:28Z</time>
      </trkpt>
      <trkpt lat="42.4528150" lon="-7.2907230">
        <ele>401.3</ele>
        <time>2014-10-02T06:26:29Z</time>
      </trkpt>
      <trkpt lat="42.4527810" lon="-7.2907090">
        <ele>401.7</ele>
        <time>2014-10-02T06:26:30Z</time>
      </trkpt>
      <trkpt lat="42.4527540" lon="-7.2906950">
        <ele>401.9</ele>
        <time>2014-10-02T06:26:31Z</time>
      </trkpt>
      <trkpt lat="42.4527240" lon="-7.2906820">
        <ele>402.2</ele>
        <time>2014-10-02T06:26:32Z</time>
      </trkpt>
      <trkpt lat="42.4526720" lon="-7.2906610">
        <ele>402.8</ele>
        <time>2014-10-02T06:26:34Z</time>
      </trkpt>
      <trkpt lat="42.4526430" lon="-7.2906490">
        <ele>403.1</ele>
        <time>2014-10-02T06:26:35Z</time>
      </trkpt>
      <trkpt lat="42.4526130" lon="-7.2906370">
        <ele>403.4</ele>
        <time>2014-10-02T06:26:36Z</time>
      </trkpt>
      <trkpt lat="42.4525860" lon="-7.2906270">
        <ele>403.7</ele>
        <time>2014-10-02T06:26:37Z</time>
      </trkpt>
      <trkpt lat="42.4525410" lon="-7.2906050">
        <ele>404.3</ele>
        <time>2014-10-02T06:26:39Z</time>
      </trkpt>
      <trkpt lat="42.4525140" lon="-7.2905870">
        <ele>404.6</ele>
        <time>2014-10-02T06:26:40Z</time>
      </trkpt>
      <trkpt lat="42.4524480" lon="-7.2905440">
        <ele>405.5</ele>
        <time>2014-10-02T06:26:43Z</time>
      </trkpt>
      <trkpt lat="42.4524080" lon="-7.2905220">
        <ele>406.0</ele>
        <time>2014-10-02T06:26:45Z</time>
      </trkpt>
      <trkpt lat="42.4523620" lon="-7.2904970">
        <ele>406.6</ele>
        <time>2014-10-02T06:26:47Z</time>
      </trkpt>
      <trkpt lat="42.4523360" lon="-7.2904820">
        <ele>407.0</ele>
        <time>2014-10-02T06:26:48Z</time>
      </trkpt>
      <trkpt lat="42.4522850" lon="-7.2904530">
        <ele>407.6</ele>
        <time>2014-10-02T06:26:50Z</time>
      </trkpt>
      <trkpt lat="42.4522580" lon="-7.2904400">
        <ele>407.9</ele>
        <time>2014-10-02T06:26:51Z</time>
      </trkpt>
      <trkpt lat="42.4522080" lon="-7.2904200">
        <ele>408.5</ele>
        <time>2014-10-02T06:26:53Z</time>
      </trkpt>
      <trkpt lat="42.4521620" lon="-7.2903980">
        <ele>409.1</ele>
        <time>2014-10-02T06:26:55Z</time>
      </trkpt>
      <trkpt lat="42.4521160" lon="-7.2903720">
        <ele>409.6</ele>
        <time>2014-10-02T06:26:57Z</time>
      </trkpt>
      <trkpt lat="42.4520710" lon="-7.2903490">
        <ele>410.2</ele>
        <time>2014-10-02T06:26:59Z</time>
      </trkpt>
      <trkpt lat="42.4520250" lon="-7.2903260">
        <ele>410.8</ele>
        <time>2014-10-02T06:27:01Z</time>
      </trkpt>
      <trkpt lat="42.4519830" lon="-7.2903080">
        <ele>411.4</ele>
        <time>2014-10-02T06:27:03Z</time>
      </trkpt>
      <trkpt lat="42.4519190" lon="-7.2902790">
        <ele>412.2</ele>
        <time>2014-10-02T06:27:06Z</time>
      </trkpt>
      <trkpt lat="42.4518730" lon="-7.2902550">
        <ele>412.8</ele>
        <time>2014-10-02T06:27:08Z</time>
      </trkpt>
      <trkpt lat="42.4518210" lon="-7.2902310">
        <ele>413.5</ele>
        <time>2014-10-02T06:27:10Z</time>
      </trkpt>
      <trkpt lat="42.4517700" lon="-7.2902190">
        <ele>414.2</ele>
        <time>2014-10-02T06:27:12Z</time>
      </trkpt>
      <trkpt lat="42.4517180" lon="-7.2902230">
        <ele>414.8</ele>
        <time>2014-10-02T06:27:14Z</time>
      </trkpt>
      <trkpt lat="42.4516720" lon="-7.2902350">
        <ele>415.4</ele>
        <time>2014-10-02T06:27:16Z</time>
      </trkpt>
      <trkpt lat="42.4516150" lon="-7.2902670">
        <ele>416.2</ele>
        <time>2014-10-02T06:27:19Z</time>
      </trkpt>
      <trkpt lat="42.4515570" lon="-7.2903130">
        <ele>417.1</ele>
        <time>2014-10-02T06:27:22Z</time>
      </trkpt>
      <trkpt lat="42.4515180" lon="-7.2903490">
        <ele>417.7</ele>
        <time>2014-10-02T06:27:24Z</time>
      </trkpt>
      <trkpt lat="42.4514840" lon="-7.2903780">
        <ele>418.2</ele>
        <time>2014-10-02T06:27:26Z</time>
      </trkpt>
      <trkpt lat="42.4514490" lon="-7.2904100">
        <ele>418.7</ele>
        <time>2014-10-02T06:27:28Z</time>
      </trkpt>
      <trkpt lat="42.4514120" lon="-7.2904370">
        <ele>419.2</ele>
        <time>2014-10-02T06:27:30Z</time>
      </trkpt>
      <trkpt lat="42.4513730" lon="-7.2904650">
        <ele>419.7</ele>
        <time>2014-10-02T06:27:32Z</time>
      </trkpt>
      <trkpt lat="42.4513380" lon="-7.2904880">
        <ele>420.1</ele>
        <time>2014-10-02T06:27:34Z</time>
      </trkpt>
      <trkpt lat="42.4513000" lon="-7.2905140">
        <ele>420.6</ele>
        <time>2014-10-02T06:27:36Z</time>
      </trkpt>
      <trkpt lat="42.4512640" lon="-7.2905380">
        <ele>421.1</ele>
        <time>2014-10-02T06:27:38Z</time>
      </trkpt>
      <trkpt lat="42.4512250" lon="-7.2905710">
        <ele>421.6</ele>
        <time>2014-10-02T06:27:40Z</time>
      </trkpt>
      <trkpt lat="42.4511850" lon="-7.2906050">
        <ele>422.1</ele>
        <time>2014-10-02T06:27:42Z</time>
      </trkpt>
      <trkpt lat="42.4511460" lon="-7.2906430">
        <ele>422.7</ele>
        <time>2014-10-02T06:27:44Z</time>
      </trkpt>
      <trkpt lat="42.4511130" lon="-7.2906740">
        <ele>423.2</ele>
        <time>2014-10-02T06:27:46Z</time>
      </trkpt>
      <trkpt lat="42.4510770" lon="-7.2907120">
        <ele>423.7</ele>
        <time>2014-10-02T06:27:48Z</time>
      </trkpt>
      <trkpt lat="42.4510400" lon="-7.2907510">
        <ele>424.2</ele>
        <time>2014-10-02T06:27:50Z</time>
      </trkpt>
      <trkpt lat="42.4510080" lon="-7.2907860">
        <ele>424.7</ele>
        <time>2014-10-02T06:27:52Z</time>
      </trkpt>
      <trkpt lat="42.4509770" lon="-7.2908170">
        <ele>425.1</ele>
        <time>2014-10-02T06:27:54Z</time>
      </trkpt>
      <trkpt lat="42.4509460" lon="-7.2908470">
        <ele>425.5</ele>
        <time>2014-10-02T06:27:56Z</time>
      </trkpt>
      <trkpt lat="42.4509140" lon="-7.2908800">
        <ele>425.9</ele>
        <time>2014-10-02T06:27:58Z</time>
      </trkpt>
      <trkpt lat="42.4508790" lon="-7.2909170">
        <ele>426.4</ele>
        <time>2014-10-02T06:28:00Z</time>
      </trkpt>
      <trkpt lat="42.4508480" lon="-7.2909530">
        <ele>426.8</ele>
        <time>2014-10-02T06:28:02Z</time>
      </trkpt>
      <trkpt lat="42.4508170" lon="-7.2909960">
        <ele>427.2</ele>
        <time>2014-10-02T06:28:04Z</time>
      </trkpt>
      <trkpt lat="42.4507900" lon="-7.2910450">
        <ele>427.6</ele>
        <time>2014-10-02T06:28:06Z</time>
      </trkpt>
      <trkpt lat="42.4507660" lon="-7.2911030">
        <ele>428.1</ele>
        <time>2014-10-02T06:28:08Z</time>
      </trkpt>
      <trkpt lat="42.4507540" lon="-7.2911360">
        <ele>428.3</ele>
        <time>2014-10-02T06:28:09Z</time>
      </trkpt>
      <trkpt lat="42.4507430" lon="-7.2911710">
        <ele>428.6</ele>
        <time>2014-10-02T06:28:10Z</time>
      </trkpt>
      <trkpt lat="42.4507240" lon="-7.2912400">
        <ele>429.0</ele>
        <time>2014-10-02T06:28:12Z</time>
      </trkpt>
      <trkpt lat="42.4507120" lon="-7.2912800">
        <ele>429.3</ele>
        <time>2014-10-02T06:28:13Z</time>
      </trkpt>
      <trkpt lat="42.4507010" lon="-7.2913200">
        <ele>429.6</ele>
        <time>2014-10-02T06:28:14Z</time>
      </trkpt>
      <trkpt lat="42.4506890" lon="-7.2913590">
        <ele>429.9</ele>
        <time>2014-10-02T06:28:15Z</time>
      </trkpt>
      <trkpt lat="42.4506760" lon="-7.2913950">
        <ele>430.1</ele>
        <time>2014-10-02T06:28:16Z</time>
      </trkpt>
      <trkpt lat="42.4506630" lon="-7.2914300">
        <ele>430.4</ele>
        <time>2014-10-02T06:28:17Z</time>
      </trkpt>
      <trkpt lat="42.4506490" lon="-7.2914630">
        <ele>430.6</ele>
        <time>2014-10-02T06:28:18Z</time>
      </trkpt>
      <trkpt lat="42.4506180" lon="-7.2915240">
        <ele>431.0</ele>
        <time>2014-10-02T06:28:20Z</time>
      </trkpt>
      <trkpt lat="42.4506010" lon="-7.2915550">
        <ele>431.2</ele>
        <time>2014-10-02T06:28:21Z</time>
      </trkpt>
      <trkpt lat="42.4505820" lon="-7.2915840">
        <ele>431.5</ele>
        <time>2014-10-02T06:28:22Z</time>
      </trkpt>
      <trkpt lat="42.4505610" lon="-7.2916140">
        <ele>431.7</ele>
        <time>2014-10-02T06:28:23Z</time>
      </trkpt>
      <trkpt lat="42.4505380" lon="-7.2916430">
        <ele>431.9</ele>
        <time>2014-10-02T06:28:24Z</time>
      </trkpt>
      <trkpt lat="42.4505110" lon="-7.2916660">
        <ele>432.1</ele>
        <time>2014-10-02T06:28:25Z</time>
      </trkpt>
      <trkpt lat="42.4504830" lon="-7.2916870">
        <ele>432.3</ele>
        <time>2014-10-02T06:28:26Z</time>
      </trkpt>
      <trkpt lat="42.4504560" lon="-7.2917080">
        <ele>432.5</ele>
        <time>2014-10-02T06:28:27Z</time>
      </trkpt>
      <trkpt lat="42.4504300" lon="-7.2917270">
        <ele>432.7</ele>
        <time>2014-10-02T06:28:28Z</time>
      </trkpt>
      <trkpt lat="42.4504040" lon="-7.2917450">
        <ele>432.9</ele>
        <time>2014-10-02T06:28:29Z</time>
      </trkpt>
      <trkpt lat="42.4503760" lon="-7.2917630">
        <ele>433.1</ele>
        <time>2014-10-02T06:28:30Z</time>
      </trkpt>
      <trkpt lat="42.4503490" lon="-7.2917830">
        <ele>433.3</ele>
        <time>2014-10-02T06:28:31Z</time>
      </trkpt>
      <trkpt lat="42.4503210" lon="-7.2918030">
        <ele>433.5</ele>
        <time>2014-10-02T06:28:32Z</time>
      </trkpt>
      <trkpt lat="42.4502930" lon="-7.2918230">
        <ele>433.8</ele>
        <time>2014-10-02T06:28:33Z</time>
      </trkpt>
      <trkpt lat="42.4502640" lon="-7.2918460">
        <ele>434.0</ele>
        <time>2014-10-02T06:28:34Z</time>
      </trkpt>
      <trkpt lat="42.4502350" lon="-7.2918680">
        <ele>434.2</ele>
        <time>2014-10-02T06:28:35Z</time>
      </trkpt>
      <trkpt lat="42.4502070" lon="-7.2918880">
        <ele>434.4</ele>
        <time>2014-10-02T06:28:36Z</time>
      </trkpt>
      <trkpt lat="42.4501780" lon="-7.2919080">
        <ele>434.6</ele>
        <time>2014-10-02T06:28:37Z</time>
      </trkpt>
      <trkpt lat="42.4501510" lon="-7.2919280">
        <ele>434.8</ele>
        <time>2014-10-02T06:28:38Z</time>
      </trkpt>
      <trkpt lat="42.4501220" lon="-7.2919480">
        <ele>435.0</ele>
        <time>2014-10-02T06:28:39Z</time>
      </trkpt>
      <trkpt lat="42.4500910" lon="-7.2919680">
        <ele>435.3</ele>
        <time>2014-10-02T06:28:40Z</time>
      </trkpt>
      <trkpt lat="42.4500600" lon="-7.2919870">
        <ele>435.5</ele>
        <time>2014-10-02T06:28:41Z</time>
      </trkpt>
      <trkpt lat="42.4500280" lon="-7.2920040">
        <ele>435.7</ele>
        <time>2014-10-02T06:28:42Z</time>
      </trkpt>
      <trkpt lat="42.4499960" lon="-7.2920200">
        <ele>435.9</ele>
        <time>2014-10-02T06:28:43Z</time>
      </trkpt>
      <trkpt lat="42.4499670" lon="-7.2920320">
        <ele>436.1</ele>
        <time>2014-10-02T06:28:44Z</time>
      </trkpt>
      <trkpt lat="42.4499370" lon="-7.2920450">
        <ele>436.3</ele>
        <time>2014-10-02T06:28:45Z</time>
      </trkpt>
      <trkpt lat="42.4499060" lon="-7.2920580">
        <ele>436.6</ele>
        <time>2014-10-02T06:28:46Z</time>
      </trkpt>
      <trkpt lat="42.4498760" lon="-7.2920720">
        <ele>436.8</ele>
        <time>2014-10-02T06:28:47Z</time>
      </trkpt>
      <trkpt lat="42.4498470" lon="-7.2920870">
        <ele>437.0</ele>
        <time>2014-10-02T06:28:48Z</time>
      </trkpt>
      <trkpt lat="42.4498190" lon="-7.2921030">
        <ele>437.3</ele>
        <time>2014-10-02T06:28:49Z</time>
      </trkpt>
      <trkpt lat="42.4497930" lon="-7.2921170">
        <ele>437.5</ele>
        <time>2014-10-02T06:28:50Z</time>
      </trkpt>
      <trkpt lat="42.4497430" lon="-7.2921430">
        <ele>437.9</ele>
        <time>2014-10-02T06:28:52Z</time>
      </trkpt>
      <trkpt lat="42.4497170" lon="-7.2921550">
        <ele>438.2</ele>
        <time>2014-10-02T06:28:53Z</time>
      </trkpt>
      <trkpt lat="42.4496900" lon="-7.2921670">
        <ele>438.4</ele>
        <time>2014-10-02T06:28:54Z</time>
      </trkpt>
      <trkpt lat="42.4496630" lon="-7.2921780">
        <ele>438.7</ele>
        <time>2014-10-02T06:28:55Z</time>
      </trkpt>
      <trkpt lat="42.4496320" lon="-7.2921910">
        <ele>439.0</ele>
        <time>2014-10-02T06:28:56Z</time>
      </trkpt>
      <trkpt lat="42.4496000" lon="-7.2922050">
        <ele>439.3</ele>
        <time>2014-10-02T06:28:57Z</time>
      </trkpt>
      <trkpt lat="42.4495690" lon="-7.2922190">
        <ele>439.7</ele>
        <time>2014-10-02T06:28:58Z</time>
      </trkpt>
      <trkpt lat="42.4495180" lon="-7.2922330">
        <ele>440.2</ele>
        <time>2014-10-02T06:29:00Z</time>
      </trkpt>
      <trkpt lat="42.4494640" lon="-7.2922380">
        <ele>440.8</ele>
        <time>2014-10-02T06:29:02Z</time>
      </trkpt>
      <trkpt lat="42.4494360" lon="-7.2922370">
        <ele>441.1</ele>
        <time>2014-10-02T06:29:03Z</time>
      </trkpt>
      <trkpt lat="42.4494090" lon="-7.2922320">
        <ele>441.4</ele>
        <time>2014-10-02T06:29:04Z</time>
      </trkpt>
      <trkpt lat="42.4493830" lon="-7.2922200">
        <ele>441.7</ele>
        <time>2014-10-02T06:29:05Z</time>
      </trkpt>
      <trkpt lat="42.4493360" lon="-7.2921920">
        <ele>442.2</ele>
        <time>2014-10-02T06:29:07Z</time>
      </trkpt>
      <trkpt lat="42.4492930" lon="-7.2921590">
        <ele>442.7</ele>
        <time>2014-10-02T06:29:09Z</time>
      </trkpt>
      <trkpt lat="42.4492520" lon="-7.2921260">
        <ele>443.2</ele>
        <time>2014-10-02T06:29:11Z</time>
      </trkpt>
      <trkpt lat="42.4492190" lon="-7.2920890">
        <ele>443.7</ele>
        <time>2014-10-02T06:29:13Z</time>
      </trkpt>
      <trkpt lat="42.4491860" lon="-7.2920390">
        <ele>444.2</ele>
        <time>2014-10-02T06:29:15Z</time>
      </trkpt>
      <trkpt lat="42.4491460" lon="-7.2919950">
        <ele>444.7</ele>
        <time>2014-10-02T06:29:17Z</time>
      </trkpt>
      <trkpt lat="42.4491100" lon="-7.2919600">
        <ele>445.2</ele>
        <time>2014-10-02T06:29:19Z</time>
      </trkpt>
      <trkpt lat="42.4490730" lon="-7.2919180">
        <ele>445.7</ele>
        <time>2014-10-02T06:29:21Z</time>
      </trkpt>
      <trkpt lat="42.4490360" lon="-7.2918710">
        <ele>446.2</ele>
        <time>2014-10-02T06:29:23Z</time>
      </trkpt>
      <trkpt lat="42.4490020" lon="-7.2918230">
        <ele>446.7</ele>
        <time>2014-10-02T06:29:25Z</time>
      </trkpt>
      <trkpt lat="42.4489790" lon="-7.2917820">
        <ele>447.2</ele>
        <time>2014-10-02T06:29:27Z</time>
      </trkpt>
      <trkpt lat="42.4489470" lon="-7.2917260">
        <ele>447.7</ele>
        <time>2014-10-02T06:29:29Z</time>
      </trkpt>
      <trkpt lat="42.4488700" lon="-7.2916050">
        <ele>449.1</ele>
        <time>2014-10-02T06:29:35Z</time>
      </trkpt>
      <trkpt lat="42.4488170" lon="-7.2915310">
        <ele>450.0</ele>
        <time>2014-10-02T06:29:39Z</time>
      </trkpt>
      <trkpt lat="42.4487870" lon="-7.2914760">
        <ele>450.6</ele>
        <time>2014-10-02T06:29:41Z</time>
      </trkpt>
      <trkpt lat="42.4487430" lon="-7.2913880">
        <ele>451.4</ele>
        <time>2014-10-02T06:29:45Z</time>
      </trkpt>
      <trkpt lat="42.4487010" lon="-7.2912910">
        <ele>452.3</ele>
        <time>2014-10-02T06:29:49Z</time>
      </trkpt>
      <trkpt lat="42.4486800" lon="-7.2912110">
        <ele>453.0</ele>
        <time>2014-10-02T06:29:51Z</time>
      </trkpt>
      <trkpt lat="42.4486670" lon="-7.2911660">
        <ele>453.4</ele>
        <time>2014-10-02T06:29:52Z</time>
      </trkpt>
      <trkpt lat="42.4486540" lon="-7.2911260">
        <ele>453.7</ele>
        <time>2014-10-02T06:29:53Z</time>
      </trkpt>
      <trkpt lat="42.4486440" lon="-7.2910850">
        <ele>454.0</ele>
        <time>2014-10-02T06:29:54Z</time>
      </trkpt>
      <trkpt lat="42.4486300" lon="-7.2910310">
        <ele>454.4</ele>
        <time>2014-10-02T06:29:55Z</time>
      </trkpt>
      <trkpt lat="42.4486120" lon="-7.2909760">
        <ele>454.8</ele>
        <time>2014-10-02T06:29:56Z</time>
      </trkpt>
      <trkpt lat="42.4485890" lon="-7.2909190">
        <ele>455.3</ele>
        <time>2014-10-02T06:29:57Z</time>
      </trkpt>
      <trkpt lat="42.4485690" lon="-7.2908720">
        <ele>455.7</ele>
        <time>2014-10-02T06:29:58Z</time>
      </trkpt>
      <trkpt lat="42.4485500" lon="-7.2908360">
        <ele>456.0</ele>
        <time>2014-10-02T06:29:59Z</time>
      </trkpt>
      <trkpt lat="42.4485310" lon="-7.2908020">
        <ele>456.2</ele>
        <time>2014-10-02T06:30:00Z</time>
      </trkpt>
      <trkpt lat="42.4485140" lon="-7.2907720">
        <ele>456.5</ele>
        <time>2014-10-02T06:30:01Z</time>
      </trkpt>
      <trkpt lat="42.4484950" lon="-7.2907450">
        <ele>456.7</ele>
        <time>2014-10-02T06:30:02Z</time>
      </trkpt>
      <trkpt lat="42.4484730" lon="-7.2907210">
        <ele>457.0</ele>
        <time>2014-10-02T06:30:03Z</time>
      </trkpt>
      <trkpt lat="42.4484310" lon="-7.2906840">
        <ele>457.5</ele>
        <time>2014-10-02T06:30:05Z</time>
      </trkpt>
      <trkpt lat="42.4484040" lon="-7.2906740">
        <ele>457.8</ele>
        <time>2014-10-02T06:30:06Z</time>
      </trkpt>
      <trkpt lat="42.4483770" lon="-7.2906660">
        <ele>458.1</ele>
        <time>2014-10-02T06:30:07Z</time>
      </trkpt>
      <trkpt lat="42.4483270" lon="-7.2906650">
        <ele>458.7</ele>
        <time>2014-10-02T06:30:09Z</time>
      </trkpt>
      <trkpt lat="42.4482830" lon="-7.2906810">
        <ele>459.2</ele>
        <time>2014-10-02T06:30:11Z</time>
      </trkpt>
      <trkpt lat="42.4482500" lon="-7.2907110">
        <ele>459.8</ele>
        <time>2014-10-02T06:30:13Z</time>
      </trkpt>
      <trkpt lat="42.4482220" lon="-7.2907500">
        <ele>460.3</ele>
        <time>2014-10-02T06:30:15Z</time>
      </trkpt>
      <trkpt lat="42.4481990" lon="-7.2907970">
        <ele>460.9</ele>
        <time>2014-10-02T06:30:17Z</time>
      </trkpt>
      <trkpt lat="42.4481870" lon="-7.2908330">
        <ele>461.3</ele>
        <time>2014-10-02T06:30:19Z</time>
      </trkpt>
      <trkpt lat="42.4481850" lon="-7.2908840">
        <ele>461.8</ele>
        <time>2014-10-02T06:30:21Z</time>
      </trkpt>
      <trkpt lat="42.4481880" lon="-7.2909430">
        <ele>462.4</ele>
        <time>2014-10-02T06:30:23Z</time>
      </trkpt>
      <trkpt lat="42.4482040" lon="-7.2910210">
        <ele>463.3</ele>
        <time>2014-10-02T06:30:25Z</time>
      </trkpt>
      <trkpt lat="42.4482140" lon="-7.2910600">
        <ele>463.7</ele>
        <time>2014-10-02T06:30:26Z</time>
      </trkpt>
      <trkpt lat="42.4482240" lon="-7.2911000">
        <ele>464.1</ele>
        <time>2014-10-02T06:30:27Z</time>
      </trkpt>
      <trkpt lat="42.4482400" lon="-7.2911560">
        <ele>464.7</ele>
        <time>2014-10-02T06:30:29Z</time>
      </trkpt>
      <trkpt lat="42.4482560" lon="-7.2912010">
        <ele>465.1</ele>
        <time>2014-10-02T06:30:31Z</time>
      </trkpt>
      <trkpt lat="42.4482760" lon="-7.2912550">
        <ele>465.7</ele>
        <time>2014-10-02T06:30:33Z</time>
      </trkpt>
      <trkpt lat="42.4482910" lon="-7.2913060">
        <ele>466.2</ele>
        <time>2014-10-02T06:30:35Z</time>
      </trkpt>
      <trkpt lat="42.4483050" lon="-7.2913540">
        <ele>466.6</ele>
        <time>2014-10-02T06:30:37Z</time>
      </trkpt>
      <trkpt lat="42.4483200" lon="-7.2914120">
        <ele>467.2</ele>
        <time>2014-10-02T06:30:39Z</time>
      </trkpt>
      <trkpt lat="42.4483290" lon="-7.2914530">
        <ele>467.5</ele>
        <time>2014-10-02T06:30:40Z</time>
      </trkpt>
      <trkpt lat="42.4483420" lon="-7.2915220">
        <ele>468.2</ele>
        <time>2014-10-02T06:30:42Z</time>
      </trkpt>
      <trkpt lat="42.4483580" lon="-7.2915840">
        <ele>468.7</ele>
        <time>2014-10-02T06:30:44Z</time>
      </trkpt>
      <trkpt lat="42.4483690" lon="-7.2916370">
        <ele>469.2</ele>
        <time>2014-10-02T06:30:46Z</time>
      </trkpt>
      <trkpt lat="42.4483800" lon="-7.2916810">
        <ele>469.5</ele>
        <time>2014-10-02T06:30:48Z</time>
      </trkpt>
      <trkpt lat="42.4484010" lon="-7.2917280">
        <ele>470.0</ele>
        <time>2014-10-02T06:30:50Z</time>
      </trkpt>
      <trkpt lat="42.4484130" lon="-7.2917650">
        <ele>470.3</ele>
        <time>2014-10-02T06:30:51Z</time>
      </trkpt>
      <trkpt lat="42.4484230" lon="-7.2918040">
        <ele>470.6</ele>
        <time>2014-10-02T06:30:52Z</time>
      </trkpt>
      <trkpt lat="42.4484410" lon="-7.2918700">
        <ele>471.1</ele>
        <time>2014-10-02T06:30:54Z</time>
      </trkpt>
      <trkpt lat="42.4484560" lon="-7.2919320">
        <ele>471.6</ele>
        <time>2014-10-02T06:30:56Z</time>
      </trkpt>
      <trkpt lat="42.4484680" lon="-7.2919890">
        <ele>472.0</ele>
        <time>2014-10-02T06:30:58Z</time>
      </trkpt>
      <trkpt lat="42.4484710" lon="-7.2920470">
        <ele>472.4</ele>
        <time>2014-10-02T06:31:00Z</time>
      </trkpt>
      <trkpt lat="42.4484660" lon="-7.2921100">
        <ele>472.9</ele>
        <time>2014-10-02T06:31:02Z</time>
      </trkpt>
      <trkpt lat="42.4484590" lon="-7.2921760">
        <ele>473.4</ele>
        <time>2014-10-02T06:31:04Z</time>
      </trkpt>
      <trkpt lat="42.4484550" lon="-7.2922160">
        <ele>473.6</ele>
        <time>2014-10-02T06:31:05Z</time>
      </trkpt>
      <trkpt lat="42.4484490" lon="-7.2922520">
        <ele>473.9</ele>
        <time>2014-10-02T06:31:06Z</time>
      </trkpt>
      <trkpt lat="42.4484410" lon="-7.2922890">
        <ele>474.1</ele>
        <time>2014-10-02T06:31:07Z</time>
      </trkpt>
      <trkpt lat="42.4484250" lon="-7.2923530">
        <ele>474.6</ele>
        <time>2014-10-02T06:31:09Z</time>
      </trkpt>
      <trkpt lat="42.4484020" lon="-7.2924130">
        <ele>475.1</ele>
        <time>2014-10-02T06:31:11Z</time>
      </trkpt>
      <trkpt lat="42.4483770" lon="-7.2924720">
        <ele>475.5</ele>
        <time>2014-10-02T06:31:13Z</time>
      </trkpt>
      <trkpt lat="42.4483510" lon="-7.2925310">
        <ele>476.0</ele>
        <time>2014-10-02T06:31:15Z</time>
      </trkpt>
      <trkpt lat="42.4483330" lon="-7.2925630">
        <ele>476.3</ele>
        <time>2014-10-02T06:31:16Z</time>
      </trkpt>
      <trkpt lat="42.4483140" lon="-7.2925950">
        <ele>476.6</ele>
        <time>2014-10-02T06:31:17Z</time>
      </trkpt>
      <trkpt lat="42.4482790" lon="-7.2926450">
        <ele>477.0</ele>
        <time>2014-10-02T06:31:19Z</time>
      </trkpt>
      <trkpt lat="42.4482460" lon="-7.2926960">
        <ele>477.5</ele>
        <time>2014-10-02T06:31:21Z</time>
      </trkpt>
      <trkpt lat="42.4482140" lon="-7.2927540">
        <ele>478.0</ele>
        <time>2014-10-02T06:31:23Z</time>
      </trkpt>
      <trkpt lat="42.4481790" lon="-7.2928060">
        <ele>478.4</ele>
        <time>2014-10-02T06:31:25Z</time>
      </trkpt>
      <trkpt lat="42.4481610" lon="-7.2928330">
        <ele>478.6</ele>
        <time>2014-10-02T06:31:26Z</time>
      </trkpt>
      <trkpt lat="42.4481350" lon="-7.2928890">
        <ele>479.1</ele>
        <time>2014-10-02T06:31:28Z</time>
      </trkpt>
      <trkpt lat="42.4481230" lon="-7.2929230">
        <ele>479.3</ele>
        <time>2014-10-02T06:31:29Z</time>
      </trkpt>
      <trkpt lat="42.4481120" lon="-7.2929560">
        <ele>479.6</ele>
        <time>2014-10-02T06:31:30Z</time>
      </trkpt>
      <trkpt lat="42.4480990" lon="-7.2929890">
        <ele>479.8</ele>
        <time>2014-10-02T06:31:31Z</time>
      </trkpt>
      <trkpt lat="42.4480770" lon="-7.2930530">
        <ele>480.3</ele>
        <time>2014-10-02T06:31:33Z</time>
      </trkpt>
      <trkpt lat="42.4480580" lon="-7.2931140">
        <ele>480.7</ele>
        <time>2014-10-02T06:31:35Z</time>
      </trkpt>
      <trkpt lat="42.4480400" lon="-7.2931780">
        <ele>481.2</ele>
        <time>2014-10-02T06:31:37Z</time>
      </trkpt>
      <trkpt lat="42.4480240" lon="-7.2932390">
        <ele>481.7</ele>
        <time>2014-10-02T06:31:39Z</time>
      </trkpt>
      <trkpt lat="42.4480120" lon="-7.2933030">
        <ele>482.2</ele>
        <time>2014-10-02T06:31:41Z</time>
      </trkpt>
      <trkpt lat="42.4480000" lon="-7.2933690">
        <ele>482.7</ele>
        <time>2014-10-02T06:31:43Z</time>
      </trkpt>
      <trkpt lat="42.4479960" lon="-7.2934050">
        <ele>483.0</ele>
        <time>2014-10-02T06:31:44Z</time>
      </trkpt>
      <trkpt lat="42.4479890" lon="-7.2934750">
        <ele>483.6</ele>
        <time>2014-10-02T06:31:46Z</time>
      </trkpt>
      <trkpt lat="42.4479850" lon="-7.2935120">
        <ele>483.9</ele>
        <time>2014-10-02T06:31:47Z</time>
      </trkpt>
      <trkpt lat="42.4479790" lon="-7.2935800">
        <ele>484.4</ele>
        <time>2014-10-02T06:31:49Z</time>
      </trkpt>
      <trkpt lat="42.4479710" lon="-7.2936510">
        <ele>484.9</ele>
        <time>2014-10-02T06:31:51Z</time>
      </trkpt>
      <trkpt lat="42.4479630" lon="-7.2937170">
        <ele>485.4</ele>
        <time>2014-10-02T06:31:53Z</time>
      </trkpt>
      <trkpt lat="42.4479550" lon="-7.2937820">
        <ele>485.9</ele>
        <time>2014-10-02T06:31:55Z</time>
      </trkpt>
      <trkpt lat="42.4479480" lon="-7.2938420">
        <ele>486.3</ele>
        <time>2014-10-02T06:31:57Z</time>
      </trkpt>
      <trkpt lat="42.4479420" lon="-7.2939050">
        <ele>486.8</ele>
        <time>2014-10-02T06:31:59Z</time>
      </trkpt>
      <trkpt lat="42.4479390" lon="-7.2939420">
        <ele>487.1</ele>
        <time>2014-10-02T06:32:00Z</time>
      </trkpt>
      <trkpt lat="42.4479340" lon="-7.2939790">
        <ele>487.3</ele>
        <time>2014-10-02T06:32:01Z</time>
      </trkpt>
      <trkpt lat="42.4479280" lon="-7.2940160">
        <ele>487.6</ele>
        <time>2014-10-02T06:32:02Z</time>
      </trkpt>
      <trkpt lat="42.4479160" lon="-7.2940820">
        <ele>488.1</ele>
        <time>2014-10-02T06:32:04Z</time>
      </trkpt>
      <trkpt lat="42.4479040" lon="-7.2941480">
        <ele>488.5</ele>
        <time>2014-10-02T06:32:06Z</time>
      </trkpt>
      <trkpt lat="42.4478930" lon="-7.2942170">
        <ele>489.0</ele>
        <time>2014-10-02T06:32:08Z</time>
      </trkpt>
      <trkpt lat="42.4478840" lon="-7.2942870">
        <ele>489.5</ele>
        <time>2014-10-02T06:32:10Z</time>
      </trkpt>
      <trkpt lat="42.4478740" lon="-7.2943560">
        <ele>490.0</ele>
        <time>2014-10-02T06:32:12Z</time>
      </trkpt>
      <trkpt lat="42.4478690" lon="-7.2943920">
        <ele>490.2</ele>
        <time>2014-10-02T06:32:13Z</time>
      </trkpt>
      <trkpt lat="42.4478630" lon="-7.2944620">
        <ele>490.7</ele>
        <time>2014-10-02T06:32:15Z</time>
      </trkpt>
      <trkpt lat="42.4478600" lon="-7.2945000">
        <ele>491.0</ele>
        <time>2014-10-02T06:32:16Z</time>
      </trkpt>
      <trkpt lat="42.4478550" lon="-7.2945670">
        <ele>491.4</ele>
        <time>2014-10-02T06:32:18Z</time>
      </trkpt>
      <trkpt lat="42.4478530" lon="-7.2946410">
        <ele>491.9</ele>
        <time>2014-10-02T06:32:20Z</time>
      </trkpt>
      <trkpt lat="42.4478510" lon="-7.2947080">
        <ele>492.4</ele>
        <time>2014-10-02T06:32:22Z</time>
      </trkpt>
      <trkpt lat="42.4478500" lon="-7.2947750">
        <ele>492.8</ele>
        <time>2014-10-02T06:32:24Z</time>
      </trkpt>
      <trkpt lat="42.4478420" lon="-7.2948420">
        <ele>493.3</ele>
        <time>2014-10-02T06:32:26Z</time>
      </trkpt>
      <trkpt lat="42.4478280" lon="-7.2948990">
        <ele>493.8</ele>
        <time>2014-10-02T06:32:28Z</time>
      </trkpt>
      <trkpt lat="42.4478060" lon="-7.2949620">
        <ele>494.3</ele>
        <time>2014-10-02T06:32:30Z</time>
      </trkpt>
      <trkpt lat="42.4477710" lon="-7.2950090">
        <ele>494.9</ele>
        <time>2014-10-02T06:32:32Z</time>
      </trkpt>
      <trkpt lat="42.4477440" lon="-7.2950260">
        <ele>495.2</ele>
        <time>2014-10-02T06:32:33Z</time>
      </trkpt>
      <trkpt lat="42.4477140" lon="-7.2950360">
        <ele>495.6</ele>
        <time>2014-10-02T06:32:34Z</time>
      </trkpt>
      <trkpt lat="42.4476630" lon="-7.2950300">
        <ele>496.2</ele>
        <time>2014-10-02T06:32:36Z</time>
      </trkpt>
      <trkpt lat="42.4476240" lon="-7.2950060">
        <ele>496.7</ele>
        <time>2014-10-02T06:32:38Z</time>
      </trkpt>
      <trkpt lat="42.4476010" lon="-7.2949680">
        <ele>497.1</ele>
        <time>2014-10-02T06:32:40Z</time>
      </trkpt>
      <trkpt lat="42.4475740" lon="-7.2949080">
        <ele>497.7</ele>
        <time>2014-10-02T06:32:42Z</time>
      </trkpt>
      <trkpt lat="42.4475580" lon="-7.2948490">
        <ele>498.2</ele>
        <time>2014-10-02T06:32:44Z</time>
      </trkpt>
      <trkpt lat="42.4475480" lon="-7.2947910">
        <ele>498.7</ele>
        <time>2014-10-02T06:32:46Z</time>
      </trkpt>
      <trkpt lat="42.4475380" lon="-7.2947240">
        <ele>499.2</ele>
        <time>2014-10-02T06:32:48Z</time>
      </trkpt>
      <trkpt lat="42.4475370" lon="-7.2946550">
        <ele>499.7</ele>
        <time>2014-10-02T06:32:50Z</time>
      </trkpt>
      <trkpt lat="42.4475370" lon="-7.2945960">
        <ele>500.2</ele>
        <time>2014-10-02T06:32:52Z</time>
      </trkpt>
      <trkpt lat="42.4475320" lon="-7.2945300">
        <ele>500.6</ele>
        <time>2014-10-02T06:32:54Z</time>
      </trkpt>
      <trkpt lat="42.4475240" lon="-7.2944940">
        <ele>500.9</ele>
        <time>2014-10-02T06:32:55Z</time>
      </trkpt>
      <trkpt lat="42.4475160" lon="-7.2944280">
        <ele>501.3</ele>
        <time>2014-10-02T06:32:57Z</time>
      </trkpt>
      <trkpt lat="42.4475100" lon="-7.2943540">
        <ele>501.8</ele>
        <time>2014-10-02T06:32:59Z</time>
      </trkpt>
      <trkpt lat="42.4475050" lon="-7.2943140">
        <ele>502.1</ele>
        <time>2014-10-02T06:33:00Z</time>
      </trkpt>
      <trkpt lat="42.4475010" lon="-7.2942730">
        <ele>502.4</ele>
        <time>2014-10-02T06:33:01Z</time>
      </trkpt>
      <trkpt lat="42.4474960" lon="-7.2942330">
        <ele>502.7</ele>
        <time>2014-10-02T06:33:02Z</time>
      </trkpt>
      <trkpt lat="42.4474850" lon="-7.2941610">
        <ele>503.2</ele>
        <time>2014-10-02T06:33:04Z</time>
      </trkpt>
      <trkpt lat="42.4474790" lon="-7.2941180">
        <ele>503.5</ele>
        <time>2014-10-02T06:33:05Z</time>
      </trkpt>
      <trkpt lat="42.4474730" lon="-7.2940790">
        <ele>503.8</ele>
        <time>2014-10-02T06:33:06Z</time>
      </trkpt>
      <trkpt lat="42.4474590" lon="-7.2940140">
        <ele>504.4</ele>
        <time>2014-10-02T06:33:08Z</time>
      </trkpt>
      <trkpt lat="42.4474510" lon="-7.2939660">
        <ele>504.7</ele>
        <time>2014-10-02T06:33:10Z</time>
      </trkpt>
      <trkpt lat="42.4474360" lon="-7.2939070">
        <ele>505.2</ele>
        <time>2014-10-02T06:33:12Z</time>
      </trkpt>
      <trkpt lat="42.4474190" lon="-7.2938380">
        <ele>505.8</ele>
        <time>2014-10-02T06:33:14Z</time>
      </trkpt>
      <trkpt lat="42.4474080" lon="-7.2938020">
        <ele>506.1</ele>
        <time>2014-10-02T06:33:15Z</time>
      </trkpt>
      <trkpt lat="42.4473880" lon="-7.2937400">
        <ele>506.6</ele>
        <time>2014-10-02T06:33:17Z</time>
      </trkpt>
      <trkpt lat="42.4473780" lon="-7.2937030">
        <ele>506.9</ele>
        <time>2014-10-02T06:33:18Z</time>
      </trkpt>
      <trkpt lat="42.4473670" lon="-7.2936630">
        <ele>507.2</ele>
        <time>2014-10-02T06:33:19Z</time>
      </trkpt>
      <trkpt lat="42.4473580" lon="-7.2936260">
        <ele>507.5</ele>
        <time>2014-10-02T06:33:20Z</time>
      </trkpt>
      <trkpt lat="42.4473480" lon="-7.2935870">
        <ele>507.8</ele>
        <time>2014-10-02T06:33:21Z</time>
      </trkpt>
      <trkpt lat="42.4473360" lon="-7.2935470">
        <ele>508.2</ele>
        <time>2014-10-02T06:33:22Z</time>
      </trkpt>
      <trkpt lat="42.4473170" lon="-7.2934770">
        <ele>508.7</ele>
        <time>2014-10-02T06:33:24Z</time>
      </trkpt>
      <trkpt lat="42.4473070" lon="-7.2934380">
        <ele>509.1</ele>
        <time>2014-10-02T06:33:25Z</time>
      </trkpt>
      <trkpt lat="42.4472860" lon="-7.2933750">
        <ele>509.6</ele>
        <time>2014-10-02T06:33:27Z</time>
      </trkpt>
      <trkpt lat="42.4472680" lon="-7.2933160">
        <ele>510.2</ele>
        <time>2014-10-02T06:33:29Z</time>
      </trkpt>
      <trkpt lat="42.4472550" lon="-7.2932640">
        <ele>510.6</ele>
        <time>2014-10-02T06:33:31Z</time>
      </trkpt>
      <trkpt lat="42.4472350" lon="-7.2932040">
        <ele>511.2</ele>
        <time>2014-10-02T06:33:33Z</time>
      </trkpt>
      <trkpt lat="42.4472090" lon="-7.2931400">
        <ele>511.8</ele>
        <time>2014-10-02T06:33:35Z</time>
      </trkpt>
      <trkpt lat="42.4471850" lon="-7.2930780">
        <ele>512.4</ele>
        <time>2014-10-02T06:33:37Z</time>
      </trkpt>
      <trkpt lat="42.4471730" lon="-7.2930340">
        <ele>512.8</ele>
        <time>2014-10-02T06:33:39Z</time>
      </trkpt>
      <trkpt lat="42.4471490" lon="-7.2929710">
        <ele>513.4</ele>
        <time>2014-10-02T06:33:41Z</time>
      </trkpt>
      <trkpt lat="42.4471350" lon="-7.2929310">
        <ele>513.8</ele>
        <time>2014-10-02T06:33:43Z</time>
      </trkpt>
      <trkpt lat="42.4471130" lon="-7.2928880">
        <ele>514.2</ele>
        <time>2014-10-02T06:33:45Z</time>
      </trkpt>
      <trkpt lat="42.4470930" lon="-7.2928400">
        <ele>514.7</ele>
        <time>2014-10-02T06:33:47Z</time>
      </trkpt>
      <trkpt lat="42.4470790" lon="-7.2927880">
        <ele>515.2</ele>
        <time>2014-10-02T06:33:49Z</time>
      </trkpt>
      <trkpt lat="42.4470610" lon="-7.2927550">
        <ele>515.6</ele>
        <time>2014-10-02T06:33:50Z</time>
      </trkpt>
      <trkpt lat="42.4470420" lon="-7.2927040">
        <ele>516.0</ele>
        <time>2014-10-02T06:33:52Z</time>
      </trkpt>
      <trkpt lat="42.4470180" lon="-7.2926510">
        <ele>516.5</ele>
        <time>2014-10-02T06:33:54Z</time>
      </trkpt>
      <trkpt lat="42.4469900" lon="-7.2926000">
        <ele>517.0</ele>
        <time>2014-10-02T06:33:56Z</time>
      </trkpt>
      <trkpt lat="42.4469600" lon="-7.2925470">
        <ele>517.6</ele>
        <time>2014-10-02T06:33:58Z</time>
      </trkpt>
      <trkpt lat="42.4469290" lon="-7.2924890">
        <ele>518.1</ele>
        <time>2014-10-02T06:34:00Z</time>
      </trkpt>
      <trkpt lat="42.4469150" lon="-7.2924570">
        <ele>518.4</ele>
        <time>2014-10-02T06:34:01Z</time>
      </trkpt>
      <trkpt lat="42.4468910" lon="-7.2924030">
        <ele>518.8</ele>
        <time>2014-10-02T06:34:03Z</time>
      </trkpt>
      <trkpt lat="42.4468670" lon="-7.2923480">
        <ele>519.3</ele>
        <time>2014-10-02T06:34:05Z</time>
      </trkpt>
      <trkpt lat="42.4468440" lon="-7.2922970">
        <ele>519.8</ele>
        <time>2014-10-02T06:34:07Z</time>
      </trkpt>
      <trkpt lat="42.4468210" lon="-7.2922460">
        <ele>520.2</ele>
        <time>2014-10-02T06:34:09Z</time>
      </trkpt>
      <trkpt lat="42.4467980" lon="-7.2921940">
        <ele>520.7</ele>
        <time>2014-10-02T06:34:11Z</time>
      </trkpt>
      <trkpt lat="42.4467820" lon="-7.2921540">
        <ele>521.1</ele>
        <time>2014-10-02T06:34:13Z</time>
      </trkpt>
      <trkpt lat="42.4467640" lon="-7.2921130">
        <ele>521.5</ele>
        <time>2014-10-02T06:34:15Z</time>
      </trkpt>
      <trkpt lat="42.4467380" lon="-7.2920670">
        <ele>521.9</ele>
        <time>2014-10-02T06:34:17Z</time>
      </trkpt>
      <trkpt lat="42.4467030" lon="-7.2920170">
        <ele>522.5</ele>
        <time>2014-10-02T06:34:19Z</time>
      </trkpt>
      <trkpt lat="42.4466780" lon="-7.2919920">
        <ele>522.8</ele>
        <time>2014-10-02T06:34:20Z</time>
      </trkpt>
      <trkpt lat="42.4466520" lon="-7.2919700">
        <ele>523.2</ele>
        <time>2014-10-02T06:34:21Z</time>
      </trkpt>
      <trkpt lat="42.4466250" lon="-7.2919530">
        <ele>523.6</ele>
        <time>2014-10-02T06:34:22Z</time>
      </trkpt>
      <trkpt lat="42.4465810" lon="-7.2919470">
        <ele>524.1</ele>
        <time>2014-10-02T06:34:24Z</time>
      </trkpt>
      <trkpt lat="42.4465410" lon="-7.2919610">
        <ele>524.7</ele>
        <time>2014-10-02T06:34:26Z</time>
      </trkpt>
      <trkpt lat="42.4465040" lon="-7.2919890">
        <ele>525.3</ele>
        <time>2014-10-02T06:34:28Z</time>
      </trkpt>
      <trkpt lat="42.4464740" lon="-7.2920320">
        <ele>525.8</ele>
        <time>2014-10-02T06:34:30Z</time>
      </trkpt>
      <trkpt lat="42.4464470" lon="-7.2920910">
        <ele>526.4</ele>
        <time>2014-10-02T06:34:32Z</time>
      </trkpt>
      <trkpt lat="42.4464220" lon="-7.2921460">
        <ele>527.0</ele>
        <time>2014-10-02T06:34:34Z</time>
      </trkpt>
      <trkpt lat="42.4464050" lon="-7.2921930">
        <ele>527.5</ele>
        <time>2014-10-02T06:34:36Z</time>
      </trkpt>
      <trkpt lat="42.4463860" lon="-7.2922480">
        <ele>528.1</ele>
        <time>2014-10-02T06:34:38Z</time>
      </trkpt>
      <trkpt lat="42.4463720" lon="-7.2923020">
        <ele>528.6</ele>
        <time>2014-10-02T06:34:40Z</time>
      </trkpt>
      <trkpt lat="42.4463570" lon="-7.2923540">
        <ele>529.0</ele>
        <time>2014-10-02T06:34:42Z</time>
      </trkpt>
      <trkpt lat="42.4463440" lon="-7.2924200">
        <ele>529.6</ele>
        <time>2014-10-02T06:34:44Z</time>
      </trkpt>
      <trkpt lat="42.4463350" lon="-7.2924830">
        <ele>530.1</ele>
        <time>2014-10-02T06:34:46Z</time>
      </trkpt>
      <trkpt lat="42.4463260" lon="-7.2925420">
        <ele>530.6</ele>
        <time>2014-10-02T06:34:48Z</time>
      </trkpt>
      <trkpt lat="42.4463130" lon="-7.2926050">
        <ele>531.1</ele>
        <time>2014-10-02T06:34:50Z</time>
      </trkpt>
      <trkpt lat="42.4463050" lon="-7.2926670">
        <ele>531.6</ele>
        <time>2014-10-02T06:34:52Z</time>
      </trkpt>
      <trkpt lat="42.4462960" lon="-7.2927340">
        <ele>532.1</ele>
        <time>2014-10-02T06:34:54Z</time>
      </trkpt>
      <trkpt lat="42.4462880" lon="-7.2927700">
        <ele>532.3</ele>
        <time>2014-10-02T06:34:55Z</time>
      </trkpt>
      <trkpt lat="42.4462770" lon="-7.2928390">
        <ele>532.9</ele>
        <time>2014-10-02T06:34:57Z</time>
      </trkpt>
      <trkpt lat="42.4462740" lon="-7.2928770">
        <ele>533.1</ele>
        <time>2014-10-02T06:34:58Z</time>
      </trkpt>
      <trkpt lat="42.4462720" lon="-7.2929150">
        <ele>533.4</ele>
        <time>2014-10-02T06:34:59Z</time>
      </trkpt>
      <trkpt lat="42.4462650" lon="-7.2929850">
        <ele>533.9</ele>
        <time>2014-10-02T06:35:01Z</time>
      </trkpt>
      <trkpt lat="42.4462560" lon="-7.2930550">
        <ele>534.5</ele>
        <time>2014-10-02T06:35:03Z</time>
      </trkpt>
      <trkpt lat="42.4462490" lon="-7.2931280">
        <ele>535.0</ele>
        <time>2014-10-02T06:35:05Z</time>
      </trkpt>
      <trkpt lat="42.4462420" lon="-7.2931980">
        <ele>535.6</ele>
        <time>2014-10-02T06:35:07Z</time>
      </trkpt>
      <trkpt lat="42.4462360" lon="-7.2932640">
        <ele>536.1</ele>
        <time>2014-10-02T06:35:09Z</time>
      </trkpt>
      <trkpt lat="42.4462300" lon="-7.2933300">
        <ele>536.6</ele>
        <time>2014-10-02T06:35:11Z</time>
      </trkpt>
      <trkpt lat="42.4462280" lon="-7.2934060">
        <ele>537.1</ele>
        <time>2014-10-02T06:35:13Z</time>
      </trkpt>
      <trkpt lat="42.4462350" lon="-7.2934760">
        <ele>537.7</ele>
        <time>2014-10-02T06:35:15Z</time>
      </trkpt>
      <trkpt lat="42.4462460" lon="-7.2935400">
        <ele>538.2</ele>
        <time>2014-10-02T06:35:17Z</time>
      </trkpt>
      <trkpt lat="42.4462550" lon="-7.2936100">
        <ele>538.8</ele>
        <time>2014-10-02T06:35:19Z</time>
      </trkpt>
      <trkpt lat="42.4462670" lon="-7.2936790">
        <ele>539.4</ele>
        <time>2014-10-02T06:35:21Z</time>
      </trkpt>
      <trkpt lat="42.4462770" lon="-7.2937420">
        <ele>539.9</ele>
        <time>2014-10-02T06:35:23Z</time>
      </trkpt>
      <trkpt lat="42.4462840" lon="-7.2938090">
        <ele>540.5</ele>
        <time>2014-10-02T06:35:25Z</time>
      </trkpt>
      <trkpt lat="42.4462950" lon="-7.2938750">
        <ele>541.0</ele>
        <time>2014-10-02T06:35:27Z</time>
      </trkpt>
      <trkpt lat="42.4463070" lon="-7.2939350">
        <ele>541.5</ele>
        <time>2014-10-02T06:35:29Z</time>
      </trkpt>
      <trkpt lat="42.4463200" lon="-7.2939940">
        <ele>542.0</ele>
        <time>2014-10-02T06:35:31Z</time>
      </trkpt>
      <trkpt lat="42.4463350" lon="-7.2940570">
        <ele>542.5</ele>
        <time>2014-10-02T06:35:33Z</time>
      </trkpt>
      <trkpt lat="42.4463480" lon="-7.2941220">
        <ele>543.1</ele>
        <time>2014-10-02T06:35:35Z</time>
      </trkpt>
      <trkpt lat="42.4463590" lon="-7.2941880">
        <ele>543.6</ele>
        <time>2014-10-02T06:35:37Z</time>
      </trkpt>
      <trkpt lat="42.4463670" lon="-7.2942510">
        <ele>544.1</ele>
        <time>2014-10-02T06:35:39Z</time>
      </trkpt>
      <trkpt lat="42.4463770" lon="-7.2943160">
        <ele>544.6</ele>
        <time>2014-10-02T06:35:41Z</time>
      </trkpt>
      <trkpt lat="42.4463860" lon="-7.2943830">
        <ele>545.2</ele>
        <time>2014-10-02T06:35:43Z</time>
      </trkpt>
      <trkpt lat="42.4463950" lon="-7.2944510">
        <ele>545.8</ele>
        <time>2014-10-02T06:35:45Z</time>
      </trkpt>
      <trkpt lat="42.4464040" lon="-7.2945170">
        <ele>546.3</ele>
        <time>2014-10-02T06:35:47Z</time>
      </trkpt>
      <trkpt lat="42.4464080" lon="-7.2945840">
        <ele>546.8</ele>
        <time>2014-10-02T06:35:49Z</time>
      </trkpt>
      <trkpt lat="42.4464060" lon="-7.2946560">
        <ele>547.3</ele>
        <time>2014-10-02T06:35:51Z</time>
      </trkpt>
      <trkpt lat="42.4464010" lon="-7.2947190">
        <ele>547.8</ele>
        <time>2014-10-02T06:35:53Z</time>
      </trkpt>
      <trkpt lat="42.4463890" lon="-7.2947880">
        <ele>548.4</ele>
        <time>2014-10-02T06:35:55Z</time>
      </trkpt>
      <trkpt lat="42.4463810" lon="-7.2948220">
        <ele>548.6</ele>
        <time>2014-10-02T06:35:56Z</time>
      </trkpt>
      <trkpt lat="42.4463650" lon="-7.2948870">
        <ele>549.2</ele>
        <time>2014-10-02T06:35:58Z</time>
      </trkpt>
      <trkpt lat="42.4463460" lon="-7.2949530">
        <ele>549.7</ele>
        <time>2014-10-02T06:36:00Z</time>
      </trkpt>
      <trkpt lat="42.4463230" lon="-7.2950140">
        <ele>550.3</ele>
        <time>2014-10-02T06:36:02Z</time>
      </trkpt>
      <trkpt lat="42.4462980" lon="-7.2950740">
        <ele>550.9</ele>
        <time>2014-10-02T06:36:04Z</time>
      </trkpt>
      <trkpt lat="42.4462680" lon="-7.2951340">
        <ele>551.4</ele>
        <time>2014-10-02T06:36:06Z</time>
      </trkpt>
      <trkpt lat="42.4462530" lon="-7.2951660">
        <ele>551.8</ele>
        <time>2014-10-02T06:36:07Z</time>
      </trkpt>
      <trkpt lat="42.4462220" lon="-7.2952210">
        <ele>552.3</ele>
        <time>2014-10-02T06:36:09Z</time>
      </trkpt>
      <trkpt lat="42.4461920" lon="-7.2952730">
        <ele>552.9</ele>
        <time>2014-10-02T06:36:11Z</time>
      </trkpt>
      <trkpt lat="42.4461580" lon="-7.2953250">
        <ele>553.4</ele>
        <time>2014-10-02T06:36:13Z</time>
      </trkpt>
      <trkpt lat="42.4461270" lon="-7.2953800">
        <ele>554.0</ele>
        <time>2014-10-02T06:36:15Z</time>
      </trkpt>
      <trkpt lat="42.4460920" lon="-7.2954320">
        <ele>554.6</ele>
        <time>2014-10-02T06:36:17Z</time>
      </trkpt>
      <trkpt lat="42.4460570" lon="-7.2954780">
        <ele>555.1</ele>
        <time>2014-10-02T06:36:19Z</time>
      </trkpt>
      <trkpt lat="42.4460140" lon="-7.2955260">
        <ele>555.8</ele>
        <time>2014-10-02T06:36:21Z</time>
      </trkpt>
      <trkpt lat="42.4459920" lon="-7.2955530">
        <ele>556.1</ele>
        <time>2014-10-02T06:36:22Z</time>
      </trkpt>
      <trkpt lat="42.4459550" lon="-7.2955980">
        <ele>556.7</ele>
        <time>2014-10-02T06:36:24Z</time>
      </trkpt>
      <trkpt lat="42.4459170" lon="-7.2956420">
        <ele>557.2</ele>
        <time>2014-10-02T06:36:26Z</time>
      </trkpt>
      <trkpt lat="42.4458820" lon="-7.2956850">
        <ele>557.7</ele>
        <time>2014-10-02T06:36:28Z</time>
      </trkpt>
      <trkpt lat="42.4458460" lon="-7.2957270">
        <ele>558.3</ele>
        <time>2014-10-02T06:36:30Z</time>
      </trkpt>
      <trkpt lat="42.4458070" lon="-7.2957690">
        <ele>558.8</ele>
        <time>2014-10-02T06:36:32Z</time>
      </trkpt>
      <trkpt lat="42.4457710" lon="-7.2958150">
        <ele>559.4</ele>
        <time>2014-10-02T06:36:34Z</time>
      </trkpt>
      <trkpt lat="42.4457340" lon="-7.2958560">
        <ele>559.9</ele>
        <time>2014-10-02T06:36:36Z</time>
      </trkpt>
      <trkpt lat="42.4457000" lon="-7.2959030">
        <ele>560.5</ele>
        <time>2014-10-02T06:36:38Z</time>
      </trkpt>
      <trkpt lat="42.4456640" lon="-7.2959530">
        <ele>561.0</ele>
        <time>2014-10-02T06:36:40Z</time>
      </trkpt>
      <trkpt lat="42.4456350" lon="-7.2960000">
        <ele>561.5</ele>
        <time>2014-10-02T06:36:42Z</time>
      </trkpt>
      <trkpt lat="42.4456010" lon="-7.2960450">
        <ele>562.1</ele>
        <time>2014-10-02T06:36:44Z</time>
      </trkpt>
      <trkpt lat="42.4455660" lon="-7.2960900">
        <ele>562.6</ele>
        <time>2014-10-02T06:36:46Z</time>
      </trkpt>
      <trkpt lat="42.4455360" lon="-7.2961300">
        <ele>563.1</ele>
        <time>2014-10-02T06:36:48Z</time>
      </trkpt>
      <trkpt lat="42.4455040" lon="-7.2961730">
        <ele>563.6</ele>
        <time>2014-10-02T06:36:50Z</time>
      </trkpt>
      <trkpt lat="42.4454690" lon="-7.2962180">
        <ele>564.2</ele>
        <time>2014-10-02T06:36:52Z</time>
      </trkpt>
      <trkpt lat="42.4454330" lon="-7.2962560">
        <ele>564.7</ele>
        <time>2014-10-02T06:36:54Z</time>
      </trkpt>
      <trkpt lat="42.4454000" lon="-7.2962960">
        <ele>565.2</ele>
        <time>2014-10-02T06:36:56Z</time>
      </trkpt>
      <trkpt lat="42.4453690" lon="-7.2963370">
        <ele>565.7</ele>
        <time>2014-10-02T06:36:58Z</time>
      </trkpt>
      <trkpt lat="42.4453410" lon="-7.2963790">
        <ele>566.2</ele>
        <time>2014-10-02T06:37:00Z</time>
      </trkpt>
      <trkpt lat="42.4453080" lon="-7.2964290">
        <ele>566.8</ele>
        <time>2014-10-02T06:37:02Z</time>
      </trkpt>
      <trkpt lat="42.4452770" lon="-7.2964760">
        <ele>567.3</ele>
        <time>2014-10-02T06:37:04Z</time>
      </trkpt>
      <trkpt lat="42.4452450" lon="-7.2965280">
        <ele>567.9</ele>
        <time>2014-10-02T06:37:06Z</time>
      </trkpt>
      <trkpt lat="42.4452150" lon="-7.2965770">
        <ele>568.4</ele>
        <time>2014-10-02T06:37:08Z</time>
      </trkpt>
      <trkpt lat="42.4451880" lon="-7.2966160">
        <ele>568.9</ele>
        <time>2014-10-02T06:37:10Z</time>
      </trkpt>
      <trkpt lat="42.4451640" lon="-7.2966720">
        <ele>569.4</ele>
        <time>2014-10-02T06:37:12Z</time>
      </trkpt>
      <trkpt lat="42.4451410" lon="-7.2967310">
        <ele>570.0</ele>
        <time>2014-10-02T06:37:14Z</time>
      </trkpt>
      <trkpt lat="42.4451150" lon="-7.2967860">
        <ele>570.5</ele>
        <time>2014-10-02T06:37:16Z</time>
      </trkpt>
      <trkpt lat="42.4450910" lon="-7.2968430">
        <ele>571.1</ele>
        <time>2014-10-02T06:37:18Z</time>
      </trkpt>
      <trkpt lat="42.4450750" lon="-7.2968890">
        <ele>571.5</ele>
        <time>2014-10-02T06:37:20Z</time>
      </trkpt>
      <trkpt lat="42.4450590" lon="-7.2969370">
        <ele>572.0</ele>
        <time>2014-10-02T06:37:22Z</time>
      </trkpt>
      <trkpt lat="42.4450390" lon="-7.2969890">
        <ele>572.5</ele>
        <time>2014-10-02T06:37:24Z</time>
      </trkpt>
      <trkpt lat="42.4450200" lon="-7.2970410">
        <ele>573.0</ele>
        <time>2014-10-02T06:37:26Z</time>
      </trkpt>
      <trkpt lat="42.4450010" lon="-7.2970890">
        <ele>573.5</ele>
        <time>2014-10-02T06:37:28Z</time>
      </trkpt>
      <trkpt lat="42.4449810" lon="-7.2971470">
        <ele>574.0</ele>
        <time>2014-10-02T06:37:30Z</time>
      </trkpt>
      <trkpt lat="42.4449610" lon="-7.2971970">
        <ele>574.5</ele>
        <time>2014-10-02T06:37:32Z</time>
      </trkpt>
      <trkpt lat="42.4449410" lon="-7.2972420">
        <ele>575.0</ele>
        <time>2014-10-02T06:37:34Z</time>
      </trkpt>
      <trkpt lat="42.4449190" lon="-7.2972940">
        <ele>575.5</ele>
        <time>2014-10-02T06:37:36Z</time>
      </trkpt>
      <trkpt lat="42.4449000" lon="-7.2973440">
        <ele>576.0</ele>
        <time>2014-10-02T06:37:38Z</time>
      </trkpt>
      <trkpt lat="42.4448790" lon="-7.2974000">
        <ele>576.6</ele>
        <time>2014-10-02T06:37:40Z</time>
      </trkpt>
      <trkpt lat="42.4448630" lon="-7.2974420">
        <ele>577.0</ele>
        <time>2014-10-02T06:37:42Z</time>
      </trkpt>
      <trkpt lat="42.4448460" lon="-7.2974940">
        <ele>577.5</ele>
        <time>2014-10-02T06:37:44Z</time>
      </trkpt>
      <trkpt lat="42.4448230" lon="-7.2975530">
        <ele>578.1</ele>
        <time>2014-10-02T06:37:46Z</time>
      </trkpt>
      <trkpt lat="42.4448030" lon="-7.2976110">
        <ele>578.6</ele>
        <time>2014-10-02T06:37:48Z</time>
      </trkpt>
      <trkpt lat="42.4447820" lon="-7.2976720">
        <ele>579.2</ele>
        <time>2014-10-02T06:37:50Z</time>
      </trkpt>
      <trkpt lat="42.4447610" lon="-7.2977350">
        <ele>579.8</ele>
        <time>2014-10-02T06:37:52Z</time>
      </trkpt>
      <trkpt lat="42.4447500" lon="-7.2977730">
        <ele>580.1</ele>
        <time>2014-10-02T06:37:53Z</time>
      </trkpt>
      <trkpt lat="42.4447360" lon="-7.2978110">
        <ele>580.5</ele>
        <time>2014-10-02T06:37:54Z</time>
      </trkpt>
      <trkpt lat="42.4447210" lon="-7.2978520">
        <ele>580.9</ele>
        <time>2014-10-02T06:37:55Z</time>
      </trkpt>
      <trkpt lat="42.4447070" lon="-7.2978890">
        <ele>581.2</ele>
        <time>2014-10-02T06:37:56Z</time>
      </trkpt>
      <trkpt lat="42.4446970" lon="-7.2979230">
        <ele>581.5</ele>
        <time>2014-10-02T06:37:57Z</time>
      </trkpt>
      <trkpt lat="42.4446870" lon="-7.2979590">
        <ele>581.8</ele>
        <time>2014-10-02T06:37:58Z</time>
      </trkpt>
      <trkpt lat="42.4446720" lon="-7.2980270">
        <ele>582.4</ele>
        <time>2014-10-02T06:38:00Z</time>
      </trkpt>
      <trkpt lat="42.4446610" lon="-7.2980920">
        <ele>583.0</ele>
        <time>2014-10-02T06:38:02Z</time>
      </trkpt>
      <trkpt lat="42.4446550" lon="-7.2981560">
        <ele>583.5</ele>
        <time>2014-10-02T06:38:04Z</time>
      </trkpt>
      <trkpt lat="42.4446510" lon="-7.2982220">
        <ele>584.1</ele>
        <time>2014-10-02T06:38:06Z</time>
      </trkpt>
      <trkpt lat="42.4446470" lon="-7.2982860">
        <ele>584.6</ele>
        <time>2014-10-02T06:38:08Z</time>
      </trkpt>
      <trkpt lat="42.4446470" lon="-7.2983540">
        <ele>585.2</ele>
        <time>2014-10-02T06:38:10Z</time>
      </trkpt>
      <trkpt lat="42.4446470" lon="-7.2984200">
        <ele>585.8</ele>
        <time>2014-10-02T06:38:12Z</time>
      </trkpt>
      <trkpt lat="42.4446520" lon="-7.2984840">
        <ele>586.4</ele>
        <time>2014-10-02T06:38:14Z</time>
      </trkpt>
      <trkpt lat="42.4446530" lon="-7.2985450">
        <ele>586.9</ele>
        <time>2014-10-02T06:38:16Z</time>
      </trkpt>
      <trkpt lat="42.4446520" lon="-7.2985990">
        <ele>587.3</ele>
        <time>2014-10-02T06:38:18Z</time>
      </trkpt>
      <trkpt lat="42.4446460" lon="-7.2986590">
        <ele>587.9</ele>
        <time>2014-10-02T06:38:20Z</time>
      </trkpt>
      <trkpt lat="42.4446310" lon="-7.2987250">
        <ele>588.5</ele>
        <time>2014-10-02T06:38:22Z</time>
      </trkpt>
      <trkpt lat="42.4446130" lon="-7.2987890">
        <ele>589.0</ele>
        <time>2014-10-02T06:38:24Z</time>
      </trkpt>
      <trkpt lat="42.4445950" lon="-7.2988420">
        <ele>589.6</ele>
        <time>2014-10-02T06:38:26Z</time>
      </trkpt>
      <trkpt lat="42.4445750" lon="-7.2988990">
        <ele>590.1</ele>
        <time>2014-10-02T06:38:28Z</time>
      </trkpt>
      <trkpt lat="42.4445520" lon="-7.2989570">
        <ele>590.7</ele>
        <time>2014-10-02T06:38:30Z</time>
      </trkpt>
      <trkpt lat="42.4445280" lon="-7.2990140">
        <ele>591.2</ele>
        <time>2014-10-02T06:38:32Z</time>
      </trkpt>
      <trkpt lat="42.4445070" lon="-7.2990670">
        <ele>591.7</ele>
        <time>2014-10-02T06:38:34Z</time>
      </trkpt>
      <trkpt lat="42.4444870" lon="-7.2991220">
        <ele>592.2</ele>
        <time>2014-10-02T06:38:36Z</time>
      </trkpt>
      <trkpt lat="42.4444710" lon="-7.2991650">
        <ele>592.6</ele>
        <time>2014-10-02T06:38:38Z</time>
      </trkpt>
      <trkpt lat="42.4444530" lon="-7.2992160">
        <ele>593.1</ele>
        <time>2014-10-02T06:38:40Z</time>
      </trkpt>
      <trkpt lat="42.4444340" lon="-7.2992680">
        <ele>593.6</ele>
        <time>2014-10-02T06:38:42Z</time>
      </trkpt>
      <trkpt lat="42.4444110" lon="-7.2993210">
        <ele>594.1</ele>
        <time>2014-10-02T06:38:44Z</time>
      </trkpt>
      <trkpt lat="42.4443850" lon="-7.2993770">
        <ele>594.7</ele>
        <time>2014-10-02T06:38:46Z</time>
      </trkpt>
      <trkpt lat="42.4443580" lon="-7.2994280">
        <ele>595.3</ele>
        <time>2014-10-02T06:38:48Z</time>
      </trkpt>
      <trkpt lat="42.4443290" lon="-7.2994790">
        <ele>595.8</ele>
        <time>2014-10-02T06:38:50Z</time>
      </trkpt>
      <trkpt lat="42.4442960" lon="-7.2995320">
        <ele>596.5</ele>
        <time>2014-10-02T06:38:52Z</time>
      </trkpt>
      <trkpt lat="42.4442640" lon="-7.2995790">
        <ele>597.1</ele>
        <time>2014-10-02T06:38:54Z</time>
      </trkpt>
      <trkpt lat="42.4442330" lon="-7.2996220">
        <ele>597.6</ele>
        <time>2014-10-02T06:38:56Z</time>
      </trkpt>
      <trkpt lat="42.4442010" lon="-7.2996640">
        <ele>598.1</ele>
        <time>2014-10-02T06:38:58Z</time>
      </trkpt>
      <trkpt lat="42.4441690" lon="-7.2997090">
        <ele>598.7</ele>
        <time>2014-10-02T06:39:00Z</time>
      </trkpt>
      <trkpt lat="42.4441380" lon="-7.2997530">
        <ele>599.3</ele>
        <time>2014-10-02T06:39:02Z</time>
      </trkpt>
      <trkpt lat="42.4441070" lon="-7.2997980">
        <ele>599.9</ele>
        <time>2014-10-02T06:39:04Z</time>
      </trkpt>
      <trkpt lat="42.4440790" lon="-7.2998370">
        <ele>600.4</ele>
        <time>2014-10-02T06:39:06Z</time>
      </trkpt>
      <trkpt lat="42.4440490" lon="-7.2998770">
        <ele>600.9</ele>
        <time>2014-10-02T06:39:08Z</time>
      </trkpt>
      <trkpt lat="42.4440200" lon="-7.2999160">
        <ele>601.4</ele>
        <time>2014-10-02T06:39:10Z</time>
      </trkpt>
      <trkpt lat="42.4439940" lon="-7.2999540">
        <ele>601.9</ele>
        <time>2014-10-02T06:39:12Z</time>
      </trkpt>
      <trkpt lat="42.4439680" lon="-7.2999970">
        <ele>602.4</ele>
        <time>2014-10-02T06:39:14Z</time>
      </trkpt>
      <trkpt lat="42.4439390" lon="-7.3000420">
        <ele>602.9</ele>
        <time>2014-10-02T06:39:16Z</time>
      </trkpt>
      <trkpt lat="42.4439110" lon="-7.3000910">
        <ele>603.4</ele>
        <time>2014-10-02T06:39:18Z</time>
      </trkpt>
      <trkpt lat="42.4438830" lon="-7.3001370">
        <ele>603.9</ele>
        <time>2014-10-02T06:39:20Z</time>
      </trkpt>
      <trkpt lat="42.4438590" lon="-7.3001810">
        <ele>604.4</ele>
        <time>2014-10-02T06:39:22Z</time>
      </trkpt>
      <trkpt lat="42.4438350" lon="-7.3002300">
        <ele>604.9</ele>
        <time>2014-10-02T06:39:24Z</time>
      </trkpt>
      <trkpt lat="42.4438080" lon="-7.3002780">
        <ele>605.5</ele>
        <time>2014-10-02T06:39:26Z</time>
      </trkpt>
      <trkpt lat="42.4437800" lon="-7.3003240">
        <ele>606.0</ele>
        <time>2014-10-02T06:39:28Z</time>
      </trkpt>
      <trkpt lat="42.4437500" lon="-7.3003760">
        <ele>606.6</ele>
        <time>2014-10-02T06:39:30Z</time>
      </trkpt>
      <trkpt lat="42.4437260" lon="-7.3004190">
        <ele>607.1</ele>
        <time>2014-10-02T06:39:32Z</time>
      </trkpt>
      <trkpt lat="42.4437000" lon="-7.3004690">
        <ele>607.6</ele>
        <time>2014-10-02T06:39:34Z</time>
      </trkpt>
      <trkpt lat="42.4436740" lon="-7.3005130">
        <ele>608.1</ele>
        <time>2014-10-02T06:39:36Z</time>
      </trkpt>
      <trkpt lat="42.4436480" lon="-7.3005620">
        <ele>608.6</ele>
        <time>2014-10-02T06:39:38Z</time>
      </trkpt>
      <trkpt lat="42.4436160" lon="-7.3006160">
        <ele>609.2</ele>
        <time>2014-10-02T06:39:40Z</time>
      </trkpt>
      <trkpt lat="42.4435860" lon="-7.3006620">
        <ele>609.7</ele>
        <time>2014-10-02T06:39:42Z</time>
      </trkpt>
      <trkpt lat="42.4435520" lon="-7.3007030">
        <ele>610.2</ele>
        <time>2014-10-02T06:39:44Z</time>
      </trkpt>
      <trkpt lat="42.4435150" lon="-7.3007420">
        <ele>610.8</ele>
        <time>2014-10-02T06:39:46Z</time>
      </trkpt>
      <trkpt lat="42.4434810" lon="-7.3007800">
        <ele>611.3</ele>
        <time>2014-10-02T06:39:48Z</time>
      </trkpt>
      <trkpt lat="42.4434460" lon="-7.3008150">
        <ele>611.8</ele>
        <time>2014-10-02T06:39:50Z</time>
      </trkpt>
      <trkpt lat="42.4434100" lon="-7.3008460">
        <ele>612.3</ele>
        <time>2014-10-02T06:39:52Z</time>
      </trkpt>
      <trkpt lat="42.4433710" lon="-7.3008770">
        <ele>612.9</ele>
        <time>2014-10-02T06:39:54Z</time>
      </trkpt>
      <trkpt lat="42.4433330" lon="-7.3009090">
        <ele>613.4</ele>
        <time>2014-10-02T06:39:56Z</time>
      </trkpt>
      <trkpt lat="42.4432930" lon="-7.3009430">
        <ele>614.0</ele>
        <time>2014-10-02T06:39:58Z</time>
      </trkpt>
      <trkpt lat="42.4432560" lon="-7.3009750">
        <ele>614.5</ele>
        <time>2014-10-02T06:40:00Z</time>
      </trkpt>
      <trkpt lat="42.4432170" lon="-7.3010080">
        <ele>615.0</ele>
        <time>2014-10-02T06:40:02Z</time>
      </trkpt>
      <trkpt lat="42.4431750" lon="-7.3010410">
        <ele>615.6</ele>
        <time>2014-10-02T06:40:04Z</time>
      </trkpt>
      <trkpt lat="42.4431360" lon="-7.3010780">
        <ele>616.2</ele>
        <time>2014-10-02T06:40:06Z</time>
      </trkpt>
      <trkpt lat="42.4431010" lon="-7.3011180">
        <ele>616.7</ele>
        <time>2014-10-02T06:40:08Z</time>
      </trkpt>
      <trkpt lat="42.4430640" lon="-7.3011530">
        <ele>617.3</ele>
        <time>2014-10-02T06:40:10Z</time>
      </trkpt>
      <trkpt lat="42.4430260" lon="-7.3011850">
        <ele>617.8</ele>
        <time>2014-10-02T06:40:12Z</time>
      </trkpt>
      <trkpt lat="42.4429860" lon="-7.3012170">
        <ele>618.3</ele>
        <time>2014-10-02T06:40:14Z</time>
      </trkpt>
      <trkpt lat="42.4429490" lon="-7.3012520">
        <ele>618.9</ele>
        <time>2014-10-02T06:40:16Z</time>
      </trkpt>
      <trkpt lat="42.4429140" lon="-7.3012850">
        <ele>619.4</ele>
        <time>2014-10-02T06:40:18Z</time>
      </trkpt>
      <trkpt lat="42.4428740" lon="-7.3013200">
        <ele>619.9</ele>
        <time>2014-10-02T06:40:20Z</time>
      </trkpt>
      <trkpt lat="42.4428340" lon="-7.3013530">
        <ele>620.5</ele>
        <time>2014-10-02T06:40:22Z</time>
      </trkpt>
      <trkpt lat="42.4427950" lon="-7.3013840">
        <ele>621.0</ele>
        <time>2014-10-02T06:40:24Z</time>
      </trkpt>
      <trkpt lat="42.4427600" lon="-7.3014100">
        <ele>621.5</ele>
        <time>2014-10-02T06:40:26Z</time>
      </trkpt>
      <trkpt lat="42.4427260" lon="-7.3014360">
        <ele>622.0</ele>
        <time>2014-10-02T06:40:28Z</time>
      </trkpt>
      <trkpt lat="42.4426870" lon="-7.3014670">
        <ele>622.5</ele>
        <time>2014-10-02T06:40:30Z</time>
      </trkpt>
      <trkpt lat="42.4426500" lon="-7.3014960">
        <ele>623.0</ele>
        <time>2014-10-02T06:40:32Z</time>
      </trkpt>
      <trkpt lat="42.4426130" lon="-7.3015250">
        <ele>623.5</ele>
        <time>2014-10-02T06:40:34Z</time>
      </trkpt>
      <trkpt lat="42.4425750" lon="-7.3015620">
        <ele>624.1</ele>
        <time>2014-10-02T06:40:36Z</time>
      </trkpt>
      <trkpt lat="42.4425370" lon="-7.3015960">
        <ele>624.6</ele>
        <time>2014-10-02T06:40:38Z</time>
      </trkpt>
      <trkpt lat="42.4425010" lon="-7.3016300">
        <ele>625.1</ele>
        <time>2014-10-02T06:40:40Z</time>
      </trkpt>
      <trkpt lat="42.4424640" lon="-7.3016660">
        <ele>625.7</ele>
        <time>2014-10-02T06:40:42Z</time>
      </trkpt>
      <trkpt lat="42.4424270" lon="-7.3017020">
        <ele>626.2</ele>
        <time>2014-10-02T06:40:44Z</time>
      </trkpt>
      <trkpt lat="42.4423870" lon="-7.3017340">
        <ele>626.7</ele>
        <time>2014-10-02T06:40:46Z</time>
      </trkpt>
      <trkpt lat="42.4423510" lon="-7.3017610">
        <ele>627.2</ele>
        <time>2014-10-02T06:40:48Z</time>
      </trkpt>
      <trkpt lat="42.4423090" lon="-7.3017910">
        <ele>627.7</ele>
        <time>2014-10-02T06:40:50Z</time>
      </trkpt>
      <trkpt lat="42.4422830" lon="-7.3018130">
        <ele>628.1</ele>
        <time>2014-10-02T06:40:51Z</time>
      </trkpt>
      <trkpt lat="42.4422590" lon="-7.3018370">
        <ele>628.4</ele>
        <time>2014-10-02T06:40:52Z</time>
      </trkpt>
      <trkpt lat="42.4422200" lon="-7.3018760">
        <ele>629.0</ele>
        <time>2014-10-02T06:40:54Z</time>
      </trkpt>
      <trkpt lat="42.4421860" lon="-7.3019110">
        <ele>629.5</ele>
        <time>2014-10-02T06:40:56Z</time>
      </trkpt>
      <trkpt lat="42.4421500" lon="-7.3019480">
        <ele>630.0</ele>
        <time>2014-10-02T06:40:58Z</time>
      </trkpt>
      <trkpt lat="42.4421160" lon="-7.3019700">
        <ele>630.5</ele>
        <time>2014-10-02T06:41:00Z</time>
      </trkpt>
      <trkpt lat="42.4420750" lon="-7.3020000">
        <ele>631.0</ele>
        <time>2014-10-02T06:41:02Z</time>
      </trkpt>
      <trkpt lat="42.4420330" lon="-7.3020200">
        <ele>631.5</ele>
        <time>2014-10-02T06:41:04Z</time>
      </trkpt>
      <trkpt lat="42.4419890" lon="-7.3020390">
        <ele>632.1</ele>
        <time>2014-10-02T06:41:06Z</time>
      </trkpt>
      <trkpt lat="42.4419460" lon="-7.3020590">
        <ele>632.6</ele>
        <time>2014-10-02T06:41:08Z</time>
      </trkpt>
      <trkpt lat="42.4418990" lon="-7.3020830">
        <ele>633.2</ele>
        <time>2014-10-02T06:41:10Z</time>
      </trkpt>
      <trkpt lat="42.4418740" lon="-7.3020980">
        <ele>633.5</ele>
        <time>2014-10-02T06:41:11Z</time>
      </trkpt>
      <trkpt lat="42.4418300" lon="-7.3021200">
        <ele>634.0</ele>
        <time>2014-10-02T06:41:13Z</time>
      </trkpt>
      <trkpt lat="42.4417870" lon="-7.3021430">
        <ele>634.6</ele>
        <time>2014-10-02T06:41:15Z</time>
      </trkpt>
      <trkpt lat="42.4417460" lon="-7.3021630">
        <ele>635.1</ele>
        <time>2014-10-02T06:41:17Z</time>
      </trkpt>
      <trkpt lat="42.4417080" lon="-7.3021850">
        <ele>635.6</ele>
        <time>2014-10-02T06:41:19Z</time>
      </trkpt>
      <trkpt lat="42.4416690" lon="-7.3022150">
        <ele>636.1</ele>
        <time>2014-10-02T06:41:21Z</time>
      </trkpt>
      <trkpt lat="42.4416270" lon="-7.3022460">
        <ele>636.7</ele>
        <time>2014-10-02T06:41:23Z</time>
      </trkpt>
      <trkpt lat="42.4415850" lon="-7.3022830">
        <ele>637.3</ele>
        <time>2014-10-02T06:41:25Z</time>
      </trkpt>
      <trkpt lat="42.4415480" lon="-7.3023160">
        <ele>637.9</ele>
        <time>2014-10-02T06:41:27Z</time>
      </trkpt>
      <trkpt lat="42.4415100" lon="-7.3023510">
        <ele>638.4</ele>
        <time>2014-10-02T06:41:29Z</time>
      </trkpt>
      <trkpt lat="42.4414700" lon="-7.3023910">
        <ele>639.0</ele>
        <time>2014-10-02T06:41:31Z</time>
      </trkpt>
      <trkpt lat="42.4414350" lon="-7.3024230">
        <ele>639.5</ele>
        <time>2014-10-02T06:41:33Z</time>
      </trkpt>
      <trkpt lat="42.4413990" lon="-7.3024540">
        <ele>640.0</ele>
        <time>2014-10-02T06:41:35Z</time>
      </trkpt>
      <trkpt lat="42.4413610" lon="-7.3024810">
        <ele>640.5</ele>
        <time>2014-10-02T06:41:37Z</time>
      </trkpt>
      <trkpt lat="42.4413220" lon="-7.3025090">
        <ele>641.1</ele>
        <time>2014-10-02T06:41:39Z</time>
      </trkpt>
      <trkpt lat="42.4412830" lon="-7.3025330">
        <ele>641.6</ele>
        <time>2014-10-02T06:41:41Z</time>
      </trkpt>
      <trkpt lat="42.4412440" lon="-7.3025600">
        <ele>642.1</ele>
        <time>2014-10-02T06:41:43Z</time>
      </trkpt>
      <trkpt lat="42.4412040" lon="-7.3025840">
        <ele>642.6</ele>
        <time>2014-10-02T06:41:45Z</time>
      </trkpt>
      <trkpt lat="42.4411630" lon="-7.3026110">
        <ele>643.2</ele>
        <time>2014-10-02T06:41:47Z</time>
      </trkpt>
      <trkpt lat="42.4411250" lon="-7.3026420">
        <ele>643.7</ele>
        <time>2014-10-02T06:41:49Z</time>
      </trkpt>
      <trkpt lat="42.4410840" lon="-7.3026690">
        <ele>644.3</ele>
        <time>2014-10-02T06:41:51Z</time>
      </trkpt>
      <trkpt lat="42.4410410" lon="-7.3026910">
        <ele>644.8</ele>
        <time>2014-10-02T06:41:53Z</time>
      </trkpt>
      <trkpt lat="42.4410000" lon="-7.3027140">
        <ele>645.4</ele>
        <time>2014-10-02T06:41:55Z</time>
      </trkpt>
      <trkpt lat="42.4409580" lon="-7.3027330">
        <ele>645.9</ele>
        <time>2014-10-02T06:41:57Z</time>
      </trkpt>
      <trkpt lat="42.4409130" lon="-7.3027480">
        <ele>646.4</ele>
        <time>2014-10-02T06:41:59Z</time>
      </trkpt>
      <trkpt lat="42.4408660" lon="-7.3027660">
        <ele>647.0</ele>
        <time>2014-10-02T06:42:01Z</time>
      </trkpt>
      <trkpt lat="42.4408230" lon="-7.3027910">
        <ele>647.6</ele>
        <time>2014-10-02T06:42:03Z</time>
      </trkpt>
      <trkpt lat="42.4407790" lon="-7.3028090">
        <ele>648.2</ele>
        <time>2014-10-02T06:42:05Z</time>
      </trkpt>
      <trkpt lat="42.4407380" lon="-7.3028250">
        <ele>648.7</ele>
        <time>2014-10-02T06:42:07Z</time>
      </trkpt>
      <trkpt lat="42.4407020" lon="-7.3028480">
        <ele>649.2</ele>
        <time>2014-10-02T06:42:09Z</time>
      </trkpt>
      <trkpt lat="42.4406620" lon="-7.3028850">
        <ele>649.8</ele>
        <time>2014-10-02T06:42:11Z</time>
      </trkpt>
      <trkpt lat="42.4406250" lon="-7.3029180">
        <ele>650.4</ele>
        <time>2014-10-02T06:42:13Z</time>
      </trkpt>
      <trkpt lat="42.4405860" lon="-7.3029500">
        <ele>650.9</ele>
        <time>2014-10-02T06:42:15Z</time>
      </trkpt>
      <trkpt lat="42.4405500" lon="-7.3029810">
        <ele>651.4</ele>
        <time>2014-10-02T06:42:17Z</time>
      </trkpt>
      <trkpt lat="42.4405110" lon="-7.3030170">
        <ele>651.9</ele>
        <time>2014-10-02T06:42:19Z</time>
      </trkpt>
      <trkpt lat="42.4404730" lon="-7.3030540">
        <ele>652.5</ele>
        <time>2014-10-02T06:42:21Z</time>
      </trkpt>
      <trkpt lat="42.4404350" lon="-7.3030910">
        <ele>653.0</ele>
        <time>2014-10-02T06:42:23Z</time>
      </trkpt>
      <trkpt lat="42.4403980" lon="-7.3031250">
        <ele>653.5</ele>
        <time>2014-10-02T06:42:25Z</time>
      </trkpt>
      <trkpt lat="42.4403610" lon="-7.3031580">
        <ele>654.0</ele>
        <time>2014-10-02T06:42:27Z</time>
      </trkpt>
      <trkpt lat="42.4403240" lon="-7.3031890">
        <ele>654.5</ele>
        <time>2014-10-02T06:42:29Z</time>
      </trkpt>
      <trkpt lat="42.4402840" lon="-7.3032130">
        <ele>655.1</ele>
        <time>2014-10-02T06:42:31Z</time>
      </trkpt>
      <trkpt lat="42.4402430" lon="-7.3032340">
        <ele>655.6</ele>
        <time>2014-10-02T06:42:33Z</time>
      </trkpt>
      <trkpt lat="42.4402040" lon="-7.3032540">
        <ele>656.1</ele>
        <time>2014-10-02T06:42:35Z</time>
      </trkpt>
      <trkpt lat="42.4401620" lon="-7.3032720">
        <ele>656.7</ele>
        <time>2014-10-02T06:42:37Z</time>
      </trkpt>
      <trkpt lat="42.4401180" lon="-7.3032870">
        <ele>657.3</ele>
        <time>2014-10-02T06:42:39Z</time>
      </trkpt>
      <trkpt lat="42.4400770" lon="-7.3033040">
        <ele>657.8</ele>
        <time>2014-10-02T06:42:41Z</time>
      </trkpt>
      <trkpt lat="42.4400370" lon="-7.3033200">
        <ele>658.3</ele>
        <time>2014-10-02T06:42:43Z</time>
      </trkpt>
      <trkpt lat="42.4399950" lon="-7.3033330">
        <ele>658.9</ele>
        <time>2014-10-02T06:42:45Z</time>
      </trkpt>
      <trkpt lat="42.4399540" lon="-7.3033430">
        <ele>659.4</ele>
        <time>2014-10-02T06:42:47Z</time>
      </trkpt>
      <trkpt lat="42.4399110" lon="-7.3033570">
        <ele>660.0</ele>
        <time>2014-10-02T06:42:49Z</time>
      </trkpt>
      <trkpt lat="42.4398700" lon="-7.3033790">
        <ele>660.5</ele>
        <time>2014-10-02T06:42:51Z</time>
      </trkpt>
      <trkpt lat="42.4398320" lon="-7.3034060">
        <ele>661.0</ele>
        <time>2014-10-02T06:42:53Z</time>
      </trkpt>
      <trkpt lat="42.4397970" lon="-7.3034510">
        <ele>661.6</ele>
        <time>2014-10-02T06:42:55Z</time>
      </trkpt>
      <trkpt lat="42.4397730" lon="-7.3035030">
        <ele>662.1</ele>
        <time>2014-10-02T06:42:57Z</time>
      </trkpt>
      <trkpt lat="42.4397560" lon="-7.3035570">
        <ele>662.7</ele>
        <time>2014-10-02T06:42:59Z</time>
      </trkpt>
      <trkpt lat="42.4397460" lon="-7.3036270">
        <ele>663.3</ele>
        <time>2014-10-02T06:43:01Z</time>
      </trkpt>
      <trkpt lat="42.4397400" lon="-7.3036650">
        <ele>663.7</ele>
        <time>2014-10-02T06:43:02Z</time>
      </trkpt>
      <trkpt lat="42.4397350" lon="-7.3037230">
        <ele>664.2</ele>
        <time>2014-10-02T06:43:04Z</time>
      </trkpt>
      <trkpt lat="42.4397340" lon="-7.3037830">
        <ele>664.7</ele>
        <time>2014-10-02T06:43:06Z</time>
      </trkpt>
      <trkpt lat="42.4397340" lon="-7.3038400">
        <ele>665.2</ele>
        <time>2014-10-02T06:43:08Z</time>
      </trkpt>
      <trkpt lat="42.4397300" lon="-7.3039110">
        <ele>665.9</ele>
        <time>2014-10-02T06:43:10Z</time>
      </trkpt>
      <trkpt lat="42.4397230" lon="-7.3039740">
        <ele>666.5</ele>
        <time>2014-10-02T06:43:12Z</time>
      </trkpt>
      <trkpt lat="42.4397160" lon="-7.3040310">
        <ele>667.0</ele>
        <time>2014-10-02T06:43:14Z</time>
      </trkpt>
      <trkpt lat="42.4397040" lon="-7.3040860">
        <ele>667.6</ele>
        <time>2014-10-02T06:43:16Z</time>
      </trkpt>
      <trkpt lat="42.4396950" lon="-7.3041220">
        <ele>667.9</ele>
        <time>2014-10-02T06:43:17Z</time>
      </trkpt>
      <trkpt lat="42.4396840" lon="-7.3041860">
        <ele>668.5</ele>
        <time>2014-10-02T06:43:19Z</time>
      </trkpt>
      <trkpt lat="42.4396700" lon="-7.3042470">
        <ele>669.1</ele>
        <time>2014-10-02T06:43:21Z</time>
      </trkpt>
      <trkpt lat="42.4396580" lon="-7.3043080">
        <ele>669.6</ele>
        <time>2014-10-02T06:43:23Z</time>
      </trkpt>
      <trkpt lat="42.4396440" lon="-7.3043590">
        <ele>670.1</ele>
        <time>2014-10-02T06:43:25Z</time>
      </trkpt>
      <trkpt lat="42.4396310" lon="-7.3044100">
        <ele>670.6</ele>
        <time>2014-10-02T06:43:27Z</time>
      </trkpt>
      <trkpt lat="42.4396170" lon="-7.3044630">
        <ele>671.1</ele>
        <time>2014-10-02T06:43:29Z</time>
      </trkpt>
      <trkpt lat="42.4396070" lon="-7.3045100">
        <ele>671.5</ele>
        <time>2014-10-02T06:43:31Z</time>
      </trkpt>
      <trkpt lat="42.4395990" lon="-7.3045730">
        <ele>672.0</ele>
        <time>2014-10-02T06:43:33Z</time>
      </trkpt>
      <trkpt lat="42.4395890" lon="-7.3046340">
        <ele>672.6</ele>
        <time>2014-10-02T06:43:35Z</time>
      </trkpt>
      <trkpt lat="42.4395820" lon="-7.3046890">
        <ele>673.0</ele>
        <time>2014-10-02T06:43:37Z</time>
      </trkpt>
      <trkpt lat="42.4395780" lon="-7.3047490">
        <ele>673.6</ele>
        <time>2014-10-02T06:43:39Z</time>
      </trkpt>
      <trkpt lat="42.4395710" lon="-7.3048130">
        <ele>674.1</ele>
        <time>2014-10-02T06:43:41Z</time>
      </trkpt>
      <trkpt lat="42.4395580" lon="-7.3048760">
        <ele>674.7</ele>
        <time>2014-10-02T06:43:43Z</time>
      </trkpt>
      <trkpt lat="42.4395490" lon="-7.3049330">
        <ele>675.2</ele>
        <time>2014-10-02T06:43:45Z</time>
      </trkpt>
      <trkpt lat="42.4395360" lon="-7.3049960">
        <ele>675.7</ele>
        <time>2014-10-02T06:43:47Z</time>
      </trkpt>
      <trkpt lat="42.4395210" lon="-7.3050530">
        <ele>676.2</ele>
        <time>2014-10-02T06:43:49Z</time>
      </trkpt>
      <trkpt lat="42.4395120" lon="-7.3050880">
        <ele>676.6</ele>
        <time>2014-10-02T06:43:50Z</time>
      </trkpt>
      <trkpt lat="42.4394970" lon="-7.3051510">
        <ele>677.1</ele>
        <time>2014-10-02T06:43:52Z</time>
      </trkpt>
      <trkpt lat="42.4394830" lon="-7.3052010">
        <ele>677.6</ele>
        <time>2014-10-02T06:43:54Z</time>
      </trkpt>
      <trkpt lat="42.4394690" lon="-7.3052460">
        <ele>678.0</ele>
        <time>2014-10-02T06:43:56Z</time>
      </trkpt>
      <trkpt lat="42.4394520" lon="-7.3052990">
        <ele>678.5</ele>
        <time>2014-10-02T06:43:58Z</time>
      </trkpt>
      <trkpt lat="42.4394410" lon="-7.3053520">
        <ele>679.0</ele>
        <time>2014-10-02T06:44:00Z</time>
      </trkpt>
      <trkpt lat="42.4394300" lon="-7.3054080">
        <ele>679.5</ele>
        <time>2014-10-02T06:44:02Z</time>
      </trkpt>
      <trkpt lat="42.4394190" lon="-7.3054630">
        <ele>680.0</ele>
        <time>2014-10-02T06:44:04Z</time>
      </trkpt>
      <trkpt lat="42.4393980" lon="-7.3055090">
        <ele>680.4</ele>
        <time>2014-10-02T06:44:06Z</time>
      </trkpt>
      <trkpt lat="42.4393740" lon="-7.3055590">
        <ele>680.9</ele>
        <time>2014-10-02T06:44:08Z</time>
      </trkpt>
      <trkpt lat="42.4393470" lon="-7.3056090">
        <ele>681.5</ele>
        <time>2014-10-02T06:44:10Z</time>
      </trkpt>
      <trkpt lat="42.4393110" lon="-7.3056600">
        <ele>682.1</ele>
        <time>2014-10-02T06:44:12Z</time>
      </trkpt>
      <trkpt lat="42.4392760" lon="-7.3057020">
        <ele>682.7</ele>
        <time>2014-10-02T06:44:14Z</time>
      </trkpt>
      <trkpt lat="42.4392270" lon="-7.3057350">
        <ele>683.4</ele>
        <time>2014-10-02T06:44:16Z</time>
      </trkpt>
      <trkpt lat="42.4391950" lon="-7.3057540">
        <ele>683.8</ele>
        <time>2014-10-02T06:44:17Z</time>
      </trkpt>
      <trkpt lat="42.4391650" lon="-7.3057670">
        <ele>684.2</ele>
        <time>2014-10-02T06:44:18Z</time>
      </trkpt>
      <trkpt lat="42.4391200" lon="-7.3057580">
        <ele>684.7</ele>
        <time>2014-10-02T06:44:20Z</time>
      </trkpt>
      <trkpt lat="42.4390880" lon="-7.3057430">
        <ele>685.1</ele>
        <time>2014-10-02T06:44:22Z</time>
      </trkpt>
      <trkpt lat="42.4390590" lon="-7.3057200">
        <ele>685.6</ele>
        <time>2014-10-02T06:44:24Z</time>
      </trkpt>
      <trkpt lat="42.4390250" lon="-7.3056890">
        <ele>686.1</ele>
        <time>2014-10-02T06:44:26Z</time>
      </trkpt>
      <trkpt lat="42.4389880" lon="-7.3056580">
        <ele>686.6</ele>
        <time>2014-10-02T06:44:28Z</time>
      </trkpt>
      <trkpt lat="42.4389510" lon="-7.3056240">
        <ele>687.1</ele>
        <time>2014-10-02T06:44:30Z</time>
      </trkpt>
      <trkpt lat="42.4389140" lon="-7.3055880">
        <ele>687.6</ele>
        <time>2014-10-02T06:44:32Z</time>
      </trkpt>
      <trkpt lat="42.4388760" lon="-7.3055610">
        <ele>688.1</ele>
        <time>2014-10-02T06:44:34Z</time>
      </trkpt>
      <trkpt lat="42.4388290" lon="-7.3055360">
        <ele>688.7</ele>
        <time>2014-10-02T06:44:36Z</time>
      </trkpt>
      <trkpt lat="42.4387790" lon="-7.3055150">
        <ele>689.3</ele>
        <time>2014-10-02T06:44:38Z</time>
      </trkpt>
      <trkpt lat="42.4387360" lon="-7.3054970">
        <ele>689.8</ele>
        <time>2014-10-02T06:44:40Z</time>
      </trkpt>
      <trkpt lat="42.4386970" lon="-7.3054770">
        <ele>690.3</ele>
        <time>2014-10-02T06:44:42Z</time>
      </trkpt>
      <trkpt lat="42.4386600" lon="-7.3054610">
        <ele>690.7</ele>
        <time>2014-10-02T06:44:44Z</time>
      </trkpt>
      <trkpt lat="42.4386180" lon="-7.3054440">
        <ele>691.2</ele>
        <time>2014-10-02T06:44:46Z</time>
      </trkpt>
      <trkpt lat="42.4385760" lon="-7.3054300">
        <ele>691.7</ele>
        <time>2014-10-02T06:44:48Z</time>
      </trkpt>
      <trkpt lat="42.4385360" lon="-7.3054110">
        <ele>692.2</ele>
        <time>2014-10-02T06:44:50Z</time>
      </trkpt>
      <trkpt lat="42.4385000" lon="-7.3053910">
        <ele>692.6</ele>
        <time>2014-10-02T06:44:52Z</time>
      </trkpt>
      <trkpt lat="42.4384600" lon="-7.3053700">
        <ele>693.1</ele>
        <time>2014-10-02T06:44:54Z</time>
      </trkpt>
      <trkpt lat="42.4384200" lon="-7.3053390">
        <ele>693.6</ele>
        <time>2014-10-02T06:44:56Z</time>
      </trkpt>
      <trkpt lat="42.4383770" lon="-7.3053140">
        <ele>694.2</ele>
        <time>2014-10-02T06:44:58Z</time>
      </trkpt>
      <trkpt lat="42.4383320" lon="-7.3052910">
        <ele>694.7</ele>
        <time>2014-10-02T06:45:00Z</time>
      </trkpt>
      <trkpt lat="42.4382900" lon="-7.3052690">
        <ele>695.3</ele>
        <time>2014-10-02T06:45:02Z</time>
      </trkpt>
      <trkpt lat="42.4382500" lon="-7.3052510">
        <ele>695.7</ele>
        <time>2014-10-02T06:45:04Z</time>
      </trkpt>
      <trkpt lat="42.4382130" lon="-7.3052390">
        <ele>696.2</ele>
        <time>2014-10-02T06:45:06Z</time>
      </trkpt>
      <trkpt lat="42.4381730" lon="-7.3052280">
        <ele>696.6</ele>
        <time>2014-10-02T06:45:08Z</time>
      </trkpt>
      <trkpt lat="42.4381280" lon="-7.3052110">
        <ele>697.1</ele>
        <time>2014-10-02T06:45:10Z</time>
      </trkpt>
      <trkpt lat="42.4380830" lon="-7.3051910">
        <ele>697.6</ele>
        <time>2014-10-02T06:45:12Z</time>
      </trkpt>
      <trkpt lat="42.4380350" lon="-7.3051750">
        <ele>698.2</ele>
        <time>2014-10-02T06:45:14Z</time>
      </trkpt>
      <trkpt lat="42.4379920" lon="-7.3051650">
        <ele>698.7</ele>
        <time>2014-10-02T06:45:16Z</time>
      </trkpt>
      <trkpt lat="42.4379480" lon="-7.3051560">
        <ele>699.1</ele>
        <time>2014-10-02T06:45:18Z</time>
      </trkpt>
      <trkpt lat="42.4379010" lon="-7.3051630">
        <ele>699.7</ele>
        <time>2014-10-02T06:45:20Z</time>
      </trkpt>
      <trkpt lat="42.4378560" lon="-7.3051880">
        <ele>700.2</ele>
        <time>2014-10-02T06:45:22Z</time>
      </trkpt>
      <trkpt lat="42.4378220" lon="-7.3052220">
        <ele>700.7</ele>
        <time>2014-10-02T06:45:24Z</time>
      </trkpt>
      <trkpt lat="42.4377990" lon="-7.3052670">
        <ele>701.1</ele>
        <time>2014-10-02T06:45:26Z</time>
      </trkpt>
      <trkpt lat="42.4377770" lon="-7.3053270">
        <ele>701.7</ele>
        <time>2014-10-02T06:45:28Z</time>
      </trkpt>
      <trkpt lat="42.4377680" lon="-7.3053620">
        <ele>702.0</ele>
        <time>2014-10-02T06:45:29Z</time>
      </trkpt>
      <trkpt lat="42.4377550" lon="-7.3054320">
        <ele>702.6</ele>
        <time>2014-10-02T06:45:31Z</time>
      </trkpt>
      <trkpt lat="42.4377460" lon="-7.3054710">
        <ele>702.9</ele>
        <time>2014-10-02T06:45:32Z</time>
      </trkpt>
      <trkpt lat="42.4377400" lon="-7.3055070">
        <ele>703.2</ele>
        <time>2014-10-02T06:45:33Z</time>
      </trkpt>
      <trkpt lat="42.4377360" lon="-7.3055440">
        <ele>703.6</ele>
        <time>2014-10-02T06:45:34Z</time>
      </trkpt>
      <trkpt lat="42.4377330" lon="-7.3055820">
        <ele>703.9</ele>
        <time>2014-10-02T06:45:35Z</time>
      </trkpt>
      <trkpt lat="42.4377320" lon="-7.3056210">
        <ele>704.2</ele>
        <time>2014-10-02T06:45:36Z</time>
      </trkpt>
      <trkpt lat="42.4377310" lon="-7.3056600">
        <ele>704.5</ele>
        <time>2014-10-02T06:45:37Z</time>
      </trkpt>
      <trkpt lat="42.4377400" lon="-7.3057440">
        <ele>705.1</ele>
        <time>2014-10-02T06:45:39Z</time>
      </trkpt>
      <trkpt lat="42.4377490" lon="-7.3057930">
        <ele>705.5</ele>
        <time>2014-10-02T06:45:40Z</time>
      </trkpt>
      <trkpt lat="42.4377600" lon="-7.3058360">
        <ele>705.8</ele>
        <time>2014-10-02T06:45:41Z</time>
      </trkpt>
      <trkpt lat="42.4377700" lon="-7.3058760">
        <ele>706.1</ele>
        <time>2014-10-02T06:45:42Z</time>
      </trkpt>
      <trkpt lat="42.4377830" lon="-7.3059130">
        <ele>706.4</ele>
        <time>2014-10-02T06:45:43Z</time>
      </trkpt>
      <trkpt lat="42.4377940" lon="-7.3059500">
        <ele>706.6</ele>
        <time>2014-10-02T06:45:44Z</time>
      </trkpt>
      <trkpt lat="42.4378060" lon="-7.3059850">
        <ele>706.9</ele>
        <time>2014-10-02T06:45:45Z</time>
      </trkpt>
      <trkpt lat="42.4378170" lon="-7.3060200">
        <ele>707.1</ele>
        <time>2014-10-02T06:45:46Z</time>
      </trkpt>
      <trkpt lat="42.4378400" lon="-7.3060860">
        <ele>707.7</ele>
        <time>2014-10-02T06:45:48Z</time>
      </trkpt>
      <trkpt lat="42.4378610" lon="-7.3061520">
        <ele>708.2</ele>
        <time>2014-10-02T06:45:50Z</time>
      </trkpt>
      <trkpt lat="42.4378700" lon="-7.3061870">
        <ele>708.4</ele>
        <time>2014-10-02T06:45:51Z</time>
      </trkpt>
      <trkpt lat="42.4378870" lon="-7.3062540">
        <ele>708.9</ele>
        <time>2014-10-02T06:45:53Z</time>
      </trkpt>
      <trkpt lat="42.4379050" lon="-7.3063130">
        <ele>709.4</ele>
        <time>2014-10-02T06:45:55Z</time>
      </trkpt>
      <trkpt lat="42.4379210" lon="-7.3063690">
        <ele>709.8</ele>
        <time>2014-10-02T06:45:57Z</time>
      </trkpt>
      <trkpt lat="42.4379380" lon="-7.3064320">
        <ele>710.2</ele>
        <time>2014-10-02T06:45:59Z</time>
      </trkpt>
      <trkpt lat="42.4379580" lon="-7.3064940">
        <ele>710.7</ele>
        <time>2014-10-02T06:46:01Z</time>
      </trkpt>
      <trkpt lat="42.4379790" lon="-7.3065490">
        <ele>711.1</ele>
        <time>2014-10-02T06:46:03Z</time>
      </trkpt>
      <trkpt lat="42.4380040" lon="-7.3066100">
        <ele>711.6</ele>
        <time>2014-10-02T06:46:05Z</time>
      </trkpt>
      <trkpt lat="42.4380260" lon="-7.3066650">
        <ele>712.0</ele>
        <time>2014-10-02T06:46:07Z</time>
      </trkpt>
      <trkpt lat="42.4380460" lon="-7.3067240">
        <ele>712.4</ele>
        <time>2014-10-02T06:46:09Z</time>
      </trkpt>
      <trkpt lat="42.4380630" lon="-7.3067870">
        <ele>712.8</ele>
        <time>2014-10-02T06:46:11Z</time>
      </trkpt>
      <trkpt lat="42.4380880" lon="-7.3068430">
        <ele>713.2</ele>
        <time>2014-10-02T06:46:13Z</time>
      </trkpt>
      <trkpt lat="42.4381010" lon="-7.3068770">
        <ele>713.4</ele>
        <time>2014-10-02T06:46:14Z</time>
      </trkpt>
      <trkpt lat="42.4381270" lon="-7.3069250">
        <ele>713.8</ele>
        <time>2014-10-02T06:46:16Z</time>
      </trkpt>
      <trkpt lat="42.4381470" lon="-7.3069760">
        <ele>714.2</ele>
        <time>2014-10-02T06:46:18Z</time>
      </trkpt>
      <trkpt lat="42.4381090" lon="-7.3070340">
        <ele>714.7</ele>
        <time>2014-10-02T06:46:21Z</time>
      </trkpt>
      <trkpt lat="42.4380850" lon="-7.3070550">
        <ele>714.9</ele>
        <time>2014-10-02T06:46:22Z</time>
      </trkpt>
      <trkpt lat="42.4380360" lon="-7.3070820">
        <ele>715.4</ele>
        <time>2014-10-02T06:46:23Z</time>
      </trkpt>
      <trkpt lat="42.4379990" lon="-7.3071120">
        <ele>715.8</ele>
        <time>2014-10-02T06:46:24Z</time>
      </trkpt>
      <trkpt lat="42.4380130" lon="-7.3071500">
        <ele>716.1</ele>
        <time>2014-10-02T06:46:25Z</time>
      </trkpt>
      <trkpt lat="42.4380510" lon="-7.3072050">
        <ele>716.6</ele>
        <time>2014-10-02T06:46:27Z</time>
      </trkpt>
      <trkpt lat="42.4380810" lon="-7.3072360">
        <ele>717.0</ele>
        <time>2014-10-02T06:46:29Z</time>
      </trkpt>
      <trkpt lat="42.4381230" lon="-7.3072820">
        <ele>717.5</ele>
        <time>2014-10-02T06:46:31Z</time>
      </trkpt>
      <trkpt lat="42.4381480" lon="-7.3073070">
        <ele>717.8</ele>
        <time>2014-10-02T06:46:32Z</time>
      </trkpt>
      <trkpt lat="42.4381860" lon="-7.3073550">
        <ele>718.3</ele>
        <time>2014-10-02T06:46:34Z</time>
      </trkpt>
      <trkpt lat="42.4382090" lon="-7.3073860">
        <ele>718.6</ele>
        <time>2014-10-02T06:46:35Z</time>
      </trkpt>
      <trkpt lat="42.4382530" lon="-7.3074170">
        <ele>719.1</ele>
        <time>2014-10-02T06:46:36Z</time>
      </trkpt>
      <trkpt lat="42.4383010" lon="-7.3074460">
        <ele>719.6</ele>
        <time>2014-10-02T06:46:37Z</time>
      </trkpt>
      <trkpt lat="42.4383450" lon="-7.3074780">
        <ele>720.1</ele>
        <time>2014-10-02T06:46:38Z</time>
      </trkpt>
      <trkpt lat="42.4383900" lon="-7.3075080">
        <ele>720.6</ele>
        <time>2014-10-02T06:46:39Z</time>
      </trkpt>
      <trkpt lat="42.4384240" lon="-7.3075310">
        <ele>720.9</ele>
        <time>2014-10-02T06:46:40Z</time>
      </trkpt>
      <trkpt lat="42.4384520" lon="-7.3075540">
        <ele>721.2</ele>
        <time>2014-10-02T06:46:41Z</time>
      </trkpt>
      <trkpt lat="42.4384780" lon="-7.3075730">
        <ele>721.5</ele>
        <time>2014-10-02T06:46:42Z</time>
      </trkpt>
      <trkpt lat="42.4385050" lon="-7.3075910">
        <ele>721.8</ele>
        <time>2014-10-02T06:46:43Z</time>
      </trkpt>
      <trkpt lat="42.4385310" lon="-7.3076080">
        <ele>722.1</ele>
        <time>2014-10-02T06:46:44Z</time>
      </trkpt>
      <trkpt lat="42.4385770" lon="-7.3076430">
        <ele>722.6</ele>
        <time>2014-10-02T06:46:46Z</time>
      </trkpt>
      <trkpt lat="42.4386020" lon="-7.3076620">
        <ele>722.9</ele>
        <time>2014-10-02T06:46:47Z</time>
      </trkpt>
      <trkpt lat="42.4386440" lon="-7.3076940">
        <ele>723.3</ele>
        <time>2014-10-02T06:46:49Z</time>
      </trkpt>
      <trkpt lat="42.4386690" lon="-7.3077100">
        <ele>723.6</ele>
        <time>2014-10-02T06:46:50Z</time>
      </trkpt>
      <trkpt lat="42.4386940" lon="-7.3077240">
        <ele>723.9</ele>
        <time>2014-10-02T06:46:51Z</time>
      </trkpt>
      <trkpt lat="42.4387210" lon="-7.3077390">
        <ele>724.2</ele>
        <time>2014-10-02T06:46:52Z</time>
      </trkpt>
      <trkpt lat="42.4387740" lon="-7.3077660">
        <ele>724.7</ele>
        <time>2014-10-02T06:46:54Z</time>
      </trkpt>
      <trkpt lat="42.4388180" lon="-7.3077930">
        <ele>725.2</ele>
        <time>2014-10-02T06:46:56Z</time>
      </trkpt>
      <trkpt lat="42.4388580" lon="-7.3078230">
        <ele>725.6</ele>
        <time>2014-10-02T06:46:58Z</time>
      </trkpt>
      <trkpt lat="42.4388850" lon="-7.3078360">
        <ele>725.9</ele>
        <time>2014-10-02T06:46:59Z</time>
      </trkpt>
      <trkpt lat="42.4389120" lon="-7.3078460">
        <ele>726.1</ele>
        <time>2014-10-02T06:47:00Z</time>
      </trkpt>
      <trkpt lat="42.4389380" lon="-7.3078580">
        <ele>726.4</ele>
        <time>2014-10-02T06:47:01Z</time>
      </trkpt>
      <trkpt lat="42.4389890" lon="-7.3078770">
        <ele>726.8</ele>
        <time>2014-10-02T06:47:03Z</time>
      </trkpt>
      <trkpt lat="42.4390380" lon="-7.3078910">
        <ele>727.3</ele>
        <time>2014-10-02T06:47:05Z</time>
      </trkpt>
      <trkpt lat="42.4390900" lon="-7.3079020">
        <ele>727.7</ele>
        <time>2014-10-02T06:47:07Z</time>
      </trkpt>
      <trkpt lat="42.4391200" lon="-7.3079000">
        <ele>728.0</ele>
        <time>2014-10-02T06:47:08Z</time>
      </trkpt>
      <trkpt lat="42.4391740" lon="-7.3078930">
        <ele>728.5</ele>
        <time>2014-10-02T06:47:10Z</time>
      </trkpt>
      <trkpt lat="42.4392040" lon="-7.3078900">
        <ele>728.7</ele>
        <time>2014-10-02T06:47:11Z</time>
      </trkpt>
      <trkpt lat="42.4392460" lon="-7.3078810">
        <ele>729.1</ele>
        <time>2014-10-02T06:47:13Z</time>
      </trkpt>
      <trkpt lat="42.4392960" lon="-7.3078630">
        <ele>729.5</ele>
        <time>2014-10-02T06:47:15Z</time>
      </trkpt>
      <trkpt lat="42.4393280" lon="-7.3078530">
        <ele>729.8</ele>
        <time>2014-10-02T06:47:16Z</time>
      </trkpt>
      <trkpt lat="42.4393590" lon="-7.3078420">
        <ele>730.1</ele>
        <time>2014-10-02T06:47:17Z</time>
      </trkpt>
      <trkpt lat="42.4393860" lon="-7.3078330">
        <ele>730.3</ele>
        <time>2014-10-02T06:47:18Z</time>
      </trkpt>
      <trkpt lat="42.4394380" lon="-7.3078120">
        <ele>730.8</ele>
        <time>2014-10-02T06:47:20Z</time>
      </trkpt>
      <trkpt lat="42.4394830" lon="-7.3077990">
        <ele>731.2</ele>
        <time>2014-10-02T06:47:22Z</time>
      </trkpt>
      <trkpt lat="42.4395340" lon="-7.3077960">
        <ele>731.7</ele>
        <time>2014-10-02T06:47:24Z</time>
      </trkpt>
      <trkpt lat="42.4395780" lon="-7.3078050">
        <ele>732.1</ele>
        <time>2014-10-02T06:47:26Z</time>
      </trkpt>
      <trkpt lat="42.4396140" lon="-7.3078260">
        <ele>732.5</ele>
        <time>2014-10-02T06:47:28Z</time>
      </trkpt>
      <trkpt lat="42.4396410" lon="-7.3077290">
        <ele>733.2</ele>
        <time>2014-10-02T06:47:30Z</time>
      </trkpt>
      <trkpt lat="42.4396550" lon="-7.3077690">
        <ele>733.6</ele>
        <time>2014-10-02T06:47:32Z</time>
      </trkpt>
      <trkpt lat="42.4396800" lon="-7.3078340">
        <ele>734.1</ele>
        <time>2014-10-02T06:47:34Z</time>
      </trkpt>
      <trkpt lat="42.4397110" lon="-7.3078620">
        <ele>734.5</ele>
        <time>2014-10-02T06:47:35Z</time>
      </trkpt>
      <trkpt lat="42.4397500" lon="-7.3078930">
        <ele>735.0</ele>
        <time>2014-10-02T06:47:36Z</time>
      </trkpt>
      <trkpt lat="42.4397850" lon="-7.3079130">
        <ele>735.4</ele>
        <time>2014-10-02T06:47:37Z</time>
      </trkpt>
      <trkpt lat="42.4398120" lon="-7.3079330">
        <ele>735.7</ele>
        <time>2014-10-02T06:47:38Z</time>
      </trkpt>
      <trkpt lat="42.4398570" lon="-7.3079500">
        <ele>736.3</ele>
        <time>2014-10-02T06:47:40Z</time>
      </trkpt>
      <trkpt lat="42.4398910" lon="-7.3079860">
        <ele>736.8</ele>
        <time>2014-10-02T06:47:42Z</time>
      </trkpt>
      <trkpt lat="42.4399240" lon="-7.3080350">
        <ele>737.3</ele>
        <time>2014-10-02T06:47:44Z</time>
      </trkpt>
      <trkpt lat="42.4399580" lon="-7.3080870">
        <ele>737.9</ele>
        <time>2014-10-02T06:47:46Z</time>
      </trkpt>
      <trkpt lat="42.4399850" lon="-7.3081430">
        <ele>738.4</ele>
        <time>2014-10-02T06:47:48Z</time>
      </trkpt>
      <trkpt lat="42.4400000" lon="-7.3082040">
        <ele>738.9</ele>
        <time>2014-10-02T06:47:50Z</time>
      </trkpt>
      <trkpt lat="42.4400090" lon="-7.3082420">
        <ele>739.2</ele>
        <time>2014-10-02T06:47:51Z</time>
      </trkpt>
      <trkpt lat="42.4400180" lon="-7.3083070">
        <ele>739.7</ele>
        <time>2014-10-02T06:47:53Z</time>
      </trkpt>
      <trkpt lat="42.4400190" lon="-7.3083770">
        <ele>740.2</ele>
        <time>2014-10-02T06:47:55Z</time>
      </trkpt>
      <trkpt lat="42.4400170" lon="-7.3084150">
        <ele>740.5</ele>
        <time>2014-10-02T06:47:56Z</time>
      </trkpt>
      <trkpt lat="42.4400190" lon="-7.3084560">
        <ele>740.8</ele>
        <time>2014-10-02T06:47:57Z</time>
      </trkpt>
      <trkpt lat="42.4400220" lon="-7.3084990">
        <ele>741.1</ele>
        <time>2014-10-02T06:47:58Z</time>
      </trkpt>
      <trkpt lat="42.4400250" lon="-7.3085400">
        <ele>741.4</ele>
        <time>2014-10-02T06:47:59Z</time>
      </trkpt>
      <trkpt lat="42.4400270" lon="-7.3085780">
        <ele>741.7</ele>
        <time>2014-10-02T06:48:00Z</time>
      </trkpt>
      <trkpt lat="42.4400350" lon="-7.3086440">
        <ele>742.2</ele>
        <time>2014-10-02T06:48:02Z</time>
      </trkpt>
      <trkpt lat="42.4400470" lon="-7.3087090">
        <ele>742.7</ele>
        <time>2014-10-02T06:48:04Z</time>
      </trkpt>
      <trkpt lat="42.4400590" lon="-7.3087430">
        <ele>742.9</ele>
        <time>2014-10-02T06:48:05Z</time>
      </trkpt>
      <trkpt lat="42.4400690" lon="-7.3087780">
        <ele>743.2</ele>
        <time>2014-10-02T06:48:06Z</time>
      </trkpt>
      <trkpt lat="42.4400910" lon="-7.3088370">
        <ele>743.7</ele>
        <time>2014-10-02T06:48:08Z</time>
      </trkpt>
      <trkpt lat="42.4401050" lon="-7.3088690">
        <ele>743.9</ele>
        <time>2014-10-02T06:48:09Z</time>
      </trkpt>
      <trkpt lat="42.4401220" lon="-7.3089050">
        <ele>744.3</ele>
        <time>2014-10-02T06:48:10Z</time>
      </trkpt>
      <trkpt lat="42.4401330" lon="-7.3089380">
        <ele>744.5</ele>
        <time>2014-10-02T06:48:11Z</time>
      </trkpt>
      <trkpt lat="42.4401430" lon="-7.3089730">
        <ele>744.8</ele>
        <time>2014-10-02T06:48:12Z</time>
      </trkpt>
      <trkpt lat="42.4401530" lon="-7.3090070">
        <ele>745.1</ele>
        <time>2014-10-02T06:48:13Z</time>
      </trkpt>
      <trkpt lat="42.4401660" lon="-7.3090420">
        <ele>745.4</ele>
        <time>2014-10-02T06:48:14Z</time>
      </trkpt>
      <trkpt lat="42.4401880" lon="-7.3091050">
        <ele>746.0</ele>
        <time>2014-10-02T06:48:16Z</time>
      </trkpt>
      <trkpt lat="42.4402020" lon="-7.3091380">
        <ele>746.2</ele>
        <time>2014-10-02T06:48:17Z</time>
      </trkpt>
      <trkpt lat="42.4402120" lon="-7.3091720">
        <ele>746.5</ele>
        <time>2014-10-02T06:48:18Z</time>
      </trkpt>
      <trkpt lat="42.4402370" lon="-7.3092340">
        <ele>747.0</ele>
        <time>2014-10-02T06:48:20Z</time>
      </trkpt>
      <trkpt lat="42.4402580" lon="-7.3092940">
        <ele>747.5</ele>
        <time>2014-10-02T06:48:22Z</time>
      </trkpt>
      <trkpt lat="42.4402760" lon="-7.3093570">
        <ele>748.0</ele>
        <time>2014-10-02T06:48:24Z</time>
      </trkpt>
      <trkpt lat="42.4402960" lon="-7.3094160">
        <ele>748.5</ele>
        <time>2014-10-02T06:48:26Z</time>
      </trkpt>
      <trkpt lat="42.4403170" lon="-7.3094830">
        <ele>749.0</ele>
        <time>2014-10-02T06:48:28Z</time>
      </trkpt>
      <trkpt lat="42.4403270" lon="-7.3095170">
        <ele>749.3</ele>
        <time>2014-10-02T06:48:29Z</time>
      </trkpt>
      <trkpt lat="42.4403410" lon="-7.3095820">
        <ele>749.8</ele>
        <time>2014-10-02T06:48:31Z</time>
      </trkpt>
      <trkpt lat="42.4403550" lon="-7.3096500">
        <ele>750.3</ele>
        <time>2014-10-02T06:48:33Z</time>
      </trkpt>
      <trkpt lat="42.4403700" lon="-7.3097190">
        <ele>750.8</ele>
        <time>2014-10-02T06:48:35Z</time>
      </trkpt>
      <trkpt lat="42.4403780" lon="-7.3097870">
        <ele>751.3</ele>
        <time>2014-10-02T06:48:37Z</time>
      </trkpt>
      <trkpt lat="42.4403850" lon="-7.3098510">
        <ele>751.8</ele>
        <time>2014-10-02T06:48:39Z</time>
      </trkpt>
      <trkpt lat="42.4403920" lon="-7.3099160">
        <ele>752.3</ele>
        <time>2014-10-02T06:48:41Z</time>
      </trkpt>
      <trkpt lat="42.4404020" lon="-7.3099720">
        <ele>752.7</ele>
        <time>2014-10-02T06:48:43Z</time>
      </trkpt>
      <trkpt lat="42.4404140" lon="-7.3100390">
        <ele>753.2</ele>
        <time>2014-10-02T06:48:45Z</time>
      </trkpt>
      <trkpt lat="42.4404190" lon="-7.3100790">
        <ele>753.5</ele>
        <time>2014-10-02T06:48:46Z</time>
      </trkpt>
      <trkpt lat="42.4404240" lon="-7.3101180">
        <ele>753.8</ele>
        <time>2014-10-02T06:48:47Z</time>
      </trkpt>
      <trkpt lat="42.4404260" lon="-7.3101550">
        <ele>754.0</ele>
        <time>2014-10-02T06:48:48Z</time>
      </trkpt>
      <trkpt lat="42.4404340" lon="-7.3101940">
        <ele>754.3</ele>
        <time>2014-10-02T06:48:49Z</time>
      </trkpt>
      <trkpt lat="42.4404400" lon="-7.3102320">
        <ele>754.6</ele>
        <time>2014-10-02T06:48:50Z</time>
      </trkpt>
      <trkpt lat="42.4404530" lon="-7.3103050">
        <ele>755.1</ele>
        <time>2014-10-02T06:48:52Z</time>
      </trkpt>
      <trkpt lat="42.4404710" lon="-7.3103740">
        <ele>755.7</ele>
        <time>2014-10-02T06:48:54Z</time>
      </trkpt>
      <trkpt lat="42.4404870" lon="-7.3104430">
        <ele>756.2</ele>
        <time>2014-10-02T06:48:56Z</time>
      </trkpt>
      <trkpt lat="42.4405000" lon="-7.3105090">
        <ele>756.6</ele>
        <time>2014-10-02T06:48:58Z</time>
      </trkpt>
      <trkpt lat="42.4405150" lon="-7.3105770">
        <ele>757.1</ele>
        <time>2014-10-02T06:49:00Z</time>
      </trkpt>
      <trkpt lat="42.4405330" lon="-7.3106390">
        <ele>757.6</ele>
        <time>2014-10-02T06:49:02Z</time>
      </trkpt>
      <trkpt lat="42.4405540" lon="-7.3106930">
        <ele>758.0</ele>
        <time>2014-10-02T06:49:04Z</time>
      </trkpt>
      <trkpt lat="42.4405800" lon="-7.3107560">
        <ele>758.5</ele>
        <time>2014-10-02T06:49:06Z</time>
      </trkpt>
      <trkpt lat="42.4405900" lon="-7.3107910">
        <ele>758.8</ele>
        <time>2014-10-02T06:49:07Z</time>
      </trkpt>
      <trkpt lat="42.4406070" lon="-7.3108570">
        <ele>759.3</ele>
        <time>2014-10-02T06:49:09Z</time>
      </trkpt>
      <trkpt lat="42.4406210" lon="-7.3109230">
        <ele>759.8</ele>
        <time>2014-10-02T06:49:11Z</time>
      </trkpt>
      <trkpt lat="42.4406300" lon="-7.3109880">
        <ele>760.2</ele>
        <time>2014-10-02T06:49:13Z</time>
      </trkpt>
      <trkpt lat="42.4406220" lon="-7.3110590">
        <ele>760.7</ele>
        <time>2014-10-02T06:49:15Z</time>
      </trkpt>
      <trkpt lat="42.4406130" lon="-7.3111200">
        <ele>761.4</ele>
        <time>2014-10-02T06:49:17Z</time>
      </trkpt>
      <trkpt lat="42.4405970" lon="-7.3111880">
        <ele>762.0</ele>
        <time>2014-10-02T06:49:19Z</time>
      </trkpt>
      <trkpt lat="42.4405710" lon="-7.3112450">
        <ele>762.5</ele>
        <time>2014-10-02T06:49:21Z</time>
      </trkpt>
      <trkpt lat="42.4405370" lon="-7.3112850">
        <ele>763.0</ele>
        <time>2014-10-02T06:49:23Z</time>
      </trkpt>
      <trkpt lat="42.4404890" lon="-7.3113190">
        <ele>763.6</ele>
        <time>2014-10-02T06:49:25Z</time>
      </trkpt>
      <trkpt lat="42.4404630" lon="-7.3113320">
        <ele>763.9</ele>
        <time>2014-10-02T06:49:26Z</time>
      </trkpt>
      <trkpt lat="42.4404360" lon="-7.3113430">
        <ele>764.2</ele>
        <time>2014-10-02T06:49:27Z</time>
      </trkpt>
      <trkpt lat="42.4404080" lon="-7.3113540">
        <ele>764.5</ele>
        <time>2014-10-02T06:49:28Z</time>
      </trkpt>
      <trkpt lat="42.4403810" lon="-7.3113640">
        <ele>764.8</ele>
        <time>2014-10-02T06:49:29Z</time>
      </trkpt>
      <trkpt lat="42.4403560" lon="-7.3113770">
        <ele>765.1</ele>
        <time>2014-10-02T06:49:30Z</time>
      </trkpt>
      <trkpt lat="42.4403290" lon="-7.3113900">
        <ele>765.4</ele>
        <time>2014-10-02T06:49:31Z</time>
      </trkpt>
      <trkpt lat="42.4403020" lon="-7.3114030">
        <ele>765.7</ele>
        <time>2014-10-02T06:49:32Z</time>
      </trkpt>
      <trkpt lat="42.4402510" lon="-7.3114250">
        <ele>766.2</ele>
        <time>2014-10-02T06:49:34Z</time>
      </trkpt>
      <trkpt lat="42.4402020" lon="-7.3114400">
        <ele>766.7</ele>
        <time>2014-10-02T06:49:36Z</time>
      </trkpt>
      <trkpt lat="42.4401540" lon="-7.3114500">
        <ele>767.2</ele>
        <time>2014-10-02T06:49:38Z</time>
      </trkpt>
      <trkpt lat="42.4401030" lon="-7.3114590">
        <ele>767.8</ele>
        <time>2014-10-02T06:49:40Z</time>
      </trkpt>
      <trkpt lat="42.4400570" lon="-7.3114700">
        <ele>768.3</ele>
        <time>2014-10-02T06:49:42Z</time>
      </trkpt>
      <trkpt lat="42.4400080" lon="-7.3114820">
        <ele>768.8</ele>
        <time>2014-10-02T06:49:44Z</time>
      </trkpt>
      <trkpt lat="42.4399610" lon="-7.3114910">
        <ele>769.3</ele>
        <time>2014-10-02T06:49:46Z</time>
      </trkpt>
      <trkpt lat="42.4399110" lon="-7.3115000">
        <ele>769.9</ele>
        <time>2014-10-02T06:49:48Z</time>
      </trkpt>
      <trkpt lat="42.4398600" lon="-7.3115020">
        <ele>770.4</ele>
        <time>2014-10-02T06:49:50Z</time>
      </trkpt>
      <trkpt lat="42.4398090" lon="-7.3115030">
        <ele>771.0</ele>
        <time>2014-10-02T06:49:52Z</time>
      </trkpt>
      <trkpt lat="42.4397590" lon="-7.3114930">
        <ele>771.5</ele>
        <time>2014-10-02T06:49:54Z</time>
      </trkpt>
      <trkpt lat="42.4397100" lon="-7.3114800">
        <ele>772.0</ele>
        <time>2014-10-02T06:49:56Z</time>
      </trkpt>
      <trkpt lat="42.4396830" lon="-7.3114740">
        <ele>772.3</ele>
        <time>2014-10-02T06:49:57Z</time>
      </trkpt>
      <trkpt lat="42.4396560" lon="-7.3114670">
        <ele>772.6</ele>
        <time>2014-10-02T06:49:58Z</time>
      </trkpt>
      <trkpt lat="42.4396030" lon="-7.3114510">
        <ele>773.2</ele>
        <time>2014-10-02T06:50:00Z</time>
      </trkpt>
      <trkpt lat="42.4395510" lon="-7.3114390">
        <ele>773.7</ele>
        <time>2014-10-02T06:50:02Z</time>
      </trkpt>
      <trkpt lat="42.4395000" lon="-7.3114230">
        <ele>774.3</ele>
        <time>2014-10-02T06:50:04Z</time>
      </trkpt>
      <trkpt lat="42.4394530" lon="-7.3114050">
        <ele>774.8</ele>
        <time>2014-10-02T06:50:06Z</time>
      </trkpt>
      <trkpt lat="42.4394010" lon="-7.3113930">
        <ele>775.3</ele>
        <time>2014-10-02T06:50:08Z</time>
      </trkpt>
      <trkpt lat="42.4393560" lon="-7.3113840">
        <ele>775.8</ele>
        <time>2014-10-02T06:50:10Z</time>
      </trkpt>
      <trkpt lat="42.4393070" lon="-7.3113680">
        <ele>776.4</ele>
        <time>2014-10-02T06:50:12Z</time>
      </trkpt>
      <trkpt lat="42.4392640" lon="-7.3113550">
        <ele>776.9</ele>
        <time>2014-10-02T06:50:14Z</time>
      </trkpt>
      <trkpt lat="42.4392140" lon="-7.3113400">
        <ele>777.5</ele>
        <time>2014-10-02T06:50:16Z</time>
      </trkpt>
      <trkpt lat="42.4391630" lon="-7.3113290">
        <ele>778.1</ele>
        <time>2014-10-02T06:50:18Z</time>
      </trkpt>
      <trkpt lat="42.4391190" lon="-7.3113190">
        <ele>778.6</ele>
        <time>2014-10-02T06:50:20Z</time>
      </trkpt>
      <trkpt lat="42.4390820" lon="-7.3113080">
        <ele>779.0</ele>
        <time>2014-10-02T06:50:22Z</time>
      </trkpt>
      <trkpt lat="42.4390560" lon="-7.3112970">
        <ele>779.3</ele>
        <time>2014-10-02T06:50:23Z</time>
      </trkpt>
      <trkpt lat="42.4390260" lon="-7.3112860">
        <ele>779.6</ele>
        <time>2014-10-02T06:50:24Z</time>
      </trkpt>
      <trkpt lat="42.4390000" lon="-7.3112730">
        <ele>779.9</ele>
        <time>2014-10-02T06:50:25Z</time>
      </trkpt>
      <trkpt lat="42.4389740" lon="-7.3112630">
        <ele>780.2</ele>
        <time>2014-10-02T06:50:26Z</time>
      </trkpt>
      <trkpt lat="42.4389470" lon="-7.3112530">
        <ele>780.5</ele>
        <time>2014-10-02T06:50:27Z</time>
      </trkpt>
      <trkpt lat="42.4389180" lon="-7.3112470">
        <ele>780.8</ele>
        <time>2014-10-02T06:50:28Z</time>
      </trkpt>
      <trkpt lat="42.4388660" lon="-7.3112330">
        <ele>781.4</ele>
        <time>2014-10-02T06:50:30Z</time>
      </trkpt>
      <trkpt lat="42.4388190" lon="-7.3112170">
        <ele>781.9</ele>
        <time>2014-10-02T06:50:32Z</time>
      </trkpt>
      <trkpt lat="42.4387670" lon="-7.3112050">
        <ele>782.5</ele>
        <time>2014-10-02T06:50:34Z</time>
      </trkpt>
      <trkpt lat="42.4387170" lon="-7.3112000">
        <ele>783.1</ele>
        <time>2014-10-02T06:50:36Z</time>
      </trkpt>
      <trkpt lat="42.4386690" lon="-7.3112000">
        <ele>783.6</ele>
        <time>2014-10-02T06:50:38Z</time>
      </trkpt>
      <trkpt lat="42.4386210" lon="-7.3112030">
        <ele>784.1</ele>
        <time>2014-10-02T06:50:40Z</time>
      </trkpt>
      <trkpt lat="42.4385700" lon="-7.3112010">
        <ele>784.7</ele>
        <time>2014-10-02T06:50:42Z</time>
      </trkpt>
      <trkpt lat="42.4385200" lon="-7.3112030">
        <ele>785.3</ele>
        <time>2014-10-02T06:50:44Z</time>
      </trkpt>
      <trkpt lat="42.4384760" lon="-7.3111970">
        <ele>785.8</ele>
        <time>2014-10-02T06:50:46Z</time>
      </trkpt>
      <trkpt lat="42.4384400" lon="-7.3111970">
        <ele>786.2</ele>
        <time>2014-10-02T06:50:48Z</time>
      </trkpt>
      <trkpt lat="42.4383940" lon="-7.3111890">
        <ele>786.7</ele>
        <time>2014-10-02T06:50:50Z</time>
      </trkpt>
      <trkpt lat="42.4383510" lon="-7.3111960">
        <ele>787.2</ele>
        <time>2014-10-02T06:50:52Z</time>
      </trkpt>
      <trkpt lat="42.4382990" lon="-7.3111990">
        <ele>787.8</ele>
        <time>2014-10-02T06:50:54Z</time>
      </trkpt>
      <trkpt lat="42.4382710" lon="-7.3112030">
        <ele>788.1</ele>
        <time>2014-10-02T06:50:55Z</time>
      </trkpt>
      <trkpt lat="42.4382240" lon="-7.3112060">
        <ele>788.7</ele>
        <time>2014-10-02T06:50:57Z</time>
      </trkpt>
      <trkpt lat="42.4381800" lon="-7.3112080">
        <ele>789.2</ele>
        <time>2014-10-02T06:50:59Z</time>
      </trkpt>
      <trkpt lat="42.4381310" lon="-7.3112080">
        <ele>789.7</ele>
        <time>2014-10-02T06:51:01Z</time>
      </trkpt>
      <trkpt lat="42.4380860" lon="-7.3112090">
        <ele>790.2</ele>
        <time>2014-10-02T06:51:03Z</time>
      </trkpt>
      <trkpt lat="42.4380400" lon="-7.3112090">
        <ele>790.8</ele>
        <time>2014-10-02T06:51:05Z</time>
      </trkpt>
      <trkpt lat="42.4379920" lon="-7.3112070">
        <ele>791.3</ele>
        <time>2014-10-02T06:51:07Z</time>
      </trkpt>
      <trkpt lat="42.4379430" lon="-7.3112090">
        <ele>791.9</ele>
        <time>2014-10-02T06:51:09Z</time>
      </trkpt>
      <trkpt lat="42.4378980" lon="-7.3112080">
        <ele>792.4</ele>
        <time>2014-10-02T06:51:11Z</time>
      </trkpt>
      <trkpt lat="42.4378520" lon="-7.3112070">
        <ele>792.9</ele>
        <time>2014-10-02T06:51:13Z</time>
      </trkpt>
      <trkpt lat="42.4378090" lon="-7.3112060">
        <ele>793.4</ele>
        <time>2014-10-02T06:51:15Z</time>
      </trkpt>
      <trkpt lat="42.4377610" lon="-7.3112080">
        <ele>794.0</ele>
        <time>2014-10-02T06:51:17Z</time>
      </trkpt>
      <trkpt lat="42.4377130" lon="-7.3112110">
        <ele>794.5</ele>
        <time>2014-10-02T06:51:19Z</time>
      </trkpt>
      <trkpt lat="42.4376620" lon="-7.3112200">
        <ele>795.1</ele>
        <time>2014-10-02T06:51:21Z</time>
      </trkpt>
      <trkpt lat="42.4376170" lon="-7.3112240">
        <ele>795.6</ele>
        <time>2014-10-02T06:51:23Z</time>
      </trkpt>
      <trkpt lat="42.4375690" lon="-7.3112340">
        <ele>796.2</ele>
        <time>2014-10-02T06:51:25Z</time>
      </trkpt>
      <trkpt lat="42.4375250" lon="-7.3112450">
        <ele>796.7</ele>
        <time>2014-10-02T06:51:27Z</time>
      </trkpt>
      <trkpt lat="42.4374770" lon="-7.3112580">
        <ele>797.3</ele>
        <time>2014-10-02T06:51:29Z</time>
      </trkpt>
      <trkpt lat="42.4374320" lon="-7.3112640">
        <ele>797.8</ele>
        <time>2014-10-02T06:51:31Z</time>
      </trkpt>
      <trkpt lat="42.4373860" lon="-7.3112680">
        <ele>798.3</ele>
        <time>2014-10-02T06:51:33Z</time>
      </trkpt>
      <trkpt lat="42.4373470" lon="-7.3112790">
        <ele>798.8</ele>
        <time>2014-10-02T06:51:35Z</time>
      </trkpt>
      <trkpt lat="42.4373120" lon="-7.3112780">
        <ele>799.2</ele>
        <time>2014-10-02T06:51:37Z</time>
      </trkpt>
      <trkpt lat="42.4372710" lon="-7.3112780">
        <ele>799.7</ele>
        <time>2014-10-02T06:51:39Z</time>
      </trkpt>
      <trkpt lat="42.4372300" lon="-7.3112810">
        <ele>800.2</ele>
        <time>2014-10-02T06:51:41Z</time>
      </trkpt>
      <trkpt lat="42.4371840" lon="-7.3112770">
        <ele>800.7</ele>
        <time>2014-10-02T06:51:43Z</time>
      </trkpt>
      <trkpt lat="42.4371400" lon="-7.3112740">
        <ele>801.2</ele>
        <time>2014-10-02T06:51:45Z</time>
      </trkpt>
      <trkpt lat="42.4370910" lon="-7.3112690">
        <ele>801.8</ele>
        <time>2014-10-02T06:51:47Z</time>
      </trkpt>
      <trkpt lat="42.4370450" lon="-7.3112680">
        <ele>802.3</ele>
        <time>2014-10-02T06:51:49Z</time>
      </trkpt>
      <trkpt lat="42.4370180" lon="-7.3112680">
        <ele>802.7</ele>
        <time>2014-10-02T06:51:50Z</time>
      </trkpt>
      <trkpt lat="42.4369700" lon="-7.3112690">
        <ele>803.2</ele>
        <time>2014-10-02T06:51:52Z</time>
      </trkpt>
      <trkpt lat="42.4369430" lon="-7.3112690">
        <ele>803.6</ele>
        <time>2014-10-02T06:51:53Z</time>
      </trkpt>
      <trkpt lat="42.4369140" lon="-7.3112680">
        <ele>803.9</ele>
        <time>2014-10-02T06:51:54Z</time>
      </trkpt>
      <trkpt lat="42.4368860" lon="-7.3112700">
        <ele>804.2</ele>
        <time>2014-10-02T06:51:55Z</time>
      </trkpt>
      <trkpt lat="42.4368580" lon="-7.3112710">
        <ele>804.5</ele>
        <time>2014-10-02T06:51:56Z</time>
      </trkpt>
      <trkpt lat="42.4368030" lon="-7.3112770">
        <ele>805.2</ele>
        <time>2014-10-02T06:51:58Z</time>
      </trkpt>
      <trkpt lat="42.4367760" lon="-7.3112840">
        <ele>805.5</ele>
        <time>2014-10-02T06:51:59Z</time>
      </trkpt>
      <trkpt lat="42.4367310" lon="-7.3112980">
        <ele>806.0</ele>
        <time>2014-10-02T06:52:01Z</time>
      </trkpt>
      <trkpt lat="42.4366830" lon="-7.3113110">
        <ele>806.6</ele>
        <time>2014-10-02T06:52:03Z</time>
      </trkpt>
      <trkpt lat="42.4366340" lon="-7.3113240">
        <ele>807.2</ele>
        <time>2014-10-02T06:52:05Z</time>
      </trkpt>
      <trkpt lat="42.4365890" lon="-7.3113300">
        <ele>807.7</ele>
        <time>2014-10-02T06:52:07Z</time>
      </trkpt>
      <trkpt lat="42.4365500" lon="-7.3113320">
        <ele>808.2</ele>
        <time>2014-10-02T06:52:09Z</time>
      </trkpt>
      <trkpt lat="42.4365080" lon="-7.3113300">
        <ele>808.7</ele>
        <time>2014-10-02T06:52:11Z</time>
      </trkpt>
      <trkpt lat="42.4364610" lon="-7.3113260">
        <ele>809.2</ele>
        <time>2014-10-02T06:52:13Z</time>
      </trkpt>
      <trkpt lat="42.4364250" lon="-7.3113070">
        <ele>809.7</ele>
        <time>2014-10-02T06:52:15Z</time>
      </trkpt>
      <trkpt lat="42.4363860" lon="-7.3112970">
        <ele>810.1</ele>
        <time>2014-10-02T06:52:17Z</time>
      </trkpt>
      <trkpt lat="42.4363450" lon="-7.3112940">
        <ele>810.6</ele>
        <time>2014-10-02T06:52:19Z</time>
      </trkpt>
      <trkpt lat="42.4363030" lon="-7.3112810">
        <ele>811.1</ele>
        <time>2014-10-02T06:52:21Z</time>
      </trkpt>
      <trkpt lat="42.4362650" lon="-7.3112700">
        <ele>811.6</ele>
        <time>2014-10-02T06:52:23Z</time>
      </trkpt>
      <trkpt lat="42.4362240" lon="-7.3112690">
        <ele>812.1</ele>
        <time>2014-10-02T06:52:25Z</time>
      </trkpt>
      <trkpt lat="42.4361730" lon="-7.3112600">
        <ele>812.7</ele>
        <time>2014-10-02T06:52:27Z</time>
      </trkpt>
      <trkpt lat="42.4361250" lon="-7.3112480">
        <ele>813.3</ele>
        <time>2014-10-02T06:52:29Z</time>
      </trkpt>
      <trkpt lat="42.4360800" lon="-7.3112320">
        <ele>813.8</ele>
        <time>2014-10-02T06:52:31Z</time>
      </trkpt>
      <trkpt lat="42.4360300" lon="-7.3112230">
        <ele>814.4</ele>
        <time>2014-10-02T06:52:33Z</time>
      </trkpt>
      <trkpt lat="42.4359810" lon="-7.3112120">
        <ele>815.0</ele>
        <time>2014-10-02T06:52:35Z</time>
      </trkpt>
      <trkpt lat="42.4359530" lon="-7.3112120">
        <ele>815.3</ele>
        <time>2014-10-02T06:52:36Z</time>
      </trkpt>
      <trkpt lat="42.4359030" lon="-7.3112020">
        <ele>815.9</ele>
        <time>2014-10-02T06:52:38Z</time>
      </trkpt>
      <trkpt lat="42.4358580" lon="-7.3111880">
        <ele>816.4</ele>
        <time>2014-10-02T06:52:40Z</time>
      </trkpt>
      <trkpt lat="42.4358090" lon="-7.3111920">
        <ele>817.0</ele>
        <time>2014-10-02T06:52:42Z</time>
      </trkpt>
      <trkpt lat="42.4357690" lon="-7.3111840">
        <ele>817.4</ele>
        <time>2014-10-02T06:52:44Z</time>
      </trkpt>
      <trkpt lat="42.4357250" lon="-7.3111710">
        <ele>817.9</ele>
        <time>2014-10-02T06:52:46Z</time>
      </trkpt>
      <trkpt lat="42.4356830" lon="-7.3111410">
        <ele>818.4</ele>
        <time>2014-10-02T06:52:48Z</time>
      </trkpt>
      <trkpt lat="42.4356430" lon="-7.3111070">
        <ele>818.9</ele>
        <time>2014-10-02T06:52:50Z</time>
      </trkpt>
      <trkpt lat="42.4355920" lon="-7.3110980">
        <ele>819.4</ele>
        <time>2014-10-02T06:52:52Z</time>
      </trkpt>
      <trkpt lat="42.4355640" lon="-7.3110990">
        <ele>819.8</ele>
        <time>2014-10-02T06:52:53Z</time>
      </trkpt>
      <trkpt lat="42.4355360" lon="-7.3111060">
        <ele>820.1</ele>
        <time>2014-10-02T06:52:54Z</time>
      </trkpt>
      <trkpt lat="42.4355050" lon="-7.3111140">
        <ele>820.4</ele>
        <time>2014-10-02T06:52:55Z</time>
      </trkpt>
      <trkpt lat="42.4354750" lon="-7.3111220">
        <ele>820.7</ele>
        <time>2014-10-02T06:52:56Z</time>
      </trkpt>
      <trkpt lat="42.4354470" lon="-7.3111280">
        <ele>821.0</ele>
        <time>2014-10-02T06:52:57Z</time>
      </trkpt>
      <trkpt lat="42.4354200" lon="-7.3111290">
        <ele>821.3</ele>
        <time>2014-10-02T06:52:58Z</time>
      </trkpt>
      <trkpt lat="42.4353710" lon="-7.3111300">
        <ele>821.8</ele>
        <time>2014-10-02T06:53:00Z</time>
      </trkpt>
      <trkpt lat="42.4353200" lon="-7.3111250">
        <ele>822.4</ele>
        <time>2014-10-02T06:53:02Z</time>
      </trkpt>
      <trkpt lat="42.4352690" lon="-7.3111230">
        <ele>823.0</ele>
        <time>2014-10-02T06:53:04Z</time>
      </trkpt>
      <trkpt lat="42.4352260" lon="-7.3111150">
        <ele>823.4</ele>
        <time>2014-10-02T06:53:06Z</time>
      </trkpt>
      <trkpt lat="42.4351820" lon="-7.3111020">
        <ele>823.9</ele>
        <time>2014-10-02T06:53:08Z</time>
      </trkpt>
      <trkpt lat="42.4351380" lon="-7.3110840">
        <ele>824.4</ele>
        <time>2014-10-02T06:53:10Z</time>
      </trkpt>
      <trkpt lat="42.4350930" lon="-7.3110660">
        <ele>825.0</ele>
        <time>2014-10-02T06:53:12Z</time>
      </trkpt>
      <trkpt lat="42.4350440" lon="-7.3110450">
        <ele>825.5</ele>
        <time>2014-10-02T06:53:14Z</time>
      </trkpt>
      <trkpt lat="42.4349960" lon="-7.3110280">
        <ele>826.1</ele>
        <time>2014-10-02T06:53:16Z</time>
      </trkpt>
      <trkpt lat="42.4349460" lon="-7.3110150">
        <ele>826.6</ele>
        <time>2014-10-02T06:53:18Z</time>
      </trkpt>
      <trkpt lat="42.4349000" lon="-7.3109970">
        <ele>827.2</ele>
        <time>2014-10-02T06:53:20Z</time>
      </trkpt>
      <trkpt lat="42.4348570" lon="-7.3109790">
        <ele>827.7</ele>
        <time>2014-10-02T06:53:22Z</time>
      </trkpt>
      <trkpt lat="42.4348170" lon="-7.3109610">
        <ele>828.1</ele>
        <time>2014-10-02T06:53:24Z</time>
      </trkpt>
      <trkpt lat="42.4347760" lon="-7.3109480">
        <ele>828.6</ele>
        <time>2014-10-02T06:53:26Z</time>
      </trkpt>
      <trkpt lat="42.4347330" lon="-7.3109330">
        <ele>829.1</ele>
        <time>2014-10-02T06:53:28Z</time>
      </trkpt>
      <trkpt lat="42.4346910" lon="-7.3109130">
        <ele>829.6</ele>
        <time>2014-10-02T06:53:30Z</time>
      </trkpt>
      <trkpt lat="42.4346510" lon="-7.3108920">
        <ele>830.0</ele>
        <time>2014-10-02T06:53:32Z</time>
      </trkpt>
      <trkpt lat="42.4346100" lon="-7.3108630">
        <ele>830.6</ele>
        <time>2014-10-02T06:53:34Z</time>
      </trkpt>
      <trkpt lat="42.4345680" lon="-7.3108380">
        <ele>831.1</ele>
        <time>2014-10-02T06:53:36Z</time>
      </trkpt>
      <trkpt lat="42.4345230" lon="-7.3108000">
        <ele>831.7</ele>
        <time>2014-10-02T06:53:38Z</time>
      </trkpt>
      <trkpt lat="42.4344830" lon="-7.3107640">
        <ele>832.2</ele>
        <time>2014-10-02T06:53:40Z</time>
      </trkpt>
      <trkpt lat="42.4344420" lon="-7.3107440">
        <ele>832.7</ele>
        <time>2014-10-02T06:53:42Z</time>
      </trkpt>
      <trkpt lat="42.4344170" lon="-7.3107280">
        <ele>833.0</ele>
        <time>2014-10-02T06:53:43Z</time>
      </trkpt>
      <trkpt lat="42.4343780" lon="-7.3106990">
        <ele>833.5</ele>
        <time>2014-10-02T06:53:45Z</time>
      </trkpt>
      <trkpt lat="42.4343320" lon="-7.3106720">
        <ele>834.0</ele>
        <time>2014-10-02T06:53:47Z</time>
      </trkpt>
      <trkpt lat="42.4342820" lon="-7.3106450">
        <ele>834.7</ele>
        <time>2014-10-02T06:53:49Z</time>
      </trkpt>
      <trkpt lat="42.4342340" lon="-7.3106180">
        <ele>835.2</ele>
        <time>2014-10-02T06:53:51Z</time>
      </trkpt>
      <trkpt lat="42.4341960" lon="-7.3105890">
        <ele>835.7</ele>
        <time>2014-10-02T06:53:53Z</time>
      </trkpt>
      <trkpt lat="42.4341540" lon="-7.3105600">
        <ele>836.2</ele>
        <time>2014-10-02T06:53:55Z</time>
      </trkpt>
      <trkpt lat="42.4341130" lon="-7.3105370">
        <ele>836.7</ele>
        <time>2014-10-02T06:53:57Z</time>
      </trkpt>
      <trkpt lat="42.4340660" lon="-7.3105190">
        <ele>837.3</ele>
        <time>2014-10-02T06:53:59Z</time>
      </trkpt>
      <trkpt lat="42.4340280" lon="-7.3104900">
        <ele>837.7</ele>
        <time>2014-10-02T06:54:01Z</time>
      </trkpt>
      <trkpt lat="42.4339870" lon="-7.3104590">
        <ele>838.3</ele>
        <time>2014-10-02T06:54:03Z</time>
      </trkpt>
      <trkpt lat="42.4339470" lon="-7.3104360">
        <ele>838.7</ele>
        <time>2014-10-02T06:54:05Z</time>
      </trkpt>
      <trkpt lat="42.4339060" lon="-7.3104070">
        <ele>839.3</ele>
        <time>2014-10-02T06:54:07Z</time>
      </trkpt>
      <trkpt lat="42.4338630" lon="-7.3103790">
        <ele>839.8</ele>
        <time>2014-10-02T06:54:09Z</time>
      </trkpt>
      <trkpt lat="42.4338170" lon="-7.3103550">
        <ele>840.3</ele>
        <time>2014-10-02T06:54:11Z</time>
      </trkpt>
      <trkpt lat="42.4337750" lon="-7.3103170">
        <ele>840.9</ele>
        <time>2014-10-02T06:54:13Z</time>
      </trkpt>
      <trkpt lat="42.4337270" lon="-7.3103000">
        <ele>841.5</ele>
        <time>2014-10-02T06:54:15Z</time>
      </trkpt>
      <trkpt lat="42.4336850" lon="-7.3102810">
        <ele>842.0</ele>
        <time>2014-10-02T06:54:17Z</time>
      </trkpt>
      <trkpt lat="42.4336420" lon="-7.3102710">
        <ele>842.5</ele>
        <time>2014-10-02T06:54:19Z</time>
      </trkpt>
      <trkpt lat="42.4335970" lon="-7.3102540">
        <ele>843.0</ele>
        <time>2014-10-02T06:54:21Z</time>
      </trkpt>
      <trkpt lat="42.4335500" lon="-7.3102350">
        <ele>843.6</ele>
        <time>2014-10-02T06:54:23Z</time>
      </trkpt>
      <trkpt lat="42.4334980" lon="-7.3102320">
        <ele>844.2</ele>
        <time>2014-10-02T06:54:25Z</time>
      </trkpt>
      <trkpt lat="42.4334600" lon="-7.3102130">
        <ele>844.7</ele>
        <time>2014-10-02T06:54:27Z</time>
      </trkpt>
      <trkpt lat="42.4334190" lon="-7.3102090">
        <ele>845.1</ele>
        <time>2014-10-02T06:54:29Z</time>
      </trkpt>
      <trkpt lat="42.4333660" lon="-7.3102070">
        <ele>845.7</ele>
        <time>2014-10-02T06:54:31Z</time>
      </trkpt>
      <trkpt lat="42.4333080" lon="-7.3102040">
        <ele>846.4</ele>
        <time>2014-10-02T06:54:33Z</time>
      </trkpt>
      <trkpt lat="42.4332570" lon="-7.3102030">
        <ele>847.0</ele>
        <time>2014-10-02T06:54:35Z</time>
      </trkpt>
      <trkpt lat="42.4332280" lon="-7.3102010">
        <ele>847.4</ele>
        <time>2014-10-02T06:54:36Z</time>
      </trkpt>
      <trkpt lat="42.4332010" lon="-7.3101970">
        <ele>847.7</ele>
        <time>2014-10-02T06:54:37Z</time>
      </trkpt>
      <trkpt lat="42.4331600" lon="-7.3101880">
        <ele>848.2</ele>
        <time>2014-10-02T06:54:39Z</time>
      </trkpt>
      <trkpt lat="42.4331110" lon="-7.3101930">
        <ele>848.7</ele>
        <time>2014-10-02T06:54:41Z</time>
      </trkpt>
      <trkpt lat="42.4330600" lon="-7.3101950">
        <ele>849.3</ele>
        <time>2014-10-02T06:54:43Z</time>
      </trkpt>
      <trkpt lat="42.4330110" lon="-7.3101910">
        <ele>849.9</ele>
        <time>2014-10-02T06:54:45Z</time>
      </trkpt>
      <trkpt lat="42.4329600" lon="-7.3101980">
        <ele>850.5</ele>
        <time>2014-10-02T06:54:47Z</time>
      </trkpt>
      <trkpt lat="42.4329320" lon="-7.3102080">
        <ele>850.8</ele>
        <time>2014-10-02T06:54:48Z</time>
      </trkpt>
      <trkpt lat="42.4329030" lon="-7.3102240">
        <ele>851.2</ele>
        <time>2014-10-02T06:54:49Z</time>
      </trkpt>
      <trkpt lat="42.4328730" lon="-7.3102420">
        <ele>851.6</ele>
        <time>2014-10-02T06:54:50Z</time>
      </trkpt>
      <trkpt lat="42.4328270" lon="-7.3102620">
        <ele>852.1</ele>
        <time>2014-10-02T06:54:52Z</time>
      </trkpt>
      <trkpt lat="42.4327810" lon="-7.3102740">
        <ele>852.7</ele>
        <time>2014-10-02T06:54:54Z</time>
      </trkpt>
      <trkpt lat="42.4327340" lon="-7.3102820">
        <ele>853.2</ele>
        <time>2014-10-02T06:54:56Z</time>
      </trkpt>
      <trkpt lat="42.4326880" lon="-7.3102860">
        <ele>853.7</ele>
        <time>2014-10-02T06:54:58Z</time>
      </trkpt>
      <trkpt lat="42.4326480" lon="-7.3102830">
        <ele>854.2</ele>
        <time>2014-10-02T06:55:00Z</time>
      </trkpt>
      <trkpt lat="42.4326070" lon="-7.3102720">
        <ele>854.6</ele>
        <time>2014-10-02T06:55:02Z</time>
      </trkpt>
      <trkpt lat="42.4325670" lon="-7.3102630">
        <ele>855.1</ele>
        <time>2014-10-02T06:55:04Z</time>
      </trkpt>
      <trkpt lat="42.4325150" lon="-7.3102540">
        <ele>855.7</ele>
        <time>2014-10-02T06:55:06Z</time>
      </trkpt>
      <trkpt lat="42.4324640" lon="-7.3102520">
        <ele>856.2</ele>
        <time>2014-10-02T06:55:08Z</time>
      </trkpt>
      <trkpt lat="42.4324170" lon="-7.3102460">
        <ele>856.7</ele>
        <time>2014-10-02T06:55:10Z</time>
      </trkpt>
      <trkpt lat="42.4323690" lon="-7.3102390">
        <ele>857.3</ele>
        <time>2014-10-02T06:55:12Z</time>
      </trkpt>
      <trkpt lat="42.4323210" lon="-7.3102380">
        <ele>857.8</ele>
        <time>2014-10-02T06:55:14Z</time>
      </trkpt>
      <trkpt lat="42.4322700" lon="-7.3102520">
        <ele>858.3</ele>
        <time>2014-10-02T06:55:16Z</time>
      </trkpt>
      <trkpt lat="42.4322180" lon="-7.3102700">
        <ele>858.9</ele>
        <time>2014-10-02T06:55:18Z</time>
      </trkpt>
      <trkpt lat="42.4321730" lon="-7.3102730">
        <ele>859.4</ele>
        <time>2014-10-02T06:55:20Z</time>
      </trkpt>
      <trkpt lat="42.4321350" lon="-7.3102780">
        <ele>859.8</ele>
        <time>2014-10-02T06:55:22Z</time>
      </trkpt>
      <trkpt lat="42.4320960" lon="-7.3102780">
        <ele>860.2</ele>
        <time>2014-10-02T06:55:24Z</time>
      </trkpt>
      <trkpt lat="42.4320460" lon="-7.3102810">
        <ele>860.8</ele>
        <time>2014-10-02T06:55:26Z</time>
      </trkpt>
      <trkpt lat="42.4319980" lon="-7.3102910">
        <ele>861.3</ele>
        <time>2014-10-02T06:55:28Z</time>
      </trkpt>
      <trkpt lat="42.4319480" lon="-7.3103050">
        <ele>861.8</ele>
        <time>2014-10-02T06:55:30Z</time>
      </trkpt>
      <trkpt lat="42.4319210" lon="-7.3103110">
        <ele>861.9</ele>
        <time>2014-10-02T06:55:31Z</time>
      </trkpt>
      <trkpt lat="42.4318950" lon="-7.3103240">
        <ele>862.2</ele>
        <time>2014-10-02T06:55:32Z</time>
      </trkpt>
      <trkpt lat="42.4318700" lon="-7.3103430">
        <ele>862.4</ele>
        <time>2014-10-02T06:55:33Z</time>
      </trkpt>
      <trkpt lat="42.4318470" lon="-7.3103670">
        <ele>862.6</ele>
        <time>2014-10-02T06:55:34Z</time>
      </trkpt>
      <trkpt lat="42.4318280" lon="-7.3103930">
        <ele>862.8</ele>
        <time>2014-10-02T06:55:35Z</time>
      </trkpt>
      <trkpt lat="42.4318100" lon="-7.3104220">
        <ele>863.0</ele>
        <time>2014-10-02T06:55:36Z</time>
      </trkpt>
      <trkpt lat="42.4317920" lon="-7.3104520">
        <ele>863.2</ele>
        <time>2014-10-02T06:55:37Z</time>
      </trkpt>
      <trkpt lat="42.4317780" lon="-7.3104830">
        <ele>863.4</ele>
        <time>2014-10-02T06:55:38Z</time>
      </trkpt>
      <trkpt lat="42.4317680" lon="-7.3105180">
        <ele>863.6</ele>
        <time>2014-10-02T06:55:39Z</time>
      </trkpt>
      <trkpt lat="42.4317650" lon="-7.3105550">
        <ele>863.7</ele>
        <time>2014-10-02T06:55:40Z</time>
      </trkpt>
      <trkpt lat="42.4317550" lon="-7.3106150">
        <ele>864.0</ele>
        <time>2014-10-02T06:55:42Z</time>
      </trkpt>
      <trkpt lat="42.4317450" lon="-7.3106690">
        <ele>864.2</ele>
        <time>2014-10-02T06:55:44Z</time>
      </trkpt>
      <trkpt lat="42.4317410" lon="-7.3107260">
        <ele>864.4</ele>
        <time>2014-10-02T06:55:46Z</time>
      </trkpt>
      <trkpt lat="42.4317480" lon="-7.3107890">
        <ele>864.6</ele>
        <time>2014-10-02T06:55:48Z</time>
      </trkpt>
      <trkpt lat="42.4317510" lon="-7.3108570">
        <ele>864.9</ele>
        <time>2014-10-02T06:55:50Z</time>
      </trkpt>
      <trkpt lat="42.4317740" lon="-7.3108760">
        <ele>865.0</ele>
        <time>2014-10-02T06:55:53Z</time>
      </trkpt>
      <trkpt lat="42.4318070" lon="-7.3109080">
        <ele>865.1</ele>
        <time>2014-10-02T06:55:55Z</time>
      </trkpt>
      <trkpt lat="42.4318060" lon="-7.3109510">
        <ele>865.2</ele>
        <time>2014-10-02T06:55:56Z</time>
      </trkpt>
      <trkpt lat="42.4318100" lon="-7.3109910">
        <ele>865.3</ele>
        <time>2014-10-02T06:55:57Z</time>
      </trkpt>
      <trkpt lat="42.4317870" lon="-7.3110510">
        <ele>865.4</ele>
        <time>2014-10-02T06:55:58Z</time>
      </trkpt>
      <trkpt lat="42.4317690" lon="-7.3111200">
        <ele>865.5</ele>
        <time>2014-10-02T06:55:59Z</time>
      </trkpt>
      <trkpt lat="42.4317670" lon="-7.3111860">
        <ele>865.6</ele>
        <time>2014-10-02T06:56:00Z</time>
      </trkpt>
      <trkpt lat="42.4317740" lon="-7.3112360">
        <ele>865.7</ele>
        <time>2014-10-02T06:56:01Z</time>
      </trkpt>
      <trkpt lat="42.4317830" lon="-7.3113470">
        <ele>865.7</ele>
        <time>2014-10-02T06:56:03Z</time>
      </trkpt>
      <trkpt lat="42.4317870" lon="-7.3114010">
        <ele>865.8</ele>
        <time>2014-10-02T06:56:04Z</time>
      </trkpt>
      <trkpt lat="42.4317960" lon="-7.3114590">
        <ele>865.8</ele>
        <time>2014-10-02T06:56:05Z</time>
      </trkpt>
      <trkpt lat="42.4318120" lon="-7.3115140">
        <ele>865.8</ele>
        <time>2014-10-02T06:56:06Z</time>
      </trkpt>
      <trkpt lat="42.4318200" lon="-7.3115680">
        <ele>865.8</ele>
        <time>2014-10-02T06:56:07Z</time>
      </trkpt>
      <trkpt lat="42.4318310" lon="-7.3116180">
        <ele>865.8</ele>
        <time>2014-10-02T06:56:08Z</time>
      </trkpt>
      <trkpt lat="42.4318440" lon="-7.3116730">
        <ele>865.8</ele>
        <time>2014-10-02T06:56:09Z</time>
      </trkpt>
      <trkpt lat="42.4318550" lon="-7.3117200">
        <ele>865.8</ele>
        <time>2014-10-02T06:56:10Z</time>
      </trkpt>
      <trkpt lat="42.4318690" lon="-7.3117610">
        <ele>865.9</ele>
        <time>2014-10-02T06:56:11Z</time>
      </trkpt>
      <trkpt lat="42.4318790" lon="-7.3118020">
        <ele>865.9</ele>
        <time>2014-10-02T06:56:12Z</time>
      </trkpt>
      <trkpt lat="42.4318830" lon="-7.3118600">
        <ele>865.9</ele>
        <time>2014-10-02T06:56:14Z</time>
      </trkpt>
      <trkpt lat="42.4318540" lon="-7.3118970">
        <ele>866.0</ele>
        <time>2014-10-02T06:56:15Z</time>
      </trkpt>
      <trkpt lat="42.4318020" lon="-7.3119390">
        <ele>866.1</ele>
        <time>2014-10-02T06:56:16Z</time>
      </trkpt>
      <trkpt lat="42.4317470" lon="-7.3120050">
        <ele>866.4</ele>
        <time>2014-10-02T06:56:17Z</time>
      </trkpt>
      <trkpt lat="42.4317000" lon="-7.3120690">
        <ele>866.7</ele>
        <time>2014-10-02T06:56:18Z</time>
      </trkpt>
      <trkpt lat="42.4317710" lon="-7.3122490">
        <ele>867.7</ele>
        <time>2014-10-02T06:56:22Z</time>
      </trkpt>
      <trkpt lat="42.4317990" lon="-7.3122990">
        <ele>868.1</ele>
        <time>2014-10-02T06:56:23Z</time>
      </trkpt>
      <trkpt lat="42.4318330" lon="-7.3123510">
        <ele>868.6</ele>
        <time>2014-10-02T06:56:24Z</time>
      </trkpt>
      <trkpt lat="42.4318610" lon="-7.3124120">
        <ele>869.2</ele>
        <time>2014-10-02T06:56:25Z</time>
      </trkpt>
      <trkpt lat="42.4318860" lon="-7.3124670">
        <ele>869.7</ele>
        <time>2014-10-02T06:56:26Z</time>
      </trkpt>
      <trkpt lat="42.4319100" lon="-7.3125100">
        <ele>870.1</ele>
        <time>2014-10-02T06:56:27Z</time>
      </trkpt>
      <trkpt lat="42.4319250" lon="-7.3125530">
        <ele>870.5</ele>
        <time>2014-10-02T06:56:28Z</time>
      </trkpt>
      <trkpt lat="42.4319340" lon="-7.3125930">
        <ele>870.8</ele>
        <time>2014-10-02T06:56:29Z</time>
      </trkpt>
      <trkpt lat="42.4319440" lon="-7.3126340">
        <ele>871.1</ele>
        <time>2014-10-02T06:56:30Z</time>
      </trkpt>
      <trkpt lat="42.4319710" lon="-7.3126370">
        <ele>871.4</ele>
        <time>2014-10-02T06:56:31Z</time>
      </trkpt>
      <trkpt lat="42.4320020" lon="-7.3126540">
        <ele>871.7</ele>
        <time>2014-10-02T06:56:33Z</time>
      </trkpt>
      <trkpt lat="42.4319840" lon="-7.3127020">
        <ele>872.2</ele>
        <time>2014-10-02T06:56:35Z</time>
      </trkpt>
      <trkpt lat="42.4319640" lon="-7.3127290">
        <ele>872.5</ele>
        <time>2014-10-02T06:56:36Z</time>
      </trkpt>
      <trkpt lat="42.4319430" lon="-7.3127560">
        <ele>872.8</ele>
        <time>2014-10-02T06:56:37Z</time>
      </trkpt>
      <trkpt lat="42.4319260" lon="-7.3127850">
        <ele>873.0</ele>
        <time>2014-10-02T06:56:38Z</time>
      </trkpt>
      <trkpt lat="42.4319100" lon="-7.3128170">
        <ele>873.3</ele>
        <time>2014-10-02T06:56:39Z</time>
      </trkpt>
      <trkpt lat="42.4318800" lon="-7.3128740">
        <ele>873.9</ele>
        <time>2014-10-02T06:56:41Z</time>
      </trkpt>
      <trkpt lat="42.4318660" lon="-7.3129060">
        <ele>874.2</ele>
        <time>2014-10-02T06:56:42Z</time>
      </trkpt>
      <trkpt lat="42.4318520" lon="-7.3129380">
        <ele>874.4</ele>
        <time>2014-10-02T06:56:43Z</time>
      </trkpt>
      <trkpt lat="42.4318350" lon="-7.3129710">
        <ele>874.7</ele>
        <time>2014-10-02T06:56:44Z</time>
      </trkpt>
      <trkpt lat="42.4318180" lon="-7.3130100">
        <ele>875.1</ele>
        <time>2014-10-02T06:56:45Z</time>
      </trkpt>
      <trkpt lat="42.4317880" lon="-7.3130720">
        <ele>875.6</ele>
        <time>2014-10-02T06:56:47Z</time>
      </trkpt>
      <trkpt lat="42.4317700" lon="-7.3131010">
        <ele>875.9</ele>
        <time>2014-10-02T06:56:48Z</time>
      </trkpt>
      <trkpt lat="42.4317450" lon="-7.3131490">
        <ele>876.3</ele>
        <time>2014-10-02T06:56:50Z</time>
      </trkpt>
      <trkpt lat="42.4317150" lon="-7.3131950">
        <ele>876.8</ele>
        <time>2014-10-02T06:56:52Z</time>
      </trkpt>
      <trkpt lat="42.4316790" lon="-7.3132450">
        <ele>877.3</ele>
        <time>2014-10-02T06:56:54Z</time>
      </trkpt>
      <trkpt lat="42.4316330" lon="-7.3132870">
        <ele>877.8</ele>
        <time>2014-10-02T06:56:56Z</time>
      </trkpt>
      <trkpt lat="42.4315900" lon="-7.3133200">
        <ele>878.3</ele>
        <time>2014-10-02T06:56:58Z</time>
      </trkpt>
      <trkpt lat="42.4315400" lon="-7.3133430">
        <ele>878.9</ele>
        <time>2014-10-02T06:57:00Z</time>
      </trkpt>
      <trkpt lat="42.4314910" lon="-7.3133710">
        <ele>879.4</ele>
        <time>2014-10-02T06:57:02Z</time>
      </trkpt>
      <trkpt lat="42.4314460" lon="-7.3133950">
        <ele>879.8</ele>
        <time>2014-10-02T06:57:04Z</time>
      </trkpt>
      <trkpt lat="42.4314070" lon="-7.3134160">
        <ele>880.2</ele>
        <time>2014-10-02T06:57:06Z</time>
      </trkpt>
      <trkpt lat="42.4313600" lon="-7.3134380">
        <ele>880.7</ele>
        <time>2014-10-02T06:57:08Z</time>
      </trkpt>
      <trkpt lat="42.4313120" lon="-7.3134590">
        <ele>881.2</ele>
        <time>2014-10-02T06:57:10Z</time>
      </trkpt>
      <trkpt lat="42.4312600" lon="-7.3134820">
        <ele>881.8</ele>
        <time>2014-10-02T06:57:12Z</time>
      </trkpt>
      <trkpt lat="42.4312100" lon="-7.3135070">
        <ele>882.4</ele>
        <time>2014-10-02T06:57:14Z</time>
      </trkpt>
      <trkpt lat="42.4311640" lon="-7.3135310">
        <ele>882.9</ele>
        <time>2014-10-02T06:57:16Z</time>
      </trkpt>
      <trkpt lat="42.4311210" lon="-7.3135590">
        <ele>883.4</ele>
        <time>2014-10-02T06:57:18Z</time>
      </trkpt>
      <trkpt lat="42.4310800" lon="-7.3135850">
        <ele>883.8</ele>
        <time>2014-10-02T06:57:20Z</time>
      </trkpt>
      <trkpt lat="42.4310380" lon="-7.3136140">
        <ele>884.3</ele>
        <time>2014-10-02T06:57:22Z</time>
      </trkpt>
      <trkpt lat="42.4309940" lon="-7.3136450">
        <ele>884.8</ele>
        <time>2014-10-02T06:57:24Z</time>
      </trkpt>
      <trkpt lat="42.4309520" lon="-7.3136790">
        <ele>885.3</ele>
        <time>2014-10-02T06:57:26Z</time>
      </trkpt>
      <trkpt lat="42.4309140" lon="-7.3137230">
        <ele>885.8</ele>
        <time>2014-10-02T06:57:28Z</time>
      </trkpt>
      <trkpt lat="42.4308960" lon="-7.3137530">
        <ele>886.0</ele>
        <time>2014-10-02T06:57:29Z</time>
      </trkpt>
      <trkpt lat="42.4308720" lon="-7.3138130">
        <ele>886.5</ele>
        <time>2014-10-02T06:57:31Z</time>
      </trkpt>
      <trkpt lat="42.4308660" lon="-7.3138520">
        <ele>886.7</ele>
        <time>2014-10-02T06:57:32Z</time>
      </trkpt>
      <trkpt lat="42.4308620" lon="-7.3138890">
        <ele>887.0</ele>
        <time>2014-10-02T06:57:33Z</time>
      </trkpt>
      <trkpt lat="42.4308620" lon="-7.3139260">
        <ele>887.2</ele>
        <time>2014-10-02T06:57:34Z</time>
      </trkpt>
      <trkpt lat="42.4308650" lon="-7.3139640">
        <ele>887.4</ele>
        <time>2014-10-02T06:57:35Z</time>
      </trkpt>
      <trkpt lat="42.4308760" lon="-7.3140300">
        <ele>887.8</ele>
        <time>2014-10-02T06:57:37Z</time>
      </trkpt>
      <trkpt lat="42.4308940" lon="-7.3140920">
        <ele>888.1</ele>
        <time>2014-10-02T06:57:39Z</time>
      </trkpt>
      <trkpt lat="42.4309210" lon="-7.3141480">
        <ele>888.5</ele>
        <time>2014-10-02T06:57:41Z</time>
      </trkpt>
      <trkpt lat="42.4309540" lon="-7.3141940">
        <ele>888.7</ele>
        <time>2014-10-02T06:57:43Z</time>
      </trkpt>
      <trkpt lat="42.4309960" lon="-7.3142370">
        <ele>888.9</ele>
        <time>2014-10-02T06:57:45Z</time>
      </trkpt>
      <trkpt lat="42.4310210" lon="-7.3142550">
        <ele>889.0</ele>
        <time>2014-10-02T06:57:46Z</time>
      </trkpt>
      <trkpt lat="42.4310720" lon="-7.3142820">
        <ele>889.2</ele>
        <time>2014-10-02T06:57:48Z</time>
      </trkpt>
      <trkpt lat="42.4311000" lon="-7.3142980">
        <ele>889.2</ele>
        <time>2014-10-02T06:57:49Z</time>
      </trkpt>
      <trkpt lat="42.4311310" lon="-7.3143160">
        <ele>889.3</ele>
        <time>2014-10-02T06:57:50Z</time>
      </trkpt>
      <trkpt lat="42.4311600" lon="-7.3143350">
        <ele>889.3</ele>
        <time>2014-10-02T06:57:51Z</time>
      </trkpt>
      <trkpt lat="42.4311890" lon="-7.3143560">
        <ele>889.4</ele>
        <time>2014-10-02T06:57:52Z</time>
      </trkpt>
      <trkpt lat="42.4312210" lon="-7.3143790">
        <ele>889.4</ele>
        <time>2014-10-02T06:57:53Z</time>
      </trkpt>
      <trkpt lat="42.4312550" lon="-7.3144040">
        <ele>889.4</ele>
        <time>2014-10-02T06:57:54Z</time>
      </trkpt>
      <trkpt lat="42.4312880" lon="-7.3144280">
        <ele>889.4</ele>
        <time>2014-10-02T06:57:55Z</time>
      </trkpt>
      <trkpt lat="42.4313230" lon="-7.3144570">
        <ele>889.4</ele>
        <time>2014-10-02T06:57:56Z</time>
      </trkpt>
      <trkpt lat="42.4313570" lon="-7.3144880">
        <ele>889.4</ele>
        <time>2014-10-02T06:57:57Z</time>
      </trkpt>
      <trkpt lat="42.4313890" lon="-7.3145170">
        <ele>889.4</ele>
        <time>2014-10-02T06:57:58Z</time>
      </trkpt>
      <trkpt lat="42.4314240" lon="-7.3145510">
        <ele>889.4</ele>
        <time>2014-10-02T06:57:59Z</time>
      </trkpt>
      <trkpt lat="42.4314620" lon="-7.3145880">
        <ele>889.3</ele>
        <time>2014-10-02T06:58:00Z</time>
      </trkpt>
      <trkpt lat="42.4315010" lon="-7.3146260">
        <ele>889.3</ele>
        <time>2014-10-02T06:58:01Z</time>
      </trkpt>
      <trkpt lat="42.4315370" lon="-7.3146630">
        <ele>889.3</ele>
        <time>2014-10-02T06:58:02Z</time>
      </trkpt>
      <trkpt lat="42.4315720" lon="-7.3146980">
        <ele>889.3</ele>
        <time>2014-10-02T06:58:03Z</time>
      </trkpt>
      <trkpt lat="42.4316080" lon="-7.3147310">
        <ele>889.3</ele>
        <time>2014-10-02T06:58:04Z</time>
      </trkpt>
      <trkpt lat="42.4316420" lon="-7.3147650">
        <ele>889.3</ele>
        <time>2014-10-02T06:58:05Z</time>
      </trkpt>
      <trkpt lat="42.4316760" lon="-7.3147980">
        <ele>889.4</ele>
        <time>2014-10-02T06:58:06Z</time>
      </trkpt>
      <trkpt lat="42.4317100" lon="-7.3148320">
        <ele>889.4</ele>
        <time>2014-10-02T06:58:07Z</time>
      </trkpt>
      <trkpt lat="42.4317430" lon="-7.3148690">
        <ele>889.5</ele>
        <time>2014-10-02T06:58:08Z</time>
      </trkpt>
      <trkpt lat="42.4317760" lon="-7.3149110">
        <ele>889.6</ele>
        <time>2014-10-02T06:58:09Z</time>
      </trkpt>
      <trkpt lat="42.4318040" lon="-7.3149560">
        <ele>889.8</ele>
        <time>2014-10-02T06:58:10Z</time>
      </trkpt>
      <trkpt lat="42.4318290" lon="-7.3150120">
        <ele>890.0</ele>
        <time>2014-10-02T06:58:11Z</time>
      </trkpt>
      <trkpt lat="42.4318510" lon="-7.3150730">
        <ele>890.2</ele>
        <time>2014-10-02T06:58:12Z</time>
      </trkpt>
      <trkpt lat="42.4318670" lon="-7.3151340">
        <ele>890.5</ele>
        <time>2014-10-02T06:58:13Z</time>
      </trkpt>
      <trkpt lat="42.4318780" lon="-7.3151940">
        <ele>890.8</ele>
        <time>2014-10-02T06:58:14Z</time>
      </trkpt>
      <trkpt lat="42.4318900" lon="-7.3152450">
        <ele>891.0</ele>
        <time>2014-10-02T06:58:15Z</time>
      </trkpt>
      <trkpt lat="42.4319010" lon="-7.3152890">
        <ele>891.3</ele>
        <time>2014-10-02T06:58:16Z</time>
      </trkpt>
      <trkpt lat="42.4319160" lon="-7.3153330">
        <ele>891.6</ele>
        <time>2014-10-02T06:58:17Z</time>
      </trkpt>
      <trkpt lat="42.4319310" lon="-7.3153710">
        <ele>891.9</ele>
        <time>2014-10-02T06:58:18Z</time>
      </trkpt>
      <trkpt lat="42.4319470" lon="-7.3154050">
        <ele>892.1</ele>
        <time>2014-10-02T06:58:19Z</time>
      </trkpt>
      <trkpt lat="42.4319630" lon="-7.3154350">
        <ele>892.4</ele>
        <time>2014-10-02T06:58:20Z</time>
      </trkpt>
      <trkpt lat="42.4319810" lon="-7.3154690">
        <ele>892.7</ele>
        <time>2014-10-02T06:58:21Z</time>
      </trkpt>
      <trkpt lat="42.4320010" lon="-7.3155000">
        <ele>893.0</ele>
        <time>2014-10-02T06:58:22Z</time>
      </trkpt>
      <trkpt lat="42.4320220" lon="-7.3155300">
        <ele>893.3</ele>
        <time>2014-10-02T06:58:23Z</time>
      </trkpt>
      <trkpt lat="42.4320420" lon="-7.3155610">
        <ele>893.6</ele>
        <time>2014-10-02T06:58:24Z</time>
      </trkpt>
      <trkpt lat="42.4320590" lon="-7.3155920">
        <ele>893.9</ele>
        <time>2014-10-02T06:58:25Z</time>
      </trkpt>
      <trkpt lat="42.4320850" lon="-7.3156530">
        <ele>894.4</ele>
        <time>2014-10-02T06:58:27Z</time>
      </trkpt>
      <trkpt lat="42.4321080" lon="-7.3157190">
        <ele>894.9</ele>
        <time>2014-10-02T06:58:29Z</time>
      </trkpt>
      <trkpt lat="42.4321150" lon="-7.3157540">
        <ele>895.2</ele>
        <time>2014-10-02T06:58:30Z</time>
      </trkpt>
      <trkpt lat="42.4321250" lon="-7.3158230">
        <ele>895.6</ele>
        <time>2014-10-02T06:58:32Z</time>
      </trkpt>
      <trkpt lat="42.4321320" lon="-7.3158870">
        <ele>896.1</ele>
        <time>2014-10-02T06:58:34Z</time>
      </trkpt>
      <trkpt lat="42.4321330" lon="-7.3159240">
        <ele>896.3</ele>
        <time>2014-10-02T06:58:35Z</time>
      </trkpt>
      <trkpt lat="42.4321360" lon="-7.3159620">
        <ele>896.6</ele>
        <time>2014-10-02T06:58:36Z</time>
      </trkpt>
      <trkpt lat="42.4321390" lon="-7.3160000">
        <ele>896.9</ele>
        <time>2014-10-02T06:58:37Z</time>
      </trkpt>
      <trkpt lat="42.4321410" lon="-7.3160640">
        <ele>897.3</ele>
        <time>2014-10-02T06:58:39Z</time>
      </trkpt>
      <trkpt lat="42.4321410" lon="-7.3161330">
        <ele>897.7</ele>
        <time>2014-10-02T06:58:41Z</time>
      </trkpt>
      <trkpt lat="42.4321380" lon="-7.3161710">
        <ele>898.0</ele>
        <time>2014-10-02T06:58:42Z</time>
      </trkpt>
      <trkpt lat="42.4321340" lon="-7.3162120">
        <ele>898.3</ele>
        <time>2014-10-02T06:58:43Z</time>
      </trkpt>
      <trkpt lat="42.4321300" lon="-7.3162520">
        <ele>898.6</ele>
        <time>2014-10-02T06:58:44Z</time>
      </trkpt>
      <trkpt lat="42.4321170" lon="-7.3163320">
        <ele>899.1</ele>
        <time>2014-10-02T06:58:46Z</time>
      </trkpt>
      <trkpt lat="42.4321070" lon="-7.3163970">
        <ele>899.6</ele>
        <time>2014-10-02T06:58:48Z</time>
      </trkpt>
      <trkpt lat="42.4320960" lon="-7.3164640">
        <ele>900.1</ele>
        <time>2014-10-02T06:58:50Z</time>
      </trkpt>
      <trkpt lat="42.4320860" lon="-7.3165330">
        <ele>900.6</ele>
        <time>2014-10-02T06:58:52Z</time>
      </trkpt>
      <trkpt lat="42.4320750" lon="-7.3165710">
        <ele>900.9</ele>
        <time>2014-10-02T06:58:53Z</time>
      </trkpt>
      <trkpt lat="42.4320580" lon="-7.3166430">
        <ele>901.4</ele>
        <time>2014-10-02T06:58:55Z</time>
      </trkpt>
      <trkpt lat="42.4320490" lon="-7.3166810">
        <ele>901.7</ele>
        <time>2014-10-02T06:58:56Z</time>
      </trkpt>
      <trkpt lat="42.4320400" lon="-7.3167160">
        <ele>902.0</ele>
        <time>2014-10-02T06:58:57Z</time>
      </trkpt>
      <trkpt lat="42.4320170" lon="-7.3167780">
        <ele>902.5</ele>
        <time>2014-10-02T06:58:59Z</time>
      </trkpt>
      <trkpt lat="42.4319980" lon="-7.3168400">
        <ele>903.0</ele>
        <time>2014-10-02T06:59:01Z</time>
      </trkpt>
      <trkpt lat="42.4319880" lon="-7.3168750">
        <ele>903.3</ele>
        <time>2014-10-02T06:59:02Z</time>
      </trkpt>
      <trkpt lat="42.4319680" lon="-7.3169410">
        <ele>903.8</ele>
        <time>2014-10-02T06:59:04Z</time>
      </trkpt>
      <trkpt lat="42.4319580" lon="-7.3169760">
        <ele>904.1</ele>
        <time>2014-10-02T06:59:05Z</time>
      </trkpt>
      <trkpt lat="42.4319380" lon="-7.3170410">
        <ele>904.6</ele>
        <time>2014-10-02T06:59:07Z</time>
      </trkpt>
      <trkpt lat="42.4319200" lon="-7.3171030">
        <ele>905.0</ele>
        <time>2014-10-02T06:59:09Z</time>
      </trkpt>
      <trkpt lat="42.4318960" lon="-7.3171640">
        <ele>905.5</ele>
        <time>2014-10-02T06:59:11Z</time>
      </trkpt>
      <trkpt lat="42.4318660" lon="-7.3172230">
        <ele>906.0</ele>
        <time>2014-10-02T06:59:13Z</time>
      </trkpt>
      <trkpt lat="42.4318500" lon="-7.3172520">
        <ele>906.2</ele>
        <time>2014-10-02T06:59:14Z</time>
      </trkpt>
      <trkpt lat="42.4318340" lon="-7.3172830">
        <ele>906.5</ele>
        <time>2014-10-02T06:59:15Z</time>
      </trkpt>
      <trkpt lat="42.4318170" lon="-7.3173140">
        <ele>906.7</ele>
        <time>2014-10-02T06:59:16Z</time>
      </trkpt>
      <trkpt lat="42.4317980" lon="-7.3173430">
        <ele>907.0</ele>
        <time>2014-10-02T06:59:17Z</time>
      </trkpt>
      <trkpt lat="42.4317760" lon="-7.3173760">
        <ele>907.3</ele>
        <time>2014-10-02T06:59:18Z</time>
      </trkpt>
      <trkpt lat="42.4317520" lon="-7.3174090">
        <ele>907.5</ele>
        <time>2014-10-02T06:59:19Z</time>
      </trkpt>
      <trkpt lat="42.4317310" lon="-7.3174360">
        <ele>907.8</ele>
        <time>2014-10-02T06:59:20Z</time>
      </trkpt>
      <trkpt lat="42.4317070" lon="-7.3174620">
        <ele>908.0</ele>
        <time>2014-10-02T06:59:21Z</time>
      </trkpt>
      <trkpt lat="42.4316620" lon="-7.3175060">
        <ele>908.5</ele>
        <time>2014-10-02T06:59:23Z</time>
      </trkpt>
      <trkpt lat="42.4316370" lon="-7.3175260">
        <ele>908.7</ele>
        <time>2014-10-02T06:59:24Z</time>
      </trkpt>
      <trkpt lat="42.4316120" lon="-7.3175450">
        <ele>908.9</ele>
        <time>2014-10-02T06:59:25Z</time>
      </trkpt>
      <trkpt lat="42.4315850" lon="-7.3175640">
        <ele>909.1</ele>
        <time>2014-10-02T06:59:26Z</time>
      </trkpt>
      <trkpt lat="42.4315610" lon="-7.3175810">
        <ele>909.3</ele>
        <time>2014-10-02T06:59:27Z</time>
      </trkpt>
      <trkpt lat="42.4315150" lon="-7.3176110">
        <ele>909.7</ele>
        <time>2014-10-02T06:59:29Z</time>
      </trkpt>
      <trkpt lat="42.4314870" lon="-7.3176290">
        <ele>909.9</ele>
        <time>2014-10-02T06:59:30Z</time>
      </trkpt>
      <trkpt lat="42.4314630" lon="-7.3176490">
        <ele>910.2</ele>
        <time>2014-10-02T06:59:31Z</time>
      </trkpt>
      <trkpt lat="42.4314390" lon="-7.3176690">
        <ele>910.4</ele>
        <time>2014-10-02T06:59:32Z</time>
      </trkpt>
      <trkpt lat="42.4313950" lon="-7.3177060">
        <ele>910.8</ele>
        <time>2014-10-02T06:59:34Z</time>
      </trkpt>
      <trkpt lat="42.4313510" lon="-7.3177400">
        <ele>911.2</ele>
        <time>2014-10-02T06:59:36Z</time>
      </trkpt>
      <trkpt lat="42.4313280" lon="-7.3177600">
        <ele>911.4</ele>
        <time>2014-10-02T06:59:37Z</time>
      </trkpt>
      <trkpt lat="42.4313030" lon="-7.3177800">
        <ele>911.7</ele>
        <time>2014-10-02T06:59:38Z</time>
      </trkpt>
      <trkpt lat="42.4312780" lon="-7.3177990">
        <ele>911.9</ele>
        <time>2014-10-02T06:59:39Z</time>
      </trkpt>
      <trkpt lat="42.4312310" lon="-7.3178320">
        <ele>912.3</ele>
        <time>2014-10-02T06:59:41Z</time>
      </trkpt>
      <trkpt lat="42.4311800" lon="-7.3178660">
        <ele>912.8</ele>
        <time>2014-10-02T06:59:43Z</time>
      </trkpt>
      <trkpt lat="42.4311560" lon="-7.3178850">
        <ele>913.0</ele>
        <time>2014-10-02T06:59:44Z</time>
      </trkpt>
      <trkpt lat="42.4311310" lon="-7.3179020">
        <ele>913.2</ele>
        <time>2014-10-02T06:59:45Z</time>
      </trkpt>
      <trkpt lat="42.4310880" lon="-7.3179270">
        <ele>913.6</ele>
        <time>2014-10-02T06:59:47Z</time>
      </trkpt>
      <trkpt lat="42.4310610" lon="-7.3179420">
        <ele>913.9</ele>
        <time>2014-10-02T06:59:48Z</time>
      </trkpt>
      <trkpt lat="42.4310320" lon="-7.3179580">
        <ele>914.1</ele>
        <time>2014-10-02T06:59:49Z</time>
      </trkpt>
      <trkpt lat="42.4310070" lon="-7.3179710">
        <ele>914.3</ele>
        <time>2014-10-02T06:59:50Z</time>
      </trkpt>
      <trkpt lat="42.4309600" lon="-7.3179950">
        <ele>914.7</ele>
        <time>2014-10-02T06:59:52Z</time>
      </trkpt>
      <trkpt lat="42.4309200" lon="-7.3180110">
        <ele>915.1</ele>
        <time>2014-10-02T06:59:54Z</time>
      </trkpt>
      <trkpt lat="42.4308730" lon="-7.3180320">
        <ele>915.4</ele>
        <time>2014-10-02T06:59:56Z</time>
      </trkpt>
      <trkpt lat="42.4308220" lon="-7.3180530">
        <ele>915.9</ele>
        <time>2014-10-02T06:59:58Z</time>
      </trkpt>
      <trkpt lat="42.4307730" lon="-7.3180730">
        <ele>916.3</ele>
        <time>2014-10-02T07:00:00Z</time>
      </trkpt>
      <trkpt lat="42.4307230" lon="-7.3180900">
        <ele>916.7</ele>
        <time>2014-10-02T07:00:02Z</time>
      </trkpt>
      <trkpt lat="42.4306960" lon="-7.3180990">
        <ele>916.9</ele>
        <time>2014-10-02T07:00:03Z</time>
      </trkpt>
      <trkpt lat="42.4306680" lon="-7.3181080">
        <ele>917.1</ele>
        <time>2014-10-02T07:00:04Z</time>
      </trkpt>
      <trkpt lat="42.4306400" lon="-7.3181160">
        <ele>917.4</ele>
        <time>2014-10-02T07:00:05Z</time>
      </trkpt>
      <trkpt lat="42.4305850" lon="-7.3181310">
        <ele>917.8</ele>
        <time>2014-10-02T07:00:07Z</time>
      </trkpt>
      <trkpt lat="42.4305550" lon="-7.3181400">
        <ele>918.1</ele>
        <time>2014-10-02T07:00:08Z</time>
      </trkpt>
      <trkpt lat="42.4305220" lon="-7.3181490">
        <ele>918.4</ele>
        <time>2014-10-02T07:00:09Z</time>
      </trkpt>
      <trkpt lat="42.4304900" lon="-7.3181580">
        <ele>918.6</ele>
        <time>2014-10-02T07:00:10Z</time>
      </trkpt>
      <trkpt lat="42.4304570" lon="-7.3181650">
        <ele>918.9</ele>
        <time>2014-10-02T07:00:11Z</time>
      </trkpt>
      <trkpt lat="42.4304270" lon="-7.3181720">
        <ele>919.1</ele>
        <time>2014-10-02T07:00:12Z</time>
      </trkpt>
      <trkpt lat="42.4303970" lon="-7.3181800">
        <ele>919.4</ele>
        <time>2014-10-02T07:00:13Z</time>
      </trkpt>
      <trkpt lat="42.4303440" lon="-7.3181940">
        <ele>919.8</ele>
        <time>2014-10-02T07:00:15Z</time>
      </trkpt>
      <trkpt lat="42.4302900" lon="-7.3182070">
        <ele>920.2</ele>
        <time>2014-10-02T07:00:17Z</time>
      </trkpt>
      <trkpt lat="42.4302620" lon="-7.3182100">
        <ele>920.5</ele>
        <time>2014-10-02T07:00:18Z</time>
      </trkpt>
      <trkpt lat="42.4302080" lon="-7.3182240">
        <ele>920.9</ele>
        <time>2014-10-02T07:00:20Z</time>
      </trkpt>
      <trkpt lat="42.4301810" lon="-7.3182320">
        <ele>921.1</ele>
        <time>2014-10-02T07:00:21Z</time>
      </trkpt>
      <trkpt lat="42.4301540" lon="-7.3182370">
        <ele>921.3</ele>
        <time>2014-10-02T07:00:22Z</time>
      </trkpt>
      <trkpt lat="42.4301260" lon="-7.3182420">
        <ele>921.5</ele>
        <time>2014-10-02T07:00:23Z</time>
      </trkpt>
      <trkpt lat="42.4300950" lon="-7.3182490">
        <ele>921.7</ele>
        <time>2014-10-02T07:00:24Z</time>
      </trkpt>
      <trkpt lat="42.4300680" lon="-7.3182550">
        <ele>921.9</ele>
        <time>2014-10-02T07:00:25Z</time>
      </trkpt>
      <trkpt lat="42.4300210" lon="-7.3182650">
        <ele>922.3</ele>
        <time>2014-10-02T07:00:27Z</time>
      </trkpt>
      <trkpt lat="42.4299720" lon="-7.3182750">
        <ele>922.6</ele>
        <time>2014-10-02T07:00:29Z</time>
      </trkpt>
      <trkpt lat="42.4299410" lon="-7.3182780">
        <ele>922.9</ele>
        <time>2014-10-02T07:00:30Z</time>
      </trkpt>
      <trkpt lat="42.4299110" lon="-7.3182820">
        <ele>923.1</ele>
        <time>2014-10-02T07:00:31Z</time>
      </trkpt>
      <trkpt lat="42.4298830" lon="-7.3182890">
        <ele>923.3</ele>
        <time>2014-10-02T07:00:32Z</time>
      </trkpt>
      <trkpt lat="42.4298290" lon="-7.3183010">
        <ele>923.7</ele>
        <time>2014-10-02T07:00:34Z</time>
      </trkpt>
      <trkpt lat="42.4297990" lon="-7.3183110">
        <ele>923.8</ele>
        <time>2014-10-02T07:00:35Z</time>
      </trkpt>
      <trkpt lat="42.4297680" lon="-7.3183210">
        <ele>924.0</ele>
        <time>2014-10-02T07:00:36Z</time>
      </trkpt>
      <trkpt lat="42.4297390" lon="-7.3183310">
        <ele>924.1</ele>
        <time>2014-10-02T07:00:37Z</time>
      </trkpt>
      <trkpt lat="42.4296870" lon="-7.3183550">
        <ele>924.2</ele>
        <time>2014-10-02T07:00:39Z</time>
      </trkpt>
      <trkpt lat="42.4296610" lon="-7.3183690">
        <ele>924.5</ele>
        <time>2014-10-02T07:00:40Z</time>
      </trkpt>
      <trkpt lat="42.4296370" lon="-7.3183860">
        <ele>924.7</ele>
        <time>2014-10-02T07:00:41Z</time>
      </trkpt>
      <trkpt lat="42.4296120" lon="-7.3184070">
        <ele>925.1</ele>
        <time>2014-10-02T07:00:42Z</time>
      </trkpt>
      <trkpt lat="42.4295820" lon="-7.3184340">
        <ele>925.5</ele>
        <time>2014-10-02T07:00:43Z</time>
      </trkpt>
      <trkpt lat="42.4295590" lon="-7.3184570">
        <ele>925.8</ele>
        <time>2014-10-02T07:00:44Z</time>
      </trkpt>
      <trkpt lat="42.4295200" lon="-7.3185110">
        <ele>926.4</ele>
        <time>2014-10-02T07:00:46Z</time>
      </trkpt>
      <trkpt lat="42.4295010" lon="-7.3185400">
        <ele>926.7</ele>
        <time>2014-10-02T07:00:47Z</time>
      </trkpt>
      <trkpt lat="42.4294670" lon="-7.3185940">
        <ele>927.2</ele>
        <time>2014-10-02T07:00:49Z</time>
      </trkpt>
      <trkpt lat="42.4294330" lon="-7.3186490">
        <ele>927.8</ele>
        <time>2014-10-02T07:00:51Z</time>
      </trkpt>
      <trkpt lat="42.4294160" lon="-7.3186820">
        <ele>928.1</ele>
        <time>2014-10-02T07:00:52Z</time>
      </trkpt>
      <trkpt lat="42.4293850" lon="-7.3187370">
        <ele>928.7</ele>
        <time>2014-10-02T07:00:54Z</time>
      </trkpt>
      <trkpt lat="42.4293550" lon="-7.3187920">
        <ele>929.2</ele>
        <time>2014-10-02T07:00:56Z</time>
      </trkpt>
      <trkpt lat="42.4293380" lon="-7.3188210">
        <ele>929.5</ele>
        <time>2014-10-02T07:00:57Z</time>
      </trkpt>
      <trkpt lat="42.4293050" lon="-7.3188800">
        <ele>930.1</ele>
        <time>2014-10-02T07:00:59Z</time>
      </trkpt>
      <trkpt lat="42.4292750" lon="-7.3189280">
        <ele>930.7</ele>
        <time>2014-10-02T07:01:01Z</time>
      </trkpt>
      <trkpt lat="42.4292370" lon="-7.3189800">
        <ele>931.3</ele>
        <time>2014-10-02T07:01:03Z</time>
      </trkpt>
      <trkpt lat="42.4292170" lon="-7.3190080">
        <ele>931.7</ele>
        <time>2014-10-02T07:01:04Z</time>
      </trkpt>
      <trkpt lat="42.4291950" lon="-7.3190350">
        <ele>932.0</ele>
        <time>2014-10-02T07:01:05Z</time>
      </trkpt>
      <trkpt lat="42.4291740" lon="-7.3190630">
        <ele>932.4</ele>
        <time>2014-10-02T07:01:06Z</time>
      </trkpt>
      <trkpt lat="42.4291510" lon="-7.3190890">
        <ele>932.9</ele>
        <time>2014-10-02T07:01:07Z</time>
      </trkpt>
      <trkpt lat="42.4291290" lon="-7.3191140">
        <ele>933.3</ele>
        <time>2014-10-02T07:01:08Z</time>
      </trkpt>
      <trkpt lat="42.4290810" lon="-7.3191500">
        <ele>934.1</ele>
        <time>2014-10-02T07:01:10Z</time>
      </trkpt>
      <trkpt lat="42.4290360" lon="-7.3191780">
        <ele>934.8</ele>
        <time>2014-10-02T07:01:12Z</time>
      </trkpt>
      <trkpt lat="42.4289930" lon="-7.3191990">
        <ele>935.4</ele>
        <time>2014-10-02T07:01:14Z</time>
      </trkpt>
      <trkpt lat="42.4289580" lon="-7.3192180">
        <ele>935.9</ele>
        <time>2014-10-02T07:01:16Z</time>
      </trkpt>
      <trkpt lat="42.4289090" lon="-7.3192330">
        <ele>936.6</ele>
        <time>2014-10-02T07:01:18Z</time>
      </trkpt>
      <trkpt lat="42.4288780" lon="-7.3192400">
        <ele>937.0</ele>
        <time>2014-10-02T07:01:19Z</time>
      </trkpt>
      <trkpt lat="42.4288470" lon="-7.3192470">
        <ele>937.4</ele>
        <time>2014-10-02T07:01:20Z</time>
      </trkpt>
      <trkpt lat="42.4288180" lon="-7.3192540">
        <ele>937.8</ele>
        <time>2014-10-02T07:01:21Z</time>
      </trkpt>
      <trkpt lat="42.4287630" lon="-7.3192710">
        <ele>938.5</ele>
        <time>2014-10-02T07:01:23Z</time>
      </trkpt>
      <trkpt lat="42.4287350" lon="-7.3192780">
        <ele>938.9</ele>
        <time>2014-10-02T07:01:24Z</time>
      </trkpt>
      <trkpt lat="42.4286860" lon="-7.3192910">
        <ele>939.6</ele>
        <time>2014-10-02T07:01:26Z</time>
      </trkpt>
      <trkpt lat="42.4286570" lon="-7.3192970">
        <ele>939.9</ele>
        <time>2014-10-02T07:01:27Z</time>
      </trkpt>
      <trkpt lat="42.4286290" lon="-7.3193020">
        <ele>940.3</ele>
        <time>2014-10-02T07:01:28Z</time>
      </trkpt>
      <trkpt lat="42.4285770" lon="-7.3193130">
        <ele>940.9</ele>
        <time>2014-10-02T07:01:30Z</time>
      </trkpt>
      <trkpt lat="42.4285240" lon="-7.3193240">
        <ele>941.6</ele>
        <time>2014-10-02T07:01:32Z</time>
      </trkpt>
      <trkpt lat="42.4284720" lon="-7.3193380">
        <ele>942.2</ele>
        <time>2014-10-02T07:01:34Z</time>
      </trkpt>
      <trkpt lat="42.4284440" lon="-7.3193440">
        <ele>942.6</ele>
        <time>2014-10-02T07:01:35Z</time>
      </trkpt>
      <trkpt lat="42.4283910" lon="-7.3193550">
        <ele>943.2</ele>
        <time>2014-10-02T07:01:37Z</time>
      </trkpt>
      <trkpt lat="42.4283370" lon="-7.3193660">
        <ele>943.9</ele>
        <time>2014-10-02T07:01:39Z</time>
      </trkpt>
      <trkpt lat="42.4282930" lon="-7.3193770">
        <ele>944.4</ele>
        <time>2014-10-02T07:01:41Z</time>
      </trkpt>
      <trkpt lat="42.4282490" lon="-7.3193840">
        <ele>945.0</ele>
        <time>2014-10-02T07:01:43Z</time>
      </trkpt>
      <trkpt lat="42.4281960" lon="-7.3193940">
        <ele>945.7</ele>
        <time>2014-10-02T07:01:45Z</time>
      </trkpt>
      <trkpt lat="42.4281460" lon="-7.3194050">
        <ele>946.3</ele>
        <time>2014-10-02T07:01:47Z</time>
      </trkpt>
      <trkpt lat="42.4280970" lon="-7.3194080">
        <ele>946.9</ele>
        <time>2014-10-02T07:01:49Z</time>
      </trkpt>
      <trkpt lat="42.4280690" lon="-7.3194130">
        <ele>947.3</ele>
        <time>2014-10-02T07:01:50Z</time>
      </trkpt>
      <trkpt lat="42.4280220" lon="-7.3194160">
        <ele>947.9</ele>
        <time>2014-10-02T07:01:52Z</time>
      </trkpt>
      <trkpt lat="42.4279770" lon="-7.3194170">
        <ele>948.5</ele>
        <time>2014-10-02T07:01:54Z</time>
      </trkpt>
      <trkpt lat="42.4279330" lon="-7.3194210">
        <ele>949.1</ele>
        <time>2014-10-02T07:01:56Z</time>
      </trkpt>
      <trkpt lat="42.4278940" lon="-7.3194190">
        <ele>949.6</ele>
        <time>2014-10-02T07:01:58Z</time>
      </trkpt>
      <trkpt lat="42.4278500" lon="-7.3194200">
        <ele>950.2</ele>
        <time>2014-10-02T07:02:00Z</time>
      </trkpt>
      <trkpt lat="42.4278060" lon="-7.3194110">
        <ele>950.8</ele>
        <time>2014-10-02T07:02:02Z</time>
      </trkpt>
      <trkpt lat="42.4277620" lon="-7.3193930">
        <ele>951.4</ele>
        <time>2014-10-02T07:02:04Z</time>
      </trkpt>
      <trkpt lat="42.4277130" lon="-7.3193760">
        <ele>952.1</ele>
        <time>2014-10-02T07:02:06Z</time>
      </trkpt>
      <trkpt lat="42.4276850" lon="-7.3193670">
        <ele>952.5</ele>
        <time>2014-10-02T07:02:07Z</time>
      </trkpt>
      <trkpt lat="42.4276580" lon="-7.3193580">
        <ele>952.9</ele>
        <time>2014-10-02T07:02:08Z</time>
      </trkpt>
      <trkpt lat="42.4276310" lon="-7.3193450">
        <ele>953.3</ele>
        <time>2014-10-02T07:02:09Z</time>
      </trkpt>
      <trkpt lat="42.4276040" lon="-7.3193340">
        <ele>953.7</ele>
        <time>2014-10-02T07:02:10Z</time>
      </trkpt>
      <trkpt lat="42.4275540" lon="-7.3193060">
        <ele>954.4</ele>
        <time>2014-10-02T07:02:12Z</time>
      </trkpt>
      <trkpt lat="42.4275300" lon="-7.3192890">
        <ele>954.8</ele>
        <time>2014-10-02T07:02:13Z</time>
      </trkpt>
      <trkpt lat="42.4275030" lon="-7.3192750">
        <ele>955.2</ele>
        <time>2014-10-02T07:02:14Z</time>
      </trkpt>
      <trkpt lat="42.4274780" lon="-7.3192600">
        <ele>955.6</ele>
        <time>2014-10-02T07:02:15Z</time>
      </trkpt>
      <trkpt lat="42.4274500" lon="-7.3192400">
        <ele>956.0</ele>
        <time>2014-10-02T07:02:16Z</time>
      </trkpt>
      <trkpt lat="42.4274250" lon="-7.3192220">
        <ele>956.4</ele>
        <time>2014-10-02T07:02:17Z</time>
      </trkpt>
      <trkpt lat="42.4273870" lon="-7.3191840">
        <ele>957.1</ele>
        <time>2014-10-02T07:02:19Z</time>
      </trkpt>
      <trkpt lat="42.4273470" lon="-7.3191480">
        <ele>957.8</ele>
        <time>2014-10-02T07:02:21Z</time>
      </trkpt>
      <trkpt lat="42.4273090" lon="-7.3191110">
        <ele>958.4</ele>
        <time>2014-10-02T07:02:23Z</time>
      </trkpt>
      <trkpt lat="42.4272680" lon="-7.3190800">
        <ele>959.1</ele>
        <time>2014-10-02T07:02:25Z</time>
      </trkpt>
      <trkpt lat="42.4272440" lon="-7.3190630">
        <ele>959.4</ele>
        <time>2014-10-02T07:02:26Z</time>
      </trkpt>
      <trkpt lat="42.4272190" lon="-7.3190450">
        <ele>959.8</ele>
        <time>2014-10-02T07:02:27Z</time>
      </trkpt>
      <trkpt lat="42.4271950" lon="-7.3190250">
        <ele>960.2</ele>
        <time>2014-10-02T07:02:28Z</time>
      </trkpt>
      <trkpt lat="42.4271520" lon="-7.3189870">
        <ele>960.9</ele>
        <time>2014-10-02T07:02:30Z</time>
      </trkpt>
      <trkpt lat="42.4271110" lon="-7.3189510">
        <ele>961.5</ele>
        <time>2014-10-02T07:02:32Z</time>
      </trkpt>
      <trkpt lat="42.4270740" lon="-7.3189070">
        <ele>962.2</ele>
        <time>2014-10-02T07:02:34Z</time>
      </trkpt>
      <trkpt lat="42.4270360" lon="-7.3188560">
        <ele>962.9</ele>
        <time>2014-10-02T07:02:36Z</time>
      </trkpt>
      <trkpt lat="42.4270160" lon="-7.3188320">
        <ele>963.3</ele>
        <time>2014-10-02T07:02:37Z</time>
      </trkpt>
      <trkpt lat="42.4269780" lon="-7.3187780">
        <ele>964.0</ele>
        <time>2014-10-02T07:02:39Z</time>
      </trkpt>
      <trkpt lat="42.4269620" lon="-7.3187460">
        <ele>964.3</ele>
        <time>2014-10-02T07:02:40Z</time>
      </trkpt>
      <trkpt lat="42.4269450" lon="-7.3187130">
        <ele>964.7</ele>
        <time>2014-10-02T07:02:41Z</time>
      </trkpt>
      <trkpt lat="42.4269270" lon="-7.3186790">
        <ele>965.0</ele>
        <time>2014-10-02T07:02:42Z</time>
      </trkpt>
      <trkpt lat="42.4269100" lon="-7.3186440">
        <ele>965.4</ele>
        <time>2014-10-02T07:02:43Z</time>
      </trkpt>
      <trkpt lat="42.4268940" lon="-7.3186090">
        <ele>965.7</ele>
        <time>2014-10-02T07:02:44Z</time>
      </trkpt>
      <trkpt lat="42.4268800" lon="-7.3185760">
        <ele>966.0</ele>
        <time>2014-10-02T07:02:45Z</time>
      </trkpt>
      <trkpt lat="42.4268640" lon="-7.3185420">
        <ele>966.3</ele>
        <time>2014-10-02T07:02:46Z</time>
      </trkpt>
      <trkpt lat="42.4268480" lon="-7.3185100">
        <ele>966.6</ele>
        <time>2014-10-02T07:02:47Z</time>
      </trkpt>
      <trkpt lat="42.4268320" lon="-7.3184760">
        <ele>966.9</ele>
        <time>2014-10-02T07:02:48Z</time>
      </trkpt>
      <trkpt lat="42.4268190" lon="-7.3184420">
        <ele>967.1</ele>
        <time>2014-10-02T07:02:49Z</time>
      </trkpt>
      <trkpt lat="42.4268030" lon="-7.3184110">
        <ele>967.4</ele>
        <time>2014-10-02T07:02:50Z</time>
      </trkpt>
      <trkpt lat="42.4267880" lon="-7.3183780">
        <ele>967.6</ele>
        <time>2014-10-02T07:02:51Z</time>
      </trkpt>
      <trkpt lat="42.4267710" lon="-7.3183430">
        <ele>967.9</ele>
        <time>2014-10-02T07:02:52Z</time>
      </trkpt>
      <trkpt lat="42.4267510" lon="-7.3183080">
        <ele>968.2</ele>
        <time>2014-10-02T07:02:53Z</time>
      </trkpt>
      <trkpt lat="42.4267320" lon="-7.3182760">
        <ele>968.5</ele>
        <time>2014-10-02T07:02:54Z</time>
      </trkpt>
      <trkpt lat="42.4267130" lon="-7.3182460">
        <ele>968.8</ele>
        <time>2014-10-02T07:02:55Z</time>
      </trkpt>
      <trkpt lat="42.4266940" lon="-7.3182110">
        <ele>969.0</ele>
        <time>2014-10-02T07:02:56Z</time>
      </trkpt>
      <trkpt lat="42.4266770" lon="-7.3181780">
        <ele>969.3</ele>
        <time>2014-10-02T07:02:57Z</time>
      </trkpt>
      <trkpt lat="42.4266510" lon="-7.3181480">
        <ele>969.6</ele>
        <time>2014-10-02T07:02:58Z</time>
      </trkpt>
      <trkpt lat="42.4266260" lon="-7.3181180">
        <ele>969.9</ele>
        <time>2014-10-02T07:02:59Z</time>
      </trkpt>
      <trkpt lat="42.4265880" lon="-7.3180710">
        <ele>970.4</ele>
        <time>2014-10-02T07:03:01Z</time>
      </trkpt>
      <trkpt lat="42.4265640" lon="-7.3180490">
        <ele>970.6</ele>
        <time>2014-10-02T07:03:02Z</time>
      </trkpt>
      <trkpt lat="42.4265400" lon="-7.3180260">
        <ele>970.9</ele>
        <time>2014-10-02T07:03:03Z</time>
      </trkpt>
      <trkpt lat="42.4265110" lon="-7.3180060">
        <ele>971.2</ele>
        <time>2014-10-02T07:03:04Z</time>
      </trkpt>
      <trkpt lat="42.4264830" lon="-7.3179880">
        <ele>971.4</ele>
        <time>2014-10-02T07:03:05Z</time>
      </trkpt>
      <trkpt lat="42.4264500" lon="-7.3179690">
        <ele>971.7</ele>
        <time>2014-10-02T07:03:06Z</time>
      </trkpt>
      <trkpt lat="42.4264030" lon="-7.3179860">
        <ele>972.5</ele>
        <time>2014-10-02T07:03:08Z</time>
      </trkpt>
      <trkpt lat="42.4263790" lon="-7.3180430">
        <ele>972.6</ele>
        <time>2014-10-02T07:03:10Z</time>
      </trkpt>
      <trkpt lat="42.4263700" lon="-7.3180910">
        <ele>972.6</ele>
        <time>2014-10-02T07:03:11Z</time>
      </trkpt>
      <trkpt lat="42.4263670" lon="-7.3181370">
        <ele>972.7</ele>
        <time>2014-10-02T07:03:12Z</time>
      </trkpt>
      <trkpt lat="42.4263640" lon="-7.3181890">
        <ele>972.7</ele>
        <time>2014-10-02T07:03:13Z</time>
      </trkpt>
      <trkpt lat="42.4263620" lon="-7.3182310">
        <ele>972.7</ele>
        <time>2014-10-02T07:03:14Z</time>
      </trkpt>
      <trkpt lat="42.4263600" lon="-7.3182820">
        <ele>972.7</ele>
        <time>2014-10-02T07:03:15Z</time>
      </trkpt>
      <trkpt lat="42.4263590" lon="-7.3183380">
        <ele>972.8</ele>
        <time>2014-10-02T07:03:16Z</time>
      </trkpt>
      <trkpt lat="42.4263570" lon="-7.3183960">
        <ele>973.0</ele>
        <time>2014-10-02T07:03:17Z</time>
      </trkpt>
      <trkpt lat="42.4263580" lon="-7.3184520">
        <ele>973.1</ele>
        <time>2014-10-02T07:03:18Z</time>
      </trkpt>
      <trkpt lat="42.4263600" lon="-7.3185000">
        <ele>973.3</ele>
        <time>2014-10-02T07:03:19Z</time>
      </trkpt>
      <trkpt lat="42.4263620" lon="-7.3185480">
        <ele>973.5</ele>
        <time>2014-10-02T07:03:20Z</time>
      </trkpt>
      <trkpt lat="42.4263620" lon="-7.3186010">
        <ele>973.7</ele>
        <time>2014-10-02T07:03:21Z</time>
      </trkpt>
      <trkpt lat="42.4263610" lon="-7.3186500">
        <ele>973.9</ele>
        <time>2014-10-02T07:03:22Z</time>
      </trkpt>
      <trkpt lat="42.4263640" lon="-7.3186900">
        <ele>974.1</ele>
        <time>2014-10-02T07:03:23Z</time>
      </trkpt>
      <trkpt lat="42.4263630" lon="-7.3187430">
        <ele>974.3</ele>
        <time>2014-10-02T07:03:24Z</time>
      </trkpt>
      <trkpt lat="42.4263630" lon="-7.3187970">
        <ele>974.6</ele>
        <time>2014-10-02T07:03:25Z</time>
      </trkpt>
      <trkpt lat="42.4263630" lon="-7.3188520">
        <ele>974.9</ele>
        <time>2014-10-02T07:03:26Z</time>
      </trkpt>
      <trkpt lat="42.4263600" lon="-7.3188980">
        <ele>975.2</ele>
        <time>2014-10-02T07:03:27Z</time>
      </trkpt>
      <trkpt lat="42.4263610" lon="-7.3189460">
        <ele>975.4</ele>
        <time>2014-10-02T07:03:28Z</time>
      </trkpt>
      <trkpt lat="42.4263640" lon="-7.3189980">
        <ele>975.7</ele>
        <time>2014-10-02T07:03:29Z</time>
      </trkpt>
      <trkpt lat="42.4263660" lon="-7.3190360">
        <ele>975.9</ele>
        <time>2014-10-02T07:03:30Z</time>
      </trkpt>
      <trkpt lat="42.4263640" lon="-7.3190790">
        <ele>976.1</ele>
        <time>2014-10-02T07:03:31Z</time>
      </trkpt>
      <trkpt lat="42.4263640" lon="-7.3191310">
        <ele>976.4</ele>
        <time>2014-10-02T07:03:32Z</time>
      </trkpt>
      <trkpt lat="42.4263600" lon="-7.3191870">
        <ele>976.7</ele>
        <time>2014-10-02T07:03:33Z</time>
      </trkpt>
      <trkpt lat="42.4263550" lon="-7.3192300">
        <ele>976.9</ele>
        <time>2014-10-02T07:03:34Z</time>
      </trkpt>
      <trkpt lat="42.4263480" lon="-7.3192710">
        <ele>977.1</ele>
        <time>2014-10-02T07:03:35Z</time>
      </trkpt>
      <trkpt lat="42.4263410" lon="-7.3193170">
        <ele>977.4</ele>
        <time>2014-10-02T07:03:36Z</time>
      </trkpt>
      <trkpt lat="42.4263320" lon="-7.3193650">
        <ele>977.6</ele>
        <time>2014-10-02T07:03:37Z</time>
      </trkpt>
      <trkpt lat="42.4263220" lon="-7.3194130">
        <ele>977.9</ele>
        <time>2014-10-02T07:03:38Z</time>
      </trkpt>
      <trkpt lat="42.4263130" lon="-7.3194530">
        <ele>978.1</ele>
        <time>2014-10-02T07:03:39Z</time>
      </trkpt>
      <trkpt lat="42.4263010" lon="-7.3194940">
        <ele>978.3</ele>
        <time>2014-10-02T07:03:40Z</time>
      </trkpt>
      <trkpt lat="42.4262720" lon="-7.3195670">
        <ele>978.6</ele>
        <time>2014-10-02T07:03:42Z</time>
      </trkpt>
      <trkpt lat="42.4262540" lon="-7.3196160">
        <ele>978.8</ele>
        <time>2014-10-02T07:03:43Z</time>
      </trkpt>
      <trkpt lat="42.4262340" lon="-7.3196610">
        <ele>978.9</ele>
        <time>2014-10-02T07:03:44Z</time>
      </trkpt>
      <trkpt lat="42.4262110" lon="-7.3197150">
        <ele>979.1</ele>
        <time>2014-10-02T07:03:45Z</time>
      </trkpt>
      <trkpt lat="42.4261880" lon="-7.3197720">
        <ele>979.2</ele>
        <time>2014-10-02T07:03:46Z</time>
      </trkpt>
      <trkpt lat="42.4261660" lon="-7.3198290">
        <ele>979.3</ele>
        <time>2014-10-02T07:03:47Z</time>
      </trkpt>
      <trkpt lat="42.4261430" lon="-7.3198870">
        <ele>979.4</ele>
        <time>2014-10-02T07:03:48Z</time>
      </trkpt>
      <trkpt lat="42.4261180" lon="-7.3199490">
        <ele>979.6</ele>
        <time>2014-10-02T07:03:49Z</time>
      </trkpt>
      <trkpt lat="42.4260970" lon="-7.3200070">
        <ele>979.7</ele>
        <time>2014-10-02T07:03:50Z</time>
      </trkpt>
      <trkpt lat="42.4260780" lon="-7.3200610">
        <ele>979.8</ele>
        <time>2014-10-02T07:03:51Z</time>
      </trkpt>
      <trkpt lat="42.4260590" lon="-7.3201180">
        <ele>979.8</ele>
        <time>2014-10-02T07:03:52Z</time>
      </trkpt>
      <trkpt lat="42.4260390" lon="-7.3201710">
        <ele>979.8</ele>
        <time>2014-10-02T07:03:53Z</time>
      </trkpt>
      <trkpt lat="42.4260190" lon="-7.3202290">
        <ele>979.8</ele>
        <time>2014-10-02T07:03:54Z</time>
      </trkpt>
      <trkpt lat="42.4259950" lon="-7.3202860">
        <ele>979.8</ele>
        <time>2014-10-02T07:03:55Z</time>
      </trkpt>
      <trkpt lat="42.4259720" lon="-7.3203510">
        <ele>979.9</ele>
        <time>2014-10-02T07:03:56Z</time>
      </trkpt>
      <trkpt lat="42.4259480" lon="-7.3204170">
        <ele>979.9</ele>
        <time>2014-10-02T07:03:57Z</time>
      </trkpt>
      <trkpt lat="42.4259240" lon="-7.3204810">
        <ele>980.0</ele>
        <time>2014-10-02T07:03:58Z</time>
      </trkpt>
      <trkpt lat="42.4259000" lon="-7.3205410">
        <ele>980.0</ele>
        <time>2014-10-02T07:03:59Z</time>
      </trkpt>
      <trkpt lat="42.4258730" lon="-7.3206020">
        <ele>980.0</ele>
        <time>2014-10-02T07:04:00Z</time>
      </trkpt>
      <trkpt lat="42.4258460" lon="-7.3206620">
        <ele>979.9</ele>
        <time>2014-10-02T07:04:01Z</time>
      </trkpt>
      <trkpt lat="42.4258210" lon="-7.3207240">
        <ele>979.9</ele>
        <time>2014-10-02T07:04:02Z</time>
      </trkpt>
      <trkpt lat="42.4257940" lon="-7.3207890">
        <ele>979.8</ele>
        <time>2014-10-02T07:04:03Z</time>
      </trkpt>
      <trkpt lat="42.4257660" lon="-7.3208560">
        <ele>979.7</ele>
        <time>2014-10-02T07:04:04Z</time>
      </trkpt>
      <trkpt lat="42.4257370" lon="-7.3209240">
        <ele>979.6</ele>
        <time>2014-10-02T07:04:05Z</time>
      </trkpt>
      <trkpt lat="42.4257090" lon="-7.3209970">
        <ele>979.5</ele>
        <time>2014-10-02T07:04:06Z</time>
      </trkpt>
      <trkpt lat="42.4256810" lon="-7.3210680">
        <ele>979.4</ele>
        <time>2014-10-02T07:04:07Z</time>
      </trkpt>
      <trkpt lat="42.4256520" lon="-7.3211420">
        <ele>979.3</ele>
        <time>2014-10-02T07:04:08Z</time>
      </trkpt>
      <trkpt lat="42.4256220" lon="-7.3212190">
        <ele>979.1</ele>
        <time>2014-10-02T07:04:09Z</time>
      </trkpt>
      <trkpt lat="42.4255900" lon="-7.3212960">
        <ele>979.0</ele>
        <time>2014-10-02T07:04:10Z</time>
      </trkpt>
      <trkpt lat="42.4255570" lon="-7.3213750">
        <ele>979.0</ele>
        <time>2014-10-02T07:04:11Z</time>
      </trkpt>
      <trkpt lat="42.4255250" lon="-7.3214550">
        <ele>978.8</ele>
        <time>2014-10-02T07:04:12Z</time>
      </trkpt>
      <trkpt lat="42.4254930" lon="-7.3215380">
        <ele>978.6</ele>
        <time>2014-10-02T07:04:13Z</time>
      </trkpt>
      <trkpt lat="42.4254590" lon="-7.3216270">
        <ele>978.3</ele>
        <time>2014-10-02T07:04:14Z</time>
      </trkpt>
      <trkpt lat="42.4254220" lon="-7.3217160">
        <ele>978.1</ele>
        <time>2014-10-02T07:04:15Z</time>
      </trkpt>
      <trkpt lat="42.4253850" lon="-7.3218050">
        <ele>978.0</ele>
        <time>2014-10-02T07:04:16Z</time>
      </trkpt>
      <trkpt lat="42.4253520" lon="-7.3218930">
        <ele>977.9</ele>
        <time>2014-10-02T07:04:17Z</time>
      </trkpt>
      <trkpt lat="42.4253150" lon="-7.3219890">
        <ele>977.8</ele>
        <time>2014-10-02T07:04:18Z</time>
      </trkpt>
      <trkpt lat="42.4252810" lon="-7.3220800">
        <ele>977.6</ele>
        <time>2014-10-02T07:04:19Z</time>
      </trkpt>
      <trkpt lat="42.4252450" lon="-7.3221710">
        <ele>977.5</ele>
        <time>2014-10-02T07:04:20Z</time>
      </trkpt>
      <trkpt lat="42.4252100" lon="-7.3222610">
        <ele>977.4</ele>
        <time>2014-10-02T07:04:21Z</time>
      </trkpt>
      <trkpt lat="42.4251760" lon="-7.3223510">
        <ele>977.4</ele>
        <time>2014-10-02T07:04:22Z</time>
      </trkpt>
      <trkpt lat="42.4251430" lon="-7.3224400">
        <ele>977.3</ele>
        <time>2014-10-02T07:04:23Z</time>
      </trkpt>
      <trkpt lat="42.4251090" lon="-7.3225290">
        <ele>977.1</ele>
        <time>2014-10-02T07:04:24Z</time>
      </trkpt>
      <trkpt lat="42.4250730" lon="-7.3226170">
        <ele>976.9</ele>
        <time>2014-10-02T07:04:25Z</time>
      </trkpt>
      <trkpt lat="42.4250330" lon="-7.3227040">
        <ele>976.7</ele>
        <time>2014-10-02T07:04:26Z</time>
      </trkpt>
      <trkpt lat="42.4249910" lon="-7.3227870">
        <ele>976.4</ele>
        <time>2014-10-02T07:04:27Z</time>
      </trkpt>
      <trkpt lat="42.4249440" lon="-7.3228650">
        <ele>976.1</ele>
        <time>2014-10-02T07:04:28Z</time>
      </trkpt>
      <trkpt lat="42.4248830" lon="-7.3229240">
        <ele>975.7</ele>
        <time>2014-10-02T07:04:29Z</time>
      </trkpt>
      <trkpt lat="42.4248210" lon="-7.3229780">
        <ele>975.7</ele>
        <time>2014-10-02T07:04:30Z</time>
      </trkpt>
      <trkpt lat="42.4247530" lon="-7.3230080">
        <ele>976.9</ele>
        <time>2014-10-02T07:04:31Z</time>
      </trkpt>
      <trkpt lat="42.4246850" lon="-7.3230330">
        <ele>977.5</ele>
        <time>2014-10-02T07:04:32Z</time>
      </trkpt>
      <trkpt lat="42.4246180" lon="-7.3230530">
        <ele>977.8</ele>
        <time>2014-10-02T07:04:33Z</time>
      </trkpt>
      <trkpt lat="42.4245520" lon="-7.3230710">
        <ele>978.1</ele>
        <time>2014-10-02T07:04:34Z</time>
      </trkpt>
      <trkpt lat="42.4244920" lon="-7.3230850">
        <ele>978.4</ele>
        <time>2014-10-02T07:04:35Z</time>
      </trkpt>
      <trkpt lat="42.4244340" lon="-7.3230980">
        <ele>978.7</ele>
        <time>2014-10-02T07:04:36Z</time>
      </trkpt>
      <trkpt lat="42.4243780" lon="-7.3231110">
        <ele>979.0</ele>
        <time>2014-10-02T07:04:37Z</time>
      </trkpt>
      <trkpt lat="42.4243290" lon="-7.3231230">
        <ele>979.3</ele>
        <time>2014-10-02T07:04:38Z</time>
      </trkpt>
      <trkpt lat="42.4242830" lon="-7.3231400">
        <ele>979.7</ele>
        <time>2014-10-02T07:04:39Z</time>
      </trkpt>
      <trkpt lat="42.4242370" lon="-7.3231630">
        <ele>980.0</ele>
        <time>2014-10-02T07:04:40Z</time>
      </trkpt>
      <trkpt lat="42.4242010" lon="-7.3231940">
        <ele>980.2</ele>
        <time>2014-10-02T07:04:41Z</time>
      </trkpt>
      <trkpt lat="42.4241650" lon="-7.3232300">
        <ele>980.4</ele>
        <time>2014-10-02T07:04:42Z</time>
      </trkpt>
      <trkpt lat="42.4241390" lon="-7.3232710">
        <ele>980.5</ele>
        <time>2014-10-02T07:04:43Z</time>
      </trkpt>
      <trkpt lat="42.4241120" lon="-7.3233170">
        <ele>980.7</ele>
        <time>2014-10-02T07:04:44Z</time>
      </trkpt>
      <trkpt lat="42.4240900" lon="-7.3233600">
        <ele>980.8</ele>
        <time>2014-10-02T07:04:45Z</time>
      </trkpt>
      <trkpt lat="42.4240660" lon="-7.3234090">
        <ele>980.9</ele>
        <time>2014-10-02T07:04:46Z</time>
      </trkpt>
      <trkpt lat="42.4240410" lon="-7.3234630">
        <ele>981.0</ele>
        <time>2014-10-02T07:04:47Z</time>
      </trkpt>
      <trkpt lat="42.4240170" lon="-7.3235180">
        <ele>981.1</ele>
        <time>2014-10-02T07:04:48Z</time>
      </trkpt>
      <trkpt lat="42.4239950" lon="-7.3235730">
        <ele>981.1</ele>
        <time>2014-10-02T07:04:49Z</time>
      </trkpt>
      <trkpt lat="42.4239720" lon="-7.3236270">
        <ele>981.1</ele>
        <time>2014-10-02T07:04:50Z</time>
      </trkpt>
      <trkpt lat="42.4239520" lon="-7.3236720">
        <ele>981.1</ele>
        <time>2014-10-02T07:04:51Z</time>
      </trkpt>
      <trkpt lat="42.4239280" lon="-7.3237290">
        <ele>981.2</ele>
        <time>2014-10-02T07:04:52Z</time>
      </trkpt>
      <trkpt lat="42.4238980" lon="-7.3237920">
        <ele>981.2</ele>
        <time>2014-10-02T07:04:53Z</time>
      </trkpt>
      <trkpt lat="42.4238660" lon="-7.3238550">
        <ele>981.2</ele>
        <time>2014-10-02T07:04:54Z</time>
      </trkpt>
      <trkpt lat="42.4238330" lon="-7.3239210">
        <ele>981.1</ele>
        <time>2014-10-02T07:04:55Z</time>
      </trkpt>
      <trkpt lat="42.4238030" lon="-7.3239900">
        <ele>981.0</ele>
        <time>2014-10-02T07:04:56Z</time>
      </trkpt>
      <trkpt lat="42.4237750" lon="-7.3240610">
        <ele>980.9</ele>
        <time>2014-10-02T07:04:57Z</time>
      </trkpt>
      <trkpt lat="42.4237480" lon="-7.3241330">
        <ele>980.7</ele>
        <time>2014-10-02T07:04:58Z</time>
      </trkpt>
      <trkpt lat="42.4237250" lon="-7.3242000">
        <ele>980.7</ele>
        <time>2014-10-02T07:04:59Z</time>
      </trkpt>
      <trkpt lat="42.4237020" lon="-7.3242650">
        <ele>980.7</ele>
        <time>2014-10-02T07:05:00Z</time>
      </trkpt>
      <trkpt lat="42.4236820" lon="-7.3243250">
        <ele>980.7</ele>
        <time>2014-10-02T07:05:01Z</time>
      </trkpt>
      <trkpt lat="42.4236600" lon="-7.3243890">
        <ele>980.7</ele>
        <time>2014-10-02T07:05:02Z</time>
      </trkpt>
      <trkpt lat="42.4236380" lon="-7.3244560">
        <ele>980.8</ele>
        <time>2014-10-02T07:05:03Z</time>
      </trkpt>
      <trkpt lat="42.4236170" lon="-7.3245240">
        <ele>980.7</ele>
        <time>2014-10-02T07:05:04Z</time>
      </trkpt>
      <trkpt lat="42.4235960" lon="-7.3245980">
        <ele>980.6</ele>
        <time>2014-10-02T07:05:05Z</time>
      </trkpt>
      <trkpt lat="42.4235780" lon="-7.3246750">
        <ele>980.4</ele>
        <time>2014-10-02T07:05:06Z</time>
      </trkpt>
      <trkpt lat="42.4235630" lon="-7.3247520">
        <ele>980.3</ele>
        <time>2014-10-02T07:05:07Z</time>
      </trkpt>
      <trkpt lat="42.4235510" lon="-7.3248330">
        <ele>980.2</ele>
        <time>2014-10-02T07:05:08Z</time>
      </trkpt>
      <trkpt lat="42.4235410" lon="-7.3249100">
        <ele>980.2</ele>
        <time>2014-10-02T07:05:09Z</time>
      </trkpt>
      <trkpt lat="42.4235340" lon="-7.3249840">
        <ele>980.1</ele>
        <time>2014-10-02T07:05:10Z</time>
      </trkpt>
      <trkpt lat="42.4235260" lon="-7.3250630">
        <ele>980.0</ele>
        <time>2014-10-02T07:05:11Z</time>
      </trkpt>
      <trkpt lat="42.4235140" lon="-7.3251480">
        <ele>979.8</ele>
        <time>2014-10-02T07:05:12Z</time>
      </trkpt>
      <trkpt lat="42.4235060" lon="-7.3252320">
        <ele>979.7</ele>
        <time>2014-10-02T07:05:13Z</time>
      </trkpt>
      <trkpt lat="42.4234980" lon="-7.3253130">
        <ele>979.6</ele>
        <time>2014-10-02T07:05:14Z</time>
      </trkpt>
      <trkpt lat="42.4234900" lon="-7.3253980">
        <ele>979.6</ele>
        <time>2014-10-02T07:05:15Z</time>
      </trkpt>
      <trkpt lat="42.4234830" lon="-7.3254840">
        <ele>979.4</ele>
        <time>2014-10-02T07:05:16Z</time>
      </trkpt>
      <trkpt lat="42.4234760" lon="-7.3255710">
        <ele>979.2</ele>
        <time>2014-10-02T07:05:17Z</time>
      </trkpt>
      <trkpt lat="42.4234700" lon="-7.3256590">
        <ele>979.1</ele>
        <time>2014-10-02T07:05:18Z</time>
      </trkpt>
      <trkpt lat="42.4234610" lon="-7.3257500">
        <ele>978.9</ele>
        <time>2014-10-02T07:05:19Z</time>
      </trkpt>
      <trkpt lat="42.4234530" lon="-7.3258430">
        <ele>978.8</ele>
        <time>2014-10-02T07:05:20Z</time>
      </trkpt>
      <trkpt lat="42.4234440" lon="-7.3259360">
        <ele>978.6</ele>
        <time>2014-10-02T07:05:21Z</time>
      </trkpt>
      <trkpt lat="42.4234350" lon="-7.3260320">
        <ele>978.4</ele>
        <time>2014-10-02T07:05:22Z</time>
      </trkpt>
      <trkpt lat="42.4234250" lon="-7.3261240">
        <ele>978.2</ele>
        <time>2014-10-02T07:05:23Z</time>
      </trkpt>
      <trkpt lat="42.4234140" lon="-7.3262190">
        <ele>978.1</ele>
        <time>2014-10-02T07:05:24Z</time>
      </trkpt>
      <trkpt lat="42.4234030" lon="-7.3263130">
        <ele>978.0</ele>
        <time>2014-10-02T07:05:25Z</time>
      </trkpt>
      <trkpt lat="42.4233900" lon="-7.3264070">
        <ele>977.8</ele>
        <time>2014-10-02T07:05:26Z</time>
      </trkpt>
      <trkpt lat="42.4233740" lon="-7.3265040">
        <ele>977.6</ele>
        <time>2014-10-02T07:05:27Z</time>
      </trkpt>
      <trkpt lat="42.4233540" lon="-7.3266010">
        <ele>977.4</ele>
        <time>2014-10-02T07:05:28Z</time>
      </trkpt>
      <trkpt lat="42.4233300" lon="-7.3266950">
        <ele>977.2</ele>
        <time>2014-10-02T07:05:29Z</time>
      </trkpt>
      <trkpt lat="42.4232880" lon="-7.3267840">
        <ele>977.1</ele>
        <time>2014-10-02T07:05:30Z</time>
      </trkpt>
      <trkpt lat="42.4232410" lon="-7.3268720">
        <ele>976.9</ele>
        <time>2014-10-02T07:05:31Z</time>
      </trkpt>
      <trkpt lat="42.4231710" lon="-7.3269350">
        <ele>976.6</ele>
        <time>2014-10-02T07:05:32Z</time>
      </trkpt>
      <trkpt lat="42.4230970" lon="-7.3269900">
        <ele>976.2</ele>
        <time>2014-10-02T07:05:33Z</time>
      </trkpt>
      <trkpt lat="42.4230180" lon="-7.3270190">
        <ele>975.8</ele>
        <time>2014-10-02T07:05:34Z</time>
      </trkpt>
      <trkpt lat="42.4229390" lon="-7.3270440">
        <ele>975.5</ele>
        <time>2014-10-02T07:05:35Z</time>
      </trkpt>
      <trkpt lat="42.4228560" lon="-7.3270660">
        <ele>975.2</ele>
        <time>2014-10-02T07:05:36Z</time>
      </trkpt>
      <trkpt lat="42.4227730" lon="-7.3270820">
        <ele>974.9</ele>
        <time>2014-10-02T07:05:37Z</time>
      </trkpt>
      <trkpt lat="42.4226880" lon="-7.3270970">
        <ele>974.4</ele>
        <time>2014-10-02T07:05:38Z</time>
      </trkpt>
      <trkpt lat="42.4225990" lon="-7.3271120">
        <ele>973.9</ele>
        <time>2014-10-02T07:05:39Z</time>
      </trkpt>
      <trkpt lat="42.4225060" lon="-7.3271270">
        <ele>973.5</ele>
        <time>2014-10-02T07:05:40Z</time>
      </trkpt>
      <trkpt lat="42.4224130" lon="-7.3271420">
        <ele>973.1</ele>
        <time>2014-10-02T07:05:41Z</time>
      </trkpt>
      <trkpt lat="42.4223180" lon="-7.3271540">
        <ele>972.6</ele>
        <time>2014-10-02T07:05:42Z</time>
      </trkpt>
      <trkpt lat="42.4222240" lon="-7.3271610">
        <ele>972.1</ele>
        <time>2014-10-02T07:05:43Z</time>
      </trkpt>
      <trkpt lat="42.4221250" lon="-7.3271630">
        <ele>971.6</ele>
        <time>2014-10-02T07:05:44Z</time>
      </trkpt>
      <trkpt lat="42.4220230" lon="-7.3271640">
        <ele>971.0</ele>
        <time>2014-10-02T07:05:45Z</time>
      </trkpt>
      <trkpt lat="42.4219190" lon="-7.3271650">
        <ele>970.4</ele>
        <time>2014-10-02T07:05:46Z</time>
      </trkpt>
      <trkpt lat="42.4218150" lon="-7.3271660">
        <ele>969.6</ele>
        <time>2014-10-02T07:05:47Z</time>
      </trkpt>
      <trkpt lat="42.4217070" lon="-7.3271680">
        <ele>968.8</ele>
        <time>2014-10-02T07:05:48Z</time>
      </trkpt>
      <trkpt lat="42.4215960" lon="-7.3271780">
        <ele>968.2</ele>
        <time>2014-10-02T07:05:49Z</time>
      </trkpt>
      <trkpt lat="42.4214830" lon="-7.3271950">
        <ele>967.9</ele>
        <time>2014-10-02T07:05:50Z</time>
      </trkpt>
      <trkpt lat="42.4213700" lon="-7.3272170">
        <ele>967.7</ele>
        <time>2014-10-02T07:05:51Z</time>
      </trkpt>
      <trkpt lat="42.4212620" lon="-7.3272390">
        <ele>967.6</ele>
        <time>2014-10-02T07:05:52Z</time>
      </trkpt>
      <trkpt lat="42.4211580" lon="-7.3272590">
        <ele>967.6</ele>
        <time>2014-10-02T07:05:53Z</time>
      </trkpt>
      <trkpt lat="42.4210550" lon="-7.3272830">
        <ele>967.5</ele>
        <time>2014-10-02T07:05:54Z</time>
      </trkpt>
      <trkpt lat="42.4209560" lon="-7.3273080">
        <ele>967.5</ele>
        <time>2014-10-02T07:05:55Z</time>
      </trkpt>
      <trkpt lat="42.4208590" lon="-7.3273340">
        <ele>967.7</ele>
        <time>2014-10-02T07:05:56Z</time>
      </trkpt>
      <trkpt lat="42.4207720" lon="-7.3273600">
        <ele>967.8</ele>
        <time>2014-10-02T07:05:57Z</time>
      </trkpt>
      <trkpt lat="42.4206820" lon="-7.3273930">
        <ele>967.9</ele>
        <time>2014-10-02T07:05:58Z</time>
      </trkpt>
      <trkpt lat="42.4205940" lon="-7.3274310">
        <ele>967.9</ele>
        <time>2014-10-02T07:05:59Z</time>
      </trkpt>
      <trkpt lat="42.4205120" lon="-7.3274720">
        <ele>967.8</ele>
        <time>2014-10-02T07:06:00Z</time>
      </trkpt>
      <trkpt lat="42.4204310" lon="-7.3275210">
        <ele>967.7</ele>
        <time>2014-10-02T07:06:01Z</time>
      </trkpt>
      <trkpt lat="42.4203540" lon="-7.3275800">
        <ele>967.7</ele>
        <time>2014-10-02T07:06:02Z</time>
      </trkpt>
      <trkpt lat="42.4202820" lon="-7.3276410">
        <ele>967.7</ele>
        <time>2014-10-02T07:06:03Z</time>
      </trkpt>
      <trkpt lat="42.4202150" lon="-7.3277020">
        <ele>967.7</ele>
        <time>2014-10-02T07:06:04Z</time>
      </trkpt>
      <trkpt lat="42.4201480" lon="-7.3277650">
        <ele>967.6</ele>
        <time>2014-10-02T07:06:05Z</time>
      </trkpt>
      <trkpt lat="42.4200820" lon="-7.3278290">
        <ele>967.6</ele>
        <time>2014-10-02T07:06:06Z</time>
      </trkpt>
      <trkpt lat="42.4200160" lon="-7.3278930">
        <ele>967.7</ele>
        <time>2014-10-02T07:06:07Z</time>
      </trkpt>
      <trkpt lat="42.4199500" lon="-7.3279600">
        <ele>967.6</ele>
        <time>2014-10-02T07:06:08Z</time>
      </trkpt>
      <trkpt lat="42.4198880" lon="-7.3280220">
        <ele>967.6</ele>
        <time>2014-10-02T07:06:09Z</time>
      </trkpt>
      <trkpt lat="42.4198300" lon="-7.3280840">
        <ele>967.5</ele>
        <time>2014-10-02T07:06:10Z</time>
      </trkpt>
      <trkpt lat="42.4197770" lon="-7.3281430">
        <ele>967.4</ele>
        <time>2014-10-02T07:06:11Z</time>
      </trkpt>
      <trkpt lat="42.4197250" lon="-7.3282040">
        <ele>967.3</ele>
        <time>2014-10-02T07:06:12Z</time>
      </trkpt>
      <trkpt lat="42.4196720" lon="-7.3282670">
        <ele>967.2</ele>
        <time>2014-10-02T07:06:13Z</time>
      </trkpt>
      <trkpt lat="42.4196200" lon="-7.3283300">
        <ele>967.1</ele>
        <time>2014-10-02T07:06:14Z</time>
      </trkpt>
      <trkpt lat="42.4195670" lon="-7.3283940">
        <ele>967.0</ele>
        <time>2014-10-02T07:06:15Z</time>
      </trkpt>
      <trkpt lat="42.4195150" lon="-7.3284600">
        <ele>966.8</ele>
        <time>2014-10-02T07:06:16Z</time>
      </trkpt>
      <trkpt lat="42.4194680" lon="-7.3285240">
        <ele>966.6</ele>
        <time>2014-10-02T07:06:17Z</time>
      </trkpt>
      <trkpt lat="42.4194210" lon="-7.3285900">
        <ele>966.4</ele>
        <time>2014-10-02T07:06:18Z</time>
      </trkpt>
      <trkpt lat="42.4193750" lon="-7.3286600">
        <ele>966.2</ele>
        <time>2014-10-02T07:06:19Z</time>
      </trkpt>
      <trkpt lat="42.4193310" lon="-7.3287340">
        <ele>965.9</ele>
        <time>2014-10-02T07:06:20Z</time>
      </trkpt>
      <trkpt lat="42.4192880" lon="-7.3288150">
        <ele>965.6</ele>
        <time>2014-10-02T07:06:21Z</time>
      </trkpt>
      <trkpt lat="42.4192460" lon="-7.3289000">
        <ele>965.3</ele>
        <time>2014-10-02T07:06:22Z</time>
      </trkpt>
      <trkpt lat="42.4192030" lon="-7.3289920">
        <ele>964.9</ele>
        <time>2014-10-02T07:06:23Z</time>
      </trkpt>
      <trkpt lat="42.4191600" lon="-7.3290890">
        <ele>964.4</ele>
        <time>2014-10-02T07:06:24Z</time>
      </trkpt>
      <trkpt lat="42.4191190" lon="-7.3291880">
        <ele>964.0</ele>
        <time>2014-10-02T07:06:25Z</time>
      </trkpt>
      <trkpt lat="42.4190800" lon="-7.3292920">
        <ele>963.5</ele>
        <time>2014-10-02T07:06:26Z</time>
      </trkpt>
      <trkpt lat="42.4190400" lon="-7.3293970">
        <ele>963.0</ele>
        <time>2014-10-02T07:06:27Z</time>
      </trkpt>
      <trkpt lat="42.4190010" lon="-7.3295030">
        <ele>962.6</ele>
        <time>2014-10-02T07:06:28Z</time>
      </trkpt>
      <trkpt lat="42.4189630" lon="-7.3296110">
        <ele>962.1</ele>
        <time>2014-10-02T07:06:29Z</time>
      </trkpt>
      <trkpt lat="42.4189240" lon="-7.3297250">
        <ele>961.7</ele>
        <time>2014-10-02T07:06:30Z</time>
      </trkpt>
      <trkpt lat="42.4188890" lon="-7.3298410">
        <ele>961.4</ele>
        <time>2014-10-02T07:06:31Z</time>
      </trkpt>
      <trkpt lat="42.4188550" lon="-7.3299620">
        <ele>961.0</ele>
        <time>2014-10-02T07:06:32Z</time>
      </trkpt>
      <trkpt lat="42.4188240" lon="-7.3300810">
        <ele>962.4</ele>
        <time>2014-10-02T07:06:33Z</time>
      </trkpt>
      <trkpt lat="42.4187940" lon="-7.3302110">
        <ele>962.7</ele>
        <time>2014-10-02T07:06:34Z</time>
      </trkpt>
      <trkpt lat="42.4187730" lon="-7.3303210">
        <ele>962.2</ele>
        <time>2014-10-02T07:06:35Z</time>
      </trkpt>
      <trkpt lat="42.4187520" lon="-7.3304410">
        <ele>961.6</ele>
        <time>2014-10-02T07:06:36Z</time>
      </trkpt>
      <trkpt lat="42.4187280" lon="-7.3305750">
        <ele>960.9</ele>
        <time>2014-10-02T07:06:37Z</time>
      </trkpt>
      <trkpt lat="42.4187030" lon="-7.3307200">
        <ele>960.2</ele>
        <time>2014-10-02T07:06:38Z</time>
      </trkpt>
      <trkpt lat="42.4186730" lon="-7.3308600">
        <ele>959.6</ele>
        <time>2014-10-02T07:06:39Z</time>
      </trkpt>
      <trkpt lat="42.4186370" lon="-7.3309940">
        <ele>959.1</ele>
        <time>2014-10-02T07:06:40Z</time>
      </trkpt>
      <trkpt lat="42.4185750" lon="-7.3311100">
        <ele>958.9</ele>
        <time>2014-10-02T07:06:41Z</time>
      </trkpt>
      <trkpt lat="42.4185090" lon="-7.3312150">
        <ele>958.8</ele>
        <time>2014-10-02T07:06:42Z</time>
      </trkpt>
      <trkpt lat="42.4184240" lon="-7.3312750">
        <ele>958.6</ele>
        <time>2014-10-02T07:06:43Z</time>
      </trkpt>
      <trkpt lat="42.4183370" lon="-7.3313210">
        <ele>958.4</ele>
        <time>2014-10-02T07:06:44Z</time>
      </trkpt>
      <trkpt lat="42.4182420" lon="-7.3313150">
        <ele>958.2</ele>
        <time>2014-10-02T07:06:45Z</time>
      </trkpt>
      <trkpt lat="42.4181530" lon="-7.3313110">
        <ele>958.1</ele>
        <time>2014-10-02T07:06:46Z</time>
      </trkpt>
      <trkpt lat="42.4180680" lon="-7.3312970">
        <ele>958.0</ele>
        <time>2014-10-02T07:06:47Z</time>
      </trkpt>
      <trkpt lat="42.4179810" lon="-7.3312820">
        <ele>958.0</ele>
        <time>2014-10-02T07:06:48Z</time>
      </trkpt>
      <trkpt lat="42.4178890" lon="-7.3312660">
        <ele>958.0</ele>
        <time>2014-10-02T07:06:49Z</time>
      </trkpt>
      <trkpt lat="42.4177980" lon="-7.3312590">
        <ele>958.1</ele>
        <time>2014-10-02T07:06:50Z</time>
      </trkpt>
      <trkpt lat="42.4177090" lon="-7.3312620">
        <ele>958.2</ele>
        <time>2014-10-02T07:06:51Z</time>
      </trkpt>
      <trkpt lat="42.4176280" lon="-7.3312750">
        <ele>958.3</ele>
        <time>2014-10-02T07:06:52Z</time>
      </trkpt>
      <trkpt lat="42.4175500" lon="-7.3312950">
        <ele>958.4</ele>
        <time>2014-10-02T07:06:53Z</time>
      </trkpt>
      <trkpt lat="42.4174800" lon="-7.3313180">
        <ele>958.4</ele>
        <time>2014-10-02T07:06:54Z</time>
      </trkpt>
      <trkpt lat="42.4174130" lon="-7.3313430">
        <ele>958.3</ele>
        <time>2014-10-02T07:06:55Z</time>
      </trkpt>
      <trkpt lat="42.4173450" lon="-7.3313710">
        <ele>958.2</ele>
        <time>2014-10-02T07:06:56Z</time>
      </trkpt>
      <trkpt lat="42.4172780" lon="-7.3313990">
        <ele>958.1</ele>
        <time>2014-10-02T07:06:57Z</time>
      </trkpt>
      <trkpt lat="42.4172140" lon="-7.3314270">
        <ele>958.1</ele>
        <time>2014-10-02T07:06:58Z</time>
      </trkpt>
      <trkpt lat="42.4171530" lon="-7.3314540">
        <ele>958.1</ele>
        <time>2014-10-02T07:06:59Z</time>
      </trkpt>
      <trkpt lat="42.4170960" lon="-7.3314790">
        <ele>957.9</ele>
        <time>2014-10-02T07:07:00Z</time>
      </trkpt>
      <trkpt lat="42.4170390" lon="-7.3315040">
        <ele>957.8</ele>
        <time>2014-10-02T07:07:01Z</time>
      </trkpt>
      <trkpt lat="42.4169800" lon="-7.3315300">
        <ele>957.7</ele>
        <time>2014-10-02T07:07:02Z</time>
      </trkpt>
      <trkpt lat="42.4169160" lon="-7.3315590">
        <ele>957.7</ele>
        <time>2014-10-02T07:07:03Z</time>
      </trkpt>
      <trkpt lat="42.4168490" lon="-7.3315880">
        <ele>957.7</ele>
        <time>2014-10-02T07:07:04Z</time>
      </trkpt>
      <trkpt lat="42.4167830" lon="-7.3316160">
        <ele>957.5</ele>
        <time>2014-10-02T07:07:05Z</time>
      </trkpt>
      <trkpt lat="42.4167220" lon="-7.3316470">
        <ele>957.3</ele>
        <time>2014-10-02T07:07:06Z</time>
      </trkpt>
      <trkpt lat="42.4166630" lon="-7.3316830">
        <ele>957.1</ele>
        <time>2014-10-02T07:07:07Z</time>
      </trkpt>
      <trkpt lat="42.4166110" lon="-7.3317340">
        <ele>956.8</ele>
        <time>2014-10-02T07:07:08Z</time>
      </trkpt>
      <trkpt lat="42.4165700" lon="-7.3318000">
        <ele>957.1</ele>
        <time>2014-10-02T07:07:09Z</time>
      </trkpt>
      <trkpt lat="42.4165440" lon="-7.3318790">
        <ele>957.3</ele>
        <time>2014-10-02T07:07:10Z</time>
      </trkpt>
      <trkpt lat="42.4165200" lon="-7.3319670">
        <ele>957.5</ele>
        <time>2014-10-02T07:07:11Z</time>
      </trkpt>
      <trkpt lat="42.4165020" lon="-7.3320610">
        <ele>957.7</ele>
        <time>2014-10-02T07:07:12Z</time>
      </trkpt>
      <trkpt lat="42.4164910" lon="-7.3321600">
        <ele>957.8</ele>
        <time>2014-10-02T07:07:13Z</time>
      </trkpt>
      <trkpt lat="42.4164850" lon="-7.3322570">
        <ele>957.9</ele>
        <time>2014-10-02T07:07:14Z</time>
      </trkpt>
      <trkpt lat="42.4164820" lon="-7.3323560">
        <ele>958.0</ele>
        <time>2014-10-02T07:07:15Z</time>
      </trkpt>
      <trkpt lat="42.4164810" lon="-7.3324540">
        <ele>957.9</ele>
        <time>2014-10-02T07:07:16Z</time>
      </trkpt>
      <trkpt lat="42.4164820" lon="-7.3325590">
        <ele>957.7</ele>
        <time>2014-10-02T07:07:17Z</time>
      </trkpt>
      <trkpt lat="42.4164810" lon="-7.3326700">
        <ele>957.4</ele>
        <time>2014-10-02T07:07:18Z</time>
      </trkpt>
      <trkpt lat="42.4164780" lon="-7.3327870">
        <ele>956.9</ele>
        <time>2014-10-02T07:07:19Z</time>
      </trkpt>
      <trkpt lat="42.4164750" lon="-7.3329110">
        <ele>956.5</ele>
        <time>2014-10-02T07:07:20Z</time>
      </trkpt>
      <trkpt lat="42.4164720" lon="-7.3330390">
        <ele>956.0</ele>
        <time>2014-10-02T07:07:21Z</time>
      </trkpt>
      <trkpt lat="42.4164700" lon="-7.3331630">
        <ele>955.5</ele>
        <time>2014-10-02T07:07:22Z</time>
      </trkpt>
      <trkpt lat="42.4164660" lon="-7.3332910">
        <ele>954.9</ele>
        <time>2014-10-02T07:07:23Z</time>
      </trkpt>
      <trkpt lat="42.4164610" lon="-7.3334200">
        <ele>954.2</ele>
        <time>2014-10-02T07:07:24Z</time>
      </trkpt>
      <trkpt lat="42.4164560" lon="-7.3335520">
        <ele>953.5</ele>
        <time>2014-10-02T07:07:25Z</time>
      </trkpt>
      <trkpt lat="42.4164520" lon="-7.3336860">
        <ele>952.7</ele>
        <time>2014-10-02T07:07:26Z</time>
      </trkpt>
      <trkpt lat="42.4164480" lon="-7.3338250">
        <ele>952.1</ele>
        <time>2014-10-02T07:07:27Z</time>
      </trkpt>
      <trkpt lat="42.4164430" lon="-7.3339650">
        <ele>951.5</ele>
        <time>2014-10-02T07:07:28Z</time>
      </trkpt>
      <trkpt lat="42.4164400" lon="-7.3341070">
        <ele>950.8</ele>
        <time>2014-10-02T07:07:29Z</time>
      </trkpt>
      <trkpt lat="42.4164350" lon="-7.3342480">
        <ele>950.1</ele>
        <time>2014-10-02T07:07:30Z</time>
      </trkpt>
      <trkpt lat="42.4164330" lon="-7.3343960">
        <ele>949.5</ele>
        <time>2014-10-02T07:07:31Z</time>
      </trkpt>
      <trkpt lat="42.4164350" lon="-7.3345420">
        <ele>949.1</ele>
        <time>2014-10-02T07:07:32Z</time>
      </trkpt>
      <trkpt lat="42.4164440" lon="-7.3346830">
        <ele>948.8</ele>
        <time>2014-10-02T07:07:33Z</time>
      </trkpt>
      <trkpt lat="42.4164590" lon="-7.3348230">
        <ele>948.5</ele>
        <time>2014-10-02T07:07:34Z</time>
      </trkpt>
      <trkpt lat="42.4164750" lon="-7.3349500">
        <ele>948.2</ele>
        <time>2014-10-02T07:07:35Z</time>
      </trkpt>
      <trkpt lat="42.4164940" lon="-7.3350880">
        <ele>948.0</ele>
        <time>2014-10-02T07:07:36Z</time>
      </trkpt>
      <trkpt lat="42.4165120" lon="-7.3352160">
        <ele>947.7</ele>
        <time>2014-10-02T07:07:37Z</time>
      </trkpt>
      <trkpt lat="42.4165290" lon="-7.3353430">
        <ele>947.6</ele>
        <time>2014-10-02T07:07:38Z</time>
      </trkpt>
      <trkpt lat="42.4165450" lon="-7.3354650">
        <ele>947.4</ele>
        <time>2014-10-02T07:07:39Z</time>
      </trkpt>
      <trkpt lat="42.4165610" lon="-7.3355830">
        <ele>947.4</ele>
        <time>2014-10-02T07:07:40Z</time>
      </trkpt>
      <trkpt lat="42.4165780" lon="-7.3356990">
        <ele>947.5</ele>
        <time>2014-10-02T07:07:41Z</time>
      </trkpt>
      <trkpt lat="42.4165950" lon="-7.3358120">
        <ele>947.6</ele>
        <time>2014-10-02T07:07:42Z</time>
      </trkpt>
      <trkpt lat="42.4166130" lon="-7.3359250">
        <ele>947.7</ele>
        <time>2014-10-02T07:07:43Z</time>
      </trkpt>
      <trkpt lat="42.4166280" lon="-7.3360380">
        <ele>947.7</ele>
        <time>2014-10-02T07:07:44Z</time>
      </trkpt>
      <trkpt lat="42.4166430" lon="-7.3361510">
        <ele>947.7</ele>
        <time>2014-10-02T07:07:45Z</time>
      </trkpt>
      <trkpt lat="42.4166580" lon="-7.3362590">
        <ele>947.7</ele>
        <time>2014-10-02T07:07:46Z</time>
      </trkpt>
      <trkpt lat="42.4166760" lon="-7.3363680">
        <ele>947.6</ele>
        <time>2014-10-02T07:07:47Z</time>
      </trkpt>
      <trkpt lat="42.4166950" lon="-7.3364790">
        <ele>947.5</ele>
        <time>2014-10-02T07:07:48Z</time>
      </trkpt>
      <trkpt lat="42.4167130" lon="-7.3365900">
        <ele>947.4</ele>
        <time>2014-10-02T07:07:49Z</time>
      </trkpt>
      <trkpt lat="42.4167280" lon="-7.3366970">
        <ele>947.2</ele>
        <time>2014-10-02T07:07:50Z</time>
      </trkpt>
      <trkpt lat="42.4167460" lon="-7.3368090">
        <ele>947.1</ele>
        <time>2014-10-02T07:07:51Z</time>
      </trkpt>
      <trkpt lat="42.4167660" lon="-7.3369340">
        <ele>946.8</ele>
        <time>2014-10-02T07:07:52Z</time>
      </trkpt>
      <trkpt lat="42.4167820" lon="-7.3370530">
        <ele>946.4</ele>
        <time>2014-10-02T07:07:53Z</time>
      </trkpt>
      <trkpt lat="42.4167990" lon="-7.3371720">
        <ele>946.0</ele>
        <time>2014-10-02T07:07:54Z</time>
      </trkpt>
      <trkpt lat="42.4168110" lon="-7.3372890">
        <ele>945.7</ele>
        <time>2014-10-02T07:07:55Z</time>
      </trkpt>
      <trkpt lat="42.4168210" lon="-7.3374100">
        <ele>945.3</ele>
        <time>2014-10-02T07:07:56Z</time>
      </trkpt>
      <trkpt lat="42.4168290" lon="-7.3375250">
        <ele>945.0</ele>
        <time>2014-10-02T07:07:57Z</time>
      </trkpt>
      <trkpt lat="42.4168340" lon="-7.3376520">
        <ele>944.7</ele>
        <time>2014-10-02T07:07:58Z</time>
      </trkpt>
      <trkpt lat="42.4168360" lon="-7.3377800">
        <ele>944.6</ele>
        <time>2014-10-02T07:07:59Z</time>
      </trkpt>
      <trkpt lat="42.4168340" lon="-7.3379140">
        <ele>944.7</ele>
        <time>2014-10-02T07:08:00Z</time>
      </trkpt>
      <trkpt lat="42.4168070" lon="-7.3380430">
        <ele>944.7</ele>
        <time>2014-10-02T07:08:01Z</time>
      </trkpt>
      <trkpt lat="42.4167730" lon="-7.3381670">
        <ele>944.9</ele>
        <time>2014-10-02T07:08:02Z</time>
      </trkpt>
      <trkpt lat="42.4167080" lon="-7.3382730">
        <ele>944.9</ele>
        <time>2014-10-02T07:08:03Z</time>
      </trkpt>
      <trkpt lat="42.4166280" lon="-7.3383440">
        <ele>944.9</ele>
        <time>2014-10-02T07:08:04Z</time>
      </trkpt>
      <trkpt lat="42.4165450" lon="-7.3383790">
        <ele>944.9</ele>
        <time>2014-10-02T07:08:05Z</time>
      </trkpt>
      <trkpt lat="42.4164650" lon="-7.3383830">
        <ele>944.9</ele>
        <time>2014-10-02T07:08:06Z</time>
      </trkpt>
      <trkpt lat="42.4163860" lon="-7.3383770">
        <ele>945.0</ele>
        <time>2014-10-02T07:08:07Z</time>
      </trkpt>
      <trkpt lat="42.4163120" lon="-7.3383620">
        <ele>945.2</ele>
        <time>2014-10-02T07:08:08Z</time>
      </trkpt>
      <trkpt lat="42.4162380" lon="-7.3383420">
        <ele>945.5</ele>
        <time>2014-10-02T07:08:09Z</time>
      </trkpt>
      <trkpt lat="42.4161740" lon="-7.3383220">
        <ele>945.7</ele>
        <time>2014-10-02T07:08:10Z</time>
      </trkpt>
      <trkpt lat="42.4161200" lon="-7.3383070">
        <ele>946.0</ele>
        <time>2014-10-02T07:08:11Z</time>
      </trkpt>
      <trkpt lat="42.4160640" lon="-7.3382940">
        <ele>946.4</ele>
        <time>2014-10-02T07:08:12Z</time>
      </trkpt>
      <trkpt lat="42.4159950" lon="-7.3382860">
        <ele>946.7</ele>
        <time>2014-10-02T07:08:13Z</time>
      </trkpt>
      <trkpt lat="42.4159250" lon="-7.3382840">
        <ele>947.1</ele>
        <time>2014-10-02T07:08:14Z</time>
      </trkpt>
      <trkpt lat="42.4158660" lon="-7.3382890">
        <ele>947.4</ele>
        <time>2014-10-02T07:08:15Z</time>
      </trkpt>
      <trkpt lat="42.4158110" lon="-7.3382990">
        <ele>947.7</ele>
        <time>2014-10-02T07:08:16Z</time>
      </trkpt>
      <trkpt lat="42.4157590" lon="-7.3383120">
        <ele>948.0</ele>
        <time>2014-10-02T07:08:17Z</time>
      </trkpt>
      <trkpt lat="42.4157150" lon="-7.3383230">
        <ele>948.2</ele>
        <time>2014-10-02T07:08:18Z</time>
      </trkpt>
      <trkpt lat="42.4156720" lon="-7.3383310">
        <ele>948.5</ele>
        <time>2014-10-02T07:08:19Z</time>
      </trkpt>
      <trkpt lat="42.4156290" lon="-7.3383460">
        <ele>948.8</ele>
        <time>2014-10-02T07:08:20Z</time>
      </trkpt>
      <trkpt lat="42.4155850" lon="-7.3383640">
        <ele>949.2</ele>
        <time>2014-10-02T07:08:21Z</time>
      </trkpt>
      <trkpt lat="42.4155490" lon="-7.3383780">
        <ele>949.4</ele>
        <time>2014-10-02T07:08:22Z</time>
      </trkpt>
      <trkpt lat="42.4155190" lon="-7.3383900">
        <ele>949.7</ele>
        <time>2014-10-02T07:08:23Z</time>
      </trkpt>
      <trkpt lat="42.4154810" lon="-7.3384040">
        <ele>950.0</ele>
        <time>2014-10-02T07:08:24Z</time>
      </trkpt>
      <trkpt lat="42.4154400" lon="-7.3384220">
        <ele>950.3</ele>
        <time>2014-10-02T07:08:25Z</time>
      </trkpt>
      <trkpt lat="42.4154060" lon="-7.3384380">
        <ele>950.5</ele>
        <time>2014-10-02T07:08:26Z</time>
      </trkpt>
      <trkpt lat="42.4153690" lon="-7.3384540">
        <ele>950.8</ele>
        <time>2014-10-02T07:08:27Z</time>
      </trkpt>
      <trkpt lat="42.4153340" lon="-7.3384680">
        <ele>951.1</ele>
        <time>2014-10-02T07:08:28Z</time>
      </trkpt>
      <trkpt lat="42.4153000" lon="-7.3384870">
        <ele>951.3</ele>
        <time>2014-10-02T07:08:29Z</time>
      </trkpt>
      <trkpt lat="42.4152700" lon="-7.3385050">
        <ele>951.6</ele>
        <time>2014-10-02T07:08:30Z</time>
      </trkpt>
      <trkpt lat="42.4152310" lon="-7.3385300">
        <ele>951.8</ele>
        <time>2014-10-02T07:08:31Z</time>
      </trkpt>
      <trkpt lat="42.4151950" lon="-7.3385550">
        <ele>952.0</ele>
        <time>2014-10-02T07:08:32Z</time>
      </trkpt>
      <trkpt lat="42.4151610" lon="-7.3385780">
        <ele>952.2</ele>
        <time>2014-10-02T07:08:33Z</time>
      </trkpt>
      <trkpt lat="42.4151370" lon="-7.3386090">
        <ele>952.3</ele>
        <time>2014-10-02T07:08:34Z</time>
      </trkpt>
      <trkpt lat="42.4151140" lon="-7.3386410">
        <ele>952.5</ele>
        <time>2014-10-02T07:08:35Z</time>
      </trkpt>
      <trkpt lat="42.4150840" lon="-7.3386830">
        <ele>952.6</ele>
        <time>2014-10-02T07:08:36Z</time>
      </trkpt>
      <trkpt lat="42.4150580" lon="-7.3387270">
        <ele>952.8</ele>
        <time>2014-10-02T07:08:37Z</time>
      </trkpt>
      <trkpt lat="42.4150310" lon="-7.3387770">
        <ele>952.9</ele>
        <time>2014-10-02T07:08:38Z</time>
      </trkpt>
      <trkpt lat="42.4150110" lon="-7.3388310">
        <ele>953.1</ele>
        <time>2014-10-02T07:08:39Z</time>
      </trkpt>
      <trkpt lat="42.4149910" lon="-7.3388870">
        <ele>953.3</ele>
        <time>2014-10-02T07:08:40Z</time>
      </trkpt>
      <trkpt lat="42.4149720" lon="-7.3389440">
        <ele>953.4</ele>
        <time>2014-10-02T07:08:41Z</time>
      </trkpt>
      <trkpt lat="42.4149530" lon="-7.3390050">
        <ele>953.6</ele>
        <time>2014-10-02T07:08:42Z</time>
      </trkpt>
      <trkpt lat="42.4149320" lon="-7.3390700">
        <ele>953.7</ele>
        <time>2014-10-02T07:08:43Z</time>
      </trkpt>
      <trkpt lat="42.4149120" lon="-7.3391320">
        <ele>953.8</ele>
        <time>2014-10-02T07:08:44Z</time>
      </trkpt>
      <trkpt lat="42.4148940" lon="-7.3391920">
        <ele>953.9</ele>
        <time>2014-10-02T07:08:45Z</time>
      </trkpt>
      <trkpt lat="42.4148780" lon="-7.3392500">
        <ele>954.0</ele>
        <time>2014-10-02T07:08:46Z</time>
      </trkpt>
      <trkpt lat="42.4148590" lon="-7.3393090">
        <ele>954.1</ele>
        <time>2014-10-02T07:08:47Z</time>
      </trkpt>
      <trkpt lat="42.4148400" lon="-7.3393690">
        <ele>954.3</ele>
        <time>2014-10-02T07:08:48Z</time>
      </trkpt>
      <trkpt lat="42.4148220" lon="-7.3394300">
        <ele>954.4</ele>
        <time>2014-10-02T07:08:49Z</time>
      </trkpt>
      <trkpt lat="42.4148060" lon="-7.3394850">
        <ele>954.6</ele>
        <time>2014-10-02T07:08:50Z</time>
      </trkpt>
      <trkpt lat="42.4147940" lon="-7.3395370">
        <ele>954.7</ele>
        <time>2014-10-02T07:08:51Z</time>
      </trkpt>
      <trkpt lat="42.4147790" lon="-7.3395890">
        <ele>954.8</ele>
        <time>2014-10-02T07:08:52Z</time>
      </trkpt>
      <trkpt lat="42.4147630" lon="-7.3396420">
        <ele>954.9</ele>
        <time>2014-10-02T07:08:53Z</time>
      </trkpt>
      <trkpt lat="42.4147420" lon="-7.3397010">
        <ele>954.9</ele>
        <time>2014-10-02T07:08:54Z</time>
      </trkpt>
      <trkpt lat="42.4147240" lon="-7.3397520">
        <ele>955.0</ele>
        <time>2014-10-02T07:08:55Z</time>
      </trkpt>
      <trkpt lat="42.4147050" lon="-7.3398110">
        <ele>955.1</ele>
        <time>2014-10-02T07:08:56Z</time>
      </trkpt>
      <trkpt lat="42.4146870" lon="-7.3398640">
        <ele>955.2</ele>
        <time>2014-10-02T07:08:57Z</time>
      </trkpt>
      <trkpt lat="42.4146660" lon="-7.3399220">
        <ele>955.4</ele>
        <time>2014-10-02T07:08:58Z</time>
      </trkpt>
      <trkpt lat="42.4146450" lon="-7.3399740">
        <ele>955.6</ele>
        <time>2014-10-02T07:08:59Z</time>
      </trkpt>
      <trkpt lat="42.4146270" lon="-7.3400240">
        <ele>955.8</ele>
        <time>2014-10-02T07:09:00Z</time>
      </trkpt>
      <trkpt lat="42.4146090" lon="-7.3400730">
        <ele>956.0</ele>
        <time>2014-10-02T07:09:01Z</time>
      </trkpt>
      <trkpt lat="42.4145900" lon="-7.3401200">
        <ele>956.2</ele>
        <time>2014-10-02T07:09:02Z</time>
      </trkpt>
      <trkpt lat="42.4145710" lon="-7.3401690">
        <ele>956.4</ele>
        <time>2014-10-02T07:09:03Z</time>
      </trkpt>
      <trkpt lat="42.4145530" lon="-7.3402180">
        <ele>956.7</ele>
        <time>2014-10-02T07:09:04Z</time>
      </trkpt>
      <trkpt lat="42.4145350" lon="-7.3402690">
        <ele>956.9</ele>
        <time>2014-10-02T07:09:05Z</time>
      </trkpt>
      <trkpt lat="42.4145200" lon="-7.3403160">
        <ele>957.2</ele>
        <time>2014-10-02T07:09:06Z</time>
      </trkpt>
      <trkpt lat="42.4145060" lon="-7.3403660">
        <ele>957.5</ele>
        <time>2014-10-02T07:09:07Z</time>
      </trkpt>
      <trkpt lat="42.4144900" lon="-7.3404190">
        <ele>957.8</ele>
        <time>2014-10-02T07:09:08Z</time>
      </trkpt>
      <trkpt lat="42.4144760" lon="-7.3404710">
        <ele>958.0</ele>
        <time>2014-10-02T07:09:09Z</time>
      </trkpt>
      <trkpt lat="42.4144640" lon="-7.3405200">
        <ele>958.3</ele>
        <time>2014-10-02T07:09:10Z</time>
      </trkpt>
      <trkpt lat="42.4144520" lon="-7.3405670">
        <ele>958.5</ele>
        <time>2014-10-02T07:09:11Z</time>
      </trkpt>
      <trkpt lat="42.4144390" lon="-7.3406150">
        <ele>958.8</ele>
        <time>2014-10-02T07:09:12Z</time>
      </trkpt>
      <trkpt lat="42.4144260" lon="-7.3406620">
        <ele>959.0</ele>
        <time>2014-10-02T07:09:13Z</time>
      </trkpt>
      <trkpt lat="42.4144140" lon="-7.3407090">
        <ele>959.2</ele>
        <time>2014-10-02T07:09:14Z</time>
      </trkpt>
      <trkpt lat="42.4144020" lon="-7.3407570">
        <ele>959.4</ele>
        <time>2014-10-02T07:09:15Z</time>
      </trkpt>
      <trkpt lat="42.4143900" lon="-7.3408090">
        <ele>959.7</ele>
        <time>2014-10-02T07:09:16Z</time>
      </trkpt>
      <trkpt lat="42.4143810" lon="-7.3408490">
        <ele>959.8</ele>
        <time>2014-10-02T07:09:17Z</time>
      </trkpt>
      <trkpt lat="42.4143730" lon="-7.3408930">
        <ele>960.0</ele>
        <time>2014-10-02T07:09:18Z</time>
      </trkpt>
      <trkpt lat="42.4143620" lon="-7.3409460">
        <ele>960.2</ele>
        <time>2014-10-02T07:09:19Z</time>
      </trkpt>
      <trkpt lat="42.4143490" lon="-7.3410110">
        <ele>960.5</ele>
        <time>2014-10-02T07:09:20Z</time>
      </trkpt>
      <trkpt lat="42.4143380" lon="-7.3410660">
        <ele>960.7</ele>
        <time>2014-10-02T07:09:21Z</time>
      </trkpt>
      <trkpt lat="42.4143260" lon="-7.3411210">
        <ele>960.9</ele>
        <time>2014-10-02T07:09:22Z</time>
      </trkpt>
      <trkpt lat="42.4143160" lon="-7.3411750">
        <ele>961.1</ele>
        <time>2014-10-02T07:09:23Z</time>
      </trkpt>
      <trkpt lat="42.4143060" lon="-7.3412260">
        <ele>961.2</ele>
        <time>2014-10-02T07:09:24Z</time>
      </trkpt>
      <trkpt lat="42.4142960" lon="-7.3412750">
        <ele>961.4</ele>
        <time>2014-10-02T07:09:25Z</time>
      </trkpt>
      <trkpt lat="42.4142860" lon="-7.3413300">
        <ele>961.6</ele>
        <time>2014-10-02T07:09:26Z</time>
      </trkpt>
      <trkpt lat="42.4142770" lon="-7.3413830">
        <ele>961.7</ele>
        <time>2014-10-02T07:09:27Z</time>
      </trkpt>
      <trkpt lat="42.4142690" lon="-7.3414340">
        <ele>961.9</ele>
        <time>2014-10-02T07:09:28Z</time>
      </trkpt>
      <trkpt lat="42.4142640" lon="-7.3414860">
        <ele>962.1</ele>
        <time>2014-10-02T07:09:29Z</time>
      </trkpt>
      <trkpt lat="42.4142600" lon="-7.3415380">
        <ele>962.2</ele>
        <time>2014-10-02T07:09:30Z</time>
      </trkpt>
      <trkpt lat="42.4142570" lon="-7.3415930">
        <ele>962.4</ele>
        <time>2014-10-02T07:09:31Z</time>
      </trkpt>
      <trkpt lat="42.4142550" lon="-7.3416540">
        <ele>962.5</ele>
        <time>2014-10-02T07:09:32Z</time>
      </trkpt>
      <trkpt lat="42.4142550" lon="-7.3417150">
        <ele>962.7</ele>
        <time>2014-10-02T07:09:33Z</time>
      </trkpt>
      <trkpt lat="42.4142570" lon="-7.3417710">
        <ele>962.8</ele>
        <time>2014-10-02T07:09:34Z</time>
      </trkpt>
      <trkpt lat="42.4142600" lon="-7.3418230">
        <ele>962.9</ele>
        <time>2014-10-02T07:09:35Z</time>
      </trkpt>
      <trkpt lat="42.4142620" lon="-7.3418770">
        <ele>963.0</ele>
        <time>2014-10-02T07:09:36Z</time>
      </trkpt>
      <trkpt lat="42.4142650" lon="-7.3419350">
        <ele>963.1</ele>
        <time>2014-10-02T07:09:37Z</time>
      </trkpt>
      <trkpt lat="42.4142680" lon="-7.3419900">
        <ele>963.2</ele>
        <time>2014-10-02T07:09:38Z</time>
      </trkpt>
      <trkpt lat="42.4142710" lon="-7.3420500">
        <ele>963.4</ele>
        <time>2014-10-02T07:09:39Z</time>
      </trkpt>
      <trkpt lat="42.4142750" lon="-7.3421090">
        <ele>963.6</ele>
        <time>2014-10-02T07:09:40Z</time>
      </trkpt>
      <trkpt lat="42.4142820" lon="-7.3421690">
        <ele>963.7</ele>
        <time>2014-10-02T07:09:41Z</time>
      </trkpt>
      <trkpt lat="42.4142900" lon="-7.3422330">
        <ele>963.9</ele>
        <time>2014-10-02T07:09:42Z</time>
      </trkpt>
      <trkpt lat="42.4142980" lon="-7.3422990">
        <ele>964.0</ele>
        <time>2014-10-02T07:09:43Z</time>
      </trkpt>
      <trkpt lat="42.4143070" lon="-7.3423630">
        <ele>964.1</ele>
        <time>2014-10-02T07:09:44Z</time>
      </trkpt>
      <trkpt lat="42.4143170" lon="-7.3424270">
        <ele>964.2</ele>
        <time>2014-10-02T07:09:45Z</time>
      </trkpt>
      <trkpt lat="42.4143280" lon="-7.3424950">
        <ele>964.2</ele>
        <time>2014-10-02T07:09:46Z</time>
      </trkpt>
      <trkpt lat="42.4143390" lon="-7.3425660">
        <ele>964.2</ele>
        <time>2014-10-02T07:09:47Z</time>
      </trkpt>
      <trkpt lat="42.4143500" lon="-7.3426380">
        <ele>964.2</ele>
        <time>2014-10-02T07:09:48Z</time>
      </trkpt>
      <trkpt lat="42.4143640" lon="-7.3427150">
        <ele>964.1</ele>
        <time>2014-10-02T07:09:49Z</time>
      </trkpt>
      <trkpt lat="42.4143780" lon="-7.3427950">
        <ele>963.9</ele>
        <time>2014-10-02T07:09:50Z</time>
      </trkpt>
      <trkpt lat="42.4143950" lon="-7.3428800">
        <ele>963.7</ele>
        <time>2014-10-02T07:09:51Z</time>
      </trkpt>
      <trkpt lat="42.4144120" lon="-7.3429680">
        <ele>963.5</ele>
        <time>2014-10-02T07:09:52Z</time>
      </trkpt>
      <trkpt lat="42.4144300" lon="-7.3430610">
        <ele>963.2</ele>
        <time>2014-10-02T07:09:53Z</time>
      </trkpt>
      <trkpt lat="42.4144510" lon="-7.3431620">
        <ele>963.0</ele>
        <time>2014-10-02T07:09:54Z</time>
      </trkpt>
      <trkpt lat="42.4144720" lon="-7.3432630">
        <ele>962.6</ele>
        <time>2014-10-02T07:09:55Z</time>
      </trkpt>
      <trkpt lat="42.4144920" lon="-7.3433660">
        <ele>962.2</ele>
        <time>2014-10-02T07:09:56Z</time>
      </trkpt>
      <trkpt lat="42.4145140" lon="-7.3434730">
        <ele>961.8</ele>
        <time>2014-10-02T07:09:57Z</time>
      </trkpt>
      <trkpt lat="42.4145370" lon="-7.3435870">
        <ele>961.4</ele>
        <time>2014-10-02T07:09:58Z</time>
      </trkpt>
      <trkpt lat="42.4145610" lon="-7.3437080">
        <ele>961.0</ele>
        <time>2014-10-02T07:09:59Z</time>
      </trkpt>
      <trkpt lat="42.4145860" lon="-7.3438270">
        <ele>960.6</ele>
        <time>2014-10-02T07:10:00Z</time>
      </trkpt>
      <trkpt lat="42.4146140" lon="-7.3439470">
        <ele>960.1</ele>
        <time>2014-10-02T07:10:01Z</time>
      </trkpt>
      <trkpt lat="42.4146420" lon="-7.3440700">
        <ele>959.7</ele>
        <time>2014-10-02T07:10:02Z</time>
      </trkpt>
      <trkpt lat="42.4146710" lon="-7.3441960">
        <ele>959.3</ele>
        <time>2014-10-02T07:10:03Z</time>
      </trkpt>
      <trkpt lat="42.4147000" lon="-7.3443210">
        <ele>959.0</ele>
        <time>2014-10-02T07:10:04Z</time>
      </trkpt>
      <trkpt lat="42.4147280" lon="-7.3444480">
        <ele>958.7</ele>
        <time>2014-10-02T07:10:05Z</time>
      </trkpt>
      <trkpt lat="42.4147520" lon="-7.3445730">
        <ele>958.4</ele>
        <time>2014-10-02T07:10:06Z</time>
      </trkpt>
      <trkpt lat="42.4147740" lon="-7.3446970">
        <ele>958.1</ele>
        <time>2014-10-02T07:10:07Z</time>
      </trkpt>
      <trkpt lat="42.4147880" lon="-7.3448250">
        <ele>957.7</ele>
        <time>2014-10-02T07:10:08Z</time>
      </trkpt>
      <trkpt lat="42.4147770" lon="-7.3449610">
        <ele>957.1</ele>
        <time>2014-10-02T07:10:09Z</time>
      </trkpt>
      <trkpt lat="42.4147600" lon="-7.3450940">
        <ele>956.6</ele>
        <time>2014-10-02T07:10:10Z</time>
      </trkpt>
      <trkpt lat="42.4147370" lon="-7.3452290">
        <ele>956.1</ele>
        <time>2014-10-02T07:10:11Z</time>
      </trkpt>
      <trkpt lat="42.4146940" lon="-7.3453550">
        <ele>955.5</ele>
        <time>2014-10-02T07:10:12Z</time>
      </trkpt>
      <trkpt lat="42.4146410" lon="-7.3454780">
        <ele>955.0</ele>
        <time>2014-10-02T07:10:13Z</time>
      </trkpt>
      <trkpt lat="42.4145680" lon="-7.3455910">
        <ele>954.5</ele>
        <time>2014-10-02T07:10:14Z</time>
      </trkpt>
      <trkpt lat="42.4144780" lon="-7.3456840">
        <ele>954.0</ele>
        <time>2014-10-02T07:10:15Z</time>
      </trkpt>
      <trkpt lat="42.4143880" lon="-7.3457770">
        <ele>953.7</ele>
        <time>2014-10-02T07:10:16Z</time>
      </trkpt>
      <trkpt lat="42.4143000" lon="-7.3458620">
        <ele>953.4</ele>
        <time>2014-10-02T07:10:17Z</time>
      </trkpt>
      <trkpt lat="42.4142160" lon="-7.3459350">
        <ele>953.0</ele>
        <time>2014-10-02T07:10:18Z</time>
      </trkpt>
      <trkpt lat="42.4141300" lon="-7.3460110">
        <ele>952.7</ele>
        <time>2014-10-02T07:10:19Z</time>
      </trkpt>
      <trkpt lat="42.4140410" lon="-7.3460840">
        <ele>952.3</ele>
        <time>2014-10-02T07:10:20Z</time>
      </trkpt>
      <trkpt lat="42.4139520" lon="-7.3461590">
        <ele>952.0</ele>
        <time>2014-10-02T07:10:21Z</time>
      </trkpt>
      <trkpt lat="42.4138670" lon="-7.3462250">
        <ele>951.6</ele>
        <time>2014-10-02T07:10:22Z</time>
      </trkpt>
      <trkpt lat="42.4137810" lon="-7.3462930">
        <ele>951.3</ele>
        <time>2014-10-02T07:10:23Z</time>
      </trkpt>
      <trkpt lat="42.4136950" lon="-7.3463620">
        <ele>950.9</ele>
        <time>2014-10-02T07:10:24Z</time>
      </trkpt>
      <trkpt lat="42.4136050" lon="-7.3464350">
        <ele>950.4</ele>
        <time>2014-10-02T07:10:25Z</time>
      </trkpt>
      <trkpt lat="42.4135180" lon="-7.3465090">
        <ele>949.8</ele>
        <time>2014-10-02T07:10:26Z</time>
      </trkpt>
      <trkpt lat="42.4134410" lon="-7.3465840">
        <ele>949.1</ele>
        <time>2014-10-02T07:10:27Z</time>
      </trkpt>
      <trkpt lat="42.4133920" lon="-7.3466830">
        <ele>948.3</ele>
        <time>2014-10-02T07:10:28Z</time>
      </trkpt>
      <trkpt lat="42.4133450" lon="-7.3467780">
        <ele>947.3</ele>
        <time>2014-10-02T07:10:29Z</time>
      </trkpt>
      <trkpt lat="42.4133090" lon="-7.3469040">
        <ele>946.3</ele>
        <time>2014-10-02T07:10:30Z</time>
      </trkpt>
      <trkpt lat="42.4132650" lon="-7.3470470">
        <ele>945.1</ele>
        <time>2014-10-02T07:10:31Z</time>
      </trkpt>
      <trkpt lat="42.4132090" lon="-7.3471940">
        <ele>943.9</ele>
        <time>2014-10-02T07:10:32Z</time>
      </trkpt>
      <trkpt lat="42.4131700" lon="-7.3473430">
        <ele>942.8</ele>
        <time>2014-10-02T07:10:33Z</time>
      </trkpt>
      <trkpt lat="42.4131300" lon="-7.3474920">
        <ele>941.9</ele>
        <time>2014-10-02T07:10:34Z</time>
      </trkpt>
      <trkpt lat="42.4130860" lon="-7.3476460">
        <ele>941.2</ele>
        <time>2014-10-02T07:10:35Z</time>
      </trkpt>
      <trkpt lat="42.4130400" lon="-7.3478030">
        <ele>940.4</ele>
        <time>2014-10-02T07:10:36Z</time>
      </trkpt>
      <trkpt lat="42.4129980" lon="-7.3479450">
        <ele>939.7</ele>
        <time>2014-10-02T07:10:37Z</time>
      </trkpt>
      <trkpt lat="42.4129610" lon="-7.3480790">
        <ele>939.0</ele>
        <time>2014-10-02T07:10:38Z</time>
      </trkpt>
      <trkpt lat="42.4129220" lon="-7.3482110">
        <ele>938.4</ele>
        <time>2014-10-02T07:10:39Z</time>
      </trkpt>
      <trkpt lat="42.4128830" lon="-7.3483380">
        <ele>938.0</ele>
        <time>2014-10-02T07:10:40Z</time>
      </trkpt>
      <trkpt lat="42.4128480" lon="-7.3484590">
        <ele>937.7</ele>
        <time>2014-10-02T07:10:41Z</time>
      </trkpt>
      <trkpt lat="42.4128130" lon="-7.3485770">
        <ele>937.6</ele>
        <time>2014-10-02T07:10:42Z</time>
      </trkpt>
      <trkpt lat="42.4127820" lon="-7.3486910">
        <ele>937.6</ele>
        <time>2014-10-02T07:10:43Z</time>
      </trkpt>
      <trkpt lat="42.4127530" lon="-7.3488030">
        <ele>937.7</ele>
        <time>2014-10-02T07:10:44Z</time>
      </trkpt>
      <trkpt lat="42.4127290" lon="-7.3489150">
        <ele>938.3</ele>
        <time>2014-10-02T07:10:45Z</time>
      </trkpt>
      <trkpt lat="42.4127130" lon="-7.3490170">
        <ele>938.9</ele>
        <time>2014-10-02T07:10:46Z</time>
      </trkpt>
      <trkpt lat="42.4127040" lon="-7.3491090">
        <ele>939.2</ele>
        <time>2014-10-02T07:10:47Z</time>
      </trkpt>
      <trkpt lat="42.4126970" lon="-7.3491910">
        <ele>939.4</ele>
        <time>2014-10-02T07:10:48Z</time>
      </trkpt>
      <trkpt lat="42.4126890" lon="-7.3492750">
        <ele>939.7</ele>
        <time>2014-10-02T07:10:49Z</time>
      </trkpt>
      <trkpt lat="42.4126790" lon="-7.3493620">
        <ele>940.1</ele>
        <time>2014-10-02T07:10:50Z</time>
      </trkpt>
      <trkpt lat="42.4126670" lon="-7.3494590">
        <ele>940.4</ele>
        <time>2014-10-02T07:10:51Z</time>
      </trkpt>
      <trkpt lat="42.4126560" lon="-7.3495550">
        <ele>940.6</ele>
        <time>2014-10-02T07:10:52Z</time>
      </trkpt>
      <trkpt lat="42.4126490" lon="-7.3496430">
        <ele>940.6</ele>
        <time>2014-10-02T07:10:53Z</time>
      </trkpt>
      <trkpt lat="42.4126580" lon="-7.3497310">
        <ele>940.6</ele>
        <time>2014-10-02T07:10:54Z</time>
      </trkpt>
      <trkpt lat="42.4126690" lon="-7.3498180">
        <ele>940.5</ele>
        <time>2014-10-02T07:10:55Z</time>
      </trkpt>
      <trkpt lat="42.4126800" lon="-7.3498990">
        <ele>940.5</ele>
        <time>2014-10-02T07:10:56Z</time>
      </trkpt>
      <trkpt lat="42.4126910" lon="-7.3499780">
        <ele>940.5</ele>
        <time>2014-10-02T07:10:57Z</time>
      </trkpt>
      <trkpt lat="42.4127010" lon="-7.3500580">
        <ele>940.5</ele>
        <time>2014-10-02T07:10:58Z</time>
      </trkpt>
      <trkpt lat="42.4127130" lon="-7.3501430">
        <ele>940.6</ele>
        <time>2014-10-02T07:10:59Z</time>
      </trkpt>
      <trkpt lat="42.4127200" lon="-7.3502300">
        <ele>940.8</ele>
        <time>2014-10-02T07:11:00Z</time>
      </trkpt>
      <trkpt lat="42.4127220" lon="-7.3503200">
        <ele>941.0</ele>
        <time>2014-10-02T07:11:01Z</time>
      </trkpt>
      <trkpt lat="42.4127220" lon="-7.3504110">
        <ele>941.1</ele>
        <time>2014-10-02T07:11:02Z</time>
      </trkpt>
      <trkpt lat="42.4127180" lon="-7.3505030">
        <ele>941.3</ele>
        <time>2014-10-02T07:11:03Z</time>
      </trkpt>
      <trkpt lat="42.4127140" lon="-7.3505970">
        <ele>941.7</ele>
        <time>2014-10-02T07:11:04Z</time>
      </trkpt>
      <trkpt lat="42.4127080" lon="-7.3506870">
        <ele>942.1</ele>
        <time>2014-10-02T07:11:05Z</time>
      </trkpt>
      <trkpt lat="42.4127020" lon="-7.3507750">
        <ele>942.6</ele>
        <time>2014-10-02T07:11:06Z</time>
      </trkpt>
      <trkpt lat="42.4126970" lon="-7.3508580">
        <ele>943.0</ele>
        <time>2014-10-02T07:11:07Z</time>
      </trkpt>
      <trkpt lat="42.4126950" lon="-7.3509400">
        <ele>943.3</ele>
        <time>2014-10-02T07:11:08Z</time>
      </trkpt>
      <trkpt lat="42.4126980" lon="-7.3510170">
        <ele>943.5</ele>
        <time>2014-10-02T07:11:09Z</time>
      </trkpt>
      <trkpt lat="42.4127140" lon="-7.3510910">
        <ele>943.7</ele>
        <time>2014-10-02T07:11:10Z</time>
      </trkpt>
      <trkpt lat="42.4127320" lon="-7.3511610">
        <ele>943.9</ele>
        <time>2014-10-02T07:11:11Z</time>
      </trkpt>
      <trkpt lat="42.4127510" lon="-7.3512190">
        <ele>944.2</ele>
        <time>2014-10-02T07:11:12Z</time>
      </trkpt>
      <trkpt lat="42.4127840" lon="-7.3512710">
        <ele>944.4</ele>
        <time>2014-10-02T07:11:13Z</time>
      </trkpt>
      <trkpt lat="42.4128140" lon="-7.3513150">
        <ele>944.7</ele>
        <time>2014-10-02T07:11:14Z</time>
      </trkpt>
      <trkpt lat="42.4128430" lon="-7.3513540">
        <ele>944.9</ele>
        <time>2014-10-02T07:11:15Z</time>
      </trkpt>
      <trkpt lat="42.4128720" lon="-7.3513900">
        <ele>945.1</ele>
        <time>2014-10-02T07:11:16Z</time>
      </trkpt>
      <trkpt lat="42.4129000" lon="-7.3514230">
        <ele>945.3</ele>
        <time>2014-10-02T07:11:17Z</time>
      </trkpt>
      <trkpt lat="42.4129270" lon="-7.3514540">
        <ele>945.5</ele>
        <time>2014-10-02T07:11:18Z</time>
      </trkpt>
      <trkpt lat="42.4129540" lon="-7.3514840">
        <ele>945.8</ele>
        <time>2014-10-02T07:11:19Z</time>
      </trkpt>
      <trkpt lat="42.4129830" lon="-7.3515110">
        <ele>946.2</ele>
        <time>2014-10-02T07:11:20Z</time>
      </trkpt>
      <trkpt lat="42.4130130" lon="-7.3515370">
        <ele>946.5</ele>
        <time>2014-10-02T07:11:21Z</time>
      </trkpt>
      <trkpt lat="42.4130410" lon="-7.3515680">
        <ele>947.0</ele>
        <time>2014-10-02T07:11:22Z</time>
      </trkpt>
      <trkpt lat="42.4130700" lon="-7.3515980">
        <ele>947.4</ele>
        <time>2014-10-02T07:11:23Z</time>
      </trkpt>
      <trkpt lat="42.4130920" lon="-7.3516250">
        <ele>947.8</ele>
        <time>2014-10-02T07:11:24Z</time>
      </trkpt>
      <trkpt lat="42.4131120" lon="-7.3516510">
        <ele>948.1</ele>
        <time>2014-10-02T07:11:25Z</time>
      </trkpt>
      <trkpt lat="42.4131450" lon="-7.3517080">
        <ele>948.6</ele>
        <time>2014-10-02T07:11:27Z</time>
      </trkpt>
      <trkpt lat="42.4131580" lon="-7.3517440">
        <ele>948.9</ele>
        <time>2014-10-02T07:11:28Z</time>
      </trkpt>
      <trkpt lat="42.4131720" lon="-7.3517830">
        <ele>949.2</ele>
        <time>2014-10-02T07:11:29Z</time>
      </trkpt>
      <trkpt lat="42.4131830" lon="-7.3518220">
        <ele>949.5</ele>
        <time>2014-10-02T07:11:30Z</time>
      </trkpt>
      <trkpt lat="42.4131940" lon="-7.3518610">
        <ele>949.7</ele>
        <time>2014-10-02T07:11:31Z</time>
      </trkpt>
      <trkpt lat="42.4132040" lon="-7.3519040">
        <ele>950.0</ele>
        <time>2014-10-02T07:11:32Z</time>
      </trkpt>
      <trkpt lat="42.4132140" lon="-7.3519500">
        <ele>950.3</ele>
        <time>2014-10-02T07:11:33Z</time>
      </trkpt>
      <trkpt lat="42.4132220" lon="-7.3519960">
        <ele>950.6</ele>
        <time>2014-10-02T07:11:34Z</time>
      </trkpt>
      <trkpt lat="42.4132290" lon="-7.3520380">
        <ele>950.9</ele>
        <time>2014-10-02T07:11:35Z</time>
      </trkpt>
      <trkpt lat="42.4132350" lon="-7.3520810">
        <ele>951.3</ele>
        <time>2014-10-02T07:11:36Z</time>
      </trkpt>
      <trkpt lat="42.4132420" lon="-7.3521270">
        <ele>951.7</ele>
        <time>2014-10-02T07:11:37Z</time>
      </trkpt>
      <trkpt lat="42.4132500" lon="-7.3521750">
        <ele>952.1</ele>
        <time>2014-10-02T07:11:38Z</time>
      </trkpt>
      <trkpt lat="42.4132570" lon="-7.3522170">
        <ele>952.4</ele>
        <time>2014-10-02T07:11:39Z</time>
      </trkpt>
      <trkpt lat="42.4132660" lon="-7.3522610">
        <ele>952.7</ele>
        <time>2014-10-02T07:11:40Z</time>
      </trkpt>
      <trkpt lat="42.4132760" lon="-7.3523030">
        <ele>953.0</ele>
        <time>2014-10-02T07:11:41Z</time>
      </trkpt>
      <trkpt lat="42.4132870" lon="-7.3523470">
        <ele>953.2</ele>
        <time>2014-10-02T07:11:42Z</time>
      </trkpt>
      <trkpt lat="42.4133000" lon="-7.3523920">
        <ele>953.5</ele>
        <time>2014-10-02T07:11:43Z</time>
      </trkpt>
      <trkpt lat="42.4133140" lon="-7.3524340">
        <ele>953.8</ele>
        <time>2014-10-02T07:11:44Z</time>
      </trkpt>
      <trkpt lat="42.4133280" lon="-7.3524810">
        <ele>954.1</ele>
        <time>2014-10-02T07:11:45Z</time>
      </trkpt>
      <trkpt lat="42.4133410" lon="-7.3525280">
        <ele>954.4</ele>
        <time>2014-10-02T07:11:46Z</time>
      </trkpt>
      <trkpt lat="42.4133570" lon="-7.3525770">
        <ele>954.7</ele>
        <time>2014-10-02T07:11:47Z</time>
      </trkpt>
      <trkpt lat="42.4133790" lon="-7.3526200">
        <ele>955.0</ele>
        <time>2014-10-02T07:11:48Z</time>
      </trkpt>
      <trkpt lat="42.4133990" lon="-7.3526590">
        <ele>955.2</ele>
        <time>2014-10-02T07:11:49Z</time>
      </trkpt>
      <trkpt lat="42.4134220" lon="-7.3526970">
        <ele>955.5</ele>
        <time>2014-10-02T07:11:50Z</time>
      </trkpt>
      <trkpt lat="42.4134460" lon="-7.3527360">
        <ele>955.7</ele>
        <time>2014-10-02T07:11:51Z</time>
      </trkpt>
      <trkpt lat="42.4134710" lon="-7.3527770">
        <ele>955.9</ele>
        <time>2014-10-02T07:11:52Z</time>
      </trkpt>
      <trkpt lat="42.4134930" lon="-7.3528140">
        <ele>956.1</ele>
        <time>2014-10-02T07:11:53Z</time>
      </trkpt>
      <trkpt lat="42.4135150" lon="-7.3528520">
        <ele>956.3</ele>
        <time>2014-10-02T07:11:54Z</time>
      </trkpt>
      <trkpt lat="42.4135360" lon="-7.3528880">
        <ele>956.5</ele>
        <time>2014-10-02T07:11:55Z</time>
      </trkpt>
      <trkpt lat="42.4135570" lon="-7.3529260">
        <ele>956.7</ele>
        <time>2014-10-02T07:11:56Z</time>
      </trkpt>
      <trkpt lat="42.4135740" lon="-7.3529600">
        <ele>956.8</ele>
        <time>2014-10-02T07:11:57Z</time>
      </trkpt>
      <trkpt lat="42.4135920" lon="-7.3529930">
        <ele>957.0</ele>
        <time>2014-10-02T07:11:58Z</time>
      </trkpt>
      <trkpt lat="42.4136120" lon="-7.3530250">
        <ele>957.1</ele>
        <time>2014-10-02T07:11:59Z</time>
      </trkpt>
      <trkpt lat="42.4136360" lon="-7.3530620">
        <ele>957.3</ele>
        <time>2014-10-02T07:12:00Z</time>
      </trkpt>
      <trkpt lat="42.4136600" lon="-7.3530950">
        <ele>957.5</ele>
        <time>2014-10-02T07:12:01Z</time>
      </trkpt>
      <trkpt lat="42.4136830" lon="-7.3531260">
        <ele>957.6</ele>
        <time>2014-10-02T07:12:02Z</time>
      </trkpt>
      <trkpt lat="42.4137080" lon="-7.3531610">
        <ele>957.8</ele>
        <time>2014-10-02T07:12:03Z</time>
      </trkpt>
      <trkpt lat="42.4137300" lon="-7.3531930">
        <ele>958.1</ele>
        <time>2014-10-02T07:12:04Z</time>
      </trkpt>
      <trkpt lat="42.4137530" lon="-7.3532220">
        <ele>958.3</ele>
        <time>2014-10-02T07:12:05Z</time>
      </trkpt>
      <trkpt lat="42.4137780" lon="-7.3532530">
        <ele>958.5</ele>
        <time>2014-10-02T07:12:06Z</time>
      </trkpt>
      <trkpt lat="42.4138060" lon="-7.3532830">
        <ele>958.7</ele>
        <time>2014-10-02T07:12:07Z</time>
      </trkpt>
      <trkpt lat="42.4138320" lon="-7.3533140">
        <ele>959.0</ele>
        <time>2014-10-02T07:12:08Z</time>
      </trkpt>
      <trkpt lat="42.4138530" lon="-7.3533410">
        <ele>959.2</ele>
        <time>2014-10-02T07:12:09Z</time>
      </trkpt>
      <trkpt lat="42.4138740" lon="-7.3533690">
        <ele>959.5</ele>
        <time>2014-10-02T07:12:10Z</time>
      </trkpt>
      <trkpt lat="42.4138950" lon="-7.3533970">
        <ele>959.7</ele>
        <time>2014-10-02T07:12:11Z</time>
      </trkpt>
      <trkpt lat="42.4139170" lon="-7.3534220">
        <ele>959.9</ele>
        <time>2014-10-02T07:12:12Z</time>
      </trkpt>
      <trkpt lat="42.4139410" lon="-7.3534480">
        <ele>960.1</ele>
        <time>2014-10-02T07:12:13Z</time>
      </trkpt>
      <trkpt lat="42.4139680" lon="-7.3534740">
        <ele>960.3</ele>
        <time>2014-10-02T07:12:14Z</time>
      </trkpt>
      <trkpt lat="42.4139950" lon="-7.3535010">
        <ele>960.5</ele>
        <time>2014-10-02T07:12:15Z</time>
      </trkpt>
      <trkpt lat="42.4140240" lon="-7.3535300">
        <ele>960.8</ele>
        <time>2014-10-02T07:12:16Z</time>
      </trkpt>
      <trkpt lat="42.4140470" lon="-7.3535550">
        <ele>961.0</ele>
        <time>2014-10-02T07:12:17Z</time>
      </trkpt>
      <trkpt lat="42.4140730" lon="-7.3535810">
        <ele>961.2</ele>
        <time>2014-10-02T07:12:18Z</time>
      </trkpt>
      <trkpt lat="42.4141010" lon="-7.3536110">
        <ele>961.4</ele>
        <time>2014-10-02T07:12:19Z</time>
      </trkpt>
      <trkpt lat="42.4141290" lon="-7.3536430">
        <ele>961.7</ele>
        <time>2014-10-02T07:12:20Z</time>
      </trkpt>
      <trkpt lat="42.4141590" lon="-7.3536780">
        <ele>961.9</ele>
        <time>2014-10-02T07:12:21Z</time>
      </trkpt>
      <trkpt lat="42.4141950" lon="-7.3537140">
        <ele>962.1</ele>
        <time>2014-10-02T07:12:22Z</time>
      </trkpt>
      <trkpt lat="42.4142300" lon="-7.3537510">
        <ele>962.3</ele>
        <time>2014-10-02T07:12:23Z</time>
      </trkpt>
      <trkpt lat="42.4142660" lon="-7.3537850">
        <ele>962.6</ele>
        <time>2014-10-02T07:12:24Z</time>
      </trkpt>
      <trkpt lat="42.4142980" lon="-7.3538150">
        <ele>962.8</ele>
        <time>2014-10-02T07:12:25Z</time>
      </trkpt>
      <trkpt lat="42.4143280" lon="-7.3538440">
        <ele>962.9</ele>
        <time>2014-10-02T07:12:26Z</time>
      </trkpt>
      <trkpt lat="42.4143560" lon="-7.3538760">
        <ele>963.1</ele>
        <time>2014-10-02T07:12:27Z</time>
      </trkpt>
      <trkpt lat="42.4143830" lon="-7.3539090">
        <ele>963.3</ele>
        <time>2014-10-02T07:12:28Z</time>
      </trkpt>
      <trkpt lat="42.4144110" lon="-7.3539430">
        <ele>963.5</ele>
        <time>2014-10-02T07:12:29Z</time>
      </trkpt>
      <trkpt lat="42.4144430" lon="-7.3539780">
        <ele>963.6</ele>
        <time>2014-10-02T07:12:30Z</time>
      </trkpt>
      <trkpt lat="42.4144760" lon="-7.3540120">
        <ele>963.8</ele>
        <time>2014-10-02T07:12:31Z</time>
      </trkpt>
      <trkpt lat="42.4145110" lon="-7.3540450">
        <ele>963.9</ele>
        <time>2014-10-02T07:12:32Z</time>
      </trkpt>
      <trkpt lat="42.4145440" lon="-7.3540770">
        <ele>964.1</ele>
        <time>2014-10-02T07:12:33Z</time>
      </trkpt>
      <trkpt lat="42.4145810" lon="-7.3541120">
        <ele>964.2</ele>
        <time>2014-10-02T07:12:34Z</time>
      </trkpt>
      <trkpt lat="42.4146170" lon="-7.3541460">
        <ele>964.3</ele>
        <time>2014-10-02T07:12:35Z</time>
      </trkpt>
      <trkpt lat="42.4146520" lon="-7.3541810">
        <ele>964.3</ele>
        <time>2014-10-02T07:12:36Z</time>
      </trkpt>
      <trkpt lat="42.4146890" lon="-7.3542180">
        <ele>964.4</ele>
        <time>2014-10-02T07:12:37Z</time>
      </trkpt>
      <trkpt lat="42.4147290" lon="-7.3542570">
        <ele>964.3</ele>
        <time>2014-10-02T07:12:38Z</time>
      </trkpt>
      <trkpt lat="42.4147680" lon="-7.3542950">
        <ele>964.3</ele>
        <time>2014-10-02T07:12:39Z</time>
      </trkpt>
      <trkpt lat="42.4148090" lon="-7.3543340">
        <ele>964.2</ele>
        <time>2014-10-02T07:12:40Z</time>
      </trkpt>
      <trkpt lat="42.4148520" lon="-7.3543770">
        <ele>964.2</ele>
        <time>2014-10-02T07:12:41Z</time>
      </trkpt>
      <trkpt lat="42.4148950" lon="-7.3544220">
        <ele>964.1</ele>
        <time>2014-10-02T07:12:42Z</time>
      </trkpt>
      <trkpt lat="42.4149360" lon="-7.3544680">
        <ele>963.9</ele>
        <time>2014-10-02T07:12:43Z</time>
      </trkpt>
      <trkpt lat="42.4149790" lon="-7.3545180">
        <ele>963.7</ele>
        <time>2014-10-02T07:12:44Z</time>
      </trkpt>
      <trkpt lat="42.4150220" lon="-7.3545700">
        <ele>963.5</ele>
        <time>2014-10-02T07:12:45Z</time>
      </trkpt>
      <trkpt lat="42.4150670" lon="-7.3546260">
        <ele>963.3</ele>
        <time>2014-10-02T07:12:46Z</time>
      </trkpt>
      <trkpt lat="42.4151130" lon="-7.3546860">
        <ele>963.1</ele>
        <time>2014-10-02T07:12:47Z</time>
      </trkpt>
      <trkpt lat="42.4151650" lon="-7.3547520">
        <ele>962.7</ele>
        <time>2014-10-02T07:12:48Z</time>
      </trkpt>
      <trkpt lat="42.4152160" lon="-7.3548220">
        <ele>962.4</ele>
        <time>2014-10-02T07:12:49Z</time>
      </trkpt>
      <trkpt lat="42.4152700" lon="-7.3548970">
        <ele>962.0</ele>
        <time>2014-10-02T07:12:50Z</time>
      </trkpt>
      <trkpt lat="42.4153200" lon="-7.3549760">
        <ele>961.4</ele>
        <time>2014-10-02T07:12:51Z</time>
      </trkpt>
      <trkpt lat="42.4153710" lon="-7.3550560">
        <ele>960.8</ele>
        <time>2014-10-02T07:12:52Z</time>
      </trkpt>
      <trkpt lat="42.4154230" lon="-7.3551400">
        <ele>960.2</ele>
        <time>2014-10-02T07:12:53Z</time>
      </trkpt>
      <trkpt lat="42.4154790" lon="-7.3552280">
        <ele>959.6</ele>
        <time>2014-10-02T07:12:54Z</time>
      </trkpt>
      <trkpt lat="42.4155340" lon="-7.3553220">
        <ele>958.9</ele>
        <time>2014-10-02T07:12:55Z</time>
      </trkpt>
      <trkpt lat="42.4155920" lon="-7.3554190">
        <ele>958.1</ele>
        <time>2014-10-02T07:12:56Z</time>
      </trkpt>
      <trkpt lat="42.4156520" lon="-7.3555190">
        <ele>957.3</ele>
        <time>2014-10-02T07:12:57Z</time>
      </trkpt>
      <trkpt lat="42.4157190" lon="-7.3556220">
        <ele>956.6</ele>
        <time>2014-10-02T07:12:58Z</time>
      </trkpt>
      <trkpt lat="42.4157870" lon="-7.3557230">
        <ele>956.1</ele>
        <time>2014-10-02T07:12:59Z</time>
      </trkpt>
      <trkpt lat="42.4158550" lon="-7.3558240">
        <ele>955.6</ele>
        <time>2014-10-02T07:13:00Z</time>
      </trkpt>
      <trkpt lat="42.4159190" lon="-7.3559230">
        <ele>955.1</ele>
        <time>2014-10-02T07:13:01Z</time>
      </trkpt>
      <trkpt lat="42.4159810" lon="-7.3560170">
        <ele>954.5</ele>
        <time>2014-10-02T07:13:02Z</time>
      </trkpt>
      <trkpt lat="42.4160450" lon="-7.3561070">
        <ele>954.0</ele>
        <time>2014-10-02T07:13:03Z</time>
      </trkpt>
      <trkpt lat="42.4161140" lon="-7.3561930">
        <ele>953.5</ele>
        <time>2014-10-02T07:13:04Z</time>
      </trkpt>
      <trkpt lat="42.4161910" lon="-7.3562800">
        <ele>952.6</ele>
        <time>2014-10-02T07:13:05Z</time>
      </trkpt>
      <trkpt lat="42.4162720" lon="-7.3563630">
        <ele>951.8</ele>
        <time>2014-10-02T07:13:06Z</time>
      </trkpt>
      <trkpt lat="42.4163670" lon="-7.3564200">
        <ele>951.2</ele>
        <time>2014-10-02T07:13:07Z</time>
      </trkpt>
      <trkpt lat="42.4164570" lon="-7.3564660">
        <ele>950.8</ele>
        <time>2014-10-02T07:13:08Z</time>
      </trkpt>
      <trkpt lat="42.4165350" lon="-7.3564980">
        <ele>950.5</ele>
        <time>2014-10-02T07:13:09Z</time>
      </trkpt>
      <trkpt lat="42.4166230" lon="-7.3565240">
        <ele>950.4</ele>
        <time>2014-10-02T07:13:10Z</time>
      </trkpt>
      <trkpt lat="42.4167080" lon="-7.3565440">
        <ele>950.4</ele>
        <time>2014-10-02T07:13:11Z</time>
      </trkpt>
      <trkpt lat="42.4167740" lon="-7.3565600">
        <ele>950.4</ele>
        <time>2014-10-02T07:13:12Z</time>
      </trkpt>
      <trkpt lat="42.4168180" lon="-7.3566080">
        <ele>950.4</ele>
        <time>2014-10-02T07:13:13Z</time>
      </trkpt>
      <trkpt lat="42.4168460" lon="-7.3566730">
        <ele>950.4</ele>
        <time>2014-10-02T07:13:14Z</time>
      </trkpt>
      <trkpt lat="42.4168720" lon="-7.3567440">
        <ele>950.4</ele>
        <time>2014-10-02T07:13:15Z</time>
      </trkpt>
      <trkpt lat="42.4168810" lon="-7.3568280">
        <ele>950.5</ele>
        <time>2014-10-02T07:13:16Z</time>
      </trkpt>
      <trkpt lat="42.4168880" lon="-7.3569130">
        <ele>950.5</ele>
        <time>2014-10-02T07:13:17Z</time>
      </trkpt>
      <trkpt lat="42.4168810" lon="-7.3570000">
        <ele>950.6</ele>
        <time>2014-10-02T07:13:18Z</time>
      </trkpt>
      <trkpt lat="42.4168670" lon="-7.3570830">
        <ele>950.7</ele>
        <time>2014-10-02T07:13:19Z</time>
      </trkpt>
      <trkpt lat="42.4168490" lon="-7.3571570">
        <ele>951.0</ele>
        <time>2014-10-02T07:13:20Z</time>
      </trkpt>
      <trkpt lat="42.4168260" lon="-7.3572300">
        <ele>951.3</ele>
        <time>2014-10-02T07:13:21Z</time>
      </trkpt>
      <trkpt lat="42.4168030" lon="-7.3572910">
        <ele>951.6</ele>
        <time>2014-10-02T07:13:22Z</time>
      </trkpt>
      <trkpt lat="42.4167800" lon="-7.3573510">
        <ele>951.9</ele>
        <time>2014-10-02T07:13:23Z</time>
      </trkpt>
      <trkpt lat="42.4167560" lon="-7.3574030">
        <ele>952.2</ele>
        <time>2014-10-02T07:13:24Z</time>
      </trkpt>
      <trkpt lat="42.4167270" lon="-7.3574530">
        <ele>952.5</ele>
        <time>2014-10-02T07:13:25Z</time>
      </trkpt>
      <trkpt lat="42.4166970" lon="-7.3574990">
        <ele>952.8</ele>
        <time>2014-10-02T07:13:26Z</time>
      </trkpt>
      <trkpt lat="42.4166540" lon="-7.3575460">
        <ele>953.1</ele>
        <time>2014-10-02T07:13:27Z</time>
      </trkpt>
      <trkpt lat="42.4166140" lon="-7.3575890">
        <ele>953.4</ele>
        <time>2014-10-02T07:13:28Z</time>
      </trkpt>
      <trkpt lat="42.4165770" lon="-7.3576260">
        <ele>953.7</ele>
        <time>2014-10-02T07:13:29Z</time>
      </trkpt>
      <trkpt lat="42.4165430" lon="-7.3576570">
        <ele>954.0</ele>
        <time>2014-10-02T07:13:30Z</time>
      </trkpt>
      <trkpt lat="42.4165050" lon="-7.3576880">
        <ele>954.3</ele>
        <time>2014-10-02T07:13:31Z</time>
      </trkpt>
      <trkpt lat="42.4164710" lon="-7.3577170">
        <ele>954.5</ele>
        <time>2014-10-02T07:13:32Z</time>
      </trkpt>
      <trkpt lat="42.4164420" lon="-7.3577390">
        <ele>954.7</ele>
        <time>2014-10-02T07:13:33Z</time>
      </trkpt>
      <trkpt lat="42.4164130" lon="-7.3577600">
        <ele>954.9</ele>
        <time>2014-10-02T07:13:34Z</time>
      </trkpt>
      <trkpt lat="42.4163880" lon="-7.3577800">
        <ele>955.0</ele>
        <time>2014-10-02T07:13:35Z</time>
      </trkpt>
      <trkpt lat="42.4163490" lon="-7.3578190">
        <ele>955.1</ele>
        <time>2014-10-02T07:13:37Z</time>
      </trkpt>
      <trkpt lat="42.4163110" lon="-7.3578660">
        <ele>955.2</ele>
        <time>2014-10-02T07:13:39Z</time>
      </trkpt>
      <trkpt lat="42.4162740" lon="-7.3579070">
        <ele>955.3</ele>
        <time>2014-10-02T07:13:41Z</time>
      </trkpt>
      <trkpt lat="42.4162150" lon="-7.3580050">
        <ele>955.5</ele>
        <time>2014-10-02T07:13:46Z</time>
      </trkpt>
      <trkpt lat="42.4162070" lon="-7.3580480">
        <ele>955.6</ele>
        <time>2014-10-02T07:13:50Z</time>
      </trkpt>
      <trkpt lat="42.4161770" lon="-7.3580040">
        <ele>955.6</ele>
        <time>2014-10-02T07:13:52Z</time>
      </trkpt>
      <trkpt lat="42.4161500" lon="-7.3579760">
        <ele>955.7</ele>
        <time>2014-10-02T07:13:54Z</time>
      </trkpt>
      <trkpt lat="42.4161230" lon="-7.3579500">
        <ele>955.8</ele>
        <time>2014-10-02T07:13:56Z</time>
      </trkpt>
      <trkpt lat="42.4161120" lon="-7.3579160">
        <ele>955.9</ele>
        <time>2014-10-02T07:13:57Z</time>
      </trkpt>
      <trkpt lat="42.4161250" lon="-7.3578790">
        <ele>955.9</ele>
        <time>2014-10-02T07:13:59Z</time>
      </trkpt>
      <trkpt lat="42.4161480" lon="-7.3578990">
        <ele>956.0</ele>
        <time>2014-10-02T07:14:00Z</time>
      </trkpt>
      <trkpt lat="42.4161640" lon="-7.3579290">
        <ele>956.1</ele>
        <time>2014-10-02T07:14:01Z</time>
      </trkpt>
      <trkpt lat="42.4161850" lon="-7.3579670">
        <ele>956.2</ele>
        <time>2014-10-02T07:14:02Z</time>
      </trkpt>
      <trkpt lat="42.4162020" lon="-7.3580120">
        <ele>956.4</ele>
        <time>2014-10-02T07:14:03Z</time>
      </trkpt>
      <trkpt lat="42.4162180" lon="-7.3580570">
        <ele>956.9</ele>
        <time>2014-10-02T07:14:04Z</time>
      </trkpt>
      <trkpt lat="42.4162410" lon="-7.3580910">
        <ele>957.4</ele>
        <time>2014-10-02T07:14:05Z</time>
      </trkpt>
      <trkpt lat="42.4162600" lon="-7.3581260">
        <ele>958.0</ele>
        <time>2014-10-02T07:14:06Z</time>
      </trkpt>
      <trkpt lat="42.4162780" lon="-7.3581610">
        <ele>958.5</ele>
        <time>2014-10-02T07:14:07Z</time>
      </trkpt>
      <trkpt lat="42.4163000" lon="-7.3581880">
        <ele>958.9</ele>
        <time>2014-10-02T07:14:08Z</time>
      </trkpt>
      <trkpt lat="42.4163240" lon="-7.3582120">
        <ele>959.4</ele>
        <time>2014-10-02T07:14:09Z</time>
      </trkpt>
      <trkpt lat="42.4163480" lon="-7.3582360">
        <ele>959.9</ele>
        <time>2014-10-02T07:14:10Z</time>
      </trkpt>
      <trkpt lat="42.4163740" lon="-7.3582600">
        <ele>960.4</ele>
        <time>2014-10-02T07:14:11Z</time>
      </trkpt>
      <trkpt lat="42.4164000" lon="-7.3582860">
        <ele>960.9</ele>
        <time>2014-10-02T07:14:12Z</time>
      </trkpt>
      <trkpt lat="42.4164330" lon="-7.3583140">
        <ele>961.4</ele>
        <time>2014-10-02T07:14:13Z</time>
      </trkpt>
      <trkpt lat="42.4164790" lon="-7.3583450">
        <ele>962.1</ele>
        <time>2014-10-02T07:14:15Z</time>
      </trkpt>
      <trkpt lat="42.4165040" lon="-7.3583610">
        <ele>962.3</ele>
        <time>2014-10-02T07:14:16Z</time>
      </trkpt>
      <trkpt lat="42.4165530" lon="-7.3583990">
        <ele>963.1</ele>
        <time>2014-10-02T07:14:18Z</time>
      </trkpt>
      <trkpt lat="42.4165740" lon="-7.3584220">
        <ele>963.5</ele>
        <time>2014-10-02T07:14:19Z</time>
      </trkpt>
      <trkpt lat="42.4166050" lon="-7.3584730">
        <ele>964.4</ele>
        <time>2014-10-02T07:14:21Z</time>
      </trkpt>
      <trkpt lat="42.4166100" lon="-7.3585380">
        <ele>965.2</ele>
        <time>2014-10-02T07:14:23Z</time>
      </trkpt>
      <trkpt lat="42.4166180" lon="-7.3586030">
        <ele>966.0</ele>
        <time>2014-10-02T07:14:25Z</time>
      </trkpt>
      <trkpt lat="42.4166300" lon="-7.3586630">
        <ele>966.8</ele>
        <time>2014-10-02T07:14:27Z</time>
      </trkpt>
      <trkpt lat="42.4166350" lon="-7.3587170">
        <ele>967.5</ele>
        <time>2014-10-02T07:14:29Z</time>
      </trkpt>
      <trkpt lat="42.4166340" lon="-7.3587780">
        <ele>968.2</ele>
        <time>2014-10-02T07:14:31Z</time>
      </trkpt>
      <trkpt lat="42.4166330" lon="-7.3588480">
        <ele>969.0</ele>
        <time>2014-10-02T07:14:33Z</time>
      </trkpt>
      <trkpt lat="42.4166330" lon="-7.3589120">
        <ele>969.7</ele>
        <time>2014-10-02T07:14:35Z</time>
      </trkpt>
      <trkpt lat="42.4166330" lon="-7.3590830">
        <ele>970.8</ele>
        <time>2014-10-02T07:14:40Z</time>
      </trkpt>
      <trkpt lat="42.4166350" lon="-7.3591280">
        <ele>970.9</ele>
        <time>2014-10-02T07:14:41Z</time>
      </trkpt>
      <trkpt lat="42.4166360" lon="-7.3591690">
        <ele>971.0</ele>
        <time>2014-10-02T07:14:42Z</time>
      </trkpt>
      <trkpt lat="42.4166350" lon="-7.3592190">
        <ele>971.2</ele>
        <time>2014-10-02T07:14:43Z</time>
      </trkpt>
      <trkpt lat="42.4166360" lon="-7.3592750">
        <ele>971.5</ele>
        <time>2014-10-02T07:14:44Z</time>
      </trkpt>
      <trkpt lat="42.4166410" lon="-7.3593260">
        <ele>971.7</ele>
        <time>2014-10-02T07:14:45Z</time>
      </trkpt>
      <trkpt lat="42.4166540" lon="-7.3593810">
        <ele>971.9</ele>
        <time>2014-10-02T07:14:46Z</time>
      </trkpt>
      <trkpt lat="42.4166670" lon="-7.3594330">
        <ele>972.0</ele>
        <time>2014-10-02T07:14:47Z</time>
      </trkpt>
      <trkpt lat="42.4166800" lon="-7.3594880">
        <ele>972.2</ele>
        <time>2014-10-02T07:14:48Z</time>
      </trkpt>
      <trkpt lat="42.4166920" lon="-7.3595340">
        <ele>972.3</ele>
        <time>2014-10-02T07:14:49Z</time>
      </trkpt>
      <trkpt lat="42.4167040" lon="-7.3595770">
        <ele>972.4</ele>
        <time>2014-10-02T07:14:50Z</time>
      </trkpt>
      <trkpt lat="42.4167150" lon="-7.3596190">
        <ele>972.5</ele>
        <time>2014-10-02T07:14:51Z</time>
      </trkpt>
      <trkpt lat="42.4167250" lon="-7.3596640">
        <ele>972.7</ele>
        <time>2014-10-02T07:14:52Z</time>
      </trkpt>
      <trkpt lat="42.4167340" lon="-7.3597060">
        <ele>972.8</ele>
        <time>2014-10-02T07:14:53Z</time>
      </trkpt>
      <trkpt lat="42.4167440" lon="-7.3597460">
        <ele>973.0</ele>
        <time>2014-10-02T07:14:54Z</time>
      </trkpt>
      <trkpt lat="42.4167570" lon="-7.3597920">
        <ele>973.2</ele>
        <time>2014-10-02T07:14:55Z</time>
      </trkpt>
      <trkpt lat="42.4167690" lon="-7.3598420">
        <ele>973.4</ele>
        <time>2014-10-02T07:14:56Z</time>
      </trkpt>
      <trkpt lat="42.4167780" lon="-7.3598940">
        <ele>973.6</ele>
        <time>2014-10-02T07:14:57Z</time>
      </trkpt>
      <trkpt lat="42.4167850" lon="-7.3599420">
        <ele>973.8</ele>
        <time>2014-10-02T07:14:58Z</time>
      </trkpt>
      <trkpt lat="42.4167930" lon="-7.3599900">
        <ele>974.0</ele>
        <time>2014-10-02T07:14:59Z</time>
      </trkpt>
      <trkpt lat="42.4168000" lon="-7.3600370">
        <ele>974.3</ele>
        <time>2014-10-02T07:15:00Z</time>
      </trkpt>
      <trkpt lat="42.4168090" lon="-7.3600870">
        <ele>974.5</ele>
        <time>2014-10-02T07:15:01Z</time>
      </trkpt>
      <trkpt lat="42.4168220" lon="-7.3601390">
        <ele>974.8</ele>
        <time>2014-10-02T07:15:02Z</time>
      </trkpt>
      <trkpt lat="42.4168340" lon="-7.3601920">
        <ele>975.0</ele>
        <time>2014-10-02T07:15:03Z</time>
      </trkpt>
      <trkpt lat="42.4168480" lon="-7.3602420">
        <ele>975.2</ele>
        <time>2014-10-02T07:15:04Z</time>
      </trkpt>
      <trkpt lat="42.4168640" lon="-7.3602880">
        <ele>975.4</ele>
        <time>2014-10-02T07:15:05Z</time>
      </trkpt>
      <trkpt lat="42.4168800" lon="-7.3603350">
        <ele>975.5</ele>
        <time>2014-10-02T07:15:06Z</time>
      </trkpt>
      <trkpt lat="42.4168960" lon="-7.3603850">
        <ele>975.7</ele>
        <time>2014-10-02T07:15:07Z</time>
      </trkpt>
      <trkpt lat="42.4169130" lon="-7.3604320">
        <ele>975.8</ele>
        <time>2014-10-02T07:15:08Z</time>
      </trkpt>
      <trkpt lat="42.4169310" lon="-7.3604800">
        <ele>975.9</ele>
        <time>2014-10-02T07:15:09Z</time>
      </trkpt>
      <trkpt lat="42.4169490" lon="-7.3605300">
        <ele>976.0</ele>
        <time>2014-10-02T07:15:10Z</time>
      </trkpt>
      <trkpt lat="42.4169680" lon="-7.3605840">
        <ele>976.1</ele>
        <time>2014-10-02T07:15:11Z</time>
      </trkpt>
      <trkpt lat="42.4169860" lon="-7.3606380">
        <ele>976.2</ele>
        <time>2014-10-02T07:15:12Z</time>
      </trkpt>
      <trkpt lat="42.4170060" lon="-7.3606910">
        <ele>976.3</ele>
        <time>2014-10-02T07:15:13Z</time>
      </trkpt>
      <trkpt lat="42.4170270" lon="-7.3607460">
        <ele>976.4</ele>
        <time>2014-10-02T07:15:14Z</time>
      </trkpt>
      <trkpt lat="42.4170510" lon="-7.3608050">
        <ele>976.5</ele>
        <time>2014-10-02T07:15:15Z</time>
      </trkpt>
      <trkpt lat="42.4170740" lon="-7.3608640">
        <ele>976.4</ele>
        <time>2014-10-02T07:15:16Z</time>
      </trkpt>
      <trkpt lat="42.4170990" lon="-7.3609300">
        <ele>976.4</ele>
        <time>2014-10-02T07:15:17Z</time>
      </trkpt>
      <trkpt lat="42.4171250" lon="-7.3609960">
        <ele>976.4</ele>
        <time>2014-10-02T07:15:18Z</time>
      </trkpt>
      <trkpt lat="42.4171520" lon="-7.3610620">
        <ele>976.3</ele>
        <time>2014-10-02T07:15:19Z</time>
      </trkpt>
      <trkpt lat="42.4171790" lon="-7.3611260">
        <ele>976.3</ele>
        <time>2014-10-02T07:15:20Z</time>
      </trkpt>
      <trkpt lat="42.4172080" lon="-7.3611890">
        <ele>976.3</ele>
        <time>2014-10-02T07:15:21Z</time>
      </trkpt>
      <trkpt lat="42.4172370" lon="-7.3612570">
        <ele>976.3</ele>
        <time>2014-10-02T07:15:22Z</time>
      </trkpt>
      <trkpt lat="42.4172650" lon="-7.3613250">
        <ele>976.2</ele>
        <time>2014-10-02T07:15:23Z</time>
      </trkpt>
      <trkpt lat="42.4172930" lon="-7.3613980">
        <ele>976.1</ele>
        <time>2014-10-02T07:15:24Z</time>
      </trkpt>
      <trkpt lat="42.4173210" lon="-7.3614740">
        <ele>976.0</ele>
        <time>2014-10-02T07:15:25Z</time>
      </trkpt>
      <trkpt lat="42.4173520" lon="-7.3615500">
        <ele>975.8</ele>
        <time>2014-10-02T07:15:26Z</time>
      </trkpt>
      <trkpt lat="42.4173810" lon="-7.3616310">
        <ele>975.7</ele>
        <time>2014-10-02T07:15:27Z</time>
      </trkpt>
      <trkpt lat="42.4174110" lon="-7.3617130">
        <ele>975.5</ele>
        <time>2014-10-02T07:15:28Z</time>
      </trkpt>
      <trkpt lat="42.4174400" lon="-7.3617920">
        <ele>975.3</ele>
        <time>2014-10-02T07:15:29Z</time>
      </trkpt>
      <trkpt lat="42.4174700" lon="-7.3618770">
        <ele>975.1</ele>
        <time>2014-10-02T07:15:30Z</time>
      </trkpt>
      <trkpt lat="42.4174950" lon="-7.3619550">
        <ele>974.9</ele>
        <time>2014-10-02T07:15:31Z</time>
      </trkpt>
      <trkpt lat="42.4175220" lon="-7.3620420">
        <ele>974.7</ele>
        <time>2014-10-02T07:15:32Z</time>
      </trkpt>
      <trkpt lat="42.4175510" lon="-7.3621290">
        <ele>974.5</ele>
        <time>2014-10-02T07:15:33Z</time>
      </trkpt>
      <trkpt lat="42.4175790" lon="-7.3622130">
        <ele>974.4</ele>
        <time>2014-10-02T07:15:34Z</time>
      </trkpt>
      <trkpt lat="42.4176110" lon="-7.3622950">
        <ele>974.3</ele>
        <time>2014-10-02T07:15:35Z</time>
      </trkpt>
      <trkpt lat="42.4176460" lon="-7.3623820">
        <ele>974.3</ele>
        <time>2014-10-02T07:15:36Z</time>
      </trkpt>
      <trkpt lat="42.4176830" lon="-7.3624690">
        <ele>974.2</ele>
        <time>2014-10-02T07:15:37Z</time>
      </trkpt>
      <trkpt lat="42.4177240" lon="-7.3625510">
        <ele>974.1</ele>
        <time>2014-10-02T07:15:38Z</time>
      </trkpt>
      <trkpt lat="42.4177670" lon="-7.3626280">
        <ele>974.0</ele>
        <time>2014-10-02T07:15:39Z</time>
      </trkpt>
      <trkpt lat="42.4178100" lon="-7.3627010">
        <ele>973.9</ele>
        <time>2014-10-02T07:15:40Z</time>
      </trkpt>
      <trkpt lat="42.4178540" lon="-7.3627710">
        <ele>973.9</ele>
        <time>2014-10-02T07:15:41Z</time>
      </trkpt>
      <trkpt lat="42.4178990" lon="-7.3628430">
        <ele>973.9</ele>
        <time>2014-10-02T07:15:42Z</time>
      </trkpt>
      <trkpt lat="42.4179430" lon="-7.3629150">
        <ele>973.9</ele>
        <time>2014-10-02T07:15:43Z</time>
      </trkpt>
      <trkpt lat="42.4179840" lon="-7.3629870">
        <ele>974.0</ele>
        <time>2014-10-02T07:15:44Z</time>
      </trkpt>
      <trkpt lat="42.4180240" lon="-7.3630570">
        <ele>974.1</ele>
        <time>2014-10-02T07:15:45Z</time>
      </trkpt>
      <trkpt lat="42.4180620" lon="-7.3631300">
        <ele>974.1</ele>
        <time>2014-10-02T07:15:46Z</time>
      </trkpt>
      <trkpt lat="42.4181000" lon="-7.3632050">
        <ele>974.1</ele>
        <time>2014-10-02T07:15:47Z</time>
      </trkpt>
      <trkpt lat="42.4181380" lon="-7.3632820">
        <ele>974.1</ele>
        <time>2014-10-02T07:15:48Z</time>
      </trkpt>
      <trkpt lat="42.4181730" lon="-7.3633570">
        <ele>974.0</ele>
        <time>2014-10-02T07:15:49Z</time>
      </trkpt>
      <trkpt lat="42.4182110" lon="-7.3634360">
        <ele>973.9</ele>
        <time>2014-10-02T07:15:50Z</time>
      </trkpt>
      <trkpt lat="42.4182500" lon="-7.3635160">
        <ele>973.7</ele>
        <time>2014-10-02T07:15:51Z</time>
      </trkpt>
      <trkpt lat="42.4182910" lon="-7.3635990">
        <ele>973.6</ele>
        <time>2014-10-02T07:15:52Z</time>
      </trkpt>
      <trkpt lat="42.4183360" lon="-7.3636840">
        <ele>973.3</ele>
        <time>2014-10-02T07:15:53Z</time>
      </trkpt>
      <trkpt lat="42.4183780" lon="-7.3637690">
        <ele>973.1</ele>
        <time>2014-10-02T07:15:54Z</time>
      </trkpt>
      <trkpt lat="42.4184240" lon="-7.3638560">
        <ele>973.0</ele>
        <time>2014-10-02T07:15:55Z</time>
      </trkpt>
      <trkpt lat="42.4184740" lon="-7.3639460">
        <ele>972.8</ele>
        <time>2014-10-02T07:15:56Z</time>
      </trkpt>
      <trkpt lat="42.4185250" lon="-7.3640380">
        <ele>972.6</ele>
        <time>2014-10-02T07:15:57Z</time>
      </trkpt>
      <trkpt lat="42.4185780" lon="-7.3641320">
        <ele>972.2</ele>
        <time>2014-10-02T07:15:58Z</time>
      </trkpt>
      <trkpt lat="42.4186340" lon="-7.3642290">
        <ele>971.7</ele>
        <time>2014-10-02T07:15:59Z</time>
      </trkpt>
      <trkpt lat="42.4186910" lon="-7.3643230">
        <ele>971.3</ele>
        <time>2014-10-02T07:16:00Z</time>
      </trkpt>
      <trkpt lat="42.4187510" lon="-7.3644190">
        <ele>971.0</ele>
        <time>2014-10-02T07:16:01Z</time>
      </trkpt>
      <trkpt lat="42.4188110" lon="-7.3645150">
        <ele>970.7</ele>
        <time>2014-10-02T07:16:02Z</time>
      </trkpt>
      <trkpt lat="42.4188700" lon="-7.3646130">
        <ele>970.5</ele>
        <time>2014-10-02T07:16:03Z</time>
      </trkpt>
      <trkpt lat="42.4189280" lon="-7.3647090">
        <ele>970.2</ele>
        <time>2014-10-02T07:16:04Z</time>
      </trkpt>
      <trkpt lat="42.4189850" lon="-7.3648070">
        <ele>969.9</ele>
        <time>2014-10-02T07:16:05Z</time>
      </trkpt>
      <trkpt lat="42.4190420" lon="-7.3649080">
        <ele>969.7</ele>
        <time>2014-10-02T07:16:06Z</time>
      </trkpt>
      <trkpt lat="42.4190970" lon="-7.3650070">
        <ele>969.4</ele>
        <time>2014-10-02T07:16:07Z</time>
      </trkpt>
      <trkpt lat="42.4191550" lon="-7.3651080">
        <ele>969.1</ele>
        <time>2014-10-02T07:16:08Z</time>
      </trkpt>
      <trkpt lat="42.4192080" lon="-7.3652120">
        <ele>968.9</ele>
        <time>2014-10-02T07:16:09Z</time>
      </trkpt>
      <trkpt lat="42.4192580" lon="-7.3653220">
        <ele>968.7</ele>
        <time>2014-10-02T07:16:10Z</time>
      </trkpt>
      <trkpt lat="42.4193030" lon="-7.3654350">
        <ele>968.8</ele>
        <time>2014-10-02T07:16:11Z</time>
      </trkpt>
      <trkpt lat="42.4193240" lon="-7.3655580">
        <ele>969.1</ele>
        <time>2014-10-02T07:16:12Z</time>
      </trkpt>
      <trkpt lat="42.4193380" lon="-7.3656780">
        <ele>969.5</ele>
        <time>2014-10-02T07:16:13Z</time>
      </trkpt>
      <trkpt lat="42.4193450" lon="-7.3658030">
        <ele>969.9</ele>
        <time>2014-10-02T07:16:14Z</time>
      </trkpt>
      <trkpt lat="42.4193440" lon="-7.3659240">
        <ele>970.1</ele>
        <time>2014-10-02T07:16:15Z</time>
      </trkpt>
      <trkpt lat="42.4193380" lon="-7.3660330">
        <ele>970.2</ele>
        <time>2014-10-02T07:16:16Z</time>
      </trkpt>
      <trkpt lat="42.4193310" lon="-7.3661350">
        <ele>970.5</ele>
        <time>2014-10-02T07:16:17Z</time>
      </trkpt>
      <trkpt lat="42.4193230" lon="-7.3662330">
        <ele>971.0</ele>
        <time>2014-10-02T07:16:18Z</time>
      </trkpt>
      <trkpt lat="42.4193110" lon="-7.3663300">
        <ele>971.4</ele>
        <time>2014-10-02T07:16:19Z</time>
      </trkpt>
      <trkpt lat="42.4193000" lon="-7.3664210">
        <ele>971.7</ele>
        <time>2014-10-02T07:16:20Z</time>
      </trkpt>
      <trkpt lat="42.4192870" lon="-7.3665100">
        <ele>972.0</ele>
        <time>2014-10-02T07:16:21Z</time>
      </trkpt>
      <trkpt lat="42.4192750" lon="-7.3665880">
        <ele>972.3</ele>
        <time>2014-10-02T07:16:22Z</time>
      </trkpt>
      <trkpt lat="42.4192620" lon="-7.3666700">
        <ele>972.8</ele>
        <time>2014-10-02T07:16:23Z</time>
      </trkpt>
      <trkpt lat="42.4192510" lon="-7.3667440">
        <ele>973.5</ele>
        <time>2014-10-02T07:16:24Z</time>
      </trkpt>
      <trkpt lat="42.4192410" lon="-7.3668170">
        <ele>974.1</ele>
        <time>2014-10-02T07:16:25Z</time>
      </trkpt>
      <trkpt lat="42.4192300" lon="-7.3668910">
        <ele>974.6</ele>
        <time>2014-10-02T07:16:26Z</time>
      </trkpt>
      <trkpt lat="42.4192200" lon="-7.3669640">
        <ele>974.9</ele>
        <time>2014-10-02T07:16:27Z</time>
      </trkpt>
      <trkpt lat="42.4192110" lon="-7.3670340">
        <ele>975.1</ele>
        <time>2014-10-02T07:16:28Z</time>
      </trkpt>
      <trkpt lat="42.4192020" lon="-7.3671030">
        <ele>975.3</ele>
        <time>2014-10-02T07:16:29Z</time>
      </trkpt>
      <trkpt lat="42.4191940" lon="-7.3671690">
        <ele>975.6</ele>
        <time>2014-10-02T07:16:30Z</time>
      </trkpt>
      <trkpt lat="42.4191850" lon="-7.3672320">
        <ele>975.9</ele>
        <time>2014-10-02T07:16:31Z</time>
      </trkpt>
      <trkpt lat="42.4191770" lon="-7.3672920">
        <ele>976.2</ele>
        <time>2014-10-02T07:16:32Z</time>
      </trkpt>
      <trkpt lat="42.4191720" lon="-7.3673500">
        <ele>976.5</ele>
        <time>2014-10-02T07:16:33Z</time>
      </trkpt>
      <trkpt lat="42.4191660" lon="-7.3674130">
        <ele>976.8</ele>
        <time>2014-10-02T07:16:34Z</time>
      </trkpt>
      <trkpt lat="42.4191640" lon="-7.3674690">
        <ele>977.2</ele>
        <time>2014-10-02T07:16:35Z</time>
      </trkpt>
      <trkpt lat="42.4191700" lon="-7.3675150">
        <ele>977.4</ele>
        <time>2014-10-02T07:16:36Z</time>
      </trkpt>
      <trkpt lat="42.4191780" lon="-7.3675600">
        <ele>977.6</ele>
        <time>2014-10-02T07:16:37Z</time>
      </trkpt>
      <trkpt lat="42.4191900" lon="-7.3676090">
        <ele>977.9</ele>
        <time>2014-10-02T07:16:38Z</time>
      </trkpt>
      <trkpt lat="42.4192040" lon="-7.3676550">
        <ele>978.1</ele>
        <time>2014-10-02T07:16:39Z</time>
      </trkpt>
      <trkpt lat="42.4192200" lon="-7.3677060">
        <ele>978.4</ele>
        <time>2014-10-02T07:16:40Z</time>
      </trkpt>
      <trkpt lat="42.4192410" lon="-7.3677560">
        <ele>978.6</ele>
        <time>2014-10-02T07:16:41Z</time>
      </trkpt>
      <trkpt lat="42.4192610" lon="-7.3678030">
        <ele>978.8</ele>
        <time>2014-10-02T07:16:42Z</time>
      </trkpt>
      <trkpt lat="42.4192810" lon="-7.3678520">
        <ele>979.1</ele>
        <time>2014-10-02T07:16:43Z</time>
      </trkpt>
      <trkpt lat="42.4193030" lon="-7.3679000">
        <ele>979.3</ele>
        <time>2014-10-02T07:16:44Z</time>
      </trkpt>
      <trkpt lat="42.4193300" lon="-7.3679500">
        <ele>979.5</ele>
        <time>2014-10-02T07:16:45Z</time>
      </trkpt>
      <trkpt lat="42.4193580" lon="-7.3680040">
        <ele>979.8</ele>
        <time>2014-10-02T07:16:46Z</time>
      </trkpt>
      <trkpt lat="42.4193850" lon="-7.3680530">
        <ele>980.0</ele>
        <time>2014-10-02T07:16:47Z</time>
      </trkpt>
      <trkpt lat="42.4194130" lon="-7.3681050">
        <ele>980.2</ele>
        <time>2014-10-02T07:16:48Z</time>
      </trkpt>
      <trkpt lat="42.4194400" lon="-7.3681570">
        <ele>980.5</ele>
        <time>2014-10-02T07:16:49Z</time>
      </trkpt>
      <trkpt lat="42.4194670" lon="-7.3682080">
        <ele>980.7</ele>
        <time>2014-10-02T07:16:50Z</time>
      </trkpt>
      <trkpt lat="42.4194930" lon="-7.3682610">
        <ele>980.9</ele>
        <time>2014-10-02T07:16:51Z</time>
      </trkpt>
      <trkpt lat="42.4195180" lon="-7.3683110">
        <ele>981.1</ele>
        <time>2014-10-02T07:16:52Z</time>
      </trkpt>
      <trkpt lat="42.4195420" lon="-7.3683600">
        <ele>981.2</ele>
        <time>2014-10-02T07:16:53Z</time>
      </trkpt>
      <trkpt lat="42.4195680" lon="-7.3684120">
        <ele>981.3</ele>
        <time>2014-10-02T07:16:54Z</time>
      </trkpt>
      <trkpt lat="42.4195950" lon="-7.3684660">
        <ele>981.5</ele>
        <time>2014-10-02T07:16:55Z</time>
      </trkpt>
      <trkpt lat="42.4196200" lon="-7.3685200">
        <ele>981.6</ele>
        <time>2014-10-02T07:16:56Z</time>
      </trkpt>
      <trkpt lat="42.4196450" lon="-7.3685730">
        <ele>981.7</ele>
        <time>2014-10-02T07:16:57Z</time>
      </trkpt>
      <trkpt lat="42.4196680" lon="-7.3686270">
        <ele>982.0</ele>
        <time>2014-10-02T07:16:58Z</time>
      </trkpt>
      <trkpt lat="42.4196920" lon="-7.3686810">
        <ele>982.2</ele>
        <time>2014-10-02T07:16:59Z</time>
      </trkpt>
      <trkpt lat="42.4197140" lon="-7.3687340">
        <ele>982.4</ele>
        <time>2014-10-02T07:17:00Z</time>
      </trkpt>
      <trkpt lat="42.4197370" lon="-7.3687870">
        <ele>982.5</ele>
        <time>2014-10-02T07:17:01Z</time>
      </trkpt>
      <trkpt lat="42.4197600" lon="-7.3688410">
        <ele>982.7</ele>
        <time>2014-10-02T07:17:02Z</time>
      </trkpt>
      <trkpt lat="42.4197840" lon="-7.3688980">
        <ele>982.9</ele>
        <time>2014-10-02T07:17:03Z</time>
      </trkpt>
      <trkpt lat="42.4198080" lon="-7.3689530">
        <ele>983.1</ele>
        <time>2014-10-02T07:17:04Z</time>
      </trkpt>
      <trkpt lat="42.4198320" lon="-7.3690100">
        <ele>983.3</ele>
        <time>2014-10-02T07:17:05Z</time>
      </trkpt>
      <trkpt lat="42.4198570" lon="-7.3690670">
        <ele>983.5</ele>
        <time>2014-10-02T07:17:06Z</time>
      </trkpt>
      <trkpt lat="42.4198820" lon="-7.3691200">
        <ele>983.7</ele>
        <time>2014-10-02T07:17:07Z</time>
      </trkpt>
      <trkpt lat="42.4199090" lon="-7.3691750">
        <ele>983.8</ele>
        <time>2014-10-02T07:17:08Z</time>
      </trkpt>
      <trkpt lat="42.4199360" lon="-7.3692310">
        <ele>984.0</ele>
        <time>2014-10-02T07:17:09Z</time>
      </trkpt>
      <trkpt lat="42.4199620" lon="-7.3692840">
        <ele>984.2</ele>
        <time>2014-10-02T07:17:10Z</time>
      </trkpt>
      <trkpt lat="42.4199870" lon="-7.3693370">
        <ele>984.5</ele>
        <time>2014-10-02T07:17:11Z</time>
      </trkpt>
      <trkpt lat="42.4200100" lon="-7.3693880">
        <ele>984.9</ele>
        <time>2014-10-02T07:17:12Z</time>
      </trkpt>
      <trkpt lat="42.4200330" lon="-7.3694370">
        <ele>985.2</ele>
        <time>2014-10-02T07:17:13Z</time>
      </trkpt>
      <trkpt lat="42.4200560" lon="-7.3694830">
        <ele>985.6</ele>
        <time>2014-10-02T07:17:14Z</time>
      </trkpt>
      <trkpt lat="42.4200800" lon="-7.3695290">
        <ele>986.0</ele>
        <time>2014-10-02T07:17:15Z</time>
      </trkpt>
      <trkpt lat="42.4201050" lon="-7.3695730">
        <ele>986.3</ele>
        <time>2014-10-02T07:17:16Z</time>
      </trkpt>
      <trkpt lat="42.4201290" lon="-7.3696140">
        <ele>986.6</ele>
        <time>2014-10-02T07:17:17Z</time>
      </trkpt>
      <trkpt lat="42.4201560" lon="-7.3696520">
        <ele>986.6</ele>
        <time>2014-10-02T07:17:18Z</time>
      </trkpt>
      <trkpt lat="42.4201910" lon="-7.3696850">
        <ele>986.7</ele>
        <time>2014-10-02T07:17:19Z</time>
      </trkpt>
      <trkpt lat="42.4202240" lon="-7.3697120">
        <ele>986.7</ele>
        <time>2014-10-02T07:17:20Z</time>
      </trkpt>
      <trkpt lat="42.4202650" lon="-7.3697260">
        <ele>986.8</ele>
        <time>2014-10-02T07:17:21Z</time>
      </trkpt>
      <trkpt lat="42.4203040" lon="-7.3697370">
        <ele>986.8</ele>
        <time>2014-10-02T07:17:22Z</time>
      </trkpt>
      <trkpt lat="42.4203390" lon="-7.3697430">
        <ele>986.9</ele>
        <time>2014-10-02T07:17:23Z</time>
      </trkpt>
      <trkpt lat="42.4203770" lon="-7.3697480">
        <ele>987.0</ele>
        <time>2014-10-02T07:17:24Z</time>
      </trkpt>
      <trkpt lat="42.4204150" lon="-7.3697500">
        <ele>987.2</ele>
        <time>2014-10-02T07:17:25Z</time>
      </trkpt>
      <trkpt lat="42.4204560" lon="-7.3697500">
        <ele>987.3</ele>
        <time>2014-10-02T07:17:26Z</time>
      </trkpt>
      <trkpt lat="42.4204960" lon="-7.3697470">
        <ele>987.5</ele>
        <time>2014-10-02T07:17:27Z</time>
      </trkpt>
      <trkpt lat="42.4205340" lon="-7.3697450">
        <ele>987.6</ele>
        <time>2014-10-02T07:17:28Z</time>
      </trkpt>
      <trkpt lat="42.4205750" lon="-7.3697450">
        <ele>987.7</ele>
        <time>2014-10-02T07:17:29Z</time>
      </trkpt>
      <trkpt lat="42.4206120" lon="-7.3697460">
        <ele>987.9</ele>
        <time>2014-10-02T07:17:30Z</time>
      </trkpt>
      <trkpt lat="42.4206470" lon="-7.3697460">
        <ele>988.0</ele>
        <time>2014-10-02T07:17:31Z</time>
      </trkpt>
      <trkpt lat="42.4206860" lon="-7.3697450">
        <ele>988.2</ele>
        <time>2014-10-02T07:17:32Z</time>
      </trkpt>
      <trkpt lat="42.4207210" lon="-7.3697450">
        <ele>988.3</ele>
        <time>2014-10-02T07:17:33Z</time>
      </trkpt>
      <trkpt lat="42.4207580" lon="-7.3697460">
        <ele>988.5</ele>
        <time>2014-10-02T07:17:34Z</time>
      </trkpt>
      <trkpt lat="42.4207880" lon="-7.3697450">
        <ele>988.6</ele>
        <time>2014-10-02T07:17:35Z</time>
      </trkpt>
      <trkpt lat="42.4208180" lon="-7.3697450">
        <ele>988.7</ele>
        <time>2014-10-02T07:17:36Z</time>
      </trkpt>
      <trkpt lat="42.4208520" lon="-7.3697440">
        <ele>988.9</ele>
        <time>2014-10-02T07:17:37Z</time>
      </trkpt>
      <trkpt lat="42.4208840" lon="-7.3697430">
        <ele>989.1</ele>
        <time>2014-10-02T07:17:38Z</time>
      </trkpt>
      <trkpt lat="42.4209180" lon="-7.3697420">
        <ele>989.3</ele>
        <time>2014-10-02T07:17:39Z</time>
      </trkpt>
      <trkpt lat="42.4209470" lon="-7.3697420">
        <ele>989.6</ele>
        <time>2014-10-02T07:17:40Z</time>
      </trkpt>
      <trkpt lat="42.4209750" lon="-7.3697420">
        <ele>989.8</ele>
        <time>2014-10-02T07:17:41Z</time>
      </trkpt>
      <trkpt lat="42.4210040" lon="-7.3697430">
        <ele>990.0</ele>
        <time>2014-10-02T07:17:42Z</time>
      </trkpt>
      <trkpt lat="42.4210340" lon="-7.3697440">
        <ele>990.3</ele>
        <time>2014-10-02T07:17:43Z</time>
      </trkpt>
      <trkpt lat="42.4210670" lon="-7.3697450">
        <ele>990.6</ele>
        <time>2014-10-02T07:17:44Z</time>
      </trkpt>
      <trkpt lat="42.4210990" lon="-7.3697480">
        <ele>990.8</ele>
        <time>2014-10-02T07:17:45Z</time>
      </trkpt>
      <trkpt lat="42.4211280" lon="-7.3697510">
        <ele>991.0</ele>
        <time>2014-10-02T07:17:46Z</time>
      </trkpt>
      <trkpt lat="42.4211590" lon="-7.3697530">
        <ele>991.3</ele>
        <time>2014-10-02T07:17:47Z</time>
      </trkpt>
      <trkpt lat="42.4211900" lon="-7.3697550">
        <ele>991.5</ele>
        <time>2014-10-02T07:17:48Z</time>
      </trkpt>
      <trkpt lat="42.4212210" lon="-7.3697550">
        <ele>991.6</ele>
        <time>2014-10-02T07:17:49Z</time>
      </trkpt>
      <trkpt lat="42.4212510" lon="-7.3697560">
        <ele>991.5</ele>
        <time>2014-10-02T07:17:50Z</time>
      </trkpt>
      <trkpt lat="42.4212810" lon="-7.3697560">
        <ele>991.4</ele>
        <time>2014-10-02T07:17:51Z</time>
      </trkpt>
      <trkpt lat="42.4213160" lon="-7.3697580">
        <ele>991.3</ele>
        <time>2014-10-02T07:17:52Z</time>
      </trkpt>
      <trkpt lat="42.4213490" lon="-7.3697590">
        <ele>991.2</ele>
        <time>2014-10-02T07:17:53Z</time>
      </trkpt>
      <trkpt lat="42.4213810" lon="-7.3697580">
        <ele>991.1</ele>
        <time>2014-10-02T07:17:54Z</time>
      </trkpt>
      <trkpt lat="42.4214150" lon="-7.3697570">
        <ele>991.0</ele>
        <time>2014-10-02T07:17:55Z</time>
      </trkpt>
      <trkpt lat="42.4214590" lon="-7.3697530">
        <ele>990.9</ele>
        <time>2014-10-02T07:17:56Z</time>
      </trkpt>
      <trkpt lat="42.4215080" lon="-7.3697490">
        <ele>990.7</ele>
        <time>2014-10-02T07:17:57Z</time>
      </trkpt>
      <trkpt lat="42.4215530" lon="-7.3697420">
        <ele>990.5</ele>
        <time>2014-10-02T07:17:58Z</time>
      </trkpt>
      <trkpt lat="42.4215970" lon="-7.3697360">
        <ele>990.4</ele>
        <time>2014-10-02T07:17:59Z</time>
      </trkpt>
      <trkpt lat="42.4216390" lon="-7.3697290">
        <ele>990.2</ele>
        <time>2014-10-02T07:18:00Z</time>
      </trkpt>
      <trkpt lat="42.4216800" lon="-7.3697210">
        <ele>990.1</ele>
        <time>2014-10-02T07:18:01Z</time>
      </trkpt>
      <trkpt lat="42.4217240" lon="-7.3697140">
        <ele>989.9</ele>
        <time>2014-10-02T07:18:02Z</time>
      </trkpt>
      <trkpt lat="42.4217670" lon="-7.3697060">
        <ele>989.7</ele>
        <time>2014-10-02T07:18:03Z</time>
      </trkpt>
      <trkpt lat="42.4218130" lon="-7.3696990">
        <ele>989.5</ele>
        <time>2014-10-02T07:18:04Z</time>
      </trkpt>
      <trkpt lat="42.4218640" lon="-7.3696900">
        <ele>989.4</ele>
        <time>2014-10-02T07:18:05Z</time>
      </trkpt>
      <trkpt lat="42.4219140" lon="-7.3696810">
        <ele>989.2</ele>
        <time>2014-10-02T07:18:06Z</time>
      </trkpt>
      <trkpt lat="42.4219670" lon="-7.3696680">
        <ele>989.1</ele>
        <time>2014-10-02T07:18:07Z</time>
      </trkpt>
      <trkpt lat="42.4220220" lon="-7.3696550">
        <ele>988.9</ele>
        <time>2014-10-02T07:18:08Z</time>
      </trkpt>
      <trkpt lat="42.4220810" lon="-7.3696400">
        <ele>988.6</ele>
        <time>2014-10-02T07:18:09Z</time>
      </trkpt>
      <trkpt lat="42.4221410" lon="-7.3696250">
        <ele>988.3</ele>
        <time>2014-10-02T07:18:10Z</time>
      </trkpt>
      <trkpt lat="42.4222060" lon="-7.3696090">
        <ele>988.1</ele>
        <time>2014-10-02T07:18:11Z</time>
      </trkpt>
      <trkpt lat="42.4222710" lon="-7.3695930">
        <ele>987.9</ele>
        <time>2014-10-02T07:18:12Z</time>
      </trkpt>
      <trkpt lat="42.4223340" lon="-7.3695710">
        <ele>987.7</ele>
        <time>2014-10-02T07:18:13Z</time>
      </trkpt>
      <trkpt lat="42.4223960" lon="-7.3695440">
        <ele>987.5</ele>
        <time>2014-10-02T07:18:14Z</time>
      </trkpt>
      <trkpt lat="42.4224590" lon="-7.3695120">
        <ele>987.2</ele>
        <time>2014-10-02T07:18:15Z</time>
      </trkpt>
      <trkpt lat="42.4225230" lon="-7.3694810">
        <ele>986.9</ele>
        <time>2014-10-02T07:18:16Z</time>
      </trkpt>
      <trkpt lat="42.4225910" lon="-7.3694450">
        <ele>986.6</ele>
        <time>2014-10-02T07:18:17Z</time>
      </trkpt>
      <trkpt lat="42.4226620" lon="-7.3694080">
        <ele>986.3</ele>
        <time>2014-10-02T07:18:18Z</time>
      </trkpt>
      <trkpt lat="42.4227350" lon="-7.3693710">
        <ele>986.0</ele>
        <time>2014-10-02T07:18:19Z</time>
      </trkpt>
      <trkpt lat="42.4228100" lon="-7.3693360">
        <ele>985.6</ele>
        <time>2014-10-02T07:18:20Z</time>
      </trkpt>
      <trkpt lat="42.4228830" lon="-7.3693060">
        <ele>985.3</ele>
        <time>2014-10-02T07:18:21Z</time>
      </trkpt>
      <trkpt lat="42.4229570" lon="-7.3692820">
        <ele>984.9</ele>
        <time>2014-10-02T07:18:22Z</time>
      </trkpt>
      <trkpt lat="42.4230330" lon="-7.3692660">
        <ele>984.5</ele>
        <time>2014-10-02T07:18:23Z</time>
      </trkpt>
      <trkpt lat="42.4231130" lon="-7.3692590">
        <ele>983.9</ele>
        <time>2014-10-02T07:18:24Z</time>
      </trkpt>
      <trkpt lat="42.4231950" lon="-7.3692610">
        <ele>983.4</ele>
        <time>2014-10-02T07:18:25Z</time>
      </trkpt>
      <trkpt lat="42.4232800" lon="-7.3692700">
        <ele>982.9</ele>
        <time>2014-10-02T07:18:26Z</time>
      </trkpt>
      <trkpt lat="42.4233660" lon="-7.3692840">
        <ele>982.3</ele>
        <time>2014-10-02T07:18:27Z</time>
      </trkpt>
      <trkpt lat="42.4234560" lon="-7.3693010">
        <ele>981.6</ele>
        <time>2014-10-02T07:18:28Z</time>
      </trkpt>
      <trkpt lat="42.4235520" lon="-7.3693200">
        <ele>980.9</ele>
        <time>2014-10-02T07:18:29Z</time>
      </trkpt>
      <trkpt lat="42.4236500" lon="-7.3693390">
        <ele>980.0</ele>
        <time>2014-10-02T07:18:30Z</time>
      </trkpt>
      <trkpt lat="42.4237540" lon="-7.3693640">
        <ele>979.0</ele>
        <time>2014-10-02T07:18:31Z</time>
      </trkpt>
      <trkpt lat="42.4238630" lon="-7.3693890">
        <ele>978.0</ele>
        <time>2014-10-02T07:18:32Z</time>
      </trkpt>
      <trkpt lat="42.4239770" lon="-7.3694190">
        <ele>976.9</ele>
        <time>2014-10-02T07:18:33Z</time>
      </trkpt>
      <trkpt lat="42.4240870" lon="-7.3694480">
        <ele>975.9</ele>
        <time>2014-10-02T07:18:34Z</time>
      </trkpt>
      <trkpt lat="42.4241910" lon="-7.3694700">
        <ele>974.9</ele>
        <time>2014-10-02T07:18:35Z</time>
      </trkpt>
      <trkpt lat="42.4242970" lon="-7.3694870">
        <ele>973.9</ele>
        <time>2014-10-02T07:18:36Z</time>
      </trkpt>
      <trkpt lat="42.4244020" lon="-7.3695000">
        <ele>972.7</ele>
        <time>2014-10-02T07:18:37Z</time>
      </trkpt>
      <trkpt lat="42.4245000" lon="-7.3695070">
        <ele>971.6</ele>
        <time>2014-10-02T07:18:38Z</time>
      </trkpt>
      <trkpt lat="42.4245880" lon="-7.3695100">
        <ele>970.6</ele>
        <time>2014-10-02T07:18:39Z</time>
      </trkpt>
      <trkpt lat="42.4246730" lon="-7.3695090">
        <ele>969.6</ele>
        <time>2014-10-02T07:18:40Z</time>
      </trkpt>
      <trkpt lat="42.4247440" lon="-7.3695030">
        <ele>968.7</ele>
        <time>2014-10-02T07:18:41Z</time>
      </trkpt>
      <trkpt lat="42.4248020" lon="-7.3694930">
        <ele>967.9</ele>
        <time>2014-10-02T07:18:42Z</time>
      </trkpt>
      <trkpt lat="42.4248610" lon="-7.3694800">
        <ele>967.1</ele>
        <time>2014-10-02T07:18:43Z</time>
      </trkpt>
      <trkpt lat="42.4249220" lon="-7.3694620">
        <ele>966.3</ele>
        <time>2014-10-02T07:18:44Z</time>
      </trkpt>
      <trkpt lat="42.4249890" lon="-7.3694400">
        <ele>965.4</ele>
        <time>2014-10-02T07:18:45Z</time>
      </trkpt>
      <trkpt lat="42.4250540" lon="-7.3694140">
        <ele>964.5</ele>
        <time>2014-10-02T07:18:46Z</time>
      </trkpt>
      <trkpt lat="42.4251230" lon="-7.3693880">
        <ele>963.5</ele>
        <time>2014-10-02T07:18:47Z</time>
      </trkpt>
      <trkpt lat="42.4251850" lon="-7.3693610">
        <ele>962.7</ele>
        <time>2014-10-02T07:18:48Z</time>
      </trkpt>
      <trkpt lat="42.4252390" lon="-7.3693350">
        <ele>962.0</ele>
        <time>2014-10-02T07:18:49Z</time>
      </trkpt>
      <trkpt lat="42.4252810" lon="-7.3693150">
        <ele>961.4</ele>
        <time>2014-10-02T07:18:50Z</time>
      </trkpt>
      <trkpt lat="42.4253090" lon="-7.3693000">
        <ele>961.1</ele>
        <time>2014-10-02T07:18:51Z</time>
      </trkpt>
      <trkpt lat="42.4253350" lon="-7.3692840">
        <ele>960.7</ele>
        <time>2014-10-02T07:18:52Z</time>
      </trkpt>
      <trkpt lat="42.4253670" lon="-7.3692530">
        <ele>960.3</ele>
        <time>2014-10-02T07:18:54Z</time>
      </trkpt>
      <trkpt lat="42.4254220" lon="-7.3691980">
        <ele>959.5</ele>
        <time>2014-10-02T07:19:21Z</time>
      </trkpt>
      <trkpt lat="42.4254330" lon="-7.3691250">
        <ele>958.9</ele>
        <time>2014-10-02T07:19:25Z</time>
      </trkpt>
      <trkpt lat="42.4254260" lon="-7.3690860">
        <ele>958.6</ele>
        <time>2014-10-02T07:19:26Z</time>
      </trkpt>
      <trkpt lat="42.4253760" lon="-7.3691930">
        <ele>957.6</ele>
        <time>2014-10-02T07:19:32Z</time>
      </trkpt>
      <trkpt lat="42.4253890" lon="-7.3691400">
        <ele>957.1</ele>
        <time>2014-10-02T07:19:41Z</time>
      </trkpt>
      <trkpt lat="42.4254030" lon="-7.3690940">
        <ele>956.7</ele>
        <time>2014-10-02T07:19:42Z</time>
      </trkpt>
      <trkpt lat="42.4254210" lon="-7.3690380">
        <ele>956.3</ele>
        <time>2014-10-02T07:19:43Z</time>
      </trkpt>
      <trkpt lat="42.4254450" lon="-7.3689610">
        <ele>955.6</ele>
        <time>2014-10-02T07:19:44Z</time>
      </trkpt>
      <trkpt lat="42.4254580" lon="-7.3688710">
        <ele>955.0</ele>
        <time>2014-10-02T07:19:45Z</time>
      </trkpt>
      <trkpt lat="42.4254690" lon="-7.3687820">
        <ele>954.3</ele>
        <time>2014-10-02T07:19:46Z</time>
      </trkpt>
      <trkpt lat="42.4254820" lon="-7.3686810">
        <ele>953.8</ele>
        <time>2014-10-02T07:19:47Z</time>
      </trkpt>
      <trkpt lat="42.4254940" lon="-7.3685610">
        <ele>953.3</ele>
        <time>2014-10-02T07:19:48Z</time>
      </trkpt>
      <trkpt lat="42.4255060" lon="-7.3684360">
        <ele>952.8</ele>
        <time>2014-10-02T07:19:49Z</time>
      </trkpt>
      <trkpt lat="42.4255190" lon="-7.3683030">
        <ele>952.5</ele>
        <time>2014-10-02T07:19:50Z</time>
      </trkpt>
      <trkpt lat="42.4255360" lon="-7.3681710">
        <ele>952.2</ele>
        <time>2014-10-02T07:19:51Z</time>
      </trkpt>
      <trkpt lat="42.4255580" lon="-7.3680450">
        <ele>951.8</ele>
        <time>2014-10-02T07:19:52Z</time>
      </trkpt>
      <trkpt lat="42.4255990" lon="-7.3679300">
        <ele>951.4</ele>
        <time>2014-10-02T07:19:53Z</time>
      </trkpt>
      <trkpt lat="42.4256390" lon="-7.3678200">
        <ele>950.8</ele>
        <time>2014-10-02T07:19:54Z</time>
      </trkpt>
      <trkpt lat="42.4256810" lon="-7.3677200">
        <ele>950.0</ele>
        <time>2014-10-02T07:19:55Z</time>
      </trkpt>
      <trkpt lat="42.4257310" lon="-7.3676200">
        <ele>949.0</ele>
        <time>2014-10-02T07:19:56Z</time>
      </trkpt>
      <trkpt lat="42.4257830" lon="-7.3675170">
        <ele>947.9</ele>
        <time>2014-10-02T07:19:57Z</time>
      </trkpt>
      <trkpt lat="42.4258350" lon="-7.3674110">
        <ele>946.7</ele>
        <time>2014-10-02T07:19:58Z</time>
      </trkpt>
      <trkpt lat="42.4258910" lon="-7.3672910">
        <ele>945.6</ele>
        <time>2014-10-02T07:19:59Z</time>
      </trkpt>
      <trkpt lat="42.4259520" lon="-7.3671760">
        <ele>944.8</ele>
        <time>2014-10-02T07:20:00Z</time>
      </trkpt>
      <trkpt lat="42.4260460" lon="-7.3670880">
        <ele>944.2</ele>
        <time>2014-10-02T07:20:01Z</time>
      </trkpt>
      <trkpt lat="42.4261530" lon="-7.3670280">
        <ele>943.8</ele>
        <time>2014-10-02T07:20:02Z</time>
      </trkpt>
      <trkpt lat="42.4262530" lon="-7.3669750">
        <ele>943.4</ele>
        <time>2014-10-02T07:20:03Z</time>
      </trkpt>
      <trkpt lat="42.4263510" lon="-7.3669110">
        <ele>943.1</ele>
        <time>2014-10-02T07:20:04Z</time>
      </trkpt>
      <trkpt lat="42.4264330" lon="-7.3668190">
        <ele>942.7</ele>
        <time>2014-10-02T07:20:05Z</time>
      </trkpt>
      <trkpt lat="42.4265110" lon="-7.3667250">
        <ele>942.2</ele>
        <time>2014-10-02T07:20:06Z</time>
      </trkpt>
      <trkpt lat="42.4265900" lon="-7.3666290">
        <ele>941.7</ele>
        <time>2014-10-02T07:20:07Z</time>
      </trkpt>
      <trkpt lat="42.4266690" lon="-7.3665340">
        <ele>940.9</ele>
        <time>2014-10-02T07:20:08Z</time>
      </trkpt>
      <trkpt lat="42.4267480" lon="-7.3664350">
        <ele>939.8</ele>
        <time>2014-10-02T07:20:09Z</time>
      </trkpt>
      <trkpt lat="42.4268350" lon="-7.3663290">
        <ele>938.3</ele>
        <time>2014-10-02T07:20:10Z</time>
      </trkpt>
      <trkpt lat="42.4269170" lon="-7.3662350">
        <ele>936.8</ele>
        <time>2014-10-02T07:20:11Z</time>
      </trkpt>
      <trkpt lat="42.4270130" lon="-7.3661690">
        <ele>935.2</ele>
        <time>2014-10-02T07:20:12Z</time>
      </trkpt>
      <trkpt lat="42.4271080" lon="-7.3661160">
        <ele>933.8</ele>
        <time>2014-10-02T07:20:13Z</time>
      </trkpt>
      <trkpt lat="42.4272170" lon="-7.3661220">
        <ele>932.5</ele>
        <time>2014-10-02T07:20:14Z</time>
      </trkpt>
      <trkpt lat="42.4273250" lon="-7.3661430">
        <ele>931.4</ele>
        <time>2014-10-02T07:20:15Z</time>
      </trkpt>
      <trkpt lat="42.4274350" lon="-7.3661750">
        <ele>930.7</ele>
        <time>2014-10-02T07:20:16Z</time>
      </trkpt>
      <trkpt lat="42.4275610" lon="-7.3662130">
        <ele>929.9</ele>
        <time>2014-10-02T07:20:17Z</time>
      </trkpt>
      <trkpt lat="42.4276880" lon="-7.3662590">
        <ele>928.9</ele>
        <time>2014-10-02T07:20:18Z</time>
      </trkpt>
      <trkpt lat="42.4278130" lon="-7.3663130">
        <ele>928.0</ele>
        <time>2014-10-02T07:20:19Z</time>
      </trkpt>
      <trkpt lat="42.4279410" lon="-7.3663710">
        <ele>927.0</ele>
        <time>2014-10-02T07:20:20Z</time>
      </trkpt>
      <trkpt lat="42.4280650" lon="-7.3664280">
        <ele>925.9</ele>
        <time>2014-10-02T07:20:21Z</time>
      </trkpt>
      <trkpt lat="42.4281860" lon="-7.3664870">
        <ele>924.7</ele>
        <time>2014-10-02T07:20:22Z</time>
      </trkpt>
      <trkpt lat="42.4283080" lon="-7.3665480">
        <ele>923.3</ele>
        <time>2014-10-02T07:20:23Z</time>
      </trkpt>
      <trkpt lat="42.4284310" lon="-7.3666150">
        <ele>921.9</ele>
        <time>2014-10-02T07:20:24Z</time>
      </trkpt>
      <trkpt lat="42.4285540" lon="-7.3666890">
        <ele>920.4</ele>
        <time>2014-10-02T07:20:25Z</time>
      </trkpt>
      <trkpt lat="42.4286750" lon="-7.3667680">
        <ele>918.0</ele>
        <time>2014-10-02T07:20:26Z</time>
      </trkpt>
      <trkpt lat="42.4288000" lon="-7.3668550">
        <ele>916.2</ele>
        <time>2014-10-02T07:20:27Z</time>
      </trkpt>
      <trkpt lat="42.4289250" lon="-7.3669500">
        <ele>914.4</ele>
        <time>2014-10-02T07:20:28Z</time>
      </trkpt>
      <trkpt lat="42.4290480" lon="-7.3670540">
        <ele>912.7</ele>
        <time>2014-10-02T07:20:29Z</time>
      </trkpt>
      <trkpt lat="42.4291670" lon="-7.3671640">
        <ele>911.7</ele>
        <time>2014-10-02T07:20:30Z</time>
      </trkpt>
      <trkpt lat="42.4292860" lon="-7.3672760">
        <ele>910.7</ele>
        <time>2014-10-02T07:20:31Z</time>
      </trkpt>
      <trkpt lat="42.4294080" lon="-7.3673890">
        <ele>909.7</ele>
        <time>2014-10-02T07:20:32Z</time>
      </trkpt>
      <trkpt lat="42.4295280" lon="-7.3675020">
        <ele>908.7</ele>
        <time>2014-10-02T07:20:33Z</time>
      </trkpt>
      <trkpt lat="42.4296470" lon="-7.3676120">
        <ele>907.6</ele>
        <time>2014-10-02T07:20:34Z</time>
      </trkpt>
      <trkpt lat="42.4297650" lon="-7.3677070">
        <ele>906.4</ele>
        <time>2014-10-02T07:20:35Z</time>
      </trkpt>
      <trkpt lat="42.4298890" lon="-7.3677890">
        <ele>905.3</ele>
        <time>2014-10-02T07:20:36Z</time>
      </trkpt>
      <trkpt lat="42.4300220" lon="-7.3678630">
        <ele>904.3</ele>
        <time>2014-10-02T07:20:37Z</time>
      </trkpt>
      <trkpt lat="42.4301530" lon="-7.3679360">
        <ele>903.4</ele>
        <time>2014-10-02T07:20:38Z</time>
      </trkpt>
      <trkpt lat="42.4302800" lon="-7.3680170">
        <ele>902.4</ele>
        <time>2014-10-02T07:20:39Z</time>
      </trkpt>
      <trkpt lat="42.4304010" lon="-7.3681040">
        <ele>901.4</ele>
        <time>2014-10-02T07:20:40Z</time>
      </trkpt>
      <trkpt lat="42.4305190" lon="-7.3681970">
        <ele>900.3</ele>
        <time>2014-10-02T07:20:41Z</time>
      </trkpt>
      <trkpt lat="42.4306360" lon="-7.3682960">
        <ele>898.9</ele>
        <time>2014-10-02T07:20:42Z</time>
      </trkpt>
      <trkpt lat="42.4307560" lon="-7.3683970">
        <ele>897.4</ele>
        <time>2014-10-02T07:20:43Z</time>
      </trkpt>
      <trkpt lat="42.4308740" lon="-7.3685040">
        <ele>896.0</ele>
        <time>2014-10-02T07:20:44Z</time>
      </trkpt>
      <trkpt lat="42.4309900" lon="-7.3686150">
        <ele>894.5</ele>
        <time>2014-10-02T07:20:45Z</time>
      </trkpt>
      <trkpt lat="42.4311050" lon="-7.3687240">
        <ele>893.0</ele>
        <time>2014-10-02T07:20:46Z</time>
      </trkpt>
      <trkpt lat="42.4312180" lon="-7.3688360">
        <ele>891.5</ele>
        <time>2014-10-02T07:20:47Z</time>
      </trkpt>
      <trkpt lat="42.4313280" lon="-7.3689470">
        <ele>890.1</ele>
        <time>2014-10-02T07:20:48Z</time>
      </trkpt>
      <trkpt lat="42.4314340" lon="-7.3690610">
        <ele>888.7</ele>
        <time>2014-10-02T07:20:49Z</time>
      </trkpt>
      <trkpt lat="42.4315390" lon="-7.3691730">
        <ele>887.4</ele>
        <time>2014-10-02T07:20:50Z</time>
      </trkpt>
      <trkpt lat="42.4316370" lon="-7.3692760">
        <ele>886.1</ele>
        <time>2014-10-02T07:20:51Z</time>
      </trkpt>
      <trkpt lat="42.4317320" lon="-7.3693780">
        <ele>884.7</ele>
        <time>2014-10-02T07:20:52Z</time>
      </trkpt>
      <trkpt lat="42.4318240" lon="-7.3694790">
        <ele>883.2</ele>
        <time>2014-10-02T07:20:53Z</time>
      </trkpt>
      <trkpt lat="42.4319150" lon="-7.3695810">
        <ele>881.7</ele>
        <time>2014-10-02T07:20:54Z</time>
      </trkpt>
      <trkpt lat="42.4320040" lon="-7.3696830">
        <ele>880.2</ele>
        <time>2014-10-02T07:20:55Z</time>
      </trkpt>
      <trkpt lat="42.4320910" lon="-7.3697820">
        <ele>878.7</ele>
        <time>2014-10-02T07:20:56Z</time>
      </trkpt>
      <trkpt lat="42.4321740" lon="-7.3698790">
        <ele>877.2</ele>
        <time>2014-10-02T07:20:57Z</time>
      </trkpt>
      <trkpt lat="42.4322650" lon="-7.3699800">
        <ele>875.7</ele>
        <time>2014-10-02T07:20:58Z</time>
      </trkpt>
      <trkpt lat="42.4323600" lon="-7.3700780">
        <ele>874.3</ele>
        <time>2014-10-02T07:20:59Z</time>
      </trkpt>
      <trkpt lat="42.4324520" lon="-7.3701710">
        <ele>873.0</ele>
        <time>2014-10-02T07:21:00Z</time>
      </trkpt>
      <trkpt lat="42.4325400" lon="-7.3702560">
        <ele>871.7</ele>
        <time>2014-10-02T07:21:01Z</time>
      </trkpt>
      <trkpt lat="42.4326210" lon="-7.3703310">
        <ele>870.5</ele>
        <time>2014-10-02T07:21:02Z</time>
      </trkpt>
      <trkpt lat="42.4326950" lon="-7.3703930">
        <ele>869.5</ele>
        <time>2014-10-02T07:21:03Z</time>
      </trkpt>
      <trkpt lat="42.4327670" lon="-7.3704240">
        <ele>868.6</ele>
        <time>2014-10-02T07:21:04Z</time>
      </trkpt>
      <trkpt lat="42.4328330" lon="-7.3704250">
        <ele>867.8</ele>
        <time>2014-10-02T07:21:05Z</time>
      </trkpt>
      <trkpt lat="42.4328890" lon="-7.3703910">
        <ele>867.2</ele>
        <time>2014-10-02T07:21:06Z</time>
      </trkpt>
      <trkpt lat="42.4329490" lon="-7.3703340">
        <ele>866.5</ele>
        <time>2014-10-02T07:21:07Z</time>
      </trkpt>
      <trkpt lat="42.4330150" lon="-7.3702640">
        <ele>865.7</ele>
        <time>2014-10-02T07:21:08Z</time>
      </trkpt>
      <trkpt lat="42.4330640" lon="-7.3701690">
        <ele>864.8</ele>
        <time>2014-10-02T07:21:09Z</time>
      </trkpt>
      <trkpt lat="42.4331070" lon="-7.3700700">
        <ele>864.0</ele>
        <time>2014-10-02T07:21:10Z</time>
      </trkpt>
      <trkpt lat="42.4331440" lon="-7.3699660">
        <ele>863.1</ele>
        <time>2014-10-02T07:21:11Z</time>
      </trkpt>
      <trkpt lat="42.4331700" lon="-7.3698670">
        <ele>862.3</ele>
        <time>2014-10-02T07:21:12Z</time>
      </trkpt>
      <trkpt lat="42.4331960" lon="-7.3697720">
        <ele>861.4</ele>
        <time>2014-10-02T07:21:13Z</time>
      </trkpt>
      <trkpt lat="42.4332360" lon="-7.3697120">
        <ele>860.6</ele>
        <time>2014-10-02T07:21:14Z</time>
      </trkpt>
      <trkpt lat="42.4332910" lon="-7.3696990">
        <ele>859.8</ele>
        <time>2014-10-02T07:21:15Z</time>
      </trkpt>
      <trkpt lat="42.4333530" lon="-7.3697360">
        <ele>858.8</ele>
        <time>2014-10-02T07:21:16Z</time>
      </trkpt>
      <trkpt lat="42.4334000" lon="-7.3698140">
        <ele>857.5</ele>
        <time>2014-10-02T07:21:17Z</time>
      </trkpt>
      <trkpt lat="42.4334260" lon="-7.3699180">
        <ele>856.0</ele>
        <time>2014-10-02T07:21:18Z</time>
      </trkpt>
      <trkpt lat="42.4334500" lon="-7.3700500">
        <ele>854.1</ele>
        <time>2014-10-02T07:21:19Z</time>
      </trkpt>
      <trkpt lat="42.4334690" lon="-7.3701980">
        <ele>852.0</ele>
        <time>2014-10-02T07:21:20Z</time>
      </trkpt>
      <trkpt lat="42.4334870" lon="-7.3703570">
        <ele>849.9</ele>
        <time>2014-10-02T07:21:21Z</time>
      </trkpt>
      <trkpt lat="42.4335010" lon="-7.3705170">
        <ele>847.9</ele>
        <time>2014-10-02T07:21:22Z</time>
      </trkpt>
      <trkpt lat="42.4335090" lon="-7.3706760">
        <ele>845.8</ele>
        <time>2014-10-02T07:21:23Z</time>
      </trkpt>
      <trkpt lat="42.4335190" lon="-7.3708170">
        <ele>843.9</ele>
        <time>2014-10-02T07:21:24Z</time>
      </trkpt>
      <trkpt lat="42.4335230" lon="-7.3709610">
        <ele>842.2</ele>
        <time>2014-10-02T07:21:25Z</time>
      </trkpt>
      <trkpt lat="42.4334980" lon="-7.3710990">
        <ele>840.6</ele>
        <time>2014-10-02T07:21:26Z</time>
      </trkpt>
      <trkpt lat="42.4334400" lon="-7.3712240">
        <ele>839.4</ele>
        <time>2014-10-02T07:21:27Z</time>
      </trkpt>
      <trkpt lat="42.4333560" lon="-7.3713320">
        <ele>838.3</ele>
        <time>2014-10-02T07:21:28Z</time>
      </trkpt>
      <trkpt lat="42.4332660" lon="-7.3714300">
        <ele>837.5</ele>
        <time>2014-10-02T07:21:29Z</time>
      </trkpt>
      <trkpt lat="42.4331670" lon="-7.3714940">
        <ele>836.9</ele>
        <time>2014-10-02T07:21:30Z</time>
      </trkpt>
      <trkpt lat="42.4330630" lon="-7.3715510">
        <ele>836.4</ele>
        <time>2014-10-02T07:21:31Z</time>
      </trkpt>
      <trkpt lat="42.4329600" lon="-7.3715670">
        <ele>836.0</ele>
        <time>2014-10-02T07:21:32Z</time>
      </trkpt>
      <trkpt lat="42.4328580" lon="-7.3715750">
        <ele>835.7</ele>
        <time>2014-10-02T07:21:33Z</time>
      </trkpt>
      <trkpt lat="42.4327610" lon="-7.3715790">
        <ele>835.3</ele>
        <time>2014-10-02T07:21:34Z</time>
      </trkpt>
      <trkpt lat="42.4326650" lon="-7.3715790">
        <ele>835.0</ele>
        <time>2014-10-02T07:21:35Z</time>
      </trkpt>
      <trkpt lat="42.4325710" lon="-7.3715710">
        <ele>834.6</ele>
        <time>2014-10-02T07:21:36Z</time>
      </trkpt>
      <trkpt lat="42.4324790" lon="-7.3715560">
        <ele>834.2</ele>
        <time>2014-10-02T07:21:37Z</time>
      </trkpt>
      <trkpt lat="42.4323860" lon="-7.3715330">
        <ele>833.7</ele>
        <time>2014-10-02T07:21:38Z</time>
      </trkpt>
      <trkpt lat="42.4322940" lon="-7.3715040">
        <ele>833.2</ele>
        <time>2014-10-02T07:21:39Z</time>
      </trkpt>
      <trkpt lat="42.4322010" lon="-7.3714710">
        <ele>832.7</ele>
        <time>2014-10-02T07:21:40Z</time>
      </trkpt>
      <trkpt lat="42.4321100" lon="-7.3714350">
        <ele>832.2</ele>
        <time>2014-10-02T07:21:41Z</time>
      </trkpt>
      <trkpt lat="42.4320180" lon="-7.3713940">
        <ele>831.6</ele>
        <time>2014-10-02T07:21:42Z</time>
      </trkpt>
      <trkpt lat="42.4319290" lon="-7.3713510">
        <ele>830.9</ele>
        <time>2014-10-02T07:21:43Z</time>
      </trkpt>
      <trkpt lat="42.4318380" lon="-7.3713050">
        <ele>830.3</ele>
        <time>2014-10-02T07:21:44Z</time>
      </trkpt>
      <trkpt lat="42.4317480" lon="-7.3712630">
        <ele>829.5</ele>
        <time>2014-10-02T07:21:45Z</time>
      </trkpt>
      <trkpt lat="42.4316570" lon="-7.3712190">
        <ele>828.6</ele>
        <time>2014-10-02T07:21:46Z</time>
      </trkpt>
      <trkpt lat="42.4315690" lon="-7.3711730">
        <ele>827.6</ele>
        <time>2014-10-02T07:21:47Z</time>
      </trkpt>
      <trkpt lat="42.4314860" lon="-7.3711290">
        <ele>826.6</ele>
        <time>2014-10-02T07:21:48Z</time>
      </trkpt>
      <trkpt lat="42.4314110" lon="-7.3710860">
        <ele>825.6</ele>
        <time>2014-10-02T07:21:49Z</time>
      </trkpt>
      <trkpt lat="42.4313450" lon="-7.3710550">
        <ele>824.6</ele>
        <time>2014-10-02T07:21:50Z</time>
      </trkpt>
      <trkpt lat="42.4312880" lon="-7.3710570">
        <ele>823.8</ele>
        <time>2014-10-02T07:21:51Z</time>
      </trkpt>
      <trkpt lat="42.4312450" lon="-7.3710840">
        <ele>823.0</ele>
        <time>2014-10-02T07:21:52Z</time>
      </trkpt>
      <trkpt lat="42.4312170" lon="-7.3711340">
        <ele>822.1</ele>
        <time>2014-10-02T07:21:53Z</time>
      </trkpt>
      <trkpt lat="42.4312150" lon="-7.3711990">
        <ele>820.6</ele>
        <time>2014-10-02T07:21:54Z</time>
      </trkpt>
      <trkpt lat="42.4312320" lon="-7.3712660">
        <ele>819.7</ele>
        <time>2014-10-02T07:21:55Z</time>
      </trkpt>
      <trkpt lat="42.4312840" lon="-7.3713300">
        <ele>818.6</ele>
        <time>2014-10-02T07:21:56Z</time>
      </trkpt>
      <trkpt lat="42.4313440" lon="-7.3713990">
        <ele>817.5</ele>
        <time>2014-10-02T07:21:57Z</time>
      </trkpt>
      <trkpt lat="42.4314150" lon="-7.3714710">
        <ele>816.4</ele>
        <time>2014-10-02T07:21:58Z</time>
      </trkpt>
      <trkpt lat="42.4314960" lon="-7.3715510">
        <ele>815.2</ele>
        <time>2014-10-02T07:21:59Z</time>
      </trkpt>
      <trkpt lat="42.4315830" lon="-7.3716350">
        <ele>814.2</ele>
        <time>2014-10-02T07:22:00Z</time>
      </trkpt>
      <trkpt lat="42.4316780" lon="-7.3717210">
        <ele>813.4</ele>
        <time>2014-10-02T07:22:01Z</time>
      </trkpt>
      <trkpt lat="42.4317780" lon="-7.3718100">
        <ele>812.5</ele>
        <time>2014-10-02T07:22:02Z</time>
      </trkpt>
      <trkpt lat="42.4318770" lon="-7.3719050">
        <ele>811.8</ele>
        <time>2014-10-02T07:22:03Z</time>
      </trkpt>
      <trkpt lat="42.4319770" lon="-7.3719980">
        <ele>811.1</ele>
        <time>2014-10-02T07:22:04Z</time>
      </trkpt>
      <trkpt lat="42.4320830" lon="-7.3720880">
        <ele>810.2</ele>
        <time>2014-10-02T07:22:05Z</time>
      </trkpt>
      <trkpt lat="42.4321970" lon="-7.3721760">
        <ele>809.3</ele>
        <time>2014-10-02T07:22:06Z</time>
      </trkpt>
      <trkpt lat="42.4323120" lon="-7.3722570">
        <ele>808.4</ele>
        <time>2014-10-02T07:22:07Z</time>
      </trkpt>
      <trkpt lat="42.4324270" lon="-7.3723340">
        <ele>807.3</ele>
        <time>2014-10-02T07:22:08Z</time>
      </trkpt>
      <trkpt lat="42.4325330" lon="-7.3724040">
        <ele>806.2</ele>
        <time>2014-10-02T07:22:09Z</time>
      </trkpt>
      <trkpt lat="42.4326420" lon="-7.3724690">
        <ele>805.1</ele>
        <time>2014-10-02T07:22:10Z</time>
      </trkpt>
      <trkpt lat="42.4327440" lon="-7.3725340">
        <ele>803.9</ele>
        <time>2014-10-02T07:22:11Z</time>
      </trkpt>
      <trkpt lat="42.4328430" lon="-7.3726040">
        <ele>802.6</ele>
        <time>2014-10-02T07:22:12Z</time>
      </trkpt>
      <trkpt lat="42.4329440" lon="-7.3726760">
        <ele>801.2</ele>
        <time>2014-10-02T07:22:13Z</time>
      </trkpt>
      <trkpt lat="42.4330470" lon="-7.3727490">
        <ele>799.9</ele>
        <time>2014-10-02T07:22:14Z</time>
      </trkpt>
      <trkpt lat="42.4331510" lon="-7.3728220">
        <ele>798.7</ele>
        <time>2014-10-02T07:22:15Z</time>
      </trkpt>
      <trkpt lat="42.4332560" lon="-7.3728900">
        <ele>797.6</ele>
        <time>2014-10-02T07:22:16Z</time>
      </trkpt>
      <trkpt lat="42.4333560" lon="-7.3729480">
        <ele>796.6</ele>
        <time>2014-10-02T07:22:17Z</time>
      </trkpt>
      <trkpt lat="42.4334610" lon="-7.3729980">
        <ele>795.6</ele>
        <time>2014-10-02T07:22:18Z</time>
      </trkpt>
      <trkpt lat="42.4335690" lon="-7.3730100">
        <ele>794.8</ele>
        <time>2014-10-02T07:22:19Z</time>
      </trkpt>
      <trkpt lat="42.4336860" lon="-7.3730100">
        <ele>794.1</ele>
        <time>2014-10-02T07:22:20Z</time>
      </trkpt>
      <trkpt lat="42.4338020" lon="-7.3729590">
        <ele>793.3</ele>
        <time>2014-10-02T07:22:21Z</time>
      </trkpt>
      <trkpt lat="42.4339190" lon="-7.3728990">
        <ele>792.4</ele>
        <time>2014-10-02T07:22:22Z</time>
      </trkpt>
      <trkpt lat="42.4340300" lon="-7.3728320">
        <ele>791.9</ele>
        <time>2014-10-02T07:22:23Z</time>
      </trkpt>
      <trkpt lat="42.4341400" lon="-7.3727540">
        <ele>791.2</ele>
        <time>2014-10-02T07:22:24Z</time>
      </trkpt>
      <trkpt lat="42.4342460" lon="-7.3726660">
        <ele>790.2</ele>
        <time>2014-10-02T07:22:25Z</time>
      </trkpt>
      <trkpt lat="42.4343480" lon="-7.3725670">
        <ele>788.9</ele>
        <time>2014-10-02T07:22:26Z</time>
      </trkpt>
      <trkpt lat="42.4344480" lon="-7.3724590">
        <ele>787.5</ele>
        <time>2014-10-02T07:22:27Z</time>
      </trkpt>
      <trkpt lat="42.4345420" lon="-7.3723460">
        <ele>785.8</ele>
        <time>2014-10-02T07:22:28Z</time>
      </trkpt>
      <trkpt lat="42.4346360" lon="-7.3722280">
        <ele>784.0</ele>
        <time>2014-10-02T07:22:29Z</time>
      </trkpt>
      <trkpt lat="42.4347330" lon="-7.3720950">
        <ele>782.2</ele>
        <time>2014-10-02T07:22:30Z</time>
      </trkpt>
      <trkpt lat="42.4347900" lon="-7.3719490">
        <ele>780.8</ele>
        <time>2014-10-02T07:22:31Z</time>
      </trkpt>
      <trkpt lat="42.4348420" lon="-7.3718010">
        <ele>779.4</ele>
        <time>2014-10-02T07:22:32Z</time>
      </trkpt>
      <trkpt lat="42.4348950" lon="-7.3716560">
        <ele>777.9</ele>
        <time>2014-10-02T07:22:33Z</time>
      </trkpt>
      <trkpt lat="42.4349530" lon="-7.3715080">
        <ele>776.4</ele>
        <time>2014-10-02T07:22:34Z</time>
      </trkpt>
      <trkpt lat="42.4350160" lon="-7.3713690">
        <ele>774.9</ele>
        <time>2014-10-02T07:22:35Z</time>
      </trkpt>
      <trkpt lat="42.4350680" lon="-7.3712460">
        <ele>773.4</ele>
        <time>2014-10-02T07:22:36Z</time>
      </trkpt>
      <trkpt lat="42.4351210" lon="-7.3711200">
        <ele>771.8</ele>
        <time>2014-10-02T07:22:37Z</time>
      </trkpt>
      <trkpt lat="42.4351800" lon="-7.3710170">
        <ele>770.3</ele>
        <time>2014-10-02T07:22:38Z</time>
      </trkpt>
      <trkpt lat="42.4352420" lon="-7.3709240">
        <ele>769.0</ele>
        <time>2014-10-02T07:22:39Z</time>
      </trkpt>
      <trkpt lat="42.4353150" lon="-7.3708550">
        <ele>767.9</ele>
        <time>2014-10-02T07:22:40Z</time>
      </trkpt>
      <trkpt lat="42.4353950" lon="-7.3708200">
        <ele>766.8</ele>
        <time>2014-10-02T07:22:41Z</time>
      </trkpt>
      <trkpt lat="42.4354830" lon="-7.3707950">
        <ele>765.7</ele>
        <time>2014-10-02T07:22:42Z</time>
      </trkpt>
      <trkpt lat="42.4355750" lon="-7.3708390">
        <ele>764.7</ele>
        <time>2014-10-02T07:22:43Z</time>
      </trkpt>
      <trkpt lat="42.4356860" lon="-7.3709070">
        <ele>763.6</ele>
        <time>2014-10-02T07:22:44Z</time>
      </trkpt>
      <trkpt lat="42.4357120" lon="-7.3710230">
        <ele>762.9</ele>
        <time>2014-10-02T07:22:45Z</time>
      </trkpt>
      <trkpt lat="42.4357510" lon="-7.3711520">
        <ele>762.1</ele>
        <time>2014-10-02T07:22:46Z</time>
      </trkpt>
      <trkpt lat="42.4357890" lon="-7.3712690">
        <ele>761.5</ele>
        <time>2014-10-02T07:22:47Z</time>
      </trkpt>
      <trkpt lat="42.4358270" lon="-7.3713760">
        <ele>760.9</ele>
        <time>2014-10-02T07:22:48Z</time>
      </trkpt>
      <trkpt lat="42.4358720" lon="-7.3714780">
        <ele>760.2</ele>
        <time>2014-10-02T07:22:49Z</time>
      </trkpt>
      <trkpt lat="42.4359210" lon="-7.3715800">
        <ele>759.2</ele>
        <time>2014-10-02T07:22:50Z</time>
      </trkpt>
      <trkpt lat="42.4359780" lon="-7.3716870">
        <ele>758.1</ele>
        <time>2014-10-02T07:22:51Z</time>
      </trkpt>
      <trkpt lat="42.4360440" lon="-7.3717980">
        <ele>757.0</ele>
        <time>2014-10-02T07:22:52Z</time>
      </trkpt>
      <trkpt lat="42.4361130" lon="-7.3719240">
        <ele>755.7</ele>
        <time>2014-10-02T07:22:53Z</time>
      </trkpt>
      <trkpt lat="42.4361840" lon="-7.3720620">
        <ele>754.1</ele>
        <time>2014-10-02T07:22:54Z</time>
      </trkpt>
      <trkpt lat="42.4362490" lon="-7.3722110">
        <ele>752.5</ele>
        <time>2014-10-02T07:22:55Z</time>
      </trkpt>
      <trkpt lat="42.4363170" lon="-7.3723790">
        <ele>750.7</ele>
        <time>2014-10-02T07:22:56Z</time>
      </trkpt>
      <trkpt lat="42.4363600" lon="-7.3725750">
        <ele>748.9</ele>
        <time>2014-10-02T07:22:57Z</time>
      </trkpt>
      <trkpt lat="42.4364020" lon="-7.3727810">
        <ele>747.5</ele>
        <time>2014-10-02T07:22:58Z</time>
      </trkpt>
      <trkpt lat="42.4364330" lon="-7.3729910">
        <ele>746.2</ele>
        <time>2014-10-02T07:22:59Z</time>
      </trkpt>
      <trkpt lat="42.4364530" lon="-7.3731940">
        <ele>744.9</ele>
        <time>2014-10-02T07:23:00Z</time>
      </trkpt>
      <trkpt lat="42.4364720" lon="-7.3733970">
        <ele>743.3</ele>
        <time>2014-10-02T07:23:01Z</time>
      </trkpt>
      <trkpt lat="42.4364850" lon="-7.3735960">
        <ele>741.6</ele>
        <time>2014-10-02T07:23:02Z</time>
      </trkpt>
      <trkpt lat="42.4364950" lon="-7.3737970">
        <ele>739.8</ele>
        <time>2014-10-02T07:23:03Z</time>
      </trkpt>
      <trkpt lat="42.4365010" lon="-7.3740050">
        <ele>738.0</ele>
        <time>2014-10-02T07:23:04Z</time>
      </trkpt>
      <trkpt lat="42.4365130" lon="-7.3741940">
        <ele>736.3</ele>
        <time>2014-10-02T07:23:05Z</time>
      </trkpt>
      <trkpt lat="42.4365230" lon="-7.3743810">
        <ele>734.9</ele>
        <time>2014-10-02T07:23:06Z</time>
      </trkpt>
      <trkpt lat="42.4365330" lon="-7.3745610">
        <ele>733.8</ele>
        <time>2014-10-02T07:23:07Z</time>
      </trkpt>
      <trkpt lat="42.4365440" lon="-7.3747260">
        <ele>732.7</ele>
        <time>2014-10-02T07:23:08Z</time>
      </trkpt>
      <trkpt lat="42.4365580" lon="-7.3748690">
        <ele>731.6</ele>
        <time>2014-10-02T07:23:09Z</time>
      </trkpt>
      <trkpt lat="42.4365750" lon="-7.3749960">
        <ele>730.5</ele>
        <time>2014-10-02T07:23:10Z</time>
      </trkpt>
      <trkpt lat="42.4365950" lon="-7.3751320">
        <ele>729.4</ele>
        <time>2014-10-02T07:23:11Z</time>
      </trkpt>
      <trkpt lat="42.4366340" lon="-7.3752640">
        <ele>728.1</ele>
        <time>2014-10-02T07:23:12Z</time>
      </trkpt>
      <trkpt lat="42.4366750" lon="-7.3754040">
        <ele>726.8</ele>
        <time>2014-10-02T07:23:13Z</time>
      </trkpt>
      <trkpt lat="42.4367230" lon="-7.3755480">
        <ele>725.4</ele>
        <time>2014-10-02T07:23:14Z</time>
      </trkpt>
      <trkpt lat="42.4367710" lon="-7.3756870">
        <ele>724.0</ele>
        <time>2014-10-02T07:23:15Z</time>
      </trkpt>
      <trkpt lat="42.4368230" lon="-7.3758250">
        <ele>722.6</ele>
        <time>2014-10-02T07:23:16Z</time>
      </trkpt>
      <trkpt lat="42.4368810" lon="-7.3759640">
        <ele>721.2</ele>
        <time>2014-10-02T07:23:17Z</time>
      </trkpt>
      <trkpt lat="42.4369470" lon="-7.3760970">
        <ele>719.6</ele>
        <time>2014-10-02T07:23:18Z</time>
      </trkpt>
      <trkpt lat="42.4370250" lon="-7.3762260">
        <ele>717.8</ele>
        <time>2014-10-02T07:23:19Z</time>
      </trkpt>
      <trkpt lat="42.4371150" lon="-7.3763570">
        <ele>715.9</ele>
        <time>2014-10-02T07:23:20Z</time>
      </trkpt>
      <trkpt lat="42.4372080" lon="-7.3764850">
        <ele>714.0</ele>
        <time>2014-10-02T07:23:21Z</time>
      </trkpt>
      <trkpt lat="42.4373020" lon="-7.3766160">
        <ele>712.0</ele>
        <time>2014-10-02T07:23:22Z</time>
      </trkpt>
      <trkpt lat="42.4373940" lon="-7.3767480">
        <ele>709.8</ele>
        <time>2014-10-02T07:23:23Z</time>
      </trkpt>
      <trkpt lat="42.4374830" lon="-7.3768800">
        <ele>707.7</ele>
        <time>2014-10-02T07:23:24Z</time>
      </trkpt>
      <trkpt lat="42.4375710" lon="-7.3770080">
        <ele>705.7</ele>
        <time>2014-10-02T07:23:25Z</time>
      </trkpt>
      <trkpt lat="42.4376560" lon="-7.3771310">
        <ele>703.7</ele>
        <time>2014-10-02T07:23:26Z</time>
      </trkpt>
      <trkpt lat="42.4377490" lon="-7.3772560">
        <ele>701.8</ele>
        <time>2014-10-02T07:23:27Z</time>
      </trkpt>
      <trkpt lat="42.4378450" lon="-7.3773690">
        <ele>699.9</ele>
        <time>2014-10-02T07:23:28Z</time>
      </trkpt>
      <trkpt lat="42.4379550" lon="-7.3774730">
        <ele>698.1</ele>
        <time>2014-10-02T07:23:29Z</time>
      </trkpt>
      <trkpt lat="42.4380850" lon="-7.3775480">
        <ele>696.3</ele>
        <time>2014-10-02T07:23:30Z</time>
      </trkpt>
      <trkpt lat="42.4382180" lon="-7.3776210">
        <ele>694.8</ele>
        <time>2014-10-02T07:23:31Z</time>
      </trkpt>
      <trkpt lat="42.4383490" lon="-7.3776860">
        <ele>693.4</ele>
        <time>2014-10-02T07:23:32Z</time>
      </trkpt>
      <trkpt lat="42.4384860" lon="-7.3777430">
        <ele>692.2</ele>
        <time>2014-10-02T07:23:33Z</time>
      </trkpt>
      <trkpt lat="42.4386180" lon="-7.3777900">
        <ele>691.1</ele>
        <time>2014-10-02T07:23:34Z</time>
      </trkpt>
      <trkpt lat="42.4387410" lon="-7.3778250">
        <ele>690.0</ele>
        <time>2014-10-02T07:23:35Z</time>
      </trkpt>
      <trkpt lat="42.4388530" lon="-7.3778490">
        <ele>688.9</ele>
        <time>2014-10-02T07:23:36Z</time>
      </trkpt>
      <trkpt lat="42.4389680" lon="-7.3778380">
        <ele>687.7</ele>
        <time>2014-10-02T07:23:37Z</time>
      </trkpt>
      <trkpt lat="42.4390790" lon="-7.3778190">
        <ele>686.5</ele>
        <time>2014-10-02T07:23:38Z</time>
      </trkpt>
      <trkpt lat="42.4391800" lon="-7.3777670">
        <ele>685.6</ele>
        <time>2014-10-02T07:23:39Z</time>
      </trkpt>
      <trkpt lat="42.4392910" lon="-7.3777020">
        <ele>684.5</ele>
        <time>2014-10-02T07:23:40Z</time>
      </trkpt>
      <trkpt lat="42.4393980" lon="-7.3776350">
        <ele>683.7</ele>
        <time>2014-10-02T07:23:41Z</time>
      </trkpt>
      <trkpt lat="42.4395020" lon="-7.3775630">
        <ele>683.0</ele>
        <time>2014-10-02T07:23:42Z</time>
      </trkpt>
      <trkpt lat="42.4396080" lon="-7.3774910">
        <ele>682.2</ele>
        <time>2014-10-02T07:23:43Z</time>
      </trkpt>
      <trkpt lat="42.4397240" lon="-7.3774200">
        <ele>681.1</ele>
        <time>2014-10-02T07:23:44Z</time>
      </trkpt>
      <trkpt lat="42.4398500" lon="-7.3773580">
        <ele>679.8</ele>
        <time>2014-10-02T07:23:45Z</time>
      </trkpt>
      <trkpt lat="42.4399690" lon="-7.3773110">
        <ele>678.3</ele>
        <time>2014-10-02T07:23:46Z</time>
      </trkpt>
      <trkpt lat="42.4400880" lon="-7.3772750">
        <ele>676.8</ele>
        <time>2014-10-02T07:23:47Z</time>
      </trkpt>
      <trkpt lat="42.4402070" lon="-7.3772480">
        <ele>675.2</ele>
        <time>2014-10-02T07:23:48Z</time>
      </trkpt>
      <trkpt lat="42.4403220" lon="-7.3772230">
        <ele>673.5</ele>
        <time>2014-10-02T07:23:49Z</time>
      </trkpt>
      <trkpt lat="42.4404370" lon="-7.3771960">
        <ele>671.9</ele>
        <time>2014-10-02T07:23:50Z</time>
      </trkpt>
      <trkpt lat="42.4405290" lon="-7.3771420">
        <ele>670.3</ele>
        <time>2014-10-02T07:23:51Z</time>
      </trkpt>
      <trkpt lat="42.4406190" lon="-7.3770800">
        <ele>668.6</ele>
        <time>2014-10-02T07:23:52Z</time>
      </trkpt>
      <trkpt lat="42.4406980" lon="-7.3770210">
        <ele>667.1</ele>
        <time>2014-10-02T07:23:53Z</time>
      </trkpt>
      <trkpt lat="42.4407640" lon="-7.3769710">
        <ele>665.7</ele>
        <time>2014-10-02T07:23:54Z</time>
      </trkpt>
      <trkpt lat="42.4408210" lon="-7.3769370">
        <ele>664.6</ele>
        <time>2014-10-02T07:23:55Z</time>
      </trkpt>
      <trkpt lat="42.4408870" lon="-7.3769540">
        <ele>663.4</ele>
        <time>2014-10-02T07:23:56Z</time>
      </trkpt>
      <trkpt lat="42.4409520" lon="-7.3770140">
        <ele>662.1</ele>
        <time>2014-10-02T07:23:57Z</time>
      </trkpt>
      <trkpt lat="42.4409770" lon="-7.3771140">
        <ele>660.9</ele>
        <time>2014-10-02T07:23:58Z</time>
      </trkpt>
      <trkpt lat="42.4410050" lon="-7.3772210">
        <ele>659.6</ele>
        <time>2014-10-02T07:23:59Z</time>
      </trkpt>
      <trkpt lat="42.4410340" lon="-7.3773280">
        <ele>658.4</ele>
        <time>2014-10-02T07:24:00Z</time>
      </trkpt>
      <trkpt lat="42.4410760" lon="-7.3774360">
        <ele>657.0</ele>
        <time>2014-10-02T07:24:01Z</time>
      </trkpt>
      <trkpt lat="42.4411230" lon="-7.3775510">
        <ele>655.6</ele>
        <time>2014-10-02T07:24:02Z</time>
      </trkpt>
      <trkpt lat="42.4411650" lon="-7.3776680">
        <ele>654.3</ele>
        <time>2014-10-02T07:24:03Z</time>
      </trkpt>
      <trkpt lat="42.4412210" lon="-7.3777690">
        <ele>653.0</ele>
        <time>2014-10-02T07:24:04Z</time>
      </trkpt>
      <trkpt lat="42.4412800" lon="-7.3778620">
        <ele>651.7</ele>
        <time>2014-10-02T07:24:05Z</time>
      </trkpt>
      <trkpt lat="42.4413460" lon="-7.3779500">
        <ele>650.4</ele>
        <time>2014-10-02T07:24:06Z</time>
      </trkpt>
      <trkpt lat="42.4414290" lon="-7.3780370">
        <ele>649.1</ele>
        <time>2014-10-02T07:24:07Z</time>
      </trkpt>
      <trkpt lat="42.4415230" lon="-7.3781190">
        <ele>647.9</ele>
        <time>2014-10-02T07:24:08Z</time>
      </trkpt>
      <trkpt lat="42.4416260" lon="-7.3781930">
        <ele>647.0</ele>
        <time>2014-10-02T07:24:09Z</time>
      </trkpt>
      <trkpt lat="42.4417350" lon="-7.3782560">
        <ele>646.3</ele>
        <time>2014-10-02T07:24:10Z</time>
      </trkpt>
      <trkpt lat="42.4418490" lon="-7.3783130">
        <ele>645.7</ele>
        <time>2014-10-02T07:24:11Z</time>
      </trkpt>
      <trkpt lat="42.4419650" lon="-7.3783680">
        <ele>645.1</ele>
        <time>2014-10-02T07:24:12Z</time>
      </trkpt>
      <trkpt lat="42.4420740" lon="-7.3784270">
        <ele>644.6</ele>
        <time>2014-10-02T07:24:13Z</time>
      </trkpt>
      <trkpt lat="42.4421730" lon="-7.3784820">
        <ele>644.2</ele>
        <time>2014-10-02T07:24:14Z</time>
      </trkpt>
      <trkpt lat="42.4422550" lon="-7.3785330">
        <ele>643.9</ele>
        <time>2014-10-02T07:24:15Z</time>
      </trkpt>
      <trkpt lat="42.4423270" lon="-7.3785770">
        <ele>643.7</ele>
        <time>2014-10-02T07:24:16Z</time>
      </trkpt>
      <trkpt lat="42.4423830" lon="-7.3786090">
        <ele>643.5</ele>
        <time>2014-10-02T07:24:17Z</time>
      </trkpt>
      <trkpt lat="42.4424540" lon="-7.3786430">
        <ele>643.3</ele>
        <time>2014-10-02T07:24:18Z</time>
      </trkpt>
      <trkpt lat="42.4425200" lon="-7.3786720">
        <ele>643.2</ele>
        <time>2014-10-02T07:24:19Z</time>
      </trkpt>
      <trkpt lat="42.4425820" lon="-7.3786940">
        <ele>643.1</ele>
        <time>2014-10-02T07:24:20Z</time>
      </trkpt>
      <trkpt lat="42.4426500" lon="-7.3786890">
        <ele>643.0</ele>
        <time>2014-10-02T07:24:21Z</time>
      </trkpt>
      <trkpt lat="42.4427110" lon="-7.3786600">
        <ele>643.0</ele>
        <time>2014-10-02T07:24:22Z</time>
      </trkpt>
      <trkpt lat="42.4427580" lon="-7.3786270">
        <ele>642.7</ele>
        <time>2014-10-02T07:24:23Z</time>
      </trkpt>
      <trkpt lat="42.4427840" lon="-7.3786020">
        <ele>642.5</ele>
        <time>2014-10-02T07:24:24Z</time>
      </trkpt>
      <trkpt lat="42.4428130" lon="-7.3786010">
        <ele>642.3</ele>
        <time>2014-10-02T07:24:26Z</time>
      </trkpt>
      <trkpt lat="42.4428050" lon="-7.3786460">
        <ele>642.0</ele>
        <time>2014-10-02T07:24:29Z</time>
      </trkpt>
      <trkpt lat="42.4427830" lon="-7.3787260">
        <ele>641.3</ele>
        <time>2014-10-02T07:24:31Z</time>
      </trkpt>
      <trkpt lat="42.4427860" lon="-7.3787890">
        <ele>640.7</ele>
        <time>2014-10-02T07:24:32Z</time>
      </trkpt>
      <trkpt lat="42.4427870" lon="-7.3788730">
        <ele>640.0</ele>
        <time>2014-10-02T07:24:33Z</time>
      </trkpt>
      <trkpt lat="42.4427910" lon="-7.3789540">
        <ele>639.3</ele>
        <time>2014-10-02T07:24:34Z</time>
      </trkpt>
      <trkpt lat="42.4428000" lon="-7.3790580">
        <ele>638.3</ele>
        <time>2014-10-02T07:24:35Z</time>
      </trkpt>
      <trkpt lat="42.4428140" lon="-7.3791620">
        <ele>637.3</ele>
        <time>2014-10-02T07:24:36Z</time>
      </trkpt>
      <trkpt lat="42.4428040" lon="-7.3792770">
        <ele>636.0</ele>
        <time>2014-10-02T07:24:37Z</time>
      </trkpt>
      <trkpt lat="42.4427960" lon="-7.3793930">
        <ele>634.8</ele>
        <time>2014-10-02T07:24:38Z</time>
      </trkpt>
      <trkpt lat="42.4428020" lon="-7.3794990">
        <ele>633.9</ele>
        <time>2014-10-02T07:24:39Z</time>
      </trkpt>
      <trkpt lat="42.4428130" lon="-7.3795920">
        <ele>633.1</ele>
        <time>2014-10-02T07:24:40Z</time>
      </trkpt>
      <trkpt lat="42.4428210" lon="-7.3796860">
        <ele>632.5</ele>
        <time>2014-10-02T07:24:41Z</time>
      </trkpt>
      <trkpt lat="42.4428540" lon="-7.3797730">
        <ele>631.9</ele>
        <time>2014-10-02T07:24:42Z</time>
      </trkpt>
      <trkpt lat="42.4428930" lon="-7.3798610">
        <ele>631.2</ele>
        <time>2014-10-02T07:24:43Z</time>
      </trkpt>
      <trkpt lat="42.4429330" lon="-7.3799540">
        <ele>630.5</ele>
        <time>2014-10-02T07:24:44Z</time>
      </trkpt>
      <trkpt lat="42.4429740" lon="-7.3800560">
        <ele>629.8</ele>
        <time>2014-10-02T07:24:45Z</time>
      </trkpt>
      <trkpt lat="42.4430150" lon="-7.3801620">
        <ele>629.1</ele>
        <time>2014-10-02T07:24:46Z</time>
      </trkpt>
      <trkpt lat="42.4430560" lon="-7.3802690">
        <ele>628.4</ele>
        <time>2014-10-02T07:24:47Z</time>
      </trkpt>
      <trkpt lat="42.4430980" lon="-7.3803800">
        <ele>627.7</ele>
        <time>2014-10-02T07:24:48Z</time>
      </trkpt>
      <trkpt lat="42.4431320" lon="-7.3804870">
        <ele>627.0</ele>
        <time>2014-10-02T07:24:49Z</time>
      </trkpt>
      <trkpt lat="42.4431430" lon="-7.3805940">
        <ele>626.4</ele>
        <time>2014-10-02T07:24:50Z</time>
      </trkpt>
      <trkpt lat="42.4431510" lon="-7.3806940">
        <ele>626.0</ele>
        <time>2014-10-02T07:24:51Z</time>
      </trkpt>
      <trkpt lat="42.4431540" lon="-7.3807750">
        <ele>625.8</ele>
        <time>2014-10-02T07:24:52Z</time>
      </trkpt>
      <trkpt lat="42.4431560" lon="-7.3808510">
        <ele>625.6</ele>
        <time>2014-10-02T07:24:53Z</time>
      </trkpt>
      <trkpt lat="42.4431600" lon="-7.3809340">
        <ele>625.5</ele>
        <time>2014-10-02T07:24:54Z</time>
      </trkpt>
      <trkpt lat="42.4431590" lon="-7.3810060">
        <ele>625.4</ele>
        <time>2014-10-02T07:24:55Z</time>
      </trkpt>
      <trkpt lat="42.4431520" lon="-7.3810630">
        <ele>625.2</ele>
        <time>2014-10-02T07:24:56Z</time>
      </trkpt>
      <trkpt lat="42.4430970" lon="-7.3811420">
        <ele>624.9</ele>
        <time>2014-10-02T07:24:57Z</time>
      </trkpt>
      <trkpt lat="42.4430070" lon="-7.3812020">
        <ele>624.6</ele>
        <time>2014-10-02T07:24:58Z</time>
      </trkpt>
      <trkpt lat="42.4429140" lon="-7.3812660">
        <ele>624.4</ele>
        <time>2014-10-02T07:24:59Z</time>
      </trkpt>
      <trkpt lat="42.4428230" lon="-7.3813310">
        <ele>623.9</ele>
        <time>2014-10-02T07:25:00Z</time>
      </trkpt>
      <trkpt lat="42.4427420" lon="-7.3813930">
        <ele>623.7</ele>
        <time>2014-10-02T07:25:01Z</time>
      </trkpt>
      <trkpt lat="42.4426770" lon="-7.3814510">
        <ele>623.6</ele>
        <time>2014-10-02T07:25:02Z</time>
      </trkpt>
      <trkpt lat="42.4426180" lon="-7.3815050">
        <ele>623.4</ele>
        <time>2014-10-02T07:25:03Z</time>
      </trkpt>
      <trkpt lat="42.4425690" lon="-7.3815440">
        <ele>623.3</ele>
        <time>2014-10-02T07:25:04Z</time>
      </trkpt>
      <trkpt lat="42.4425000" lon="-7.3815540">
        <ele>622.9</ele>
        <time>2014-10-02T07:25:05Z</time>
      </trkpt>
      <trkpt lat="42.4424450" lon="-7.3815540">
        <ele>622.5</ele>
        <time>2014-10-02T07:25:06Z</time>
      </trkpt>
      <trkpt lat="42.4423910" lon="-7.3815500">
        <ele>622.3</ele>
        <time>2014-10-02T07:25:07Z</time>
      </trkpt>
      <trkpt lat="42.4423340" lon="-7.3815430">
        <ele>622.1</ele>
        <time>2014-10-02T07:25:08Z</time>
      </trkpt>
      <trkpt lat="42.4422710" lon="-7.3815340">
        <ele>622.0</ele>
        <time>2014-10-02T07:25:09Z</time>
      </trkpt>
      <trkpt lat="42.4422100" lon="-7.3815300">
        <ele>621.9</ele>
        <time>2014-10-02T07:25:10Z</time>
      </trkpt>
      <trkpt lat="42.4421520" lon="-7.3815290">
        <ele>621.9</ele>
        <time>2014-10-02T07:25:11Z</time>
      </trkpt>
      <trkpt lat="42.4420930" lon="-7.3815300">
        <ele>621.8</ele>
        <time>2014-10-02T07:25:12Z</time>
      </trkpt>
      <trkpt lat="42.4420410" lon="-7.3815340">
        <ele>621.8</ele>
        <time>2014-10-02T07:25:13Z</time>
      </trkpt>
      <trkpt lat="42.4419910" lon="-7.3815410">
        <ele>621.8</ele>
        <time>2014-10-02T07:25:14Z</time>
      </trkpt>
      <trkpt lat="42.4419410" lon="-7.3815500">
        <ele>621.8</ele>
        <time>2014-10-02T07:25:15Z</time>
      </trkpt>
      <trkpt lat="42.4418940" lon="-7.3815620">
        <ele>621.8</ele>
        <time>2014-10-02T07:25:16Z</time>
      </trkpt>
      <trkpt lat="42.4418520" lon="-7.3815770">
        <ele>621.8</ele>
        <time>2014-10-02T07:25:17Z</time>
      </trkpt>
      <trkpt lat="42.4418020" lon="-7.3815960">
        <ele>621.8</ele>
        <time>2014-10-02T07:25:18Z</time>
      </trkpt>
      <trkpt lat="42.4417470" lon="-7.3816200">
        <ele>621.7</ele>
        <time>2014-10-02T07:25:19Z</time>
      </trkpt>
      <trkpt lat="42.4416940" lon="-7.3816470">
        <ele>621.7</ele>
        <time>2014-10-02T07:25:20Z</time>
      </trkpt>
      <trkpt lat="42.4416500" lon="-7.3816730">
        <ele>621.6</ele>
        <time>2014-10-02T07:25:21Z</time>
      </trkpt>
      <trkpt lat="42.4416060" lon="-7.3817020">
        <ele>621.6</ele>
        <time>2014-10-02T07:25:22Z</time>
      </trkpt>
      <trkpt lat="42.4415600" lon="-7.3817350">
        <ele>621.5</ele>
        <time>2014-10-02T07:25:23Z</time>
      </trkpt>
      <trkpt lat="42.4415130" lon="-7.3817740">
        <ele>621.3</ele>
        <time>2014-10-02T07:25:24Z</time>
      </trkpt>
      <trkpt lat="42.4414600" lon="-7.3818210">
        <ele>621.1</ele>
        <time>2014-10-02T07:25:25Z</time>
      </trkpt>
      <trkpt lat="42.4413970" lon="-7.3818790">
        <ele>620.7</ele>
        <time>2014-10-02T07:25:26Z</time>
      </trkpt>
      <trkpt lat="42.4413390" lon="-7.3819350">
        <ele>620.4</ele>
        <time>2014-10-02T07:25:27Z</time>
      </trkpt>
      <trkpt lat="42.4412850" lon="-7.3819890">
        <ele>620.1</ele>
        <time>2014-10-02T07:25:28Z</time>
      </trkpt>
      <trkpt lat="42.4412220" lon="-7.3820430">
        <ele>619.8</ele>
        <time>2014-10-02T07:25:29Z</time>
      </trkpt>
      <trkpt lat="42.4411560" lon="-7.3820730">
        <ele>619.4</ele>
        <time>2014-10-02T07:25:30Z</time>
      </trkpt>
      <trkpt lat="42.4410920" lon="-7.3820980">
        <ele>619.0</ele>
        <time>2014-10-02T07:25:31Z</time>
      </trkpt>
      <trkpt lat="42.4410210" lon="-7.3821210">
        <ele>618.5</ele>
        <time>2014-10-02T07:25:32Z</time>
      </trkpt>
      <trkpt lat="42.4409480" lon="-7.3821390">
        <ele>618.0</ele>
        <time>2014-10-02T07:25:33Z</time>
      </trkpt>
      <trkpt lat="42.4408750" lon="-7.3821500">
        <ele>617.6</ele>
        <time>2014-10-02T07:25:34Z</time>
      </trkpt>
      <trkpt lat="42.4408000" lon="-7.3821560">
        <ele>617.1</ele>
        <time>2014-10-02T07:25:35Z</time>
      </trkpt>
      <trkpt lat="42.4407220" lon="-7.3821600">
        <ele>616.5</ele>
        <time>2014-10-02T07:25:36Z</time>
      </trkpt>
      <trkpt lat="42.4406380" lon="-7.3821630">
        <ele>616.0</ele>
        <time>2014-10-02T07:25:37Z</time>
      </trkpt>
      <trkpt lat="42.4405500" lon="-7.3821650">
        <ele>615.6</ele>
        <time>2014-10-02T07:25:38Z</time>
      </trkpt>
      <trkpt lat="42.4404710" lon="-7.3821660">
        <ele>615.4</ele>
        <time>2014-10-02T07:25:39Z</time>
      </trkpt>
      <trkpt lat="42.4404050" lon="-7.3821710">
        <ele>615.4</ele>
        <time>2014-10-02T07:25:40Z</time>
      </trkpt>
      <trkpt lat="42.4403570" lon="-7.3822040">
        <ele>615.3</ele>
        <time>2014-10-02T07:25:41Z</time>
      </trkpt>
      <trkpt lat="42.4403280" lon="-7.3822590">
        <ele>615.1</ele>
        <time>2014-10-02T07:25:42Z</time>
      </trkpt>
      <trkpt lat="42.4403040" lon="-7.3823210">
        <ele>614.9</ele>
        <time>2014-10-02T07:25:43Z</time>
      </trkpt>
      <trkpt lat="42.4403060" lon="-7.3823810">
        <ele>614.6</ele>
        <time>2014-10-02T07:25:44Z</time>
      </trkpt>
      <trkpt lat="42.4403200" lon="-7.3824390">
        <ele>614.3</ele>
        <time>2014-10-02T07:25:45Z</time>
      </trkpt>
      <trkpt lat="42.4403390" lon="-7.3824850">
        <ele>614.2</ele>
        <time>2014-10-02T07:25:46Z</time>
      </trkpt>
      <trkpt lat="42.4403560" lon="-7.3825200">
        <ele>614.1</ele>
        <time>2014-10-02T07:25:47Z</time>
      </trkpt>
      <trkpt lat="42.4403730" lon="-7.3825530">
        <ele>614.1</ele>
        <time>2014-10-02T07:25:48Z</time>
      </trkpt>
      <trkpt lat="42.4403910" lon="-7.3825860">
        <ele>614.1</ele>
        <time>2014-10-02T07:25:49Z</time>
      </trkpt>
      <trkpt lat="42.4404050" lon="-7.3826180">
        <ele>614.1</ele>
        <time>2014-10-02T07:25:50Z</time>
      </trkpt>
      <trkpt lat="42.4404280" lon="-7.3826800">
        <ele>614.3</ele>
        <time>2014-10-02T07:25:52Z</time>
      </trkpt>
      <trkpt lat="42.4404460" lon="-7.3827150">
        <ele>614.4</ele>
        <time>2014-10-02T07:25:53Z</time>
      </trkpt>
      <trkpt lat="42.4404620" lon="-7.3827500">
        <ele>614.5</ele>
        <time>2014-10-02T07:25:54Z</time>
      </trkpt>
      <trkpt lat="42.4404790" lon="-7.3827860">
        <ele>614.7</ele>
        <time>2014-10-02T07:25:55Z</time>
      </trkpt>
      <trkpt lat="42.4404960" lon="-7.3828160">
        <ele>614.8</ele>
        <time>2014-10-02T07:25:56Z</time>
      </trkpt>
      <trkpt lat="42.4405140" lon="-7.3828480">
        <ele>614.9</ele>
        <time>2014-10-02T07:25:57Z</time>
      </trkpt>
      <trkpt lat="42.4405350" lon="-7.3828810">
        <ele>615.0</ele>
        <time>2014-10-02T07:25:58Z</time>
      </trkpt>
      <trkpt lat="42.4405570" lon="-7.3829160">
        <ele>615.2</ele>
        <time>2014-10-02T07:25:59Z</time>
      </trkpt>
      <trkpt lat="42.4405810" lon="-7.3829500">
        <ele>615.3</ele>
        <time>2014-10-02T07:26:00Z</time>
      </trkpt>
      <trkpt lat="42.4406050" lon="-7.3829820">
        <ele>615.4</ele>
        <time>2014-10-02T07:26:01Z</time>
      </trkpt>
      <trkpt lat="42.4406280" lon="-7.3830130">
        <ele>615.6</ele>
        <time>2014-10-02T07:26:02Z</time>
      </trkpt>
      <trkpt lat="42.4406520" lon="-7.3830440">
        <ele>615.7</ele>
        <time>2014-10-02T07:26:03Z</time>
      </trkpt>
      <trkpt lat="42.4406770" lon="-7.3830770">
        <ele>615.8</ele>
        <time>2014-10-02T07:26:04Z</time>
      </trkpt>
      <trkpt lat="42.4407000" lon="-7.3831050">
        <ele>615.9</ele>
        <time>2014-10-02T07:26:05Z</time>
      </trkpt>
      <trkpt lat="42.4407230" lon="-7.3831340">
        <ele>616.0</ele>
        <time>2014-10-02T07:26:06Z</time>
      </trkpt>
      <trkpt lat="42.4407480" lon="-7.3831660">
        <ele>616.1</ele>
        <time>2014-10-02T07:26:07Z</time>
      </trkpt>
      <trkpt lat="42.4407750" lon="-7.3832030">
        <ele>616.2</ele>
        <time>2014-10-02T07:26:08Z</time>
      </trkpt>
      <trkpt lat="42.4408030" lon="-7.3832420">
        <ele>616.3</ele>
        <time>2014-10-02T07:26:09Z</time>
      </trkpt>
      <trkpt lat="42.4408310" lon="-7.3832820">
        <ele>616.4</ele>
        <time>2014-10-02T07:26:10Z</time>
      </trkpt>
      <trkpt lat="42.4408540" lon="-7.3833220">
        <ele>616.5</ele>
        <time>2014-10-02T07:26:11Z</time>
      </trkpt>
      <trkpt lat="42.4408770" lon="-7.3833630">
        <ele>616.6</ele>
        <time>2014-10-02T07:26:12Z</time>
      </trkpt>
      <trkpt lat="42.4409020" lon="-7.3834100">
        <ele>616.6</ele>
        <time>2014-10-02T07:26:13Z</time>
      </trkpt>
      <trkpt lat="42.4409230" lon="-7.3834590">
        <ele>616.6</ele>
        <time>2014-10-02T07:26:14Z</time>
      </trkpt>
      <trkpt lat="42.4409460" lon="-7.3835130">
        <ele>616.6</ele>
        <time>2014-10-02T07:26:15Z</time>
      </trkpt>
      <trkpt lat="42.4409580" lon="-7.3835690">
        <ele>616.6</ele>
        <time>2014-10-02T07:26:16Z</time>
      </trkpt>
      <trkpt lat="42.4409730" lon="-7.3836290">
        <ele>616.6</ele>
        <time>2014-10-02T07:26:17Z</time>
      </trkpt>
      <trkpt lat="42.4409870" lon="-7.3836890">
        <ele>616.6</ele>
        <time>2014-10-02T07:26:18Z</time>
      </trkpt>
      <trkpt lat="42.4410000" lon="-7.3837450">
        <ele>616.6</ele>
        <time>2014-10-02T07:26:19Z</time>
      </trkpt>
      <trkpt lat="42.4410110" lon="-7.3838080">
        <ele>616.6</ele>
        <time>2014-10-02T07:26:20Z</time>
      </trkpt>
      <trkpt lat="42.4410210" lon="-7.3838720">
        <ele>616.6</ele>
        <time>2014-10-02T07:26:21Z</time>
      </trkpt>
      <trkpt lat="42.4410310" lon="-7.3839370">
        <ele>616.5</ele>
        <time>2014-10-02T07:26:22Z</time>
      </trkpt>
      <trkpt lat="42.4410410" lon="-7.3840020">
        <ele>616.4</ele>
        <time>2014-10-02T07:26:23Z</time>
      </trkpt>
      <trkpt lat="42.4410490" lon="-7.3840680">
        <ele>616.2</ele>
        <time>2014-10-02T07:26:24Z</time>
      </trkpt>
      <trkpt lat="42.4410560" lon="-7.3841370">
        <ele>616.0</ele>
        <time>2014-10-02T07:26:25Z</time>
      </trkpt>
      <trkpt lat="42.4410590" lon="-7.3842100">
        <ele>615.8</ele>
        <time>2014-10-02T07:26:26Z</time>
      </trkpt>
      <trkpt lat="42.4410600" lon="-7.3842890">
        <ele>615.5</ele>
        <time>2014-10-02T07:26:27Z</time>
      </trkpt>
      <trkpt lat="42.4410610" lon="-7.3843700">
        <ele>615.3</ele>
        <time>2014-10-02T07:26:28Z</time>
      </trkpt>
      <trkpt lat="42.4410600" lon="-7.3844550">
        <ele>614.9</ele>
        <time>2014-10-02T07:26:29Z</time>
      </trkpt>
      <trkpt lat="42.4410570" lon="-7.3845460">
        <ele>614.5</ele>
        <time>2014-10-02T07:26:30Z</time>
      </trkpt>
      <trkpt lat="42.4410530" lon="-7.3846430">
        <ele>614.1</ele>
        <time>2014-10-02T07:26:31Z</time>
      </trkpt>
      <trkpt lat="42.4410470" lon="-7.3847360">
        <ele>613.7</ele>
        <time>2014-10-02T07:26:32Z</time>
      </trkpt>
      <trkpt lat="42.4410350" lon="-7.3848300">
        <ele>613.3</ele>
        <time>2014-10-02T07:26:33Z</time>
      </trkpt>
      <trkpt lat="42.4410030" lon="-7.3849140">
        <ele>612.9</ele>
        <time>2014-10-02T07:26:34Z</time>
      </trkpt>
      <trkpt lat="42.4409510" lon="-7.3849890">
        <ele>612.6</ele>
        <time>2014-10-02T07:26:35Z</time>
      </trkpt>
      <trkpt lat="42.4408960" lon="-7.3850590">
        <ele>612.4</ele>
        <time>2014-10-02T07:26:36Z</time>
      </trkpt>
      <trkpt lat="42.4408270" lon="-7.3851160">
        <ele>612.2</ele>
        <time>2014-10-02T07:26:37Z</time>
      </trkpt>
      <trkpt lat="42.4407630" lon="-7.3851650">
        <ele>612.0</ele>
        <time>2014-10-02T07:26:38Z</time>
      </trkpt>
      <trkpt lat="42.4407000" lon="-7.3852140">
        <ele>611.6</ele>
        <time>2014-10-02T07:26:39Z</time>
      </trkpt>
      <trkpt lat="42.4406360" lon="-7.3852650">
        <ele>611.2</ele>
        <time>2014-10-02T07:26:40Z</time>
      </trkpt>
      <trkpt lat="42.4405730" lon="-7.3853150">
        <ele>610.8</ele>
        <time>2014-10-02T07:26:41Z</time>
      </trkpt>
      <trkpt lat="42.4405120" lon="-7.3853620">
        <ele>610.5</ele>
        <time>2014-10-02T07:26:42Z</time>
      </trkpt>
      <trkpt lat="42.4404550" lon="-7.3854040">
        <ele>610.6</ele>
        <time>2014-10-02T07:26:43Z</time>
      </trkpt>
      <trkpt lat="42.4404020" lon="-7.3854400">
        <ele>610.7</ele>
        <time>2014-10-02T07:26:44Z</time>
      </trkpt>
      <trkpt lat="42.4403530" lon="-7.3854690">
        <ele>610.8</ele>
        <time>2014-10-02T07:26:45Z</time>
      </trkpt>
      <trkpt lat="42.4403040" lon="-7.3854900">
        <ele>610.8</ele>
        <time>2014-10-02T07:26:46Z</time>
      </trkpt>
      <trkpt lat="42.4402570" lon="-7.3854940">
        <ele>610.9</ele>
        <time>2014-10-02T07:26:47Z</time>
      </trkpt>
      <trkpt lat="42.4402100" lon="-7.3854980">
        <ele>611.0</ele>
        <time>2014-10-02T07:26:48Z</time>
      </trkpt>
      <trkpt lat="42.4401700" lon="-7.3854990">
        <ele>611.0</ele>
        <time>2014-10-02T07:26:49Z</time>
      </trkpt>
      <trkpt lat="42.4401310" lon="-7.3854980">
        <ele>611.1</ele>
        <time>2014-10-02T07:26:50Z</time>
      </trkpt>
      <trkpt lat="42.4400940" lon="-7.3854950">
        <ele>611.1</ele>
        <time>2014-10-02T07:26:51Z</time>
      </trkpt>
      <trkpt lat="42.4400580" lon="-7.3854910">
        <ele>611.2</ele>
        <time>2014-10-02T07:26:52Z</time>
      </trkpt>
      <trkpt lat="42.4400220" lon="-7.3854880">
        <ele>611.2</ele>
        <time>2014-10-02T07:26:53Z</time>
      </trkpt>
      <trkpt lat="42.4399880" lon="-7.3854850">
        <ele>611.3</ele>
        <time>2014-10-02T07:26:54Z</time>
      </trkpt>
      <trkpt lat="42.4399600" lon="-7.3854840">
        <ele>611.3</ele>
        <time>2014-10-02T07:26:55Z</time>
      </trkpt>
      <trkpt lat="42.4399300" lon="-7.3854850">
        <ele>611.3</ele>
        <time>2014-10-02T07:26:57Z</time>
      </trkpt>
      <trkpt lat="42.4398930" lon="-7.3854900">
        <ele>611.3</ele>
        <time>2014-10-02T07:27:30Z</time>
      </trkpt>
      <trkpt lat="42.4398380" lon="-7.3854940">
        <ele>611.3</ele>
        <time>2014-10-02T07:27:32Z</time>
      </trkpt>
      <trkpt lat="42.4397990" lon="-7.3854980">
        <ele>611.2</ele>
        <time>2014-10-02T07:27:33Z</time>
      </trkpt>
      <trkpt lat="42.4397620" lon="-7.3855030">
        <ele>611.2</ele>
        <time>2014-10-02T07:27:34Z</time>
      </trkpt>
      <trkpt lat="42.4397150" lon="-7.3855110">
        <ele>611.2</ele>
        <time>2014-10-02T07:27:35Z</time>
      </trkpt>
      <trkpt lat="42.4396630" lon="-7.3855240">
        <ele>611.2</ele>
        <time>2014-10-02T07:27:36Z</time>
      </trkpt>
      <trkpt lat="42.4396020" lon="-7.3855390">
        <ele>611.1</ele>
        <time>2014-10-02T07:27:37Z</time>
      </trkpt>
      <trkpt lat="42.4395370" lon="-7.3855580">
        <ele>611.1</ele>
        <time>2014-10-02T07:27:38Z</time>
      </trkpt>
      <trkpt lat="42.4394670" lon="-7.3855820">
        <ele>611.1</ele>
        <time>2014-10-02T07:27:39Z</time>
      </trkpt>
      <trkpt lat="42.4393920" lon="-7.3856110">
        <ele>611.0</ele>
        <time>2014-10-02T07:27:40Z</time>
      </trkpt>
      <trkpt lat="42.4393160" lon="-7.3856480">
        <ele>611.0</ele>
        <time>2014-10-02T07:27:41Z</time>
      </trkpt>
      <trkpt lat="42.4392500" lon="-7.3857050">
        <ele>611.0</ele>
        <time>2014-10-02T07:27:42Z</time>
      </trkpt>
      <trkpt lat="42.4391850" lon="-7.3857690">
        <ele>610.9</ele>
        <time>2014-10-02T07:27:43Z</time>
      </trkpt>
      <trkpt lat="42.4391370" lon="-7.3858600">
        <ele>610.9</ele>
        <time>2014-10-02T07:27:44Z</time>
      </trkpt>
      <trkpt lat="42.4391090" lon="-7.3859570">
        <ele>610.8</ele>
        <time>2014-10-02T07:27:45Z</time>
      </trkpt>
      <trkpt lat="42.4390810" lon="-7.3860500">
        <ele>610.8</ele>
        <time>2014-10-02T07:27:46Z</time>
      </trkpt>
      <trkpt lat="42.4390530" lon="-7.3861440">
        <ele>610.8</ele>
        <time>2014-10-02T07:27:47Z</time>
      </trkpt>
      <trkpt lat="42.4390280" lon="-7.3862290">
        <ele>610.7</ele>
        <time>2014-10-02T07:27:48Z</time>
      </trkpt>
      <trkpt lat="42.4390030" lon="-7.3863100">
        <ele>610.7</ele>
        <time>2014-10-02T07:27:49Z</time>
      </trkpt>
      <trkpt lat="42.4389750" lon="-7.3863900">
        <ele>610.7</ele>
        <time>2014-10-02T07:27:50Z</time>
      </trkpt>
      <trkpt lat="42.4389480" lon="-7.3864660">
        <ele>610.6</ele>
        <time>2014-10-02T07:27:51Z</time>
      </trkpt>
      <trkpt lat="42.4389210" lon="-7.3865350">
        <ele>610.6</ele>
        <time>2014-10-02T07:27:52Z</time>
      </trkpt>
      <trkpt lat="42.4388950" lon="-7.3866010">
        <ele>610.6</ele>
        <time>2014-10-02T07:27:53Z</time>
      </trkpt>
      <trkpt lat="42.4388650" lon="-7.3866710">
        <ele>610.5</ele>
        <time>2014-10-02T07:27:54Z</time>
      </trkpt>
      <trkpt lat="42.4388360" lon="-7.3867390">
        <ele>610.5</ele>
        <time>2014-10-02T07:27:55Z</time>
      </trkpt>
      <trkpt lat="42.4388060" lon="-7.3868000">
        <ele>610.5</ele>
        <time>2014-10-02T07:27:56Z</time>
      </trkpt>
      <trkpt lat="42.4387750" lon="-7.3868610">
        <ele>610.5</ele>
        <time>2014-10-02T07:27:57Z</time>
      </trkpt>
      <trkpt lat="42.4387450" lon="-7.3869190">
        <ele>610.4</ele>
        <time>2014-10-02T07:27:58Z</time>
      </trkpt>
      <trkpt lat="42.4387180" lon="-7.3869730">
        <ele>610.4</ele>
        <time>2014-10-02T07:27:59Z</time>
      </trkpt>
      <trkpt lat="42.4386930" lon="-7.3870240">
        <ele>610.4</ele>
        <time>2014-10-02T07:28:00Z</time>
      </trkpt>
      <trkpt lat="42.4386720" lon="-7.3870660">
        <ele>610.4</ele>
        <time>2014-10-02T07:28:01Z</time>
      </trkpt>
      <trkpt lat="42.4386560" lon="-7.3871030">
        <ele>610.3</ele>
        <time>2014-10-02T07:28:02Z</time>
      </trkpt>
      <trkpt lat="42.4386430" lon="-7.3871370">
        <ele>610.3</ele>
        <time>2014-10-02T07:28:03Z</time>
      </trkpt>
      <trkpt lat="42.4386260" lon="-7.3871760">
        <ele>610.3</ele>
        <time>2014-10-02T07:28:04Z</time>
      </trkpt>
      <trkpt lat="42.4386070" lon="-7.3872190">
        <ele>610.3</ele>
        <time>2014-10-02T07:28:05Z</time>
      </trkpt>
      <trkpt lat="42.4385880" lon="-7.3872690">
        <ele>610.3</ele>
        <time>2014-10-02T07:28:06Z</time>
      </trkpt>
      <trkpt lat="42.4385730" lon="-7.3873150">
        <ele>610.3</ele>
        <time>2014-10-02T07:28:07Z</time>
      </trkpt>
      <trkpt lat="42.4385710" lon="-7.3873660">
        <ele>610.2</ele>
        <time>2014-10-02T07:28:08Z</time>
      </trkpt>
      <trkpt lat="42.4385670" lon="-7.3874240">
        <ele>610.2</ele>
        <time>2014-10-02T07:28:09Z</time>
      </trkpt>
      <trkpt lat="42.4385650" lon="-7.3874870">
        <ele>610.2</ele>
        <time>2014-10-02T07:28:10Z</time>
      </trkpt>
      <trkpt lat="42.4385600" lon="-7.3875540">
        <ele>610.2</ele>
        <time>2014-10-02T07:28:11Z</time>
      </trkpt>
      <trkpt lat="42.4385380" lon="-7.3876190">
        <ele>610.1</ele>
        <time>2014-10-02T07:28:12Z</time>
      </trkpt>
      <trkpt lat="42.4385130" lon="-7.3876790">
        <ele>610.1</ele>
        <time>2014-10-02T07:28:13Z</time>
      </trkpt>
      <trkpt lat="42.4384840" lon="-7.3877370">
        <ele>610.1</ele>
        <time>2014-10-02T07:28:14Z</time>
      </trkpt>
      <trkpt lat="42.4384520" lon="-7.3877890">
        <ele>610.1</ele>
        <time>2014-10-02T07:28:15Z</time>
      </trkpt>
      <trkpt lat="42.4384140" lon="-7.3878430">
        <ele>610.0</ele>
        <time>2014-10-02T07:28:16Z</time>
      </trkpt>
      <trkpt lat="42.4383690" lon="-7.3879070">
        <ele>610.0</ele>
        <time>2014-10-02T07:28:17Z</time>
      </trkpt>
      <trkpt lat="42.4383250" lon="-7.3879770">
        <ele>610.0</ele>
        <time>2014-10-02T07:28:18Z</time>
      </trkpt>
      <trkpt lat="42.4382970" lon="-7.3880620">
        <ele>610.3</ele>
        <time>2014-10-02T07:28:19Z</time>
      </trkpt>
      <trkpt lat="42.4382730" lon="-7.3881510">
        <ele>610.6</ele>
        <time>2014-10-02T07:28:20Z</time>
      </trkpt>
      <trkpt lat="42.4382620" lon="-7.3882460">
        <ele>610.0</ele>
        <time>2014-10-02T07:28:21Z</time>
      </trkpt>
      <trkpt lat="42.4382520" lon="-7.3883480">
        <ele>608.9</ele>
        <time>2014-10-02T07:28:22Z</time>
      </trkpt>
      <trkpt lat="42.4382410" lon="-7.3884630">
        <ele>607.6</ele>
        <time>2014-10-02T07:28:23Z</time>
      </trkpt>
      <trkpt lat="42.4382250" lon="-7.3885800">
        <ele>606.3</ele>
        <time>2014-10-02T07:28:24Z</time>
      </trkpt>
      <trkpt lat="42.4382120" lon="-7.3886910">
        <ele>605.1</ele>
        <time>2014-10-02T07:28:25Z</time>
      </trkpt>
      <trkpt lat="42.4382030" lon="-7.3887980">
        <ele>604.0</ele>
        <time>2014-10-02T07:28:26Z</time>
      </trkpt>
      <trkpt lat="42.4381940" lon="-7.3889070">
        <ele>602.8</ele>
        <time>2014-10-02T07:28:27Z</time>
      </trkpt>
      <trkpt lat="42.4381910" lon="-7.3890100">
        <ele>601.7</ele>
        <time>2014-10-02T07:28:28Z</time>
      </trkpt>
      <trkpt lat="42.4381890" lon="-7.3891150">
        <ele>600.5</ele>
        <time>2014-10-02T07:28:29Z</time>
      </trkpt>
      <trkpt lat="42.4381870" lon="-7.3892220">
        <ele>599.4</ele>
        <time>2014-10-02T07:28:30Z</time>
      </trkpt>
      <trkpt lat="42.4381840" lon="-7.3893280">
        <ele>598.3</ele>
        <time>2014-10-02T07:28:31Z</time>
      </trkpt>
      <trkpt lat="42.4381740" lon="-7.3894420">
        <ele>597.0</ele>
        <time>2014-10-02T07:28:32Z</time>
      </trkpt>
      <trkpt lat="42.4381610" lon="-7.3895530">
        <ele>595.8</ele>
        <time>2014-10-02T07:28:33Z</time>
      </trkpt>
      <trkpt lat="42.4381520" lon="-7.3896590">
        <ele>594.7</ele>
        <time>2014-10-02T07:28:34Z</time>
      </trkpt>
      <trkpt lat="42.4381450" lon="-7.3897680">
        <ele>593.5</ele>
        <time>2014-10-02T07:28:35Z</time>
      </trkpt>
      <trkpt lat="42.4381460" lon="-7.3898710">
        <ele>592.4</ele>
        <time>2014-10-02T07:28:36Z</time>
      </trkpt>
      <trkpt lat="42.4381730" lon="-7.3899730">
        <ele>591.2</ele>
        <time>2014-10-02T07:28:37Z</time>
      </trkpt>
      <trkpt lat="42.4382050" lon="-7.3900750">
        <ele>590.0</ele>
        <time>2014-10-02T07:28:38Z</time>
      </trkpt>
      <trkpt lat="42.4382430" lon="-7.3901730">
        <ele>588.8</ele>
        <time>2014-10-02T07:28:39Z</time>
      </trkpt>
      <trkpt lat="42.4382870" lon="-7.3902650">
        <ele>587.6</ele>
        <time>2014-10-02T07:28:40Z</time>
      </trkpt>
      <trkpt lat="42.4383530" lon="-7.3903420">
        <ele>586.4</ele>
        <time>2014-10-02T07:28:41Z</time>
      </trkpt>
      <trkpt lat="42.4384230" lon="-7.3904220">
        <ele>585.0</ele>
        <time>2014-10-02T07:28:42Z</time>
      </trkpt>
      <trkpt lat="42.4384930" lon="-7.3904940">
        <ele>583.8</ele>
        <time>2014-10-02T07:28:43Z</time>
      </trkpt>
      <trkpt lat="42.4385600" lon="-7.3905590">
        <ele>582.5</ele>
        <time>2014-10-02T07:28:44Z</time>
      </trkpt>
      <trkpt lat="42.4386350" lon="-7.3906210">
        <ele>581.3</ele>
        <time>2014-10-02T07:28:45Z</time>
      </trkpt>
      <trkpt lat="42.4387020" lon="-7.3906720">
        <ele>580.1</ele>
        <time>2014-10-02T07:28:46Z</time>
      </trkpt>
      <trkpt lat="42.4387670" lon="-7.3907180">
        <ele>579.1</ele>
        <time>2014-10-02T07:28:47Z</time>
      </trkpt>
      <trkpt lat="42.4388250" lon="-7.3907550">
        <ele>578.1</ele>
        <time>2014-10-02T07:28:48Z</time>
      </trkpt>
      <trkpt lat="42.4388790" lon="-7.3907870">
        <ele>577.3</ele>
        <time>2014-10-02T07:28:49Z</time>
      </trkpt>
      <trkpt lat="42.4389280" lon="-7.3908130">
        <ele>576.5</ele>
        <time>2014-10-02T07:28:50Z</time>
      </trkpt>
      <trkpt lat="42.4389740" lon="-7.3908410">
        <ele>575.8</ele>
        <time>2014-10-02T07:28:51Z</time>
      </trkpt>
      <trkpt lat="42.4390080" lon="-7.3908870">
        <ele>575.1</ele>
        <time>2014-10-02T07:28:52Z</time>
      </trkpt>
      <trkpt lat="42.4390250" lon="-7.3909380">
        <ele>574.5</ele>
        <time>2014-10-02T07:28:53Z</time>
      </trkpt>
      <trkpt lat="42.4390200" lon="-7.3909830">
        <ele>574.0</ele>
        <time>2014-10-02T07:28:54Z</time>
      </trkpt>
      <trkpt lat="42.4390150" lon="-7.3910280">
        <ele>573.5</ele>
        <time>2014-10-02T07:28:55Z</time>
      </trkpt>
      <trkpt lat="42.4389900" lon="-7.3910590">
        <ele>573.0</ele>
        <time>2014-10-02T07:28:56Z</time>
      </trkpt>
      <trkpt lat="42.4389290" lon="-7.3910980">
        <ele>572.0</ele>
        <time>2014-10-02T07:28:57Z</time>
      </trkpt>
      <trkpt lat="42.4388490" lon="-7.3911410">
        <ele>570.8</ele>
        <time>2014-10-02T07:28:58Z</time>
      </trkpt>
      <trkpt lat="42.4387680" lon="-7.3911840">
        <ele>569.5</ele>
        <time>2014-10-02T07:28:59Z</time>
      </trkpt>
      <trkpt lat="42.4386730" lon="-7.3912230">
        <ele>568.0</ele>
        <time>2014-10-02T07:29:00Z</time>
      </trkpt>
      <trkpt lat="42.4385740" lon="-7.3912530">
        <ele>566.6</ele>
        <time>2014-10-02T07:29:01Z</time>
      </trkpt>
      <trkpt lat="42.4384640" lon="-7.3912760">
        <ele>564.9</ele>
        <time>2014-10-02T07:29:02Z</time>
      </trkpt>
      <trkpt lat="42.4383560" lon="-7.3912860">
        <ele>563.4</ele>
        <time>2014-10-02T07:29:03Z</time>
      </trkpt>
      <trkpt lat="42.4382480" lon="-7.3912880">
        <ele>561.8</ele>
        <time>2014-10-02T07:29:04Z</time>
      </trkpt>
      <trkpt lat="42.4381390" lon="-7.3912840">
        <ele>560.2</ele>
        <time>2014-10-02T07:29:05Z</time>
      </trkpt>
      <trkpt lat="42.4380330" lon="-7.3912760">
        <ele>558.6</ele>
        <time>2014-10-02T07:29:06Z</time>
      </trkpt>
      <trkpt lat="42.4379280" lon="-7.3912640">
        <ele>557.1</ele>
        <time>2014-10-02T07:29:07Z</time>
      </trkpt>
      <trkpt lat="42.4378270" lon="-7.3912460">
        <ele>555.6</ele>
        <time>2014-10-02T07:29:08Z</time>
      </trkpt>
      <trkpt lat="42.4377270" lon="-7.3912250">
        <ele>554.1</ele>
        <time>2014-10-02T07:29:09Z</time>
      </trkpt>
      <trkpt lat="42.4376280" lon="-7.3911980">
        <ele>552.7</ele>
        <time>2014-10-02T07:29:10Z</time>
      </trkpt>
      <trkpt lat="42.4375390" lon="-7.3911720">
        <ele>551.3</ele>
        <time>2014-10-02T07:29:11Z</time>
      </trkpt>
      <trkpt lat="42.4374550" lon="-7.3911370">
        <ele>550.1</ele>
        <time>2014-10-02T07:29:12Z</time>
      </trkpt>
      <trkpt lat="42.4373860" lon="-7.3910990">
        <ele>549.0</ele>
        <time>2014-10-02T07:29:13Z</time>
      </trkpt>
      <trkpt lat="42.4373340" lon="-7.3910670">
        <ele>548.1</ele>
        <time>2014-10-02T07:29:14Z</time>
      </trkpt>
      <trkpt lat="42.4372940" lon="-7.3910700">
        <ele>547.6</ele>
        <time>2014-10-02T07:29:15Z</time>
      </trkpt>
      <trkpt lat="42.4372700" lon="-7.3911090">
        <ele>547.0</ele>
        <time>2014-10-02T07:29:16Z</time>
      </trkpt>
      <trkpt lat="42.4372590" lon="-7.3911650">
        <ele>546.4</ele>
        <time>2014-10-02T07:29:17Z</time>
      </trkpt>
      <trkpt lat="42.4372470" lon="-7.3912210">
        <ele>545.8</ele>
        <time>2014-10-02T07:29:18Z</time>
      </trkpt>
      <trkpt lat="42.4372570" lon="-7.3913010">
        <ele>544.9</ele>
        <time>2014-10-02T07:29:19Z</time>
      </trkpt>
      <trkpt lat="42.4372970" lon="-7.3913910">
        <ele>543.8</ele>
        <time>2014-10-02T07:29:20Z</time>
      </trkpt>
      <trkpt lat="42.4373480" lon="-7.3914930">
        <ele>542.4</ele>
        <time>2014-10-02T07:29:21Z</time>
      </trkpt>
      <trkpt lat="42.4374170" lon="-7.3915950">
        <ele>540.9</ele>
        <time>2014-10-02T07:29:22Z</time>
      </trkpt>
      <trkpt lat="42.4374990" lon="-7.3916820">
        <ele>539.4</ele>
        <time>2014-10-02T07:29:23Z</time>
      </trkpt>
      <trkpt lat="42.4375910" lon="-7.3917640">
        <ele>537.8</ele>
        <time>2014-10-02T07:29:24Z</time>
      </trkpt>
      <trkpt lat="42.4376980" lon="-7.3918210">
        <ele>536.1</ele>
        <time>2014-10-02T07:29:25Z</time>
      </trkpt>
      <trkpt lat="42.4378020" lon="-7.3918630">
        <ele>534.6</ele>
        <time>2014-10-02T07:29:26Z</time>
      </trkpt>
      <trkpt lat="42.4378580" lon="-7.3919080">
        <ele>533.6</ele>
        <time>2014-10-02T07:29:27Z</time>
      </trkpt>
      <trkpt lat="42.4378940" lon="-7.3919580">
        <ele>532.8</ele>
        <time>2014-10-02T07:29:28Z</time>
      </trkpt>
      <trkpt lat="42.4379180" lon="-7.3920040">
        <ele>532.2</ele>
        <time>2014-10-02T07:29:29Z</time>
      </trkpt>
      <trkpt lat="42.4379280" lon="-7.3920440">
        <ele>531.8</ele>
        <time>2014-10-02T07:29:30Z</time>
      </trkpt>
      <trkpt lat="42.4378940" lon="-7.3920810">
        <ele>531.2</ele>
        <time>2014-10-02T07:29:32Z</time>
      </trkpt>
      <trkpt lat="42.4378250" lon="-7.3920580">
        <ele>530.1</ele>
        <time>2014-10-02T07:29:33Z</time>
      </trkpt>
      <trkpt lat="42.4377390" lon="-7.3920600">
        <ele>528.9</ele>
        <time>2014-10-02T07:29:34Z</time>
      </trkpt>
      <trkpt lat="42.4376430" lon="-7.3920810">
        <ele>527.4</ele>
        <time>2014-10-02T07:29:35Z</time>
      </trkpt>
      <trkpt lat="42.4375410" lon="-7.3920980">
        <ele>525.9</ele>
        <time>2014-10-02T07:29:36Z</time>
      </trkpt>
      <trkpt lat="42.4374360" lon="-7.3921200">
        <ele>524.4</ele>
        <time>2014-10-02T07:29:37Z</time>
      </trkpt>
      <trkpt lat="42.4373350" lon="-7.3921450">
        <ele>522.9</ele>
        <time>2014-10-02T07:29:38Z</time>
      </trkpt>
      <trkpt lat="42.4372310" lon="-7.3921720">
        <ele>521.3</ele>
        <time>2014-10-02T07:29:39Z</time>
      </trkpt>
      <trkpt lat="42.4371320" lon="-7.3921870">
        <ele>519.9</ele>
        <time>2014-10-02T07:29:40Z</time>
      </trkpt>
      <trkpt lat="42.4370370" lon="-7.3922020">
        <ele>518.5</ele>
        <time>2014-10-02T07:29:41Z</time>
      </trkpt>
      <trkpt lat="42.4369550" lon="-7.3921890">
        <ele>517.3</ele>
        <time>2014-10-02T07:29:42Z</time>
      </trkpt>
      <trkpt lat="42.4368870" lon="-7.3921770">
        <ele>516.3</ele>
        <time>2014-10-02T07:29:43Z</time>
      </trkpt>
      <trkpt lat="42.4368290" lon="-7.3921620">
        <ele>515.4</ele>
        <time>2014-10-02T07:29:44Z</time>
      </trkpt>
      <trkpt lat="42.4367840" lon="-7.3921750">
        <ele>514.8</ele>
        <time>2014-10-02T07:29:45Z</time>
      </trkpt>
      <trkpt lat="42.4367470" lon="-7.3921940">
        <ele>514.2</ele>
        <time>2014-10-02T07:29:46Z</time>
      </trkpt>
      <trkpt lat="42.4367350" lon="-7.3922410">
        <ele>513.7</ele>
        <time>2014-10-02T07:29:47Z</time>
      </trkpt>
      <trkpt lat="42.4367230" lon="-7.3922930">
        <ele>513.1</ele>
        <time>2014-10-02T07:29:48Z</time>
      </trkpt>
      <trkpt lat="42.4367110" lon="-7.3923840">
        <ele>512.1</ele>
        <time>2014-10-02T07:29:49Z</time>
      </trkpt>
      <trkpt lat="42.4367100" lon="-7.3924790">
        <ele>511.0</ele>
        <time>2014-10-02T07:29:50Z</time>
      </trkpt>
      <trkpt lat="42.4367200" lon="-7.3925720">
        <ele>510.0</ele>
        <time>2014-10-02T07:29:51Z</time>
      </trkpt>
      <trkpt lat="42.4368070" lon="-7.3926630">
        <ele>508.4</ele>
        <time>2014-10-02T07:29:52Z</time>
      </trkpt>
      <trkpt lat="42.4368770" lon="-7.3927590">
        <ele>507.0</ele>
        <time>2014-10-02T07:29:53Z</time>
      </trkpt>
      <trkpt lat="42.4369680" lon="-7.3928350">
        <ele>505.4</ele>
        <time>2014-10-02T07:29:54Z</time>
      </trkpt>
      <trkpt lat="42.4370810" lon="-7.3928970">
        <ele>503.6</ele>
        <time>2014-10-02T07:29:55Z</time>
      </trkpt>
      <trkpt lat="42.4371830" lon="-7.3929680">
        <ele>501.2</ele>
        <time>2014-10-02T07:29:56Z</time>
      </trkpt>
      <trkpt lat="42.4372910" lon="-7.3930420">
        <ele>499.9</ele>
        <time>2014-10-02T07:29:57Z</time>
      </trkpt>
      <trkpt lat="42.4374240" lon="-7.3930840">
        <ele>498.5</ele>
        <time>2014-10-02T07:29:58Z</time>
      </trkpt>
      <trkpt lat="42.4375640" lon="-7.3931240">
        <ele>497.0</ele>
        <time>2014-10-02T07:29:59Z</time>
      </trkpt>
      <trkpt lat="42.4377100" lon="-7.3931370">
        <ele>495.4</ele>
        <time>2014-10-02T07:30:00Z</time>
      </trkpt>
      <trkpt lat="42.4378550" lon="-7.3931430">
        <ele>493.9</ele>
        <time>2014-10-02T07:30:01Z</time>
      </trkpt>
      <trkpt lat="42.4380020" lon="-7.3931500">
        <ele>492.3</ele>
        <time>2014-10-02T07:30:02Z</time>
      </trkpt>
      <trkpt lat="42.4381190" lon="-7.3931630">
        <ele>491.1</ele>
        <time>2014-10-02T07:30:03Z</time>
      </trkpt>
      <trkpt lat="42.4382360" lon="-7.3931800">
        <ele>489.9</ele>
        <time>2014-10-02T07:30:04Z</time>
      </trkpt>
      <trkpt lat="42.4383440" lon="-7.3931930">
        <ele>488.7</ele>
        <time>2014-10-02T07:30:05Z</time>
      </trkpt>
      <trkpt lat="42.4384510" lon="-7.3932050">
        <ele>487.6</ele>
        <time>2014-10-02T07:30:06Z</time>
      </trkpt>
      <trkpt lat="42.4385650" lon="-7.3932140">
        <ele>486.4</ele>
        <time>2014-10-02T07:30:07Z</time>
      </trkpt>
      <trkpt lat="42.4386780" lon="-7.3932290">
        <ele>485.2</ele>
        <time>2014-10-02T07:30:08Z</time>
      </trkpt>
      <trkpt lat="42.4387860" lon="-7.3932500">
        <ele>484.0</ele>
        <time>2014-10-02T07:30:09Z</time>
      </trkpt>
      <trkpt lat="42.4388890" lon="-7.3932690">
        <ele>482.9</ele>
        <time>2014-10-02T07:30:10Z</time>
      </trkpt>
      <trkpt lat="42.4389990" lon="-7.3932880">
        <ele>481.8</ele>
        <time>2014-10-02T07:30:11Z</time>
      </trkpt>
      <trkpt lat="42.4391070" lon="-7.3932930">
        <ele>480.6</ele>
        <time>2014-10-02T07:30:12Z</time>
      </trkpt>
      <trkpt lat="42.4392050" lon="-7.3932920">
        <ele>479.6</ele>
        <time>2014-10-02T07:30:13Z</time>
      </trkpt>
      <trkpt lat="42.4393170" lon="-7.3932650">
        <ele>478.4</ele>
        <time>2014-10-02T07:30:14Z</time>
      </trkpt>
      <trkpt lat="42.4394190" lon="-7.3932640">
        <ele>477.3</ele>
        <time>2014-10-02T07:30:15Z</time>
      </trkpt>
      <trkpt lat="42.4395130" lon="-7.3932670">
        <ele>476.3</ele>
        <time>2014-10-02T07:30:16Z</time>
      </trkpt>
      <trkpt lat="42.4395950" lon="-7.3932980">
        <ele>475.4</ele>
        <time>2014-10-02T07:30:17Z</time>
      </trkpt>
      <trkpt lat="42.4397010" lon="-7.3934450">
        <ele>473.8</ele>
        <time>2014-10-02T07:30:20Z</time>
      </trkpt>
      <trkpt lat="42.4396700" lon="-7.3939140">
        <ele>470.1</ele>
        <time>2014-10-02T07:30:26Z</time>
      </trkpt>
      <trkpt lat="42.4396550" lon="-7.3939610">
        <ele>469.7</ele>
        <time>2014-10-02T07:30:27Z</time>
      </trkpt>
      <trkpt lat="42.4393350" lon="-7.3941870">
        <ele>465.9</ele>
        <time>2014-10-02T07:30:29Z</time>
      </trkpt>
      <trkpt lat="42.4391710" lon="-7.3942670">
        <ele>464.1</ele>
        <time>2014-10-02T07:30:30Z</time>
      </trkpt>
      <trkpt lat="42.4380090" lon="-7.3946430">
        <ele>451.4</ele>
        <time>2014-10-02T07:30:33Z</time>
      </trkpt>
      <trkpt lat="42.4378520" lon="-7.3946990">
        <ele>449.7</ele>
        <time>2014-10-02T07:30:34Z</time>
      </trkpt>
      <trkpt lat="42.4377220" lon="-7.3947420">
        <ele>448.3</ele>
        <time>2014-10-02T07:30:35Z</time>
      </trkpt>
      <trkpt lat="42.4376170" lon="-7.3947700">
        <ele>447.2</ele>
        <time>2014-10-02T07:30:36Z</time>
      </trkpt>
      <trkpt lat="42.4375350" lon="-7.3947890">
        <ele>446.3</ele>
        <time>2014-10-02T07:30:37Z</time>
      </trkpt>
      <trkpt lat="42.4374610" lon="-7.3948190">
        <ele>445.5</ele>
        <time>2014-10-02T07:30:38Z</time>
      </trkpt>
      <trkpt lat="42.4374070" lon="-7.3948530">
        <ele>444.8</ele>
        <time>2014-10-02T07:30:39Z</time>
      </trkpt>
      <trkpt lat="42.4373680" lon="-7.3948900">
        <ele>444.3</ele>
        <time>2014-10-02T07:30:40Z</time>
      </trkpt>
      <trkpt lat="42.4373580" lon="-7.3949240">
        <ele>444.1</ele>
        <time>2014-10-02T07:30:41Z</time>
      </trkpt>
      <trkpt lat="42.4374160" lon="-7.3948860">
        <ele>443.4</ele>
        <time>2014-10-02T07:30:43Z</time>
      </trkpt>
      <trkpt lat="42.4374550" lon="-7.3948830">
        <ele>443.0</ele>
        <time>2014-10-02T07:30:44Z</time>
      </trkpt>
      <trkpt lat="42.4375670" lon="-7.3948620">
        <ele>441.8</ele>
        <time>2014-10-02T07:30:45Z</time>
      </trkpt>
      <trkpt lat="42.4376960" lon="-7.3948760">
        <ele>440.4</ele>
        <time>2014-10-02T07:30:46Z</time>
      </trkpt>
      <trkpt lat="42.4378420" lon="-7.3948910">
        <ele>438.9</ele>
        <time>2014-10-02T07:30:47Z</time>
      </trkpt>
      <trkpt lat="42.4380070" lon="-7.3949260">
        <ele>437.1</ele>
        <time>2014-10-02T07:30:48Z</time>
      </trkpt>
      <trkpt lat="42.4381830" lon="-7.3949750">
        <ele>435.2</ele>
        <time>2014-10-02T07:30:49Z</time>
      </trkpt>
      <trkpt lat="42.4383580" lon="-7.3950420">
        <ele>433.3</ele>
        <time>2014-10-02T07:30:50Z</time>
      </trkpt>
      <trkpt lat="42.4384880" lon="-7.3950990">
        <ele>431.8</ele>
        <time>2014-10-02T07:30:51Z</time>
      </trkpt>
      <trkpt lat="42.4386070" lon="-7.3951550">
        <ele>430.5</ele>
        <time>2014-10-02T07:30:52Z</time>
      </trkpt>
      <trkpt lat="42.4387080" lon="-7.3952020">
        <ele>429.4</ele>
        <time>2014-10-02T07:30:53Z</time>
      </trkpt>
      <trkpt lat="42.4388270" lon="-7.3952440">
        <ele>428.1</ele>
        <time>2014-10-02T07:30:54Z</time>
      </trkpt>
      <trkpt lat="42.4389470" lon="-7.3952780">
        <ele>426.8</ele>
        <time>2014-10-02T07:30:55Z</time>
      </trkpt>
      <trkpt lat="42.4390730" lon="-7.3952880">
        <ele>425.4</ele>
        <time>2014-10-02T07:30:56Z</time>
      </trkpt>
      <trkpt lat="42.4391920" lon="-7.3952610">
        <ele>424.2</ele>
        <time>2014-10-02T07:30:57Z</time>
      </trkpt>
      <trkpt lat="42.4393090" lon="-7.3952300">
        <ele>422.9</ele>
        <time>2014-10-02T07:30:58Z</time>
      </trkpt>
      <trkpt lat="42.4394140" lon="-7.3951890">
        <ele>421.7</ele>
        <time>2014-10-02T07:30:59Z</time>
      </trkpt>
      <trkpt lat="42.4395280" lon="-7.3951320">
        <ele>420.5</ele>
        <time>2014-10-02T07:31:00Z</time>
      </trkpt>
      <trkpt lat="42.4396230" lon="-7.3950550">
        <ele>419.3</ele>
        <time>2014-10-02T07:31:01Z</time>
      </trkpt>
      <trkpt lat="42.4397280" lon="-7.3949620">
        <ele>418.0</ele>
        <time>2014-10-02T07:31:02Z</time>
      </trkpt>
      <trkpt lat="42.4398180" lon="-7.3948520">
        <ele>416.7</ele>
        <time>2014-10-02T07:31:03Z</time>
      </trkpt>
      <trkpt lat="42.4399100" lon="-7.3947370">
        <ele>415.4</ele>
        <time>2014-10-02T07:31:04Z</time>
      </trkpt>
      <trkpt lat="42.4418910" lon="-7.3981750">
        <ele>316.0</ele>
        <time>2014-10-02T07:33:42Z</time>
      </trkpt>
      <trkpt lat="42.4417980" lon="-7.3981640">
        <ele>313.4</ele>
        <time>2014-10-02T07:33:45Z</time>
      </trkpt>
      <trkpt lat="42.4418970" lon="-7.3983880">
        <ele>311.0</ele>
        <time>2014-10-02T07:33:51Z</time>
      </trkpt>
      <trkpt lat="42.4419480" lon="-7.3984990">
        <ele>309.2</ele>
        <time>2014-10-02T07:33:52Z</time>
      </trkpt>
      <trkpt lat="42.4419860" lon="-7.3985840">
        <ele>309.1</ele>
        <time>2014-10-02T07:33:53Z</time>
      </trkpt>
      <trkpt lat="42.4420230" lon="-7.3986620">
        <ele>311.6</ele>
        <time>2014-10-02T07:33:54Z</time>
      </trkpt>
      <trkpt lat="42.4420660" lon="-7.3987340">
        <ele>313.4</ele>
        <time>2014-10-02T07:33:55Z</time>
      </trkpt>
      <trkpt lat="42.4421120" lon="-7.3988050">
        <ele>313.9</ele>
        <time>2014-10-02T07:33:56Z</time>
      </trkpt>
      <trkpt lat="42.4421640" lon="-7.3988850">
        <ele>317.6</ele>
        <time>2014-10-02T07:33:57Z</time>
      </trkpt>
      <trkpt lat="42.4421960" lon="-7.3989800">
        <ele>319.1</ele>
        <time>2014-10-02T07:33:58Z</time>
      </trkpt>
      <trkpt lat="42.4422280" lon="-7.3990800">
        <ele>319.6</ele>
        <time>2014-10-02T07:33:59Z</time>
      </trkpt>
      <trkpt lat="42.4422620" lon="-7.3991930">
        <ele>321.6</ele>
        <time>2014-10-02T07:34:00Z</time>
      </trkpt>
      <trkpt lat="42.4423130" lon="-7.3993150">
        <ele>325.7</ele>
        <time>2014-10-02T07:34:01Z</time>
      </trkpt>
      <trkpt lat="42.4423750" lon="-7.3994290">
        <ele>329.4</ele>
        <time>2014-10-02T07:34:02Z</time>
      </trkpt>
      <trkpt lat="42.4424570" lon="-7.3995480">
        <ele>334.3</ele>
        <time>2014-10-02T07:34:03Z</time>
      </trkpt>
      <trkpt lat="42.4425250" lon="-7.3996850">
        <ele>340.5</ele>
        <time>2014-10-02T07:34:04Z</time>
      </trkpt>
      <trkpt lat="42.4425930" lon="-7.3998290">
        <ele>344.2</ele>
        <time>2014-10-02T07:34:05Z</time>
      </trkpt>
      <trkpt lat="42.4426670" lon="-7.3999880">
        <ele>347.2</ele>
        <time>2014-10-02T07:34:06Z</time>
      </trkpt>
      <trkpt lat="42.4427090" lon="-7.4001360">
        <ele>346.1</ele>
        <time>2014-10-02T07:34:07Z</time>
      </trkpt>
      <trkpt lat="42.4427390" lon="-7.4002750">
        <ele>344.8</ele>
        <time>2014-10-02T07:34:08Z</time>
      </trkpt>
      <trkpt lat="42.4427660" lon="-7.4004090">
        <ele>343.5</ele>
        <time>2014-10-02T07:34:09Z</time>
      </trkpt>
      <trkpt lat="42.4427860" lon="-7.4005430">
        <ele>342.5</ele>
        <time>2014-10-02T07:34:10Z</time>
      </trkpt>
      <trkpt lat="42.4428020" lon="-7.4006640">
        <ele>341.9</ele>
        <time>2014-10-02T07:34:11Z</time>
      </trkpt>
      <trkpt lat="42.4428240" lon="-7.4007840">
        <ele>341.5</ele>
        <time>2014-10-02T07:34:12Z</time>
      </trkpt>
      <trkpt lat="42.4428220" lon="-7.4009120">
        <ele>341.2</ele>
        <time>2014-10-02T07:34:13Z</time>
      </trkpt>
      <trkpt lat="42.4428380" lon="-7.4010350">
        <ele>340.8</ele>
        <time>2014-10-02T07:34:14Z</time>
      </trkpt>
      <trkpt lat="42.4428520" lon="-7.4011540">
        <ele>340.3</ele>
        <time>2014-10-02T07:34:15Z</time>
      </trkpt>
      <trkpt lat="42.4428630" lon="-7.4012780">
        <ele>339.6</ele>
        <time>2014-10-02T07:34:16Z</time>
      </trkpt>
      <trkpt lat="42.4428740" lon="-7.4014120">
        <ele>338.6</ele>
        <time>2014-10-02T07:34:17Z</time>
      </trkpt>
      <trkpt lat="42.4428810" lon="-7.4015400">
        <ele>337.5</ele>
        <time>2014-10-02T07:34:18Z</time>
      </trkpt>
      <trkpt lat="42.4428910" lon="-7.4016710">
        <ele>336.4</ele>
        <time>2014-10-02T07:34:19Z</time>
      </trkpt>
      <trkpt lat="42.4429010" lon="-7.4017980">
        <ele>335.4</ele>
        <time>2014-10-02T07:34:20Z</time>
      </trkpt>
      <trkpt lat="42.4429140" lon="-7.4019220">
        <ele>334.6</ele>
        <time>2014-10-02T07:34:21Z</time>
      </trkpt>
      <trkpt lat="42.4429250" lon="-7.4020460">
        <ele>333.8</ele>
        <time>2014-10-02T07:34:22Z</time>
      </trkpt>
      <trkpt lat="42.4429340" lon="-7.4021730">
        <ele>332.8</ele>
        <time>2014-10-02T07:34:23Z</time>
      </trkpt>
      <trkpt lat="42.4429390" lon="-7.4022900">
        <ele>331.8</ele>
        <time>2014-10-02T07:34:24Z</time>
      </trkpt>
      <trkpt lat="42.4429440" lon="-7.4024030">
        <ele>330.8</ele>
        <time>2014-10-02T07:34:25Z</time>
      </trkpt>
      <trkpt lat="42.4429490" lon="-7.4025240">
        <ele>329.8</ele>
        <time>2014-10-02T07:34:26Z</time>
      </trkpt>
      <trkpt lat="42.4429540" lon="-7.4026510">
        <ele>328.8</ele>
        <time>2014-10-02T07:34:27Z</time>
      </trkpt>
      <trkpt lat="42.4429600" lon="-7.4027810">
        <ele>327.6</ele>
        <time>2014-10-02T07:34:28Z</time>
      </trkpt>
      <trkpt lat="42.4429630" lon="-7.4029050">
        <ele>326.5</ele>
        <time>2014-10-02T07:34:29Z</time>
      </trkpt>
      <trkpt lat="42.4429650" lon="-7.4030270">
        <ele>325.6</ele>
        <time>2014-10-02T07:34:30Z</time>
      </trkpt>
      <trkpt lat="42.4429480" lon="-7.4031380">
        <ele>324.8</ele>
        <time>2014-10-02T07:34:31Z</time>
      </trkpt>
      <trkpt lat="42.4429410" lon="-7.4032360">
        <ele>324.2</ele>
        <time>2014-10-02T07:34:32Z</time>
      </trkpt>
      <trkpt lat="42.4429370" lon="-7.4033310">
        <ele>323.6</ele>
        <time>2014-10-02T07:34:33Z</time>
      </trkpt>
      <trkpt lat="42.4428730" lon="-7.4034310">
        <ele>322.6</ele>
        <time>2014-10-02T07:34:34Z</time>
      </trkpt>
      <trkpt lat="42.4428070" lon="-7.4035380">
        <ele>321.3</ele>
        <time>2014-10-02T07:34:35Z</time>
      </trkpt>
      <trkpt lat="42.4427410" lon="-7.4036510">
        <ele>319.9</ele>
        <time>2014-10-02T07:34:36Z</time>
      </trkpt>
      <trkpt lat="42.4426680" lon="-7.4037680">
        <ele>318.7</ele>
        <time>2014-10-02T07:34:37Z</time>
      </trkpt>
      <trkpt lat="42.4425970" lon="-7.4038850">
        <ele>317.5</ele>
        <time>2014-10-02T07:34:38Z</time>
      </trkpt>
      <trkpt lat="42.4425380" lon="-7.4039920">
        <ele>316.2</ele>
        <time>2014-10-02T07:34:39Z</time>
      </trkpt>
      <trkpt lat="42.4424890" lon="-7.4040910">
        <ele>315.0</ele>
        <time>2014-10-02T07:34:40Z</time>
      </trkpt>
      <trkpt lat="42.4424300" lon="-7.4041990">
        <ele>313.6</ele>
        <time>2014-10-02T07:34:41Z</time>
      </trkpt>
      <trkpt lat="42.4423630" lon="-7.4043140">
        <ele>312.1</ele>
        <time>2014-10-02T07:34:42Z</time>
      </trkpt>
      <trkpt lat="42.4422930" lon="-7.4044320">
        <ele>309.6</ele>
        <time>2014-10-02T07:34:43Z</time>
      </trkpt>
      <trkpt lat="42.4422330" lon="-7.4045370">
        <ele>305.1</ele>
        <time>2014-10-02T07:34:44Z</time>
      </trkpt>
      <trkpt lat="42.4421820" lon="-7.4046220">
        <ele>299.2</ele>
        <time>2014-10-02T07:34:45Z</time>
      </trkpt>
      <trkpt lat="42.4421350" lon="-7.4047000">
        <ele>296.9</ele>
        <time>2014-10-02T07:34:46Z</time>
      </trkpt>
      <trkpt lat="42.4420880" lon="-7.4047690">
        <ele>296.1</ele>
        <time>2014-10-02T07:34:47Z</time>
      </trkpt>
      <trkpt lat="42.4420440" lon="-7.4048250">
        <ele>295.0</ele>
        <time>2014-10-02T07:34:48Z</time>
      </trkpt>
      <trkpt lat="42.4420020" lon="-7.4048720">
        <ele>293.9</ele>
        <time>2014-10-02T07:34:49Z</time>
      </trkpt>
      <trkpt lat="42.4419570" lon="-7.4049220">
        <ele>292.9</ele>
        <time>2014-10-02T07:34:50Z</time>
      </trkpt>
      <trkpt lat="42.4419070" lon="-7.4049690">
        <ele>291.8</ele>
        <time>2014-10-02T07:34:51Z</time>
      </trkpt>
      <trkpt lat="42.4418540" lon="-7.4050170">
        <ele>290.6</ele>
        <time>2014-10-02T07:34:52Z</time>
      </trkpt>
      <trkpt lat="42.4417990" lon="-7.4050660">
        <ele>289.5</ele>
        <time>2014-10-02T07:34:53Z</time>
      </trkpt>
      <trkpt lat="42.4417470" lon="-7.4051120">
        <ele>288.9</ele>
        <time>2014-10-02T07:34:54Z</time>
      </trkpt>
      <trkpt lat="42.4416980" lon="-7.4051570">
        <ele>288.3</ele>
        <time>2014-10-02T07:34:55Z</time>
      </trkpt>
      <trkpt lat="42.4416490" lon="-7.4052020">
        <ele>287.6</ele>
        <time>2014-10-02T07:34:56Z</time>
      </trkpt>
      <trkpt lat="42.4416030" lon="-7.4052460">
        <ele>286.9</ele>
        <time>2014-10-02T07:34:57Z</time>
      </trkpt>
      <trkpt lat="42.4415530" lon="-7.4052950">
        <ele>286.2</ele>
        <time>2014-10-02T07:34:58Z</time>
      </trkpt>
      <trkpt lat="42.4415150" lon="-7.4053360">
        <ele>285.6</ele>
        <time>2014-10-02T07:34:59Z</time>
      </trkpt>
      <trkpt lat="42.4414930" lon="-7.4053610">
        <ele>285.3</ele>
        <time>2014-10-02T07:35:00Z</time>
      </trkpt>
      <trkpt lat="42.4414510" lon="-7.4054060">
        <ele>285.0</ele>
        <time>2014-10-02T07:35:02Z</time>
      </trkpt>
      <trkpt lat="42.4414270" lon="-7.4054450">
        <ele>284.7</ele>
        <time>2014-10-02T07:35:03Z</time>
      </trkpt>
      <trkpt lat="42.4414030" lon="-7.4054890">
        <ele>284.4</ele>
        <time>2014-10-02T07:35:04Z</time>
      </trkpt>
      <trkpt lat="42.4413930" lon="-7.4055270">
        <ele>284.1</ele>
        <time>2014-10-02T07:35:05Z</time>
      </trkpt>
      <trkpt lat="42.4414000" lon="-7.4055760">
        <ele>283.9</ele>
        <time>2014-10-02T07:35:06Z</time>
      </trkpt>
      <trkpt lat="42.4414090" lon="-7.4056160">
        <ele>283.7</ele>
        <time>2014-10-02T07:35:07Z</time>
      </trkpt>
      <trkpt lat="42.4414210" lon="-7.4056820">
        <ele>283.4</ele>
        <time>2014-10-02T07:35:09Z</time>
      </trkpt>
      <trkpt lat="42.4414420" lon="-7.4057700">
        <ele>283.2</ele>
        <time>2014-10-02T07:35:12Z</time>
      </trkpt>
      <trkpt lat="42.4414480" lon="-7.4058410">
        <ele>283.0</ele>
        <time>2014-10-02T07:35:14Z</time>
      </trkpt>
      <trkpt lat="42.4414530" lon="-7.4059380">
        <ele>282.9</ele>
        <time>2014-10-02T07:35:17Z</time>
      </trkpt>
      <trkpt lat="42.4414420" lon="-7.4060030">
        <ele>282.9</ele>
        <time>2014-10-02T07:35:19Z</time>
      </trkpt>
      <trkpt lat="42.4413710" lon="-7.4060840">
        <ele>282.9</ele>
        <time>2014-10-02T07:35:46Z</time>
      </trkpt>
      <trkpt lat="42.4413320" lon="-7.4060160">
        <ele>282.9</ele>
        <time>2014-10-02T07:36:09Z</time>
      </trkpt>
      <trkpt lat="42.4413630" lon="-7.4059120">
        <ele>282.9</ele>
        <time>2014-10-02T07:36:16Z</time>
      </trkpt>
      <trkpt lat="42.4413770" lon="-7.4058590">
        <ele>283.0</ele>
        <time>2014-10-02T07:36:18Z</time>
      </trkpt>
      <trkpt lat="42.4413910" lon="-7.4058270">
        <ele>283.1</ele>
        <time>2014-10-02T07:36:19Z</time>
      </trkpt>
      <trkpt lat="42.4414130" lon="-7.4057700">
        <ele>283.2</ele>
        <time>2014-10-02T07:36:21Z</time>
      </trkpt>
      <trkpt lat="42.4414320" lon="-7.4057100">
        <ele>283.4</ele>
        <time>2014-10-02T07:36:23Z</time>
      </trkpt>
      <trkpt lat="42.4414470" lon="-7.4056520">
        <ele>283.6</ele>
        <time>2014-10-02T07:36:25Z</time>
      </trkpt>
      <trkpt lat="42.4414560" lon="-7.4055990">
        <ele>283.9</ele>
        <time>2014-10-02T07:36:27Z</time>
      </trkpt>
      <trkpt lat="42.4414620" lon="-7.4055450">
        <ele>284.2</ele>
        <time>2014-10-02T07:36:29Z</time>
      </trkpt>
      <trkpt lat="42.4414700" lon="-7.4055000">
        <ele>284.5</ele>
        <time>2014-10-02T07:36:31Z</time>
      </trkpt>
      <trkpt lat="42.4414770" lon="-7.4054560">
        <ele>284.8</ele>
        <time>2014-10-02T07:36:33Z</time>
      </trkpt>
      <trkpt lat="42.4414790" lon="-7.4054160">
        <ele>285.0</ele>
        <time>2014-10-02T07:36:35Z</time>
      </trkpt>
      <trkpt lat="42.4414990" lon="-7.4053690">
        <ele>285.3</ele>
        <time>2014-10-02T07:36:38Z</time>
      </trkpt>
      <trkpt lat="42.4415400" lon="-7.4053220">
        <ele>285.9</ele>
        <time>2014-10-02T07:37:18Z</time>
      </trkpt>
      <trkpt lat="42.4415710" lon="-7.4052950">
        <ele>286.3</ele>
        <time>2014-10-02T07:37:20Z</time>
      </trkpt>
      <trkpt lat="42.4416080" lon="-7.4052610">
        <ele>286.9</ele>
        <time>2014-10-02T07:37:22Z</time>
      </trkpt>
      <trkpt lat="42.4416390" lon="-7.4052270">
        <ele>287.4</ele>
        <time>2014-10-02T07:37:24Z</time>
      </trkpt>
      <trkpt lat="42.4416660" lon="-7.4052090">
        <ele>287.7</ele>
        <time>2014-10-02T07:37:26Z</time>
      </trkpt>
      <trkpt lat="42.4416950" lon="-7.4051840">
        <ele>288.1</ele>
        <time>2014-10-02T07:37:28Z</time>
      </trkpt>
      <trkpt lat="42.4417230" lon="-7.4051480">
        <ele>288.5</ele>
        <time>2014-10-02T07:37:30Z</time>
      </trkpt>
      <trkpt lat="42.4417460" lon="-7.4051160">
        <ele>288.9</ele>
        <time>2014-10-02T07:37:32Z</time>
      </trkpt>
      <trkpt lat="42.4417710" lon="-7.4050890">
        <ele>289.2</ele>
        <time>2014-10-02T07:37:34Z</time>
      </trkpt>
      <trkpt lat="42.4417980" lon="-7.4050620">
        <ele>289.5</ele>
        <time>2014-10-02T07:37:36Z</time>
      </trkpt>
      <trkpt lat="42.4418260" lon="-7.4050350">
        <ele>290.1</ele>
        <time>2014-10-02T07:37:38Z</time>
      </trkpt>
      <trkpt lat="42.4418510" lon="-7.4050060">
        <ele>290.7</ele>
        <time>2014-10-02T07:37:40Z</time>
      </trkpt>
      <trkpt lat="42.4418750" lon="-7.4049820">
        <ele>291.2</ele>
        <time>2014-10-02T07:37:42Z</time>
      </trkpt>
      <trkpt lat="42.4419030" lon="-7.4049560">
        <ele>291.8</ele>
        <time>2014-10-02T07:37:44Z</time>
      </trkpt>
      <trkpt lat="42.4419310" lon="-7.4049310">
        <ele>292.4</ele>
        <time>2014-10-02T07:37:46Z</time>
      </trkpt>
      <trkpt lat="42.4419580" lon="-7.4049050">
        <ele>293.0</ele>
        <time>2014-10-02T07:37:48Z</time>
      </trkpt>
      <trkpt lat="42.4419870" lon="-7.4048780">
        <ele>293.7</ele>
        <time>2014-10-02T07:37:50Z</time>
      </trkpt>
      <trkpt lat="42.4420120" lon="-7.4048550">
        <ele>294.3</ele>
        <time>2014-10-02T07:37:52Z</time>
      </trkpt>
      <trkpt lat="42.4420430" lon="-7.4048240">
        <ele>295.0</ele>
        <time>2014-10-02T07:37:54Z</time>
      </trkpt>
      <trkpt lat="42.4420790" lon="-7.4047860">
        <ele>295.9</ele>
        <time>2014-10-02T07:37:56Z</time>
      </trkpt>
      <trkpt lat="42.4421100" lon="-7.4047450">
        <ele>296.7</ele>
        <time>2014-10-02T07:37:58Z</time>
      </trkpt>
      <trkpt lat="42.4421390" lon="-7.4047060">
        <ele>296.9</ele>
        <time>2014-10-02T07:38:00Z</time>
      </trkpt>
      <trkpt lat="42.4421670" lon="-7.4046610">
        <ele>297.1</ele>
        <time>2014-10-02T07:38:02Z</time>
      </trkpt>
      <trkpt lat="42.4421960" lon="-7.4046100">
        <ele>299.4</ele>
        <time>2014-10-02T07:38:04Z</time>
      </trkpt>
      <trkpt lat="42.4422250" lon="-7.4045530">
        <ele>303.3</ele>
        <time>2014-10-02T07:38:06Z</time>
      </trkpt>
      <trkpt lat="42.4422530" lon="-7.4044930">
        <ele>306.7</ele>
        <time>2014-10-02T07:38:08Z</time>
      </trkpt>
      <trkpt lat="42.4422810" lon="-7.4044360">
        <ele>309.0</ele>
        <time>2014-10-02T07:38:10Z</time>
      </trkpt>
      <trkpt lat="42.4423090" lon="-7.4043790">
        <ele>310.5</ele>
        <time>2014-10-02T07:38:12Z</time>
      </trkpt>
      <trkpt lat="42.4423380" lon="-7.4043230">
        <ele>311.6</ele>
        <time>2014-10-02T07:38:14Z</time>
      </trkpt>
      <trkpt lat="42.4423680" lon="-7.4042680">
        <ele>312.4</ele>
        <time>2014-10-02T07:38:16Z</time>
      </trkpt>
      <trkpt lat="42.4423970" lon="-7.4042150">
        <ele>313.0</ele>
        <time>2014-10-02T07:38:18Z</time>
      </trkpt>
      <trkpt lat="42.4424270" lon="-7.4041630">
        <ele>313.7</ele>
        <time>2014-10-02T07:38:20Z</time>
      </trkpt>
      <trkpt lat="42.4424540" lon="-7.4041140">
        <ele>314.3</ele>
        <time>2014-10-02T07:38:22Z</time>
      </trkpt>
      <trkpt lat="42.4424800" lon="-7.4040680">
        <ele>314.9</ele>
        <time>2014-10-02T07:38:24Z</time>
      </trkpt>
      <trkpt lat="42.4425070" lon="-7.4040240">
        <ele>315.5</ele>
        <time>2014-10-02T07:38:26Z</time>
      </trkpt>
      <trkpt lat="42.4425330" lon="-7.4039840">
        <ele>316.1</ele>
        <time>2014-10-02T07:38:28Z</time>
      </trkpt>
      <trkpt lat="42.4425620" lon="-7.4039360">
        <ele>316.7</ele>
        <time>2014-10-02T07:38:30Z</time>
      </trkpt>
      <trkpt lat="42.4425900" lon="-7.4038880">
        <ele>317.3</ele>
        <time>2014-10-02T07:38:32Z</time>
      </trkpt>
      <trkpt lat="42.4426170" lon="-7.4038370">
        <ele>317.9</ele>
        <time>2014-10-02T07:38:34Z</time>
      </trkpt>
      <trkpt lat="42.4426430" lon="-7.4037830">
        <ele>318.4</ele>
        <time>2014-10-02T07:38:36Z</time>
      </trkpt>
      <trkpt lat="42.4426640" lon="-7.4037390">
        <ele>318.8</ele>
        <time>2014-10-02T07:38:38Z</time>
      </trkpt>
      <trkpt lat="42.4426880" lon="-7.4036970">
        <ele>319.2</ele>
        <time>2014-10-02T07:38:40Z</time>
      </trkpt>
      <trkpt lat="42.4427140" lon="-7.4036540">
        <ele>319.6</ele>
        <time>2014-10-02T07:38:42Z</time>
      </trkpt>
      <trkpt lat="42.4427420" lon="-7.4036060">
        <ele>320.1</ele>
        <time>2014-10-02T07:38:44Z</time>
      </trkpt>
      <trkpt lat="42.4427650" lon="-7.4035610">
        <ele>320.7</ele>
        <time>2014-10-02T07:38:46Z</time>
      </trkpt>
      <trkpt lat="42.4427900" lon="-7.4035140">
        <ele>321.2</ele>
        <time>2014-10-02T07:38:48Z</time>
      </trkpt>
      <trkpt lat="42.4428120" lon="-7.4034690">
        <ele>321.7</ele>
        <time>2014-10-02T07:38:50Z</time>
      </trkpt>
      <trkpt lat="42.4428330" lon="-7.4034290">
        <ele>322.2</ele>
        <time>2014-10-02T07:38:52Z</time>
      </trkpt>
      <trkpt lat="42.4428560" lon="-7.4033840">
        <ele>322.7</ele>
        <time>2014-10-02T07:38:54Z</time>
      </trkpt>
      <trkpt lat="42.4428790" lon="-7.4033350">
        <ele>323.2</ele>
        <time>2014-10-02T07:38:56Z</time>
      </trkpt>
      <trkpt lat="42.4429010" lon="-7.4032930">
        <ele>323.6</ele>
        <time>2014-10-02T07:38:58Z</time>
      </trkpt>
      <trkpt lat="42.4429230" lon="-7.4032530">
        <ele>323.9</ele>
        <time>2014-10-02T07:39:00Z</time>
      </trkpt>
      <trkpt lat="42.4429430" lon="-7.4032060">
        <ele>324.2</ele>
        <time>2014-10-02T07:39:02Z</time>
      </trkpt>
      <trkpt lat="42.4429600" lon="-7.4031530">
        <ele>324.6</ele>
        <time>2014-10-02T07:39:04Z</time>
      </trkpt>
      <trkpt lat="42.4429670" lon="-7.4030780">
        <ele>325.1</ele>
        <time>2014-10-02T07:39:06Z</time>
      </trkpt>
      <trkpt lat="42.4429700" lon="-7.4030370">
        <ele>325.3</ele>
        <time>2014-10-02T07:39:07Z</time>
      </trkpt>
      <trkpt lat="42.4429740" lon="-7.4029670">
        <ele>325.8</ele>
        <time>2014-10-02T07:39:09Z</time>
      </trkpt>
      <trkpt lat="42.4429730" lon="-7.4029010">
        <ele>326.4</ele>
        <time>2014-10-02T07:39:11Z</time>
      </trkpt>
      <trkpt lat="42.4429670" lon="-7.4028470">
        <ele>326.8</ele>
        <time>2014-10-02T07:39:13Z</time>
      </trkpt>
      <trkpt lat="42.4429620" lon="-7.4027820">
        <ele>327.4</ele>
        <time>2014-10-02T07:39:15Z</time>
      </trkpt>
      <trkpt lat="42.4429610" lon="-7.4027460">
        <ele>327.7</ele>
        <time>2014-10-02T07:39:16Z</time>
      </trkpt>
      <trkpt lat="42.4429600" lon="-7.4027070">
        <ele>328.1</ele>
        <time>2014-10-02T07:39:17Z</time>
      </trkpt>
      <trkpt lat="42.4429610" lon="-7.4026610">
        <ele>328.5</ele>
        <time>2014-10-02T07:39:18Z</time>
      </trkpt>
      <trkpt lat="42.4429620" lon="-7.4026240">
        <ele>328.8</ele>
        <time>2014-10-02T07:39:19Z</time>
      </trkpt>
      <trkpt lat="42.4429660" lon="-7.4025860">
        <ele>329.1</ele>
        <time>2014-10-02T07:39:20Z</time>
      </trkpt>
      <trkpt lat="42.4429750" lon="-7.4025220">
        <ele>329.7</ele>
        <time>2014-10-02T07:39:22Z</time>
      </trkpt>
      <trkpt lat="42.4429800" lon="-7.4024650">
        <ele>330.1</ele>
        <time>2014-10-02T07:39:24Z</time>
      </trkpt>
      <trkpt lat="42.4429870" lon="-7.4024010">
        <ele>330.7</ele>
        <time>2014-10-02T07:39:26Z</time>
      </trkpt>
      <trkpt lat="42.4429920" lon="-7.4023330">
        <ele>331.3</ele>
        <time>2014-10-02T07:39:28Z</time>
      </trkpt>
      <trkpt lat="42.4429940" lon="-7.4022940">
        <ele>331.6</ele>
        <time>2014-10-02T07:39:29Z</time>
      </trkpt>
      <trkpt lat="42.4429940" lon="-7.4022300">
        <ele>332.2</ele>
        <time>2014-10-02T07:39:31Z</time>
      </trkpt>
      <trkpt lat="42.4429940" lon="-7.4021810">
        <ele>332.6</ele>
        <time>2014-10-02T07:39:33Z</time>
      </trkpt>
      <trkpt lat="42.4429910" lon="-7.4021230">
        <ele>333.1</ele>
        <time>2014-10-02T07:39:35Z</time>
      </trkpt>
      <trkpt lat="42.4429840" lon="-7.4020700">
        <ele>333.5</ele>
        <time>2014-10-02T07:39:37Z</time>
      </trkpt>
      <trkpt lat="42.4429780" lon="-7.4020290">
        <ele>333.8</ele>
        <time>2014-10-02T07:39:39Z</time>
      </trkpt>
      <trkpt lat="42.4429690" lon="-7.4019870">
        <ele>334.1</ele>
        <time>2014-10-02T07:39:41Z</time>
      </trkpt>
      <trkpt lat="42.4429580" lon="-7.4019460">
        <ele>334.4</ele>
        <time>2014-10-02T07:39:43Z</time>
      </trkpt>
      <trkpt lat="42.4429480" lon="-7.4018960">
        <ele>334.7</ele>
        <time>2014-10-02T07:39:45Z</time>
      </trkpt>
      <trkpt lat="42.4429390" lon="-7.4018390">
        <ele>335.1</ele>
        <time>2014-10-02T07:39:47Z</time>
      </trkpt>
      <trkpt lat="42.4429300" lon="-7.4017860">
        <ele>335.4</ele>
        <time>2014-10-02T07:39:49Z</time>
      </trkpt>
      <trkpt lat="42.4429240" lon="-7.4017310">
        <ele>335.8</ele>
        <time>2014-10-02T07:39:51Z</time>
      </trkpt>
      <trkpt lat="42.4429210" lon="-7.4016720">
        <ele>336.3</ele>
        <time>2014-10-02T07:39:53Z</time>
      </trkpt>
      <trkpt lat="42.4429160" lon="-7.4016100">
        <ele>336.8</ele>
        <time>2014-10-02T07:39:55Z</time>
      </trkpt>
      <trkpt lat="42.4429090" lon="-7.4015530">
        <ele>337.3</ele>
        <time>2014-10-02T07:39:57Z</time>
      </trkpt>
      <trkpt lat="42.4429030" lon="-7.4014960">
        <ele>337.8</ele>
        <time>2014-10-02T07:39:59Z</time>
      </trkpt>
      <trkpt lat="42.4428970" lon="-7.4014390">
        <ele>338.3</ele>
        <time>2014-10-02T07:40:01Z</time>
      </trkpt>
      <trkpt lat="42.4428910" lon="-7.4013880">
        <ele>338.8</ele>
        <time>2014-10-02T07:40:03Z</time>
      </trkpt>
      <trkpt lat="42.4428880" lon="-7.4013380">
        <ele>339.2</ele>
        <time>2014-10-02T07:40:05Z</time>
      </trkpt>
      <trkpt lat="42.4428840" lon="-7.4012910">
        <ele>339.5</ele>
        <time>2014-10-02T07:40:07Z</time>
      </trkpt>
      <trkpt lat="42.4428800" lon="-7.4012350">
        <ele>339.8</ele>
        <time>2014-10-02T07:40:09Z</time>
      </trkpt>
      <trkpt lat="42.4428760" lon="-7.4011800">
        <ele>340.1</ele>
        <time>2014-10-02T07:40:11Z</time>
      </trkpt>
      <trkpt lat="42.4428730" lon="-7.4011220">
        <ele>340.4</ele>
        <time>2014-10-02T07:40:13Z</time>
      </trkpt>
      <trkpt lat="42.4428780" lon="-7.4010630">
        <ele>340.7</ele>
        <time>2014-10-02T07:40:15Z</time>
      </trkpt>
      <trkpt lat="42.4428870" lon="-7.4010010">
        <ele>341.0</ele>
        <time>2014-10-02T07:40:17Z</time>
      </trkpt>
      <trkpt lat="42.4428930" lon="-7.4009400">
        <ele>341.1</ele>
        <time>2014-10-02T07:40:19Z</time>
      </trkpt>
      <trkpt lat="42.4429020" lon="-7.4008880">
        <ele>341.3</ele>
        <time>2014-10-02T07:40:21Z</time>
      </trkpt>
      <trkpt lat="42.4429120" lon="-7.4008300">
        <ele>341.4</ele>
        <time>2014-10-02T07:40:23Z</time>
      </trkpt>
      <trkpt lat="42.4429250" lon="-7.4007730">
        <ele>341.5</ele>
        <time>2014-10-02T07:40:25Z</time>
      </trkpt>
      <trkpt lat="42.4429330" lon="-7.4007200">
        <ele>341.7</ele>
        <time>2014-10-02T07:40:27Z</time>
      </trkpt>
      <trkpt lat="42.4429400" lon="-7.4006650">
        <ele>341.9</ele>
        <time>2014-10-02T07:40:29Z</time>
      </trkpt>
      <trkpt lat="42.4429430" lon="-7.4006100">
        <ele>342.1</ele>
        <time>2014-10-02T07:40:31Z</time>
      </trkpt>
      <trkpt lat="42.4429470" lon="-7.4005510">
        <ele>342.5</ele>
        <time>2014-10-02T07:40:33Z</time>
      </trkpt>
      <trkpt lat="42.4429500" lon="-7.4004790">
        <ele>342.9</ele>
        <time>2014-10-02T07:40:35Z</time>
      </trkpt>
      <trkpt lat="42.4429520" lon="-7.4004400">
        <ele>343.3</ele>
        <time>2014-10-02T07:40:36Z</time>
      </trkpt>
      <trkpt lat="42.4429550" lon="-7.4003710">
        <ele>343.9</ele>
        <time>2014-10-02T07:40:38Z</time>
      </trkpt>
      <trkpt lat="42.4429530" lon="-7.4003100">
        <ele>344.4</ele>
        <time>2014-10-02T07:40:40Z</time>
      </trkpt>
      <trkpt lat="42.4429510" lon="-7.4002530">
        <ele>345.0</ele>
        <time>2014-10-02T07:40:42Z</time>
      </trkpt>
      <trkpt lat="42.4429490" lon="-7.4001900">
        <ele>345.5</ele>
        <time>2014-10-02T07:40:44Z</time>
      </trkpt>
      <trkpt lat="42.4429480" lon="-7.4001540">
        <ele>345.8</ele>
        <time>2014-10-02T07:40:45Z</time>
      </trkpt>
      <trkpt lat="42.4429520" lon="-7.4000860">
        <ele>346.4</ele>
        <time>2014-10-02T07:40:47Z</time>
      </trkpt>
      <trkpt lat="42.4429560" lon="-7.4000280">
        <ele>346.8</ele>
        <time>2014-10-02T07:40:49Z</time>
      </trkpt>
      <trkpt lat="42.4429580" lon="-7.3999640">
        <ele>347.3</ele>
        <time>2014-10-02T07:40:51Z</time>
      </trkpt>
      <trkpt lat="42.4429560" lon="-7.3999010">
        <ele>347.7</ele>
        <time>2014-10-02T07:40:53Z</time>
      </trkpt>
      <trkpt lat="42.4429550" lon="-7.3998470">
        <ele>348.1</ele>
        <time>2014-10-02T07:40:55Z</time>
      </trkpt>
      <trkpt lat="42.4429540" lon="-7.3997950">
        <ele>348.5</ele>
        <time>2014-10-02T07:40:57Z</time>
      </trkpt>
      <trkpt lat="42.4429540" lon="-7.3997440">
        <ele>348.9</ele>
        <time>2014-10-02T07:40:59Z</time>
      </trkpt>
      <trkpt lat="42.4429480" lon="-7.3996920">
        <ele>349.3</ele>
        <time>2014-10-02T07:41:01Z</time>
      </trkpt>
      <trkpt lat="42.4429420" lon="-7.3996320">
        <ele>349.8</ele>
        <time>2014-10-02T07:41:03Z</time>
      </trkpt>
      <trkpt lat="42.4429330" lon="-7.3995820">
        <ele>350.2</ele>
        <time>2014-10-02T07:41:05Z</time>
      </trkpt>
      <trkpt lat="42.4429260" lon="-7.3995330">
        <ele>350.6</ele>
        <time>2014-10-02T07:41:07Z</time>
      </trkpt>
      <trkpt lat="42.4429190" lon="-7.3994810">
        <ele>351.0</ele>
        <time>2014-10-02T07:41:09Z</time>
      </trkpt>
      <trkpt lat="42.4429110" lon="-7.3994330">
        <ele>351.4</ele>
        <time>2014-10-02T07:41:11Z</time>
      </trkpt>
      <trkpt lat="42.4429060" lon="-7.3993860">
        <ele>351.7</ele>
        <time>2014-10-02T07:41:13Z</time>
      </trkpt>
      <trkpt lat="42.4429020" lon="-7.3993270">
        <ele>352.1</ele>
        <time>2014-10-02T07:41:15Z</time>
      </trkpt>
      <trkpt lat="42.4428970" lon="-7.3992700">
        <ele>352.5</ele>
        <time>2014-10-02T07:41:17Z</time>
      </trkpt>
      <trkpt lat="42.4428920" lon="-7.3992140">
        <ele>352.9</ele>
        <time>2014-10-02T07:41:19Z</time>
      </trkpt>
      <trkpt lat="42.4428860" lon="-7.3991540">
        <ele>353.3</ele>
        <time>2014-10-02T07:41:21Z</time>
      </trkpt>
      <trkpt lat="42.4428790" lon="-7.3990920">
        <ele>353.8</ele>
        <time>2014-10-02T07:41:23Z</time>
      </trkpt>
      <trkpt lat="42.4428730" lon="-7.3990390">
        <ele>354.3</ele>
        <time>2014-10-02T07:41:25Z</time>
      </trkpt>
      <trkpt lat="42.4428680" lon="-7.3989820">
        <ele>354.8</ele>
        <time>2014-10-02T07:41:27Z</time>
      </trkpt>
      <trkpt lat="42.4428630" lon="-7.3989250">
        <ele>355.2</ele>
        <time>2014-10-02T07:41:29Z</time>
      </trkpt>
      <trkpt lat="42.4428620" lon="-7.3988620">
        <ele>355.7</ele>
        <time>2014-10-02T07:41:31Z</time>
      </trkpt>
      <trkpt lat="42.4428620" lon="-7.3987980">
        <ele>356.3</ele>
        <time>2014-10-02T07:41:33Z</time>
      </trkpt>
      <trkpt lat="42.4428620" lon="-7.3987390">
        <ele>356.7</ele>
        <time>2014-10-02T07:41:35Z</time>
      </trkpt>
      <trkpt lat="42.4428600" lon="-7.3986700">
        <ele>357.3</ele>
        <time>2014-10-02T07:41:37Z</time>
      </trkpt>
      <trkpt lat="42.4428600" lon="-7.3986060">
        <ele>357.7</ele>
        <time>2014-10-02T07:41:39Z</time>
      </trkpt>
      <trkpt lat="42.4428600" lon="-7.3985420">
        <ele>358.2</ele>
        <time>2014-10-02T07:41:41Z</time>
      </trkpt>
      <trkpt lat="42.4428580" lon="-7.3984780">
        <ele>358.7</ele>
        <time>2014-10-02T07:41:43Z</time>
      </trkpt>
      <trkpt lat="42.4428500" lon="-7.3984140">
        <ele>359.3</ele>
        <time>2014-10-02T07:41:45Z</time>
      </trkpt>
      <trkpt lat="42.4428410" lon="-7.3983440">
        <ele>359.9</ele>
        <time>2014-10-02T07:41:47Z</time>
      </trkpt>
      <trkpt lat="42.4428260" lon="-7.3982760">
        <ele>360.6</ele>
        <time>2014-10-02T07:41:49Z</time>
      </trkpt>
      <trkpt lat="42.4428070" lon="-7.3982110">
        <ele>361.2</ele>
        <time>2014-10-02T07:41:51Z</time>
      </trkpt>
      <trkpt lat="42.4427850" lon="-7.3981480">
        <ele>361.7</ele>
        <time>2014-10-02T07:41:53Z</time>
      </trkpt>
      <trkpt lat="42.4427610" lon="-7.3980900">
        <ele>362.1</ele>
        <time>2014-10-02T07:41:55Z</time>
      </trkpt>
      <trkpt lat="42.4427340" lon="-7.3980410">
        <ele>362.5</ele>
        <time>2014-10-02T07:41:57Z</time>
      </trkpt>
      <trkpt lat="42.4427090" lon="-7.3979970">
        <ele>362.7</ele>
        <time>2014-10-02T07:41:59Z</time>
      </trkpt>
      <trkpt lat="42.4426840" lon="-7.3979530">
        <ele>363.0</ele>
        <time>2014-10-02T07:42:01Z</time>
      </trkpt>
      <trkpt lat="42.4426620" lon="-7.3979150">
        <ele>363.3</ele>
        <time>2014-10-02T07:42:03Z</time>
      </trkpt>
      <trkpt lat="42.4426350" lon="-7.3978690">
        <ele>363.6</ele>
        <time>2014-10-02T07:42:05Z</time>
      </trkpt>
      <trkpt lat="42.4426100" lon="-7.3978200">
        <ele>364.0</ele>
        <time>2014-10-02T07:42:07Z</time>
      </trkpt>
      <trkpt lat="42.4425920" lon="-7.3977740">
        <ele>364.4</ele>
        <time>2014-10-02T07:42:09Z</time>
      </trkpt>
      <trkpt lat="42.4425750" lon="-7.3977210">
        <ele>364.9</ele>
        <time>2014-10-02T07:42:11Z</time>
      </trkpt>
      <trkpt lat="42.4425590" lon="-7.3976820">
        <ele>365.2</ele>
        <time>2014-10-02T07:42:13Z</time>
      </trkpt>
      <trkpt lat="42.4425410" lon="-7.3976240">
        <ele>365.7</ele>
        <time>2014-10-02T07:42:15Z</time>
      </trkpt>
      <trkpt lat="42.4425320" lon="-7.3975880">
        <ele>366.0</ele>
        <time>2014-10-02T07:42:16Z</time>
      </trkpt>
      <trkpt lat="42.4425230" lon="-7.3975500">
        <ele>366.4</ele>
        <time>2014-10-02T07:42:17Z</time>
      </trkpt>
      <trkpt lat="42.4425140" lon="-7.3975130">
        <ele>366.7</ele>
        <time>2014-10-02T07:42:18Z</time>
      </trkpt>
      <trkpt lat="42.4424960" lon="-7.3974500">
        <ele>367.3</ele>
        <time>2014-10-02T07:42:20Z</time>
      </trkpt>
      <trkpt lat="42.4424820" lon="-7.3974000">
        <ele>367.9</ele>
        <time>2014-10-02T07:42:22Z</time>
      </trkpt>
      <trkpt lat="42.4424600" lon="-7.3973410">
        <ele>368.5</ele>
        <time>2014-10-02T07:42:24Z</time>
      </trkpt>
      <trkpt lat="42.4424380" lon="-7.3972830">
        <ele>369.1</ele>
        <time>2014-10-02T07:42:26Z</time>
      </trkpt>
      <trkpt lat="42.4424200" lon="-7.3972220">
        <ele>369.6</ele>
        <time>2014-10-02T07:42:28Z</time>
      </trkpt>
      <trkpt lat="42.4424050" lon="-7.3971630">
        <ele>370.0</ele>
        <time>2014-10-02T07:42:30Z</time>
      </trkpt>
      <trkpt lat="42.4423900" lon="-7.3971050">
        <ele>370.5</ele>
        <time>2014-10-02T07:42:32Z</time>
      </trkpt>
      <trkpt lat="42.4423780" lon="-7.3970500">
        <ele>370.8</ele>
        <time>2014-10-02T07:42:34Z</time>
      </trkpt>
      <trkpt lat="42.4423750" lon="-7.3970020">
        <ele>371.1</ele>
        <time>2014-10-02T07:42:36Z</time>
      </trkpt>
      <trkpt lat="42.4423710" lon="-7.3969550">
        <ele>371.4</ele>
        <time>2014-10-02T07:42:38Z</time>
      </trkpt>
      <trkpt lat="42.4423670" lon="-7.3969040">
        <ele>371.7</ele>
        <time>2014-10-02T07:42:40Z</time>
      </trkpt>
      <trkpt lat="42.4423660" lon="-7.3968490">
        <ele>372.0</ele>
        <time>2014-10-02T07:42:42Z</time>
      </trkpt>
      <trkpt lat="42.4423660" lon="-7.3967910">
        <ele>372.4</ele>
        <time>2014-10-02T07:42:44Z</time>
      </trkpt>
      <trkpt lat="42.4423650" lon="-7.3967310">
        <ele>372.8</ele>
        <time>2014-10-02T07:42:46Z</time>
      </trkpt>
      <trkpt lat="42.4423680" lon="-7.3966630">
        <ele>373.2</ele>
        <time>2014-10-02T07:42:48Z</time>
      </trkpt>
      <trkpt lat="42.4423680" lon="-7.3965940">
        <ele>373.5</ele>
        <time>2014-10-02T07:42:50Z</time>
      </trkpt>
      <trkpt lat="42.4423660" lon="-7.3965560">
        <ele>373.7</ele>
        <time>2014-10-02T07:42:51Z</time>
      </trkpt>
      <trkpt lat="42.4423620" lon="-7.3965190">
        <ele>373.8</ele>
        <time>2014-10-02T07:42:52Z</time>
      </trkpt>
      <trkpt lat="42.4423530" lon="-7.3964490">
        <ele>374.1</ele>
        <time>2014-10-02T07:42:54Z</time>
      </trkpt>
      <trkpt lat="42.4423370" lon="-7.3963850">
        <ele>374.4</ele>
        <time>2014-10-02T07:42:56Z</time>
      </trkpt>
      <trkpt lat="42.4423180" lon="-7.3963220">
        <ele>374.7</ele>
        <time>2014-10-02T07:42:58Z</time>
      </trkpt>
      <trkpt lat="42.4423010" lon="-7.3962620">
        <ele>375.0</ele>
        <time>2014-10-02T07:43:00Z</time>
      </trkpt>
      <trkpt lat="42.4422780" lon="-7.3962100">
        <ele>375.2</ele>
        <time>2014-10-02T07:43:02Z</time>
      </trkpt>
      <trkpt lat="42.4422560" lon="-7.3961520">
        <ele>375.5</ele>
        <time>2014-10-02T07:43:04Z</time>
      </trkpt>
      <trkpt lat="42.4422350" lon="-7.3960940">
        <ele>375.9</ele>
        <time>2014-10-02T07:43:06Z</time>
      </trkpt>
      <trkpt lat="42.4422110" lon="-7.3960330">
        <ele>376.3</ele>
        <time>2014-10-02T07:43:08Z</time>
      </trkpt>
      <trkpt lat="42.4421900" lon="-7.3959770">
        <ele>376.7</ele>
        <time>2014-10-02T07:43:10Z</time>
      </trkpt>
      <trkpt lat="42.4421650" lon="-7.3959200">
        <ele>377.2</ele>
        <time>2014-10-02T07:43:12Z</time>
      </trkpt>
      <trkpt lat="42.4421400" lon="-7.3958590">
        <ele>377.9</ele>
        <time>2014-10-02T07:43:14Z</time>
      </trkpt>
      <trkpt lat="42.4421300" lon="-7.3958250">
        <ele>378.3</ele>
        <time>2014-10-02T07:43:15Z</time>
      </trkpt>
      <trkpt lat="42.4421050" lon="-7.3957600">
        <ele>379.0</ele>
        <time>2014-10-02T07:43:17Z</time>
      </trkpt>
      <trkpt lat="42.4420800" lon="-7.3957000">
        <ele>379.7</ele>
        <time>2014-10-02T07:43:19Z</time>
      </trkpt>
      <trkpt lat="42.4420560" lon="-7.3956460">
        <ele>380.2</ele>
        <time>2014-10-02T07:43:21Z</time>
      </trkpt>
      <trkpt lat="42.4420300" lon="-7.3955990">
        <ele>380.7</ele>
        <time>2014-10-02T07:43:23Z</time>
      </trkpt>
      <trkpt lat="42.4420060" lon="-7.3955530">
        <ele>381.1</ele>
        <time>2014-10-02T07:43:25Z</time>
      </trkpt>
      <trkpt lat="42.4419800" lon="-7.3955100">
        <ele>381.6</ele>
        <time>2014-10-02T07:43:27Z</time>
      </trkpt>
      <trkpt lat="42.4419520" lon="-7.3954700">
        <ele>382.0</ele>
        <time>2014-10-02T07:43:29Z</time>
      </trkpt>
      <trkpt lat="42.4419230" lon="-7.3954310">
        <ele>382.4</ele>
        <time>2014-10-02T07:43:31Z</time>
      </trkpt>
      <trkpt lat="42.4418990" lon="-7.3953890">
        <ele>382.8</ele>
        <time>2014-10-02T07:43:33Z</time>
      </trkpt>
      <trkpt lat="42.4418690" lon="-7.3953470">
        <ele>383.2</ele>
        <time>2014-10-02T07:43:35Z</time>
      </trkpt>
      <trkpt lat="42.4418390" lon="-7.3953070">
        <ele>383.6</ele>
        <time>2014-10-02T07:43:37Z</time>
      </trkpt>
      <trkpt lat="42.4418070" lon="-7.3952630">
        <ele>384.1</ele>
        <time>2014-10-02T07:43:39Z</time>
      </trkpt>
      <trkpt lat="42.4417720" lon="-7.3952210">
        <ele>384.8</ele>
        <time>2014-10-02T07:43:41Z</time>
      </trkpt>
      <trkpt lat="42.4417390" lon="-7.3951780">
        <ele>385.5</ele>
        <time>2014-10-02T07:43:43Z</time>
      </trkpt>
      <trkpt lat="42.4417050" lon="-7.3951270">
        <ele>386.3</ele>
        <time>2014-10-02T07:43:45Z</time>
      </trkpt>
      <trkpt lat="42.4416720" lon="-7.3950760">
        <ele>387.2</ele>
        <time>2014-10-02T07:43:47Z</time>
      </trkpt>
      <trkpt lat="42.4416390" lon="-7.3950360">
        <ele>387.9</ele>
        <time>2014-10-02T07:43:49Z</time>
      </trkpt>
      <trkpt lat="42.4416060" lon="-7.3949950">
        <ele>388.6</ele>
        <time>2014-10-02T07:43:51Z</time>
      </trkpt>
      <trkpt lat="42.4415840" lon="-7.3949630">
        <ele>388.9</ele>
        <time>2014-10-02T07:43:53Z</time>
      </trkpt>
      <trkpt lat="42.4415550" lon="-7.3949220">
        <ele>389.2</ele>
        <time>2014-10-02T07:43:55Z</time>
      </trkpt>
      <trkpt lat="42.4415290" lon="-7.3948860">
        <ele>389.2</ele>
        <time>2014-10-02T07:43:57Z</time>
      </trkpt>
      <trkpt lat="42.4414980" lon="-7.3948450">
        <ele>388.8</ele>
        <time>2014-10-02T07:43:59Z</time>
      </trkpt>
      <trkpt lat="42.4414680" lon="-7.3947970">
        <ele>387.9</ele>
        <time>2014-10-02T07:44:01Z</time>
      </trkpt>
      <trkpt lat="42.4414360" lon="-7.3947530">
        <ele>387.3</ele>
        <time>2014-10-02T07:44:03Z</time>
      </trkpt>
      <trkpt lat="42.4414060" lon="-7.3947150">
        <ele>387.8</ele>
        <time>2014-10-02T07:44:05Z</time>
      </trkpt>
      <trkpt lat="42.4413760" lon="-7.3946780">
        <ele>388.3</ele>
        <time>2014-10-02T07:44:07Z</time>
      </trkpt>
      <trkpt lat="42.4413440" lon="-7.3946360">
        <ele>388.9</ele>
        <time>2014-10-02T07:44:09Z</time>
      </trkpt>
      <trkpt lat="42.4413150" lon="-7.3945830">
        <ele>389.6</ele>
        <time>2014-10-02T07:44:11Z</time>
      </trkpt>
      <trkpt lat="42.4412910" lon="-7.3945310">
        <ele>390.1</ele>
        <time>2014-10-02T07:44:13Z</time>
      </trkpt>
      <trkpt lat="42.4412690" lon="-7.3944890">
        <ele>390.6</ele>
        <time>2014-10-02T07:44:15Z</time>
      </trkpt>
      <trkpt lat="42.4412480" lon="-7.3944460">
        <ele>391.1</ele>
        <time>2014-10-02T07:44:17Z</time>
      </trkpt>
      <trkpt lat="42.4412240" lon="-7.3943980">
        <ele>391.7</ele>
        <time>2014-10-02T07:44:19Z</time>
      </trkpt>
      <trkpt lat="42.4412010" lon="-7.3943600">
        <ele>392.2</ele>
        <time>2014-10-02T07:44:21Z</time>
      </trkpt>
      <trkpt lat="42.4411740" lon="-7.3943130">
        <ele>392.8</ele>
        <time>2014-10-02T07:44:23Z</time>
      </trkpt>
      <trkpt lat="42.4411510" lon="-7.3942620">
        <ele>393.3</ele>
        <time>2014-10-02T07:44:25Z</time>
      </trkpt>
      <trkpt lat="42.4411210" lon="-7.3942150">
        <ele>393.9</ele>
        <time>2014-10-02T07:44:27Z</time>
      </trkpt>
      <trkpt lat="42.4410940" lon="-7.3941860">
        <ele>394.4</ele>
        <time>2014-10-02T07:44:29Z</time>
      </trkpt>
      <trkpt lat="42.4410610" lon="-7.3941510">
        <ele>394.9</ele>
        <time>2014-10-02T07:44:31Z</time>
      </trkpt>
      <trkpt lat="42.4410350" lon="-7.3941180">
        <ele>395.4</ele>
        <time>2014-10-02T07:44:33Z</time>
      </trkpt>
      <trkpt lat="42.4410080" lon="-7.3940870">
        <ele>395.9</ele>
        <time>2014-10-02T07:44:35Z</time>
      </trkpt>
      <trkpt lat="42.4409830" lon="-7.3940620">
        <ele>396.3</ele>
        <time>2014-10-02T07:44:37Z</time>
      </trkpt>
      <trkpt lat="42.4409530" lon="-7.3940340">
        <ele>396.8</ele>
        <time>2014-10-02T07:44:39Z</time>
      </trkpt>
      <trkpt lat="42.4409230" lon="-7.3940070">
        <ele>397.2</ele>
        <time>2014-10-02T07:44:41Z</time>
      </trkpt>
      <trkpt lat="42.4408940" lon="-7.3939900">
        <ele>397.6</ele>
        <time>2014-10-02T07:44:43Z</time>
      </trkpt>
      <trkpt lat="42.4408580" lon="-7.3939720">
        <ele>398.1</ele>
        <time>2014-10-02T07:44:45Z</time>
      </trkpt>
      <trkpt lat="42.4408230" lon="-7.3939480">
        <ele>398.7</ele>
        <time>2014-10-02T07:44:47Z</time>
      </trkpt>
      <trkpt lat="42.4407950" lon="-7.3939240">
        <ele>399.1</ele>
        <time>2014-10-02T07:44:49Z</time>
      </trkpt>
      <trkpt lat="42.4407620" lon="-7.3939020">
        <ele>399.6</ele>
        <time>2014-10-02T07:44:51Z</time>
      </trkpt>
      <trkpt lat="42.4407250" lon="-7.3938770">
        <ele>400.1</ele>
        <time>2014-10-02T07:44:53Z</time>
      </trkpt>
      <trkpt lat="42.4406840" lon="-7.3938540">
        <ele>400.7</ele>
        <time>2014-10-02T07:44:55Z</time>
      </trkpt>
      <trkpt lat="42.4406450" lon="-7.3938300">
        <ele>401.3</ele>
        <time>2014-10-02T07:44:57Z</time>
      </trkpt>
      <trkpt lat="42.4406110" lon="-7.3938100">
        <ele>401.8</ele>
        <time>2014-10-02T07:44:59Z</time>
      </trkpt>
      <trkpt lat="42.4405810" lon="-7.3938010">
        <ele>402.2</ele>
        <time>2014-10-02T07:45:01Z</time>
      </trkpt>
      <trkpt lat="42.4405460" lon="-7.3938090">
        <ele>402.6</ele>
        <time>2014-10-02T07:45:03Z</time>
      </trkpt>
      <trkpt lat="42.4405070" lon="-7.3938290">
        <ele>403.2</ele>
        <time>2014-10-02T07:45:05Z</time>
      </trkpt>
      <trkpt lat="42.4404710" lon="-7.3938740">
        <ele>403.8</ele>
        <time>2014-10-02T07:45:07Z</time>
      </trkpt>
      <trkpt lat="42.4404560" lon="-7.3939060">
        <ele>404.2</ele>
        <time>2014-10-02T07:45:08Z</time>
      </trkpt>
      <trkpt lat="42.4404360" lon="-7.3939420">
        <ele>404.6</ele>
        <time>2014-10-02T07:45:09Z</time>
      </trkpt>
      <trkpt lat="42.4399460" lon="-7.3948380">
        <ele>415.4</ele>
        <time>2014-10-02T07:45:31Z</time>
      </trkpt>
      <trkpt lat="42.4399250" lon="-7.3948740">
        <ele>415.9</ele>
        <time>2014-10-02T07:45:32Z</time>
      </trkpt>
      <trkpt lat="42.4399040" lon="-7.3949090">
        <ele>416.3</ele>
        <time>2014-10-02T07:45:33Z</time>
      </trkpt>
      <trkpt lat="42.4398760" lon="-7.3949510">
        <ele>416.8</ele>
        <time>2014-10-02T07:45:34Z</time>
      </trkpt>
      <trkpt lat="42.4397850" lon="-7.3950580">
        <ele>418.4</ele>
        <time>2014-10-02T07:45:37Z</time>
      </trkpt>
      <trkpt lat="42.4397550" lon="-7.3950910">
        <ele>418.9</ele>
        <time>2014-10-02T07:45:38Z</time>
      </trkpt>
      <trkpt lat="42.4397330" lon="-7.3951230">
        <ele>419.3</ele>
        <time>2014-10-02T07:45:39Z</time>
      </trkpt>
      <trkpt lat="42.4397030" lon="-7.3951570">
        <ele>419.9</ele>
        <time>2014-10-02T07:45:40Z</time>
      </trkpt>
      <trkpt lat="42.4396710" lon="-7.3951900">
        <ele>420.4</ele>
        <time>2014-10-02T07:45:41Z</time>
      </trkpt>
      <trkpt lat="42.4396460" lon="-7.3952190">
        <ele>420.8</ele>
        <time>2014-10-02T07:45:42Z</time>
      </trkpt>
      <trkpt lat="42.4396060" lon="-7.3952440">
        <ele>421.4</ele>
        <time>2014-10-02T07:45:43Z</time>
      </trkpt>
      <trkpt lat="42.4395760" lon="-7.3952690">
        <ele>421.9</ele>
        <time>2014-10-02T07:45:44Z</time>
      </trkpt>
      <trkpt lat="42.4395500" lon="-7.3952880">
        <ele>422.2</ele>
        <time>2014-10-02T07:45:45Z</time>
      </trkpt>
      <trkpt lat="42.4395200" lon="-7.3953050">
        <ele>422.7</ele>
        <time>2014-10-02T07:45:46Z</time>
      </trkpt>
      <trkpt lat="42.4394820" lon="-7.3953180">
        <ele>423.2</ele>
        <time>2014-10-02T07:45:47Z</time>
      </trkpt>
      <trkpt lat="42.4394470" lon="-7.3953290">
        <ele>423.7</ele>
        <time>2014-10-02T07:45:48Z</time>
      </trkpt>
      <trkpt lat="42.4394110" lon="-7.3953350">
        <ele>424.1</ele>
        <time>2014-10-02T07:45:49Z</time>
      </trkpt>
      <trkpt lat="42.4393810" lon="-7.3953430">
        <ele>424.5</ele>
        <time>2014-10-02T07:45:50Z</time>
      </trkpt>
      <trkpt lat="42.4393520" lon="-7.3953480">
        <ele>424.9</ele>
        <time>2014-10-02T07:45:51Z</time>
      </trkpt>
      <trkpt lat="42.4393220" lon="-7.3953610">
        <ele>425.3</ele>
        <time>2014-10-02T07:45:53Z</time>
      </trkpt>
      <trkpt lat="42.4392800" lon="-7.3953630">
        <ele>425.9</ele>
        <time>2014-10-02T07:45:55Z</time>
      </trkpt>
      <trkpt lat="42.4392390" lon="-7.3953620">
        <ele>426.4</ele>
        <time>2014-10-02T07:45:56Z</time>
      </trkpt>
      <trkpt lat="42.4392080" lon="-7.3953630">
        <ele>426.8</ele>
        <time>2014-10-02T07:45:58Z</time>
      </trkpt>
      <trkpt lat="42.4391600" lon="-7.3953590">
        <ele>427.5</ele>
        <time>2014-10-02T07:46:00Z</time>
      </trkpt>
      <trkpt lat="42.4391330" lon="-7.3953550">
        <ele>427.8</ele>
        <time>2014-10-02T07:46:01Z</time>
      </trkpt>
      <trkpt lat="42.4391020" lon="-7.3953500">
        <ele>428.2</ele>
        <time>2014-10-02T07:46:02Z</time>
      </trkpt>
      <trkpt lat="42.4390700" lon="-7.3953450">
        <ele>428.6</ele>
        <time>2014-10-02T07:46:03Z</time>
      </trkpt>
      <trkpt lat="42.4390390" lon="-7.3953390">
        <ele>429.1</ele>
        <time>2014-10-02T07:46:04Z</time>
      </trkpt>
      <trkpt lat="42.4389880" lon="-7.3953330">
        <ele>429.7</ele>
        <time>2014-10-02T07:46:06Z</time>
      </trkpt>
      <trkpt lat="42.4389420" lon="-7.3953250">
        <ele>430.3</ele>
        <time>2014-10-02T07:46:08Z</time>
      </trkpt>
      <trkpt lat="42.4388990" lon="-7.3953180">
        <ele>430.9</ele>
        <time>2014-10-02T07:46:10Z</time>
      </trkpt>
      <trkpt lat="42.4388510" lon="-7.3952940">
        <ele>431.6</ele>
        <time>2014-10-02T07:46:12Z</time>
      </trkpt>
      <trkpt lat="42.4388250" lon="-7.3952840">
        <ele>431.9</ele>
        <time>2014-10-02T07:46:13Z</time>
      </trkpt>
      <trkpt lat="42.4387750" lon="-7.3952700">
        <ele>432.6</ele>
        <time>2014-10-02T07:46:15Z</time>
      </trkpt>
      <trkpt lat="42.4387240" lon="-7.3952590">
        <ele>433.3</ele>
        <time>2014-10-02T07:46:17Z</time>
      </trkpt>
      <trkpt lat="42.4386770" lon="-7.3952420">
        <ele>433.9</ele>
        <time>2014-10-02T07:46:19Z</time>
      </trkpt>
      <trkpt lat="42.4386260" lon="-7.3952210">
        <ele>434.6</ele>
        <time>2014-10-02T07:46:21Z</time>
      </trkpt>
      <trkpt lat="42.4385880" lon="-7.3952010">
        <ele>435.1</ele>
        <time>2014-10-02T07:46:23Z</time>
      </trkpt>
      <trkpt lat="42.4385490" lon="-7.3951780">
        <ele>435.7</ele>
        <time>2014-10-02T07:46:25Z</time>
      </trkpt>
      <trkpt lat="42.4385050" lon="-7.3951570">
        <ele>436.3</ele>
        <time>2014-10-02T07:46:27Z</time>
      </trkpt>
      <trkpt lat="42.4384590" lon="-7.3951390">
        <ele>436.9</ele>
        <time>2014-10-02T07:46:29Z</time>
      </trkpt>
      <trkpt lat="42.4384150" lon="-7.3951200">
        <ele>437.6</ele>
        <time>2014-10-02T07:46:31Z</time>
      </trkpt>
      <trkpt lat="42.4383760" lon="-7.3951040">
        <ele>438.1</ele>
        <time>2014-10-02T07:46:33Z</time>
      </trkpt>
      <trkpt lat="42.4383320" lon="-7.3950870">
        <ele>438.7</ele>
        <time>2014-10-02T07:46:35Z</time>
      </trkpt>
      <trkpt lat="42.4382830" lon="-7.3950640">
        <ele>439.4</ele>
        <time>2014-10-02T07:46:37Z</time>
      </trkpt>
      <trkpt lat="42.4382390" lon="-7.3950450">
        <ele>440.0</ele>
        <time>2014-10-02T07:46:39Z</time>
      </trkpt>
      <trkpt lat="42.4381980" lon="-7.3950250">
        <ele>440.5</ele>
        <time>2014-10-02T07:46:41Z</time>
      </trkpt>
      <trkpt lat="42.4381540" lon="-7.3950070">
        <ele>441.1</ele>
        <time>2014-10-02T07:46:43Z</time>
      </trkpt>
      <trkpt lat="42.4381130" lon="-7.3949910">
        <ele>441.7</ele>
        <time>2014-10-02T07:46:45Z</time>
      </trkpt>
      <trkpt lat="42.4380720" lon="-7.3949750">
        <ele>442.3</ele>
        <time>2014-10-02T07:46:47Z</time>
      </trkpt>
      <trkpt lat="42.4380370" lon="-7.3949550">
        <ele>442.8</ele>
        <time>2014-10-02T07:46:49Z</time>
      </trkpt>
      <trkpt lat="42.4380000" lon="-7.3949370">
        <ele>443.3</ele>
        <time>2014-10-02T07:46:51Z</time>
      </trkpt>
      <trkpt lat="42.4379640" lon="-7.3949200">
        <ele>443.8</ele>
        <time>2014-10-02T07:46:53Z</time>
      </trkpt>
      <trkpt lat="42.4379370" lon="-7.3948960">
        <ele>444.2</ele>
        <time>2014-10-02T07:46:55Z</time>
      </trkpt>
      <trkpt lat="42.4379010" lon="-7.3948660">
        <ele>444.8</ele>
        <time>2014-10-02T07:46:57Z</time>
      </trkpt>
      <trkpt lat="42.4378840" lon="-7.3948230">
        <ele>445.2</ele>
        <time>2014-10-02T07:46:59Z</time>
      </trkpt>
      <trkpt lat="42.4378760" lon="-7.3947800">
        <ele>445.7</ele>
        <time>2014-10-02T07:47:01Z</time>
      </trkpt>
      <trkpt lat="42.4378810" lon="-7.3947310">
        <ele>446.1</ele>
        <time>2014-10-02T07:47:03Z</time>
      </trkpt>
      <trkpt lat="42.4378910" lon="-7.3946960">
        <ele>446.5</ele>
        <time>2014-10-02T07:47:05Z</time>
      </trkpt>
      <trkpt lat="42.4379160" lon="-7.3946670">
        <ele>446.9</ele>
        <time>2014-10-02T07:47:07Z</time>
      </trkpt>
      <trkpt lat="42.4379500" lon="-7.3946360">
        <ele>447.5</ele>
        <time>2014-10-02T07:47:09Z</time>
      </trkpt>
      <trkpt lat="42.4379870" lon="-7.3946100">
        <ele>448.0</ele>
        <time>2014-10-02T07:47:11Z</time>
      </trkpt>
      <trkpt lat="42.4380200" lon="-7.3945880">
        <ele>448.5</ele>
        <time>2014-10-02T07:47:13Z</time>
      </trkpt>
      <trkpt lat="42.4380470" lon="-7.3945630">
        <ele>448.9</ele>
        <time>2014-10-02T07:47:15Z</time>
      </trkpt>
      <trkpt lat="42.4380870" lon="-7.3945380">
        <ele>449.5</ele>
        <time>2014-10-02T07:47:17Z</time>
      </trkpt>
      <trkpt lat="42.4381260" lon="-7.3945150">
        <ele>450.1</ele>
        <time>2014-10-02T07:47:19Z</time>
      </trkpt>
      <trkpt lat="42.4381680" lon="-7.3944940">
        <ele>450.7</ele>
        <time>2014-10-02T07:47:21Z</time>
      </trkpt>
      <trkpt lat="42.4382130" lon="-7.3944720">
        <ele>451.3</ele>
        <time>2014-10-02T07:47:23Z</time>
      </trkpt>
      <trkpt lat="42.4382480" lon="-7.3944510">
        <ele>451.8</ele>
        <time>2014-10-02T07:47:25Z</time>
      </trkpt>
      <trkpt lat="42.4382860" lon="-7.3944310">
        <ele>452.3</ele>
        <time>2014-10-02T07:47:27Z</time>
      </trkpt>
      <trkpt lat="42.4383250" lon="-7.3944090">
        <ele>452.9</ele>
        <time>2014-10-02T07:47:29Z</time>
      </trkpt>
      <trkpt lat="42.4383570" lon="-7.3943900">
        <ele>453.3</ele>
        <time>2014-10-02T07:47:31Z</time>
      </trkpt>
      <trkpt lat="42.4384070" lon="-7.3943750">
        <ele>454.0</ele>
        <time>2014-10-02T07:47:33Z</time>
      </trkpt>
      <trkpt lat="42.4384410" lon="-7.3943570">
        <ele>454.5</ele>
        <time>2014-10-02T07:47:35Z</time>
      </trkpt>
      <trkpt lat="42.4384840" lon="-7.3943370">
        <ele>455.1</ele>
        <time>2014-10-02T07:47:37Z</time>
      </trkpt>
      <trkpt lat="42.4385280" lon="-7.3943190">
        <ele>455.7</ele>
        <time>2014-10-02T07:47:39Z</time>
      </trkpt>
      <trkpt lat="42.4385720" lon="-7.3943010">
        <ele>456.3</ele>
        <time>2014-10-02T07:47:41Z</time>
      </trkpt>
      <trkpt lat="42.4386160" lon="-7.3942830">
        <ele>456.9</ele>
        <time>2014-10-02T07:47:43Z</time>
      </trkpt>
      <trkpt lat="42.4386560" lon="-7.3942660">
        <ele>457.4</ele>
        <time>2014-10-02T07:47:45Z</time>
      </trkpt>
      <trkpt lat="42.4386890" lon="-7.3942480">
        <ele>457.9</ele>
        <time>2014-10-02T07:47:47Z</time>
      </trkpt>
      <trkpt lat="42.4387230" lon="-7.3942250">
        <ele>458.4</ele>
        <time>2014-10-02T07:47:49Z</time>
      </trkpt>
      <trkpt lat="42.4387630" lon="-7.3942030">
        <ele>459.0</ele>
        <time>2014-10-02T07:47:51Z</time>
      </trkpt>
      <trkpt lat="42.4387950" lon="-7.3941770">
        <ele>459.5</ele>
        <time>2014-10-02T07:47:53Z</time>
      </trkpt>
      <trkpt lat="42.4388390" lon="-7.3941470">
        <ele>460.1</ele>
        <time>2014-10-02T07:47:55Z</time>
      </trkpt>
      <trkpt lat="42.4388780" lon="-7.3941200">
        <ele>460.7</ele>
        <time>2014-10-02T07:47:57Z</time>
      </trkpt>
      <trkpt lat="42.4389140" lon="-7.3940900">
        <ele>461.2</ele>
        <time>2014-10-02T07:47:59Z</time>
      </trkpt>
      <trkpt lat="42.4389470" lon="-7.3940610">
        <ele>461.7</ele>
        <time>2014-10-02T07:48:01Z</time>
      </trkpt>
      <trkpt lat="42.4389760" lon="-7.3940390">
        <ele>462.2</ele>
        <time>2014-10-02T07:48:03Z</time>
      </trkpt>
      <trkpt lat="42.4390090" lon="-7.3940170">
        <ele>462.7</ele>
        <time>2014-10-02T07:48:05Z</time>
      </trkpt>
      <trkpt lat="42.4390420" lon="-7.3939990">
        <ele>463.1</ele>
        <time>2014-10-02T07:48:07Z</time>
      </trkpt>
      <trkpt lat="42.4390740" lon="-7.3939710">
        <ele>463.6</ele>
        <time>2014-10-02T07:48:09Z</time>
      </trkpt>
      <trkpt lat="42.4391150" lon="-7.3939370">
        <ele>464.3</ele>
        <time>2014-10-02T07:48:11Z</time>
      </trkpt>
      <trkpt lat="42.4391520" lon="-7.3938970">
        <ele>464.9</ele>
        <time>2014-10-02T07:48:13Z</time>
      </trkpt>
      <trkpt lat="42.4391800" lon="-7.3938550">
        <ele>465.4</ele>
        <time>2014-10-02T07:48:15Z</time>
      </trkpt>
      <trkpt lat="42.4392180" lon="-7.3938230">
        <ele>466.0</ele>
        <time>2014-10-02T07:48:17Z</time>
      </trkpt>
      <trkpt lat="42.4392430" lon="-7.3937920">
        <ele>466.5</ele>
        <time>2014-10-02T07:48:19Z</time>
      </trkpt>
      <trkpt lat="42.4392670" lon="-7.3937540">
        <ele>466.9</ele>
        <time>2014-10-02T07:48:21Z</time>
      </trkpt>
      <trkpt lat="42.4392870" lon="-7.3937170">
        <ele>467.4</ele>
        <time>2014-10-02T07:48:23Z</time>
      </trkpt>
      <trkpt lat="42.4393030" lon="-7.3936740">
        <ele>467.9</ele>
        <time>2014-10-02T07:48:25Z</time>
      </trkpt>
      <trkpt lat="42.4393210" lon="-7.3936320">
        <ele>468.3</ele>
        <time>2014-10-02T07:48:27Z</time>
      </trkpt>
      <trkpt lat="42.4393530" lon="-7.3935970">
        <ele>468.9</ele>
        <time>2014-10-02T07:48:29Z</time>
      </trkpt>
      <trkpt lat="42.4393800" lon="-7.3935580">
        <ele>469.4</ele>
        <time>2014-10-02T07:48:31Z</time>
      </trkpt>
      <trkpt lat="42.4394090" lon="-7.3935170">
        <ele>469.9</ele>
        <time>2014-10-02T07:48:33Z</time>
      </trkpt>
      <trkpt lat="42.4394340" lon="-7.3934780">
        <ele>470.4</ele>
        <time>2014-10-02T07:48:35Z</time>
      </trkpt>
      <trkpt lat="42.4394550" lon="-7.3934350">
        <ele>470.9</ele>
        <time>2014-10-02T07:48:37Z</time>
      </trkpt>
      <trkpt lat="42.4394430" lon="-7.3933750">
        <ele>471.5</ele>
        <time>2014-10-02T07:48:40Z</time>
      </trkpt>
      <trkpt lat="42.4394210" lon="-7.3933320">
        <ele>472.0</ele>
        <time>2014-10-02T07:48:42Z</time>
      </trkpt>
      <trkpt lat="42.4393960" lon="-7.3933180">
        <ele>472.4</ele>
        <time>2014-10-02T07:48:44Z</time>
      </trkpt>
      <trkpt lat="42.4393580" lon="-7.3933060">
        <ele>472.9</ele>
        <time>2014-10-02T07:48:47Z</time>
      </trkpt>
      <trkpt lat="42.4393230" lon="-7.3933090">
        <ele>473.4</ele>
        <time>2014-10-02T07:48:50Z</time>
      </trkpt>
      <trkpt lat="42.4392850" lon="-7.3933020">
        <ele>473.9</ele>
        <time>2014-10-02T07:48:52Z</time>
      </trkpt>
      <trkpt lat="42.4392420" lon="-7.3933110">
        <ele>474.4</ele>
        <time>2014-10-02T07:48:55Z</time>
      </trkpt>
      <trkpt lat="42.4391990" lon="-7.3933140">
        <ele>475.0</ele>
        <time>2014-10-02T07:48:57Z</time>
      </trkpt>
      <trkpt lat="42.4391680" lon="-7.3933120">
        <ele>475.4</ele>
        <time>2014-10-02T07:48:59Z</time>
      </trkpt>
      <trkpt lat="42.4391230" lon="-7.3933100">
        <ele>476.0</ele>
        <time>2014-10-02T07:49:02Z</time>
      </trkpt>
      <trkpt lat="42.4390880" lon="-7.3933120">
        <ele>476.5</ele>
        <time>2014-10-02T07:49:04Z</time>
      </trkpt>
      <trkpt lat="42.4390510" lon="-7.3933090">
        <ele>476.9</ele>
        <time>2014-10-02T07:49:06Z</time>
      </trkpt>
      <trkpt lat="42.4390170" lon="-7.3933000">
        <ele>477.4</ele>
        <time>2014-10-02T07:49:08Z</time>
      </trkpt>
      <trkpt lat="42.4389740" lon="-7.3932880">
        <ele>478.0</ele>
        <time>2014-10-02T07:49:10Z</time>
      </trkpt>
      <trkpt lat="42.4389460" lon="-7.3932820">
        <ele>478.3</ele>
        <time>2014-10-02T07:49:12Z</time>
      </trkpt>
      <trkpt lat="42.4389040" lon="-7.3932720">
        <ele>478.9</ele>
        <time>2014-10-02T07:49:14Z</time>
      </trkpt>
      <trkpt lat="42.4388580" lon="-7.3932630">
        <ele>479.5</ele>
        <time>2014-10-02T07:49:16Z</time>
      </trkpt>
      <trkpt lat="42.4388200" lon="-7.3932570">
        <ele>480.0</ele>
        <time>2014-10-02T07:49:18Z</time>
      </trkpt>
      <trkpt lat="42.4387870" lon="-7.3932520">
        <ele>480.5</ele>
        <time>2014-10-02T07:49:20Z</time>
      </trkpt>
      <trkpt lat="42.4387570" lon="-7.3932500">
        <ele>480.8</ele>
        <time>2014-10-02T07:49:22Z</time>
      </trkpt>
      <trkpt lat="42.4387010" lon="-7.3932400">
        <ele>481.6</ele>
        <time>2014-10-02T07:49:24Z</time>
      </trkpt>
      <trkpt lat="42.4386630" lon="-7.3932300">
        <ele>482.1</ele>
        <time>2014-10-02T07:49:26Z</time>
      </trkpt>
      <trkpt lat="42.4386160" lon="-7.3932200">
        <ele>482.7</ele>
        <time>2014-10-02T07:49:28Z</time>
      </trkpt>
      <trkpt lat="42.4385790" lon="-7.3932130">
        <ele>483.2</ele>
        <time>2014-10-02T07:49:30Z</time>
      </trkpt>
      <trkpt lat="42.4385330" lon="-7.3932150">
        <ele>483.8</ele>
        <time>2014-10-02T07:49:33Z</time>
      </trkpt>
      <trkpt lat="42.4384830" lon="-7.3932090">
        <ele>484.5</ele>
        <time>2014-10-02T07:49:35Z</time>
      </trkpt>
      <trkpt lat="42.4384400" lon="-7.3932010">
        <ele>485.0</ele>
        <time>2014-10-02T07:49:37Z</time>
      </trkpt>
      <trkpt lat="42.4383940" lon="-7.3931950">
        <ele>485.6</ele>
        <time>2014-10-02T07:49:39Z</time>
      </trkpt>
      <trkpt lat="42.4383510" lon="-7.3931860">
        <ele>486.2</ele>
        <time>2014-10-02T07:49:41Z</time>
      </trkpt>
      <trkpt lat="42.4383100" lon="-7.3931820">
        <ele>486.8</ele>
        <time>2014-10-02T07:49:43Z</time>
      </trkpt>
      <trkpt lat="42.4382670" lon="-7.3931840">
        <ele>487.3</ele>
        <time>2014-10-02T07:49:45Z</time>
      </trkpt>
      <trkpt lat="42.4382230" lon="-7.3931800">
        <ele>487.9</ele>
        <time>2014-10-02T07:49:47Z</time>
      </trkpt>
      <trkpt lat="42.4381760" lon="-7.3931720">
        <ele>488.5</ele>
        <time>2014-10-02T07:49:49Z</time>
      </trkpt>
      <trkpt lat="42.4381300" lon="-7.3931620">
        <ele>489.1</ele>
        <time>2014-10-02T07:49:51Z</time>
      </trkpt>
      <trkpt lat="42.4380870" lon="-7.3931520">
        <ele>489.7</ele>
        <time>2014-10-02T07:49:53Z</time>
      </trkpt>
      <trkpt lat="42.4380410" lon="-7.3931360">
        <ele>490.3</ele>
        <time>2014-10-02T07:49:55Z</time>
      </trkpt>
      <trkpt lat="42.4380020" lon="-7.3931190">
        <ele>490.9</ele>
        <time>2014-10-02T07:49:57Z</time>
      </trkpt>
      <trkpt lat="42.4379720" lon="-7.3931080">
        <ele>491.3</ele>
        <time>2014-10-02T07:49:59Z</time>
      </trkpt>
      <trkpt lat="42.4379310" lon="-7.3930910">
        <ele>491.8</ele>
        <time>2014-10-02T07:50:01Z</time>
      </trkpt>
      <trkpt lat="42.4378820" lon="-7.3930660">
        <ele>492.5</ele>
        <time>2014-10-02T07:50:03Z</time>
      </trkpt>
      <trkpt lat="42.4378380" lon="-7.3930370">
        <ele>493.2</ele>
        <time>2014-10-02T07:50:05Z</time>
      </trkpt>
      <trkpt lat="42.4377960" lon="-7.3930090">
        <ele>493.8</ele>
        <time>2014-10-02T07:50:07Z</time>
      </trkpt>
      <trkpt lat="42.4377510" lon="-7.3929810">
        <ele>494.4</ele>
        <time>2014-10-02T07:50:09Z</time>
      </trkpt>
      <trkpt lat="42.4377060" lon="-7.3929540">
        <ele>495.1</ele>
        <time>2014-10-02T07:50:11Z</time>
      </trkpt>
      <trkpt lat="42.4376740" lon="-7.3929280">
        <ele>495.6</ele>
        <time>2014-10-02T07:50:13Z</time>
      </trkpt>
      <trkpt lat="42.4376400" lon="-7.3928970">
        <ele>496.1</ele>
        <time>2014-10-02T07:50:15Z</time>
      </trkpt>
      <trkpt lat="42.4376030" lon="-7.3928650">
        <ele>496.7</ele>
        <time>2014-10-02T07:50:17Z</time>
      </trkpt>
      <trkpt lat="42.4375720" lon="-7.3928320">
        <ele>497.2</ele>
        <time>2014-10-02T07:50:19Z</time>
      </trkpt>
      <trkpt lat="42.4375440" lon="-7.3928030">
        <ele>497.7</ele>
        <time>2014-10-02T07:50:21Z</time>
      </trkpt>
      <trkpt lat="42.4375110" lon="-7.3927740">
        <ele>498.2</ele>
        <time>2014-10-02T07:50:23Z</time>
      </trkpt>
      <trkpt lat="42.4374760" lon="-7.3927420">
        <ele>498.7</ele>
        <time>2014-10-02T07:50:25Z</time>
      </trkpt>
      <trkpt lat="42.4374430" lon="-7.3927110">
        <ele>499.2</ele>
        <time>2014-10-02T07:50:27Z</time>
      </trkpt>
      <trkpt lat="42.4374090" lon="-7.3926790">
        <ele>499.8</ele>
        <time>2014-10-02T07:50:29Z</time>
      </trkpt>
      <trkpt lat="42.4373780" lon="-7.3926510">
        <ele>500.3</ele>
        <time>2014-10-02T07:50:31Z</time>
      </trkpt>
      <trkpt lat="42.4373460" lon="-7.3926280">
        <ele>500.8</ele>
        <time>2014-10-02T07:50:33Z</time>
      </trkpt>
      <trkpt lat="42.4373160" lon="-7.3926080">
        <ele>501.2</ele>
        <time>2014-10-02T07:50:35Z</time>
      </trkpt>
      <trkpt lat="42.4372780" lon="-7.3925900">
        <ele>501.7</ele>
        <time>2014-10-02T07:50:37Z</time>
      </trkpt>
      <trkpt lat="42.4372420" lon="-7.3925740">
        <ele>502.2</ele>
        <time>2014-10-02T07:50:39Z</time>
      </trkpt>
      <trkpt lat="42.4372030" lon="-7.3925560">
        <ele>502.9</ele>
        <time>2014-10-02T07:50:41Z</time>
      </trkpt>
      <trkpt lat="42.4371620" lon="-7.3925380">
        <ele>503.5</ele>
        <time>2014-10-02T07:50:43Z</time>
      </trkpt>
      <trkpt lat="42.4371240" lon="-7.3925170">
        <ele>504.2</ele>
        <time>2014-10-02T07:50:45Z</time>
      </trkpt>
      <trkpt lat="42.4370890" lon="-7.3924950">
        <ele>504.8</ele>
        <time>2014-10-02T07:50:47Z</time>
      </trkpt>
      <trkpt lat="42.4370470" lon="-7.3924740">
        <ele>505.5</ele>
        <time>2014-10-02T07:50:49Z</time>
      </trkpt>
      <trkpt lat="42.4370170" lon="-7.3924420">
        <ele>506.1</ele>
        <time>2014-10-02T07:50:51Z</time>
      </trkpt>
      <trkpt lat="42.4369960" lon="-7.3924190">
        <ele>506.5</ele>
        <time>2014-10-02T07:50:53Z</time>
      </trkpt>
      <trkpt lat="42.4369720" lon="-7.3923830">
        <ele>507.0</ele>
        <time>2014-10-02T07:50:55Z</time>
      </trkpt>
      <trkpt lat="42.4369440" lon="-7.3923440">
        <ele>507.7</ele>
        <time>2014-10-02T07:50:57Z</time>
      </trkpt>
      <trkpt lat="42.4369300" lon="-7.3923010">
        <ele>508.2</ele>
        <time>2014-10-02T07:50:59Z</time>
      </trkpt>
      <trkpt lat="42.4369210" lon="-7.3922530">
        <ele>508.8</ele>
        <time>2014-10-02T07:51:01Z</time>
      </trkpt>
      <trkpt lat="42.4369240" lon="-7.3922120">
        <ele>509.2</ele>
        <time>2014-10-02T07:51:03Z</time>
      </trkpt>
      <trkpt lat="42.4369430" lon="-7.3921740">
        <ele>509.8</ele>
        <time>2014-10-02T07:51:05Z</time>
      </trkpt>
      <trkpt lat="42.4369740" lon="-7.3921460">
        <ele>510.3</ele>
        <time>2014-10-02T07:51:07Z</time>
      </trkpt>
      <trkpt lat="42.4370140" lon="-7.3921360">
        <ele>511.0</ele>
        <time>2014-10-02T07:51:09Z</time>
      </trkpt>
      <trkpt lat="42.4370600" lon="-7.3921390">
        <ele>511.7</ele>
        <time>2014-10-02T07:51:12Z</time>
      </trkpt>
      <trkpt lat="42.4370970" lon="-7.3921400">
        <ele>512.2</ele>
        <time>2014-10-02T07:51:14Z</time>
      </trkpt>
      <trkpt lat="42.4371310" lon="-7.3921440">
        <ele>512.8</ele>
        <time>2014-10-02T07:51:16Z</time>
      </trkpt>
      <trkpt lat="42.4371670" lon="-7.3921430">
        <ele>513.3</ele>
        <time>2014-10-02T07:51:18Z</time>
      </trkpt>
      <trkpt lat="42.4372050" lon="-7.3921370">
        <ele>513.9</ele>
        <time>2014-10-02T07:51:21Z</time>
      </trkpt>
      <trkpt lat="42.4372420" lon="-7.3921310">
        <ele>514.5</ele>
        <time>2014-10-02T07:51:23Z</time>
      </trkpt>
      <trkpt lat="42.4372850" lon="-7.3921240">
        <ele>515.2</ele>
        <time>2014-10-02T07:51:25Z</time>
      </trkpt>
      <trkpt lat="42.4373230" lon="-7.3921150">
        <ele>515.8</ele>
        <time>2014-10-02T07:51:27Z</time>
      </trkpt>
      <trkpt lat="42.4373640" lon="-7.3921080">
        <ele>516.4</ele>
        <time>2014-10-02T07:51:29Z</time>
      </trkpt>
      <trkpt lat="42.4373990" lon="-7.3921010">
        <ele>517.0</ele>
        <time>2014-10-02T07:51:31Z</time>
      </trkpt>
      <trkpt lat="42.4374270" lon="-7.3920890">
        <ele>517.4</ele>
        <time>2014-10-02T07:51:33Z</time>
      </trkpt>
      <trkpt lat="42.4374590" lon="-7.3920780">
        <ele>517.9</ele>
        <time>2014-10-02T07:51:35Z</time>
      </trkpt>
      <trkpt lat="42.4374890" lon="-7.3920660">
        <ele>518.4</ele>
        <time>2014-10-02T07:51:37Z</time>
      </trkpt>
      <trkpt lat="42.4375340" lon="-7.3920650">
        <ele>519.1</ele>
        <time>2014-10-02T07:51:39Z</time>
      </trkpt>
      <trkpt lat="42.4375750" lon="-7.3920610">
        <ele>519.7</ele>
        <time>2014-10-02T07:51:41Z</time>
      </trkpt>
      <trkpt lat="42.4376150" lon="-7.3920540">
        <ele>520.4</ele>
        <time>2014-10-02T07:51:43Z</time>
      </trkpt>
      <trkpt lat="42.4376500" lon="-7.3920410">
        <ele>520.9</ele>
        <time>2014-10-02T07:51:45Z</time>
      </trkpt>
      <trkpt lat="42.4376850" lon="-7.3920310">
        <ele>521.5</ele>
        <time>2014-10-02T07:51:47Z</time>
      </trkpt>
      <trkpt lat="42.4377150" lon="-7.3920270">
        <ele>521.9</ele>
        <time>2014-10-02T07:51:49Z</time>
      </trkpt>
      <trkpt lat="42.4377460" lon="-7.3920250">
        <ele>522.4</ele>
        <time>2014-10-02T07:51:51Z</time>
      </trkpt>
      <trkpt lat="42.4377940" lon="-7.3920220">
        <ele>523.2</ele>
        <time>2014-10-02T07:51:53Z</time>
      </trkpt>
      <trkpt lat="42.4378240" lon="-7.3920230">
        <ele>523.6</ele>
        <time>2014-10-02T07:51:54Z</time>
      </trkpt>
      <trkpt lat="42.4378520" lon="-7.3920220">
        <ele>524.1</ele>
        <time>2014-10-02T07:51:55Z</time>
      </trkpt>
      <trkpt lat="42.4378980" lon="-7.3920190">
        <ele>524.8</ele>
        <time>2014-10-02T07:51:57Z</time>
      </trkpt>
      <trkpt lat="42.4379380" lon="-7.3920150">
        <ele>525.4</ele>
        <time>2014-10-02T07:51:59Z</time>
      </trkpt>
      <trkpt lat="42.4379840" lon="-7.3920040">
        <ele>526.1</ele>
        <time>2014-10-02T07:52:01Z</time>
      </trkpt>
      <trkpt lat="42.4380190" lon="-7.3919710">
        <ele>526.8</ele>
        <time>2014-10-02T07:52:04Z</time>
      </trkpt>
      <trkpt lat="42.4380320" lon="-7.3919320">
        <ele>527.3</ele>
        <time>2014-10-02T07:52:06Z</time>
      </trkpt>
      <trkpt lat="42.4380340" lon="-7.3918750">
        <ele>527.9</ele>
        <time>2014-10-02T07:52:08Z</time>
      </trkpt>
      <trkpt lat="42.4380200" lon="-7.3918240">
        <ele>528.5</ele>
        <time>2014-10-02T07:52:10Z</time>
      </trkpt>
      <trkpt lat="42.4379990" lon="-7.3917850">
        <ele>529.1</ele>
        <time>2014-10-02T07:52:12Z</time>
      </trkpt>
      <trkpt lat="42.4379670" lon="-7.3917550">
        <ele>529.7</ele>
        <time>2014-10-02T07:52:14Z</time>
      </trkpt>
      <trkpt lat="42.4379380" lon="-7.3917260">
        <ele>530.3</ele>
        <time>2014-10-02T07:52:16Z</time>
      </trkpt>
      <trkpt lat="42.4379120" lon="-7.3917030">
        <ele>530.7</ele>
        <time>2014-10-02T07:52:18Z</time>
      </trkpt>
      <trkpt lat="42.4378860" lon="-7.3916840">
        <ele>531.2</ele>
        <time>2014-10-02T07:52:20Z</time>
      </trkpt>
      <trkpt lat="42.4378590" lon="-7.3916580">
        <ele>531.7</ele>
        <time>2014-10-02T07:52:22Z</time>
      </trkpt>
      <trkpt lat="42.4378330" lon="-7.3916420">
        <ele>532.2</ele>
        <time>2014-10-02T07:52:24Z</time>
      </trkpt>
      <trkpt lat="42.4378100" lon="-7.3916240">
        <ele>532.6</ele>
        <time>2014-10-02T07:52:26Z</time>
      </trkpt>
      <trkpt lat="42.4377870" lon="-7.3916030">
        <ele>533.0</ele>
        <time>2014-10-02T07:52:28Z</time>
      </trkpt>
      <trkpt lat="42.4377590" lon="-7.3915740">
        <ele>533.5</ele>
        <time>2014-10-02T07:52:30Z</time>
      </trkpt>
      <trkpt lat="42.4377280" lon="-7.3915480">
        <ele>534.1</ele>
        <time>2014-10-02T07:52:32Z</time>
      </trkpt>
      <trkpt lat="42.4376920" lon="-7.3915120">
        <ele>534.8</ele>
        <time>2014-10-02T07:52:34Z</time>
      </trkpt>
      <trkpt lat="42.4376520" lon="-7.3914800">
        <ele>535.5</ele>
        <time>2014-10-02T07:52:36Z</time>
      </trkpt>
      <trkpt lat="42.4376070" lon="-7.3914500">
        <ele>536.3</ele>
        <time>2014-10-02T07:52:38Z</time>
      </trkpt>
      <trkpt lat="42.4375710" lon="-7.3914190">
        <ele>537.0</ele>
        <time>2014-10-02T07:52:40Z</time>
      </trkpt>
      <trkpt lat="42.4375310" lon="-7.3913890">
        <ele>537.7</ele>
        <time>2014-10-02T07:52:42Z</time>
      </trkpt>
      <trkpt lat="42.4374990" lon="-7.3913710">
        <ele>538.2</ele>
        <time>2014-10-02T07:52:44Z</time>
      </trkpt>
      <trkpt lat="42.4374660" lon="-7.3913410">
        <ele>538.8</ele>
        <time>2014-10-02T07:52:47Z</time>
      </trkpt>
      <trkpt lat="42.4374380" lon="-7.3913100">
        <ele>539.4</ele>
        <time>2014-10-02T07:52:49Z</time>
      </trkpt>
      <trkpt lat="42.4374120" lon="-7.3912820">
        <ele>539.9</ele>
        <time>2014-10-02T07:52:51Z</time>
      </trkpt>
      <trkpt lat="42.4373860" lon="-7.3912460">
        <ele>540.5</ele>
        <time>2014-10-02T07:52:53Z</time>
      </trkpt>
      <trkpt lat="42.4373630" lon="-7.3911980">
        <ele>541.1</ele>
        <time>2014-10-02T07:52:55Z</time>
      </trkpt>
      <trkpt lat="42.4373430" lon="-7.3911490">
        <ele>541.8</ele>
        <time>2014-10-02T07:52:57Z</time>
      </trkpt>
      <trkpt lat="42.4373290" lon="-7.3911030">
        <ele>542.3</ele>
        <time>2014-10-02T07:52:59Z</time>
      </trkpt>
      <trkpt lat="42.4373270" lon="-7.3910550">
        <ele>542.9</ele>
        <time>2014-10-02T07:53:01Z</time>
      </trkpt>
      <trkpt lat="42.4373460" lon="-7.3910070">
        <ele>543.5</ele>
        <time>2014-10-02T07:53:04Z</time>
      </trkpt>
      <trkpt lat="42.4373790" lon="-7.3909850">
        <ele>544.1</ele>
        <time>2014-10-02T07:53:06Z</time>
      </trkpt>
      <trkpt lat="42.4374210" lon="-7.3909950">
        <ele>544.7</ele>
        <time>2014-10-02T07:53:09Z</time>
      </trkpt>
      <trkpt lat="42.4374590" lon="-7.3910170">
        <ele>545.4</ele>
        <time>2014-10-02T07:53:11Z</time>
      </trkpt>
      <trkpt lat="42.4374970" lon="-7.3910470">
        <ele>546.0</ele>
        <time>2014-10-02T07:53:13Z</time>
      </trkpt>
      <trkpt lat="42.4375330" lon="-7.3910770">
        <ele>546.7</ele>
        <time>2014-10-02T07:53:15Z</time>
      </trkpt>
      <trkpt lat="42.4375650" lon="-7.3910990">
        <ele>547.3</ele>
        <time>2014-10-02T07:53:17Z</time>
      </trkpt>
      <trkpt lat="42.4376090" lon="-7.3911250">
        <ele>548.0</ele>
        <time>2014-10-02T07:53:19Z</time>
      </trkpt>
      <trkpt lat="42.4376430" lon="-7.3911490">
        <ele>548.6</ele>
        <time>2014-10-02T07:53:21Z</time>
      </trkpt>
      <trkpt lat="42.4376870" lon="-7.3911630">
        <ele>549.3</ele>
        <time>2014-10-02T07:53:23Z</time>
      </trkpt>
      <trkpt lat="42.4377380" lon="-7.3911740">
        <ele>550.1</ele>
        <time>2014-10-02T07:53:25Z</time>
      </trkpt>
      <trkpt lat="42.4377670" lon="-7.3911770">
        <ele>550.5</ele>
        <time>2014-10-02T07:53:26Z</time>
      </trkpt>
      <trkpt lat="42.4377960" lon="-7.3911830">
        <ele>551.0</ele>
        <time>2014-10-02T07:53:27Z</time>
      </trkpt>
      <trkpt lat="42.4378260" lon="-7.3911880">
        <ele>551.5</ele>
        <time>2014-10-02T07:53:28Z</time>
      </trkpt>
      <trkpt lat="42.4378590" lon="-7.3911920">
        <ele>552.0</ele>
        <time>2014-10-02T07:53:29Z</time>
      </trkpt>
      <trkpt lat="42.4378920" lon="-7.3911950">
        <ele>552.5</ele>
        <time>2014-10-02T07:53:30Z</time>
      </trkpt>
      <trkpt lat="42.4379270" lon="-7.3911970">
        <ele>553.0</ele>
        <time>2014-10-02T07:53:31Z</time>
      </trkpt>
      <trkpt lat="42.4379550" lon="-7.3912000">
        <ele>553.5</ele>
        <time>2014-10-02T07:53:32Z</time>
      </trkpt>
      <trkpt lat="42.4379840" lon="-7.3912050">
        <ele>553.9</ele>
        <time>2014-10-02T07:53:33Z</time>
      </trkpt>
      <trkpt lat="42.4380130" lon="-7.3912080">
        <ele>554.4</ele>
        <time>2014-10-02T07:53:34Z</time>
      </trkpt>
      <trkpt lat="42.4380430" lon="-7.3912120">
        <ele>554.8</ele>
        <time>2014-10-02T07:53:35Z</time>
      </trkpt>
      <trkpt lat="42.4380710" lon="-7.3912180">
        <ele>555.3</ele>
        <time>2014-10-02T07:53:36Z</time>
      </trkpt>
      <trkpt lat="42.4381000" lon="-7.3912210">
        <ele>555.7</ele>
        <time>2014-10-02T07:53:37Z</time>
      </trkpt>
      <trkpt lat="42.4381270" lon="-7.3912230">
        <ele>556.1</ele>
        <time>2014-10-02T07:53:38Z</time>
      </trkpt>
      <trkpt lat="42.4381580" lon="-7.3912240">
        <ele>556.6</ele>
        <time>2014-10-02T07:53:39Z</time>
      </trkpt>
      <trkpt lat="42.4381870" lon="-7.3912240">
        <ele>557.1</ele>
        <time>2014-10-02T07:53:40Z</time>
      </trkpt>
      <trkpt lat="42.4382170" lon="-7.3912240">
        <ele>557.5</ele>
        <time>2014-10-02T07:53:41Z</time>
      </trkpt>
      <trkpt lat="42.4382650" lon="-7.3912250">
        <ele>558.3</ele>
        <time>2014-10-02T07:53:43Z</time>
      </trkpt>
      <trkpt lat="42.4383170" lon="-7.3912220">
        <ele>559.1</ele>
        <time>2014-10-02T07:53:45Z</time>
      </trkpt>
      <trkpt lat="42.4383640" lon="-7.3912210">
        <ele>559.8</ele>
        <time>2014-10-02T07:53:47Z</time>
      </trkpt>
      <trkpt lat="42.4383920" lon="-7.3912200">
        <ele>560.2</ele>
        <time>2014-10-02T07:53:48Z</time>
      </trkpt>
      <trkpt lat="42.4384390" lon="-7.3912140">
        <ele>561.0</ele>
        <time>2014-10-02T07:53:50Z</time>
      </trkpt>
      <trkpt lat="42.4384760" lon="-7.3912050">
        <ele>561.6</ele>
        <time>2014-10-02T07:53:52Z</time>
      </trkpt>
      <trkpt lat="42.4385180" lon="-7.3912000">
        <ele>562.2</ele>
        <time>2014-10-02T07:53:54Z</time>
      </trkpt>
      <trkpt lat="42.4385530" lon="-7.3911950">
        <ele>562.8</ele>
        <time>2014-10-02T07:53:56Z</time>
      </trkpt>
      <trkpt lat="42.4385940" lon="-7.3911870">
        <ele>563.4</ele>
        <time>2014-10-02T07:53:58Z</time>
      </trkpt>
      <trkpt lat="42.4386390" lon="-7.3911760">
        <ele>564.1</ele>
        <time>2014-10-02T07:54:00Z</time>
      </trkpt>
      <trkpt lat="42.4386810" lon="-7.3911660">
        <ele>564.8</ele>
        <time>2014-10-02T07:54:02Z</time>
      </trkpt>
      <trkpt lat="42.4387190" lon="-7.3911530">
        <ele>565.4</ele>
        <time>2014-10-02T07:54:04Z</time>
      </trkpt>
      <trkpt lat="42.4387580" lon="-7.3911400">
        <ele>566.0</ele>
        <time>2014-10-02T07:54:06Z</time>
      </trkpt>
      <trkpt lat="42.4387930" lon="-7.3911210">
        <ele>566.6</ele>
        <time>2014-10-02T07:54:08Z</time>
      </trkpt>
      <trkpt lat="42.4388270" lon="-7.3910930">
        <ele>567.2</ele>
        <time>2014-10-02T07:54:10Z</time>
      </trkpt>
      <trkpt lat="42.4388550" lon="-7.3910770">
        <ele>567.7</ele>
        <time>2014-10-02T07:54:12Z</time>
      </trkpt>
      <trkpt lat="42.4388870" lon="-7.3910590">
        <ele>568.2</ele>
        <time>2014-10-02T07:54:14Z</time>
      </trkpt>
      <trkpt lat="42.4389150" lon="-7.3910430">
        <ele>568.7</ele>
        <time>2014-10-02T07:54:16Z</time>
      </trkpt>
      <trkpt lat="42.4389480" lon="-7.3910320">
        <ele>569.2</ele>
        <time>2014-10-02T07:54:18Z</time>
      </trkpt>
      <trkpt lat="42.4389820" lon="-7.3910150">
        <ele>569.8</ele>
        <time>2014-10-02T07:54:20Z</time>
      </trkpt>
      <trkpt lat="42.4390150" lon="-7.3909950">
        <ele>570.3</ele>
        <time>2014-10-02T07:54:22Z</time>
      </trkpt>
      <trkpt lat="42.4390410" lon="-7.3909720">
        <ele>570.8</ele>
        <time>2014-10-02T07:54:24Z</time>
      </trkpt>
      <trkpt lat="42.4390660" lon="-7.3909380">
        <ele>571.4</ele>
        <time>2014-10-02T07:54:26Z</time>
      </trkpt>
      <trkpt lat="42.4390810" lon="-7.3908940">
        <ele>571.9</ele>
        <time>2014-10-02T07:54:28Z</time>
      </trkpt>
      <trkpt lat="42.4390700" lon="-7.3908550">
        <ele>572.4</ele>
        <time>2014-10-02T07:54:30Z</time>
      </trkpt>
      <trkpt lat="42.4390450" lon="-7.3908200">
        <ele>572.9</ele>
        <time>2014-10-02T07:54:32Z</time>
      </trkpt>
      <trkpt lat="42.4390190" lon="-7.3907880">
        <ele>573.5</ele>
        <time>2014-10-02T07:54:34Z</time>
      </trkpt>
      <trkpt lat="42.4389940" lon="-7.3907700">
        <ele>573.9</ele>
        <time>2014-10-02T07:54:36Z</time>
      </trkpt>
      <trkpt lat="42.4389600" lon="-7.3907570">
        <ele>574.5</ele>
        <time>2014-10-02T07:54:38Z</time>
      </trkpt>
      <trkpt lat="42.4389160" lon="-7.3907420">
        <ele>575.2</ele>
        <time>2014-10-02T07:54:40Z</time>
      </trkpt>
      <trkpt lat="42.4388790" lon="-7.3907280">
        <ele>575.8</ele>
        <time>2014-10-02T07:54:42Z</time>
      </trkpt>
      <trkpt lat="42.4388450" lon="-7.3907190">
        <ele>576.3</ele>
        <time>2014-10-02T07:54:44Z</time>
      </trkpt>
      <trkpt lat="42.4388160" lon="-7.3907050">
        <ele>576.8</ele>
        <time>2014-10-02T07:54:46Z</time>
      </trkpt>
      <trkpt lat="42.4387820" lon="-7.3906810">
        <ele>577.4</ele>
        <time>2014-10-02T07:54:48Z</time>
      </trkpt>
      <trkpt lat="42.4387430" lon="-7.3906530">
        <ele>578.1</ele>
        <time>2014-10-02T07:54:50Z</time>
      </trkpt>
      <trkpt lat="42.4387080" lon="-7.3906300">
        <ele>578.7</ele>
        <time>2014-10-02T07:54:52Z</time>
      </trkpt>
      <trkpt lat="42.4386740" lon="-7.3906050">
        <ele>579.3</ele>
        <time>2014-10-02T07:54:54Z</time>
      </trkpt>
      <trkpt lat="42.4386390" lon="-7.3905750">
        <ele>579.9</ele>
        <time>2014-10-02T07:54:56Z</time>
      </trkpt>
      <trkpt lat="42.4386040" lon="-7.3905500">
        <ele>580.5</ele>
        <time>2014-10-02T07:54:58Z</time>
      </trkpt>
      <trkpt lat="42.4385660" lon="-7.3905180">
        <ele>581.2</ele>
        <time>2014-10-02T07:55:00Z</time>
      </trkpt>
      <trkpt lat="42.4385270" lon="-7.3904860">
        <ele>581.9</ele>
        <time>2014-10-02T07:55:02Z</time>
      </trkpt>
      <trkpt lat="42.4384950" lon="-7.3904550">
        <ele>582.5</ele>
        <time>2014-10-02T07:55:04Z</time>
      </trkpt>
      <trkpt lat="42.4384650" lon="-7.3904280">
        <ele>583.1</ele>
        <time>2014-10-02T07:55:06Z</time>
      </trkpt>
      <trkpt lat="42.4384390" lon="-7.3904000">
        <ele>583.6</ele>
        <time>2014-10-02T07:55:08Z</time>
      </trkpt>
      <trkpt lat="42.4384090" lon="-7.3903640">
        <ele>584.2</ele>
        <time>2014-10-02T07:55:10Z</time>
      </trkpt>
      <trkpt lat="42.4383800" lon="-7.3903240">
        <ele>584.9</ele>
        <time>2014-10-02T07:55:12Z</time>
      </trkpt>
      <trkpt lat="42.4383530" lon="-7.3902890">
        <ele>585.4</ele>
        <time>2014-10-02T07:55:14Z</time>
      </trkpt>
      <trkpt lat="42.4383260" lon="-7.3902480">
        <ele>586.1</ele>
        <time>2014-10-02T07:55:16Z</time>
      </trkpt>
      <trkpt lat="42.4383020" lon="-7.3902070">
        <ele>586.7</ele>
        <time>2014-10-02T07:55:18Z</time>
      </trkpt>
      <trkpt lat="42.4382770" lon="-7.3901650">
        <ele>587.3</ele>
        <time>2014-10-02T07:55:20Z</time>
      </trkpt>
      <trkpt lat="42.4382540" lon="-7.3901230">
        <ele>587.9</ele>
        <time>2014-10-02T07:55:22Z</time>
      </trkpt>
      <trkpt lat="42.4382310" lon="-7.3900830">
        <ele>588.4</ele>
        <time>2014-10-02T07:55:24Z</time>
      </trkpt>
      <trkpt lat="42.4382080" lon="-7.3900360">
        <ele>589.1</ele>
        <time>2014-10-02T07:55:26Z</time>
      </trkpt>
      <trkpt lat="42.4381880" lon="-7.3899890">
        <ele>589.7</ele>
        <time>2014-10-02T07:55:28Z</time>
      </trkpt>
      <trkpt lat="42.4381720" lon="-7.3899370">
        <ele>590.4</ele>
        <time>2014-10-02T07:55:30Z</time>
      </trkpt>
      <trkpt lat="42.4381560" lon="-7.3898830">
        <ele>591.0</ele>
        <time>2014-10-02T07:55:32Z</time>
      </trkpt>
      <trkpt lat="42.4381450" lon="-7.3898260">
        <ele>591.7</ele>
        <time>2014-10-02T07:55:34Z</time>
      </trkpt>
      <trkpt lat="42.4381370" lon="-7.3897700">
        <ele>592.3</ele>
        <time>2014-10-02T07:55:36Z</time>
      </trkpt>
      <trkpt lat="42.4381300" lon="-7.3897120">
        <ele>593.0</ele>
        <time>2014-10-02T07:55:38Z</time>
      </trkpt>
      <trkpt lat="42.4381280" lon="-7.3896550">
        <ele>593.7</ele>
        <time>2014-10-02T07:55:40Z</time>
      </trkpt>
      <trkpt lat="42.4381280" lon="-7.3896000">
        <ele>594.3</ele>
        <time>2014-10-02T07:55:42Z</time>
      </trkpt>
      <trkpt lat="42.4381300" lon="-7.3895430">
        <ele>595.0</ele>
        <time>2014-10-02T07:55:44Z</time>
      </trkpt>
      <trkpt lat="42.4381340" lon="-7.3894880">
        <ele>595.6</ele>
        <time>2014-10-02T07:55:46Z</time>
      </trkpt>
      <trkpt lat="42.4381430" lon="-7.3894360">
        <ele>596.2</ele>
        <time>2014-10-02T07:55:48Z</time>
      </trkpt>
      <trkpt lat="42.4381560" lon="-7.3893810">
        <ele>596.9</ele>
        <time>2014-10-02T07:55:50Z</time>
      </trkpt>
      <trkpt lat="42.4381650" lon="-7.3893240">
        <ele>597.5</ele>
        <time>2014-10-02T07:55:52Z</time>
      </trkpt>
      <trkpt lat="42.4381720" lon="-7.3892650">
        <ele>598.2</ele>
        <time>2014-10-02T07:55:54Z</time>
      </trkpt>
      <trkpt lat="42.4381780" lon="-7.3892060">
        <ele>598.9</ele>
        <time>2014-10-02T07:55:56Z</time>
      </trkpt>
      <trkpt lat="42.4381920" lon="-7.3891450">
        <ele>599.6</ele>
        <time>2014-10-02T07:55:58Z</time>
      </trkpt>
      <trkpt lat="42.4382020" lon="-7.3890860">
        <ele>600.3</ele>
        <time>2014-10-02T07:56:00Z</time>
      </trkpt>
      <trkpt lat="42.4382120" lon="-7.3890310">
        <ele>601.0</ele>
        <time>2014-10-02T07:56:02Z</time>
      </trkpt>
      <trkpt lat="42.4382180" lon="-7.3889780">
        <ele>601.6</ele>
        <time>2014-10-02T07:56:04Z</time>
      </trkpt>
      <trkpt lat="42.4382230" lon="-7.3889260">
        <ele>602.2</ele>
        <time>2014-10-02T07:56:06Z</time>
      </trkpt>
      <trkpt lat="42.4382260" lon="-7.3888720">
        <ele>602.8</ele>
        <time>2014-10-02T07:56:08Z</time>
      </trkpt>
      <trkpt lat="42.4382300" lon="-7.3888190">
        <ele>603.4</ele>
        <time>2014-10-02T07:56:10Z</time>
      </trkpt>
      <trkpt lat="42.4382320" lon="-7.3887700">
        <ele>604.0</ele>
        <time>2014-10-02T07:56:12Z</time>
      </trkpt>
      <trkpt lat="42.4382330" lon="-7.3887190">
        <ele>604.5</ele>
        <time>2014-10-02T07:56:14Z</time>
      </trkpt>
      <trkpt lat="42.4382360" lon="-7.3886670">
        <ele>605.1</ele>
        <time>2014-10-02T07:56:16Z</time>
      </trkpt>
      <trkpt lat="42.4382390" lon="-7.3886170">
        <ele>605.7</ele>
        <time>2014-10-02T07:56:18Z</time>
      </trkpt>
      <trkpt lat="42.4382410" lon="-7.3885560">
        <ele>606.4</ele>
        <time>2014-10-02T07:56:20Z</time>
      </trkpt>
      <trkpt lat="42.4382420" lon="-7.3885080">
        <ele>606.9</ele>
        <time>2014-10-02T07:56:22Z</time>
      </trkpt>
      <trkpt lat="42.4382440" lon="-7.3884570">
        <ele>607.5</ele>
        <time>2014-10-02T07:56:24Z</time>
      </trkpt>
      <trkpt lat="42.4382440" lon="-7.3884150">
        <ele>608.0</ele>
        <time>2014-10-02T07:56:26Z</time>
      </trkpt>
      <trkpt lat="42.4382430" lon="-7.3883760">
        <ele>608.5</ele>
        <time>2014-10-02T07:56:28Z</time>
      </trkpt>
      <trkpt lat="42.4382430" lon="-7.3883230">
        <ele>609.1</ele>
        <time>2014-10-02T07:56:30Z</time>
      </trkpt>
      <trkpt lat="42.4382470" lon="-7.3882680">
        <ele>609.7</ele>
        <time>2014-10-02T07:56:32Z</time>
      </trkpt>
      <trkpt lat="42.4382500" lon="-7.3882160">
        <ele>610.3</ele>
        <time>2014-10-02T07:56:34Z</time>
      </trkpt>
      <trkpt lat="42.4382560" lon="-7.3881590">
        <ele>610.6</ele>
        <time>2014-10-02T07:56:36Z</time>
      </trkpt>
      <trkpt lat="42.4382710" lon="-7.3880890">
        <ele>610.4</ele>
        <time>2014-10-02T07:56:38Z</time>
      </trkpt>
      <trkpt lat="42.4382820" lon="-7.3880520">
        <ele>610.3</ele>
        <time>2014-10-02T07:56:39Z</time>
      </trkpt>
      <trkpt lat="42.4382930" lon="-7.3880170">
        <ele>610.2</ele>
        <time>2014-10-02T07:56:40Z</time>
      </trkpt>
      <trkpt lat="42.4383030" lon="-7.3879830">
        <ele>610.1</ele>
        <time>2014-10-02T07:56:41Z</time>
      </trkpt>
      <trkpt lat="42.4383280" lon="-7.3879230">
        <ele>610.0</ele>
        <time>2014-10-02T07:56:43Z</time>
      </trkpt>
      <trkpt lat="42.4383550" lon="-7.3878730">
        <ele>610.0</ele>
        <time>2014-10-02T07:56:45Z</time>
      </trkpt>
      <trkpt lat="42.4383850" lon="-7.3878270">
        <ele>610.0</ele>
        <time>2014-10-02T07:56:47Z</time>
      </trkpt>
      <trkpt lat="42.4384170" lon="-7.3877820">
        <ele>610.0</ele>
        <time>2014-10-02T07:56:49Z</time>
      </trkpt>
      <trkpt lat="42.4384570" lon="-7.3877360">
        <ele>610.1</ele>
        <time>2014-10-02T07:56:51Z</time>
      </trkpt>
      <trkpt lat="42.4384970" lon="-7.3876870">
        <ele>610.1</ele>
        <time>2014-10-02T07:56:53Z</time>
      </trkpt>
      <trkpt lat="42.4385180" lon="-7.3876610">
        <ele>610.1</ele>
        <time>2014-10-02T07:56:54Z</time>
      </trkpt>
      <trkpt lat="42.4385380" lon="-7.3876320">
        <ele>610.1</ele>
        <time>2014-10-02T07:56:55Z</time>
      </trkpt>
      <trkpt lat="42.4385540" lon="-7.3875960">
        <ele>610.1</ele>
        <time>2014-10-02T07:56:56Z</time>
      </trkpt>
      <trkpt lat="42.4385650" lon="-7.3875570">
        <ele>610.2</ele>
        <time>2014-10-02T07:56:57Z</time>
      </trkpt>
      <trkpt lat="42.4385720" lon="-7.3875140">
        <ele>610.2</ele>
        <time>2014-10-02T07:56:58Z</time>
      </trkpt>
      <trkpt lat="42.4385780" lon="-7.3874710">
        <ele>610.2</ele>
        <time>2014-10-02T07:56:59Z</time>
      </trkpt>
      <trkpt lat="42.4385840" lon="-7.3874290">
        <ele>610.2</ele>
        <time>2014-10-02T07:57:00Z</time>
      </trkpt>
      <trkpt lat="42.4385900" lon="-7.3873830">
        <ele>610.2</ele>
        <time>2014-10-02T07:57:01Z</time>
      </trkpt>
      <trkpt lat="42.4385960" lon="-7.3873370">
        <ele>610.2</ele>
        <time>2014-10-02T07:57:02Z</time>
      </trkpt>
      <trkpt lat="42.4386030" lon="-7.3872910">
        <ele>610.3</ele>
        <time>2014-10-02T07:57:03Z</time>
      </trkpt>
      <trkpt lat="42.4386120" lon="-7.3872460">
        <ele>610.3</ele>
        <time>2014-10-02T07:57:04Z</time>
      </trkpt>
      <trkpt lat="42.4386250" lon="-7.3871980">
        <ele>610.3</ele>
        <time>2014-10-02T07:57:05Z</time>
      </trkpt>
      <trkpt lat="42.4386380" lon="-7.3871470">
        <ele>610.3</ele>
        <time>2014-10-02T07:57:06Z</time>
      </trkpt>
      <trkpt lat="42.4386560" lon="-7.3870940">
        <ele>610.3</ele>
        <time>2014-10-02T07:57:07Z</time>
      </trkpt>
      <trkpt lat="42.4386810" lon="-7.3870360">
        <ele>610.4</ele>
        <time>2014-10-02T07:57:08Z</time>
      </trkpt>
      <trkpt lat="42.4387130" lon="-7.3869740">
        <ele>610.4</ele>
        <time>2014-10-02T07:57:09Z</time>
      </trkpt>
      <trkpt lat="42.4387450" lon="-7.3869060">
        <ele>610.4</ele>
        <time>2014-10-02T07:57:10Z</time>
      </trkpt>
      <trkpt lat="42.4387790" lon="-7.3868310">
        <ele>610.5</ele>
        <time>2014-10-02T07:57:11Z</time>
      </trkpt>
      <trkpt lat="42.4388170" lon="-7.3867510">
        <ele>610.5</ele>
        <time>2014-10-02T07:57:12Z</time>
      </trkpt>
      <trkpt lat="42.4388540" lon="-7.3866690">
        <ele>610.5</ele>
        <time>2014-10-02T07:57:13Z</time>
      </trkpt>
      <trkpt lat="42.4388930" lon="-7.3865850">
        <ele>610.6</ele>
        <time>2014-10-02T07:57:14Z</time>
      </trkpt>
      <trkpt lat="42.4389310" lon="-7.3865030">
        <ele>610.6</ele>
        <time>2014-10-02T07:57:15Z</time>
      </trkpt>
      <trkpt lat="42.4389700" lon="-7.3864130">
        <ele>610.6</ele>
        <time>2014-10-02T07:57:16Z</time>
      </trkpt>
      <trkpt lat="42.4390070" lon="-7.3863210">
        <ele>610.7</ele>
        <time>2014-10-02T07:57:17Z</time>
      </trkpt>
      <trkpt lat="42.4390420" lon="-7.3862290">
        <ele>610.7</ele>
        <time>2014-10-02T07:57:18Z</time>
      </trkpt>
      <trkpt lat="42.4390720" lon="-7.3861390">
        <ele>610.8</ele>
        <time>2014-10-02T07:57:19Z</time>
      </trkpt>
      <trkpt lat="42.4391000" lon="-7.3860470">
        <ele>610.8</ele>
        <time>2014-10-02T07:57:20Z</time>
      </trkpt>
      <trkpt lat="42.4391250" lon="-7.3859540">
        <ele>610.8</ele>
        <time>2014-10-02T07:57:21Z</time>
      </trkpt>
      <trkpt lat="42.4391520" lon="-7.3858600">
        <ele>610.9</ele>
        <time>2014-10-02T07:57:22Z</time>
      </trkpt>
      <trkpt lat="42.4391850" lon="-7.3857710">
        <ele>610.9</ele>
        <time>2014-10-02T07:57:23Z</time>
      </trkpt>
      <trkpt lat="42.4392350" lon="-7.3857050">
        <ele>610.9</ele>
        <time>2014-10-02T07:57:24Z</time>
      </trkpt>
      <trkpt lat="42.4392860" lon="-7.3856490">
        <ele>611.0</ele>
        <time>2014-10-02T07:57:25Z</time>
      </trkpt>
      <trkpt lat="42.4393350" lon="-7.3856030">
        <ele>611.0</ele>
        <time>2014-10-02T07:57:26Z</time>
      </trkpt>
      <trkpt lat="42.4393890" lon="-7.3855760">
        <ele>611.0</ele>
        <time>2014-10-02T07:57:27Z</time>
      </trkpt>
      <trkpt lat="42.4394390" lon="-7.3855540">
        <ele>611.1</ele>
        <time>2014-10-02T07:57:28Z</time>
      </trkpt>
      <trkpt lat="42.4394850" lon="-7.3855350">
        <ele>611.1</ele>
        <time>2014-10-02T07:57:29Z</time>
      </trkpt>
      <trkpt lat="42.4395300" lon="-7.3855180">
        <ele>611.1</ele>
        <time>2014-10-02T07:57:30Z</time>
      </trkpt>
      <trkpt lat="42.4395690" lon="-7.3855040">
        <ele>611.1</ele>
        <time>2014-10-02T07:57:31Z</time>
      </trkpt>
      <trkpt lat="42.4396100" lon="-7.3854900">
        <ele>611.2</ele>
        <time>2014-10-02T07:57:32Z</time>
      </trkpt>
      <trkpt lat="42.4396520" lon="-7.3854770">
        <ele>611.2</ele>
        <time>2014-10-02T07:57:33Z</time>
      </trkpt>
      <trkpt lat="42.4396940" lon="-7.3854660">
        <ele>611.2</ele>
        <time>2014-10-02T07:57:34Z</time>
      </trkpt>
      <trkpt lat="42.4397330" lon="-7.3854570">
        <ele>611.2</ele>
        <time>2014-10-02T07:57:35Z</time>
      </trkpt>
      <trkpt lat="42.4397720" lon="-7.3854510">
        <ele>611.2</ele>
        <time>2014-10-02T07:57:36Z</time>
      </trkpt>
      <trkpt lat="42.4398110" lon="-7.3854480">
        <ele>611.3</ele>
        <time>2014-10-02T07:57:37Z</time>
      </trkpt>
      <trkpt lat="42.4398460" lon="-7.3854470">
        <ele>611.3</ele>
        <time>2014-10-02T07:57:38Z</time>
      </trkpt>
      <trkpt lat="42.4398800" lon="-7.3854490">
        <ele>611.3</ele>
        <time>2014-10-02T07:57:39Z</time>
      </trkpt>
      <trkpt lat="42.4399140" lon="-7.3854480">
        <ele>611.3</ele>
        <time>2014-10-02T07:57:40Z</time>
      </trkpt>
      <trkpt lat="42.4399490" lon="-7.3854490">
        <ele>611.3</ele>
        <time>2014-10-02T07:57:41Z</time>
      </trkpt>
      <trkpt lat="42.4399850" lon="-7.3854460">
        <ele>611.3</ele>
        <time>2014-10-02T07:57:42Z</time>
      </trkpt>
      <trkpt lat="42.4400270" lon="-7.3854440">
        <ele>611.2</ele>
        <time>2014-10-02T07:57:43Z</time>
      </trkpt>
      <trkpt lat="42.4400730" lon="-7.3854410">
        <ele>611.2</ele>
        <time>2014-10-02T07:57:44Z</time>
      </trkpt>
      <trkpt lat="42.4401190" lon="-7.3854400">
        <ele>611.1</ele>
        <time>2014-10-02T07:57:45Z</time>
      </trkpt>
      <trkpt lat="42.4401690" lon="-7.3854360">
        <ele>611.0</ele>
        <time>2014-10-02T07:57:46Z</time>
      </trkpt>
      <trkpt lat="42.4402240" lon="-7.3854280">
        <ele>610.9</ele>
        <time>2014-10-02T07:57:47Z</time>
      </trkpt>
      <trkpt lat="42.4402780" lon="-7.3854170">
        <ele>610.8</ele>
        <time>2014-10-02T07:57:48Z</time>
      </trkpt>
      <trkpt lat="42.4403310" lon="-7.3854030">
        <ele>610.8</ele>
        <time>2014-10-02T07:57:49Z</time>
      </trkpt>
      <trkpt lat="42.4403810" lon="-7.3853840">
        <ele>610.7</ele>
        <time>2014-10-02T07:57:50Z</time>
      </trkpt>
      <trkpt lat="42.4404270" lon="-7.3853620">
        <ele>610.6</ele>
        <time>2014-10-02T07:57:51Z</time>
      </trkpt>
      <trkpt lat="42.4404740" lon="-7.3853330">
        <ele>610.5</ele>
        <time>2014-10-02T07:57:52Z</time>
      </trkpt>
      <trkpt lat="42.4405220" lon="-7.3853010">
        <ele>610.5</ele>
        <time>2014-10-02T07:57:53Z</time>
      </trkpt>
      <trkpt lat="42.4405740" lon="-7.3852640">
        <ele>610.8</ele>
        <time>2014-10-02T07:57:54Z</time>
      </trkpt>
      <trkpt lat="42.4406280" lon="-7.3852220">
        <ele>611.1</ele>
        <time>2014-10-02T07:57:55Z</time>
      </trkpt>
      <trkpt lat="42.4406800" lon="-7.3851770">
        <ele>611.5</ele>
        <time>2014-10-02T07:57:56Z</time>
      </trkpt>
      <trkpt lat="42.4407330" lon="-7.3851320">
        <ele>611.8</ele>
        <time>2014-10-02T07:57:57Z</time>
      </trkpt>
      <trkpt lat="42.4407860" lon="-7.3850850">
        <ele>612.1</ele>
        <time>2014-10-02T07:57:58Z</time>
      </trkpt>
      <trkpt lat="42.4408390" lon="-7.3850360">
        <ele>612.2</ele>
        <time>2014-10-02T07:57:59Z</time>
      </trkpt>
      <trkpt lat="42.4408910" lon="-7.3849850">
        <ele>612.4</ele>
        <time>2014-10-02T07:58:00Z</time>
      </trkpt>
      <trkpt lat="42.4409400" lon="-7.3849340">
        <ele>612.6</ele>
        <time>2014-10-02T07:58:01Z</time>
      </trkpt>
      <trkpt lat="42.4409770" lon="-7.3848700">
        <ele>612.8</ele>
        <time>2014-10-02T07:58:02Z</time>
      </trkpt>
      <trkpt lat="42.4410030" lon="-7.3847970">
        <ele>613.1</ele>
        <time>2014-10-02T07:58:03Z</time>
      </trkpt>
      <trkpt lat="42.4410240" lon="-7.3847260">
        <ele>613.4</ele>
        <time>2014-10-02T07:58:04Z</time>
      </trkpt>
      <trkpt lat="42.4410380" lon="-7.3846610">
        <ele>613.6</ele>
        <time>2014-10-02T07:58:05Z</time>
      </trkpt>
      <trkpt lat="42.4410470" lon="-7.3845980">
        <ele>613.9</ele>
        <time>2014-10-02T07:58:06Z</time>
      </trkpt>
      <trkpt lat="42.4410470" lon="-7.3845340">
        <ele>614.1</ele>
        <time>2014-10-02T07:58:07Z</time>
      </trkpt>
      <trkpt lat="42.4410470" lon="-7.3844720">
        <ele>614.4</ele>
        <time>2014-10-02T07:58:08Z</time>
      </trkpt>
      <trkpt lat="42.4410470" lon="-7.3844100">
        <ele>614.7</ele>
        <time>2014-10-02T07:58:09Z</time>
      </trkpt>
      <trkpt lat="42.4410480" lon="-7.3843500">
        <ele>615.0</ele>
        <time>2014-10-02T07:58:10Z</time>
      </trkpt>
      <trkpt lat="42.4410500" lon="-7.3842910">
        <ele>615.2</ele>
        <time>2014-10-02T07:58:11Z</time>
      </trkpt>
      <trkpt lat="42.4410530" lon="-7.3842390">
        <ele>615.4</ele>
        <time>2014-10-02T07:58:12Z</time>
      </trkpt>
      <trkpt lat="42.4410560" lon="-7.3841880">
        <ele>615.6</ele>
        <time>2014-10-02T07:58:13Z</time>
      </trkpt>
      <trkpt lat="42.4410590" lon="-7.3841380">
        <ele>615.7</ele>
        <time>2014-10-02T07:58:14Z</time>
      </trkpt>
      <trkpt lat="42.4410620" lon="-7.3840850">
        <ele>615.9</ele>
        <time>2014-10-02T07:58:15Z</time>
      </trkpt>
      <trkpt lat="42.4410640" lon="-7.3840280">
        <ele>616.0</ele>
        <time>2014-10-02T07:58:16Z</time>
      </trkpt>
      <trkpt lat="42.4410660" lon="-7.3839700">
        <ele>616.2</ele>
        <time>2014-10-02T07:58:17Z</time>
      </trkpt>
      <trkpt lat="42.4410660" lon="-7.3839100">
        <ele>616.3</ele>
        <time>2014-10-02T07:58:18Z</time>
      </trkpt>
      <trkpt lat="42.4410640" lon="-7.3838530">
        <ele>616.5</ele>
        <time>2014-10-02T07:58:19Z</time>
      </trkpt>
      <trkpt lat="42.4410600" lon="-7.3837950">
        <ele>616.6</ele>
        <time>2014-10-02T07:58:20Z</time>
      </trkpt>
      <trkpt lat="42.4410550" lon="-7.3837350">
        <ele>616.6</ele>
        <time>2014-10-02T07:58:21Z</time>
      </trkpt>
      <trkpt lat="42.4410480" lon="-7.3836720">
        <ele>616.6</ele>
        <time>2014-10-02T07:58:22Z</time>
      </trkpt>
      <trkpt lat="42.4410420" lon="-7.3836100">
        <ele>616.6</ele>
        <time>2014-10-02T07:58:23Z</time>
      </trkpt>
      <trkpt lat="42.4410320" lon="-7.3835490">
        <ele>616.6</ele>
        <time>2014-10-02T07:58:24Z</time>
      </trkpt>
      <trkpt lat="42.4410190" lon="-7.3834870">
        <ele>616.6</ele>
        <time>2014-10-02T07:58:25Z</time>
      </trkpt>
      <trkpt lat="42.4410020" lon="-7.3834240">
        <ele>616.6</ele>
        <time>2014-10-02T07:58:26Z</time>
      </trkpt>
      <trkpt lat="42.4409810" lon="-7.3833560">
        <ele>616.6</ele>
        <time>2014-10-02T07:58:27Z</time>
      </trkpt>
      <trkpt lat="42.4409440" lon="-7.3832910">
        <ele>616.6</ele>
        <time>2014-10-02T07:58:28Z</time>
      </trkpt>
      <trkpt lat="42.4409060" lon="-7.3832210">
        <ele>616.5</ele>
        <time>2014-10-02T07:58:29Z</time>
      </trkpt>
      <trkpt lat="42.4408700" lon="-7.3831620">
        <ele>616.4</ele>
        <time>2014-10-02T07:58:30Z</time>
      </trkpt>
      <trkpt lat="42.4408330" lon="-7.3831040">
        <ele>616.3</ele>
        <time>2014-10-02T07:58:31Z</time>
      </trkpt>
      <trkpt lat="42.4407940" lon="-7.3830500">
        <ele>616.1</ele>
        <time>2014-10-02T07:58:32Z</time>
      </trkpt>
      <trkpt lat="42.4407570" lon="-7.3830010">
        <ele>615.9</ele>
        <time>2014-10-02T07:58:33Z</time>
      </trkpt>
      <trkpt lat="42.4407170" lon="-7.3829530">
        <ele>615.8</ele>
        <time>2014-10-02T07:58:34Z</time>
      </trkpt>
      <trkpt lat="42.4406680" lon="-7.3829050">
        <ele>615.5</ele>
        <time>2014-10-02T07:58:35Z</time>
      </trkpt>
      <trkpt lat="42.4406150" lon="-7.3828490">
        <ele>615.3</ele>
        <time>2014-10-02T07:58:36Z</time>
      </trkpt>
      <trkpt lat="42.4405620" lon="-7.3827850">
        <ele>615.0</ele>
        <time>2014-10-02T07:58:37Z</time>
      </trkpt>
      <trkpt lat="42.4405100" lon="-7.3827160">
        <ele>614.7</ele>
        <time>2014-10-02T07:58:38Z</time>
      </trkpt>
      <trkpt lat="42.4404560" lon="-7.3826340">
        <ele>614.4</ele>
        <time>2014-10-02T07:58:39Z</time>
      </trkpt>
      <trkpt lat="42.4404120" lon="-7.3825540">
        <ele>614.1</ele>
        <time>2014-10-02T07:58:40Z</time>
      </trkpt>
      <trkpt lat="42.4403770" lon="-7.3824780">
        <ele>614.1</ele>
        <time>2014-10-02T07:58:41Z</time>
      </trkpt>
      <trkpt lat="42.4403410" lon="-7.3824010">
        <ele>614.2</ele>
        <time>2014-10-02T07:58:42Z</time>
      </trkpt>
      <trkpt lat="42.4403260" lon="-7.3823230">
        <ele>614.5</ele>
        <time>2014-10-02T07:58:43Z</time>
      </trkpt>
      <trkpt lat="42.4403260" lon="-7.3822440">
        <ele>614.9</ele>
        <time>2014-10-02T07:58:44Z</time>
      </trkpt>
      <trkpt lat="42.4403440" lon="-7.3821750">
        <ele>615.1</ele>
        <time>2014-10-02T07:58:45Z</time>
      </trkpt>
      <trkpt lat="42.4403810" lon="-7.3821320">
        <ele>615.3</ele>
        <time>2014-10-02T07:58:46Z</time>
      </trkpt>
      <trkpt lat="42.4404190" lon="-7.3820940">
        <ele>615.4</ele>
        <time>2014-10-02T07:58:47Z</time>
      </trkpt>
      <trkpt lat="42.4404710" lon="-7.3820860">
        <ele>615.4</ele>
        <time>2014-10-02T07:58:48Z</time>
      </trkpt>
      <trkpt lat="42.4405230" lon="-7.3820840">
        <ele>615.5</ele>
        <time>2014-10-02T07:58:49Z</time>
      </trkpt>
      <trkpt lat="42.4405600" lon="-7.3820840">
        <ele>615.6</ele>
        <time>2014-10-02T07:58:50Z</time>
      </trkpt>
      <trkpt lat="42.4405960" lon="-7.3820810">
        <ele>615.7</ele>
        <time>2014-10-02T07:58:51Z</time>
      </trkpt>
      <trkpt lat="42.4406360" lon="-7.3820740">
        <ele>615.9</ele>
        <time>2014-10-02T07:58:52Z</time>
      </trkpt>
      <trkpt lat="42.4406730" lon="-7.3820710">
        <ele>616.1</ele>
        <time>2014-10-02T07:58:53Z</time>
      </trkpt>
      <trkpt lat="42.4407150" lon="-7.3820710">
        <ele>616.4</ele>
        <time>2014-10-02T07:58:54Z</time>
      </trkpt>
      <trkpt lat="42.4407590" lon="-7.3820720">
        <ele>616.6</ele>
        <time>2014-10-02T07:58:55Z</time>
      </trkpt>
      <trkpt lat="42.4408010" lon="-7.3820740">
        <ele>616.9</ele>
        <time>2014-10-02T07:58:56Z</time>
      </trkpt>
      <trkpt lat="42.4408490" lon="-7.3820760">
        <ele>617.3</ele>
        <time>2014-10-02T07:58:57Z</time>
      </trkpt>
      <trkpt lat="42.4408940" lon="-7.3820770">
        <ele>617.5</ele>
        <time>2014-10-02T07:58:58Z</time>
      </trkpt>
      <trkpt lat="42.4409400" lon="-7.3820750">
        <ele>617.8</ele>
        <time>2014-10-02T07:58:59Z</time>
      </trkpt>
      <trkpt lat="42.4409880" lon="-7.3820770">
        <ele>618.1</ele>
        <time>2014-10-02T07:59:00Z</time>
      </trkpt>
      <trkpt lat="42.4410290" lon="-7.3820790">
        <ele>618.4</ele>
        <time>2014-10-02T07:59:01Z</time>
      </trkpt>
      <trkpt lat="42.4410700" lon="-7.3820790">
        <ele>618.7</ele>
        <time>2014-10-02T07:59:02Z</time>
      </trkpt>
      <trkpt lat="42.4411110" lon="-7.3820770">
        <ele>618.9</ele>
        <time>2014-10-02T07:59:03Z</time>
      </trkpt>
      <trkpt lat="42.4411500" lon="-7.3820720">
        <ele>619.2</ele>
        <time>2014-10-02T07:59:04Z</time>
      </trkpt>
      <trkpt lat="42.4411920" lon="-7.3820610">
        <ele>619.5</ele>
        <time>2014-10-02T07:59:05Z</time>
      </trkpt>
      <trkpt lat="42.4412310" lon="-7.3820460">
        <ele>619.7</ele>
        <time>2014-10-02T07:59:06Z</time>
      </trkpt>
      <trkpt lat="42.4412670" lon="-7.3820260">
        <ele>619.8</ele>
        <time>2014-10-02T07:59:07Z</time>
      </trkpt>
      <trkpt lat="42.4413020" lon="-7.3819930">
        <ele>620.0</ele>
        <time>2014-10-02T07:59:08Z</time>
      </trkpt>
      <trkpt lat="42.4413380" lon="-7.3819590">
        <ele>620.2</ele>
        <time>2014-10-02T07:59:09Z</time>
      </trkpt>
      <trkpt lat="42.4413730" lon="-7.3819240">
        <ele>620.4</ele>
        <time>2014-10-02T07:59:10Z</time>
      </trkpt>
      <trkpt lat="42.4414090" lon="-7.3818880">
        <ele>620.6</ele>
        <time>2014-10-02T07:59:11Z</time>
      </trkpt>
      <trkpt lat="42.4414480" lon="-7.3818510">
        <ele>620.8</ele>
        <time>2014-10-02T07:59:12Z</time>
      </trkpt>
      <trkpt lat="42.4414850" lon="-7.3818130">
        <ele>621.0</ele>
        <time>2014-10-02T07:59:13Z</time>
      </trkpt>
      <trkpt lat="42.4415210" lon="-7.3817760">
        <ele>621.2</ele>
        <time>2014-10-02T07:59:14Z</time>
      </trkpt>
      <trkpt lat="42.4415560" lon="-7.3817430">
        <ele>621.4</ele>
        <time>2014-10-02T07:59:15Z</time>
      </trkpt>
      <trkpt lat="42.4415940" lon="-7.3817130">
        <ele>621.5</ele>
        <time>2014-10-02T07:59:16Z</time>
      </trkpt>
      <trkpt lat="42.4416330" lon="-7.3816860">
        <ele>621.6</ele>
        <time>2014-10-02T07:59:17Z</time>
      </trkpt>
      <trkpt lat="42.4416730" lon="-7.3816580">
        <ele>621.6</ele>
        <time>2014-10-02T07:59:18Z</time>
      </trkpt>
      <trkpt lat="42.4417110" lon="-7.3816320">
        <ele>621.7</ele>
        <time>2014-10-02T07:59:19Z</time>
      </trkpt>
      <trkpt lat="42.4417520" lon="-7.3816090">
        <ele>621.7</ele>
        <time>2014-10-02T07:59:20Z</time>
      </trkpt>
      <trkpt lat="42.4417930" lon="-7.3815870">
        <ele>621.7</ele>
        <time>2014-10-02T07:59:21Z</time>
      </trkpt>
      <trkpt lat="42.4418390" lon="-7.3815630">
        <ele>621.8</ele>
        <time>2014-10-02T07:59:22Z</time>
      </trkpt>
      <trkpt lat="42.4418860" lon="-7.3815390">
        <ele>621.8</ele>
        <time>2014-10-02T07:59:23Z</time>
      </trkpt>
      <trkpt lat="42.4419350" lon="-7.3815150">
        <ele>621.8</ele>
        <time>2014-10-02T07:59:24Z</time>
      </trkpt>
      <trkpt lat="42.4419880" lon="-7.3814950">
        <ele>621.8</ele>
        <time>2014-10-02T07:59:25Z</time>
      </trkpt>
      <trkpt lat="42.4420460" lon="-7.3814800">
        <ele>621.8</ele>
        <time>2014-10-02T07:59:26Z</time>
      </trkpt>
      <trkpt lat="42.4421050" lon="-7.3814700">
        <ele>621.8</ele>
        <time>2014-10-02T07:59:27Z</time>
      </trkpt>
      <trkpt lat="42.4421660" lon="-7.3814650">
        <ele>621.9</ele>
        <time>2014-10-02T07:59:28Z</time>
      </trkpt>
      <trkpt lat="42.4422190" lon="-7.3814630">
        <ele>621.9</ele>
        <time>2014-10-02T07:59:29Z</time>
      </trkpt>
      <trkpt lat="42.4422820" lon="-7.3814630">
        <ele>622.0</ele>
        <time>2014-10-02T07:59:30Z</time>
      </trkpt>
      <trkpt lat="42.4423450" lon="-7.3814700">
        <ele>622.1</ele>
        <time>2014-10-02T07:59:31Z</time>
      </trkpt>
      <trkpt lat="42.4424040" lon="-7.3814850">
        <ele>622.2</ele>
        <time>2014-10-02T07:59:32Z</time>
      </trkpt>
      <trkpt lat="42.4424610" lon="-7.3815050">
        <ele>622.5</ele>
        <time>2014-10-02T07:59:33Z</time>
      </trkpt>
      <trkpt lat="42.4425170" lon="-7.3815200">
        <ele>622.8</ele>
        <time>2014-10-02T07:59:34Z</time>
      </trkpt>
      <trkpt lat="42.4425730" lon="-7.3815050">
        <ele>623.3</ele>
        <time>2014-10-02T07:59:35Z</time>
      </trkpt>
      <trkpt lat="42.4426300" lon="-7.3814850">
        <ele>623.5</ele>
        <time>2014-10-02T07:59:36Z</time>
      </trkpt>
      <trkpt lat="42.4426780" lon="-7.3814500">
        <ele>623.6</ele>
        <time>2014-10-02T07:59:37Z</time>
      </trkpt>
      <trkpt lat="42.4427170" lon="-7.3814130">
        <ele>623.7</ele>
        <time>2014-10-02T07:59:38Z</time>
      </trkpt>
      <trkpt lat="42.4427520" lon="-7.3813760">
        <ele>623.7</ele>
        <time>2014-10-02T07:59:39Z</time>
      </trkpt>
      <trkpt lat="42.4427830" lon="-7.3813410">
        <ele>623.8</ele>
        <time>2014-10-02T07:59:40Z</time>
      </trkpt>
      <trkpt lat="42.4428140" lon="-7.3813060">
        <ele>623.9</ele>
        <time>2014-10-02T07:59:41Z</time>
      </trkpt>
      <trkpt lat="42.4428450" lon="-7.3812730">
        <ele>624.1</ele>
        <time>2014-10-02T07:59:42Z</time>
      </trkpt>
      <trkpt lat="42.4428770" lon="-7.3812440">
        <ele>624.3</ele>
        <time>2014-10-02T07:59:43Z</time>
      </trkpt>
      <trkpt lat="42.4429090" lon="-7.3812170">
        <ele>624.4</ele>
        <time>2014-10-02T07:59:44Z</time>
      </trkpt>
      <trkpt lat="42.4429410" lon="-7.3811900">
        <ele>624.5</ele>
        <time>2014-10-02T07:59:45Z</time>
      </trkpt>
      <trkpt lat="42.4429700" lon="-7.3811600">
        <ele>624.5</ele>
        <time>2014-10-02T07:59:46Z</time>
      </trkpt>
      <trkpt lat="42.4429970" lon="-7.3811270">
        <ele>624.6</ele>
        <time>2014-10-02T07:59:47Z</time>
      </trkpt>
      <trkpt lat="42.4430230" lon="-7.3810930">
        <ele>624.8</ele>
        <time>2014-10-02T07:59:48Z</time>
      </trkpt>
      <trkpt lat="42.4430500" lon="-7.3810600">
        <ele>624.9</ele>
        <time>2014-10-02T07:59:49Z</time>
      </trkpt>
      <trkpt lat="42.4430740" lon="-7.3810310">
        <ele>625.1</ele>
        <time>2014-10-02T07:59:50Z</time>
      </trkpt>
      <trkpt lat="42.4430940" lon="-7.3810000">
        <ele>625.2</ele>
        <time>2014-10-02T07:59:51Z</time>
      </trkpt>
      <trkpt lat="42.4431100" lon="-7.3809600">
        <ele>625.4</ele>
        <time>2014-10-02T07:59:52Z</time>
      </trkpt>
      <trkpt lat="42.4431230" lon="-7.3809220">
        <ele>625.5</ele>
        <time>2014-10-02T07:59:53Z</time>
      </trkpt>
      <trkpt lat="42.4431330" lon="-7.3808840">
        <ele>625.5</ele>
        <time>2014-10-02T07:59:54Z</time>
      </trkpt>
      <trkpt lat="42.4431340" lon="-7.3808430">
        <ele>625.6</ele>
        <time>2014-10-02T07:59:55Z</time>
      </trkpt>
      <trkpt lat="42.4431340" lon="-7.3808020">
        <ele>625.7</ele>
        <time>2014-10-02T07:59:56Z</time>
      </trkpt>
      <trkpt lat="42.4431340" lon="-7.3807560">
        <ele>625.8</ele>
        <time>2014-10-02T07:59:57Z</time>
      </trkpt>
      <trkpt lat="42.4431310" lon="-7.3807160">
        <ele>626.0</ele>
        <time>2014-10-02T07:59:58Z</time>
      </trkpt>
      <trkpt lat="42.4431290" lon="-7.3806700">
        <ele>626.1</ele>
        <time>2014-10-02T07:59:59Z</time>
      </trkpt>
      <trkpt lat="42.4431260" lon="-7.3806300">
        <ele>626.3</ele>
        <time>2014-10-02T08:00:00Z</time>
      </trkpt>
      <trkpt lat="42.4431230" lon="-7.3805890">
        <ele>626.5</ele>
        <time>2014-10-02T08:00:01Z</time>
      </trkpt>
      <trkpt lat="42.4431200" lon="-7.3805450">
        <ele>626.8</ele>
        <time>2014-10-02T08:00:02Z</time>
      </trkpt>
      <trkpt lat="42.4431160" lon="-7.3804980">
        <ele>627.1</ele>
        <time>2014-10-02T08:00:03Z</time>
      </trkpt>
      <trkpt lat="42.4431120" lon="-7.3804550">
        <ele>627.4</ele>
        <time>2014-10-02T08:00:04Z</time>
      </trkpt>
      <trkpt lat="42.4431060" lon="-7.3804060">
        <ele>627.7</ele>
        <time>2014-10-02T08:00:05Z</time>
      </trkpt>
      <trkpt lat="42.4430990" lon="-7.3803680">
        <ele>627.9</ele>
        <time>2014-10-02T08:00:06Z</time>
      </trkpt>
      <trkpt lat="42.4430900" lon="-7.3803320">
        <ele>628.2</ele>
        <time>2014-10-02T08:00:07Z</time>
      </trkpt>
      <trkpt lat="42.4430680" lon="-7.3802640">
        <ele>628.6</ele>
        <time>2014-10-02T08:00:09Z</time>
      </trkpt>
      <trkpt lat="42.4430560" lon="-7.3802270">
        <ele>628.8</ele>
        <time>2014-10-02T08:00:10Z</time>
      </trkpt>
      <trkpt lat="42.4430310" lon="-7.3801610">
        <ele>629.3</ele>
        <time>2014-10-02T08:00:12Z</time>
      </trkpt>
      <trkpt lat="42.4430180" lon="-7.3801260">
        <ele>629.5</ele>
        <time>2014-10-02T08:00:13Z</time>
      </trkpt>
      <trkpt lat="42.4429920" lon="-7.3800640">
        <ele>630.0</ele>
        <time>2014-10-02T08:00:15Z</time>
      </trkpt>
      <trkpt lat="42.4429690" lon="-7.3800020">
        <ele>630.5</ele>
        <time>2014-10-02T08:00:17Z</time>
      </trkpt>
      <trkpt lat="42.4429580" lon="-7.3799670">
        <ele>630.8</ele>
        <time>2014-10-02T08:00:18Z</time>
      </trkpt>
      <trkpt lat="42.4429370" lon="-7.3799110">
        <ele>631.2</ele>
        <time>2014-10-02T08:00:20Z</time>
      </trkpt>
      <trkpt lat="42.4429140" lon="-7.3798570">
        <ele>631.6</ele>
        <time>2014-10-02T08:00:22Z</time>
      </trkpt>
      <trkpt lat="42.4429000" lon="-7.3798240">
        <ele>631.9</ele>
        <time>2014-10-02T08:00:23Z</time>
      </trkpt>
      <trkpt lat="42.4428770" lon="-7.3797710">
        <ele>632.3</ele>
        <time>2014-10-02T08:00:25Z</time>
      </trkpt>
      <trkpt lat="42.4428510" lon="-7.3797230">
        <ele>632.7</ele>
        <time>2014-10-02T08:00:27Z</time>
      </trkpt>
      <trkpt lat="42.4428240" lon="-7.3796720">
        <ele>633.2</ele>
        <time>2014-10-02T08:00:29Z</time>
      </trkpt>
      <trkpt lat="42.4428010" lon="-7.3796210">
        <ele>633.7</ele>
        <time>2014-10-02T08:00:31Z</time>
      </trkpt>
      <trkpt lat="42.4427780" lon="-7.3795650">
        <ele>634.3</ele>
        <time>2014-10-02T08:00:33Z</time>
      </trkpt>
      <trkpt lat="42.4427590" lon="-7.3795150">
        <ele>634.9</ele>
        <time>2014-10-02T08:00:35Z</time>
      </trkpt>
      <trkpt lat="42.4427420" lon="-7.3794630">
        <ele>635.5</ele>
        <time>2014-10-02T08:00:37Z</time>
      </trkpt>
      <trkpt lat="42.4427260" lon="-7.3793880">
        <ele>636.4</ele>
        <time>2014-10-02T08:00:39Z</time>
      </trkpt>
      <trkpt lat="42.4427200" lon="-7.3793460">
        <ele>637.0</ele>
        <time>2014-10-02T08:00:40Z</time>
      </trkpt>
      <trkpt lat="42.4427150" lon="-7.3793010">
        <ele>637.5</ele>
        <time>2014-10-02T08:00:41Z</time>
      </trkpt>
      <trkpt lat="42.4427160" lon="-7.3792640">
        <ele>637.9</ele>
        <time>2014-10-02T08:00:42Z</time>
      </trkpt>
      <trkpt lat="42.4427160" lon="-7.3792000">
        <ele>638.5</ele>
        <time>2014-10-02T08:00:44Z</time>
      </trkpt>
      <trkpt lat="42.4427170" lon="-7.3791390">
        <ele>639.1</ele>
        <time>2014-10-02T08:00:46Z</time>
      </trkpt>
      <trkpt lat="42.4427260" lon="-7.3790440">
        <ele>640.0</ele>
        <time>2014-10-02T08:00:50Z</time>
      </trkpt>
      <trkpt lat="42.4427420" lon="-7.3789590">
        <ele>640.9</ele>
        <time>2014-10-02T08:00:54Z</time>
      </trkpt>
      <trkpt lat="42.4427470" lon="-7.3788860">
        <ele>641.6</ele>
        <time>2014-10-02T08:00:57Z</time>
      </trkpt>
      <trkpt lat="42.4427420" lon="-7.3788430">
        <ele>641.9</ele>
        <time>2014-10-02T08:00:59Z</time>
      </trkpt>
      <trkpt lat="42.4427230" lon="-7.3787930">
        <ele>642.4</ele>
        <time>2014-10-02T08:01:01Z</time>
      </trkpt>
      <trkpt lat="42.4426990" lon="-7.3787620">
        <ele>642.6</ele>
        <time>2014-10-02T08:01:02Z</time>
      </trkpt>
      <trkpt lat="42.4426700" lon="-7.3787310">
        <ele>642.8</ele>
        <time>2014-10-02T08:01:03Z</time>
      </trkpt>
      <trkpt lat="42.4426370" lon="-7.3787100">
        <ele>643.0</ele>
        <time>2014-10-02T08:01:04Z</time>
      </trkpt>
      <trkpt lat="42.4426100" lon="-7.3786950">
        <ele>643.1</ele>
        <time>2014-10-02T08:01:05Z</time>
      </trkpt>
      <trkpt lat="42.4425780" lon="-7.3786800">
        <ele>643.1</ele>
        <time>2014-10-02T08:01:06Z</time>
      </trkpt>
      <trkpt lat="42.4425510" lon="-7.3786680">
        <ele>643.1</ele>
        <time>2014-10-02T08:01:07Z</time>
      </trkpt>
      <trkpt lat="42.4425200" lon="-7.3786560">
        <ele>643.2</ele>
        <time>2014-10-02T08:01:08Z</time>
      </trkpt>
      <trkpt lat="42.4424890" lon="-7.3786440">
        <ele>643.2</ele>
        <time>2014-10-02T08:01:09Z</time>
      </trkpt>
      <trkpt lat="42.4424500" lon="-7.3786260">
        <ele>643.3</ele>
        <time>2014-10-02T08:01:10Z</time>
      </trkpt>
      <trkpt lat="42.4424210" lon="-7.3786150">
        <ele>643.4</ele>
        <time>2014-10-02T08:01:11Z</time>
      </trkpt>
      <trkpt lat="42.4423920" lon="-7.3786030">
        <ele>643.5</ele>
        <time>2014-10-02T08:01:12Z</time>
      </trkpt>
      <trkpt lat="42.4423610" lon="-7.3785890">
        <ele>643.6</ele>
        <time>2014-10-02T08:01:13Z</time>
      </trkpt>
      <trkpt lat="42.4423280" lon="-7.3785690">
        <ele>643.7</ele>
        <time>2014-10-02T08:01:14Z</time>
      </trkpt>
      <trkpt lat="42.4422940" lon="-7.3785460">
        <ele>643.8</ele>
        <time>2014-10-02T08:01:15Z</time>
      </trkpt>
      <trkpt lat="42.4422660" lon="-7.3785280">
        <ele>643.9</ele>
        <time>2014-10-02T08:01:16Z</time>
      </trkpt>
      <trkpt lat="42.4422360" lon="-7.3785060">
        <ele>644.0</ele>
        <time>2014-10-02T08:01:17Z</time>
      </trkpt>
      <trkpt lat="42.4422020" lon="-7.3784840">
        <ele>644.1</ele>
        <time>2014-10-02T08:01:18Z</time>
      </trkpt>
      <trkpt lat="42.4421620" lon="-7.3784600">
        <ele>644.3</ele>
        <time>2014-10-02T08:01:19Z</time>
      </trkpt>
      <trkpt lat="42.4421190" lon="-7.3784350">
        <ele>644.4</ele>
        <time>2014-10-02T08:01:20Z</time>
      </trkpt>
      <trkpt lat="42.4420750" lon="-7.3784080">
        <ele>644.6</ele>
        <time>2014-10-02T08:01:21Z</time>
      </trkpt>
      <trkpt lat="42.4420310" lon="-7.3783820">
        <ele>644.8</ele>
        <time>2014-10-02T08:01:22Z</time>
      </trkpt>
      <trkpt lat="42.4419890" lon="-7.3783560">
        <ele>645.0</ele>
        <time>2014-10-02T08:01:23Z</time>
      </trkpt>
      <trkpt lat="42.4419490" lon="-7.3783330">
        <ele>645.2</ele>
        <time>2014-10-02T08:01:24Z</time>
      </trkpt>
      <trkpt lat="42.4419110" lon="-7.3783110">
        <ele>645.4</ele>
        <time>2014-10-02T08:01:25Z</time>
      </trkpt>
      <trkpt lat="42.4418740" lon="-7.3782930">
        <ele>645.6</ele>
        <time>2014-10-02T08:01:26Z</time>
      </trkpt>
      <trkpt lat="42.4418340" lon="-7.3782770">
        <ele>645.8</ele>
        <time>2014-10-02T08:01:27Z</time>
      </trkpt>
      <trkpt lat="42.4417980" lon="-7.3782630">
        <ele>646.0</ele>
        <time>2014-10-02T08:01:28Z</time>
      </trkpt>
      <trkpt lat="42.4417590" lon="-7.3782480">
        <ele>646.2</ele>
        <time>2014-10-02T08:01:29Z</time>
      </trkpt>
      <trkpt lat="42.4417240" lon="-7.3782350">
        <ele>646.3</ele>
        <time>2014-10-02T08:01:30Z</time>
      </trkpt>
      <trkpt lat="42.4416850" lon="-7.3782210">
        <ele>646.6</ele>
        <time>2014-10-02T08:01:31Z</time>
      </trkpt>
      <trkpt lat="42.4416480" lon="-7.3782080">
        <ele>646.8</ele>
        <time>2014-10-02T08:01:32Z</time>
      </trkpt>
      <trkpt lat="42.4416110" lon="-7.3781940">
        <ele>647.0</ele>
        <time>2014-10-02T08:01:33Z</time>
      </trkpt>
      <trkpt lat="42.4415730" lon="-7.3781790">
        <ele>647.3</ele>
        <time>2014-10-02T08:01:34Z</time>
      </trkpt>
      <trkpt lat="42.4415370" lon="-7.3781630">
        <ele>647.7</ele>
        <time>2014-10-02T08:01:35Z</time>
      </trkpt>
      <trkpt lat="42.4415060" lon="-7.3781480">
        <ele>648.0</ele>
        <time>2014-10-02T08:01:36Z</time>
      </trkpt>
      <trkpt lat="42.4414740" lon="-7.3781290">
        <ele>648.3</ele>
        <time>2014-10-02T08:01:37Z</time>
      </trkpt>
      <trkpt lat="42.4414490" lon="-7.3781120">
        <ele>648.6</ele>
        <time>2014-10-02T08:01:38Z</time>
      </trkpt>
      <trkpt lat="42.4414040" lon="-7.3780760">
        <ele>649.2</ele>
        <time>2014-10-02T08:01:40Z</time>
      </trkpt>
      <trkpt lat="42.4413580" lon="-7.3780390">
        <ele>649.8</ele>
        <time>2014-10-02T08:01:42Z</time>
      </trkpt>
      <trkpt lat="42.4413140" lon="-7.3779980">
        <ele>650.5</ele>
        <time>2014-10-02T08:01:44Z</time>
      </trkpt>
      <trkpt lat="42.4412730" lon="-7.3779590">
        <ele>651.2</ele>
        <time>2014-10-02T08:01:46Z</time>
      </trkpt>
      <trkpt lat="42.4412380" lon="-7.3779240">
        <ele>651.8</ele>
        <time>2014-10-02T08:01:48Z</time>
      </trkpt>
      <trkpt lat="42.4411980" lon="-7.3778900">
        <ele>652.5</ele>
        <time>2014-10-02T08:01:50Z</time>
      </trkpt>
      <trkpt lat="42.4411560" lon="-7.3778550">
        <ele>653.2</ele>
        <time>2014-10-02T08:01:52Z</time>
      </trkpt>
      <trkpt lat="42.4411000" lon="-7.3778100">
        <ele>654.1</ele>
        <time>2014-10-02T08:01:55Z</time>
      </trkpt>
      <trkpt lat="42.4410650" lon="-7.3777760">
        <ele>654.7</ele>
        <time>2014-10-02T08:01:57Z</time>
      </trkpt>
      <trkpt lat="42.4410320" lon="-7.3777370">
        <ele>655.3</ele>
        <time>2014-10-02T08:01:59Z</time>
      </trkpt>
      <trkpt lat="42.4409940" lon="-7.3776740">
        <ele>656.2</ele>
        <time>2014-10-02T08:02:02Z</time>
      </trkpt>
      <trkpt lat="42.4409710" lon="-7.3775850">
        <ele>657.2</ele>
        <time>2014-10-02T08:02:05Z</time>
      </trkpt>
      <trkpt lat="42.4409580" lon="-7.3775200">
        <ele>658.0</ele>
        <time>2014-10-02T08:02:07Z</time>
      </trkpt>
      <trkpt lat="42.4409540" lon="-7.3774840">
        <ele>658.4</ele>
        <time>2014-10-02T08:02:08Z</time>
      </trkpt>
      <trkpt lat="42.4409490" lon="-7.3773810">
        <ele>659.5</ele>
        <time>2014-10-02T08:02:11Z</time>
      </trkpt>
      <trkpt lat="42.4409470" lon="-7.3773200">
        <ele>660.2</ele>
        <time>2014-10-02T08:02:13Z</time>
      </trkpt>
      <trkpt lat="42.4409360" lon="-7.3772090">
        <ele>661.4</ele>
        <time>2014-10-02T08:02:17Z</time>
      </trkpt>
      <trkpt lat="42.4409240" lon="-7.3771390">
        <ele>662.2</ele>
        <time>2014-10-02T08:02:20Z</time>
      </trkpt>
      <trkpt lat="42.4409040" lon="-7.3770720">
        <ele>663.1</ele>
        <time>2014-10-02T08:02:23Z</time>
      </trkpt>
      <trkpt lat="42.4408590" lon="-7.3769800">
        <ele>664.6</ele>
        <time>2014-10-02T08:02:26Z</time>
      </trkpt>
      <trkpt lat="42.4408000" lon="-7.3769530">
        <ele>665.7</ele>
        <time>2014-10-02T08:02:29Z</time>
      </trkpt>
      <trkpt lat="42.4407010" lon="-7.3770000">
        <ele>667.6</ele>
        <time>2014-10-02T08:02:34Z</time>
      </trkpt>
      <trkpt lat="42.4406350" lon="-7.3770630">
        <ele>669.0</ele>
        <time>2014-10-02T08:02:38Z</time>
      </trkpt>
      <trkpt lat="42.4405770" lon="-7.3771320">
        <ele>670.3</ele>
        <time>2014-10-02T08:02:42Z</time>
      </trkpt>
      <trkpt lat="42.4405260" lon="-7.3771850">
        <ele>671.3</ele>
        <time>2014-10-02T08:02:45Z</time>
      </trkpt>
      <trkpt lat="42.4404520" lon="-7.3772270">
        <ele>672.4</ele>
        <time>2014-10-02T08:02:49Z</time>
      </trkpt>
      <trkpt lat="42.4403960" lon="-7.3772530">
        <ele>673.3</ele>
        <time>2014-10-02T08:02:52Z</time>
      </trkpt>
      <trkpt lat="42.4403400" lon="-7.3772740">
        <ele>674.1</ele>
        <time>2014-10-02T08:02:55Z</time>
      </trkpt>
      <trkpt lat="42.4402640" lon="-7.3772980">
        <ele>675.2</ele>
        <time>2014-10-02T08:02:59Z</time>
      </trkpt>
      <trkpt lat="42.4402190" lon="-7.3773060">
        <ele>675.9</ele>
        <time>2014-10-02T08:03:01Z</time>
      </trkpt>
      <trkpt lat="42.4401590" lon="-7.3773140">
        <ele>676.7</ele>
        <time>2014-10-02T08:03:04Z</time>
      </trkpt>
      <trkpt lat="42.4400670" lon="-7.3773280">
        <ele>677.8</ele>
        <time>2014-10-02T08:03:09Z</time>
      </trkpt>
      <trkpt lat="42.4400240" lon="-7.3773340">
        <ele>678.3</ele>
        <time>2014-10-02T08:03:11Z</time>
      </trkpt>
      <trkpt lat="42.4399820" lon="-7.3773400">
        <ele>678.9</ele>
        <time>2014-10-02T08:03:13Z</time>
      </trkpt>
      <trkpt lat="42.4399330" lon="-7.3773460">
        <ele>679.4</ele>
        <time>2014-10-02T08:03:15Z</time>
      </trkpt>
      <trkpt lat="42.4398800" lon="-7.3773560">
        <ele>680.0</ele>
        <time>2014-10-02T08:03:17Z</time>
      </trkpt>
      <trkpt lat="42.4398320" lon="-7.3773700">
        <ele>680.5</ele>
        <time>2014-10-02T08:03:19Z</time>
      </trkpt>
      <trkpt lat="42.4397800" lon="-7.3773830">
        <ele>681.0</ele>
        <time>2014-10-02T08:03:21Z</time>
      </trkpt>
      <trkpt lat="42.4397530" lon="-7.3773900">
        <ele>681.3</ele>
        <time>2014-10-02T08:03:22Z</time>
      </trkpt>
      <trkpt lat="42.4397240" lon="-7.3773990">
        <ele>681.5</ele>
        <time>2014-10-02T08:03:23Z</time>
      </trkpt>
      <trkpt lat="42.4396980" lon="-7.3774080">
        <ele>681.8</ele>
        <time>2014-10-02T08:03:24Z</time>
      </trkpt>
      <trkpt lat="42.4396700" lon="-7.3774160">
        <ele>682.0</ele>
        <time>2014-10-02T08:03:25Z</time>
      </trkpt>
      <trkpt lat="42.4396160" lon="-7.3774380">
        <ele>682.4</ele>
        <time>2014-10-02T08:03:27Z</time>
      </trkpt>
      <trkpt lat="42.4395880" lon="-7.3774550">
        <ele>682.6</ele>
        <time>2014-10-02T08:03:28Z</time>
      </trkpt>
      <trkpt lat="42.4395510" lon="-7.3774760">
        <ele>682.9</ele>
        <time>2014-10-02T08:03:29Z</time>
      </trkpt>
      <trkpt lat="42.4395200" lon="-7.3774950">
        <ele>683.1</ele>
        <time>2014-10-02T08:03:30Z</time>
      </trkpt>
      <trkpt lat="42.4394920" lon="-7.3775130">
        <ele>683.3</ele>
        <time>2014-10-02T08:03:31Z</time>
      </trkpt>
      <trkpt lat="42.4394620" lon="-7.3775340">
        <ele>683.5</ele>
        <time>2014-10-02T08:03:32Z</time>
      </trkpt>
      <trkpt lat="42.4394260" lon="-7.3775570">
        <ele>683.7</ele>
        <time>2014-10-02T08:03:33Z</time>
      </trkpt>
      <trkpt lat="42.4393920" lon="-7.3775820">
        <ele>684.0</ele>
        <time>2014-10-02T08:03:34Z</time>
      </trkpt>
      <trkpt lat="42.4393630" lon="-7.3776060">
        <ele>684.2</ele>
        <time>2014-10-02T08:03:35Z</time>
      </trkpt>
      <trkpt lat="42.4393330" lon="-7.3776280">
        <ele>684.5</ele>
        <time>2014-10-02T08:03:36Z</time>
      </trkpt>
      <trkpt lat="42.4393010" lon="-7.3776500">
        <ele>684.8</ele>
        <time>2014-10-02T08:03:37Z</time>
      </trkpt>
      <trkpt lat="42.4392710" lon="-7.3776690">
        <ele>685.1</ele>
        <time>2014-10-02T08:03:38Z</time>
      </trkpt>
      <trkpt lat="42.4392410" lon="-7.3776880">
        <ele>685.4</ele>
        <time>2014-10-02T08:03:39Z</time>
      </trkpt>
      <trkpt lat="42.4392110" lon="-7.3777070">
        <ele>685.6</ele>
        <time>2014-10-02T08:03:40Z</time>
      </trkpt>
      <trkpt lat="42.4391830" lon="-7.3777240">
        <ele>685.9</ele>
        <time>2014-10-02T08:03:41Z</time>
      </trkpt>
      <trkpt lat="42.4391560" lon="-7.3777410">
        <ele>686.2</ele>
        <time>2014-10-02T08:03:42Z</time>
      </trkpt>
      <trkpt lat="42.4391290" lon="-7.3777560">
        <ele>686.5</ele>
        <time>2014-10-02T08:03:43Z</time>
      </trkpt>
      <trkpt lat="42.4390730" lon="-7.3777820">
        <ele>687.1</ele>
        <time>2014-10-02T08:03:45Z</time>
      </trkpt>
      <trkpt lat="42.4390460" lon="-7.3777910">
        <ele>687.4</ele>
        <time>2014-10-02T08:03:46Z</time>
      </trkpt>
      <trkpt lat="42.4389920" lon="-7.3778050">
        <ele>687.9</ele>
        <time>2014-10-02T08:03:48Z</time>
      </trkpt>
      <trkpt lat="42.4389640" lon="-7.3778100">
        <ele>688.2</ele>
        <time>2014-10-02T08:03:49Z</time>
      </trkpt>
      <trkpt lat="42.4389100" lon="-7.3778150">
        <ele>688.8</ele>
        <time>2014-10-02T08:03:51Z</time>
      </trkpt>
      <trkpt lat="42.4388810" lon="-7.3778150">
        <ele>689.1</ele>
        <time>2014-10-02T08:03:52Z</time>
      </trkpt>
      <trkpt lat="42.4388290" lon="-7.3778110">
        <ele>689.6</ele>
        <time>2014-10-02T08:03:54Z</time>
      </trkpt>
      <trkpt lat="42.4387830" lon="-7.3778050">
        <ele>690.0</ele>
        <time>2014-10-02T08:03:56Z</time>
      </trkpt>
      <trkpt lat="42.4387310" lon="-7.3777910">
        <ele>690.5</ele>
        <time>2014-10-02T08:03:58Z</time>
      </trkpt>
      <trkpt lat="42.4387010" lon="-7.3777810">
        <ele>690.8</ele>
        <time>2014-10-02T08:03:59Z</time>
      </trkpt>
      <trkpt lat="42.4386730" lon="-7.3777710">
        <ele>691.0</ele>
        <time>2014-10-02T08:04:00Z</time>
      </trkpt>
      <trkpt lat="42.4386450" lon="-7.3777610">
        <ele>691.2</ele>
        <time>2014-10-02T08:04:01Z</time>
      </trkpt>
      <trkpt lat="42.4385900" lon="-7.3777440">
        <ele>691.7</ele>
        <time>2014-10-02T08:04:03Z</time>
      </trkpt>
      <trkpt lat="42.4385610" lon="-7.3777350">
        <ele>691.9</ele>
        <time>2014-10-02T08:04:04Z</time>
      </trkpt>
      <trkpt lat="42.4385330" lon="-7.3777260">
        <ele>692.2</ele>
        <time>2014-10-02T08:04:05Z</time>
      </trkpt>
      <trkpt lat="42.4385060" lon="-7.3777170">
        <ele>692.4</ele>
        <time>2014-10-02T08:04:06Z</time>
      </trkpt>
      <trkpt lat="42.4384550" lon="-7.3776980">
        <ele>692.9</ele>
        <time>2014-10-02T08:04:08Z</time>
      </trkpt>
      <trkpt lat="42.4384280" lon="-7.3776880">
        <ele>693.1</ele>
        <time>2014-10-02T08:04:09Z</time>
      </trkpt>
      <trkpt lat="42.4383970" lon="-7.3776750">
        <ele>693.4</ele>
        <time>2014-10-02T08:04:10Z</time>
      </trkpt>
      <trkpt lat="42.4383700" lon="-7.3776630">
        <ele>693.7</ele>
        <time>2014-10-02T08:04:11Z</time>
      </trkpt>
      <trkpt lat="42.4383440" lon="-7.3776500">
        <ele>693.9</ele>
        <time>2014-10-02T08:04:12Z</time>
      </trkpt>
      <trkpt lat="42.4382940" lon="-7.3776250">
        <ele>694.5</ele>
        <time>2014-10-02T08:04:14Z</time>
      </trkpt>
      <trkpt lat="42.4382670" lon="-7.3776140">
        <ele>694.7</ele>
        <time>2014-10-02T08:04:15Z</time>
      </trkpt>
      <trkpt lat="42.4382400" lon="-7.3776020">
        <ele>695.0</ele>
        <time>2014-10-02T08:04:16Z</time>
      </trkpt>
      <trkpt lat="42.4382100" lon="-7.3775890">
        <ele>695.3</ele>
        <time>2014-10-02T08:04:17Z</time>
      </trkpt>
      <trkpt lat="42.4381830" lon="-7.3775740">
        <ele>695.6</ele>
        <time>2014-10-02T08:04:18Z</time>
      </trkpt>
      <trkpt lat="42.4381570" lon="-7.3775600">
        <ele>695.9</ele>
        <time>2014-10-02T08:04:19Z</time>
      </trkpt>
      <trkpt lat="42.4381110" lon="-7.3775320">
        <ele>696.5</ele>
        <time>2014-10-02T08:04:21Z</time>
      </trkpt>
      <trkpt lat="42.4380700" lon="-7.3775070">
        <ele>697.1</ele>
        <time>2014-10-02T08:04:23Z</time>
      </trkpt>
      <trkpt lat="42.4380280" lon="-7.3774810">
        <ele>697.6</ele>
        <time>2014-10-02T08:04:25Z</time>
      </trkpt>
      <trkpt lat="42.4379930" lon="-7.3774500">
        <ele>698.2</ele>
        <time>2014-10-02T08:04:27Z</time>
      </trkpt>
      <trkpt lat="42.4379560" lon="-7.3774130">
        <ele>698.8</ele>
        <time>2014-10-02T08:04:29Z</time>
      </trkpt>
      <trkpt lat="42.4379220" lon="-7.3773800">
        <ele>699.4</ele>
        <time>2014-10-02T08:04:31Z</time>
      </trkpt>
      <trkpt lat="42.4378920" lon="-7.3773450">
        <ele>699.9</ele>
        <time>2014-10-02T08:04:33Z</time>
      </trkpt>
      <trkpt lat="42.4378620" lon="-7.3773070">
        <ele>700.5</ele>
        <time>2014-10-02T08:04:35Z</time>
      </trkpt>
      <trkpt lat="42.4378420" lon="-7.3772820">
        <ele>700.9</ele>
        <time>2014-10-02T08:04:36Z</time>
      </trkpt>
      <trkpt lat="42.4378080" lon="-7.3772340">
        <ele>701.7</ele>
        <time>2014-10-02T08:04:38Z</time>
      </trkpt>
      <trkpt lat="42.4377790" lon="-7.3771940">
        <ele>702.3</ele>
        <time>2014-10-02T08:04:40Z</time>
      </trkpt>
      <trkpt lat="42.4377450" lon="-7.3771590">
        <ele>702.9</ele>
        <time>2014-10-02T08:04:42Z</time>
      </trkpt>
      <trkpt lat="42.4377140" lon="-7.3771240">
        <ele>703.6</ele>
        <time>2014-10-02T08:04:44Z</time>
      </trkpt>
      <trkpt lat="42.4376890" lon="-7.3770840">
        <ele>704.2</ele>
        <time>2014-10-02T08:04:46Z</time>
      </trkpt>
      <trkpt lat="42.4376640" lon="-7.3770440">
        <ele>704.8</ele>
        <time>2014-10-02T08:04:48Z</time>
      </trkpt>
      <trkpt lat="42.4376390" lon="-7.3770040">
        <ele>705.4</ele>
        <time>2014-10-02T08:04:50Z</time>
      </trkpt>
      <trkpt lat="42.4376140" lon="-7.3769650">
        <ele>706.0</ele>
        <time>2014-10-02T08:04:52Z</time>
      </trkpt>
      <trkpt lat="42.4375900" lon="-7.3769250">
        <ele>706.6</ele>
        <time>2014-10-02T08:04:54Z</time>
      </trkpt>
      <trkpt lat="42.4375660" lon="-7.3768860">
        <ele>707.2</ele>
        <time>2014-10-02T08:04:56Z</time>
      </trkpt>
      <trkpt lat="42.4375440" lon="-7.3768460">
        <ele>707.7</ele>
        <time>2014-10-02T08:04:58Z</time>
      </trkpt>
      <trkpt lat="42.4375200" lon="-7.3768050">
        <ele>708.4</ele>
        <time>2014-10-02T08:05:00Z</time>
      </trkpt>
      <trkpt lat="42.4374980" lon="-7.3767680">
        <ele>708.9</ele>
        <time>2014-10-02T08:05:02Z</time>
      </trkpt>
      <trkpt lat="42.4374760" lon="-7.3767360">
        <ele>709.4</ele>
        <time>2014-10-02T08:05:04Z</time>
      </trkpt>
      <trkpt lat="42.4374530" lon="-7.3767040">
        <ele>710.0</ele>
        <time>2014-10-02T08:05:06Z</time>
      </trkpt>
      <trkpt lat="42.4374300" lon="-7.3766750">
        <ele>710.5</ele>
        <time>2014-10-02T08:05:08Z</time>
      </trkpt>
      <trkpt lat="42.4374070" lon="-7.3766440">
        <ele>711.0</ele>
        <time>2014-10-02T08:05:10Z</time>
      </trkpt>
      <trkpt lat="42.4373840" lon="-7.3766110">
        <ele>711.5</ele>
        <time>2014-10-02T08:05:12Z</time>
      </trkpt>
      <trkpt lat="42.4373600" lon="-7.3765730">
        <ele>712.1</ele>
        <time>2014-10-02T08:05:14Z</time>
      </trkpt>
      <trkpt lat="42.4373380" lon="-7.3765390">
        <ele>712.6</ele>
        <time>2014-10-02T08:05:16Z</time>
      </trkpt>
      <trkpt lat="42.4373110" lon="-7.3764990">
        <ele>713.2</ele>
        <time>2014-10-02T08:05:18Z</time>
      </trkpt>
      <trkpt lat="42.4372910" lon="-7.3764560">
        <ele>713.8</ele>
        <time>2014-10-02T08:05:20Z</time>
      </trkpt>
      <trkpt lat="42.4372720" lon="-7.3764170">
        <ele>714.3</ele>
        <time>2014-10-02T08:05:22Z</time>
      </trkpt>
      <trkpt lat="42.4372490" lon="-7.3763730">
        <ele>714.9</ele>
        <time>2014-10-02T08:05:24Z</time>
      </trkpt>
      <trkpt lat="42.4372260" lon="-7.3763300">
        <ele>715.4</ele>
        <time>2014-10-02T08:05:26Z</time>
      </trkpt>
      <trkpt lat="42.4372000" lon="-7.3762890">
        <ele>716.0</ele>
        <time>2014-10-02T08:05:28Z</time>
      </trkpt>
      <trkpt lat="42.4371740" lon="-7.3762570">
        <ele>716.5</ele>
        <time>2014-10-02T08:05:30Z</time>
      </trkpt>
      <trkpt lat="42.4371490" lon="-7.3762230">
        <ele>717.0</ele>
        <time>2014-10-02T08:05:32Z</time>
      </trkpt>
      <trkpt lat="42.4371220" lon="-7.3761790">
        <ele>717.6</ele>
        <time>2014-10-02T08:05:34Z</time>
      </trkpt>
      <trkpt lat="42.4370930" lon="-7.3761430">
        <ele>718.2</ele>
        <time>2014-10-02T08:05:36Z</time>
      </trkpt>
      <trkpt lat="42.4370630" lon="-7.3761040">
        <ele>718.8</ele>
        <time>2014-10-02T08:05:38Z</time>
      </trkpt>
      <trkpt lat="42.4370360" lon="-7.3760580">
        <ele>719.4</ele>
        <time>2014-10-02T08:05:40Z</time>
      </trkpt>
      <trkpt lat="42.4370120" lon="-7.3760100">
        <ele>720.0</ele>
        <time>2014-10-02T08:05:42Z</time>
      </trkpt>
      <trkpt lat="42.4369880" lon="-7.3759640">
        <ele>720.6</ele>
        <time>2014-10-02T08:05:44Z</time>
      </trkpt>
      <trkpt lat="42.4369620" lon="-7.3759210">
        <ele>721.1</ele>
        <time>2014-10-02T08:05:46Z</time>
      </trkpt>
      <trkpt lat="42.4369390" lon="-7.3758750">
        <ele>721.6</ele>
        <time>2014-10-02T08:05:48Z</time>
      </trkpt>
      <trkpt lat="42.4369160" lon="-7.3758230">
        <ele>722.2</ele>
        <time>2014-10-02T08:05:50Z</time>
      </trkpt>
      <trkpt lat="42.4368950" lon="-7.3757750">
        <ele>722.7</ele>
        <time>2014-10-02T08:05:52Z</time>
      </trkpt>
      <trkpt lat="42.4368720" lon="-7.3757330">
        <ele>723.1</ele>
        <time>2014-10-02T08:05:54Z</time>
      </trkpt>
      <trkpt lat="42.4368490" lon="-7.3756860">
        <ele>723.6</ele>
        <time>2014-10-02T08:05:56Z</time>
      </trkpt>
      <trkpt lat="42.4368270" lon="-7.3756360">
        <ele>724.2</ele>
        <time>2014-10-02T08:05:58Z</time>
      </trkpt>
      <trkpt lat="42.4368050" lon="-7.3755860">
        <ele>724.7</ele>
        <time>2014-10-02T08:06:00Z</time>
      </trkpt>
      <trkpt lat="42.4367820" lon="-7.3755350">
        <ele>725.2</ele>
        <time>2014-10-02T08:06:02Z</time>
      </trkpt>
      <trkpt lat="42.4367640" lon="-7.3754840">
        <ele>725.7</ele>
        <time>2014-10-02T08:06:04Z</time>
      </trkpt>
      <trkpt lat="42.4367430" lon="-7.3754260">
        <ele>726.3</ele>
        <time>2014-10-02T08:06:06Z</time>
      </trkpt>
      <trkpt lat="42.4367260" lon="-7.3753690">
        <ele>726.8</ele>
        <time>2014-10-02T08:06:08Z</time>
      </trkpt>
      <trkpt lat="42.4367090" lon="-7.3753170">
        <ele>727.3</ele>
        <time>2014-10-02T08:06:10Z</time>
      </trkpt>
      <trkpt lat="42.4366920" lon="-7.3752660">
        <ele>727.8</ele>
        <time>2014-10-02T08:06:12Z</time>
      </trkpt>
      <trkpt lat="42.4366750" lon="-7.3752140">
        <ele>728.3</ele>
        <time>2014-10-02T08:06:14Z</time>
      </trkpt>
      <trkpt lat="42.4366530" lon="-7.3751610">
        <ele>728.9</ele>
        <time>2014-10-02T08:06:16Z</time>
      </trkpt>
      <trkpt lat="42.4366370" lon="-7.3751100">
        <ele>729.4</ele>
        <time>2014-10-02T08:06:18Z</time>
      </trkpt>
      <trkpt lat="42.4366220" lon="-7.3750550">
        <ele>729.9</ele>
        <time>2014-10-02T08:06:20Z</time>
      </trkpt>
      <trkpt lat="42.4366090" lon="-7.3749950">
        <ele>730.4</ele>
        <time>2014-10-02T08:06:22Z</time>
      </trkpt>
      <trkpt lat="42.4366000" lon="-7.3749310">
        <ele>731.0</ele>
        <time>2014-10-02T08:06:24Z</time>
      </trkpt>
      <trkpt lat="42.4365900" lon="-7.3748620">
        <ele>731.5</ele>
        <time>2014-10-02T08:06:26Z</time>
      </trkpt>
      <trkpt lat="42.4365810" lon="-7.3747950">
        <ele>732.1</ele>
        <time>2014-10-02T08:06:28Z</time>
      </trkpt>
      <trkpt lat="42.4365740" lon="-7.3747270">
        <ele>732.5</ele>
        <time>2014-10-02T08:06:30Z</time>
      </trkpt>
      <trkpt lat="42.4365660" lon="-7.3746630">
        <ele>733.0</ele>
        <time>2014-10-02T08:06:32Z</time>
      </trkpt>
      <trkpt lat="42.4365570" lon="-7.3745950">
        <ele>733.5</ele>
        <time>2014-10-02T08:06:34Z</time>
      </trkpt>
      <trkpt lat="42.4365500" lon="-7.3745230">
        <ele>733.9</ele>
        <time>2014-10-02T08:06:36Z</time>
      </trkpt>
      <trkpt lat="42.4365440" lon="-7.3744540">
        <ele>734.4</ele>
        <time>2014-10-02T08:06:38Z</time>
      </trkpt>
      <trkpt lat="42.4365420" lon="-7.3743850">
        <ele>734.9</ele>
        <time>2014-10-02T08:06:40Z</time>
      </trkpt>
      <trkpt lat="42.4365340" lon="-7.3743180">
        <ele>735.3</ele>
        <time>2014-10-02T08:06:42Z</time>
      </trkpt>
      <trkpt lat="42.4365250" lon="-7.3742520">
        <ele>735.9</ele>
        <time>2014-10-02T08:06:44Z</time>
      </trkpt>
      <trkpt lat="42.4365170" lon="-7.3741850">
        <ele>736.4</ele>
        <time>2014-10-02T08:06:46Z</time>
      </trkpt>
      <trkpt lat="42.4365110" lon="-7.3741180">
        <ele>736.9</ele>
        <time>2014-10-02T08:06:48Z</time>
      </trkpt>
      <trkpt lat="42.4365060" lon="-7.3740530">
        <ele>737.5</ele>
        <time>2014-10-02T08:06:50Z</time>
      </trkpt>
      <trkpt lat="42.4365030" lon="-7.3740170">
        <ele>737.8</ele>
        <time>2014-10-02T08:06:51Z</time>
      </trkpt>
      <trkpt lat="42.4364930" lon="-7.3739490">
        <ele>738.5</ele>
        <time>2014-10-02T08:06:53Z</time>
      </trkpt>
      <trkpt lat="42.4364850" lon="-7.3738800">
        <ele>739.1</ele>
        <time>2014-10-02T08:06:55Z</time>
      </trkpt>
      <trkpt lat="42.4364770" lon="-7.3738130">
        <ele>739.7</ele>
        <time>2014-10-02T08:06:57Z</time>
      </trkpt>
      <trkpt lat="42.4364740" lon="-7.3737750">
        <ele>740.0</ele>
        <time>2014-10-02T08:06:58Z</time>
      </trkpt>
      <trkpt lat="42.4364710" lon="-7.3737360">
        <ele>740.4</ele>
        <time>2014-10-02T08:06:59Z</time>
      </trkpt>
      <trkpt lat="42.4364680" lon="-7.3736660">
        <ele>741.0</ele>
        <time>2014-10-02T08:07:01Z</time>
      </trkpt>
      <trkpt lat="42.4364660" lon="-7.3736060">
        <ele>741.6</ele>
        <time>2014-10-02T08:07:03Z</time>
      </trkpt>
      <trkpt lat="42.4364630" lon="-7.3735450">
        <ele>742.1</ele>
        <time>2014-10-02T08:07:05Z</time>
      </trkpt>
      <trkpt lat="42.4364610" lon="-7.3734800">
        <ele>742.7</ele>
        <time>2014-10-02T08:07:07Z</time>
      </trkpt>
      <trkpt lat="42.4364600" lon="-7.3734430">
        <ele>743.0</ele>
        <time>2014-10-02T08:07:08Z</time>
      </trkpt>
      <trkpt lat="42.4364570" lon="-7.3733740">
        <ele>743.6</ele>
        <time>2014-10-02T08:07:10Z</time>
      </trkpt>
      <trkpt lat="42.4364570" lon="-7.3733370">
        <ele>743.9</ele>
        <time>2014-10-02T08:07:11Z</time>
      </trkpt>
      <trkpt lat="42.4364540" lon="-7.3732610">
        <ele>744.5</ele>
        <time>2014-10-02T08:07:13Z</time>
      </trkpt>
      <trkpt lat="42.4364490" lon="-7.3732170">
        <ele>744.8</ele>
        <time>2014-10-02T08:07:14Z</time>
      </trkpt>
      <trkpt lat="42.4364440" lon="-7.3731700">
        <ele>745.1</ele>
        <time>2014-10-02T08:07:15Z</time>
      </trkpt>
      <trkpt lat="42.4364370" lon="-7.3731240">
        <ele>745.4</ele>
        <time>2014-10-02T08:07:16Z</time>
      </trkpt>
      <trkpt lat="42.4364280" lon="-7.3730770">
        <ele>745.8</ele>
        <time>2014-10-02T08:07:17Z</time>
      </trkpt>
      <trkpt lat="42.4364210" lon="-7.3730200">
        <ele>746.1</ele>
        <time>2014-10-02T08:07:18Z</time>
      </trkpt>
      <trkpt lat="42.4364150" lon="-7.3729730">
        <ele>746.4</ele>
        <time>2014-10-02T08:07:19Z</time>
      </trkpt>
      <trkpt lat="42.4364110" lon="-7.3729350">
        <ele>746.6</ele>
        <time>2014-10-02T08:07:20Z</time>
      </trkpt>
      <trkpt lat="42.4364050" lon="-7.3728970">
        <ele>746.9</ele>
        <time>2014-10-02T08:07:21Z</time>
      </trkpt>
      <trkpt lat="42.4363990" lon="-7.3728570">
        <ele>747.1</ele>
        <time>2014-10-02T08:07:22Z</time>
      </trkpt>
      <trkpt lat="42.4363940" lon="-7.3728200">
        <ele>747.3</ele>
        <time>2014-10-02T08:07:23Z</time>
      </trkpt>
      <trkpt lat="42.4363870" lon="-7.3727800">
        <ele>747.6</ele>
        <time>2014-10-02T08:07:24Z</time>
      </trkpt>
      <trkpt lat="42.4363800" lon="-7.3727440">
        <ele>747.8</ele>
        <time>2014-10-02T08:07:25Z</time>
      </trkpt>
      <trkpt lat="42.4363730" lon="-7.3727070">
        <ele>748.1</ele>
        <time>2014-10-02T08:07:26Z</time>
      </trkpt>
      <trkpt lat="42.4363590" lon="-7.3726390">
        <ele>748.6</ele>
        <time>2014-10-02T08:07:28Z</time>
      </trkpt>
      <trkpt lat="42.4363470" lon="-7.3725790">
        <ele>749.0</ele>
        <time>2014-10-02T08:07:30Z</time>
      </trkpt>
      <trkpt lat="42.4363300" lon="-7.3725190">
        <ele>749.5</ele>
        <time>2014-10-02T08:07:32Z</time>
      </trkpt>
      <trkpt lat="42.4363080" lon="-7.3724650">
        <ele>750.0</ele>
        <time>2014-10-02T08:07:34Z</time>
      </trkpt>
      <trkpt lat="42.4362870" lon="-7.3724130">
        <ele>750.6</ele>
        <time>2014-10-02T08:07:36Z</time>
      </trkpt>
      <trkpt lat="42.4362640" lon="-7.3723640">
        <ele>751.1</ele>
        <time>2014-10-02T08:07:38Z</time>
      </trkpt>
      <trkpt lat="42.4362410" lon="-7.3723170">
        <ele>751.7</ele>
        <time>2014-10-02T08:07:40Z</time>
      </trkpt>
      <trkpt lat="42.4362180" lon="-7.3722670">
        <ele>752.2</ele>
        <time>2014-10-02T08:07:42Z</time>
      </trkpt>
      <trkpt lat="42.4361960" lon="-7.3722150">
        <ele>752.8</ele>
        <time>2014-10-02T08:07:44Z</time>
      </trkpt>
      <trkpt lat="42.4361740" lon="-7.3721680">
        <ele>753.3</ele>
        <time>2014-10-02T08:07:46Z</time>
      </trkpt>
      <trkpt lat="42.4361520" lon="-7.3721210">
        <ele>753.9</ele>
        <time>2014-10-02T08:07:48Z</time>
      </trkpt>
      <trkpt lat="42.4361330" lon="-7.3720790">
        <ele>754.3</ele>
        <time>2014-10-02T08:07:50Z</time>
      </trkpt>
      <trkpt lat="42.4361100" lon="-7.3720370">
        <ele>754.8</ele>
        <time>2014-10-02T08:07:52Z</time>
      </trkpt>
      <trkpt lat="42.4360810" lon="-7.3719900">
        <ele>755.4</ele>
        <time>2014-10-02T08:07:54Z</time>
      </trkpt>
      <trkpt lat="42.4360610" lon="-7.3719570">
        <ele>755.8</ele>
        <time>2014-10-02T08:07:55Z</time>
      </trkpt>
      <trkpt lat="42.4360430" lon="-7.3719250">
        <ele>756.1</ele>
        <time>2014-10-02T08:07:56Z</time>
      </trkpt>
      <trkpt lat="42.4360260" lon="-7.3718940">
        <ele>756.4</ele>
        <time>2014-10-02T08:07:57Z</time>
      </trkpt>
      <trkpt lat="42.4360090" lon="-7.3718660">
        <ele>756.7</ele>
        <time>2014-10-02T08:07:58Z</time>
      </trkpt>
      <trkpt lat="42.4359720" lon="-7.3718100">
        <ele>757.4</ele>
        <time>2014-10-02T08:08:00Z</time>
      </trkpt>
      <trkpt lat="42.4359370" lon="-7.3717640">
        <ele>757.9</ele>
        <time>2014-10-02T08:08:02Z</time>
      </trkpt>
      <trkpt lat="42.4359000" lon="-7.3717190">
        <ele>758.4</ele>
        <time>2014-10-02T08:08:04Z</time>
      </trkpt>
      <trkpt lat="42.4358640" lon="-7.3716740">
        <ele>759.1</ele>
        <time>2014-10-02T08:08:06Z</time>
      </trkpt>
      <trkpt lat="42.4358250" lon="-7.3716260">
        <ele>759.7</ele>
        <time>2014-10-02T08:08:08Z</time>
      </trkpt>
      <trkpt lat="42.4357880" lon="-7.3715790">
        <ele>760.3</ele>
        <time>2014-10-02T08:08:10Z</time>
      </trkpt>
      <trkpt lat="42.4357510" lon="-7.3715310">
        <ele>760.7</ele>
        <time>2014-10-02T08:08:12Z</time>
      </trkpt>
      <trkpt lat="42.4357140" lon="-7.3714810">
        <ele>761.1</ele>
        <time>2014-10-02T08:08:14Z</time>
      </trkpt>
      <trkpt lat="42.4356940" lon="-7.3714570">
        <ele>761.3</ele>
        <time>2014-10-02T08:08:15Z</time>
      </trkpt>
      <trkpt lat="42.4356540" lon="-7.3714000">
        <ele>761.7</ele>
        <time>2014-10-02T08:08:17Z</time>
      </trkpt>
      <trkpt lat="42.4356350" lon="-7.3713660">
        <ele>761.9</ele>
        <time>2014-10-02T08:08:18Z</time>
      </trkpt>
      <trkpt lat="42.4356160" lon="-7.3713320">
        <ele>762.1</ele>
        <time>2014-10-02T08:08:19Z</time>
      </trkpt>
      <trkpt lat="42.4355970" lon="-7.3713000">
        <ele>762.3</ele>
        <time>2014-10-02T08:08:20Z</time>
      </trkpt>
      <trkpt lat="42.4355800" lon="-7.3712690">
        <ele>762.5</ele>
        <time>2014-10-02T08:08:21Z</time>
      </trkpt>
      <trkpt lat="42.4355610" lon="-7.3712340">
        <ele>762.8</ele>
        <time>2014-10-02T08:08:22Z</time>
      </trkpt>
      <trkpt lat="42.4355410" lon="-7.3712010">
        <ele>763.0</ele>
        <time>2014-10-02T08:08:23Z</time>
      </trkpt>
      <trkpt lat="42.4355180" lon="-7.3711700">
        <ele>763.3</ele>
        <time>2014-10-02T08:08:24Z</time>
      </trkpt>
      <trkpt lat="42.4354990" lon="-7.3711370">
        <ele>763.5</ele>
        <time>2014-10-02T08:08:25Z</time>
      </trkpt>
      <trkpt lat="42.4354710" lon="-7.3710820">
        <ele>764.0</ele>
        <time>2014-10-02T08:08:27Z</time>
      </trkpt>
      <trkpt lat="42.4354460" lon="-7.3710290">
        <ele>764.5</ele>
        <time>2014-10-02T08:08:29Z</time>
      </trkpt>
      <trkpt lat="42.4354250" lon="-7.3709960">
        <ele>764.8</ele>
        <time>2014-10-02T08:08:30Z</time>
      </trkpt>
      <trkpt lat="42.4354010" lon="-7.3709660">
        <ele>765.1</ele>
        <time>2014-10-02T08:08:31Z</time>
      </trkpt>
      <trkpt lat="42.4353730" lon="-7.3709390">
        <ele>765.5</ele>
        <time>2014-10-02T08:08:32Z</time>
      </trkpt>
      <trkpt lat="42.4353480" lon="-7.3709240">
        <ele>765.8</ele>
        <time>2014-10-02T08:08:33Z</time>
      </trkpt>
      <trkpt lat="42.4352950" lon="-7.3709070">
        <ele>766.4</ele>
        <time>2014-10-02T08:08:35Z</time>
      </trkpt>
      <trkpt lat="42.4352630" lon="-7.3709010">
        <ele>766.8</ele>
        <time>2014-10-02T08:08:36Z</time>
      </trkpt>
      <trkpt lat="42.4352160" lon="-7.3709040">
        <ele>767.4</ele>
        <time>2014-10-02T08:08:38Z</time>
      </trkpt>
      <trkpt lat="42.4351690" lon="-7.3709250">
        <ele>768.1</ele>
        <time>2014-10-02T08:08:40Z</time>
      </trkpt>
      <trkpt lat="42.4351370" lon="-7.3709580">
        <ele>768.6</ele>
        <time>2014-10-02T08:08:42Z</time>
      </trkpt>
      <trkpt lat="42.4351120" lon="-7.3710030">
        <ele>769.2</ele>
        <time>2014-10-02T08:08:44Z</time>
      </trkpt>
      <trkpt lat="42.4350880" lon="-7.3710480">
        <ele>769.8</ele>
        <time>2014-10-02T08:08:46Z</time>
      </trkpt>
      <trkpt lat="42.4350670" lon="-7.3710920">
        <ele>770.4</ele>
        <time>2014-10-02T08:08:48Z</time>
      </trkpt>
      <trkpt lat="42.4350380" lon="-7.3711450">
        <ele>771.1</ele>
        <time>2014-10-02T08:08:50Z</time>
      </trkpt>
      <trkpt lat="42.4350110" lon="-7.3711940">
        <ele>771.8</ele>
        <time>2014-10-02T08:08:52Z</time>
      </trkpt>
      <trkpt lat="42.4349820" lon="-7.3712460">
        <ele>772.6</ele>
        <time>2014-10-02T08:08:54Z</time>
      </trkpt>
      <trkpt lat="42.4349580" lon="-7.3712890">
        <ele>773.2</ele>
        <time>2014-10-02T08:08:56Z</time>
      </trkpt>
      <trkpt lat="42.4349300" lon="-7.3713350">
        <ele>773.9</ele>
        <time>2014-10-02T08:08:58Z</time>
      </trkpt>
      <trkpt lat="42.4349090" lon="-7.3713800">
        <ele>774.4</ele>
        <time>2014-10-02T08:09:00Z</time>
      </trkpt>
      <trkpt lat="42.4348860" lon="-7.3714260">
        <ele>775.0</ele>
        <time>2014-10-02T08:09:02Z</time>
      </trkpt>
      <trkpt lat="42.4348600" lon="-7.3714840">
        <ele>775.7</ele>
        <time>2014-10-02T08:09:04Z</time>
      </trkpt>
      <trkpt lat="42.4348310" lon="-7.3715400">
        <ele>776.3</ele>
        <time>2014-10-02T08:09:06Z</time>
      </trkpt>
      <trkpt lat="42.4348060" lon="-7.3715940">
        <ele>776.9</ele>
        <time>2014-10-02T08:09:08Z</time>
      </trkpt>
      <trkpt lat="42.4347860" lon="-7.3716510">
        <ele>777.5</ele>
        <time>2014-10-02T08:09:10Z</time>
      </trkpt>
      <trkpt lat="42.4347670" lon="-7.3717070">
        <ele>778.1</ele>
        <time>2014-10-02T08:09:12Z</time>
      </trkpt>
      <trkpt lat="42.4347490" lon="-7.3717550">
        <ele>778.6</ele>
        <time>2014-10-02T08:09:14Z</time>
      </trkpt>
      <trkpt lat="42.4347340" lon="-7.3718070">
        <ele>779.1</ele>
        <time>2014-10-02T08:09:16Z</time>
      </trkpt>
      <trkpt lat="42.4347230" lon="-7.3718590">
        <ele>779.6</ele>
        <time>2014-10-02T08:09:18Z</time>
      </trkpt>
      <trkpt lat="42.4347100" lon="-7.3719140">
        <ele>780.1</ele>
        <time>2014-10-02T08:09:20Z</time>
      </trkpt>
      <trkpt lat="42.4346890" lon="-7.3719670">
        <ele>780.6</ele>
        <time>2014-10-02T08:09:22Z</time>
      </trkpt>
      <trkpt lat="42.4346630" lon="-7.3720220">
        <ele>781.2</ele>
        <time>2014-10-02T08:09:24Z</time>
      </trkpt>
      <trkpt lat="42.4346360" lon="-7.3720730">
        <ele>781.7</ele>
        <time>2014-10-02T08:09:26Z</time>
      </trkpt>
      <trkpt lat="42.4346090" lon="-7.3721190">
        <ele>782.2</ele>
        <time>2014-10-02T08:09:28Z</time>
      </trkpt>
      <trkpt lat="42.4345770" lon="-7.3721600">
        <ele>782.8</ele>
        <time>2014-10-02T08:09:30Z</time>
      </trkpt>
      <trkpt lat="42.4345500" lon="-7.3722010">
        <ele>783.3</ele>
        <time>2014-10-02T08:09:32Z</time>
      </trkpt>
      <trkpt lat="42.4345240" lon="-7.3722430">
        <ele>783.9</ele>
        <time>2014-10-02T08:09:34Z</time>
      </trkpt>
      <trkpt lat="42.4345020" lon="-7.3722820">
        <ele>784.4</ele>
        <time>2014-10-02T08:09:36Z</time>
      </trkpt>
      <trkpt lat="42.4344730" lon="-7.3723190">
        <ele>785.0</ele>
        <time>2014-10-02T08:09:38Z</time>
      </trkpt>
      <trkpt lat="42.4344430" lon="-7.3723560">
        <ele>785.6</ele>
        <time>2014-10-02T08:09:40Z</time>
      </trkpt>
      <trkpt lat="42.4344150" lon="-7.3723930">
        <ele>786.1</ele>
        <time>2014-10-02T08:09:42Z</time>
      </trkpt>
      <trkpt lat="42.4343840" lon="-7.3724310">
        <ele>786.7</ele>
        <time>2014-10-02T08:09:44Z</time>
      </trkpt>
      <trkpt lat="42.4343530" lon="-7.3724700">
        <ele>787.3</ele>
        <time>2014-10-02T08:09:46Z</time>
      </trkpt>
      <trkpt lat="42.4343230" lon="-7.3725120">
        <ele>787.8</ele>
        <time>2014-10-02T08:09:48Z</time>
      </trkpt>
      <trkpt lat="42.4342880" lon="-7.3725520">
        <ele>788.3</ele>
        <time>2014-10-02T08:09:50Z</time>
      </trkpt>
      <trkpt lat="42.4342550" lon="-7.3725950">
        <ele>788.8</ele>
        <time>2014-10-02T08:09:52Z</time>
      </trkpt>
      <trkpt lat="42.4342190" lon="-7.3726330">
        <ele>789.3</ele>
        <time>2014-10-02T08:09:54Z</time>
      </trkpt>
      <trkpt lat="42.4341800" lon="-7.3726740">
        <ele>789.9</ele>
        <time>2014-10-02T08:09:56Z</time>
      </trkpt>
      <trkpt lat="42.4341600" lon="-7.3727000">
        <ele>790.1</ele>
        <time>2014-10-02T08:09:57Z</time>
      </trkpt>
      <trkpt lat="42.4341370" lon="-7.3727250">
        <ele>790.4</ele>
        <time>2014-10-02T08:09:58Z</time>
      </trkpt>
      <trkpt lat="42.4341150" lon="-7.3727470">
        <ele>790.6</ele>
        <time>2014-10-02T08:09:59Z</time>
      </trkpt>
      <trkpt lat="42.4340910" lon="-7.3727710">
        <ele>790.9</ele>
        <time>2014-10-02T08:10:00Z</time>
      </trkpt>
      <trkpt lat="42.4340600" lon="-7.3727920">
        <ele>791.1</ele>
        <time>2014-10-02T08:10:01Z</time>
      </trkpt>
      <trkpt lat="42.4340260" lon="-7.3728180">
        <ele>791.4</ele>
        <time>2014-10-02T08:10:02Z</time>
      </trkpt>
      <trkpt lat="42.4339970" lon="-7.3728400">
        <ele>791.6</ele>
        <time>2014-10-02T08:10:03Z</time>
      </trkpt>
      <trkpt lat="42.4339680" lon="-7.3728610">
        <ele>791.8</ele>
        <time>2014-10-02T08:10:04Z</time>
      </trkpt>
      <trkpt lat="42.4339390" lon="-7.3728810">
        <ele>791.9</ele>
        <time>2014-10-02T08:10:05Z</time>
      </trkpt>
      <trkpt lat="42.4339080" lon="-7.3729020">
        <ele>792.1</ele>
        <time>2014-10-02T08:10:06Z</time>
      </trkpt>
      <trkpt lat="42.4338780" lon="-7.3729230">
        <ele>792.2</ele>
        <time>2014-10-02T08:10:07Z</time>
      </trkpt>
      <trkpt lat="42.4338510" lon="-7.3729410">
        <ele>792.4</ele>
        <time>2014-10-02T08:10:08Z</time>
      </trkpt>
      <trkpt lat="42.4338200" lon="-7.3729600">
        <ele>792.5</ele>
        <time>2014-10-02T08:10:09Z</time>
      </trkpt>
      <trkpt lat="42.4337890" lon="-7.3729750">
        <ele>792.8</ele>
        <time>2014-10-02T08:10:10Z</time>
      </trkpt>
      <trkpt lat="42.4337600" lon="-7.3729870">
        <ele>793.0</ele>
        <time>2014-10-02T08:10:11Z</time>
      </trkpt>
      <trkpt lat="42.4337290" lon="-7.3729960">
        <ele>793.3</ele>
        <time>2014-10-02T08:10:12Z</time>
      </trkpt>
      <trkpt lat="42.4336980" lon="-7.3730050">
        <ele>793.5</ele>
        <time>2014-10-02T08:10:13Z</time>
      </trkpt>
      <trkpt lat="42.4336660" lon="-7.3730130">
        <ele>793.8</ele>
        <time>2014-10-02T08:10:14Z</time>
      </trkpt>
      <trkpt lat="42.4336370" lon="-7.3730160">
        <ele>794.0</ele>
        <time>2014-10-02T08:10:15Z</time>
      </trkpt>
      <trkpt lat="42.4336050" lon="-7.3730200">
        <ele>794.2</ele>
        <time>2014-10-02T08:10:16Z</time>
      </trkpt>
      <trkpt lat="42.4335750" lon="-7.3730200">
        <ele>794.3</ele>
        <time>2014-10-02T08:10:17Z</time>
      </trkpt>
      <trkpt lat="42.4335460" lon="-7.3730170">
        <ele>794.5</ele>
        <time>2014-10-02T08:10:18Z</time>
      </trkpt>
      <trkpt lat="42.4335100" lon="-7.3730100">
        <ele>794.7</ele>
        <time>2014-10-02T08:10:19Z</time>
      </trkpt>
      <trkpt lat="42.4334800" lon="-7.3730010">
        <ele>794.9</ele>
        <time>2014-10-02T08:10:20Z</time>
      </trkpt>
      <trkpt lat="42.4334530" lon="-7.3729900">
        <ele>795.1</ele>
        <time>2014-10-02T08:10:21Z</time>
      </trkpt>
      <trkpt lat="42.4334280" lon="-7.3729770">
        <ele>795.3</ele>
        <time>2014-10-02T08:10:22Z</time>
      </trkpt>
      <trkpt lat="42.4333990" lon="-7.3729630">
        <ele>795.6</ele>
        <time>2014-10-02T08:10:23Z</time>
      </trkpt>
      <trkpt lat="42.4333700" lon="-7.3729460">
        <ele>795.9</ele>
        <time>2014-10-02T08:10:24Z</time>
      </trkpt>
      <trkpt lat="42.4333410" lon="-7.3729290">
        <ele>796.2</ele>
        <time>2014-10-02T08:10:25Z</time>
      </trkpt>
      <trkpt lat="42.4333130" lon="-7.3729110">
        <ele>796.4</ele>
        <time>2014-10-02T08:10:26Z</time>
      </trkpt>
      <trkpt lat="42.4332880" lon="-7.3728950">
        <ele>796.7</ele>
        <time>2014-10-02T08:10:27Z</time>
      </trkpt>
      <trkpt lat="42.4332400" lon="-7.3728630">
        <ele>797.2</ele>
        <time>2014-10-02T08:10:29Z</time>
      </trkpt>
      <trkpt lat="42.4332150" lon="-7.3728490">
        <ele>797.4</ele>
        <time>2014-10-02T08:10:30Z</time>
      </trkpt>
      <trkpt lat="42.4331700" lon="-7.3728220">
        <ele>797.9</ele>
        <time>2014-10-02T08:10:32Z</time>
      </trkpt>
      <trkpt lat="42.4331250" lon="-7.3727840">
        <ele>798.5</ele>
        <time>2014-10-02T08:10:34Z</time>
      </trkpt>
      <trkpt lat="42.4330860" lon="-7.3727470">
        <ele>798.9</ele>
        <time>2014-10-02T08:10:36Z</time>
      </trkpt>
      <trkpt lat="42.4330400" lon="-7.3727130">
        <ele>799.5</ele>
        <time>2014-10-02T08:10:38Z</time>
      </trkpt>
      <trkpt lat="42.4329950" lon="-7.3726860">
        <ele>800.0</ele>
        <time>2014-10-02T08:10:40Z</time>
      </trkpt>
      <trkpt lat="42.4329530" lon="-7.3726580">
        <ele>800.5</ele>
        <time>2014-10-02T08:10:42Z</time>
      </trkpt>
      <trkpt lat="42.4329170" lon="-7.3726270">
        <ele>801.1</ele>
        <time>2014-10-02T08:10:44Z</time>
      </trkpt>
      <trkpt lat="42.4328760" lon="-7.3725920">
        <ele>801.7</ele>
        <time>2014-10-02T08:10:46Z</time>
      </trkpt>
      <trkpt lat="42.4328350" lon="-7.3725600">
        <ele>802.2</ele>
        <time>2014-10-02T08:10:48Z</time>
      </trkpt>
      <trkpt lat="42.4327970" lon="-7.3725320">
        <ele>802.8</ele>
        <time>2014-10-02T08:10:50Z</time>
      </trkpt>
      <trkpt lat="42.4327580" lon="-7.3725100">
        <ele>803.3</ele>
        <time>2014-10-02T08:10:52Z</time>
      </trkpt>
      <trkpt lat="42.4327150" lon="-7.3724830">
        <ele>803.9</ele>
        <time>2014-10-02T08:10:54Z</time>
      </trkpt>
      <trkpt lat="42.4326680" lon="-7.3724540">
        <ele>804.4</ele>
        <time>2014-10-02T08:10:56Z</time>
      </trkpt>
      <trkpt lat="42.4326250" lon="-7.3724290">
        <ele>804.9</ele>
        <time>2014-10-02T08:10:58Z</time>
      </trkpt>
      <trkpt lat="42.4325770" lon="-7.3723940">
        <ele>805.4</ele>
        <time>2014-10-02T08:11:00Z</time>
      </trkpt>
      <trkpt lat="42.4325310" lon="-7.3723610">
        <ele>805.9</ele>
        <time>2014-10-02T08:11:02Z</time>
      </trkpt>
      <trkpt lat="42.4324870" lon="-7.3723370">
        <ele>806.4</ele>
        <time>2014-10-02T08:11:04Z</time>
      </trkpt>
      <trkpt lat="42.4324390" lon="-7.3723120">
        <ele>806.9</ele>
        <time>2014-10-02T08:11:06Z</time>
      </trkpt>
      <trkpt lat="42.4324130" lon="-7.3722990">
        <ele>807.2</ele>
        <time>2014-10-02T08:11:07Z</time>
      </trkpt>
      <trkpt lat="42.4323870" lon="-7.3722830">
        <ele>807.4</ele>
        <time>2014-10-02T08:11:08Z</time>
      </trkpt>
      <trkpt lat="42.4323610" lon="-7.3722660">
        <ele>807.7</ele>
        <time>2014-10-02T08:11:09Z</time>
      </trkpt>
      <trkpt lat="42.4323360" lon="-7.3722510">
        <ele>807.9</ele>
        <time>2014-10-02T08:11:10Z</time>
      </trkpt>
      <trkpt lat="42.4322900" lon="-7.3722150">
        <ele>808.3</ele>
        <time>2014-10-02T08:11:12Z</time>
      </trkpt>
      <trkpt lat="42.4322660" lon="-7.3721960">
        <ele>808.6</ele>
        <time>2014-10-02T08:11:13Z</time>
      </trkpt>
      <trkpt lat="42.4322410" lon="-7.3721770">
        <ele>808.8</ele>
        <time>2014-10-02T08:11:14Z</time>
      </trkpt>
      <trkpt lat="42.4322160" lon="-7.3721560">
        <ele>809.0</ele>
        <time>2014-10-02T08:11:15Z</time>
      </trkpt>
      <trkpt lat="42.4321890" lon="-7.3721340">
        <ele>809.2</ele>
        <time>2014-10-02T08:11:16Z</time>
      </trkpt>
      <trkpt lat="42.4321610" lon="-7.3721150">
        <ele>809.4</ele>
        <time>2014-10-02T08:11:17Z</time>
      </trkpt>
      <trkpt lat="42.4321360" lon="-7.3720970">
        <ele>809.7</ele>
        <time>2014-10-02T08:11:18Z</time>
      </trkpt>
      <trkpt lat="42.4321110" lon="-7.3720780">
        <ele>809.9</ele>
        <time>2014-10-02T08:11:19Z</time>
      </trkpt>
      <trkpt lat="42.4320640" lon="-7.3720450">
        <ele>810.3</ele>
        <time>2014-10-02T08:11:21Z</time>
      </trkpt>
      <trkpt lat="42.4320400" lon="-7.3720250">
        <ele>810.5</ele>
        <time>2014-10-02T08:11:22Z</time>
      </trkpt>
      <trkpt lat="42.4320160" lon="-7.3720050">
        <ele>810.6</ele>
        <time>2014-10-02T08:11:23Z</time>
      </trkpt>
      <trkpt lat="42.4319930" lon="-7.3719840">
        <ele>810.8</ele>
        <time>2014-10-02T08:11:24Z</time>
      </trkpt>
      <trkpt lat="42.4319700" lon="-7.3719630">
        <ele>811.0</ele>
        <time>2014-10-02T08:11:25Z</time>
      </trkpt>
      <trkpt lat="42.4319430" lon="-7.3719400">
        <ele>811.2</ele>
        <time>2014-10-02T08:11:26Z</time>
      </trkpt>
      <trkpt lat="42.4319010" lon="-7.3718980">
        <ele>811.5</ele>
        <time>2014-10-02T08:11:28Z</time>
      </trkpt>
      <trkpt lat="42.4318740" lon="-7.3718770">
        <ele>811.7</ele>
        <time>2014-10-02T08:11:29Z</time>
      </trkpt>
      <trkpt lat="42.4318450" lon="-7.3718490">
        <ele>812.0</ele>
        <time>2014-10-02T08:11:30Z</time>
      </trkpt>
      <trkpt lat="42.4318140" lon="-7.3718190">
        <ele>812.2</ele>
        <time>2014-10-02T08:11:31Z</time>
      </trkpt>
      <trkpt lat="42.4317830" lon="-7.3717900">
        <ele>812.4</ele>
        <time>2014-10-02T08:11:32Z</time>
      </trkpt>
      <trkpt lat="42.4317550" lon="-7.3717630">
        <ele>812.6</ele>
        <time>2014-10-02T08:11:33Z</time>
      </trkpt>
      <trkpt lat="42.4317270" lon="-7.3717330">
        <ele>812.9</ele>
        <time>2014-10-02T08:11:34Z</time>
      </trkpt>
      <trkpt lat="42.4317040" lon="-7.3717060">
        <ele>813.1</ele>
        <time>2014-10-02T08:11:35Z</time>
      </trkpt>
      <trkpt lat="42.4316800" lon="-7.3716790">
        <ele>813.3</ele>
        <time>2014-10-02T08:11:36Z</time>
      </trkpt>
      <trkpt lat="42.4316570" lon="-7.3716540">
        <ele>813.5</ele>
        <time>2014-10-02T08:11:37Z</time>
      </trkpt>
      <trkpt lat="42.4316310" lon="-7.3716320">
        <ele>813.8</ele>
        <time>2014-10-02T08:11:38Z</time>
      </trkpt>
      <trkpt lat="42.4316050" lon="-7.3716110">
        <ele>814.0</ele>
        <time>2014-10-02T08:11:39Z</time>
      </trkpt>
      <trkpt lat="42.4315810" lon="-7.3715930">
        <ele>814.2</ele>
        <time>2014-10-02T08:11:40Z</time>
      </trkpt>
      <trkpt lat="42.4315580" lon="-7.3715730">
        <ele>814.5</ele>
        <time>2014-10-02T08:11:41Z</time>
      </trkpt>
      <trkpt lat="42.4315170" lon="-7.3715350">
        <ele>815.0</ele>
        <time>2014-10-02T08:11:43Z</time>
      </trkpt>
      <trkpt lat="42.4314790" lon="-7.3714960">
        <ele>815.5</ele>
        <time>2014-10-02T08:11:45Z</time>
      </trkpt>
      <trkpt lat="42.4314400" lon="-7.3714560">
        <ele>816.0</ele>
        <time>2014-10-02T08:11:47Z</time>
      </trkpt>
      <trkpt lat="42.4314010" lon="-7.3714220">
        <ele>816.6</ele>
        <time>2014-10-02T08:11:49Z</time>
      </trkpt>
      <trkpt lat="42.4313640" lon="-7.3713900">
        <ele>817.2</ele>
        <time>2014-10-02T08:11:51Z</time>
      </trkpt>
      <trkpt lat="42.4313300" lon="-7.3713590">
        <ele>817.8</ele>
        <time>2014-10-02T08:11:53Z</time>
      </trkpt>
      <trkpt lat="42.4312980" lon="-7.3713310">
        <ele>818.3</ele>
        <time>2014-10-02T08:11:55Z</time>
      </trkpt>
      <trkpt lat="42.4312670" lon="-7.3713070">
        <ele>818.9</ele>
        <time>2014-10-02T08:11:57Z</time>
      </trkpt>
      <trkpt lat="42.4312440" lon="-7.3712800">
        <ele>819.4</ele>
        <time>2014-10-02T08:11:59Z</time>
      </trkpt>
      <trkpt lat="42.4312210" lon="-7.3712470">
        <ele>820.0</ele>
        <time>2014-10-02T08:12:01Z</time>
      </trkpt>
      <trkpt lat="42.4312080" lon="-7.3712050">
        <ele>820.5</ele>
        <time>2014-10-02T08:12:03Z</time>
      </trkpt>
      <trkpt lat="42.4312100" lon="-7.3711580">
        <ele>821.4</ele>
        <time>2014-10-02T08:12:05Z</time>
      </trkpt>
      <trkpt lat="42.4312260" lon="-7.3711070">
        <ele>822.1</ele>
        <time>2014-10-02T08:12:07Z</time>
      </trkpt>
      <trkpt lat="42.4312530" lon="-7.3710610">
        <ele>822.9</ele>
        <time>2014-10-02T08:12:09Z</time>
      </trkpt>
      <trkpt lat="42.4312850" lon="-7.3710320">
        <ele>823.6</ele>
        <time>2014-10-02T08:12:11Z</time>
      </trkpt>
      <trkpt lat="42.4313210" lon="-7.3710170">
        <ele>824.2</ele>
        <time>2014-10-02T08:12:13Z</time>
      </trkpt>
      <trkpt lat="42.4313570" lon="-7.3710100">
        <ele>824.7</ele>
        <time>2014-10-02T08:12:15Z</time>
      </trkpt>
      <trkpt lat="42.4313970" lon="-7.3710170">
        <ele>825.2</ele>
        <time>2014-10-02T08:12:17Z</time>
      </trkpt>
      <trkpt lat="42.4314360" lon="-7.3710350">
        <ele>825.8</ele>
        <time>2014-10-02T08:12:19Z</time>
      </trkpt>
      <trkpt lat="42.4314780" lon="-7.3710600">
        <ele>826.3</ele>
        <time>2014-10-02T08:12:21Z</time>
      </trkpt>
      <trkpt lat="42.4315160" lon="-7.3710790">
        <ele>826.8</ele>
        <time>2014-10-02T08:12:23Z</time>
      </trkpt>
      <trkpt lat="42.4315600" lon="-7.3710970">
        <ele>827.3</ele>
        <time>2014-10-02T08:12:25Z</time>
      </trkpt>
      <trkpt lat="42.4315980" lon="-7.3711150">
        <ele>827.8</ele>
        <time>2014-10-02T08:12:27Z</time>
      </trkpt>
      <trkpt lat="42.4316390" lon="-7.3711370">
        <ele>828.2</ele>
        <time>2014-10-02T08:12:29Z</time>
      </trkpt>
      <trkpt lat="42.4316820" lon="-7.3711580">
        <ele>828.7</ele>
        <time>2014-10-02T08:12:31Z</time>
      </trkpt>
      <trkpt lat="42.4317320" lon="-7.3711840">
        <ele>829.2</ele>
        <time>2014-10-02T08:12:33Z</time>
      </trkpt>
      <trkpt lat="42.4317840" lon="-7.3712100">
        <ele>829.7</ele>
        <time>2014-10-02T08:12:35Z</time>
      </trkpt>
      <trkpt lat="42.4318110" lon="-7.3712220">
        <ele>829.9</ele>
        <time>2014-10-02T08:12:36Z</time>
      </trkpt>
      <trkpt lat="42.4318640" lon="-7.3712480">
        <ele>830.4</ele>
        <time>2014-10-02T08:12:38Z</time>
      </trkpt>
      <trkpt lat="42.4318920" lon="-7.3712650">
        <ele>830.6</ele>
        <time>2014-10-02T08:12:39Z</time>
      </trkpt>
      <trkpt lat="42.4319200" lon="-7.3712760">
        <ele>830.8</ele>
        <time>2014-10-02T08:12:40Z</time>
      </trkpt>
      <trkpt lat="42.4319480" lon="-7.3712900">
        <ele>831.0</ele>
        <time>2014-10-02T08:12:41Z</time>
      </trkpt>
      <trkpt lat="42.4319770" lon="-7.3713050">
        <ele>831.2</ele>
        <time>2014-10-02T08:12:42Z</time>
      </trkpt>
      <trkpt lat="42.4320070" lon="-7.3713210">
        <ele>831.4</ele>
        <time>2014-10-02T08:12:43Z</time>
      </trkpt>
      <trkpt lat="42.4320420" lon="-7.3713370">
        <ele>831.7</ele>
        <time>2014-10-02T08:12:44Z</time>
      </trkpt>
      <trkpt lat="42.4320780" lon="-7.3713560">
        <ele>831.9</ele>
        <time>2014-10-02T08:12:45Z</time>
      </trkpt>
      <trkpt lat="42.4321110" lon="-7.3713710">
        <ele>832.1</ele>
        <time>2014-10-02T08:12:46Z</time>
      </trkpt>
      <trkpt lat="42.4321430" lon="-7.3713790">
        <ele>832.3</ele>
        <time>2014-10-02T08:12:47Z</time>
      </trkpt>
      <trkpt lat="42.4321710" lon="-7.3713880">
        <ele>832.5</ele>
        <time>2014-10-02T08:12:48Z</time>
      </trkpt>
      <trkpt lat="42.4322030" lon="-7.3713960">
        <ele>832.7</ele>
        <time>2014-10-02T08:12:49Z</time>
      </trkpt>
      <trkpt lat="42.4322330" lon="-7.3714090">
        <ele>832.8</ele>
        <time>2014-10-02T08:12:50Z</time>
      </trkpt>
      <trkpt lat="42.4322660" lon="-7.3714230">
        <ele>833.0</ele>
        <time>2014-10-02T08:12:51Z</time>
      </trkpt>
      <trkpt lat="42.4322960" lon="-7.3714330">
        <ele>833.2</ele>
        <time>2014-10-02T08:12:52Z</time>
      </trkpt>
      <trkpt lat="42.4323270" lon="-7.3714430">
        <ele>833.3</ele>
        <time>2014-10-02T08:12:53Z</time>
      </trkpt>
      <trkpt lat="42.4323590" lon="-7.3714540">
        <ele>833.5</ele>
        <time>2014-10-02T08:12:54Z</time>
      </trkpt>
      <trkpt lat="42.4323920" lon="-7.3714650">
        <ele>833.7</ele>
        <time>2014-10-02T08:12:55Z</time>
      </trkpt>
      <trkpt lat="42.4324230" lon="-7.3714760">
        <ele>833.9</ele>
        <time>2014-10-02T08:12:56Z</time>
      </trkpt>
      <trkpt lat="42.4324580" lon="-7.3714880">
        <ele>834.1</ele>
        <time>2014-10-02T08:12:57Z</time>
      </trkpt>
      <trkpt lat="42.4324880" lon="-7.3714940">
        <ele>834.2</ele>
        <time>2014-10-02T08:12:58Z</time>
      </trkpt>
      <trkpt lat="42.4325190" lon="-7.3715000">
        <ele>834.3</ele>
        <time>2014-10-02T08:12:59Z</time>
      </trkpt>
      <trkpt lat="42.4325480" lon="-7.3715050">
        <ele>834.5</ele>
        <time>2014-10-02T08:13:00Z</time>
      </trkpt>
      <trkpt lat="42.4325810" lon="-7.3715110">
        <ele>834.6</ele>
        <time>2014-10-02T08:13:01Z</time>
      </trkpt>
      <trkpt lat="42.4326190" lon="-7.3715170">
        <ele>834.8</ele>
        <time>2014-10-02T08:13:02Z</time>
      </trkpt>
      <trkpt lat="42.4326540" lon="-7.3715210">
        <ele>834.9</ele>
        <time>2014-10-02T08:13:03Z</time>
      </trkpt>
      <trkpt lat="42.4326890" lon="-7.3715250">
        <ele>835.0</ele>
        <time>2014-10-02T08:13:04Z</time>
      </trkpt>
      <trkpt lat="42.4327250" lon="-7.3715290">
        <ele>835.2</ele>
        <time>2014-10-02T08:13:05Z</time>
      </trkpt>
      <trkpt lat="42.4327640" lon="-7.3715310">
        <ele>835.3</ele>
        <time>2014-10-02T08:13:06Z</time>
      </trkpt>
      <trkpt lat="42.4328030" lon="-7.3715310">
        <ele>835.4</ele>
        <time>2014-10-02T08:13:07Z</time>
      </trkpt>
      <trkpt lat="42.4328430" lon="-7.3715300">
        <ele>835.6</ele>
        <time>2014-10-02T08:13:08Z</time>
      </trkpt>
      <trkpt lat="42.4328840" lon="-7.3715290">
        <ele>835.7</ele>
        <time>2014-10-02T08:13:09Z</time>
      </trkpt>
      <trkpt lat="42.4329250" lon="-7.3715280">
        <ele>835.9</ele>
        <time>2014-10-02T08:13:10Z</time>
      </trkpt>
      <trkpt lat="42.4329660" lon="-7.3715260">
        <ele>836.0</ele>
        <time>2014-10-02T08:13:11Z</time>
      </trkpt>
      <trkpt lat="42.4330070" lon="-7.3715220">
        <ele>836.2</ele>
        <time>2014-10-02T08:13:12Z</time>
      </trkpt>
      <trkpt lat="42.4330480" lon="-7.3715140">
        <ele>836.3</ele>
        <time>2014-10-02T08:13:13Z</time>
      </trkpt>
      <trkpt lat="42.4330880" lon="-7.3715020">
        <ele>836.5</ele>
        <time>2014-10-02T08:13:14Z</time>
      </trkpt>
      <trkpt lat="42.4331280" lon="-7.3714870">
        <ele>836.7</ele>
        <time>2014-10-02T08:13:15Z</time>
      </trkpt>
      <trkpt lat="42.4331650" lon="-7.3714650">
        <ele>836.8</ele>
        <time>2014-10-02T08:13:16Z</time>
      </trkpt>
      <trkpt lat="42.4332010" lon="-7.3714390">
        <ele>837.0</ele>
        <time>2014-10-02T08:13:17Z</time>
      </trkpt>
      <trkpt lat="42.4332370" lon="-7.3714150">
        <ele>837.2</ele>
        <time>2014-10-02T08:13:18Z</time>
      </trkpt>
      <trkpt lat="42.4332720" lon="-7.3713910">
        <ele>837.4</ele>
        <time>2014-10-02T08:13:19Z</time>
      </trkpt>
      <trkpt lat="42.4333040" lon="-7.3713670">
        <ele>837.7</ele>
        <time>2014-10-02T08:13:20Z</time>
      </trkpt>
      <trkpt lat="42.4333330" lon="-7.3713400">
        <ele>837.9</ele>
        <time>2014-10-02T08:13:21Z</time>
      </trkpt>
      <trkpt lat="42.4333600" lon="-7.3713100">
        <ele>838.1</ele>
        <time>2014-10-02T08:13:22Z</time>
      </trkpt>
      <trkpt lat="42.4333850" lon="-7.3712810">
        <ele>838.4</ele>
        <time>2014-10-02T08:13:23Z</time>
      </trkpt>
      <trkpt lat="42.4334060" lon="-7.3712470">
        <ele>838.7</ele>
        <time>2014-10-02T08:13:24Z</time>
      </trkpt>
      <trkpt lat="42.4334240" lon="-7.3712140">
        <ele>839.0</ele>
        <time>2014-10-02T08:13:25Z</time>
      </trkpt>
      <trkpt lat="42.4334520" lon="-7.3711560">
        <ele>839.5</ele>
        <time>2014-10-02T08:13:27Z</time>
      </trkpt>
      <trkpt lat="42.4334750" lon="-7.3710960">
        <ele>840.1</ele>
        <time>2014-10-02T08:13:29Z</time>
      </trkpt>
      <trkpt lat="42.4334880" lon="-7.3710340">
        <ele>840.7</ele>
        <time>2014-10-02T08:13:31Z</time>
      </trkpt>
      <trkpt lat="42.4334960" lon="-7.3709750">
        <ele>841.3</ele>
        <time>2014-10-02T08:13:33Z</time>
      </trkpt>
      <trkpt lat="42.4334990" lon="-7.3709180">
        <ele>842.0</ele>
        <time>2014-10-02T08:13:35Z</time>
      </trkpt>
      <trkpt lat="42.4334970" lon="-7.3708610">
        <ele>842.6</ele>
        <time>2014-10-02T08:13:37Z</time>
      </trkpt>
      <trkpt lat="42.4334950" lon="-7.3708100">
        <ele>843.3</ele>
        <time>2014-10-02T08:13:39Z</time>
      </trkpt>
      <trkpt lat="42.4334890" lon="-7.3707600">
        <ele>843.9</ele>
        <time>2014-10-02T08:13:41Z</time>
      </trkpt>
      <trkpt lat="42.4334860" lon="-7.3707100">
        <ele>844.5</ele>
        <time>2014-10-02T08:13:43Z</time>
      </trkpt>
      <trkpt lat="42.4334840" lon="-7.3706540">
        <ele>845.2</ele>
        <time>2014-10-02T08:13:45Z</time>
      </trkpt>
      <trkpt lat="42.4334810" lon="-7.3705960">
        <ele>846.0</ele>
        <time>2014-10-02T08:13:47Z</time>
      </trkpt>
      <trkpt lat="42.4334760" lon="-7.3705440">
        <ele>846.7</ele>
        <time>2014-10-02T08:13:49Z</time>
      </trkpt>
      <trkpt lat="42.4334710" lon="-7.3704920">
        <ele>847.4</ele>
        <time>2014-10-02T08:13:51Z</time>
      </trkpt>
      <trkpt lat="42.4334690" lon="-7.3704430">
        <ele>848.0</ele>
        <time>2014-10-02T08:13:53Z</time>
      </trkpt>
      <trkpt lat="42.4334670" lon="-7.3703960">
        <ele>848.6</ele>
        <time>2014-10-02T08:13:55Z</time>
      </trkpt>
      <trkpt lat="42.4334660" lon="-7.3703500">
        <ele>849.2</ele>
        <time>2014-10-02T08:13:57Z</time>
      </trkpt>
      <trkpt lat="42.4334640" lon="-7.3703120">
        <ele>849.7</ele>
        <time>2014-10-02T08:13:59Z</time>
      </trkpt>
      <trkpt lat="42.4334590" lon="-7.3702640">
        <ele>850.3</ele>
        <time>2014-10-02T08:14:02Z</time>
      </trkpt>
      <trkpt lat="42.4334540" lon="-7.3702090">
        <ele>851.1</ele>
        <time>2014-10-02T08:14:05Z</time>
      </trkpt>
      <trkpt lat="42.4334470" lon="-7.3701690">
        <ele>851.6</ele>
        <time>2014-10-02T08:14:07Z</time>
      </trkpt>
      <trkpt lat="42.4334400" lon="-7.3701260">
        <ele>852.2</ele>
        <time>2014-10-02T08:14:09Z</time>
      </trkpt>
      <trkpt lat="42.4334360" lon="-7.3700790">
        <ele>852.9</ele>
        <time>2014-10-02T08:14:11Z</time>
      </trkpt>
      <trkpt lat="42.4334300" lon="-7.3700310">
        <ele>853.5</ele>
        <time>2014-10-02T08:14:13Z</time>
      </trkpt>
      <trkpt lat="42.4334290" lon="-7.3699850">
        <ele>854.2</ele>
        <time>2014-10-02T08:14:15Z</time>
      </trkpt>
      <trkpt lat="42.4334230" lon="-7.3699370">
        <ele>854.8</ele>
        <time>2014-10-02T08:14:17Z</time>
      </trkpt>
      <trkpt lat="42.4334110" lon="-7.3698960">
        <ele>855.4</ele>
        <time>2014-10-02T08:14:19Z</time>
      </trkpt>
      <trkpt lat="42.4333980" lon="-7.3698440">
        <ele>856.2</ele>
        <time>2014-10-02T08:14:21Z</time>
      </trkpt>
      <trkpt lat="42.4333840" lon="-7.3698020">
        <ele>856.8</ele>
        <time>2014-10-02T08:14:23Z</time>
      </trkpt>
      <trkpt lat="42.4333640" lon="-7.3697670">
        <ele>857.4</ele>
        <time>2014-10-02T08:14:25Z</time>
      </trkpt>
      <trkpt lat="42.4333230" lon="-7.3697260">
        <ele>858.3</ele>
        <time>2014-10-02T08:14:27Z</time>
      </trkpt>
      <trkpt lat="42.4332800" lon="-7.3697140">
        <ele>859.1</ele>
        <time>2014-10-02T08:14:29Z</time>
      </trkpt>
      <trkpt lat="42.4332450" lon="-7.3697230">
        <ele>859.6</ele>
        <time>2014-10-02T08:14:31Z</time>
      </trkpt>
      <trkpt lat="42.4332180" lon="-7.3697420">
        <ele>860.0</ele>
        <time>2014-10-02T08:14:33Z</time>
      </trkpt>
      <trkpt lat="42.4331930" lon="-7.3697680">
        <ele>860.5</ele>
        <time>2014-10-02T08:14:35Z</time>
      </trkpt>
      <trkpt lat="42.4331680" lon="-7.3698120">
        <ele>861.0</ele>
        <time>2014-10-02T08:14:37Z</time>
      </trkpt>
      <trkpt lat="42.4331460" lon="-7.3698700">
        <ele>861.6</ele>
        <time>2014-10-02T08:14:39Z</time>
      </trkpt>
      <trkpt lat="42.4331280" lon="-7.3699270">
        <ele>862.2</ele>
        <time>2014-10-02T08:14:41Z</time>
      </trkpt>
      <trkpt lat="42.4331160" lon="-7.3699880">
        <ele>862.7</ele>
        <time>2014-10-02T08:14:43Z</time>
      </trkpt>
      <trkpt lat="42.4331060" lon="-7.3700550">
        <ele>863.2</ele>
        <time>2014-10-02T08:14:45Z</time>
      </trkpt>
      <trkpt lat="42.4330980" lon="-7.3700920">
        <ele>863.5</ele>
        <time>2014-10-02T08:14:46Z</time>
      </trkpt>
      <trkpt lat="42.4330800" lon="-7.3701610">
        <ele>864.1</ele>
        <time>2014-10-02T08:14:48Z</time>
      </trkpt>
      <trkpt lat="42.4330680" lon="-7.3701950">
        <ele>864.4</ele>
        <time>2014-10-02T08:14:49Z</time>
      </trkpt>
      <trkpt lat="42.4330410" lon="-7.3702560">
        <ele>864.9</ele>
        <time>2014-10-02T08:14:51Z</time>
      </trkpt>
      <trkpt lat="42.4330050" lon="-7.3703100">
        <ele>865.4</ele>
        <time>2014-10-02T08:14:53Z</time>
      </trkpt>
      <trkpt lat="42.4329690" lon="-7.3703550">
        <ele>865.9</ele>
        <time>2014-10-02T08:14:55Z</time>
      </trkpt>
      <trkpt lat="42.4329320" lon="-7.3703920">
        <ele>866.3</ele>
        <time>2014-10-02T08:14:57Z</time>
      </trkpt>
      <trkpt lat="42.4328940" lon="-7.3704200">
        <ele>866.8</ele>
        <time>2014-10-02T08:14:59Z</time>
      </trkpt>
      <trkpt lat="42.4328530" lon="-7.3704470">
        <ele>867.2</ele>
        <time>2014-10-02T08:15:01Z</time>
      </trkpt>
      <trkpt lat="42.4328080" lon="-7.3704630">
        <ele>867.7</ele>
        <time>2014-10-02T08:15:03Z</time>
      </trkpt>
      <trkpt lat="42.4327670" lon="-7.3704570">
        <ele>868.1</ele>
        <time>2014-10-02T08:15:05Z</time>
      </trkpt>
      <trkpt lat="42.4327220" lon="-7.3704320">
        <ele>868.7</ele>
        <time>2014-10-02T08:15:07Z</time>
      </trkpt>
      <trkpt lat="42.4326820" lon="-7.3703970">
        <ele>869.2</ele>
        <time>2014-10-02T08:15:09Z</time>
      </trkpt>
      <trkpt lat="42.4326480" lon="-7.3703610">
        <ele>869.7</ele>
        <time>2014-10-02T08:15:11Z</time>
      </trkpt>
      <trkpt lat="42.4326140" lon="-7.3703330">
        <ele>870.2</ele>
        <time>2014-10-02T08:15:13Z</time>
      </trkpt>
      <trkpt lat="42.4325790" lon="-7.3702940">
        <ele>870.8</ele>
        <time>2014-10-02T08:15:15Z</time>
      </trkpt>
      <trkpt lat="42.4325440" lon="-7.3702570">
        <ele>871.3</ele>
        <time>2014-10-02T08:15:17Z</time>
      </trkpt>
      <trkpt lat="42.4325080" lon="-7.3702210">
        <ele>871.8</ele>
        <time>2014-10-02T08:15:19Z</time>
      </trkpt>
      <trkpt lat="42.4324720" lon="-7.3701840">
        <ele>872.3</ele>
        <time>2014-10-02T08:15:21Z</time>
      </trkpt>
      <trkpt lat="42.4324390" lon="-7.3701430">
        <ele>872.9</ele>
        <time>2014-10-02T08:15:23Z</time>
      </trkpt>
      <trkpt lat="42.4324090" lon="-7.3701080">
        <ele>873.4</ele>
        <time>2014-10-02T08:15:25Z</time>
      </trkpt>
      <trkpt lat="42.4323760" lon="-7.3700710">
        <ele>873.9</ele>
        <time>2014-10-02T08:15:27Z</time>
      </trkpt>
      <trkpt lat="42.4323410" lon="-7.3700370">
        <ele>874.4</ele>
        <time>2014-10-02T08:15:29Z</time>
      </trkpt>
      <trkpt lat="42.4323040" lon="-7.3700040">
        <ele>874.9</ele>
        <time>2014-10-02T08:15:31Z</time>
      </trkpt>
      <trkpt lat="42.4322700" lon="-7.3699720">
        <ele>875.4</ele>
        <time>2014-10-02T08:15:33Z</time>
      </trkpt>
      <trkpt lat="42.4322360" lon="-7.3699360">
        <ele>875.9</ele>
        <time>2014-10-02T08:15:35Z</time>
      </trkpt>
      <trkpt lat="42.4322040" lon="-7.3699010">
        <ele>876.4</ele>
        <time>2014-10-02T08:15:37Z</time>
      </trkpt>
      <trkpt lat="42.4321730" lon="-7.3698620">
        <ele>876.9</ele>
        <time>2014-10-02T08:15:39Z</time>
      </trkpt>
      <trkpt lat="42.4321450" lon="-7.3698330">
        <ele>877.4</ele>
        <time>2014-10-02T08:15:41Z</time>
      </trkpt>
      <trkpt lat="42.4321140" lon="-7.3698030">
        <ele>877.9</ele>
        <time>2014-10-02T08:15:43Z</time>
      </trkpt>
      <trkpt lat="42.4320820" lon="-7.3697770">
        <ele>878.4</ele>
        <time>2014-10-02T08:15:45Z</time>
      </trkpt>
      <trkpt lat="42.4320510" lon="-7.3697390">
        <ele>879.0</ele>
        <time>2014-10-02T08:15:47Z</time>
      </trkpt>
      <trkpt lat="42.4320150" lon="-7.3696920">
        <ele>879.7</ele>
        <time>2014-10-02T08:15:49Z</time>
      </trkpt>
      <trkpt lat="42.4319840" lon="-7.3696450">
        <ele>880.3</ele>
        <time>2014-10-02T08:15:51Z</time>
      </trkpt>
      <trkpt lat="42.4319570" lon="-7.3696050">
        <ele>880.8</ele>
        <time>2014-10-02T08:15:53Z</time>
      </trkpt>
      <trkpt lat="42.4319260" lon="-7.3695710">
        <ele>881.3</ele>
        <time>2014-10-02T08:15:55Z</time>
      </trkpt>
      <trkpt lat="42.4318940" lon="-7.3695360">
        <ele>881.8</ele>
        <time>2014-10-02T08:15:57Z</time>
      </trkpt>
      <trkpt lat="42.4318640" lon="-7.3695050">
        <ele>882.3</ele>
        <time>2014-10-02T08:15:59Z</time>
      </trkpt>
      <trkpt lat="42.4318320" lon="-7.3694720">
        <ele>882.8</ele>
        <time>2014-10-02T08:16:01Z</time>
      </trkpt>
      <trkpt lat="42.4318010" lon="-7.3694340">
        <ele>883.3</ele>
        <time>2014-10-02T08:16:03Z</time>
      </trkpt>
      <trkpt lat="42.4317710" lon="-7.3694000">
        <ele>883.8</ele>
        <time>2014-10-02T08:16:05Z</time>
      </trkpt>
      <trkpt lat="42.4317380" lon="-7.3693650">
        <ele>884.3</ele>
        <time>2014-10-02T08:16:07Z</time>
      </trkpt>
      <trkpt lat="42.4317030" lon="-7.3693330">
        <ele>884.8</ele>
        <time>2014-10-02T08:16:09Z</time>
      </trkpt>
      <trkpt lat="42.4316690" lon="-7.3692970">
        <ele>885.3</ele>
        <time>2014-10-02T08:16:11Z</time>
      </trkpt>
      <trkpt lat="42.4316320" lon="-7.3692640">
        <ele>885.8</ele>
        <time>2014-10-02T08:16:13Z</time>
      </trkpt>
      <trkpt lat="42.4315950" lon="-7.3692290">
        <ele>886.3</ele>
        <time>2014-10-02T08:16:15Z</time>
      </trkpt>
      <trkpt lat="42.4315580" lon="-7.3691950">
        <ele>886.8</ele>
        <time>2014-10-02T08:16:17Z</time>
      </trkpt>
      <trkpt lat="42.4315190" lon="-7.3691560">
        <ele>887.3</ele>
        <time>2014-10-02T08:16:19Z</time>
      </trkpt>
      <trkpt lat="42.4314850" lon="-7.3691160">
        <ele>887.8</ele>
        <time>2014-10-02T08:16:21Z</time>
      </trkpt>
      <trkpt lat="42.4314500" lon="-7.3690780">
        <ele>888.3</ele>
        <time>2014-10-02T08:16:23Z</time>
      </trkpt>
      <trkpt lat="42.4314160" lon="-7.3690410">
        <ele>888.7</ele>
        <time>2014-10-02T08:16:25Z</time>
      </trkpt>
      <trkpt lat="42.4313800" lon="-7.3690030">
        <ele>889.2</ele>
        <time>2014-10-02T08:16:27Z</time>
      </trkpt>
      <trkpt lat="42.4313470" lon="-7.3689650">
        <ele>889.6</ele>
        <time>2014-10-02T08:16:29Z</time>
      </trkpt>
      <trkpt lat="42.4313110" lon="-7.3689310">
        <ele>890.1</ele>
        <time>2014-10-02T08:16:31Z</time>
      </trkpt>
      <trkpt lat="42.4312770" lon="-7.3688980">
        <ele>890.5</ele>
        <time>2014-10-02T08:16:33Z</time>
      </trkpt>
      <trkpt lat="42.4312440" lon="-7.3688620">
        <ele>890.9</ele>
        <time>2014-10-02T08:16:35Z</time>
      </trkpt>
      <trkpt lat="42.4312090" lon="-7.3688260">
        <ele>891.4</ele>
        <time>2014-10-02T08:16:37Z</time>
      </trkpt>
      <trkpt lat="42.4311740" lon="-7.3687930">
        <ele>891.8</ele>
        <time>2014-10-02T08:16:39Z</time>
      </trkpt>
      <trkpt lat="42.4311440" lon="-7.3687620">
        <ele>892.2</ele>
        <time>2014-10-02T08:16:41Z</time>
      </trkpt>
      <trkpt lat="42.4311090" lon="-7.3687280">
        <ele>892.6</ele>
        <time>2014-10-02T08:16:43Z</time>
      </trkpt>
      <trkpt lat="42.4310740" lon="-7.3686920">
        <ele>893.1</ele>
        <time>2014-10-02T08:16:45Z</time>
      </trkpt>
      <trkpt lat="42.4310400" lon="-7.3686580">
        <ele>893.5</ele>
        <time>2014-10-02T08:16:47Z</time>
      </trkpt>
      <trkpt lat="42.4310030" lon="-7.3686250">
        <ele>894.0</ele>
        <time>2014-10-02T08:16:49Z</time>
      </trkpt>
      <trkpt lat="42.4309660" lon="-7.3685900">
        <ele>894.5</ele>
        <time>2014-10-02T08:16:51Z</time>
      </trkpt>
      <trkpt lat="42.4309250" lon="-7.3685580">
        <ele>895.0</ele>
        <time>2014-10-02T08:16:53Z</time>
      </trkpt>
      <trkpt lat="42.4308860" lon="-7.3685240">
        <ele>895.5</ele>
        <time>2014-10-02T08:16:55Z</time>
      </trkpt>
      <trkpt lat="42.4308480" lon="-7.3684920">
        <ele>895.9</ele>
        <time>2014-10-02T08:16:57Z</time>
      </trkpt>
      <trkpt lat="42.4308110" lon="-7.3684570">
        <ele>896.4</ele>
        <time>2014-10-02T08:16:59Z</time>
      </trkpt>
      <trkpt lat="42.4307740" lon="-7.3684230">
        <ele>896.9</ele>
        <time>2014-10-02T08:17:01Z</time>
      </trkpt>
      <trkpt lat="42.4307370" lon="-7.3683910">
        <ele>897.3</ele>
        <time>2014-10-02T08:17:03Z</time>
      </trkpt>
      <trkpt lat="42.4306990" lon="-7.3683620">
        <ele>897.8</ele>
        <time>2014-10-02T08:17:05Z</time>
      </trkpt>
      <trkpt lat="42.4306610" lon="-7.3683300">
        <ele>898.2</ele>
        <time>2014-10-02T08:17:07Z</time>
      </trkpt>
      <trkpt lat="42.4306210" lon="-7.3682930">
        <ele>898.7</ele>
        <time>2014-10-02T08:17:09Z</time>
      </trkpt>
      <trkpt lat="42.4305850" lon="-7.3682610">
        <ele>899.2</ele>
        <time>2014-10-02T08:17:11Z</time>
      </trkpt>
      <trkpt lat="42.4305500" lon="-7.3682290">
        <ele>899.6</ele>
        <time>2014-10-02T08:17:13Z</time>
      </trkpt>
      <trkpt lat="42.4305110" lon="-7.3681970">
        <ele>900.0</ele>
        <time>2014-10-02T08:17:15Z</time>
      </trkpt>
      <trkpt lat="42.4304720" lon="-7.3681640">
        <ele>900.5</ele>
        <time>2014-10-02T08:17:17Z</time>
      </trkpt>
      <trkpt lat="42.4304310" lon="-7.3681270">
        <ele>900.9</ele>
        <time>2014-10-02T08:17:19Z</time>
      </trkpt>
      <trkpt lat="42.4303880" lon="-7.3680890">
        <ele>901.3</ele>
        <time>2014-10-02T08:17:21Z</time>
      </trkpt>
      <trkpt lat="42.4303450" lon="-7.3680520">
        <ele>901.7</ele>
        <time>2014-10-02T08:17:23Z</time>
      </trkpt>
      <trkpt lat="42.4302990" lon="-7.3680170">
        <ele>902.1</ele>
        <time>2014-10-02T08:17:25Z</time>
      </trkpt>
      <trkpt lat="42.4302750" lon="-7.3679990">
        <ele>902.3</ele>
        <time>2014-10-02T08:17:26Z</time>
      </trkpt>
      <trkpt lat="42.4302290" lon="-7.3679610">
        <ele>902.7</ele>
        <time>2014-10-02T08:17:28Z</time>
      </trkpt>
      <trkpt lat="42.4302040" lon="-7.3679420">
        <ele>902.9</ele>
        <time>2014-10-02T08:17:29Z</time>
      </trkpt>
      <trkpt lat="42.4301800" lon="-7.3679220">
        <ele>903.1</ele>
        <time>2014-10-02T08:17:30Z</time>
      </trkpt>
      <trkpt lat="42.4301540" lon="-7.3679040">
        <ele>903.3</ele>
        <time>2014-10-02T08:17:31Z</time>
      </trkpt>
      <trkpt lat="42.4301290" lon="-7.3678860">
        <ele>903.5</ele>
        <time>2014-10-02T08:17:32Z</time>
      </trkpt>
      <trkpt lat="42.4301030" lon="-7.3678720">
        <ele>903.6</ele>
        <time>2014-10-02T08:17:33Z</time>
      </trkpt>
      <trkpt lat="42.4300770" lon="-7.3678580">
        <ele>903.8</ele>
        <time>2014-10-02T08:17:34Z</time>
      </trkpt>
      <trkpt lat="42.4300490" lon="-7.3678470">
        <ele>904.0</ele>
        <time>2014-10-02T08:17:35Z</time>
      </trkpt>
      <trkpt lat="42.4300210" lon="-7.3678380">
        <ele>904.2</ele>
        <time>2014-10-02T08:17:36Z</time>
      </trkpt>
      <trkpt lat="42.4299950" lon="-7.3678270">
        <ele>904.4</ele>
        <time>2014-10-02T08:17:37Z</time>
      </trkpt>
      <trkpt lat="42.4299690" lon="-7.3678140">
        <ele>904.5</ele>
        <time>2014-10-02T08:17:38Z</time>
      </trkpt>
      <trkpt lat="42.4299210" lon="-7.3677920">
        <ele>904.9</ele>
        <time>2014-10-02T08:17:40Z</time>
      </trkpt>
      <trkpt lat="42.4298760" lon="-7.3677690">
        <ele>905.2</ele>
        <time>2014-10-02T08:17:42Z</time>
      </trkpt>
      <trkpt lat="42.4298310" lon="-7.3677450">
        <ele>905.6</ele>
        <time>2014-10-02T08:17:44Z</time>
      </trkpt>
      <trkpt lat="42.4298030" lon="-7.3677340">
        <ele>905.8</ele>
        <time>2014-10-02T08:17:45Z</time>
      </trkpt>
      <trkpt lat="42.4297720" lon="-7.3677200">
        <ele>906.1</ele>
        <time>2014-10-02T08:17:46Z</time>
      </trkpt>
      <trkpt lat="42.4297420" lon="-7.3677040">
        <ele>906.4</ele>
        <time>2014-10-02T08:17:47Z</time>
      </trkpt>
      <trkpt lat="42.4297130" lon="-7.3676880">
        <ele>906.7</ele>
        <time>2014-10-02T08:17:48Z</time>
      </trkpt>
      <trkpt lat="42.4296700" lon="-7.3676590">
        <ele>907.1</ele>
        <time>2014-10-02T08:17:50Z</time>
      </trkpt>
      <trkpt lat="42.4296300" lon="-7.3676300">
        <ele>907.5</ele>
        <time>2014-10-02T08:17:52Z</time>
      </trkpt>
      <trkpt lat="42.4296060" lon="-7.3676110">
        <ele>907.7</ele>
        <time>2014-10-02T08:17:53Z</time>
      </trkpt>
      <trkpt lat="42.4295800" lon="-7.3675890">
        <ele>908.0</ele>
        <time>2014-10-02T08:17:54Z</time>
      </trkpt>
      <trkpt lat="42.4295550" lon="-7.3675670">
        <ele>908.2</ele>
        <time>2014-10-02T08:17:55Z</time>
      </trkpt>
      <trkpt lat="42.4295290" lon="-7.3675430">
        <ele>908.4</ele>
        <time>2014-10-02T08:17:56Z</time>
      </trkpt>
      <trkpt lat="42.4295030" lon="-7.3675190">
        <ele>908.6</ele>
        <time>2014-10-02T08:17:57Z</time>
      </trkpt>
      <trkpt lat="42.4294790" lon="-7.3674940">
        <ele>908.8</ele>
        <time>2014-10-02T08:17:58Z</time>
      </trkpt>
      <trkpt lat="42.4294560" lon="-7.3674710">
        <ele>909.0</ele>
        <time>2014-10-02T08:17:59Z</time>
      </trkpt>
      <trkpt lat="42.4294310" lon="-7.3674490">
        <ele>909.2</ele>
        <time>2014-10-02T08:18:00Z</time>
      </trkpt>
      <trkpt lat="42.4294070" lon="-7.3674280">
        <ele>909.4</ele>
        <time>2014-10-02T08:18:01Z</time>
      </trkpt>
      <trkpt lat="42.4293830" lon="-7.3674070">
        <ele>909.6</ele>
        <time>2014-10-02T08:18:02Z</time>
      </trkpt>
      <trkpt lat="42.4293590" lon="-7.3673850">
        <ele>909.8</ele>
        <time>2014-10-02T08:18:03Z</time>
      </trkpt>
      <trkpt lat="42.4293350" lon="-7.3673620">
        <ele>910.0</ele>
        <time>2014-10-02T08:18:04Z</time>
      </trkpt>
      <trkpt lat="42.4293100" lon="-7.3673430">
        <ele>910.2</ele>
        <time>2014-10-02T08:18:05Z</time>
      </trkpt>
      <trkpt lat="42.4292850" lon="-7.3673230">
        <ele>910.4</ele>
        <time>2014-10-02T08:18:06Z</time>
      </trkpt>
      <trkpt lat="42.4292610" lon="-7.3673010">
        <ele>910.6</ele>
        <time>2014-10-02T08:18:07Z</time>
      </trkpt>
      <trkpt lat="42.4292360" lon="-7.3672780">
        <ele>910.8</ele>
        <time>2014-10-02T08:18:08Z</time>
      </trkpt>
      <trkpt lat="42.4292100" lon="-7.3672590">
        <ele>911.0</ele>
        <time>2014-10-02T08:18:09Z</time>
      </trkpt>
      <trkpt lat="42.4291860" lon="-7.3672390">
        <ele>911.2</ele>
        <time>2014-10-02T08:18:10Z</time>
      </trkpt>
      <trkpt lat="42.4291460" lon="-7.3672010">
        <ele>911.5</ele>
        <time>2014-10-02T08:18:12Z</time>
      </trkpt>
      <trkpt lat="42.4291050" lon="-7.3671570">
        <ele>911.9</ele>
        <time>2014-10-02T08:18:14Z</time>
      </trkpt>
      <trkpt lat="42.4290630" lon="-7.3671150">
        <ele>912.3</ele>
        <time>2014-10-02T08:18:16Z</time>
      </trkpt>
      <trkpt lat="42.4290180" lon="-7.3670760">
        <ele>912.7</ele>
        <time>2014-10-02T08:18:18Z</time>
      </trkpt>
      <trkpt lat="42.4289770" lon="-7.3670420">
        <ele>913.4</ele>
        <time>2014-10-02T08:18:20Z</time>
      </trkpt>
      <trkpt lat="42.4289320" lon="-7.3670080">
        <ele>914.1</ele>
        <time>2014-10-02T08:18:22Z</time>
      </trkpt>
      <trkpt lat="42.4288900" lon="-7.3669710">
        <ele>914.7</ele>
        <time>2014-10-02T08:18:24Z</time>
      </trkpt>
      <trkpt lat="42.4288520" lon="-7.3669360">
        <ele>915.3</ele>
        <time>2014-10-02T08:18:26Z</time>
      </trkpt>
      <trkpt lat="42.4288120" lon="-7.3669030">
        <ele>915.8</ele>
        <time>2014-10-02T08:18:28Z</time>
      </trkpt>
      <trkpt lat="42.4287670" lon="-7.3668670">
        <ele>916.5</ele>
        <time>2014-10-02T08:18:30Z</time>
      </trkpt>
      <trkpt lat="42.4287300" lon="-7.3668400">
        <ele>917.1</ele>
        <time>2014-10-02T08:18:32Z</time>
      </trkpt>
      <trkpt lat="42.4286880" lon="-7.3668130">
        <ele>917.7</ele>
        <time>2014-10-02T08:18:34Z</time>
      </trkpt>
      <trkpt lat="42.4286480" lon="-7.3667840">
        <ele>918.3</ele>
        <time>2014-10-02T08:18:36Z</time>
      </trkpt>
      <trkpt lat="42.4286080" lon="-7.3667600">
        <ele>918.9</ele>
        <time>2014-10-02T08:18:38Z</time>
      </trkpt>
      <trkpt lat="42.4285660" lon="-7.3667440">
        <ele>919.8</ele>
        <time>2014-10-02T08:18:40Z</time>
      </trkpt>
      <trkpt lat="42.4285200" lon="-7.3667230">
        <ele>920.5</ele>
        <time>2014-10-02T08:18:42Z</time>
      </trkpt>
      <trkpt lat="42.4284790" lon="-7.3667010">
        <ele>921.1</ele>
        <time>2014-10-02T08:18:44Z</time>
      </trkpt>
      <trkpt lat="42.4284350" lon="-7.3666770">
        <ele>921.6</ele>
        <time>2014-10-02T08:18:46Z</time>
      </trkpt>
      <trkpt lat="42.4283920" lon="-7.3666520">
        <ele>922.1</ele>
        <time>2014-10-02T08:18:48Z</time>
      </trkpt>
      <trkpt lat="42.4283500" lon="-7.3666310">
        <ele>922.6</ele>
        <time>2014-10-02T08:18:50Z</time>
      </trkpt>
      <trkpt lat="42.4283030" lon="-7.3666060">
        <ele>923.1</ele>
        <time>2014-10-02T08:18:52Z</time>
      </trkpt>
      <trkpt lat="42.4282570" lon="-7.3665890">
        <ele>923.6</ele>
        <time>2014-10-02T08:18:54Z</time>
      </trkpt>
      <trkpt lat="42.4282080" lon="-7.3665650">
        <ele>924.2</ele>
        <time>2014-10-02T08:18:56Z</time>
      </trkpt>
      <trkpt lat="42.4281600" lon="-7.3665400">
        <ele>924.7</ele>
        <time>2014-10-02T08:18:58Z</time>
      </trkpt>
      <trkpt lat="42.4281130" lon="-7.3665170">
        <ele>925.2</ele>
        <time>2014-10-02T08:19:00Z</time>
      </trkpt>
      <trkpt lat="42.4280640" lon="-7.3664970">
        <ele>925.7</ele>
        <time>2014-10-02T08:19:02Z</time>
      </trkpt>
      <trkpt lat="42.4280270" lon="-7.3664810">
        <ele>926.1</ele>
        <time>2014-10-02T08:19:04Z</time>
      </trkpt>
      <trkpt lat="42.4279880" lon="-7.3664640">
        <ele>926.4</ele>
        <time>2014-10-02T08:19:06Z</time>
      </trkpt>
      <trkpt lat="42.4279420" lon="-7.3664410">
        <ele>926.9</ele>
        <time>2014-10-02T08:19:08Z</time>
      </trkpt>
      <trkpt lat="42.4278890" lon="-7.3664180">
        <ele>927.3</ele>
        <time>2014-10-02T08:19:10Z</time>
      </trkpt>
      <trkpt lat="42.4278610" lon="-7.3664060">
        <ele>927.5</ele>
        <time>2014-10-02T08:19:11Z</time>
      </trkpt>
      <trkpt lat="42.4278340" lon="-7.3663950">
        <ele>927.7</ele>
        <time>2014-10-02T08:19:12Z</time>
      </trkpt>
      <trkpt lat="42.4278060" lon="-7.3663840">
        <ele>927.9</ele>
        <time>2014-10-02T08:19:13Z</time>
      </trkpt>
      <trkpt lat="42.4277790" lon="-7.3663700">
        <ele>928.2</ele>
        <time>2014-10-02T08:19:14Z</time>
      </trkpt>
      <trkpt lat="42.4277270" lon="-7.3663440">
        <ele>928.6</ele>
        <time>2014-10-02T08:19:16Z</time>
      </trkpt>
      <trkpt lat="42.4277000" lon="-7.3663310">
        <ele>928.8</ele>
        <time>2014-10-02T08:19:17Z</time>
      </trkpt>
      <trkpt lat="42.4276720" lon="-7.3663190">
        <ele>929.0</ele>
        <time>2014-10-02T08:19:18Z</time>
      </trkpt>
      <trkpt lat="42.4276210" lon="-7.3662940">
        <ele>929.4</ele>
        <time>2014-10-02T08:19:20Z</time>
      </trkpt>
      <trkpt lat="42.4275940" lon="-7.3662830">
        <ele>929.6</ele>
        <time>2014-10-02T08:19:21Z</time>
      </trkpt>
      <trkpt lat="42.4275660" lon="-7.3662730">
        <ele>929.8</ele>
        <time>2014-10-02T08:19:22Z</time>
      </trkpt>
      <trkpt lat="42.4275380" lon="-7.3662640">
        <ele>930.0</ele>
        <time>2014-10-02T08:19:23Z</time>
      </trkpt>
      <trkpt lat="42.4275090" lon="-7.3662570">
        <ele>930.2</ele>
        <time>2014-10-02T08:19:24Z</time>
      </trkpt>
      <trkpt lat="42.4274790" lon="-7.3662480">
        <ele>930.4</ele>
        <time>2014-10-02T08:19:25Z</time>
      </trkpt>
      <trkpt lat="42.4274520" lon="-7.3662440">
        <ele>930.5</ele>
        <time>2014-10-02T08:19:26Z</time>
      </trkpt>
      <trkpt lat="42.4274240" lon="-7.3662370">
        <ele>930.7</ele>
        <time>2014-10-02T08:19:27Z</time>
      </trkpt>
      <trkpt lat="42.4273970" lon="-7.3662310">
        <ele>930.9</ele>
        <time>2014-10-02T08:19:28Z</time>
      </trkpt>
      <trkpt lat="42.4273680" lon="-7.3662240">
        <ele>931.1</ele>
        <time>2014-10-02T08:19:29Z</time>
      </trkpt>
      <trkpt lat="42.4273380" lon="-7.3662100">
        <ele>931.3</ele>
        <time>2014-10-02T08:19:30Z</time>
      </trkpt>
      <trkpt lat="42.4273080" lon="-7.3661970">
        <ele>931.5</ele>
        <time>2014-10-02T08:19:31Z</time>
      </trkpt>
      <trkpt lat="42.4272800" lon="-7.3661870">
        <ele>931.8</ele>
        <time>2014-10-02T08:19:32Z</time>
      </trkpt>
      <trkpt lat="42.4272530" lon="-7.3661760">
        <ele>932.1</ele>
        <time>2014-10-02T08:19:33Z</time>
      </trkpt>
      <trkpt lat="42.4272050" lon="-7.3661580">
        <ele>932.6</ele>
        <time>2014-10-02T08:19:35Z</time>
      </trkpt>
      <trkpt lat="42.4271670" lon="-7.3661480">
        <ele>933.1</ele>
        <time>2014-10-02T08:19:37Z</time>
      </trkpt>
      <trkpt lat="42.4271230" lon="-7.3661390">
        <ele>933.6</ele>
        <time>2014-10-02T08:19:39Z</time>
      </trkpt>
      <trkpt lat="42.4270810" lon="-7.3661400">
        <ele>934.2</ele>
        <time>2014-10-02T08:19:41Z</time>
      </trkpt>
      <trkpt lat="42.4270390" lon="-7.3661520">
        <ele>934.8</ele>
        <time>2014-10-02T08:19:43Z</time>
      </trkpt>
      <trkpt lat="42.4270020" lon="-7.3661730">
        <ele>935.4</ele>
        <time>2014-10-02T08:19:45Z</time>
      </trkpt>
      <trkpt lat="42.4269690" lon="-7.3661960">
        <ele>935.9</ele>
        <time>2014-10-02T08:19:47Z</time>
      </trkpt>
      <trkpt lat="42.4269430" lon="-7.3662180">
        <ele>936.4</ele>
        <time>2014-10-02T08:19:49Z</time>
      </trkpt>
      <trkpt lat="42.4269190" lon="-7.3662420">
        <ele>936.8</ele>
        <time>2014-10-02T08:19:51Z</time>
      </trkpt>
      <trkpt lat="42.4268880" lon="-7.3662730">
        <ele>937.4</ele>
        <time>2014-10-02T08:19:53Z</time>
      </trkpt>
      <trkpt lat="42.4268620" lon="-7.3663040">
        <ele>937.9</ele>
        <time>2014-10-02T08:19:55Z</time>
      </trkpt>
      <trkpt lat="42.4268300" lon="-7.3663450">
        <ele>938.5</ele>
        <time>2014-10-02T08:19:57Z</time>
      </trkpt>
      <trkpt lat="42.4267950" lon="-7.3663910">
        <ele>939.2</ele>
        <time>2014-10-02T08:19:59Z</time>
      </trkpt>
      <trkpt lat="42.4267600" lon="-7.3664410">
        <ele>939.8</ele>
        <time>2014-10-02T08:20:01Z</time>
      </trkpt>
      <trkpt lat="42.4267390" lon="-7.3664710">
        <ele>940.1</ele>
        <time>2014-10-02T08:20:02Z</time>
      </trkpt>
      <trkpt lat="42.4267170" lon="-7.3665010">
        <ele>940.5</ele>
        <time>2014-10-02T08:20:03Z</time>
      </trkpt>
      <trkpt lat="42.4266950" lon="-7.3665350">
        <ele>940.8</ele>
        <time>2014-10-02T08:20:04Z</time>
      </trkpt>
      <trkpt lat="42.4266720" lon="-7.3665680">
        <ele>941.1</ele>
        <time>2014-10-02T08:20:05Z</time>
      </trkpt>
      <trkpt lat="42.4266470" lon="-7.3665970">
        <ele>941.4</ele>
        <time>2014-10-02T08:20:06Z</time>
      </trkpt>
      <trkpt lat="42.4266220" lon="-7.3666260">
        <ele>941.6</ele>
        <time>2014-10-02T08:20:07Z</time>
      </trkpt>
      <trkpt lat="42.4265980" lon="-7.3666500">
        <ele>941.8</ele>
        <time>2014-10-02T08:20:08Z</time>
      </trkpt>
      <trkpt lat="42.4265750" lon="-7.3666770">
        <ele>941.9</ele>
        <time>2014-10-02T08:20:09Z</time>
      </trkpt>
      <trkpt lat="42.4265560" lon="-7.3667040">
        <ele>942.1</ele>
        <time>2014-10-02T08:20:10Z</time>
      </trkpt>
      <trkpt lat="42.4265360" lon="-7.3667320">
        <ele>942.2</ele>
        <time>2014-10-02T08:20:11Z</time>
      </trkpt>
      <trkpt lat="42.4265130" lon="-7.3667630">
        <ele>942.4</ele>
        <time>2014-10-02T08:20:12Z</time>
      </trkpt>
      <trkpt lat="42.4264890" lon="-7.3667960">
        <ele>942.5</ele>
        <time>2014-10-02T08:20:13Z</time>
      </trkpt>
      <trkpt lat="42.4264600" lon="-7.3668300">
        <ele>942.7</ele>
        <time>2014-10-02T08:20:14Z</time>
      </trkpt>
      <trkpt lat="42.4264340" lon="-7.3668640">
        <ele>942.8</ele>
        <time>2014-10-02T08:20:15Z</time>
      </trkpt>
      <trkpt lat="42.4264040" lon="-7.3668990">
        <ele>943.0</ele>
        <time>2014-10-02T08:20:16Z</time>
      </trkpt>
      <trkpt lat="42.4263710" lon="-7.3669340">
        <ele>943.1</ele>
        <time>2014-10-02T08:20:17Z</time>
      </trkpt>
      <trkpt lat="42.4263370" lon="-7.3669670">
        <ele>943.2</ele>
        <time>2014-10-02T08:20:18Z</time>
      </trkpt>
      <trkpt lat="42.4263020" lon="-7.3669940">
        <ele>943.4</ele>
        <time>2014-10-02T08:20:19Z</time>
      </trkpt>
      <trkpt lat="42.4262680" lon="-7.3670180">
        <ele>943.5</ele>
        <time>2014-10-02T08:20:20Z</time>
      </trkpt>
      <trkpt lat="42.4262320" lon="-7.3670380">
        <ele>943.6</ele>
        <time>2014-10-02T08:20:21Z</time>
      </trkpt>
      <trkpt lat="42.4261950" lon="-7.3670570">
        <ele>943.8</ele>
        <time>2014-10-02T08:20:22Z</time>
      </trkpt>
      <trkpt lat="42.4261560" lon="-7.3670740">
        <ele>943.9</ele>
        <time>2014-10-02T08:20:23Z</time>
      </trkpt>
      <trkpt lat="42.4261140" lon="-7.3670890">
        <ele>944.1</ele>
        <time>2014-10-02T08:20:24Z</time>
      </trkpt>
      <trkpt lat="42.4260730" lon="-7.3671070">
        <ele>944.3</ele>
        <time>2014-10-02T08:20:25Z</time>
      </trkpt>
      <trkpt lat="42.4260380" lon="-7.3671300">
        <ele>944.5</ele>
        <time>2014-10-02T08:20:26Z</time>
      </trkpt>
      <trkpt lat="42.4260100" lon="-7.3671540">
        <ele>944.7</ele>
        <time>2014-10-02T08:20:27Z</time>
      </trkpt>
      <trkpt lat="42.4259860" lon="-7.3671820">
        <ele>944.8</ele>
        <time>2014-10-02T08:20:28Z</time>
      </trkpt>
      <trkpt lat="42.4259650" lon="-7.3672120">
        <ele>945.1</ele>
        <time>2014-10-02T08:20:29Z</time>
      </trkpt>
      <trkpt lat="42.4259330" lon="-7.3672740">
        <ele>945.5</ele>
        <time>2014-10-02T08:20:31Z</time>
      </trkpt>
      <trkpt lat="42.4259180" lon="-7.3673080">
        <ele>945.8</ele>
        <time>2014-10-02T08:20:32Z</time>
      </trkpt>
      <trkpt lat="42.4259030" lon="-7.3673400">
        <ele>946.1</ele>
        <time>2014-10-02T08:20:33Z</time>
      </trkpt>
      <trkpt lat="42.4258900" lon="-7.3673730">
        <ele>946.4</ele>
        <time>2014-10-02T08:20:34Z</time>
      </trkpt>
      <trkpt lat="42.4258750" lon="-7.3674080">
        <ele>946.8</ele>
        <time>2014-10-02T08:20:35Z</time>
      </trkpt>
      <trkpt lat="42.4258590" lon="-7.3674620">
        <ele>947.3</ele>
        <time>2014-10-02T08:20:37Z</time>
      </trkpt>
      <trkpt lat="42.4258380" lon="-7.3675180">
        <ele>947.9</ele>
        <time>2014-10-02T08:20:39Z</time>
      </trkpt>
      <trkpt lat="42.4258140" lon="-7.3675640">
        <ele>948.4</ele>
        <time>2014-10-02T08:20:41Z</time>
      </trkpt>
      <trkpt lat="42.4257870" lon="-7.3676130">
        <ele>949.0</ele>
        <time>2014-10-02T08:20:43Z</time>
      </trkpt>
      <trkpt lat="42.4257700" lon="-7.3676430">
        <ele>949.3</ele>
        <time>2014-10-02T08:20:44Z</time>
      </trkpt>
      <trkpt lat="42.4257510" lon="-7.3676730">
        <ele>949.6</ele>
        <time>2014-10-02T08:20:45Z</time>
      </trkpt>
      <trkpt lat="42.4257300" lon="-7.3677020">
        <ele>949.9</ele>
        <time>2014-10-02T08:20:46Z</time>
      </trkpt>
      <trkpt lat="42.4257090" lon="-7.3677280">
        <ele>950.2</ele>
        <time>2014-10-02T08:20:47Z</time>
      </trkpt>
      <trkpt lat="42.4256840" lon="-7.3677580">
        <ele>950.5</ele>
        <time>2014-10-02T08:20:48Z</time>
      </trkpt>
      <trkpt lat="42.4256640" lon="-7.3677930">
        <ele>950.8</ele>
        <time>2014-10-02T08:20:49Z</time>
      </trkpt>
      <trkpt lat="42.4256340" lon="-7.3678490">
        <ele>951.2</ele>
        <time>2014-10-02T08:20:51Z</time>
      </trkpt>
      <trkpt lat="42.4256060" lon="-7.3679040">
        <ele>951.5</ele>
        <time>2014-10-02T08:20:53Z</time>
      </trkpt>
      <trkpt lat="42.4255820" lon="-7.3679590">
        <ele>951.7</ele>
        <time>2014-10-02T08:20:55Z</time>
      </trkpt>
      <trkpt lat="42.4255700" lon="-7.3679940">
        <ele>951.8</ele>
        <time>2014-10-02T08:20:56Z</time>
      </trkpt>
      <trkpt lat="42.4255460" lon="-7.3680730">
        <ele>952.1</ele>
        <time>2014-10-02T08:20:58Z</time>
      </trkpt>
      <trkpt lat="42.4255350" lon="-7.3681110">
        <ele>952.2</ele>
        <time>2014-10-02T08:20:59Z</time>
      </trkpt>
      <trkpt lat="42.4255260" lon="-7.3681480">
        <ele>952.3</ele>
        <time>2014-10-02T08:21:00Z</time>
      </trkpt>
      <trkpt lat="42.4255140" lon="-7.3681880">
        <ele>952.4</ele>
        <time>2014-10-02T08:21:01Z</time>
      </trkpt>
      <trkpt lat="42.4255040" lon="-7.3682260">
        <ele>952.5</ele>
        <time>2014-10-02T08:21:02Z</time>
      </trkpt>
      <trkpt lat="42.4254960" lon="-7.3683010">
        <ele>952.7</ele>
        <time>2014-10-02T08:21:04Z</time>
      </trkpt>
      <trkpt lat="42.4254910" lon="-7.3683470">
        <ele>952.8</ele>
        <time>2014-10-02T08:21:05Z</time>
      </trkpt>
      <trkpt lat="42.4254890" lon="-7.3683900">
        <ele>952.9</ele>
        <time>2014-10-02T08:21:06Z</time>
      </trkpt>
      <trkpt lat="42.4254900" lon="-7.3684310">
        <ele>953.0</ele>
        <time>2014-10-02T08:21:07Z</time>
      </trkpt>
      <trkpt lat="42.4254890" lon="-7.3684750">
        <ele>953.2</ele>
        <time>2014-10-02T08:21:08Z</time>
      </trkpt>
      <trkpt lat="42.4254930" lon="-7.3685180">
        <ele>953.4</ele>
        <time>2014-10-02T08:21:09Z</time>
      </trkpt>
      <trkpt lat="42.4254950" lon="-7.3685570">
        <ele>953.5</ele>
        <time>2014-10-02T08:21:10Z</time>
      </trkpt>
      <trkpt lat="42.4254970" lon="-7.3685950">
        <ele>953.7</ele>
        <time>2014-10-02T08:21:11Z</time>
      </trkpt>
      <trkpt lat="42.4255000" lon="-7.3686320">
        <ele>953.9</ele>
        <time>2014-10-02T08:21:12Z</time>
      </trkpt>
      <trkpt lat="42.4254980" lon="-7.3687020">
        <ele>954.3</ele>
        <time>2014-10-02T08:21:14Z</time>
      </trkpt>
      <trkpt lat="42.4254960" lon="-7.3687420">
        <ele>954.6</ele>
        <time>2014-10-02T08:21:15Z</time>
      </trkpt>
      <trkpt lat="42.4254890" lon="-7.3688150">
        <ele>955.1</ele>
        <time>2014-10-02T08:21:17Z</time>
      </trkpt>
      <trkpt lat="42.4254760" lon="-7.3688780">
        <ele>955.6</ele>
        <time>2014-10-02T08:21:19Z</time>
      </trkpt>
      <trkpt lat="42.4254650" lon="-7.3689470">
        <ele>956.1</ele>
        <time>2014-10-02T08:21:21Z</time>
      </trkpt>
      <trkpt lat="42.4254490" lon="-7.3690090">
        <ele>956.6</ele>
        <time>2014-10-02T08:21:23Z</time>
      </trkpt>
      <trkpt lat="42.4254370" lon="-7.3690720">
        <ele>957.1</ele>
        <time>2014-10-02T08:21:25Z</time>
      </trkpt>
      <trkpt lat="42.4254200" lon="-7.3691330">
        <ele>957.7</ele>
        <time>2014-10-02T08:21:27Z</time>
      </trkpt>
      <trkpt lat="42.4254040" lon="-7.3691640">
        <ele>958.0</ele>
        <time>2014-10-02T08:21:28Z</time>
      </trkpt>
      <trkpt lat="42.4253880" lon="-7.3691940">
        <ele>958.3</ele>
        <time>2014-10-02T08:21:29Z</time>
      </trkpt>
      <trkpt lat="42.4253560" lon="-7.3692440">
        <ele>958.8</ele>
        <time>2014-10-02T08:21:31Z</time>
      </trkpt>
      <trkpt lat="42.4253230" lon="-7.3692850">
        <ele>959.3</ele>
        <time>2014-10-02T08:21:33Z</time>
      </trkpt>
      <trkpt lat="42.4252890" lon="-7.3693070">
        <ele>959.8</ele>
        <time>2014-10-02T08:21:35Z</time>
      </trkpt>
      <trkpt lat="42.4252940" lon="-7.3692630">
        <ele>960.1</ele>
        <time>2014-10-02T08:21:37Z</time>
      </trkpt>
      <trkpt lat="42.4252430" lon="-7.3692920">
        <ele>960.8</ele>
        <time>2014-10-02T08:21:39Z</time>
      </trkpt>
      <trkpt lat="42.4251930" lon="-7.3693240">
        <ele>961.4</ele>
        <time>2014-10-02T08:21:41Z</time>
      </trkpt>
      <trkpt lat="42.4251650" lon="-7.3693410">
        <ele>961.8</ele>
        <time>2014-10-02T08:21:42Z</time>
      </trkpt>
      <trkpt lat="42.4251390" lon="-7.3693550">
        <ele>962.2</ele>
        <time>2014-10-02T08:21:43Z</time>
      </trkpt>
      <trkpt lat="42.4251090" lon="-7.3693680">
        <ele>962.6</ele>
        <time>2014-10-02T08:21:44Z</time>
      </trkpt>
      <trkpt lat="42.4250800" lon="-7.3693760">
        <ele>963.0</ele>
        <time>2014-10-02T08:21:45Z</time>
      </trkpt>
      <trkpt lat="42.4250520" lon="-7.3693880">
        <ele>963.4</ele>
        <time>2014-10-02T08:21:46Z</time>
      </trkpt>
      <trkpt lat="42.4250020" lon="-7.3694090">
        <ele>964.1</ele>
        <time>2014-10-02T08:21:48Z</time>
      </trkpt>
      <trkpt lat="42.4249520" lon="-7.3694310">
        <ele>964.8</ele>
        <time>2014-10-02T08:21:50Z</time>
      </trkpt>
      <trkpt lat="42.4249250" lon="-7.3694440">
        <ele>965.2</ele>
        <time>2014-10-02T08:21:51Z</time>
      </trkpt>
      <trkpt lat="42.4248780" lon="-7.3694610">
        <ele>965.8</ele>
        <time>2014-10-02T08:21:53Z</time>
      </trkpt>
      <trkpt lat="42.4248430" lon="-7.3694810">
        <ele>966.3</ele>
        <time>2014-10-02T08:21:55Z</time>
      </trkpt>
      <trkpt lat="42.4247950" lon="-7.3695030">
        <ele>967.0</ele>
        <time>2014-10-02T08:21:57Z</time>
      </trkpt>
      <trkpt lat="42.4247520" lon="-7.3695180">
        <ele>967.6</ele>
        <time>2014-10-02T08:21:59Z</time>
      </trkpt>
      <trkpt lat="42.4247090" lon="-7.3695280">
        <ele>968.2</ele>
        <time>2014-10-02T08:22:01Z</time>
      </trkpt>
      <trkpt lat="42.4246640" lon="-7.3695300">
        <ele>968.8</ele>
        <time>2014-10-02T08:22:03Z</time>
      </trkpt>
      <trkpt lat="42.4246190" lon="-7.3695320">
        <ele>969.4</ele>
        <time>2014-10-02T08:22:05Z</time>
      </trkpt>
      <trkpt lat="42.4245820" lon="-7.3695350">
        <ele>969.8</ele>
        <time>2014-10-02T08:22:07Z</time>
      </trkpt>
      <trkpt lat="42.4245460" lon="-7.3695340">
        <ele>970.3</ele>
        <time>2014-10-02T08:22:09Z</time>
      </trkpt>
      <trkpt lat="42.4245070" lon="-7.3695320">
        <ele>970.7</ele>
        <time>2014-10-02T08:22:11Z</time>
      </trkpt>
      <trkpt lat="42.4244660" lon="-7.3695260">
        <ele>971.2</ele>
        <time>2014-10-02T08:22:13Z</time>
      </trkpt>
      <trkpt lat="42.4244210" lon="-7.3695250">
        <ele>971.7</ele>
        <time>2014-10-02T08:22:15Z</time>
      </trkpt>
      <trkpt lat="42.4243740" lon="-7.3695200">
        <ele>972.3</ele>
        <time>2014-10-02T08:22:17Z</time>
      </trkpt>
      <trkpt lat="42.4243250" lon="-7.3695190">
        <ele>972.8</ele>
        <time>2014-10-02T08:22:19Z</time>
      </trkpt>
      <trkpt lat="42.4242910" lon="-7.3695180">
        <ele>973.2</ele>
        <time>2014-10-02T08:22:21Z</time>
      </trkpt>
      <trkpt lat="42.4242540" lon="-7.3695120">
        <ele>973.6</ele>
        <time>2014-10-02T08:22:23Z</time>
      </trkpt>
      <trkpt lat="42.4242190" lon="-7.3695040">
        <ele>974.0</ele>
        <time>2014-10-02T08:22:25Z</time>
      </trkpt>
      <trkpt lat="42.4241790" lon="-7.3694920">
        <ele>974.4</ele>
        <time>2014-10-02T08:22:27Z</time>
      </trkpt>
      <trkpt lat="42.4241400" lon="-7.3694800">
        <ele>974.9</ele>
        <time>2014-10-02T08:22:29Z</time>
      </trkpt>
      <trkpt lat="42.4240970" lon="-7.3694750">
        <ele>975.3</ele>
        <time>2014-10-02T08:22:31Z</time>
      </trkpt>
      <trkpt lat="42.4240500" lon="-7.3694690">
        <ele>975.7</ele>
        <time>2014-10-02T08:22:33Z</time>
      </trkpt>
      <trkpt lat="42.4240050" lon="-7.3694580">
        <ele>976.1</ele>
        <time>2014-10-02T08:22:35Z</time>
      </trkpt>
      <trkpt lat="42.4239650" lon="-7.3694450">
        <ele>976.5</ele>
        <time>2014-10-02T08:22:37Z</time>
      </trkpt>
      <trkpt lat="42.4239190" lon="-7.3694340">
        <ele>977.0</ele>
        <time>2014-10-02T08:22:39Z</time>
      </trkpt>
      <trkpt lat="42.4238730" lon="-7.3694240">
        <ele>977.4</ele>
        <time>2014-10-02T08:22:41Z</time>
      </trkpt>
      <trkpt lat="42.4238210" lon="-7.3694120">
        <ele>977.9</ele>
        <time>2014-10-02T08:22:43Z</time>
      </trkpt>
      <trkpt lat="42.4237710" lon="-7.3694010">
        <ele>978.3</ele>
        <time>2014-10-02T08:22:45Z</time>
      </trkpt>
      <trkpt lat="42.4237240" lon="-7.3693940">
        <ele>978.8</ele>
        <time>2014-10-02T08:22:47Z</time>
      </trkpt>
      <trkpt lat="42.4236730" lon="-7.3693880">
        <ele>979.3</ele>
        <time>2014-10-02T08:22:49Z</time>
      </trkpt>
      <trkpt lat="42.4236450" lon="-7.3693830">
        <ele>979.6</ele>
        <time>2014-10-02T08:22:50Z</time>
      </trkpt>
      <trkpt lat="42.4236170" lon="-7.3693780">
        <ele>979.8</ele>
        <time>2014-10-02T08:22:51Z</time>
      </trkpt>
      <trkpt lat="42.4235880" lon="-7.3693700">
        <ele>980.1</ele>
        <time>2014-10-02T08:22:52Z</time>
      </trkpt>
      <trkpt lat="42.4235590" lon="-7.3693650">
        <ele>980.3</ele>
        <time>2014-10-02T08:22:53Z</time>
      </trkpt>
      <trkpt lat="42.4235070" lon="-7.3693580">
        <ele>980.8</ele>
        <time>2014-10-02T08:22:55Z</time>
      </trkpt>
      <trkpt lat="42.4234590" lon="-7.3693490">
        <ele>981.2</ele>
        <time>2014-10-02T08:22:57Z</time>
      </trkpt>
      <trkpt lat="42.4234070" lon="-7.3693430">
        <ele>981.6</ele>
        <time>2014-10-02T08:22:59Z</time>
      </trkpt>
      <trkpt lat="42.4233790" lon="-7.3693360">
        <ele>981.9</ele>
        <time>2014-10-02T08:23:00Z</time>
      </trkpt>
      <trkpt lat="42.4233490" lon="-7.3693280">
        <ele>982.1</ele>
        <time>2014-10-02T08:23:01Z</time>
      </trkpt>
      <trkpt lat="42.4233210" lon="-7.3693220">
        <ele>982.3</ele>
        <time>2014-10-02T08:23:02Z</time>
      </trkpt>
      <trkpt lat="42.4232900" lon="-7.3693170">
        <ele>982.5</ele>
        <time>2014-10-02T08:23:03Z</time>
      </trkpt>
      <trkpt lat="42.4232590" lon="-7.3693150">
        <ele>982.7</ele>
        <time>2014-10-02T08:23:04Z</time>
      </trkpt>
      <trkpt lat="42.4232280" lon="-7.3693120">
        <ele>982.9</ele>
        <time>2014-10-02T08:23:05Z</time>
      </trkpt>
      <trkpt lat="42.4231970" lon="-7.3693090">
        <ele>983.1</ele>
        <time>2014-10-02T08:23:06Z</time>
      </trkpt>
      <trkpt lat="42.4231680" lon="-7.3693050">
        <ele>983.3</ele>
        <time>2014-10-02T08:23:07Z</time>
      </trkpt>
      <trkpt lat="42.4231380" lon="-7.3693000">
        <ele>983.5</ele>
        <time>2014-10-02T08:23:08Z</time>
      </trkpt>
      <trkpt lat="42.4231020" lon="-7.3692970">
        <ele>983.7</ele>
        <time>2014-10-02T08:23:09Z</time>
      </trkpt>
      <trkpt lat="42.4230640" lon="-7.3692990">
        <ele>984.0</ele>
        <time>2014-10-02T08:23:10Z</time>
      </trkpt>
      <trkpt lat="42.4230270" lon="-7.3693000">
        <ele>984.2</ele>
        <time>2014-10-02T08:23:11Z</time>
      </trkpt>
      <trkpt lat="42.4229910" lon="-7.3693000">
        <ele>984.5</ele>
        <time>2014-10-02T08:23:12Z</time>
      </trkpt>
      <trkpt lat="42.4229550" lon="-7.3693040">
        <ele>984.7</ele>
        <time>2014-10-02T08:23:13Z</time>
      </trkpt>
      <trkpt lat="42.4229180" lon="-7.3693080">
        <ele>984.9</ele>
        <time>2014-10-02T08:23:14Z</time>
      </trkpt>
      <trkpt lat="42.4228830" lon="-7.3693110">
        <ele>985.1</ele>
        <time>2014-10-02T08:23:15Z</time>
      </trkpt>
      <trkpt lat="42.4228490" lon="-7.3693180">
        <ele>985.2</ele>
        <time>2014-10-02T08:23:16Z</time>
      </trkpt>
      <trkpt lat="42.4228140" lon="-7.3693250">
        <ele>985.4</ele>
        <time>2014-10-02T08:23:17Z</time>
      </trkpt>
      <trkpt lat="42.4227800" lon="-7.3693350">
        <ele>985.6</ele>
        <time>2014-10-02T08:23:18Z</time>
      </trkpt>
      <trkpt lat="42.4227470" lon="-7.3693460">
        <ele>985.7</ele>
        <time>2014-10-02T08:23:19Z</time>
      </trkpt>
      <trkpt lat="42.4227150" lon="-7.3693610">
        <ele>985.9</ele>
        <time>2014-10-02T08:23:20Z</time>
      </trkpt>
      <trkpt lat="42.4226810" lon="-7.3693750">
        <ele>986.0</ele>
        <time>2014-10-02T08:23:21Z</time>
      </trkpt>
      <trkpt lat="42.4226480" lon="-7.3693910">
        <ele>986.2</ele>
        <time>2014-10-02T08:23:22Z</time>
      </trkpt>
      <trkpt lat="42.4226170" lon="-7.3694080">
        <ele>986.3</ele>
        <time>2014-10-02T08:23:23Z</time>
      </trkpt>
      <trkpt lat="42.4225850" lon="-7.3694260">
        <ele>986.5</ele>
        <time>2014-10-02T08:23:24Z</time>
      </trkpt>
      <trkpt lat="42.4225540" lon="-7.3694460">
        <ele>986.6</ele>
        <time>2014-10-02T08:23:25Z</time>
      </trkpt>
      <trkpt lat="42.4225220" lon="-7.3694640">
        <ele>986.8</ele>
        <time>2014-10-02T08:23:26Z</time>
      </trkpt>
      <trkpt lat="42.4224890" lon="-7.3694830">
        <ele>986.9</ele>
        <time>2014-10-02T08:23:27Z</time>
      </trkpt>
      <trkpt lat="42.4224580" lon="-7.3695010">
        <ele>987.1</ele>
        <time>2014-10-02T08:23:28Z</time>
      </trkpt>
      <trkpt lat="42.4224260" lon="-7.3695180">
        <ele>987.2</ele>
        <time>2014-10-02T08:23:29Z</time>
      </trkpt>
      <trkpt lat="42.4223940" lon="-7.3695350">
        <ele>987.3</ele>
        <time>2014-10-02T08:23:30Z</time>
      </trkpt>
      <trkpt lat="42.4223610" lon="-7.3695530">
        <ele>987.5</ele>
        <time>2014-10-02T08:23:31Z</time>
      </trkpt>
      <trkpt lat="42.4223280" lon="-7.3695680">
        <ele>987.6</ele>
        <time>2014-10-02T08:23:32Z</time>
      </trkpt>
      <trkpt lat="42.4222940" lon="-7.3695800">
        <ele>987.7</ele>
        <time>2014-10-02T08:23:33Z</time>
      </trkpt>
      <trkpt lat="42.4222600" lon="-7.3695930">
        <ele>987.8</ele>
        <time>2014-10-02T08:23:34Z</time>
      </trkpt>
      <trkpt lat="42.4222250" lon="-7.3696030">
        <ele>987.9</ele>
        <time>2014-10-02T08:23:35Z</time>
      </trkpt>
      <trkpt lat="42.4221900" lon="-7.3696130">
        <ele>988.0</ele>
        <time>2014-10-02T08:23:36Z</time>
      </trkpt>
      <trkpt lat="42.4221550" lon="-7.3696190">
        <ele>988.2</ele>
        <time>2014-10-02T08:23:37Z</time>
      </trkpt>
      <trkpt lat="42.4221190" lon="-7.3696270">
        <ele>988.3</ele>
        <time>2014-10-02T08:23:38Z</time>
      </trkpt>
      <trkpt lat="42.4220840" lon="-7.3696330">
        <ele>988.5</ele>
        <time>2014-10-02T08:23:39Z</time>
      </trkpt>
      <trkpt lat="42.4220490" lon="-7.3696400">
        <ele>988.6</ele>
        <time>2014-10-02T08:23:40Z</time>
      </trkpt>
      <trkpt lat="42.4220150" lon="-7.3696470">
        <ele>988.8</ele>
        <time>2014-10-02T08:23:41Z</time>
      </trkpt>
      <trkpt lat="42.4219790" lon="-7.3696510">
        <ele>988.9</ele>
        <time>2014-10-02T08:23:42Z</time>
      </trkpt>
      <trkpt lat="42.4219440" lon="-7.3696590">
        <ele>989.0</ele>
        <time>2014-10-02T08:23:43Z</time>
      </trkpt>
      <trkpt lat="42.4219080" lon="-7.3696650">
        <ele>989.2</ele>
        <time>2014-10-02T08:23:44Z</time>
      </trkpt>
      <trkpt lat="42.4218720" lon="-7.3696700">
        <ele>989.3</ele>
        <time>2014-10-02T08:23:45Z</time>
      </trkpt>
      <trkpt lat="42.4218360" lon="-7.3696740">
        <ele>989.4</ele>
        <time>2014-10-02T08:23:46Z</time>
      </trkpt>
      <trkpt lat="42.4218000" lon="-7.3696820">
        <ele>989.5</ele>
        <time>2014-10-02T08:23:47Z</time>
      </trkpt>
      <trkpt lat="42.4217660" lon="-7.3696920">
        <ele>989.6</ele>
        <time>2014-10-02T08:23:48Z</time>
      </trkpt>
      <trkpt lat="42.4217310" lon="-7.3697020">
        <ele>989.8</ele>
        <time>2014-10-02T08:23:49Z</time>
      </trkpt>
      <trkpt lat="42.4216940" lon="-7.3697100">
        <ele>989.9</ele>
        <time>2014-10-02T08:23:50Z</time>
      </trkpt>
      <trkpt lat="42.4216550" lon="-7.3697180">
        <ele>990.1</ele>
        <time>2014-10-02T08:23:51Z</time>
      </trkpt>
      <trkpt lat="42.4216130" lon="-7.3697250">
        <ele>990.2</ele>
        <time>2014-10-02T08:23:52Z</time>
      </trkpt>
      <trkpt lat="42.4215720" lon="-7.3697320">
        <ele>990.4</ele>
        <time>2014-10-02T08:23:53Z</time>
      </trkpt>
      <trkpt lat="42.4215330" lon="-7.3697390">
        <ele>990.6</ele>
        <time>2014-10-02T08:23:54Z</time>
      </trkpt>
      <trkpt lat="42.4214920" lon="-7.3697430">
        <ele>990.7</ele>
        <time>2014-10-02T08:23:55Z</time>
      </trkpt>
      <trkpt lat="42.4214500" lon="-7.3697490">
        <ele>990.9</ele>
        <time>2014-10-02T08:23:56Z</time>
      </trkpt>
      <trkpt lat="42.4214110" lon="-7.3697580">
        <ele>991.0</ele>
        <time>2014-10-02T08:23:57Z</time>
      </trkpt>
      <trkpt lat="42.4213650" lon="-7.3697680">
        <ele>991.1</ele>
        <time>2014-10-02T08:23:58Z</time>
      </trkpt>
      <trkpt lat="42.4213200" lon="-7.3697820">
        <ele>991.3</ele>
        <time>2014-10-02T08:23:59Z</time>
      </trkpt>
      <trkpt lat="42.4212790" lon="-7.3698060">
        <ele>991.4</ele>
        <time>2014-10-02T08:24:00Z</time>
      </trkpt>
      <trkpt lat="42.4212440" lon="-7.3698480">
        <ele>991.5</ele>
        <time>2014-10-02T08:24:01Z</time>
      </trkpt>
      <trkpt lat="42.4212220" lon="-7.3699020">
        <ele>991.4</ele>
        <time>2014-10-02T08:24:02Z</time>
      </trkpt>
      <trkpt lat="42.4212020" lon="-7.3699590">
        <ele>991.2</ele>
        <time>2014-10-02T08:24:03Z</time>
      </trkpt>
      <trkpt lat="42.4211800" lon="-7.3700220">
        <ele>991.0</ele>
        <time>2014-10-02T08:24:04Z</time>
      </trkpt>
      <trkpt lat="42.4211590" lon="-7.3700910">
        <ele>990.9</ele>
        <time>2014-10-02T08:24:05Z</time>
      </trkpt>
      <trkpt lat="42.4211360" lon="-7.3701580">
        <ele>990.7</ele>
        <time>2014-10-02T08:24:06Z</time>
      </trkpt>
      <trkpt lat="42.4211150" lon="-7.3702280">
        <ele>990.5</ele>
        <time>2014-10-02T08:24:07Z</time>
      </trkpt>
      <trkpt lat="42.4210910" lon="-7.3702960">
        <ele>990.4</ele>
        <time>2014-10-02T08:24:08Z</time>
      </trkpt>
      <trkpt lat="42.4210690" lon="-7.3703660">
        <ele>990.3</ele>
        <time>2014-10-02T08:24:09Z</time>
      </trkpt>
      <trkpt lat="42.4210460" lon="-7.3704360">
        <ele>990.2</ele>
        <time>2014-10-02T08:24:10Z</time>
      </trkpt>
      <trkpt lat="42.4210190" lon="-7.3705070">
        <ele>990.1</ele>
        <time>2014-10-02T08:24:11Z</time>
      </trkpt>
      <trkpt lat="42.4209920" lon="-7.3705760">
        <ele>990.0</ele>
        <time>2014-10-02T08:24:12Z</time>
      </trkpt>
      <trkpt lat="42.4209660" lon="-7.3706500">
        <ele>989.9</ele>
        <time>2014-10-02T08:24:13Z</time>
      </trkpt>
      <trkpt lat="42.4209370" lon="-7.3707190">
        <ele>989.9</ele>
        <time>2014-10-02T08:24:14Z</time>
      </trkpt>
      <trkpt lat="42.4209010" lon="-7.3707820">
        <ele>989.8</ele>
        <time>2014-10-02T08:24:15Z</time>
      </trkpt>
      <trkpt lat="42.4208680" lon="-7.3708430">
        <ele>989.8</ele>
        <time>2014-10-02T08:24:16Z</time>
      </trkpt>
      <trkpt lat="42.4208340" lon="-7.3708990">
        <ele>989.7</ele>
        <time>2014-10-02T08:24:17Z</time>
      </trkpt>
      <trkpt lat="42.4207990" lon="-7.3709540">
        <ele>989.7</ele>
        <time>2014-10-02T08:24:18Z</time>
      </trkpt>
      <trkpt lat="42.4207590" lon="-7.3710110">
        <ele>989.7</ele>
        <time>2014-10-02T08:24:19Z</time>
      </trkpt>
      <trkpt lat="42.4207230" lon="-7.3710700">
        <ele>989.7</ele>
        <time>2014-10-02T08:24:20Z</time>
      </trkpt>
      <trkpt lat="42.4206840" lon="-7.3711270">
        <ele>989.8</ele>
        <time>2014-10-02T08:24:21Z</time>
      </trkpt>
      <trkpt lat="42.4206500" lon="-7.3711870">
        <ele>990.0</ele>
        <time>2014-10-02T08:24:22Z</time>
      </trkpt>
      <trkpt lat="42.4206140" lon="-7.3712520">
        <ele>990.2</ele>
        <time>2014-10-02T08:24:23Z</time>
      </trkpt>
      <trkpt lat="42.4205740" lon="-7.3713110">
        <ele>990.4</ele>
        <time>2014-10-02T08:24:24Z</time>
      </trkpt>
      <trkpt lat="42.4205350" lon="-7.3713740">
        <ele>990.6</ele>
        <time>2014-10-02T08:24:25Z</time>
      </trkpt>
      <trkpt lat="42.4204950" lon="-7.3714310">
        <ele>990.7</ele>
        <time>2014-10-02T08:24:26Z</time>
      </trkpt>
      <trkpt lat="42.4204580" lon="-7.3714780">
        <ele>990.8</ele>
        <time>2014-10-02T08:24:27Z</time>
      </trkpt>
      <trkpt lat="42.4204250" lon="-7.3715330">
        <ele>990.9</ele>
        <time>2014-10-02T08:24:28Z</time>
      </trkpt>
      <trkpt lat="42.4203860" lon="-7.3715880">
        <ele>991.0</ele>
        <time>2014-10-02T08:24:29Z</time>
      </trkpt>
      <trkpt lat="42.4203520" lon="-7.3716450">
        <ele>991.0</ele>
        <time>2014-10-02T08:24:30Z</time>
      </trkpt>
      <trkpt lat="42.4203160" lon="-7.3717040">
        <ele>991.1</ele>
        <time>2014-10-02T08:24:31Z</time>
      </trkpt>
      <trkpt lat="42.4202770" lon="-7.3717560">
        <ele>991.1</ele>
        <time>2014-10-02T08:24:32Z</time>
      </trkpt>
      <trkpt lat="42.4202390" lon="-7.3718130">
        <ele>991.2</ele>
        <time>2014-10-02T08:24:33Z</time>
      </trkpt>
      <trkpt lat="42.4202040" lon="-7.3718710">
        <ele>991.4</ele>
        <time>2014-10-02T08:24:34Z</time>
      </trkpt>
      <trkpt lat="42.4201660" lon="-7.3719260">
        <ele>991.6</ele>
        <time>2014-10-02T08:24:35Z</time>
      </trkpt>
      <trkpt lat="42.4201320" lon="-7.3719810">
        <ele>991.8</ele>
        <time>2014-10-02T08:24:36Z</time>
      </trkpt>
      <trkpt lat="42.4201000" lon="-7.3720330">
        <ele>992.0</ele>
        <time>2014-10-02T08:24:37Z</time>
      </trkpt>
      <trkpt lat="42.4200660" lon="-7.3720810">
        <ele>992.1</ele>
        <time>2014-10-02T08:24:38Z</time>
      </trkpt>
      <trkpt lat="42.4200350" lon="-7.3721300">
        <ele>992.3</ele>
        <time>2014-10-02T08:24:39Z</time>
      </trkpt>
      <trkpt lat="42.4200040" lon="-7.3721830">
        <ele>992.5</ele>
        <time>2014-10-02T08:24:40Z</time>
      </trkpt>
      <trkpt lat="42.4199710" lon="-7.3722300">
        <ele>992.8</ele>
        <time>2014-10-02T08:24:41Z</time>
      </trkpt>
      <trkpt lat="42.4199390" lon="-7.3722770">
        <ele>993.2</ele>
        <time>2014-10-02T08:24:42Z</time>
      </trkpt>
      <trkpt lat="42.4199090" lon="-7.3723210">
        <ele>993.5</ele>
        <time>2014-10-02T08:24:43Z</time>
      </trkpt>
      <trkpt lat="42.4198770" lon="-7.3723650">
        <ele>993.7</ele>
        <time>2014-10-02T08:24:44Z</time>
      </trkpt>
      <trkpt lat="42.4198460" lon="-7.3724060">
        <ele>994.0</ele>
        <time>2014-10-02T08:24:45Z</time>
      </trkpt>
      <trkpt lat="42.4198200" lon="-7.3724450">
        <ele>994.2</ele>
        <time>2014-10-02T08:24:46Z</time>
      </trkpt>
      <trkpt lat="42.4197950" lon="-7.3724820">
        <ele>994.5</ele>
        <time>2014-10-02T08:24:47Z</time>
      </trkpt>
      <trkpt lat="42.4197710" lon="-7.3725170">
        <ele>994.8</ele>
        <time>2014-10-02T08:24:48Z</time>
      </trkpt>
      <trkpt lat="42.4197460" lon="-7.3725530">
        <ele>995.1</ele>
        <time>2014-10-02T08:24:49Z</time>
      </trkpt>
      <trkpt lat="42.4197210" lon="-7.3725900">
        <ele>995.4</ele>
        <time>2014-10-02T08:24:50Z</time>
      </trkpt>
      <trkpt lat="42.4196950" lon="-7.3726260">
        <ele>995.7</ele>
        <time>2014-10-02T08:24:51Z</time>
      </trkpt>
      <trkpt lat="42.4196670" lon="-7.3726620">
        <ele>996.1</ele>
        <time>2014-10-02T08:24:52Z</time>
      </trkpt>
      <trkpt lat="42.4196380" lon="-7.3726970">
        <ele>996.4</ele>
        <time>2014-10-02T08:24:53Z</time>
      </trkpt>
      <trkpt lat="42.4196060" lon="-7.3727270">
        <ele>996.7</ele>
        <time>2014-10-02T08:24:54Z</time>
      </trkpt>
      <trkpt lat="42.4195760" lon="-7.3727560">
        <ele>996.9</ele>
        <time>2014-10-02T08:24:55Z</time>
      </trkpt>
      <trkpt lat="42.4195440" lon="-7.3727880">
        <ele>997.1</ele>
        <time>2014-10-02T08:24:56Z</time>
      </trkpt>
      <trkpt lat="42.4195110" lon="-7.3728170">
        <ele>997.3</ele>
        <time>2014-10-02T08:24:57Z</time>
      </trkpt>
      <trkpt lat="42.4194800" lon="-7.3728450">
        <ele>997.6</ele>
        <time>2014-10-02T08:24:58Z</time>
      </trkpt>
      <trkpt lat="42.4194500" lon="-7.3728710">
        <ele>997.8</ele>
        <time>2014-10-02T08:24:59Z</time>
      </trkpt>
      <trkpt lat="42.4194190" lon="-7.3728940">
        <ele>998.0</ele>
        <time>2014-10-02T08:25:00Z</time>
      </trkpt>
      <trkpt lat="42.4193870" lon="-7.3729170">
        <ele>998.2</ele>
        <time>2014-10-02T08:25:01Z</time>
      </trkpt>
      <trkpt lat="42.4193530" lon="-7.3729380">
        <ele>998.5</ele>
        <time>2014-10-02T08:25:02Z</time>
      </trkpt>
      <trkpt lat="42.4193190" lon="-7.3729570">
        <ele>998.7</ele>
        <time>2014-10-02T08:25:03Z</time>
      </trkpt>
      <trkpt lat="42.4192850" lon="-7.3729760">
        <ele>999.0</ele>
        <time>2014-10-02T08:25:04Z</time>
      </trkpt>
      <trkpt lat="42.4192510" lon="-7.3729940">
        <ele>999.2</ele>
        <time>2014-10-02T08:25:05Z</time>
      </trkpt>
      <trkpt lat="42.4192150" lon="-7.3730100">
        <ele>999.5</ele>
        <time>2014-10-02T08:25:06Z</time>
      </trkpt>
      <trkpt lat="42.4191780" lon="-7.3730230">
        <ele>999.7</ele>
        <time>2014-10-02T08:25:07Z</time>
      </trkpt>
      <trkpt lat="42.4191400" lon="-7.3730360">
        <ele>999.9</ele>
        <time>2014-10-02T08:25:08Z</time>
      </trkpt>
      <trkpt lat="42.4191010" lon="-7.3730470">
        <ele>1000.2</ele>
        <time>2014-10-02T08:25:09Z</time>
      </trkpt>
      <trkpt lat="42.4190630" lon="-7.3730590">
        <ele>1000.5</ele>
        <time>2014-10-02T08:25:10Z</time>
      </trkpt>
      <trkpt lat="42.4190230" lon="-7.3730720">
        <ele>1000.7</ele>
        <time>2014-10-02T08:25:11Z</time>
      </trkpt>
      <trkpt lat="42.4189840" lon="-7.3730820">
        <ele>1001.0</ele>
        <time>2014-10-02T08:25:12Z</time>
      </trkpt>
      <trkpt lat="42.4189490" lon="-7.3730910">
        <ele>1001.2</ele>
        <time>2014-10-02T08:25:13Z</time>
      </trkpt>
      <trkpt lat="42.4189130" lon="-7.3731010">
        <ele>1001.4</ele>
        <time>2014-10-02T08:25:14Z</time>
      </trkpt>
      <trkpt lat="42.4188760" lon="-7.3731120">
        <ele>1001.6</ele>
        <time>2014-10-02T08:25:15Z</time>
      </trkpt>
      <trkpt lat="42.4188380" lon="-7.3731220">
        <ele>1001.8</ele>
        <time>2014-10-02T08:25:16Z</time>
      </trkpt>
      <trkpt lat="42.4187990" lon="-7.3731320">
        <ele>1002.0</ele>
        <time>2014-10-02T08:25:17Z</time>
      </trkpt>
      <trkpt lat="42.4187600" lon="-7.3731390">
        <ele>1002.2</ele>
        <time>2014-10-02T08:25:18Z</time>
      </trkpt>
      <trkpt lat="42.4187240" lon="-7.3731480">
        <ele>1002.3</ele>
        <time>2014-10-02T08:25:19Z</time>
      </trkpt>
      <trkpt lat="42.4186840" lon="-7.3731580">
        <ele>1002.5</ele>
        <time>2014-10-02T08:25:20Z</time>
      </trkpt>
      <trkpt lat="42.4186450" lon="-7.3731690">
        <ele>1002.6</ele>
        <time>2014-10-02T08:25:21Z</time>
      </trkpt>
      <trkpt lat="42.4186050" lon="-7.3731820">
        <ele>1002.7</ele>
        <time>2014-10-02T08:25:22Z</time>
      </trkpt>
      <trkpt lat="42.4185600" lon="-7.3731940">
        <ele>1002.8</ele>
        <time>2014-10-02T08:25:23Z</time>
      </trkpt>
      <trkpt lat="42.4185140" lon="-7.3732040">
        <ele>1003.0</ele>
        <time>2014-10-02T08:25:24Z</time>
      </trkpt>
      <trkpt lat="42.4184720" lon="-7.3732130">
        <ele>1003.1</ele>
        <time>2014-10-02T08:25:25Z</time>
      </trkpt>
      <trkpt lat="42.4184280" lon="-7.3732240">
        <ele>1003.2</ele>
        <time>2014-10-02T08:25:26Z</time>
      </trkpt>
      <trkpt lat="42.4183830" lon="-7.3732350">
        <ele>1003.3</ele>
        <time>2014-10-02T08:25:27Z</time>
      </trkpt>
      <trkpt lat="42.4183410" lon="-7.3732490">
        <ele>1003.3</ele>
        <time>2014-10-02T08:25:28Z</time>
      </trkpt>
      <trkpt lat="42.4182970" lon="-7.3732650">
        <ele>1003.3</ele>
        <time>2014-10-02T08:25:29Z</time>
      </trkpt>
      <trkpt lat="42.4182530" lon="-7.3732760">
        <ele>1003.3</ele>
        <time>2014-10-02T08:25:30Z</time>
      </trkpt>
      <trkpt lat="42.4182070" lon="-7.3732860">
        <ele>1003.4</ele>
        <time>2014-10-02T08:25:31Z</time>
      </trkpt>
      <trkpt lat="42.4181620" lon="-7.3732950">
        <ele>1003.4</ele>
        <time>2014-10-02T08:25:32Z</time>
      </trkpt>
      <trkpt lat="42.4181180" lon="-7.3733010">
        <ele>1003.4</ele>
        <time>2014-10-02T08:25:33Z</time>
      </trkpt>
      <trkpt lat="42.4180740" lon="-7.3733120">
        <ele>1003.4</ele>
        <time>2014-10-02T08:25:34Z</time>
      </trkpt>
      <trkpt lat="42.4180280" lon="-7.3733250">
        <ele>1003.4</ele>
        <time>2014-10-02T08:25:35Z</time>
      </trkpt>
      <trkpt lat="42.4179820" lon="-7.3733380">
        <ele>1003.4</ele>
        <time>2014-10-02T08:25:36Z</time>
      </trkpt>
      <trkpt lat="42.4179330" lon="-7.3733520">
        <ele>1003.4</ele>
        <time>2014-10-02T08:25:37Z</time>
      </trkpt>
      <trkpt lat="42.4178870" lon="-7.3733640">
        <ele>1003.4</ele>
        <time>2014-10-02T08:25:38Z</time>
      </trkpt>
      <trkpt lat="42.4178380" lon="-7.3733760">
        <ele>1003.4</ele>
        <time>2014-10-02T08:25:39Z</time>
      </trkpt>
      <trkpt lat="42.4177870" lon="-7.3733900">
        <ele>1003.4</ele>
        <time>2014-10-02T08:25:40Z</time>
      </trkpt>
      <trkpt lat="42.4177340" lon="-7.3734030">
        <ele>1003.4</ele>
        <time>2014-10-02T08:25:41Z</time>
      </trkpt>
      <trkpt lat="42.4176810" lon="-7.3734170">
        <ele>1003.4</ele>
        <time>2014-10-02T08:25:42Z</time>
      </trkpt>
      <trkpt lat="42.4176240" lon="-7.3734360">
        <ele>1003.3</ele>
        <time>2014-10-02T08:25:43Z</time>
      </trkpt>
      <trkpt lat="42.4175670" lon="-7.3734600">
        <ele>1003.2</ele>
        <time>2014-10-02T08:25:44Z</time>
      </trkpt>
      <trkpt lat="42.4175120" lon="-7.3734860">
        <ele>1003.1</ele>
        <time>2014-10-02T08:25:45Z</time>
      </trkpt>
      <trkpt lat="42.4174600" lon="-7.3735130">
        <ele>1002.8</ele>
        <time>2014-10-02T08:25:46Z</time>
      </trkpt>
      <trkpt lat="42.4174060" lon="-7.3735450">
        <ele>1002.6</ele>
        <time>2014-10-02T08:25:47Z</time>
      </trkpt>
      <trkpt lat="42.4173500" lon="-7.3735760">
        <ele>1002.4</ele>
        <time>2014-10-02T08:25:48Z</time>
      </trkpt>
      <trkpt lat="42.4172910" lon="-7.3736060">
        <ele>1002.2</ele>
        <time>2014-10-02T08:25:49Z</time>
      </trkpt>
      <trkpt lat="42.4172260" lon="-7.3736420">
        <ele>1002.1</ele>
        <time>2014-10-02T08:25:50Z</time>
      </trkpt>
      <trkpt lat="42.4171670" lon="-7.3736790">
        <ele>1002.1</ele>
        <time>2014-10-02T08:25:51Z</time>
      </trkpt>
      <trkpt lat="42.4171100" lon="-7.3737180">
        <ele>1002.1</ele>
        <time>2014-10-02T08:25:52Z</time>
      </trkpt>
      <trkpt lat="42.4170550" lon="-7.3737640">
        <ele>1002.2</ele>
        <time>2014-10-02T08:25:53Z</time>
      </trkpt>
      <trkpt lat="42.4170040" lon="-7.3738120">
        <ele>1002.2</ele>
        <time>2014-10-02T08:25:54Z</time>
      </trkpt>
      <trkpt lat="42.4169610" lon="-7.3738660">
        <ele>1002.3</ele>
        <time>2014-10-02T08:25:55Z</time>
      </trkpt>
      <trkpt lat="42.4169240" lon="-7.3739250">
        <ele>1002.3</ele>
        <time>2014-10-02T08:25:56Z</time>
      </trkpt>
      <trkpt lat="42.4168930" lon="-7.3739830">
        <ele>1002.4</ele>
        <time>2014-10-02T08:25:57Z</time>
      </trkpt>
      <trkpt lat="42.4168680" lon="-7.3740420">
        <ele>1002.5</ele>
        <time>2014-10-02T08:25:58Z</time>
      </trkpt>
      <trkpt lat="42.4168490" lon="-7.3740980">
        <ele>1002.6</ele>
        <time>2014-10-02T08:25:59Z</time>
      </trkpt>
      <trkpt lat="42.4168320" lon="-7.3741500">
        <ele>1002.7</ele>
        <time>2014-10-02T08:26:00Z</time>
      </trkpt>
      <trkpt lat="42.4168170" lon="-7.3742010">
        <ele>1002.9</ele>
        <time>2014-10-02T08:26:01Z</time>
      </trkpt>
      <trkpt lat="42.4168020" lon="-7.3742480">
        <ele>1003.0</ele>
        <time>2014-10-02T08:26:02Z</time>
      </trkpt>
      <trkpt lat="42.4167860" lon="-7.3742920">
        <ele>1003.0</ele>
        <time>2014-10-02T08:26:03Z</time>
      </trkpt>
      <trkpt lat="42.4167700" lon="-7.3743340">
        <ele>1003.0</ele>
        <time>2014-10-02T08:26:04Z</time>
      </trkpt>
      <trkpt lat="42.4167540" lon="-7.3743700">
        <ele>1003.0</ele>
        <time>2014-10-02T08:26:05Z</time>
      </trkpt>
      <trkpt lat="42.4167360" lon="-7.3744240">
        <ele>1003.2</ele>
        <time>2014-10-02T08:26:07Z</time>
      </trkpt>
      <trkpt lat="42.4167350" lon="-7.3744660">
        <ele>1003.4</ele>
        <time>2014-10-02T08:26:09Z</time>
      </trkpt>
      <trkpt lat="42.4167480" lon="-7.3744200">
        <ele>1003.7</ele>
        <time>2014-10-02T08:26:51Z</time>
      </trkpt>
      <trkpt lat="42.4168030" lon="-7.3743740">
        <ele>1004.0</ele>
        <time>2014-10-02T08:26:53Z</time>
      </trkpt>
      <trkpt lat="42.4168130" lon="-7.3744440">
        <ele>1004.2</ele>
        <time>2014-10-02T08:26:55Z</time>
      </trkpt>
      <trkpt lat="42.4168360" lon="-7.3744850">
        <ele>1004.2</ele>
        <time>2014-10-02T08:26:56Z</time>
      </trkpt>
      <trkpt lat="42.4168180" lon="-7.3744510">
        <ele>1004.2</ele>
        <time>2014-10-02T08:27:08Z</time>
      </trkpt>
      <trkpt lat="42.4168040" lon="-7.3744190">
        <ele>1004.2</ele>
        <time>2014-10-02T08:27:19Z</time>
      </trkpt>
      <trkpt lat="42.4167720" lon="-7.3744260">
        <ele>1004.3</ele>
        <time>2014-10-02T08:27:23Z</time>
      </trkpt>
      <trkpt lat="42.4167610" lon="-7.3744610">
        <ele>1004.3</ele>
        <time>2014-10-02T08:28:35Z</time>
      </trkpt>
      <trkpt lat="42.4167300" lon="-7.3744800">
        <ele>1004.3</ele>
        <time>2014-10-02T08:28:39Z</time>
      </trkpt>
      <trkpt lat="42.4167030" lon="-7.3745110">
        <ele>1004.3</ele>
        <time>2014-10-02T08:28:41Z</time>
      </trkpt>
      <trkpt lat="42.4166820" lon="-7.3745370">
        <ele>1004.3</ele>
        <time>2014-10-02T08:28:42Z</time>
      </trkpt>
      <trkpt lat="42.4166550" lon="-7.3745660">
        <ele>1004.3</ele>
        <time>2014-10-02T08:28:43Z</time>
      </trkpt>
      <trkpt lat="42.4166230" lon="-7.3745980">
        <ele>1004.2</ele>
        <time>2014-10-02T08:28:44Z</time>
      </trkpt>
      <trkpt lat="42.4165860" lon="-7.3746290">
        <ele>1004.1</ele>
        <time>2014-10-02T08:28:45Z</time>
      </trkpt>
      <trkpt lat="42.4165470" lon="-7.3746650">
        <ele>1004.0</ele>
        <time>2014-10-02T08:28:46Z</time>
      </trkpt>
      <trkpt lat="42.4165050" lon="-7.3747000">
        <ele>1003.9</ele>
        <time>2014-10-02T08:28:47Z</time>
      </trkpt>
      <trkpt lat="42.4164620" lon="-7.3747380">
        <ele>1003.9</ele>
        <time>2014-10-02T08:28:48Z</time>
      </trkpt>
      <trkpt lat="42.4164180" lon="-7.3747770">
        <ele>1003.8</ele>
        <time>2014-10-02T08:28:49Z</time>
      </trkpt>
      <trkpt lat="42.4163730" lon="-7.3748190">
        <ele>1003.9</ele>
        <time>2014-10-02T08:28:50Z</time>
      </trkpt>
      <trkpt lat="42.4163270" lon="-7.3748630">
        <ele>1003.9</ele>
        <time>2014-10-02T08:28:51Z</time>
      </trkpt>
      <trkpt lat="42.4162800" lon="-7.3749080">
        <ele>1004.0</ele>
        <time>2014-10-02T08:28:52Z</time>
      </trkpt>
      <trkpt lat="42.4162350" lon="-7.3749510">
        <ele>1004.1</ele>
        <time>2014-10-02T08:28:53Z</time>
      </trkpt>
      <trkpt lat="42.4161910" lon="-7.3749950">
        <ele>1004.1</ele>
        <time>2014-10-02T08:28:54Z</time>
      </trkpt>
      <trkpt lat="42.4161470" lon="-7.3750380">
        <ele>1004.1</ele>
        <time>2014-10-02T08:28:55Z</time>
      </trkpt>
      <trkpt lat="42.4161030" lon="-7.3750810">
        <ele>1004.1</ele>
        <time>2014-10-02T08:28:56Z</time>
      </trkpt>
      <trkpt lat="42.4160590" lon="-7.3751250">
        <ele>1004.0</ele>
        <time>2014-10-02T08:28:57Z</time>
      </trkpt>
      <trkpt lat="42.4160140" lon="-7.3751700">
        <ele>1004.0</ele>
        <time>2014-10-02T08:28:58Z</time>
      </trkpt>
      <trkpt lat="42.4159690" lon="-7.3752150">
        <ele>1004.0</ele>
        <time>2014-10-02T08:28:59Z</time>
      </trkpt>
      <trkpt lat="42.4159240" lon="-7.3752630">
        <ele>1004.1</ele>
        <time>2014-10-02T08:29:00Z</time>
      </trkpt>
      <trkpt lat="42.4158790" lon="-7.3753110">
        <ele>1004.1</ele>
        <time>2014-10-02T08:29:01Z</time>
      </trkpt>
      <trkpt lat="42.4158330" lon="-7.3753600">
        <ele>1004.1</ele>
        <time>2014-10-02T08:29:02Z</time>
      </trkpt>
      <trkpt lat="42.4157860" lon="-7.3754090">
        <ele>1004.0</ele>
        <time>2014-10-02T08:29:03Z</time>
      </trkpt>
      <trkpt lat="42.4157390" lon="-7.3754580">
        <ele>1003.9</ele>
        <time>2014-10-02T08:29:04Z</time>
      </trkpt>
      <trkpt lat="42.4156910" lon="-7.3755030">
        <ele>1003.7</ele>
        <time>2014-10-02T08:29:05Z</time>
      </trkpt>
      <trkpt lat="42.4156410" lon="-7.3755440">
        <ele>1003.6</ele>
        <time>2014-10-02T08:29:06Z</time>
      </trkpt>
      <trkpt lat="42.4155860" lon="-7.3755810">
        <ele>1003.4</ele>
        <time>2014-10-02T08:29:07Z</time>
      </trkpt>
      <trkpt lat="42.4155280" lon="-7.3756140">
        <ele>1003.3</ele>
        <time>2014-10-02T08:29:08Z</time>
      </trkpt>
      <trkpt lat="42.4154670" lon="-7.3756470">
        <ele>1003.0</ele>
        <time>2014-10-02T08:29:09Z</time>
      </trkpt>
      <trkpt lat="42.4154040" lon="-7.3756800">
        <ele>1002.8</ele>
        <time>2014-10-02T08:29:10Z</time>
      </trkpt>
      <trkpt lat="42.4153380" lon="-7.3757130">
        <ele>1002.5</ele>
        <time>2014-10-02T08:29:11Z</time>
      </trkpt>
      <trkpt lat="42.4152690" lon="-7.3757470">
        <ele>1002.2</ele>
        <time>2014-10-02T08:29:12Z</time>
      </trkpt>
      <trkpt lat="42.4152010" lon="-7.3757830">
        <ele>1001.9</ele>
        <time>2014-10-02T08:29:13Z</time>
      </trkpt>
      <trkpt lat="42.4151320" lon="-7.3758190">
        <ele>1001.6</ele>
        <time>2014-10-02T08:29:14Z</time>
      </trkpt>
      <trkpt lat="42.4150610" lon="-7.3758560">
        <ele>1001.3</ele>
        <time>2014-10-02T08:29:15Z</time>
      </trkpt>
      <trkpt lat="42.4149900" lon="-7.3758930">
        <ele>1001.0</ele>
        <time>2014-10-02T08:29:16Z</time>
      </trkpt>
      <trkpt lat="42.4149170" lon="-7.3759290">
        <ele>1000.7</ele>
        <time>2014-10-02T08:29:17Z</time>
      </trkpt>
      <trkpt lat="42.4148440" lon="-7.3759630">
        <ele>1000.4</ele>
        <time>2014-10-02T08:29:18Z</time>
      </trkpt>
      <trkpt lat="42.4147690" lon="-7.3759970">
        <ele>1000.0</ele>
        <time>2014-10-02T08:29:19Z</time>
      </trkpt>
      <trkpt lat="42.4146950" lon="-7.3760300">
        <ele>999.6</ele>
        <time>2014-10-02T08:29:20Z</time>
      </trkpt>
      <trkpt lat="42.4146200" lon="-7.3760620">
        <ele>999.2</ele>
        <time>2014-10-02T08:29:21Z</time>
      </trkpt>
      <trkpt lat="42.4145450" lon="-7.3760950">
        <ele>998.8</ele>
        <time>2014-10-02T08:29:22Z</time>
      </trkpt>
      <trkpt lat="42.4144710" lon="-7.3761300">
        <ele>998.3</ele>
        <time>2014-10-02T08:29:23Z</time>
      </trkpt>
      <trkpt lat="42.4143960" lon="-7.3761660">
        <ele>997.8</ele>
        <time>2014-10-02T08:29:24Z</time>
      </trkpt>
      <trkpt lat="42.4143200" lon="-7.3762030">
        <ele>997.5</ele>
        <time>2014-10-02T08:29:25Z</time>
      </trkpt>
      <trkpt lat="42.4142430" lon="-7.3762390">
        <ele>997.3</ele>
        <time>2014-10-02T08:29:26Z</time>
      </trkpt>
      <trkpt lat="42.4141640" lon="-7.3762760">
        <ele>997.0</ele>
        <time>2014-10-02T08:29:27Z</time>
      </trkpt>
      <trkpt lat="42.4140850" lon="-7.3763140">
        <ele>996.6</ele>
        <time>2014-10-02T08:29:28Z</time>
      </trkpt>
      <trkpt lat="42.4140040" lon="-7.3763520">
        <ele>996.2</ele>
        <time>2014-10-02T08:29:29Z</time>
      </trkpt>
      <trkpt lat="42.4139220" lon="-7.3763910">
        <ele>995.7</ele>
        <time>2014-10-02T08:29:30Z</time>
      </trkpt>
      <trkpt lat="42.4138380" lon="-7.3764310">
        <ele>995.2</ele>
        <time>2014-10-02T08:29:31Z</time>
      </trkpt>
      <trkpt lat="42.4137520" lon="-7.3764730">
        <ele>994.7</ele>
        <time>2014-10-02T08:29:32Z</time>
      </trkpt>
      <trkpt lat="42.4136620" lon="-7.3765160">
        <ele>994.1</ele>
        <time>2014-10-02T08:29:33Z</time>
      </trkpt>
      <trkpt lat="42.4135730" lon="-7.3765590">
        <ele>993.5</ele>
        <time>2014-10-02T08:29:34Z</time>
      </trkpt>
      <trkpt lat="42.4134820" lon="-7.3766030">
        <ele>993.0</ele>
        <time>2014-10-02T08:29:35Z</time>
      </trkpt>
      <trkpt lat="42.4133890" lon="-7.3766470">
        <ele>992.4</ele>
        <time>2014-10-02T08:29:36Z</time>
      </trkpt>
      <trkpt lat="42.4132940" lon="-7.3766910">
        <ele>991.9</ele>
        <time>2014-10-02T08:29:37Z</time>
      </trkpt>
      <trkpt lat="42.4132020" lon="-7.3767330">
        <ele>991.4</ele>
        <time>2014-10-02T08:29:38Z</time>
      </trkpt>
      <trkpt lat="42.4131100" lon="-7.3767750">
        <ele>991.2</ele>
        <time>2014-10-02T08:29:39Z</time>
      </trkpt>
      <trkpt lat="42.4130210" lon="-7.3768160">
        <ele>991.1</ele>
        <time>2014-10-02T08:29:40Z</time>
      </trkpt>
      <trkpt lat="42.4129320" lon="-7.3768590">
        <ele>991.1</ele>
        <time>2014-10-02T08:29:41Z</time>
      </trkpt>
      <trkpt lat="42.4128480" lon="-7.3769080">
        <ele>991.1</ele>
        <time>2014-10-02T08:29:42Z</time>
      </trkpt>
      <trkpt lat="42.4127690" lon="-7.3769590">
        <ele>991.1</ele>
        <time>2014-10-02T08:29:43Z</time>
      </trkpt>
      <trkpt lat="42.4126950" lon="-7.3770100">
        <ele>991.0</ele>
        <time>2014-10-02T08:29:44Z</time>
      </trkpt>
      <trkpt lat="42.4126230" lon="-7.3770590">
        <ele>991.0</ele>
        <time>2014-10-02T08:29:45Z</time>
      </trkpt>
      <trkpt lat="42.4125550" lon="-7.3771060">
        <ele>991.0</ele>
        <time>2014-10-02T08:29:46Z</time>
      </trkpt>
      <trkpt lat="42.4124880" lon="-7.3771570">
        <ele>991.1</ele>
        <time>2014-10-02T08:29:47Z</time>
      </trkpt>
      <trkpt lat="42.4124230" lon="-7.3772060">
        <ele>991.2</ele>
        <time>2014-10-02T08:29:48Z</time>
      </trkpt>
      <trkpt lat="42.4123640" lon="-7.3772520">
        <ele>991.2</ele>
        <time>2014-10-02T08:29:49Z</time>
      </trkpt>
      <trkpt lat="42.4123100" lon="-7.3772950">
        <ele>991.2</ele>
        <time>2014-10-02T08:29:50Z</time>
      </trkpt>
      <trkpt lat="42.4122600" lon="-7.3773390">
        <ele>991.0</ele>
        <time>2014-10-02T08:29:51Z</time>
      </trkpt>
      <trkpt lat="42.4122120" lon="-7.3773840">
        <ele>990.7</ele>
        <time>2014-10-02T08:29:52Z</time>
      </trkpt>
      <trkpt lat="42.4121690" lon="-7.3774280">
        <ele>990.2</ele>
        <time>2014-10-02T08:29:53Z</time>
      </trkpt>
      <trkpt lat="42.4121260" lon="-7.3774720">
        <ele>989.6</ele>
        <time>2014-10-02T08:29:54Z</time>
      </trkpt>
      <trkpt lat="42.4120860" lon="-7.3775200">
        <ele>989.3</ele>
        <time>2014-10-02T08:29:55Z</time>
      </trkpt>
      <trkpt lat="42.4120480" lon="-7.3775700">
        <ele>989.1</ele>
        <time>2014-10-02T08:29:56Z</time>
      </trkpt>
      <trkpt lat="42.4120130" lon="-7.3776230">
        <ele>989.0</ele>
        <time>2014-10-02T08:29:57Z</time>
      </trkpt>
      <trkpt lat="42.4119770" lon="-7.3776780">
        <ele>988.9</ele>
        <time>2014-10-02T08:29:58Z</time>
      </trkpt>
      <trkpt lat="42.4119420" lon="-7.3777350">
        <ele>988.8</ele>
        <time>2014-10-02T08:29:59Z</time>
      </trkpt>
      <trkpt lat="42.4119050" lon="-7.3777940">
        <ele>988.7</ele>
        <time>2014-10-02T08:30:00Z</time>
      </trkpt>
      <trkpt lat="42.4118700" lon="-7.3778540">
        <ele>988.6</ele>
        <time>2014-10-02T08:30:01Z</time>
      </trkpt>
      <trkpt lat="42.4118340" lon="-7.3779140">
        <ele>988.6</ele>
        <time>2014-10-02T08:30:02Z</time>
      </trkpt>
      <trkpt lat="42.4118000" lon="-7.3779740">
        <ele>988.6</ele>
        <time>2014-10-02T08:30:03Z</time>
      </trkpt>
      <trkpt lat="42.4117660" lon="-7.3780390">
        <ele>988.6</ele>
        <time>2014-10-02T08:30:04Z</time>
      </trkpt>
      <trkpt lat="42.4117340" lon="-7.3781060">
        <ele>988.7</ele>
        <time>2014-10-02T08:30:05Z</time>
      </trkpt>
      <trkpt lat="42.4117010" lon="-7.3781750">
        <ele>988.8</ele>
        <time>2014-10-02T08:30:06Z</time>
      </trkpt>
      <trkpt lat="42.4116670" lon="-7.3782460">
        <ele>988.8</ele>
        <time>2014-10-02T08:30:07Z</time>
      </trkpt>
      <trkpt lat="42.4116330" lon="-7.3783140">
        <ele>988.7</ele>
        <time>2014-10-02T08:30:08Z</time>
      </trkpt>
      <trkpt lat="42.4115980" lon="-7.3783810">
        <ele>988.6</ele>
        <time>2014-10-02T08:30:09Z</time>
      </trkpt>
      <trkpt lat="42.4115600" lon="-7.3784490">
        <ele>988.5</ele>
        <time>2014-10-02T08:30:10Z</time>
      </trkpt>
      <trkpt lat="42.4115220" lon="-7.3785160">
        <ele>988.3</ele>
        <time>2014-10-02T08:30:11Z</time>
      </trkpt>
      <trkpt lat="42.4114820" lon="-7.3785870">
        <ele>988.1</ele>
        <time>2014-10-02T08:30:12Z</time>
      </trkpt>
      <trkpt lat="42.4114380" lon="-7.3786600">
        <ele>987.9</ele>
        <time>2014-10-02T08:30:13Z</time>
      </trkpt>
      <trkpt lat="42.4113940" lon="-7.3787280">
        <ele>987.7</ele>
        <time>2014-10-02T08:30:14Z</time>
      </trkpt>
      <trkpt lat="42.4113470" lon="-7.3787990">
        <ele>987.3</ele>
        <time>2014-10-02T08:30:15Z</time>
      </trkpt>
      <trkpt lat="42.4112930" lon="-7.3788710">
        <ele>986.9</ele>
        <time>2014-10-02T08:30:16Z</time>
      </trkpt>
      <trkpt lat="42.4112360" lon="-7.3789420">
        <ele>986.6</ele>
        <time>2014-10-02T08:30:17Z</time>
      </trkpt>
      <trkpt lat="42.4111720" lon="-7.3790110">
        <ele>986.2</ele>
        <time>2014-10-02T08:30:18Z</time>
      </trkpt>
      <trkpt lat="42.4111020" lon="-7.3790790">
        <ele>985.8</ele>
        <time>2014-10-02T08:30:19Z</time>
      </trkpt>
      <trkpt lat="42.4110320" lon="-7.3791380">
        <ele>985.5</ele>
        <time>2014-10-02T08:30:20Z</time>
      </trkpt>
      <trkpt lat="42.4109610" lon="-7.3791960">
        <ele>985.2</ele>
        <time>2014-10-02T08:30:21Z</time>
      </trkpt>
      <trkpt lat="42.4108910" lon="-7.3792490">
        <ele>984.9</ele>
        <time>2014-10-02T08:30:22Z</time>
      </trkpt>
      <trkpt lat="42.4108170" lon="-7.3793090">
        <ele>984.5</ele>
        <time>2014-10-02T08:30:23Z</time>
      </trkpt>
      <trkpt lat="42.4107430" lon="-7.3793670">
        <ele>984.3</ele>
        <time>2014-10-02T08:30:24Z</time>
      </trkpt>
      <trkpt lat="42.4106690" lon="-7.3794270">
        <ele>983.9</ele>
        <time>2014-10-02T08:30:25Z</time>
      </trkpt>
      <trkpt lat="42.4105940" lon="-7.3794910">
        <ele>983.4</ele>
        <time>2014-10-02T08:30:26Z</time>
      </trkpt>
      <trkpt lat="42.4105200" lon="-7.3795570">
        <ele>982.9</ele>
        <time>2014-10-02T08:30:27Z</time>
      </trkpt>
      <trkpt lat="42.4104460" lon="-7.3796270">
        <ele>982.4</ele>
        <time>2014-10-02T08:30:28Z</time>
      </trkpt>
      <trkpt lat="42.4103720" lon="-7.3796950">
        <ele>981.9</ele>
        <time>2014-10-02T08:30:29Z</time>
      </trkpt>
      <trkpt lat="42.4102970" lon="-7.3797670">
        <ele>981.5</ele>
        <time>2014-10-02T08:30:30Z</time>
      </trkpt>
      <trkpt lat="42.4102250" lon="-7.3798330">
        <ele>981.1</ele>
        <time>2014-10-02T08:30:31Z</time>
      </trkpt>
      <trkpt lat="42.4101480" lon="-7.3799060">
        <ele>980.6</ele>
        <time>2014-10-02T08:30:32Z</time>
      </trkpt>
      <trkpt lat="42.4100690" lon="-7.3799790">
        <ele>980.0</ele>
        <time>2014-10-02T08:30:33Z</time>
      </trkpt>
      <trkpt lat="42.4099890" lon="-7.3800600">
        <ele>979.4</ele>
        <time>2014-10-02T08:30:34Z</time>
      </trkpt>
      <trkpt lat="42.4099080" lon="-7.3801430">
        <ele>978.6</ele>
        <time>2014-10-02T08:30:35Z</time>
      </trkpt>
      <trkpt lat="42.4098250" lon="-7.3802290">
        <ele>977.8</ele>
        <time>2014-10-02T08:30:36Z</time>
      </trkpt>
      <trkpt lat="42.4097400" lon="-7.3803150">
        <ele>977.0</ele>
        <time>2014-10-02T08:30:37Z</time>
      </trkpt>
      <trkpt lat="42.4096550" lon="-7.3804020">
        <ele>976.3</ele>
        <time>2014-10-02T08:30:38Z</time>
      </trkpt>
      <trkpt lat="42.4095660" lon="-7.3804900">
        <ele>975.6</ele>
        <time>2014-10-02T08:30:39Z</time>
      </trkpt>
      <trkpt lat="42.4094810" lon="-7.3805730">
        <ele>974.9</ele>
        <time>2014-10-02T08:30:40Z</time>
      </trkpt>
      <trkpt lat="42.4093920" lon="-7.3806600">
        <ele>974.1</ele>
        <time>2014-10-02T08:30:41Z</time>
      </trkpt>
      <trkpt lat="42.4092970" lon="-7.3807500">
        <ele>973.3</ele>
        <time>2014-10-02T08:30:42Z</time>
      </trkpt>
      <trkpt lat="42.4092000" lon="-7.3808400">
        <ele>972.4</ele>
        <time>2014-10-02T08:30:43Z</time>
      </trkpt>
      <trkpt lat="42.4091040" lon="-7.3809310">
        <ele>971.4</ele>
        <time>2014-10-02T08:30:44Z</time>
      </trkpt>
      <trkpt lat="42.4090120" lon="-7.3810170">
        <ele>970.5</ele>
        <time>2014-10-02T08:30:45Z</time>
      </trkpt>
      <trkpt lat="42.4089200" lon="-7.3811040">
        <ele>969.6</ele>
        <time>2014-10-02T08:30:46Z</time>
      </trkpt>
      <trkpt lat="42.4088320" lon="-7.3811920">
        <ele>968.6</ele>
        <time>2014-10-02T08:30:47Z</time>
      </trkpt>
      <trkpt lat="42.4087390" lon="-7.3812860">
        <ele>967.3</ele>
        <time>2014-10-02T08:30:48Z</time>
      </trkpt>
      <trkpt lat="42.4086540" lon="-7.3813730">
        <ele>966.2</ele>
        <time>2014-10-02T08:30:49Z</time>
      </trkpt>
      <trkpt lat="42.4085610" lon="-7.3814720">
        <ele>965.0</ele>
        <time>2014-10-02T08:30:50Z</time>
      </trkpt>
      <trkpt lat="42.4084670" lon="-7.3815740">
        <ele>963.9</ele>
        <time>2014-10-02T08:30:51Z</time>
      </trkpt>
      <trkpt lat="42.4083720" lon="-7.3816770">
        <ele>962.8</ele>
        <time>2014-10-02T08:30:52Z</time>
      </trkpt>
      <trkpt lat="42.4082810" lon="-7.3817860">
        <ele>961.6</ele>
        <time>2014-10-02T08:30:53Z</time>
      </trkpt>
      <trkpt lat="42.4081880" lon="-7.3818990">
        <ele>960.5</ele>
        <time>2014-10-02T08:30:54Z</time>
      </trkpt>
      <trkpt lat="42.4080940" lon="-7.3820150">
        <ele>959.2</ele>
        <time>2014-10-02T08:30:55Z</time>
      </trkpt>
      <trkpt lat="42.4080010" lon="-7.3821310">
        <ele>957.9</ele>
        <time>2014-10-02T08:30:56Z</time>
      </trkpt>
      <trkpt lat="42.4079020" lon="-7.3822500">
        <ele>956.8</ele>
        <time>2014-10-02T08:30:57Z</time>
      </trkpt>
      <trkpt lat="42.4078030" lon="-7.3823690">
        <ele>955.7</ele>
        <time>2014-10-02T08:30:58Z</time>
      </trkpt>
      <trkpt lat="42.4077070" lon="-7.3824800">
        <ele>954.7</ele>
        <time>2014-10-02T08:30:59Z</time>
      </trkpt>
      <trkpt lat="42.4076140" lon="-7.3825840">
        <ele>954.1</ele>
        <time>2014-10-02T08:31:00Z</time>
      </trkpt>
      <trkpt lat="42.4075220" lon="-7.3826890">
        <ele>953.7</ele>
        <time>2014-10-02T08:31:01Z</time>
      </trkpt>
      <trkpt lat="42.4074290" lon="-7.3828010">
        <ele>953.1</ele>
        <time>2014-10-02T08:31:02Z</time>
      </trkpt>
      <trkpt lat="42.4073340" lon="-7.3829140">
        <ele>952.6</ele>
        <time>2014-10-02T08:31:03Z</time>
      </trkpt>
      <trkpt lat="42.4072390" lon="-7.3830220">
        <ele>952.2</ele>
        <time>2014-10-02T08:31:04Z</time>
      </trkpt>
      <trkpt lat="42.4071530" lon="-7.3831170">
        <ele>952.1</ele>
        <time>2014-10-02T08:31:05Z</time>
      </trkpt>
      <trkpt lat="42.4070920" lon="-7.3831800">
        <ele>952.1</ele>
        <time>2014-10-02T08:31:06Z</time>
      </trkpt>
      <trkpt lat="42.4070330" lon="-7.3832180">
        <ele>952.2</ele>
        <time>2014-10-02T08:31:07Z</time>
      </trkpt>
      <trkpt lat="42.4069730" lon="-7.3832300">
        <ele>952.4</ele>
        <time>2014-10-02T08:31:08Z</time>
      </trkpt>
      <trkpt lat="42.4069240" lon="-7.3832050">
        <ele>952.2</ele>
        <time>2014-10-02T08:31:09Z</time>
      </trkpt>
      <trkpt lat="42.4068720" lon="-7.3831580">
        <ele>951.8</ele>
        <time>2014-10-02T08:31:10Z</time>
      </trkpt>
      <trkpt lat="42.4068280" lon="-7.3831060">
        <ele>951.5</ele>
        <time>2014-10-02T08:31:11Z</time>
      </trkpt>
      <trkpt lat="42.4067880" lon="-7.3830440">
        <ele>951.1</ele>
        <time>2014-10-02T08:31:12Z</time>
      </trkpt>
      <trkpt lat="42.4067420" lon="-7.3829680">
        <ele>950.7</ele>
        <time>2014-10-02T08:31:13Z</time>
      </trkpt>
      <trkpt lat="42.4066930" lon="-7.3828850">
        <ele>950.3</ele>
        <time>2014-10-02T08:31:14Z</time>
      </trkpt>
      <trkpt lat="42.4066420" lon="-7.3827960">
        <ele>949.8</ele>
        <time>2014-10-02T08:31:15Z</time>
      </trkpt>
      <trkpt lat="42.4065920" lon="-7.3827090">
        <ele>949.3</ele>
        <time>2014-10-02T08:31:16Z</time>
      </trkpt>
      <trkpt lat="42.4065410" lon="-7.3826190">
        <ele>948.8</ele>
        <time>2014-10-02T08:31:17Z</time>
      </trkpt>
      <trkpt lat="42.4064870" lon="-7.3825260">
        <ele>948.3</ele>
        <time>2014-10-02T08:31:18Z</time>
      </trkpt>
      <trkpt lat="42.4064290" lon="-7.3824320">
        <ele>947.8</ele>
        <time>2014-10-02T08:31:19Z</time>
      </trkpt>
      <trkpt lat="42.4063730" lon="-7.3823350">
        <ele>947.3</ele>
        <time>2014-10-02T08:31:20Z</time>
      </trkpt>
      <trkpt lat="42.4063100" lon="-7.3822300">
        <ele>946.7</ele>
        <time>2014-10-02T08:31:21Z</time>
      </trkpt>
      <trkpt lat="42.4062480" lon="-7.3821280">
        <ele>946.1</ele>
        <time>2014-10-02T08:31:22Z</time>
      </trkpt>
      <trkpt lat="42.4061850" lon="-7.3820300">
        <ele>945.6</ele>
        <time>2014-10-02T08:31:23Z</time>
      </trkpt>
      <trkpt lat="42.4061210" lon="-7.3819300">
        <ele>945.0</ele>
        <time>2014-10-02T08:31:24Z</time>
      </trkpt>
      <trkpt lat="42.4060570" lon="-7.3818300">
        <ele>944.4</ele>
        <time>2014-10-02T08:31:25Z</time>
      </trkpt>
      <trkpt lat="42.4059940" lon="-7.3817320">
        <ele>943.9</ele>
        <time>2014-10-02T08:31:26Z</time>
      </trkpt>
      <trkpt lat="42.4059270" lon="-7.3816280">
        <ele>943.3</ele>
        <time>2014-10-02T08:31:27Z</time>
      </trkpt>
      <trkpt lat="42.4058590" lon="-7.3815210">
        <ele>942.7</ele>
        <time>2014-10-02T08:31:28Z</time>
      </trkpt>
      <trkpt lat="42.4057880" lon="-7.3814120">
        <ele>942.1</ele>
        <time>2014-10-02T08:31:29Z</time>
      </trkpt>
      <trkpt lat="42.4057170" lon="-7.3813030">
        <ele>941.4</ele>
        <time>2014-10-02T08:31:30Z</time>
      </trkpt>
      <trkpt lat="42.4056480" lon="-7.3811920">
        <ele>940.8</ele>
        <time>2014-10-02T08:31:31Z</time>
      </trkpt>
      <trkpt lat="42.4055790" lon="-7.3810800">
        <ele>940.2</ele>
        <time>2014-10-02T08:31:32Z</time>
      </trkpt>
      <trkpt lat="42.4055090" lon="-7.3809690">
        <ele>939.6</ele>
        <time>2014-10-02T08:31:33Z</time>
      </trkpt>
      <trkpt lat="42.4054410" lon="-7.3808630">
        <ele>939.0</ele>
        <time>2014-10-02T08:31:34Z</time>
      </trkpt>
      <trkpt lat="42.4053720" lon="-7.3807650">
        <ele>938.4</ele>
        <time>2014-10-02T08:31:35Z</time>
      </trkpt>
      <trkpt lat="42.4053040" lon="-7.3806640">
        <ele>937.8</ele>
        <time>2014-10-02T08:31:36Z</time>
      </trkpt>
      <trkpt lat="42.4052470" lon="-7.3805810">
        <ele>937.3</ele>
        <time>2014-10-02T08:31:37Z</time>
      </trkpt>
      <trkpt lat="42.4051920" lon="-7.3804980">
        <ele>936.9</ele>
        <time>2014-10-02T08:31:38Z</time>
      </trkpt>
      <trkpt lat="42.4051450" lon="-7.3804250">
        <ele>936.4</ele>
        <time>2014-10-02T08:31:39Z</time>
      </trkpt>
      <trkpt lat="42.4051110" lon="-7.3803660">
        <ele>936.1</ele>
        <time>2014-10-02T08:31:40Z</time>
      </trkpt>
      <trkpt lat="42.4051000" lon="-7.3803060">
        <ele>935.7</ele>
        <time>2014-10-02T08:31:41Z</time>
      </trkpt>
      <trkpt lat="42.4051110" lon="-7.3802650">
        <ele>935.7</ele>
        <time>2014-10-02T08:31:42Z</time>
      </trkpt>
      <trkpt lat="42.4051450" lon="-7.3802360">
        <ele>935.6</ele>
        <time>2014-10-02T08:31:43Z</time>
      </trkpt>
      <trkpt lat="42.4051890" lon="-7.3802100">
        <ele>935.5</ele>
        <time>2014-10-02T08:31:44Z</time>
      </trkpt>
      <trkpt lat="42.4052380" lon="-7.3801840">
        <ele>935.4</ele>
        <time>2014-10-02T08:31:45Z</time>
      </trkpt>
      <trkpt lat="42.4052930" lon="-7.3801530">
        <ele>935.3</ele>
        <time>2014-10-02T08:31:46Z</time>
      </trkpt>
      <trkpt lat="42.4053520" lon="-7.3801170">
        <ele>935.2</ele>
        <time>2014-10-02T08:31:47Z</time>
      </trkpt>
      <trkpt lat="42.4054120" lon="-7.3800820">
        <ele>935.1</ele>
        <time>2014-10-02T08:31:48Z</time>
      </trkpt>
      <trkpt lat="42.4054640" lon="-7.3800260">
        <ele>935.1</ele>
        <time>2014-10-02T08:31:49Z</time>
      </trkpt>
      <trkpt lat="42.4055030" lon="-7.3799530">
        <ele>935.1</ele>
        <time>2014-10-02T08:31:50Z</time>
      </trkpt>
      <trkpt lat="42.4055290" lon="-7.3798650">
        <ele>935.1</ele>
        <time>2014-10-02T08:31:51Z</time>
      </trkpt>
      <trkpt lat="42.4055470" lon="-7.3797770">
        <ele>935.1</ele>
        <time>2014-10-02T08:31:52Z</time>
      </trkpt>
      <trkpt lat="42.4055490" lon="-7.3796860">
        <ele>935.1</ele>
        <time>2014-10-02T08:31:53Z</time>
      </trkpt>
      <trkpt lat="42.4055500" lon="-7.3795930">
        <ele>935.1</ele>
        <time>2014-10-02T08:31:54Z</time>
      </trkpt>
      <trkpt lat="42.4055500" lon="-7.3795010">
        <ele>935.1</ele>
        <time>2014-10-02T08:31:55Z</time>
      </trkpt>
      <trkpt lat="42.4055490" lon="-7.3794080">
        <ele>935.2</ele>
        <time>2014-10-02T08:31:56Z</time>
      </trkpt>
      <trkpt lat="42.4055470" lon="-7.3793140">
        <ele>935.3</ele>
        <time>2014-10-02T08:31:57Z</time>
      </trkpt>
      <trkpt lat="42.4055450" lon="-7.3792230">
        <ele>935.5</ele>
        <time>2014-10-02T08:31:58Z</time>
      </trkpt>
      <trkpt lat="42.4055430" lon="-7.3791310">
        <ele>935.8</ele>
        <time>2014-10-02T08:31:59Z</time>
      </trkpt>
      <trkpt lat="42.4055410" lon="-7.3790390">
        <ele>936.0</ele>
        <time>2014-10-02T08:32:00Z</time>
      </trkpt>
      <trkpt lat="42.4055400" lon="-7.3789470">
        <ele>936.3</ele>
        <time>2014-10-02T08:32:01Z</time>
      </trkpt>
      <trkpt lat="42.4055400" lon="-7.3788590">
        <ele>936.5</ele>
        <time>2014-10-02T08:32:02Z</time>
      </trkpt>
      <trkpt lat="42.4055410" lon="-7.3787700">
        <ele>936.8</ele>
        <time>2014-10-02T08:32:03Z</time>
      </trkpt>
      <trkpt lat="42.4055400" lon="-7.3786800">
        <ele>937.4</ele>
        <time>2014-10-02T08:32:04Z</time>
      </trkpt>
      <trkpt lat="42.4055390" lon="-7.3785960">
        <ele>937.6</ele>
        <time>2014-10-02T08:32:05Z</time>
      </trkpt>
      <trkpt lat="42.4055380" lon="-7.3785120">
        <ele>937.6</ele>
        <time>2014-10-02T08:32:06Z</time>
      </trkpt>
      <trkpt lat="42.4055370" lon="-7.3784270">
        <ele>937.6</ele>
        <time>2014-10-02T08:32:07Z</time>
      </trkpt>
      <trkpt lat="42.4055360" lon="-7.3783410">
        <ele>937.6</ele>
        <time>2014-10-02T08:32:08Z</time>
      </trkpt>
      <trkpt lat="42.4055350" lon="-7.3782580">
        <ele>937.6</ele>
        <time>2014-10-02T08:32:09Z</time>
      </trkpt>
      <trkpt lat="42.4055310" lon="-7.3781680">
        <ele>937.7</ele>
        <time>2014-10-02T08:32:10Z</time>
      </trkpt>
      <trkpt lat="42.4055210" lon="-7.3780800">
        <ele>937.8</ele>
        <time>2014-10-02T08:32:11Z</time>
      </trkpt>
      <trkpt lat="42.4054970" lon="-7.3779980">
        <ele>937.9</ele>
        <time>2014-10-02T08:32:12Z</time>
      </trkpt>
      <trkpt lat="42.4054740" lon="-7.3779220">
        <ele>938.0</ele>
        <time>2014-10-02T08:32:13Z</time>
      </trkpt>
      <trkpt lat="42.4054500" lon="-7.3778510">
        <ele>938.2</ele>
        <time>2014-10-02T08:32:14Z</time>
      </trkpt>
      <trkpt lat="42.4054250" lon="-7.3777820">
        <ele>938.4</ele>
        <time>2014-10-02T08:32:15Z</time>
      </trkpt>
      <trkpt lat="42.4054010" lon="-7.3777140">
        <ele>938.5</ele>
        <time>2014-10-02T08:32:16Z</time>
      </trkpt>
      <trkpt lat="42.4053770" lon="-7.3776540">
        <ele>938.6</ele>
        <time>2014-10-02T08:32:17Z</time>
      </trkpt>
      <trkpt lat="42.4053550" lon="-7.3775980">
        <ele>938.6</ele>
        <time>2014-10-02T08:32:18Z</time>
      </trkpt>
      <trkpt lat="42.4053330" lon="-7.3775420">
        <ele>938.7</ele>
        <time>2014-10-02T08:32:19Z</time>
      </trkpt>
      <trkpt lat="42.4053100" lon="-7.3774820">
        <ele>938.7</ele>
        <time>2014-10-02T08:32:20Z</time>
      </trkpt>
      <trkpt lat="42.4052870" lon="-7.3774210">
        <ele>938.8</ele>
        <time>2014-10-02T08:32:21Z</time>
      </trkpt>
      <trkpt lat="42.4052660" lon="-7.3773640">
        <ele>938.9</ele>
        <time>2014-10-02T08:32:22Z</time>
      </trkpt>
      <trkpt lat="42.4052430" lon="-7.3773050">
        <ele>939.0</ele>
        <time>2014-10-02T08:32:23Z</time>
      </trkpt>
      <trkpt lat="42.4052210" lon="-7.3772450">
        <ele>939.1</ele>
        <time>2014-10-02T08:32:24Z</time>
      </trkpt>
      <trkpt lat="42.4052010" lon="-7.3771860">
        <ele>939.2</ele>
        <time>2014-10-02T08:32:25Z</time>
      </trkpt>
      <trkpt lat="42.4051810" lon="-7.3771240">
        <ele>939.2</ele>
        <time>2014-10-02T08:32:26Z</time>
      </trkpt>
      <trkpt lat="42.4051620" lon="-7.3770600">
        <ele>939.2</ele>
        <time>2014-10-02T08:32:27Z</time>
      </trkpt>
      <trkpt lat="42.4051420" lon="-7.3769950">
        <ele>939.2</ele>
        <time>2014-10-02T08:32:28Z</time>
      </trkpt>
      <trkpt lat="42.4051210" lon="-7.3769310">
        <ele>939.2</ele>
        <time>2014-10-02T08:32:29Z</time>
      </trkpt>
      <trkpt lat="42.4050980" lon="-7.3768670">
        <ele>939.2</ele>
        <time>2014-10-02T08:32:30Z</time>
      </trkpt>
      <trkpt lat="42.4050760" lon="-7.3768050">
        <ele>939.1</ele>
        <time>2014-10-02T08:32:31Z</time>
      </trkpt>
      <trkpt lat="42.4050540" lon="-7.3767390">
        <ele>939.1</ele>
        <time>2014-10-02T08:32:32Z</time>
      </trkpt>
      <trkpt lat="42.4050330" lon="-7.3766750">
        <ele>939.1</ele>
        <time>2014-10-02T08:32:33Z</time>
      </trkpt>
      <trkpt lat="42.4050140" lon="-7.3766030">
        <ele>939.1</ele>
        <time>2014-10-02T08:32:34Z</time>
      </trkpt>
      <trkpt lat="42.4050000" lon="-7.3765320">
        <ele>939.1</ele>
        <time>2014-10-02T08:32:35Z</time>
      </trkpt>
      <trkpt lat="42.4050010" lon="-7.3764600">
        <ele>939.1</ele>
        <time>2014-10-02T08:32:36Z</time>
      </trkpt>
      <trkpt lat="42.4050060" lon="-7.3763880">
        <ele>939.0</ele>
        <time>2014-10-02T08:32:37Z</time>
      </trkpt>
      <trkpt lat="42.4050140" lon="-7.3763170">
        <ele>939.0</ele>
        <time>2014-10-02T08:32:38Z</time>
      </trkpt>
      <trkpt lat="42.4050250" lon="-7.3762470">
        <ele>938.9</ele>
        <time>2014-10-02T08:32:39Z</time>
      </trkpt>
      <trkpt lat="42.4050390" lon="-7.3761760">
        <ele>938.9</ele>
        <time>2014-10-02T08:32:40Z</time>
      </trkpt>
      <trkpt lat="42.4050540" lon="-7.3761020">
        <ele>938.9</ele>
        <time>2014-10-02T08:32:41Z</time>
      </trkpt>
      <trkpt lat="42.4050680" lon="-7.3760320">
        <ele>938.9</ele>
        <time>2014-10-02T08:32:42Z</time>
      </trkpt>
      <trkpt lat="42.4050830" lon="-7.3759590">
        <ele>938.9</ele>
        <time>2014-10-02T08:32:43Z</time>
      </trkpt>
      <trkpt lat="42.4050970" lon="-7.3758840">
        <ele>938.9</ele>
        <time>2014-10-02T08:32:44Z</time>
      </trkpt>
      <trkpt lat="42.4051100" lon="-7.3758130">
        <ele>938.9</ele>
        <time>2014-10-02T08:32:45Z</time>
      </trkpt>
      <trkpt lat="42.4051250" lon="-7.3757400">
        <ele>938.9</ele>
        <time>2014-10-02T08:32:46Z</time>
      </trkpt>
      <trkpt lat="42.4051400" lon="-7.3756690">
        <ele>938.9</ele>
        <time>2014-10-02T08:32:47Z</time>
      </trkpt>
      <trkpt lat="42.4051560" lon="-7.3755990">
        <ele>938.8</ele>
        <time>2014-10-02T08:32:48Z</time>
      </trkpt>
      <trkpt lat="42.4051720" lon="-7.3755300">
        <ele>938.6</ele>
        <time>2014-10-02T08:32:49Z</time>
      </trkpt>
      <trkpt lat="42.4051890" lon="-7.3754550">
        <ele>938.2</ele>
        <time>2014-10-02T08:32:50Z</time>
      </trkpt>
      <trkpt lat="42.4052070" lon="-7.3753810">
        <ele>937.7</ele>
        <time>2014-10-02T08:32:51Z</time>
      </trkpt>
      <trkpt lat="42.4052280" lon="-7.3753070">
        <ele>936.9</ele>
        <time>2014-10-02T08:32:52Z</time>
      </trkpt>
      <trkpt lat="42.4052620" lon="-7.3752400">
        <ele>936.7</ele>
        <time>2014-10-02T08:32:53Z</time>
      </trkpt>
      <trkpt lat="42.4053000" lon="-7.3751770">
        <ele>936.5</ele>
        <time>2014-10-02T08:32:54Z</time>
      </trkpt>
      <trkpt lat="42.4053500" lon="-7.3751310">
        <ele>936.4</ele>
        <time>2014-10-02T08:32:55Z</time>
      </trkpt>
      <trkpt lat="42.4054030" lon="-7.3750890">
        <ele>936.2</ele>
        <time>2014-10-02T08:32:56Z</time>
      </trkpt>
      <trkpt lat="42.4054600" lon="-7.3750510">
        <ele>936.1</ele>
        <time>2014-10-02T08:32:57Z</time>
      </trkpt>
      <trkpt lat="42.4055200" lon="-7.3750170">
        <ele>936.1</ele>
        <time>2014-10-02T08:32:58Z</time>
      </trkpt>
      <trkpt lat="42.4055810" lon="-7.3749840">
        <ele>936.0</ele>
        <time>2014-10-02T08:32:59Z</time>
      </trkpt>
      <trkpt lat="42.4056460" lon="-7.3749500">
        <ele>935.8</ele>
        <time>2014-10-02T08:33:00Z</time>
      </trkpt>
      <trkpt lat="42.4057140" lon="-7.3749150">
        <ele>935.7</ele>
        <time>2014-10-02T08:33:01Z</time>
      </trkpt>
      <trkpt lat="42.4057890" lon="-7.3748790">
        <ele>935.5</ele>
        <time>2014-10-02T08:33:02Z</time>
      </trkpt>
      <trkpt lat="42.4058650" lon="-7.3748410">
        <ele>935.3</ele>
        <time>2014-10-02T08:33:03Z</time>
      </trkpt>
      <trkpt lat="42.4059420" lon="-7.3748010">
        <ele>935.0</ele>
        <time>2014-10-02T08:33:04Z</time>
      </trkpt>
      <trkpt lat="42.4060170" lon="-7.3747640">
        <ele>934.7</ele>
        <time>2014-10-02T08:33:05Z</time>
      </trkpt>
      <trkpt lat="42.4060900" lon="-7.3747300">
        <ele>934.5</ele>
        <time>2014-10-02T08:33:06Z</time>
      </trkpt>
      <trkpt lat="42.4061620" lon="-7.3746960">
        <ele>934.4</ele>
        <time>2014-10-02T08:33:07Z</time>
      </trkpt>
      <trkpt lat="42.4062290" lon="-7.3746590">
        <ele>934.4</ele>
        <time>2014-10-02T08:33:08Z</time>
      </trkpt>
      <trkpt lat="42.4062970" lon="-7.3746120">
        <ele>934.3</ele>
        <time>2014-10-02T08:33:09Z</time>
      </trkpt>
      <trkpt lat="42.4063550" lon="-7.3745460">
        <ele>934.1</ele>
        <time>2014-10-02T08:33:10Z</time>
      </trkpt>
      <trkpt lat="42.4064130" lon="-7.3744720">
        <ele>934.0</ele>
        <time>2014-10-02T08:33:11Z</time>
      </trkpt>
      <trkpt lat="42.4064520" lon="-7.3743810">
        <ele>933.8</ele>
        <time>2014-10-02T08:33:12Z</time>
      </trkpt>
      <trkpt lat="42.4064840" lon="-7.3742920">
        <ele>933.6</ele>
        <time>2014-10-02T08:33:13Z</time>
      </trkpt>
      <trkpt lat="42.4064990" lon="-7.3741940">
        <ele>933.4</ele>
        <time>2014-10-02T08:33:14Z</time>
      </trkpt>
      <trkpt lat="42.4065110" lon="-7.3741040">
        <ele>933.0</ele>
        <time>2014-10-02T08:33:15Z</time>
      </trkpt>
      <trkpt lat="42.4065230" lon="-7.3740090">
        <ele>932.6</ele>
        <time>2014-10-02T08:33:16Z</time>
      </trkpt>
      <trkpt lat="42.4065310" lon="-7.3739090">
        <ele>932.2</ele>
        <time>2014-10-02T08:33:17Z</time>
      </trkpt>
      <trkpt lat="42.4065370" lon="-7.3738100">
        <ele>931.9</ele>
        <time>2014-10-02T08:33:18Z</time>
      </trkpt>
      <trkpt lat="42.4065430" lon="-7.3737140">
        <ele>931.6</ele>
        <time>2014-10-02T08:33:19Z</time>
      </trkpt>
      <trkpt lat="42.4065520" lon="-7.3736140">
        <ele>931.3</ele>
        <time>2014-10-02T08:33:20Z</time>
      </trkpt>
      <trkpt lat="42.4065640" lon="-7.3735040">
        <ele>931.0</ele>
        <time>2014-10-02T08:33:21Z</time>
      </trkpt>
      <trkpt lat="42.4065810" lon="-7.3733870">
        <ele>930.7</ele>
        <time>2014-10-02T08:33:22Z</time>
      </trkpt>
      <trkpt lat="42.4066310" lon="-7.3732810">
        <ele>930.1</ele>
        <time>2014-10-02T08:33:23Z</time>
      </trkpt>
      <trkpt lat="42.4066990" lon="-7.3732110">
        <ele>929.5</ele>
        <time>2014-10-02T08:33:24Z</time>
      </trkpt>
      <trkpt lat="42.4067730" lon="-7.3731800">
        <ele>928.9</ele>
        <time>2014-10-02T08:33:25Z</time>
      </trkpt>
      <trkpt lat="42.4068560" lon="-7.3731820">
        <ele>928.4</ele>
        <time>2014-10-02T08:33:26Z</time>
      </trkpt>
      <trkpt lat="42.4069520" lon="-7.3731980">
        <ele>927.8</ele>
        <time>2014-10-02T08:33:27Z</time>
      </trkpt>
      <trkpt lat="42.4070500" lon="-7.3732210">
        <ele>927.3</ele>
        <time>2014-10-02T08:33:28Z</time>
      </trkpt>
      <trkpt lat="42.4071480" lon="-7.3732520">
        <ele>926.8</ele>
        <time>2014-10-02T08:33:29Z</time>
      </trkpt>
      <trkpt lat="42.4072400" lon="-7.3732800">
        <ele>926.4</ele>
        <time>2014-10-02T08:33:30Z</time>
      </trkpt>
      <trkpt lat="42.4073290" lon="-7.3733130">
        <ele>926.2</ele>
        <time>2014-10-02T08:33:31Z</time>
      </trkpt>
      <trkpt lat="42.4074210" lon="-7.3733520">
        <ele>925.9</ele>
        <time>2014-10-02T08:33:32Z</time>
      </trkpt>
      <trkpt lat="42.4075100" lon="-7.3733910">
        <ele>925.6</ele>
        <time>2014-10-02T08:33:33Z</time>
      </trkpt>
      <trkpt lat="42.4075980" lon="-7.3734250">
        <ele>925.3</ele>
        <time>2014-10-02T08:33:34Z</time>
      </trkpt>
      <trkpt lat="42.4076840" lon="-7.3734600">
        <ele>925.0</ele>
        <time>2014-10-02T08:33:35Z</time>
      </trkpt>
      <trkpt lat="42.4077690" lon="-7.3734970">
        <ele>924.8</ele>
        <time>2014-10-02T08:33:36Z</time>
      </trkpt>
      <trkpt lat="42.4078580" lon="-7.3735260">
        <ele>924.7</ele>
        <time>2014-10-02T08:33:37Z</time>
      </trkpt>
      <trkpt lat="42.4079410" lon="-7.3735160">
        <ele>924.7</ele>
        <time>2014-10-02T08:33:38Z</time>
      </trkpt>
      <trkpt lat="42.4080180" lon="-7.3734810">
        <ele>924.6</ele>
        <time>2014-10-02T08:33:39Z</time>
      </trkpt>
      <trkpt lat="42.4080820" lon="-7.3734160">
        <ele>924.5</ele>
        <time>2014-10-02T08:33:40Z</time>
      </trkpt>
      <trkpt lat="42.4081210" lon="-7.3733340">
        <ele>924.2</ele>
        <time>2014-10-02T08:33:41Z</time>
      </trkpt>
      <trkpt lat="42.4081260" lon="-7.3732380">
        <ele>923.9</ele>
        <time>2014-10-02T08:33:42Z</time>
      </trkpt>
      <trkpt lat="42.4081050" lon="-7.3731390">
        <ele>923.6</ele>
        <time>2014-10-02T08:33:43Z</time>
      </trkpt>
      <trkpt lat="42.4080780" lon="-7.3730400">
        <ele>923.4</ele>
        <time>2014-10-02T08:33:44Z</time>
      </trkpt>
      <trkpt lat="42.4080450" lon="-7.3729420">
        <ele>923.2</ele>
        <time>2014-10-02T08:33:45Z</time>
      </trkpt>
      <trkpt lat="42.4080060" lon="-7.3728450">
        <ele>923.1</ele>
        <time>2014-10-02T08:33:46Z</time>
      </trkpt>
      <trkpt lat="42.4079670" lon="-7.3727600">
        <ele>923.1</ele>
        <time>2014-10-02T08:33:47Z</time>
      </trkpt>
      <trkpt lat="42.4079260" lon="-7.3726720">
        <ele>923.0</ele>
        <time>2014-10-02T08:33:48Z</time>
      </trkpt>
      <trkpt lat="42.4078870" lon="-7.3725850">
        <ele>922.9</ele>
        <time>2014-10-02T08:33:49Z</time>
      </trkpt>
      <trkpt lat="42.4078660" lon="-7.3724920">
        <ele>922.8</ele>
        <time>2014-10-02T08:33:50Z</time>
      </trkpt>
      <trkpt lat="42.4078510" lon="-7.3723980">
        <ele>922.7</ele>
        <time>2014-10-02T08:33:51Z</time>
      </trkpt>
      <trkpt lat="42.4078520" lon="-7.3722980">
        <ele>922.5</ele>
        <time>2014-10-02T08:33:52Z</time>
      </trkpt>
      <trkpt lat="42.4078550" lon="-7.3721970">
        <ele>922.3</ele>
        <time>2014-10-02T08:33:53Z</time>
      </trkpt>
      <trkpt lat="42.4078620" lon="-7.3720970">
        <ele>922.1</ele>
        <time>2014-10-02T08:33:54Z</time>
      </trkpt>
      <trkpt lat="42.4078700" lon="-7.3719960">
        <ele>921.9</ele>
        <time>2014-10-02T08:33:55Z</time>
      </trkpt>
      <trkpt lat="42.4078780" lon="-7.3718930">
        <ele>921.8</ele>
        <time>2014-10-02T08:33:56Z</time>
      </trkpt>
      <trkpt lat="42.4078790" lon="-7.3717970">
        <ele>921.8</ele>
        <time>2014-10-02T08:33:57Z</time>
      </trkpt>
      <trkpt lat="42.4078460" lon="-7.3717030">
        <ele>921.8</ele>
        <time>2014-10-02T08:33:58Z</time>
      </trkpt>
      <trkpt lat="42.4077950" lon="-7.3716270">
        <ele>921.8</ele>
        <time>2014-10-02T08:33:59Z</time>
      </trkpt>
      <trkpt lat="42.4077410" lon="-7.3715610">
        <ele>921.9</ele>
        <time>2014-10-02T08:34:00Z</time>
      </trkpt>
      <trkpt lat="42.4076780" lon="-7.3715180">
        <ele>921.8</ele>
        <time>2014-10-02T08:34:01Z</time>
      </trkpt>
      <trkpt lat="42.4076140" lon="-7.3714760">
        <ele>921.8</ele>
        <time>2014-10-02T08:34:02Z</time>
      </trkpt>
      <trkpt lat="42.4075540" lon="-7.3714360">
        <ele>921.8</ele>
        <time>2014-10-02T08:34:03Z</time>
      </trkpt>
      <trkpt lat="42.4074900" lon="-7.3713920">
        <ele>921.7</ele>
        <time>2014-10-02T08:34:04Z</time>
      </trkpt>
      <trkpt lat="42.4074230" lon="-7.3713480">
        <ele>921.8</ele>
        <time>2014-10-02T08:34:05Z</time>
      </trkpt>
      <trkpt lat="42.4073600" lon="-7.3713050">
        <ele>921.8</ele>
        <time>2014-10-02T08:34:06Z</time>
      </trkpt>
      <trkpt lat="42.4073000" lon="-7.3712650">
        <ele>921.8</ele>
        <time>2014-10-02T08:34:07Z</time>
      </trkpt>
      <trkpt lat="42.4072390" lon="-7.3712210">
        <ele>921.8</ele>
        <time>2014-10-02T08:34:08Z</time>
      </trkpt>
      <trkpt lat="42.4071780" lon="-7.3711750">
        <ele>921.8</ele>
        <time>2014-10-02T08:34:09Z</time>
      </trkpt>
      <trkpt lat="42.4071200" lon="-7.3711280">
        <ele>921.7</ele>
        <time>2014-10-02T08:34:10Z</time>
      </trkpt>
      <trkpt lat="42.4070640" lon="-7.3710750">
        <ele>921.7</ele>
        <time>2014-10-02T08:34:11Z</time>
      </trkpt>
      <trkpt lat="42.4070080" lon="-7.3710140">
        <ele>921.7</ele>
        <time>2014-10-02T08:34:12Z</time>
      </trkpt>
      <trkpt lat="42.4069590" lon="-7.3709350">
        <ele>921.7</ele>
        <time>2014-10-02T08:34:13Z</time>
      </trkpt>
      <trkpt lat="42.4069120" lon="-7.3708550">
        <ele>921.7</ele>
        <time>2014-10-02T08:34:14Z</time>
      </trkpt>
      <trkpt lat="42.4068690" lon="-7.3707720">
        <ele>921.7</ele>
        <time>2014-10-02T08:34:15Z</time>
      </trkpt>
      <trkpt lat="42.4068320" lon="-7.3706900">
        <ele>921.7</ele>
        <time>2014-10-02T08:34:16Z</time>
      </trkpt>
      <trkpt lat="42.4067980" lon="-7.3706060">
        <ele>921.7</ele>
        <time>2014-10-02T08:34:17Z</time>
      </trkpt>
      <trkpt lat="42.4067680" lon="-7.3705230">
        <ele>921.6</ele>
        <time>2014-10-02T08:34:18Z</time>
      </trkpt>
      <trkpt lat="42.4067410" lon="-7.3704400">
        <ele>921.5</ele>
        <time>2014-10-02T08:34:19Z</time>
      </trkpt>
      <trkpt lat="42.4067120" lon="-7.3703540">
        <ele>921.5</ele>
        <time>2014-10-02T08:34:20Z</time>
      </trkpt>
      <trkpt lat="42.4066810" lon="-7.3702630">
        <ele>921.4</ele>
        <time>2014-10-02T08:34:21Z</time>
      </trkpt>
      <trkpt lat="42.4066500" lon="-7.3701750">
        <ele>921.2</ele>
        <time>2014-10-02T08:34:22Z</time>
      </trkpt>
      <trkpt lat="42.4066220" lon="-7.3700910">
        <ele>921.0</ele>
        <time>2014-10-02T08:34:23Z</time>
      </trkpt>
      <trkpt lat="42.4065920" lon="-7.3700040">
        <ele>920.9</ele>
        <time>2014-10-02T08:34:24Z</time>
      </trkpt>
      <trkpt lat="42.4065620" lon="-7.3699180">
        <ele>920.7</ele>
        <time>2014-10-02T08:34:25Z</time>
      </trkpt>
      <trkpt lat="42.4065330" lon="-7.3698330">
        <ele>920.5</ele>
        <time>2014-10-02T08:34:26Z</time>
      </trkpt>
      <trkpt lat="42.4065050" lon="-7.3697490">
        <ele>920.4</ele>
        <time>2014-10-02T08:34:27Z</time>
      </trkpt>
      <trkpt lat="42.4064770" lon="-7.3696610">
        <ele>920.3</ele>
        <time>2014-10-02T08:34:28Z</time>
      </trkpt>
      <trkpt lat="42.4064510" lon="-7.3695710">
        <ele>920.1</ele>
        <time>2014-10-02T08:34:29Z</time>
      </trkpt>
      <trkpt lat="42.4064270" lon="-7.3694790">
        <ele>919.9</ele>
        <time>2014-10-02T08:34:30Z</time>
      </trkpt>
      <trkpt lat="42.4064080" lon="-7.3693840">
        <ele>919.9</ele>
        <time>2014-10-02T08:34:31Z</time>
      </trkpt>
      <trkpt lat="42.4063940" lon="-7.3692880">
        <ele>919.8</ele>
        <time>2014-10-02T08:34:32Z</time>
      </trkpt>
      <trkpt lat="42.4063850" lon="-7.3691910">
        <ele>919.7</ele>
        <time>2014-10-02T08:34:33Z</time>
      </trkpt>
      <trkpt lat="42.4063790" lon="-7.3690910">
        <ele>919.5</ele>
        <time>2014-10-02T08:34:34Z</time>
      </trkpt>
      <trkpt lat="42.4063770" lon="-7.3689930">
        <ele>919.3</ele>
        <time>2014-10-02T08:34:35Z</time>
      </trkpt>
      <trkpt lat="42.4063750" lon="-7.3688940">
        <ele>919.0</ele>
        <time>2014-10-02T08:34:36Z</time>
      </trkpt>
      <trkpt lat="42.4063740" lon="-7.3687950">
        <ele>918.9</ele>
        <time>2014-10-02T08:34:37Z</time>
      </trkpt>
      <trkpt lat="42.4063720" lon="-7.3686970">
        <ele>918.7</ele>
        <time>2014-10-02T08:34:38Z</time>
      </trkpt>
      <trkpt lat="42.4063690" lon="-7.3685980">
        <ele>918.7</ele>
        <time>2014-10-02T08:34:39Z</time>
      </trkpt>
      <trkpt lat="42.4063680" lon="-7.3684980">
        <ele>918.6</ele>
        <time>2014-10-02T08:34:40Z</time>
      </trkpt>
      <trkpt lat="42.4063680" lon="-7.3683970">
        <ele>918.6</ele>
        <time>2014-10-02T08:34:41Z</time>
      </trkpt>
      <trkpt lat="42.4063700" lon="-7.3682940">
        <ele>918.5</ele>
        <time>2014-10-02T08:34:42Z</time>
      </trkpt>
      <trkpt lat="42.4063760" lon="-7.3681930">
        <ele>918.4</ele>
        <time>2014-10-02T08:34:43Z</time>
      </trkpt>
      <trkpt lat="42.4064080" lon="-7.3681010">
        <ele>918.3</ele>
        <time>2014-10-02T08:34:44Z</time>
      </trkpt>
      <trkpt lat="42.4064470" lon="-7.3680080">
        <ele>918.1</ele>
        <time>2014-10-02T08:34:45Z</time>
      </trkpt>
      <trkpt lat="42.4065040" lon="-7.3679340">
        <ele>918.0</ele>
        <time>2014-10-02T08:34:46Z</time>
      </trkpt>
      <trkpt lat="42.4065640" lon="-7.3678720">
        <ele>918.0</ele>
        <time>2014-10-02T08:34:47Z</time>
      </trkpt>
      <trkpt lat="42.4066260" lon="-7.3678170">
        <ele>918.0</ele>
        <time>2014-10-02T08:34:48Z</time>
      </trkpt>
      <trkpt lat="42.4066920" lon="-7.3677670">
        <ele>918.0</ele>
        <time>2014-10-02T08:34:49Z</time>
      </trkpt>
      <trkpt lat="42.4067590" lon="-7.3677180">
        <ele>917.9</ele>
        <time>2014-10-02T08:34:50Z</time>
      </trkpt>
      <trkpt lat="42.4068270" lon="-7.3676660">
        <ele>917.8</ele>
        <time>2014-10-02T08:34:51Z</time>
      </trkpt>
      <trkpt lat="42.4068930" lon="-7.3676110">
        <ele>917.5</ele>
        <time>2014-10-02T08:34:52Z</time>
      </trkpt>
      <trkpt lat="42.4069430" lon="-7.3675350">
        <ele>917.3</ele>
        <time>2014-10-02T08:34:53Z</time>
      </trkpt>
      <trkpt lat="42.4069610" lon="-7.3674520">
        <ele>917.1</ele>
        <time>2014-10-02T08:34:54Z</time>
      </trkpt>
      <trkpt lat="42.4069430" lon="-7.3673670">
        <ele>917.0</ele>
        <time>2014-10-02T08:34:55Z</time>
      </trkpt>
      <trkpt lat="42.4069070" lon="-7.3672970">
        <ele>916.9</ele>
        <time>2014-10-02T08:34:56Z</time>
      </trkpt>
      <trkpt lat="42.4068650" lon="-7.3672300">
        <ele>916.7</ele>
        <time>2014-10-02T08:34:57Z</time>
      </trkpt>
      <trkpt lat="42.4068140" lon="-7.3671620">
        <ele>916.6</ele>
        <time>2014-10-02T08:34:58Z</time>
      </trkpt>
      <trkpt lat="42.4067540" lon="-7.3670890">
        <ele>916.6</ele>
        <time>2014-10-02T08:34:59Z</time>
      </trkpt>
      <trkpt lat="42.4066900" lon="-7.3670230">
        <ele>916.7</ele>
        <time>2014-10-02T08:35:00Z</time>
      </trkpt>
      <trkpt lat="42.4066260" lon="-7.3669560">
        <ele>917.0</ele>
        <time>2014-10-02T08:35:01Z</time>
      </trkpt>
      <trkpt lat="42.4065630" lon="-7.3668890">
        <ele>917.4</ele>
        <time>2014-10-02T08:35:02Z</time>
      </trkpt>
      <trkpt lat="42.4065050" lon="-7.3668260">
        <ele>917.7</ele>
        <time>2014-10-02T08:35:03Z</time>
      </trkpt>
      <trkpt lat="42.4064530" lon="-7.3667650">
        <ele>917.9</ele>
        <time>2014-10-02T08:35:04Z</time>
      </trkpt>
      <trkpt lat="42.4064040" lon="-7.3667080">
        <ele>918.1</ele>
        <time>2014-10-02T08:35:05Z</time>
      </trkpt>
      <trkpt lat="42.4063580" lon="-7.3666540">
        <ele>918.3</ele>
        <time>2014-10-02T08:35:06Z</time>
      </trkpt>
      <trkpt lat="42.4063140" lon="-7.3666040">
        <ele>918.5</ele>
        <time>2014-10-02T08:35:07Z</time>
      </trkpt>
      <trkpt lat="42.4062740" lon="-7.3665560">
        <ele>918.7</ele>
        <time>2014-10-02T08:35:08Z</time>
      </trkpt>
      <trkpt lat="42.4062350" lon="-7.3665120">
        <ele>919.0</ele>
        <time>2014-10-02T08:35:09Z</time>
      </trkpt>
      <trkpt lat="42.4061940" lon="-7.3664670">
        <ele>919.3</ele>
        <time>2014-10-02T08:35:10Z</time>
      </trkpt>
      <trkpt lat="42.4061530" lon="-7.3664220">
        <ele>919.6</ele>
        <time>2014-10-02T08:35:11Z</time>
      </trkpt>
      <trkpt lat="42.4061130" lon="-7.3663790">
        <ele>920.0</ele>
        <time>2014-10-02T08:35:12Z</time>
      </trkpt>
      <trkpt lat="42.4060750" lon="-7.3663380">
        <ele>920.3</ele>
        <time>2014-10-02T08:35:13Z</time>
      </trkpt>
      <trkpt lat="42.4060360" lon="-7.3662950">
        <ele>920.7</ele>
        <time>2014-10-02T08:35:14Z</time>
      </trkpt>
      <trkpt lat="42.4060000" lon="-7.3662540">
        <ele>921.0</ele>
        <time>2014-10-02T08:35:15Z</time>
      </trkpt>
      <trkpt lat="42.4059640" lon="-7.3662120">
        <ele>921.2</ele>
        <time>2014-10-02T08:35:16Z</time>
      </trkpt>
      <trkpt lat="42.4059310" lon="-7.3661720">
        <ele>921.5</ele>
        <time>2014-10-02T08:35:17Z</time>
      </trkpt>
      <trkpt lat="42.4058940" lon="-7.3661320">
        <ele>921.7</ele>
        <time>2014-10-02T08:35:18Z</time>
      </trkpt>
      <trkpt lat="42.4058610" lon="-7.3660940">
        <ele>921.8</ele>
        <time>2014-10-02T08:35:19Z</time>
      </trkpt>
      <trkpt lat="42.4058290" lon="-7.3660580">
        <ele>922.0</ele>
        <time>2014-10-02T08:35:20Z</time>
      </trkpt>
      <trkpt lat="42.4057920" lon="-7.3660150">
        <ele>922.2</ele>
        <time>2014-10-02T08:35:21Z</time>
      </trkpt>
      <trkpt lat="42.4057560" lon="-7.3659700">
        <ele>922.4</ele>
        <time>2014-10-02T08:35:22Z</time>
      </trkpt>
      <trkpt lat="42.4057200" lon="-7.3659270">
        <ele>922.5</ele>
        <time>2014-10-02T08:35:23Z</time>
      </trkpt>
      <trkpt lat="42.4056820" lon="-7.3658820">
        <ele>922.7</ele>
        <time>2014-10-02T08:35:24Z</time>
      </trkpt>
      <trkpt lat="42.4056470" lon="-7.3658430">
        <ele>922.9</ele>
        <time>2014-10-02T08:35:25Z</time>
      </trkpt>
      <trkpt lat="42.4056120" lon="-7.3658010">
        <ele>923.0</ele>
        <time>2014-10-02T08:35:26Z</time>
      </trkpt>
      <trkpt lat="42.4055760" lon="-7.3657590">
        <ele>923.1</ele>
        <time>2014-10-02T08:35:27Z</time>
      </trkpt>
      <trkpt lat="42.4055400" lon="-7.3657160">
        <ele>923.2</ele>
        <time>2014-10-02T08:35:28Z</time>
      </trkpt>
      <trkpt lat="42.4055050" lon="-7.3656750">
        <ele>923.4</ele>
        <time>2014-10-02T08:35:29Z</time>
      </trkpt>
      <trkpt lat="42.4054740" lon="-7.3656390">
        <ele>923.5</ele>
        <time>2014-10-02T08:35:30Z</time>
      </trkpt>
      <trkpt lat="42.4054420" lon="-7.3656010">
        <ele>923.7</ele>
        <time>2014-10-02T08:35:31Z</time>
      </trkpt>
      <trkpt lat="42.4054090" lon="-7.3655590">
        <ele>923.9</ele>
        <time>2014-10-02T08:35:32Z</time>
      </trkpt>
      <trkpt lat="42.4053780" lon="-7.3655180">
        <ele>924.0</ele>
        <time>2014-10-02T08:35:33Z</time>
      </trkpt>
      <trkpt lat="42.4053470" lon="-7.3654760">
        <ele>924.2</ele>
        <time>2014-10-02T08:35:34Z</time>
      </trkpt>
      <trkpt lat="42.4053180" lon="-7.3654350">
        <ele>924.3</ele>
        <time>2014-10-02T08:35:35Z</time>
      </trkpt>
      <trkpt lat="42.4052890" lon="-7.3653970">
        <ele>924.4</ele>
        <time>2014-10-02T08:35:36Z</time>
      </trkpt>
      <trkpt lat="42.4052560" lon="-7.3653550">
        <ele>924.5</ele>
        <time>2014-10-02T08:35:37Z</time>
      </trkpt>
      <trkpt lat="42.4052230" lon="-7.3653110">
        <ele>924.5</ele>
        <time>2014-10-02T08:35:38Z</time>
      </trkpt>
      <trkpt lat="42.4051900" lon="-7.3652630">
        <ele>924.5</ele>
        <time>2014-10-02T08:35:39Z</time>
      </trkpt>
      <trkpt lat="42.4051550" lon="-7.3652140">
        <ele>924.6</ele>
        <time>2014-10-02T08:35:40Z</time>
      </trkpt>
      <trkpt lat="42.4051200" lon="-7.3651600">
        <ele>924.6</ele>
        <time>2014-10-02T08:35:41Z</time>
      </trkpt>
      <trkpt lat="42.4050840" lon="-7.3651020">
        <ele>924.5</ele>
        <time>2014-10-02T08:35:42Z</time>
      </trkpt>
      <trkpt lat="42.4050480" lon="-7.3650440">
        <ele>924.5</ele>
        <time>2014-10-02T08:35:43Z</time>
      </trkpt>
      <trkpt lat="42.4050130" lon="-7.3649840">
        <ele>924.5</ele>
        <time>2014-10-02T08:35:44Z</time>
      </trkpt>
      <trkpt lat="42.4049790" lon="-7.3649230">
        <ele>924.5</ele>
        <time>2014-10-02T08:35:45Z</time>
      </trkpt>
      <trkpt lat="42.4049440" lon="-7.3648570">
        <ele>924.4</ele>
        <time>2014-10-02T08:35:46Z</time>
      </trkpt>
      <trkpt lat="42.4049140" lon="-7.3647870">
        <ele>924.4</ele>
        <time>2014-10-02T08:35:47Z</time>
      </trkpt>
      <trkpt lat="42.4048960" lon="-7.3647030">
        <ele>924.4</ele>
        <time>2014-10-02T08:35:48Z</time>
      </trkpt>
      <trkpt lat="42.4048820" lon="-7.3646150">
        <ele>924.5</ele>
        <time>2014-10-02T08:35:49Z</time>
      </trkpt>
      <trkpt lat="42.4048700" lon="-7.3645280">
        <ele>924.5</ele>
        <time>2014-10-02T08:35:50Z</time>
      </trkpt>
      <trkpt lat="42.4048630" lon="-7.3644460">
        <ele>924.5</ele>
        <time>2014-10-02T08:35:51Z</time>
      </trkpt>
      <trkpt lat="42.4048600" lon="-7.3643690">
        <ele>924.6</ele>
        <time>2014-10-02T08:35:52Z</time>
      </trkpt>
      <trkpt lat="42.4048590" lon="-7.3642890">
        <ele>924.6</ele>
        <time>2014-10-02T08:35:53Z</time>
      </trkpt>
      <trkpt lat="42.4048680" lon="-7.3642020">
        <ele>924.6</ele>
        <time>2014-10-02T08:35:54Z</time>
      </trkpt>
      <trkpt lat="42.4048800" lon="-7.3641220">
        <ele>924.7</ele>
        <time>2014-10-02T08:35:55Z</time>
      </trkpt>
      <trkpt lat="42.4048960" lon="-7.3640480">
        <ele>924.8</ele>
        <time>2014-10-02T08:35:56Z</time>
      </trkpt>
      <trkpt lat="42.4049150" lon="-7.3639770">
        <ele>924.8</ele>
        <time>2014-10-02T08:35:57Z</time>
      </trkpt>
      <trkpt lat="42.4049370" lon="-7.3639110">
        <ele>924.9</ele>
        <time>2014-10-02T08:35:58Z</time>
      </trkpt>
      <trkpt lat="42.4049620" lon="-7.3638490">
        <ele>924.8</ele>
        <time>2014-10-02T08:35:59Z</time>
      </trkpt>
      <trkpt lat="42.4049890" lon="-7.3637900">
        <ele>924.8</ele>
        <time>2014-10-02T08:36:00Z</time>
      </trkpt>
      <trkpt lat="42.4050210" lon="-7.3637310">
        <ele>924.8</ele>
        <time>2014-10-02T08:36:01Z</time>
      </trkpt>
      <trkpt lat="42.4050570" lon="-7.3636680">
        <ele>924.8</ele>
        <time>2014-10-02T08:36:02Z</time>
      </trkpt>
      <trkpt lat="42.4051060" lon="-7.3636120">
        <ele>924.8</ele>
        <time>2014-10-02T08:36:03Z</time>
      </trkpt>
      <trkpt lat="42.4051540" lon="-7.3635540">
        <ele>924.7</ele>
        <time>2014-10-02T08:36:04Z</time>
      </trkpt>
      <trkpt lat="42.4052030" lon="-7.3635000">
        <ele>924.5</ele>
        <time>2014-10-02T08:36:05Z</time>
      </trkpt>
      <trkpt lat="42.4052510" lon="-7.3634480">
        <ele>924.3</ele>
        <time>2014-10-02T08:36:06Z</time>
      </trkpt>
      <trkpt lat="42.4053040" lon="-7.3633950">
        <ele>924.2</ele>
        <time>2014-10-02T08:36:07Z</time>
      </trkpt>
      <trkpt lat="42.4053610" lon="-7.3633410">
        <ele>924.0</ele>
        <time>2014-10-02T08:36:08Z</time>
      </trkpt>
      <trkpt lat="42.4054170" lon="-7.3632870">
        <ele>923.9</ele>
        <time>2014-10-02T08:36:09Z</time>
      </trkpt>
      <trkpt lat="42.4054760" lon="-7.3632300">
        <ele>923.8</ele>
        <time>2014-10-02T08:36:10Z</time>
      </trkpt>
      <trkpt lat="42.4055330" lon="-7.3631750">
        <ele>923.7</ele>
        <time>2014-10-02T08:36:11Z</time>
      </trkpt>
      <trkpt lat="42.4055920" lon="-7.3631190">
        <ele>923.7</ele>
        <time>2014-10-02T08:36:12Z</time>
      </trkpt>
      <trkpt lat="42.4056500" lon="-7.3630690">
        <ele>923.8</ele>
        <time>2014-10-02T08:36:13Z</time>
      </trkpt>
      <trkpt lat="42.4057090" lon="-7.3630230">
        <ele>923.8</ele>
        <time>2014-10-02T08:36:14Z</time>
      </trkpt>
      <trkpt lat="42.4057700" lon="-7.3629830">
        <ele>923.9</ele>
        <time>2014-10-02T08:36:15Z</time>
      </trkpt>
      <trkpt lat="42.4058330" lon="-7.3629500">
        <ele>924.0</ele>
        <time>2014-10-02T08:36:16Z</time>
      </trkpt>
      <trkpt lat="42.4058990" lon="-7.3629180">
        <ele>924.1</ele>
        <time>2014-10-02T08:36:17Z</time>
      </trkpt>
      <trkpt lat="42.4059610" lon="-7.3628810">
        <ele>924.3</ele>
        <time>2014-10-02T08:36:18Z</time>
      </trkpt>
      <trkpt lat="42.4060120" lon="-7.3628280">
        <ele>924.4</ele>
        <time>2014-10-02T08:36:19Z</time>
      </trkpt>
      <trkpt lat="42.4060500" lon="-7.3627610">
        <ele>924.5</ele>
        <time>2014-10-02T08:36:20Z</time>
      </trkpt>
      <trkpt lat="42.4060840" lon="-7.3626950">
        <ele>924.7</ele>
        <time>2014-10-02T08:36:21Z</time>
      </trkpt>
      <trkpt lat="42.4061020" lon="-7.3626250">
        <ele>924.8</ele>
        <time>2014-10-02T08:36:22Z</time>
      </trkpt>
      <trkpt lat="42.4061200" lon="-7.3625520">
        <ele>925.0</ele>
        <time>2014-10-02T08:36:23Z</time>
      </trkpt>
      <trkpt lat="42.4061360" lon="-7.3624790">
        <ele>925.3</ele>
        <time>2014-10-02T08:36:24Z</time>
      </trkpt>
      <trkpt lat="42.4061470" lon="-7.3624080">
        <ele>925.6</ele>
        <time>2014-10-02T08:36:25Z</time>
      </trkpt>
      <trkpt lat="42.4061550" lon="-7.3623360">
        <ele>925.8</ele>
        <time>2014-10-02T08:36:26Z</time>
      </trkpt>
      <trkpt lat="42.4061600" lon="-7.3622640">
        <ele>926.1</ele>
        <time>2014-10-02T08:36:27Z</time>
      </trkpt>
      <trkpt lat="42.4061630" lon="-7.3621980">
        <ele>926.2</ele>
        <time>2014-10-02T08:36:28Z</time>
      </trkpt>
      <trkpt lat="42.4061650" lon="-7.3621290">
        <ele>926.4</ele>
        <time>2014-10-02T08:36:29Z</time>
      </trkpt>
      <trkpt lat="42.4061670" lon="-7.3620630">
        <ele>926.6</ele>
        <time>2014-10-02T08:36:30Z</time>
      </trkpt>
      <trkpt lat="42.4061670" lon="-7.3619950">
        <ele>926.7</ele>
        <time>2014-10-02T08:36:31Z</time>
      </trkpt>
      <trkpt lat="42.4061680" lon="-7.3619310">
        <ele>926.8</ele>
        <time>2014-10-02T08:36:32Z</time>
      </trkpt>
      <trkpt lat="42.4061680" lon="-7.3618670">
        <ele>926.8</ele>
        <time>2014-10-02T08:36:33Z</time>
      </trkpt>
      <trkpt lat="42.4061660" lon="-7.3618010">
        <ele>926.9</ele>
        <time>2014-10-02T08:36:34Z</time>
      </trkpt>
      <trkpt lat="42.4061640" lon="-7.3617350">
        <ele>927.0</ele>
        <time>2014-10-02T08:36:35Z</time>
      </trkpt>
      <trkpt lat="42.4061610" lon="-7.3616730">
        <ele>927.1</ele>
        <time>2014-10-02T08:36:36Z</time>
      </trkpt>
      <trkpt lat="42.4061580" lon="-7.3616060">
        <ele>927.2</ele>
        <time>2014-10-02T08:36:37Z</time>
      </trkpt>
      <trkpt lat="42.4061580" lon="-7.3615350">
        <ele>927.3</ele>
        <time>2014-10-02T08:36:38Z</time>
      </trkpt>
      <trkpt lat="42.4061600" lon="-7.3614590">
        <ele>927.4</ele>
        <time>2014-10-02T08:36:39Z</time>
      </trkpt>
      <trkpt lat="42.4061650" lon="-7.3613890">
        <ele>927.4</ele>
        <time>2014-10-02T08:36:40Z</time>
      </trkpt>
      <trkpt lat="42.4061810" lon="-7.3613210">
        <ele>927.4</ele>
        <time>2014-10-02T08:36:41Z</time>
      </trkpt>
      <trkpt lat="42.4062000" lon="-7.3612460">
        <ele>927.5</ele>
        <time>2014-10-02T08:36:42Z</time>
      </trkpt>
      <trkpt lat="42.4062320" lon="-7.3611800">
        <ele>927.6</ele>
        <time>2014-10-02T08:36:43Z</time>
      </trkpt>
      <trkpt lat="42.4062670" lon="-7.3611150">
        <ele>927.7</ele>
        <time>2014-10-02T08:36:44Z</time>
      </trkpt>
      <trkpt lat="42.4063130" lon="-7.3610640">
        <ele>927.8</ele>
        <time>2014-10-02T08:36:45Z</time>
      </trkpt>
      <trkpt lat="42.4063620" lon="-7.3610120">
        <ele>927.9</ele>
        <time>2014-10-02T08:36:46Z</time>
      </trkpt>
      <trkpt lat="42.4064140" lon="-7.3609630">
        <ele>927.9</ele>
        <time>2014-10-02T08:36:47Z</time>
      </trkpt>
      <trkpt lat="42.4064690" lon="-7.3609110">
        <ele>928.0</ele>
        <time>2014-10-02T08:36:48Z</time>
      </trkpt>
      <trkpt lat="42.4065240" lon="-7.3608630">
        <ele>928.1</ele>
        <time>2014-10-02T08:36:49Z</time>
      </trkpt>
      <trkpt lat="42.4065800" lon="-7.3608160">
        <ele>928.1</ele>
        <time>2014-10-02T08:36:50Z</time>
      </trkpt>
      <trkpt lat="42.4066390" lon="-7.3607700">
        <ele>928.1</ele>
        <time>2014-10-02T08:36:51Z</time>
      </trkpt>
      <trkpt lat="42.4067000" lon="-7.3607210">
        <ele>928.2</ele>
        <time>2014-10-02T08:36:52Z</time>
      </trkpt>
      <trkpt lat="42.4067660" lon="-7.3606710">
        <ele>928.3</ele>
        <time>2014-10-02T08:36:53Z</time>
      </trkpt>
      <trkpt lat="42.4068320" lon="-7.3606200">
        <ele>928.4</ele>
        <time>2014-10-02T08:36:54Z</time>
      </trkpt>
      <trkpt lat="42.4069020" lon="-7.3605710">
        <ele>928.6</ele>
        <time>2014-10-02T08:36:55Z</time>
      </trkpt>
      <trkpt lat="42.4069690" lon="-7.3605240">
        <ele>928.8</ele>
        <time>2014-10-02T08:36:56Z</time>
      </trkpt>
      <trkpt lat="42.4070360" lon="-7.3604750">
        <ele>929.0</ele>
        <time>2014-10-02T08:36:57Z</time>
      </trkpt>
      <trkpt lat="42.4071030" lon="-7.3604270">
        <ele>929.2</ele>
        <time>2014-10-02T08:36:58Z</time>
      </trkpt>
      <trkpt lat="42.4071700" lon="-7.3603790">
        <ele>929.4</ele>
        <time>2014-10-02T08:36:59Z</time>
      </trkpt>
      <trkpt lat="42.4072400" lon="-7.3603300">
        <ele>929.7</ele>
        <time>2014-10-02T08:37:00Z</time>
      </trkpt>
      <trkpt lat="42.4073080" lon="-7.3602820">
        <ele>929.9</ele>
        <time>2014-10-02T08:37:01Z</time>
      </trkpt>
      <trkpt lat="42.4073760" lon="-7.3602270">
        <ele>930.1</ele>
        <time>2014-10-02T08:37:02Z</time>
      </trkpt>
      <trkpt lat="42.4074310" lon="-7.3601540">
        <ele>930.4</ele>
        <time>2014-10-02T08:37:03Z</time>
      </trkpt>
      <trkpt lat="42.4074740" lon="-7.3600620">
        <ele>930.6</ele>
        <time>2014-10-02T08:37:04Z</time>
      </trkpt>
      <trkpt lat="42.4074920" lon="-7.3599690">
        <ele>930.9</ele>
        <time>2014-10-02T08:37:05Z</time>
      </trkpt>
      <trkpt lat="42.4074810" lon="-7.3598740">
        <ele>931.2</ele>
        <time>2014-10-02T08:37:06Z</time>
      </trkpt>
      <trkpt lat="42.4074620" lon="-7.3597830">
        <ele>931.2</ele>
        <time>2014-10-02T08:37:07Z</time>
      </trkpt>
      <trkpt lat="42.4074360" lon="-7.3596900">
        <ele>930.9</ele>
        <time>2014-10-02T08:37:08Z</time>
      </trkpt>
      <trkpt lat="42.4074050" lon="-7.3595940">
        <ele>930.8</ele>
        <time>2014-10-02T08:37:09Z</time>
      </trkpt>
      <trkpt lat="42.4073730" lon="-7.3595040">
        <ele>930.8</ele>
        <time>2014-10-02T08:37:10Z</time>
      </trkpt>
      <trkpt lat="42.4073450" lon="-7.3594260">
        <ele>930.9</ele>
        <time>2014-10-02T08:37:11Z</time>
      </trkpt>
      <trkpt lat="42.4073170" lon="-7.3593530">
        <ele>930.9</ele>
        <time>2014-10-02T08:37:12Z</time>
      </trkpt>
      <trkpt lat="42.4072910" lon="-7.3592830">
        <ele>931.0</ele>
        <time>2014-10-02T08:37:13Z</time>
      </trkpt>
      <trkpt lat="42.4072680" lon="-7.3592220">
        <ele>931.0</ele>
        <time>2014-10-02T08:37:14Z</time>
      </trkpt>
      <trkpt lat="42.4072450" lon="-7.3591570">
        <ele>931.0</ele>
        <time>2014-10-02T08:37:15Z</time>
      </trkpt>
      <trkpt lat="42.4072220" lon="-7.3590920">
        <ele>931.1</ele>
        <time>2014-10-02T08:37:16Z</time>
      </trkpt>
      <trkpt lat="42.4071990" lon="-7.3590290">
        <ele>931.2</ele>
        <time>2014-10-02T08:37:17Z</time>
      </trkpt>
      <trkpt lat="42.4071770" lon="-7.3589680">
        <ele>931.2</ele>
        <time>2014-10-02T08:37:18Z</time>
      </trkpt>
      <trkpt lat="42.4071560" lon="-7.3589090">
        <ele>931.3</ele>
        <time>2014-10-02T08:37:19Z</time>
      </trkpt>
      <trkpt lat="42.4071340" lon="-7.3588500">
        <ele>931.3</ele>
        <time>2014-10-02T08:37:20Z</time>
      </trkpt>
      <trkpt lat="42.4071150" lon="-7.3587950">
        <ele>931.3</ele>
        <time>2014-10-02T08:37:21Z</time>
      </trkpt>
      <trkpt lat="42.4070970" lon="-7.3587440">
        <ele>931.3</ele>
        <time>2014-10-02T08:37:22Z</time>
      </trkpt>
      <trkpt lat="42.4070800" lon="-7.3586950">
        <ele>931.4</ele>
        <time>2014-10-02T08:37:23Z</time>
      </trkpt>
      <trkpt lat="42.4070630" lon="-7.3586450">
        <ele>931.4</ele>
        <time>2014-10-02T08:37:24Z</time>
      </trkpt>
      <trkpt lat="42.4070450" lon="-7.3585950">
        <ele>931.4</ele>
        <time>2014-10-02T08:37:25Z</time>
      </trkpt>
      <trkpt lat="42.4070290" lon="-7.3585450">
        <ele>931.4</ele>
        <time>2014-10-02T08:37:26Z</time>
      </trkpt>
      <trkpt lat="42.4070120" lon="-7.3584950">
        <ele>931.5</ele>
        <time>2014-10-02T08:37:27Z</time>
      </trkpt>
      <trkpt lat="42.4069960" lon="-7.3584450">
        <ele>931.5</ele>
        <time>2014-10-02T08:37:28Z</time>
      </trkpt>
      <trkpt lat="42.4069800" lon="-7.3583940">
        <ele>931.5</ele>
        <time>2014-10-02T08:37:29Z</time>
      </trkpt>
      <trkpt lat="42.4069640" lon="-7.3583430">
        <ele>931.5</ele>
        <time>2014-10-02T08:37:30Z</time>
      </trkpt>
      <trkpt lat="42.4069490" lon="-7.3582910">
        <ele>931.5</ele>
        <time>2014-10-02T08:37:31Z</time>
      </trkpt>
      <trkpt lat="42.4069340" lon="-7.3582420">
        <ele>931.5</ele>
        <time>2014-10-02T08:37:32Z</time>
      </trkpt>
      <trkpt lat="42.4069190" lon="-7.3581890">
        <ele>931.6</ele>
        <time>2014-10-02T08:37:33Z</time>
      </trkpt>
      <trkpt lat="42.4069050" lon="-7.3581420">
        <ele>931.6</ele>
        <time>2014-10-02T08:37:34Z</time>
      </trkpt>
      <trkpt lat="42.4068930" lon="-7.3580960">
        <ele>931.6</ele>
        <time>2014-10-02T08:37:35Z</time>
      </trkpt>
      <trkpt lat="42.4068810" lon="-7.3580460">
        <ele>931.6</ele>
        <time>2014-10-02T08:37:36Z</time>
      </trkpt>
      <trkpt lat="42.4068710" lon="-7.3579940">
        <ele>931.6</ele>
        <time>2014-10-02T08:37:37Z</time>
      </trkpt>
      <trkpt lat="42.4068620" lon="-7.3579380">
        <ele>931.6</ele>
        <time>2014-10-02T08:37:38Z</time>
      </trkpt>
      <trkpt lat="42.4068550" lon="-7.3578840">
        <ele>931.6</ele>
        <time>2014-10-02T08:37:39Z</time>
      </trkpt>
      <trkpt lat="42.4068500" lon="-7.3578330">
        <ele>931.7</ele>
        <time>2014-10-02T08:37:40Z</time>
      </trkpt>
      <trkpt lat="42.4068470" lon="-7.3577820">
        <ele>931.8</ele>
        <time>2014-10-02T08:37:41Z</time>
      </trkpt>
      <trkpt lat="42.4068430" lon="-7.3577310">
        <ele>931.9</ele>
        <time>2014-10-02T08:37:42Z</time>
      </trkpt>
      <trkpt lat="42.4068420" lon="-7.3576820">
        <ele>932.0</ele>
        <time>2014-10-02T08:37:43Z</time>
      </trkpt>
      <trkpt lat="42.4068410" lon="-7.3576360">
        <ele>932.1</ele>
        <time>2014-10-02T08:37:44Z</time>
      </trkpt>
      <trkpt lat="42.4068400" lon="-7.3575870">
        <ele>932.1</ele>
        <time>2014-10-02T08:37:45Z</time>
      </trkpt>
      <trkpt lat="42.4068390" lon="-7.3575380">
        <ele>932.2</ele>
        <time>2014-10-02T08:37:46Z</time>
      </trkpt>
      <trkpt lat="42.4068380" lon="-7.3574810">
        <ele>932.3</ele>
        <time>2014-10-02T08:37:47Z</time>
      </trkpt>
      <trkpt lat="42.4068360" lon="-7.3574350">
        <ele>932.3</ele>
        <time>2014-10-02T08:37:48Z</time>
      </trkpt>
      <trkpt lat="42.4068350" lon="-7.3573890">
        <ele>932.3</ele>
        <time>2014-10-02T08:37:49Z</time>
      </trkpt>
      <trkpt lat="42.4068330" lon="-7.3573400">
        <ele>932.4</ele>
        <time>2014-10-02T08:37:50Z</time>
      </trkpt>
      <trkpt lat="42.4068310" lon="-7.3572910">
        <ele>932.4</ele>
        <time>2014-10-02T08:37:51Z</time>
      </trkpt>
      <trkpt lat="42.4068310" lon="-7.3572340">
        <ele>932.4</ele>
        <time>2014-10-02T08:37:52Z</time>
      </trkpt>
      <trkpt lat="42.4068320" lon="-7.3571730">
        <ele>932.4</ele>
        <time>2014-10-02T08:37:53Z</time>
      </trkpt>
      <trkpt lat="42.4068340" lon="-7.3571200">
        <ele>932.4</ele>
        <time>2014-10-02T08:37:54Z</time>
      </trkpt>
      <trkpt lat="42.4068380" lon="-7.3570700">
        <ele>932.3</ele>
        <time>2014-10-02T08:37:55Z</time>
      </trkpt>
      <trkpt lat="42.4068410" lon="-7.3570210">
        <ele>932.3</ele>
        <time>2014-10-02T08:37:56Z</time>
      </trkpt>
      <trkpt lat="42.4068430" lon="-7.3569710">
        <ele>932.2</ele>
        <time>2014-10-02T08:37:57Z</time>
      </trkpt>
      <trkpt lat="42.4068450" lon="-7.3569230">
        <ele>932.1</ele>
        <time>2014-10-02T08:37:58Z</time>
      </trkpt>
      <trkpt lat="42.4068470" lon="-7.3568750">
        <ele>932.1</ele>
        <time>2014-10-02T08:37:59Z</time>
      </trkpt>
      <trkpt lat="42.4068490" lon="-7.3568260">
        <ele>932.3</ele>
        <time>2014-10-02T08:38:00Z</time>
      </trkpt>
      <trkpt lat="42.4068510" lon="-7.3567790">
        <ele>932.5</ele>
        <time>2014-10-02T08:38:01Z</time>
      </trkpt>
      <trkpt lat="42.4068520" lon="-7.3567340">
        <ele>932.7</ele>
        <time>2014-10-02T08:38:02Z</time>
      </trkpt>
      <trkpt lat="42.4068540" lon="-7.3566830">
        <ele>932.9</ele>
        <time>2014-10-02T08:38:03Z</time>
      </trkpt>
      <trkpt lat="42.4068590" lon="-7.3566320">
        <ele>933.1</ele>
        <time>2014-10-02T08:38:04Z</time>
      </trkpt>
      <trkpt lat="42.4068710" lon="-7.3565850">
        <ele>933.4</ele>
        <time>2014-10-02T08:38:05Z</time>
      </trkpt>
      <trkpt lat="42.4068850" lon="-7.3565380">
        <ele>933.6</ele>
        <time>2014-10-02T08:38:06Z</time>
      </trkpt>
      <trkpt lat="42.4069020" lon="-7.3564880">
        <ele>933.9</ele>
        <time>2014-10-02T08:38:07Z</time>
      </trkpt>
      <trkpt lat="42.4069200" lon="-7.3564370">
        <ele>934.1</ele>
        <time>2014-10-02T08:38:08Z</time>
      </trkpt>
      <trkpt lat="42.4069410" lon="-7.3563860">
        <ele>934.3</ele>
        <time>2014-10-02T08:38:09Z</time>
      </trkpt>
      <trkpt lat="42.4069620" lon="-7.3563370">
        <ele>934.5</ele>
        <time>2014-10-02T08:38:10Z</time>
      </trkpt>
      <trkpt lat="42.4069840" lon="-7.3562900">
        <ele>934.7</ele>
        <time>2014-10-02T08:38:11Z</time>
      </trkpt>
      <trkpt lat="42.4070040" lon="-7.3562460">
        <ele>934.9</ele>
        <time>2014-10-02T08:38:12Z</time>
      </trkpt>
      <trkpt lat="42.4070240" lon="-7.3562060">
        <ele>935.0</ele>
        <time>2014-10-02T08:38:13Z</time>
      </trkpt>
      <trkpt lat="42.4070450" lon="-7.3561700">
        <ele>935.2</ele>
        <time>2014-10-02T08:38:14Z</time>
      </trkpt>
      <trkpt lat="42.4070690" lon="-7.3561290">
        <ele>935.3</ele>
        <time>2014-10-02T08:38:15Z</time>
      </trkpt>
      <trkpt lat="42.4070930" lon="-7.3560850">
        <ele>935.5</ele>
        <time>2014-10-02T08:38:16Z</time>
      </trkpt>
      <trkpt lat="42.4071180" lon="-7.3560460">
        <ele>935.6</ele>
        <time>2014-10-02T08:38:17Z</time>
      </trkpt>
      <trkpt lat="42.4071420" lon="-7.3560110">
        <ele>935.7</ele>
        <time>2014-10-02T08:38:18Z</time>
      </trkpt>
      <trkpt lat="42.4071690" lon="-7.3559750">
        <ele>935.8</ele>
        <time>2014-10-02T08:38:19Z</time>
      </trkpt>
      <trkpt lat="42.4071970" lon="-7.3559380">
        <ele>936.0</ele>
        <time>2014-10-02T08:38:20Z</time>
      </trkpt>
      <trkpt lat="42.4072280" lon="-7.3558970">
        <ele>936.1</ele>
        <time>2014-10-02T08:38:21Z</time>
      </trkpt>
      <trkpt lat="42.4072600" lon="-7.3558600">
        <ele>936.2</ele>
        <time>2014-10-02T08:38:22Z</time>
      </trkpt>
      <trkpt lat="42.4072980" lon="-7.3558210">
        <ele>936.3</ele>
        <time>2014-10-02T08:38:23Z</time>
      </trkpt>
      <trkpt lat="42.4073360" lon="-7.3557850">
        <ele>936.4</ele>
        <time>2014-10-02T08:38:24Z</time>
      </trkpt>
      <trkpt lat="42.4073760" lon="-7.3557520">
        <ele>936.4</ele>
        <time>2014-10-02T08:38:25Z</time>
      </trkpt>
      <trkpt lat="42.4074190" lon="-7.3557190">
        <ele>936.4</ele>
        <time>2014-10-02T08:38:26Z</time>
      </trkpt>
      <trkpt lat="42.4074630" lon="-7.3556900">
        <ele>936.4</ele>
        <time>2014-10-02T08:38:27Z</time>
      </trkpt>
      <trkpt lat="42.4075180" lon="-7.3556730">
        <ele>936.4</ele>
        <time>2014-10-02T08:38:28Z</time>
      </trkpt>
      <trkpt lat="42.4075730" lon="-7.3556600">
        <ele>936.5</ele>
        <time>2014-10-02T08:38:29Z</time>
      </trkpt>
      <trkpt lat="42.4076310" lon="-7.3556540">
        <ele>936.5</ele>
        <time>2014-10-02T08:38:30Z</time>
      </trkpt>
      <trkpt lat="42.4076880" lon="-7.3556640">
        <ele>936.5</ele>
        <time>2014-10-02T08:38:31Z</time>
      </trkpt>
      <trkpt lat="42.4077450" lon="-7.3556770">
        <ele>936.5</ele>
        <time>2014-10-02T08:38:32Z</time>
      </trkpt>
      <trkpt lat="42.4078020" lon="-7.3556940">
        <ele>936.4</ele>
        <time>2014-10-02T08:38:33Z</time>
      </trkpt>
      <trkpt lat="42.4078620" lon="-7.3557150">
        <ele>936.2</ele>
        <time>2014-10-02T08:38:34Z</time>
      </trkpt>
      <trkpt lat="42.4079220" lon="-7.3557420">
        <ele>935.9</ele>
        <time>2014-10-02T08:38:35Z</time>
      </trkpt>
      <trkpt lat="42.4079830" lon="-7.3557720">
        <ele>935.6</ele>
        <time>2014-10-02T08:38:36Z</time>
      </trkpt>
      <trkpt lat="42.4080410" lon="-7.3558020">
        <ele>935.3</ele>
        <time>2014-10-02T08:38:37Z</time>
      </trkpt>
      <trkpt lat="42.4081060" lon="-7.3558360">
        <ele>935.0</ele>
        <time>2014-10-02T08:38:38Z</time>
      </trkpt>
      <trkpt lat="42.4081760" lon="-7.3558770">
        <ele>934.6</ele>
        <time>2014-10-02T08:38:39Z</time>
      </trkpt>
      <trkpt lat="42.4082470" lon="-7.3559130">
        <ele>934.2</ele>
        <time>2014-10-02T08:38:40Z</time>
      </trkpt>
      <trkpt lat="42.4083320" lon="-7.3559490">
        <ele>933.8</ele>
        <time>2014-10-02T08:38:41Z</time>
      </trkpt>
      <trkpt lat="42.4084140" lon="-7.3559500">
        <ele>933.4</ele>
        <time>2014-10-02T08:38:42Z</time>
      </trkpt>
      <trkpt lat="42.4084940" lon="-7.3559080">
        <ele>932.9</ele>
        <time>2014-10-02T08:38:43Z</time>
      </trkpt>
      <trkpt lat="42.4085590" lon="-7.3558340">
        <ele>932.5</ele>
        <time>2014-10-02T08:38:44Z</time>
      </trkpt>
      <trkpt lat="42.4086170" lon="-7.3557520">
        <ele>932.1</ele>
        <time>2014-10-02T08:38:45Z</time>
      </trkpt>
      <trkpt lat="42.4086690" lon="-7.3556630">
        <ele>931.7</ele>
        <time>2014-10-02T08:38:46Z</time>
      </trkpt>
      <trkpt lat="42.4087160" lon="-7.3555680">
        <ele>931.4</ele>
        <time>2014-10-02T08:38:47Z</time>
      </trkpt>
      <trkpt lat="42.4087590" lon="-7.3554750">
        <ele>931.2</ele>
        <time>2014-10-02T08:38:48Z</time>
      </trkpt>
      <trkpt lat="42.4088030" lon="-7.3553730">
        <ele>931.0</ele>
        <time>2014-10-02T08:38:49Z</time>
      </trkpt>
      <trkpt lat="42.4088480" lon="-7.3552630">
        <ele>930.8</ele>
        <time>2014-10-02T08:38:50Z</time>
      </trkpt>
      <trkpt lat="42.4088970" lon="-7.3551640">
        <ele>930.6</ele>
        <time>2014-10-02T08:38:51Z</time>
      </trkpt>
      <trkpt lat="42.4089610" lon="-7.3550830">
        <ele>930.4</ele>
        <time>2014-10-02T08:38:52Z</time>
      </trkpt>
      <trkpt lat="42.4090290" lon="-7.3550120">
        <ele>930.1</ele>
        <time>2014-10-02T08:38:53Z</time>
      </trkpt>
      <trkpt lat="42.4091130" lon="-7.3549740">
        <ele>929.8</ele>
        <time>2014-10-02T08:38:54Z</time>
      </trkpt>
      <trkpt lat="42.4092010" lon="-7.3549450">
        <ele>929.5</ele>
        <time>2014-10-02T08:38:55Z</time>
      </trkpt>
      <trkpt lat="42.4092930" lon="-7.3549270">
        <ele>929.2</ele>
        <time>2014-10-02T08:38:56Z</time>
      </trkpt>
      <trkpt lat="42.4093870" lon="-7.3549160">
        <ele>928.8</ele>
        <time>2014-10-02T08:38:57Z</time>
      </trkpt>
      <trkpt lat="42.4094730" lon="-7.3549130">
        <ele>928.5</ele>
        <time>2014-10-02T08:38:58Z</time>
      </trkpt>
      <trkpt lat="42.4095520" lon="-7.3549140">
        <ele>928.2</ele>
        <time>2014-10-02T08:38:59Z</time>
      </trkpt>
      <trkpt lat="42.4096370" lon="-7.3549240">
        <ele>927.9</ele>
        <time>2014-10-02T08:39:00Z</time>
      </trkpt>
      <trkpt lat="42.4097270" lon="-7.3549470">
        <ele>927.5</ele>
        <time>2014-10-02T08:39:01Z</time>
      </trkpt>
      <trkpt lat="42.4098240" lon="-7.3549760">
        <ele>927.0</ele>
        <time>2014-10-02T08:39:02Z</time>
      </trkpt>
      <trkpt lat="42.4099200" lon="-7.3550060">
        <ele>926.7</ele>
        <time>2014-10-02T08:39:03Z</time>
      </trkpt>
      <trkpt lat="42.4100190" lon="-7.3550400">
        <ele>926.3</ele>
        <time>2014-10-02T08:39:04Z</time>
      </trkpt>
      <trkpt lat="42.4101160" lon="-7.3550780">
        <ele>925.9</ele>
        <time>2014-10-02T08:39:05Z</time>
      </trkpt>
      <trkpt lat="42.4102160" lon="-7.3551250">
        <ele>925.4</ele>
        <time>2014-10-02T08:39:06Z</time>
      </trkpt>
      <trkpt lat="42.4103060" lon="-7.3551750">
        <ele>925.0</ele>
        <time>2014-10-02T08:39:07Z</time>
      </trkpt>
      <trkpt lat="42.4104030" lon="-7.3552320">
        <ele>924.3</ele>
        <time>2014-10-02T08:39:08Z</time>
      </trkpt>
      <trkpt lat="42.4105010" lon="-7.3552950">
        <ele>923.7</ele>
        <time>2014-10-02T08:39:09Z</time>
      </trkpt>
      <trkpt lat="42.4106030" lon="-7.3553690">
        <ele>923.0</ele>
        <time>2014-10-02T08:39:10Z</time>
      </trkpt>
      <trkpt lat="42.4107080" lon="-7.3554500">
        <ele>922.3</ele>
        <time>2014-10-02T08:39:11Z</time>
      </trkpt>
      <trkpt lat="42.4107980" lon="-7.3555250">
        <ele>921.6</ele>
        <time>2014-10-02T08:39:12Z</time>
      </trkpt>
      <trkpt lat="42.4108950" lon="-7.3556050">
        <ele>920.9</ele>
        <time>2014-10-02T08:39:13Z</time>
      </trkpt>
      <trkpt lat="42.4109960" lon="-7.3556800">
        <ele>920.4</ele>
        <time>2014-10-02T08:39:14Z</time>
      </trkpt>
      <trkpt lat="42.4110980" lon="-7.3557490">
        <ele>920.0</ele>
        <time>2014-10-02T08:39:15Z</time>
      </trkpt>
      <trkpt lat="42.4111970" lon="-7.3558050">
        <ele>919.8</ele>
        <time>2014-10-02T08:39:16Z</time>
      </trkpt>
      <trkpt lat="42.4112960" lon="-7.3558570">
        <ele>919.7</ele>
        <time>2014-10-02T08:39:17Z</time>
      </trkpt>
      <trkpt lat="42.4113970" lon="-7.3559020">
        <ele>919.6</ele>
        <time>2014-10-02T08:39:18Z</time>
      </trkpt>
      <trkpt lat="42.4115020" lon="-7.3559420">
        <ele>919.6</ele>
        <time>2014-10-02T08:39:19Z</time>
      </trkpt>
      <trkpt lat="42.4116000" lon="-7.3559730">
        <ele>919.6</ele>
        <time>2014-10-02T08:39:20Z</time>
      </trkpt>
      <trkpt lat="42.4116910" lon="-7.3559920">
        <ele>919.5</ele>
        <time>2014-10-02T08:39:21Z</time>
      </trkpt>
      <trkpt lat="42.4117710" lon="-7.3559680">
        <ele>919.4</ele>
        <time>2014-10-02T08:39:22Z</time>
      </trkpt>
      <trkpt lat="42.4118460" lon="-7.3559000">
        <ele>919.3</ele>
        <time>2014-10-02T08:39:23Z</time>
      </trkpt>
      <trkpt lat="42.4118890" lon="-7.3558200">
        <ele>919.3</ele>
        <time>2014-10-02T08:39:24Z</time>
      </trkpt>
      <trkpt lat="42.4118950" lon="-7.3557420">
        <ele>919.4</ele>
        <time>2014-10-02T08:39:25Z</time>
      </trkpt>
      <trkpt lat="42.4118930" lon="-7.3556760">
        <ele>919.4</ele>
        <time>2014-10-02T08:39:26Z</time>
      </trkpt>
      <trkpt lat="42.4118840" lon="-7.3556030">
        <ele>919.4</ele>
        <time>2014-10-02T08:39:27Z</time>
      </trkpt>
      <trkpt lat="42.4118730" lon="-7.3555320">
        <ele>919.5</ele>
        <time>2014-10-02T08:39:28Z</time>
      </trkpt>
      <trkpt lat="42.4118600" lon="-7.3554500">
        <ele>919.5</ele>
        <time>2014-10-02T08:39:29Z</time>
      </trkpt>
      <trkpt lat="42.4118490" lon="-7.3553710">
        <ele>919.5</ele>
        <time>2014-10-02T08:39:30Z</time>
      </trkpt>
      <trkpt lat="42.4118370" lon="-7.3552840">
        <ele>919.6</ele>
        <time>2014-10-02T08:39:31Z</time>
      </trkpt>
      <trkpt lat="42.4118240" lon="-7.3552010">
        <ele>919.8</ele>
        <time>2014-10-02T08:39:32Z</time>
      </trkpt>
      <trkpt lat="42.4118120" lon="-7.3551130">
        <ele>919.9</ele>
        <time>2014-10-02T08:39:33Z</time>
      </trkpt>
      <trkpt lat="42.4117990" lon="-7.3550320">
        <ele>920.1</ele>
        <time>2014-10-02T08:39:34Z</time>
      </trkpt>
      <trkpt lat="42.4117900" lon="-7.3549540">
        <ele>920.3</ele>
        <time>2014-10-02T08:39:35Z</time>
      </trkpt>
      <trkpt lat="42.4117790" lon="-7.3548760">
        <ele>920.6</ele>
        <time>2014-10-02T08:39:36Z</time>
      </trkpt>
      <trkpt lat="42.4117680" lon="-7.3548050">
        <ele>920.9</ele>
        <time>2014-10-02T08:39:37Z</time>
      </trkpt>
      <trkpt lat="42.4117590" lon="-7.3547330">
        <ele>921.2</ele>
        <time>2014-10-02T08:39:38Z</time>
      </trkpt>
      <trkpt lat="42.4117490" lon="-7.3546610">
        <ele>921.5</ele>
        <time>2014-10-02T08:39:39Z</time>
      </trkpt>
      <trkpt lat="42.4117410" lon="-7.3545920">
        <ele>921.8</ele>
        <time>2014-10-02T08:39:40Z</time>
      </trkpt>
      <trkpt lat="42.4117320" lon="-7.3545290">
        <ele>922.1</ele>
        <time>2014-10-02T08:39:41Z</time>
      </trkpt>
      <trkpt lat="42.4117240" lon="-7.3544650">
        <ele>922.4</ele>
        <time>2014-10-02T08:39:42Z</time>
      </trkpt>
      <trkpt lat="42.4117130" lon="-7.3544030">
        <ele>922.7</ele>
        <time>2014-10-02T08:39:43Z</time>
      </trkpt>
      <trkpt lat="42.4117060" lon="-7.3543450">
        <ele>923.0</ele>
        <time>2014-10-02T08:39:44Z</time>
      </trkpt>
      <trkpt lat="42.4117000" lon="-7.3542830">
        <ele>923.4</ele>
        <time>2014-10-02T08:39:45Z</time>
      </trkpt>
      <trkpt lat="42.4116930" lon="-7.3542260">
        <ele>923.7</ele>
        <time>2014-10-02T08:39:46Z</time>
      </trkpt>
      <trkpt lat="42.4116880" lon="-7.3541620">
        <ele>924.0</ele>
        <time>2014-10-02T08:39:47Z</time>
      </trkpt>
      <trkpt lat="42.4116820" lon="-7.3540960">
        <ele>924.3</ele>
        <time>2014-10-02T08:39:48Z</time>
      </trkpt>
      <trkpt lat="42.4116770" lon="-7.3540250">
        <ele>924.7</ele>
        <time>2014-10-02T08:39:49Z</time>
      </trkpt>
      <trkpt lat="42.4116720" lon="-7.3539700">
        <ele>925.0</ele>
        <time>2014-10-02T08:39:50Z</time>
      </trkpt>
      <trkpt lat="42.4116700" lon="-7.3539220">
        <ele>925.3</ele>
        <time>2014-10-02T08:39:51Z</time>
      </trkpt>
      <trkpt lat="42.4116700" lon="-7.3538810">
        <ele>925.6</ele>
        <time>2014-10-02T08:39:52Z</time>
      </trkpt>
      <trkpt lat="42.4116700" lon="-7.3538320">
        <ele>925.9</ele>
        <time>2014-10-02T08:39:53Z</time>
      </trkpt>
      <trkpt lat="42.4116700" lon="-7.3537820">
        <ele>926.2</ele>
        <time>2014-10-02T08:39:54Z</time>
      </trkpt>
      <trkpt lat="42.4116700" lon="-7.3537300">
        <ele>926.5</ele>
        <time>2014-10-02T08:39:55Z</time>
      </trkpt>
      <trkpt lat="42.4116700" lon="-7.3536790">
        <ele>926.8</ele>
        <time>2014-10-02T08:39:56Z</time>
      </trkpt>
      <trkpt lat="42.4116700" lon="-7.3536290">
        <ele>927.1</ele>
        <time>2014-10-02T08:39:57Z</time>
      </trkpt>
      <trkpt lat="42.4116690" lon="-7.3535790">
        <ele>927.4</ele>
        <time>2014-10-02T08:39:58Z</time>
      </trkpt>
      <trkpt lat="42.4116690" lon="-7.3535260">
        <ele>927.7</ele>
        <time>2014-10-02T08:39:59Z</time>
      </trkpt>
      <trkpt lat="42.4116700" lon="-7.3534770">
        <ele>928.0</ele>
        <time>2014-10-02T08:40:00Z</time>
      </trkpt>
      <trkpt lat="42.4116700" lon="-7.3534300">
        <ele>928.4</ele>
        <time>2014-10-02T08:40:01Z</time>
      </trkpt>
      <trkpt lat="42.4116720" lon="-7.3533820">
        <ele>928.7</ele>
        <time>2014-10-02T08:40:02Z</time>
      </trkpt>
      <trkpt lat="42.4116740" lon="-7.3533340">
        <ele>929.0</ele>
        <time>2014-10-02T08:40:03Z</time>
      </trkpt>
      <trkpt lat="42.4116750" lon="-7.3532830">
        <ele>929.4</ele>
        <time>2014-10-02T08:40:04Z</time>
      </trkpt>
      <trkpt lat="42.4116770" lon="-7.3532310">
        <ele>929.7</ele>
        <time>2014-10-02T08:40:05Z</time>
      </trkpt>
      <trkpt lat="42.4116780" lon="-7.3531810">
        <ele>930.0</ele>
        <time>2014-10-02T08:40:06Z</time>
      </trkpt>
      <trkpt lat="42.4116790" lon="-7.3531290">
        <ele>930.3</ele>
        <time>2014-10-02T08:40:07Z</time>
      </trkpt>
      <trkpt lat="42.4116800" lon="-7.3530800">
        <ele>930.6</ele>
        <time>2014-10-02T08:40:08Z</time>
      </trkpt>
      <trkpt lat="42.4116810" lon="-7.3530260">
        <ele>930.9</ele>
        <time>2014-10-02T08:40:09Z</time>
      </trkpt>
      <trkpt lat="42.4116800" lon="-7.3529730">
        <ele>931.1</ele>
        <time>2014-10-02T08:40:10Z</time>
      </trkpt>
      <trkpt lat="42.4116780" lon="-7.3529220">
        <ele>931.4</ele>
        <time>2014-10-02T08:40:11Z</time>
      </trkpt>
      <trkpt lat="42.4116660" lon="-7.3528770">
        <ele>931.7</ele>
        <time>2014-10-02T08:40:12Z</time>
      </trkpt>
      <trkpt lat="42.4116680" lon="-7.3528300">
        <ele>932.0</ele>
        <time>2014-10-02T08:40:13Z</time>
      </trkpt>
      <trkpt lat="42.4116700" lon="-7.3527730">
        <ele>932.4</ele>
        <time>2014-10-02T08:40:14Z</time>
      </trkpt>
      <trkpt lat="42.4116740" lon="-7.3527110">
        <ele>932.7</ele>
        <time>2014-10-02T08:40:15Z</time>
      </trkpt>
      <trkpt lat="42.4116760" lon="-7.3526560">
        <ele>933.1</ele>
        <time>2014-10-02T08:40:16Z</time>
      </trkpt>
      <trkpt lat="42.4116770" lon="-7.3526020">
        <ele>933.3</ele>
        <time>2014-10-02T08:40:17Z</time>
      </trkpt>
      <trkpt lat="42.4116790" lon="-7.3525540">
        <ele>933.6</ele>
        <time>2014-10-02T08:40:18Z</time>
      </trkpt>
      <trkpt lat="42.4116820" lon="-7.3525030">
        <ele>933.9</ele>
        <time>2014-10-02T08:40:19Z</time>
      </trkpt>
      <trkpt lat="42.4116860" lon="-7.3524510">
        <ele>934.1</ele>
        <time>2014-10-02T08:40:20Z</time>
      </trkpt>
      <trkpt lat="42.4116900" lon="-7.3523970">
        <ele>934.4</ele>
        <time>2014-10-02T08:40:21Z</time>
      </trkpt>
      <trkpt lat="42.4116940" lon="-7.3523460">
        <ele>934.7</ele>
        <time>2014-10-02T08:40:22Z</time>
      </trkpt>
      <trkpt lat="42.4116930" lon="-7.3522990">
        <ele>934.9</ele>
        <time>2014-10-02T08:40:23Z</time>
      </trkpt>
      <trkpt lat="42.4117030" lon="-7.3522550">
        <ele>935.2</ele>
        <time>2014-10-02T08:40:24Z</time>
      </trkpt>
      <trkpt lat="42.4117130" lon="-7.3522010">
        <ele>935.5</ele>
        <time>2014-10-02T08:40:25Z</time>
      </trkpt>
      <trkpt lat="42.4117180" lon="-7.3521530">
        <ele>935.9</ele>
        <time>2014-10-02T08:40:26Z</time>
      </trkpt>
      <trkpt lat="42.4117240" lon="-7.3520980">
        <ele>936.2</ele>
        <time>2014-10-02T08:40:27Z</time>
      </trkpt>
      <trkpt lat="42.4117330" lon="-7.3520290">
        <ele>936.6</ele>
        <time>2014-10-02T08:40:28Z</time>
      </trkpt>
      <trkpt lat="42.4117460" lon="-7.3519600">
        <ele>937.0</ele>
        <time>2014-10-02T08:40:29Z</time>
      </trkpt>
      <trkpt lat="42.4117620" lon="-7.3518920">
        <ele>937.3</ele>
        <time>2014-10-02T08:40:30Z</time>
      </trkpt>
      <trkpt lat="42.4117770" lon="-7.3518310">
        <ele>937.5</ele>
        <time>2014-10-02T08:40:31Z</time>
      </trkpt>
      <trkpt lat="42.4117940" lon="-7.3517730">
        <ele>937.8</ele>
        <time>2014-10-02T08:40:32Z</time>
      </trkpt>
      <trkpt lat="42.4118110" lon="-7.3517280">
        <ele>937.9</ele>
        <time>2014-10-02T08:40:33Z</time>
      </trkpt>
      <trkpt lat="42.4118280" lon="-7.3516860">
        <ele>938.0</ele>
        <time>2014-10-02T08:40:34Z</time>
      </trkpt>
      <trkpt lat="42.4118450" lon="-7.3516420">
        <ele>938.1</ele>
        <time>2014-10-02T08:40:35Z</time>
      </trkpt>
      <trkpt lat="42.4118620" lon="-7.3516010">
        <ele>938.3</ele>
        <time>2014-10-02T08:40:36Z</time>
      </trkpt>
      <trkpt lat="42.4118780" lon="-7.3515600">
        <ele>938.3</ele>
        <time>2014-10-02T08:40:37Z</time>
      </trkpt>
      <trkpt lat="42.4118940" lon="-7.3515070">
        <ele>938.4</ele>
        <time>2014-10-02T08:40:38Z</time>
      </trkpt>
      <trkpt lat="42.4119100" lon="-7.3514530">
        <ele>938.5</ele>
        <time>2014-10-02T08:40:39Z</time>
      </trkpt>
      <trkpt lat="42.4119260" lon="-7.3513970">
        <ele>938.6</ele>
        <time>2014-10-02T08:40:40Z</time>
      </trkpt>
      <trkpt lat="42.4119430" lon="-7.3513400">
        <ele>938.7</ele>
        <time>2014-10-02T08:40:41Z</time>
      </trkpt>
      <trkpt lat="42.4119580" lon="-7.3512850">
        <ele>938.8</ele>
        <time>2014-10-02T08:40:42Z</time>
      </trkpt>
      <trkpt lat="42.4119740" lon="-7.3512340">
        <ele>938.9</ele>
        <time>2014-10-02T08:40:43Z</time>
      </trkpt>
      <trkpt lat="42.4119910" lon="-7.3511810">
        <ele>938.9</ele>
        <time>2014-10-02T08:40:44Z</time>
      </trkpt>
      <trkpt lat="42.4120070" lon="-7.3511290">
        <ele>939.0</ele>
        <time>2014-10-02T08:40:45Z</time>
      </trkpt>
      <trkpt lat="42.4120230" lon="-7.3510750">
        <ele>939.0</ele>
        <time>2014-10-02T08:40:46Z</time>
      </trkpt>
      <trkpt lat="42.4120380" lon="-7.3510210">
        <ele>939.1</ele>
        <time>2014-10-02T08:40:47Z</time>
      </trkpt>
      <trkpt lat="42.4120510" lon="-7.3509650">
        <ele>939.2</ele>
        <time>2014-10-02T08:40:48Z</time>
      </trkpt>
      <trkpt lat="42.4120660" lon="-7.3509030">
        <ele>939.3</ele>
        <time>2014-10-02T08:40:49Z</time>
      </trkpt>
      <trkpt lat="42.4120820" lon="-7.3508400">
        <ele>939.4</ele>
        <time>2014-10-02T08:40:50Z</time>
      </trkpt>
      <trkpt lat="42.4120970" lon="-7.3507790">
        <ele>939.4</ele>
        <time>2014-10-02T08:40:51Z</time>
      </trkpt>
      <trkpt lat="42.4121140" lon="-7.3507190">
        <ele>939.4</ele>
        <time>2014-10-02T08:40:52Z</time>
      </trkpt>
      <trkpt lat="42.4121310" lon="-7.3506650">
        <ele>939.5</ele>
        <time>2014-10-02T08:40:53Z</time>
      </trkpt>
      <trkpt lat="42.4121490" lon="-7.3506130">
        <ele>939.6</ele>
        <time>2014-10-02T08:40:54Z</time>
      </trkpt>
      <trkpt lat="42.4121650" lon="-7.3505630">
        <ele>939.7</ele>
        <time>2014-10-02T08:40:55Z</time>
      </trkpt>
      <trkpt lat="42.4121820" lon="-7.3505100">
        <ele>939.7</ele>
        <time>2014-10-02T08:40:56Z</time>
      </trkpt>
      <trkpt lat="42.4122000" lon="-7.3504520">
        <ele>939.8</ele>
        <time>2014-10-02T08:40:57Z</time>
      </trkpt>
      <trkpt lat="42.4122180" lon="-7.3503940">
        <ele>939.8</ele>
        <time>2014-10-02T08:40:58Z</time>
      </trkpt>
      <trkpt lat="42.4122360" lon="-7.3503360">
        <ele>939.9</ele>
        <time>2014-10-02T08:40:59Z</time>
      </trkpt>
      <trkpt lat="42.4122530" lon="-7.3502760">
        <ele>939.9</ele>
        <time>2014-10-02T08:41:00Z</time>
      </trkpt>
      <trkpt lat="42.4122690" lon="-7.3502190">
        <ele>940.0</ele>
        <time>2014-10-02T08:41:01Z</time>
      </trkpt>
      <trkpt lat="42.4122850" lon="-7.3501630">
        <ele>940.1</ele>
        <time>2014-10-02T08:41:02Z</time>
      </trkpt>
      <trkpt lat="42.4123000" lon="-7.3501080">
        <ele>940.1</ele>
        <time>2014-10-02T08:41:03Z</time>
      </trkpt>
      <trkpt lat="42.4123160" lon="-7.3500540">
        <ele>940.0</ele>
        <time>2014-10-02T08:41:04Z</time>
      </trkpt>
      <trkpt lat="42.4123320" lon="-7.3500020">
        <ele>939.9</ele>
        <time>2014-10-02T08:41:05Z</time>
      </trkpt>
      <trkpt lat="42.4123490" lon="-7.3499460">
        <ele>939.8</ele>
        <time>2014-10-02T08:41:06Z</time>
      </trkpt>
      <trkpt lat="42.4123650" lon="-7.3498970">
        <ele>939.7</ele>
        <time>2014-10-02T08:41:07Z</time>
      </trkpt>
      <trkpt lat="42.4123830" lon="-7.3498410">
        <ele>939.6</ele>
        <time>2014-10-02T08:41:08Z</time>
      </trkpt>
      <trkpt lat="42.4124010" lon="-7.3497860">
        <ele>939.6</ele>
        <time>2014-10-02T08:41:09Z</time>
      </trkpt>
      <trkpt lat="42.4124190" lon="-7.3497300">
        <ele>939.5</ele>
        <time>2014-10-02T08:41:10Z</time>
      </trkpt>
      <trkpt lat="42.4124360" lon="-7.3496700">
        <ele>939.4</ele>
        <time>2014-10-02T08:41:11Z</time>
      </trkpt>
      <trkpt lat="42.4124520" lon="-7.3496120">
        <ele>939.3</ele>
        <time>2014-10-02T08:41:12Z</time>
      </trkpt>
      <trkpt lat="42.4124700" lon="-7.3495540">
        <ele>939.1</ele>
        <time>2014-10-02T08:41:13Z</time>
      </trkpt>
      <trkpt lat="42.4124870" lon="-7.3494970">
        <ele>938.9</ele>
        <time>2014-10-02T08:41:14Z</time>
      </trkpt>
      <trkpt lat="42.4125050" lon="-7.3494370">
        <ele>938.7</ele>
        <time>2014-10-02T08:41:15Z</time>
      </trkpt>
      <trkpt lat="42.4125230" lon="-7.3493770">
        <ele>938.5</ele>
        <time>2014-10-02T08:41:16Z</time>
      </trkpt>
      <trkpt lat="42.4125430" lon="-7.3493190">
        <ele>938.4</ele>
        <time>2014-10-02T08:41:17Z</time>
      </trkpt>
      <trkpt lat="42.4125640" lon="-7.3492590">
        <ele>938.4</ele>
        <time>2014-10-02T08:41:18Z</time>
      </trkpt>
      <trkpt lat="42.4125860" lon="-7.3492000">
        <ele>938.3</ele>
        <time>2014-10-02T08:41:19Z</time>
      </trkpt>
      <trkpt lat="42.4126090" lon="-7.3491390">
        <ele>938.3</ele>
        <time>2014-10-02T08:41:20Z</time>
      </trkpt>
      <trkpt lat="42.4126310" lon="-7.3490770">
        <ele>938.2</ele>
        <time>2014-10-02T08:41:21Z</time>
      </trkpt>
      <trkpt lat="42.4126520" lon="-7.3490120">
        <ele>938.2</ele>
        <time>2014-10-02T08:41:22Z</time>
      </trkpt>
      <trkpt lat="42.4126750" lon="-7.3489500">
        <ele>938.1</ele>
        <time>2014-10-02T08:41:23Z</time>
      </trkpt>
      <trkpt lat="42.4127000" lon="-7.3488870">
        <ele>937.9</ele>
        <time>2014-10-02T08:41:24Z</time>
      </trkpt>
      <trkpt lat="42.4127250" lon="-7.3488220">
        <ele>937.7</ele>
        <time>2014-10-02T08:41:25Z</time>
      </trkpt>
      <trkpt lat="42.4127510" lon="-7.3487530">
        <ele>937.7</ele>
        <time>2014-10-02T08:41:26Z</time>
      </trkpt>
      <trkpt lat="42.4127760" lon="-7.3486830">
        <ele>937.6</ele>
        <time>2014-10-02T08:41:27Z</time>
      </trkpt>
      <trkpt lat="42.4128010" lon="-7.3486090">
        <ele>937.6</ele>
        <time>2014-10-02T08:41:28Z</time>
      </trkpt>
      <trkpt lat="42.4128250" lon="-7.3485360">
        <ele>937.6</ele>
        <time>2014-10-02T08:41:29Z</time>
      </trkpt>
      <trkpt lat="42.4128480" lon="-7.3484610">
        <ele>937.7</ele>
        <time>2014-10-02T08:41:30Z</time>
      </trkpt>
      <trkpt lat="42.4128710" lon="-7.3483850">
        <ele>937.9</ele>
        <time>2014-10-02T08:41:31Z</time>
      </trkpt>
      <trkpt lat="42.4128910" lon="-7.3483080">
        <ele>938.1</ele>
        <time>2014-10-02T08:41:32Z</time>
      </trkpt>
      <trkpt lat="42.4129120" lon="-7.3482300">
        <ele>938.3</ele>
        <time>2014-10-02T08:41:33Z</time>
      </trkpt>
      <trkpt lat="42.4129330" lon="-7.3481500">
        <ele>938.6</ele>
        <time>2014-10-02T08:41:34Z</time>
      </trkpt>
      <trkpt lat="42.4129550" lon="-7.3480720">
        <ele>939.0</ele>
        <time>2014-10-02T08:41:35Z</time>
      </trkpt>
      <trkpt lat="42.4129790" lon="-7.3479940">
        <ele>939.4</ele>
        <time>2014-10-02T08:41:36Z</time>
      </trkpt>
      <trkpt lat="42.4130020" lon="-7.3479150">
        <ele>939.8</ele>
        <time>2014-10-02T08:41:37Z</time>
      </trkpt>
      <trkpt lat="42.4130260" lon="-7.3478330">
        <ele>940.2</ele>
        <time>2014-10-02T08:41:38Z</time>
      </trkpt>
      <trkpt lat="42.4130480" lon="-7.3477540">
        <ele>940.6</ele>
        <time>2014-10-02T08:41:39Z</time>
      </trkpt>
      <trkpt lat="42.4130680" lon="-7.3476740">
        <ele>941.0</ele>
        <time>2014-10-02T08:41:40Z</time>
      </trkpt>
      <trkpt lat="42.4130880" lon="-7.3475960">
        <ele>941.3</ele>
        <time>2014-10-02T08:41:41Z</time>
      </trkpt>
      <trkpt lat="42.4131080" lon="-7.3475220">
        <ele>941.7</ele>
        <time>2014-10-02T08:41:42Z</time>
      </trkpt>
      <trkpt lat="42.4131270" lon="-7.3474540">
        <ele>942.0</ele>
        <time>2014-10-02T08:41:43Z</time>
      </trkpt>
      <trkpt lat="42.4131460" lon="-7.3473870">
        <ele>942.4</ele>
        <time>2014-10-02T08:41:44Z</time>
      </trkpt>
      <trkpt lat="42.4131660" lon="-7.3473150">
        <ele>942.9</ele>
        <time>2014-10-02T08:41:45Z</time>
      </trkpt>
      <trkpt lat="42.4131840" lon="-7.3472440">
        <ele>943.4</ele>
        <time>2014-10-02T08:41:46Z</time>
      </trkpt>
      <trkpt lat="42.4131990" lon="-7.3471870">
        <ele>943.8</ele>
        <time>2014-10-02T08:41:47Z</time>
      </trkpt>
      <trkpt lat="42.4132140" lon="-7.3471260">
        <ele>944.3</ele>
        <time>2014-10-02T08:41:48Z</time>
      </trkpt>
      <trkpt lat="42.4132310" lon="-7.3470650">
        <ele>944.8</ele>
        <time>2014-10-02T08:41:49Z</time>
      </trkpt>
      <trkpt lat="42.4132480" lon="-7.3470070">
        <ele>945.2</ele>
        <time>2014-10-02T08:41:50Z</time>
      </trkpt>
      <trkpt lat="42.4132610" lon="-7.3469610">
        <ele>945.6</ele>
        <time>2014-10-02T08:41:51Z</time>
      </trkpt>
      <trkpt lat="42.4132700" lon="-7.3469220">
        <ele>945.9</ele>
        <time>2014-10-02T08:41:52Z</time>
      </trkpt>
      <trkpt lat="42.4132810" lon="-7.3468780">
        <ele>946.3</ele>
        <time>2014-10-02T08:41:53Z</time>
      </trkpt>
      <trkpt lat="42.4132920" lon="-7.3468430">
        <ele>946.5</ele>
        <time>2014-10-02T08:41:54Z</time>
      </trkpt>
      <trkpt lat="42.4133080" lon="-7.3468010">
        <ele>946.9</ele>
        <time>2014-10-02T08:41:55Z</time>
      </trkpt>
      <trkpt lat="42.4133230" lon="-7.3467630">
        <ele>947.2</ele>
        <time>2014-10-02T08:41:56Z</time>
      </trkpt>
      <trkpt lat="42.4133370" lon="-7.3467220">
        <ele>947.6</ele>
        <time>2014-10-02T08:41:57Z</time>
      </trkpt>
      <trkpt lat="42.4133600" lon="-7.3466740">
        <ele>948.1</ele>
        <time>2014-10-02T08:41:58Z</time>
      </trkpt>
      <trkpt lat="42.4133840" lon="-7.3466270">
        <ele>948.5</ele>
        <time>2014-10-02T08:41:59Z</time>
      </trkpt>
      <trkpt lat="42.4134070" lon="-7.3465830">
        <ele>948.9</ele>
        <time>2014-10-02T08:42:00Z</time>
      </trkpt>
      <trkpt lat="42.4134320" lon="-7.3465490">
        <ele>949.2</ele>
        <time>2014-10-02T08:42:01Z</time>
      </trkpt>
      <trkpt lat="42.4134570" lon="-7.3465130">
        <ele>949.5</ele>
        <time>2014-10-02T08:42:02Z</time>
      </trkpt>
      <trkpt lat="42.4134800" lon="-7.3464860">
        <ele>949.7</ele>
        <time>2014-10-02T08:42:03Z</time>
      </trkpt>
      <trkpt lat="42.4135070" lon="-7.3464580">
        <ele>949.9</ele>
        <time>2014-10-02T08:42:04Z</time>
      </trkpt>
      <trkpt lat="42.4135360" lon="-7.3464270">
        <ele>950.1</ele>
        <time>2014-10-02T08:42:05Z</time>
      </trkpt>
      <trkpt lat="42.4135660" lon="-7.3463960">
        <ele>950.3</ele>
        <time>2014-10-02T08:42:06Z</time>
      </trkpt>
      <trkpt lat="42.4135910" lon="-7.3463750">
        <ele>950.4</ele>
        <time>2014-10-02T08:42:07Z</time>
      </trkpt>
      <trkpt lat="42.4136160" lon="-7.3463560">
        <ele>950.6</ele>
        <time>2014-10-02T08:42:08Z</time>
      </trkpt>
      <trkpt lat="42.4136430" lon="-7.3463360">
        <ele>950.7</ele>
        <time>2014-10-02T08:42:09Z</time>
      </trkpt>
      <trkpt lat="42.4136770" lon="-7.3463090">
        <ele>950.9</ele>
        <time>2014-10-02T08:42:10Z</time>
      </trkpt>
      <trkpt lat="42.4137160" lon="-7.3462760">
        <ele>951.1</ele>
        <time>2014-10-02T08:42:11Z</time>
      </trkpt>
      <trkpt lat="42.4137560" lon="-7.3462440">
        <ele>951.3</ele>
        <time>2014-10-02T08:42:12Z</time>
      </trkpt>
      <trkpt lat="42.4137920" lon="-7.3462140">
        <ele>951.4</ele>
        <time>2014-10-02T08:42:13Z</time>
      </trkpt>
      <trkpt lat="42.4138240" lon="-7.3461890">
        <ele>951.5</ele>
        <time>2014-10-02T08:42:14Z</time>
      </trkpt>
      <trkpt lat="42.4138550" lon="-7.3461640">
        <ele>951.7</ele>
        <time>2014-10-02T08:42:15Z</time>
      </trkpt>
      <trkpt lat="42.4138840" lon="-7.3461410">
        <ele>951.8</ele>
        <time>2014-10-02T08:42:16Z</time>
      </trkpt>
      <trkpt lat="42.4139140" lon="-7.3461180">
        <ele>951.9</ele>
        <time>2014-10-02T08:42:17Z</time>
      </trkpt>
      <trkpt lat="42.4139450" lon="-7.3460910">
        <ele>952.1</ele>
        <time>2014-10-02T08:42:18Z</time>
      </trkpt>
      <trkpt lat="42.4139780" lon="-7.3460640">
        <ele>952.2</ele>
        <time>2014-10-02T08:42:19Z</time>
      </trkpt>
      <trkpt lat="42.4140120" lon="-7.3460370">
        <ele>952.3</ele>
        <time>2014-10-02T08:42:20Z</time>
      </trkpt>
      <trkpt lat="42.4140450" lon="-7.3460110">
        <ele>952.4</ele>
        <time>2014-10-02T08:42:21Z</time>
      </trkpt>
      <trkpt lat="42.4140760" lon="-7.3459860">
        <ele>952.5</ele>
        <time>2014-10-02T08:42:22Z</time>
      </trkpt>
      <trkpt lat="42.4141080" lon="-7.3459590">
        <ele>952.7</ele>
        <time>2014-10-02T08:42:23Z</time>
      </trkpt>
      <trkpt lat="42.4141420" lon="-7.3459310">
        <ele>952.8</ele>
        <time>2014-10-02T08:42:24Z</time>
      </trkpt>
      <trkpt lat="42.4141750" lon="-7.3459020">
        <ele>952.9</ele>
        <time>2014-10-02T08:42:25Z</time>
      </trkpt>
      <trkpt lat="42.4142080" lon="-7.3458730">
        <ele>953.1</ele>
        <time>2014-10-02T08:42:26Z</time>
      </trkpt>
      <trkpt lat="42.4142420" lon="-7.3458440">
        <ele>953.2</ele>
        <time>2014-10-02T08:42:27Z</time>
      </trkpt>
      <trkpt lat="42.4142780" lon="-7.3458140">
        <ele>953.4</ele>
        <time>2014-10-02T08:42:28Z</time>
      </trkpt>
      <trkpt lat="42.4143140" lon="-7.3457850">
        <ele>953.5</ele>
        <time>2014-10-02T08:42:29Z</time>
      </trkpt>
      <trkpt lat="42.4143500" lon="-7.3457530">
        <ele>953.6</ele>
        <time>2014-10-02T08:42:30Z</time>
      </trkpt>
      <trkpt lat="42.4143850" lon="-7.3457210">
        <ele>953.7</ele>
        <time>2014-10-02T08:42:31Z</time>
      </trkpt>
      <trkpt lat="42.4144200" lon="-7.3456880">
        <ele>953.9</ele>
        <time>2014-10-02T08:42:32Z</time>
      </trkpt>
      <trkpt lat="42.4144540" lon="-7.3456560">
        <ele>954.0</ele>
        <time>2014-10-02T08:42:33Z</time>
      </trkpt>
      <trkpt lat="42.4144880" lon="-7.3456230">
        <ele>954.2</ele>
        <time>2014-10-02T08:42:34Z</time>
      </trkpt>
      <trkpt lat="42.4145210" lon="-7.3455860">
        <ele>954.4</ele>
        <time>2014-10-02T08:42:35Z</time>
      </trkpt>
      <trkpt lat="42.4145540" lon="-7.3455450">
        <ele>954.5</ele>
        <time>2014-10-02T08:42:36Z</time>
      </trkpt>
      <trkpt lat="42.4145830" lon="-7.3455050">
        <ele>954.7</ele>
        <time>2014-10-02T08:42:37Z</time>
      </trkpt>
      <trkpt lat="42.4146110" lon="-7.3454660">
        <ele>954.9</ele>
        <time>2014-10-02T08:42:38Z</time>
      </trkpt>
      <trkpt lat="42.4146360" lon="-7.3454240">
        <ele>955.1</ele>
        <time>2014-10-02T08:42:39Z</time>
      </trkpt>
      <trkpt lat="42.4146580" lon="-7.3453840">
        <ele>955.3</ele>
        <time>2014-10-02T08:42:40Z</time>
      </trkpt>
      <trkpt lat="42.4146780" lon="-7.3453430">
        <ele>955.5</ele>
        <time>2014-10-02T08:42:41Z</time>
      </trkpt>
      <trkpt lat="42.4146960" lon="-7.3453000">
        <ele>955.7</ele>
        <time>2014-10-02T08:42:42Z</time>
      </trkpt>
      <trkpt lat="42.4147080" lon="-7.3452540">
        <ele>955.9</ele>
        <time>2014-10-02T08:42:43Z</time>
      </trkpt>
      <trkpt lat="42.4147190" lon="-7.3452120">
        <ele>956.0</ele>
        <time>2014-10-02T08:42:44Z</time>
      </trkpt>
      <trkpt lat="42.4147300" lon="-7.3451670">
        <ele>956.2</ele>
        <time>2014-10-02T08:42:45Z</time>
      </trkpt>
      <trkpt lat="42.4147420" lon="-7.3451240">
        <ele>956.4</ele>
        <time>2014-10-02T08:42:46Z</time>
      </trkpt>
      <trkpt lat="42.4147520" lon="-7.3450820">
        <ele>956.6</ele>
        <time>2014-10-02T08:42:47Z</time>
      </trkpt>
      <trkpt lat="42.4147610" lon="-7.3450380">
        <ele>956.7</ele>
        <time>2014-10-02T08:42:48Z</time>
      </trkpt>
      <trkpt lat="42.4147690" lon="-7.3449920">
        <ele>956.9</ele>
        <time>2014-10-02T08:42:49Z</time>
      </trkpt>
      <trkpt lat="42.4147760" lon="-7.3449420">
        <ele>957.1</ele>
        <time>2014-10-02T08:42:50Z</time>
      </trkpt>
      <trkpt lat="42.4147820" lon="-7.3448880">
        <ele>957.3</ele>
        <time>2014-10-02T08:42:51Z</time>
      </trkpt>
      <trkpt lat="42.4147850" lon="-7.3448300">
        <ele>957.6</ele>
        <time>2014-10-02T08:42:52Z</time>
      </trkpt>
      <trkpt lat="42.4147860" lon="-7.3447780">
        <ele>957.7</ele>
        <time>2014-10-02T08:42:53Z</time>
      </trkpt>
      <trkpt lat="42.4147840" lon="-7.3447290">
        <ele>957.9</ele>
        <time>2014-10-02T08:42:54Z</time>
      </trkpt>
      <trkpt lat="42.4147810" lon="-7.3446790">
        <ele>958.0</ele>
        <time>2014-10-02T08:42:55Z</time>
      </trkpt>
      <trkpt lat="42.4147750" lon="-7.3446320">
        <ele>958.2</ele>
        <time>2014-10-02T08:42:56Z</time>
      </trkpt>
      <trkpt lat="42.4147680" lon="-7.3445810">
        <ele>958.3</ele>
        <time>2014-10-02T08:42:57Z</time>
      </trkpt>
      <trkpt lat="42.4147600" lon="-7.3445250">
        <ele>958.4</ele>
        <time>2014-10-02T08:42:58Z</time>
      </trkpt>
      <trkpt lat="42.4147510" lon="-7.3444740">
        <ele>958.6</ele>
        <time>2014-10-02T08:42:59Z</time>
      </trkpt>
      <trkpt lat="42.4147400" lon="-7.3444200">
        <ele>958.7</ele>
        <time>2014-10-02T08:43:00Z</time>
      </trkpt>
      <trkpt lat="42.4147290" lon="-7.3443650">
        <ele>958.8</ele>
        <time>2014-10-02T08:43:01Z</time>
      </trkpt>
      <trkpt lat="42.4147180" lon="-7.3443100">
        <ele>959.0</ele>
        <time>2014-10-02T08:43:02Z</time>
      </trkpt>
      <trkpt lat="42.4147060" lon="-7.3442590">
        <ele>959.1</ele>
        <time>2014-10-02T08:43:03Z</time>
      </trkpt>
      <trkpt lat="42.4146950" lon="-7.3442130">
        <ele>959.2</ele>
        <time>2014-10-02T08:43:04Z</time>
      </trkpt>
      <trkpt lat="42.4146830" lon="-7.3441630">
        <ele>959.4</ele>
        <time>2014-10-02T08:43:05Z</time>
      </trkpt>
      <trkpt lat="42.4146680" lon="-7.3441100">
        <ele>959.5</ele>
        <time>2014-10-02T08:43:06Z</time>
      </trkpt>
      <trkpt lat="42.4146530" lon="-7.3440570">
        <ele>959.7</ele>
        <time>2014-10-02T08:43:07Z</time>
      </trkpt>
      <trkpt lat="42.4146390" lon="-7.3440050">
        <ele>959.8</ele>
        <time>2014-10-02T08:43:08Z</time>
      </trkpt>
      <trkpt lat="42.4146270" lon="-7.3439550">
        <ele>960.0</ele>
        <time>2014-10-02T08:43:09Z</time>
      </trkpt>
      <trkpt lat="42.4146140" lon="-7.3439030">
        <ele>960.2</ele>
        <time>2014-10-02T08:43:10Z</time>
      </trkpt>
      <trkpt lat="42.4146010" lon="-7.3438480">
        <ele>960.4</ele>
        <time>2014-10-02T08:43:11Z</time>
      </trkpt>
      <trkpt lat="42.4145870" lon="-7.3437910">
        <ele>960.7</ele>
        <time>2014-10-02T08:43:12Z</time>
      </trkpt>
      <trkpt lat="42.4145740" lon="-7.3437380">
        <ele>960.9</ele>
        <time>2014-10-02T08:43:13Z</time>
      </trkpt>
      <trkpt lat="42.4145610" lon="-7.3436800">
        <ele>961.1</ele>
        <time>2014-10-02T08:43:14Z</time>
      </trkpt>
      <trkpt lat="42.4145490" lon="-7.3436280">
        <ele>961.2</ele>
        <time>2014-10-02T08:43:15Z</time>
      </trkpt>
      <trkpt lat="42.4145380" lon="-7.3435810">
        <ele>961.4</ele>
        <time>2014-10-02T08:43:16Z</time>
      </trkpt>
      <trkpt lat="42.4145270" lon="-7.3435340">
        <ele>961.5</ele>
        <time>2014-10-02T08:43:17Z</time>
      </trkpt>
      <trkpt lat="42.4145140" lon="-7.3434820">
        <ele>961.7</ele>
        <time>2014-10-02T08:43:18Z</time>
      </trkpt>
      <trkpt lat="42.4145030" lon="-7.3434350">
        <ele>961.9</ele>
        <time>2014-10-02T08:43:19Z</time>
      </trkpt>
      <trkpt lat="42.4144920" lon="-7.3433860">
        <ele>962.1</ele>
        <time>2014-10-02T08:43:20Z</time>
      </trkpt>
      <trkpt lat="42.4144810" lon="-7.3433330">
        <ele>962.3</ele>
        <time>2014-10-02T08:43:21Z</time>
      </trkpt>
      <trkpt lat="42.4144680" lon="-7.3432780">
        <ele>962.5</ele>
        <time>2014-10-02T08:43:22Z</time>
      </trkpt>
      <trkpt lat="42.4144560" lon="-7.3432250">
        <ele>962.7</ele>
        <time>2014-10-02T08:43:23Z</time>
      </trkpt>
      <trkpt lat="42.4144440" lon="-7.3431650">
        <ele>962.9</ele>
        <time>2014-10-02T08:43:24Z</time>
      </trkpt>
      <trkpt lat="42.4144320" lon="-7.3431040">
        <ele>963.1</ele>
        <time>2014-10-02T08:43:25Z</time>
      </trkpt>
      <trkpt lat="42.4144200" lon="-7.3430490">
        <ele>963.2</ele>
        <time>2014-10-02T08:43:26Z</time>
      </trkpt>
      <trkpt lat="42.4144100" lon="-7.3430000">
        <ele>963.3</ele>
        <time>2014-10-02T08:43:27Z</time>
      </trkpt>
      <trkpt lat="42.4144000" lon="-7.3429520">
        <ele>963.5</ele>
        <time>2014-10-02T08:43:28Z</time>
      </trkpt>
      <trkpt lat="42.4143910" lon="-7.3429090">
        <ele>963.6</ele>
        <time>2014-10-02T08:43:29Z</time>
      </trkpt>
      <trkpt lat="42.4143820" lon="-7.3428640">
        <ele>963.8</ele>
        <time>2014-10-02T08:43:30Z</time>
      </trkpt>
      <trkpt lat="42.4143730" lon="-7.3428190">
        <ele>963.9</ele>
        <time>2014-10-02T08:43:31Z</time>
      </trkpt>
      <trkpt lat="42.4143650" lon="-7.3427720">
        <ele>964.0</ele>
        <time>2014-10-02T08:43:32Z</time>
      </trkpt>
      <trkpt lat="42.4143570" lon="-7.3427250">
        <ele>964.0</ele>
        <time>2014-10-02T08:43:33Z</time>
      </trkpt>
      <trkpt lat="42.4143490" lon="-7.3426750">
        <ele>964.1</ele>
        <time>2014-10-02T08:43:34Z</time>
      </trkpt>
      <trkpt lat="42.4143410" lon="-7.3426240">
        <ele>964.2</ele>
        <time>2014-10-02T08:43:35Z</time>
      </trkpt>
      <trkpt lat="42.4143350" lon="-7.3425720">
        <ele>964.2</ele>
        <time>2014-10-02T08:43:36Z</time>
      </trkpt>
      <trkpt lat="42.4143300" lon="-7.3425230">
        <ele>964.2</ele>
        <time>2014-10-02T08:43:37Z</time>
      </trkpt>
      <trkpt lat="42.4143220" lon="-7.3424700">
        <ele>964.2</ele>
        <time>2014-10-02T08:43:38Z</time>
      </trkpt>
      <trkpt lat="42.4143140" lon="-7.3424140">
        <ele>964.2</ele>
        <time>2014-10-02T08:43:39Z</time>
      </trkpt>
      <trkpt lat="42.4143070" lon="-7.3423520">
        <ele>964.1</ele>
        <time>2014-10-02T08:43:40Z</time>
      </trkpt>
      <trkpt lat="42.4143000" lon="-7.3422900">
        <ele>964.0</ele>
        <time>2014-10-02T08:43:41Z</time>
      </trkpt>
      <trkpt lat="42.4142930" lon="-7.3422250">
        <ele>963.8</ele>
        <time>2014-10-02T08:43:42Z</time>
      </trkpt>
      <trkpt lat="42.4142870" lon="-7.3421580">
        <ele>963.7</ele>
        <time>2014-10-02T08:43:43Z</time>
      </trkpt>
      <trkpt lat="42.4142800" lon="-7.3420860">
        <ele>963.5</ele>
        <time>2014-10-02T08:43:44Z</time>
      </trkpt>
      <trkpt lat="42.4142720" lon="-7.3420130">
        <ele>963.3</ele>
        <time>2014-10-02T08:43:45Z</time>
      </trkpt>
      <trkpt lat="42.4142640" lon="-7.3419360">
        <ele>963.1</ele>
        <time>2014-10-02T08:43:46Z</time>
      </trkpt>
      <trkpt lat="42.4142590" lon="-7.3418560">
        <ele>963.0</ele>
        <time>2014-10-02T08:43:47Z</time>
      </trkpt>
      <trkpt lat="42.4142540" lon="-7.3417700">
        <ele>962.8</ele>
        <time>2014-10-02T08:43:48Z</time>
      </trkpt>
      <trkpt lat="42.4142530" lon="-7.3416830">
        <ele>962.6</ele>
        <time>2014-10-02T08:43:49Z</time>
      </trkpt>
      <trkpt lat="42.4142530" lon="-7.3415920">
        <ele>962.4</ele>
        <time>2014-10-02T08:43:50Z</time>
      </trkpt>
      <trkpt lat="42.4142550" lon="-7.3414940">
        <ele>962.1</ele>
        <time>2014-10-02T08:43:51Z</time>
      </trkpt>
      <trkpt lat="42.4142630" lon="-7.3413960">
        <ele>961.8</ele>
        <time>2014-10-02T08:43:52Z</time>
      </trkpt>
      <trkpt lat="42.4142760" lon="-7.3413000">
        <ele>961.5</ele>
        <time>2014-10-02T08:43:53Z</time>
      </trkpt>
      <trkpt lat="42.4142930" lon="-7.3411990">
        <ele>961.1</ele>
        <time>2014-10-02T08:43:54Z</time>
      </trkpt>
      <trkpt lat="42.4143170" lon="-7.3410960">
        <ele>960.8</ele>
        <time>2014-10-02T08:43:55Z</time>
      </trkpt>
      <trkpt lat="42.4143450" lon="-7.3409890">
        <ele>960.4</ele>
        <time>2014-10-02T08:43:56Z</time>
      </trkpt>
      <trkpt lat="42.4143710" lon="-7.3408760">
        <ele>959.9</ele>
        <time>2014-10-02T08:43:57Z</time>
      </trkpt>
      <trkpt lat="42.4144000" lon="-7.3407570">
        <ele>959.4</ele>
        <time>2014-10-02T08:43:58Z</time>
      </trkpt>
      <trkpt lat="42.4144280" lon="-7.3406430">
        <ele>958.9</ele>
        <time>2014-10-02T08:43:59Z</time>
      </trkpt>
      <trkpt lat="42.4144580" lon="-7.3405220">
        <ele>958.3</ele>
        <time>2014-10-02T08:44:00Z</time>
      </trkpt>
      <trkpt lat="42.4144880" lon="-7.3404030">
        <ele>957.7</ele>
        <time>2014-10-02T08:44:01Z</time>
      </trkpt>
      <trkpt lat="42.4145190" lon="-7.3402840">
        <ele>957.0</ele>
        <time>2014-10-02T08:44:02Z</time>
      </trkpt>
      <trkpt lat="42.4145530" lon="-7.3401600">
        <ele>956.4</ele>
        <time>2014-10-02T08:44:03Z</time>
      </trkpt>
      <trkpt lat="42.4145910" lon="-7.3400380">
        <ele>955.9</ele>
        <time>2014-10-02T08:44:04Z</time>
      </trkpt>
      <trkpt lat="42.4146280" lon="-7.3399150">
        <ele>955.4</ele>
        <time>2014-10-02T08:44:05Z</time>
      </trkpt>
      <trkpt lat="42.4146630" lon="-7.3398080">
        <ele>955.1</ele>
        <time>2014-10-02T08:44:06Z</time>
      </trkpt>
      <trkpt lat="42.4146920" lon="-7.3397170">
        <ele>955.0</ele>
        <time>2014-10-02T08:44:07Z</time>
      </trkpt>
      <trkpt lat="42.4147180" lon="-7.3396300">
        <ele>954.9</ele>
        <time>2014-10-02T08:44:08Z</time>
      </trkpt>
      <trkpt lat="42.4147350" lon="-7.3395800">
        <ele>954.8</ele>
        <time>2014-10-02T08:44:09Z</time>
      </trkpt>
      <trkpt lat="42.4147560" lon="-7.3395220">
        <ele>954.7</ele>
        <time>2014-10-02T08:44:10Z</time>
      </trkpt>
      <trkpt lat="42.4147790" lon="-7.3394510">
        <ele>954.5</ele>
        <time>2014-10-02T08:44:11Z</time>
      </trkpt>
      <trkpt lat="42.4148050" lon="-7.3393780">
        <ele>954.3</ele>
        <time>2014-10-02T08:44:12Z</time>
      </trkpt>
      <trkpt lat="42.4148290" lon="-7.3393050">
        <ele>954.1</ele>
        <time>2014-10-02T08:44:13Z</time>
      </trkpt>
      <trkpt lat="42.4148540" lon="-7.3392320">
        <ele>954.0</ele>
        <time>2014-10-02T08:44:14Z</time>
      </trkpt>
      <trkpt lat="42.4148810" lon="-7.3391570">
        <ele>953.8</ele>
        <time>2014-10-02T08:44:15Z</time>
      </trkpt>
      <trkpt lat="42.4149090" lon="-7.3390790">
        <ele>953.7</ele>
        <time>2014-10-02T08:44:16Z</time>
      </trkpt>
      <trkpt lat="42.4149380" lon="-7.3389980">
        <ele>953.6</ele>
        <time>2014-10-02T08:44:17Z</time>
      </trkpt>
      <trkpt lat="42.4149670" lon="-7.3389180">
        <ele>953.4</ele>
        <time>2014-10-02T08:44:18Z</time>
      </trkpt>
      <trkpt lat="42.4149970" lon="-7.3388370">
        <ele>953.2</ele>
        <time>2014-10-02T08:44:19Z</time>
      </trkpt>
      <trkpt lat="42.4150310" lon="-7.3387510">
        <ele>952.9</ele>
        <time>2014-10-02T08:44:20Z</time>
      </trkpt>
      <trkpt lat="42.4150680" lon="-7.3386770">
        <ele>952.6</ele>
        <time>2014-10-02T08:44:21Z</time>
      </trkpt>
      <trkpt lat="42.4151140" lon="-7.3385970">
        <ele>952.4</ele>
        <time>2014-10-02T08:44:22Z</time>
      </trkpt>
      <trkpt lat="42.4151780" lon="-7.3385300">
        <ele>952.1</ele>
        <time>2014-10-02T08:44:23Z</time>
      </trkpt>
      <trkpt lat="42.4152430" lon="-7.3384710">
        <ele>951.6</ele>
        <time>2014-10-02T08:44:24Z</time>
      </trkpt>
      <trkpt lat="42.4153200" lon="-7.3384380">
        <ele>951.1</ele>
        <time>2014-10-02T08:44:25Z</time>
      </trkpt>
      <trkpt lat="42.4153990" lon="-7.3384040">
        <ele>950.5</ele>
        <time>2014-10-02T08:44:26Z</time>
      </trkpt>
      <trkpt lat="42.4154850" lon="-7.3383650">
        <ele>949.8</ele>
        <time>2014-10-02T08:44:27Z</time>
      </trkpt>
      <trkpt lat="42.4155730" lon="-7.3383270">
        <ele>949.2</ele>
        <time>2014-10-02T08:44:28Z</time>
      </trkpt>
      <trkpt lat="42.4156690" lon="-7.3382810">
        <ele>948.5</ele>
        <time>2014-10-02T08:44:29Z</time>
      </trkpt>
      <trkpt lat="42.4157620" lon="-7.3382360">
        <ele>947.9</ele>
        <time>2014-10-02T08:44:30Z</time>
      </trkpt>
      <trkpt lat="42.4158570" lon="-7.3381970">
        <ele>947.4</ele>
        <time>2014-10-02T08:44:31Z</time>
      </trkpt>
      <trkpt lat="42.4159600" lon="-7.3381620">
        <ele>946.9</ele>
        <time>2014-10-02T08:44:32Z</time>
      </trkpt>
      <trkpt lat="42.4160700" lon="-7.3381350">
        <ele>946.3</ele>
        <time>2014-10-02T08:44:33Z</time>
      </trkpt>
      <trkpt lat="42.4161780" lon="-7.3381450">
        <ele>945.7</ele>
        <time>2014-10-02T08:44:34Z</time>
      </trkpt>
      <trkpt lat="42.4162860" lon="-7.3381640">
        <ele>945.3</ele>
        <time>2014-10-02T08:44:35Z</time>
      </trkpt>
      <trkpt lat="42.4164000" lon="-7.3381880">
        <ele>945.0</ele>
        <time>2014-10-02T08:44:36Z</time>
      </trkpt>
      <trkpt lat="42.4165100" lon="-7.3382080">
        <ele>944.9</ele>
        <time>2014-10-02T08:44:37Z</time>
      </trkpt>
      <trkpt lat="42.4166070" lon="-7.3381870">
        <ele>944.9</ele>
        <time>2014-10-02T08:44:38Z</time>
      </trkpt>
      <trkpt lat="42.4166820" lon="-7.3381320">
        <ele>944.9</ele>
        <time>2014-10-02T08:44:39Z</time>
      </trkpt>
      <trkpt lat="42.4167430" lon="-7.3380490">
        <ele>944.9</ele>
        <time>2014-10-02T08:44:40Z</time>
      </trkpt>
      <trkpt lat="42.4167840" lon="-7.3379610">
        <ele>944.8</ele>
        <time>2014-10-02T08:44:41Z</time>
      </trkpt>
      <trkpt lat="42.4168020" lon="-7.3378690">
        <ele>944.7</ele>
        <time>2014-10-02T08:44:42Z</time>
      </trkpt>
      <trkpt lat="42.4168210" lon="-7.3377800">
        <ele>944.7</ele>
        <time>2014-10-02T08:44:43Z</time>
      </trkpt>
      <trkpt lat="42.4168350" lon="-7.3376890">
        <ele>944.6</ele>
        <time>2014-10-02T08:44:44Z</time>
      </trkpt>
      <trkpt lat="42.4168420" lon="-7.3376060">
        <ele>944.6</ele>
        <time>2014-10-02T08:44:45Z</time>
      </trkpt>
      <trkpt lat="42.4168440" lon="-7.3375220">
        <ele>944.7</ele>
        <time>2014-10-02T08:44:46Z</time>
      </trkpt>
      <trkpt lat="42.4168420" lon="-7.3374350">
        <ele>944.9</ele>
        <time>2014-10-02T08:44:47Z</time>
      </trkpt>
      <trkpt lat="42.4168400" lon="-7.3373530">
        <ele>945.1</ele>
        <time>2014-10-02T08:44:48Z</time>
      </trkpt>
      <trkpt lat="42.4168360" lon="-7.3372660">
        <ele>945.3</ele>
        <time>2014-10-02T08:44:49Z</time>
      </trkpt>
      <trkpt lat="42.4168280" lon="-7.3371820">
        <ele>945.6</ele>
        <time>2014-10-02T08:44:50Z</time>
      </trkpt>
      <trkpt lat="42.4168190" lon="-7.3370960">
        <ele>945.9</ele>
        <time>2014-10-02T08:44:51Z</time>
      </trkpt>
      <trkpt lat="42.4168070" lon="-7.3370060">
        <ele>946.2</ele>
        <time>2014-10-02T08:44:52Z</time>
      </trkpt>
      <trkpt lat="42.4167940" lon="-7.3369200">
        <ele>946.4</ele>
        <time>2014-10-02T08:44:53Z</time>
      </trkpt>
      <trkpt lat="42.4167790" lon="-7.3368320">
        <ele>946.7</ele>
        <time>2014-10-02T08:44:54Z</time>
      </trkpt>
      <trkpt lat="42.4167670" lon="-7.3367500">
        <ele>946.9</ele>
        <time>2014-10-02T08:44:55Z</time>
      </trkpt>
      <trkpt lat="42.4167540" lon="-7.3366750">
        <ele>947.1</ele>
        <time>2014-10-02T08:44:56Z</time>
      </trkpt>
      <trkpt lat="42.4167400" lon="-7.3366060">
        <ele>947.2</ele>
        <time>2014-10-02T08:44:57Z</time>
      </trkpt>
      <trkpt lat="42.4167280" lon="-7.3365400">
        <ele>947.3</ele>
        <time>2014-10-02T08:44:58Z</time>
      </trkpt>
      <trkpt lat="42.4167150" lon="-7.3364740">
        <ele>947.4</ele>
        <time>2014-10-02T08:44:59Z</time>
      </trkpt>
      <trkpt lat="42.4167030" lon="-7.3364100">
        <ele>947.5</ele>
        <time>2014-10-02T08:45:00Z</time>
      </trkpt>
      <trkpt lat="42.4166910" lon="-7.3363410">
        <ele>947.5</ele>
        <time>2014-10-02T08:45:01Z</time>
      </trkpt>
      <trkpt lat="42.4166800" lon="-7.3362700">
        <ele>947.6</ele>
        <time>2014-10-02T08:45:02Z</time>
      </trkpt>
      <trkpt lat="42.4166700" lon="-7.3361940">
        <ele>947.6</ele>
        <time>2014-10-02T08:45:03Z</time>
      </trkpt>
      <trkpt lat="42.4166590" lon="-7.3361170">
        <ele>947.7</ele>
        <time>2014-10-02T08:45:04Z</time>
      </trkpt>
      <trkpt lat="42.4166480" lon="-7.3360430">
        <ele>947.7</ele>
        <time>2014-10-02T08:45:05Z</time>
      </trkpt>
      <trkpt lat="42.4166340" lon="-7.3359650">
        <ele>947.7</ele>
        <time>2014-10-02T08:45:06Z</time>
      </trkpt>
      <trkpt lat="42.4166270" lon="-7.3358910">
        <ele>947.7</ele>
        <time>2014-10-02T08:45:07Z</time>
      </trkpt>
      <trkpt lat="42.4166200" lon="-7.3358130">
        <ele>947.7</ele>
        <time>2014-10-02T08:45:08Z</time>
      </trkpt>
      <trkpt lat="42.4166120" lon="-7.3357360">
        <ele>947.6</ele>
        <time>2014-10-02T08:45:09Z</time>
      </trkpt>
      <trkpt lat="42.4166050" lon="-7.3356600">
        <ele>947.5</ele>
        <time>2014-10-02T08:45:10Z</time>
      </trkpt>
      <trkpt lat="42.4165990" lon="-7.3355830">
        <ele>947.4</ele>
        <time>2014-10-02T08:45:11Z</time>
      </trkpt>
      <trkpt lat="42.4165910" lon="-7.3355060">
        <ele>947.4</ele>
        <time>2014-10-02T08:45:12Z</time>
      </trkpt>
      <trkpt lat="42.4165830" lon="-7.3354310">
        <ele>947.4</ele>
        <time>2014-10-02T08:45:13Z</time>
      </trkpt>
      <trkpt lat="42.4165750" lon="-7.3353590">
        <ele>947.5</ele>
        <time>2014-10-02T08:45:14Z</time>
      </trkpt>
      <trkpt lat="42.4165640" lon="-7.3352750">
        <ele>947.5</ele>
        <time>2014-10-02T08:45:15Z</time>
      </trkpt>
      <trkpt lat="42.4165540" lon="-7.3351870">
        <ele>947.6</ele>
        <time>2014-10-02T08:45:16Z</time>
      </trkpt>
      <trkpt lat="42.4165420" lon="-7.3350940">
        <ele>947.8</ele>
        <time>2014-10-02T08:45:17Z</time>
      </trkpt>
      <trkpt lat="42.4165310" lon="-7.3350100">
        <ele>948.0</ele>
        <time>2014-10-02T08:45:18Z</time>
      </trkpt>
      <trkpt lat="42.4165210" lon="-7.3349300">
        <ele>948.1</ele>
        <time>2014-10-02T08:45:19Z</time>
      </trkpt>
      <trkpt lat="42.4165110" lon="-7.3348440">
        <ele>948.3</ele>
        <time>2014-10-02T08:45:20Z</time>
      </trkpt>
      <trkpt lat="42.4164960" lon="-7.3347590">
        <ele>948.5</ele>
        <time>2014-10-02T08:45:21Z</time>
      </trkpt>
      <trkpt lat="42.4164860" lon="-7.3346710">
        <ele>948.7</ele>
        <time>2014-10-02T08:45:22Z</time>
      </trkpt>
      <trkpt lat="42.4164730" lon="-7.3345840">
        <ele>948.9</ele>
        <time>2014-10-02T08:45:23Z</time>
      </trkpt>
      <trkpt lat="42.4164600" lon="-7.3345000">
        <ele>949.1</ele>
        <time>2014-10-02T08:45:24Z</time>
      </trkpt>
      <trkpt lat="42.4164500" lon="-7.3344210">
        <ele>949.3</ele>
        <time>2014-10-02T08:45:25Z</time>
      </trkpt>
      <trkpt lat="42.4164410" lon="-7.3343390">
        <ele>949.5</ele>
        <time>2014-10-02T08:45:26Z</time>
      </trkpt>
      <trkpt lat="42.4164350" lon="-7.3342660">
        <ele>949.8</ele>
        <time>2014-10-02T08:45:27Z</time>
      </trkpt>
      <trkpt lat="42.4164320" lon="-7.3341830">
        <ele>950.2</ele>
        <time>2014-10-02T08:45:28Z</time>
      </trkpt>
      <trkpt lat="42.4164290" lon="-7.3341000">
        <ele>950.6</ele>
        <time>2014-10-02T08:45:29Z</time>
      </trkpt>
      <trkpt lat="42.4164300" lon="-7.3340200">
        <ele>951.0</ele>
        <time>2014-10-02T08:45:30Z</time>
      </trkpt>
      <trkpt lat="42.4164310" lon="-7.3339510">
        <ele>951.4</ele>
        <time>2014-10-02T08:45:31Z</time>
      </trkpt>
      <trkpt lat="42.4164340" lon="-7.3338780">
        <ele>951.7</ele>
        <time>2014-10-02T08:45:32Z</time>
      </trkpt>
      <trkpt lat="42.4164370" lon="-7.3338070">
        <ele>952.0</ele>
        <time>2014-10-02T08:45:33Z</time>
      </trkpt>
      <trkpt lat="42.4164420" lon="-7.3337340">
        <ele>952.3</ele>
        <time>2014-10-02T08:45:34Z</time>
      </trkpt>
      <trkpt lat="42.4164470" lon="-7.3336580">
        <ele>952.7</ele>
        <time>2014-10-02T08:45:35Z</time>
      </trkpt>
      <trkpt lat="42.4164520" lon="-7.3335930">
        <ele>953.1</ele>
        <time>2014-10-02T08:45:36Z</time>
      </trkpt>
      <trkpt lat="42.4164560" lon="-7.3335260">
        <ele>953.5</ele>
        <time>2014-10-02T08:45:37Z</time>
      </trkpt>
      <trkpt lat="42.4164600" lon="-7.3334620">
        <ele>953.8</ele>
        <time>2014-10-02T08:45:38Z</time>
      </trkpt>
      <trkpt lat="42.4164610" lon="-7.3333970">
        <ele>954.2</ele>
        <time>2014-10-02T08:45:39Z</time>
      </trkpt>
      <trkpt lat="42.4164630" lon="-7.3333260">
        <ele>954.6</ele>
        <time>2014-10-02T08:45:40Z</time>
      </trkpt>
      <trkpt lat="42.4164650" lon="-7.3332530">
        <ele>955.0</ele>
        <time>2014-10-02T08:45:41Z</time>
      </trkpt>
      <trkpt lat="42.4164660" lon="-7.3331840">
        <ele>955.3</ele>
        <time>2014-10-02T08:45:42Z</time>
      </trkpt>
      <trkpt lat="42.4164670" lon="-7.3331220">
        <ele>955.6</ele>
        <time>2014-10-02T08:45:43Z</time>
      </trkpt>
      <trkpt lat="42.4164700" lon="-7.3330570">
        <ele>955.9</ele>
        <time>2014-10-02T08:45:44Z</time>
      </trkpt>
      <trkpt lat="42.4164730" lon="-7.3330010">
        <ele>956.1</ele>
        <time>2014-10-02T08:45:45Z</time>
      </trkpt>
      <trkpt lat="42.4164760" lon="-7.3329400">
        <ele>956.4</ele>
        <time>2014-10-02T08:45:46Z</time>
      </trkpt>
      <trkpt lat="42.4164780" lon="-7.3328810">
        <ele>956.6</ele>
        <time>2014-10-02T08:45:47Z</time>
      </trkpt>
      <trkpt lat="42.4164820" lon="-7.3328190">
        <ele>956.8</ele>
        <time>2014-10-02T08:45:48Z</time>
      </trkpt>
      <trkpt lat="42.4164860" lon="-7.3327580">
        <ele>957.0</ele>
        <time>2014-10-02T08:45:49Z</time>
      </trkpt>
      <trkpt lat="42.4164910" lon="-7.3327000">
        <ele>957.2</ele>
        <time>2014-10-02T08:45:50Z</time>
      </trkpt>
      <trkpt lat="42.4164960" lon="-7.3326420">
        <ele>957.5</ele>
        <time>2014-10-02T08:45:51Z</time>
      </trkpt>
      <trkpt lat="42.4164990" lon="-7.3325830">
        <ele>957.7</ele>
        <time>2014-10-02T08:45:52Z</time>
      </trkpt>
      <trkpt lat="42.4165020" lon="-7.3325290">
        <ele>957.8</ele>
        <time>2014-10-02T08:45:53Z</time>
      </trkpt>
      <trkpt lat="42.4165060" lon="-7.3324810">
        <ele>957.9</ele>
        <time>2014-10-02T08:45:54Z</time>
      </trkpt>
      <trkpt lat="42.4165090" lon="-7.3324280">
        <ele>958.0</ele>
        <time>2014-10-02T08:45:55Z</time>
      </trkpt>
      <trkpt lat="42.4165090" lon="-7.3323690">
        <ele>958.0</ele>
        <time>2014-10-02T08:45:56Z</time>
      </trkpt>
      <trkpt lat="42.4165120" lon="-7.3323170">
        <ele>958.0</ele>
        <time>2014-10-02T08:45:57Z</time>
      </trkpt>
      <trkpt lat="42.4165140" lon="-7.3322700">
        <ele>957.9</ele>
        <time>2014-10-02T08:45:58Z</time>
      </trkpt>
      <trkpt lat="42.4165160" lon="-7.3322130">
        <ele>957.9</ele>
        <time>2014-10-02T08:45:59Z</time>
      </trkpt>
      <trkpt lat="42.4165200" lon="-7.3321520">
        <ele>957.8</ele>
        <time>2014-10-02T08:46:00Z</time>
      </trkpt>
      <trkpt lat="42.4165240" lon="-7.3320940">
        <ele>957.7</ele>
        <time>2014-10-02T08:46:01Z</time>
      </trkpt>
      <trkpt lat="42.4165270" lon="-7.3320350">
        <ele>957.6</ele>
        <time>2014-10-02T08:46:02Z</time>
      </trkpt>
      <trkpt lat="42.4165330" lon="-7.3319800">
        <ele>957.5</ele>
        <time>2014-10-02T08:46:03Z</time>
      </trkpt>
      <trkpt lat="42.4165410" lon="-7.3319160">
        <ele>957.4</ele>
        <time>2014-10-02T08:46:04Z</time>
      </trkpt>
      <trkpt lat="42.4165510" lon="-7.3318550">
        <ele>957.2</ele>
        <time>2014-10-02T08:46:05Z</time>
      </trkpt>
      <trkpt lat="42.4165730" lon="-7.3317980">
        <ele>957.0</ele>
        <time>2014-10-02T08:46:06Z</time>
      </trkpt>
      <trkpt lat="42.4166070" lon="-7.3317480">
        <ele>956.8</ele>
        <time>2014-10-02T08:46:07Z</time>
      </trkpt>
      <trkpt lat="42.4166450" lon="-7.3317030">
        <ele>957.0</ele>
        <time>2014-10-02T08:46:08Z</time>
      </trkpt>
      <trkpt lat="42.4166920" lon="-7.3316690">
        <ele>957.2</ele>
        <time>2014-10-02T08:46:09Z</time>
      </trkpt>
      <trkpt lat="42.4167410" lon="-7.3316400">
        <ele>957.4</ele>
        <time>2014-10-02T08:46:10Z</time>
      </trkpt>
      <trkpt lat="42.4167930" lon="-7.3316120">
        <ele>957.6</ele>
        <time>2014-10-02T08:46:11Z</time>
      </trkpt>
      <trkpt lat="42.4168440" lon="-7.3315880">
        <ele>957.7</ele>
        <time>2014-10-02T08:46:12Z</time>
      </trkpt>
      <trkpt lat="42.4168980" lon="-7.3315650">
        <ele>957.7</ele>
        <time>2014-10-02T08:46:13Z</time>
      </trkpt>
      <trkpt lat="42.4169540" lon="-7.3315430">
        <ele>957.7</ele>
        <time>2014-10-02T08:46:14Z</time>
      </trkpt>
      <trkpt lat="42.4170090" lon="-7.3315220">
        <ele>957.8</ele>
        <time>2014-10-02T08:46:15Z</time>
      </trkpt>
      <trkpt lat="42.4170660" lon="-7.3315000">
        <ele>957.9</ele>
        <time>2014-10-02T08:46:16Z</time>
      </trkpt>
      <trkpt lat="42.4171220" lon="-7.3314790">
        <ele>958.0</ele>
        <time>2014-10-02T08:46:17Z</time>
      </trkpt>
      <trkpt lat="42.4171780" lon="-7.3314560">
        <ele>958.1</ele>
        <time>2014-10-02T08:46:18Z</time>
      </trkpt>
      <trkpt lat="42.4172360" lon="-7.3314320">
        <ele>958.1</ele>
        <time>2014-10-02T08:46:19Z</time>
      </trkpt>
      <trkpt lat="42.4172950" lon="-7.3314080">
        <ele>958.2</ele>
        <time>2014-10-02T08:46:20Z</time>
      </trkpt>
      <trkpt lat="42.4173550" lon="-7.3313850">
        <ele>958.2</ele>
        <time>2014-10-02T08:46:21Z</time>
      </trkpt>
      <trkpt lat="42.4174180" lon="-7.3313610">
        <ele>958.4</ele>
        <time>2014-10-02T08:46:22Z</time>
      </trkpt>
      <trkpt lat="42.4174840" lon="-7.3313370">
        <ele>958.4</ele>
        <time>2014-10-02T08:46:23Z</time>
      </trkpt>
      <trkpt lat="42.4175540" lon="-7.3313140">
        <ele>958.4</ele>
        <time>2014-10-02T08:46:24Z</time>
      </trkpt>
      <trkpt lat="42.4176270" lon="-7.3312910">
        <ele>958.3</ele>
        <time>2014-10-02T08:46:25Z</time>
      </trkpt>
      <trkpt lat="42.4177000" lon="-7.3312690">
        <ele>958.2</ele>
        <time>2014-10-02T08:46:26Z</time>
      </trkpt>
      <trkpt lat="42.4177750" lon="-7.3312490">
        <ele>958.1</ele>
        <time>2014-10-02T08:46:27Z</time>
      </trkpt>
      <trkpt lat="42.4178500" lon="-7.3312320">
        <ele>958.0</ele>
        <time>2014-10-02T08:46:28Z</time>
      </trkpt>
      <trkpt lat="42.4179260" lon="-7.3312200">
        <ele>958.0</ele>
        <time>2014-10-02T08:46:29Z</time>
      </trkpt>
      <trkpt lat="42.4180040" lon="-7.3312160">
        <ele>958.0</ele>
        <time>2014-10-02T08:46:30Z</time>
      </trkpt>
      <trkpt lat="42.4180840" lon="-7.3312220">
        <ele>958.1</ele>
        <time>2014-10-02T08:46:31Z</time>
      </trkpt>
      <trkpt lat="42.4181610" lon="-7.3312360">
        <ele>958.1</ele>
        <time>2014-10-02T08:46:32Z</time>
      </trkpt>
      <trkpt lat="42.4182350" lon="-7.3312490">
        <ele>958.2</ele>
        <time>2014-10-02T08:46:33Z</time>
      </trkpt>
      <trkpt lat="42.4183100" lon="-7.3312600">
        <ele>958.4</ele>
        <time>2014-10-02T08:46:34Z</time>
      </trkpt>
      <trkpt lat="42.4183860" lon="-7.3312620">
        <ele>958.5</ele>
        <time>2014-10-02T08:46:35Z</time>
      </trkpt>
      <trkpt lat="42.4184580" lon="-7.3312330">
        <ele>958.7</ele>
        <time>2014-10-02T08:46:36Z</time>
      </trkpt>
      <trkpt lat="42.4185230" lon="-7.3311810">
        <ele>958.8</ele>
        <time>2014-10-02T08:46:37Z</time>
      </trkpt>
      <trkpt lat="42.4185830" lon="-7.3311200">
        <ele>958.9</ele>
        <time>2014-10-02T08:46:38Z</time>
      </trkpt>
      <trkpt lat="42.4186290" lon="-7.3310380">
        <ele>959.0</ele>
        <time>2014-10-02T08:46:39Z</time>
      </trkpt>
      <trkpt lat="42.4186700" lon="-7.3309590">
        <ele>959.2</ele>
        <time>2014-10-02T08:46:40Z</time>
      </trkpt>
      <trkpt lat="42.4187050" lon="-7.3308760">
        <ele>959.5</ele>
        <time>2014-10-02T08:46:41Z</time>
      </trkpt>
      <trkpt lat="42.4187380" lon="-7.3307870">
        <ele>960.0</ele>
        <time>2014-10-02T08:46:42Z</time>
      </trkpt>
      <trkpt lat="42.4187640" lon="-7.3306990">
        <ele>960.4</ele>
        <time>2014-10-02T08:46:43Z</time>
      </trkpt>
      <trkpt lat="42.4187840" lon="-7.3306120">
        <ele>960.8</ele>
        <time>2014-10-02T08:46:44Z</time>
      </trkpt>
      <trkpt lat="42.4187990" lon="-7.3305310">
        <ele>961.2</ele>
        <time>2014-10-02T08:46:45Z</time>
      </trkpt>
      <trkpt lat="42.4188110" lon="-7.3304510">
        <ele>961.7</ele>
        <time>2014-10-02T08:46:46Z</time>
      </trkpt>
      <trkpt lat="42.4188210" lon="-7.3303680">
        <ele>962.1</ele>
        <time>2014-10-02T08:46:47Z</time>
      </trkpt>
      <trkpt lat="42.4188310" lon="-7.3302890">
        <ele>962.5</ele>
        <time>2014-10-02T08:46:48Z</time>
      </trkpt>
      <trkpt lat="42.4188410" lon="-7.3302210">
        <ele>962.7</ele>
        <time>2014-10-02T08:46:49Z</time>
      </trkpt>
      <trkpt lat="42.4188520" lon="-7.3301550">
        <ele>962.7</ele>
        <time>2014-10-02T08:46:50Z</time>
      </trkpt>
      <trkpt lat="42.4188630" lon="-7.3300910">
        <ele>962.3</ele>
        <time>2014-10-02T08:46:51Z</time>
      </trkpt>
      <trkpt lat="42.4188740" lon="-7.3300240">
        <ele>961.5</ele>
        <time>2014-10-02T08:46:52Z</time>
      </trkpt>
      <trkpt lat="42.4188850" lon="-7.3299590">
        <ele>961.0</ele>
        <time>2014-10-02T08:46:53Z</time>
      </trkpt>
      <trkpt lat="42.4188950" lon="-7.3298990">
        <ele>961.2</ele>
        <time>2014-10-02T08:46:54Z</time>
      </trkpt>
      <trkpt lat="42.4189050" lon="-7.3298470">
        <ele>961.3</ele>
        <time>2014-10-02T08:46:55Z</time>
      </trkpt>
      <trkpt lat="42.4189160" lon="-7.3297960">
        <ele>961.5</ele>
        <time>2014-10-02T08:46:56Z</time>
      </trkpt>
      <trkpt lat="42.4189290" lon="-7.3297400">
        <ele>961.7</ele>
        <time>2014-10-02T08:46:57Z</time>
      </trkpt>
      <trkpt lat="42.4189440" lon="-7.3296800">
        <ele>961.9</ele>
        <time>2014-10-02T08:46:58Z</time>
      </trkpt>
      <trkpt lat="42.4189580" lon="-7.3296190">
        <ele>962.1</ele>
        <time>2014-10-02T08:46:59Z</time>
      </trkpt>
      <trkpt lat="42.4189740" lon="-7.3295610">
        <ele>962.3</ele>
        <time>2014-10-02T08:47:00Z</time>
      </trkpt>
      <trkpt lat="42.4189920" lon="-7.3295090">
        <ele>962.5</ele>
        <time>2014-10-02T08:47:01Z</time>
      </trkpt>
      <trkpt lat="42.4190110" lon="-7.3294580">
        <ele>962.7</ele>
        <time>2014-10-02T08:47:02Z</time>
      </trkpt>
      <trkpt lat="42.4190320" lon="-7.3294100">
        <ele>962.9</ele>
        <time>2014-10-02T08:47:03Z</time>
      </trkpt>
      <trkpt lat="42.4190530" lon="-7.3293580">
        <ele>963.2</ele>
        <time>2014-10-02T08:47:04Z</time>
      </trkpt>
      <trkpt lat="42.4190760" lon="-7.3293020">
        <ele>963.4</ele>
        <time>2014-10-02T08:47:05Z</time>
      </trkpt>
      <trkpt lat="42.4191000" lon="-7.3292510">
        <ele>963.7</ele>
        <time>2014-10-02T08:47:06Z</time>
      </trkpt>
      <trkpt lat="42.4191230" lon="-7.3292000">
        <ele>963.9</ele>
        <time>2014-10-02T08:47:07Z</time>
      </trkpt>
      <trkpt lat="42.4191450" lon="-7.3291490">
        <ele>964.1</ele>
        <time>2014-10-02T08:47:08Z</time>
      </trkpt>
      <trkpt lat="42.4191660" lon="-7.3290970">
        <ele>964.3</ele>
        <time>2014-10-02T08:47:09Z</time>
      </trkpt>
      <trkpt lat="42.4191860" lon="-7.3290520">
        <ele>964.6</ele>
        <time>2014-10-02T08:47:10Z</time>
      </trkpt>
      <trkpt lat="42.4192070" lon="-7.3290040">
        <ele>964.8</ele>
        <time>2014-10-02T08:47:11Z</time>
      </trkpt>
      <trkpt lat="42.4192280" lon="-7.3289600">
        <ele>965.0</ele>
        <time>2014-10-02T08:47:12Z</time>
      </trkpt>
      <trkpt lat="42.4192470" lon="-7.3289150">
        <ele>965.2</ele>
        <time>2014-10-02T08:47:13Z</time>
      </trkpt>
      <trkpt lat="42.4192680" lon="-7.3288650">
        <ele>965.4</ele>
        <time>2014-10-02T08:47:14Z</time>
      </trkpt>
      <trkpt lat="42.4192890" lon="-7.3288160">
        <ele>965.6</ele>
        <time>2014-10-02T08:47:15Z</time>
      </trkpt>
      <trkpt lat="42.4193090" lon="-7.3287670">
        <ele>965.8</ele>
        <time>2014-10-02T08:47:16Z</time>
      </trkpt>
      <trkpt lat="42.4193320" lon="-7.3287220">
        <ele>965.9</ele>
        <time>2014-10-02T08:47:17Z</time>
      </trkpt>
      <trkpt lat="42.4193580" lon="-7.3286740">
        <ele>966.1</ele>
        <time>2014-10-02T08:47:18Z</time>
      </trkpt>
      <trkpt lat="42.4193850" lon="-7.3286270">
        <ele>966.2</ele>
        <time>2014-10-02T08:47:19Z</time>
      </trkpt>
      <trkpt lat="42.4194170" lon="-7.3285750">
        <ele>966.4</ele>
        <time>2014-10-02T08:47:20Z</time>
      </trkpt>
      <trkpt lat="42.4194500" lon="-7.3285240">
        <ele>966.5</ele>
        <time>2014-10-02T08:47:21Z</time>
      </trkpt>
      <trkpt lat="42.4194800" lon="-7.3284840">
        <ele>966.7</ele>
        <time>2014-10-02T08:47:22Z</time>
      </trkpt>
      <trkpt lat="42.4195120" lon="-7.3284440">
        <ele>966.8</ele>
        <time>2014-10-02T08:47:23Z</time>
      </trkpt>
      <trkpt lat="42.4195450" lon="-7.3284030">
        <ele>966.9</ele>
        <time>2014-10-02T08:47:24Z</time>
      </trkpt>
      <trkpt lat="42.4195820" lon="-7.3283650">
        <ele>967.1</ele>
        <time>2014-10-02T08:47:25Z</time>
      </trkpt>
      <trkpt lat="42.4196220" lon="-7.3283260">
        <ele>967.1</ele>
        <time>2014-10-02T08:47:26Z</time>
      </trkpt>
      <trkpt lat="42.4196630" lon="-7.3282870">
        <ele>967.2</ele>
        <time>2014-10-02T08:47:27Z</time>
      </trkpt>
      <trkpt lat="42.4197040" lon="-7.3282460">
        <ele>967.2</ele>
        <time>2014-10-02T08:47:28Z</time>
      </trkpt>
      <trkpt lat="42.4197450" lon="-7.3282030">
        <ele>967.3</ele>
        <time>2014-10-02T08:47:29Z</time>
      </trkpt>
      <trkpt lat="42.4197870" lon="-7.3281580">
        <ele>967.4</ele>
        <time>2014-10-02T08:47:30Z</time>
      </trkpt>
      <trkpt lat="42.4198320" lon="-7.3281120">
        <ele>967.5</ele>
        <time>2014-10-02T08:47:31Z</time>
      </trkpt>
      <trkpt lat="42.4198790" lon="-7.3280630">
        <ele>967.5</ele>
        <time>2014-10-02T08:47:32Z</time>
      </trkpt>
      <trkpt lat="42.4199260" lon="-7.3280140">
        <ele>967.6</ele>
        <time>2014-10-02T08:47:33Z</time>
      </trkpt>
      <trkpt lat="42.4199730" lon="-7.3279640">
        <ele>967.7</ele>
        <time>2014-10-02T08:47:34Z</time>
      </trkpt>
      <trkpt lat="42.4200210" lon="-7.3279140">
        <ele>967.7</ele>
        <time>2014-10-02T08:47:35Z</time>
      </trkpt>
      <trkpt lat="42.4200720" lon="-7.3278640">
        <ele>967.6</ele>
        <time>2014-10-02T08:47:36Z</time>
      </trkpt>
      <trkpt lat="42.4201240" lon="-7.3278130">
        <ele>967.6</ele>
        <time>2014-10-02T08:47:37Z</time>
      </trkpt>
      <trkpt lat="42.4201760" lon="-7.3277650">
        <ele>967.6</ele>
        <time>2014-10-02T08:47:38Z</time>
      </trkpt>
      <trkpt lat="42.4202300" lon="-7.3277170">
        <ele>967.7</ele>
        <time>2014-10-02T08:47:39Z</time>
      </trkpt>
      <trkpt lat="42.4202850" lon="-7.3276690">
        <ele>967.7</ele>
        <time>2014-10-02T08:47:40Z</time>
      </trkpt>
      <trkpt lat="42.4203390" lon="-7.3276210">
        <ele>967.7</ele>
        <time>2014-10-02T08:47:41Z</time>
      </trkpt>
      <trkpt lat="42.4203930" lon="-7.3275730">
        <ele>967.7</ele>
        <time>2014-10-02T08:47:42Z</time>
      </trkpt>
      <trkpt lat="42.4204500" lon="-7.3275250">
        <ele>967.7</ele>
        <time>2014-10-02T08:47:43Z</time>
      </trkpt>
      <trkpt lat="42.4205080" lon="-7.3274780">
        <ele>967.8</ele>
        <time>2014-10-02T08:47:44Z</time>
      </trkpt>
      <trkpt lat="42.4205670" lon="-7.3274350">
        <ele>967.9</ele>
        <time>2014-10-02T08:47:45Z</time>
      </trkpt>
      <trkpt lat="42.4206280" lon="-7.3273960">
        <ele>968.0</ele>
        <time>2014-10-02T08:47:46Z</time>
      </trkpt>
      <trkpt lat="42.4206920" lon="-7.3273610">
        <ele>967.9</ele>
        <time>2014-10-02T08:47:47Z</time>
      </trkpt>
      <trkpt lat="42.4207580" lon="-7.3273320">
        <ele>967.8</ele>
        <time>2014-10-02T08:47:48Z</time>
      </trkpt>
      <trkpt lat="42.4208260" lon="-7.3273070">
        <ele>967.7</ele>
        <time>2014-10-02T08:47:49Z</time>
      </trkpt>
      <trkpt lat="42.4208960" lon="-7.3272870">
        <ele>967.6</ele>
        <time>2014-10-02T08:47:50Z</time>
      </trkpt>
      <trkpt lat="42.4209670" lon="-7.3272680">
        <ele>967.5</ele>
        <time>2014-10-02T08:47:51Z</time>
      </trkpt>
      <trkpt lat="42.4210410" lon="-7.3272530">
        <ele>967.5</ele>
        <time>2014-10-02T08:47:52Z</time>
      </trkpt>
      <trkpt lat="42.4211160" lon="-7.3272420">
        <ele>967.6</ele>
        <time>2014-10-02T08:47:53Z</time>
      </trkpt>
      <trkpt lat="42.4211900" lon="-7.3272300">
        <ele>967.6</ele>
        <time>2014-10-02T08:47:54Z</time>
      </trkpt>
      <trkpt lat="42.4212640" lon="-7.3272190">
        <ele>967.6</ele>
        <time>2014-10-02T08:47:55Z</time>
      </trkpt>
      <trkpt lat="42.4213360" lon="-7.3272070">
        <ele>967.7</ele>
        <time>2014-10-02T08:47:56Z</time>
      </trkpt>
      <trkpt lat="42.4214100" lon="-7.3271940">
        <ele>967.8</ele>
        <time>2014-10-02T08:47:57Z</time>
      </trkpt>
      <trkpt lat="42.4214820" lon="-7.3271790">
        <ele>967.9</ele>
        <time>2014-10-02T08:47:58Z</time>
      </trkpt>
      <trkpt lat="42.4215540" lon="-7.3271620">
        <ele>968.1</ele>
        <time>2014-10-02T08:47:59Z</time>
      </trkpt>
      <trkpt lat="42.4216200" lon="-7.3271460">
        <ele>968.3</ele>
        <time>2014-10-02T08:48:00Z</time>
      </trkpt>
      <trkpt lat="42.4216810" lon="-7.3271320">
        <ele>968.6</ele>
        <time>2014-10-02T08:48:01Z</time>
      </trkpt>
      <trkpt lat="42.4217440" lon="-7.3271220">
        <ele>969.1</ele>
        <time>2014-10-02T08:48:02Z</time>
      </trkpt>
      <trkpt lat="42.4218020" lon="-7.3271150">
        <ele>969.5</ele>
        <time>2014-10-02T08:48:03Z</time>
      </trkpt>
      <trkpt lat="42.4218550" lon="-7.3271110">
        <ele>970.0</ele>
        <time>2014-10-02T08:48:04Z</time>
      </trkpt>
      <trkpt lat="42.4219090" lon="-7.3271100">
        <ele>970.3</ele>
        <time>2014-10-02T08:48:05Z</time>
      </trkpt>
      <trkpt lat="42.4219620" lon="-7.3271120">
        <ele>970.7</ele>
        <time>2014-10-02T08:48:06Z</time>
      </trkpt>
      <trkpt lat="42.4220150" lon="-7.3271120">
        <ele>971.0</ele>
        <time>2014-10-02T08:48:07Z</time>
      </trkpt>
      <trkpt lat="42.4220580" lon="-7.3271120">
        <ele>971.2</ele>
        <time>2014-10-02T08:48:08Z</time>
      </trkpt>
      <trkpt lat="42.4221010" lon="-7.3271110">
        <ele>971.5</ele>
        <time>2014-10-02T08:48:09Z</time>
      </trkpt>
      <trkpt lat="42.4221480" lon="-7.3271110">
        <ele>971.7</ele>
        <time>2014-10-02T08:48:10Z</time>
      </trkpt>
      <trkpt lat="42.4221880" lon="-7.3271090">
        <ele>971.9</ele>
        <time>2014-10-02T08:48:11Z</time>
      </trkpt>
      <trkpt lat="42.4222290" lon="-7.3271070">
        <ele>972.1</ele>
        <time>2014-10-02T08:48:12Z</time>
      </trkpt>
      <trkpt lat="42.4222680" lon="-7.3271070">
        <ele>972.3</ele>
        <time>2014-10-02T08:48:13Z</time>
      </trkpt>
      <trkpt lat="42.4223130" lon="-7.3271080">
        <ele>972.6</ele>
        <time>2014-10-02T08:48:14Z</time>
      </trkpt>
      <trkpt lat="42.4223600" lon="-7.3271070">
        <ele>972.8</ele>
        <time>2014-10-02T08:48:15Z</time>
      </trkpt>
      <trkpt lat="42.4224060" lon="-7.3271060">
        <ele>973.0</ele>
        <time>2014-10-02T08:48:16Z</time>
      </trkpt>
      <trkpt lat="42.4224480" lon="-7.3271040">
        <ele>973.2</ele>
        <time>2014-10-02T08:48:17Z</time>
      </trkpt>
      <trkpt lat="42.4224860" lon="-7.3270970">
        <ele>973.4</ele>
        <time>2014-10-02T08:48:18Z</time>
      </trkpt>
      <trkpt lat="42.4225300" lon="-7.3270890">
        <ele>973.6</ele>
        <time>2014-10-02T08:48:19Z</time>
      </trkpt>
      <trkpt lat="42.4225700" lon="-7.3270800">
        <ele>973.8</ele>
        <time>2014-10-02T08:48:20Z</time>
      </trkpt>
      <trkpt lat="42.4226110" lon="-7.3270690">
        <ele>974.0</ele>
        <time>2014-10-02T08:48:21Z</time>
      </trkpt>
      <trkpt lat="42.4226520" lon="-7.3270590">
        <ele>974.2</ele>
        <time>2014-10-02T08:48:22Z</time>
      </trkpt>
      <trkpt lat="42.4226900" lon="-7.3270500">
        <ele>974.4</ele>
        <time>2014-10-02T08:48:23Z</time>
      </trkpt>
      <trkpt lat="42.4227270" lon="-7.3270410">
        <ele>974.7</ele>
        <time>2014-10-02T08:48:24Z</time>
      </trkpt>
      <trkpt lat="42.4227660" lon="-7.3270310">
        <ele>974.9</ele>
        <time>2014-10-02T08:48:25Z</time>
      </trkpt>
      <trkpt lat="42.4228080" lon="-7.3270220">
        <ele>975.1</ele>
        <time>2014-10-02T08:48:26Z</time>
      </trkpt>
      <trkpt lat="42.4228520" lon="-7.3270100">
        <ele>975.2</ele>
        <time>2014-10-02T08:48:27Z</time>
      </trkpt>
      <trkpt lat="42.4228910" lon="-7.3270000">
        <ele>975.4</ele>
        <time>2014-10-02T08:48:28Z</time>
      </trkpt>
      <trkpt lat="42.4229310" lon="-7.3269910">
        <ele>975.5</ele>
        <time>2014-10-02T08:48:29Z</time>
      </trkpt>
      <trkpt lat="42.4229690" lon="-7.3269810">
        <ele>975.6</ele>
        <time>2014-10-02T08:48:30Z</time>
      </trkpt>
      <trkpt lat="42.4230120" lon="-7.3269710">
        <ele>975.8</ele>
        <time>2014-10-02T08:48:31Z</time>
      </trkpt>
      <trkpt lat="42.4230550" lon="-7.3269600">
        <ele>976.0</ele>
        <time>2014-10-02T08:48:32Z</time>
      </trkpt>
      <trkpt lat="42.4230890" lon="-7.3269470">
        <ele>976.1</ele>
        <time>2014-10-02T08:48:33Z</time>
      </trkpt>
      <trkpt lat="42.4231240" lon="-7.3269300">
        <ele>976.3</ele>
        <time>2014-10-02T08:48:34Z</time>
      </trkpt>
      <trkpt lat="42.4231590" lon="-7.3269100">
        <ele>976.5</ele>
        <time>2014-10-02T08:48:35Z</time>
      </trkpt>
      <trkpt lat="42.4231950" lon="-7.3268880">
        <ele>976.7</ele>
        <time>2014-10-02T08:48:36Z</time>
      </trkpt>
      <trkpt lat="42.4232320" lon="-7.3268620">
        <ele>976.8</ele>
        <time>2014-10-02T08:48:37Z</time>
      </trkpt>
      <trkpt lat="42.4232630" lon="-7.3268220">
        <ele>977.0</ele>
        <time>2014-10-02T08:48:38Z</time>
      </trkpt>
      <trkpt lat="42.4232910" lon="-7.3267830">
        <ele>977.0</ele>
        <time>2014-10-02T08:48:39Z</time>
      </trkpt>
      <trkpt lat="42.4233140" lon="-7.3267330">
        <ele>977.1</ele>
        <time>2014-10-02T08:48:40Z</time>
      </trkpt>
      <trkpt lat="42.4233360" lon="-7.3266770">
        <ele>977.2</ele>
        <time>2014-10-02T08:48:41Z</time>
      </trkpt>
      <trkpt lat="42.4233540" lon="-7.3266220">
        <ele>977.3</ele>
        <time>2014-10-02T08:48:42Z</time>
      </trkpt>
      <trkpt lat="42.4233680" lon="-7.3265690">
        <ele>977.4</ele>
        <time>2014-10-02T08:48:43Z</time>
      </trkpt>
      <trkpt lat="42.4233800" lon="-7.3265160">
        <ele>977.5</ele>
        <time>2014-10-02T08:48:44Z</time>
      </trkpt>
      <trkpt lat="42.4233910" lon="-7.3264590">
        <ele>977.7</ele>
        <time>2014-10-02T08:48:45Z</time>
      </trkpt>
      <trkpt lat="42.4234000" lon="-7.3264000">
        <ele>977.8</ele>
        <time>2014-10-02T08:48:46Z</time>
      </trkpt>
      <trkpt lat="42.4234080" lon="-7.3263370">
        <ele>977.9</ele>
        <time>2014-10-02T08:48:47Z</time>
      </trkpt>
      <trkpt lat="42.4234160" lon="-7.3262800">
        <ele>978.0</ele>
        <time>2014-10-02T08:48:48Z</time>
      </trkpt>
      <trkpt lat="42.4234240" lon="-7.3262180">
        <ele>978.0</ele>
        <time>2014-10-02T08:48:49Z</time>
      </trkpt>
      <trkpt lat="42.4234310" lon="-7.3261580">
        <ele>978.1</ele>
        <time>2014-10-02T08:48:50Z</time>
      </trkpt>
      <trkpt lat="42.4234390" lon="-7.3260950">
        <ele>978.2</ele>
        <time>2014-10-02T08:48:51Z</time>
      </trkpt>
      <trkpt lat="42.4234470" lon="-7.3260340">
        <ele>978.3</ele>
        <time>2014-10-02T08:48:52Z</time>
      </trkpt>
      <trkpt lat="42.4234530" lon="-7.3259710">
        <ele>978.5</ele>
        <time>2014-10-02T08:48:53Z</time>
      </trkpt>
      <trkpt lat="42.4234580" lon="-7.3259150">
        <ele>978.6</ele>
        <time>2014-10-02T08:48:54Z</time>
      </trkpt>
      <trkpt lat="42.4234640" lon="-7.3258520">
        <ele>978.8</ele>
        <time>2014-10-02T08:48:55Z</time>
      </trkpt>
      <trkpt lat="42.4234690" lon="-7.3257830">
        <ele>978.9</ele>
        <time>2014-10-02T08:48:56Z</time>
      </trkpt>
      <trkpt lat="42.4234740" lon="-7.3257130">
        <ele>979.0</ele>
        <time>2014-10-02T08:48:57Z</time>
      </trkpt>
      <trkpt lat="42.4234780" lon="-7.3256440">
        <ele>979.1</ele>
        <time>2014-10-02T08:48:58Z</time>
      </trkpt>
      <trkpt lat="42.4234820" lon="-7.3255730">
        <ele>979.2</ele>
        <time>2014-10-02T08:48:59Z</time>
      </trkpt>
      <trkpt lat="42.4234870" lon="-7.3255040">
        <ele>979.4</ele>
        <time>2014-10-02T08:49:00Z</time>
      </trkpt>
      <trkpt lat="42.4234910" lon="-7.3254350">
        <ele>979.5</ele>
        <time>2014-10-02T08:49:01Z</time>
      </trkpt>
      <trkpt lat="42.4234950" lon="-7.3253640">
        <ele>979.6</ele>
        <time>2014-10-02T08:49:02Z</time>
      </trkpt>
      <trkpt lat="42.4235010" lon="-7.3252910">
        <ele>979.6</ele>
        <time>2014-10-02T08:49:03Z</time>
      </trkpt>
      <trkpt lat="42.4235070" lon="-7.3252210">
        <ele>979.7</ele>
        <time>2014-10-02T08:49:04Z</time>
      </trkpt>
      <trkpt lat="42.4235140" lon="-7.3251480">
        <ele>979.8</ele>
        <time>2014-10-02T08:49:05Z</time>
      </trkpt>
      <trkpt lat="42.4235220" lon="-7.3250770">
        <ele>979.9</ele>
        <time>2014-10-02T08:49:06Z</time>
      </trkpt>
      <trkpt lat="42.4235330" lon="-7.3250050">
        <ele>980.1</ele>
        <time>2014-10-02T08:49:07Z</time>
      </trkpt>
      <trkpt lat="42.4235440" lon="-7.3249320">
        <ele>980.1</ele>
        <time>2014-10-02T08:49:08Z</time>
      </trkpt>
      <trkpt lat="42.4235560" lon="-7.3248580">
        <ele>980.2</ele>
        <time>2014-10-02T08:49:09Z</time>
      </trkpt>
      <trkpt lat="42.4235670" lon="-7.3247830">
        <ele>980.2</ele>
        <time>2014-10-02T08:49:10Z</time>
      </trkpt>
      <trkpt lat="42.4235800" lon="-7.3247060">
        <ele>980.3</ele>
        <time>2014-10-02T08:49:11Z</time>
      </trkpt>
      <trkpt lat="42.4235950" lon="-7.3246330">
        <ele>980.5</ele>
        <time>2014-10-02T08:49:12Z</time>
      </trkpt>
      <trkpt lat="42.4236130" lon="-7.3245590">
        <ele>980.6</ele>
        <time>2014-10-02T08:49:13Z</time>
      </trkpt>
      <trkpt lat="42.4236340" lon="-7.3244860">
        <ele>980.7</ele>
        <time>2014-10-02T08:49:14Z</time>
      </trkpt>
      <trkpt lat="42.4236560" lon="-7.3244120">
        <ele>980.8</ele>
        <time>2014-10-02T08:49:15Z</time>
      </trkpt>
      <trkpt lat="42.4236810" lon="-7.3243390">
        <ele>980.7</ele>
        <time>2014-10-02T08:49:16Z</time>
      </trkpt>
      <trkpt lat="42.4237080" lon="-7.3242660">
        <ele>980.7</ele>
        <time>2014-10-02T08:49:17Z</time>
      </trkpt>
      <trkpt lat="42.4237360" lon="-7.3241960">
        <ele>980.7</ele>
        <time>2014-10-02T08:49:18Z</time>
      </trkpt>
      <trkpt lat="42.4237660" lon="-7.3241270">
        <ele>980.7</ele>
        <time>2014-10-02T08:49:19Z</time>
      </trkpt>
      <trkpt lat="42.4237950" lon="-7.3240550">
        <ele>980.9</ele>
        <time>2014-10-02T08:49:20Z</time>
      </trkpt>
      <trkpt lat="42.4238250" lon="-7.3239830">
        <ele>981.0</ele>
        <time>2014-10-02T08:49:21Z</time>
      </trkpt>
      <trkpt lat="42.4238550" lon="-7.3239110">
        <ele>981.1</ele>
        <time>2014-10-02T08:49:22Z</time>
      </trkpt>
      <trkpt lat="42.4238850" lon="-7.3238390">
        <ele>981.2</ele>
        <time>2014-10-02T08:49:23Z</time>
      </trkpt>
      <trkpt lat="42.4239150" lon="-7.3237690">
        <ele>981.2</ele>
        <time>2014-10-02T08:49:24Z</time>
      </trkpt>
      <trkpt lat="42.4239440" lon="-7.3236980">
        <ele>981.2</ele>
        <time>2014-10-02T08:49:25Z</time>
      </trkpt>
      <trkpt lat="42.4239740" lon="-7.3236280">
        <ele>981.1</ele>
        <time>2014-10-02T08:49:26Z</time>
      </trkpt>
      <trkpt lat="42.4240040" lon="-7.3235580">
        <ele>981.1</ele>
        <time>2014-10-02T08:49:27Z</time>
      </trkpt>
      <trkpt lat="42.4240330" lon="-7.3234870">
        <ele>981.0</ele>
        <time>2014-10-02T08:49:28Z</time>
      </trkpt>
      <trkpt lat="42.4240630" lon="-7.3234140">
        <ele>981.0</ele>
        <time>2014-10-02T08:49:29Z</time>
      </trkpt>
      <trkpt lat="42.4240950" lon="-7.3233390">
        <ele>980.8</ele>
        <time>2014-10-02T08:49:30Z</time>
      </trkpt>
      <trkpt lat="42.4241300" lon="-7.3232640">
        <ele>980.6</ele>
        <time>2014-10-02T08:49:31Z</time>
      </trkpt>
      <trkpt lat="42.4241710" lon="-7.3231920">
        <ele>980.3</ele>
        <time>2014-10-02T08:49:32Z</time>
      </trkpt>
      <trkpt lat="42.4242340" lon="-7.3231350">
        <ele>980.0</ele>
        <time>2014-10-02T08:49:33Z</time>
      </trkpt>
      <trkpt lat="42.4243040" lon="-7.3230820">
        <ele>979.5</ele>
        <time>2014-10-02T08:49:34Z</time>
      </trkpt>
      <trkpt lat="42.4243900" lon="-7.3230510">
        <ele>978.9</ele>
        <time>2014-10-02T08:49:35Z</time>
      </trkpt>
      <trkpt lat="42.4244800" lon="-7.3230210">
        <ele>978.4</ele>
        <time>2014-10-02T08:49:36Z</time>
      </trkpt>
      <trkpt lat="42.4245740" lon="-7.3229960">
        <ele>978.0</ele>
        <time>2014-10-02T08:49:37Z</time>
      </trkpt>
      <trkpt lat="42.4246720" lon="-7.3229730">
        <ele>977.5</ele>
        <time>2014-10-02T08:49:38Z</time>
      </trkpt>
      <trkpt lat="42.4247650" lon="-7.3229480">
        <ele>976.6</ele>
        <time>2014-10-02T08:49:39Z</time>
      </trkpt>
      <trkpt lat="42.4248560" lon="-7.3229130">
        <ele>975.7</ele>
        <time>2014-10-02T08:49:40Z</time>
      </trkpt>
      <trkpt lat="42.4249340" lon="-7.3228440">
        <ele>976.1</ele>
        <time>2014-10-02T08:49:41Z</time>
      </trkpt>
      <trkpt lat="42.4250100" lon="-7.3227620">
        <ele>976.5</ele>
        <time>2014-10-02T08:49:42Z</time>
      </trkpt>
      <trkpt lat="42.4250710" lon="-7.3226580">
        <ele>976.8</ele>
        <time>2014-10-02T08:49:43Z</time>
      </trkpt>
      <trkpt lat="42.4251230" lon="-7.3225610">
        <ele>977.1</ele>
        <time>2014-10-02T08:49:44Z</time>
      </trkpt>
      <trkpt lat="42.4251690" lon="-7.3224600">
        <ele>977.3</ele>
        <time>2014-10-02T08:49:45Z</time>
      </trkpt>
      <trkpt lat="42.4252100" lon="-7.3223600">
        <ele>977.4</ele>
        <time>2014-10-02T08:49:46Z</time>
      </trkpt>
      <trkpt lat="42.4252480" lon="-7.3222560">
        <ele>977.5</ele>
        <time>2014-10-02T08:49:47Z</time>
      </trkpt>
      <trkpt lat="42.4252840" lon="-7.3221500">
        <ele>977.5</ele>
        <time>2014-10-02T08:49:48Z</time>
      </trkpt>
      <trkpt lat="42.4253190" lon="-7.3220470">
        <ele>977.7</ele>
        <time>2014-10-02T08:49:49Z</time>
      </trkpt>
      <trkpt lat="42.4253510" lon="-7.3219470">
        <ele>977.9</ele>
        <time>2014-10-02T08:49:50Z</time>
      </trkpt>
      <trkpt lat="42.4253830" lon="-7.3218510">
        <ele>977.9</ele>
        <time>2014-10-02T08:49:51Z</time>
      </trkpt>
      <trkpt lat="42.4254150" lon="-7.3217600">
        <ele>978.0</ele>
        <time>2014-10-02T08:49:52Z</time>
      </trkpt>
      <trkpt lat="42.4254470" lon="-7.3216690">
        <ele>978.2</ele>
        <time>2014-10-02T08:49:53Z</time>
      </trkpt>
      <trkpt lat="42.4254780" lon="-7.3215810">
        <ele>978.5</ele>
        <time>2014-10-02T08:49:54Z</time>
      </trkpt>
      <trkpt lat="42.4255090" lon="-7.3214950">
        <ele>978.7</ele>
        <time>2014-10-02T08:49:55Z</time>
      </trkpt>
      <trkpt lat="42.4255390" lon="-7.3214120">
        <ele>978.9</ele>
        <time>2014-10-02T08:49:56Z</time>
      </trkpt>
      <trkpt lat="42.4255700" lon="-7.3213300">
        <ele>979.0</ele>
        <time>2014-10-02T08:49:57Z</time>
      </trkpt>
      <trkpt lat="42.4256000" lon="-7.3212500">
        <ele>979.1</ele>
        <time>2014-10-02T08:49:58Z</time>
      </trkpt>
      <trkpt lat="42.4256300" lon="-7.3211710">
        <ele>979.2</ele>
        <time>2014-10-02T08:49:59Z</time>
      </trkpt>
      <trkpt lat="42.4256610" lon="-7.3210920">
        <ele>979.3</ele>
        <time>2014-10-02T08:50:00Z</time>
      </trkpt>
      <trkpt lat="42.4256910" lon="-7.3210140">
        <ele>979.5</ele>
        <time>2014-10-02T08:50:01Z</time>
      </trkpt>
      <trkpt lat="42.4257210" lon="-7.3209370">
        <ele>979.6</ele>
        <time>2014-10-02T08:50:02Z</time>
      </trkpt>
      <trkpt lat="42.4257500" lon="-7.3208600">
        <ele>979.7</ele>
        <time>2014-10-02T08:50:03Z</time>
      </trkpt>
      <trkpt lat="42.4257800" lon="-7.3207830">
        <ele>979.8</ele>
        <time>2014-10-02T08:50:04Z</time>
      </trkpt>
      <trkpt lat="42.4258100" lon="-7.3207070">
        <ele>979.9</ele>
        <time>2014-10-02T08:50:05Z</time>
      </trkpt>
      <trkpt lat="42.4258400" lon="-7.3206350">
        <ele>980.0</ele>
        <time>2014-10-02T08:50:06Z</time>
      </trkpt>
      <trkpt lat="42.4258700" lon="-7.3205610">
        <ele>980.0</ele>
        <time>2014-10-02T08:50:07Z</time>
      </trkpt>
      <trkpt lat="42.4259000" lon="-7.3204890">
        <ele>980.0</ele>
        <time>2014-10-02T08:50:08Z</time>
      </trkpt>
      <trkpt lat="42.4259300" lon="-7.3204160">
        <ele>979.9</ele>
        <time>2014-10-02T08:50:09Z</time>
      </trkpt>
      <trkpt lat="42.4259600" lon="-7.3203440">
        <ele>979.9</ele>
        <time>2014-10-02T08:50:10Z</time>
      </trkpt>
      <trkpt lat="42.4259900" lon="-7.3202710">
        <ele>979.8</ele>
        <time>2014-10-02T08:50:11Z</time>
      </trkpt>
      <trkpt lat="42.4260200" lon="-7.3201960">
        <ele>979.8</ele>
        <time>2014-10-02T08:50:12Z</time>
      </trkpt>
      <trkpt lat="42.4260500" lon="-7.3201220">
        <ele>979.8</ele>
        <time>2014-10-02T08:50:13Z</time>
      </trkpt>
      <trkpt lat="42.4260810" lon="-7.3200460">
        <ele>979.8</ele>
        <time>2014-10-02T08:50:14Z</time>
      </trkpt>
      <trkpt lat="42.4261110" lon="-7.3199690">
        <ele>979.6</ele>
        <time>2014-10-02T08:50:15Z</time>
      </trkpt>
      <trkpt lat="42.4261420" lon="-7.3198920">
        <ele>979.5</ele>
        <time>2014-10-02T08:50:16Z</time>
      </trkpt>
      <trkpt lat="42.4261740" lon="-7.3198150">
        <ele>979.3</ele>
        <time>2014-10-02T08:50:17Z</time>
      </trkpt>
      <trkpt lat="42.4262050" lon="-7.3197350">
        <ele>979.1</ele>
        <time>2014-10-02T08:50:18Z</time>
      </trkpt>
      <trkpt lat="42.4262370" lon="-7.3196540">
        <ele>978.9</ele>
        <time>2014-10-02T08:50:19Z</time>
      </trkpt>
      <trkpt lat="42.4262680" lon="-7.3195730">
        <ele>978.6</ele>
        <time>2014-10-02T08:50:20Z</time>
      </trkpt>
      <trkpt lat="42.4262970" lon="-7.3194900">
        <ele>978.3</ele>
        <time>2014-10-02T08:50:21Z</time>
      </trkpt>
      <trkpt lat="42.4263240" lon="-7.3194020">
        <ele>977.8</ele>
        <time>2014-10-02T08:50:22Z</time>
      </trkpt>
      <trkpt lat="42.4263480" lon="-7.3193060">
        <ele>977.3</ele>
        <time>2014-10-02T08:50:23Z</time>
      </trkpt>
      <trkpt lat="42.4263680" lon="-7.3192010">
        <ele>976.8</ele>
        <time>2014-10-02T08:50:24Z</time>
      </trkpt>
      <trkpt lat="42.4263700" lon="-7.3190900">
        <ele>976.2</ele>
        <time>2014-10-02T08:50:25Z</time>
      </trkpt>
      <trkpt lat="42.4263720" lon="-7.3189770">
        <ele>975.6</ele>
        <time>2014-10-02T08:50:26Z</time>
      </trkpt>
      <trkpt lat="42.4263750" lon="-7.3188570">
        <ele>974.9</ele>
        <time>2014-10-02T08:50:27Z</time>
      </trkpt>
      <trkpt lat="42.4263760" lon="-7.3187360">
        <ele>974.3</ele>
        <time>2014-10-02T08:50:28Z</time>
      </trkpt>
      <trkpt lat="42.4263780" lon="-7.3186080">
        <ele>973.7</ele>
        <time>2014-10-02T08:50:29Z</time>
      </trkpt>
      <trkpt lat="42.4263770" lon="-7.3184860">
        <ele>973.2</ele>
        <time>2014-10-02T08:50:30Z</time>
      </trkpt>
      <trkpt lat="42.4263760" lon="-7.3183630">
        <ele>972.9</ele>
        <time>2014-10-02T08:50:31Z</time>
      </trkpt>
      <trkpt lat="42.4263750" lon="-7.3182420">
        <ele>972.7</ele>
        <time>2014-10-02T08:50:32Z</time>
      </trkpt>
      <trkpt lat="42.4263760" lon="-7.3181300">
        <ele>972.7</ele>
        <time>2014-10-02T08:50:33Z</time>
      </trkpt>
      <trkpt lat="42.4263800" lon="-7.3180400">
        <ele>972.6</ele>
        <time>2014-10-02T08:50:34Z</time>
      </trkpt>
      <trkpt lat="42.4264010" lon="-7.3179820">
        <ele>972.5</ele>
        <time>2014-10-02T08:50:35Z</time>
      </trkpt>
      <trkpt lat="42.4264310" lon="-7.3179380">
        <ele>971.8</ele>
        <time>2014-10-02T08:50:36Z</time>
      </trkpt>
      <trkpt lat="42.4264700" lon="-7.3179250">
        <ele>971.5</ele>
        <time>2014-10-02T08:50:37Z</time>
      </trkpt>
      <trkpt lat="42.4265060" lon="-7.3179510">
        <ele>971.2</ele>
        <time>2014-10-02T08:50:38Z</time>
      </trkpt>
      <trkpt lat="42.4265400" lon="-7.3179830">
        <ele>970.8</ele>
        <time>2014-10-02T08:50:39Z</time>
      </trkpt>
      <trkpt lat="42.4265790" lon="-7.3180370">
        <ele>970.3</ele>
        <time>2014-10-02T08:50:40Z</time>
      </trkpt>
      <trkpt lat="42.4266200" lon="-7.3180920">
        <ele>969.8</ele>
        <time>2014-10-02T08:50:41Z</time>
      </trkpt>
      <trkpt lat="42.4266640" lon="-7.3181550">
        <ele>969.2</ele>
        <time>2014-10-02T08:50:42Z</time>
      </trkpt>
      <trkpt lat="42.4267100" lon="-7.3182190">
        <ele>968.7</ele>
        <time>2014-10-02T08:50:43Z</time>
      </trkpt>
      <trkpt lat="42.4267570" lon="-7.3182870">
        <ele>968.0</ele>
        <time>2014-10-02T08:50:44Z</time>
      </trkpt>
      <trkpt lat="42.4268040" lon="-7.3183560">
        <ele>967.4</ele>
        <time>2014-10-02T08:50:45Z</time>
      </trkpt>
      <trkpt lat="42.4268500" lon="-7.3184320">
        <ele>966.7</ele>
        <time>2014-10-02T08:50:46Z</time>
      </trkpt>
      <trkpt lat="42.4268910" lon="-7.3185090">
        <ele>966.0</ele>
        <time>2014-10-02T08:50:47Z</time>
      </trkpt>
      <trkpt lat="42.4269300" lon="-7.3185850">
        <ele>965.3</ele>
        <time>2014-10-02T08:50:48Z</time>
      </trkpt>
      <trkpt lat="42.4269700" lon="-7.3186640">
        <ele>964.5</ele>
        <time>2014-10-02T08:50:49Z</time>
      </trkpt>
      <trkpt lat="42.4270120" lon="-7.3187460">
        <ele>963.6</ele>
        <time>2014-10-02T08:50:50Z</time>
      </trkpt>
      <trkpt lat="42.4270620" lon="-7.3188310">
        <ele>962.5</ele>
        <time>2014-10-02T08:50:51Z</time>
      </trkpt>
      <trkpt lat="42.4271190" lon="-7.3189120">
        <ele>961.4</ele>
        <time>2014-10-02T08:50:52Z</time>
      </trkpt>
      <trkpt lat="42.4271890" lon="-7.3189870">
        <ele>960.2</ele>
        <time>2014-10-02T08:50:53Z</time>
      </trkpt>
      <trkpt lat="42.4272750" lon="-7.3190500">
        <ele>958.9</ele>
        <time>2014-10-02T08:50:54Z</time>
      </trkpt>
      <trkpt lat="42.4273640" lon="-7.3191030">
        <ele>957.5</ele>
        <time>2014-10-02T08:50:55Z</time>
      </trkpt>
      <trkpt lat="42.4274600" lon="-7.3191670">
        <ele>956.0</ele>
        <time>2014-10-02T08:50:56Z</time>
      </trkpt>
      <trkpt lat="42.4275530" lon="-7.3192240">
        <ele>954.6</ele>
        <time>2014-10-02T08:50:57Z</time>
      </trkpt>
      <trkpt lat="42.4276480" lon="-7.3192830">
        <ele>953.2</ele>
        <time>2014-10-02T08:50:58Z</time>
      </trkpt>
      <trkpt lat="42.4277500" lon="-7.3193350">
        <ele>951.7</ele>
        <time>2014-10-02T08:50:59Z</time>
      </trkpt>
      <trkpt lat="42.4278610" lon="-7.3193610">
        <ele>950.2</ele>
        <time>2014-10-02T08:51:00Z</time>
      </trkpt>
      <trkpt lat="42.4279770" lon="-7.3193890">
        <ele>948.6</ele>
        <time>2014-10-02T08:51:01Z</time>
      </trkpt>
      <trkpt lat="42.4280950" lon="-7.3194050">
        <ele>947.0</ele>
        <time>2014-10-02T08:51:02Z</time>
      </trkpt>
      <trkpt lat="42.4282130" lon="-7.3194050">
        <ele>945.5</ele>
        <time>2014-10-02T08:51:03Z</time>
      </trkpt>
      <trkpt lat="42.4283340" lon="-7.3194000">
        <ele>944.0</ele>
        <time>2014-10-02T08:51:04Z</time>
      </trkpt>
      <trkpt lat="42.4284500" lon="-7.3193860">
        <ele>942.6</ele>
        <time>2014-10-02T08:51:05Z</time>
      </trkpt>
      <trkpt lat="42.4285540" lon="-7.3193600">
        <ele>941.3</ele>
        <time>2014-10-02T08:51:06Z</time>
      </trkpt>
      <trkpt lat="42.4286580" lon="-7.3193330">
        <ele>940.0</ele>
        <time>2014-10-02T08:51:07Z</time>
      </trkpt>
      <trkpt lat="42.4287620" lon="-7.3193060">
        <ele>938.6</ele>
        <time>2014-10-02T08:51:08Z</time>
      </trkpt>
      <trkpt lat="42.4288640" lon="-7.3192780">
        <ele>937.3</ele>
        <time>2014-10-02T08:51:09Z</time>
      </trkpt>
      <trkpt lat="42.4289680" lon="-7.3192440">
        <ele>935.9</ele>
        <time>2014-10-02T08:51:10Z</time>
      </trkpt>
      <trkpt lat="42.4290810" lon="-7.3191940">
        <ele>934.2</ele>
        <time>2014-10-02T08:51:11Z</time>
      </trkpt>
      <trkpt lat="42.4291760" lon="-7.3191010">
        <ele>932.5</ele>
        <time>2014-10-02T08:51:12Z</time>
      </trkpt>
      <trkpt lat="42.4292730" lon="-7.3189950">
        <ele>931.2</ele>
        <time>2014-10-02T08:51:13Z</time>
      </trkpt>
      <trkpt lat="42.4293640" lon="-7.3188840">
        <ele>929.7</ele>
        <time>2014-10-02T08:51:14Z</time>
      </trkpt>
      <trkpt lat="42.4294510" lon="-7.3187520">
        <ele>928.3</ele>
        <time>2014-10-02T08:51:15Z</time>
      </trkpt>
      <trkpt lat="42.4295370" lon="-7.3186130">
        <ele>926.8</ele>
        <time>2014-10-02T08:51:16Z</time>
      </trkpt>
      <trkpt lat="42.4296190" lon="-7.3184800">
        <ele>925.4</ele>
        <time>2014-10-02T08:51:17Z</time>
      </trkpt>
      <trkpt lat="42.4297060" lon="-7.3183720">
        <ele>924.1</ele>
        <time>2014-10-02T08:51:18Z</time>
      </trkpt>
      <trkpt lat="42.4298180" lon="-7.3183170">
        <ele>923.7</ele>
        <time>2014-10-02T08:51:19Z</time>
      </trkpt>
      <trkpt lat="42.4299380" lon="-7.3182690">
        <ele>922.9</ele>
        <time>2014-10-02T08:51:20Z</time>
      </trkpt>
      <trkpt lat="42.4300590" lon="-7.3182310">
        <ele>921.9</ele>
        <time>2014-10-02T08:51:21Z</time>
      </trkpt>
      <trkpt lat="42.4301820" lon="-7.3182010">
        <ele>921.0</ele>
        <time>2014-10-02T08:51:22Z</time>
      </trkpt>
      <trkpt lat="42.4303050" lon="-7.3181740">
        <ele>920.1</ele>
        <time>2014-10-02T08:51:23Z</time>
      </trkpt>
      <trkpt lat="42.4304280" lon="-7.3181470">
        <ele>919.0</ele>
        <time>2014-10-02T08:51:24Z</time>
      </trkpt>
      <trkpt lat="42.4305540" lon="-7.3181180">
        <ele>918.0</ele>
        <time>2014-10-02T08:51:25Z</time>
      </trkpt>
      <trkpt lat="42.4306840" lon="-7.3180860">
        <ele>916.9</ele>
        <time>2014-10-02T08:51:26Z</time>
      </trkpt>
      <trkpt lat="42.4308160" lon="-7.3180500">
        <ele>915.9</ele>
        <time>2014-10-02T08:51:27Z</time>
      </trkpt>
      <trkpt lat="42.4309470" lon="-7.3180070">
        <ele>914.8</ele>
        <time>2014-10-02T08:51:28Z</time>
      </trkpt>
      <trkpt lat="42.4310760" lon="-7.3179560">
        <ele>913.7</ele>
        <time>2014-10-02T08:51:29Z</time>
      </trkpt>
      <trkpt lat="42.4312080" lon="-7.3178920">
        <ele>912.6</ele>
        <time>2014-10-02T08:51:30Z</time>
      </trkpt>
      <trkpt lat="42.4313320" lon="-7.3178190">
        <ele>911.5</ele>
        <time>2014-10-02T08:51:31Z</time>
      </trkpt>
      <trkpt lat="42.4314590" lon="-7.3177350">
        <ele>910.3</ele>
        <time>2014-10-02T08:51:32Z</time>
      </trkpt>
      <trkpt lat="42.4315760" lon="-7.3176460">
        <ele>909.3</ele>
        <time>2014-10-02T08:51:33Z</time>
      </trkpt>
      <trkpt lat="42.4316890" lon="-7.3175500">
        <ele>908.3</ele>
        <time>2014-10-02T08:51:34Z</time>
      </trkpt>
      <trkpt lat="42.4317940" lon="-7.3174440">
        <ele>907.2</ele>
        <time>2014-10-02T08:51:35Z</time>
      </trkpt>
      <trkpt lat="42.4318770" lon="-7.3172960">
        <ele>906.0</ele>
        <time>2014-10-02T08:51:36Z</time>
      </trkpt>
      <trkpt lat="42.4319540" lon="-7.3171440">
        <ele>904.7</ele>
        <time>2014-10-02T08:51:37Z</time>
      </trkpt>
      <trkpt lat="42.4320040" lon="-7.3169800">
        <ele>903.5</ele>
        <time>2014-10-02T08:51:38Z</time>
      </trkpt>
      <trkpt lat="42.4320530" lon="-7.3168060">
        <ele>902.1</ele>
        <time>2014-10-02T08:51:39Z</time>
      </trkpt>
      <trkpt lat="42.4321000" lon="-7.3166290">
        <ele>900.7</ele>
        <time>2014-10-02T08:51:40Z</time>
      </trkpt>
      <trkpt lat="42.4321430" lon="-7.3164550">
        <ele>899.4</ele>
        <time>2014-10-02T08:51:41Z</time>
      </trkpt>
      <trkpt lat="42.4321790" lon="-7.3162780">
        <ele>898.1</ele>
        <time>2014-10-02T08:51:42Z</time>
      </trkpt>
      <trkpt lat="42.4322060" lon="-7.3161040">
        <ele>896.9</ele>
        <time>2014-10-02T08:51:43Z</time>
      </trkpt>
      <trkpt lat="42.4322190" lon="-7.3159470">
        <ele>895.9</ele>
        <time>2014-10-02T08:51:44Z</time>
      </trkpt>
      <trkpt lat="42.4322040" lon="-7.3157750">
        <ele>894.6</ele>
        <time>2014-10-02T08:51:45Z</time>
      </trkpt>
      <trkpt lat="42.4321600" lon="-7.3156120">
        <ele>893.4</ele>
        <time>2014-10-02T08:51:46Z</time>
      </trkpt>
      <trkpt lat="42.4321070" lon="-7.3154570">
        <ele>892.1</ele>
        <time>2014-10-02T08:51:47Z</time>
      </trkpt>
      <trkpt lat="42.4320440" lon="-7.3152990">
        <ele>891.1</ele>
        <time>2014-10-02T08:51:48Z</time>
      </trkpt>
      <trkpt lat="42.4319770" lon="-7.3151330">
        <ele>890.2</ele>
        <time>2014-10-02T08:51:49Z</time>
      </trkpt>
      <trkpt lat="42.4319130" lon="-7.3149820">
        <ele>889.7</ele>
        <time>2014-10-02T08:51:50Z</time>
      </trkpt>
      <trkpt lat="42.4318430" lon="-7.3148450">
        <ele>889.4</ele>
        <time>2014-10-02T08:51:51Z</time>
      </trkpt>
      <trkpt lat="42.4317490" lon="-7.3147360">
        <ele>889.3</ele>
        <time>2014-10-02T08:51:52Z</time>
      </trkpt>
      <trkpt lat="42.4316510" lon="-7.3146300">
        <ele>889.3</ele>
        <time>2014-10-02T08:51:53Z</time>
      </trkpt>
      <trkpt lat="42.4315570" lon="-7.3145410">
        <ele>889.4</ele>
        <time>2014-10-02T08:51:54Z</time>
      </trkpt>
      <trkpt lat="42.4314630" lon="-7.3144570">
        <ele>889.4</ele>
        <time>2014-10-02T08:51:55Z</time>
      </trkpt>
      <trkpt lat="42.4313830" lon="-7.3143870">
        <ele>889.4</ele>
        <time>2014-10-02T08:51:56Z</time>
      </trkpt>
      <trkpt lat="42.4312810" lon="-7.3143140">
        <ele>889.3</ele>
        <time>2014-10-02T08:51:57Z</time>
      </trkpt>
      <trkpt lat="42.4311690" lon="-7.3142580">
        <ele>889.0</ele>
        <time>2014-10-02T08:51:58Z</time>
      </trkpt>
      <trkpt lat="42.4310780" lon="-7.3142090">
        <ele>888.5</ele>
        <time>2014-10-02T08:51:59Z</time>
      </trkpt>
      <trkpt lat="42.4309930" lon="-7.3141590">
        <ele>887.9</ele>
        <time>2014-10-02T08:52:00Z</time>
      </trkpt>
      <trkpt lat="42.4309240" lon="-7.3140760">
        <ele>887.2</ele>
        <time>2014-10-02T08:52:01Z</time>
      </trkpt>
      <trkpt lat="42.4308810" lon="-7.3139770">
        <ele>886.5</ele>
        <time>2014-10-02T08:52:02Z</time>
      </trkpt>
      <trkpt lat="42.4308660" lon="-7.3138740">
        <ele>885.7</ele>
        <time>2014-10-02T08:52:03Z</time>
      </trkpt>
      <trkpt lat="42.4308590" lon="-7.3137700">
        <ele>885.0</ele>
        <time>2014-10-02T08:52:04Z</time>
      </trkpt>
      <trkpt lat="42.4308900" lon="-7.3136620">
        <ele>884.1</ele>
        <time>2014-10-02T08:52:05Z</time>
      </trkpt>
      <trkpt lat="42.4309830" lon="-7.3135900">
        <ele>883.0</ele>
        <time>2014-10-02T08:52:06Z</time>
      </trkpt>
      <trkpt lat="42.4310820" lon="-7.3135190">
        <ele>881.9</ele>
        <time>2014-10-02T08:52:07Z</time>
      </trkpt>
      <trkpt lat="42.4311930" lon="-7.3134610">
        <ele>880.6</ele>
        <time>2014-10-02T08:52:08Z</time>
      </trkpt>
      <trkpt lat="42.4313090" lon="-7.3134160">
        <ele>879.5</ele>
        <time>2014-10-02T08:52:09Z</time>
      </trkpt>
      <trkpt lat="42.4314260" lon="-7.3133700">
        <ele>878.3</ele>
        <time>2014-10-02T08:52:10Z</time>
      </trkpt>
      <trkpt lat="42.4315450" lon="-7.3133230">
        <ele>877.0</ele>
        <time>2014-10-02T08:52:11Z</time>
      </trkpt>
      <trkpt lat="42.4316600" lon="-7.3132700">
        <ele>875.8</ele>
        <time>2014-10-02T08:52:12Z</time>
      </trkpt>
      <trkpt lat="42.4317560" lon="-7.3131750">
        <ele>874.6</ele>
        <time>2014-10-02T08:52:13Z</time>
      </trkpt>
      <trkpt lat="42.4318520" lon="-7.3130580">
        <ele>873.3</ele>
        <time>2014-10-02T08:52:14Z</time>
      </trkpt>
      <trkpt lat="42.4319470" lon="-7.3129300">
        <ele>871.9</ele>
        <time>2014-10-02T08:52:15Z</time>
      </trkpt>
      <trkpt lat="42.4320310" lon="-7.3128100">
        <ele>870.6</ele>
        <time>2014-10-02T08:52:16Z</time>
      </trkpt>
      <trkpt lat="42.4321010" lon="-7.3126980">
        <ele>869.5</ele>
        <time>2014-10-02T08:52:17Z</time>
      </trkpt>
      <trkpt lat="42.4321340" lon="-7.3125600">
        <ele>868.4</ele>
        <time>2014-10-02T08:52:18Z</time>
      </trkpt>
      <trkpt lat="42.4321200" lon="-7.3124200">
        <ele>867.4</ele>
        <time>2014-10-02T08:52:19Z</time>
      </trkpt>
      <trkpt lat="42.4320990" lon="-7.3122660">
        <ele>866.7</ele>
        <time>2014-10-02T08:52:20Z</time>
      </trkpt>
      <trkpt lat="42.4320710" lon="-7.3121040">
        <ele>866.2</ele>
        <time>2014-10-02T08:52:21Z</time>
      </trkpt>
      <trkpt lat="42.4320430" lon="-7.3119420">
        <ele>865.9</ele>
        <time>2014-10-02T08:52:22Z</time>
      </trkpt>
      <trkpt lat="42.4320160" lon="-7.3117790">
        <ele>865.8</ele>
        <time>2014-10-02T08:52:23Z</time>
      </trkpt>
      <trkpt lat="42.4319900" lon="-7.3116220">
        <ele>865.8</ele>
        <time>2014-10-02T08:52:24Z</time>
      </trkpt>
      <trkpt lat="42.4319590" lon="-7.3114680">
        <ele>865.8</ele>
        <time>2014-10-02T08:52:25Z</time>
      </trkpt>
      <trkpt lat="42.4319250" lon="-7.3113260">
        <ele>865.7</ele>
        <time>2014-10-02T08:52:26Z</time>
      </trkpt>
      <trkpt lat="42.4318900" lon="-7.3111970">
        <ele>865.5</ele>
        <time>2014-10-02T08:52:27Z</time>
      </trkpt>
      <trkpt lat="42.4318520" lon="-7.3110710">
        <ele>865.3</ele>
        <time>2014-10-02T08:52:28Z</time>
      </trkpt>
      <trkpt lat="42.4318180" lon="-7.3109450">
        <ele>864.9</ele>
        <time>2014-10-02T08:52:29Z</time>
      </trkpt>
      <trkpt lat="42.4317900" lon="-7.3108050">
        <ele>864.4</ele>
        <time>2014-10-02T08:52:30Z</time>
      </trkpt>
      <trkpt lat="42.4317940" lon="-7.3106690">
        <ele>863.9</ele>
        <time>2014-10-02T08:52:31Z</time>
      </trkpt>
      <trkpt lat="42.4318210" lon="-7.3105330">
        <ele>863.3</ele>
        <time>2014-10-02T08:52:32Z</time>
      </trkpt>
      <trkpt lat="42.4318800" lon="-7.3104140">
        <ele>862.5</ele>
        <time>2014-10-02T08:52:33Z</time>
      </trkpt>
      <trkpt lat="42.4319630" lon="-7.3103340">
        <ele>861.6</ele>
        <time>2014-10-02T08:52:34Z</time>
      </trkpt>
      <trkpt lat="42.4320590" lon="-7.3102990">
        <ele>860.6</ele>
        <time>2014-10-02T08:52:35Z</time>
      </trkpt>
      <trkpt lat="42.4321580" lon="-7.3102710">
        <ele>859.5</ele>
        <time>2014-10-02T08:52:36Z</time>
      </trkpt>
      <trkpt lat="42.4322600" lon="-7.3102530">
        <ele>858.4</ele>
        <time>2014-10-02T08:52:37Z</time>
      </trkpt>
      <trkpt lat="42.4323680" lon="-7.3102680">
        <ele>857.2</ele>
        <time>2014-10-02T08:52:38Z</time>
      </trkpt>
      <trkpt lat="42.4324900" lon="-7.3102830">
        <ele>855.9</ele>
        <time>2014-10-02T08:52:39Z</time>
      </trkpt>
      <trkpt lat="42.4326130" lon="-7.3102930">
        <ele>854.6</ele>
        <time>2014-10-02T08:52:40Z</time>
      </trkpt>
      <trkpt lat="42.4327410" lon="-7.3103110">
        <ele>853.1</ele>
        <time>2014-10-02T08:52:41Z</time>
      </trkpt>
      <trkpt lat="42.4328670" lon="-7.3103270">
        <ele>851.7</ele>
        <time>2014-10-02T08:52:42Z</time>
      </trkpt>
      <trkpt lat="42.4330150" lon="-7.3103430">
        <ele>850.0</ele>
        <time>2014-10-02T08:52:43Z</time>
      </trkpt>
      <trkpt lat="42.4331540" lon="-7.3103560">
        <ele>848.4</ele>
        <time>2014-10-02T08:52:44Z</time>
      </trkpt>
      <trkpt lat="42.4333110" lon="-7.3103740">
        <ele>846.5</ele>
        <time>2014-10-02T08:52:45Z</time>
      </trkpt>
      <trkpt lat="42.4334660" lon="-7.3103950">
        <ele>844.7</ele>
        <time>2014-10-02T08:52:46Z</time>
      </trkpt>
      <trkpt lat="42.4336250" lon="-7.3104370">
        <ele>842.9</ele>
        <time>2014-10-02T08:52:47Z</time>
      </trkpt>
      <trkpt lat="42.4337880" lon="-7.3104910">
        <ele>841.0</ele>
        <time>2014-10-02T08:52:48Z</time>
      </trkpt>
      <trkpt lat="42.4339440" lon="-7.3105440">
        <ele>839.2</ele>
        <time>2014-10-02T08:52:49Z</time>
      </trkpt>
      <trkpt lat="42.4341030" lon="-7.3105990">
        <ele>837.4</ele>
        <time>2014-10-02T08:52:50Z</time>
      </trkpt>
      <trkpt lat="42.4342640" lon="-7.3106590">
        <ele>835.5</ele>
        <time>2014-10-02T08:52:51Z</time>
      </trkpt>
      <trkpt lat="42.4344350" lon="-7.3107240">
        <ele>833.6</ele>
        <time>2014-10-02T08:52:52Z</time>
      </trkpt>
      <trkpt lat="42.4346060" lon="-7.3107940">
        <ele>831.6</ele>
        <time>2014-10-02T08:52:53Z</time>
      </trkpt>
      <trkpt lat="42.4347790" lon="-7.3108680">
        <ele>829.6</ele>
        <time>2014-10-02T08:52:54Z</time>
      </trkpt>
      <trkpt lat="42.4349490" lon="-7.3109530">
        <ele>827.6</ele>
        <time>2014-10-02T08:52:55Z</time>
      </trkpt>
      <trkpt lat="42.4351190" lon="-7.3110320">
        <ele>825.6</ele>
        <time>2014-10-02T08:52:56Z</time>
      </trkpt>
      <trkpt lat="42.4352820" lon="-7.3111340">
        <ele>823.6</ele>
        <time>2014-10-02T08:52:57Z</time>
      </trkpt>
      <trkpt lat="42.4354450" lon="-7.3112210">
        <ele>821.7</ele>
        <time>2014-10-02T08:52:58Z</time>
      </trkpt>
      <trkpt lat="42.4356140" lon="-7.3112920">
        <ele>819.8</ele>
        <time>2014-10-02T08:52:59Z</time>
      </trkpt>
      <trkpt lat="42.4357830" lon="-7.3113550">
        <ele>818.0</ele>
        <time>2014-10-02T08:53:00Z</time>
      </trkpt>
      <trkpt lat="42.4359550" lon="-7.3114140">
        <ele>816.1</ele>
        <time>2014-10-02T08:53:01Z</time>
      </trkpt>
      <trkpt lat="42.4361190" lon="-7.3114700">
        <ele>814.1</ele>
        <time>2014-10-02T08:53:02Z</time>
      </trkpt>
      <trkpt lat="42.4362830" lon="-7.3115090">
        <ele>812.1</ele>
        <time>2014-10-02T08:53:03Z</time>
      </trkpt>
      <trkpt lat="42.4364460" lon="-7.3115480">
        <ele>810.2</ele>
        <time>2014-10-02T08:53:04Z</time>
      </trkpt>
      <trkpt lat="42.4366090" lon="-7.3115840">
        <ele>808.3</ele>
        <time>2014-10-02T08:53:05Z</time>
      </trkpt>
      <trkpt lat="42.4367730" lon="-7.3116180">
        <ele>806.3</ele>
        <time>2014-10-02T08:53:06Z</time>
      </trkpt>
      <trkpt lat="42.4369310" lon="-7.3116350">
        <ele>804.5</ele>
        <time>2014-10-02T08:53:07Z</time>
      </trkpt>
      <trkpt lat="42.4370860" lon="-7.3116410">
        <ele>802.7</ele>
        <time>2014-10-02T08:53:08Z</time>
      </trkpt>
      <trkpt lat="42.4372700" lon="-7.3116210">
        <ele>800.5</ele>
        <time>2014-10-02T08:53:09Z</time>
      </trkpt>
      <trkpt lat="42.4374500" lon="-7.3115970">
        <ele>798.4</ele>
        <time>2014-10-02T08:53:10Z</time>
      </trkpt>
      <trkpt lat="42.4376200" lon="-7.3115650">
        <ele>796.5</ele>
        <time>2014-10-02T08:53:11Z</time>
      </trkpt>
      <trkpt lat="42.4377990" lon="-7.3115160">
        <ele>794.3</ele>
        <time>2014-10-02T08:53:12Z</time>
      </trkpt>
      <trkpt lat="42.4379840" lon="-7.3114620">
        <ele>792.2</ele>
        <time>2014-10-02T08:53:13Z</time>
      </trkpt>
      <trkpt lat="42.4381750" lon="-7.3114110">
        <ele>790.0</ele>
        <time>2014-10-02T08:53:14Z</time>
      </trkpt>
      <trkpt lat="42.4383850" lon="-7.3113740">
        <ele>787.6</ele>
        <time>2014-10-02T08:53:15Z</time>
      </trkpt>
      <trkpt lat="42.4385810" lon="-7.3113510">
        <ele>785.4</ele>
        <time>2014-10-02T08:53:16Z</time>
      </trkpt>
      <trkpt lat="42.4387780" lon="-7.3113500">
        <ele>783.1</ele>
        <time>2014-10-02T08:53:17Z</time>
      </trkpt>
      <trkpt lat="42.4389740" lon="-7.3113730">
        <ele>781.0</ele>
        <time>2014-10-02T08:53:18Z</time>
      </trkpt>
      <trkpt lat="42.4391720" lon="-7.3113980">
        <ele>778.9</ele>
        <time>2014-10-02T08:53:19Z</time>
      </trkpt>
      <trkpt lat="42.4393500" lon="-7.3114290">
        <ele>776.9</ele>
        <time>2014-10-02T08:53:20Z</time>
      </trkpt>
      <trkpt lat="42.4395210" lon="-7.3114610">
        <ele>775.0</ele>
        <time>2014-10-02T08:53:21Z</time>
      </trkpt>
      <trkpt lat="42.4396720" lon="-7.3114910">
        <ele>773.4</ele>
        <time>2014-10-02T08:53:22Z</time>
      </trkpt>
      <trkpt lat="42.4398230" lon="-7.3115390">
        <ele>771.8</ele>
        <time>2014-10-02T08:53:23Z</time>
      </trkpt>
      <trkpt lat="42.4399550" lon="-7.3115680">
        <ele>770.4</ele>
        <time>2014-10-02T08:53:24Z</time>
      </trkpt>
      <trkpt lat="42.4400850" lon="-7.3115430">
        <ele>768.9</ele>
        <time>2014-10-02T08:53:25Z</time>
      </trkpt>
      <trkpt lat="42.4402160" lon="-7.3115070">
        <ele>767.5</ele>
        <time>2014-10-02T08:53:26Z</time>
      </trkpt>
      <trkpt lat="42.4403470" lon="-7.3114630">
        <ele>766.1</ele>
        <time>2014-10-02T08:53:27Z</time>
      </trkpt>
      <trkpt lat="42.4404800" lon="-7.3114170">
        <ele>764.7</ele>
        <time>2014-10-02T08:53:28Z</time>
      </trkpt>
      <trkpt lat="42.4405970" lon="-7.3113390">
        <ele>763.3</ele>
        <time>2014-10-02T08:53:29Z</time>
      </trkpt>
      <trkpt lat="42.4406600" lon="-7.3112360">
        <ele>762.3</ele>
        <time>2014-10-02T08:53:30Z</time>
      </trkpt>
      <trkpt lat="42.4406950" lon="-7.3111230">
        <ele>761.3</ele>
        <time>2014-10-02T08:53:31Z</time>
      </trkpt>
      <trkpt lat="42.4406940" lon="-7.3109960">
        <ele>760.4</ele>
        <time>2014-10-02T08:53:32Z</time>
      </trkpt>
      <trkpt lat="42.4406610" lon="-7.3108540">
        <ele>759.3</ele>
        <time>2014-10-02T08:53:33Z</time>
      </trkpt>
      <trkpt lat="42.4406150" lon="-7.3107060">
        <ele>758.1</ele>
        <time>2014-10-02T08:53:34Z</time>
      </trkpt>
      <trkpt lat="42.4405670" lon="-7.3105530">
        <ele>756.8</ele>
        <time>2014-10-02T08:53:35Z</time>
      </trkpt>
      <trkpt lat="42.4405120" lon="-7.3103940">
        <ele>755.5</ele>
        <time>2014-10-02T08:53:36Z</time>
      </trkpt>
      <trkpt lat="42.4404670" lon="-7.3102340">
        <ele>754.2</ele>
        <time>2014-10-02T08:53:37Z</time>
      </trkpt>
      <trkpt lat="42.4404290" lon="-7.3100660">
        <ele>752.8</ele>
        <time>2014-10-02T08:53:38Z</time>
      </trkpt>
      <trkpt lat="42.4403940" lon="-7.3098900">
        <ele>751.4</ele>
        <time>2014-10-02T08:53:39Z</time>
      </trkpt>
      <trkpt lat="42.4403560" lon="-7.3097060">
        <ele>749.9</ele>
        <time>2014-10-02T08:53:40Z</time>
      </trkpt>
      <trkpt lat="42.4403200" lon="-7.3095250">
        <ele>748.4</ele>
        <time>2014-10-02T08:53:41Z</time>
      </trkpt>
      <trkpt lat="42.4402820" lon="-7.3093490">
        <ele>747.0</ele>
        <time>2014-10-02T08:53:42Z</time>
      </trkpt>
      <trkpt lat="42.4402370" lon="-7.3091740">
        <ele>745.5</ele>
        <time>2014-10-02T08:53:43Z</time>
      </trkpt>
      <trkpt lat="42.4401840" lon="-7.3090020">
        <ele>743.9</ele>
        <time>2014-10-02T08:53:44Z</time>
      </trkpt>
      <trkpt lat="42.4401280" lon="-7.3088330">
        <ele>742.5</ele>
        <time>2014-10-02T08:53:45Z</time>
      </trkpt>
      <trkpt lat="42.4400710" lon="-7.3086600">
        <ele>741.0</ele>
        <time>2014-10-02T08:53:46Z</time>
      </trkpt>
      <trkpt lat="42.4400240" lon="-7.3084810">
        <ele>739.5</ele>
        <time>2014-10-02T08:53:47Z</time>
      </trkpt>
      <trkpt lat="42.4400100" lon="-7.3083150">
        <ele>738.1</ele>
        <time>2014-10-02T08:53:48Z</time>
      </trkpt>
      <trkpt lat="42.4399950" lon="-7.3081670">
        <ele>736.8</ele>
        <time>2014-10-02T08:53:49Z</time>
      </trkpt>
      <trkpt lat="42.4399480" lon="-7.3080530">
        <ele>735.7</ele>
        <time>2014-10-02T08:53:50Z</time>
      </trkpt>
      <trkpt lat="42.4398700" lon="-7.3079570">
        <ele>734.4</ele>
        <time>2014-10-02T08:53:51Z</time>
      </trkpt>
      <trkpt lat="42.4397890" lon="-7.3078700">
        <ele>733.3</ele>
        <time>2014-10-02T08:53:52Z</time>
      </trkpt>
      <trkpt lat="42.4397040" lon="-7.3077960">
        <ele>732.2</ele>
        <time>2014-10-02T08:53:53Z</time>
      </trkpt>
      <trkpt lat="42.4396160" lon="-7.3077600">
        <ele>731.3</ele>
        <time>2014-10-02T08:53:54Z</time>
      </trkpt>
      <trkpt lat="42.4395190" lon="-7.3077540">
        <ele>730.3</ele>
        <time>2014-10-02T08:53:55Z</time>
      </trkpt>
      <trkpt lat="42.4394160" lon="-7.3077590">
        <ele>729.4</ele>
        <time>2014-10-02T08:53:56Z</time>
      </trkpt>
      <trkpt lat="42.4393100" lon="-7.3078010">
        <ele>728.4</ele>
        <time>2014-10-02T08:53:57Z</time>
      </trkpt>
      <trkpt lat="42.4392060" lon="-7.3078380">
        <ele>727.4</ele>
        <time>2014-10-02T08:53:58Z</time>
      </trkpt>
      <trkpt lat="42.4390940" lon="-7.3078270">
        <ele>726.3</ele>
        <time>2014-10-02T08:53:59Z</time>
      </trkpt>
      <trkpt lat="42.4389820" lon="-7.3078090">
        <ele>725.2</ele>
        <time>2014-10-02T08:54:00Z</time>
      </trkpt>
      <trkpt lat="42.4388770" lon="-7.3077490">
        <ele>724.0</ele>
        <time>2014-10-02T08:54:01Z</time>
      </trkpt>
      <trkpt lat="42.4387660" lon="-7.3076840">
        <ele>722.8</ele>
        <time>2014-10-02T08:54:02Z</time>
      </trkpt>
      <trkpt lat="42.4386670" lon="-7.3075730">
        <ele>721.4</ele>
        <time>2014-10-02T08:54:03Z</time>
      </trkpt>
      <trkpt lat="42.4385780" lon="-7.3074570">
        <ele>720.2</ele>
        <time>2014-10-02T08:54:04Z</time>
      </trkpt>
      <trkpt lat="42.4384880" lon="-7.3073340">
        <ele>718.9</ele>
        <time>2014-10-02T08:54:05Z</time>
      </trkpt>
      <trkpt lat="42.4383930" lon="-7.3072160">
        <ele>717.5</ele>
        <time>2014-10-02T08:54:06Z</time>
      </trkpt>
      <trkpt lat="42.4382940" lon="-7.3070920">
        <ele>716.1</ele>
        <time>2014-10-02T08:54:07Z</time>
      </trkpt>
      <trkpt lat="42.4382120" lon="-7.3069380">
        <ele>714.7</ele>
        <time>2014-10-02T08:54:08Z</time>
      </trkpt>
      <trkpt lat="42.4381340" lon="-7.3067730">
        <ele>713.4</ele>
        <time>2014-10-02T08:54:09Z</time>
      </trkpt>
      <trkpt lat="42.4380560" lon="-7.3065990">
        <ele>712.0</ele>
        <time>2014-10-02T08:54:10Z</time>
      </trkpt>
      <trkpt lat="42.4380060" lon="-7.3064490">
        <ele>710.9</ele>
        <time>2014-10-02T08:54:11Z</time>
      </trkpt>
      <trkpt lat="42.4379530" lon="-7.3062990">
        <ele>709.7</ele>
        <time>2014-10-02T08:54:12Z</time>
      </trkpt>
      <trkpt lat="42.4379030" lon="-7.3061560">
        <ele>708.5</ele>
        <time>2014-10-02T08:54:13Z</time>
      </trkpt>
      <trkpt lat="42.4378540" lon="-7.3060110">
        <ele>707.3</ele>
        <time>2014-10-02T08:54:14Z</time>
      </trkpt>
      <trkpt lat="42.4378070" lon="-7.3058720">
        <ele>706.2</ele>
        <time>2014-10-02T08:54:15Z</time>
      </trkpt>
      <trkpt lat="42.4377710" lon="-7.3057420">
        <ele>705.3</ele>
        <time>2014-10-02T08:54:16Z</time>
      </trkpt>
      <trkpt lat="42.4377510" lon="-7.3056270">
        <ele>704.4</ele>
        <time>2014-10-02T08:54:17Z</time>
      </trkpt>
      <trkpt lat="42.4377490" lon="-7.3055190">
        <ele>703.5</ele>
        <time>2014-10-02T08:54:18Z</time>
      </trkpt>
      <trkpt lat="42.4377540" lon="-7.3054210">
        <ele>702.7</ele>
        <time>2014-10-02T08:54:19Z</time>
      </trkpt>
      <trkpt lat="42.4377690" lon="-7.3053270">
        <ele>701.9</ele>
        <time>2014-10-02T08:54:20Z</time>
      </trkpt>
      <trkpt lat="42.4378300" lon="-7.3052460">
        <ele>700.9</ele>
        <time>2014-10-02T08:54:21Z</time>
      </trkpt>
      <trkpt lat="42.4379120" lon="-7.3051960">
        <ele>699.9</ele>
        <time>2014-10-02T08:54:22Z</time>
      </trkpt>
      <trkpt lat="42.4379920" lon="-7.3051520">
        <ele>699.0</ele>
        <time>2014-10-02T08:54:23Z</time>
      </trkpt>
      <trkpt lat="42.4380940" lon="-7.3051650">
        <ele>697.9</ele>
        <time>2014-10-02T08:54:24Z</time>
      </trkpt>
      <trkpt lat="42.4381950" lon="-7.3051910">
        <ele>696.8</ele>
        <time>2014-10-02T08:54:25Z</time>
      </trkpt>
      <trkpt lat="42.4382980" lon="-7.3052400">
        <ele>695.6</ele>
        <time>2014-10-02T08:54:26Z</time>
      </trkpt>
      <trkpt lat="42.4384010" lon="-7.3053170">
        <ele>694.3</ele>
        <time>2014-10-02T08:54:27Z</time>
      </trkpt>
      <trkpt lat="42.4384990" lon="-7.3053680">
        <ele>693.1</ele>
        <time>2014-10-02T08:54:28Z</time>
      </trkpt>
      <trkpt lat="42.4386070" lon="-7.3054260">
        <ele>691.8</ele>
        <time>2014-10-02T08:54:29Z</time>
      </trkpt>
      <trkpt lat="42.4387290" lon="-7.3054610">
        <ele>690.4</ele>
        <time>2014-10-02T08:54:30Z</time>
      </trkpt>
      <trkpt lat="42.4388510" lon="-7.3055060">
        <ele>689.0</ele>
        <time>2014-10-02T08:54:31Z</time>
      </trkpt>
      <trkpt lat="42.4389600" lon="-7.3055540">
        <ele>687.7</ele>
        <time>2014-10-02T08:54:32Z</time>
      </trkpt>
      <trkpt lat="42.4390540" lon="-7.3056070">
        <ele>686.5</ele>
        <time>2014-10-02T08:54:33Z</time>
      </trkpt>
      <trkpt lat="42.4391310" lon="-7.3056570">
        <ele>685.5</ele>
        <time>2014-10-02T08:54:34Z</time>
      </trkpt>
      <trkpt lat="42.4391920" lon="-7.3057200">
        <ele>684.6</ele>
        <time>2014-10-02T08:54:35Z</time>
      </trkpt>
      <trkpt lat="42.4392450" lon="-7.3057680">
        <ele>683.8</ele>
        <time>2014-10-02T08:54:36Z</time>
      </trkpt>
      <trkpt lat="42.4392850" lon="-7.3058020">
        <ele>683.2</ele>
        <time>2014-10-02T08:54:37Z</time>
      </trkpt>
      <trkpt lat="42.4393210" lon="-7.3058190">
        <ele>682.7</ele>
        <time>2014-10-02T08:54:38Z</time>
      </trkpt>
      <trkpt lat="42.4393580" lon="-7.3058340">
        <ele>682.3</ele>
        <time>2014-10-02T08:54:39Z</time>
      </trkpt>
      <trkpt lat="42.4393960" lon="-7.3058360">
        <ele>681.8</ele>
        <time>2014-10-02T08:54:40Z</time>
      </trkpt>
      <trkpt lat="42.4394270" lon="-7.3058260">
        <ele>681.4</ele>
        <time>2014-10-02T08:54:41Z</time>
      </trkpt>
      <trkpt lat="42.4394510" lon="-7.3057920">
        <ele>681.0</ele>
        <time>2014-10-02T08:54:42Z</time>
      </trkpt>
      <trkpt lat="42.4394890" lon="-7.3057540">
        <ele>680.5</ele>
        <time>2014-10-02T08:54:43Z</time>
      </trkpt>
      <trkpt lat="42.4395320" lon="-7.3056830">
        <ele>679.7</ele>
        <time>2014-10-02T08:54:44Z</time>
      </trkpt>
      <trkpt lat="42.4395820" lon="-7.3055840">
        <ele>678.7</ele>
        <time>2014-10-02T08:54:45Z</time>
      </trkpt>
      <trkpt lat="42.4396150" lon="-7.3054660">
        <ele>677.6</ele>
        <time>2014-10-02T08:54:46Z</time>
      </trkpt>
      <trkpt lat="42.4396450" lon="-7.3053430">
        <ele>676.5</ele>
        <time>2014-10-02T08:54:47Z</time>
      </trkpt>
      <trkpt lat="42.4396710" lon="-7.3052110">
        <ele>675.4</ele>
        <time>2014-10-02T08:54:48Z</time>
      </trkpt>
      <trkpt lat="42.4397010" lon="-7.3050710">
        <ele>674.2</ele>
        <time>2014-10-02T08:54:49Z</time>
      </trkpt>
      <trkpt lat="42.4397270" lon="-7.3049260">
        <ele>672.9</ele>
        <time>2014-10-02T08:54:50Z</time>
      </trkpt>
      <trkpt lat="42.4397470" lon="-7.3047850">
        <ele>671.7</ele>
        <time>2014-10-02T08:54:51Z</time>
      </trkpt>
      <trkpt lat="42.4397620" lon="-7.3046480">
        <ele>670.5</ele>
        <time>2014-10-02T08:54:52Z</time>
      </trkpt>
      <trkpt lat="42.4397780" lon="-7.3045030">
        <ele>669.3</ele>
        <time>2014-10-02T08:54:53Z</time>
      </trkpt>
      <trkpt lat="42.4397990" lon="-7.3043650">
        <ele>668.0</ele>
        <time>2014-10-02T08:54:54Z</time>
      </trkpt>
      <trkpt lat="42.4398250" lon="-7.3042390">
        <ele>666.8</ele>
        <time>2014-10-02T08:54:55Z</time>
      </trkpt>
      <trkpt lat="42.4398500" lon="-7.3041030">
        <ele>665.5</ele>
        <time>2014-10-02T08:54:56Z</time>
      </trkpt>
      <trkpt lat="42.4398600" lon="-7.3039620">
        <ele>664.2</ele>
        <time>2014-10-02T08:54:57Z</time>
      </trkpt>
      <trkpt lat="42.4398700" lon="-7.3038400">
        <ele>663.2</ele>
        <time>2014-10-02T08:54:58Z</time>
      </trkpt>
      <trkpt lat="42.4398860" lon="-7.3037380">
        <ele>662.2</ele>
        <time>2014-10-02T08:54:59Z</time>
      </trkpt>
      <trkpt lat="42.4399110" lon="-7.3036470">
        <ele>661.4</ele>
        <time>2014-10-02T08:55:00Z</time>
      </trkpt>
      <trkpt lat="42.4399420" lon="-7.3035440">
        <ele>660.4</ele>
        <time>2014-10-02T08:55:01Z</time>
      </trkpt>
      <trkpt lat="42.4399960" lon="-7.3034450">
        <ele>659.3</ele>
        <time>2014-10-02T08:55:02Z</time>
      </trkpt>
      <trkpt lat="42.4400690" lon="-7.3033730">
        <ele>658.2</ele>
        <time>2014-10-02T08:55:03Z</time>
      </trkpt>
      <trkpt lat="42.4401610" lon="-7.3033280">
        <ele>656.9</ele>
        <time>2014-10-02T08:55:04Z</time>
      </trkpt>
      <trkpt lat="42.4402720" lon="-7.3033100">
        <ele>655.6</ele>
        <time>2014-10-02T08:55:05Z</time>
      </trkpt>
      <trkpt lat="42.4404010" lon="-7.3032840">
        <ele>654.0</ele>
        <time>2014-10-02T08:55:06Z</time>
      </trkpt>
      <trkpt lat="42.4405260" lon="-7.3032360">
        <ele>652.5</ele>
        <time>2014-10-02T08:55:07Z</time>
      </trkpt>
      <trkpt lat="42.4406650" lon="-7.3031650">
        <ele>650.9</ele>
        <time>2014-10-02T08:55:08Z</time>
      </trkpt>
      <trkpt lat="42.4407740" lon="-7.3030690">
        <ele>649.3</ele>
        <time>2014-10-02T08:55:09Z</time>
      </trkpt>
      <trkpt lat="42.4408840" lon="-7.3029710">
        <ele>647.7</ele>
        <time>2014-10-02T08:55:10Z</time>
      </trkpt>
      <trkpt lat="42.4409960" lon="-7.3028910">
        <ele>646.1</ele>
        <time>2014-10-02T08:55:11Z</time>
      </trkpt>
      <trkpt lat="42.4411310" lon="-7.3028430">
        <ele>644.5</ele>
        <time>2014-10-02T08:55:12Z</time>
      </trkpt>
      <trkpt lat="42.4412710" lon="-7.3027870">
        <ele>642.7</ele>
        <time>2014-10-02T08:55:13Z</time>
      </trkpt>
      <trkpt lat="42.4413940" lon="-7.3027280">
        <ele>641.2</ele>
        <time>2014-10-02T08:55:14Z</time>
      </trkpt>
      <trkpt lat="42.4415150" lon="-7.3026520">
        <ele>639.6</ele>
        <time>2014-10-02T08:55:15Z</time>
      </trkpt>
      <trkpt lat="42.4416310" lon="-7.3025590">
        <ele>638.0</ele>
        <time>2014-10-02T08:55:16Z</time>
      </trkpt>
      <trkpt lat="42.4417520" lon="-7.3024550">
        <ele>636.3</ele>
        <time>2014-10-02T08:55:17Z</time>
      </trkpt>
      <trkpt lat="42.4418780" lon="-7.3023490">
        <ele>634.6</ele>
        <time>2014-10-02T08:55:18Z</time>
      </trkpt>
      <trkpt lat="42.4420070" lon="-7.3022420">
        <ele>632.8</ele>
        <time>2014-10-02T08:55:19Z</time>
      </trkpt>
      <trkpt lat="42.4421480" lon="-7.3021440">
        <ele>631.0</ele>
        <time>2014-10-02T08:55:20Z</time>
      </trkpt>
      <trkpt lat="42.4422980" lon="-7.3020430">
        <ele>629.1</ele>
        <time>2014-10-02T08:55:21Z</time>
      </trkpt>
      <trkpt lat="42.4424450" lon="-7.3019370">
        <ele>627.2</ele>
        <time>2014-10-02T08:55:22Z</time>
      </trkpt>
      <trkpt lat="42.4425940" lon="-7.3018160">
        <ele>625.2</ele>
        <time>2014-10-02T08:55:23Z</time>
      </trkpt>
      <trkpt lat="42.4427470" lon="-7.3016890">
        <ele>623.1</ele>
        <time>2014-10-02T08:55:24Z</time>
      </trkpt>
      <trkpt lat="42.4429020" lon="-7.3015560">
        <ele>621.0</ele>
        <time>2014-10-02T08:55:25Z</time>
      </trkpt>
      <trkpt lat="42.4430530" lon="-7.3014220">
        <ele>618.9</ele>
        <time>2014-10-02T08:55:26Z</time>
      </trkpt>
      <trkpt lat="42.4431910" lon="-7.3012960">
        <ele>616.9</ele>
        <time>2014-10-02T08:55:27Z</time>
      </trkpt>
      <trkpt lat="42.4433180" lon="-7.3011630">
        <ele>615.0</ele>
        <time>2014-10-02T08:55:28Z</time>
      </trkpt>
      <trkpt lat="42.4434350" lon="-7.3010290">
        <ele>613.2</ele>
        <time>2014-10-02T08:55:29Z</time>
      </trkpt>
      <trkpt lat="42.4435530" lon="-7.3009040">
        <ele>611.5</ele>
        <time>2014-10-02T08:55:30Z</time>
      </trkpt>
      <trkpt lat="42.4436660" lon="-7.3007640">
        <ele>609.7</ele>
        <time>2014-10-02T08:55:31Z</time>
      </trkpt>
      <trkpt lat="42.4437750" lon="-7.3006050">
        <ele>607.9</ele>
        <time>2014-10-02T08:55:32Z</time>
      </trkpt>
      <trkpt lat="42.4438640" lon="-7.3004100">
        <ele>605.9</ele>
        <time>2014-10-02T08:55:33Z</time>
      </trkpt>
      <trkpt lat="42.4439560" lon="-7.3002270">
        <ele>603.9</ele>
        <time>2014-10-02T08:55:34Z</time>
      </trkpt>
      <trkpt lat="42.4440470" lon="-7.3000510">
        <ele>602.1</ele>
        <time>2014-10-02T08:55:35Z</time>
      </trkpt>
      <trkpt lat="42.4441410" lon="-7.2998790">
        <ele>600.2</ele>
        <time>2014-10-02T08:55:36Z</time>
      </trkpt>
      <trkpt lat="42.4442390" lon="-7.2997140">
        <ele>598.2</ele>
        <time>2014-10-02T08:55:37Z</time>
      </trkpt>
      <trkpt lat="42.4443380" lon="-7.2995440">
        <ele>596.3</ele>
        <time>2014-10-02T08:55:38Z</time>
      </trkpt>
      <trkpt lat="42.4444390" lon="-7.2993710">
        <ele>594.3</ele>
        <time>2014-10-02T08:55:39Z</time>
      </trkpt>
      <trkpt lat="42.4445320" lon="-7.2991950">
        <ele>592.5</ele>
        <time>2014-10-02T08:55:40Z</time>
      </trkpt>
      <trkpt lat="42.4446090" lon="-7.2990250">
        <ele>590.8</ele>
        <time>2014-10-02T08:55:41Z</time>
      </trkpt>
      <trkpt lat="42.4446730" lon="-7.2988620">
        <ele>589.2</ele>
        <time>2014-10-02T08:55:42Z</time>
      </trkpt>
      <trkpt lat="42.4447100" lon="-7.2986710">
        <ele>587.6</ele>
        <time>2014-10-02T08:55:43Z</time>
      </trkpt>
      <trkpt lat="42.4447360" lon="-7.2984830">
        <ele>585.9</ele>
        <time>2014-10-02T08:55:44Z</time>
      </trkpt>
      <trkpt lat="42.4447510" lon="-7.2982900">
        <ele>584.2</ele>
        <time>2014-10-02T08:55:45Z</time>
      </trkpt>
      <trkpt lat="42.4447640" lon="-7.2980990">
        <ele>582.7</ele>
        <time>2014-10-02T08:55:46Z</time>
      </trkpt>
      <trkpt lat="42.4447780" lon="-7.2979030">
        <ele>581.0</ele>
        <time>2014-10-02T08:55:47Z</time>
      </trkpt>
      <trkpt lat="42.4448050" lon="-7.2977050">
        <ele>579.3</ele>
        <time>2014-10-02T08:55:48Z</time>
      </trkpt>
      <trkpt lat="42.4448450" lon="-7.2975100">
        <ele>577.6</ele>
        <time>2014-10-02T08:55:49Z</time>
      </trkpt>
      <trkpt lat="42.4448950" lon="-7.2973170">
        <ele>575.8</ele>
        <time>2014-10-02T08:55:50Z</time>
      </trkpt>
      <trkpt lat="42.4449540" lon="-7.2971190">
        <ele>574.0</ele>
        <time>2014-10-02T08:55:51Z</time>
      </trkpt>
      <trkpt lat="42.4450180" lon="-7.2969240">
        <ele>572.1</ele>
        <time>2014-10-02T08:55:52Z</time>
      </trkpt>
      <trkpt lat="42.4450900" lon="-7.2967310">
        <ele>570.3</ele>
        <time>2014-10-02T08:55:53Z</time>
      </trkpt>
      <trkpt lat="42.4451690" lon="-7.2965390">
        <ele>568.4</ele>
        <time>2014-10-02T08:55:54Z</time>
      </trkpt>
      <trkpt lat="42.4452570" lon="-7.2963560">
        <ele>566.6</ele>
        <time>2014-10-02T08:55:55Z</time>
      </trkpt>
      <trkpt lat="42.4453580" lon="-7.2961690">
        <ele>564.6</ele>
        <time>2014-10-02T08:55:56Z</time>
      </trkpt>
      <trkpt lat="42.4454700" lon="-7.2959900">
        <ele>562.6</ele>
        <time>2014-10-02T08:55:57Z</time>
      </trkpt>
      <trkpt lat="42.4455870" lon="-7.2958280">
        <ele>560.8</ele>
        <time>2014-10-02T08:55:58Z</time>
      </trkpt>
      <trkpt lat="42.4457080" lon="-7.2956780">
        <ele>558.9</ele>
        <time>2014-10-02T08:55:59Z</time>
      </trkpt>
      <trkpt lat="42.4458320" lon="-7.2955420">
        <ele>557.2</ele>
        <time>2014-10-02T08:56:00Z</time>
      </trkpt>
      <trkpt lat="42.4459630" lon="-7.2953930">
        <ele>555.3</ele>
        <time>2014-10-02T08:56:01Z</time>
      </trkpt>
      <trkpt lat="42.4460870" lon="-7.2952470">
        <ele>553.4</ele>
        <time>2014-10-02T08:56:02Z</time>
      </trkpt>
      <trkpt lat="42.4461970" lon="-7.2951030">
        <ele>551.8</ele>
        <time>2014-10-02T08:56:03Z</time>
      </trkpt>
      <trkpt lat="42.4462910" lon="-7.2949610">
        <ele>550.2</ele>
        <time>2014-10-02T08:56:04Z</time>
      </trkpt>
      <trkpt lat="42.4463440" lon="-7.2947980">
        <ele>548.8</ele>
        <time>2014-10-02T08:56:05Z</time>
      </trkpt>
      <trkpt lat="42.4463830" lon="-7.2946380">
        <ele>547.5</ele>
        <time>2014-10-02T08:56:06Z</time>
      </trkpt>
      <trkpt lat="42.4463810" lon="-7.2944620">
        <ele>546.2</ele>
        <time>2014-10-02T08:56:07Z</time>
      </trkpt>
      <trkpt lat="42.4463740" lon="-7.2942680">
        <ele>544.6</ele>
        <time>2014-10-02T08:56:08Z</time>
      </trkpt>
      <trkpt lat="42.4463540" lon="-7.2940690">
        <ele>543.0</ele>
        <time>2014-10-02T08:56:09Z</time>
      </trkpt>
      <trkpt lat="42.4463280" lon="-7.2938770">
        <ele>541.5</ele>
        <time>2014-10-02T08:56:10Z</time>
      </trkpt>
      <trkpt lat="42.4462950" lon="-7.2936660">
        <ele>539.8</ele>
        <time>2014-10-02T08:56:11Z</time>
      </trkpt>
      <trkpt lat="42.4462640" lon="-7.2934580">
        <ele>538.0</ele>
        <time>2014-10-02T08:56:12Z</time>
      </trkpt>
      <trkpt lat="42.4462440" lon="-7.2932510">
        <ele>536.4</ele>
        <time>2014-10-02T08:56:13Z</time>
      </trkpt>
      <trkpt lat="42.4462370" lon="-7.2930400">
        <ele>534.8</ele>
        <time>2014-10-02T08:56:14Z</time>
      </trkpt>
      <trkpt lat="42.4462410" lon="-7.2928200">
        <ele>533.2</ele>
        <time>2014-10-02T08:56:15Z</time>
      </trkpt>
      <trkpt lat="42.4462550" lon="-7.2926190">
        <ele>531.7</ele>
        <time>2014-10-02T08:56:16Z</time>
      </trkpt>
      <trkpt lat="42.4462770" lon="-7.2924200">
        <ele>530.2</ele>
        <time>2014-10-02T08:56:17Z</time>
      </trkpt>
      <trkpt lat="42.4463070" lon="-7.2922470">
        <ele>528.8</ele>
        <time>2014-10-02T08:56:18Z</time>
      </trkpt>
      <trkpt lat="42.4463600" lon="-7.2921140">
        <ele>527.5</ele>
        <time>2014-10-02T08:56:19Z</time>
      </trkpt>
      <trkpt lat="42.4464100" lon="-7.2920020">
        <ele>526.3</ele>
        <time>2014-10-02T08:56:20Z</time>
      </trkpt>
      <trkpt lat="42.4464700" lon="-7.2919120">
        <ele>525.1</ele>
        <time>2014-10-02T08:56:21Z</time>
      </trkpt>
      <trkpt lat="42.4465300" lon="-7.2918410">
        <ele>524.3</ele>
        <time>2014-10-02T08:56:22Z</time>
      </trkpt>
      <trkpt lat="42.4466060" lon="-7.2918570">
        <ele>523.4</ele>
        <time>2014-10-02T08:56:23Z</time>
      </trkpt>
      <trkpt lat="42.4466970" lon="-7.2919220">
        <ele>522.3</ele>
        <time>2014-10-02T08:56:24Z</time>
      </trkpt>
      <trkpt lat="42.4467780" lon="-7.2920270">
        <ele>521.1</ele>
        <time>2014-10-02T08:56:25Z</time>
      </trkpt>
      <trkpt lat="42.4468540" lon="-7.2921420">
        <ele>519.9</ele>
        <time>2014-10-02T08:56:26Z</time>
      </trkpt>
      <trkpt lat="42.4469290" lon="-7.2922790">
        <ele>518.7</ele>
        <time>2014-10-02T08:56:27Z</time>
      </trkpt>
      <trkpt lat="42.4469890" lon="-7.2924160">
        <ele>517.6</ele>
        <time>2014-10-02T08:56:28Z</time>
      </trkpt>
      <trkpt lat="42.4470490" lon="-7.2925570">
        <ele>516.4</ele>
        <time>2014-10-02T08:56:29Z</time>
      </trkpt>
      <trkpt lat="42.4471130" lon="-7.2926950">
        <ele>515.1</ele>
        <time>2014-10-02T08:56:30Z</time>
      </trkpt>
      <trkpt lat="42.4471760" lon="-7.2928280">
        <ele>513.8</ele>
        <time>2014-10-02T08:56:31Z</time>
      </trkpt>
      <trkpt lat="42.4472430" lon="-7.2929720">
        <ele>512.5</ele>
        <time>2014-10-02T08:56:32Z</time>
      </trkpt>
      <trkpt lat="42.4473070" lon="-7.2931210">
        <ele>511.1</ele>
        <time>2014-10-02T08:56:33Z</time>
      </trkpt>
      <trkpt lat="42.4473700" lon="-7.2932840">
        <ele>509.6</ele>
        <time>2014-10-02T08:56:34Z</time>
      </trkpt>
      <trkpt lat="42.4474270" lon="-7.2934540">
        <ele>508.3</ele>
        <time>2014-10-02T08:56:35Z</time>
      </trkpt>
      <trkpt lat="42.4474780" lon="-7.2936250">
        <ele>506.9</ele>
        <time>2014-10-02T08:56:36Z</time>
      </trkpt>
      <trkpt lat="42.4475260" lon="-7.2938010">
        <ele>505.6</ele>
        <time>2014-10-02T08:56:37Z</time>
      </trkpt>
      <trkpt lat="42.4475760" lon="-7.2939830">
        <ele>504.2</ele>
        <time>2014-10-02T08:56:38Z</time>
      </trkpt>
      <trkpt lat="42.4476160" lon="-7.2941630">
        <ele>502.9</ele>
        <time>2014-10-02T08:56:39Z</time>
      </trkpt>
      <trkpt lat="42.4476500" lon="-7.2943420">
        <ele>501.6</ele>
        <time>2014-10-02T08:56:40Z</time>
      </trkpt>
      <trkpt lat="42.4476830" lon="-7.2945140">
        <ele>500.5</ele>
        <time>2014-10-02T08:56:41Z</time>
      </trkpt>
      <trkpt lat="42.4477110" lon="-7.2946680">
        <ele>499.5</ele>
        <time>2014-10-02T08:56:42Z</time>
      </trkpt>
      <trkpt lat="42.4477260" lon="-7.2947880">
        <ele>498.6</ele>
        <time>2014-10-02T08:56:43Z</time>
      </trkpt>
      <trkpt lat="42.4477380" lon="-7.2948980">
        <ele>498.4</ele>
        <time>2014-10-02T08:56:44Z</time>
      </trkpt>
      <trkpt lat="42.4477760" lon="-7.2949860">
        <ele>497.3</ele>
        <time>2014-10-02T08:56:45Z</time>
      </trkpt>
      <trkpt lat="42.4478250" lon="-7.2950130">
        <ele>494.4</ele>
        <time>2014-10-02T08:56:46Z</time>
      </trkpt>
      <trkpt lat="42.4478770" lon="-7.2950060">
        <ele>493.9</ele>
        <time>2014-10-02T08:56:47Z</time>
      </trkpt>
      <trkpt lat="42.4479190" lon="-7.2949710">
        <ele>493.4</ele>
        <time>2014-10-02T08:56:49Z</time>
      </trkpt>
      <trkpt lat="42.4479500" lon="-7.2949060">
        <ele>492.9</ele>
        <time>2014-10-02T08:56:50Z</time>
      </trkpt>
      <trkpt lat="42.4479340" lon="-7.2947470">
        <ele>491.9</ele>
        <time>2014-10-02T08:56:51Z</time>
      </trkpt>
      <trkpt lat="42.4479250" lon="-7.2946030">
        <ele>491.0</ele>
        <time>2014-10-02T08:56:52Z</time>
      </trkpt>
      <trkpt lat="42.4479170" lon="-7.2944450">
        <ele>490.0</ele>
        <time>2014-10-02T08:56:53Z</time>
      </trkpt>
      <trkpt lat="42.4479190" lon="-7.2942820">
        <ele>488.9</ele>
        <time>2014-10-02T08:56:54Z</time>
      </trkpt>
      <trkpt lat="42.4479300" lon="-7.2941160">
        <ele>487.9</ele>
        <time>2014-10-02T08:56:55Z</time>
      </trkpt>
      <trkpt lat="42.4479460" lon="-7.2939490">
        <ele>486.7</ele>
        <time>2014-10-02T08:56:56Z</time>
      </trkpt>
      <trkpt lat="42.4479640" lon="-7.2937830">
        <ele>485.6</ele>
        <time>2014-10-02T08:56:57Z</time>
      </trkpt>
      <trkpt lat="42.4479820" lon="-7.2936100">
        <ele>484.4</ele>
        <time>2014-10-02T08:56:58Z</time>
      </trkpt>
      <trkpt lat="42.4480040" lon="-7.2934410">
        <ele>483.1</ele>
        <time>2014-10-02T08:56:59Z</time>
      </trkpt>
      <trkpt lat="42.4480320" lon="-7.2932720">
        <ele>481.9</ele>
        <time>2014-10-02T08:57:00Z</time>
      </trkpt>
      <trkpt lat="42.4480670" lon="-7.2930930">
        <ele>480.5</ele>
        <time>2014-10-02T08:57:01Z</time>
      </trkpt>
      <trkpt lat="42.4481340" lon="-7.2929290">
        <ele>479.3</ele>
        <time>2014-10-02T08:57:02Z</time>
      </trkpt>
      <trkpt lat="42.4482100" lon="-7.2927660">
        <ele>478.0</ele>
        <time>2014-10-02T08:57:03Z</time>
      </trkpt>
      <trkpt lat="42.4482910" lon="-7.2926000">
        <ele>476.7</ele>
        <time>2014-10-02T08:57:04Z</time>
      </trkpt>
      <trkpt lat="42.4483700" lon="-7.2924370">
        <ele>475.4</ele>
        <time>2014-10-02T08:57:05Z</time>
      </trkpt>
      <trkpt lat="42.4484120" lon="-7.2922720">
        <ele>474.2</ele>
        <time>2014-10-02T08:57:06Z</time>
      </trkpt>
      <trkpt lat="42.4484460" lon="-7.2921080">
        <ele>473.0</ele>
        <time>2014-10-02T08:57:07Z</time>
      </trkpt>
      <trkpt lat="42.4484390" lon="-7.2919510">
        <ele>471.9</ele>
        <time>2014-10-02T08:57:08Z</time>
      </trkpt>
      <trkpt lat="42.4484020" lon="-7.2918020">
        <ele>470.8</ele>
        <time>2014-10-02T08:57:09Z</time>
      </trkpt>
      <trkpt lat="42.4483630" lon="-7.2916520">
        <ele>469.5</ele>
        <time>2014-10-02T08:57:10Z</time>
      </trkpt>
      <trkpt lat="42.4483260" lon="-7.2915070">
        <ele>468.3</ele>
        <time>2014-10-02T08:57:11Z</time>
      </trkpt>
      <trkpt lat="42.4482840" lon="-7.2913360">
        <ele>466.7</ele>
        <time>2014-10-02T08:57:12Z</time>
      </trkpt>
      <trkpt lat="42.4482450" lon="-7.2911700">
        <ele>465.2</ele>
        <time>2014-10-02T08:57:13Z</time>
      </trkpt>
      <trkpt lat="42.4482070" lon="-7.2910140">
        <ele>463.6</ele>
        <time>2014-10-02T08:57:14Z</time>
      </trkpt>
      <trkpt lat="42.4481780" lon="-7.2908760">
        <ele>462.2</ele>
        <time>2014-10-02T08:57:15Z</time>
      </trkpt>
      <trkpt lat="42.4482090" lon="-7.2907480">
        <ele>460.8</ele>
        <time>2014-10-02T08:57:16Z</time>
      </trkpt>
      <trkpt lat="42.4482790" lon="-7.2906460">
        <ele>459.4</ele>
        <time>2014-10-02T08:57:17Z</time>
      </trkpt>
      <trkpt lat="42.4483760" lon="-7.2906050">
        <ele>458.2</ele>
        <time>2014-10-02T08:57:18Z</time>
      </trkpt>
      <trkpt lat="42.4484750" lon="-7.2906230">
        <ele>457.1</ele>
        <time>2014-10-02T08:57:19Z</time>
      </trkpt>
      <trkpt lat="42.4485610" lon="-7.2906950">
        <ele>456.2</ele>
        <time>2014-10-02T08:57:20Z</time>
      </trkpt>
      <trkpt lat="42.4486330" lon="-7.2907950">
        <ele>455.3</ele>
        <time>2014-10-02T08:57:21Z</time>
      </trkpt>
      <trkpt lat="42.4486970" lon="-7.2909110">
        <ele>454.3</ele>
        <time>2014-10-02T08:57:22Z</time>
      </trkpt>
      <trkpt lat="42.4487570" lon="-7.2910310">
        <ele>453.2</ele>
        <time>2014-10-02T08:57:23Z</time>
      </trkpt>
      <trkpt lat="42.4488070" lon="-7.2911860">
        <ele>451.9</ele>
        <time>2014-10-02T08:57:24Z</time>
      </trkpt>
      <trkpt lat="42.4488540" lon="-7.2913450">
        <ele>450.5</ele>
        <time>2014-10-02T08:57:25Z</time>
      </trkpt>
      <trkpt lat="42.4489260" lon="-7.2914920">
        <ele>449.0</ele>
        <time>2014-10-02T08:57:26Z</time>
      </trkpt>
      <trkpt lat="42.4489990" lon="-7.2916490">
        <ele>447.4</ele>
        <time>2014-10-02T08:57:27Z</time>
      </trkpt>
      <trkpt lat="42.4490950" lon="-7.2917930">
        <ele>445.9</ele>
        <time>2014-10-02T08:57:28Z</time>
      </trkpt>
      <trkpt lat="42.4491760" lon="-7.2919180">
        <ele>444.6</ele>
        <time>2014-10-02T08:57:29Z</time>
      </trkpt>
      <trkpt lat="42.4492600" lon="-7.2920320">
        <ele>443.4</ele>
        <time>2014-10-02T08:57:30Z</time>
      </trkpt>
      <trkpt lat="42.4493530" lon="-7.2921100">
        <ele>442.3</ele>
        <time>2014-10-02T08:57:31Z</time>
      </trkpt>
      <trkpt lat="42.4494510" lon="-7.2921850">
        <ele>441.1</ele>
        <time>2014-10-02T08:57:32Z</time>
      </trkpt>
      <trkpt lat="42.4495740" lon="-7.2921770">
        <ele>439.8</ele>
        <time>2014-10-02T08:57:33Z</time>
      </trkpt>
      <trkpt lat="42.4497020" lon="-7.2921510">
        <ele>438.5</ele>
        <time>2014-10-02T08:57:34Z</time>
      </trkpt>
      <trkpt lat="42.4498310" lon="-7.2921090">
        <ele>437.4</ele>
        <time>2014-10-02T08:57:35Z</time>
      </trkpt>
      <trkpt lat="42.4499600" lon="-7.2920360">
        <ele>436.3</ele>
        <time>2014-10-02T08:57:36Z</time>
      </trkpt>
      <trkpt lat="42.4500870" lon="-7.2919630">
        <ele>435.4</ele>
        <time>2014-10-02T08:57:37Z</time>
      </trkpt>
      <trkpt lat="42.4502080" lon="-7.2918950">
        <ele>434.6</ele>
        <time>2014-10-02T08:57:38Z</time>
      </trkpt>
      <trkpt lat="42.4503230" lon="-7.2918170">
        <ele>433.7</ele>
        <time>2014-10-02T08:57:39Z</time>
      </trkpt>
      <trkpt lat="42.4504360" lon="-7.2917430">
        <ele>432.9</ele>
        <time>2014-10-02T08:57:40Z</time>
      </trkpt>
      <trkpt lat="42.4505360" lon="-7.2916640">
        <ele>432.2</ele>
        <time>2014-10-02T08:57:41Z</time>
      </trkpt>
      <trkpt lat="42.4506230" lon="-7.2915450">
        <ele>431.3</ele>
        <time>2014-10-02T08:57:42Z</time>
      </trkpt>
      <trkpt lat="42.4506850" lon="-7.2913990">
        <ele>430.3</ele>
        <time>2014-10-02T08:57:43Z</time>
      </trkpt>
      <trkpt lat="42.4507400" lon="-7.2912480">
        <ele>429.2</ele>
        <time>2014-10-02T08:57:44Z</time>
      </trkpt>
      <trkpt lat="42.4507950" lon="-7.2910890">
        <ele>428.1</ele>
        <time>2014-10-02T08:57:45Z</time>
      </trkpt>
      <trkpt lat="42.4508580" lon="-7.2909350">
        <ele>426.9</ele>
        <time>2014-10-02T08:57:46Z</time>
      </trkpt>
      <trkpt lat="42.4509510" lon="-7.2908070">
        <ele>425.5</ele>
        <time>2014-10-02T08:57:47Z</time>
      </trkpt>
      <trkpt lat="42.4510500" lon="-7.2906790">
        <ele>424.1</ele>
        <time>2014-10-02T08:57:48Z</time>
      </trkpt>
      <trkpt lat="42.4511570" lon="-7.2905590">
        <ele>422.5</ele>
        <time>2014-10-02T08:57:49Z</time>
      </trkpt>
      <trkpt lat="42.4512670" lon="-7.2904460">
        <ele>420.9</ele>
        <time>2014-10-02T08:57:50Z</time>
      </trkpt>
      <trkpt lat="42.4513750" lon="-7.2903370">
        <ele>419.4</ele>
        <time>2014-10-02T08:57:51Z</time>
      </trkpt>
      <trkpt lat="42.4514830" lon="-7.2902350">
        <ele>417.8</ele>
        <time>2014-10-02T08:57:52Z</time>
      </trkpt>
      <trkpt lat="42.4515850" lon="-7.2901490">
        <ele>416.3</ele>
        <time>2014-10-02T08:57:53Z</time>
      </trkpt>
      <trkpt lat="42.4516950" lon="-7.2901110">
        <ele>414.8</ele>
        <time>2014-10-02T08:57:54Z</time>
      </trkpt>
      <trkpt lat="42.4518140" lon="-7.2901080">
        <ele>413.3</ele>
        <time>2014-10-02T08:57:55Z</time>
      </trkpt>
      <trkpt lat="42.4519370" lon="-7.2901420">
        <ele>411.8</ele>
        <time>2014-10-02T08:57:56Z</time>
      </trkpt>
      <trkpt lat="42.4520570" lon="-7.2901850">
        <ele>410.3</ele>
        <time>2014-10-02T08:57:57Z</time>
      </trkpt>
      <trkpt lat="42.4521770" lon="-7.2902410">
        <ele>408.8</ele>
        <time>2014-10-02T08:57:58Z</time>
      </trkpt>
      <trkpt lat="42.4523020" lon="-7.2903020">
        <ele>407.3</ele>
        <time>2014-10-02T08:57:59Z</time>
      </trkpt>
      <trkpt lat="42.4524320" lon="-7.2903680">
        <ele>405.6</ele>
        <time>2014-10-02T08:58:00Z</time>
      </trkpt>
      <trkpt lat="42.4525630" lon="-7.2904400">
        <ele>404.0</ele>
        <time>2014-10-02T08:58:01Z</time>
      </trkpt>
      <trkpt lat="42.4526840" lon="-7.2905180">
        <ele>402.6</ele>
        <time>2014-10-02T08:58:02Z</time>
      </trkpt>
      <trkpt lat="42.4528300" lon="-7.2905950">
        <ele>401.1</ele>
        <time>2014-10-02T08:58:03Z</time>
      </trkpt>
      <trkpt lat="42.4529730" lon="-7.2906570">
        <ele>400.0</ele>
        <time>2014-10-02T08:58:04Z</time>
      </trkpt>
      <trkpt lat="42.4531200" lon="-7.2906970">
        <ele>399.1</ele>
        <time>2014-10-02T08:58:05Z</time>
      </trkpt>
      <trkpt lat="42.4532610" lon="-7.2906890">
        <ele>398.4</ele>
        <time>2014-10-02T08:58:06Z</time>
      </trkpt>
      <trkpt lat="42.4534010" lon="-7.2906790">
        <ele>397.7</ele>
        <time>2014-10-02T08:58:07Z</time>
      </trkpt>
      <trkpt lat="42.4535410" lon="-7.2906550">
        <ele>396.9</ele>
        <time>2014-10-02T08:58:08Z</time>
      </trkpt>
      <trkpt lat="42.4536730" lon="-7.2906230">
        <ele>395.9</ele>
        <time>2014-10-02T08:58:09Z</time>
      </trkpt>
      <trkpt lat="42.4538030" lon="-7.2905780">
        <ele>395.0</ele>
        <time>2014-10-02T08:58:10Z</time>
      </trkpt>
      <trkpt lat="42.4539320" lon="-7.2905260">
        <ele>394.1</ele>
        <time>2014-10-02T08:58:11Z</time>
      </trkpt>
      <trkpt lat="42.4540660" lon="-7.2904670">
        <ele>392.9</ele>
        <time>2014-10-02T08:58:12Z</time>
      </trkpt>
      <trkpt lat="42.4541970" lon="-7.2904090">
        <ele>391.8</ele>
        <time>2014-10-02T08:58:13Z</time>
      </trkpt>
      <trkpt lat="42.4543280" lon="-7.2903470">
        <ele>390.7</ele>
        <time>2014-10-02T08:58:14Z</time>
      </trkpt>
      <trkpt lat="42.4544670" lon="-7.2902820">
        <ele>389.8</ele>
        <time>2014-10-02T08:58:15Z</time>
      </trkpt>
      <trkpt lat="42.4546090" lon="-7.2902110">
        <ele>389.0</ele>
        <time>2014-10-02T08:58:16Z</time>
      </trkpt>
      <trkpt lat="42.4547480" lon="-7.2901330">
        <ele>388.4</ele>
        <time>2014-10-02T08:58:17Z</time>
      </trkpt>
      <trkpt lat="42.4548680" lon="-7.2900480">
        <ele>388.0</ele>
        <time>2014-10-02T08:58:18Z</time>
      </trkpt>
      <trkpt lat="42.4549790" lon="-7.2899200">
        <ele>387.8</ele>
        <time>2014-10-02T08:58:19Z</time>
      </trkpt>
      <trkpt lat="42.4550860" lon="-7.2897910">
        <ele>387.7</ele>
        <time>2014-10-02T08:58:20Z</time>
      </trkpt>
      <trkpt lat="42.4551900" lon="-7.2896580">
        <ele>387.8</ele>
        <time>2014-10-02T08:58:21Z</time>
      </trkpt>
      <trkpt lat="42.4552900" lon="-7.2895290">
        <ele>387.9</ele>
        <time>2014-10-02T08:58:22Z</time>
      </trkpt>
      <trkpt lat="42.4553830" lon="-7.2894090">
        <ele>388.3</ele>
        <time>2014-10-02T08:58:23Z</time>
      </trkpt>
      <trkpt lat="42.4554750" lon="-7.2892920">
        <ele>388.6</ele>
        <time>2014-10-02T08:58:24Z</time>
      </trkpt>
      <trkpt lat="42.4555660" lon="-7.2891800">
        <ele>389.0</ele>
        <time>2014-10-02T08:58:25Z</time>
      </trkpt>
      <trkpt lat="42.4556560" lon="-7.2890750">
        <ele>389.3</ele>
        <time>2014-10-02T08:58:26Z</time>
      </trkpt>
      <trkpt lat="42.4557440" lon="-7.2889720">
        <ele>389.5</ele>
        <time>2014-10-02T08:58:27Z</time>
      </trkpt>
      <trkpt lat="42.4558300" lon="-7.2888690">
        <ele>389.8</ele>
        <time>2014-10-02T08:58:28Z</time>
      </trkpt>
      <trkpt lat="42.4559140" lon="-7.2887690">
        <ele>390.1</ele>
        <time>2014-10-02T08:58:29Z</time>
      </trkpt>
      <trkpt lat="42.4559970" lon="-7.2886690">
        <ele>390.3</ele>
        <time>2014-10-02T08:58:30Z</time>
      </trkpt>
      <trkpt lat="42.4560770" lon="-7.2885690">
        <ele>390.4</ele>
        <time>2014-10-02T08:58:31Z</time>
      </trkpt>
      <trkpt lat="42.4561550" lon="-7.2884730">
        <ele>390.5</ele>
        <time>2014-10-02T08:58:32Z</time>
      </trkpt>
      <trkpt lat="42.4562300" lon="-7.2883790">
        <ele>390.5</ele>
        <time>2014-10-02T08:58:33Z</time>
      </trkpt>
      <trkpt lat="42.4563040" lon="-7.2882860">
        <ele>390.4</ele>
        <time>2014-10-02T08:58:34Z</time>
      </trkpt>
      <trkpt lat="42.4563750" lon="-7.2881870">
        <ele>390.3</ele>
        <time>2014-10-02T08:58:35Z</time>
      </trkpt>
      <trkpt lat="42.4564470" lon="-7.2880780">
        <ele>390.0</ele>
        <time>2014-10-02T08:58:36Z</time>
      </trkpt>
      <trkpt lat="42.4565130" lon="-7.2879670">
        <ele>389.6</ele>
        <time>2014-10-02T08:58:37Z</time>
      </trkpt>
      <trkpt lat="42.4565790" lon="-7.2878470">
        <ele>389.1</ele>
        <time>2014-10-02T08:58:38Z</time>
      </trkpt>
      <trkpt lat="42.4566430" lon="-7.2877230">
        <ele>388.6</ele>
        <time>2014-10-02T08:58:39Z</time>
      </trkpt>
      <trkpt lat="42.4567030" lon="-7.2875970">
        <ele>388.0</ele>
        <time>2014-10-02T08:58:40Z</time>
      </trkpt>
      <trkpt lat="42.4567620" lon="-7.2874660">
        <ele>387.3</ele>
        <time>2014-10-02T08:58:41Z</time>
      </trkpt>
      <trkpt lat="42.4568180" lon="-7.2873360">
        <ele>386.6</ele>
        <time>2014-10-02T08:58:42Z</time>
      </trkpt>
      <trkpt lat="42.4568740" lon="-7.2872050">
        <ele>385.7</ele>
        <time>2014-10-02T08:58:43Z</time>
      </trkpt>
      <trkpt lat="42.4569290" lon="-7.2870640">
        <ele>384.8</ele>
        <time>2014-10-02T08:58:44Z</time>
      </trkpt>
      <trkpt lat="42.4569860" lon="-7.2869200">
        <ele>383.7</ele>
        <time>2014-10-02T08:58:45Z</time>
      </trkpt>
      <trkpt lat="42.4570450" lon="-7.2867730">
        <ele>382.5</ele>
        <time>2014-10-02T08:58:46Z</time>
      </trkpt>
      <trkpt lat="42.4571170" lon="-7.2866320">
        <ele>381.2</ele>
        <time>2014-10-02T08:58:47Z</time>
      </trkpt>
      <trkpt lat="42.4572030" lon="-7.2864840">
        <ele>379.6</ele>
        <time>2014-10-02T08:58:48Z</time>
      </trkpt>
      <trkpt lat="42.4573160" lon="-7.2863620">
        <ele>378.0</ele>
        <time>2014-10-02T08:58:49Z</time>
      </trkpt>
      <trkpt lat="42.4574380" lon="-7.2862470">
        <ele>376.2</ele>
        <time>2014-10-02T08:58:50Z</time>
      </trkpt>
      <trkpt lat="42.4575730" lon="-7.2861780">
        <ele>374.5</ele>
        <time>2014-10-02T08:58:51Z</time>
      </trkpt>
      <trkpt lat="42.4577230" lon="-7.2861550">
        <ele>372.7</ele>
        <time>2014-10-02T08:58:52Z</time>
      </trkpt>
      <trkpt lat="42.4578690" lon="-7.2861500">
        <ele>371.0</ele>
        <time>2014-10-02T08:58:53Z</time>
      </trkpt>
      <trkpt lat="42.4580180" lon="-7.2862040">
        <ele>369.2</ele>
        <time>2014-10-02T08:58:54Z</time>
      </trkpt>
      <trkpt lat="42.4581680" lon="-7.2862910">
        <ele>367.1</ele>
        <time>2014-10-02T08:58:55Z</time>
      </trkpt>
      <trkpt lat="42.4583100" lon="-7.2864300">
        <ele>365.0</ele>
        <time>2014-10-02T08:58:56Z</time>
      </trkpt>
      <trkpt lat="42.4584440" lon="-7.2865840">
        <ele>362.9</ele>
        <time>2014-10-02T08:58:57Z</time>
      </trkpt>
      <trkpt lat="42.4585390" lon="-7.2867770">
        <ele>360.8</ele>
        <time>2014-10-02T08:58:58Z</time>
      </trkpt>
      <trkpt lat="42.4586450" lon="-7.2869730">
        <ele>358.6</ele>
        <time>2014-10-02T08:58:59Z</time>
      </trkpt>
      <trkpt lat="42.4587310" lon="-7.2871950">
        <ele>356.3</ele>
        <time>2014-10-02T08:59:00Z</time>
      </trkpt>
      <trkpt lat="42.4588100" lon="-7.2874160">
        <ele>354.2</ele>
        <time>2014-10-02T08:59:01Z</time>
      </trkpt>
      <trkpt lat="42.4588860" lon="-7.2876600">
        <ele>351.8</ele>
        <time>2014-10-02T08:59:02Z</time>
      </trkpt>
      <trkpt lat="42.4589350" lon="-7.2879030">
        <ele>349.4</ele>
        <time>2014-10-02T08:59:03Z</time>
      </trkpt>
      <trkpt lat="42.4589570" lon="-7.2881500">
        <ele>347.2</ele>
        <time>2014-10-02T08:59:04Z</time>
      </trkpt>
      <trkpt lat="42.4589630" lon="-7.2884070">
        <ele>344.9</ele>
        <time>2014-10-02T08:59:05Z</time>
      </trkpt>
      <trkpt lat="42.4589370" lon="-7.2886560">
        <ele>342.6</ele>
        <time>2014-10-02T08:59:06Z</time>
      </trkpt>
      <trkpt lat="42.4588920" lon="-7.2889050">
        <ele>340.3</ele>
        <time>2014-10-02T08:59:07Z</time>
      </trkpt>
      <trkpt lat="42.4588510" lon="-7.2891300">
        <ele>338.2</ele>
        <time>2014-10-02T08:59:08Z</time>
      </trkpt>
      <trkpt lat="42.4588220" lon="-7.2893270">
        <ele>336.4</ele>
        <time>2014-10-02T08:59:09Z</time>
      </trkpt>
      <trkpt lat="42.4588090" lon="-7.2895200">
        <ele>334.5</ele>
        <time>2014-10-02T08:59:10Z</time>
      </trkpt>
      <trkpt lat="42.4588520" lon="-7.2897070">
        <ele>332.7</ele>
        <time>2014-10-02T08:59:11Z</time>
      </trkpt>
      <trkpt lat="42.4589310" lon="-7.2898660">
        <ele>330.9</ele>
        <time>2014-10-02T08:59:12Z</time>
      </trkpt>
      <trkpt lat="42.4590380" lon="-7.2899850">
        <ele>329.1</ele>
        <time>2014-10-02T08:59:13Z</time>
      </trkpt>
      <trkpt lat="42.4591410" lon="-7.2901000">
        <ele>327.4</ele>
        <time>2014-10-02T08:59:14Z</time>
      </trkpt>
      <trkpt lat="42.4592730" lon="-7.2901970">
        <ele>325.5</ele>
        <time>2014-10-02T08:59:15Z</time>
      </trkpt>
      <trkpt lat="42.4594530" lon="-7.2902120">
        <ele>323.3</ele>
        <time>2014-10-02T08:59:16Z</time>
      </trkpt>
      <trkpt lat="42.4596340" lon="-7.2901870">
        <ele>321.1</ele>
        <time>2014-10-02T08:59:17Z</time>
      </trkpt>
      <trkpt lat="42.4597930" lon="-7.2900720">
        <ele>318.8</ele>
        <time>2014-10-02T08:59:18Z</time>
      </trkpt>
      <trkpt lat="42.4599570" lon="-7.2899980">
        <ele>316.8</ele>
        <time>2014-10-02T08:59:19Z</time>
      </trkpt>
      <trkpt lat="42.4601260" lon="-7.2899500">
        <ele>314.7</ele>
        <time>2014-10-02T08:59:20Z</time>
      </trkpt>
      <trkpt lat="42.4602940" lon="-7.2899030">
        <ele>312.7</ele>
        <time>2014-10-02T08:59:21Z</time>
      </trkpt>
      <trkpt lat="42.4604660" lon="-7.2898450">
        <ele>310.5</ele>
        <time>2014-10-02T08:59:22Z</time>
      </trkpt>
      <trkpt lat="42.4606540" lon="-7.2897700">
        <ele>308.0</ele>
        <time>2014-10-02T08:59:23Z</time>
      </trkpt>
      <trkpt lat="42.4607960" lon="-7.2896250">
        <ele>305.8</ele>
        <time>2014-10-02T08:59:24Z</time>
      </trkpt>
      <trkpt lat="42.4609090" lon="-7.2894800">
        <ele>303.8</ele>
        <time>2014-10-02T08:59:25Z</time>
      </trkpt>
      <trkpt lat="42.4610200" lon="-7.2893040">
        <ele>301.7</ele>
        <time>2014-10-02T08:59:26Z</time>
      </trkpt>
      <trkpt lat="42.4610920" lon="-7.2890990">
        <ele>299.5</ele>
        <time>2014-10-02T08:59:27Z</time>
      </trkpt>
      <trkpt lat="42.4611580" lon="-7.2889200">
        <ele>297.6</ele>
        <time>2014-10-02T08:59:28Z</time>
      </trkpt>
      <trkpt lat="42.4612170" lon="-7.2887710">
        <ele>295.8</ele>
        <time>2014-10-02T08:59:29Z</time>
      </trkpt>
      <trkpt lat="42.4613000" lon="-7.2886490">
        <ele>294.2</ele>
        <time>2014-10-02T08:59:30Z</time>
      </trkpt>
      <trkpt lat="42.4613920" lon="-7.2885850">
        <ele>292.8</ele>
        <time>2014-10-02T08:59:31Z</time>
      </trkpt>
      <trkpt lat="42.4614890" lon="-7.2885410">
        <ele>291.3</ele>
        <time>2014-10-02T08:59:32Z</time>
      </trkpt>
      <trkpt lat="42.4615720" lon="-7.2886020">
        <ele>290.7</ele>
        <time>2014-10-02T08:59:33Z</time>
      </trkpt>
      <trkpt lat="42.4616280" lon="-7.2887220">
        <ele>289.6</ele>
        <time>2014-10-02T08:59:34Z</time>
      </trkpt>
      <trkpt lat="42.4616550" lon="-7.2888800">
        <ele>288.3</ele>
        <time>2014-10-02T08:59:35Z</time>
      </trkpt>
      <trkpt lat="42.4616550" lon="-7.2890570">
        <ele>287.2</ele>
        <time>2014-10-02T08:59:36Z</time>
      </trkpt>
      <trkpt lat="42.4616460" lon="-7.2892370">
        <ele>285.8</ele>
        <time>2014-10-02T08:59:37Z</time>
      </trkpt>
      <trkpt lat="42.4616330" lon="-7.2894180">
        <ele>284.7</ele>
        <time>2014-10-02T08:59:38Z</time>
      </trkpt>
      <trkpt lat="42.4616110" lon="-7.2896060">
        <ele>283.7</ele>
        <time>2014-10-02T08:59:39Z</time>
      </trkpt>
      <trkpt lat="42.4615990" lon="-7.2897910">
        <ele>282.6</ele>
        <time>2014-10-02T08:59:40Z</time>
      </trkpt>
      <trkpt lat="42.4616280" lon="-7.2899750">
        <ele>281.4</ele>
        <time>2014-10-02T08:59:41Z</time>
      </trkpt>
      <trkpt lat="42.4616890" lon="-7.2901360">
        <ele>280.2</ele>
        <time>2014-10-02T08:59:42Z</time>
      </trkpt>
      <trkpt lat="42.4617590" lon="-7.2902920">
        <ele>278.9</ele>
        <time>2014-10-02T08:59:43Z</time>
      </trkpt>
      <trkpt lat="42.4618260" lon="-7.2904390">
        <ele>277.7</ele>
        <time>2014-10-02T08:59:44Z</time>
      </trkpt>
      <trkpt lat="42.4619230" lon="-7.2905630">
        <ele>276.4</ele>
        <time>2014-10-02T08:59:45Z</time>
      </trkpt>
      <trkpt lat="42.4620430" lon="-7.2906700">
        <ele>275.1</ele>
        <time>2014-10-02T08:59:46Z</time>
      </trkpt>
      <trkpt lat="42.4621780" lon="-7.2907580">
        <ele>273.7</ele>
        <time>2014-10-02T08:59:47Z</time>
      </trkpt>
      <trkpt lat="42.4623190" lon="-7.2908320">
        <ele>272.3</ele>
        <time>2014-10-02T08:59:48Z</time>
      </trkpt>
      <trkpt lat="42.4624260" lon="-7.2908370">
        <ele>271.2</ele>
        <time>2014-10-02T08:59:49Z</time>
      </trkpt>
      <trkpt lat="42.4625390" lon="-7.2907580">
        <ele>269.6</ele>
        <time>2014-10-02T08:59:50Z</time>
      </trkpt>
      <trkpt lat="42.4626170" lon="-7.2906190">
        <ele>267.7</ele>
        <time>2014-10-02T08:59:51Z</time>
      </trkpt>
      <trkpt lat="42.4626850" lon="-7.2904670">
        <ele>265.7</ele>
        <time>2014-10-02T08:59:52Z</time>
      </trkpt>
      <trkpt lat="42.4627520" lon="-7.2903190">
        <ele>263.8</ele>
        <time>2014-10-02T08:59:53Z</time>
      </trkpt>
      <trkpt lat="42.4628190" lon="-7.2901830">
        <ele>262.0</ele>
        <time>2014-10-02T08:59:54Z</time>
      </trkpt>
      <trkpt lat="42.4628770" lon="-7.2900570">
        <ele>260.4</ele>
        <time>2014-10-02T08:59:55Z</time>
      </trkpt>
      <trkpt lat="42.4629510" lon="-7.2899710">
        <ele>259.2</ele>
        <time>2014-10-02T08:59:56Z</time>
      </trkpt>
      <trkpt lat="42.4630620" lon="-7.2899610">
        <ele>258.1</ele>
        <time>2014-10-02T08:59:57Z</time>
      </trkpt>
      <trkpt lat="42.4631590" lon="-7.2899910">
        <ele>257.8</ele>
        <time>2014-10-02T08:59:58Z</time>
      </trkpt>
      <trkpt lat="42.4632460" lon="-7.2900590">
        <ele>257.3</ele>
        <time>2014-10-02T08:59:59Z</time>
      </trkpt>
      <trkpt lat="42.4633280" lon="-7.2901290">
        <ele>256.9</ele>
        <time>2014-10-02T09:00:00Z</time>
      </trkpt>
      <trkpt lat="42.4634080" lon="-7.2902140">
        <ele>256.6</ele>
        <time>2014-10-02T09:00:01Z</time>
      </trkpt>
      <trkpt lat="42.4634870" lon="-7.2902840">
        <ele>256.2</ele>
        <time>2014-10-02T09:00:02Z</time>
      </trkpt>
      <trkpt lat="42.4635740" lon="-7.2903090">
        <ele>255.7</ele>
        <time>2014-10-02T09:00:03Z</time>
      </trkpt>
      <trkpt lat="42.4636740" lon="-7.2902900">
        <ele>255.2</ele>
        <time>2014-10-02T09:00:04Z</time>
      </trkpt>
      <trkpt lat="42.4637840" lon="-7.2902680">
        <ele>254.7</ele>
        <time>2014-10-02T09:00:05Z</time>
      </trkpt>
      <trkpt lat="42.4639040" lon="-7.2902060">
        <ele>254.2</ele>
        <time>2014-10-02T09:00:06Z</time>
      </trkpt>
      <trkpt lat="42.4639980" lon="-7.2901100">
        <ele>253.9</ele>
        <time>2014-10-02T09:00:07Z</time>
      </trkpt>
      <trkpt lat="42.4640870" lon="-7.2900070">
        <ele>253.6</ele>
        <time>2014-10-02T09:00:08Z</time>
      </trkpt>
      <trkpt lat="42.4641740" lon="-7.2899040">
        <ele>253.4</ele>
        <time>2014-10-02T09:00:09Z</time>
      </trkpt>
      <trkpt lat="42.4642440" lon="-7.2897920">
        <ele>253.1</ele>
        <time>2014-10-02T09:00:10Z</time>
      </trkpt>
      <trkpt lat="42.4643220" lon="-7.2896950">
        <ele>252.7</ele>
        <time>2014-10-02T09:00:11Z</time>
      </trkpt>
      <trkpt lat="42.4643920" lon="-7.2896080">
        <ele>252.4</ele>
        <time>2014-10-02T09:00:12Z</time>
      </trkpt>
      <trkpt lat="42.4644860" lon="-7.2896310">
        <ele>252.0</ele>
        <time>2014-10-02T09:00:13Z</time>
      </trkpt>
      <trkpt lat="42.4645770" lon="-7.2896630">
        <ele>251.5</ele>
        <time>2014-10-02T09:00:14Z</time>
      </trkpt>
      <trkpt lat="42.4646720" lon="-7.2896930">
        <ele>250.9</ele>
        <time>2014-10-02T09:00:15Z</time>
      </trkpt>
      <trkpt lat="42.4647840" lon="-7.2896770">
        <ele>250.1</ele>
        <time>2014-10-02T09:00:16Z</time>
      </trkpt>
      <trkpt lat="42.4649040" lon="-7.2896580">
        <ele>249.2</ele>
        <time>2014-10-02T09:00:17Z</time>
      </trkpt>
      <trkpt lat="42.4650110" lon="-7.2896290">
        <ele>248.3</ele>
        <time>2014-10-02T09:00:18Z</time>
      </trkpt>
      <trkpt lat="42.4651160" lon="-7.2895970">
        <ele>247.7</ele>
        <time>2014-10-02T09:00:19Z</time>
      </trkpt>
      <trkpt lat="42.4652100" lon="-7.2895700">
        <ele>247.5</ele>
        <time>2014-10-02T09:00:20Z</time>
      </trkpt>
      <trkpt lat="42.4652920" lon="-7.2895510">
        <ele>247.5</ele>
        <time>2014-10-02T09:00:21Z</time>
      </trkpt>
      <trkpt lat="42.4653620" lon="-7.2895430">
        <ele>247.4</ele>
        <time>2014-10-02T09:00:22Z</time>
      </trkpt>
      <trkpt lat="42.4654060" lon="-7.2895410">
        <ele>247.2</ele>
        <time>2014-10-02T09:00:23Z</time>
      </trkpt>
      <trkpt lat="42.4654540" lon="-7.2895380">
        <ele>247.2</ele>
        <time>2014-10-02T09:00:24Z</time>
      </trkpt>
      <trkpt lat="42.4654890" lon="-7.2895340">
        <ele>247.1</ele>
        <time>2014-10-02T09:00:25Z</time>
      </trkpt>
      <trkpt lat="42.4655240" lon="-7.2895110">
        <ele>247.1</ele>
        <time>2014-10-02T09:00:26Z</time>
      </trkpt>
      <trkpt lat="42.4655440" lon="-7.2894840">
        <ele>247.1</ele>
        <time>2014-10-02T09:00:27Z</time>
      </trkpt>
      <trkpt lat="42.4655690" lon="-7.2894450">
        <ele>247.0</ele>
        <time>2014-10-02T09:00:28Z</time>
      </trkpt>
      <trkpt lat="42.4655730" lon="-7.2893710">
        <ele>246.9</ele>
        <time>2014-10-02T09:00:30Z</time>
      </trkpt>
      <trkpt lat="42.4655560" lon="-7.2893230">
        <ele>246.8</ele>
        <time>2014-10-02T09:00:31Z</time>
      </trkpt>
      <trkpt lat="42.4655440" lon="-7.2892650">
        <ele>246.7</ele>
        <time>2014-10-02T09:00:32Z</time>
      </trkpt>
      <trkpt lat="42.4655290" lon="-7.2892070">
        <ele>246.6</ele>
        <time>2014-10-02T09:00:33Z</time>
      </trkpt>
      <trkpt lat="42.4655140" lon="-7.2891340">
        <ele>246.6</ele>
        <time>2014-10-02T09:00:34Z</time>
      </trkpt>
      <trkpt lat="42.4655010" lon="-7.2890500">
        <ele>246.5</ele>
        <time>2014-10-02T09:00:35Z</time>
      </trkpt>
      <trkpt lat="42.4654840" lon="-7.2889560">
        <ele>246.4</ele>
        <time>2014-10-02T09:00:36Z</time>
      </trkpt>
      <trkpt lat="42.4654690" lon="-7.2888700">
        <ele>246.2</ele>
        <time>2014-10-02T09:00:37Z</time>
      </trkpt>
      <trkpt lat="42.4654550" lon="-7.2887740">
        <ele>246.1</ele>
        <time>2014-10-02T09:00:38Z</time>
      </trkpt>
      <trkpt lat="42.4654440" lon="-7.2886830">
        <ele>246.0</ele>
        <time>2014-10-02T09:00:39Z</time>
      </trkpt>
      <trkpt lat="42.4654350" lon="-7.2885900">
        <ele>245.9</ele>
        <time>2014-10-02T09:00:40Z</time>
      </trkpt>
      <trkpt lat="42.4654260" lon="-7.2884990">
        <ele>245.8</ele>
        <time>2014-10-02T09:00:41Z</time>
      </trkpt>
      <trkpt lat="42.4654120" lon="-7.2884050">
        <ele>245.7</ele>
        <time>2014-10-02T09:00:42Z</time>
      </trkpt>
      <trkpt lat="42.4653970" lon="-7.2883120">
        <ele>245.6</ele>
        <time>2014-10-02T09:00:43Z</time>
      </trkpt>
      <trkpt lat="42.4653810" lon="-7.2882160">
        <ele>245.5</ele>
        <time>2014-10-02T09:00:44Z</time>
      </trkpt>
      <trkpt lat="42.4653650" lon="-7.2881230">
        <ele>245.4</ele>
        <time>2014-10-02T09:00:45Z</time>
      </trkpt>
      <trkpt lat="42.4653710" lon="-7.2880330">
        <ele>245.3</ele>
        <time>2014-10-02T09:00:46Z</time>
      </trkpt>
      <trkpt lat="42.4653970" lon="-7.2879410">
        <ele>245.2</ele>
        <time>2014-10-02T09:00:47Z</time>
      </trkpt>
      <trkpt lat="42.4654320" lon="-7.2878490">
        <ele>245.1</ele>
        <time>2014-10-02T09:00:48Z</time>
      </trkpt>
      <trkpt lat="42.4654930" lon="-7.2877820">
        <ele>244.8</ele>
        <time>2014-10-02T09:00:49Z</time>
      </trkpt>
      <trkpt lat="42.4655590" lon="-7.2877170">
        <ele>244.4</ele>
        <time>2014-10-02T09:00:50Z</time>
      </trkpt>
      <trkpt lat="42.4656260" lon="-7.2876600">
        <ele>244.2</ele>
        <time>2014-10-02T09:00:51Z</time>
      </trkpt>
      <trkpt lat="42.4656970" lon="-7.2876020">
        <ele>244.0</ele>
        <time>2014-10-02T09:00:52Z</time>
      </trkpt>
      <trkpt lat="42.4657690" lon="-7.2875400">
        <ele>243.8</ele>
        <time>2014-10-02T09:00:53Z</time>
      </trkpt>
      <trkpt lat="42.4658450" lon="-7.2874790">
        <ele>243.7</ele>
        <time>2014-10-02T09:00:54Z</time>
      </trkpt>
      <trkpt lat="42.4659210" lon="-7.2874140">
        <ele>243.5</ele>
        <time>2014-10-02T09:00:55Z</time>
      </trkpt>
      <trkpt lat="42.4659950" lon="-7.2873510">
        <ele>243.3</ele>
        <time>2014-10-02T09:00:56Z</time>
      </trkpt>
      <trkpt lat="42.4660660" lon="-7.2872900">
        <ele>243.2</ele>
        <time>2014-10-02T09:00:57Z</time>
      </trkpt>
      <trkpt lat="42.4661380" lon="-7.2872270">
        <ele>242.5</ele>
        <time>2014-10-02T09:00:58Z</time>
      </trkpt>
      <trkpt lat="42.4662130" lon="-7.2871460">
        <ele>241.9</ele>
        <time>2014-10-02T09:00:59Z</time>
      </trkpt>
      <trkpt lat="42.4662260" lon="-7.2870340">
        <ele>241.3</ele>
        <time>2014-10-02T09:01:00Z</time>
      </trkpt>
      <trkpt lat="42.4662330" lon="-7.2869130">
        <ele>241.2</ele>
        <time>2014-10-02T09:01:01Z</time>
      </trkpt>
      <trkpt lat="42.4662460" lon="-7.2867880">
        <ele>241.0</ele>
        <time>2014-10-02T09:01:02Z</time>
      </trkpt>
      <trkpt lat="42.4662620" lon="-7.2866530">
        <ele>240.7</ele>
        <time>2014-10-02T09:01:03Z</time>
      </trkpt>
      <trkpt lat="42.4662810" lon="-7.2865240">
        <ele>240.5</ele>
        <time>2014-10-02T09:01:04Z</time>
      </trkpt>
      <trkpt lat="42.4663230" lon="-7.2863980">
        <ele>240.3</ele>
        <time>2014-10-02T09:01:05Z</time>
      </trkpt>
      <trkpt lat="42.4663700" lon="-7.2862770">
        <ele>240.1</ele>
        <time>2014-10-02T09:01:06Z</time>
      </trkpt>
      <trkpt lat="42.4664230" lon="-7.2861620">
        <ele>240.0</ele>
        <time>2014-10-02T09:01:07Z</time>
      </trkpt>
      <trkpt lat="42.4664790" lon="-7.2860600">
        <ele>239.9</ele>
        <time>2014-10-02T09:01:08Z</time>
      </trkpt>
      <trkpt lat="42.4665410" lon="-7.2859600">
        <ele>239.7</ele>
        <time>2014-10-02T09:01:09Z</time>
      </trkpt>
      <trkpt lat="42.4666090" lon="-7.2858650">
        <ele>239.7</ele>
        <time>2014-10-02T09:01:10Z</time>
      </trkpt>
      <trkpt lat="42.4666780" lon="-7.2857730">
        <ele>239.7</ele>
        <time>2014-10-02T09:01:11Z</time>
      </trkpt>
      <trkpt lat="42.4667520" lon="-7.2856790">
        <ele>239.7</ele>
        <time>2014-10-02T09:01:12Z</time>
      </trkpt>
      <trkpt lat="42.4668220" lon="-7.2855930">
        <ele>239.6</ele>
        <time>2014-10-02T09:01:13Z</time>
      </trkpt>
      <trkpt lat="42.4668990" lon="-7.2854980">
        <ele>239.6</ele>
        <time>2014-10-02T09:01:14Z</time>
      </trkpt>
      <trkpt lat="42.4669720" lon="-7.2854070">
        <ele>239.5</ele>
        <time>2014-10-02T09:01:15Z</time>
      </trkpt>
      <trkpt lat="42.4670410" lon="-7.2853190">
        <ele>239.4</ele>
        <time>2014-10-02T09:01:16Z</time>
      </trkpt>
      <trkpt lat="42.4671100" lon="-7.2852310">
        <ele>239.3</ele>
        <time>2014-10-02T09:01:17Z</time>
      </trkpt>
      <trkpt lat="42.4671780" lon="-7.2851460">
        <ele>239.3</ele>
        <time>2014-10-02T09:01:18Z</time>
      </trkpt>
      <trkpt lat="42.4672460" lon="-7.2850570">
        <ele>239.2</ele>
        <time>2014-10-02T09:01:19Z</time>
      </trkpt>
      <trkpt lat="42.4673090" lon="-7.2849750">
        <ele>239.2</ele>
        <time>2014-10-02T09:01:20Z</time>
      </trkpt>
      <trkpt lat="42.4673730" lon="-7.2848920">
        <ele>239.3</ele>
        <time>2014-10-02T09:01:21Z</time>
      </trkpt>
      <trkpt lat="42.4674360" lon="-7.2848090">
        <ele>239.3</ele>
        <time>2014-10-02T09:01:22Z</time>
      </trkpt>
      <trkpt lat="42.4674990" lon="-7.2847210">
        <ele>239.3</ele>
        <time>2014-10-02T09:01:23Z</time>
      </trkpt>
      <trkpt lat="42.4675620" lon="-7.2846400">
        <ele>239.4</ele>
        <time>2014-10-02T09:01:24Z</time>
      </trkpt>
      <trkpt lat="42.4676310" lon="-7.2845470">
        <ele>239.4</ele>
        <time>2014-10-02T09:01:25Z</time>
      </trkpt>
      <trkpt lat="42.4676910" lon="-7.2844630">
        <ele>239.3</ele>
        <time>2014-10-02T09:01:26Z</time>
      </trkpt>
      <trkpt lat="42.4677470" lon="-7.2843840">
        <ele>239.4</ele>
        <time>2014-10-02T09:01:27Z</time>
      </trkpt>
      <trkpt lat="42.4678040" lon="-7.2843020">
        <ele>239.4</ele>
        <time>2014-10-02T09:01:28Z</time>
      </trkpt>
      <trkpt lat="42.4678620" lon="-7.2842240">
        <ele>239.5</ele>
        <time>2014-10-02T09:01:29Z</time>
      </trkpt>
      <trkpt lat="42.4679180" lon="-7.2841470">
        <ele>239.5</ele>
        <time>2014-10-02T09:01:30Z</time>
      </trkpt>
      <trkpt lat="42.4679720" lon="-7.2840780">
        <ele>239.6</ele>
        <time>2014-10-02T09:01:31Z</time>
      </trkpt>
      <trkpt lat="42.4680360" lon="-7.2840030">
        <ele>239.7</ele>
        <time>2014-10-02T09:01:32Z</time>
      </trkpt>
      <trkpt lat="42.4681010" lon="-7.2839180">
        <ele>239.7</ele>
        <time>2014-10-02T09:01:33Z</time>
      </trkpt>
      <trkpt lat="42.4681630" lon="-7.2838360">
        <ele>239.6</ele>
        <time>2014-10-02T09:01:34Z</time>
      </trkpt>
      <trkpt lat="42.4682270" lon="-7.2837540">
        <ele>239.6</ele>
        <time>2014-10-02T09:01:35Z</time>
      </trkpt>
      <trkpt lat="42.4682880" lon="-7.2836750">
        <ele>239.7</ele>
        <time>2014-10-02T09:01:36Z</time>
      </trkpt>
      <trkpt lat="42.4683470" lon="-7.2835980">
        <ele>239.7</ele>
        <time>2014-10-02T09:01:37Z</time>
      </trkpt>
      <trkpt lat="42.4684050" lon="-7.2835200">
        <ele>239.7</ele>
        <time>2014-10-02T09:01:38Z</time>
      </trkpt>
      <trkpt lat="42.4684660" lon="-7.2834460">
        <ele>239.7</ele>
        <time>2014-10-02T09:01:39Z</time>
      </trkpt>
      <trkpt lat="42.4685220" lon="-7.2833710">
        <ele>239.7</ele>
        <time>2014-10-02T09:01:40Z</time>
      </trkpt>
      <trkpt lat="42.4685760" lon="-7.2832950">
        <ele>239.7</ele>
        <time>2014-10-02T09:01:41Z</time>
      </trkpt>
      <trkpt lat="42.4686300" lon="-7.2832210">
        <ele>239.7</ele>
        <time>2014-10-02T09:01:42Z</time>
      </trkpt>
      <trkpt lat="42.4686790" lon="-7.2831510">
        <ele>239.7</ele>
        <time>2014-10-02T09:01:43Z</time>
      </trkpt>
      <trkpt lat="42.4687310" lon="-7.2830780">
        <ele>239.7</ele>
        <time>2014-10-02T09:01:44Z</time>
      </trkpt>
      <trkpt lat="42.4687830" lon="-7.2830080">
        <ele>239.8</ele>
        <time>2014-10-02T09:01:45Z</time>
      </trkpt>
      <trkpt lat="42.4688360" lon="-7.2829340">
        <ele>239.8</ele>
        <time>2014-10-02T09:01:46Z</time>
      </trkpt>
      <trkpt lat="42.4688920" lon="-7.2828560">
        <ele>239.8</ele>
        <time>2014-10-02T09:01:47Z</time>
      </trkpt>
      <trkpt lat="42.4689470" lon="-7.2827800">
        <ele>239.8</ele>
        <time>2014-10-02T09:01:48Z</time>
      </trkpt>
      <trkpt lat="42.4690040" lon="-7.2827040">
        <ele>239.8</ele>
        <time>2014-10-02T09:01:49Z</time>
      </trkpt>
      <trkpt lat="42.4690610" lon="-7.2826280">
        <ele>239.7</ele>
        <time>2014-10-02T09:01:50Z</time>
      </trkpt>
      <trkpt lat="42.4691170" lon="-7.2825500">
        <ele>239.7</ele>
        <time>2014-10-02T09:01:51Z</time>
      </trkpt>
      <trkpt lat="42.4691720" lon="-7.2824700">
        <ele>239.7</ele>
        <time>2014-10-02T09:01:52Z</time>
      </trkpt>
      <trkpt lat="42.4692280" lon="-7.2823940">
        <ele>239.6</ele>
        <time>2014-10-02T09:01:53Z</time>
      </trkpt>
      <trkpt lat="42.4692840" lon="-7.2823210">
        <ele>239.5</ele>
        <time>2014-10-02T09:01:54Z</time>
      </trkpt>
      <trkpt lat="42.4693390" lon="-7.2822480">
        <ele>239.5</ele>
        <time>2014-10-02T09:01:55Z</time>
      </trkpt>
      <trkpt lat="42.4693940" lon="-7.2821760">
        <ele>239.5</ele>
        <time>2014-10-02T09:01:56Z</time>
      </trkpt>
      <trkpt lat="42.4694480" lon="-7.2821040">
        <ele>239.4</ele>
        <time>2014-10-02T09:01:57Z</time>
      </trkpt>
      <trkpt lat="42.4695030" lon="-7.2820310">
        <ele>239.4</ele>
        <time>2014-10-02T09:01:58Z</time>
      </trkpt>
      <trkpt lat="42.4695580" lon="-7.2819590">
        <ele>239.4</ele>
        <time>2014-10-02T09:01:59Z</time>
      </trkpt>
      <trkpt lat="42.4696110" lon="-7.2818890">
        <ele>239.3</ele>
        <time>2014-10-02T09:02:00Z</time>
      </trkpt>
      <trkpt lat="42.4696650" lon="-7.2818110">
        <ele>239.3</ele>
        <time>2014-10-02T09:02:01Z</time>
      </trkpt>
      <trkpt lat="42.4697210" lon="-7.2817300">
        <ele>239.3</ele>
        <time>2014-10-02T09:02:02Z</time>
      </trkpt>
      <trkpt lat="42.4697750" lon="-7.2816470">
        <ele>239.2</ele>
        <time>2014-10-02T09:02:03Z</time>
      </trkpt>
      <trkpt lat="42.4698280" lon="-7.2815650">
        <ele>239.2</ele>
        <time>2014-10-02T09:02:04Z</time>
      </trkpt>
      <trkpt lat="42.4698790" lon="-7.2814890">
        <ele>239.1</ele>
        <time>2014-10-02T09:02:05Z</time>
      </trkpt>
      <trkpt lat="42.4699310" lon="-7.2814140">
        <ele>239.3</ele>
        <time>2014-10-02T09:02:06Z</time>
      </trkpt>
      <trkpt lat="42.4699830" lon="-7.2813430">
        <ele>239.5</ele>
        <time>2014-10-02T09:02:07Z</time>
      </trkpt>
      <trkpt lat="42.4700340" lon="-7.2812750">
        <ele>239.6</ele>
        <time>2014-10-02T09:02:08Z</time>
      </trkpt>
      <trkpt lat="42.4700850" lon="-7.2812130">
        <ele>239.8</ele>
        <time>2014-10-02T09:02:09Z</time>
      </trkpt>
      <trkpt lat="42.4701380" lon="-7.2811560">
        <ele>239.9</ele>
        <time>2014-10-02T09:02:10Z</time>
      </trkpt>
      <trkpt lat="42.4701960" lon="-7.2811030">
        <ele>240.0</ele>
        <time>2014-10-02T09:02:11Z</time>
      </trkpt>
      <trkpt lat="42.4702540" lon="-7.2810560">
        <ele>240.1</ele>
        <time>2014-10-02T09:02:12Z</time>
      </trkpt>
      <trkpt lat="42.4703150" lon="-7.2810160">
        <ele>240.2</ele>
        <time>2014-10-02T09:02:13Z</time>
      </trkpt>
      <trkpt lat="42.4703730" lon="-7.2809850">
        <ele>240.5</ele>
        <time>2014-10-02T09:02:14Z</time>
      </trkpt>
      <trkpt lat="42.4704330" lon="-7.2809590">
        <ele>240.8</ele>
        <time>2014-10-02T09:02:15Z</time>
      </trkpt>
      <trkpt lat="42.4704940" lon="-7.2809380">
        <ele>240.9</ele>
        <time>2014-10-02T09:02:16Z</time>
      </trkpt>
      <trkpt lat="42.4705560" lon="-7.2809220">
        <ele>241.1</ele>
        <time>2014-10-02T09:02:17Z</time>
      </trkpt>
      <trkpt lat="42.4706210" lon="-7.2809110">
        <ele>241.2</ele>
        <time>2014-10-02T09:02:18Z</time>
      </trkpt>
      <trkpt lat="42.4706870" lon="-7.2809140">
        <ele>241.3</ele>
        <time>2014-10-02T09:02:19Z</time>
      </trkpt>
      <trkpt lat="42.4707550" lon="-7.2809180">
        <ele>241.4</ele>
        <time>2014-10-02T09:02:20Z</time>
      </trkpt>
      <trkpt lat="42.4708210" lon="-7.2809240">
        <ele>241.5</ele>
        <time>2014-10-02T09:02:21Z</time>
      </trkpt>
      <trkpt lat="42.4708840" lon="-7.2809340">
        <ele>241.6</ele>
        <time>2014-10-02T09:02:22Z</time>
      </trkpt>
      <trkpt lat="42.4709500" lon="-7.2809400">
        <ele>241.7</ele>
        <time>2014-10-02T09:02:23Z</time>
      </trkpt>
      <trkpt lat="42.4710200" lon="-7.2809450">
        <ele>241.7</ele>
        <time>2014-10-02T09:02:24Z</time>
      </trkpt>
      <trkpt lat="42.4710890" lon="-7.2809470">
        <ele>241.8</ele>
        <time>2014-10-02T09:02:25Z</time>
      </trkpt>
      <trkpt lat="42.4711550" lon="-7.2809460">
        <ele>241.8</ele>
        <time>2014-10-02T09:02:26Z</time>
      </trkpt>
      <trkpt lat="42.4712250" lon="-7.2809420">
        <ele>241.8</ele>
        <time>2014-10-02T09:02:27Z</time>
      </trkpt>
      <trkpt lat="42.4712930" lon="-7.2809400">
        <ele>241.8</ele>
        <time>2014-10-02T09:02:28Z</time>
      </trkpt>
      <trkpt lat="42.4713610" lon="-7.2809410">
        <ele>241.8</ele>
        <time>2014-10-02T09:02:29Z</time>
      </trkpt>
      <trkpt lat="42.4714310" lon="-7.2809440">
        <ele>241.8</ele>
        <time>2014-10-02T09:02:30Z</time>
      </trkpt>
      <trkpt lat="42.4714980" lon="-7.2809460">
        <ele>241.8</ele>
        <time>2014-10-02T09:02:31Z</time>
      </trkpt>
      <trkpt lat="42.4715660" lon="-7.2809490">
        <ele>241.8</ele>
        <time>2014-10-02T09:02:32Z</time>
      </trkpt>
      <trkpt lat="42.4716330" lon="-7.2809500">
        <ele>241.8</ele>
        <time>2014-10-02T09:02:33Z</time>
      </trkpt>
      <trkpt lat="42.4717020" lon="-7.2809520">
        <ele>241.8</ele>
        <time>2014-10-02T09:02:34Z</time>
      </trkpt>
      <trkpt lat="42.4717710" lon="-7.2809540">
        <ele>241.9</ele>
        <time>2014-10-02T09:02:35Z</time>
      </trkpt>
      <trkpt lat="42.4718410" lon="-7.2809570">
        <ele>241.9</ele>
        <time>2014-10-02T09:02:36Z</time>
      </trkpt>
      <trkpt lat="42.4719130" lon="-7.2809590">
        <ele>241.9</ele>
        <time>2014-10-02T09:02:37Z</time>
      </trkpt>
      <trkpt lat="42.4719840" lon="-7.2809600">
        <ele>241.9</ele>
        <time>2014-10-02T09:02:38Z</time>
      </trkpt>
      <trkpt lat="42.4720530" lon="-7.2809610">
        <ele>241.8</ele>
        <time>2014-10-02T09:02:39Z</time>
      </trkpt>
      <trkpt lat="42.4721240" lon="-7.2809610">
        <ele>241.8</ele>
        <time>2014-10-02T09:02:40Z</time>
      </trkpt>
      <trkpt lat="42.4721940" lon="-7.2809610">
        <ele>241.8</ele>
        <time>2014-10-02T09:02:41Z</time>
      </trkpt>
      <trkpt lat="42.4722630" lon="-7.2809610">
        <ele>241.8</ele>
        <time>2014-10-02T09:02:42Z</time>
      </trkpt>
      <trkpt lat="42.4723330" lon="-7.2809620">
        <ele>241.7</ele>
        <time>2014-10-02T09:02:43Z</time>
      </trkpt>
      <trkpt lat="42.4724040" lon="-7.2809610">
        <ele>241.7</ele>
        <time>2014-10-02T09:02:44Z</time>
      </trkpt>
      <trkpt lat="42.4724690" lon="-7.2809580">
        <ele>241.7</ele>
        <time>2014-10-02T09:02:45Z</time>
      </trkpt>
      <trkpt lat="42.4725410" lon="-7.2809570">
        <ele>241.6</ele>
        <time>2014-10-02T09:02:46Z</time>
      </trkpt>
      <trkpt lat="42.4726100" lon="-7.2809540">
        <ele>241.5</ele>
        <time>2014-10-02T09:02:47Z</time>
      </trkpt>
      <trkpt lat="42.4726820" lon="-7.2809510">
        <ele>241.5</ele>
        <time>2014-10-02T09:02:48Z</time>
      </trkpt>
      <trkpt lat="42.4727550" lon="-7.2809440">
        <ele>241.6</ele>
        <time>2014-10-02T09:02:49Z</time>
      </trkpt>
      <trkpt lat="42.4728280" lon="-7.2809330">
        <ele>241.7</ele>
        <time>2014-10-02T09:02:50Z</time>
      </trkpt>
      <trkpt lat="42.4728910" lon="-7.2809030">
        <ele>241.8</ele>
        <time>2014-10-02T09:02:51Z</time>
      </trkpt>
      <trkpt lat="42.4729560" lon="-7.2808700">
        <ele>241.9</ele>
        <time>2014-10-02T09:02:52Z</time>
      </trkpt>
      <trkpt lat="42.4730200" lon="-7.2808300">
        <ele>242.1</ele>
        <time>2014-10-02T09:02:53Z</time>
      </trkpt>
      <trkpt lat="42.4730730" lon="-7.2807640">
        <ele>242.4</ele>
        <time>2014-10-02T09:02:54Z</time>
      </trkpt>
      <trkpt lat="42.4731230" lon="-7.2806900">
        <ele>242.7</ele>
        <time>2014-10-02T09:02:55Z</time>
      </trkpt>
      <trkpt lat="42.4731600" lon="-7.2805980">
        <ele>243.0</ele>
        <time>2014-10-02T09:02:56Z</time>
      </trkpt>
      <trkpt lat="42.4731950" lon="-7.2805050">
        <ele>243.2</ele>
        <time>2014-10-02T09:02:57Z</time>
      </trkpt>
      <trkpt lat="42.4732210" lon="-7.2804210">
        <ele>243.4</ele>
        <time>2014-10-02T09:02:58Z</time>
      </trkpt>
      <trkpt lat="42.4732460" lon="-7.2803350">
        <ele>243.7</ele>
        <time>2014-10-02T09:02:59Z</time>
      </trkpt>
      <trkpt lat="42.4732680" lon="-7.2802490">
        <ele>244.0</ele>
        <time>2014-10-02T09:03:00Z</time>
      </trkpt>
      <trkpt lat="42.4732880" lon="-7.2801650">
        <ele>244.4</ele>
        <time>2014-10-02T09:03:01Z</time>
      </trkpt>
      <trkpt lat="42.4733030" lon="-7.2800970">
        <ele>244.6</ele>
        <time>2014-10-02T09:03:02Z</time>
      </trkpt>
      <trkpt lat="42.4733170" lon="-7.2800290">
        <ele>244.9</ele>
        <time>2014-10-02T09:03:03Z</time>
      </trkpt>
      <trkpt lat="42.4733330" lon="-7.2799590">
        <ele>245.3</ele>
        <time>2014-10-02T09:03:04Z</time>
      </trkpt>
      <trkpt lat="42.4733490" lon="-7.2798880">
        <ele>245.8</ele>
        <time>2014-10-02T09:03:05Z</time>
      </trkpt>
      <trkpt lat="42.4733620" lon="-7.2798260">
        <ele>246.3</ele>
        <time>2014-10-02T09:03:06Z</time>
      </trkpt>
      <trkpt lat="42.4733750" lon="-7.2797600">
        <ele>246.7</ele>
        <time>2014-10-02T09:03:07Z</time>
      </trkpt>
      <trkpt lat="42.4733890" lon="-7.2796880">
        <ele>247.2</ele>
        <time>2014-10-02T09:03:08Z</time>
      </trkpt>
      <trkpt lat="42.4734000" lon="-7.2796250">
        <ele>247.6</ele>
        <time>2014-10-02T09:03:09Z</time>
      </trkpt>
      <trkpt lat="42.4734130" lon="-7.2795580">
        <ele>248.1</ele>
        <time>2014-10-02T09:03:10Z</time>
      </trkpt>
      <trkpt lat="42.4734260" lon="-7.2794940">
        <ele>248.5</ele>
        <time>2014-10-02T09:03:11Z</time>
      </trkpt>
      <trkpt lat="42.4734420" lon="-7.2794340">
        <ele>248.9</ele>
        <time>2014-10-02T09:03:12Z</time>
      </trkpt>
      <trkpt lat="42.4734620" lon="-7.2793670">
        <ele>248.7</ele>
        <time>2014-10-02T09:03:13Z</time>
      </trkpt>
      <trkpt lat="42.4734820" lon="-7.2792960">
        <ele>248.4</ele>
        <time>2014-10-02T09:03:14Z</time>
      </trkpt>
      <trkpt lat="42.4735000" lon="-7.2792380">
        <ele>248.7</ele>
        <time>2014-10-02T09:03:15Z</time>
      </trkpt>
      <trkpt lat="42.4735160" lon="-7.2791890">
        <ele>248.9</ele>
        <time>2014-10-02T09:03:16Z</time>
      </trkpt>
      <trkpt lat="42.4735320" lon="-7.2791480">
        <ele>249.1</ele>
        <time>2014-10-02T09:03:17Z</time>
      </trkpt>
      <trkpt lat="42.4735500" lon="-7.2791030">
        <ele>249.4</ele>
        <time>2014-10-02T09:03:18Z</time>
      </trkpt>
      <trkpt lat="42.4735710" lon="-7.2790540">
        <ele>249.6</ele>
        <time>2014-10-02T09:03:19Z</time>
      </trkpt>
      <trkpt lat="42.4735950" lon="-7.2790040">
        <ele>249.9</ele>
        <time>2014-10-02T09:03:20Z</time>
      </trkpt>
      <trkpt lat="42.4736210" lon="-7.2789550">
        <ele>250.1</ele>
        <time>2014-10-02T09:03:21Z</time>
      </trkpt>
      <trkpt lat="42.4736510" lon="-7.2789060">
        <ele>250.4</ele>
        <time>2014-10-02T09:03:22Z</time>
      </trkpt>
      <trkpt lat="42.4736820" lon="-7.2788520">
        <ele>250.7</ele>
        <time>2014-10-02T09:03:23Z</time>
      </trkpt>
      <trkpt lat="42.4737100" lon="-7.2788070">
        <ele>250.8</ele>
        <time>2014-10-02T09:03:24Z</time>
      </trkpt>
      <trkpt lat="42.4737400" lon="-7.2787610">
        <ele>250.9</ele>
        <time>2014-10-02T09:03:25Z</time>
      </trkpt>
      <trkpt lat="42.4737710" lon="-7.2787150">
        <ele>251.1</ele>
        <time>2014-10-02T09:03:26Z</time>
      </trkpt>
      <trkpt lat="42.4738070" lon="-7.2786590">
        <ele>251.3</ele>
        <time>2014-10-02T09:03:27Z</time>
      </trkpt>
      <trkpt lat="42.4738370" lon="-7.2786150">
        <ele>251.5</ele>
        <time>2014-10-02T09:03:28Z</time>
      </trkpt>
      <trkpt lat="42.4738650" lon="-7.2785700">
        <ele>251.6</ele>
        <time>2014-10-02T09:03:29Z</time>
      </trkpt>
      <trkpt lat="42.4738930" lon="-7.2785260">
        <ele>251.8</ele>
        <time>2014-10-02T09:03:30Z</time>
      </trkpt>
      <trkpt lat="42.4739220" lon="-7.2784830">
        <ele>252.1</ele>
        <time>2014-10-02T09:03:31Z</time>
      </trkpt>
      <trkpt lat="42.4739520" lon="-7.2784380">
        <ele>252.5</ele>
        <time>2014-10-02T09:03:32Z</time>
      </trkpt>
      <trkpt lat="42.4739840" lon="-7.2783920">
        <ele>252.9</ele>
        <time>2014-10-02T09:03:33Z</time>
      </trkpt>
      <trkpt lat="42.4740140" lon="-7.2783470">
        <ele>253.3</ele>
        <time>2014-10-02T09:03:34Z</time>
      </trkpt>
      <trkpt lat="42.4740430" lon="-7.2783020">
        <ele>253.7</ele>
        <time>2014-10-02T09:03:35Z</time>
      </trkpt>
      <trkpt lat="42.4740730" lon="-7.2782580">
        <ele>254.0</ele>
        <time>2014-10-02T09:03:36Z</time>
      </trkpt>
      <trkpt lat="42.4740990" lon="-7.2782220">
        <ele>254.4</ele>
        <time>2014-10-02T09:03:37Z</time>
      </trkpt>
      <trkpt lat="42.4741590" lon="-7.2781290">
        <ele>255.2</ele>
        <time>2014-10-02T09:03:40Z</time>
      </trkpt>
      <trkpt lat="42.4741850" lon="-7.2780860">
        <ele>255.5</ele>
        <time>2014-10-02T09:03:41Z</time>
      </trkpt>
      <trkpt lat="42.4742130" lon="-7.2780420">
        <ele>255.9</ele>
        <time>2014-10-02T09:03:42Z</time>
      </trkpt>
      <trkpt lat="42.4742460" lon="-7.2779890">
        <ele>256.3</ele>
        <time>2014-10-02T09:03:43Z</time>
      </trkpt>
      <trkpt lat="42.4742750" lon="-7.2779380">
        <ele>256.5</ele>
        <time>2014-10-02T09:03:44Z</time>
      </trkpt>
      <trkpt lat="42.4743010" lon="-7.2778890">
        <ele>256.7</ele>
        <time>2014-10-02T09:03:45Z</time>
      </trkpt>
      <trkpt lat="42.4743250" lon="-7.2778440">
        <ele>256.9</ele>
        <time>2014-10-02T09:03:46Z</time>
      </trkpt>
      <trkpt lat="42.4743520" lon="-7.2778030">
        <ele>257.1</ele>
        <time>2014-10-02T09:03:47Z</time>
      </trkpt>
      <trkpt lat="42.4743770" lon="-7.2777630">
        <ele>257.3</ele>
        <time>2014-10-02T09:03:48Z</time>
      </trkpt>
      <trkpt lat="42.4744040" lon="-7.2777220">
        <ele>257.5</ele>
        <time>2014-10-02T09:03:49Z</time>
      </trkpt>
      <trkpt lat="42.4744290" lon="-7.2776870">
        <ele>257.6</ele>
        <time>2014-10-02T09:03:50Z</time>
      </trkpt>
      <trkpt lat="42.4744580" lon="-7.2776490">
        <ele>257.8</ele>
        <time>2014-10-02T09:03:51Z</time>
      </trkpt>
      <trkpt lat="42.4744860" lon="-7.2776130">
        <ele>258.0</ele>
        <time>2014-10-02T09:03:52Z</time>
      </trkpt>
      <trkpt lat="42.4745140" lon="-7.2775780">
        <ele>258.3</ele>
        <time>2014-10-02T09:03:53Z</time>
      </trkpt>
      <trkpt lat="42.4745400" lon="-7.2775430">
        <ele>258.6</ele>
        <time>2014-10-02T09:03:54Z</time>
      </trkpt>
      <trkpt lat="42.4745690" lon="-7.2775080">
        <ele>258.9</ele>
        <time>2014-10-02T09:03:55Z</time>
      </trkpt>
      <trkpt lat="42.4745970" lon="-7.2774760">
        <ele>259.1</ele>
        <time>2014-10-02T09:03:56Z</time>
      </trkpt>
      <trkpt lat="42.4746260" lon="-7.2774340">
        <ele>259.5</ele>
        <time>2014-10-02T09:03:57Z</time>
      </trkpt>
      <trkpt lat="42.4746520" lon="-7.2773940">
        <ele>259.8</ele>
        <time>2014-10-02T09:03:58Z</time>
      </trkpt>
      <trkpt lat="42.4746760" lon="-7.2773560">
        <ele>260.1</ele>
        <time>2014-10-02T09:03:59Z</time>
      </trkpt>
      <trkpt lat="42.4747000" lon="-7.2773210">
        <ele>260.3</ele>
        <time>2014-10-02T09:04:00Z</time>
      </trkpt>
      <trkpt lat="42.4747250" lon="-7.2772860">
        <ele>260.5</ele>
        <time>2014-10-02T09:04:01Z</time>
      </trkpt>
      <trkpt lat="42.4747480" lon="-7.2772560">
        <ele>260.7</ele>
        <time>2014-10-02T09:04:02Z</time>
      </trkpt>
      <trkpt lat="42.4747750" lon="-7.2772210">
        <ele>261.0</ele>
        <time>2014-10-02T09:04:03Z</time>
      </trkpt>
      <trkpt lat="42.4748030" lon="-7.2771850">
        <ele>261.2</ele>
        <time>2014-10-02T09:04:04Z</time>
      </trkpt>
      <trkpt lat="42.4748270" lon="-7.2771570">
        <ele>261.5</ele>
        <time>2014-10-02T09:04:05Z</time>
      </trkpt>
      <trkpt lat="42.4748500" lon="-7.2771290">
        <ele>261.7</ele>
        <time>2014-10-02T09:04:06Z</time>
      </trkpt>
      <trkpt lat="42.4748730" lon="-7.2771010">
        <ele>261.9</ele>
        <time>2014-10-02T09:04:07Z</time>
      </trkpt>
      <trkpt lat="42.4749030" lon="-7.2770630">
        <ele>262.2</ele>
        <time>2014-10-02T09:04:08Z</time>
      </trkpt>
      <trkpt lat="42.4749380" lon="-7.2770210">
        <ele>262.6</ele>
        <time>2014-10-02T09:04:09Z</time>
      </trkpt>
      <trkpt lat="42.4749690" lon="-7.2769810">
        <ele>262.9</ele>
        <time>2014-10-02T09:04:10Z</time>
      </trkpt>
      <trkpt lat="42.4749930" lon="-7.2769480">
        <ele>263.2</ele>
        <time>2014-10-02T09:04:11Z</time>
      </trkpt>
      <trkpt lat="42.4750140" lon="-7.2769170">
        <ele>263.5</ele>
        <time>2014-10-02T09:04:12Z</time>
      </trkpt>
      <trkpt lat="42.4750370" lon="-7.2768830">
        <ele>263.8</ele>
        <time>2014-10-02T09:04:13Z</time>
      </trkpt>
      <trkpt lat="42.4750620" lon="-7.2768480">
        <ele>264.0</ele>
        <time>2014-10-02T09:04:14Z</time>
      </trkpt>
      <trkpt lat="42.4750850" lon="-7.2768120">
        <ele>264.3</ele>
        <time>2014-10-02T09:04:15Z</time>
      </trkpt>
      <trkpt lat="42.4751080" lon="-7.2767810">
        <ele>264.6</ele>
        <time>2014-10-02T09:04:16Z</time>
      </trkpt>
      <trkpt lat="42.4751310" lon="-7.2767430">
        <ele>264.8</ele>
        <time>2014-10-02T09:04:17Z</time>
      </trkpt>
      <trkpt lat="42.4751540" lon="-7.2767030">
        <ele>265.1</ele>
        <time>2014-10-02T09:04:18Z</time>
      </trkpt>
      <trkpt lat="42.4751780" lon="-7.2766590">
        <ele>265.4</ele>
        <time>2014-10-02T09:04:19Z</time>
      </trkpt>
      <trkpt lat="42.4752030" lon="-7.2766160">
        <ele>265.8</ele>
        <time>2014-10-02T09:04:20Z</time>
      </trkpt>
      <trkpt lat="42.4752260" lon="-7.2765780">
        <ele>266.1</ele>
        <time>2014-10-02T09:04:21Z</time>
      </trkpt>
      <trkpt lat="42.4752510" lon="-7.2765390">
        <ele>266.3</ele>
        <time>2014-10-02T09:04:22Z</time>
      </trkpt>
      <trkpt lat="42.4752750" lon="-7.2765000">
        <ele>266.5</ele>
        <time>2014-10-02T09:04:23Z</time>
      </trkpt>
      <trkpt lat="42.4752990" lon="-7.2764570">
        <ele>266.7</ele>
        <time>2014-10-02T09:04:24Z</time>
      </trkpt>
      <trkpt lat="42.4753290" lon="-7.2764290">
        <ele>266.9</ele>
        <time>2014-10-02T09:04:25Z</time>
      </trkpt>
      <trkpt lat="42.4753500" lon="-7.2763850">
        <ele>267.1</ele>
        <time>2014-10-02T09:04:26Z</time>
      </trkpt>
      <trkpt lat="42.4753680" lon="-7.2763440">
        <ele>267.3</ele>
        <time>2014-10-02T09:04:27Z</time>
      </trkpt>
      <trkpt lat="42.4753900" lon="-7.2763100">
        <ele>267.4</ele>
        <time>2014-10-02T09:04:28Z</time>
      </trkpt>
      <trkpt lat="42.4754170" lon="-7.2762740">
        <ele>267.6</ele>
        <time>2014-10-02T09:04:29Z</time>
      </trkpt>
      <trkpt lat="42.4754430" lon="-7.2762350">
        <ele>267.8</ele>
        <time>2014-10-02T09:04:30Z</time>
      </trkpt>
      <trkpt lat="42.4754720" lon="-7.2761970">
        <ele>268.0</ele>
        <time>2014-10-02T09:04:31Z</time>
      </trkpt>
      <trkpt lat="42.4754990" lon="-7.2761570">
        <ele>268.2</ele>
        <time>2014-10-02T09:04:32Z</time>
      </trkpt>
      <trkpt lat="42.4755200" lon="-7.2761230">
        <ele>268.4</ele>
        <time>2014-10-02T09:04:33Z</time>
      </trkpt>
      <trkpt lat="42.4755390" lon="-7.2760910">
        <ele>268.5</ele>
        <time>2014-10-02T09:04:34Z</time>
      </trkpt>
      <trkpt lat="42.4755580" lon="-7.2760580">
        <ele>268.7</ele>
        <time>2014-10-02T09:04:35Z</time>
      </trkpt>
      <trkpt lat="42.4755780" lon="-7.2760220">
        <ele>268.8</ele>
        <time>2014-10-02T09:04:36Z</time>
      </trkpt>
      <trkpt lat="42.4756020" lon="-7.2759830">
        <ele>269.0</ele>
        <time>2014-10-02T09:04:37Z</time>
      </trkpt>
      <trkpt lat="42.4756270" lon="-7.2759420">
        <ele>269.2</ele>
        <time>2014-10-02T09:04:38Z</time>
      </trkpt>
      <trkpt lat="42.4756530" lon="-7.2759140">
        <ele>269.3</ele>
        <time>2014-10-02T09:04:39Z</time>
      </trkpt>
      <trkpt lat="42.4756770" lon="-7.2758830">
        <ele>269.5</ele>
        <time>2014-10-02T09:04:40Z</time>
      </trkpt>
      <trkpt lat="42.4756940" lon="-7.2758360">
        <ele>269.7</ele>
        <time>2014-10-02T09:04:41Z</time>
      </trkpt>
      <trkpt lat="42.4757120" lon="-7.2757870">
        <ele>269.9</ele>
        <time>2014-10-02T09:04:42Z</time>
      </trkpt>
      <trkpt lat="42.4757320" lon="-7.2757420">
        <ele>270.0</ele>
        <time>2014-10-02T09:04:43Z</time>
      </trkpt>
      <trkpt lat="42.4757550" lon="-7.2756940">
        <ele>270.2</ele>
        <time>2014-10-02T09:04:44Z</time>
      </trkpt>
      <trkpt lat="42.4757850" lon="-7.2756380">
        <ele>270.5</ele>
        <time>2014-10-02T09:04:45Z</time>
      </trkpt>
      <trkpt lat="42.4758160" lon="-7.2755880">
        <ele>270.7</ele>
        <time>2014-10-02T09:04:46Z</time>
      </trkpt>
      <trkpt lat="42.4758470" lon="-7.2755390">
        <ele>270.9</ele>
        <time>2014-10-02T09:04:47Z</time>
      </trkpt>
      <trkpt lat="42.4758740" lon="-7.2754960">
        <ele>271.0</ele>
        <time>2014-10-02T09:04:48Z</time>
      </trkpt>
      <trkpt lat="42.4759010" lon="-7.2754460">
        <ele>271.2</ele>
        <time>2014-10-02T09:04:49Z</time>
      </trkpt>
      <trkpt lat="42.4759250" lon="-7.2753960">
        <ele>271.4</ele>
        <time>2014-10-02T09:04:50Z</time>
      </trkpt>
      <trkpt lat="42.4759530" lon="-7.2753420">
        <ele>271.5</ele>
        <time>2014-10-02T09:04:51Z</time>
      </trkpt>
      <trkpt lat="42.4759780" lon="-7.2752950">
        <ele>271.6</ele>
        <time>2014-10-02T09:04:52Z</time>
      </trkpt>
      <trkpt lat="42.4760030" lon="-7.2752480">
        <ele>271.7</ele>
        <time>2014-10-02T09:04:53Z</time>
      </trkpt>
      <trkpt lat="42.4760350" lon="-7.2752180">
        <ele>271.8</ele>
        <time>2014-10-02T09:04:54Z</time>
      </trkpt>
      <trkpt lat="42.4760540" lon="-7.2751580">
        <ele>271.9</ele>
        <time>2014-10-02T09:04:55Z</time>
      </trkpt>
      <trkpt lat="42.4760750" lon="-7.2750820">
        <ele>272.0</ele>
        <time>2014-10-02T09:04:56Z</time>
      </trkpt>
      <trkpt lat="42.4760960" lon="-7.2750050">
        <ele>272.1</ele>
        <time>2014-10-02T09:04:57Z</time>
      </trkpt>
      <trkpt lat="42.4761160" lon="-7.2749360">
        <ele>272.2</ele>
        <time>2014-10-02T09:04:58Z</time>
      </trkpt>
      <trkpt lat="42.4761380" lon="-7.2748670">
        <ele>272.3</ele>
        <time>2014-10-02T09:04:59Z</time>
      </trkpt>
      <trkpt lat="42.4761580" lon="-7.2748110">
        <ele>272.4</ele>
        <time>2014-10-02T09:05:00Z</time>
      </trkpt>
      <trkpt lat="42.4761830" lon="-7.2747510">
        <ele>272.4</ele>
        <time>2014-10-02T09:05:01Z</time>
      </trkpt>
      <trkpt lat="42.4762080" lon="-7.2746910">
        <ele>272.5</ele>
        <time>2014-10-02T09:05:02Z</time>
      </trkpt>
      <trkpt lat="42.4762310" lon="-7.2746330">
        <ele>272.6</ele>
        <time>2014-10-02T09:05:03Z</time>
      </trkpt>
      <trkpt lat="42.4762520" lon="-7.2745770">
        <ele>272.6</ele>
        <time>2014-10-02T09:05:04Z</time>
      </trkpt>
      <trkpt lat="42.4762620" lon="-7.2745180">
        <ele>272.7</ele>
        <time>2014-10-02T09:05:05Z</time>
      </trkpt>
      <trkpt lat="42.4762720" lon="-7.2744640">
        <ele>272.7</ele>
        <time>2014-10-02T09:05:06Z</time>
      </trkpt>
      <trkpt lat="42.4762830" lon="-7.2744110">
        <ele>272.8</ele>
        <time>2014-10-02T09:05:07Z</time>
      </trkpt>
      <trkpt lat="42.4762930" lon="-7.2743470">
        <ele>272.8</ele>
        <time>2014-10-02T09:05:08Z</time>
      </trkpt>
      <trkpt lat="42.4763020" lon="-7.2742770">
        <ele>272.9</ele>
        <time>2014-10-02T09:05:09Z</time>
      </trkpt>
      <trkpt lat="42.4763080" lon="-7.2742100">
        <ele>272.9</ele>
        <time>2014-10-02T09:05:10Z</time>
      </trkpt>
      <trkpt lat="42.4763140" lon="-7.2741430">
        <ele>273.0</ele>
        <time>2014-10-02T09:05:11Z</time>
      </trkpt>
      <trkpt lat="42.4763190" lon="-7.2740840">
        <ele>273.0</ele>
        <time>2014-10-02T09:05:12Z</time>
      </trkpt>
      <trkpt lat="42.4763260" lon="-7.2740170">
        <ele>273.0</ele>
        <time>2014-10-02T09:05:13Z</time>
      </trkpt>
      <trkpt lat="42.4763310" lon="-7.2739580">
        <ele>273.1</ele>
        <time>2014-10-02T09:05:14Z</time>
      </trkpt>
      <trkpt lat="42.4763350" lon="-7.2738940">
        <ele>273.1</ele>
        <time>2014-10-02T09:05:15Z</time>
      </trkpt>
      <trkpt lat="42.4763380" lon="-7.2738340">
        <ele>273.1</ele>
        <time>2014-10-02T09:05:16Z</time>
      </trkpt>
      <trkpt lat="42.4763430" lon="-7.2737710">
        <ele>273.1</ele>
        <time>2014-10-02T09:05:17Z</time>
      </trkpt>
      <trkpt lat="42.4763470" lon="-7.2737060">
        <ele>273.2</ele>
        <time>2014-10-02T09:05:18Z</time>
      </trkpt>
      <trkpt lat="42.4763500" lon="-7.2736450">
        <ele>273.2</ele>
        <time>2014-10-02T09:05:19Z</time>
      </trkpt>
      <trkpt lat="42.4763530" lon="-7.2735860">
        <ele>273.2</ele>
        <time>2014-10-02T09:05:20Z</time>
      </trkpt>
      <trkpt lat="42.4763550" lon="-7.2735260">
        <ele>273.2</ele>
        <time>2014-10-02T09:05:21Z</time>
      </trkpt>
      <trkpt lat="42.4763610" lon="-7.2734900">
        <ele>273.2</ele>
        <time>2014-10-02T09:05:22Z</time>
      </trkpt>
      <trkpt lat="42.4763500" lon="-7.2734190">
        <ele>273.2</ele>
        <time>2014-10-02T09:05:23Z</time>
      </trkpt>
      <trkpt lat="42.4763340" lon="-7.2733330">
        <ele>273.2</ele>
        <time>2014-10-02T09:05:24Z</time>
      </trkpt>
      <trkpt lat="42.4763310" lon="-7.2732590">
        <ele>273.2</ele>
        <time>2014-10-02T09:05:25Z</time>
      </trkpt>
      <trkpt lat="42.4763210" lon="-7.2731830">
        <ele>273.0</ele>
        <time>2014-10-02T09:05:26Z</time>
      </trkpt>
      <trkpt lat="42.4763090" lon="-7.2731130">
        <ele>272.9</ele>
        <time>2014-10-02T09:05:27Z</time>
      </trkpt>
      <trkpt lat="42.4762980" lon="-7.2730480">
        <ele>272.7</ele>
        <time>2014-10-02T09:05:28Z</time>
      </trkpt>
      <trkpt lat="42.4762860" lon="-7.2729790">
        <ele>272.6</ele>
        <time>2014-10-02T09:05:29Z</time>
      </trkpt>
      <trkpt lat="42.4762640" lon="-7.2729060">
        <ele>272.3</ele>
        <time>2014-10-02T09:05:30Z</time>
      </trkpt>
      <trkpt lat="42.4762410" lon="-7.2728380">
        <ele>272.1</ele>
        <time>2014-10-02T09:05:31Z</time>
      </trkpt>
      <trkpt lat="42.4762180" lon="-7.2727710">
        <ele>271.9</ele>
        <time>2014-10-02T09:05:32Z</time>
      </trkpt>
      <trkpt lat="42.4761990" lon="-7.2727060">
        <ele>271.8</ele>
        <time>2014-10-02T09:05:33Z</time>
      </trkpt>
      <trkpt lat="42.4761740" lon="-7.2726330">
        <ele>271.5</ele>
        <time>2014-10-02T09:05:34Z</time>
      </trkpt>
      <trkpt lat="42.4761500" lon="-7.2725690">
        <ele>271.4</ele>
        <time>2014-10-02T09:05:35Z</time>
      </trkpt>
      <trkpt lat="42.4761410" lon="-7.2725130">
        <ele>271.2</ele>
        <time>2014-10-02T09:05:36Z</time>
      </trkpt>
      <trkpt lat="42.4761240" lon="-7.2724520">
        <ele>271.1</ele>
        <time>2014-10-02T09:05:37Z</time>
      </trkpt>
      <trkpt lat="42.4761080" lon="-7.2724040">
        <ele>270.9</ele>
        <time>2014-10-02T09:05:38Z</time>
      </trkpt>
      <trkpt lat="42.4760940" lon="-7.2723560">
        <ele>270.9</ele>
        <time>2014-10-02T09:05:39Z</time>
      </trkpt>
      <trkpt lat="42.4760780" lon="-7.2723180">
        <ele>270.8</ele>
        <time>2014-10-02T09:05:40Z</time>
      </trkpt>
      <trkpt lat="42.4760620" lon="-7.2722670">
        <ele>270.7</ele>
        <time>2014-10-02T09:05:41Z</time>
      </trkpt>
      <trkpt lat="42.4760490" lon="-7.2722180">
        <ele>270.7</ele>
        <time>2014-10-02T09:05:42Z</time>
      </trkpt>
      <trkpt lat="42.4760310" lon="-7.2721620">
        <ele>270.6</ele>
        <time>2014-10-02T09:05:43Z</time>
      </trkpt>
      <trkpt lat="42.4760210" lon="-7.2721140">
        <ele>270.6</ele>
        <time>2014-10-02T09:05:44Z</time>
      </trkpt>
      <trkpt lat="42.4760090" lon="-7.2720660">
        <ele>270.6</ele>
        <time>2014-10-02T09:05:45Z</time>
      </trkpt>
      <trkpt lat="42.4759920" lon="-7.2720200">
        <ele>270.6</ele>
        <time>2014-10-02T09:05:46Z</time>
      </trkpt>
      <trkpt lat="42.4759740" lon="-7.2719890">
        <ele>270.6</ele>
        <time>2014-10-02T09:05:47Z</time>
      </trkpt>
      <trkpt lat="42.4758280" lon="-7.2723160">
        <ele>270.6</ele>
        <time>2014-10-02T09:09:53Z</time>
      </trkpt>
      <trkpt lat="42.4758030" lon="-7.2719060">
        <ele>270.0</ele>
        <time>2014-10-02T09:10:18Z</time>
      </trkpt>
      <trkpt lat="42.4758410" lon="-7.2716090">
        <ele>269.7</ele>
        <time>2014-10-02T09:10:24Z</time>
      </trkpt>
      <trkpt lat="42.4758380" lon="-7.2715510">
        <ele>269.7</ele>
        <time>2014-10-02T09:10:25Z</time>
      </trkpt>
      <trkpt lat="42.4757940" lon="-7.2716070">
        <ele>269.7</ele>
        <time>2014-10-02T09:12:20Z</time>
      </trkpt>
      <trkpt lat="42.4758360" lon="-7.2715350">
        <ele>269.7</ele>
        <time>2014-10-02T09:12:26Z</time>
      </trkpt>
      <trkpt lat="42.4758750" lon="-7.2715450">
        <ele>269.7</ele>
        <time>2014-10-02T09:12:28Z</time>
      </trkpt>
      <trkpt lat="42.4759420" lon="-7.2717190">
        <ele>269.7</ele>
        <time>2014-10-02T09:12:30Z</time>
      </trkpt>
      <trkpt lat="42.4759650" lon="-7.2717780">
        <ele>269.7</ele>
        <time>2014-10-02T09:12:31Z</time>
      </trkpt>
      <trkpt lat="42.4759890" lon="-7.2718200">
        <ele>269.7</ele>
        <time>2014-10-02T09:12:32Z</time>
      </trkpt>
      <trkpt lat="42.4760090" lon="-7.2718550">
        <ele>269.7</ele>
        <time>2014-10-02T09:12:42Z</time>
      </trkpt>
      <trkpt lat="42.4760190" lon="-7.2718940">
        <ele>269.7</ele>
        <time>2014-10-02T09:12:44Z</time>
      </trkpt>
      <trkpt lat="42.4760420" lon="-7.2719290">
        <ele>269.7</ele>
        <time>2014-10-02T09:12:50Z</time>
      </trkpt>
      <trkpt lat="42.4758890" lon="-7.2720060">
        <ele>269.7</ele>
        <time>2014-10-02T09:20:36Z</time>
      </trkpt>
      <trkpt lat="42.4760460" lon="-7.2717970">
        <ele>271.8</ele>
        <time>2014-10-02T09:20:45Z</time>
      </trkpt>
      <trkpt lat="42.4760140" lon="-7.2718700">
        <ele>272.0</ele>
        <time>2014-10-02T09:20:46Z</time>
      </trkpt>
      <trkpt lat="42.4760370" lon="-7.2719020">
        <ele>272.1</ele>
        <time>2014-10-02T09:20:49Z</time>
      </trkpt>
      <trkpt lat="42.4760680" lon="-7.2719130">
        <ele>272.2</ele>
        <time>2014-10-02T09:20:53Z</time>
      </trkpt>
      <trkpt lat="42.4760900" lon="-7.2718900">
        <ele>272.3</ele>
        <time>2014-10-02T09:21:06Z</time>
      </trkpt>
      <trkpt lat="42.4760870" lon="-7.2718480">
        <ele>272.3</ele>
        <time>2014-10-02T09:21:09Z</time>
      </trkpt>
      <trkpt lat="42.4760670" lon="-7.2718170">
        <ele>272.4</ele>
        <time>2014-10-02T09:21:14Z</time>
      </trkpt>
      <trkpt lat="42.4760420" lon="-7.2718040">
        <ele>272.5</ele>
        <time>2014-10-02T09:21:25Z</time>
      </trkpt>
      <trkpt lat="42.4760540" lon="-7.2717650">
        <ele>272.6</ele>
        <time>2014-10-02T09:21:38Z</time>
      </trkpt>
      <trkpt lat="42.4760290" lon="-7.2717400">
        <ele>272.7</ele>
        <time>2014-10-02T09:21:49Z</time>
      </trkpt>
      <trkpt lat="42.4760540" lon="-7.2717590">
        <ele>272.8</ele>
        <time>2014-10-02T09:21:53Z</time>
      </trkpt>
      <trkpt lat="42.4760730" lon="-7.2717870">
        <ele>272.9</ele>
        <time>2014-10-02T09:21:55Z</time>
      </trkpt>
      <trkpt lat="42.4760340" lon="-7.2718060">
        <ele>273.1</ele>
        <time>2014-10-02T09:22:01Z</time>
      </trkpt>
      <trkpt lat="42.4759910" lon="-7.2717960">
        <ele>273.2</ele>
        <time>2014-10-02T09:22:03Z</time>
      </trkpt>
      <trkpt lat="42.4759700" lon="-7.2717550">
        <ele>273.4</ele>
        <time>2014-10-02T09:22:05Z</time>
      </trkpt>
      <trkpt lat="42.4759810" lon="-7.2717030">
        <ele>273.5</ele>
        <time>2014-10-02T09:22:07Z</time>
      </trkpt>
      <trkpt lat="42.4760100" lon="-7.2716630">
        <ele>273.7</ele>
        <time>2014-10-02T09:22:09Z</time>
      </trkpt>
      <trkpt lat="42.4760480" lon="-7.2716480">
        <ele>273.8</ele>
        <time>2014-10-02T09:22:10Z</time>
      </trkpt>
      <trkpt lat="42.4760830" lon="-7.2716360">
        <ele>274.0</ele>
        <time>2014-10-02T09:22:11Z</time>
      </trkpt>
      <trkpt lat="42.4761210" lon="-7.2716210">
        <ele>274.1</ele>
        <time>2014-10-02T09:22:12Z</time>
      </trkpt>
      <trkpt lat="42.4761560" lon="-7.2716110">
        <ele>274.2</ele>
        <time>2014-10-02T09:22:13Z</time>
      </trkpt>
      <trkpt lat="42.4761870" lon="-7.2716080">
        <ele>274.4</ele>
        <time>2014-10-02T09:22:14Z</time>
      </trkpt>
      <trkpt lat="42.4762330" lon="-7.2715970">
        <ele>274.6</ele>
        <time>2014-10-02T09:22:16Z</time>
      </trkpt>
      <trkpt lat="42.4762650" lon="-7.2716000">
        <ele>274.7</ele>
        <time>2014-10-02T09:22:17Z</time>
      </trkpt>
      <trkpt lat="42.4763000" lon="-7.2716010">
        <ele>274.8</ele>
        <time>2014-10-02T09:22:18Z</time>
      </trkpt>
      <trkpt lat="42.4763340" lon="-7.2716000">
        <ele>274.9</ele>
        <time>2014-10-02T09:22:19Z</time>
      </trkpt>
      <trkpt lat="42.4763650" lon="-7.2716010">
        <ele>275.1</ele>
        <time>2014-10-02T09:22:20Z</time>
      </trkpt>
      <trkpt lat="42.4763940" lon="-7.2716020">
        <ele>275.2</ele>
        <time>2014-10-02T09:22:21Z</time>
      </trkpt>
      <trkpt lat="42.4764300" lon="-7.2716000">
        <ele>275.3</ele>
        <time>2014-10-02T09:22:22Z</time>
      </trkpt>
      <trkpt lat="42.4764660" lon="-7.2715970">
        <ele>275.5</ele>
        <time>2014-10-02T09:22:23Z</time>
      </trkpt>
      <trkpt lat="42.4764990" lon="-7.2715960">
        <ele>275.6</ele>
        <time>2014-10-02T09:22:24Z</time>
      </trkpt>
      <trkpt lat="42.4765300" lon="-7.2715980">
        <ele>275.7</ele>
        <time>2014-10-02T09:22:25Z</time>
      </trkpt>
      <trkpt lat="42.4765580" lon="-7.2716000">
        <ele>275.8</ele>
        <time>2014-10-02T09:22:26Z</time>
      </trkpt>
      <trkpt lat="42.4765910" lon="-7.2715990">
        <ele>275.9</ele>
        <time>2014-10-02T09:22:27Z</time>
      </trkpt>
      <trkpt lat="42.4766250" lon="-7.2715990">
        <ele>276.0</ele>
        <time>2014-10-02T09:22:28Z</time>
      </trkpt>
      <trkpt lat="42.4766540" lon="-7.2716000">
        <ele>276.2</ele>
        <time>2014-10-02T09:22:29Z</time>
      </trkpt>
      <trkpt lat="42.4767010" lon="-7.2716030">
        <ele>276.3</ele>
        <time>2014-10-02T09:22:31Z</time>
      </trkpt>
      <trkpt lat="42.4767510" lon="-7.2715930">
        <ele>276.5</ele>
        <time>2014-10-02T09:22:33Z</time>
      </trkpt>
      <trkpt lat="42.4767810" lon="-7.2715890">
        <ele>276.6</ele>
        <time>2014-10-02T09:22:34Z</time>
      </trkpt>
      <trkpt lat="42.4768140" lon="-7.2715860">
        <ele>276.7</ele>
        <time>2014-10-02T09:22:35Z</time>
      </trkpt>
      <trkpt lat="42.4768420" lon="-7.2715860">
        <ele>276.8</ele>
        <time>2014-10-02T09:22:36Z</time>
      </trkpt>
      <trkpt lat="42.4768740" lon="-7.2715810">
        <ele>276.9</ele>
        <time>2014-10-02T09:22:37Z</time>
      </trkpt>
      <trkpt lat="42.4769080" lon="-7.2715740">
        <ele>277.0</ele>
        <time>2014-10-02T09:22:39Z</time>
      </trkpt>
      <trkpt lat="42.4769550" lon="-7.2715660">
        <ele>277.2</ele>
        <time>2014-10-02T09:22:41Z</time>
      </trkpt>
      <trkpt lat="42.4770210" lon="-7.2715460">
        <ele>277.3</ele>
        <time>2014-10-02T09:22:43Z</time>
      </trkpt>
      <trkpt lat="42.4770550" lon="-7.2715500">
        <ele>277.4</ele>
        <time>2014-10-02T09:22:44Z</time>
      </trkpt>
      <trkpt lat="42.4770980" lon="-7.2715270">
        <ele>277.5</ele>
        <time>2014-10-02T09:22:45Z</time>
      </trkpt>
      <trkpt lat="42.4771430" lon="-7.2714820">
        <ele>277.5</ele>
        <time>2014-10-02T09:22:46Z</time>
      </trkpt>
      <trkpt lat="42.4771820" lon="-7.2714300">
        <ele>277.4</ele>
        <time>2014-10-02T09:22:47Z</time>
      </trkpt>
      <trkpt lat="42.4772150" lon="-7.2713850">
        <ele>277.4</ele>
        <time>2014-10-02T09:22:48Z</time>
      </trkpt>
      <trkpt lat="42.4772320" lon="-7.2713380">
        <ele>277.3</ele>
        <time>2014-10-02T09:22:49Z</time>
      </trkpt>
      <trkpt lat="42.4772510" lon="-7.2712860">
        <ele>277.3</ele>
        <time>2014-10-02T09:22:50Z</time>
      </trkpt>
      <trkpt lat="42.4772660" lon="-7.2712270">
        <ele>277.2</ele>
        <time>2014-10-02T09:22:51Z</time>
      </trkpt>
      <trkpt lat="42.4772810" lon="-7.2711650">
        <ele>277.1</ele>
        <time>2014-10-02T09:22:52Z</time>
      </trkpt>
      <trkpt lat="42.4772980" lon="-7.2711030">
        <ele>277.0</ele>
        <time>2014-10-02T09:22:53Z</time>
      </trkpt>
      <trkpt lat="42.4773170" lon="-7.2710450">
        <ele>277.0</ele>
        <time>2014-10-02T09:22:54Z</time>
      </trkpt>
      <trkpt lat="42.4773370" lon="-7.2709820">
        <ele>276.9</ele>
        <time>2014-10-02T09:22:55Z</time>
      </trkpt>
      <trkpt lat="42.4773580" lon="-7.2709190">
        <ele>276.8</ele>
        <time>2014-10-02T09:22:56Z</time>
      </trkpt>
      <trkpt lat="42.4773800" lon="-7.2708640">
        <ele>276.7</ele>
        <time>2014-10-02T09:22:57Z</time>
      </trkpt>
      <trkpt lat="42.4773940" lon="-7.2707990">
        <ele>276.7</ele>
        <time>2014-10-02T09:22:58Z</time>
      </trkpt>
      <trkpt lat="42.4774060" lon="-7.2707290">
        <ele>276.6</ele>
        <time>2014-10-02T09:22:59Z</time>
      </trkpt>
      <trkpt lat="42.4774170" lon="-7.2706590">
        <ele>276.6</ele>
        <time>2014-10-02T09:23:00Z</time>
      </trkpt>
      <trkpt lat="42.4774250" lon="-7.2705900">
        <ele>276.6</ele>
        <time>2014-10-02T09:23:01Z</time>
      </trkpt>
      <trkpt lat="42.4774370" lon="-7.2705230">
        <ele>276.5</ele>
        <time>2014-10-02T09:23:02Z</time>
      </trkpt>
      <trkpt lat="42.4774450" lon="-7.2704450">
        <ele>276.5</ele>
        <time>2014-10-02T09:23:03Z</time>
      </trkpt>
      <trkpt lat="42.4774500" lon="-7.2703710">
        <ele>276.4</ele>
        <time>2014-10-02T09:23:04Z</time>
      </trkpt>
      <trkpt lat="42.4774590" lon="-7.2702950">
        <ele>276.4</ele>
        <time>2014-10-02T09:23:05Z</time>
      </trkpt>
      <trkpt lat="42.4774670" lon="-7.2702170">
        <ele>276.4</ele>
        <time>2014-10-02T09:23:06Z</time>
      </trkpt>
      <trkpt lat="42.4774730" lon="-7.2701420">
        <ele>276.3</ele>
        <time>2014-10-02T09:23:07Z</time>
      </trkpt>
      <trkpt lat="42.4774800" lon="-7.2700690">
        <ele>276.3</ele>
        <time>2014-10-02T09:23:08Z</time>
      </trkpt>
      <trkpt lat="42.4774900" lon="-7.2699950">
        <ele>276.4</ele>
        <time>2014-10-02T09:23:09Z</time>
      </trkpt>
      <trkpt lat="42.4774980" lon="-7.2699220">
        <ele>276.4</ele>
        <time>2014-10-02T09:23:10Z</time>
      </trkpt>
      <trkpt lat="42.4775030" lon="-7.2698460">
        <ele>276.4</ele>
        <time>2014-10-02T09:23:11Z</time>
      </trkpt>
      <trkpt lat="42.4775070" lon="-7.2697730">
        <ele>276.4</ele>
        <time>2014-10-02T09:23:12Z</time>
      </trkpt>
      <trkpt lat="42.4775130" lon="-7.2696980">
        <ele>276.5</ele>
        <time>2014-10-02T09:23:13Z</time>
      </trkpt>
      <trkpt lat="42.4775200" lon="-7.2696260">
        <ele>276.5</ele>
        <time>2014-10-02T09:23:14Z</time>
      </trkpt>
      <trkpt lat="42.4775280" lon="-7.2695520">
        <ele>276.6</ele>
        <time>2014-10-02T09:23:15Z</time>
      </trkpt>
      <trkpt lat="42.4775340" lon="-7.2694800">
        <ele>276.7</ele>
        <time>2014-10-02T09:23:16Z</time>
      </trkpt>
      <trkpt lat="42.4775380" lon="-7.2694100">
        <ele>276.9</ele>
        <time>2014-10-02T09:23:17Z</time>
      </trkpt>
      <trkpt lat="42.4775410" lon="-7.2693460">
        <ele>277.0</ele>
        <time>2014-10-02T09:23:18Z</time>
      </trkpt>
      <trkpt lat="42.4775460" lon="-7.2692740">
        <ele>277.2</ele>
        <time>2014-10-02T09:23:19Z</time>
      </trkpt>
      <trkpt lat="42.4775500" lon="-7.2692070">
        <ele>277.3</ele>
        <time>2014-10-02T09:23:20Z</time>
      </trkpt>
      <trkpt lat="42.4775540" lon="-7.2691390">
        <ele>277.5</ele>
        <time>2014-10-02T09:23:21Z</time>
      </trkpt>
      <trkpt lat="42.4775600" lon="-7.2690670">
        <ele>277.7</ele>
        <time>2014-10-02T09:23:22Z</time>
      </trkpt>
      <trkpt lat="42.4775650" lon="-7.2690020">
        <ele>277.8</ele>
        <time>2014-10-02T09:23:23Z</time>
      </trkpt>
      <trkpt lat="42.4775700" lon="-7.2689390">
        <ele>278.0</ele>
        <time>2014-10-02T09:23:24Z</time>
      </trkpt>
      <trkpt lat="42.4775730" lon="-7.2688740">
        <ele>278.1</ele>
        <time>2014-10-02T09:23:25Z</time>
      </trkpt>
      <trkpt lat="42.4775790" lon="-7.2688040">
        <ele>278.3</ele>
        <time>2014-10-02T09:23:26Z</time>
      </trkpt>
      <trkpt lat="42.4775840" lon="-7.2687370">
        <ele>278.4</ele>
        <time>2014-10-02T09:23:27Z</time>
      </trkpt>
      <trkpt lat="42.4775910" lon="-7.2686690">
        <ele>278.6</ele>
        <time>2014-10-02T09:23:28Z</time>
      </trkpt>
      <trkpt lat="42.4775980" lon="-7.2686010">
        <ele>278.7</ele>
        <time>2014-10-02T09:23:29Z</time>
      </trkpt>
      <trkpt lat="42.4776040" lon="-7.2685340">
        <ele>278.9</ele>
        <time>2014-10-02T09:23:30Z</time>
      </trkpt>
      <trkpt lat="42.4776110" lon="-7.2684690">
        <ele>279.0</ele>
        <time>2014-10-02T09:23:31Z</time>
      </trkpt>
      <trkpt lat="42.4776180" lon="-7.2684050">
        <ele>279.2</ele>
        <time>2014-10-02T09:23:32Z</time>
      </trkpt>
      <trkpt lat="42.4776240" lon="-7.2683390">
        <ele>279.3</ele>
        <time>2014-10-02T09:23:33Z</time>
      </trkpt>
      <trkpt lat="42.4776310" lon="-7.2682740">
        <ele>279.5</ele>
        <time>2014-10-02T09:23:34Z</time>
      </trkpt>
      <trkpt lat="42.4776370" lon="-7.2682070">
        <ele>279.7</ele>
        <time>2014-10-02T09:23:35Z</time>
      </trkpt>
      <trkpt lat="42.4776460" lon="-7.2681370">
        <ele>280.0</ele>
        <time>2014-10-02T09:23:36Z</time>
      </trkpt>
      <trkpt lat="42.4776540" lon="-7.2680720">
        <ele>280.2</ele>
        <time>2014-10-02T09:23:37Z</time>
      </trkpt>
      <trkpt lat="42.4776610" lon="-7.2680100">
        <ele>280.5</ele>
        <time>2014-10-02T09:23:38Z</time>
      </trkpt>
      <trkpt lat="42.4776690" lon="-7.2679460">
        <ele>280.7</ele>
        <time>2014-10-02T09:23:39Z</time>
      </trkpt>
      <trkpt lat="42.4776770" lon="-7.2678800">
        <ele>281.0</ele>
        <time>2014-10-02T09:23:40Z</time>
      </trkpt>
      <trkpt lat="42.4776860" lon="-7.2678140">
        <ele>281.3</ele>
        <time>2014-10-02T09:23:41Z</time>
      </trkpt>
      <trkpt lat="42.4776940" lon="-7.2677520">
        <ele>281.5</ele>
        <time>2014-10-02T09:23:42Z</time>
      </trkpt>
      <trkpt lat="42.4777010" lon="-7.2676880">
        <ele>281.8</ele>
        <time>2014-10-02T09:23:43Z</time>
      </trkpt>
      <trkpt lat="42.4777090" lon="-7.2676260">
        <ele>282.0</ele>
        <time>2014-10-02T09:23:44Z</time>
      </trkpt>
      <trkpt lat="42.4777160" lon="-7.2675630">
        <ele>282.3</ele>
        <time>2014-10-02T09:23:45Z</time>
      </trkpt>
      <trkpt lat="42.4777250" lon="-7.2674990">
        <ele>282.5</ele>
        <time>2014-10-02T09:23:46Z</time>
      </trkpt>
      <trkpt lat="42.4777350" lon="-7.2674400">
        <ele>282.8</ele>
        <time>2014-10-02T09:23:47Z</time>
      </trkpt>
      <trkpt lat="42.4777440" lon="-7.2673790">
        <ele>283.1</ele>
        <time>2014-10-02T09:23:48Z</time>
      </trkpt>
      <trkpt lat="42.4777500" lon="-7.2673170">
        <ele>283.3</ele>
        <time>2014-10-02T09:23:49Z</time>
      </trkpt>
      <trkpt lat="42.4777580" lon="-7.2672530">
        <ele>283.6</ele>
        <time>2014-10-02T09:23:50Z</time>
      </trkpt>
      <trkpt lat="42.4777660" lon="-7.2671900">
        <ele>283.9</ele>
        <time>2014-10-02T09:23:51Z</time>
      </trkpt>
      <trkpt lat="42.4777740" lon="-7.2671240">
        <ele>284.2</ele>
        <time>2014-10-02T09:23:52Z</time>
      </trkpt>
      <trkpt lat="42.4777820" lon="-7.2670590">
        <ele>284.4</ele>
        <time>2014-10-02T09:23:53Z</time>
      </trkpt>
      <trkpt lat="42.4777910" lon="-7.2669940">
        <ele>284.7</ele>
        <time>2014-10-02T09:23:54Z</time>
      </trkpt>
      <trkpt lat="42.4778000" lon="-7.2669340">
        <ele>284.8</ele>
        <time>2014-10-02T09:23:55Z</time>
      </trkpt>
      <trkpt lat="42.4778080" lon="-7.2668750">
        <ele>284.8</ele>
        <time>2014-10-02T09:23:56Z</time>
      </trkpt>
      <trkpt lat="42.4778160" lon="-7.2668120">
        <ele>284.9</ele>
        <time>2014-10-02T09:23:57Z</time>
      </trkpt>
      <trkpt lat="42.4778250" lon="-7.2667460">
        <ele>285.0</ele>
        <time>2014-10-02T09:23:58Z</time>
      </trkpt>
      <trkpt lat="42.4778340" lon="-7.2666840">
        <ele>285.1</ele>
        <time>2014-10-02T09:23:59Z</time>
      </trkpt>
      <trkpt lat="42.4778390" lon="-7.2666240">
        <ele>285.1</ele>
        <time>2014-10-02T09:24:00Z</time>
      </trkpt>
      <trkpt lat="42.4778450" lon="-7.2665680">
        <ele>285.2</ele>
        <time>2014-10-02T09:24:01Z</time>
      </trkpt>
      <trkpt lat="42.4778490" lon="-7.2665100">
        <ele>285.2</ele>
        <time>2014-10-02T09:24:02Z</time>
      </trkpt>
      <trkpt lat="42.4778570" lon="-7.2664470">
        <ele>285.3</ele>
        <time>2014-10-02T09:24:03Z</time>
      </trkpt>
      <trkpt lat="42.4778710" lon="-7.2663740">
        <ele>285.4</ele>
        <time>2014-10-02T09:24:04Z</time>
      </trkpt>
      <trkpt lat="42.4778830" lon="-7.2663030">
        <ele>285.5</ele>
        <time>2014-10-02T09:24:05Z</time>
      </trkpt>
      <trkpt lat="42.4778960" lon="-7.2662310">
        <ele>285.6</ele>
        <time>2014-10-02T09:24:06Z</time>
      </trkpt>
      <trkpt lat="42.4779070" lon="-7.2661590">
        <ele>285.7</ele>
        <time>2014-10-02T09:24:07Z</time>
      </trkpt>
      <trkpt lat="42.4779160" lon="-7.2660920">
        <ele>285.8</ele>
        <time>2014-10-02T09:24:08Z</time>
      </trkpt>
      <trkpt lat="42.4779240" lon="-7.2660230">
        <ele>285.9</ele>
        <time>2014-10-02T09:24:09Z</time>
      </trkpt>
      <trkpt lat="42.4779340" lon="-7.2659550">
        <ele>286.0</ele>
        <time>2014-10-02T09:24:10Z</time>
      </trkpt>
      <trkpt lat="42.4779420" lon="-7.2658930">
        <ele>286.1</ele>
        <time>2014-10-02T09:24:11Z</time>
      </trkpt>
      <trkpt lat="42.4779500" lon="-7.2658260">
        <ele>286.2</ele>
        <time>2014-10-02T09:24:12Z</time>
      </trkpt>
      <trkpt lat="42.4779630" lon="-7.2657560">
        <ele>286.4</ele>
        <time>2014-10-02T09:24:13Z</time>
      </trkpt>
      <trkpt lat="42.4779760" lon="-7.2656870">
        <ele>286.5</ele>
        <time>2014-10-02T09:24:14Z</time>
      </trkpt>
      <trkpt lat="42.4779880" lon="-7.2656150">
        <ele>286.7</ele>
        <time>2014-10-02T09:24:15Z</time>
      </trkpt>
      <trkpt lat="42.4780030" lon="-7.2655430">
        <ele>286.8</ele>
        <time>2014-10-02T09:24:16Z</time>
      </trkpt>
      <trkpt lat="42.4780200" lon="-7.2654740">
        <ele>287.0</ele>
        <time>2014-10-02T09:24:17Z</time>
      </trkpt>
      <trkpt lat="42.4780380" lon="-7.2654090">
        <ele>287.3</ele>
        <time>2014-10-02T09:24:18Z</time>
      </trkpt>
      <trkpt lat="42.4780580" lon="-7.2653470">
        <ele>287.6</ele>
        <time>2014-10-02T09:24:19Z</time>
      </trkpt>
      <trkpt lat="42.4780780" lon="-7.2652860">
        <ele>287.9</ele>
        <time>2014-10-02T09:24:20Z</time>
      </trkpt>
      <trkpt lat="42.4781000" lon="-7.2652250">
        <ele>288.2</ele>
        <time>2014-10-02T09:24:21Z</time>
      </trkpt>
      <trkpt lat="42.4781240" lon="-7.2651680">
        <ele>288.2</ele>
        <time>2014-10-02T09:24:22Z</time>
      </trkpt>
      <trkpt lat="42.4781470" lon="-7.2651080">
        <ele>288.5</ele>
        <time>2014-10-02T09:24:23Z</time>
      </trkpt>
      <trkpt lat="42.4781710" lon="-7.2650480">
        <ele>288.8</ele>
        <time>2014-10-02T09:24:24Z</time>
      </trkpt>
      <trkpt lat="42.4781970" lon="-7.2649830">
        <ele>289.1</ele>
        <time>2014-10-02T09:24:25Z</time>
      </trkpt>
      <trkpt lat="42.4782210" lon="-7.2649200">
        <ele>289.5</ele>
        <time>2014-10-02T09:24:26Z</time>
      </trkpt>
      <trkpt lat="42.4782420" lon="-7.2648580">
        <ele>289.7</ele>
        <time>2014-10-02T09:24:27Z</time>
      </trkpt>
      <trkpt lat="42.4782620" lon="-7.2647970">
        <ele>290.0</ele>
        <time>2014-10-02T09:24:28Z</time>
      </trkpt>
      <trkpt lat="42.4782810" lon="-7.2647410">
        <ele>290.3</ele>
        <time>2014-10-02T09:24:29Z</time>
      </trkpt>
      <trkpt lat="42.4783010" lon="-7.2646880">
        <ele>290.5</ele>
        <time>2014-10-02T09:24:30Z</time>
      </trkpt>
      <trkpt lat="42.4783250" lon="-7.2646330">
        <ele>290.8</ele>
        <time>2014-10-02T09:24:31Z</time>
      </trkpt>
      <trkpt lat="42.4783470" lon="-7.2645770">
        <ele>291.0</ele>
        <time>2014-10-02T09:24:32Z</time>
      </trkpt>
      <trkpt lat="42.4783700" lon="-7.2645180">
        <ele>291.3</ele>
        <time>2014-10-02T09:24:33Z</time>
      </trkpt>
      <trkpt lat="42.4783900" lon="-7.2644640">
        <ele>291.6</ele>
        <time>2014-10-02T09:24:34Z</time>
      </trkpt>
      <trkpt lat="42.4784090" lon="-7.2644120">
        <ele>291.8</ele>
        <time>2014-10-02T09:24:35Z</time>
      </trkpt>
      <trkpt lat="42.4784290" lon="-7.2643610">
        <ele>292.0</ele>
        <time>2014-10-02T09:24:36Z</time>
      </trkpt>
      <trkpt lat="42.4784490" lon="-7.2643110">
        <ele>292.3</ele>
        <time>2014-10-02T09:24:37Z</time>
      </trkpt>
      <trkpt lat="42.4784700" lon="-7.2642560">
        <ele>292.5</ele>
        <time>2014-10-02T09:24:38Z</time>
      </trkpt>
      <trkpt lat="42.4784940" lon="-7.2642020">
        <ele>292.8</ele>
        <time>2014-10-02T09:24:39Z</time>
      </trkpt>
      <trkpt lat="42.4785170" lon="-7.2641470">
        <ele>293.0</ele>
        <time>2014-10-02T09:24:40Z</time>
      </trkpt>
      <trkpt lat="42.4785400" lon="-7.2640940">
        <ele>293.3</ele>
        <time>2014-10-02T09:24:41Z</time>
      </trkpt>
      <trkpt lat="42.4785630" lon="-7.2640390">
        <ele>293.6</ele>
        <time>2014-10-02T09:24:42Z</time>
      </trkpt>
      <trkpt lat="42.4785850" lon="-7.2639850">
        <ele>293.9</ele>
        <time>2014-10-02T09:24:43Z</time>
      </trkpt>
      <trkpt lat="42.4786080" lon="-7.2639310">
        <ele>294.1</ele>
        <time>2014-10-02T09:24:44Z</time>
      </trkpt>
      <trkpt lat="42.4786320" lon="-7.2638780">
        <ele>294.4</ele>
        <time>2014-10-02T09:24:45Z</time>
      </trkpt>
      <trkpt lat="42.4786550" lon="-7.2638270">
        <ele>294.6</ele>
        <time>2014-10-02T09:24:46Z</time>
      </trkpt>
      <trkpt lat="42.4786760" lon="-7.2637760">
        <ele>294.7</ele>
        <time>2014-10-02T09:24:47Z</time>
      </trkpt>
      <trkpt lat="42.4787000" lon="-7.2637220">
        <ele>294.8</ele>
        <time>2014-10-02T09:24:48Z</time>
      </trkpt>
      <trkpt lat="42.4787250" lon="-7.2636660">
        <ele>295.0</ele>
        <time>2014-10-02T09:24:49Z</time>
      </trkpt>
      <trkpt lat="42.4787480" lon="-7.2636110">
        <ele>295.1</ele>
        <time>2014-10-02T09:24:50Z</time>
      </trkpt>
      <trkpt lat="42.4787710" lon="-7.2635560">
        <ele>295.1</ele>
        <time>2014-10-02T09:24:51Z</time>
      </trkpt>
      <trkpt lat="42.4787950" lon="-7.2634990">
        <ele>295.2</ele>
        <time>2014-10-02T09:24:52Z</time>
      </trkpt>
      <trkpt lat="42.4788190" lon="-7.2634430">
        <ele>295.2</ele>
        <time>2014-10-02T09:24:53Z</time>
      </trkpt>
      <trkpt lat="42.4788410" lon="-7.2633870">
        <ele>295.4</ele>
        <time>2014-10-02T09:24:54Z</time>
      </trkpt>
      <trkpt lat="42.4788640" lon="-7.2633340">
        <ele>295.6</ele>
        <time>2014-10-02T09:24:55Z</time>
      </trkpt>
      <trkpt lat="42.4788880" lon="-7.2632810">
        <ele>295.8</ele>
        <time>2014-10-02T09:24:56Z</time>
      </trkpt>
      <trkpt lat="42.4789110" lon="-7.2632290">
        <ele>296.0</ele>
        <time>2014-10-02T09:24:57Z</time>
      </trkpt>
      <trkpt lat="42.4789330" lon="-7.2631760">
        <ele>296.2</ele>
        <time>2014-10-02T09:24:58Z</time>
      </trkpt>
      <trkpt lat="42.4789540" lon="-7.2631220">
        <ele>296.3</ele>
        <time>2014-10-02T09:24:59Z</time>
      </trkpt>
      <trkpt lat="42.4789750" lon="-7.2630700">
        <ele>296.5</ele>
        <time>2014-10-02T09:25:00Z</time>
      </trkpt>
      <trkpt lat="42.4789970" lon="-7.2630170">
        <ele>296.6</ele>
        <time>2014-10-02T09:25:01Z</time>
      </trkpt>
      <trkpt lat="42.4790190" lon="-7.2629670">
        <ele>296.8</ele>
        <time>2014-10-02T09:25:02Z</time>
      </trkpt>
      <trkpt lat="42.4790410" lon="-7.2629170">
        <ele>297.0</ele>
        <time>2014-10-02T09:25:03Z</time>
      </trkpt>
      <trkpt lat="42.4790640" lon="-7.2628660">
        <ele>297.1</ele>
        <time>2014-10-02T09:25:04Z</time>
      </trkpt>
      <trkpt lat="42.4790890" lon="-7.2628140">
        <ele>297.3</ele>
        <time>2014-10-02T09:25:05Z</time>
      </trkpt>
      <trkpt lat="42.4791140" lon="-7.2627610">
        <ele>297.5</ele>
        <time>2014-10-02T09:25:06Z</time>
      </trkpt>
      <trkpt lat="42.4791370" lon="-7.2627070">
        <ele>297.7</ele>
        <time>2014-10-02T09:25:07Z</time>
      </trkpt>
      <trkpt lat="42.4791600" lon="-7.2626540">
        <ele>297.9</ele>
        <time>2014-10-02T09:25:08Z</time>
      </trkpt>
      <trkpt lat="42.4791820" lon="-7.2625980">
        <ele>298.1</ele>
        <time>2014-10-02T09:25:09Z</time>
      </trkpt>
      <trkpt lat="42.4792060" lon="-7.2625450">
        <ele>298.3</ele>
        <time>2014-10-02T09:25:10Z</time>
      </trkpt>
      <trkpt lat="42.4792310" lon="-7.2624920">
        <ele>298.4</ele>
        <time>2014-10-02T09:25:11Z</time>
      </trkpt>
      <trkpt lat="42.4792540" lon="-7.2624390">
        <ele>298.6</ele>
        <time>2014-10-02T09:25:12Z</time>
      </trkpt>
      <trkpt lat="42.4792770" lon="-7.2623870">
        <ele>298.8</ele>
        <time>2014-10-02T09:25:13Z</time>
      </trkpt>
      <trkpt lat="42.4793000" lon="-7.2623360">
        <ele>299.0</ele>
        <time>2014-10-02T09:25:14Z</time>
      </trkpt>
      <trkpt lat="42.4793230" lon="-7.2622840">
        <ele>299.1</ele>
        <time>2014-10-02T09:25:15Z</time>
      </trkpt>
      <trkpt lat="42.4793450" lon="-7.2622310">
        <ele>299.3</ele>
        <time>2014-10-02T09:25:16Z</time>
      </trkpt>
      <trkpt lat="42.4793690" lon="-7.2621790">
        <ele>299.5</ele>
        <time>2014-10-02T09:25:17Z</time>
      </trkpt>
      <trkpt lat="42.4793920" lon="-7.2621280">
        <ele>299.7</ele>
        <time>2014-10-02T09:25:18Z</time>
      </trkpt>
      <trkpt lat="42.4794140" lon="-7.2620750">
        <ele>299.9</ele>
        <time>2014-10-02T09:25:19Z</time>
      </trkpt>
      <trkpt lat="42.4794360" lon="-7.2620270">
        <ele>300.1</ele>
        <time>2014-10-02T09:25:20Z</time>
      </trkpt>
      <trkpt lat="42.4794580" lon="-7.2619770">
        <ele>300.3</ele>
        <time>2014-10-02T09:25:21Z</time>
      </trkpt>
      <trkpt lat="42.4794800" lon="-7.2619290">
        <ele>300.6</ele>
        <time>2014-10-02T09:25:22Z</time>
      </trkpt>
      <trkpt lat="42.4795010" lon="-7.2618860">
        <ele>300.8</ele>
        <time>2014-10-02T09:25:23Z</time>
      </trkpt>
      <trkpt lat="42.4795210" lon="-7.2618420">
        <ele>301.0</ele>
        <time>2014-10-02T09:25:24Z</time>
      </trkpt>
      <trkpt lat="42.4795410" lon="-7.2617980">
        <ele>301.2</ele>
        <time>2014-10-02T09:25:25Z</time>
      </trkpt>
      <trkpt lat="42.4795620" lon="-7.2617550">
        <ele>301.5</ele>
        <time>2014-10-02T09:25:26Z</time>
      </trkpt>
      <trkpt lat="42.4795810" lon="-7.2617090">
        <ele>301.7</ele>
        <time>2014-10-02T09:25:27Z</time>
      </trkpt>
      <trkpt lat="42.4796000" lon="-7.2616610">
        <ele>302.0</ele>
        <time>2014-10-02T09:25:28Z</time>
      </trkpt>
      <trkpt lat="42.4796200" lon="-7.2616110">
        <ele>302.3</ele>
        <time>2014-10-02T09:25:29Z</time>
      </trkpt>
      <trkpt lat="42.4796370" lon="-7.2615610">
        <ele>302.5</ele>
        <time>2014-10-02T09:25:30Z</time>
      </trkpt>
      <trkpt lat="42.4796540" lon="-7.2615130">
        <ele>302.8</ele>
        <time>2014-10-02T09:25:31Z</time>
      </trkpt>
      <trkpt lat="42.4796730" lon="-7.2614680">
        <ele>303.0</ele>
        <time>2014-10-02T09:25:32Z</time>
      </trkpt>
      <trkpt lat="42.4796930" lon="-7.2614190">
        <ele>303.3</ele>
        <time>2014-10-02T09:25:33Z</time>
      </trkpt>
      <trkpt lat="42.4797130" lon="-7.2613720">
        <ele>303.5</ele>
        <time>2014-10-02T09:25:34Z</time>
      </trkpt>
      <trkpt lat="42.4797340" lon="-7.2613300">
        <ele>303.7</ele>
        <time>2014-10-02T09:25:35Z</time>
      </trkpt>
      <trkpt lat="42.4797480" lon="-7.2612880">
        <ele>303.9</ele>
        <time>2014-10-02T09:25:36Z</time>
      </trkpt>
      <trkpt lat="42.4797640" lon="-7.2612530">
        <ele>304.1</ele>
        <time>2014-10-02T09:25:37Z</time>
      </trkpt>
      <trkpt lat="42.4797850" lon="-7.2612090">
        <ele>304.4</ele>
        <time>2014-10-02T09:25:38Z</time>
      </trkpt>
      <trkpt lat="42.4798040" lon="-7.2611650">
        <ele>304.6</ele>
        <time>2014-10-02T09:25:39Z</time>
      </trkpt>
      <trkpt lat="42.4798250" lon="-7.2611250">
        <ele>304.8</ele>
        <time>2014-10-02T09:25:40Z</time>
      </trkpt>
      <trkpt lat="42.4798470" lon="-7.2610810">
        <ele>305.0</ele>
        <time>2014-10-02T09:25:41Z</time>
      </trkpt>
      <trkpt lat="42.4798710" lon="-7.2610310">
        <ele>305.3</ele>
        <time>2014-10-02T09:25:42Z</time>
      </trkpt>
      <trkpt lat="42.4798940" lon="-7.2609800">
        <ele>305.6</ele>
        <time>2014-10-02T09:25:43Z</time>
      </trkpt>
      <trkpt lat="42.4799170" lon="-7.2609320">
        <ele>305.8</ele>
        <time>2014-10-02T09:25:44Z</time>
      </trkpt>
      <trkpt lat="42.4799350" lon="-7.2608910">
        <ele>306.0</ele>
        <time>2014-10-02T09:25:45Z</time>
      </trkpt>
      <trkpt lat="42.4799480" lon="-7.2608540">
        <ele>306.2</ele>
        <time>2014-10-02T09:25:46Z</time>
      </trkpt>
      <trkpt lat="42.4799640" lon="-7.2608160">
        <ele>306.4</ele>
        <time>2014-10-02T09:25:47Z</time>
      </trkpt>
      <trkpt lat="42.4799810" lon="-7.2607780">
        <ele>306.6</ele>
        <time>2014-10-02T09:25:48Z</time>
      </trkpt>
      <trkpt lat="42.4800020" lon="-7.2607360">
        <ele>306.9</ele>
        <time>2014-10-02T09:25:49Z</time>
      </trkpt>
      <trkpt lat="42.4800250" lon="-7.2606850">
        <ele>307.2</ele>
        <time>2014-10-02T09:25:50Z</time>
      </trkpt>
      <trkpt lat="42.4800430" lon="-7.2606410">
        <ele>307.5</ele>
        <time>2014-10-02T09:25:51Z</time>
      </trkpt>
      <trkpt lat="42.4800610" lon="-7.2605990">
        <ele>307.7</ele>
        <time>2014-10-02T09:25:52Z</time>
      </trkpt>
      <trkpt lat="42.4800790" lon="-7.2605630">
        <ele>307.9</ele>
        <time>2014-10-02T09:25:53Z</time>
      </trkpt>
      <trkpt lat="42.4800960" lon="-7.2605220">
        <ele>308.2</ele>
        <time>2014-10-02T09:25:54Z</time>
      </trkpt>
      <trkpt lat="42.4801150" lon="-7.2604790">
        <ele>308.4</ele>
        <time>2014-10-02T09:25:55Z</time>
      </trkpt>
      <trkpt lat="42.4801330" lon="-7.2604330">
        <ele>308.6</ele>
        <time>2014-10-02T09:25:56Z</time>
      </trkpt>
      <trkpt lat="42.4801500" lon="-7.2603970">
        <ele>308.8</ele>
        <time>2014-10-02T09:25:57Z</time>
      </trkpt>
      <trkpt lat="42.4801710" lon="-7.2603570">
        <ele>309.0</ele>
        <time>2014-10-02T09:25:58Z</time>
      </trkpt>
      <trkpt lat="42.4801930" lon="-7.2603140">
        <ele>309.2</ele>
        <time>2014-10-02T09:25:59Z</time>
      </trkpt>
      <trkpt lat="42.4802150" lon="-7.2602680">
        <ele>309.5</ele>
        <time>2014-10-02T09:26:00Z</time>
      </trkpt>
      <trkpt lat="42.4802360" lon="-7.2602230">
        <ele>309.7</ele>
        <time>2014-10-02T09:26:01Z</time>
      </trkpt>
      <trkpt lat="42.4802540" lon="-7.2601780">
        <ele>309.9</ele>
        <time>2014-10-02T09:26:02Z</time>
      </trkpt>
      <trkpt lat="42.4802700" lon="-7.2601330">
        <ele>310.1</ele>
        <time>2014-10-02T09:26:03Z</time>
      </trkpt>
      <trkpt lat="42.4802880" lon="-7.2600850">
        <ele>310.3</ele>
        <time>2014-10-02T09:26:04Z</time>
      </trkpt>
      <trkpt lat="42.4803050" lon="-7.2600430">
        <ele>310.5</ele>
        <time>2014-10-02T09:26:05Z</time>
      </trkpt>
      <trkpt lat="42.4803220" lon="-7.2600040">
        <ele>310.7</ele>
        <time>2014-10-02T09:26:06Z</time>
      </trkpt>
      <trkpt lat="42.4803440" lon="-7.2599610">
        <ele>310.9</ele>
        <time>2014-10-02T09:26:07Z</time>
      </trkpt>
      <trkpt lat="42.4803620" lon="-7.2599160">
        <ele>311.1</ele>
        <time>2014-10-02T09:26:08Z</time>
      </trkpt>
      <trkpt lat="42.4803800" lon="-7.2598710">
        <ele>311.3</ele>
        <time>2014-10-02T09:26:09Z</time>
      </trkpt>
      <trkpt lat="42.4803980" lon="-7.2598280">
        <ele>311.4</ele>
        <time>2014-10-02T09:26:10Z</time>
      </trkpt>
      <trkpt lat="42.4804190" lon="-7.2597820">
        <ele>311.6</ele>
        <time>2014-10-02T09:26:11Z</time>
      </trkpt>
      <trkpt lat="42.4804400" lon="-7.2597360">
        <ele>311.8</ele>
        <time>2014-10-02T09:26:12Z</time>
      </trkpt>
      <trkpt lat="42.4804560" lon="-7.2596960">
        <ele>312.0</ele>
        <time>2014-10-02T09:26:13Z</time>
      </trkpt>
      <trkpt lat="42.4804760" lon="-7.2596500">
        <ele>312.2</ele>
        <time>2014-10-02T09:26:14Z</time>
      </trkpt>
      <trkpt lat="42.4804950" lon="-7.2596060">
        <ele>312.4</ele>
        <time>2014-10-02T09:26:15Z</time>
      </trkpt>
      <trkpt lat="42.4805130" lon="-7.2595640">
        <ele>312.6</ele>
        <time>2014-10-02T09:26:16Z</time>
      </trkpt>
      <trkpt lat="42.4805350" lon="-7.2595210">
        <ele>312.7</ele>
        <time>2014-10-02T09:26:17Z</time>
      </trkpt>
      <trkpt lat="42.4805540" lon="-7.2594860">
        <ele>312.9</ele>
        <time>2014-10-02T09:26:18Z</time>
      </trkpt>
      <trkpt lat="42.4805790" lon="-7.2594400">
        <ele>313.2</ele>
        <time>2014-10-02T09:26:19Z</time>
      </trkpt>
      <trkpt lat="42.4806020" lon="-7.2593900">
        <ele>313.4</ele>
        <time>2014-10-02T09:26:20Z</time>
      </trkpt>
      <trkpt lat="42.4806250" lon="-7.2593440">
        <ele>313.6</ele>
        <time>2014-10-02T09:26:21Z</time>
      </trkpt>
      <trkpt lat="42.4806500" lon="-7.2592960">
        <ele>313.9</ele>
        <time>2014-10-02T09:26:22Z</time>
      </trkpt>
      <trkpt lat="42.4806730" lon="-7.2592480">
        <ele>314.2</ele>
        <time>2014-10-02T09:26:23Z</time>
      </trkpt>
      <trkpt lat="42.4806970" lon="-7.2592010">
        <ele>314.4</ele>
        <time>2014-10-02T09:26:24Z</time>
      </trkpt>
      <trkpt lat="42.4807200" lon="-7.2591500">
        <ele>314.6</ele>
        <time>2014-10-02T09:26:25Z</time>
      </trkpt>
      <trkpt lat="42.4807400" lon="-7.2591070">
        <ele>314.8</ele>
        <time>2014-10-02T09:26:26Z</time>
      </trkpt>
      <trkpt lat="42.4807570" lon="-7.2590650">
        <ele>315.0</ele>
        <time>2014-10-02T09:26:27Z</time>
      </trkpt>
      <trkpt lat="42.4807760" lon="-7.2590220">
        <ele>315.2</ele>
        <time>2014-10-02T09:26:28Z</time>
      </trkpt>
      <trkpt lat="42.4807980" lon="-7.2589790">
        <ele>315.4</ele>
        <time>2014-10-02T09:26:29Z</time>
      </trkpt>
      <trkpt lat="42.4808220" lon="-7.2589340">
        <ele>315.6</ele>
        <time>2014-10-02T09:26:30Z</time>
      </trkpt>
      <trkpt lat="42.4808480" lon="-7.2588880">
        <ele>315.8</ele>
        <time>2014-10-02T09:26:31Z</time>
      </trkpt>
      <trkpt lat="42.4808730" lon="-7.2588420">
        <ele>316.0</ele>
        <time>2014-10-02T09:26:32Z</time>
      </trkpt>
      <trkpt lat="42.4808980" lon="-7.2587930">
        <ele>316.3</ele>
        <time>2014-10-02T09:26:33Z</time>
      </trkpt>
      <trkpt lat="42.4809240" lon="-7.2587400">
        <ele>316.5</ele>
        <time>2014-10-02T09:26:34Z</time>
      </trkpt>
      <trkpt lat="42.4809490" lon="-7.2586850">
        <ele>316.7</ele>
        <time>2014-10-02T09:26:35Z</time>
      </trkpt>
      <trkpt lat="42.4809730" lon="-7.2586310">
        <ele>316.9</ele>
        <time>2014-10-02T09:26:36Z</time>
      </trkpt>
      <trkpt lat="42.4809970" lon="-7.2585770">
        <ele>317.1</ele>
        <time>2014-10-02T09:26:37Z</time>
      </trkpt>
      <trkpt lat="42.4810210" lon="-7.2585250">
        <ele>317.3</ele>
        <time>2014-10-02T09:26:38Z</time>
      </trkpt>
      <trkpt lat="42.4810470" lon="-7.2584740">
        <ele>317.4</ele>
        <time>2014-10-02T09:26:39Z</time>
      </trkpt>
      <trkpt lat="42.4810730" lon="-7.2584230">
        <ele>317.6</ele>
        <time>2014-10-02T09:26:40Z</time>
      </trkpt>
      <trkpt lat="42.4810990" lon="-7.2583710">
        <ele>317.8</ele>
        <time>2014-10-02T09:26:41Z</time>
      </trkpt>
      <trkpt lat="42.4811260" lon="-7.2583190">
        <ele>318.0</ele>
        <time>2014-10-02T09:26:42Z</time>
      </trkpt>
      <trkpt lat="42.4811520" lon="-7.2582720">
        <ele>318.2</ele>
        <time>2014-10-02T09:26:43Z</time>
      </trkpt>
      <trkpt lat="42.4811790" lon="-7.2582210">
        <ele>318.5</ele>
        <time>2014-10-02T09:26:44Z</time>
      </trkpt>
      <trkpt lat="42.4812060" lon="-7.2581690">
        <ele>318.7</ele>
        <time>2014-10-02T09:26:45Z</time>
      </trkpt>
      <trkpt lat="42.4812330" lon="-7.2581170">
        <ele>318.9</ele>
        <time>2014-10-02T09:26:46Z</time>
      </trkpt>
      <trkpt lat="42.4812610" lon="-7.2580670">
        <ele>319.1</ele>
        <time>2014-10-02T09:26:47Z</time>
      </trkpt>
      <trkpt lat="42.4812870" lon="-7.2580180">
        <ele>319.2</ele>
        <time>2014-10-02T09:26:48Z</time>
      </trkpt>
      <trkpt lat="42.4813140" lon="-7.2579650">
        <ele>319.3</ele>
        <time>2014-10-02T09:26:49Z</time>
      </trkpt>
      <trkpt lat="42.4813400" lon="-7.2579090">
        <ele>319.5</ele>
        <time>2014-10-02T09:26:50Z</time>
      </trkpt>
      <trkpt lat="42.4813680" lon="-7.2578570">
        <ele>319.7</ele>
        <time>2014-10-02T09:26:51Z</time>
      </trkpt>
      <trkpt lat="42.4813940" lon="-7.2578040">
        <ele>319.8</ele>
        <time>2014-10-02T09:26:52Z</time>
      </trkpt>
      <trkpt lat="42.4814200" lon="-7.2577480">
        <ele>320.0</ele>
        <time>2014-10-02T09:26:53Z</time>
      </trkpt>
      <trkpt lat="42.4814450" lon="-7.2576940">
        <ele>320.2</ele>
        <time>2014-10-02T09:26:54Z</time>
      </trkpt>
      <trkpt lat="42.4814750" lon="-7.2576430">
        <ele>320.3</ele>
        <time>2014-10-02T09:26:55Z</time>
      </trkpt>
      <trkpt lat="42.4815020" lon="-7.2575900">
        <ele>320.5</ele>
        <time>2014-10-02T09:26:56Z</time>
      </trkpt>
      <trkpt lat="42.4815300" lon="-7.2575350">
        <ele>320.7</ele>
        <time>2014-10-02T09:26:57Z</time>
      </trkpt>
      <trkpt lat="42.4815580" lon="-7.2574830">
        <ele>320.8</ele>
        <time>2014-10-02T09:26:58Z</time>
      </trkpt>
      <trkpt lat="42.4815890" lon="-7.2574290">
        <ele>321.0</ele>
        <time>2014-10-02T09:26:59Z</time>
      </trkpt>
      <trkpt lat="42.4816200" lon="-7.2573780">
        <ele>321.1</ele>
        <time>2014-10-02T09:27:00Z</time>
      </trkpt>
      <trkpt lat="42.4816500" lon="-7.2573230">
        <ele>321.2</ele>
        <time>2014-10-02T09:27:01Z</time>
      </trkpt>
      <trkpt lat="42.4816800" lon="-7.2572710">
        <ele>321.3</ele>
        <time>2014-10-02T09:27:02Z</time>
      </trkpt>
      <trkpt lat="42.4817110" lon="-7.2572160">
        <ele>321.5</ele>
        <time>2014-10-02T09:27:03Z</time>
      </trkpt>
      <trkpt lat="42.4817430" lon="-7.2571620">
        <ele>321.6</ele>
        <time>2014-10-02T09:27:04Z</time>
      </trkpt>
      <trkpt lat="42.4817750" lon="-7.2571050">
        <ele>321.7</ele>
        <time>2014-10-02T09:27:05Z</time>
      </trkpt>
      <trkpt lat="42.4818070" lon="-7.2570490">
        <ele>321.9</ele>
        <time>2014-10-02T09:27:06Z</time>
      </trkpt>
      <trkpt lat="42.4818400" lon="-7.2569930">
        <ele>322.0</ele>
        <time>2014-10-02T09:27:07Z</time>
      </trkpt>
      <trkpt lat="42.4818740" lon="-7.2569350">
        <ele>322.1</ele>
        <time>2014-10-02T09:27:08Z</time>
      </trkpt>
      <trkpt lat="42.4819080" lon="-7.2568760">
        <ele>322.2</ele>
        <time>2014-10-02T09:27:09Z</time>
      </trkpt>
      <trkpt lat="42.4819420" lon="-7.2568170">
        <ele>322.4</ele>
        <time>2014-10-02T09:27:10Z</time>
      </trkpt>
      <trkpt lat="42.4819750" lon="-7.2567590">
        <ele>322.5</ele>
        <time>2014-10-02T09:27:11Z</time>
      </trkpt>
      <trkpt lat="42.4820070" lon="-7.2566990">
        <ele>322.7</ele>
        <time>2014-10-02T09:27:12Z</time>
      </trkpt>
      <trkpt lat="42.4820390" lon="-7.2566380">
        <ele>322.8</ele>
        <time>2014-10-02T09:27:13Z</time>
      </trkpt>
      <trkpt lat="42.4820690" lon="-7.2565750">
        <ele>322.9</ele>
        <time>2014-10-02T09:27:14Z</time>
      </trkpt>
      <trkpt lat="42.4821000" lon="-7.2565120">
        <ele>322.9</ele>
        <time>2014-10-02T09:27:15Z</time>
      </trkpt>
      <trkpt lat="42.4821270" lon="-7.2564490">
        <ele>323.0</ele>
        <time>2014-10-02T09:27:16Z</time>
      </trkpt>
      <trkpt lat="42.4821560" lon="-7.2563800">
        <ele>323.0</ele>
        <time>2014-10-02T09:27:17Z</time>
      </trkpt>
      <trkpt lat="42.4821840" lon="-7.2563140">
        <ele>323.1</ele>
        <time>2014-10-02T09:27:18Z</time>
      </trkpt>
      <trkpt lat="42.4822120" lon="-7.2562460">
        <ele>323.1</ele>
        <time>2014-10-02T09:27:19Z</time>
      </trkpt>
      <trkpt lat="42.4822440" lon="-7.2561760">
        <ele>323.2</ele>
        <time>2014-10-02T09:27:20Z</time>
      </trkpt>
      <trkpt lat="42.4822740" lon="-7.2561040">
        <ele>323.3</ele>
        <time>2014-10-02T09:27:21Z</time>
      </trkpt>
      <trkpt lat="42.4823020" lon="-7.2560380">
        <ele>323.3</ele>
        <time>2014-10-02T09:27:22Z</time>
      </trkpt>
      <trkpt lat="42.4823310" lon="-7.2559690">
        <ele>323.4</ele>
        <time>2014-10-02T09:27:23Z</time>
      </trkpt>
      <trkpt lat="42.4823590" lon="-7.2559020">
        <ele>323.4</ele>
        <time>2014-10-02T09:27:24Z</time>
      </trkpt>
      <trkpt lat="42.4823860" lon="-7.2558370">
        <ele>323.4</ele>
        <time>2014-10-02T09:27:25Z</time>
      </trkpt>
      <trkpt lat="42.4824120" lon="-7.2557680">
        <ele>323.3</ele>
        <time>2014-10-02T09:27:26Z</time>
      </trkpt>
      <trkpt lat="42.4824390" lon="-7.2556940">
        <ele>323.3</ele>
        <time>2014-10-02T09:27:27Z</time>
      </trkpt>
      <trkpt lat="42.4824660" lon="-7.2556220">
        <ele>323.3</ele>
        <time>2014-10-02T09:27:28Z</time>
      </trkpt>
      <trkpt lat="42.4824920" lon="-7.2555530">
        <ele>323.4</ele>
        <time>2014-10-02T09:27:29Z</time>
      </trkpt>
      <trkpt lat="42.4825180" lon="-7.2554790">
        <ele>323.4</ele>
        <time>2014-10-02T09:27:30Z</time>
      </trkpt>
      <trkpt lat="42.4825470" lon="-7.2553970">
        <ele>323.4</ele>
        <time>2014-10-02T09:27:31Z</time>
      </trkpt>
      <trkpt lat="42.4825750" lon="-7.2553180">
        <ele>323.4</ele>
        <time>2014-10-02T09:27:32Z</time>
      </trkpt>
      <trkpt lat="42.4826030" lon="-7.2552410">
        <ele>323.4</ele>
        <time>2014-10-02T09:27:33Z</time>
      </trkpt>
      <trkpt lat="42.4826310" lon="-7.2551610">
        <ele>323.3</ele>
        <time>2014-10-02T09:27:34Z</time>
      </trkpt>
      <trkpt lat="42.4826600" lon="-7.2550780">
        <ele>323.3</ele>
        <time>2014-10-02T09:27:35Z</time>
      </trkpt>
      <trkpt lat="42.4826900" lon="-7.2549930">
        <ele>323.2</ele>
        <time>2014-10-02T09:27:36Z</time>
      </trkpt>
      <trkpt lat="42.4827180" lon="-7.2549060">
        <ele>323.2</ele>
        <time>2014-10-02T09:27:37Z</time>
      </trkpt>
      <trkpt lat="42.4827450" lon="-7.2548250">
        <ele>323.2</ele>
        <time>2014-10-02T09:27:38Z</time>
      </trkpt>
      <trkpt lat="42.4827710" lon="-7.2547470">
        <ele>323.2</ele>
        <time>2014-10-02T09:27:39Z</time>
      </trkpt>
      <trkpt lat="42.4827980" lon="-7.2546660">
        <ele>323.2</ele>
        <time>2014-10-02T09:27:40Z</time>
      </trkpt>
      <trkpt lat="42.4828260" lon="-7.2545830">
        <ele>323.2</ele>
        <time>2014-10-02T09:27:41Z</time>
      </trkpt>
      <trkpt lat="42.4828570" lon="-7.2544930">
        <ele>323.2</ele>
        <time>2014-10-02T09:27:42Z</time>
      </trkpt>
      <trkpt lat="42.4828900" lon="-7.2544030">
        <ele>323.2</ele>
        <time>2014-10-02T09:27:43Z</time>
      </trkpt>
      <trkpt lat="42.4829210" lon="-7.2543170">
        <ele>323.2</ele>
        <time>2014-10-02T09:27:44Z</time>
      </trkpt>
      <trkpt lat="42.4829530" lon="-7.2542270">
        <ele>323.2</ele>
        <time>2014-10-02T09:27:45Z</time>
      </trkpt>
      <trkpt lat="42.4829820" lon="-7.2541400">
        <ele>323.3</ele>
        <time>2014-10-02T09:27:46Z</time>
      </trkpt>
      <trkpt lat="42.4830120" lon="-7.2540510">
        <ele>323.4</ele>
        <time>2014-10-02T09:27:47Z</time>
      </trkpt>
      <trkpt lat="42.4830430" lon="-7.2539590">
        <ele>323.5</ele>
        <time>2014-10-02T09:27:48Z</time>
      </trkpt>
      <trkpt lat="42.4830740" lon="-7.2538680">
        <ele>323.6</ele>
        <time>2014-10-02T09:27:49Z</time>
      </trkpt>
      <trkpt lat="42.4831040" lon="-7.2537780">
        <ele>323.7</ele>
        <time>2014-10-02T09:27:50Z</time>
      </trkpt>
      <trkpt lat="42.4831320" lon="-7.2536950">
        <ele>324.0</ele>
        <time>2014-10-02T09:27:51Z</time>
      </trkpt>
      <trkpt lat="42.4831590" lon="-7.2536100">
        <ele>324.2</ele>
        <time>2014-10-02T09:27:52Z</time>
      </trkpt>
      <trkpt lat="42.4831860" lon="-7.2535250">
        <ele>324.4</ele>
        <time>2014-10-02T09:27:53Z</time>
      </trkpt>
      <trkpt lat="42.4832110" lon="-7.2534410">
        <ele>324.5</ele>
        <time>2014-10-02T09:27:54Z</time>
      </trkpt>
      <trkpt lat="42.4832340" lon="-7.2533570">
        <ele>324.3</ele>
        <time>2014-10-02T09:27:55Z</time>
      </trkpt>
      <trkpt lat="42.4832540" lon="-7.2532750">
        <ele>323.7</ele>
        <time>2014-10-02T09:27:56Z</time>
      </trkpt>
      <trkpt lat="42.4832730" lon="-7.2531930">
        <ele>323.1</ele>
        <time>2014-10-02T09:27:57Z</time>
      </trkpt>
      <trkpt lat="42.4832890" lon="-7.2531170">
        <ele>323.2</ele>
        <time>2014-10-02T09:27:58Z</time>
      </trkpt>
      <trkpt lat="42.4833040" lon="-7.2530410">
        <ele>323.3</ele>
        <time>2014-10-02T09:27:59Z</time>
      </trkpt>
      <trkpt lat="42.4833180" lon="-7.2529670">
        <ele>323.8</ele>
        <time>2014-10-02T09:28:00Z</time>
      </trkpt>
      <trkpt lat="42.4833300" lon="-7.2528990">
        <ele>324.3</ele>
        <time>2014-10-02T09:28:01Z</time>
      </trkpt>
      <trkpt lat="42.4833400" lon="-7.2528340">
        <ele>324.7</ele>
        <time>2014-10-02T09:28:02Z</time>
      </trkpt>
      <trkpt lat="42.4833490" lon="-7.2527710">
        <ele>325.0</ele>
        <time>2014-10-02T09:28:03Z</time>
      </trkpt>
      <trkpt lat="42.4833580" lon="-7.2527110">
        <ele>325.4</ele>
        <time>2014-10-02T09:28:04Z</time>
      </trkpt>
      <trkpt lat="42.4833640" lon="-7.2526580">
        <ele>325.8</ele>
        <time>2014-10-02T09:28:05Z</time>
      </trkpt>
      <trkpt lat="42.4833690" lon="-7.2526090">
        <ele>326.1</ele>
        <time>2014-10-02T09:28:06Z</time>
      </trkpt>
      <trkpt lat="42.4833760" lon="-7.2525500">
        <ele>326.5</ele>
        <time>2014-10-02T09:28:07Z</time>
      </trkpt>
      <trkpt lat="42.4833840" lon="-7.2524980">
        <ele>326.9</ele>
        <time>2014-10-02T09:28:08Z</time>
      </trkpt>
      <trkpt lat="42.4833900" lon="-7.2524560">
        <ele>327.2</ele>
        <time>2014-10-02T09:28:09Z</time>
      </trkpt>
      <trkpt lat="42.4834000" lon="-7.2523790">
        <ele>327.8</ele>
        <time>2014-10-02T09:28:11Z</time>
      </trkpt>
      <trkpt lat="42.4834050" lon="-7.2523340">
        <ele>328.2</ele>
        <time>2014-10-02T09:28:12Z</time>
      </trkpt>
      <trkpt lat="42.4834110" lon="-7.2522850">
        <ele>328.5</ele>
        <time>2014-10-02T09:28:13Z</time>
      </trkpt>
      <trkpt lat="42.4834170" lon="-7.2522400">
        <ele>328.9</ele>
        <time>2014-10-02T09:28:14Z</time>
      </trkpt>
      <trkpt lat="42.4834230" lon="-7.2521920">
        <ele>329.3</ele>
        <time>2014-10-02T09:28:15Z</time>
      </trkpt>
      <trkpt lat="42.4834270" lon="-7.2521410">
        <ele>329.7</ele>
        <time>2014-10-02T09:28:16Z</time>
      </trkpt>
      <trkpt lat="42.4834330" lon="-7.2520860">
        <ele>330.2</ele>
        <time>2014-10-02T09:28:17Z</time>
      </trkpt>
      <trkpt lat="42.4834380" lon="-7.2520350">
        <ele>330.6</ele>
        <time>2014-10-02T09:28:18Z</time>
      </trkpt>
      <trkpt lat="42.4834430" lon="-7.2519780">
        <ele>330.3</ele>
        <time>2014-10-02T09:28:19Z</time>
      </trkpt>
      <trkpt lat="42.4834450" lon="-7.2519150">
        <ele>330.7</ele>
        <time>2014-10-02T09:28:20Z</time>
      </trkpt>
      <trkpt lat="42.4834470" lon="-7.2518600">
        <ele>331.1</ele>
        <time>2014-10-02T09:28:21Z</time>
      </trkpt>
      <trkpt lat="42.4834500" lon="-7.2518020">
        <ele>331.5</ele>
        <time>2014-10-02T09:28:22Z</time>
      </trkpt>
      <trkpt lat="42.4834520" lon="-7.2517490">
        <ele>331.9</ele>
        <time>2014-10-02T09:28:23Z</time>
      </trkpt>
      <trkpt lat="42.4834540" lon="-7.2517040">
        <ele>332.2</ele>
        <time>2014-10-02T09:28:24Z</time>
      </trkpt>
      <trkpt lat="42.4834580" lon="-7.2516570">
        <ele>332.5</ele>
        <time>2014-10-02T09:28:25Z</time>
      </trkpt>
      <trkpt lat="42.4834630" lon="-7.2516080">
        <ele>332.8</ele>
        <time>2014-10-02T09:28:26Z</time>
      </trkpt>
      <trkpt lat="42.4834670" lon="-7.2515610">
        <ele>333.1</ele>
        <time>2014-10-02T09:28:27Z</time>
      </trkpt>
      <trkpt lat="42.4834710" lon="-7.2515170">
        <ele>333.4</ele>
        <time>2014-10-02T09:28:28Z</time>
      </trkpt>
      <trkpt lat="42.4834750" lon="-7.2514680">
        <ele>333.8</ele>
        <time>2014-10-02T09:28:29Z</time>
      </trkpt>
      <trkpt lat="42.4834780" lon="-7.2514260">
        <ele>334.0</ele>
        <time>2014-10-02T09:28:30Z</time>
      </trkpt>
      <trkpt lat="42.4834830" lon="-7.2513570">
        <ele>334.5</ele>
        <time>2014-10-02T09:28:32Z</time>
      </trkpt>
      <trkpt lat="42.4834890" lon="-7.2512780">
        <ele>335.0</ele>
        <time>2014-10-02T09:28:34Z</time>
      </trkpt>
      <trkpt lat="42.4834910" lon="-7.2512340">
        <ele>335.3</ele>
        <time>2014-10-02T09:28:35Z</time>
      </trkpt>
      <trkpt lat="42.4834920" lon="-7.2511870">
        <ele>335.6</ele>
        <time>2014-10-02T09:28:36Z</time>
      </trkpt>
      <trkpt lat="42.4834960" lon="-7.2511450">
        <ele>335.8</ele>
        <time>2014-10-02T09:28:37Z</time>
      </trkpt>
      <trkpt lat="42.4835030" lon="-7.2510730">
        <ele>336.3</ele>
        <time>2014-10-02T09:28:39Z</time>
      </trkpt>
      <trkpt lat="42.4835090" lon="-7.2510000">
        <ele>336.8</ele>
        <time>2014-10-02T09:28:41Z</time>
      </trkpt>
      <trkpt lat="42.4835120" lon="-7.2509590">
        <ele>337.0</ele>
        <time>2014-10-02T09:28:42Z</time>
      </trkpt>
      <trkpt lat="42.4835140" lon="-7.2508840">
        <ele>337.5</ele>
        <time>2014-10-02T09:28:44Z</time>
      </trkpt>
      <trkpt lat="42.4835110" lon="-7.2508370">
        <ele>337.8</ele>
        <time>2014-10-02T09:28:45Z</time>
      </trkpt>
      <trkpt lat="42.4835060" lon="-7.2507920">
        <ele>338.1</ele>
        <time>2014-10-02T09:28:46Z</time>
      </trkpt>
      <trkpt lat="42.4835040" lon="-7.2507450">
        <ele>338.4</ele>
        <time>2014-10-02T09:28:47Z</time>
      </trkpt>
      <trkpt lat="42.4835030" lon="-7.2507020">
        <ele>338.7</ele>
        <time>2014-10-02T09:28:48Z</time>
      </trkpt>
      <trkpt lat="42.4835040" lon="-7.2506550">
        <ele>339.0</ele>
        <time>2014-10-02T09:28:49Z</time>
      </trkpt>
      <trkpt lat="42.4835040" lon="-7.2506110">
        <ele>339.3</ele>
        <time>2014-10-02T09:28:50Z</time>
      </trkpt>
      <trkpt lat="42.4835040" lon="-7.2505650">
        <ele>339.6</ele>
        <time>2014-10-02T09:28:51Z</time>
      </trkpt>
      <trkpt lat="42.4835060" lon="-7.2505170">
        <ele>339.9</ele>
        <time>2014-10-02T09:28:52Z</time>
      </trkpt>
      <trkpt lat="42.4835070" lon="-7.2504730">
        <ele>340.2</ele>
        <time>2014-10-02T09:28:53Z</time>
      </trkpt>
      <trkpt lat="42.4835060" lon="-7.2504330">
        <ele>340.5</ele>
        <time>2014-10-02T09:28:54Z</time>
      </trkpt>
      <trkpt lat="42.4835060" lon="-7.2503910">
        <ele>340.8</ele>
        <time>2014-10-02T09:28:55Z</time>
      </trkpt>
      <trkpt lat="42.4835040" lon="-7.2503460">
        <ele>341.0</ele>
        <time>2014-10-02T09:28:56Z</time>
      </trkpt>
      <trkpt lat="42.4835030" lon="-7.2503000">
        <ele>341.3</ele>
        <time>2014-10-02T09:28:57Z</time>
      </trkpt>
      <trkpt lat="42.4835010" lon="-7.2502580">
        <ele>341.6</ele>
        <time>2014-10-02T09:28:58Z</time>
      </trkpt>
      <trkpt lat="42.4835000" lon="-7.2502150">
        <ele>341.9</ele>
        <time>2014-10-02T09:28:59Z</time>
      </trkpt>
      <trkpt lat="42.4835000" lon="-7.2501640">
        <ele>342.2</ele>
        <time>2014-10-02T09:29:00Z</time>
      </trkpt>
      <trkpt lat="42.4834980" lon="-7.2501110">
        <ele>342.6</ele>
        <time>2014-10-02T09:29:01Z</time>
      </trkpt>
      <trkpt lat="42.4834970" lon="-7.2500560">
        <ele>342.9</ele>
        <time>2014-10-02T09:29:02Z</time>
      </trkpt>
      <trkpt lat="42.4834960" lon="-7.2500010">
        <ele>343.3</ele>
        <time>2014-10-02T09:29:03Z</time>
      </trkpt>
      <trkpt lat="42.4834950" lon="-7.2499480">
        <ele>343.7</ele>
        <time>2014-10-02T09:29:04Z</time>
      </trkpt>
      <trkpt lat="42.4834940" lon="-7.2499050">
        <ele>344.0</ele>
        <time>2014-10-02T09:29:05Z</time>
      </trkpt>
      <trkpt lat="42.4834940" lon="-7.2498630">
        <ele>344.4</ele>
        <time>2014-10-02T09:29:06Z</time>
      </trkpt>
      <trkpt lat="42.4834930" lon="-7.2498220">
        <ele>344.6</ele>
        <time>2014-10-02T09:29:07Z</time>
      </trkpt>
      <trkpt lat="42.4834920" lon="-7.2497840">
        <ele>344.9</ele>
        <time>2014-10-02T09:29:08Z</time>
      </trkpt>
      <trkpt lat="42.4834930" lon="-7.2497400">
        <ele>345.1</ele>
        <time>2014-10-02T09:29:09Z</time>
      </trkpt>
      <trkpt lat="42.4834920" lon="-7.2496930">
        <ele>345.5</ele>
        <time>2014-10-02T09:29:10Z</time>
      </trkpt>
      <trkpt lat="42.4834970" lon="-7.2496170">
        <ele>346.0</ele>
        <time>2014-10-02T09:29:12Z</time>
      </trkpt>
      <trkpt lat="42.4834990" lon="-7.2495770">
        <ele>346.2</ele>
        <time>2014-10-02T09:29:13Z</time>
      </trkpt>
      <trkpt lat="42.4834990" lon="-7.2495300">
        <ele>346.5</ele>
        <time>2014-10-02T09:29:14Z</time>
      </trkpt>
      <trkpt lat="42.4834990" lon="-7.2494860">
        <ele>346.8</ele>
        <time>2014-10-02T09:29:15Z</time>
      </trkpt>
      <trkpt lat="42.4835000" lon="-7.2494490">
        <ele>346.9</ele>
        <time>2014-10-02T09:29:16Z</time>
      </trkpt>
      <trkpt lat="42.4835060" lon="-7.2493860">
        <ele>347.1</ele>
        <time>2014-10-02T09:29:18Z</time>
      </trkpt>
      <trkpt lat="42.4835090" lon="-7.2493190">
        <ele>347.4</ele>
        <time>2014-10-02T09:29:20Z</time>
      </trkpt>
      <trkpt lat="42.4835100" lon="-7.2492760">
        <ele>347.5</ele>
        <time>2014-10-02T09:29:21Z</time>
      </trkpt>
      <trkpt lat="42.4835120" lon="-7.2492110">
        <ele>348.0</ele>
        <time>2014-10-02T09:29:23Z</time>
      </trkpt>
      <trkpt lat="42.4835110" lon="-7.2491740">
        <ele>348.2</ele>
        <time>2014-10-02T09:29:24Z</time>
      </trkpt>
      <trkpt lat="42.4835090" lon="-7.2491320">
        <ele>348.5</ele>
        <time>2014-10-02T09:29:25Z</time>
      </trkpt>
      <trkpt lat="42.4835050" lon="-7.2490650">
        <ele>349.0</ele>
        <time>2014-10-02T09:29:27Z</time>
      </trkpt>
      <trkpt lat="42.4835020" lon="-7.2490060">
        <ele>349.5</ele>
        <time>2014-10-02T09:29:29Z</time>
      </trkpt>
      <trkpt lat="42.4835030" lon="-7.2489300">
        <ele>350.1</ele>
        <time>2014-10-02T09:29:31Z</time>
      </trkpt>
      <trkpt lat="42.4835020" lon="-7.2488840">
        <ele>350.4</ele>
        <time>2014-10-02T09:29:32Z</time>
      </trkpt>
      <trkpt lat="42.4835000" lon="-7.2488420">
        <ele>350.7</ele>
        <time>2014-10-02T09:29:33Z</time>
      </trkpt>
      <trkpt lat="42.4834970" lon="-7.2487750">
        <ele>351.2</ele>
        <time>2014-10-02T09:29:35Z</time>
      </trkpt>
      <trkpt lat="42.4834960" lon="-7.2487370">
        <ele>351.5</ele>
        <time>2014-10-02T09:29:36Z</time>
      </trkpt>
      <trkpt lat="42.4834950" lon="-7.2486990">
        <ele>351.8</ele>
        <time>2014-10-02T09:29:37Z</time>
      </trkpt>
      <trkpt lat="42.4834950" lon="-7.2486340">
        <ele>352.3</ele>
        <time>2014-10-02T09:29:39Z</time>
      </trkpt>
      <trkpt lat="42.4834970" lon="-7.2485710">
        <ele>352.7</ele>
        <time>2014-10-02T09:29:41Z</time>
      </trkpt>
      <trkpt lat="42.4834990" lon="-7.2485310">
        <ele>353.0</ele>
        <time>2014-10-02T09:29:42Z</time>
      </trkpt>
      <trkpt lat="42.4835030" lon="-7.2484680">
        <ele>353.5</ele>
        <time>2014-10-02T09:29:44Z</time>
      </trkpt>
      <trkpt lat="42.4835080" lon="-7.2484030">
        <ele>353.9</ele>
        <time>2014-10-02T09:29:46Z</time>
      </trkpt>
      <trkpt lat="42.4835120" lon="-7.2483640">
        <ele>354.2</ele>
        <time>2014-10-02T09:29:47Z</time>
      </trkpt>
      <trkpt lat="42.4835160" lon="-7.2483230">
        <ele>354.5</ele>
        <time>2014-10-02T09:29:48Z</time>
      </trkpt>
      <trkpt lat="42.4835200" lon="-7.2482810">
        <ele>354.8</ele>
        <time>2014-10-02T09:29:49Z</time>
      </trkpt>
      <trkpt lat="42.4835250" lon="-7.2482450">
        <ele>355.0</ele>
        <time>2014-10-02T09:29:50Z</time>
      </trkpt>
      <trkpt lat="42.4835400" lon="-7.2481710">
        <ele>355.5</ele>
        <time>2014-10-02T09:29:52Z</time>
      </trkpt>
      <trkpt lat="42.4835510" lon="-7.2481310">
        <ele>355.8</ele>
        <time>2014-10-02T09:29:53Z</time>
      </trkpt>
      <trkpt lat="42.4835610" lon="-7.2480960">
        <ele>356.1</ele>
        <time>2014-10-02T09:29:54Z</time>
      </trkpt>
      <trkpt lat="42.4835820" lon="-7.2480310">
        <ele>356.5</ele>
        <time>2014-10-02T09:29:56Z</time>
      </trkpt>
      <trkpt lat="42.4835920" lon="-7.2479970">
        <ele>356.8</ele>
        <time>2014-10-02T09:29:57Z</time>
      </trkpt>
      <trkpt lat="42.4836020" lon="-7.2479630">
        <ele>357.0</ele>
        <time>2014-10-02T09:29:58Z</time>
      </trkpt>
      <trkpt lat="42.4836260" lon="-7.2478920">
        <ele>357.5</ele>
        <time>2014-10-02T09:30:00Z</time>
      </trkpt>
      <trkpt lat="42.4836420" lon="-7.2478580">
        <ele>357.8</ele>
        <time>2014-10-02T09:30:01Z</time>
      </trkpt>
      <trkpt lat="42.4836570" lon="-7.2478270">
        <ele>358.0</ele>
        <time>2014-10-02T09:30:02Z</time>
      </trkpt>
      <trkpt lat="42.4836880" lon="-7.2477750">
        <ele>358.4</ele>
        <time>2014-10-02T09:30:04Z</time>
      </trkpt>
      <trkpt lat="42.4837070" lon="-7.2477440">
        <ele>358.6</ele>
        <time>2014-10-02T09:30:05Z</time>
      </trkpt>
      <trkpt lat="42.4837310" lon="-7.2477080">
        <ele>358.9</ele>
        <time>2014-10-02T09:30:06Z</time>
      </trkpt>
      <trkpt lat="42.4837540" lon="-7.2476780">
        <ele>359.2</ele>
        <time>2014-10-02T09:30:07Z</time>
      </trkpt>
      <trkpt lat="42.4837770" lon="-7.2476480">
        <ele>359.5</ele>
        <time>2014-10-02T09:30:08Z</time>
      </trkpt>
      <trkpt lat="42.4838000" lon="-7.2476180">
        <ele>359.7</ele>
        <time>2014-10-02T09:30:09Z</time>
      </trkpt>
      <trkpt lat="42.4838260" lon="-7.2475890">
        <ele>359.9</ele>
        <time>2014-10-02T09:30:10Z</time>
      </trkpt>
      <trkpt lat="42.4838550" lon="-7.2475610">
        <ele>360.2</ele>
        <time>2014-10-02T09:30:11Z</time>
      </trkpt>
      <trkpt lat="42.4838850" lon="-7.2475330">
        <ele>360.5</ele>
        <time>2014-10-02T09:30:12Z</time>
      </trkpt>
      <trkpt lat="42.4839170" lon="-7.2475070">
        <ele>360.8</ele>
        <time>2014-10-02T09:30:13Z</time>
      </trkpt>
      <trkpt lat="42.4839460" lon="-7.2474830">
        <ele>361.1</ele>
        <time>2014-10-02T09:30:14Z</time>
      </trkpt>
      <trkpt lat="42.4839730" lon="-7.2474600">
        <ele>361.4</ele>
        <time>2014-10-02T09:30:15Z</time>
      </trkpt>
      <trkpt lat="42.4840020" lon="-7.2474360">
        <ele>361.7</ele>
        <time>2014-10-02T09:30:16Z</time>
      </trkpt>
      <trkpt lat="42.4840320" lon="-7.2474130">
        <ele>362.0</ele>
        <time>2014-10-02T09:30:17Z</time>
      </trkpt>
      <trkpt lat="42.4840640" lon="-7.2473930">
        <ele>362.3</ele>
        <time>2014-10-02T09:30:18Z</time>
      </trkpt>
      <trkpt lat="42.4840960" lon="-7.2473780">
        <ele>362.6</ele>
        <time>2014-10-02T09:30:19Z</time>
      </trkpt>
      <trkpt lat="42.4841270" lon="-7.2473650">
        <ele>362.9</ele>
        <time>2014-10-02T09:30:20Z</time>
      </trkpt>
      <trkpt lat="42.4841600" lon="-7.2473540">
        <ele>363.1</ele>
        <time>2014-10-02T09:30:21Z</time>
      </trkpt>
      <trkpt lat="42.4841920" lon="-7.2473410">
        <ele>363.4</ele>
        <time>2014-10-02T09:30:22Z</time>
      </trkpt>
      <trkpt lat="42.4842240" lon="-7.2473280">
        <ele>363.7</ele>
        <time>2014-10-02T09:30:23Z</time>
      </trkpt>
      <trkpt lat="42.4842550" lon="-7.2473130">
        <ele>364.0</ele>
        <time>2014-10-02T09:30:24Z</time>
      </trkpt>
      <trkpt lat="42.4842860" lon="-7.2472970">
        <ele>364.3</ele>
        <time>2014-10-02T09:30:25Z</time>
      </trkpt>
      <trkpt lat="42.4843160" lon="-7.2472830">
        <ele>364.5</ele>
        <time>2014-10-02T09:30:26Z</time>
      </trkpt>
      <trkpt lat="42.4843460" lon="-7.2472710">
        <ele>364.8</ele>
        <time>2014-10-02T09:30:27Z</time>
      </trkpt>
      <trkpt lat="42.4843770" lon="-7.2472590">
        <ele>365.1</ele>
        <time>2014-10-02T09:30:28Z</time>
      </trkpt>
      <trkpt lat="42.4844080" lon="-7.2472450">
        <ele>365.3</ele>
        <time>2014-10-02T09:30:29Z</time>
      </trkpt>
      <trkpt lat="42.4844390" lon="-7.2472310">
        <ele>365.6</ele>
        <time>2014-10-02T09:30:30Z</time>
      </trkpt>
      <trkpt lat="42.4844690" lon="-7.2472170">
        <ele>365.9</ele>
        <time>2014-10-02T09:30:31Z</time>
      </trkpt>
      <trkpt lat="42.4844980" lon="-7.2472020">
        <ele>366.2</ele>
        <time>2014-10-02T09:30:32Z</time>
      </trkpt>
      <trkpt lat="42.4845260" lon="-7.2471880">
        <ele>366.4</ele>
        <time>2014-10-02T09:30:33Z</time>
      </trkpt>
      <trkpt lat="42.4845550" lon="-7.2471730">
        <ele>366.7</ele>
        <time>2014-10-02T09:30:34Z</time>
      </trkpt>
      <trkpt lat="42.4845830" lon="-7.2471590">
        <ele>367.0</ele>
        <time>2014-10-02T09:30:35Z</time>
      </trkpt>
      <trkpt lat="42.4846100" lon="-7.2471450">
        <ele>367.3</ele>
        <time>2014-10-02T09:30:36Z</time>
      </trkpt>
      <trkpt lat="42.4846370" lon="-7.2471320">
        <ele>367.5</ele>
        <time>2014-10-02T09:30:37Z</time>
      </trkpt>
      <trkpt lat="42.4846650" lon="-7.2471180">
        <ele>367.8</ele>
        <time>2014-10-02T09:30:38Z</time>
      </trkpt>
      <trkpt lat="42.4846930" lon="-7.2471050">
        <ele>368.1</ele>
        <time>2014-10-02T09:30:39Z</time>
      </trkpt>
      <trkpt lat="42.4847210" lon="-7.2470910">
        <ele>368.3</ele>
        <time>2014-10-02T09:30:40Z</time>
      </trkpt>
      <trkpt lat="42.4847460" lon="-7.2470770">
        <ele>368.6</ele>
        <time>2014-10-02T09:30:41Z</time>
      </trkpt>
      <trkpt lat="42.4847740" lon="-7.2470620">
        <ele>368.9</ele>
        <time>2014-10-02T09:30:42Z</time>
      </trkpt>
      <trkpt lat="42.4848000" lon="-7.2470470">
        <ele>369.1</ele>
        <time>2014-10-02T09:30:43Z</time>
      </trkpt>
      <trkpt lat="42.4848260" lon="-7.2470320">
        <ele>369.4</ele>
        <time>2014-10-02T09:30:44Z</time>
      </trkpt>
      <trkpt lat="42.4848530" lon="-7.2470180">
        <ele>369.6</ele>
        <time>2014-10-02T09:30:45Z</time>
      </trkpt>
      <trkpt lat="42.4848820" lon="-7.2470040">
        <ele>369.9</ele>
        <time>2014-10-02T09:30:46Z</time>
      </trkpt>
      <trkpt lat="42.4849130" lon="-7.2469880">
        <ele>370.2</ele>
        <time>2014-10-02T09:30:47Z</time>
      </trkpt>
      <trkpt lat="42.4849420" lon="-7.2469720">
        <ele>370.5</ele>
        <time>2014-10-02T09:30:48Z</time>
      </trkpt>
      <trkpt lat="42.4849700" lon="-7.2469560">
        <ele>370.8</ele>
        <time>2014-10-02T09:30:49Z</time>
      </trkpt>
      <trkpt lat="42.4849970" lon="-7.2469410">
        <ele>371.1</ele>
        <time>2014-10-02T09:30:50Z</time>
      </trkpt>
      <trkpt lat="42.4850230" lon="-7.2469260">
        <ele>371.3</ele>
        <time>2014-10-02T09:30:51Z</time>
      </trkpt>
      <trkpt lat="42.4850500" lon="-7.2469120">
        <ele>371.6</ele>
        <time>2014-10-02T09:30:52Z</time>
      </trkpt>
      <trkpt lat="42.4850780" lon="-7.2468980">
        <ele>371.9</ele>
        <time>2014-10-02T09:30:53Z</time>
      </trkpt>
      <trkpt lat="42.4851050" lon="-7.2468850">
        <ele>372.1</ele>
        <time>2014-10-02T09:30:54Z</time>
      </trkpt>
      <trkpt lat="42.4851330" lon="-7.2468740">
        <ele>372.4</ele>
        <time>2014-10-02T09:30:55Z</time>
      </trkpt>
      <trkpt lat="42.4851620" lon="-7.2468620">
        <ele>372.7</ele>
        <time>2014-10-02T09:30:56Z</time>
      </trkpt>
      <trkpt lat="42.4851910" lon="-7.2468500">
        <ele>373.0</ele>
        <time>2014-10-02T09:30:57Z</time>
      </trkpt>
      <trkpt lat="42.4852220" lon="-7.2468360">
        <ele>373.2</ele>
        <time>2014-10-02T09:30:58Z</time>
      </trkpt>
      <trkpt lat="42.4852520" lon="-7.2468240">
        <ele>373.5</ele>
        <time>2014-10-02T09:30:59Z</time>
      </trkpt>
      <trkpt lat="42.4852820" lon="-7.2468110">
        <ele>373.8</ele>
        <time>2014-10-02T09:31:00Z</time>
      </trkpt>
      <trkpt lat="42.4853090" lon="-7.2468000">
        <ele>374.1</ele>
        <time>2014-10-02T09:31:01Z</time>
      </trkpt>
      <trkpt lat="42.4853620" lon="-7.2467760">
        <ele>374.6</ele>
        <time>2014-10-02T09:31:03Z</time>
      </trkpt>
      <trkpt lat="42.4853890" lon="-7.2467640">
        <ele>374.8</ele>
        <time>2014-10-02T09:31:04Z</time>
      </trkpt>
      <trkpt lat="42.4854160" lon="-7.2467520">
        <ele>375.1</ele>
        <time>2014-10-02T09:31:05Z</time>
      </trkpt>
      <trkpt lat="42.4854430" lon="-7.2467390">
        <ele>375.3</ele>
        <time>2014-10-02T09:31:06Z</time>
      </trkpt>
      <trkpt lat="42.4854710" lon="-7.2467260">
        <ele>375.6</ele>
        <time>2014-10-02T09:31:07Z</time>
      </trkpt>
      <trkpt lat="42.4854990" lon="-7.2467130">
        <ele>375.9</ele>
        <time>2014-10-02T09:31:08Z</time>
      </trkpt>
      <trkpt lat="42.4855260" lon="-7.2467010">
        <ele>376.1</ele>
        <time>2014-10-02T09:31:09Z</time>
      </trkpt>
      <trkpt lat="42.4855530" lon="-7.2466890">
        <ele>376.4</ele>
        <time>2014-10-02T09:31:10Z</time>
      </trkpt>
      <trkpt lat="42.4855800" lon="-7.2466770">
        <ele>376.7</ele>
        <time>2014-10-02T09:31:11Z</time>
      </trkpt>
      <trkpt lat="42.4856080" lon="-7.2466660">
        <ele>376.9</ele>
        <time>2014-10-02T09:31:12Z</time>
      </trkpt>
      <trkpt lat="42.4856350" lon="-7.2466560">
        <ele>377.2</ele>
        <time>2014-10-02T09:31:13Z</time>
      </trkpt>
      <trkpt lat="42.4856640" lon="-7.2466450">
        <ele>377.5</ele>
        <time>2014-10-02T09:31:14Z</time>
      </trkpt>
      <trkpt lat="42.4856920" lon="-7.2466360">
        <ele>377.8</ele>
        <time>2014-10-02T09:31:15Z</time>
      </trkpt>
      <trkpt lat="42.4857190" lon="-7.2466260">
        <ele>378.0</ele>
        <time>2014-10-02T09:31:16Z</time>
      </trkpt>
      <trkpt lat="42.4857470" lon="-7.2466170">
        <ele>378.3</ele>
        <time>2014-10-02T09:31:17Z</time>
      </trkpt>
      <trkpt lat="42.4857750" lon="-7.2466080">
        <ele>378.6</ele>
        <time>2014-10-02T09:31:18Z</time>
      </trkpt>
      <trkpt lat="42.4858040" lon="-7.2466000">
        <ele>378.9</ele>
        <time>2014-10-02T09:31:19Z</time>
      </trkpt>
      <trkpt lat="42.4858320" lon="-7.2465920">
        <ele>379.1</ele>
        <time>2014-10-02T09:31:20Z</time>
      </trkpt>
      <trkpt lat="42.4858610" lon="-7.2465840">
        <ele>379.4</ele>
        <time>2014-10-02T09:31:21Z</time>
      </trkpt>
      <trkpt lat="42.4858900" lon="-7.2465760">
        <ele>379.7</ele>
        <time>2014-10-02T09:31:22Z</time>
      </trkpt>
      <trkpt lat="42.4859180" lon="-7.2465680">
        <ele>379.9</ele>
        <time>2014-10-02T09:31:23Z</time>
      </trkpt>
      <trkpt lat="42.4859470" lon="-7.2465590">
        <ele>380.2</ele>
        <time>2014-10-02T09:31:24Z</time>
      </trkpt>
      <trkpt lat="42.4859760" lon="-7.2465520">
        <ele>380.5</ele>
        <time>2014-10-02T09:31:25Z</time>
      </trkpt>
      <trkpt lat="42.4860060" lon="-7.2465450">
        <ele>380.8</ele>
        <time>2014-10-02T09:31:26Z</time>
      </trkpt>
      <trkpt lat="42.4860350" lon="-7.2465380">
        <ele>381.0</ele>
        <time>2014-10-02T09:31:27Z</time>
      </trkpt>
      <trkpt lat="42.4860640" lon="-7.2465310">
        <ele>381.3</ele>
        <time>2014-10-02T09:31:28Z</time>
      </trkpt>
      <trkpt lat="42.4860920" lon="-7.2465230">
        <ele>381.5</ele>
        <time>2014-10-02T09:31:29Z</time>
      </trkpt>
      <trkpt lat="42.4861200" lon="-7.2465150">
        <ele>381.8</ele>
        <time>2014-10-02T09:31:30Z</time>
      </trkpt>
      <trkpt lat="42.4861490" lon="-7.2465090">
        <ele>382.1</ele>
        <time>2014-10-02T09:31:31Z</time>
      </trkpt>
      <trkpt lat="42.4861770" lon="-7.2465030">
        <ele>382.3</ele>
        <time>2014-10-02T09:31:32Z</time>
      </trkpt>
      <trkpt lat="42.4862060" lon="-7.2464970">
        <ele>382.5</ele>
        <time>2014-10-02T09:31:33Z</time>
      </trkpt>
      <trkpt lat="42.4862350" lon="-7.2464910">
        <ele>382.8</ele>
        <time>2014-10-02T09:31:34Z</time>
      </trkpt>
      <trkpt lat="42.4862640" lon="-7.2464860">
        <ele>383.0</ele>
        <time>2014-10-02T09:31:35Z</time>
      </trkpt>
      <trkpt lat="42.4862930" lon="-7.2464810">
        <ele>383.2</ele>
        <time>2014-10-02T09:31:36Z</time>
      </trkpt>
      <trkpt lat="42.4863210" lon="-7.2464760">
        <ele>383.5</ele>
        <time>2014-10-02T09:31:37Z</time>
      </trkpt>
      <trkpt lat="42.4863500" lon="-7.2464700">
        <ele>383.7</ele>
        <time>2014-10-02T09:31:38Z</time>
      </trkpt>
      <trkpt lat="42.4863800" lon="-7.2464630">
        <ele>383.9</ele>
        <time>2014-10-02T09:31:39Z</time>
      </trkpt>
      <trkpt lat="42.4864120" lon="-7.2464550">
        <ele>384.2</ele>
        <time>2014-10-02T09:31:40Z</time>
      </trkpt>
      <trkpt lat="42.4864440" lon="-7.2464490">
        <ele>384.5</ele>
        <time>2014-10-02T09:31:41Z</time>
      </trkpt>
      <trkpt lat="42.4864750" lon="-7.2464430">
        <ele>384.7</ele>
        <time>2014-10-02T09:31:42Z</time>
      </trkpt>
      <trkpt lat="42.4865070" lon="-7.2464380">
        <ele>385.0</ele>
        <time>2014-10-02T09:31:43Z</time>
      </trkpt>
      <trkpt lat="42.4865390" lon="-7.2464330">
        <ele>385.2</ele>
        <time>2014-10-02T09:31:44Z</time>
      </trkpt>
      <trkpt lat="42.4865720" lon="-7.2464310">
        <ele>385.5</ele>
        <time>2014-10-02T09:31:45Z</time>
      </trkpt>
      <trkpt lat="42.4866060" lon="-7.2464300">
        <ele>385.8</ele>
        <time>2014-10-02T09:31:46Z</time>
      </trkpt>
      <trkpt lat="42.4866370" lon="-7.2464270">
        <ele>386.0</ele>
        <time>2014-10-02T09:31:47Z</time>
      </trkpt>
      <trkpt lat="42.4866720" lon="-7.2464240">
        <ele>386.3</ele>
        <time>2014-10-02T09:31:48Z</time>
      </trkpt>
      <trkpt lat="42.4867080" lon="-7.2464230">
        <ele>386.6</ele>
        <time>2014-10-02T09:31:49Z</time>
      </trkpt>
      <trkpt lat="42.4867440" lon="-7.2464210">
        <ele>386.9</ele>
        <time>2014-10-02T09:31:50Z</time>
      </trkpt>
      <trkpt lat="42.4867810" lon="-7.2464190">
        <ele>387.2</ele>
        <time>2014-10-02T09:31:51Z</time>
      </trkpt>
      <trkpt lat="42.4868160" lon="-7.2464160">
        <ele>387.4</ele>
        <time>2014-10-02T09:31:52Z</time>
      </trkpt>
      <trkpt lat="42.4868540" lon="-7.2464110">
        <ele>387.8</ele>
        <time>2014-10-02T09:31:53Z</time>
      </trkpt>
      <trkpt lat="42.4868880" lon="-7.2464070">
        <ele>388.0</ele>
        <time>2014-10-02T09:31:54Z</time>
      </trkpt>
      <trkpt lat="42.4869220" lon="-7.2464020">
        <ele>388.3</ele>
        <time>2014-10-02T09:31:55Z</time>
      </trkpt>
      <trkpt lat="42.4869570" lon="-7.2463960">
        <ele>388.6</ele>
        <time>2014-10-02T09:31:56Z</time>
      </trkpt>
      <trkpt lat="42.4869920" lon="-7.2463900">
        <ele>388.9</ele>
        <time>2014-10-02T09:31:57Z</time>
      </trkpt>
      <trkpt lat="42.4870270" lon="-7.2463840">
        <ele>389.1</ele>
        <time>2014-10-02T09:31:58Z</time>
      </trkpt>
      <trkpt lat="42.4870610" lon="-7.2463780">
        <ele>389.4</ele>
        <time>2014-10-02T09:31:59Z</time>
      </trkpt>
      <trkpt lat="42.4870950" lon="-7.2463720">
        <ele>389.7</ele>
        <time>2014-10-02T09:32:00Z</time>
      </trkpt>
      <trkpt lat="42.4871320" lon="-7.2463640">
        <ele>390.0</ele>
        <time>2014-10-02T09:32:01Z</time>
      </trkpt>
      <trkpt lat="42.4871690" lon="-7.2463550">
        <ele>390.3</ele>
        <time>2014-10-02T09:32:02Z</time>
      </trkpt>
      <trkpt lat="42.4872100" lon="-7.2463430">
        <ele>390.6</ele>
        <time>2014-10-02T09:32:03Z</time>
      </trkpt>
      <trkpt lat="42.4872530" lon="-7.2463300">
        <ele>391.0</ele>
        <time>2014-10-02T09:32:04Z</time>
      </trkpt>
      <trkpt lat="42.4872910" lon="-7.2463200">
        <ele>391.3</ele>
        <time>2014-10-02T09:32:05Z</time>
      </trkpt>
      <trkpt lat="42.4873290" lon="-7.2463150">
        <ele>391.6</ele>
        <time>2014-10-02T09:32:06Z</time>
      </trkpt>
      <trkpt lat="42.4873600" lon="-7.2463110">
        <ele>391.9</ele>
        <time>2014-10-02T09:32:07Z</time>
      </trkpt>
      <trkpt lat="42.4874010" lon="-7.2463070">
        <ele>392.2</ele>
        <time>2014-10-02T09:32:08Z</time>
      </trkpt>
      <trkpt lat="42.4874430" lon="-7.2463020">
        <ele>392.5</ele>
        <time>2014-10-02T09:32:09Z</time>
      </trkpt>
      <trkpt lat="42.4874840" lon="-7.2462960">
        <ele>392.9</ele>
        <time>2014-10-02T09:32:10Z</time>
      </trkpt>
      <trkpt lat="42.4875230" lon="-7.2462890">
        <ele>393.2</ele>
        <time>2014-10-02T09:32:11Z</time>
      </trkpt>
      <trkpt lat="42.4875620" lon="-7.2462810">
        <ele>393.5</ele>
        <time>2014-10-02T09:32:12Z</time>
      </trkpt>
      <trkpt lat="42.4875970" lon="-7.2462750">
        <ele>393.8</ele>
        <time>2014-10-02T09:32:13Z</time>
      </trkpt>
      <trkpt lat="42.4876340" lon="-7.2462670">
        <ele>394.1</ele>
        <time>2014-10-02T09:32:14Z</time>
      </trkpt>
      <trkpt lat="42.4876680" lon="-7.2462590">
        <ele>394.3</ele>
        <time>2014-10-02T09:32:15Z</time>
      </trkpt>
      <trkpt lat="42.4877030" lon="-7.2462520">
        <ele>394.6</ele>
        <time>2014-10-02T09:32:16Z</time>
      </trkpt>
      <trkpt lat="42.4877360" lon="-7.2462440">
        <ele>394.9</ele>
        <time>2014-10-02T09:32:17Z</time>
      </trkpt>
      <trkpt lat="42.4877670" lon="-7.2462360">
        <ele>395.2</ele>
        <time>2014-10-02T09:32:18Z</time>
      </trkpt>
      <trkpt lat="42.4877970" lon="-7.2462280">
        <ele>395.4</ele>
        <time>2014-10-02T09:32:19Z</time>
      </trkpt>
      <trkpt lat="42.4878280" lon="-7.2462210">
        <ele>395.7</ele>
        <time>2014-10-02T09:32:20Z</time>
      </trkpt>
      <trkpt lat="42.4878610" lon="-7.2462150">
        <ele>395.9</ele>
        <time>2014-10-02T09:32:21Z</time>
      </trkpt>
      <trkpt lat="42.4878930" lon="-7.2462110">
        <ele>396.2</ele>
        <time>2014-10-02T09:32:22Z</time>
      </trkpt>
      <trkpt lat="42.4879300" lon="-7.2462050">
        <ele>396.5</ele>
        <time>2014-10-02T09:32:23Z</time>
      </trkpt>
      <trkpt lat="42.4879610" lon="-7.2461990">
        <ele>396.7</ele>
        <time>2014-10-02T09:32:24Z</time>
      </trkpt>
      <trkpt lat="42.4879890" lon="-7.2461920">
        <ele>397.0</ele>
        <time>2014-10-02T09:32:25Z</time>
      </trkpt>
      <trkpt lat="42.4880410" lon="-7.2461820">
        <ele>397.4</ele>
        <time>2014-10-02T09:32:27Z</time>
      </trkpt>
      <trkpt lat="42.4880710" lon="-7.2461770">
        <ele>397.6</ele>
        <time>2014-10-02T09:32:28Z</time>
      </trkpt>
      <trkpt lat="42.4881200" lon="-7.2461680">
        <ele>398.0</ele>
        <time>2014-10-02T09:32:30Z</time>
      </trkpt>
      <trkpt lat="42.4881770" lon="-7.2461610">
        <ele>398.5</ele>
        <time>2014-10-02T09:32:32Z</time>
      </trkpt>
      <trkpt lat="42.4882090" lon="-7.2461610">
        <ele>398.7</ele>
        <time>2014-10-02T09:32:33Z</time>
      </trkpt>
      <trkpt lat="42.4882430" lon="-7.2461590">
        <ele>399.0</ele>
        <time>2014-10-02T09:32:34Z</time>
      </trkpt>
      <trkpt lat="42.4882770" lon="-7.2461580">
        <ele>399.3</ele>
        <time>2014-10-02T09:32:35Z</time>
      </trkpt>
      <trkpt lat="42.4883050" lon="-7.2461550">
        <ele>399.5</ele>
        <time>2014-10-02T09:32:36Z</time>
      </trkpt>
      <trkpt lat="42.4883360" lon="-7.2461510">
        <ele>399.8</ele>
        <time>2014-10-02T09:32:37Z</time>
      </trkpt>
      <trkpt lat="42.4883640" lon="-7.2461450">
        <ele>400.0</ele>
        <time>2014-10-02T09:32:38Z</time>
      </trkpt>
      <trkpt lat="42.4883930" lon="-7.2461370">
        <ele>400.2</ele>
        <time>2014-10-02T09:32:39Z</time>
      </trkpt>
      <trkpt lat="42.4884260" lon="-7.2461310">
        <ele>400.5</ele>
        <time>2014-10-02T09:32:40Z</time>
      </trkpt>
      <trkpt lat="42.4884600" lon="-7.2461250">
        <ele>400.8</ele>
        <time>2014-10-02T09:32:41Z</time>
      </trkpt>
      <trkpt lat="42.4884920" lon="-7.2461210">
        <ele>401.0</ele>
        <time>2014-10-02T09:32:42Z</time>
      </trkpt>
      <trkpt lat="42.4885200" lon="-7.2461180">
        <ele>401.2</ele>
        <time>2014-10-02T09:32:43Z</time>
      </trkpt>
      <trkpt lat="42.4885730" lon="-7.2461110">
        <ele>401.7</ele>
        <time>2014-10-02T09:32:45Z</time>
      </trkpt>
      <trkpt lat="42.4886020" lon="-7.2461060">
        <ele>401.9</ele>
        <time>2014-10-02T09:32:46Z</time>
      </trkpt>
      <trkpt lat="42.4886300" lon="-7.2461010">
        <ele>402.1</ele>
        <time>2014-10-02T09:32:47Z</time>
      </trkpt>
      <trkpt lat="42.4886600" lon="-7.2460970">
        <ele>402.4</ele>
        <time>2014-10-02T09:32:48Z</time>
      </trkpt>
      <trkpt lat="42.4886900" lon="-7.2460920">
        <ele>402.6</ele>
        <time>2014-10-02T09:32:49Z</time>
      </trkpt>
      <trkpt lat="42.4887190" lon="-7.2460870">
        <ele>402.8</ele>
        <time>2014-10-02T09:32:50Z</time>
      </trkpt>
      <trkpt lat="42.4887480" lon="-7.2460820">
        <ele>403.1</ele>
        <time>2014-10-02T09:32:51Z</time>
      </trkpt>
      <trkpt lat="42.4887770" lon="-7.2460760">
        <ele>403.3</ele>
        <time>2014-10-02T09:32:52Z</time>
      </trkpt>
      <trkpt lat="42.4888060" lon="-7.2460710">
        <ele>403.6</ele>
        <time>2014-10-02T09:32:53Z</time>
      </trkpt>
      <trkpt lat="42.4888360" lon="-7.2460650">
        <ele>403.8</ele>
        <time>2014-10-02T09:32:54Z</time>
      </trkpt>
      <trkpt lat="42.4888670" lon="-7.2460590">
        <ele>404.0</ele>
        <time>2014-10-02T09:32:55Z</time>
      </trkpt>
      <trkpt lat="42.4888990" lon="-7.2460530">
        <ele>404.3</ele>
        <time>2014-10-02T09:32:56Z</time>
      </trkpt>
      <trkpt lat="42.4889280" lon="-7.2460480">
        <ele>404.5</ele>
        <time>2014-10-02T09:32:57Z</time>
      </trkpt>
      <trkpt lat="42.4889610" lon="-7.2460430">
        <ele>404.8</ele>
        <time>2014-10-02T09:32:58Z</time>
      </trkpt>
      <trkpt lat="42.4889940" lon="-7.2460380">
        <ele>405.1</ele>
        <time>2014-10-02T09:32:59Z</time>
      </trkpt>
      <trkpt lat="42.4890310" lon="-7.2460340">
        <ele>405.4</ele>
        <time>2014-10-02T09:33:00Z</time>
      </trkpt>
      <trkpt lat="42.4890700" lon="-7.2460350">
        <ele>405.7</ele>
        <time>2014-10-02T09:33:01Z</time>
      </trkpt>
      <trkpt lat="42.4891030" lon="-7.2460270">
        <ele>406.0</ele>
        <time>2014-10-02T09:33:02Z</time>
      </trkpt>
      <trkpt lat="42.4891360" lon="-7.2460150">
        <ele>406.2</ele>
        <time>2014-10-02T09:33:03Z</time>
      </trkpt>
      <trkpt lat="42.4891700" lon="-7.2460070">
        <ele>406.5</ele>
        <time>2014-10-02T09:33:04Z</time>
      </trkpt>
      <trkpt lat="42.4891970" lon="-7.2460000">
        <ele>406.7</ele>
        <time>2014-10-02T09:33:05Z</time>
      </trkpt>
      <trkpt lat="42.4892300" lon="-7.2459970">
        <ele>407.0</ele>
        <time>2014-10-02T09:33:06Z</time>
      </trkpt>
      <trkpt lat="42.4892590" lon="-7.2459920">
        <ele>407.2</ele>
        <time>2014-10-02T09:33:07Z</time>
      </trkpt>
      <trkpt lat="42.4892860" lon="-7.2459860">
        <ele>407.4</ele>
        <time>2014-10-02T09:33:08Z</time>
      </trkpt>
      <trkpt lat="42.4893410" lon="-7.2459820">
        <ele>407.9</ele>
        <time>2014-10-02T09:33:10Z</time>
      </trkpt>
      <trkpt lat="42.4893920" lon="-7.2459870">
        <ele>408.3</ele>
        <time>2014-10-02T09:33:12Z</time>
      </trkpt>
      <trkpt lat="42.4894440" lon="-7.2459920">
        <ele>408.7</ele>
        <time>2014-10-02T09:33:14Z</time>
      </trkpt>
      <trkpt lat="42.4894710" lon="-7.2459950">
        <ele>408.9</ele>
        <time>2014-10-02T09:33:15Z</time>
      </trkpt>
      <trkpt lat="42.4894990" lon="-7.2460020">
        <ele>409.2</ele>
        <time>2014-10-02T09:33:16Z</time>
      </trkpt>
      <trkpt lat="42.4895350" lon="-7.2460030">
        <ele>409.4</ele>
        <time>2014-10-02T09:33:17Z</time>
      </trkpt>
      <trkpt lat="42.4895870" lon="-7.2459380">
        <ele>410.0</ele>
        <time>2014-10-02T09:33:19Z</time>
      </trkpt>
      <trkpt lat="42.4896260" lon="-7.2459330">
        <ele>410.3</ele>
        <time>2014-10-02T09:33:20Z</time>
      </trkpt>
      <trkpt lat="42.4896660" lon="-7.2459080">
        <ele>410.7</ele>
        <time>2014-10-02T09:33:21Z</time>
      </trkpt>
      <trkpt lat="42.4896990" lon="-7.2459060">
        <ele>410.9</ele>
        <time>2014-10-02T09:33:22Z</time>
      </trkpt>
      <trkpt lat="42.4897440" lon="-7.2459380">
        <ele>411.4</ele>
        <time>2014-10-02T09:33:23Z</time>
      </trkpt>
      <trkpt lat="42.4897830" lon="-7.2459770">
        <ele>411.7</ele>
        <time>2014-10-02T09:33:24Z</time>
      </trkpt>
      <trkpt lat="42.4898090" lon="-7.2460270">
        <ele>412.1</ele>
        <time>2014-10-02T09:33:25Z</time>
      </trkpt>
      <trkpt lat="42.4898430" lon="-7.2460780">
        <ele>412.5</ele>
        <time>2014-10-02T09:33:26Z</time>
      </trkpt>
      <trkpt lat="42.4898750" lon="-7.2461110">
        <ele>412.8</ele>
        <time>2014-10-02T09:33:27Z</time>
      </trkpt>
      <trkpt lat="42.4899040" lon="-7.2461360">
        <ele>413.1</ele>
        <time>2014-10-02T09:33:28Z</time>
      </trkpt>
      <trkpt lat="42.4899320" lon="-7.2461500">
        <ele>413.4</ele>
        <time>2014-10-02T09:33:29Z</time>
      </trkpt>
      <trkpt lat="42.4899720" lon="-7.2461680">
        <ele>413.7</ele>
        <time>2014-10-02T09:33:31Z</time>
      </trkpt>
      <trkpt lat="42.4900320" lon="-7.2461920">
        <ele>414.2</ele>
        <time>2014-10-02T09:33:33Z</time>
      </trkpt>
      <trkpt lat="42.4900620" lon="-7.2461990">
        <ele>414.4</ele>
        <time>2014-10-02T09:33:34Z</time>
      </trkpt>
      <trkpt lat="42.4900930" lon="-7.2462050">
        <ele>414.7</ele>
        <time>2014-10-02T09:33:35Z</time>
      </trkpt>
      <trkpt lat="42.4901310" lon="-7.2462150">
        <ele>415.0</ele>
        <time>2014-10-02T09:33:36Z</time>
      </trkpt>
      <trkpt lat="42.4901700" lon="-7.2462270">
        <ele>415.3</ele>
        <time>2014-10-02T09:33:37Z</time>
      </trkpt>
      <trkpt lat="42.4902030" lon="-7.2462420">
        <ele>415.6</ele>
        <time>2014-10-02T09:33:38Z</time>
      </trkpt>
      <trkpt lat="42.4902340" lon="-7.2462550">
        <ele>415.9</ele>
        <time>2014-10-02T09:33:39Z</time>
      </trkpt>
      <trkpt lat="42.4902610" lon="-7.2462670">
        <ele>416.1</ele>
        <time>2014-10-02T09:33:40Z</time>
      </trkpt>
      <trkpt lat="42.4902860" lon="-7.2462820">
        <ele>416.3</ele>
        <time>2014-10-02T09:33:41Z</time>
      </trkpt>
      <trkpt lat="42.4903290" lon="-7.2463090">
        <ele>416.7</ele>
        <time>2014-10-02T09:33:43Z</time>
      </trkpt>
      <trkpt lat="42.4903800" lon="-7.2463420">
        <ele>417.1</ele>
        <time>2014-10-02T09:33:45Z</time>
      </trkpt>
      <trkpt lat="42.4904310" lon="-7.2463800">
        <ele>417.6</ele>
        <time>2014-10-02T09:33:47Z</time>
      </trkpt>
      <trkpt lat="42.4904600" lon="-7.2464010">
        <ele>417.9</ele>
        <time>2014-10-02T09:33:48Z</time>
      </trkpt>
      <trkpt lat="42.4905120" lon="-7.2464330">
        <ele>418.3</ele>
        <time>2014-10-02T09:33:50Z</time>
      </trkpt>
      <trkpt lat="42.4905390" lon="-7.2464470">
        <ele>418.6</ele>
        <time>2014-10-02T09:33:51Z</time>
      </trkpt>
      <trkpt lat="42.4905660" lon="-7.2464600">
        <ele>418.8</ele>
        <time>2014-10-02T09:33:52Z</time>
      </trkpt>
      <trkpt lat="42.4905910" lon="-7.2464730">
        <ele>419.0</ele>
        <time>2014-10-02T09:33:53Z</time>
      </trkpt>
      <trkpt lat="42.4906390" lon="-7.2465000">
        <ele>419.4</ele>
        <time>2014-10-02T09:33:55Z</time>
      </trkpt>
      <trkpt lat="42.4906620" lon="-7.2465220">
        <ele>419.6</ele>
        <time>2014-10-02T09:33:56Z</time>
      </trkpt>
      <trkpt lat="42.4906870" lon="-7.2465490">
        <ele>419.9</ele>
        <time>2014-10-02T09:33:57Z</time>
      </trkpt>
      <trkpt lat="42.4907130" lon="-7.2465710">
        <ele>420.1</ele>
        <time>2014-10-02T09:33:58Z</time>
      </trkpt>
      <trkpt lat="42.4907390" lon="-7.2465920">
        <ele>420.4</ele>
        <time>2014-10-02T09:33:59Z</time>
      </trkpt>
      <trkpt lat="42.4907620" lon="-7.2466180">
        <ele>420.6</ele>
        <time>2014-10-02T09:34:00Z</time>
      </trkpt>
      <trkpt lat="42.4907850" lon="-7.2466430">
        <ele>420.9</ele>
        <time>2014-10-02T09:34:01Z</time>
      </trkpt>
      <trkpt lat="42.4908070" lon="-7.2466710">
        <ele>421.1</ele>
        <time>2014-10-02T09:34:02Z</time>
      </trkpt>
      <trkpt lat="42.4908310" lon="-7.2467000">
        <ele>421.4</ele>
        <time>2014-10-02T09:34:03Z</time>
      </trkpt>
      <trkpt lat="42.4908560" lon="-7.2467230">
        <ele>421.6</ele>
        <time>2014-10-02T09:34:04Z</time>
      </trkpt>
      <trkpt lat="42.4908810" lon="-7.2467440">
        <ele>421.8</ele>
        <time>2014-10-02T09:34:05Z</time>
      </trkpt>
      <trkpt lat="42.4909190" lon="-7.2467650">
        <ele>422.2</ele>
        <time>2014-10-02T09:34:07Z</time>
      </trkpt>
      <trkpt lat="42.4909520" lon="-7.2467930">
        <ele>422.5</ele>
        <time>2014-10-02T09:34:09Z</time>
      </trkpt>
      <trkpt lat="42.4909970" lon="-7.2467790">
        <ele>422.9</ele>
        <time>2014-10-02T09:34:11Z</time>
      </trkpt>
      <trkpt lat="42.4910180" lon="-7.2467200">
        <ele>423.2</ele>
        <time>2014-10-02T09:34:12Z</time>
      </trkpt>
      <trkpt lat="42.4913820" lon="-7.2472930">
        <ele>427.7</ele>
        <time>2014-10-02T09:34:29Z</time>
      </trkpt>
      <trkpt lat="42.4914160" lon="-7.2473280">
        <ele>428.1</ele>
        <time>2014-10-02T09:34:31Z</time>
      </trkpt>
      <trkpt lat="42.4914510" lon="-7.2473530">
        <ele>428.4</ele>
        <time>2014-10-02T09:34:33Z</time>
      </trkpt>
      <trkpt lat="42.4914850" lon="-7.2473850">
        <ele>428.7</ele>
        <time>2014-10-02T09:34:35Z</time>
      </trkpt>
      <trkpt lat="42.4914990" lon="-7.2474310">
        <ele>429.0</ele>
        <time>2014-10-02T09:34:37Z</time>
      </trkpt>
      <trkpt lat="42.4915650" lon="-7.2475040">
        <ele>429.7</ele>
        <time>2014-10-02T09:34:39Z</time>
      </trkpt>
      <trkpt lat="42.4915850" lon="-7.2475370">
        <ele>429.9</ele>
        <time>2014-10-02T09:34:40Z</time>
      </trkpt>
      <trkpt lat="42.4916130" lon="-7.2475720">
        <ele>430.2</ele>
        <time>2014-10-02T09:34:41Z</time>
      </trkpt>
      <trkpt lat="42.4916400" lon="-7.2476030">
        <ele>430.5</ele>
        <time>2014-10-02T09:34:42Z</time>
      </trkpt>
      <trkpt lat="42.4916640" lon="-7.2476280">
        <ele>430.8</ele>
        <time>2014-10-02T09:34:43Z</time>
      </trkpt>
      <trkpt lat="42.4916920" lon="-7.2476500">
        <ele>431.0</ele>
        <time>2014-10-02T09:34:44Z</time>
      </trkpt>
      <trkpt lat="42.4917120" lon="-7.2476990">
        <ele>431.4</ele>
        <time>2014-10-02T09:34:46Z</time>
      </trkpt>
      <trkpt lat="42.4917600" lon="-7.2477490">
        <ele>431.8</ele>
        <time>2014-10-02T09:34:48Z</time>
      </trkpt>
      <trkpt lat="42.4918030" lon="-7.2477660">
        <ele>432.2</ele>
        <time>2014-10-02T09:34:49Z</time>
      </trkpt>
      <trkpt lat="42.4918350" lon="-7.2477860">
        <ele>432.5</ele>
        <time>2014-10-02T09:34:50Z</time>
      </trkpt>
      <trkpt lat="42.4918640" lon="-7.2478040">
        <ele>432.7</ele>
        <time>2014-10-02T09:34:51Z</time>
      </trkpt>
      <trkpt lat="42.4918930" lon="-7.2478250">
        <ele>433.0</ele>
        <time>2014-10-02T09:34:52Z</time>
      </trkpt>
      <trkpt lat="42.4919230" lon="-7.2478480">
        <ele>433.3</ele>
        <time>2014-10-02T09:34:53Z</time>
      </trkpt>
      <trkpt lat="42.4919490" lon="-7.2478670">
        <ele>433.5</ele>
        <time>2014-10-02T09:34:54Z</time>
      </trkpt>
      <trkpt lat="42.4919740" lon="-7.2478870">
        <ele>433.8</ele>
        <time>2014-10-02T09:34:55Z</time>
      </trkpt>
      <trkpt lat="42.4920010" lon="-7.2479090">
        <ele>434.0</ele>
        <time>2014-10-02T09:34:56Z</time>
      </trkpt>
      <trkpt lat="42.4920270" lon="-7.2479270">
        <ele>434.2</ele>
        <time>2014-10-02T09:34:57Z</time>
      </trkpt>
      <trkpt lat="42.4920580" lon="-7.2479550">
        <ele>434.5</ele>
        <time>2014-10-02T09:34:58Z</time>
      </trkpt>
      <trkpt lat="42.4920890" lon="-7.2479800">
        <ele>434.8</ele>
        <time>2014-10-02T09:34:59Z</time>
      </trkpt>
      <trkpt lat="42.4921170" lon="-7.2480010">
        <ele>435.1</ele>
        <time>2014-10-02T09:35:00Z</time>
      </trkpt>
      <trkpt lat="42.4921530" lon="-7.2480360">
        <ele>435.4</ele>
        <time>2014-10-02T09:35:02Z</time>
      </trkpt>
      <trkpt lat="42.4921800" lon="-7.2480650">
        <ele>435.7</ele>
        <time>2014-10-02T09:35:03Z</time>
      </trkpt>
      <trkpt lat="42.4922060" lon="-7.2480920">
        <ele>436.0</ele>
        <time>2014-10-02T09:35:04Z</time>
      </trkpt>
      <trkpt lat="42.4922330" lon="-7.2481180">
        <ele>436.2</ele>
        <time>2014-10-02T09:35:05Z</time>
      </trkpt>
      <trkpt lat="42.4922640" lon="-7.2481480">
        <ele>436.6</ele>
        <time>2014-10-02T09:35:06Z</time>
      </trkpt>
      <trkpt lat="42.4922910" lon="-7.2481740">
        <ele>436.8</ele>
        <time>2014-10-02T09:35:07Z</time>
      </trkpt>
      <trkpt lat="42.4923260" lon="-7.2481990">
        <ele>437.1</ele>
        <time>2014-10-02T09:35:08Z</time>
      </trkpt>
      <trkpt lat="42.4923570" lon="-7.2482230">
        <ele>437.4</ele>
        <time>2014-10-02T09:35:09Z</time>
      </trkpt>
      <trkpt lat="42.4923870" lon="-7.2482440">
        <ele>437.7</ele>
        <time>2014-10-02T09:35:10Z</time>
      </trkpt>
      <trkpt lat="42.4924180" lon="-7.2482640">
        <ele>438.0</ele>
        <time>2014-10-02T09:35:11Z</time>
      </trkpt>
      <trkpt lat="42.4924500" lon="-7.2482840">
        <ele>438.2</ele>
        <time>2014-10-02T09:35:12Z</time>
      </trkpt>
      <trkpt lat="42.4924810" lon="-7.2483020">
        <ele>438.5</ele>
        <time>2014-10-02T09:35:13Z</time>
      </trkpt>
      <trkpt lat="42.4925110" lon="-7.2483210">
        <ele>438.8</ele>
        <time>2014-10-02T09:35:14Z</time>
      </trkpt>
      <trkpt lat="42.4925390" lon="-7.2483320">
        <ele>439.0</ele>
        <time>2014-10-02T09:35:15Z</time>
      </trkpt>
      <trkpt lat="42.4925710" lon="-7.2483460">
        <ele>439.3</ele>
        <time>2014-10-02T09:35:16Z</time>
      </trkpt>
      <trkpt lat="42.4925980" lon="-7.2483540">
        <ele>439.5</ele>
        <time>2014-10-02T09:35:17Z</time>
      </trkpt>
      <trkpt lat="42.4926300" lon="-7.2483600">
        <ele>439.8</ele>
        <time>2014-10-02T09:35:18Z</time>
      </trkpt>
      <trkpt lat="42.4926650" lon="-7.2483670">
        <ele>440.1</ele>
        <time>2014-10-02T09:35:19Z</time>
      </trkpt>
      <trkpt lat="42.4926980" lon="-7.2483720">
        <ele>440.3</ele>
        <time>2014-10-02T09:35:20Z</time>
      </trkpt>
      <trkpt lat="42.4927270" lon="-7.2483750">
        <ele>440.6</ele>
        <time>2014-10-02T09:35:21Z</time>
      </trkpt>
      <trkpt lat="42.4927540" lon="-7.2483780">
        <ele>440.8</ele>
        <time>2014-10-02T09:35:22Z</time>
      </trkpt>
      <trkpt lat="42.4928060" lon="-7.2483800">
        <ele>441.2</ele>
        <time>2014-10-02T09:35:24Z</time>
      </trkpt>
      <trkpt lat="42.4928630" lon="-7.2483730">
        <ele>441.6</ele>
        <time>2014-10-02T09:35:26Z</time>
      </trkpt>
      <trkpt lat="42.4928940" lon="-7.2483670">
        <ele>441.9</ele>
        <time>2014-10-02T09:35:27Z</time>
      </trkpt>
      <trkpt lat="42.4929230" lon="-7.2483570">
        <ele>442.1</ele>
        <time>2014-10-02T09:35:28Z</time>
      </trkpt>
      <trkpt lat="42.4929500" lon="-7.2483440">
        <ele>442.4</ele>
        <time>2014-10-02T09:35:29Z</time>
      </trkpt>
      <trkpt lat="42.4929780" lon="-7.2483300">
        <ele>442.6</ele>
        <time>2014-10-02T09:35:30Z</time>
      </trkpt>
      <trkpt lat="42.4930050" lon="-7.2483120">
        <ele>442.8</ele>
        <time>2014-10-02T09:35:31Z</time>
      </trkpt>
      <trkpt lat="42.4930310" lon="-7.2482940">
        <ele>443.1</ele>
        <time>2014-10-02T09:35:32Z</time>
      </trkpt>
      <trkpt lat="42.4930560" lon="-7.2482750">
        <ele>443.3</ele>
        <time>2014-10-02T09:35:33Z</time>
      </trkpt>
      <trkpt lat="42.4930810" lon="-7.2482550">
        <ele>443.5</ele>
        <time>2014-10-02T09:35:34Z</time>
      </trkpt>
      <trkpt lat="42.4931090" lon="-7.2482300">
        <ele>443.8</ele>
        <time>2014-10-02T09:35:35Z</time>
      </trkpt>
      <trkpt lat="42.4931370" lon="-7.2482020">
        <ele>444.1</ele>
        <time>2014-10-02T09:35:36Z</time>
      </trkpt>
      <trkpt lat="42.4931670" lon="-7.2481750">
        <ele>444.4</ele>
        <time>2014-10-02T09:35:37Z</time>
      </trkpt>
      <trkpt lat="42.4931920" lon="-7.2481460">
        <ele>444.6</ele>
        <time>2014-10-02T09:35:38Z</time>
      </trkpt>
      <trkpt lat="42.4932140" lon="-7.2481140">
        <ele>444.9</ele>
        <time>2014-10-02T09:35:39Z</time>
      </trkpt>
      <trkpt lat="42.4932330" lon="-7.2480810">
        <ele>445.2</ele>
        <time>2014-10-02T09:35:40Z</time>
      </trkpt>
      <trkpt lat="42.4932510" lon="-7.2480460">
        <ele>445.4</ele>
        <time>2014-10-02T09:35:41Z</time>
      </trkpt>
      <trkpt lat="42.4932690" lon="-7.2480110">
        <ele>445.7</ele>
        <time>2014-10-02T09:35:42Z</time>
      </trkpt>
      <trkpt lat="42.4932880" lon="-7.2479800">
        <ele>445.9</ele>
        <time>2014-10-02T09:35:43Z</time>
      </trkpt>
      <trkpt lat="42.4933050" lon="-7.2479450">
        <ele>446.1</ele>
        <time>2014-10-02T09:35:44Z</time>
      </trkpt>
      <trkpt lat="42.4933220" lon="-7.2479070">
        <ele>446.4</ele>
        <time>2014-10-02T09:35:45Z</time>
      </trkpt>
      <trkpt lat="42.4933390" lon="-7.2478700">
        <ele>446.7</ele>
        <time>2014-10-02T09:35:46Z</time>
      </trkpt>
      <trkpt lat="42.4933580" lon="-7.2478320">
        <ele>446.9</ele>
        <time>2014-10-02T09:35:47Z</time>
      </trkpt>
      <trkpt lat="42.4933760" lon="-7.2477910">
        <ele>447.2</ele>
        <time>2014-10-02T09:35:48Z</time>
      </trkpt>
      <trkpt lat="42.4933940" lon="-7.2477540">
        <ele>447.5</ele>
        <time>2014-10-02T09:35:49Z</time>
      </trkpt>
      <trkpt lat="42.4934110" lon="-7.2477230">
        <ele>447.7</ele>
        <time>2014-10-02T09:35:50Z</time>
      </trkpt>
      <trkpt lat="42.4934250" lon="-7.2476910">
        <ele>447.9</ele>
        <time>2014-10-02T09:35:51Z</time>
      </trkpt>
      <trkpt lat="42.4934570" lon="-7.2476330">
        <ele>448.4</ele>
        <time>2014-10-02T09:35:53Z</time>
      </trkpt>
      <trkpt lat="42.4934760" lon="-7.2475990">
        <ele>448.6</ele>
        <time>2014-10-02T09:35:54Z</time>
      </trkpt>
      <trkpt lat="42.4934940" lon="-7.2475650">
        <ele>448.9</ele>
        <time>2014-10-02T09:35:55Z</time>
      </trkpt>
      <trkpt lat="42.4935120" lon="-7.2475320">
        <ele>449.1</ele>
        <time>2014-10-02T09:35:56Z</time>
      </trkpt>
      <trkpt lat="42.4935290" lon="-7.2475030">
        <ele>449.3</ele>
        <time>2014-10-02T09:35:57Z</time>
      </trkpt>
      <trkpt lat="42.4935500" lon="-7.2474700">
        <ele>449.6</ele>
        <time>2014-10-02T09:35:58Z</time>
      </trkpt>
      <trkpt lat="42.4935720" lon="-7.2474340">
        <ele>449.9</ele>
        <time>2014-10-02T09:35:59Z</time>
      </trkpt>
      <trkpt lat="42.4935950" lon="-7.2473990">
        <ele>450.1</ele>
        <time>2014-10-02T09:36:00Z</time>
      </trkpt>
      <trkpt lat="42.4936170" lon="-7.2473690">
        <ele>450.4</ele>
        <time>2014-10-02T09:36:01Z</time>
      </trkpt>
      <trkpt lat="42.4936380" lon="-7.2473410">
        <ele>450.6</ele>
        <time>2014-10-02T09:36:02Z</time>
      </trkpt>
      <trkpt lat="42.4936600" lon="-7.2473160">
        <ele>450.8</ele>
        <time>2014-10-02T09:36:03Z</time>
      </trkpt>
      <trkpt lat="42.4936820" lon="-7.2472900">
        <ele>451.1</ele>
        <time>2014-10-02T09:36:04Z</time>
      </trkpt>
      <trkpt lat="42.4937060" lon="-7.2472640">
        <ele>451.3</ele>
        <time>2014-10-02T09:36:05Z</time>
      </trkpt>
      <trkpt lat="42.4937310" lon="-7.2472360">
        <ele>451.6</ele>
        <time>2014-10-02T09:36:06Z</time>
      </trkpt>
      <trkpt lat="42.4937540" lon="-7.2472110">
        <ele>451.8</ele>
        <time>2014-10-02T09:36:07Z</time>
      </trkpt>
      <trkpt lat="42.4937780" lon="-7.2471880">
        <ele>452.1</ele>
        <time>2014-10-02T09:36:08Z</time>
      </trkpt>
      <trkpt lat="42.4938030" lon="-7.2471690">
        <ele>452.3</ele>
        <time>2014-10-02T09:36:09Z</time>
      </trkpt>
      <trkpt lat="42.4938550" lon="-7.2471360">
        <ele>452.7</ele>
        <time>2014-10-02T09:36:11Z</time>
      </trkpt>
      <trkpt lat="42.4938870" lon="-7.2471180">
        <ele>453.0</ele>
        <time>2014-10-02T09:36:12Z</time>
      </trkpt>
      <trkpt lat="42.4939200" lon="-7.2471050">
        <ele>453.3</ele>
        <time>2014-10-02T09:36:13Z</time>
      </trkpt>
      <trkpt lat="42.4939540" lon="-7.2470920">
        <ele>453.6</ele>
        <time>2014-10-02T09:36:14Z</time>
      </trkpt>
      <trkpt lat="42.4939900" lon="-7.2470830">
        <ele>453.9</ele>
        <time>2014-10-02T09:36:15Z</time>
      </trkpt>
      <trkpt lat="42.4940230" lon="-7.2470780">
        <ele>454.1</ele>
        <time>2014-10-02T09:36:16Z</time>
      </trkpt>
      <trkpt lat="42.4940570" lon="-7.2470730">
        <ele>454.4</ele>
        <time>2014-10-02T09:36:17Z</time>
      </trkpt>
      <trkpt lat="42.4940910" lon="-7.2470690">
        <ele>454.7</ele>
        <time>2014-10-02T09:36:18Z</time>
      </trkpt>
      <trkpt lat="42.4941220" lon="-7.2470660">
        <ele>455.0</ele>
        <time>2014-10-02T09:36:19Z</time>
      </trkpt>
      <trkpt lat="42.4941530" lon="-7.2470640">
        <ele>455.3</ele>
        <time>2014-10-02T09:36:20Z</time>
      </trkpt>
      <trkpt lat="42.4942040" lon="-7.2470670">
        <ele>455.8</ele>
        <time>2014-10-02T09:36:22Z</time>
      </trkpt>
      <trkpt lat="42.4942620" lon="-7.2470690">
        <ele>456.3</ele>
        <time>2014-10-02T09:36:24Z</time>
      </trkpt>
      <trkpt lat="42.4942900" lon="-7.2470720">
        <ele>456.5</ele>
        <time>2014-10-02T09:36:25Z</time>
      </trkpt>
      <trkpt lat="42.4943180" lon="-7.2470730">
        <ele>456.7</ele>
        <time>2014-10-02T09:36:26Z</time>
      </trkpt>
      <trkpt lat="42.4943490" lon="-7.2470720">
        <ele>456.9</ele>
        <time>2014-10-02T09:36:27Z</time>
      </trkpt>
      <trkpt lat="42.4943810" lon="-7.2470700">
        <ele>457.1</ele>
        <time>2014-10-02T09:36:28Z</time>
      </trkpt>
      <trkpt lat="42.4944160" lon="-7.2470660">
        <ele>457.4</ele>
        <time>2014-10-02T09:36:29Z</time>
      </trkpt>
      <trkpt lat="42.4944460" lon="-7.2470620">
        <ele>457.6</ele>
        <time>2014-10-02T09:36:30Z</time>
      </trkpt>
      <trkpt lat="42.4944800" lon="-7.2470630">
        <ele>457.8</ele>
        <time>2014-10-02T09:36:31Z</time>
      </trkpt>
      <trkpt lat="42.4945280" lon="-7.2470580">
        <ele>458.1</ele>
        <time>2014-10-02T09:36:33Z</time>
      </trkpt>
      <trkpt lat="42.4945580" lon="-7.2470560">
        <ele>458.3</ele>
        <time>2014-10-02T09:36:34Z</time>
      </trkpt>
      <trkpt lat="42.4945930" lon="-7.2470570">
        <ele>458.6</ele>
        <time>2014-10-02T09:36:35Z</time>
      </trkpt>
      <trkpt lat="42.4946270" lon="-7.2470540">
        <ele>458.8</ele>
        <time>2014-10-02T09:36:36Z</time>
      </trkpt>
      <trkpt lat="42.4946630" lon="-7.2470540">
        <ele>459.1</ele>
        <time>2014-10-02T09:36:37Z</time>
      </trkpt>
      <trkpt lat="42.4946990" lon="-7.2470530">
        <ele>459.4</ele>
        <time>2014-10-02T09:36:38Z</time>
      </trkpt>
      <trkpt lat="42.4947350" lon="-7.2470480">
        <ele>459.7</ele>
        <time>2014-10-02T09:36:39Z</time>
      </trkpt>
      <trkpt lat="42.4947680" lon="-7.2470410">
        <ele>460.0</ele>
        <time>2014-10-02T09:36:40Z</time>
      </trkpt>
      <trkpt lat="42.4948030" lon="-7.2470310">
        <ele>460.2</ele>
        <time>2014-10-02T09:36:41Z</time>
      </trkpt>
      <trkpt lat="42.4948310" lon="-7.2470260">
        <ele>460.4</ele>
        <time>2014-10-02T09:36:42Z</time>
      </trkpt>
      <trkpt lat="42.4948600" lon="-7.2470180">
        <ele>460.6</ele>
        <time>2014-10-02T09:36:43Z</time>
      </trkpt>
      <trkpt lat="42.4948920" lon="-7.2470050">
        <ele>460.9</ele>
        <time>2014-10-02T09:36:44Z</time>
      </trkpt>
      <trkpt lat="42.4949240" lon="-7.2469890">
        <ele>461.1</ele>
        <time>2014-10-02T09:36:45Z</time>
      </trkpt>
      <trkpt lat="42.4949580" lon="-7.2469740">
        <ele>461.4</ele>
        <time>2014-10-02T09:36:46Z</time>
      </trkpt>
      <trkpt lat="42.4949920" lon="-7.2469620">
        <ele>461.7</ele>
        <time>2014-10-02T09:36:47Z</time>
      </trkpt>
      <trkpt lat="42.4950240" lon="-7.2469490">
        <ele>461.9</ele>
        <time>2014-10-02T09:36:48Z</time>
      </trkpt>
      <trkpt lat="42.4950530" lon="-7.2469380">
        <ele>462.1</ele>
        <time>2014-10-02T09:36:49Z</time>
      </trkpt>
      <trkpt lat="42.4950820" lon="-7.2469280">
        <ele>462.3</ele>
        <time>2014-10-02T09:36:50Z</time>
      </trkpt>
      <trkpt lat="42.4951140" lon="-7.2469160">
        <ele>462.5</ele>
        <time>2014-10-02T09:36:51Z</time>
      </trkpt>
      <trkpt lat="42.4951480" lon="-7.2469010">
        <ele>462.7</ele>
        <time>2014-10-02T09:36:52Z</time>
      </trkpt>
      <trkpt lat="42.4951820" lon="-7.2468910">
        <ele>462.9</ele>
        <time>2014-10-02T09:36:53Z</time>
      </trkpt>
      <trkpt lat="42.4952240" lon="-7.2468820">
        <ele>463.2</ele>
        <time>2014-10-02T09:36:54Z</time>
      </trkpt>
      <trkpt lat="42.4952600" lon="-7.2468740">
        <ele>463.4</ele>
        <time>2014-10-02T09:36:55Z</time>
      </trkpt>
      <trkpt lat="42.4953030" lon="-7.2468660">
        <ele>463.6</ele>
        <time>2014-10-02T09:36:56Z</time>
      </trkpt>
      <trkpt lat="42.4953460" lon="-7.2468610">
        <ele>463.9</ele>
        <time>2014-10-02T09:36:57Z</time>
      </trkpt>
      <trkpt lat="42.4953840" lon="-7.2468600">
        <ele>464.1</ele>
        <time>2014-10-02T09:36:58Z</time>
      </trkpt>
      <trkpt lat="42.4954150" lon="-7.2468640">
        <ele>464.3</ele>
        <time>2014-10-02T09:36:59Z</time>
      </trkpt>
      <trkpt lat="42.4954440" lon="-7.2468720">
        <ele>464.5</ele>
        <time>2014-10-02T09:37:00Z</time>
      </trkpt>
      <trkpt lat="42.4954820" lon="-7.2468790">
        <ele>464.7</ele>
        <time>2014-10-02T09:37:01Z</time>
      </trkpt>
      <trkpt lat="42.4955220" lon="-7.2468860">
        <ele>465.0</ele>
        <time>2014-10-02T09:37:02Z</time>
      </trkpt>
      <trkpt lat="42.4955560" lon="-7.2468930">
        <ele>465.2</ele>
        <time>2014-10-02T09:37:03Z</time>
      </trkpt>
      <trkpt lat="42.4955890" lon="-7.2469010">
        <ele>465.4</ele>
        <time>2014-10-02T09:37:04Z</time>
      </trkpt>
      <trkpt lat="42.4956220" lon="-7.2469130">
        <ele>465.6</ele>
        <time>2014-10-02T09:37:05Z</time>
      </trkpt>
      <trkpt lat="42.4956500" lon="-7.2469210">
        <ele>465.7</ele>
        <time>2014-10-02T09:37:06Z</time>
      </trkpt>
      <trkpt lat="42.4956830" lon="-7.2469320">
        <ele>465.9</ele>
        <time>2014-10-02T09:37:07Z</time>
      </trkpt>
      <trkpt lat="42.4957180" lon="-7.2469460">
        <ele>466.1</ele>
        <time>2014-10-02T09:37:08Z</time>
      </trkpt>
      <trkpt lat="42.4957560" lon="-7.2469590">
        <ele>466.3</ele>
        <time>2014-10-02T09:37:09Z</time>
      </trkpt>
      <trkpt lat="42.4957940" lon="-7.2469720">
        <ele>466.6</ele>
        <time>2014-10-02T09:37:10Z</time>
      </trkpt>
      <trkpt lat="42.4958250" lon="-7.2469850">
        <ele>466.7</ele>
        <time>2014-10-02T09:37:11Z</time>
      </trkpt>
      <trkpt lat="42.4958580" lon="-7.2470030">
        <ele>466.9</ele>
        <time>2014-10-02T09:37:12Z</time>
      </trkpt>
      <trkpt lat="42.4958960" lon="-7.2470200">
        <ele>467.1</ele>
        <time>2014-10-02T09:37:13Z</time>
      </trkpt>
      <trkpt lat="42.4959290" lon="-7.2470400">
        <ele>467.3</ele>
        <time>2014-10-02T09:37:14Z</time>
      </trkpt>
      <trkpt lat="42.4959630" lon="-7.2470580">
        <ele>467.5</ele>
        <time>2014-10-02T09:37:15Z</time>
      </trkpt>
      <trkpt lat="42.4960040" lon="-7.2470770">
        <ele>467.7</ele>
        <time>2014-10-02T09:37:16Z</time>
      </trkpt>
      <trkpt lat="42.4960440" lon="-7.2470970">
        <ele>467.9</ele>
        <time>2014-10-02T09:37:17Z</time>
      </trkpt>
      <trkpt lat="42.4960820" lon="-7.2471130">
        <ele>468.0</ele>
        <time>2014-10-02T09:37:18Z</time>
      </trkpt>
      <trkpt lat="42.4961200" lon="-7.2471320">
        <ele>468.2</ele>
        <time>2014-10-02T09:37:19Z</time>
      </trkpt>
      <trkpt lat="42.4961590" lon="-7.2471500">
        <ele>468.4</ele>
        <time>2014-10-02T09:37:20Z</time>
      </trkpt>
      <trkpt lat="42.4962010" lon="-7.2471670">
        <ele>468.6</ele>
        <time>2014-10-02T09:37:21Z</time>
      </trkpt>
      <trkpt lat="42.4962390" lon="-7.2471760">
        <ele>468.8</ele>
        <time>2014-10-02T09:37:22Z</time>
      </trkpt>
      <trkpt lat="42.4962770" lon="-7.2471860">
        <ele>469.0</ele>
        <time>2014-10-02T09:37:23Z</time>
      </trkpt>
      <trkpt lat="42.4963170" lon="-7.2471910">
        <ele>469.2</ele>
        <time>2014-10-02T09:37:24Z</time>
      </trkpt>
      <trkpt lat="42.4963520" lon="-7.2471900">
        <ele>469.4</ele>
        <time>2014-10-02T09:37:25Z</time>
      </trkpt>
      <trkpt lat="42.4963950" lon="-7.2471840">
        <ele>469.7</ele>
        <time>2014-10-02T09:37:26Z</time>
      </trkpt>
      <trkpt lat="42.4964320" lon="-7.2471730">
        <ele>469.9</ele>
        <time>2014-10-02T09:37:27Z</time>
      </trkpt>
      <trkpt lat="42.4964690" lon="-7.2471570">
        <ele>470.1</ele>
        <time>2014-10-02T09:37:28Z</time>
      </trkpt>
      <trkpt lat="42.4965080" lon="-7.2471370">
        <ele>470.3</ele>
        <time>2014-10-02T09:37:29Z</time>
      </trkpt>
      <trkpt lat="42.4965470" lon="-7.2471110">
        <ele>470.6</ele>
        <time>2014-10-02T09:37:30Z</time>
      </trkpt>
      <trkpt lat="42.4965800" lon="-7.2470830">
        <ele>470.8</ele>
        <time>2014-10-02T09:37:31Z</time>
      </trkpt>
      <trkpt lat="42.4966090" lon="-7.2470540">
        <ele>471.0</ele>
        <time>2014-10-02T09:37:32Z</time>
      </trkpt>
      <trkpt lat="42.4966370" lon="-7.2470250">
        <ele>471.3</ele>
        <time>2014-10-02T09:37:33Z</time>
      </trkpt>
      <trkpt lat="42.4966630" lon="-7.2469930">
        <ele>471.5</ele>
        <time>2014-10-02T09:37:34Z</time>
      </trkpt>
      <trkpt lat="42.4966880" lon="-7.2469600">
        <ele>471.7</ele>
        <time>2014-10-02T09:37:35Z</time>
      </trkpt>
      <trkpt lat="42.4967100" lon="-7.2469260">
        <ele>471.9</ele>
        <time>2014-10-02T09:37:36Z</time>
      </trkpt>
      <trkpt lat="42.4967310" lon="-7.2468910">
        <ele>472.1</ele>
        <time>2014-10-02T09:37:37Z</time>
      </trkpt>
      <trkpt lat="42.4967500" lon="-7.2468520">
        <ele>472.4</ele>
        <time>2014-10-02T09:37:38Z</time>
      </trkpt>
      <trkpt lat="42.4967690" lon="-7.2468100">
        <ele>472.6</ele>
        <time>2014-10-02T09:37:39Z</time>
      </trkpt>
      <trkpt lat="42.4967830" lon="-7.2467750">
        <ele>472.8</ele>
        <time>2014-10-02T09:37:40Z</time>
      </trkpt>
      <trkpt lat="42.4967970" lon="-7.2467390">
        <ele>473.0</ele>
        <time>2014-10-02T09:37:41Z</time>
      </trkpt>
      <trkpt lat="42.4968110" lon="-7.2467040">
        <ele>473.2</ele>
        <time>2014-10-02T09:37:42Z</time>
      </trkpt>
      <trkpt lat="42.4968260" lon="-7.2466660">
        <ele>473.4</ele>
        <time>2014-10-02T09:37:43Z</time>
      </trkpt>
      <trkpt lat="42.4968420" lon="-7.2466230">
        <ele>473.7</ele>
        <time>2014-10-02T09:37:44Z</time>
      </trkpt>
      <trkpt lat="42.4968580" lon="-7.2465760">
        <ele>473.9</ele>
        <time>2014-10-02T09:37:45Z</time>
      </trkpt>
      <trkpt lat="42.4968770" lon="-7.2465340">
        <ele>474.2</ele>
        <time>2014-10-02T09:37:46Z</time>
      </trkpt>
      <trkpt lat="42.4968960" lon="-7.2464920">
        <ele>474.4</ele>
        <time>2014-10-02T09:37:47Z</time>
      </trkpt>
      <trkpt lat="42.4969130" lon="-7.2464560">
        <ele>474.6</ele>
        <time>2014-10-02T09:37:48Z</time>
      </trkpt>
      <trkpt lat="42.4969350" lon="-7.2464160">
        <ele>474.9</ele>
        <time>2014-10-02T09:37:49Z</time>
      </trkpt>
      <trkpt lat="42.4969560" lon="-7.2463830">
        <ele>475.1</ele>
        <time>2014-10-02T09:37:50Z</time>
      </trkpt>
      <trkpt lat="42.4969770" lon="-7.2463550">
        <ele>475.3</ele>
        <time>2014-10-02T09:37:51Z</time>
      </trkpt>
      <trkpt lat="42.4969990" lon="-7.2463220">
        <ele>475.5</ele>
        <time>2014-10-02T09:37:52Z</time>
      </trkpt>
      <trkpt lat="42.4970220" lon="-7.2462880">
        <ele>475.8</ele>
        <time>2014-10-02T09:37:53Z</time>
      </trkpt>
      <trkpt lat="42.4970430" lon="-7.2462570">
        <ele>476.0</ele>
        <time>2014-10-02T09:37:54Z</time>
      </trkpt>
      <trkpt lat="42.4970670" lon="-7.2462270">
        <ele>476.2</ele>
        <time>2014-10-02T09:37:55Z</time>
      </trkpt>
      <trkpt lat="42.4970900" lon="-7.2461980">
        <ele>476.5</ele>
        <time>2014-10-02T09:37:56Z</time>
      </trkpt>
      <trkpt lat="42.4971170" lon="-7.2461670">
        <ele>476.7</ele>
        <time>2014-10-02T09:37:57Z</time>
      </trkpt>
      <trkpt lat="42.4971420" lon="-7.2461410">
        <ele>476.9</ele>
        <time>2014-10-02T09:37:58Z</time>
      </trkpt>
      <trkpt lat="42.4971660" lon="-7.2461190">
        <ele>477.1</ele>
        <time>2014-10-02T09:37:59Z</time>
      </trkpt>
      <trkpt lat="42.4971950" lon="-7.2460910">
        <ele>477.4</ele>
        <time>2014-10-02T09:38:00Z</time>
      </trkpt>
      <trkpt lat="42.4972240" lon="-7.2460680">
        <ele>477.6</ele>
        <time>2014-10-02T09:38:01Z</time>
      </trkpt>
      <trkpt lat="42.4972530" lon="-7.2460460">
        <ele>477.9</ele>
        <time>2014-10-02T09:38:02Z</time>
      </trkpt>
      <trkpt lat="42.4972780" lon="-7.2460290">
        <ele>478.0</ele>
        <time>2014-10-02T09:38:03Z</time>
      </trkpt>
      <trkpt lat="42.4973060" lon="-7.2460110">
        <ele>478.3</ele>
        <time>2014-10-02T09:38:04Z</time>
      </trkpt>
      <trkpt lat="42.4973320" lon="-7.2459910">
        <ele>478.5</ele>
        <time>2014-10-02T09:38:05Z</time>
      </trkpt>
      <trkpt lat="42.4973580" lon="-7.2459740">
        <ele>478.7</ele>
        <time>2014-10-02T09:38:06Z</time>
      </trkpt>
      <trkpt lat="42.4973850" lon="-7.2459580">
        <ele>478.9</ele>
        <time>2014-10-02T09:38:07Z</time>
      </trkpt>
      <trkpt lat="42.4974140" lon="-7.2459400">
        <ele>479.2</ele>
        <time>2014-10-02T09:38:08Z</time>
      </trkpt>
      <trkpt lat="42.4974410" lon="-7.2459260">
        <ele>479.4</ele>
        <time>2014-10-02T09:38:09Z</time>
      </trkpt>
      <trkpt lat="42.4974710" lon="-7.2459130">
        <ele>479.6</ele>
        <time>2014-10-02T09:38:10Z</time>
      </trkpt>
      <trkpt lat="42.4974980" lon="-7.2458980">
        <ele>479.9</ele>
        <time>2014-10-02T09:38:11Z</time>
      </trkpt>
      <trkpt lat="42.4975270" lon="-7.2458800">
        <ele>480.1</ele>
        <time>2014-10-02T09:38:12Z</time>
      </trkpt>
      <trkpt lat="42.4975560" lon="-7.2458630">
        <ele>480.4</ele>
        <time>2014-10-02T09:38:13Z</time>
      </trkpt>
      <trkpt lat="42.4975860" lon="-7.2458480">
        <ele>480.7</ele>
        <time>2014-10-02T09:38:14Z</time>
      </trkpt>
      <trkpt lat="42.4976150" lon="-7.2458320">
        <ele>480.9</ele>
        <time>2014-10-02T09:38:15Z</time>
      </trkpt>
      <trkpt lat="42.4976430" lon="-7.2458150">
        <ele>481.2</ele>
        <time>2014-10-02T09:38:16Z</time>
      </trkpt>
      <trkpt lat="42.4976760" lon="-7.2458000">
        <ele>481.5</ele>
        <time>2014-10-02T09:38:17Z</time>
      </trkpt>
      <trkpt lat="42.4977080" lon="-7.2457830">
        <ele>481.8</ele>
        <time>2014-10-02T09:38:18Z</time>
      </trkpt>
      <trkpt lat="42.4977450" lon="-7.2457660">
        <ele>482.2</ele>
        <time>2014-10-02T09:38:19Z</time>
      </trkpt>
      <trkpt lat="42.4977760" lon="-7.2457510">
        <ele>482.5</ele>
        <time>2014-10-02T09:38:20Z</time>
      </trkpt>
      <trkpt lat="42.4978060" lon="-7.2457420">
        <ele>482.7</ele>
        <time>2014-10-02T09:38:21Z</time>
      </trkpt>
      <trkpt lat="42.4978340" lon="-7.2457350">
        <ele>483.0</ele>
        <time>2014-10-02T09:38:22Z</time>
      </trkpt>
      <trkpt lat="42.4978640" lon="-7.2457300">
        <ele>483.3</ele>
        <time>2014-10-02T09:38:23Z</time>
      </trkpt>
      <trkpt lat="42.4978950" lon="-7.2457250">
        <ele>483.6</ele>
        <time>2014-10-02T09:38:24Z</time>
      </trkpt>
      <trkpt lat="42.4979280" lon="-7.2457280">
        <ele>483.9</ele>
        <time>2014-10-02T09:38:25Z</time>
      </trkpt>
      <trkpt lat="42.4979570" lon="-7.2457320">
        <ele>484.1</ele>
        <time>2014-10-02T09:38:26Z</time>
      </trkpt>
      <trkpt lat="42.4979880" lon="-7.2457380">
        <ele>484.4</ele>
        <time>2014-10-02T09:38:27Z</time>
      </trkpt>
      <trkpt lat="42.4980140" lon="-7.2457440">
        <ele>484.7</ele>
        <time>2014-10-02T09:38:28Z</time>
      </trkpt>
      <trkpt lat="42.4980450" lon="-7.2457500">
        <ele>484.9</ele>
        <time>2014-10-02T09:38:29Z</time>
      </trkpt>
      <trkpt lat="42.4980760" lon="-7.2457590">
        <ele>485.2</ele>
        <time>2014-10-02T09:38:30Z</time>
      </trkpt>
      <trkpt lat="42.4981030" lon="-7.2457660">
        <ele>485.5</ele>
        <time>2014-10-02T09:38:31Z</time>
      </trkpt>
      <trkpt lat="42.4981560" lon="-7.2457850">
        <ele>485.9</ele>
        <time>2014-10-02T09:38:33Z</time>
      </trkpt>
      <trkpt lat="42.4982060" lon="-7.2458060">
        <ele>486.3</ele>
        <time>2014-10-02T09:38:35Z</time>
      </trkpt>
      <trkpt lat="42.4982340" lon="-7.2458190">
        <ele>486.5</ele>
        <time>2014-10-02T09:38:36Z</time>
      </trkpt>
      <trkpt lat="42.4982600" lon="-7.2458340">
        <ele>486.7</ele>
        <time>2014-10-02T09:38:37Z</time>
      </trkpt>
      <trkpt lat="42.4982860" lon="-7.2458500">
        <ele>486.9</ele>
        <time>2014-10-02T09:38:38Z</time>
      </trkpt>
      <trkpt lat="42.4983140" lon="-7.2458670">
        <ele>487.1</ele>
        <time>2014-10-02T09:38:39Z</time>
      </trkpt>
      <trkpt lat="42.4983420" lon="-7.2458880">
        <ele>487.4</ele>
        <time>2014-10-02T09:38:40Z</time>
      </trkpt>
      <trkpt lat="42.4983680" lon="-7.2459120">
        <ele>487.6</ele>
        <time>2014-10-02T09:38:41Z</time>
      </trkpt>
      <trkpt lat="42.4983940" lon="-7.2459360">
        <ele>487.9</ele>
        <time>2014-10-02T09:38:42Z</time>
      </trkpt>
      <trkpt lat="42.4984190" lon="-7.2459620">
        <ele>488.1</ele>
        <time>2014-10-02T09:38:43Z</time>
      </trkpt>
      <trkpt lat="42.4984430" lon="-7.2459880">
        <ele>488.3</ele>
        <time>2014-10-02T09:38:44Z</time>
      </trkpt>
      <trkpt lat="42.4984680" lon="-7.2460150">
        <ele>488.6</ele>
        <time>2014-10-02T09:38:45Z</time>
      </trkpt>
      <trkpt lat="42.4984930" lon="-7.2460400">
        <ele>488.8</ele>
        <time>2014-10-02T09:38:46Z</time>
      </trkpt>
      <trkpt lat="42.4985160" lon="-7.2460680">
        <ele>489.1</ele>
        <time>2014-10-02T09:38:47Z</time>
      </trkpt>
      <trkpt lat="42.4985410" lon="-7.2460980">
        <ele>489.3</ele>
        <time>2014-10-02T09:38:48Z</time>
      </trkpt>
      <trkpt lat="42.4985630" lon="-7.2461260">
        <ele>489.5</ele>
        <time>2014-10-02T09:38:49Z</time>
      </trkpt>
      <trkpt lat="42.4985900" lon="-7.2461560">
        <ele>489.7</ele>
        <time>2014-10-02T09:38:50Z</time>
      </trkpt>
      <trkpt lat="42.4986210" lon="-7.2461880">
        <ele>490.0</ele>
        <time>2014-10-02T09:38:51Z</time>
      </trkpt>
      <trkpt lat="42.4986550" lon="-7.2462170">
        <ele>490.3</ele>
        <time>2014-10-02T09:38:52Z</time>
      </trkpt>
      <trkpt lat="42.4986870" lon="-7.2462430">
        <ele>490.5</ele>
        <time>2014-10-02T09:38:53Z</time>
      </trkpt>
      <trkpt lat="42.4987190" lon="-7.2462660">
        <ele>490.7</ele>
        <time>2014-10-02T09:38:54Z</time>
      </trkpt>
      <trkpt lat="42.4987510" lon="-7.2462900">
        <ele>491.0</ele>
        <time>2014-10-02T09:38:55Z</time>
      </trkpt>
      <trkpt lat="42.4987820" lon="-7.2463030">
        <ele>491.2</ele>
        <time>2014-10-02T09:38:56Z</time>
      </trkpt>
      <trkpt lat="42.4988120" lon="-7.2463120">
        <ele>491.4</ele>
        <time>2014-10-02T09:38:57Z</time>
      </trkpt>
      <trkpt lat="42.4988430" lon="-7.2463200">
        <ele>491.6</ele>
        <time>2014-10-02T09:38:58Z</time>
      </trkpt>
      <trkpt lat="42.4988770" lon="-7.2463260">
        <ele>491.9</ele>
        <time>2014-10-02T09:38:59Z</time>
      </trkpt>
      <trkpt lat="42.4989130" lon="-7.2463330">
        <ele>492.1</ele>
        <time>2014-10-02T09:39:00Z</time>
      </trkpt>
      <trkpt lat="42.4989530" lon="-7.2463350">
        <ele>492.4</ele>
        <time>2014-10-02T09:39:01Z</time>
      </trkpt>
      <trkpt lat="42.4989850" lon="-7.2463350">
        <ele>492.6</ele>
        <time>2014-10-02T09:39:02Z</time>
      </trkpt>
      <trkpt lat="42.4990220" lon="-7.2463320">
        <ele>492.8</ele>
        <time>2014-10-02T09:39:03Z</time>
      </trkpt>
      <trkpt lat="42.4990580" lon="-7.2463250">
        <ele>493.0</ele>
        <time>2014-10-02T09:39:04Z</time>
      </trkpt>
      <trkpt lat="42.4990950" lon="-7.2463140">
        <ele>493.2</ele>
        <time>2014-10-02T09:39:05Z</time>
      </trkpt>
      <trkpt lat="42.4991280" lon="-7.2463000">
        <ele>493.4</ele>
        <time>2014-10-02T09:39:06Z</time>
      </trkpt>
      <trkpt lat="42.4991560" lon="-7.2462830">
        <ele>493.6</ele>
        <time>2014-10-02T09:39:07Z</time>
      </trkpt>
      <trkpt lat="42.4991860" lon="-7.2462640">
        <ele>493.8</ele>
        <time>2014-10-02T09:39:08Z</time>
      </trkpt>
      <trkpt lat="42.4992160" lon="-7.2462400">
        <ele>494.0</ele>
        <time>2014-10-02T09:39:09Z</time>
      </trkpt>
      <trkpt lat="42.4992490" lon="-7.2462130">
        <ele>494.2</ele>
        <time>2014-10-02T09:39:10Z</time>
      </trkpt>
      <trkpt lat="42.4992810" lon="-7.2461840">
        <ele>494.5</ele>
        <time>2014-10-02T09:39:11Z</time>
      </trkpt>
      <trkpt lat="42.4993070" lon="-7.2461550">
        <ele>494.7</ele>
        <time>2014-10-02T09:39:12Z</time>
      </trkpt>
      <trkpt lat="42.4993320" lon="-7.2461220">
        <ele>494.9</ele>
        <time>2014-10-02T09:39:13Z</time>
      </trkpt>
      <trkpt lat="42.4993530" lon="-7.2460940">
        <ele>495.1</ele>
        <time>2014-10-02T09:39:14Z</time>
      </trkpt>
      <trkpt lat="42.4993760" lon="-7.2460540">
        <ele>495.3</ele>
        <time>2014-10-02T09:39:15Z</time>
      </trkpt>
      <trkpt lat="42.4993970" lon="-7.2460140">
        <ele>495.5</ele>
        <time>2014-10-02T09:39:16Z</time>
      </trkpt>
      <trkpt lat="42.4994180" lon="-7.2459760">
        <ele>495.7</ele>
        <time>2014-10-02T09:39:17Z</time>
      </trkpt>
      <trkpt lat="42.4994380" lon="-7.2459350">
        <ele>496.0</ele>
        <time>2014-10-02T09:39:18Z</time>
      </trkpt>
      <trkpt lat="42.4994560" lon="-7.2458940">
        <ele>496.2</ele>
        <time>2014-10-02T09:39:19Z</time>
      </trkpt>
      <trkpt lat="42.4994740" lon="-7.2458600">
        <ele>496.4</ele>
        <time>2014-10-02T09:39:20Z</time>
      </trkpt>
      <trkpt lat="42.4994910" lon="-7.2458180">
        <ele>496.6</ele>
        <time>2014-10-02T09:39:21Z</time>
      </trkpt>
      <trkpt lat="42.4995050" lon="-7.2457780">
        <ele>496.8</ele>
        <time>2014-10-02T09:39:22Z</time>
      </trkpt>
      <trkpt lat="42.4995210" lon="-7.2457310">
        <ele>497.0</ele>
        <time>2014-10-02T09:39:23Z</time>
      </trkpt>
      <trkpt lat="42.4995360" lon="-7.2456900">
        <ele>497.2</ele>
        <time>2014-10-02T09:39:24Z</time>
      </trkpt>
      <trkpt lat="42.4995500" lon="-7.2456440">
        <ele>497.4</ele>
        <time>2014-10-02T09:39:25Z</time>
      </trkpt>
      <trkpt lat="42.4995600" lon="-7.2456010">
        <ele>497.6</ele>
        <time>2014-10-02T09:39:26Z</time>
      </trkpt>
      <trkpt lat="42.4995710" lon="-7.2455600">
        <ele>497.8</ele>
        <time>2014-10-02T09:39:27Z</time>
      </trkpt>
      <trkpt lat="42.4995810" lon="-7.2455190">
        <ele>498.0</ele>
        <time>2014-10-02T09:39:28Z</time>
      </trkpt>
      <trkpt lat="42.4995940" lon="-7.2454760">
        <ele>498.3</ele>
        <time>2014-10-02T09:39:29Z</time>
      </trkpt>
      <trkpt lat="42.4996060" lon="-7.2454310">
        <ele>498.5</ele>
        <time>2014-10-02T09:39:30Z</time>
      </trkpt>
      <trkpt lat="42.4996190" lon="-7.2453860">
        <ele>498.7</ele>
        <time>2014-10-02T09:39:31Z</time>
      </trkpt>
      <trkpt lat="42.4996310" lon="-7.2453420">
        <ele>498.9</ele>
        <time>2014-10-02T09:39:32Z</time>
      </trkpt>
      <trkpt lat="42.4996460" lon="-7.2452960">
        <ele>499.2</ele>
        <time>2014-10-02T09:39:33Z</time>
      </trkpt>
      <trkpt lat="42.4996600" lon="-7.2452520">
        <ele>499.4</ele>
        <time>2014-10-02T09:39:34Z</time>
      </trkpt>
      <trkpt lat="42.4996750" lon="-7.2452050">
        <ele>499.7</ele>
        <time>2014-10-02T09:39:35Z</time>
      </trkpt>
      <trkpt lat="42.4996890" lon="-7.2451590">
        <ele>499.9</ele>
        <time>2014-10-02T09:39:36Z</time>
      </trkpt>
      <trkpt lat="42.4997020" lon="-7.2451150">
        <ele>500.1</ele>
        <time>2014-10-02T09:39:37Z</time>
      </trkpt>
      <trkpt lat="42.4997140" lon="-7.2450730">
        <ele>500.4</ele>
        <time>2014-10-02T09:39:38Z</time>
      </trkpt>
      <trkpt lat="42.4997260" lon="-7.2450310">
        <ele>500.7</ele>
        <time>2014-10-02T09:39:39Z</time>
      </trkpt>
      <trkpt lat="42.4997350" lon="-7.2449920">
        <ele>500.9</ele>
        <time>2014-10-02T09:39:40Z</time>
      </trkpt>
      <trkpt lat="42.4997450" lon="-7.2449550">
        <ele>501.1</ele>
        <time>2014-10-02T09:39:41Z</time>
      </trkpt>
      <trkpt lat="42.4997540" lon="-7.2449180">
        <ele>501.3</ele>
        <time>2014-10-02T09:39:42Z</time>
      </trkpt>
      <trkpt lat="42.4997760" lon="-7.2448510">
        <ele>501.8</ele>
        <time>2014-10-02T09:39:44Z</time>
      </trkpt>
      <trkpt lat="42.4997910" lon="-7.2448120">
        <ele>502.1</ele>
        <time>2014-10-02T09:39:45Z</time>
      </trkpt>
      <trkpt lat="42.4998060" lon="-7.2447660">
        <ele>502.4</ele>
        <time>2014-10-02T09:39:46Z</time>
      </trkpt>
      <trkpt lat="42.4998190" lon="-7.2447240">
        <ele>502.7</ele>
        <time>2014-10-02T09:39:47Z</time>
      </trkpt>
      <trkpt lat="42.4998340" lon="-7.2446760">
        <ele>503.0</ele>
        <time>2014-10-02T09:39:48Z</time>
      </trkpt>
      <trkpt lat="42.4998470" lon="-7.2446350">
        <ele>503.2</ele>
        <time>2014-10-02T09:39:49Z</time>
      </trkpt>
      <trkpt lat="42.4998580" lon="-7.2446000">
        <ele>503.5</ele>
        <time>2014-10-02T09:39:50Z</time>
      </trkpt>
      <trkpt lat="42.4998690" lon="-7.2445630">
        <ele>503.7</ele>
        <time>2014-10-02T09:39:51Z</time>
      </trkpt>
      <trkpt lat="42.4998820" lon="-7.2445230">
        <ele>504.0</ele>
        <time>2014-10-02T09:39:52Z</time>
      </trkpt>
      <trkpt lat="42.4998950" lon="-7.2444840">
        <ele>504.2</ele>
        <time>2014-10-02T09:39:53Z</time>
      </trkpt>
      <trkpt lat="42.4999150" lon="-7.2444230">
        <ele>504.5</ele>
        <time>2014-10-02T09:39:55Z</time>
      </trkpt>
      <trkpt lat="42.4999290" lon="-7.2443850">
        <ele>504.8</ele>
        <time>2014-10-02T09:39:56Z</time>
      </trkpt>
      <trkpt lat="42.4999450" lon="-7.2443450">
        <ele>505.0</ele>
        <time>2014-10-02T09:39:57Z</time>
      </trkpt>
      <trkpt lat="42.4999640" lon="-7.2443090">
        <ele>505.2</ele>
        <time>2014-10-02T09:39:58Z</time>
      </trkpt>
      <trkpt lat="42.4999800" lon="-7.2442800">
        <ele>505.4</ele>
        <time>2014-10-02T09:39:59Z</time>
      </trkpt>
      <trkpt lat="42.4999980" lon="-7.2442490">
        <ele>505.7</ele>
        <time>2014-10-02T09:40:00Z</time>
      </trkpt>
      <trkpt lat="42.5000160" lon="-7.2442100">
        <ele>505.9</ele>
        <time>2014-10-02T09:40:01Z</time>
      </trkpt>
      <trkpt lat="42.5000370" lon="-7.2441730">
        <ele>506.2</ele>
        <time>2014-10-02T09:40:02Z</time>
      </trkpt>
      <trkpt lat="42.5000590" lon="-7.2441370">
        <ele>506.4</ele>
        <time>2014-10-02T09:40:03Z</time>
      </trkpt>
      <trkpt lat="42.5000840" lon="-7.2441010">
        <ele>506.7</ele>
        <time>2014-10-02T09:40:04Z</time>
      </trkpt>
      <trkpt lat="42.5001110" lon="-7.2440670">
        <ele>507.0</ele>
        <time>2014-10-02T09:40:05Z</time>
      </trkpt>
      <trkpt lat="42.5001370" lon="-7.2440360">
        <ele>507.3</ele>
        <time>2014-10-02T09:40:06Z</time>
      </trkpt>
      <trkpt lat="42.5001610" lon="-7.2440120">
        <ele>507.5</ele>
        <time>2014-10-02T09:40:07Z</time>
      </trkpt>
      <trkpt lat="42.5001870" lon="-7.2439930">
        <ele>507.7</ele>
        <time>2014-10-02T09:40:08Z</time>
      </trkpt>
      <trkpt lat="42.5002140" lon="-7.2439760">
        <ele>508.0</ele>
        <time>2014-10-02T09:40:09Z</time>
      </trkpt>
      <trkpt lat="42.5002430" lon="-7.2439620">
        <ele>508.2</ele>
        <time>2014-10-02T09:40:10Z</time>
      </trkpt>
      <trkpt lat="42.5002710" lon="-7.2439530">
        <ele>508.4</ele>
        <time>2014-10-02T09:40:11Z</time>
      </trkpt>
      <trkpt lat="42.5003020" lon="-7.2439460">
        <ele>508.7</ele>
        <time>2014-10-02T09:40:12Z</time>
      </trkpt>
      <trkpt lat="42.5003360" lon="-7.2439390">
        <ele>509.0</ele>
        <time>2014-10-02T09:40:13Z</time>
      </trkpt>
      <trkpt lat="42.5003680" lon="-7.2439360">
        <ele>509.2</ele>
        <time>2014-10-02T09:40:14Z</time>
      </trkpt>
      <trkpt lat="42.5004020" lon="-7.2439390">
        <ele>509.5</ele>
        <time>2014-10-02T09:40:15Z</time>
      </trkpt>
      <trkpt lat="42.5004340" lon="-7.2439450">
        <ele>509.7</ele>
        <time>2014-10-02T09:40:16Z</time>
      </trkpt>
      <trkpt lat="42.5004670" lon="-7.2439500">
        <ele>510.0</ele>
        <time>2014-10-02T09:40:17Z</time>
      </trkpt>
      <trkpt lat="42.5004980" lon="-7.2439550">
        <ele>510.2</ele>
        <time>2014-10-02T09:40:18Z</time>
      </trkpt>
      <trkpt lat="42.5005280" lon="-7.2439660">
        <ele>510.4</ele>
        <time>2014-10-02T09:40:19Z</time>
      </trkpt>
      <trkpt lat="42.5005590" lon="-7.2439820">
        <ele>510.6</ele>
        <time>2014-10-02T09:40:20Z</time>
      </trkpt>
      <trkpt lat="42.5005870" lon="-7.2440000">
        <ele>510.8</ele>
        <time>2014-10-02T09:40:21Z</time>
      </trkpt>
      <trkpt lat="42.5006340" lon="-7.2440280">
        <ele>511.2</ele>
        <time>2014-10-02T09:40:23Z</time>
      </trkpt>
      <trkpt lat="42.5006720" lon="-7.2440580">
        <ele>511.5</ele>
        <time>2014-10-02T09:40:25Z</time>
      </trkpt>
      <trkpt lat="42.5006980" lon="-7.2440790">
        <ele>511.7</ele>
        <time>2014-10-02T09:40:26Z</time>
      </trkpt>
      <trkpt lat="42.5007240" lon="-7.2441020">
        <ele>511.9</ele>
        <time>2014-10-02T09:40:27Z</time>
      </trkpt>
      <trkpt lat="42.5007500" lon="-7.2441290">
        <ele>512.2</ele>
        <time>2014-10-02T09:40:28Z</time>
      </trkpt>
      <trkpt lat="42.5007770" lon="-7.2441530">
        <ele>512.4</ele>
        <time>2014-10-02T09:40:29Z</time>
      </trkpt>
      <trkpt lat="42.5008060" lon="-7.2441790">
        <ele>512.7</ele>
        <time>2014-10-02T09:40:30Z</time>
      </trkpt>
      <trkpt lat="42.5008330" lon="-7.2442050">
        <ele>512.9</ele>
        <time>2014-10-02T09:40:31Z</time>
      </trkpt>
      <trkpt lat="42.5008570" lon="-7.2442300">
        <ele>513.1</ele>
        <time>2014-10-02T09:40:32Z</time>
      </trkpt>
      <trkpt lat="42.5008820" lon="-7.2442560">
        <ele>513.4</ele>
        <time>2014-10-02T09:40:33Z</time>
      </trkpt>
      <trkpt lat="42.5009080" lon="-7.2442850">
        <ele>513.6</ele>
        <time>2014-10-02T09:40:34Z</time>
      </trkpt>
      <trkpt lat="42.5009330" lon="-7.2443130">
        <ele>513.9</ele>
        <time>2014-10-02T09:40:35Z</time>
      </trkpt>
      <trkpt lat="42.5009710" lon="-7.2443580">
        <ele>514.3</ele>
        <time>2014-10-02T09:40:37Z</time>
      </trkpt>
      <trkpt lat="42.5009970" lon="-7.2443850">
        <ele>514.5</ele>
        <time>2014-10-02T09:40:38Z</time>
      </trkpt>
      <trkpt lat="42.5010220" lon="-7.2444080">
        <ele>514.7</ele>
        <time>2014-10-02T09:40:39Z</time>
      </trkpt>
      <trkpt lat="42.5010480" lon="-7.2444360">
        <ele>514.9</ele>
        <time>2014-10-02T09:40:40Z</time>
      </trkpt>
      <trkpt lat="42.5010720" lon="-7.2444620">
        <ele>515.1</ele>
        <time>2014-10-02T09:40:41Z</time>
      </trkpt>
      <trkpt lat="42.5010950" lon="-7.2444910">
        <ele>515.3</ele>
        <time>2014-10-02T09:40:42Z</time>
      </trkpt>
      <trkpt lat="42.5011210" lon="-7.2445200">
        <ele>515.6</ele>
        <time>2014-10-02T09:40:43Z</time>
      </trkpt>
      <trkpt lat="42.5011450" lon="-7.2445470">
        <ele>515.9</ele>
        <time>2014-10-02T09:40:44Z</time>
      </trkpt>
      <trkpt lat="42.5011700" lon="-7.2445750">
        <ele>516.2</ele>
        <time>2014-10-02T09:40:45Z</time>
      </trkpt>
      <trkpt lat="42.5011950" lon="-7.2446040">
        <ele>516.5</ele>
        <time>2014-10-02T09:40:46Z</time>
      </trkpt>
      <trkpt lat="42.5012210" lon="-7.2446310">
        <ele>516.8</ele>
        <time>2014-10-02T09:40:47Z</time>
      </trkpt>
      <trkpt lat="42.5012440" lon="-7.2446560">
        <ele>517.0</ele>
        <time>2014-10-02T09:40:48Z</time>
      </trkpt>
      <trkpt lat="42.5012660" lon="-7.2446820">
        <ele>517.3</ele>
        <time>2014-10-02T09:40:49Z</time>
      </trkpt>
      <trkpt lat="42.5012920" lon="-7.2447130">
        <ele>517.6</ele>
        <time>2014-10-02T09:40:50Z</time>
      </trkpt>
      <trkpt lat="42.5013140" lon="-7.2447400">
        <ele>517.8</ele>
        <time>2014-10-02T09:40:51Z</time>
      </trkpt>
      <trkpt lat="42.5013390" lon="-7.2447670">
        <ele>518.1</ele>
        <time>2014-10-02T09:40:52Z</time>
      </trkpt>
      <trkpt lat="42.5013620" lon="-7.2447930">
        <ele>518.3</ele>
        <time>2014-10-02T09:40:53Z</time>
      </trkpt>
      <trkpt lat="42.5013860" lon="-7.2448190">
        <ele>518.6</ele>
        <time>2014-10-02T09:40:54Z</time>
      </trkpt>
      <trkpt lat="42.5014100" lon="-7.2448430">
        <ele>518.8</ele>
        <time>2014-10-02T09:40:55Z</time>
      </trkpt>
      <trkpt lat="42.5014360" lon="-7.2448690">
        <ele>519.1</ele>
        <time>2014-10-02T09:40:56Z</time>
      </trkpt>
      <trkpt lat="42.5014610" lon="-7.2448930">
        <ele>519.3</ele>
        <time>2014-10-02T09:40:57Z</time>
      </trkpt>
      <trkpt lat="42.5014870" lon="-7.2449160">
        <ele>519.6</ele>
        <time>2014-10-02T09:40:58Z</time>
      </trkpt>
      <trkpt lat="42.5015130" lon="-7.2449360">
        <ele>519.9</ele>
        <time>2014-10-02T09:40:59Z</time>
      </trkpt>
      <trkpt lat="42.5015440" lon="-7.2449580">
        <ele>520.1</ele>
        <time>2014-10-02T09:41:00Z</time>
      </trkpt>
      <trkpt lat="42.5015760" lon="-7.2449780">
        <ele>520.4</ele>
        <time>2014-10-02T09:41:01Z</time>
      </trkpt>
      <trkpt lat="42.5016050" lon="-7.2449970">
        <ele>520.7</ele>
        <time>2014-10-02T09:41:02Z</time>
      </trkpt>
      <trkpt lat="42.5016350" lon="-7.2450130">
        <ele>521.0</ele>
        <time>2014-10-02T09:41:03Z</time>
      </trkpt>
      <trkpt lat="42.5016850" lon="-7.2450190">
        <ele>521.5</ele>
        <time>2014-10-02T09:41:05Z</time>
      </trkpt>
      <trkpt lat="42.5017410" lon="-7.2450090">
        <ele>522.0</ele>
        <time>2014-10-02T09:41:07Z</time>
      </trkpt>
      <trkpt lat="42.5017730" lon="-7.2450010">
        <ele>522.4</ele>
        <time>2014-10-02T09:41:08Z</time>
      </trkpt>
      <trkpt lat="42.5018010" lon="-7.2449950">
        <ele>522.6</ele>
        <time>2014-10-02T09:41:09Z</time>
      </trkpt>
      <trkpt lat="42.5018330" lon="-7.2449860">
        <ele>523.0</ele>
        <time>2014-10-02T09:41:10Z</time>
      </trkpt>
      <trkpt lat="42.5018650" lon="-7.2449760">
        <ele>523.3</ele>
        <time>2014-10-02T09:41:11Z</time>
      </trkpt>
      <trkpt lat="42.5018920" lon="-7.2449670">
        <ele>523.6</ele>
        <time>2014-10-02T09:41:12Z</time>
      </trkpt>
      <trkpt lat="42.5019410" lon="-7.2449350">
        <ele>524.2</ele>
        <time>2014-10-02T09:41:14Z</time>
      </trkpt>
      <trkpt lat="42.5019890" lon="-7.2448950">
        <ele>524.8</ele>
        <time>2014-10-02T09:41:16Z</time>
      </trkpt>
      <trkpt lat="42.5020300" lon="-7.2448520">
        <ele>525.3</ele>
        <time>2014-10-02T09:41:18Z</time>
      </trkpt>
      <trkpt lat="42.5020680" lon="-7.2448050">
        <ele>525.9</ele>
        <time>2014-10-02T09:41:20Z</time>
      </trkpt>
      <trkpt lat="42.5020830" lon="-7.2447750">
        <ele>526.2</ele>
        <time>2014-10-02T09:41:21Z</time>
      </trkpt>
      <trkpt lat="42.5020990" lon="-7.2447440">
        <ele>526.5</ele>
        <time>2014-10-02T09:41:22Z</time>
      </trkpt>
      <trkpt lat="42.5021310" lon="-7.2446840">
        <ele>527.1</ele>
        <time>2014-10-02T09:41:24Z</time>
      </trkpt>
      <trkpt lat="42.5021620" lon="-7.2446250">
        <ele>527.7</ele>
        <time>2014-10-02T09:41:26Z</time>
      </trkpt>
      <trkpt lat="42.5021880" lon="-7.2445730">
        <ele>528.2</ele>
        <time>2014-10-02T09:41:28Z</time>
      </trkpt>
      <trkpt lat="42.5022110" lon="-7.2445180">
        <ele>528.7</ele>
        <time>2014-10-02T09:41:30Z</time>
      </trkpt>
      <trkpt lat="42.5022400" lon="-7.2444510">
        <ele>529.3</ele>
        <time>2014-10-02T09:41:32Z</time>
      </trkpt>
      <trkpt lat="42.5022550" lon="-7.2444170">
        <ele>529.6</ele>
        <time>2014-10-02T09:41:33Z</time>
      </trkpt>
      <trkpt lat="42.5022750" lon="-7.2443570">
        <ele>530.1</ele>
        <time>2014-10-02T09:41:35Z</time>
      </trkpt>
      <trkpt lat="42.5022970" lon="-7.2443000">
        <ele>530.5</ele>
        <time>2014-10-02T09:41:37Z</time>
      </trkpt>
      <trkpt lat="42.5023250" lon="-7.2442400">
        <ele>531.0</ele>
        <time>2014-10-02T09:41:39Z</time>
      </trkpt>
      <trkpt lat="42.5023370" lon="-7.2442060">
        <ele>531.3</ele>
        <time>2014-10-02T09:41:40Z</time>
      </trkpt>
      <trkpt lat="42.5023510" lon="-7.2441710">
        <ele>531.6</ele>
        <time>2014-10-02T09:41:41Z</time>
      </trkpt>
      <trkpt lat="42.5023670" lon="-7.2441320">
        <ele>531.9</ele>
        <time>2014-10-02T09:41:42Z</time>
      </trkpt>
      <trkpt lat="42.5023820" lon="-7.2440930">
        <ele>532.2</ele>
        <time>2014-10-02T09:41:43Z</time>
      </trkpt>
      <trkpt lat="42.5023980" lon="-7.2440600">
        <ele>532.5</ele>
        <time>2014-10-02T09:41:44Z</time>
      </trkpt>
      <trkpt lat="42.5024130" lon="-7.2440260">
        <ele>532.7</ele>
        <time>2014-10-02T09:41:45Z</time>
      </trkpt>
      <trkpt lat="42.5024290" lon="-7.2439910">
        <ele>533.0</ele>
        <time>2014-10-02T09:41:46Z</time>
      </trkpt>
      <trkpt lat="42.5024450" lon="-7.2439600">
        <ele>533.3</ele>
        <time>2014-10-02T09:41:47Z</time>
      </trkpt>
      <trkpt lat="42.5024610" lon="-7.2439250">
        <ele>533.6</ele>
        <time>2014-10-02T09:41:48Z</time>
      </trkpt>
      <trkpt lat="42.5024780" lon="-7.2438850">
        <ele>533.9</ele>
        <time>2014-10-02T09:41:49Z</time>
      </trkpt>
      <trkpt lat="42.5024930" lon="-7.2438500">
        <ele>534.2</ele>
        <time>2014-10-02T09:41:50Z</time>
      </trkpt>
      <trkpt lat="42.5025100" lon="-7.2438150">
        <ele>534.5</ele>
        <time>2014-10-02T09:41:51Z</time>
      </trkpt>
      <trkpt lat="42.5025380" lon="-7.2437490">
        <ele>535.0</ele>
        <time>2014-10-02T09:41:53Z</time>
      </trkpt>
      <trkpt lat="42.5025520" lon="-7.2437150">
        <ele>535.3</ele>
        <time>2014-10-02T09:41:54Z</time>
      </trkpt>
      <trkpt lat="42.5025660" lon="-7.2436800">
        <ele>535.6</ele>
        <time>2014-10-02T09:41:55Z</time>
      </trkpt>
      <trkpt lat="42.5025840" lon="-7.2436490">
        <ele>535.8</ele>
        <time>2014-10-02T09:41:56Z</time>
      </trkpt>
      <trkpt lat="42.5026030" lon="-7.2436170">
        <ele>536.0</ele>
        <time>2014-10-02T09:41:57Z</time>
      </trkpt>
      <trkpt lat="42.5026200" lon="-7.2435860">
        <ele>536.3</ele>
        <time>2014-10-02T09:41:58Z</time>
      </trkpt>
      <trkpt lat="42.5026390" lon="-7.2435520">
        <ele>536.5</ele>
        <time>2014-10-02T09:41:59Z</time>
      </trkpt>
      <trkpt lat="42.5026580" lon="-7.2435160">
        <ele>536.7</ele>
        <time>2014-10-02T09:42:00Z</time>
      </trkpt>
      <trkpt lat="42.5026750" lon="-7.2434830">
        <ele>537.0</ele>
        <time>2014-10-02T09:42:01Z</time>
      </trkpt>
      <trkpt lat="42.5026940" lon="-7.2434530">
        <ele>537.2</ele>
        <time>2014-10-02T09:42:02Z</time>
      </trkpt>
      <trkpt lat="42.5027140" lon="-7.2434230">
        <ele>537.4</ele>
        <time>2014-10-02T09:42:03Z</time>
      </trkpt>
      <trkpt lat="42.5027320" lon="-7.2433910">
        <ele>537.6</ele>
        <time>2014-10-02T09:42:04Z</time>
      </trkpt>
      <trkpt lat="42.5027530" lon="-7.2433590">
        <ele>537.9</ele>
        <time>2014-10-02T09:42:05Z</time>
      </trkpt>
      <trkpt lat="42.5027720" lon="-7.2433300">
        <ele>538.1</ele>
        <time>2014-10-02T09:42:06Z</time>
      </trkpt>
      <trkpt lat="42.5027960" lon="-7.2433010">
        <ele>538.3</ele>
        <time>2014-10-02T09:42:07Z</time>
      </trkpt>
      <trkpt lat="42.5028210" lon="-7.2432760">
        <ele>538.6</ele>
        <time>2014-10-02T09:42:08Z</time>
      </trkpt>
      <trkpt lat="42.5028510" lon="-7.2432510">
        <ele>538.8</ele>
        <time>2014-10-02T09:42:09Z</time>
      </trkpt>
      <trkpt lat="42.5028980" lon="-7.2432160">
        <ele>539.3</ele>
        <time>2014-10-02T09:42:11Z</time>
      </trkpt>
      <trkpt lat="42.5029280" lon="-7.2431970">
        <ele>539.5</ele>
        <time>2014-10-02T09:42:12Z</time>
      </trkpt>
      <trkpt lat="42.5029580" lon="-7.2431800">
        <ele>539.8</ele>
        <time>2014-10-02T09:42:13Z</time>
      </trkpt>
      <trkpt lat="42.5029860" lon="-7.2431640">
        <ele>540.0</ele>
        <time>2014-10-02T09:42:14Z</time>
      </trkpt>
      <trkpt lat="42.5030140" lon="-7.2431450">
        <ele>540.2</ele>
        <time>2014-10-02T09:42:15Z</time>
      </trkpt>
      <trkpt lat="42.5030430" lon="-7.2431280">
        <ele>540.5</ele>
        <time>2014-10-02T09:42:16Z</time>
      </trkpt>
      <trkpt lat="42.5030720" lon="-7.2431120">
        <ele>540.7</ele>
        <time>2014-10-02T09:42:17Z</time>
      </trkpt>
      <trkpt lat="42.5031000" lon="-7.2430960">
        <ele>540.9</ele>
        <time>2014-10-02T09:42:18Z</time>
      </trkpt>
      <trkpt lat="42.5031300" lon="-7.2430810">
        <ele>541.2</ele>
        <time>2014-10-02T09:42:19Z</time>
      </trkpt>
      <trkpt lat="42.5031570" lon="-7.2430660">
        <ele>541.4</ele>
        <time>2014-10-02T09:42:20Z</time>
      </trkpt>
      <trkpt lat="42.5031840" lon="-7.2430520">
        <ele>541.6</ele>
        <time>2014-10-02T09:42:21Z</time>
      </trkpt>
      <trkpt lat="42.5032140" lon="-7.2430380">
        <ele>541.9</ele>
        <time>2014-10-02T09:42:22Z</time>
      </trkpt>
      <trkpt lat="42.5032410" lon="-7.2430240">
        <ele>542.1</ele>
        <time>2014-10-02T09:42:23Z</time>
      </trkpt>
      <trkpt lat="42.5032700" lon="-7.2430100">
        <ele>542.3</ele>
        <time>2014-10-02T09:42:24Z</time>
      </trkpt>
      <trkpt lat="42.5033000" lon="-7.2429930">
        <ele>542.6</ele>
        <time>2014-10-02T09:42:25Z</time>
      </trkpt>
      <trkpt lat="42.5033340" lon="-7.2429730">
        <ele>542.9</ele>
        <time>2014-10-02T09:42:26Z</time>
      </trkpt>
      <trkpt lat="42.5033680" lon="-7.2429540">
        <ele>543.2</ele>
        <time>2014-10-02T09:42:27Z</time>
      </trkpt>
      <trkpt lat="42.5033980" lon="-7.2429310">
        <ele>543.5</ele>
        <time>2014-10-02T09:42:28Z</time>
      </trkpt>
      <trkpt lat="42.5034250" lon="-7.2429090">
        <ele>543.7</ele>
        <time>2014-10-02T09:42:29Z</time>
      </trkpt>
      <trkpt lat="42.5034520" lon="-7.2428870">
        <ele>544.0</ele>
        <time>2014-10-02T09:42:30Z</time>
      </trkpt>
      <trkpt lat="42.5034760" lon="-7.2428650">
        <ele>544.3</ele>
        <time>2014-10-02T09:42:31Z</time>
      </trkpt>
      <trkpt lat="42.5034990" lon="-7.2428420">
        <ele>544.6</ele>
        <time>2014-10-02T09:42:32Z</time>
      </trkpt>
      <trkpt lat="42.5035210" lon="-7.2428160">
        <ele>544.9</ele>
        <time>2014-10-02T09:42:33Z</time>
      </trkpt>
      <trkpt lat="42.5035420" lon="-7.2427880">
        <ele>545.2</ele>
        <time>2014-10-02T09:42:34Z</time>
      </trkpt>
      <trkpt lat="42.5035630" lon="-7.2427600">
        <ele>545.5</ele>
        <time>2014-10-02T09:42:35Z</time>
      </trkpt>
      <trkpt lat="42.5035840" lon="-7.2427320">
        <ele>545.8</ele>
        <time>2014-10-02T09:42:36Z</time>
      </trkpt>
      <trkpt lat="42.5036050" lon="-7.2427020">
        <ele>546.1</ele>
        <time>2014-10-02T09:42:37Z</time>
      </trkpt>
      <trkpt lat="42.5036250" lon="-7.2426750">
        <ele>546.4</ele>
        <time>2014-10-02T09:42:38Z</time>
      </trkpt>
      <trkpt lat="42.5036570" lon="-7.2426250">
        <ele>546.9</ele>
        <time>2014-10-02T09:42:40Z</time>
      </trkpt>
      <trkpt lat="42.5036750" lon="-7.2425970">
        <ele>547.2</ele>
        <time>2014-10-02T09:42:41Z</time>
      </trkpt>
      <trkpt lat="42.5037130" lon="-7.2425380">
        <ele>547.7</ele>
        <time>2014-10-02T09:42:43Z</time>
      </trkpt>
      <trkpt lat="42.5037310" lon="-7.2425090">
        <ele>548.0</ele>
        <time>2014-10-02T09:42:44Z</time>
      </trkpt>
      <trkpt lat="42.5037490" lon="-7.2424800">
        <ele>548.2</ele>
        <time>2014-10-02T09:42:45Z</time>
      </trkpt>
      <trkpt lat="42.5037660" lon="-7.2424500">
        <ele>548.5</ele>
        <time>2014-10-02T09:42:46Z</time>
      </trkpt>
      <trkpt lat="42.5037980" lon="-7.2423960">
        <ele>549.0</ele>
        <time>2014-10-02T09:42:48Z</time>
      </trkpt>
      <trkpt lat="42.5038330" lon="-7.2423430">
        <ele>549.4</ele>
        <time>2014-10-02T09:42:50Z</time>
      </trkpt>
      <trkpt lat="42.5038540" lon="-7.2423160">
        <ele>549.7</ele>
        <time>2014-10-02T09:42:51Z</time>
      </trkpt>
      <trkpt lat="42.5038780" lon="-7.2422880">
        <ele>550.0</ele>
        <time>2014-10-02T09:42:52Z</time>
      </trkpt>
      <trkpt lat="42.5039000" lon="-7.2422630">
        <ele>550.2</ele>
        <time>2014-10-02T09:42:53Z</time>
      </trkpt>
      <trkpt lat="42.5039240" lon="-7.2422400">
        <ele>550.5</ele>
        <time>2014-10-02T09:42:54Z</time>
      </trkpt>
      <trkpt lat="42.5039500" lon="-7.2422170">
        <ele>550.7</ele>
        <time>2014-10-02T09:42:55Z</time>
      </trkpt>
      <trkpt lat="42.5039780" lon="-7.2421960">
        <ele>551.0</ele>
        <time>2014-10-02T09:42:56Z</time>
      </trkpt>
      <trkpt lat="42.5040070" lon="-7.2421750">
        <ele>551.3</ele>
        <time>2014-10-02T09:42:57Z</time>
      </trkpt>
      <trkpt lat="42.5040370" lon="-7.2421570">
        <ele>551.6</ele>
        <time>2014-10-02T09:42:58Z</time>
      </trkpt>
      <trkpt lat="42.5040690" lon="-7.2421400">
        <ele>551.9</ele>
        <time>2014-10-02T09:42:59Z</time>
      </trkpt>
      <trkpt lat="42.5041010" lon="-7.2421240">
        <ele>552.2</ele>
        <time>2014-10-02T09:43:00Z</time>
      </trkpt>
      <trkpt lat="42.5041310" lon="-7.2421110">
        <ele>552.4</ele>
        <time>2014-10-02T09:43:01Z</time>
      </trkpt>
      <trkpt lat="42.5041630" lon="-7.2420990">
        <ele>552.7</ele>
        <time>2014-10-02T09:43:02Z</time>
      </trkpt>
      <trkpt lat="42.5041940" lon="-7.2420910">
        <ele>553.0</ele>
        <time>2014-10-02T09:43:03Z</time>
      </trkpt>
      <trkpt lat="42.5042260" lon="-7.2420850">
        <ele>553.2</ele>
        <time>2014-10-02T09:43:04Z</time>
      </trkpt>
      <trkpt lat="42.5042580" lon="-7.2420820">
        <ele>553.4</ele>
        <time>2014-10-02T09:43:05Z</time>
      </trkpt>
      <trkpt lat="42.5042890" lon="-7.2420760">
        <ele>553.6</ele>
        <time>2014-10-02T09:43:06Z</time>
      </trkpt>
      <trkpt lat="42.5043200" lon="-7.2420720">
        <ele>553.8</ele>
        <time>2014-10-02T09:43:07Z</time>
      </trkpt>
      <trkpt lat="42.5043520" lon="-7.2420700">
        <ele>554.1</ele>
        <time>2014-10-02T09:43:08Z</time>
      </trkpt>
      <trkpt lat="42.5043820" lon="-7.2420690">
        <ele>554.3</ele>
        <time>2014-10-02T09:43:09Z</time>
      </trkpt>
      <trkpt lat="42.5044150" lon="-7.2420690">
        <ele>554.5</ele>
        <time>2014-10-02T09:43:10Z</time>
      </trkpt>
      <trkpt lat="42.5044480" lon="-7.2420690">
        <ele>554.8</ele>
        <time>2014-10-02T09:43:11Z</time>
      </trkpt>
      <trkpt lat="42.5044810" lon="-7.2420670">
        <ele>555.1</ele>
        <time>2014-10-02T09:43:12Z</time>
      </trkpt>
      <trkpt lat="42.5045120" lon="-7.2420650">
        <ele>555.3</ele>
        <time>2014-10-02T09:43:13Z</time>
      </trkpt>
      <trkpt lat="42.5045430" lon="-7.2420650">
        <ele>555.6</ele>
        <time>2014-10-02T09:43:14Z</time>
      </trkpt>
      <trkpt lat="42.5045780" lon="-7.2420610">
        <ele>555.9</ele>
        <time>2014-10-02T09:43:15Z</time>
      </trkpt>
      <trkpt lat="42.5046120" lon="-7.2420560">
        <ele>556.2</ele>
        <time>2014-10-02T09:43:16Z</time>
      </trkpt>
      <trkpt lat="42.5046450" lon="-7.2420540">
        <ele>556.4</ele>
        <time>2014-10-02T09:43:17Z</time>
      </trkpt>
      <trkpt lat="42.5046770" lon="-7.2420490">
        <ele>556.7</ele>
        <time>2014-10-02T09:43:18Z</time>
      </trkpt>
      <trkpt lat="42.5047090" lon="-7.2420460">
        <ele>556.9</ele>
        <time>2014-10-02T09:43:19Z</time>
      </trkpt>
      <trkpt lat="42.5047400" lon="-7.2420430">
        <ele>557.2</ele>
        <time>2014-10-02T09:43:20Z</time>
      </trkpt>
      <trkpt lat="42.5047730" lon="-7.2420410">
        <ele>557.4</ele>
        <time>2014-10-02T09:43:21Z</time>
      </trkpt>
      <trkpt lat="42.5048040" lon="-7.2420390">
        <ele>557.7</ele>
        <time>2014-10-02T09:43:22Z</time>
      </trkpt>
      <trkpt lat="42.5048370" lon="-7.2420340">
        <ele>557.9</ele>
        <time>2014-10-02T09:43:23Z</time>
      </trkpt>
      <trkpt lat="42.5048700" lon="-7.2420300">
        <ele>558.2</ele>
        <time>2014-10-02T09:43:24Z</time>
      </trkpt>
      <trkpt lat="42.5049010" lon="-7.2420220">
        <ele>558.4</ele>
        <time>2014-10-02T09:43:25Z</time>
      </trkpt>
      <trkpt lat="42.5049340" lon="-7.2420150">
        <ele>558.7</ele>
        <time>2014-10-02T09:43:26Z</time>
      </trkpt>
      <trkpt lat="42.5049660" lon="-7.2420070">
        <ele>558.9</ele>
        <time>2014-10-02T09:43:27Z</time>
      </trkpt>
      <trkpt lat="42.5049980" lon="-7.2419990">
        <ele>559.1</ele>
        <time>2014-10-02T09:43:28Z</time>
      </trkpt>
      <trkpt lat="42.5050310" lon="-7.2419910">
        <ele>559.3</ele>
        <time>2014-10-02T09:43:29Z</time>
      </trkpt>
      <trkpt lat="42.5050600" lon="-7.2419810">
        <ele>559.6</ele>
        <time>2014-10-02T09:43:30Z</time>
      </trkpt>
      <trkpt lat="42.5050890" lon="-7.2419650">
        <ele>559.7</ele>
        <time>2014-10-02T09:43:31Z</time>
      </trkpt>
      <trkpt lat="42.5051170" lon="-7.2419490">
        <ele>559.9</ele>
        <time>2014-10-02T09:43:32Z</time>
      </trkpt>
      <trkpt lat="42.5051460" lon="-7.2419360">
        <ele>560.0</ele>
        <time>2014-10-02T09:43:33Z</time>
      </trkpt>
      <trkpt lat="42.5051720" lon="-7.2419190">
        <ele>560.2</ele>
        <time>2014-10-02T09:43:34Z</time>
      </trkpt>
      <trkpt lat="42.5051980" lon="-7.2419000">
        <ele>560.4</ele>
        <time>2014-10-02T09:43:35Z</time>
      </trkpt>
      <trkpt lat="42.5052230" lon="-7.2418760">
        <ele>560.6</ele>
        <time>2014-10-02T09:43:36Z</time>
      </trkpt>
      <trkpt lat="42.5052460" lon="-7.2418470">
        <ele>560.9</ele>
        <time>2014-10-02T09:43:37Z</time>
      </trkpt>
      <trkpt lat="42.5052700" lon="-7.2418160">
        <ele>561.1</ele>
        <time>2014-10-02T09:43:38Z</time>
      </trkpt>
      <trkpt lat="42.5052890" lon="-7.2417850">
        <ele>561.3</ele>
        <time>2014-10-02T09:43:39Z</time>
      </trkpt>
      <trkpt lat="42.5053050" lon="-7.2417550">
        <ele>561.5</ele>
        <time>2014-10-02T09:43:40Z</time>
      </trkpt>
      <trkpt lat="42.5053360" lon="-7.2416830">
        <ele>562.0</ele>
        <time>2014-10-02T09:43:42Z</time>
      </trkpt>
      <trkpt lat="42.5053480" lon="-7.2416450">
        <ele>562.2</ele>
        <time>2014-10-02T09:43:43Z</time>
      </trkpt>
      <trkpt lat="42.5053580" lon="-7.2416100">
        <ele>562.5</ele>
        <time>2014-10-02T09:43:44Z</time>
      </trkpt>
      <trkpt lat="42.5053710" lon="-7.2415520">
        <ele>562.8</ele>
        <time>2014-10-02T09:43:46Z</time>
      </trkpt>
      <trkpt lat="42.5053750" lon="-7.2415150">
        <ele>563.0</ele>
        <time>2014-10-02T09:43:47Z</time>
      </trkpt>
      <trkpt lat="42.5053780" lon="-7.2414770">
        <ele>563.3</ele>
        <time>2014-10-02T09:43:48Z</time>
      </trkpt>
      <trkpt lat="42.5053810" lon="-7.2414150">
        <ele>563.8</ele>
        <time>2014-10-02T09:43:50Z</time>
      </trkpt>
      <trkpt lat="42.5053830" lon="-7.2413780">
        <ele>564.1</ele>
        <time>2014-10-02T09:43:51Z</time>
      </trkpt>
      <trkpt lat="42.5053820" lon="-7.2413350">
        <ele>564.4</ele>
        <time>2014-10-02T09:43:52Z</time>
      </trkpt>
      <trkpt lat="42.5053810" lon="-7.2412940">
        <ele>564.7</ele>
        <time>2014-10-02T09:43:53Z</time>
      </trkpt>
      <trkpt lat="42.5053810" lon="-7.2412530">
        <ele>564.9</ele>
        <time>2014-10-02T09:43:54Z</time>
      </trkpt>
      <trkpt lat="42.5053790" lon="-7.2411780">
        <ele>565.4</ele>
        <time>2014-10-02T09:43:56Z</time>
      </trkpt>
      <trkpt lat="42.5053750" lon="-7.2411330">
        <ele>565.7</ele>
        <time>2014-10-02T09:43:57Z</time>
      </trkpt>
      <trkpt lat="42.5053710" lon="-7.2410870">
        <ele>566.0</ele>
        <time>2014-10-02T09:43:58Z</time>
      </trkpt>
      <trkpt lat="42.5053670" lon="-7.2410420">
        <ele>566.2</ele>
        <time>2014-10-02T09:43:59Z</time>
      </trkpt>
      <trkpt lat="42.5053660" lon="-7.2409980">
        <ele>566.5</ele>
        <time>2014-10-02T09:44:00Z</time>
      </trkpt>
      <trkpt lat="42.5053650" lon="-7.2409600">
        <ele>566.8</ele>
        <time>2014-10-02T09:44:01Z</time>
      </trkpt>
      <trkpt lat="42.5053650" lon="-7.2409230">
        <ele>567.0</ele>
        <time>2014-10-02T09:44:02Z</time>
      </trkpt>
      <trkpt lat="42.5053640" lon="-7.2408810">
        <ele>567.3</ele>
        <time>2014-10-02T09:44:03Z</time>
      </trkpt>
      <trkpt lat="42.5053620" lon="-7.2408340">
        <ele>567.6</ele>
        <time>2014-10-02T09:44:04Z</time>
      </trkpt>
      <trkpt lat="42.5053590" lon="-7.2407930">
        <ele>567.8</ele>
        <time>2014-10-02T09:44:05Z</time>
      </trkpt>
      <trkpt lat="42.5053560" lon="-7.2407520">
        <ele>568.1</ele>
        <time>2014-10-02T09:44:06Z</time>
      </trkpt>
      <trkpt lat="42.5053540" lon="-7.2407120">
        <ele>568.4</ele>
        <time>2014-10-02T09:44:07Z</time>
      </trkpt>
      <trkpt lat="42.5053530" lon="-7.2406690">
        <ele>568.7</ele>
        <time>2014-10-02T09:44:08Z</time>
      </trkpt>
      <trkpt lat="42.5053520" lon="-7.2406290">
        <ele>569.0</ele>
        <time>2014-10-02T09:44:09Z</time>
      </trkpt>
      <trkpt lat="42.5053500" lon="-7.2405890">
        <ele>569.3</ele>
        <time>2014-10-02T09:44:10Z</time>
      </trkpt>
      <trkpt lat="42.5053500" lon="-7.2405490">
        <ele>569.6</ele>
        <time>2014-10-02T09:44:11Z</time>
      </trkpt>
      <trkpt lat="42.5053490" lon="-7.2405110">
        <ele>569.9</ele>
        <time>2014-10-02T09:44:12Z</time>
      </trkpt>
      <trkpt lat="42.5053500" lon="-7.2404440">
        <ele>570.5</ele>
        <time>2014-10-02T09:44:14Z</time>
      </trkpt>
      <trkpt lat="42.5053500" lon="-7.2403990">
        <ele>570.8</ele>
        <time>2014-10-02T09:44:15Z</time>
      </trkpt>
      <trkpt lat="42.5053490" lon="-7.2403510">
        <ele>571.1</ele>
        <time>2014-10-02T09:44:16Z</time>
      </trkpt>
      <trkpt lat="42.5053470" lon="-7.2403030">
        <ele>571.4</ele>
        <time>2014-10-02T09:44:17Z</time>
      </trkpt>
      <trkpt lat="42.5053460" lon="-7.2402640">
        <ele>571.6</ele>
        <time>2014-10-02T09:44:18Z</time>
      </trkpt>
      <trkpt lat="42.5053450" lon="-7.2402250">
        <ele>571.9</ele>
        <time>2014-10-02T09:44:19Z</time>
      </trkpt>
      <trkpt lat="42.5053450" lon="-7.2401880">
        <ele>572.1</ele>
        <time>2014-10-02T09:44:20Z</time>
      </trkpt>
      <trkpt lat="42.5053460" lon="-7.2401510">
        <ele>572.3</ele>
        <time>2014-10-02T09:44:21Z</time>
      </trkpt>
      <trkpt lat="42.5053460" lon="-7.2401150">
        <ele>572.5</ele>
        <time>2014-10-02T09:44:22Z</time>
      </trkpt>
      <trkpt lat="42.5053440" lon="-7.2400340">
        <ele>573.0</ele>
        <time>2014-10-02T09:44:24Z</time>
      </trkpt>
      <trkpt lat="42.5053430" lon="-7.2399900">
        <ele>573.2</ele>
        <time>2014-10-02T09:44:25Z</time>
      </trkpt>
      <trkpt lat="42.5053440" lon="-7.2399460">
        <ele>573.5</ele>
        <time>2014-10-02T09:44:26Z</time>
      </trkpt>
      <trkpt lat="42.5053430" lon="-7.2399060">
        <ele>573.7</ele>
        <time>2014-10-02T09:44:27Z</time>
      </trkpt>
      <trkpt lat="42.5053440" lon="-7.2398680">
        <ele>573.9</ele>
        <time>2014-10-02T09:44:28Z</time>
      </trkpt>
      <trkpt lat="42.5053440" lon="-7.2398290">
        <ele>574.2</ele>
        <time>2014-10-02T09:44:29Z</time>
      </trkpt>
      <trkpt lat="42.5053440" lon="-7.2397880">
        <ele>574.4</ele>
        <time>2014-10-02T09:44:30Z</time>
      </trkpt>
      <trkpt lat="42.5053450" lon="-7.2397450">
        <ele>574.7</ele>
        <time>2014-10-02T09:44:31Z</time>
      </trkpt>
      <trkpt lat="42.5053460" lon="-7.2397060">
        <ele>574.9</ele>
        <time>2014-10-02T09:44:32Z</time>
      </trkpt>
      <trkpt lat="42.5053500" lon="-7.2396660">
        <ele>575.2</ele>
        <time>2014-10-02T09:44:33Z</time>
      </trkpt>
      <trkpt lat="42.5053500" lon="-7.2396190">
        <ele>575.5</ele>
        <time>2014-10-02T09:44:34Z</time>
      </trkpt>
      <trkpt lat="42.5053500" lon="-7.2395720">
        <ele>575.8</ele>
        <time>2014-10-02T09:44:35Z</time>
      </trkpt>
      <trkpt lat="42.5053490" lon="-7.2395290">
        <ele>576.0</ele>
        <time>2014-10-02T09:44:36Z</time>
      </trkpt>
      <trkpt lat="42.5053480" lon="-7.2394890">
        <ele>576.3</ele>
        <time>2014-10-02T09:44:37Z</time>
      </trkpt>
      <trkpt lat="42.5053480" lon="-7.2394510">
        <ele>576.5</ele>
        <time>2014-10-02T09:44:38Z</time>
      </trkpt>
      <trkpt lat="42.5053470" lon="-7.2394100">
        <ele>576.8</ele>
        <time>2014-10-02T09:44:39Z</time>
      </trkpt>
      <trkpt lat="42.5053490" lon="-7.2393700">
        <ele>577.0</ele>
        <time>2014-10-02T09:44:40Z</time>
      </trkpt>
      <trkpt lat="42.5053520" lon="-7.2393330">
        <ele>577.3</ele>
        <time>2014-10-02T09:44:41Z</time>
      </trkpt>
      <trkpt lat="42.5053570" lon="-7.2392690">
        <ele>577.7</ele>
        <time>2014-10-02T09:44:43Z</time>
      </trkpt>
      <trkpt lat="42.5053630" lon="-7.2391950">
        <ele>578.2</ele>
        <time>2014-10-02T09:44:45Z</time>
      </trkpt>
      <trkpt lat="42.5053660" lon="-7.2391530">
        <ele>578.4</ele>
        <time>2014-10-02T09:44:46Z</time>
      </trkpt>
      <trkpt lat="42.5053660" lon="-7.2391120">
        <ele>578.7</ele>
        <time>2014-10-02T09:44:47Z</time>
      </trkpt>
      <trkpt lat="42.5053680" lon="-7.2390710">
        <ele>578.9</ele>
        <time>2014-10-02T09:44:48Z</time>
      </trkpt>
      <trkpt lat="42.5053680" lon="-7.2390290">
        <ele>579.2</ele>
        <time>2014-10-02T09:44:49Z</time>
      </trkpt>
      <trkpt lat="42.5053690" lon="-7.2389880">
        <ele>579.5</ele>
        <time>2014-10-02T09:44:50Z</time>
      </trkpt>
      <trkpt lat="42.5053700" lon="-7.2389430">
        <ele>579.7</ele>
        <time>2014-10-02T09:44:51Z</time>
      </trkpt>
      <trkpt lat="42.5053710" lon="-7.2388960">
        <ele>580.0</ele>
        <time>2014-10-02T09:44:52Z</time>
      </trkpt>
      <trkpt lat="42.5053710" lon="-7.2388520">
        <ele>580.3</ele>
        <time>2014-10-02T09:44:53Z</time>
      </trkpt>
      <trkpt lat="42.5053700" lon="-7.2388110">
        <ele>580.5</ele>
        <time>2014-10-02T09:44:54Z</time>
      </trkpt>
      <trkpt lat="42.5053730" lon="-7.2387730">
        <ele>580.8</ele>
        <time>2014-10-02T09:44:55Z</time>
      </trkpt>
      <trkpt lat="42.5053750" lon="-7.2387330">
        <ele>581.0</ele>
        <time>2014-10-02T09:44:56Z</time>
      </trkpt>
      <trkpt lat="42.5053790" lon="-7.2386930">
        <ele>581.3</ele>
        <time>2014-10-02T09:44:57Z</time>
      </trkpt>
      <trkpt lat="42.5053830" lon="-7.2386540">
        <ele>581.6</ele>
        <time>2014-10-02T09:44:58Z</time>
      </trkpt>
      <trkpt lat="42.5053850" lon="-7.2386130">
        <ele>581.8</ele>
        <time>2014-10-02T09:44:59Z</time>
      </trkpt>
      <trkpt lat="42.5053890" lon="-7.2385730">
        <ele>582.1</ele>
        <time>2014-10-02T09:45:00Z</time>
      </trkpt>
      <trkpt lat="42.5053930" lon="-7.2385340">
        <ele>582.4</ele>
        <time>2014-10-02T09:45:01Z</time>
      </trkpt>
      <trkpt lat="42.5053950" lon="-7.2384910">
        <ele>582.6</ele>
        <time>2014-10-02T09:45:02Z</time>
      </trkpt>
      <trkpt lat="42.5054010" lon="-7.2384500">
        <ele>582.8</ele>
        <time>2014-10-02T09:45:03Z</time>
      </trkpt>
      <trkpt lat="42.5054100" lon="-7.2384100">
        <ele>583.1</ele>
        <time>2014-10-02T09:45:04Z</time>
      </trkpt>
      <trkpt lat="42.5054180" lon="-7.2383680">
        <ele>583.3</ele>
        <time>2014-10-02T09:45:05Z</time>
      </trkpt>
      <trkpt lat="42.5054290" lon="-7.2383280">
        <ele>583.6</ele>
        <time>2014-10-02T09:45:06Z</time>
      </trkpt>
      <trkpt lat="42.5054410" lon="-7.2382850">
        <ele>583.8</ele>
        <time>2014-10-02T09:45:07Z</time>
      </trkpt>
      <trkpt lat="42.5054510" lon="-7.2382440">
        <ele>584.0</ele>
        <time>2014-10-02T09:45:08Z</time>
      </trkpt>
      <trkpt lat="42.5054620" lon="-7.2382030">
        <ele>584.3</ele>
        <time>2014-10-02T09:45:09Z</time>
      </trkpt>
      <trkpt lat="42.5054730" lon="-7.2381620">
        <ele>584.5</ele>
        <time>2014-10-02T09:45:10Z</time>
      </trkpt>
      <trkpt lat="42.5054850" lon="-7.2381220">
        <ele>584.8</ele>
        <time>2014-10-02T09:45:11Z</time>
      </trkpt>
      <trkpt lat="42.5054980" lon="-7.2380850">
        <ele>585.0</ele>
        <time>2014-10-02T09:45:12Z</time>
      </trkpt>
      <trkpt lat="42.5055130" lon="-7.2380520">
        <ele>585.2</ele>
        <time>2014-10-02T09:45:13Z</time>
      </trkpt>
      <trkpt lat="42.5055280" lon="-7.2380170">
        <ele>585.5</ele>
        <time>2014-10-02T09:45:14Z</time>
      </trkpt>
      <trkpt lat="42.5055460" lon="-7.2379800">
        <ele>585.8</ele>
        <time>2014-10-02T09:45:15Z</time>
      </trkpt>
      <trkpt lat="42.5055630" lon="-7.2379450">
        <ele>586.0</ele>
        <time>2014-10-02T09:45:16Z</time>
      </trkpt>
      <trkpt lat="42.5055830" lon="-7.2379100">
        <ele>586.3</ele>
        <time>2014-10-02T09:45:17Z</time>
      </trkpt>
      <trkpt lat="42.5056040" lon="-7.2378750">
        <ele>586.6</ele>
        <time>2014-10-02T09:45:18Z</time>
      </trkpt>
      <trkpt lat="42.5056260" lon="-7.2378430">
        <ele>586.9</ele>
        <time>2014-10-02T09:45:19Z</time>
      </trkpt>
      <trkpt lat="42.5056490" lon="-7.2378120">
        <ele>587.2</ele>
        <time>2014-10-02T09:45:20Z</time>
      </trkpt>
      <trkpt lat="42.5056740" lon="-7.2377820">
        <ele>587.5</ele>
        <time>2014-10-02T09:45:21Z</time>
      </trkpt>
      <trkpt lat="42.5057000" lon="-7.2377530">
        <ele>587.8</ele>
        <time>2014-10-02T09:45:22Z</time>
      </trkpt>
      <trkpt lat="42.5057260" lon="-7.2377250">
        <ele>588.1</ele>
        <time>2014-10-02T09:45:23Z</time>
      </trkpt>
      <trkpt lat="42.5057520" lon="-7.2376990">
        <ele>588.3</ele>
        <time>2014-10-02T09:45:24Z</time>
      </trkpt>
      <trkpt lat="42.5057770" lon="-7.2376740">
        <ele>588.6</ele>
        <time>2014-10-02T09:45:25Z</time>
      </trkpt>
      <trkpt lat="42.5058030" lon="-7.2376500">
        <ele>588.8</ele>
        <time>2014-10-02T09:45:26Z</time>
      </trkpt>
      <trkpt lat="42.5058320" lon="-7.2376250">
        <ele>589.1</ele>
        <time>2014-10-02T09:45:27Z</time>
      </trkpt>
      <trkpt lat="42.5058610" lon="-7.2376030">
        <ele>589.4</ele>
        <time>2014-10-02T09:45:28Z</time>
      </trkpt>
      <trkpt lat="42.5058910" lon="-7.2375820">
        <ele>589.7</ele>
        <time>2014-10-02T09:45:29Z</time>
      </trkpt>
      <trkpt lat="42.5059230" lon="-7.2375640">
        <ele>590.0</ele>
        <time>2014-10-02T09:45:30Z</time>
      </trkpt>
      <trkpt lat="42.5059520" lon="-7.2375470">
        <ele>590.3</ele>
        <time>2014-10-02T09:45:31Z</time>
      </trkpt>
      <trkpt lat="42.5059820" lon="-7.2375290">
        <ele>590.6</ele>
        <time>2014-10-02T09:45:32Z</time>
      </trkpt>
      <trkpt lat="42.5060140" lon="-7.2375160">
        <ele>590.9</ele>
        <time>2014-10-02T09:45:33Z</time>
      </trkpt>
      <trkpt lat="42.5060420" lon="-7.2375020">
        <ele>591.2</ele>
        <time>2014-10-02T09:45:34Z</time>
      </trkpt>
      <trkpt lat="42.5060730" lon="-7.2374880">
        <ele>591.5</ele>
        <time>2014-10-02T09:45:35Z</time>
      </trkpt>
      <trkpt lat="42.5061050" lon="-7.2374770">
        <ele>591.7</ele>
        <time>2014-10-02T09:45:36Z</time>
      </trkpt>
      <trkpt lat="42.5061350" lon="-7.2374680">
        <ele>591.9</ele>
        <time>2014-10-02T09:45:37Z</time>
      </trkpt>
      <trkpt lat="42.5061650" lon="-7.2374610">
        <ele>592.2</ele>
        <time>2014-10-02T09:45:38Z</time>
      </trkpt>
      <trkpt lat="42.5061940" lon="-7.2374580">
        <ele>592.4</ele>
        <time>2014-10-02T09:45:39Z</time>
      </trkpt>
      <trkpt lat="42.5062240" lon="-7.2374530">
        <ele>592.6</ele>
        <time>2014-10-02T09:45:40Z</time>
      </trkpt>
      <trkpt lat="42.5062580" lon="-7.2374530">
        <ele>592.8</ele>
        <time>2014-10-02T09:45:41Z</time>
      </trkpt>
      <trkpt lat="42.5062930" lon="-7.2374530">
        <ele>593.1</ele>
        <time>2014-10-02T09:45:42Z</time>
      </trkpt>
      <trkpt lat="42.5063280" lon="-7.2374530">
        <ele>593.4</ele>
        <time>2014-10-02T09:45:43Z</time>
      </trkpt>
      <trkpt lat="42.5063630" lon="-7.2374550">
        <ele>593.6</ele>
        <time>2014-10-02T09:45:44Z</time>
      </trkpt>
      <trkpt lat="42.5063970" lon="-7.2374580">
        <ele>593.9</ele>
        <time>2014-10-02T09:45:45Z</time>
      </trkpt>
      <trkpt lat="42.5064320" lon="-7.2374640">
        <ele>594.2</ele>
        <time>2014-10-02T09:45:46Z</time>
      </trkpt>
      <trkpt lat="42.5064650" lon="-7.2374710">
        <ele>594.4</ele>
        <time>2014-10-02T09:45:47Z</time>
      </trkpt>
      <trkpt lat="42.5064980" lon="-7.2374810">
        <ele>594.6</ele>
        <time>2014-10-02T09:45:48Z</time>
      </trkpt>
      <trkpt lat="42.5065290" lon="-7.2374940">
        <ele>594.8</ele>
        <time>2014-10-02T09:45:49Z</time>
      </trkpt>
      <trkpt lat="42.5065620" lon="-7.2375080">
        <ele>595.0</ele>
        <time>2014-10-02T09:45:50Z</time>
      </trkpt>
      <trkpt lat="42.5065950" lon="-7.2375220">
        <ele>595.3</ele>
        <time>2014-10-02T09:45:51Z</time>
      </trkpt>
      <trkpt lat="42.5066240" lon="-7.2375380">
        <ele>595.5</ele>
        <time>2014-10-02T09:45:52Z</time>
      </trkpt>
      <trkpt lat="42.5066560" lon="-7.2375580">
        <ele>595.8</ele>
        <time>2014-10-02T09:45:53Z</time>
      </trkpt>
      <trkpt lat="42.5066900" lon="-7.2375790">
        <ele>596.0</ele>
        <time>2014-10-02T09:45:54Z</time>
      </trkpt>
      <trkpt lat="42.5067190" lon="-7.2375980">
        <ele>596.3</ele>
        <time>2014-10-02T09:45:55Z</time>
      </trkpt>
      <trkpt lat="42.5067500" lon="-7.2376120">
        <ele>596.6</ele>
        <time>2014-10-02T09:45:56Z</time>
      </trkpt>
      <trkpt lat="42.5067830" lon="-7.2376340">
        <ele>596.8</ele>
        <time>2014-10-02T09:45:57Z</time>
      </trkpt>
      <trkpt lat="42.5068170" lon="-7.2376620">
        <ele>597.1</ele>
        <time>2014-10-02T09:45:58Z</time>
      </trkpt>
      <trkpt lat="42.5068500" lon="-7.2376950">
        <ele>597.4</ele>
        <time>2014-10-02T09:45:59Z</time>
      </trkpt>
      <trkpt lat="42.5068790" lon="-7.2377240">
        <ele>597.7</ele>
        <time>2014-10-02T09:46:00Z</time>
      </trkpt>
      <trkpt lat="42.5069100" lon="-7.2377560">
        <ele>598.0</ele>
        <time>2014-10-02T09:46:01Z</time>
      </trkpt>
      <trkpt lat="42.5069390" lon="-7.2377880">
        <ele>598.3</ele>
        <time>2014-10-02T09:46:02Z</time>
      </trkpt>
      <trkpt lat="42.5069640" lon="-7.2378200">
        <ele>598.5</ele>
        <time>2014-10-02T09:46:03Z</time>
      </trkpt>
      <trkpt lat="42.5069880" lon="-7.2378510">
        <ele>598.8</ele>
        <time>2014-10-02T09:46:04Z</time>
      </trkpt>
      <trkpt lat="42.5070140" lon="-7.2378820">
        <ele>599.2</ele>
        <time>2014-10-02T09:46:05Z</time>
      </trkpt>
      <trkpt lat="42.5070370" lon="-7.2379120">
        <ele>599.5</ele>
        <time>2014-10-02T09:46:06Z</time>
      </trkpt>
      <trkpt lat="42.5070580" lon="-7.2379410">
        <ele>599.7</ele>
        <time>2014-10-02T09:46:07Z</time>
      </trkpt>
      <trkpt lat="42.5070790" lon="-7.2379680">
        <ele>600.0</ele>
        <time>2014-10-02T09:46:08Z</time>
      </trkpt>
      <trkpt lat="42.5071180" lon="-7.2380160">
        <ele>600.4</ele>
        <time>2014-10-02T09:46:10Z</time>
      </trkpt>
      <trkpt lat="42.5071570" lon="-7.2380640">
        <ele>600.7</ele>
        <time>2014-10-02T09:46:12Z</time>
      </trkpt>
      <trkpt lat="42.5071800" lon="-7.2380920">
        <ele>600.9</ele>
        <time>2014-10-02T09:46:13Z</time>
      </trkpt>
      <trkpt lat="42.5072040" lon="-7.2381190">
        <ele>601.2</ele>
        <time>2014-10-02T09:46:14Z</time>
      </trkpt>
      <trkpt lat="42.5072270" lon="-7.2381450">
        <ele>601.4</ele>
        <time>2014-10-02T09:46:15Z</time>
      </trkpt>
      <trkpt lat="42.5072630" lon="-7.2381910">
        <ele>601.8</ele>
        <time>2014-10-02T09:46:17Z</time>
      </trkpt>
      <trkpt lat="42.5072850" lon="-7.2382140">
        <ele>602.0</ele>
        <time>2014-10-02T09:46:18Z</time>
      </trkpt>
      <trkpt lat="42.5073040" lon="-7.2382410">
        <ele>602.2</ele>
        <time>2014-10-02T09:46:19Z</time>
      </trkpt>
      <trkpt lat="42.5073260" lon="-7.2382670">
        <ele>602.5</ele>
        <time>2014-10-02T09:46:20Z</time>
      </trkpt>
      <trkpt lat="42.5073710" lon="-7.2383220">
        <ele>602.9</ele>
        <time>2014-10-02T09:46:22Z</time>
      </trkpt>
      <trkpt lat="42.5073910" lon="-7.2383480">
        <ele>603.1</ele>
        <time>2014-10-02T09:46:23Z</time>
      </trkpt>
      <trkpt lat="42.5074190" lon="-7.2383790">
        <ele>603.4</ele>
        <time>2014-10-02T09:46:24Z</time>
      </trkpt>
      <trkpt lat="42.5074520" lon="-7.2384110">
        <ele>603.7</ele>
        <time>2014-10-02T09:46:25Z</time>
      </trkpt>
      <trkpt lat="42.5074830" lon="-7.2384460">
        <ele>604.0</ele>
        <time>2014-10-02T09:46:26Z</time>
      </trkpt>
      <trkpt lat="42.5075070" lon="-7.2384750">
        <ele>604.2</ele>
        <time>2014-10-02T09:46:27Z</time>
      </trkpt>
      <trkpt lat="42.5075280" lon="-7.2384990">
        <ele>604.4</ele>
        <time>2014-10-02T09:46:28Z</time>
      </trkpt>
      <trkpt lat="42.5075520" lon="-7.2385250">
        <ele>604.6</ele>
        <time>2014-10-02T09:46:29Z</time>
      </trkpt>
      <trkpt lat="42.5075780" lon="-7.2385500">
        <ele>604.9</ele>
        <time>2014-10-02T09:46:30Z</time>
      </trkpt>
      <trkpt lat="42.5076050" lon="-7.2385760">
        <ele>605.1</ele>
        <time>2014-10-02T09:46:31Z</time>
      </trkpt>
      <trkpt lat="42.5076320" lon="-7.2386020">
        <ele>605.4</ele>
        <time>2014-10-02T09:46:32Z</time>
      </trkpt>
      <trkpt lat="42.5076590" lon="-7.2386260">
        <ele>605.6</ele>
        <time>2014-10-02T09:46:33Z</time>
      </trkpt>
      <trkpt lat="42.5076850" lon="-7.2386500">
        <ele>605.9</ele>
        <time>2014-10-02T09:46:34Z</time>
      </trkpt>
      <trkpt lat="42.5077120" lon="-7.2386730">
        <ele>606.1</ele>
        <time>2014-10-02T09:46:35Z</time>
      </trkpt>
      <trkpt lat="42.5077390" lon="-7.2386940">
        <ele>606.4</ele>
        <time>2014-10-02T09:46:36Z</time>
      </trkpt>
      <trkpt lat="42.5077640" lon="-7.2387130">
        <ele>606.6</ele>
        <time>2014-10-02T09:46:37Z</time>
      </trkpt>
      <trkpt lat="42.5077900" lon="-7.2387330">
        <ele>606.9</ele>
        <time>2014-10-02T09:46:38Z</time>
      </trkpt>
      <trkpt lat="42.5078180" lon="-7.2387530">
        <ele>607.2</ele>
        <time>2014-10-02T09:46:39Z</time>
      </trkpt>
      <trkpt lat="42.5078460" lon="-7.2387730">
        <ele>607.4</ele>
        <time>2014-10-02T09:46:40Z</time>
      </trkpt>
      <trkpt lat="42.5078750" lon="-7.2387920">
        <ele>607.6</ele>
        <time>2014-10-02T09:46:41Z</time>
      </trkpt>
      <trkpt lat="42.5079030" lon="-7.2388100">
        <ele>607.9</ele>
        <time>2014-10-02T09:46:42Z</time>
      </trkpt>
      <trkpt lat="42.5079310" lon="-7.2388250">
        <ele>608.1</ele>
        <time>2014-10-02T09:46:43Z</time>
      </trkpt>
      <trkpt lat="42.5079590" lon="-7.2388430">
        <ele>608.4</ele>
        <time>2014-10-02T09:46:44Z</time>
      </trkpt>
      <trkpt lat="42.5079910" lon="-7.2388600">
        <ele>608.7</ele>
        <time>2014-10-02T09:46:45Z</time>
      </trkpt>
      <trkpt lat="42.5080230" lon="-7.2388710">
        <ele>609.0</ele>
        <time>2014-10-02T09:46:46Z</time>
      </trkpt>
      <trkpt lat="42.5080540" lon="-7.2388840">
        <ele>609.3</ele>
        <time>2014-10-02T09:46:47Z</time>
      </trkpt>
      <trkpt lat="42.5080830" lon="-7.2388940">
        <ele>609.5</ele>
        <time>2014-10-02T09:46:48Z</time>
      </trkpt>
      <trkpt lat="42.5081110" lon="-7.2389020">
        <ele>609.8</ele>
        <time>2014-10-02T09:46:49Z</time>
      </trkpt>
      <trkpt lat="42.5081420" lon="-7.2389110">
        <ele>610.1</ele>
        <time>2014-10-02T09:46:50Z</time>
      </trkpt>
      <trkpt lat="42.5081730" lon="-7.2389190">
        <ele>610.3</ele>
        <time>2014-10-02T09:46:51Z</time>
      </trkpt>
      <trkpt lat="42.5082030" lon="-7.2389280">
        <ele>610.6</ele>
        <time>2014-10-02T09:46:52Z</time>
      </trkpt>
      <trkpt lat="42.5082300" lon="-7.2389400">
        <ele>610.8</ele>
        <time>2014-10-02T09:46:53Z</time>
      </trkpt>
      <trkpt lat="42.5082570" lon="-7.2389490">
        <ele>611.1</ele>
        <time>2014-10-02T09:46:54Z</time>
      </trkpt>
      <trkpt lat="42.5082860" lon="-7.2389570">
        <ele>611.3</ele>
        <time>2014-10-02T09:46:55Z</time>
      </trkpt>
      <trkpt lat="42.5083150" lon="-7.2389610">
        <ele>611.5</ele>
        <time>2014-10-02T09:46:56Z</time>
      </trkpt>
      <trkpt lat="42.5083470" lon="-7.2389680">
        <ele>611.8</ele>
        <time>2014-10-02T09:46:57Z</time>
      </trkpt>
      <trkpt lat="42.5083770" lon="-7.2389730">
        <ele>612.0</ele>
        <time>2014-10-02T09:46:58Z</time>
      </trkpt>
      <trkpt lat="42.5084090" lon="-7.2389790">
        <ele>612.3</ele>
        <time>2014-10-02T09:46:59Z</time>
      </trkpt>
      <trkpt lat="42.5084410" lon="-7.2389830">
        <ele>612.5</ele>
        <time>2014-10-02T09:47:00Z</time>
      </trkpt>
      <trkpt lat="42.5084720" lon="-7.2389870">
        <ele>612.8</ele>
        <time>2014-10-02T09:47:01Z</time>
      </trkpt>
      <trkpt lat="42.5085020" lon="-7.2389880">
        <ele>613.0</ele>
        <time>2014-10-02T09:47:02Z</time>
      </trkpt>
      <trkpt lat="42.5085330" lon="-7.2389900">
        <ele>613.2</ele>
        <time>2014-10-02T09:47:03Z</time>
      </trkpt>
      <trkpt lat="42.5085650" lon="-7.2389910">
        <ele>613.4</ele>
        <time>2014-10-02T09:47:04Z</time>
      </trkpt>
      <trkpt lat="42.5085960" lon="-7.2389900">
        <ele>613.7</ele>
        <time>2014-10-02T09:47:05Z</time>
      </trkpt>
      <trkpt lat="42.5086260" lon="-7.2389880">
        <ele>613.9</ele>
        <time>2014-10-02T09:47:06Z</time>
      </trkpt>
      <trkpt lat="42.5086560" lon="-7.2389860">
        <ele>614.1</ele>
        <time>2014-10-02T09:47:07Z</time>
      </trkpt>
      <trkpt lat="42.5086870" lon="-7.2389850">
        <ele>614.4</ele>
        <time>2014-10-02T09:47:08Z</time>
      </trkpt>
      <trkpt lat="42.5087170" lon="-7.2389830">
        <ele>614.7</ele>
        <time>2014-10-02T09:47:09Z</time>
      </trkpt>
      <trkpt lat="42.5087470" lon="-7.2389810">
        <ele>614.9</ele>
        <time>2014-10-02T09:47:10Z</time>
      </trkpt>
      <trkpt lat="42.5087770" lon="-7.2389790">
        <ele>615.2</ele>
        <time>2014-10-02T09:47:11Z</time>
      </trkpt>
      <trkpt lat="42.5088070" lon="-7.2389760">
        <ele>615.5</ele>
        <time>2014-10-02T09:47:12Z</time>
      </trkpt>
      <trkpt lat="42.5088360" lon="-7.2389710">
        <ele>615.8</ele>
        <time>2014-10-02T09:47:13Z</time>
      </trkpt>
      <trkpt lat="42.5088650" lon="-7.2389670">
        <ele>616.0</ele>
        <time>2014-10-02T09:47:14Z</time>
      </trkpt>
      <trkpt lat="42.5088930" lon="-7.2389600">
        <ele>616.3</ele>
        <time>2014-10-02T09:47:15Z</time>
      </trkpt>
      <trkpt lat="42.5089230" lon="-7.2389520">
        <ele>616.6</ele>
        <time>2014-10-02T09:47:16Z</time>
      </trkpt>
      <trkpt lat="42.5089520" lon="-7.2389460">
        <ele>616.8</ele>
        <time>2014-10-02T09:47:17Z</time>
      </trkpt>
      <trkpt lat="42.5089830" lon="-7.2389400">
        <ele>617.1</ele>
        <time>2014-10-02T09:47:18Z</time>
      </trkpt>
      <trkpt lat="42.5090120" lon="-7.2389350">
        <ele>617.3</ele>
        <time>2014-10-02T09:47:19Z</time>
      </trkpt>
      <trkpt lat="42.5090410" lon="-7.2389290">
        <ele>617.6</ele>
        <time>2014-10-02T09:47:20Z</time>
      </trkpt>
      <trkpt lat="42.5090700" lon="-7.2389230">
        <ele>617.8</ele>
        <time>2014-10-02T09:47:21Z</time>
      </trkpt>
      <trkpt lat="42.5090990" lon="-7.2389170">
        <ele>618.1</ele>
        <time>2014-10-02T09:47:22Z</time>
      </trkpt>
      <trkpt lat="42.5091280" lon="-7.2389110">
        <ele>618.4</ele>
        <time>2014-10-02T09:47:23Z</time>
      </trkpt>
      <trkpt lat="42.5091570" lon="-7.2389050">
        <ele>618.7</ele>
        <time>2014-10-02T09:47:24Z</time>
      </trkpt>
      <trkpt lat="42.5091870" lon="-7.2389010">
        <ele>619.0</ele>
        <time>2014-10-02T09:47:25Z</time>
      </trkpt>
      <trkpt lat="42.5092170" lon="-7.2388980">
        <ele>619.3</ele>
        <time>2014-10-02T09:47:26Z</time>
      </trkpt>
      <trkpt lat="42.5092470" lon="-7.2388980">
        <ele>619.7</ele>
        <time>2014-10-02T09:47:27Z</time>
      </trkpt>
      <trkpt lat="42.5092760" lon="-7.2388980">
        <ele>619.9</ele>
        <time>2014-10-02T09:47:28Z</time>
      </trkpt>
      <trkpt lat="42.5093060" lon="-7.2388990">
        <ele>620.2</ele>
        <time>2014-10-02T09:47:29Z</time>
      </trkpt>
      <trkpt lat="42.5093360" lon="-7.2389000">
        <ele>620.5</ele>
        <time>2014-10-02T09:47:30Z</time>
      </trkpt>
      <trkpt lat="42.5093660" lon="-7.2389020">
        <ele>620.8</ele>
        <time>2014-10-02T09:47:31Z</time>
      </trkpt>
      <trkpt lat="42.5093970" lon="-7.2389030">
        <ele>621.0</ele>
        <time>2014-10-02T09:47:32Z</time>
      </trkpt>
      <trkpt lat="42.5094280" lon="-7.2389030">
        <ele>621.2</ele>
        <time>2014-10-02T09:47:33Z</time>
      </trkpt>
      <trkpt lat="42.5094590" lon="-7.2389040">
        <ele>621.4</ele>
        <time>2014-10-02T09:47:34Z</time>
      </trkpt>
      <trkpt lat="42.5094890" lon="-7.2389040">
        <ele>621.6</ele>
        <time>2014-10-02T09:47:35Z</time>
      </trkpt>
      <trkpt lat="42.5095200" lon="-7.2389080">
        <ele>621.8</ele>
        <time>2014-10-02T09:47:36Z</time>
      </trkpt>
      <trkpt lat="42.5095500" lon="-7.2389120">
        <ele>622.0</ele>
        <time>2014-10-02T09:47:37Z</time>
      </trkpt>
      <trkpt lat="42.5095800" lon="-7.2389160">
        <ele>622.1</ele>
        <time>2014-10-02T09:47:38Z</time>
      </trkpt>
      <trkpt lat="42.5096100" lon="-7.2389220">
        <ele>622.3</ele>
        <time>2014-10-02T09:47:39Z</time>
      </trkpt>
      <trkpt lat="42.5096410" lon="-7.2389320">
        <ele>622.5</ele>
        <time>2014-10-02T09:47:40Z</time>
      </trkpt>
      <trkpt lat="42.5096720" lon="-7.2389420">
        <ele>622.7</ele>
        <time>2014-10-02T09:47:41Z</time>
      </trkpt>
      <trkpt lat="42.5097010" lon="-7.2389510">
        <ele>622.9</ele>
        <time>2014-10-02T09:47:42Z</time>
      </trkpt>
      <trkpt lat="42.5097300" lon="-7.2389630">
        <ele>623.1</ele>
        <time>2014-10-02T09:47:43Z</time>
      </trkpt>
      <trkpt lat="42.5097590" lon="-7.2389730">
        <ele>623.3</ele>
        <time>2014-10-02T09:47:44Z</time>
      </trkpt>
      <trkpt lat="42.5097890" lon="-7.2389820">
        <ele>623.5</ele>
        <time>2014-10-02T09:47:45Z</time>
      </trkpt>
      <trkpt lat="42.5098180" lon="-7.2389940">
        <ele>623.7</ele>
        <time>2014-10-02T09:47:46Z</time>
      </trkpt>
      <trkpt lat="42.5098450" lon="-7.2390070">
        <ele>624.0</ele>
        <time>2014-10-02T09:47:47Z</time>
      </trkpt>
      <trkpt lat="42.5098750" lon="-7.2390220">
        <ele>624.3</ele>
        <time>2014-10-02T09:47:48Z</time>
      </trkpt>
      <trkpt lat="42.5099050" lon="-7.2390380">
        <ele>624.6</ele>
        <time>2014-10-02T09:47:49Z</time>
      </trkpt>
      <trkpt lat="42.5099320" lon="-7.2390510">
        <ele>624.9</ele>
        <time>2014-10-02T09:47:50Z</time>
      </trkpt>
      <trkpt lat="42.5099620" lon="-7.2390660">
        <ele>625.2</ele>
        <time>2014-10-02T09:47:51Z</time>
      </trkpt>
      <trkpt lat="42.5099900" lon="-7.2390830">
        <ele>625.5</ele>
        <time>2014-10-02T09:47:52Z</time>
      </trkpt>
      <trkpt lat="42.5100230" lon="-7.2391010">
        <ele>625.8</ele>
        <time>2014-10-02T09:47:53Z</time>
      </trkpt>
      <trkpt lat="42.5100540" lon="-7.2391200">
        <ele>626.1</ele>
        <time>2014-10-02T09:47:54Z</time>
      </trkpt>
      <trkpt lat="42.5100820" lon="-7.2391350">
        <ele>626.3</ele>
        <time>2014-10-02T09:47:55Z</time>
      </trkpt>
      <trkpt lat="42.5101300" lon="-7.2391540">
        <ele>626.6</ele>
        <time>2014-10-02T09:47:57Z</time>
      </trkpt>
      <trkpt lat="42.5101760" lon="-7.2391740">
        <ele>627.0</ele>
        <time>2014-10-02T09:47:59Z</time>
      </trkpt>
      <trkpt lat="42.5102100" lon="-7.2391860">
        <ele>627.2</ele>
        <time>2014-10-02T09:48:00Z</time>
      </trkpt>
      <trkpt lat="42.5102460" lon="-7.2392010">
        <ele>627.5</ele>
        <time>2014-10-02T09:48:01Z</time>
      </trkpt>
      <trkpt lat="42.5102800" lon="-7.2392170">
        <ele>627.7</ele>
        <time>2014-10-02T09:48:02Z</time>
      </trkpt>
      <trkpt lat="42.5103150" lon="-7.2392350">
        <ele>627.9</ele>
        <time>2014-10-02T09:48:03Z</time>
      </trkpt>
      <trkpt lat="42.5103490" lon="-7.2392540">
        <ele>628.2</ele>
        <time>2014-10-02T09:48:04Z</time>
      </trkpt>
      <trkpt lat="42.5103790" lon="-7.2392720">
        <ele>628.4</ele>
        <time>2014-10-02T09:48:05Z</time>
      </trkpt>
      <trkpt lat="42.5104090" lon="-7.2392880">
        <ele>628.6</ele>
        <time>2014-10-02T09:48:06Z</time>
      </trkpt>
      <trkpt lat="42.5104450" lon="-7.2393070">
        <ele>628.9</ele>
        <time>2014-10-02T09:48:07Z</time>
      </trkpt>
      <trkpt lat="42.5104840" lon="-7.2393290">
        <ele>629.3</ele>
        <time>2014-10-02T09:48:08Z</time>
      </trkpt>
      <trkpt lat="42.5105250" lon="-7.2393430">
        <ele>629.6</ele>
        <time>2014-10-02T09:48:09Z</time>
      </trkpt>
      <trkpt lat="42.5105640" lon="-7.2393570">
        <ele>629.9</ele>
        <time>2014-10-02T09:48:10Z</time>
      </trkpt>
      <trkpt lat="42.5106020" lon="-7.2393680">
        <ele>630.1</ele>
        <time>2014-10-02T09:48:11Z</time>
      </trkpt>
      <trkpt lat="42.5106370" lon="-7.2393780">
        <ele>630.3</ele>
        <time>2014-10-02T09:48:12Z</time>
      </trkpt>
      <trkpt lat="42.5106710" lon="-7.2393860">
        <ele>630.5</ele>
        <time>2014-10-02T09:48:13Z</time>
      </trkpt>
      <trkpt lat="42.5107060" lon="-7.2393940">
        <ele>630.7</ele>
        <time>2014-10-02T09:48:14Z</time>
      </trkpt>
      <trkpt lat="42.5107430" lon="-7.2394010">
        <ele>631.0</ele>
        <time>2014-10-02T09:48:15Z</time>
      </trkpt>
      <trkpt lat="42.5107770" lon="-7.2394040">
        <ele>631.2</ele>
        <time>2014-10-02T09:48:16Z</time>
      </trkpt>
      <trkpt lat="42.5108130" lon="-7.2394050">
        <ele>631.4</ele>
        <time>2014-10-02T09:48:17Z</time>
      </trkpt>
      <trkpt lat="42.5108470" lon="-7.2394020">
        <ele>631.7</ele>
        <time>2014-10-02T09:48:18Z</time>
      </trkpt>
      <trkpt lat="42.5108770" lon="-7.2393990">
        <ele>631.9</ele>
        <time>2014-10-02T09:48:19Z</time>
      </trkpt>
      <trkpt lat="42.5109110" lon="-7.2393920">
        <ele>632.1</ele>
        <time>2014-10-02T09:48:20Z</time>
      </trkpt>
      <trkpt lat="42.5109440" lon="-7.2393860">
        <ele>632.3</ele>
        <time>2014-10-02T09:48:21Z</time>
      </trkpt>
      <trkpt lat="42.5109740" lon="-7.2393780">
        <ele>632.5</ele>
        <time>2014-10-02T09:48:22Z</time>
      </trkpt>
      <trkpt lat="42.5110080" lon="-7.2393670">
        <ele>632.7</ele>
        <time>2014-10-02T09:48:23Z</time>
      </trkpt>
      <trkpt lat="42.5110440" lon="-7.2393510">
        <ele>633.0</ele>
        <time>2014-10-02T09:48:24Z</time>
      </trkpt>
      <trkpt lat="42.5110760" lon="-7.2393360">
        <ele>633.2</ele>
        <time>2014-10-02T09:48:25Z</time>
      </trkpt>
      <trkpt lat="42.5111060" lon="-7.2393190">
        <ele>633.4</ele>
        <time>2014-10-02T09:48:26Z</time>
      </trkpt>
      <trkpt lat="42.5111360" lon="-7.2392990">
        <ele>633.6</ele>
        <time>2014-10-02T09:48:27Z</time>
      </trkpt>
      <trkpt lat="42.5111670" lon="-7.2392780">
        <ele>633.7</ele>
        <time>2014-10-02T09:48:28Z</time>
      </trkpt>
      <trkpt lat="42.5111990" lon="-7.2392540">
        <ele>633.8</ele>
        <time>2014-10-02T09:48:29Z</time>
      </trkpt>
      <trkpt lat="42.5112310" lon="-7.2392290">
        <ele>633.8</ele>
        <time>2014-10-02T09:48:30Z</time>
      </trkpt>
      <trkpt lat="42.5112610" lon="-7.2392030">
        <ele>634.0</ele>
        <time>2014-10-02T09:48:31Z</time>
      </trkpt>
      <trkpt lat="42.5112900" lon="-7.2391750">
        <ele>634.2</ele>
        <time>2014-10-02T09:48:32Z</time>
      </trkpt>
      <trkpt lat="42.5113170" lon="-7.2391450">
        <ele>634.4</ele>
        <time>2014-10-02T09:48:33Z</time>
      </trkpt>
      <trkpt lat="42.5113450" lon="-7.2391110">
        <ele>634.6</ele>
        <time>2014-10-02T09:48:34Z</time>
      </trkpt>
      <trkpt lat="42.5113720" lon="-7.2390790">
        <ele>634.8</ele>
        <time>2014-10-02T09:48:35Z</time>
      </trkpt>
      <trkpt lat="42.5113980" lon="-7.2390450">
        <ele>635.0</ele>
        <time>2014-10-02T09:48:36Z</time>
      </trkpt>
      <trkpt lat="42.5114270" lon="-7.2390070">
        <ele>635.3</ele>
        <time>2014-10-02T09:48:37Z</time>
      </trkpt>
      <trkpt lat="42.5114520" lon="-7.2389690">
        <ele>635.5</ele>
        <time>2014-10-02T09:48:38Z</time>
      </trkpt>
      <trkpt lat="42.5114740" lon="-7.2389310">
        <ele>635.7</ele>
        <time>2014-10-02T09:48:39Z</time>
      </trkpt>
      <trkpt lat="42.5114890" lon="-7.2388980">
        <ele>635.9</ele>
        <time>2014-10-02T09:48:40Z</time>
      </trkpt>
      <trkpt lat="42.5115040" lon="-7.2388640">
        <ele>636.0</ele>
        <time>2014-10-02T09:48:41Z</time>
      </trkpt>
      <trkpt lat="42.5115200" lon="-7.2388230">
        <ele>636.2</ele>
        <time>2014-10-02T09:48:42Z</time>
      </trkpt>
      <trkpt lat="42.5115360" lon="-7.2387810">
        <ele>636.4</ele>
        <time>2014-10-02T09:48:43Z</time>
      </trkpt>
      <trkpt lat="42.5115520" lon="-7.2387370">
        <ele>636.7</ele>
        <time>2014-10-02T09:48:44Z</time>
      </trkpt>
      <trkpt lat="42.5115660" lon="-7.2386950">
        <ele>636.9</ele>
        <time>2014-10-02T09:48:45Z</time>
      </trkpt>
      <trkpt lat="42.5115760" lon="-7.2386520">
        <ele>637.1</ele>
        <time>2014-10-02T09:48:46Z</time>
      </trkpt>
      <trkpt lat="42.5115860" lon="-7.2386090">
        <ele>637.3</ele>
        <time>2014-10-02T09:48:47Z</time>
      </trkpt>
      <trkpt lat="42.5115960" lon="-7.2385640">
        <ele>637.5</ele>
        <time>2014-10-02T09:48:48Z</time>
      </trkpt>
      <trkpt lat="42.5116060" lon="-7.2385140">
        <ele>637.8</ele>
        <time>2014-10-02T09:48:49Z</time>
      </trkpt>
      <trkpt lat="42.5116120" lon="-7.2384660">
        <ele>638.0</ele>
        <time>2014-10-02T09:48:50Z</time>
      </trkpt>
      <trkpt lat="42.5116180" lon="-7.2384240">
        <ele>638.2</ele>
        <time>2014-10-02T09:48:51Z</time>
      </trkpt>
      <trkpt lat="42.5116220" lon="-7.2383790">
        <ele>638.5</ele>
        <time>2014-10-02T09:48:52Z</time>
      </trkpt>
      <trkpt lat="42.5116260" lon="-7.2383320">
        <ele>638.7</ele>
        <time>2014-10-02T09:48:53Z</time>
      </trkpt>
      <trkpt lat="42.5116300" lon="-7.2382840">
        <ele>639.0</ele>
        <time>2014-10-02T09:48:54Z</time>
      </trkpt>
      <trkpt lat="42.5116340" lon="-7.2382350">
        <ele>639.2</ele>
        <time>2014-10-02T09:48:55Z</time>
      </trkpt>
      <trkpt lat="42.5116380" lon="-7.2381860">
        <ele>639.5</ele>
        <time>2014-10-02T09:48:56Z</time>
      </trkpt>
      <trkpt lat="42.5116400" lon="-7.2381390">
        <ele>639.7</ele>
        <time>2014-10-02T09:48:57Z</time>
      </trkpt>
      <trkpt lat="42.5116410" lon="-7.2380910">
        <ele>640.0</ele>
        <time>2014-10-02T09:48:58Z</time>
      </trkpt>
      <trkpt lat="42.5116400" lon="-7.2380420">
        <ele>640.2</ele>
        <time>2014-10-02T09:48:59Z</time>
      </trkpt>
      <trkpt lat="42.5116390" lon="-7.2379930">
        <ele>640.5</ele>
        <time>2014-10-02T09:49:00Z</time>
      </trkpt>
      <trkpt lat="42.5116400" lon="-7.2379430">
        <ele>640.7</ele>
        <time>2014-10-02T09:49:01Z</time>
      </trkpt>
      <trkpt lat="42.5116420" lon="-7.2378940">
        <ele>641.0</ele>
        <time>2014-10-02T09:49:02Z</time>
      </trkpt>
      <trkpt lat="42.5116420" lon="-7.2378450">
        <ele>641.3</ele>
        <time>2014-10-02T09:49:03Z</time>
      </trkpt>
      <trkpt lat="42.5116430" lon="-7.2377940">
        <ele>641.5</ele>
        <time>2014-10-02T09:49:04Z</time>
      </trkpt>
      <trkpt lat="42.5116450" lon="-7.2377460">
        <ele>641.7</ele>
        <time>2014-10-02T09:49:05Z</time>
      </trkpt>
      <trkpt lat="42.5116450" lon="-7.2376890">
        <ele>642.0</ele>
        <time>2014-10-02T09:49:06Z</time>
      </trkpt>
      <trkpt lat="42.5116430" lon="-7.2376330">
        <ele>642.3</ele>
        <time>2014-10-02T09:49:07Z</time>
      </trkpt>
      <trkpt lat="42.5116450" lon="-7.2375860">
        <ele>642.5</ele>
        <time>2014-10-02T09:49:08Z</time>
      </trkpt>
      <trkpt lat="42.5116440" lon="-7.2375360">
        <ele>642.7</ele>
        <time>2014-10-02T09:49:09Z</time>
      </trkpt>
      <trkpt lat="42.5116430" lon="-7.2374880">
        <ele>643.0</ele>
        <time>2014-10-02T09:49:10Z</time>
      </trkpt>
      <trkpt lat="42.5116440" lon="-7.2374420">
        <ele>643.2</ele>
        <time>2014-10-02T09:49:11Z</time>
      </trkpt>
      <trkpt lat="42.5116430" lon="-7.2373950">
        <ele>643.4</ele>
        <time>2014-10-02T09:49:12Z</time>
      </trkpt>
      <trkpt lat="42.5116420" lon="-7.2373480">
        <ele>643.7</ele>
        <time>2014-10-02T09:49:13Z</time>
      </trkpt>
      <trkpt lat="42.5116430" lon="-7.2373010">
        <ele>643.9</ele>
        <time>2014-10-02T09:49:14Z</time>
      </trkpt>
      <trkpt lat="42.5116450" lon="-7.2372530">
        <ele>644.2</ele>
        <time>2014-10-02T09:49:15Z</time>
      </trkpt>
      <trkpt lat="42.5116480" lon="-7.2372060">
        <ele>644.4</ele>
        <time>2014-10-02T09:49:16Z</time>
      </trkpt>
      <trkpt lat="42.5116510" lon="-7.2371630">
        <ele>644.6</ele>
        <time>2014-10-02T09:49:17Z</time>
      </trkpt>
      <trkpt lat="42.5116550" lon="-7.2371150">
        <ele>644.9</ele>
        <time>2014-10-02T09:49:18Z</time>
      </trkpt>
      <trkpt lat="42.5116580" lon="-7.2370630">
        <ele>645.1</ele>
        <time>2014-10-02T09:49:19Z</time>
      </trkpt>
      <trkpt lat="42.5116590" lon="-7.2370110">
        <ele>645.4</ele>
        <time>2014-10-02T09:49:20Z</time>
      </trkpt>
      <trkpt lat="42.5116600" lon="-7.2369630">
        <ele>645.7</ele>
        <time>2014-10-02T09:49:21Z</time>
      </trkpt>
      <trkpt lat="42.5116600" lon="-7.2369160">
        <ele>645.9</ele>
        <time>2014-10-02T09:49:22Z</time>
      </trkpt>
      <trkpt lat="42.5116630" lon="-7.2368690">
        <ele>646.1</ele>
        <time>2014-10-02T09:49:23Z</time>
      </trkpt>
      <trkpt lat="42.5116680" lon="-7.2368230">
        <ele>646.3</ele>
        <time>2014-10-02T09:49:24Z</time>
      </trkpt>
      <trkpt lat="42.5116720" lon="-7.2367740">
        <ele>646.6</ele>
        <time>2014-10-02T09:49:25Z</time>
      </trkpt>
      <trkpt lat="42.5116750" lon="-7.2367250">
        <ele>646.8</ele>
        <time>2014-10-02T09:49:26Z</time>
      </trkpt>
      <trkpt lat="42.5116790" lon="-7.2366830">
        <ele>647.0</ele>
        <time>2014-10-02T09:49:27Z</time>
      </trkpt>
      <trkpt lat="42.5116820" lon="-7.2366370">
        <ele>647.2</ele>
        <time>2014-10-02T09:49:28Z</time>
      </trkpt>
      <trkpt lat="42.5116850" lon="-7.2365880">
        <ele>647.5</ele>
        <time>2014-10-02T09:49:29Z</time>
      </trkpt>
      <trkpt lat="42.5116880" lon="-7.2365470">
        <ele>647.7</ele>
        <time>2014-10-02T09:49:30Z</time>
      </trkpt>
      <trkpt lat="42.5116910" lon="-7.2365010">
        <ele>647.9</ele>
        <time>2014-10-02T09:49:31Z</time>
      </trkpt>
      <trkpt lat="42.5116930" lon="-7.2364520">
        <ele>648.1</ele>
        <time>2014-10-02T09:49:32Z</time>
      </trkpt>
      <trkpt lat="42.5116940" lon="-7.2363980">
        <ele>648.3</ele>
        <time>2014-10-02T09:49:33Z</time>
      </trkpt>
      <trkpt lat="42.5116960" lon="-7.2363470">
        <ele>648.6</ele>
        <time>2014-10-02T09:49:34Z</time>
      </trkpt>
      <trkpt lat="42.5116980" lon="-7.2363000">
        <ele>648.8</ele>
        <time>2014-10-02T09:49:35Z</time>
      </trkpt>
      <trkpt lat="42.5117040" lon="-7.2362500">
        <ele>649.0</ele>
        <time>2014-10-02T09:49:36Z</time>
      </trkpt>
      <trkpt lat="42.5117100" lon="-7.2362010">
        <ele>649.3</ele>
        <time>2014-10-02T09:49:37Z</time>
      </trkpt>
      <trkpt lat="42.5117160" lon="-7.2361540">
        <ele>649.5</ele>
        <time>2014-10-02T09:49:38Z</time>
      </trkpt>
      <trkpt lat="42.5117200" lon="-7.2361070">
        <ele>649.8</ele>
        <time>2014-10-02T09:49:39Z</time>
      </trkpt>
      <trkpt lat="42.5117260" lon="-7.2360610">
        <ele>650.0</ele>
        <time>2014-10-02T09:49:40Z</time>
      </trkpt>
      <trkpt lat="42.5117310" lon="-7.2360180">
        <ele>650.3</ele>
        <time>2014-10-02T09:49:41Z</time>
      </trkpt>
      <trkpt lat="42.5117370" lon="-7.2359750">
        <ele>650.6</ele>
        <time>2014-10-02T09:49:42Z</time>
      </trkpt>
      <trkpt lat="42.5117470" lon="-7.2359280">
        <ele>650.8</ele>
        <time>2014-10-02T09:49:43Z</time>
      </trkpt>
      <trkpt lat="42.5117570" lon="-7.2358840">
        <ele>651.1</ele>
        <time>2014-10-02T09:49:44Z</time>
      </trkpt>
      <trkpt lat="42.5117730" lon="-7.2358340">
        <ele>651.4</ele>
        <time>2014-10-02T09:49:45Z</time>
      </trkpt>
      <trkpt lat="42.5117880" lon="-7.2357890">
        <ele>651.7</ele>
        <time>2014-10-02T09:49:46Z</time>
      </trkpt>
      <trkpt lat="42.5118020" lon="-7.2357510">
        <ele>651.9</ele>
        <time>2014-10-02T09:49:47Z</time>
      </trkpt>
      <trkpt lat="42.5118200" lon="-7.2357130">
        <ele>652.1</ele>
        <time>2014-10-02T09:49:48Z</time>
      </trkpt>
      <trkpt lat="42.5118370" lon="-7.2356780">
        <ele>652.4</ele>
        <time>2014-10-02T09:49:49Z</time>
      </trkpt>
      <trkpt lat="42.5118550" lon="-7.2356470">
        <ele>652.6</ele>
        <time>2014-10-02T09:49:50Z</time>
      </trkpt>
      <trkpt lat="42.5118720" lon="-7.2356190">
        <ele>652.8</ele>
        <time>2014-10-02T09:49:51Z</time>
      </trkpt>
      <trkpt lat="42.5118900" lon="-7.2355890">
        <ele>653.0</ele>
        <time>2014-10-02T09:49:52Z</time>
      </trkpt>
      <trkpt lat="42.5119130" lon="-7.2355540">
        <ele>653.3</ele>
        <time>2014-10-02T09:49:53Z</time>
      </trkpt>
      <trkpt lat="42.5119360" lon="-7.2355220">
        <ele>653.5</ele>
        <time>2014-10-02T09:49:54Z</time>
      </trkpt>
      <trkpt lat="42.5119590" lon="-7.2354910">
        <ele>653.8</ele>
        <time>2014-10-02T09:49:55Z</time>
      </trkpt>
      <trkpt lat="42.5119830" lon="-7.2354610">
        <ele>654.1</ele>
        <time>2014-10-02T09:49:56Z</time>
      </trkpt>
      <trkpt lat="42.5120050" lon="-7.2354400">
        <ele>654.3</ele>
        <time>2014-10-02T09:49:57Z</time>
      </trkpt>
      <trkpt lat="42.5120280" lon="-7.2354170">
        <ele>654.5</ele>
        <time>2014-10-02T09:49:58Z</time>
      </trkpt>
      <trkpt lat="42.5120520" lon="-7.2353940">
        <ele>654.7</ele>
        <time>2014-10-02T09:49:59Z</time>
      </trkpt>
      <trkpt lat="42.5120790" lon="-7.2353700">
        <ele>655.0</ele>
        <time>2014-10-02T09:50:00Z</time>
      </trkpt>
      <trkpt lat="42.5121030" lon="-7.2353510">
        <ele>655.3</ele>
        <time>2014-10-02T09:50:01Z</time>
      </trkpt>
      <trkpt lat="42.5121310" lon="-7.2353320">
        <ele>655.5</ele>
        <time>2014-10-02T09:50:02Z</time>
      </trkpt>
      <trkpt lat="42.5121570" lon="-7.2353130">
        <ele>655.8</ele>
        <time>2014-10-02T09:50:03Z</time>
      </trkpt>
      <trkpt lat="42.5121850" lon="-7.2352990">
        <ele>656.0</ele>
        <time>2014-10-02T09:50:04Z</time>
      </trkpt>
      <trkpt lat="42.5122150" lon="-7.2352840">
        <ele>656.3</ele>
        <time>2014-10-02T09:50:05Z</time>
      </trkpt>
      <trkpt lat="42.5122450" lon="-7.2352730">
        <ele>656.6</ele>
        <time>2014-10-02T09:50:06Z</time>
      </trkpt>
      <trkpt lat="42.5122760" lon="-7.2352660">
        <ele>656.9</ele>
        <time>2014-10-02T09:50:07Z</time>
      </trkpt>
      <trkpt lat="42.5123030" lon="-7.2352570">
        <ele>657.2</ele>
        <time>2014-10-02T09:50:08Z</time>
      </trkpt>
      <trkpt lat="42.5123310" lon="-7.2352420">
        <ele>657.4</ele>
        <time>2014-10-02T09:50:09Z</time>
      </trkpt>
      <trkpt lat="42.5123590" lon="-7.2352290">
        <ele>657.7</ele>
        <time>2014-10-02T09:50:10Z</time>
      </trkpt>
      <trkpt lat="42.5123890" lon="-7.2352230">
        <ele>658.0</ele>
        <time>2014-10-02T09:50:11Z</time>
      </trkpt>
      <trkpt lat="42.5124420" lon="-7.2352260">
        <ele>658.6</ele>
        <time>2014-10-02T09:50:13Z</time>
      </trkpt>
      <trkpt lat="42.5124720" lon="-7.2352270">
        <ele>658.8</ele>
        <time>2014-10-02T09:50:14Z</time>
      </trkpt>
      <trkpt lat="42.5125050" lon="-7.2352280">
        <ele>659.1</ele>
        <time>2014-10-02T09:50:15Z</time>
      </trkpt>
      <trkpt lat="42.5125430" lon="-7.2352300">
        <ele>659.4</ele>
        <time>2014-10-02T09:50:16Z</time>
      </trkpt>
      <trkpt lat="42.5125800" lon="-7.2352360">
        <ele>659.7</ele>
        <time>2014-10-02T09:50:17Z</time>
      </trkpt>
      <trkpt lat="42.5126150" lon="-7.2352460">
        <ele>660.0</ele>
        <time>2014-10-02T09:50:18Z</time>
      </trkpt>
      <trkpt lat="42.5126500" lon="-7.2352580">
        <ele>660.3</ele>
        <time>2014-10-02T09:50:19Z</time>
      </trkpt>
      <trkpt lat="42.5126780" lon="-7.2352710">
        <ele>660.6</ele>
        <time>2014-10-02T09:50:20Z</time>
      </trkpt>
      <trkpt lat="42.5127290" lon="-7.2352900">
        <ele>661.0</ele>
        <time>2014-10-02T09:50:22Z</time>
      </trkpt>
      <trkpt lat="42.5127580" lon="-7.2353040">
        <ele>661.3</ele>
        <time>2014-10-02T09:50:23Z</time>
      </trkpt>
      <trkpt lat="42.5127870" lon="-7.2353190">
        <ele>661.6</ele>
        <time>2014-10-02T09:50:24Z</time>
      </trkpt>
      <trkpt lat="42.5128350" lon="-7.2353430">
        <ele>662.1</ele>
        <time>2014-10-02T09:50:26Z</time>
      </trkpt>
      <trkpt lat="42.5128830" lon="-7.2353690">
        <ele>662.6</ele>
        <time>2014-10-02T09:50:28Z</time>
      </trkpt>
      <trkpt lat="42.5129120" lon="-7.2353840">
        <ele>662.9</ele>
        <time>2014-10-02T09:50:29Z</time>
      </trkpt>
      <trkpt lat="42.5129390" lon="-7.2353960">
        <ele>663.2</ele>
        <time>2014-10-02T09:50:30Z</time>
      </trkpt>
      <trkpt lat="42.5129670" lon="-7.2354120">
        <ele>663.4</ele>
        <time>2014-10-02T09:50:31Z</time>
      </trkpt>
      <trkpt lat="42.5129940" lon="-7.2354270">
        <ele>663.7</ele>
        <time>2014-10-02T09:50:32Z</time>
      </trkpt>
      <trkpt lat="42.5130200" lon="-7.2354410">
        <ele>664.0</ele>
        <time>2014-10-02T09:50:33Z</time>
      </trkpt>
      <trkpt lat="42.5130470" lon="-7.2354550">
        <ele>664.2</ele>
        <time>2014-10-02T09:50:34Z</time>
      </trkpt>
      <trkpt lat="42.5130750" lon="-7.2354690">
        <ele>664.5</ele>
        <time>2014-10-02T09:50:35Z</time>
      </trkpt>
      <trkpt lat="42.5131030" lon="-7.2354840">
        <ele>664.8</ele>
        <time>2014-10-02T09:50:36Z</time>
      </trkpt>
      <trkpt lat="42.5131350" lon="-7.2355030">
        <ele>665.1</ele>
        <time>2014-10-02T09:50:37Z</time>
      </trkpt>
      <trkpt lat="42.5131620" lon="-7.2355210">
        <ele>665.4</ele>
        <time>2014-10-02T09:50:38Z</time>
      </trkpt>
      <trkpt lat="42.5131900" lon="-7.2355400">
        <ele>665.7</ele>
        <time>2014-10-02T09:50:39Z</time>
      </trkpt>
      <trkpt lat="42.5132170" lon="-7.2355590">
        <ele>666.0</ele>
        <time>2014-10-02T09:50:40Z</time>
      </trkpt>
      <trkpt lat="42.5132440" lon="-7.2355730">
        <ele>666.3</ele>
        <time>2014-10-02T09:50:41Z</time>
      </trkpt>
      <trkpt lat="42.5132720" lon="-7.2355890">
        <ele>666.6</ele>
        <time>2014-10-02T09:50:42Z</time>
      </trkpt>
      <trkpt lat="42.5133010" lon="-7.2356040">
        <ele>666.8</ele>
        <time>2014-10-02T09:50:43Z</time>
      </trkpt>
      <trkpt lat="42.5133290" lon="-7.2356180">
        <ele>667.1</ele>
        <time>2014-10-02T09:50:44Z</time>
      </trkpt>
      <trkpt lat="42.5133590" lon="-7.2356320">
        <ele>667.3</ele>
        <time>2014-10-02T09:50:45Z</time>
      </trkpt>
      <trkpt lat="42.5133880" lon="-7.2356450">
        <ele>667.6</ele>
        <time>2014-10-02T09:50:46Z</time>
      </trkpt>
      <trkpt lat="42.5134170" lon="-7.2356570">
        <ele>667.9</ele>
        <time>2014-10-02T09:50:47Z</time>
      </trkpt>
      <trkpt lat="42.5134450" lon="-7.2356670">
        <ele>668.1</ele>
        <time>2014-10-02T09:50:48Z</time>
      </trkpt>
      <trkpt lat="42.5134730" lon="-7.2356780">
        <ele>668.4</ele>
        <time>2014-10-02T09:50:49Z</time>
      </trkpt>
      <trkpt lat="42.5135200" lon="-7.2356990">
        <ele>668.8</ele>
        <time>2014-10-02T09:50:51Z</time>
      </trkpt>
      <trkpt lat="42.5135650" lon="-7.2357230">
        <ele>669.3</ele>
        <time>2014-10-02T09:50:53Z</time>
      </trkpt>
      <trkpt lat="42.5136090" lon="-7.2357470">
        <ele>669.8</ele>
        <time>2014-10-02T09:50:55Z</time>
      </trkpt>
      <trkpt lat="42.5136340" lon="-7.2357600">
        <ele>670.0</ele>
        <time>2014-10-02T09:50:56Z</time>
      </trkpt>
      <trkpt lat="42.5136620" lon="-7.2357760">
        <ele>670.3</ele>
        <time>2014-10-02T09:50:57Z</time>
      </trkpt>
      <trkpt lat="42.5137140" lon="-7.2358000">
        <ele>670.9</ele>
        <time>2014-10-02T09:50:59Z</time>
      </trkpt>
      <trkpt lat="42.5137430" lon="-7.2358120">
        <ele>671.2</ele>
        <time>2014-10-02T09:51:00Z</time>
      </trkpt>
      <trkpt lat="42.5137930" lon="-7.2358350">
        <ele>671.6</ele>
        <time>2014-10-02T09:51:02Z</time>
      </trkpt>
      <trkpt lat="42.5138440" lon="-7.2358530">
        <ele>672.1</ele>
        <time>2014-10-02T09:51:04Z</time>
      </trkpt>
      <trkpt lat="42.5138700" lon="-7.2358660">
        <ele>672.4</ele>
        <time>2014-10-02T09:51:05Z</time>
      </trkpt>
      <trkpt lat="42.5138970" lon="-7.2358780">
        <ele>672.6</ele>
        <time>2014-10-02T09:51:06Z</time>
      </trkpt>
      <trkpt lat="42.5139250" lon="-7.2358930">
        <ele>672.9</ele>
        <time>2014-10-02T09:51:07Z</time>
      </trkpt>
      <trkpt lat="42.5139530" lon="-7.2359070">
        <ele>673.2</ele>
        <time>2014-10-02T09:51:08Z</time>
      </trkpt>
      <trkpt lat="42.5139800" lon="-7.2359230">
        <ele>673.5</ele>
        <time>2014-10-02T09:51:09Z</time>
      </trkpt>
      <trkpt lat="42.5140070" lon="-7.2359390">
        <ele>673.8</ele>
        <time>2014-10-02T09:51:10Z</time>
      </trkpt>
      <trkpt lat="42.5140340" lon="-7.2359530">
        <ele>674.1</ele>
        <time>2014-10-02T09:51:11Z</time>
      </trkpt>
      <trkpt lat="42.5140600" lon="-7.2359670">
        <ele>674.4</ele>
        <time>2014-10-02T09:51:12Z</time>
      </trkpt>
      <trkpt lat="42.5141080" lon="-7.2359930">
        <ele>675.0</ele>
        <time>2014-10-02T09:51:14Z</time>
      </trkpt>
      <trkpt lat="42.5141540" lon="-7.2360160">
        <ele>675.5</ele>
        <time>2014-10-02T09:51:16Z</time>
      </trkpt>
      <trkpt lat="42.5142030" lon="-7.2360430">
        <ele>676.1</ele>
        <time>2014-10-02T09:51:18Z</time>
      </trkpt>
      <trkpt lat="42.5142460" lon="-7.2360710">
        <ele>676.6</ele>
        <time>2014-10-02T09:51:20Z</time>
      </trkpt>
      <trkpt lat="42.5142920" lon="-7.2360970">
        <ele>677.2</ele>
        <time>2014-10-02T09:51:22Z</time>
      </trkpt>
      <trkpt lat="42.5143400" lon="-7.2361220">
        <ele>677.8</ele>
        <time>2014-10-02T09:51:24Z</time>
      </trkpt>
      <trkpt lat="42.5143860" lon="-7.2361470">
        <ele>678.3</ele>
        <time>2014-10-02T09:51:26Z</time>
      </trkpt>
      <trkpt lat="42.5144360" lon="-7.2361700">
        <ele>678.9</ele>
        <time>2014-10-02T09:51:28Z</time>
      </trkpt>
      <trkpt lat="42.5144870" lon="-7.2361930">
        <ele>679.5</ele>
        <time>2014-10-02T09:51:30Z</time>
      </trkpt>
      <trkpt lat="42.5145350" lon="-7.2362140">
        <ele>680.0</ele>
        <time>2014-10-02T09:51:32Z</time>
      </trkpt>
      <trkpt lat="42.5145840" lon="-7.2362350">
        <ele>680.6</ele>
        <time>2014-10-02T09:51:34Z</time>
      </trkpt>
      <trkpt lat="42.5146320" lon="-7.2362560">
        <ele>681.1</ele>
        <time>2014-10-02T09:51:36Z</time>
      </trkpt>
      <trkpt lat="42.5146830" lon="-7.2362730">
        <ele>681.7</ele>
        <time>2014-10-02T09:51:38Z</time>
      </trkpt>
      <trkpt lat="42.5147330" lon="-7.2362950">
        <ele>682.3</ele>
        <time>2014-10-02T09:51:40Z</time>
      </trkpt>
      <trkpt lat="42.5147850" lon="-7.2363140">
        <ele>682.9</ele>
        <time>2014-10-02T09:51:42Z</time>
      </trkpt>
      <trkpt lat="42.5148290" lon="-7.2363290">
        <ele>683.5</ele>
        <time>2014-10-02T09:51:44Z</time>
      </trkpt>
      <trkpt lat="42.5148770" lon="-7.2363440">
        <ele>684.1</ele>
        <time>2014-10-02T09:51:46Z</time>
      </trkpt>
      <trkpt lat="42.5149260" lon="-7.2363560">
        <ele>685.0</ele>
        <time>2014-10-02T09:51:48Z</time>
      </trkpt>
      <trkpt lat="42.5149740" lon="-7.2363680">
        <ele>685.8</ele>
        <time>2014-10-02T09:51:50Z</time>
      </trkpt>
      <trkpt lat="42.5150210" lon="-7.2363780">
        <ele>686.6</ele>
        <time>2014-10-02T09:51:52Z</time>
      </trkpt>
      <trkpt lat="42.5150680" lon="-7.2363830">
        <ele>687.4</ele>
        <time>2014-10-02T09:51:54Z</time>
      </trkpt>
      <trkpt lat="42.5151170" lon="-7.2363890">
        <ele>688.2</ele>
        <time>2014-10-02T09:51:56Z</time>
      </trkpt>
      <trkpt lat="42.5151700" lon="-7.2363870">
        <ele>689.0</ele>
        <time>2014-10-02T09:51:58Z</time>
      </trkpt>
      <trkpt lat="42.5152230" lon="-7.2363800">
        <ele>689.8</ele>
        <time>2014-10-02T09:52:00Z</time>
      </trkpt>
      <trkpt lat="42.5152510" lon="-7.2363730">
        <ele>690.2</ele>
        <time>2014-10-02T09:52:01Z</time>
      </trkpt>
      <trkpt lat="42.5153020" lon="-7.2363590">
        <ele>691.0</ele>
        <time>2014-10-02T09:52:03Z</time>
      </trkpt>
      <trkpt lat="42.5153290" lon="-7.2363510">
        <ele>691.4</ele>
        <time>2014-10-02T09:52:04Z</time>
      </trkpt>
      <trkpt lat="42.5153550" lon="-7.2363410">
        <ele>691.8</ele>
        <time>2014-10-02T09:52:05Z</time>
      </trkpt>
      <trkpt lat="42.5154060" lon="-7.2363190">
        <ele>692.6</ele>
        <time>2014-10-02T09:52:07Z</time>
      </trkpt>
      <trkpt lat="42.5154320" lon="-7.2363060">
        <ele>693.0</ele>
        <time>2014-10-02T09:52:08Z</time>
      </trkpt>
      <trkpt lat="42.5154590" lon="-7.2362900">
        <ele>693.4</ele>
        <time>2014-10-02T09:52:09Z</time>
      </trkpt>
      <trkpt lat="42.5154820" lon="-7.2362710">
        <ele>693.8</ele>
        <time>2014-10-02T09:52:10Z</time>
      </trkpt>
      <trkpt lat="42.5155270" lon="-7.2362390">
        <ele>694.6</ele>
        <time>2014-10-02T09:52:12Z</time>
      </trkpt>
      <trkpt lat="42.5155700" lon="-7.2362070">
        <ele>695.3</ele>
        <time>2014-10-02T09:52:14Z</time>
      </trkpt>
      <trkpt lat="42.5156120" lon="-7.2361700">
        <ele>696.0</ele>
        <time>2014-10-02T09:52:16Z</time>
      </trkpt>
      <trkpt lat="42.5156370" lon="-7.2361480">
        <ele>696.4</ele>
        <time>2014-10-02T09:52:17Z</time>
      </trkpt>
      <trkpt lat="42.5156610" lon="-7.2361230">
        <ele>696.8</ele>
        <time>2014-10-02T09:52:18Z</time>
      </trkpt>
      <trkpt lat="42.5156840" lon="-7.2360970">
        <ele>697.2</ele>
        <time>2014-10-02T09:52:19Z</time>
      </trkpt>
      <trkpt lat="42.5157040" lon="-7.2360710">
        <ele>697.6</ele>
        <time>2014-10-02T09:52:20Z</time>
      </trkpt>
      <trkpt lat="42.5157250" lon="-7.2360430">
        <ele>698.0</ele>
        <time>2014-10-02T09:52:21Z</time>
      </trkpt>
      <trkpt lat="42.5157450" lon="-7.2360130">
        <ele>697.1</ele>
        <time>2014-10-02T09:52:22Z</time>
      </trkpt>
      <trkpt lat="42.5157650" lon="-7.2359780">
        <ele>695.2</ele>
        <time>2014-10-02T09:52:23Z</time>
      </trkpt>
      <trkpt lat="42.5157830" lon="-7.2359430">
        <ele>694.5</ele>
        <time>2014-10-02T09:52:24Z</time>
      </trkpt>
      <trkpt lat="42.5157990" lon="-7.2359050">
        <ele>694.7</ele>
        <time>2014-10-02T09:52:25Z</time>
      </trkpt>
      <trkpt lat="42.5158140" lon="-7.2358700">
        <ele>695.0</ele>
        <time>2014-10-02T09:52:26Z</time>
      </trkpt>
      <trkpt lat="42.5158280" lon="-7.2358340">
        <ele>695.2</ele>
        <time>2014-10-02T09:52:27Z</time>
      </trkpt>
      <trkpt lat="42.5158440" lon="-7.2357950">
        <ele>695.5</ele>
        <time>2014-10-02T09:52:28Z</time>
      </trkpt>
      <trkpt lat="42.5158590" lon="-7.2357540">
        <ele>695.7</ele>
        <time>2014-10-02T09:52:29Z</time>
      </trkpt>
      <trkpt lat="42.5158720" lon="-7.2357130">
        <ele>695.9</ele>
        <time>2014-10-02T09:52:30Z</time>
      </trkpt>
      <trkpt lat="42.5158830" lon="-7.2356720">
        <ele>696.2</ele>
        <time>2014-10-02T09:52:31Z</time>
      </trkpt>
      <trkpt lat="42.5158940" lon="-7.2356300">
        <ele>696.4</ele>
        <time>2014-10-02T09:52:32Z</time>
      </trkpt>
      <trkpt lat="42.5159030" lon="-7.2355870">
        <ele>696.6</ele>
        <time>2014-10-02T09:52:33Z</time>
      </trkpt>
      <trkpt lat="42.5159110" lon="-7.2355440">
        <ele>696.9</ele>
        <time>2014-10-02T09:52:34Z</time>
      </trkpt>
      <trkpt lat="42.5159180" lon="-7.2355000">
        <ele>697.1</ele>
        <time>2014-10-02T09:52:35Z</time>
      </trkpt>
      <trkpt lat="42.5159230" lon="-7.2354550">
        <ele>697.3</ele>
        <time>2014-10-02T09:52:36Z</time>
      </trkpt>
      <trkpt lat="42.5159270" lon="-7.2354090">
        <ele>697.6</ele>
        <time>2014-10-02T09:52:37Z</time>
      </trkpt>
      <trkpt lat="42.5159300" lon="-7.2353640">
        <ele>697.8</ele>
        <time>2014-10-02T09:52:38Z</time>
      </trkpt>
      <trkpt lat="42.5159290" lon="-7.2353170">
        <ele>698.1</ele>
        <time>2014-10-02T09:52:39Z</time>
      </trkpt>
      <trkpt lat="42.5159270" lon="-7.2352710">
        <ele>698.4</ele>
        <time>2014-10-02T09:52:40Z</time>
      </trkpt>
      <trkpt lat="42.5159240" lon="-7.2352250">
        <ele>698.6</ele>
        <time>2014-10-02T09:52:41Z</time>
      </trkpt>
      <trkpt lat="42.5159220" lon="-7.2351820">
        <ele>698.8</ele>
        <time>2014-10-02T09:52:42Z</time>
      </trkpt>
      <trkpt lat="42.5159200" lon="-7.2351380">
        <ele>699.1</ele>
        <time>2014-10-02T09:52:43Z</time>
      </trkpt>
      <trkpt lat="42.5159160" lon="-7.2350920">
        <ele>699.3</ele>
        <time>2014-10-02T09:52:44Z</time>
      </trkpt>
      <trkpt lat="42.5159110" lon="-7.2350450">
        <ele>699.6</ele>
        <time>2014-10-02T09:52:45Z</time>
      </trkpt>
      <trkpt lat="42.5159030" lon="-7.2349990">
        <ele>699.9</ele>
        <time>2014-10-02T09:52:46Z</time>
      </trkpt>
      <trkpt lat="42.5158980" lon="-7.2349550">
        <ele>700.1</ele>
        <time>2014-10-02T09:52:47Z</time>
      </trkpt>
      <trkpt lat="42.5158900" lon="-7.2349130">
        <ele>700.4</ele>
        <time>2014-10-02T09:52:48Z</time>
      </trkpt>
      <trkpt lat="42.5158830" lon="-7.2348710">
        <ele>700.7</ele>
        <time>2014-10-02T09:52:49Z</time>
      </trkpt>
      <trkpt lat="42.5158750" lon="-7.2348310">
        <ele>700.9</ele>
        <time>2014-10-02T09:52:50Z</time>
      </trkpt>
      <trkpt lat="42.5158650" lon="-7.2347900">
        <ele>701.2</ele>
        <time>2014-10-02T09:52:51Z</time>
      </trkpt>
      <trkpt lat="42.5158560" lon="-7.2347470">
        <ele>701.4</ele>
        <time>2014-10-02T09:52:52Z</time>
      </trkpt>
      <trkpt lat="42.5158480" lon="-7.2347060">
        <ele>701.7</ele>
        <time>2014-10-02T09:52:53Z</time>
      </trkpt>
      <trkpt lat="42.5158400" lon="-7.2346640">
        <ele>702.0</ele>
        <time>2014-10-02T09:52:54Z</time>
      </trkpt>
      <trkpt lat="42.5158330" lon="-7.2346230">
        <ele>702.3</ele>
        <time>2014-10-02T09:52:55Z</time>
      </trkpt>
      <trkpt lat="42.5158250" lon="-7.2345830">
        <ele>702.5</ele>
        <time>2014-10-02T09:52:56Z</time>
      </trkpt>
      <trkpt lat="42.5158190" lon="-7.2345400">
        <ele>702.8</ele>
        <time>2014-10-02T09:52:57Z</time>
      </trkpt>
      <trkpt lat="42.5158110" lon="-7.2344970">
        <ele>703.1</ele>
        <time>2014-10-02T09:52:58Z</time>
      </trkpt>
      <trkpt lat="42.5158060" lon="-7.2344560">
        <ele>703.4</ele>
        <time>2014-10-02T09:52:59Z</time>
      </trkpt>
      <trkpt lat="42.5157980" lon="-7.2344160">
        <ele>703.6</ele>
        <time>2014-10-02T09:53:00Z</time>
      </trkpt>
      <trkpt lat="42.5157920" lon="-7.2343760">
        <ele>703.9</ele>
        <time>2014-10-02T09:53:01Z</time>
      </trkpt>
      <trkpt lat="42.5157860" lon="-7.2343360">
        <ele>704.2</ele>
        <time>2014-10-02T09:53:02Z</time>
      </trkpt>
      <trkpt lat="42.5157820" lon="-7.2342920">
        <ele>704.5</ele>
        <time>2014-10-02T09:53:03Z</time>
      </trkpt>
      <trkpt lat="42.5157770" lon="-7.2342490">
        <ele>704.7</ele>
        <time>2014-10-02T09:53:04Z</time>
      </trkpt>
      <trkpt lat="42.5157710" lon="-7.2342060">
        <ele>705.0</ele>
        <time>2014-10-02T09:53:05Z</time>
      </trkpt>
      <trkpt lat="42.5157660" lon="-7.2341630">
        <ele>705.3</ele>
        <time>2014-10-02T09:53:06Z</time>
      </trkpt>
      <trkpt lat="42.5157620" lon="-7.2341210">
        <ele>705.6</ele>
        <time>2014-10-02T09:53:07Z</time>
      </trkpt>
      <trkpt lat="42.5157590" lon="-7.2340790">
        <ele>705.9</ele>
        <time>2014-10-02T09:53:08Z</time>
      </trkpt>
      <trkpt lat="42.5157540" lon="-7.2340380">
        <ele>706.2</ele>
        <time>2014-10-02T09:53:09Z</time>
      </trkpt>
      <trkpt lat="42.5157520" lon="-7.2339970">
        <ele>706.5</ele>
        <time>2014-10-02T09:53:10Z</time>
      </trkpt>
      <trkpt lat="42.5157480" lon="-7.2339560">
        <ele>706.8</ele>
        <time>2014-10-02T09:53:11Z</time>
      </trkpt>
      <trkpt lat="42.5157450" lon="-7.2339150">
        <ele>707.0</ele>
        <time>2014-10-02T09:53:12Z</time>
      </trkpt>
      <trkpt lat="42.5157440" lon="-7.2338750">
        <ele>707.3</ele>
        <time>2014-10-02T09:53:13Z</time>
      </trkpt>
      <trkpt lat="42.5157420" lon="-7.2338350">
        <ele>707.6</ele>
        <time>2014-10-02T09:53:14Z</time>
      </trkpt>
      <trkpt lat="42.5157390" lon="-7.2337970">
        <ele>707.8</ele>
        <time>2014-10-02T09:53:15Z</time>
      </trkpt>
      <trkpt lat="42.5157360" lon="-7.2337600">
        <ele>708.1</ele>
        <time>2014-10-02T09:53:16Z</time>
      </trkpt>
      <trkpt lat="42.5157350" lon="-7.2336840">
        <ele>708.6</ele>
        <time>2014-10-02T09:53:18Z</time>
      </trkpt>
      <trkpt lat="42.5157350" lon="-7.2336440">
        <ele>708.9</ele>
        <time>2014-10-02T09:53:19Z</time>
      </trkpt>
      <trkpt lat="42.5157340" lon="-7.2336060">
        <ele>709.1</ele>
        <time>2014-10-02T09:53:20Z</time>
      </trkpt>
      <trkpt lat="42.5157330" lon="-7.2335650">
        <ele>709.4</ele>
        <time>2014-10-02T09:53:21Z</time>
      </trkpt>
      <trkpt lat="42.5157360" lon="-7.2335270">
        <ele>709.7</ele>
        <time>2014-10-02T09:53:22Z</time>
      </trkpt>
      <trkpt lat="42.5157360" lon="-7.2334570">
        <ele>710.2</ele>
        <time>2014-10-02T09:53:24Z</time>
      </trkpt>
      <trkpt lat="42.5157350" lon="-7.2334180">
        <ele>710.5</ele>
        <time>2014-10-02T09:53:25Z</time>
      </trkpt>
      <trkpt lat="42.5157380" lon="-7.2333480">
        <ele>711.0</ele>
        <time>2014-10-02T09:53:27Z</time>
      </trkpt>
      <trkpt lat="42.5157410" lon="-7.2333110">
        <ele>711.3</ele>
        <time>2014-10-02T09:53:28Z</time>
      </trkpt>
      <trkpt lat="42.5157410" lon="-7.2332730">
        <ele>711.5</ele>
        <time>2014-10-02T09:53:29Z</time>
      </trkpt>
      <trkpt lat="42.5157420" lon="-7.2332330">
        <ele>711.8</ele>
        <time>2014-10-02T09:53:30Z</time>
      </trkpt>
      <trkpt lat="42.5157420" lon="-7.2331630">
        <ele>712.3</ele>
        <time>2014-10-02T09:53:32Z</time>
      </trkpt>
      <trkpt lat="42.5157480" lon="-7.2330910">
        <ele>712.8</ele>
        <time>2014-10-02T09:53:34Z</time>
      </trkpt>
      <trkpt lat="42.5157550" lon="-7.2330170">
        <ele>713.3</ele>
        <time>2014-10-02T09:53:36Z</time>
      </trkpt>
      <trkpt lat="42.5157590" lon="-7.2329780">
        <ele>713.6</ele>
        <time>2014-10-02T09:53:37Z</time>
      </trkpt>
      <trkpt lat="42.5157680" lon="-7.2329060">
        <ele>714.2</ele>
        <time>2014-10-02T09:53:39Z</time>
      </trkpt>
      <trkpt lat="42.5157740" lon="-7.2328660">
        <ele>714.5</ele>
        <time>2014-10-02T09:53:40Z</time>
      </trkpt>
      <trkpt lat="42.5157810" lon="-7.2327980">
        <ele>715.0</ele>
        <time>2014-10-02T09:53:42Z</time>
      </trkpt>
      <trkpt lat="42.5157870" lon="-7.2327310">
        <ele>715.5</ele>
        <time>2014-10-02T09:53:44Z</time>
      </trkpt>
      <trkpt lat="42.5157920" lon="-7.2326920">
        <ele>715.8</ele>
        <time>2014-10-02T09:53:45Z</time>
      </trkpt>
      <trkpt lat="42.5157980" lon="-7.2326480">
        <ele>716.1</ele>
        <time>2014-10-02T09:53:46Z</time>
      </trkpt>
      <trkpt lat="42.5158040" lon="-7.2326010">
        <ele>716.4</ele>
        <time>2014-10-02T09:53:47Z</time>
      </trkpt>
      <trkpt lat="42.5158160" lon="-7.2325330">
        <ele>716.9</ele>
        <time>2014-10-02T09:53:49Z</time>
      </trkpt>
      <trkpt lat="42.5158250" lon="-7.2324870">
        <ele>717.2</ele>
        <time>2014-10-02T09:53:50Z</time>
      </trkpt>
      <trkpt lat="42.5158330" lon="-7.2324370">
        <ele>717.5</ele>
        <time>2014-10-02T09:53:51Z</time>
      </trkpt>
      <trkpt lat="42.5158430" lon="-7.2323830">
        <ele>717.9</ele>
        <time>2014-10-02T09:53:52Z</time>
      </trkpt>
      <trkpt lat="42.5158540" lon="-7.2323390">
        <ele>718.2</ele>
        <time>2014-10-02T09:53:53Z</time>
      </trkpt>
      <trkpt lat="42.5158630" lon="-7.2323000">
        <ele>718.4</ele>
        <time>2014-10-02T09:53:54Z</time>
      </trkpt>
      <trkpt lat="42.5158730" lon="-7.2322600">
        <ele>718.7</ele>
        <time>2014-10-02T09:53:55Z</time>
      </trkpt>
      <trkpt lat="42.5158850" lon="-7.2322220">
        <ele>719.0</ele>
        <time>2014-10-02T09:53:56Z</time>
      </trkpt>
      <trkpt lat="42.5158970" lon="-7.2321850">
        <ele>719.2</ele>
        <time>2014-10-02T09:53:57Z</time>
      </trkpt>
      <trkpt lat="42.5159090" lon="-7.2321490">
        <ele>719.5</ele>
        <time>2014-10-02T09:53:58Z</time>
      </trkpt>
      <trkpt lat="42.5159190" lon="-7.2321110">
        <ele>719.7</ele>
        <time>2014-10-02T09:53:59Z</time>
      </trkpt>
      <trkpt lat="42.5159290" lon="-7.2320760">
        <ele>720.0</ele>
        <time>2014-10-02T09:54:00Z</time>
      </trkpt>
      <trkpt lat="42.5159390" lon="-7.2320390">
        <ele>720.3</ele>
        <time>2014-10-02T09:54:01Z</time>
      </trkpt>
      <trkpt lat="42.5159490" lon="-7.2320010">
        <ele>720.5</ele>
        <time>2014-10-02T09:54:02Z</time>
      </trkpt>
      <trkpt lat="42.5159610" lon="-7.2319600">
        <ele>720.8</ele>
        <time>2014-10-02T09:54:03Z</time>
      </trkpt>
      <trkpt lat="42.5159740" lon="-7.2319200">
        <ele>721.1</ele>
        <time>2014-10-02T09:54:04Z</time>
      </trkpt>
      <trkpt lat="42.5159830" lon="-7.2318830">
        <ele>721.3</ele>
        <time>2014-10-02T09:54:05Z</time>
      </trkpt>
      <trkpt lat="42.5159930" lon="-7.2318460">
        <ele>721.6</ele>
        <time>2014-10-02T09:54:06Z</time>
      </trkpt>
      <trkpt lat="42.5160050" lon="-7.2318070">
        <ele>721.9</ele>
        <time>2014-10-02T09:54:07Z</time>
      </trkpt>
      <trkpt lat="42.5160170" lon="-7.2317620">
        <ele>722.2</ele>
        <time>2014-10-02T09:54:08Z</time>
      </trkpt>
      <trkpt lat="42.5160300" lon="-7.2317200">
        <ele>722.5</ele>
        <time>2014-10-02T09:54:09Z</time>
      </trkpt>
      <trkpt lat="42.5160440" lon="-7.2316800">
        <ele>722.7</ele>
        <time>2014-10-02T09:54:10Z</time>
      </trkpt>
      <trkpt lat="42.5160580" lon="-7.2316390">
        <ele>723.0</ele>
        <time>2014-10-02T09:54:11Z</time>
      </trkpt>
      <trkpt lat="42.5160700" lon="-7.2316010">
        <ele>723.3</ele>
        <time>2014-10-02T09:54:12Z</time>
      </trkpt>
      <trkpt lat="42.5160800" lon="-7.2315630">
        <ele>723.5</ele>
        <time>2014-10-02T09:54:13Z</time>
      </trkpt>
      <trkpt lat="42.5160910" lon="-7.2315260">
        <ele>723.8</ele>
        <time>2014-10-02T09:54:14Z</time>
      </trkpt>
      <trkpt lat="42.5161060" lon="-7.2314930">
        <ele>724.1</ele>
        <time>2014-10-02T09:54:15Z</time>
      </trkpt>
      <trkpt lat="42.5161200" lon="-7.2314590">
        <ele>724.3</ele>
        <time>2014-10-02T09:54:16Z</time>
      </trkpt>
      <trkpt lat="42.5161340" lon="-7.2314240">
        <ele>724.6</ele>
        <time>2014-10-02T09:54:17Z</time>
      </trkpt>
      <trkpt lat="42.5161510" lon="-7.2313830">
        <ele>724.9</ele>
        <time>2014-10-02T09:54:18Z</time>
      </trkpt>
      <trkpt lat="42.5161680" lon="-7.2313460">
        <ele>725.1</ele>
        <time>2014-10-02T09:54:19Z</time>
      </trkpt>
      <trkpt lat="42.5161860" lon="-7.2313070">
        <ele>725.4</ele>
        <time>2014-10-02T09:54:20Z</time>
      </trkpt>
      <trkpt lat="42.5162060" lon="-7.2312640">
        <ele>725.7</ele>
        <time>2014-10-02T09:54:21Z</time>
      </trkpt>
      <trkpt lat="42.5162230" lon="-7.2312270">
        <ele>726.0</ele>
        <time>2014-10-02T09:54:22Z</time>
      </trkpt>
      <trkpt lat="42.5162380" lon="-7.2311930">
        <ele>726.3</ele>
        <time>2014-10-02T09:54:23Z</time>
      </trkpt>
      <trkpt lat="42.5162540" lon="-7.2311580">
        <ele>726.5</ele>
        <time>2014-10-02T09:54:24Z</time>
      </trkpt>
      <trkpt lat="42.5162690" lon="-7.2311260">
        <ele>726.7</ele>
        <time>2014-10-02T09:54:25Z</time>
      </trkpt>
      <trkpt lat="42.5162840" lon="-7.2310910">
        <ele>727.0</ele>
        <time>2014-10-02T09:54:26Z</time>
      </trkpt>
      <trkpt lat="42.5163000" lon="-7.2310540">
        <ele>727.3</ele>
        <time>2014-10-02T09:54:27Z</time>
      </trkpt>
      <trkpt lat="42.5163190" lon="-7.2310160">
        <ele>727.5</ele>
        <time>2014-10-02T09:54:28Z</time>
      </trkpt>
      <trkpt lat="42.5163380" lon="-7.2309850">
        <ele>727.8</ele>
        <time>2014-10-02T09:54:29Z</time>
      </trkpt>
      <trkpt lat="42.5163590" lon="-7.2309550">
        <ele>728.1</ele>
        <time>2014-10-02T09:54:30Z</time>
      </trkpt>
      <trkpt lat="42.5163810" lon="-7.2309260">
        <ele>728.3</ele>
        <time>2014-10-02T09:54:31Z</time>
      </trkpt>
      <trkpt lat="42.5164040" lon="-7.2308970">
        <ele>728.6</ele>
        <time>2014-10-02T09:54:32Z</time>
      </trkpt>
      <trkpt lat="42.5164280" lon="-7.2308680">
        <ele>728.9</ele>
        <time>2014-10-02T09:54:33Z</time>
      </trkpt>
      <trkpt lat="42.5164520" lon="-7.2308350">
        <ele>729.2</ele>
        <time>2014-10-02T09:54:34Z</time>
      </trkpt>
      <trkpt lat="42.5164770" lon="-7.2308030">
        <ele>729.5</ele>
        <time>2014-10-02T09:54:35Z</time>
      </trkpt>
      <trkpt lat="42.5165040" lon="-7.2307700">
        <ele>729.8</ele>
        <time>2014-10-02T09:54:36Z</time>
      </trkpt>
      <trkpt lat="42.5165290" lon="-7.2307450">
        <ele>730.1</ele>
        <time>2014-10-02T09:54:37Z</time>
      </trkpt>
      <trkpt lat="42.5165540" lon="-7.2307220">
        <ele>730.4</ele>
        <time>2014-10-02T09:54:38Z</time>
      </trkpt>
      <trkpt lat="42.5165810" lon="-7.2306980">
        <ele>730.7</ele>
        <time>2014-10-02T09:54:39Z</time>
      </trkpt>
      <trkpt lat="42.5166120" lon="-7.2306710">
        <ele>731.0</ele>
        <time>2014-10-02T09:54:40Z</time>
      </trkpt>
      <trkpt lat="42.5166420" lon="-7.2306450">
        <ele>731.3</ele>
        <time>2014-10-02T09:54:41Z</time>
      </trkpt>
      <trkpt lat="42.5166700" lon="-7.2306150">
        <ele>731.7</ele>
        <time>2014-10-02T09:54:42Z</time>
      </trkpt>
      <trkpt lat="42.5167000" lon="-7.2305870">
        <ele>732.0</ele>
        <time>2014-10-02T09:54:43Z</time>
      </trkpt>
      <trkpt lat="42.5167270" lon="-7.2305630">
        <ele>732.3</ele>
        <time>2014-10-02T09:54:44Z</time>
      </trkpt>
      <trkpt lat="42.5167550" lon="-7.2305400">
        <ele>732.6</ele>
        <time>2014-10-02T09:54:45Z</time>
      </trkpt>
      <trkpt lat="42.5167820" lon="-7.2305260">
        <ele>732.9</ele>
        <time>2014-10-02T09:54:46Z</time>
      </trkpt>
      <trkpt lat="42.5168120" lon="-7.2305110">
        <ele>733.2</ele>
        <time>2014-10-02T09:54:47Z</time>
      </trkpt>
      <trkpt lat="42.5168420" lon="-7.2304950">
        <ele>733.5</ele>
        <time>2014-10-02T09:54:48Z</time>
      </trkpt>
      <trkpt lat="42.5168710" lon="-7.2304780">
        <ele>733.7</ele>
        <time>2014-10-02T09:54:49Z</time>
      </trkpt>
      <trkpt lat="42.5168990" lon="-7.2304630">
        <ele>734.0</ele>
        <time>2014-10-02T09:54:50Z</time>
      </trkpt>
      <trkpt lat="42.5169320" lon="-7.2304460">
        <ele>734.3</ele>
        <time>2014-10-02T09:54:51Z</time>
      </trkpt>
      <trkpt lat="42.5169580" lon="-7.2304290">
        <ele>734.6</ele>
        <time>2014-10-02T09:54:52Z</time>
      </trkpt>
      <trkpt lat="42.5169940" lon="-7.2304100">
        <ele>735.0</ele>
        <time>2014-10-02T09:54:53Z</time>
      </trkpt>
      <trkpt lat="42.5170320" lon="-7.2303910">
        <ele>735.3</ele>
        <time>2014-10-02T09:54:54Z</time>
      </trkpt>
      <trkpt lat="42.5170630" lon="-7.2303730">
        <ele>735.7</ele>
        <time>2014-10-02T09:54:55Z</time>
      </trkpt>
      <trkpt lat="42.5170960" lon="-7.2303590">
        <ele>736.0</ele>
        <time>2014-10-02T09:54:56Z</time>
      </trkpt>
      <trkpt lat="42.5171280" lon="-7.2303490">
        <ele>736.3</ele>
        <time>2014-10-02T09:54:57Z</time>
      </trkpt>
      <trkpt lat="42.5171620" lon="-7.2303320">
        <ele>736.6</ele>
        <time>2014-10-02T09:54:59Z</time>
      </trkpt>
      <trkpt lat="42.5172070" lon="-7.2303200">
        <ele>737.1</ele>
        <time>2014-10-02T09:55:01Z</time>
      </trkpt>
      <trkpt lat="42.5172330" lon="-7.2303090">
        <ele>737.3</ele>
        <time>2014-10-02T09:55:02Z</time>
      </trkpt>
      <trkpt lat="42.5172620" lon="-7.2303010">
        <ele>737.6</ele>
        <time>2014-10-02T09:55:03Z</time>
      </trkpt>
      <trkpt lat="42.5172910" lon="-7.2302940">
        <ele>737.9</ele>
        <time>2014-10-02T09:55:04Z</time>
      </trkpt>
      <trkpt lat="42.5173200" lon="-7.2302900">
        <ele>738.2</ele>
        <time>2014-10-02T09:55:05Z</time>
      </trkpt>
      <trkpt lat="42.5173500" lon="-7.2302860">
        <ele>738.4</ele>
        <time>2014-10-02T09:55:06Z</time>
      </trkpt>
      <trkpt lat="42.5173820" lon="-7.2302820">
        <ele>738.7</ele>
        <time>2014-10-02T09:55:07Z</time>
      </trkpt>
      <trkpt lat="42.5174160" lon="-7.2302750">
        <ele>739.1</ele>
        <time>2014-10-02T09:55:08Z</time>
      </trkpt>
      <trkpt lat="42.5174470" lon="-7.2302730">
        <ele>739.3</ele>
        <time>2014-10-02T09:55:09Z</time>
      </trkpt>
      <trkpt lat="42.5174820" lon="-7.2302710">
        <ele>739.7</ele>
        <time>2014-10-02T09:55:10Z</time>
      </trkpt>
      <trkpt lat="42.5175160" lon="-7.2302670">
        <ele>740.0</ele>
        <time>2014-10-02T09:55:11Z</time>
      </trkpt>
      <trkpt lat="42.5175480" lon="-7.2302630">
        <ele>740.3</ele>
        <time>2014-10-02T09:55:12Z</time>
      </trkpt>
      <trkpt lat="42.5175820" lon="-7.2302640">
        <ele>740.6</ele>
        <time>2014-10-02T09:55:13Z</time>
      </trkpt>
      <trkpt lat="42.5176100" lon="-7.2302640">
        <ele>740.8</ele>
        <time>2014-10-02T09:55:14Z</time>
      </trkpt>
      <trkpt lat="42.5176370" lon="-7.2302660">
        <ele>741.0</ele>
        <time>2014-10-02T09:55:15Z</time>
      </trkpt>
      <trkpt lat="42.5176670" lon="-7.2302670">
        <ele>740.9</ele>
        <time>2014-10-02T09:55:16Z</time>
      </trkpt>
      <trkpt lat="42.5176940" lon="-7.2302690">
        <ele>739.1</ele>
        <time>2014-10-02T09:55:17Z</time>
      </trkpt>
      <trkpt lat="42.5177230" lon="-7.2302690">
        <ele>737.1</ele>
        <time>2014-10-02T09:55:18Z</time>
      </trkpt>
      <trkpt lat="42.5177550" lon="-7.2302700">
        <ele>737.0</ele>
        <time>2014-10-02T09:55:19Z</time>
      </trkpt>
      <trkpt lat="42.5177860" lon="-7.2302720">
        <ele>737.2</ele>
        <time>2014-10-02T09:55:20Z</time>
      </trkpt>
      <trkpt lat="42.5178150" lon="-7.2302820">
        <ele>737.4</ele>
        <time>2014-10-02T09:55:21Z</time>
      </trkpt>
      <trkpt lat="42.5178690" lon="-7.2302850">
        <ele>737.8</ele>
        <time>2014-10-02T09:55:23Z</time>
      </trkpt>
      <trkpt lat="42.5178990" lon="-7.2302840">
        <ele>738.0</ele>
        <time>2014-10-02T09:55:24Z</time>
      </trkpt>
      <trkpt lat="42.5179540" lon="-7.2302940">
        <ele>738.3</ele>
        <time>2014-10-02T09:55:26Z</time>
      </trkpt>
      <trkpt lat="42.5179850" lon="-7.2303000">
        <ele>738.5</ele>
        <time>2014-10-02T09:55:27Z</time>
      </trkpt>
      <trkpt lat="42.5180240" lon="-7.2303060">
        <ele>738.8</ele>
        <time>2014-10-02T09:55:28Z</time>
      </trkpt>
      <trkpt lat="42.5180590" lon="-7.2303270">
        <ele>739.1</ele>
        <time>2014-10-02T09:55:29Z</time>
      </trkpt>
      <trkpt lat="42.5180900" lon="-7.2303400">
        <ele>739.3</ele>
        <time>2014-10-02T09:55:30Z</time>
      </trkpt>
      <trkpt lat="42.5181360" lon="-7.2303580">
        <ele>739.7</ele>
        <time>2014-10-02T09:55:32Z</time>
      </trkpt>
      <trkpt lat="42.5181660" lon="-7.2303660">
        <ele>740.0</ele>
        <time>2014-10-02T09:55:33Z</time>
      </trkpt>
      <trkpt lat="42.5181950" lon="-7.2303790">
        <ele>740.2</ele>
        <time>2014-10-02T09:55:34Z</time>
      </trkpt>
      <trkpt lat="42.5182250" lon="-7.2303940">
        <ele>740.4</ele>
        <time>2014-10-02T09:55:35Z</time>
      </trkpt>
      <trkpt lat="42.5182610" lon="-7.2304120">
        <ele>740.7</ele>
        <time>2014-10-02T09:55:36Z</time>
      </trkpt>
      <trkpt lat="42.5182930" lon="-7.2304330">
        <ele>740.9</ele>
        <time>2014-10-02T09:55:37Z</time>
      </trkpt>
      <trkpt lat="42.5183190" lon="-7.2304530">
        <ele>741.1</ele>
        <time>2014-10-02T09:55:38Z</time>
      </trkpt>
      <trkpt lat="42.5183430" lon="-7.2304770">
        <ele>741.3</ele>
        <time>2014-10-02T09:55:39Z</time>
      </trkpt>
      <trkpt lat="42.5183730" lon="-7.2305010">
        <ele>741.6</ele>
        <time>2014-10-02T09:55:40Z</time>
      </trkpt>
      <trkpt lat="42.5184040" lon="-7.2305270">
        <ele>741.8</ele>
        <time>2014-10-02T09:55:41Z</time>
      </trkpt>
      <trkpt lat="42.5184360" lon="-7.2305560">
        <ele>742.0</ele>
        <time>2014-10-02T09:55:42Z</time>
      </trkpt>
      <trkpt lat="42.5184670" lon="-7.2305770">
        <ele>742.3</ele>
        <time>2014-10-02T09:55:43Z</time>
      </trkpt>
      <trkpt lat="42.5185140" lon="-7.2306140">
        <ele>742.6</ele>
        <time>2014-10-02T09:55:45Z</time>
      </trkpt>
      <trkpt lat="42.5185420" lon="-7.2306350">
        <ele>742.8</ele>
        <time>2014-10-02T09:55:46Z</time>
      </trkpt>
      <trkpt lat="42.5185690" lon="-7.2306590">
        <ele>743.1</ele>
        <time>2014-10-02T09:55:47Z</time>
      </trkpt>
      <trkpt lat="42.5186100" lon="-7.2306930">
        <ele>743.4</ele>
        <time>2014-10-02T09:55:49Z</time>
      </trkpt>
      <trkpt lat="42.5186360" lon="-7.2307200">
        <ele>743.6</ele>
        <time>2014-10-02T09:55:50Z</time>
      </trkpt>
      <trkpt lat="42.5186640" lon="-7.2307500">
        <ele>743.9</ele>
        <time>2014-10-02T09:55:51Z</time>
      </trkpt>
      <trkpt lat="42.5186890" lon="-7.2307770">
        <ele>744.1</ele>
        <time>2014-10-02T09:55:52Z</time>
      </trkpt>
      <trkpt lat="42.5187110" lon="-7.2308050">
        <ele>744.3</ele>
        <time>2014-10-02T09:55:53Z</time>
      </trkpt>
      <trkpt lat="42.5187330" lon="-7.2308340">
        <ele>744.5</ele>
        <time>2014-10-02T09:55:54Z</time>
      </trkpt>
      <trkpt lat="42.5187570" lon="-7.2308630">
        <ele>744.7</ele>
        <time>2014-10-02T09:55:55Z</time>
      </trkpt>
      <trkpt lat="42.5187790" lon="-7.2308930">
        <ele>744.9</ele>
        <time>2014-10-02T09:55:56Z</time>
      </trkpt>
      <trkpt lat="42.5188030" lon="-7.2309220">
        <ele>745.1</ele>
        <time>2014-10-02T09:55:57Z</time>
      </trkpt>
      <trkpt lat="42.5188270" lon="-7.2309520">
        <ele>745.3</ele>
        <time>2014-10-02T09:55:58Z</time>
      </trkpt>
      <trkpt lat="42.5188500" lon="-7.2309800">
        <ele>745.5</ele>
        <time>2014-10-02T09:55:59Z</time>
      </trkpt>
      <trkpt lat="42.5188720" lon="-7.2310080">
        <ele>745.8</ele>
        <time>2014-10-02T09:56:00Z</time>
      </trkpt>
      <trkpt lat="42.5188930" lon="-7.2310400">
        <ele>746.0</ele>
        <time>2014-10-02T09:56:01Z</time>
      </trkpt>
      <trkpt lat="42.5189110" lon="-7.2310680">
        <ele>746.2</ele>
        <time>2014-10-02T09:56:02Z</time>
      </trkpt>
      <trkpt lat="42.5189300" lon="-7.2311020">
        <ele>746.4</ele>
        <time>2014-10-02T09:56:03Z</time>
      </trkpt>
      <trkpt lat="42.5189470" lon="-7.2311330">
        <ele>746.6</ele>
        <time>2014-10-02T09:56:04Z</time>
      </trkpt>
      <trkpt lat="42.5189650" lon="-7.2311640">
        <ele>746.8</ele>
        <time>2014-10-02T09:56:05Z</time>
      </trkpt>
      <trkpt lat="42.5189840" lon="-7.2311980">
        <ele>747.0</ele>
        <time>2014-10-02T09:56:06Z</time>
      </trkpt>
      <trkpt lat="42.5190010" lon="-7.2312320">
        <ele>747.1</ele>
        <time>2014-10-02T09:56:07Z</time>
      </trkpt>
      <trkpt lat="42.5190190" lon="-7.2312680">
        <ele>747.4</ele>
        <time>2014-10-02T09:56:08Z</time>
      </trkpt>
      <trkpt lat="42.5190320" lon="-7.2312990">
        <ele>747.5</ele>
        <time>2014-10-02T09:56:09Z</time>
      </trkpt>
      <trkpt lat="42.5190460" lon="-7.2313370">
        <ele>747.7</ele>
        <time>2014-10-02T09:56:10Z</time>
      </trkpt>
      <trkpt lat="42.5190620" lon="-7.2313770">
        <ele>747.9</ele>
        <time>2014-10-02T09:56:11Z</time>
      </trkpt>
      <trkpt lat="42.5190790" lon="-7.2314150">
        <ele>748.1</ele>
        <time>2014-10-02T09:56:12Z</time>
      </trkpt>
      <trkpt lat="42.5190950" lon="-7.2314510">
        <ele>748.3</ele>
        <time>2014-10-02T09:56:13Z</time>
      </trkpt>
      <trkpt lat="42.5191110" lon="-7.2314880">
        <ele>748.4</ele>
        <time>2014-10-02T09:56:14Z</time>
      </trkpt>
      <trkpt lat="42.5191280" lon="-7.2315190">
        <ele>748.6</ele>
        <time>2014-10-02T09:56:15Z</time>
      </trkpt>
      <trkpt lat="42.5191430" lon="-7.2315530">
        <ele>748.7</ele>
        <time>2014-10-02T09:56:16Z</time>
      </trkpt>
      <trkpt lat="42.5191620" lon="-7.2315930">
        <ele>748.8</ele>
        <time>2014-10-02T09:56:17Z</time>
      </trkpt>
      <trkpt lat="42.5191840" lon="-7.2316350">
        <ele>748.9</ele>
        <time>2014-10-02T09:56:18Z</time>
      </trkpt>
      <trkpt lat="42.5192040" lon="-7.2316800">
        <ele>749.0</ele>
        <time>2014-10-02T09:56:19Z</time>
      </trkpt>
      <trkpt lat="42.5192260" lon="-7.2317240">
        <ele>749.1</ele>
        <time>2014-10-02T09:56:20Z</time>
      </trkpt>
      <trkpt lat="42.5192500" lon="-7.2317710">
        <ele>749.2</ele>
        <time>2014-10-02T09:56:21Z</time>
      </trkpt>
      <trkpt lat="42.5192760" lon="-7.2318210">
        <ele>749.3</ele>
        <time>2014-10-02T09:56:22Z</time>
      </trkpt>
      <trkpt lat="42.5193050" lon="-7.2318720">
        <ele>749.3</ele>
        <time>2014-10-02T09:56:23Z</time>
      </trkpt>
      <trkpt lat="42.5193370" lon="-7.2319210">
        <ele>749.4</ele>
        <time>2014-10-02T09:56:24Z</time>
      </trkpt>
      <trkpt lat="42.5193660" lon="-7.2319670">
        <ele>749.4</ele>
        <time>2014-10-02T09:56:25Z</time>
      </trkpt>
      <trkpt lat="42.5193970" lon="-7.2320120">
        <ele>749.4</ele>
        <time>2014-10-02T09:56:26Z</time>
      </trkpt>
      <trkpt lat="42.5194290" lon="-7.2320550">
        <ele>749.4</ele>
        <time>2014-10-02T09:56:27Z</time>
      </trkpt>
      <trkpt lat="42.5194620" lon="-7.2320940">
        <ele>749.4</ele>
        <time>2014-10-02T09:56:28Z</time>
      </trkpt>
      <trkpt lat="42.5194990" lon="-7.2321330">
        <ele>749.3</ele>
        <time>2014-10-02T09:56:29Z</time>
      </trkpt>
      <trkpt lat="42.5195360" lon="-7.2321660">
        <ele>749.3</ele>
        <time>2014-10-02T09:56:30Z</time>
      </trkpt>
      <trkpt lat="42.5195770" lon="-7.2321980">
        <ele>749.2</ele>
        <time>2014-10-02T09:56:31Z</time>
      </trkpt>
      <trkpt lat="42.5196240" lon="-7.2322280">
        <ele>749.2</ele>
        <time>2014-10-02T09:56:32Z</time>
      </trkpt>
      <trkpt lat="42.5196740" lon="-7.2322530">
        <ele>749.2</ele>
        <time>2014-10-02T09:56:33Z</time>
      </trkpt>
      <trkpt lat="42.5197250" lon="-7.2322760">
        <ele>749.1</ele>
        <time>2014-10-02T09:56:34Z</time>
      </trkpt>
      <trkpt lat="42.5197750" lon="-7.2322910">
        <ele>749.1</ele>
        <time>2014-10-02T09:56:35Z</time>
      </trkpt>
      <trkpt lat="42.5198230" lon="-7.2323020">
        <ele>749.1</ele>
        <time>2014-10-02T09:56:36Z</time>
      </trkpt>
      <trkpt lat="42.5198720" lon="-7.2323090">
        <ele>749.0</ele>
        <time>2014-10-02T09:56:37Z</time>
      </trkpt>
      <trkpt lat="42.5199270" lon="-7.2323100">
        <ele>749.0</ele>
        <time>2014-10-02T09:56:38Z</time>
      </trkpt>
      <trkpt lat="42.5199800" lon="-7.2323070">
        <ele>748.9</ele>
        <time>2014-10-02T09:56:39Z</time>
      </trkpt>
      <trkpt lat="42.5200320" lon="-7.2323040">
        <ele>748.9</ele>
        <time>2014-10-02T09:56:40Z</time>
      </trkpt>
      <trkpt lat="42.5200850" lon="-7.2322970">
        <ele>748.9</ele>
        <time>2014-10-02T09:56:41Z</time>
      </trkpt>
      <trkpt lat="42.5201360" lon="-7.2322900">
        <ele>748.9</ele>
        <time>2014-10-02T09:56:42Z</time>
      </trkpt>
      <trkpt lat="42.5201860" lon="-7.2322830">
        <ele>748.9</ele>
        <time>2014-10-02T09:56:43Z</time>
      </trkpt>
      <trkpt lat="42.5202350" lon="-7.2322760">
        <ele>748.9</ele>
        <time>2014-10-02T09:56:44Z</time>
      </trkpt>
      <trkpt lat="42.5202810" lon="-7.2322690">
        <ele>748.9</ele>
        <time>2014-10-02T09:56:45Z</time>
      </trkpt>
      <trkpt lat="42.5203360" lon="-7.2322570">
        <ele>748.9</ele>
        <time>2014-10-02T09:56:46Z</time>
      </trkpt>
      <trkpt lat="42.5203950" lon="-7.2322440">
        <ele>748.9</ele>
        <time>2014-10-02T09:56:47Z</time>
      </trkpt>
      <trkpt lat="42.5204520" lon="-7.2322320">
        <ele>748.9</ele>
        <time>2014-10-02T09:56:48Z</time>
      </trkpt>
      <trkpt lat="42.5205060" lon="-7.2322220">
        <ele>749.0</ele>
        <time>2014-10-02T09:56:49Z</time>
      </trkpt>
      <trkpt lat="42.5205590" lon="-7.2322140">
        <ele>749.2</ele>
        <time>2014-10-02T09:56:50Z</time>
      </trkpt>
      <trkpt lat="42.5206130" lon="-7.2322050">
        <ele>749.3</ele>
        <time>2014-10-02T09:56:51Z</time>
      </trkpt>
      <trkpt lat="42.5206680" lon="-7.2321950">
        <ele>749.4</ele>
        <time>2014-10-02T09:56:52Z</time>
      </trkpt>
      <trkpt lat="42.5207220" lon="-7.2321800">
        <ele>749.5</ele>
        <time>2014-10-02T09:56:53Z</time>
      </trkpt>
      <trkpt lat="42.5207730" lon="-7.2321590">
        <ele>749.6</ele>
        <time>2014-10-02T09:56:54Z</time>
      </trkpt>
      <trkpt lat="42.5208210" lon="-7.2321390">
        <ele>749.7</ele>
        <time>2014-10-02T09:56:55Z</time>
      </trkpt>
      <trkpt lat="42.5208720" lon="-7.2321150">
        <ele>749.8</ele>
        <time>2014-10-02T09:56:56Z</time>
      </trkpt>
      <trkpt lat="42.5209150" lon="-7.2320960">
        <ele>749.9</ele>
        <time>2014-10-02T09:56:57Z</time>
      </trkpt>
      <trkpt lat="42.5209520" lon="-7.2320730">
        <ele>750.0</ele>
        <time>2014-10-02T09:56:58Z</time>
      </trkpt>
      <trkpt lat="42.5209870" lon="-7.2320490">
        <ele>750.1</ele>
        <time>2014-10-02T09:56:59Z</time>
      </trkpt>
      <trkpt lat="42.5210260" lon="-7.2320180">
        <ele>750.2</ele>
        <time>2014-10-02T09:57:00Z</time>
      </trkpt>
      <trkpt lat="42.5210690" lon="-7.2319830">
        <ele>750.3</ele>
        <time>2014-10-02T09:57:01Z</time>
      </trkpt>
      <trkpt lat="42.5211080" lon="-7.2319440">
        <ele>750.4</ele>
        <time>2014-10-02T09:57:02Z</time>
      </trkpt>
      <trkpt lat="42.5211460" lon="-7.2319080">
        <ele>750.5</ele>
        <time>2014-10-02T09:57:03Z</time>
      </trkpt>
      <trkpt lat="42.5211820" lon="-7.2318730">
        <ele>750.7</ele>
        <time>2014-10-02T09:57:04Z</time>
      </trkpt>
      <trkpt lat="42.5212190" lon="-7.2318390">
        <ele>750.8</ele>
        <time>2014-10-02T09:57:05Z</time>
      </trkpt>
      <trkpt lat="42.5212570" lon="-7.2317970">
        <ele>750.9</ele>
        <time>2014-10-02T09:57:06Z</time>
      </trkpt>
      <trkpt lat="42.5212980" lon="-7.2317550">
        <ele>751.0</ele>
        <time>2014-10-02T09:57:07Z</time>
      </trkpt>
      <trkpt lat="42.5213400" lon="-7.2317150">
        <ele>751.0</ele>
        <time>2014-10-02T09:57:08Z</time>
      </trkpt>
      <trkpt lat="42.5213810" lon="-7.2316750">
        <ele>751.1</ele>
        <time>2014-10-02T09:57:09Z</time>
      </trkpt>
      <trkpt lat="42.5214190" lon="-7.2316370">
        <ele>751.2</ele>
        <time>2014-10-02T09:57:10Z</time>
      </trkpt>
      <trkpt lat="42.5214610" lon="-7.2315970">
        <ele>751.2</ele>
        <time>2014-10-02T09:57:11Z</time>
      </trkpt>
      <trkpt lat="42.5215020" lon="-7.2315590">
        <ele>751.3</ele>
        <time>2014-10-02T09:57:12Z</time>
      </trkpt>
      <trkpt lat="42.5215440" lon="-7.2315210">
        <ele>751.3</ele>
        <time>2014-10-02T09:57:13Z</time>
      </trkpt>
      <trkpt lat="42.5215850" lon="-7.2314790">
        <ele>751.4</ele>
        <time>2014-10-02T09:57:14Z</time>
      </trkpt>
      <trkpt lat="42.5216230" lon="-7.2314380">
        <ele>751.5</ele>
        <time>2014-10-02T09:57:15Z</time>
      </trkpt>
      <trkpt lat="42.5216650" lon="-7.2313940">
        <ele>751.5</ele>
        <time>2014-10-02T09:57:16Z</time>
      </trkpt>
      <trkpt lat="42.5217060" lon="-7.2313510">
        <ele>751.5</ele>
        <time>2014-10-02T09:57:17Z</time>
      </trkpt>
      <trkpt lat="42.5217460" lon="-7.2313080">
        <ele>751.5</ele>
        <time>2014-10-02T09:57:18Z</time>
      </trkpt>
      <trkpt lat="42.5217850" lon="-7.2312630">
        <ele>751.6</ele>
        <time>2014-10-02T09:57:19Z</time>
      </trkpt>
      <trkpt lat="42.5218270" lon="-7.2312160">
        <ele>751.6</ele>
        <time>2014-10-02T09:57:20Z</time>
      </trkpt>
      <trkpt lat="42.5218700" lon="-7.2311710">
        <ele>751.7</ele>
        <time>2014-10-02T09:57:21Z</time>
      </trkpt>
      <trkpt lat="42.5219160" lon="-7.2311230">
        <ele>751.7</ele>
        <time>2014-10-02T09:57:22Z</time>
      </trkpt>
      <trkpt lat="42.5219580" lon="-7.2310820">
        <ele>751.7</ele>
        <time>2014-10-02T09:57:23Z</time>
      </trkpt>
      <trkpt lat="42.5220000" lon="-7.2310400">
        <ele>751.8</ele>
        <time>2014-10-02T09:57:24Z</time>
      </trkpt>
      <trkpt lat="42.5220430" lon="-7.2309960">
        <ele>751.8</ele>
        <time>2014-10-02T09:57:25Z</time>
      </trkpt>
      <trkpt lat="42.5220870" lon="-7.2309480">
        <ele>751.9</ele>
        <time>2014-10-02T09:57:26Z</time>
      </trkpt>
      <trkpt lat="42.5221320" lon="-7.2308990">
        <ele>752.0</ele>
        <time>2014-10-02T09:57:27Z</time>
      </trkpt>
      <trkpt lat="42.5221750" lon="-7.2308550">
        <ele>752.2</ele>
        <time>2014-10-02T09:57:28Z</time>
      </trkpt>
      <trkpt lat="42.5222150" lon="-7.2308140">
        <ele>752.3</ele>
        <time>2014-10-02T09:57:29Z</time>
      </trkpt>
      <trkpt lat="42.5222530" lon="-7.2307730">
        <ele>752.5</ele>
        <time>2014-10-02T09:57:30Z</time>
      </trkpt>
      <trkpt lat="42.5222910" lon="-7.2307320">
        <ele>752.7</ele>
        <time>2014-10-02T09:57:31Z</time>
      </trkpt>
      <trkpt lat="42.5223300" lon="-7.2306890">
        <ele>752.8</ele>
        <time>2014-10-02T09:57:32Z</time>
      </trkpt>
      <trkpt lat="42.5223690" lon="-7.2306460">
        <ele>753.0</ele>
        <time>2014-10-02T09:57:33Z</time>
      </trkpt>
      <trkpt lat="42.5224040" lon="-7.2305980">
        <ele>753.3</ele>
        <time>2014-10-02T09:57:34Z</time>
      </trkpt>
      <trkpt lat="42.5224360" lon="-7.2305460">
        <ele>753.5</ele>
        <time>2014-10-02T09:57:35Z</time>
      </trkpt>
      <trkpt lat="42.5224620" lon="-7.2304930">
        <ele>753.8</ele>
        <time>2014-10-02T09:57:36Z</time>
      </trkpt>
      <trkpt lat="42.5224860" lon="-7.2304360">
        <ele>754.0</ele>
        <time>2014-10-02T09:57:37Z</time>
      </trkpt>
      <trkpt lat="42.5225040" lon="-7.2303840">
        <ele>754.3</ele>
        <time>2014-10-02T09:57:38Z</time>
      </trkpt>
      <trkpt lat="42.5225160" lon="-7.2303360">
        <ele>754.4</ele>
        <time>2014-10-02T09:57:39Z</time>
      </trkpt>
      <trkpt lat="42.5225260" lon="-7.2302860">
        <ele>754.7</ele>
        <time>2014-10-02T09:57:40Z</time>
      </trkpt>
      <trkpt lat="42.5225340" lon="-7.2302320">
        <ele>754.9</ele>
        <time>2014-10-02T09:57:41Z</time>
      </trkpt>
      <trkpt lat="42.5225420" lon="-7.2301730">
        <ele>755.3</ele>
        <time>2014-10-02T09:57:42Z</time>
      </trkpt>
      <trkpt lat="42.5225490" lon="-7.2301180">
        <ele>755.6</ele>
        <time>2014-10-02T09:57:43Z</time>
      </trkpt>
      <trkpt lat="42.5225510" lon="-7.2300620">
        <ele>756.0</ele>
        <time>2014-10-02T09:57:44Z</time>
      </trkpt>
      <trkpt lat="42.5225530" lon="-7.2300190">
        <ele>756.2</ele>
        <time>2014-10-02T09:57:45Z</time>
      </trkpt>
      <trkpt lat="42.5225570" lon="-7.2299770">
        <ele>756.5</ele>
        <time>2014-10-02T09:57:46Z</time>
      </trkpt>
      <trkpt lat="42.5225610" lon="-7.2299390">
        <ele>756.8</ele>
        <time>2014-10-02T09:57:47Z</time>
      </trkpt>
      <trkpt lat="42.5225600" lon="-7.2298940">
        <ele>757.0</ele>
        <time>2014-10-02T09:57:48Z</time>
      </trkpt>
      <trkpt lat="42.5225570" lon="-7.2298490">
        <ele>757.3</ele>
        <time>2014-10-02T09:57:49Z</time>
      </trkpt>
      <trkpt lat="42.5225530" lon="-7.2298010">
        <ele>757.6</ele>
        <time>2014-10-02T09:57:50Z</time>
      </trkpt>
      <trkpt lat="42.5225490" lon="-7.2297560">
        <ele>757.9</ele>
        <time>2014-10-02T09:57:51Z</time>
      </trkpt>
      <trkpt lat="42.5225460" lon="-7.2297140">
        <ele>758.2</ele>
        <time>2014-10-02T09:57:52Z</time>
      </trkpt>
      <trkpt lat="42.5225410" lon="-7.2296690">
        <ele>758.5</ele>
        <time>2014-10-02T09:57:53Z</time>
      </trkpt>
      <trkpt lat="42.5225410" lon="-7.2296290">
        <ele>758.8</ele>
        <time>2014-10-02T09:57:54Z</time>
      </trkpt>
      <trkpt lat="42.5225410" lon="-7.2295890">
        <ele>759.1</ele>
        <time>2014-10-02T09:57:55Z</time>
      </trkpt>
      <trkpt lat="42.5225400" lon="-7.2295520">
        <ele>759.4</ele>
        <time>2014-10-02T09:57:56Z</time>
      </trkpt>
      <trkpt lat="42.5225390" lon="-7.2294800">
        <ele>759.8</ele>
        <time>2014-10-02T09:57:58Z</time>
      </trkpt>
      <trkpt lat="42.5225400" lon="-7.2294390">
        <ele>760.1</ele>
        <time>2014-10-02T09:57:59Z</time>
      </trkpt>
      <trkpt lat="42.5225420" lon="-7.2293980">
        <ele>760.4</ele>
        <time>2014-10-02T09:58:00Z</time>
      </trkpt>
      <trkpt lat="42.5225460" lon="-7.2293600">
        <ele>760.6</ele>
        <time>2014-10-02T09:58:01Z</time>
      </trkpt>
      <trkpt lat="42.5225520" lon="-7.2293200">
        <ele>760.9</ele>
        <time>2014-10-02T09:58:02Z</time>
      </trkpt>
      <trkpt lat="42.5225580" lon="-7.2292790">
        <ele>761.1</ele>
        <time>2014-10-02T09:58:03Z</time>
      </trkpt>
      <trkpt lat="42.5225640" lon="-7.2292340">
        <ele>761.4</ele>
        <time>2014-10-02T09:58:04Z</time>
      </trkpt>
      <trkpt lat="42.5225700" lon="-7.2291940">
        <ele>761.6</ele>
        <time>2014-10-02T09:58:05Z</time>
      </trkpt>
      <trkpt lat="42.5225790" lon="-7.2291550">
        <ele>761.9</ele>
        <time>2014-10-02T09:58:06Z</time>
      </trkpt>
      <trkpt lat="42.5225890" lon="-7.2291170">
        <ele>762.1</ele>
        <time>2014-10-02T09:58:07Z</time>
      </trkpt>
      <trkpt lat="42.5225990" lon="-7.2290800">
        <ele>762.3</ele>
        <time>2014-10-02T09:58:08Z</time>
      </trkpt>
      <trkpt lat="42.5226090" lon="-7.2290430">
        <ele>762.6</ele>
        <time>2014-10-02T09:58:09Z</time>
      </trkpt>
      <trkpt lat="42.5226190" lon="-7.2290070">
        <ele>762.8</ele>
        <time>2014-10-02T09:58:10Z</time>
      </trkpt>
      <trkpt lat="42.5226290" lon="-7.2289700">
        <ele>763.0</ele>
        <time>2014-10-02T09:58:11Z</time>
      </trkpt>
      <trkpt lat="42.5226400" lon="-7.2289300">
        <ele>763.3</ele>
        <time>2014-10-02T09:58:12Z</time>
      </trkpt>
      <trkpt lat="42.5226530" lon="-7.2288920">
        <ele>763.6</ele>
        <time>2014-10-02T09:58:13Z</time>
      </trkpt>
      <trkpt lat="42.5226650" lon="-7.2288530">
        <ele>763.8</ele>
        <time>2014-10-02T09:58:14Z</time>
      </trkpt>
      <trkpt lat="42.5226800" lon="-7.2288140">
        <ele>764.1</ele>
        <time>2014-10-02T09:58:15Z</time>
      </trkpt>
      <trkpt lat="42.5226940" lon="-7.2287760">
        <ele>764.4</ele>
        <time>2014-10-02T09:58:16Z</time>
      </trkpt>
      <trkpt lat="42.5227080" lon="-7.2287420">
        <ele>764.6</ele>
        <time>2014-10-02T09:58:17Z</time>
      </trkpt>
      <trkpt lat="42.5227230" lon="-7.2287060">
        <ele>764.8</ele>
        <time>2014-10-02T09:58:18Z</time>
      </trkpt>
      <trkpt lat="42.5227390" lon="-7.2286700">
        <ele>765.0</ele>
        <time>2014-10-02T09:58:19Z</time>
      </trkpt>
      <trkpt lat="42.5227560" lon="-7.2286310">
        <ele>765.2</ele>
        <time>2014-10-02T09:58:20Z</time>
      </trkpt>
      <trkpt lat="42.5227720" lon="-7.2285980">
        <ele>765.5</ele>
        <time>2014-10-02T09:58:21Z</time>
      </trkpt>
      <trkpt lat="42.5227890" lon="-7.2285650">
        <ele>765.7</ele>
        <time>2014-10-02T09:58:22Z</time>
      </trkpt>
      <trkpt lat="42.5228090" lon="-7.2285320">
        <ele>765.9</ele>
        <time>2014-10-02T09:58:23Z</time>
      </trkpt>
      <trkpt lat="42.5228250" lon="-7.2285020">
        <ele>766.2</ele>
        <time>2014-10-02T09:58:24Z</time>
      </trkpt>
      <trkpt lat="42.5228450" lon="-7.2284720">
        <ele>766.4</ele>
        <time>2014-10-02T09:58:25Z</time>
      </trkpt>
      <trkpt lat="42.5228680" lon="-7.2284420">
        <ele>766.7</ele>
        <time>2014-10-02T09:58:26Z</time>
      </trkpt>
      <trkpt lat="42.5228900" lon="-7.2284130">
        <ele>766.9</ele>
        <time>2014-10-02T09:58:27Z</time>
      </trkpt>
      <trkpt lat="42.5229130" lon="-7.2283870">
        <ele>767.2</ele>
        <time>2014-10-02T09:58:28Z</time>
      </trkpt>
      <trkpt lat="42.5229380" lon="-7.2283600">
        <ele>767.5</ele>
        <time>2014-10-02T09:58:29Z</time>
      </trkpt>
      <trkpt lat="42.5229640" lon="-7.2283350">
        <ele>767.7</ele>
        <time>2014-10-02T09:58:30Z</time>
      </trkpt>
      <trkpt lat="42.5229890" lon="-7.2283120">
        <ele>768.0</ele>
        <time>2014-10-02T09:58:31Z</time>
      </trkpt>
      <trkpt lat="42.5230150" lon="-7.2282890">
        <ele>768.2</ele>
        <time>2014-10-02T09:58:32Z</time>
      </trkpt>
      <trkpt lat="42.5230400" lon="-7.2282660">
        <ele>768.4</ele>
        <time>2014-10-02T09:58:33Z</time>
      </trkpt>
      <trkpt lat="42.5230620" lon="-7.2282440">
        <ele>768.6</ele>
        <time>2014-10-02T09:58:34Z</time>
      </trkpt>
      <trkpt lat="42.5231090" lon="-7.2282090">
        <ele>769.0</ele>
        <time>2014-10-02T09:58:36Z</time>
      </trkpt>
      <trkpt lat="42.5231370" lon="-7.2281900">
        <ele>769.2</ele>
        <time>2014-10-02T09:58:37Z</time>
      </trkpt>
      <trkpt lat="42.5231700" lon="-7.2281720">
        <ele>769.5</ele>
        <time>2014-10-02T09:58:38Z</time>
      </trkpt>
      <trkpt lat="42.5231980" lon="-7.2281520">
        <ele>769.7</ele>
        <time>2014-10-02T09:58:39Z</time>
      </trkpt>
      <trkpt lat="42.5232300" lon="-7.2281300">
        <ele>769.9</ele>
        <time>2014-10-02T09:58:40Z</time>
      </trkpt>
      <trkpt lat="42.5232600" lon="-7.2281100">
        <ele>770.2</ele>
        <time>2014-10-02T09:58:41Z</time>
      </trkpt>
      <trkpt lat="42.5232870" lon="-7.2280880">
        <ele>770.4</ele>
        <time>2014-10-02T09:58:42Z</time>
      </trkpt>
      <trkpt lat="42.5233130" lon="-7.2280690">
        <ele>770.7</ele>
        <time>2014-10-02T09:58:43Z</time>
      </trkpt>
      <trkpt lat="42.5233630" lon="-7.2280310">
        <ele>771.1</ele>
        <time>2014-10-02T09:58:45Z</time>
      </trkpt>
      <trkpt lat="42.5233890" lon="-7.2280130">
        <ele>771.3</ele>
        <time>2014-10-02T09:58:46Z</time>
      </trkpt>
      <trkpt lat="42.5234160" lon="-7.2279980">
        <ele>771.5</ele>
        <time>2014-10-02T09:58:47Z</time>
      </trkpt>
      <trkpt lat="42.5234410" lon="-7.2279850">
        <ele>771.7</ele>
        <time>2014-10-02T09:58:48Z</time>
      </trkpt>
      <trkpt lat="42.5234690" lon="-7.2279720">
        <ele>771.9</ele>
        <time>2014-10-02T09:58:49Z</time>
      </trkpt>
      <trkpt lat="42.5234970" lon="-7.2279600">
        <ele>772.1</ele>
        <time>2014-10-02T09:58:50Z</time>
      </trkpt>
      <trkpt lat="42.5235260" lon="-7.2279500">
        <ele>772.3</ele>
        <time>2014-10-02T09:58:51Z</time>
      </trkpt>
      <trkpt lat="42.5235540" lon="-7.2279380">
        <ele>772.6</ele>
        <time>2014-10-02T09:58:52Z</time>
      </trkpt>
      <trkpt lat="42.5235840" lon="-7.2279230">
        <ele>772.8</ele>
        <time>2014-10-02T09:58:53Z</time>
      </trkpt>
      <trkpt lat="42.5236160" lon="-7.2279070">
        <ele>773.0</ele>
        <time>2014-10-02T09:58:54Z</time>
      </trkpt>
      <trkpt lat="42.5236460" lon="-7.2278940">
        <ele>773.3</ele>
        <time>2014-10-02T09:58:55Z</time>
      </trkpt>
      <trkpt lat="42.5236790" lon="-7.2278770">
        <ele>773.5</ele>
        <time>2014-10-02T09:58:56Z</time>
      </trkpt>
      <trkpt lat="42.5237090" lon="-7.2278660">
        <ele>773.8</ele>
        <time>2014-10-02T09:58:57Z</time>
      </trkpt>
      <trkpt lat="42.5237370" lon="-7.2278560">
        <ele>774.0</ele>
        <time>2014-10-02T09:58:58Z</time>
      </trkpt>
      <trkpt lat="42.5237640" lon="-7.2278440">
        <ele>774.2</ele>
        <time>2014-10-02T09:58:59Z</time>
      </trkpt>
      <trkpt lat="42.5237910" lon="-7.2278340">
        <ele>774.5</ele>
        <time>2014-10-02T09:59:00Z</time>
      </trkpt>
      <trkpt lat="42.5238220" lon="-7.2278210">
        <ele>774.7</ele>
        <time>2014-10-02T09:59:01Z</time>
      </trkpt>
      <trkpt lat="42.5238510" lon="-7.2278120">
        <ele>775.0</ele>
        <time>2014-10-02T09:59:02Z</time>
      </trkpt>
      <trkpt lat="42.5238810" lon="-7.2278030">
        <ele>775.2</ele>
        <time>2014-10-02T09:59:03Z</time>
      </trkpt>
      <trkpt lat="42.5239090" lon="-7.2277930">
        <ele>775.4</ele>
        <time>2014-10-02T09:59:04Z</time>
      </trkpt>
      <trkpt lat="42.5239370" lon="-7.2277870">
        <ele>775.7</ele>
        <time>2014-10-02T09:59:05Z</time>
      </trkpt>
      <trkpt lat="42.5239670" lon="-7.2277780">
        <ele>775.9</ele>
        <time>2014-10-02T09:59:06Z</time>
      </trkpt>
      <trkpt lat="42.5239930" lon="-7.2277660">
        <ele>776.1</ele>
        <time>2014-10-02T09:59:07Z</time>
      </trkpt>
      <trkpt lat="42.5240190" lon="-7.2277530">
        <ele>776.3</ele>
        <time>2014-10-02T09:59:08Z</time>
      </trkpt>
      <trkpt lat="42.5240480" lon="-7.2277400">
        <ele>776.5</ele>
        <time>2014-10-02T09:59:09Z</time>
      </trkpt>
      <trkpt lat="42.5240790" lon="-7.2277260">
        <ele>776.7</ele>
        <time>2014-10-02T09:59:10Z</time>
      </trkpt>
      <trkpt lat="42.5241080" lon="-7.2277150">
        <ele>776.9</ele>
        <time>2014-10-02T09:59:11Z</time>
      </trkpt>
      <trkpt lat="42.5241370" lon="-7.2277070">
        <ele>777.1</ele>
        <time>2014-10-02T09:59:12Z</time>
      </trkpt>
      <trkpt lat="42.5241640" lon="-7.2276990">
        <ele>777.3</ele>
        <time>2014-10-02T09:59:13Z</time>
      </trkpt>
      <trkpt lat="42.5241920" lon="-7.2276890">
        <ele>777.4</ele>
        <time>2014-10-02T09:59:14Z</time>
      </trkpt>
      <trkpt lat="42.5242250" lon="-7.2276800">
        <ele>777.6</ele>
        <time>2014-10-02T09:59:15Z</time>
      </trkpt>
      <trkpt lat="42.5242600" lon="-7.2276740">
        <ele>777.7</ele>
        <time>2014-10-02T09:59:16Z</time>
      </trkpt>
      <trkpt lat="42.5242910" lon="-7.2276670">
        <ele>778.4</ele>
        <time>2014-10-02T09:59:17Z</time>
      </trkpt>
      <trkpt lat="42.5243470" lon="-7.2276600">
        <ele>780.6</ele>
        <time>2014-10-02T09:59:19Z</time>
      </trkpt>
      <trkpt lat="42.5243780" lon="-7.2276570">
        <ele>781.8</ele>
        <time>2014-10-02T09:59:20Z</time>
      </trkpt>
      <trkpt lat="42.5244120" lon="-7.2276560">
        <ele>783.1</ele>
        <time>2014-10-02T09:59:21Z</time>
      </trkpt>
      <trkpt lat="42.5244480" lon="-7.2276550">
        <ele>783.6</ele>
        <time>2014-10-02T09:59:22Z</time>
      </trkpt>
      <trkpt lat="42.5244840" lon="-7.2276550">
        <ele>783.7</ele>
        <time>2014-10-02T09:59:23Z</time>
      </trkpt>
      <trkpt lat="42.5245190" lon="-7.2276600">
        <ele>783.7</ele>
        <time>2014-10-02T09:59:24Z</time>
      </trkpt>
      <trkpt lat="42.5245540" lon="-7.2276670">
        <ele>783.7</ele>
        <time>2014-10-02T09:59:25Z</time>
      </trkpt>
      <trkpt lat="42.5245900" lon="-7.2276750">
        <ele>783.8</ele>
        <time>2014-10-02T09:59:26Z</time>
      </trkpt>
      <trkpt lat="42.5246230" lon="-7.2276890">
        <ele>783.8</ele>
        <time>2014-10-02T09:59:27Z</time>
      </trkpt>
      <trkpt lat="42.5246560" lon="-7.2277070">
        <ele>783.8</ele>
        <time>2014-10-02T09:59:28Z</time>
      </trkpt>
      <trkpt lat="42.5246870" lon="-7.2277300">
        <ele>783.9</ele>
        <time>2014-10-02T09:59:29Z</time>
      </trkpt>
      <trkpt lat="42.5247170" lon="-7.2277520">
        <ele>783.9</ele>
        <time>2014-10-02T09:59:30Z</time>
      </trkpt>
      <trkpt lat="42.5247480" lon="-7.2277790">
        <ele>783.9</ele>
        <time>2014-10-02T09:59:31Z</time>
      </trkpt>
      <trkpt lat="42.5247780" lon="-7.2278080">
        <ele>783.9</ele>
        <time>2014-10-02T09:59:32Z</time>
      </trkpt>
      <trkpt lat="42.5248050" lon="-7.2278420">
        <ele>783.8</ele>
        <time>2014-10-02T09:59:33Z</time>
      </trkpt>
      <trkpt lat="42.5248340" lon="-7.2278770">
        <ele>784.0</ele>
        <time>2014-10-02T09:59:34Z</time>
      </trkpt>
      <trkpt lat="42.5248600" lon="-7.2279140">
        <ele>784.7</ele>
        <time>2014-10-02T09:59:35Z</time>
      </trkpt>
      <trkpt lat="42.5248870" lon="-7.2279490">
        <ele>785.5</ele>
        <time>2014-10-02T09:59:36Z</time>
      </trkpt>
      <trkpt lat="42.5249130" lon="-7.2279900">
        <ele>786.3</ele>
        <time>2014-10-02T09:59:37Z</time>
      </trkpt>
      <trkpt lat="42.5249380" lon="-7.2280300">
        <ele>787.1</ele>
        <time>2014-10-02T09:59:38Z</time>
      </trkpt>
      <trkpt lat="42.5249640" lon="-7.2280710">
        <ele>788.0</ele>
        <time>2014-10-02T09:59:39Z</time>
      </trkpt>
      <trkpt lat="42.5249880" lon="-7.2281150">
        <ele>788.8</ele>
        <time>2014-10-02T09:59:40Z</time>
      </trkpt>
      <trkpt lat="42.5250120" lon="-7.2281590">
        <ele>789.7</ele>
        <time>2014-10-02T09:59:41Z</time>
      </trkpt>
      <trkpt lat="42.5250360" lon="-7.2282030">
        <ele>790.5</ele>
        <time>2014-10-02T09:59:42Z</time>
      </trkpt>
      <trkpt lat="42.5250690" lon="-7.2282530">
        <ele>791.5</ele>
        <time>2014-10-02T09:59:43Z</time>
      </trkpt>
      <trkpt lat="42.5251000" lon="-7.2282970">
        <ele>792.5</ele>
        <time>2014-10-02T09:59:44Z</time>
      </trkpt>
      <trkpt lat="42.5251320" lon="-7.2283380">
        <ele>793.4</ele>
        <time>2014-10-02T09:59:45Z</time>
      </trkpt>
      <trkpt lat="42.5251670" lon="-7.2283810">
        <ele>794.4</ele>
        <time>2014-10-02T09:59:46Z</time>
      </trkpt>
      <trkpt lat="42.5252070" lon="-7.2284170">
        <ele>795.5</ele>
        <time>2014-10-02T09:59:47Z</time>
      </trkpt>
      <trkpt lat="42.5252520" lon="-7.2284490">
        <ele>796.6</ele>
        <time>2014-10-02T09:59:48Z</time>
      </trkpt>
      <trkpt lat="42.5252980" lon="-7.2284710">
        <ele>797.6</ele>
        <time>2014-10-02T09:59:49Z</time>
      </trkpt>
      <trkpt lat="42.5253420" lon="-7.2284880">
        <ele>798.6</ele>
        <time>2014-10-02T09:59:50Z</time>
      </trkpt>
      <trkpt lat="42.5253850" lon="-7.2285000">
        <ele>799.5</ele>
        <time>2014-10-02T09:59:51Z</time>
      </trkpt>
      <trkpt lat="42.5254280" lon="-7.2285080">
        <ele>800.4</ele>
        <time>2014-10-02T09:59:52Z</time>
      </trkpt>
      <trkpt lat="42.5254760" lon="-7.2285080">
        <ele>801.4</ele>
        <time>2014-10-02T09:59:53Z</time>
      </trkpt>
      <trkpt lat="42.5255250" lon="-7.2285030">
        <ele>802.5</ele>
        <time>2014-10-02T09:59:54Z</time>
      </trkpt>
      <trkpt lat="42.5255740" lon="-7.2284900">
        <ele>803.5</ele>
        <time>2014-10-02T09:59:55Z</time>
      </trkpt>
      <trkpt lat="42.5256190" lon="-7.2284720">
        <ele>804.5</ele>
        <time>2014-10-02T09:59:56Z</time>
      </trkpt>
      <trkpt lat="42.5256630" lon="-7.2284480">
        <ele>805.6</ele>
        <time>2014-10-02T09:59:57Z</time>
      </trkpt>
      <trkpt lat="42.5257050" lon="-7.2284250">
        <ele>806.5</ele>
        <time>2014-10-02T09:59:58Z</time>
      </trkpt>
      <trkpt lat="42.5257420" lon="-7.2284030">
        <ele>807.4</ele>
        <time>2014-10-02T09:59:59Z</time>
      </trkpt>
      <trkpt lat="42.5257790" lon="-7.2283780">
        <ele>808.3</ele>
        <time>2014-10-02T10:00:00Z</time>
      </trkpt>
      <trkpt lat="42.5258160" lon="-7.2283560">
        <ele>808.6</ele>
        <time>2014-10-02T10:00:01Z</time>
      </trkpt>
      <trkpt lat="42.5258510" lon="-7.2283310">
        <ele>807.8</ele>
        <time>2014-10-02T10:00:02Z</time>
      </trkpt>
      <trkpt lat="42.5258890" lon="-7.2283070">
        <ele>806.9</ele>
        <time>2014-10-02T10:00:03Z</time>
      </trkpt>
      <trkpt lat="42.5259270" lon="-7.2282800">
        <ele>806.0</ele>
        <time>2014-10-02T10:00:04Z</time>
      </trkpt>
      <trkpt lat="42.5259670" lon="-7.2282520">
        <ele>805.1</ele>
        <time>2014-10-02T10:00:05Z</time>
      </trkpt>
      <trkpt lat="42.5260090" lon="-7.2282230">
        <ele>804.1</ele>
        <time>2014-10-02T10:00:06Z</time>
      </trkpt>
      <trkpt lat="42.5260510" lon="-7.2281930">
        <ele>803.0</ele>
        <time>2014-10-02T10:00:07Z</time>
      </trkpt>
      <trkpt lat="42.5260910" lon="-7.2281660">
        <ele>802.0</ele>
        <time>2014-10-02T10:00:08Z</time>
      </trkpt>
      <trkpt lat="42.5261320" lon="-7.2281370">
        <ele>801.0</ele>
        <time>2014-10-02T10:00:09Z</time>
      </trkpt>
      <trkpt lat="42.5261740" lon="-7.2281080">
        <ele>800.0</ele>
        <time>2014-10-02T10:00:10Z</time>
      </trkpt>
      <trkpt lat="42.5262130" lon="-7.2280800">
        <ele>799.0</ele>
        <time>2014-10-02T10:00:11Z</time>
      </trkpt>
      <trkpt lat="42.5262540" lon="-7.2280540">
        <ele>798.0</ele>
        <time>2014-10-02T10:00:12Z</time>
      </trkpt>
      <trkpt lat="42.5262940" lon="-7.2280250">
        <ele>797.0</ele>
        <time>2014-10-02T10:00:13Z</time>
      </trkpt>
      <trkpt lat="42.5263350" lon="-7.2279980">
        <ele>796.0</ele>
        <time>2014-10-02T10:00:14Z</time>
      </trkpt>
      <trkpt lat="42.5263770" lon="-7.2279700">
        <ele>794.9</ele>
        <time>2014-10-02T10:00:15Z</time>
      </trkpt>
      <trkpt lat="42.5264210" lon="-7.2279410">
        <ele>793.8</ele>
        <time>2014-10-02T10:00:16Z</time>
      </trkpt>
      <trkpt lat="42.5264640" lon="-7.2279110">
        <ele>792.6</ele>
        <time>2014-10-02T10:00:17Z</time>
      </trkpt>
      <trkpt lat="42.5265100" lon="-7.2278800">
        <ele>791.4</ele>
        <time>2014-10-02T10:00:18Z</time>
      </trkpt>
      <trkpt lat="42.5265550" lon="-7.2278480">
        <ele>791.1</ele>
        <time>2014-10-02T10:00:19Z</time>
      </trkpt>
      <trkpt lat="42.5266010" lon="-7.2278160">
        <ele>791.1</ele>
        <time>2014-10-02T10:00:20Z</time>
      </trkpt>
      <trkpt lat="42.5266480" lon="-7.2277870">
        <ele>791.1</ele>
        <time>2014-10-02T10:00:21Z</time>
      </trkpt>
      <trkpt lat="42.5266960" lon="-7.2277570">
        <ele>791.2</ele>
        <time>2014-10-02T10:00:22Z</time>
      </trkpt>
      <trkpt lat="42.5267460" lon="-7.2277280">
        <ele>791.3</ele>
        <time>2014-10-02T10:00:23Z</time>
      </trkpt>
      <trkpt lat="42.5267940" lon="-7.2277000">
        <ele>791.4</ele>
        <time>2014-10-02T10:00:24Z</time>
      </trkpt>
      <trkpt lat="42.5268430" lon="-7.2276760">
        <ele>791.4</ele>
        <time>2014-10-02T10:00:25Z</time>
      </trkpt>
      <trkpt lat="42.5268960" lon="-7.2276490">
        <ele>791.5</ele>
        <time>2014-10-02T10:00:26Z</time>
      </trkpt>
      <trkpt lat="42.5269440" lon="-7.2276250">
        <ele>791.5</ele>
        <time>2014-10-02T10:00:27Z</time>
      </trkpt>
      <trkpt lat="42.5269940" lon="-7.2276040">
        <ele>791.5</ele>
        <time>2014-10-02T10:00:28Z</time>
      </trkpt>
      <trkpt lat="42.5270450" lon="-7.2275840">
        <ele>791.5</ele>
        <time>2014-10-02T10:00:29Z</time>
      </trkpt>
      <trkpt lat="42.5270990" lon="-7.2275670">
        <ele>791.5</ele>
        <time>2014-10-02T10:00:30Z</time>
      </trkpt>
      <trkpt lat="42.5271550" lon="-7.2275560">
        <ele>791.6</ele>
        <time>2014-10-02T10:00:31Z</time>
      </trkpt>
      <trkpt lat="42.5272110" lon="-7.2275490">
        <ele>791.6</ele>
        <time>2014-10-02T10:00:32Z</time>
      </trkpt>
      <trkpt lat="42.5272670" lon="-7.2275480">
        <ele>791.7</ele>
        <time>2014-10-02T10:00:33Z</time>
      </trkpt>
      <trkpt lat="42.5273240" lon="-7.2275530">
        <ele>791.7</ele>
        <time>2014-10-02T10:00:34Z</time>
      </trkpt>
      <trkpt lat="42.5273810" lon="-7.2275650">
        <ele>791.7</ele>
        <time>2014-10-02T10:00:35Z</time>
      </trkpt>
      <trkpt lat="42.5274380" lon="-7.2275850">
        <ele>791.7</ele>
        <time>2014-10-02T10:00:36Z</time>
      </trkpt>
      <trkpt lat="42.5274940" lon="-7.2276090">
        <ele>791.7</ele>
        <time>2014-10-02T10:00:37Z</time>
      </trkpt>
      <trkpt lat="42.5275490" lon="-7.2276370">
        <ele>791.7</ele>
        <time>2014-10-02T10:00:38Z</time>
      </trkpt>
      <trkpt lat="42.5276040" lon="-7.2276680">
        <ele>791.8</ele>
        <time>2014-10-02T10:00:39Z</time>
      </trkpt>
      <trkpt lat="42.5276580" lon="-7.2277010">
        <ele>791.8</ele>
        <time>2014-10-02T10:00:40Z</time>
      </trkpt>
      <trkpt lat="42.5277150" lon="-7.2277330">
        <ele>791.8</ele>
        <time>2014-10-02T10:00:41Z</time>
      </trkpt>
      <trkpt lat="42.5277700" lon="-7.2277700">
        <ele>791.9</ele>
        <time>2014-10-02T10:00:42Z</time>
      </trkpt>
      <trkpt lat="42.5278270" lon="-7.2278030">
        <ele>792.0</ele>
        <time>2014-10-02T10:00:43Z</time>
      </trkpt>
      <trkpt lat="42.5278820" lon="-7.2278340">
        <ele>792.0</ele>
        <time>2014-10-02T10:00:44Z</time>
      </trkpt>
      <trkpt lat="42.5279360" lon="-7.2278620">
        <ele>792.1</ele>
        <time>2014-10-02T10:00:45Z</time>
      </trkpt>
      <trkpt lat="42.5279910" lon="-7.2278880">
        <ele>792.2</ele>
        <time>2014-10-02T10:00:46Z</time>
      </trkpt>
      <trkpt lat="42.5280490" lon="-7.2279090">
        <ele>792.3</ele>
        <time>2014-10-02T10:00:47Z</time>
      </trkpt>
      <trkpt lat="42.5281130" lon="-7.2279260">
        <ele>792.5</ele>
        <time>2014-10-02T10:00:48Z</time>
      </trkpt>
      <trkpt lat="42.5281780" lon="-7.2279230">
        <ele>792.6</ele>
        <time>2014-10-02T10:00:49Z</time>
      </trkpt>
      <trkpt lat="42.5282460" lon="-7.2279170">
        <ele>792.7</ele>
        <time>2014-10-02T10:00:50Z</time>
      </trkpt>
      <trkpt lat="42.5283140" lon="-7.2279030">
        <ele>792.8</ele>
        <time>2014-10-02T10:00:51Z</time>
      </trkpt>
      <trkpt lat="42.5283770" lon="-7.2278680">
        <ele>792.9</ele>
        <time>2014-10-02T10:00:52Z</time>
      </trkpt>
      <trkpt lat="42.5284370" lon="-7.2278300">
        <ele>793.1</ele>
        <time>2014-10-02T10:00:53Z</time>
      </trkpt>
      <trkpt lat="42.5284930" lon="-7.2277900">
        <ele>793.2</ele>
        <time>2014-10-02T10:00:54Z</time>
      </trkpt>
      <trkpt lat="42.5285440" lon="-7.2277480">
        <ele>793.4</ele>
        <time>2014-10-02T10:00:55Z</time>
      </trkpt>
      <trkpt lat="42.5285920" lon="-7.2277020">
        <ele>793.6</ele>
        <time>2014-10-02T10:00:56Z</time>
      </trkpt>
      <trkpt lat="42.5286370" lon="-7.2276550">
        <ele>793.8</ele>
        <time>2014-10-02T10:00:57Z</time>
      </trkpt>
      <trkpt lat="42.5286800" lon="-7.2276060">
        <ele>794.0</ele>
        <time>2014-10-02T10:00:58Z</time>
      </trkpt>
      <trkpt lat="42.5287220" lon="-7.2275560">
        <ele>794.3</ele>
        <time>2014-10-02T10:00:59Z</time>
      </trkpt>
      <trkpt lat="42.5287590" lon="-7.2275130">
        <ele>794.6</ele>
        <time>2014-10-02T10:01:00Z</time>
      </trkpt>
      <trkpt lat="42.5287950" lon="-7.2274690">
        <ele>794.8</ele>
        <time>2014-10-02T10:01:01Z</time>
      </trkpt>
      <trkpt lat="42.5288310" lon="-7.2274250">
        <ele>795.0</ele>
        <time>2014-10-02T10:01:02Z</time>
      </trkpt>
      <trkpt lat="42.5288680" lon="-7.2273790">
        <ele>795.3</ele>
        <time>2014-10-02T10:01:03Z</time>
      </trkpt>
      <trkpt lat="42.5289040" lon="-7.2273370">
        <ele>795.5</ele>
        <time>2014-10-02T10:01:04Z</time>
      </trkpt>
      <trkpt lat="42.5289390" lon="-7.2272970">
        <ele>795.8</ele>
        <time>2014-10-02T10:01:05Z</time>
      </trkpt>
      <trkpt lat="42.5289720" lon="-7.2272590">
        <ele>796.1</ele>
        <time>2014-10-02T10:01:06Z</time>
      </trkpt>
      <trkpt lat="42.5290060" lon="-7.2272200">
        <ele>796.4</ele>
        <time>2014-10-02T10:01:07Z</time>
      </trkpt>
      <trkpt lat="42.5290390" lon="-7.2271830">
        <ele>796.7</ele>
        <time>2014-10-02T10:01:08Z</time>
      </trkpt>
      <trkpt lat="42.5290710" lon="-7.2271460">
        <ele>797.0</ele>
        <time>2014-10-02T10:01:09Z</time>
      </trkpt>
      <trkpt lat="42.5291000" lon="-7.2271130">
        <ele>797.4</ele>
        <time>2014-10-02T10:01:10Z</time>
      </trkpt>
      <trkpt lat="42.5291310" lon="-7.2270780">
        <ele>797.7</ele>
        <time>2014-10-02T10:01:11Z</time>
      </trkpt>
      <trkpt lat="42.5291610" lon="-7.2270450">
        <ele>798.0</ele>
        <time>2014-10-02T10:01:12Z</time>
      </trkpt>
      <trkpt lat="42.5291920" lon="-7.2270110">
        <ele>798.4</ele>
        <time>2014-10-02T10:01:13Z</time>
      </trkpt>
      <trkpt lat="42.5292220" lon="-7.2269810">
        <ele>798.7</ele>
        <time>2014-10-02T10:01:14Z</time>
      </trkpt>
      <trkpt lat="42.5292500" lon="-7.2269540">
        <ele>799.0</ele>
        <time>2014-10-02T10:01:15Z</time>
      </trkpt>
      <trkpt lat="42.5292830" lon="-7.2269220">
        <ele>799.4</ele>
        <time>2014-10-02T10:01:16Z</time>
      </trkpt>
      <trkpt lat="42.5293180" lon="-7.2268910">
        <ele>799.7</ele>
        <time>2014-10-02T10:01:17Z</time>
      </trkpt>
      <trkpt lat="42.5293510" lon="-7.2268620">
        <ele>800.0</ele>
        <time>2014-10-02T10:01:18Z</time>
      </trkpt>
      <trkpt lat="42.5293780" lon="-7.2268390">
        <ele>800.3</ele>
        <time>2014-10-02T10:01:19Z</time>
      </trkpt>
      <trkpt lat="42.5294090" lon="-7.2268140">
        <ele>800.5</ele>
        <time>2014-10-02T10:01:20Z</time>
      </trkpt>
      <trkpt lat="42.5294430" lon="-7.2267900">
        <ele>800.8</ele>
        <time>2014-10-02T10:01:21Z</time>
      </trkpt>
      <trkpt lat="42.5294750" lon="-7.2267670">
        <ele>801.1</ele>
        <time>2014-10-02T10:01:22Z</time>
      </trkpt>
      <trkpt lat="42.5295070" lon="-7.2267480">
        <ele>801.4</ele>
        <time>2014-10-02T10:01:23Z</time>
      </trkpt>
      <trkpt lat="42.5295390" lon="-7.2267280">
        <ele>801.6</ele>
        <time>2014-10-02T10:01:24Z</time>
      </trkpt>
      <trkpt lat="42.5295720" lon="-7.2267080">
        <ele>801.9</ele>
        <time>2014-10-02T10:01:25Z</time>
      </trkpt>
      <trkpt lat="42.5296040" lon="-7.2266900">
        <ele>802.1</ele>
        <time>2014-10-02T10:01:26Z</time>
      </trkpt>
      <trkpt lat="42.5296330" lon="-7.2266740">
        <ele>802.4</ele>
        <time>2014-10-02T10:01:27Z</time>
      </trkpt>
      <trkpt lat="42.5296610" lon="-7.2266590">
        <ele>802.6</ele>
        <time>2014-10-02T10:01:28Z</time>
      </trkpt>
      <trkpt lat="42.5296890" lon="-7.2266420">
        <ele>802.8</ele>
        <time>2014-10-02T10:01:29Z</time>
      </trkpt>
      <trkpt lat="42.5297220" lon="-7.2266210">
        <ele>803.1</ele>
        <time>2014-10-02T10:01:30Z</time>
      </trkpt>
      <trkpt lat="42.5297540" lon="-7.2265990">
        <ele>803.3</ele>
        <time>2014-10-02T10:01:31Z</time>
      </trkpt>
      <trkpt lat="42.5297800" lon="-7.2265790">
        <ele>803.6</ele>
        <time>2014-10-02T10:01:32Z</time>
      </trkpt>
      <trkpt lat="42.5298040" lon="-7.2265600">
        <ele>803.8</ele>
        <time>2014-10-02T10:01:33Z</time>
      </trkpt>
      <trkpt lat="42.5298330" lon="-7.2265360">
        <ele>804.0</ele>
        <time>2014-10-02T10:01:34Z</time>
      </trkpt>
      <trkpt lat="42.5298610" lon="-7.2265120">
        <ele>804.3</ele>
        <time>2014-10-02T10:01:35Z</time>
      </trkpt>
      <trkpt lat="42.5298900" lon="-7.2264840">
        <ele>804.5</ele>
        <time>2014-10-02T10:01:36Z</time>
      </trkpt>
      <trkpt lat="42.5299150" lon="-7.2264570">
        <ele>804.7</ele>
        <time>2014-10-02T10:01:37Z</time>
      </trkpt>
      <trkpt lat="42.5299430" lon="-7.2264250">
        <ele>805.0</ele>
        <time>2014-10-02T10:01:38Z</time>
      </trkpt>
      <trkpt lat="42.5299640" lon="-7.2263990">
        <ele>805.2</ele>
        <time>2014-10-02T10:01:39Z</time>
      </trkpt>
      <trkpt lat="42.5299860" lon="-7.2263700">
        <ele>805.4</ele>
        <time>2014-10-02T10:01:40Z</time>
      </trkpt>
      <trkpt lat="42.5300090" lon="-7.2263380">
        <ele>805.7</ele>
        <time>2014-10-02T10:01:41Z</time>
      </trkpt>
      <trkpt lat="42.5300330" lon="-7.2263030">
        <ele>805.9</ele>
        <time>2014-10-02T10:01:42Z</time>
      </trkpt>
      <trkpt lat="42.5300570" lon="-7.2262650">
        <ele>806.2</ele>
        <time>2014-10-02T10:01:43Z</time>
      </trkpt>
      <trkpt lat="42.5300820" lon="-7.2262240">
        <ele>806.5</ele>
        <time>2014-10-02T10:01:44Z</time>
      </trkpt>
      <trkpt lat="42.5301090" lon="-7.2261790">
        <ele>806.8</ele>
        <time>2014-10-02T10:01:45Z</time>
      </trkpt>
      <trkpt lat="42.5301310" lon="-7.2261400">
        <ele>807.0</ele>
        <time>2014-10-02T10:01:46Z</time>
      </trkpt>
      <trkpt lat="42.5301500" lon="-7.2261050">
        <ele>807.2</ele>
        <time>2014-10-02T10:01:47Z</time>
      </trkpt>
      <trkpt lat="42.5301680" lon="-7.2260740">
        <ele>807.4</ele>
        <time>2014-10-02T10:01:48Z</time>
      </trkpt>
      <trkpt lat="42.5301890" lon="-7.2260420">
        <ele>807.6</ele>
        <time>2014-10-02T10:01:49Z</time>
      </trkpt>
      <trkpt lat="42.5302120" lon="-7.2260080">
        <ele>807.8</ele>
        <time>2014-10-02T10:01:50Z</time>
      </trkpt>
      <trkpt lat="42.5302380" lon="-7.2259710">
        <ele>808.0</ele>
        <time>2014-10-02T10:01:51Z</time>
      </trkpt>
      <trkpt lat="42.5302660" lon="-7.2259320">
        <ele>808.2</ele>
        <time>2014-10-02T10:01:52Z</time>
      </trkpt>
      <trkpt lat="42.5302940" lon="-7.2258930">
        <ele>808.4</ele>
        <time>2014-10-02T10:01:53Z</time>
      </trkpt>
      <trkpt lat="42.5303220" lon="-7.2258540">
        <ele>808.6</ele>
        <time>2014-10-02T10:01:54Z</time>
      </trkpt>
      <trkpt lat="42.5303460" lon="-7.2258200">
        <ele>808.8</ele>
        <time>2014-10-02T10:01:55Z</time>
      </trkpt>
      <trkpt lat="42.5303720" lon="-7.2257850">
        <ele>809.0</ele>
        <time>2014-10-02T10:01:56Z</time>
      </trkpt>
      <trkpt lat="42.5303960" lon="-7.2257510">
        <ele>809.2</ele>
        <time>2014-10-02T10:01:57Z</time>
      </trkpt>
      <trkpt lat="42.5304190" lon="-7.2257210">
        <ele>809.4</ele>
        <time>2014-10-02T10:01:58Z</time>
      </trkpt>
      <trkpt lat="42.5304430" lon="-7.2256900">
        <ele>809.6</ele>
        <time>2014-10-02T10:01:59Z</time>
      </trkpt>
      <trkpt lat="42.5304680" lon="-7.2256580">
        <ele>809.7</ele>
        <time>2014-10-02T10:02:00Z</time>
      </trkpt>
      <trkpt lat="42.5304950" lon="-7.2256230">
        <ele>810.0</ele>
        <time>2014-10-02T10:02:01Z</time>
      </trkpt>
      <trkpt lat="42.5305210" lon="-7.2255880">
        <ele>810.2</ele>
        <time>2014-10-02T10:02:02Z</time>
      </trkpt>
      <trkpt lat="42.5305470" lon="-7.2255550">
        <ele>810.4</ele>
        <time>2014-10-02T10:02:03Z</time>
      </trkpt>
      <trkpt lat="42.5305750" lon="-7.2255230">
        <ele>810.6</ele>
        <time>2014-10-02T10:02:04Z</time>
      </trkpt>
      <trkpt lat="42.5306020" lon="-7.2254910">
        <ele>810.9</ele>
        <time>2014-10-02T10:02:05Z</time>
      </trkpt>
      <trkpt lat="42.5306300" lon="-7.2254580">
        <ele>811.1</ele>
        <time>2014-10-02T10:02:06Z</time>
      </trkpt>
      <trkpt lat="42.5306600" lon="-7.2254260">
        <ele>811.3</ele>
        <time>2014-10-02T10:02:07Z</time>
      </trkpt>
      <trkpt lat="42.5306890" lon="-7.2253930">
        <ele>811.5</ele>
        <time>2014-10-02T10:02:08Z</time>
      </trkpt>
      <trkpt lat="42.5307190" lon="-7.2253610">
        <ele>811.8</ele>
        <time>2014-10-02T10:02:09Z</time>
      </trkpt>
      <trkpt lat="42.5307480" lon="-7.2253300">
        <ele>812.0</ele>
        <time>2014-10-02T10:02:10Z</time>
      </trkpt>
      <trkpt lat="42.5307780" lon="-7.2253000">
        <ele>812.2</ele>
        <time>2014-10-02T10:02:11Z</time>
      </trkpt>
      <trkpt lat="42.5308090" lon="-7.2252710">
        <ele>812.5</ele>
        <time>2014-10-02T10:02:12Z</time>
      </trkpt>
      <trkpt lat="42.5308400" lon="-7.2252420">
        <ele>812.7</ele>
        <time>2014-10-02T10:02:13Z</time>
      </trkpt>
      <trkpt lat="42.5308720" lon="-7.2252110">
        <ele>813.0</ele>
        <time>2014-10-02T10:02:14Z</time>
      </trkpt>
      <trkpt lat="42.5309030" lon="-7.2251830">
        <ele>813.2</ele>
        <time>2014-10-02T10:02:15Z</time>
      </trkpt>
      <trkpt lat="42.5309330" lon="-7.2251560">
        <ele>813.4</ele>
        <time>2014-10-02T10:02:16Z</time>
      </trkpt>
      <trkpt lat="42.5309630" lon="-7.2251300">
        <ele>813.7</ele>
        <time>2014-10-02T10:02:17Z</time>
      </trkpt>
      <trkpt lat="42.5309910" lon="-7.2251030">
        <ele>813.9</ele>
        <time>2014-10-02T10:02:18Z</time>
      </trkpt>
      <trkpt lat="42.5310190" lon="-7.2250770">
        <ele>814.1</ele>
        <time>2014-10-02T10:02:19Z</time>
      </trkpt>
      <trkpt lat="42.5310460" lon="-7.2250530">
        <ele>814.3</ele>
        <time>2014-10-02T10:02:20Z</time>
      </trkpt>
      <trkpt lat="42.5310720" lon="-7.2250300">
        <ele>814.6</ele>
        <time>2014-10-02T10:02:21Z</time>
      </trkpt>
      <trkpt lat="42.5310990" lon="-7.2250080">
        <ele>814.8</ele>
        <time>2014-10-02T10:02:22Z</time>
      </trkpt>
      <trkpt lat="42.5311270" lon="-7.2249870">
        <ele>815.1</ele>
        <time>2014-10-02T10:02:23Z</time>
      </trkpt>
      <trkpt lat="42.5311530" lon="-7.2249670">
        <ele>815.3</ele>
        <time>2014-10-02T10:02:24Z</time>
      </trkpt>
      <trkpt lat="42.5311800" lon="-7.2249480">
        <ele>815.6</ele>
        <time>2014-10-02T10:02:25Z</time>
      </trkpt>
      <trkpt lat="42.5312070" lon="-7.2249260">
        <ele>815.8</ele>
        <time>2014-10-02T10:02:26Z</time>
      </trkpt>
      <trkpt lat="42.5312310" lon="-7.2249080">
        <ele>816.1</ele>
        <time>2014-10-02T10:02:27Z</time>
      </trkpt>
      <trkpt lat="42.5312560" lon="-7.2248890">
        <ele>816.4</ele>
        <time>2014-10-02T10:02:28Z</time>
      </trkpt>
      <trkpt lat="42.5312810" lon="-7.2248700">
        <ele>816.6</ele>
        <time>2014-10-02T10:02:29Z</time>
      </trkpt>
      <trkpt lat="42.5313060" lon="-7.2248500">
        <ele>816.9</ele>
        <time>2014-10-02T10:02:30Z</time>
      </trkpt>
      <trkpt lat="42.5313530" lon="-7.2248170">
        <ele>817.4</ele>
        <time>2014-10-02T10:02:32Z</time>
      </trkpt>
      <trkpt lat="42.5313800" lon="-7.2247970">
        <ele>817.7</ele>
        <time>2014-10-02T10:02:33Z</time>
      </trkpt>
      <trkpt lat="42.5314260" lon="-7.2247620">
        <ele>818.2</ele>
        <time>2014-10-02T10:02:35Z</time>
      </trkpt>
      <trkpt lat="42.5314530" lon="-7.2247430">
        <ele>818.5</ele>
        <time>2014-10-02T10:02:36Z</time>
      </trkpt>
      <trkpt lat="42.5314990" lon="-7.2247100">
        <ele>819.1</ele>
        <time>2014-10-02T10:02:38Z</time>
      </trkpt>
      <trkpt lat="42.5315260" lon="-7.2246940">
        <ele>819.4</ele>
        <time>2014-10-02T10:02:39Z</time>
      </trkpt>
      <trkpt lat="42.5315760" lon="-7.2246680">
        <ele>820.0</ele>
        <time>2014-10-02T10:02:41Z</time>
      </trkpt>
      <trkpt lat="42.5316270" lon="-7.2246460">
        <ele>820.6</ele>
        <time>2014-10-02T10:02:43Z</time>
      </trkpt>
      <trkpt lat="42.5316780" lon="-7.2246290">
        <ele>821.1</ele>
        <time>2014-10-02T10:02:45Z</time>
      </trkpt>
      <trkpt lat="42.5317280" lon="-7.2246190">
        <ele>821.7</ele>
        <time>2014-10-02T10:02:47Z</time>
      </trkpt>
      <trkpt lat="42.5317770" lon="-7.2246150">
        <ele>822.2</ele>
        <time>2014-10-02T10:02:49Z</time>
      </trkpt>
      <trkpt lat="42.5318290" lon="-7.2246140">
        <ele>822.8</ele>
        <time>2014-10-02T10:02:51Z</time>
      </trkpt>
      <trkpt lat="42.5318820" lon="-7.2246190">
        <ele>823.3</ele>
        <time>2014-10-02T10:02:53Z</time>
      </trkpt>
      <trkpt lat="42.5319340" lon="-7.2246300">
        <ele>823.9</ele>
        <time>2014-10-02T10:02:55Z</time>
      </trkpt>
      <trkpt lat="42.5319830" lon="-7.2246500">
        <ele>824.5</ele>
        <time>2014-10-02T10:02:57Z</time>
      </trkpt>
      <trkpt lat="42.5320340" lon="-7.2246770">
        <ele>825.0</ele>
        <time>2014-10-02T10:02:59Z</time>
      </trkpt>
      <trkpt lat="42.5320610" lon="-7.2246940">
        <ele>825.3</ele>
        <time>2014-10-02T10:03:00Z</time>
      </trkpt>
      <trkpt lat="42.5321080" lon="-7.2247230">
        <ele>825.8</ele>
        <time>2014-10-02T10:03:02Z</time>
      </trkpt>
      <trkpt lat="42.5321490" lon="-7.2247500">
        <ele>826.3</ele>
        <time>2014-10-02T10:03:04Z</time>
      </trkpt>
      <trkpt lat="42.5321960" lon="-7.2247830">
        <ele>826.9</ele>
        <time>2014-10-02T10:03:06Z</time>
      </trkpt>
      <trkpt lat="42.5322430" lon="-7.2248190">
        <ele>827.4</ele>
        <time>2014-10-02T10:03:08Z</time>
      </trkpt>
      <trkpt lat="42.5322660" lon="-7.2248370">
        <ele>827.6</ele>
        <time>2014-10-02T10:03:09Z</time>
      </trkpt>
      <trkpt lat="42.5323120" lon="-7.2248690">
        <ele>828.2</ele>
        <time>2014-10-02T10:03:11Z</time>
      </trkpt>
      <trkpt lat="42.5323360" lon="-7.2248860">
        <ele>828.4</ele>
        <time>2014-10-02T10:03:12Z</time>
      </trkpt>
      <trkpt lat="42.5323600" lon="-7.2249040">
        <ele>828.7</ele>
        <time>2014-10-02T10:03:13Z</time>
      </trkpt>
      <trkpt lat="42.5323850" lon="-7.2249230">
        <ele>829.0</ele>
        <time>2014-10-02T10:03:14Z</time>
      </trkpt>
      <trkpt lat="42.5324080" lon="-7.2249410">
        <ele>829.3</ele>
        <time>2014-10-02T10:03:15Z</time>
      </trkpt>
      <trkpt lat="42.5324320" lon="-7.2249600">
        <ele>829.6</ele>
        <time>2014-10-02T10:03:16Z</time>
      </trkpt>
      <trkpt lat="42.5324550" lon="-7.2249800">
        <ele>829.9</ele>
        <time>2014-10-02T10:03:17Z</time>
      </trkpt>
      <trkpt lat="42.5325000" lon="-7.2250150">
        <ele>830.5</ele>
        <time>2014-10-02T10:03:19Z</time>
      </trkpt>
      <trkpt lat="42.5325460" lon="-7.2250460">
        <ele>831.1</ele>
        <time>2014-10-02T10:03:21Z</time>
      </trkpt>
      <trkpt lat="42.5325920" lon="-7.2250790">
        <ele>831.7</ele>
        <time>2014-10-02T10:03:23Z</time>
      </trkpt>
      <trkpt lat="42.5326370" lon="-7.2251120">
        <ele>832.3</ele>
        <time>2014-10-02T10:03:25Z</time>
      </trkpt>
      <trkpt lat="42.5326810" lon="-7.2251440">
        <ele>832.8</ele>
        <time>2014-10-02T10:03:27Z</time>
      </trkpt>
      <trkpt lat="42.5327260" lon="-7.2251780">
        <ele>833.3</ele>
        <time>2014-10-02T10:03:29Z</time>
      </trkpt>
      <trkpt lat="42.5327720" lon="-7.2252120">
        <ele>833.7</ele>
        <time>2014-10-02T10:03:31Z</time>
      </trkpt>
      <trkpt lat="42.5328130" lon="-7.2252440">
        <ele>834.2</ele>
        <time>2014-10-02T10:03:33Z</time>
      </trkpt>
      <trkpt lat="42.5328620" lon="-7.2252740">
        <ele>834.7</ele>
        <time>2014-10-02T10:03:35Z</time>
      </trkpt>
      <trkpt lat="42.5328870" lon="-7.2252880">
        <ele>834.9</ele>
        <time>2014-10-02T10:03:36Z</time>
      </trkpt>
      <trkpt lat="42.5329140" lon="-7.2253030">
        <ele>835.2</ele>
        <time>2014-10-02T10:03:37Z</time>
      </trkpt>
      <trkpt lat="42.5329500" lon="-7.2253400">
        <ele>835.6</ele>
        <time>2014-10-02T10:03:39Z</time>
      </trkpt>
      <trkpt lat="42.5329890" lon="-7.2253720">
        <ele>836.0</ele>
        <time>2014-10-02T10:03:41Z</time>
      </trkpt>
      <trkpt lat="42.5330300" lon="-7.2254030">
        <ele>836.4</ele>
        <time>2014-10-02T10:03:43Z</time>
      </trkpt>
      <trkpt lat="42.5330670" lon="-7.2254370">
        <ele>836.8</ele>
        <time>2014-10-02T10:03:45Z</time>
      </trkpt>
      <trkpt lat="42.5331070" lon="-7.2254680">
        <ele>837.2</ele>
        <time>2014-10-02T10:03:47Z</time>
      </trkpt>
      <trkpt lat="42.5331460" lon="-7.2255010">
        <ele>837.7</ele>
        <time>2014-10-02T10:03:49Z</time>
      </trkpt>
      <trkpt lat="42.5331700" lon="-7.2255180">
        <ele>838.0</ele>
        <time>2014-10-02T10:03:50Z</time>
      </trkpt>
      <trkpt lat="42.5332170" lon="-7.2255510">
        <ele>838.5</ele>
        <time>2014-10-02T10:03:52Z</time>
      </trkpt>
      <trkpt lat="42.5332410" lon="-7.2255670">
        <ele>838.7</ele>
        <time>2014-10-02T10:03:53Z</time>
      </trkpt>
      <trkpt lat="42.5332670" lon="-7.2255800">
        <ele>839.0</ele>
        <time>2014-10-02T10:03:54Z</time>
      </trkpt>
      <trkpt lat="42.5332990" lon="-7.2255960">
        <ele>839.6</ele>
        <time>2014-10-02T10:03:55Z</time>
      </trkpt>
      <trkpt lat="42.5333340" lon="-7.2256120">
        <ele>841.2</ele>
        <time>2014-10-02T10:03:56Z</time>
      </trkpt>
      <trkpt lat="42.5333670" lon="-7.2256260">
        <ele>842.6</ele>
        <time>2014-10-02T10:03:57Z</time>
      </trkpt>
      <trkpt lat="42.5333960" lon="-7.2256380">
        <ele>843.9</ele>
        <time>2014-10-02T10:03:58Z</time>
      </trkpt>
      <trkpt lat="42.5334270" lon="-7.2256510">
        <ele>845.3</ele>
        <time>2014-10-02T10:03:59Z</time>
      </trkpt>
      <trkpt lat="42.5334540" lon="-7.2256650">
        <ele>846.5</ele>
        <time>2014-10-02T10:04:00Z</time>
      </trkpt>
      <trkpt lat="42.5334820" lon="-7.2256790">
        <ele>847.7</ele>
        <time>2014-10-02T10:04:01Z</time>
      </trkpt>
      <trkpt lat="42.5335360" lon="-7.2257000">
        <ele>850.1</ele>
        <time>2014-10-02T10:04:03Z</time>
      </trkpt>
      <trkpt lat="42.5335650" lon="-7.2257080">
        <ele>851.3</ele>
        <time>2014-10-02T10:04:04Z</time>
      </trkpt>
      <trkpt lat="42.5335940" lon="-7.2257130">
        <ele>852.5</ele>
        <time>2014-10-02T10:04:05Z</time>
      </trkpt>
      <trkpt lat="42.5336220" lon="-7.2257190">
        <ele>853.6</ele>
        <time>2014-10-02T10:04:06Z</time>
      </trkpt>
      <trkpt lat="42.5336490" lon="-7.2257230">
        <ele>854.8</ele>
        <time>2014-10-02T10:04:07Z</time>
      </trkpt>
      <trkpt lat="42.5337030" lon="-7.2257250">
        <ele>856.7</ele>
        <time>2014-10-02T10:04:09Z</time>
      </trkpt>
      <trkpt lat="42.5337550" lon="-7.2257190">
        <ele>856.6</ele>
        <time>2014-10-02T10:04:11Z</time>
      </trkpt>
      <trkpt lat="42.5337820" lon="-7.2257130">
        <ele>856.5</ele>
        <time>2014-10-02T10:04:12Z</time>
      </trkpt>
      <trkpt lat="42.5338090" lon="-7.2257070">
        <ele>856.5</ele>
        <time>2014-10-02T10:04:13Z</time>
      </trkpt>
      <trkpt lat="42.5338620" lon="-7.2256930">
        <ele>856.4</ele>
        <time>2014-10-02T10:04:15Z</time>
      </trkpt>
      <trkpt lat="42.5338900" lon="-7.2256850">
        <ele>856.3</ele>
        <time>2014-10-02T10:04:16Z</time>
      </trkpt>
      <trkpt lat="42.5339400" lon="-7.2256650">
        <ele>856.2</ele>
        <time>2014-10-02T10:04:18Z</time>
      </trkpt>
      <trkpt lat="42.5339840" lon="-7.2256420">
        <ele>856.1</ele>
        <time>2014-10-02T10:04:20Z</time>
      </trkpt>
      <trkpt lat="42.5340230" lon="-7.2256130">
        <ele>856.1</ele>
        <time>2014-10-02T10:04:22Z</time>
      </trkpt>
      <trkpt lat="42.5340490" lon="-7.2255970">
        <ele>856.0</ele>
        <time>2014-10-02T10:04:23Z</time>
      </trkpt>
      <trkpt lat="42.5340740" lon="-7.2255790">
        <ele>855.9</ele>
        <time>2014-10-02T10:04:24Z</time>
      </trkpt>
      <trkpt lat="42.5340980" lon="-7.2255610">
        <ele>855.9</ele>
        <time>2014-10-02T10:04:25Z</time>
      </trkpt>
      <trkpt lat="42.5341360" lon="-7.2255220">
        <ele>855.8</ele>
        <time>2014-10-02T10:04:27Z</time>
      </trkpt>
      <trkpt lat="42.5341720" lon="-7.2254720">
        <ele>855.7</ele>
        <time>2014-10-02T10:04:29Z</time>
      </trkpt>
      <trkpt lat="42.5342040" lon="-7.2254170">
        <ele>855.6</ele>
        <time>2014-10-02T10:04:31Z</time>
      </trkpt>
      <trkpt lat="42.5342320" lon="-7.2253600">
        <ele>855.5</ele>
        <time>2014-10-02T10:04:33Z</time>
      </trkpt>
      <trkpt lat="42.5342480" lon="-7.2253280">
        <ele>855.5</ele>
        <time>2014-10-02T10:04:34Z</time>
      </trkpt>
      <trkpt lat="42.5342640" lon="-7.2252980">
        <ele>855.4</ele>
        <time>2014-10-02T10:04:35Z</time>
      </trkpt>
      <trkpt lat="42.5342810" lon="-7.2252660">
        <ele>855.3</ele>
        <time>2014-10-02T10:04:36Z</time>
      </trkpt>
      <trkpt lat="42.5342930" lon="-7.2252330">
        <ele>855.3</ele>
        <time>2014-10-02T10:04:37Z</time>
      </trkpt>
      <trkpt lat="42.5343050" lon="-7.2251980">
        <ele>855.2</ele>
        <time>2014-10-02T10:04:38Z</time>
      </trkpt>
      <trkpt lat="42.5343170" lon="-7.2251620">
        <ele>855.1</ele>
        <time>2014-10-02T10:04:39Z</time>
      </trkpt>
      <trkpt lat="42.5343290" lon="-7.2251250">
        <ele>855.0</ele>
        <time>2014-10-02T10:04:40Z</time>
      </trkpt>
      <trkpt lat="42.5343420" lon="-7.2250860">
        <ele>854.9</ele>
        <time>2014-10-02T10:04:41Z</time>
      </trkpt>
      <trkpt lat="42.5343520" lon="-7.2250480">
        <ele>854.9</ele>
        <time>2014-10-02T10:04:42Z</time>
      </trkpt>
      <trkpt lat="42.5343620" lon="-7.2250110">
        <ele>854.8</ele>
        <time>2014-10-02T10:04:43Z</time>
      </trkpt>
      <trkpt lat="42.5343700" lon="-7.2249750">
        <ele>854.7</ele>
        <time>2014-10-02T10:04:44Z</time>
      </trkpt>
      <trkpt lat="42.5343770" lon="-7.2249390">
        <ele>854.6</ele>
        <time>2014-10-02T10:04:45Z</time>
      </trkpt>
      <trkpt lat="42.5343840" lon="-7.2249030">
        <ele>854.5</ele>
        <time>2014-10-02T10:04:46Z</time>
      </trkpt>
      <trkpt lat="42.5343900" lon="-7.2248330">
        <ele>854.4</ele>
        <time>2014-10-02T10:04:48Z</time>
      </trkpt>
      <trkpt lat="42.5343940" lon="-7.2247610">
        <ele>854.2</ele>
        <time>2014-10-02T10:04:50Z</time>
      </trkpt>
      <trkpt lat="42.5343940" lon="-7.2247240">
        <ele>854.1</ele>
        <time>2014-10-02T10:04:51Z</time>
      </trkpt>
      <trkpt lat="42.5343940" lon="-7.2246850">
        <ele>854.0</ele>
        <time>2014-10-02T10:04:52Z</time>
      </trkpt>
      <trkpt lat="42.5343940" lon="-7.2246460">
        <ele>853.9</ele>
        <time>2014-10-02T10:04:53Z</time>
      </trkpt>
      <trkpt lat="42.5343920" lon="-7.2246090">
        <ele>853.7</ele>
        <time>2014-10-02T10:04:54Z</time>
      </trkpt>
      <trkpt lat="42.5343880" lon="-7.2245370">
        <ele>853.4</ele>
        <time>2014-10-02T10:04:56Z</time>
      </trkpt>
      <trkpt lat="42.5343830" lon="-7.2244650">
        <ele>853.1</ele>
        <time>2014-10-02T10:04:58Z</time>
      </trkpt>
      <trkpt lat="42.5343780" lon="-7.2243940">
        <ele>853.3</ele>
        <time>2014-10-02T10:05:00Z</time>
      </trkpt>
      <trkpt lat="42.5343730" lon="-7.2243240">
        <ele>853.7</ele>
        <time>2014-10-02T10:05:02Z</time>
      </trkpt>
      <trkpt lat="42.5343690" lon="-7.2242510">
        <ele>854.2</ele>
        <time>2014-10-02T10:05:04Z</time>
      </trkpt>
      <trkpt lat="42.5343680" lon="-7.2242140">
        <ele>854.4</ele>
        <time>2014-10-02T10:05:05Z</time>
      </trkpt>
      <trkpt lat="42.5343670" lon="-7.2241770">
        <ele>854.6</ele>
        <time>2014-10-02T10:05:06Z</time>
      </trkpt>
      <trkpt lat="42.5343660" lon="-7.2241400">
        <ele>854.9</ele>
        <time>2014-10-02T10:05:07Z</time>
      </trkpt>
      <trkpt lat="42.5343660" lon="-7.2240670">
        <ele>855.3</ele>
        <time>2014-10-02T10:05:09Z</time>
      </trkpt>
      <trkpt lat="42.5343650" lon="-7.2239970">
        <ele>855.7</ele>
        <time>2014-10-02T10:05:11Z</time>
      </trkpt>
      <trkpt lat="42.5343620" lon="-7.2239240">
        <ele>856.2</ele>
        <time>2014-10-02T10:05:13Z</time>
      </trkpt>
      <trkpt lat="42.5343590" lon="-7.2238520">
        <ele>856.6</ele>
        <time>2014-10-02T10:05:15Z</time>
      </trkpt>
      <trkpt lat="42.5343550" lon="-7.2237800">
        <ele>857.0</ele>
        <time>2014-10-02T10:05:17Z</time>
      </trkpt>
      <trkpt lat="42.5343530" lon="-7.2237090">
        <ele>857.5</ele>
        <time>2014-10-02T10:05:19Z</time>
      </trkpt>
      <trkpt lat="42.5343510" lon="-7.2236360">
        <ele>858.0</ele>
        <time>2014-10-02T10:05:21Z</time>
      </trkpt>
      <trkpt lat="42.5343490" lon="-7.2236000">
        <ele>858.2</ele>
        <time>2014-10-02T10:05:22Z</time>
      </trkpt>
      <trkpt lat="42.5343440" lon="-7.2235270">
        <ele>858.7</ele>
        <time>2014-10-02T10:05:24Z</time>
      </trkpt>
      <trkpt lat="42.5343430" lon="-7.2234890">
        <ele>859.0</ele>
        <time>2014-10-02T10:05:25Z</time>
      </trkpt>
      <trkpt lat="42.5343400" lon="-7.2234160">
        <ele>859.5</ele>
        <time>2014-10-02T10:05:27Z</time>
      </trkpt>
      <trkpt lat="42.5343380" lon="-7.2233790">
        <ele>859.7</ele>
        <time>2014-10-02T10:05:28Z</time>
      </trkpt>
      <trkpt lat="42.5343350" lon="-7.2233430">
        <ele>860.0</ele>
        <time>2014-10-02T10:05:29Z</time>
      </trkpt>
      <trkpt lat="42.5343320" lon="-7.2233060">
        <ele>860.3</ele>
        <time>2014-10-02T10:05:30Z</time>
      </trkpt>
      <trkpt lat="42.5343290" lon="-7.2232690">
        <ele>860.5</ele>
        <time>2014-10-02T10:05:31Z</time>
      </trkpt>
      <trkpt lat="42.5343270" lon="-7.2232320">
        <ele>860.7</ele>
        <time>2014-10-02T10:05:32Z</time>
      </trkpt>
      <trkpt lat="42.5343230" lon="-7.2231670">
        <ele>861.2</ele>
        <time>2014-10-02T10:05:34Z</time>
      </trkpt>
      <trkpt lat="42.5343210" lon="-7.2230980">
        <ele>861.6</ele>
        <time>2014-10-02T10:05:36Z</time>
      </trkpt>
      <trkpt lat="42.5343210" lon="-7.2230310">
        <ele>862.0</ele>
        <time>2014-10-02T10:05:38Z</time>
      </trkpt>
      <trkpt lat="42.5343220" lon="-7.2229630">
        <ele>862.4</ele>
        <time>2014-10-02T10:05:40Z</time>
      </trkpt>
      <trkpt lat="42.5343080" lon="-7.2229050">
        <ele>862.8</ele>
        <time>2014-10-02T10:05:42Z</time>
      </trkpt>
      <trkpt lat="42.5343070" lon="-7.2228540">
        <ele>863.2</ele>
        <time>2014-10-02T10:05:44Z</time>
      </trkpt>
      <trkpt lat="42.5343030" lon="-7.2228160">
        <ele>863.4</ele>
        <time>2014-10-02T10:05:46Z</time>
      </trkpt>
      <trkpt lat="42.5343200" lon="-7.2227590">
        <ele>863.8</ele>
        <time>2014-10-02T10:05:50Z</time>
      </trkpt>
      <trkpt lat="42.5343250" lon="-7.2227220">
        <ele>864.0</ele>
        <time>2014-10-02T10:05:51Z</time>
      </trkpt>
      <trkpt lat="42.5343300" lon="-7.2226850">
        <ele>864.3</ele>
        <time>2014-10-02T10:05:52Z</time>
      </trkpt>
      <trkpt lat="42.5343380" lon="-7.2226460">
        <ele>864.5</ele>
        <time>2014-10-02T10:05:53Z</time>
      </trkpt>
      <trkpt lat="42.5343450" lon="-7.2226010">
        <ele>864.8</ele>
        <time>2014-10-02T10:05:54Z</time>
      </trkpt>
      <trkpt lat="42.5343530" lon="-7.2225520">
        <ele>865.2</ele>
        <time>2014-10-02T10:05:55Z</time>
      </trkpt>
      <trkpt lat="42.5343610" lon="-7.2225120">
        <ele>865.6</ele>
        <time>2014-10-02T10:05:56Z</time>
      </trkpt>
      <trkpt lat="42.5343650" lon="-7.2224760">
        <ele>865.9</ele>
        <time>2014-10-02T10:05:57Z</time>
      </trkpt>
      <trkpt lat="42.5343670" lon="-7.2224380">
        <ele>866.3</ele>
        <time>2014-10-02T10:05:58Z</time>
      </trkpt>
      <trkpt lat="42.5343680" lon="-7.2223960">
        <ele>866.7</ele>
        <time>2014-10-02T10:05:59Z</time>
      </trkpt>
      <trkpt lat="42.5343680" lon="-7.2223540">
        <ele>867.0</ele>
        <time>2014-10-02T10:06:00Z</time>
      </trkpt>
      <trkpt lat="42.5343670" lon="-7.2223070">
        <ele>867.4</ele>
        <time>2014-10-02T10:06:01Z</time>
      </trkpt>
      <trkpt lat="42.5343650" lon="-7.2222630">
        <ele>867.8</ele>
        <time>2014-10-02T10:06:02Z</time>
      </trkpt>
      <trkpt lat="42.5343630" lon="-7.2222200">
        <ele>868.1</ele>
        <time>2014-10-02T10:06:03Z</time>
      </trkpt>
      <trkpt lat="42.5343630" lon="-7.2221790">
        <ele>868.5</ele>
        <time>2014-10-02T10:06:04Z</time>
      </trkpt>
      <trkpt lat="42.5343620" lon="-7.2221410">
        <ele>868.8</ele>
        <time>2014-10-02T10:06:05Z</time>
      </trkpt>
      <trkpt lat="42.5343630" lon="-7.2221030">
        <ele>869.1</ele>
        <time>2014-10-02T10:06:06Z</time>
      </trkpt>
      <trkpt lat="42.5343620" lon="-7.2220570">
        <ele>869.5</ele>
        <time>2014-10-02T10:06:07Z</time>
      </trkpt>
      <trkpt lat="42.5343610" lon="-7.2220100">
        <ele>869.8</ele>
        <time>2014-10-02T10:06:08Z</time>
      </trkpt>
      <trkpt lat="42.5343610" lon="-7.2219710">
        <ele>870.2</ele>
        <time>2014-10-02T10:06:09Z</time>
      </trkpt>
      <trkpt lat="42.5343630" lon="-7.2219310">
        <ele>870.5</ele>
        <time>2014-10-02T10:06:10Z</time>
      </trkpt>
      <trkpt lat="42.5343660" lon="-7.2218890">
        <ele>870.9</ele>
        <time>2014-10-02T10:06:11Z</time>
      </trkpt>
      <trkpt lat="42.5343720" lon="-7.2218130">
        <ele>871.5</ele>
        <time>2014-10-02T10:06:13Z</time>
      </trkpt>
      <trkpt lat="42.5343860" lon="-7.2217420">
        <ele>872.2</ele>
        <time>2014-10-02T10:06:15Z</time>
      </trkpt>
      <trkpt lat="42.5343930" lon="-7.2217000">
        <ele>872.5</ele>
        <time>2014-10-02T10:06:16Z</time>
      </trkpt>
      <trkpt lat="42.5344000" lon="-7.2216630">
        <ele>872.9</ele>
        <time>2014-10-02T10:06:17Z</time>
      </trkpt>
      <trkpt lat="42.5344050" lon="-7.2216270">
        <ele>873.2</ele>
        <time>2014-10-02T10:06:18Z</time>
      </trkpt>
      <trkpt lat="42.5344180" lon="-7.2215560">
        <ele>873.3</ele>
        <time>2014-10-02T10:06:20Z</time>
      </trkpt>
      <trkpt lat="42.5344260" lon="-7.2215170">
        <ele>873.3</ele>
        <time>2014-10-02T10:06:21Z</time>
      </trkpt>
      <trkpt lat="42.5344330" lon="-7.2214720">
        <ele>873.4</ele>
        <time>2014-10-02T10:06:22Z</time>
      </trkpt>
      <trkpt lat="42.5344410" lon="-7.2214350">
        <ele>873.4</ele>
        <time>2014-10-02T10:06:23Z</time>
      </trkpt>
      <trkpt lat="42.5344540" lon="-7.2213680">
        <ele>873.4</ele>
        <time>2014-10-02T10:06:25Z</time>
      </trkpt>
      <trkpt lat="42.5344590" lon="-7.2213320">
        <ele>873.4</ele>
        <time>2014-10-02T10:06:26Z</time>
      </trkpt>
      <trkpt lat="42.5344690" lon="-7.2212590">
        <ele>873.9</ele>
        <time>2014-10-02T10:06:28Z</time>
      </trkpt>
      <trkpt lat="42.5344760" lon="-7.2212190">
        <ele>874.2</ele>
        <time>2014-10-02T10:06:29Z</time>
      </trkpt>
      <trkpt lat="42.5344820" lon="-7.2211780">
        <ele>874.5</ele>
        <time>2014-10-02T10:06:30Z</time>
      </trkpt>
      <trkpt lat="42.5344880" lon="-7.2211360">
        <ele>874.8</ele>
        <time>2014-10-02T10:06:31Z</time>
      </trkpt>
      <trkpt lat="42.5344910" lon="-7.2210970">
        <ele>875.1</ele>
        <time>2014-10-02T10:06:32Z</time>
      </trkpt>
      <trkpt lat="42.5345010" lon="-7.2210250">
        <ele>875.6</ele>
        <time>2014-10-02T10:06:34Z</time>
      </trkpt>
      <trkpt lat="42.5345140" lon="-7.2209530">
        <ele>876.1</ele>
        <time>2014-10-02T10:06:36Z</time>
      </trkpt>
      <trkpt lat="42.5345200" lon="-7.2209100">
        <ele>876.4</ele>
        <time>2014-10-02T10:06:37Z</time>
      </trkpt>
      <trkpt lat="42.5345310" lon="-7.2208700">
        <ele>876.7</ele>
        <time>2014-10-02T10:06:38Z</time>
      </trkpt>
      <trkpt lat="42.5345470" lon="-7.2208020">
        <ele>877.2</ele>
        <time>2014-10-02T10:06:40Z</time>
      </trkpt>
      <trkpt lat="42.5345670" lon="-7.2207390">
        <ele>877.7</ele>
        <time>2014-10-02T10:06:42Z</time>
      </trkpt>
      <trkpt lat="42.5345910" lon="-7.2206820">
        <ele>878.1</ele>
        <time>2014-10-02T10:06:44Z</time>
      </trkpt>
      <trkpt lat="42.5346080" lon="-7.2206450">
        <ele>878.4</ele>
        <time>2014-10-02T10:06:45Z</time>
      </trkpt>
      <trkpt lat="42.5346290" lon="-7.2206050">
        <ele>878.7</ele>
        <time>2014-10-02T10:06:46Z</time>
      </trkpt>
      <trkpt lat="42.5346490" lon="-7.2205590">
        <ele>879.0</ele>
        <time>2014-10-02T10:06:47Z</time>
      </trkpt>
      <trkpt lat="42.5346680" lon="-7.2205180">
        <ele>879.3</ele>
        <time>2014-10-02T10:06:48Z</time>
      </trkpt>
      <trkpt lat="42.5346850" lon="-7.2204850">
        <ele>879.5</ele>
        <time>2014-10-02T10:06:49Z</time>
      </trkpt>
      <trkpt lat="42.5347000" lon="-7.2204510">
        <ele>879.7</ele>
        <time>2014-10-02T10:06:50Z</time>
      </trkpt>
      <trkpt lat="42.5347160" lon="-7.2204200">
        <ele>880.0</ele>
        <time>2014-10-02T10:06:51Z</time>
      </trkpt>
      <trkpt lat="42.5347460" lon="-7.2203650">
        <ele>880.4</ele>
        <time>2014-10-02T10:06:53Z</time>
      </trkpt>
      <trkpt lat="42.5347760" lon="-7.2203100">
        <ele>880.8</ele>
        <time>2014-10-02T10:06:55Z</time>
      </trkpt>
      <trkpt lat="42.5347940" lon="-7.2202780">
        <ele>881.0</ele>
        <time>2014-10-02T10:06:56Z</time>
      </trkpt>
      <trkpt lat="42.5348120" lon="-7.2202490">
        <ele>881.2</ele>
        <time>2014-10-02T10:06:57Z</time>
      </trkpt>
      <trkpt lat="42.5348450" lon="-7.2201960">
        <ele>881.6</ele>
        <time>2014-10-02T10:06:59Z</time>
      </trkpt>
      <trkpt lat="42.5348640" lon="-7.2201700">
        <ele>881.8</ele>
        <time>2014-10-02T10:07:00Z</time>
      </trkpt>
      <trkpt lat="42.5348860" lon="-7.2201420">
        <ele>882.0</ele>
        <time>2014-10-02T10:07:01Z</time>
      </trkpt>
      <trkpt lat="42.5349080" lon="-7.2201120">
        <ele>882.3</ele>
        <time>2014-10-02T10:07:02Z</time>
      </trkpt>
      <trkpt lat="42.5349300" lon="-7.2200800">
        <ele>882.6</ele>
        <time>2014-10-02T10:07:03Z</time>
      </trkpt>
      <trkpt lat="42.5349540" lon="-7.2200450">
        <ele>882.8</ele>
        <time>2014-10-02T10:07:04Z</time>
      </trkpt>
      <trkpt lat="42.5349770" lon="-7.2200100">
        <ele>883.1</ele>
        <time>2014-10-02T10:07:05Z</time>
      </trkpt>
      <trkpt lat="42.5350010" lon="-7.2199760">
        <ele>883.4</ele>
        <time>2014-10-02T10:07:06Z</time>
      </trkpt>
      <trkpt lat="42.5350230" lon="-7.2199430">
        <ele>883.7</ele>
        <time>2014-10-02T10:07:07Z</time>
      </trkpt>
      <trkpt lat="42.5350460" lon="-7.2199030">
        <ele>884.0</ele>
        <time>2014-10-02T10:07:08Z</time>
      </trkpt>
      <trkpt lat="42.5350670" lon="-7.2198650">
        <ele>884.3</ele>
        <time>2014-10-02T10:07:09Z</time>
      </trkpt>
      <trkpt lat="42.5350870" lon="-7.2198290">
        <ele>884.6</ele>
        <time>2014-10-02T10:07:10Z</time>
      </trkpt>
      <trkpt lat="42.5351050" lon="-7.2197960">
        <ele>884.8</ele>
        <time>2014-10-02T10:07:11Z</time>
      </trkpt>
      <trkpt lat="42.5351230" lon="-7.2197610">
        <ele>885.1</ele>
        <time>2014-10-02T10:07:12Z</time>
      </trkpt>
      <trkpt lat="42.5351410" lon="-7.2197260">
        <ele>885.3</ele>
        <time>2014-10-02T10:07:13Z</time>
      </trkpt>
      <trkpt lat="42.5351590" lon="-7.2196930">
        <ele>885.5</ele>
        <time>2014-10-02T10:07:14Z</time>
      </trkpt>
      <trkpt lat="42.5351780" lon="-7.2196640">
        <ele>885.7</ele>
        <time>2014-10-02T10:07:15Z</time>
      </trkpt>
      <trkpt lat="42.5351970" lon="-7.2196360">
        <ele>885.9</ele>
        <time>2014-10-02T10:07:16Z</time>
      </trkpt>
      <trkpt lat="42.5352170" lon="-7.2196050">
        <ele>886.1</ele>
        <time>2014-10-02T10:07:17Z</time>
      </trkpt>
      <trkpt lat="42.5352370" lon="-7.2195730">
        <ele>886.3</ele>
        <time>2014-10-02T10:07:18Z</time>
      </trkpt>
      <trkpt lat="42.5352570" lon="-7.2195400">
        <ele>886.5</ele>
        <time>2014-10-02T10:07:19Z</time>
      </trkpt>
      <trkpt lat="42.5352760" lon="-7.2195070">
        <ele>886.7</ele>
        <time>2014-10-02T10:07:20Z</time>
      </trkpt>
      <trkpt lat="42.5352950" lon="-7.2194730">
        <ele>887.0</ele>
        <time>2014-10-02T10:07:21Z</time>
      </trkpt>
      <trkpt lat="42.5353150" lon="-7.2194410">
        <ele>887.2</ele>
        <time>2014-10-02T10:07:22Z</time>
      </trkpt>
      <trkpt lat="42.5353330" lon="-7.2194090">
        <ele>887.4</ele>
        <time>2014-10-02T10:07:23Z</time>
      </trkpt>
      <trkpt lat="42.5353530" lon="-7.2193770">
        <ele>887.6</ele>
        <time>2014-10-02T10:07:24Z</time>
      </trkpt>
      <trkpt lat="42.5353730" lon="-7.2193450">
        <ele>887.8</ele>
        <time>2014-10-02T10:07:25Z</time>
      </trkpt>
      <trkpt lat="42.5353930" lon="-7.2193150">
        <ele>888.0</ele>
        <time>2014-10-02T10:07:26Z</time>
      </trkpt>
      <trkpt lat="42.5354140" lon="-7.2192840">
        <ele>888.3</ele>
        <time>2014-10-02T10:07:27Z</time>
      </trkpt>
      <trkpt lat="42.5354340" lon="-7.2192520">
        <ele>888.6</ele>
        <time>2014-10-02T10:07:28Z</time>
      </trkpt>
      <trkpt lat="42.5354550" lon="-7.2192200">
        <ele>888.8</ele>
        <time>2014-10-02T10:07:29Z</time>
      </trkpt>
      <trkpt lat="42.5354750" lon="-7.2191920">
        <ele>889.0</ele>
        <time>2014-10-02T10:07:30Z</time>
      </trkpt>
      <trkpt lat="42.5354970" lon="-7.2191580">
        <ele>889.3</ele>
        <time>2014-10-02T10:07:31Z</time>
      </trkpt>
      <trkpt lat="42.5355200" lon="-7.2191280">
        <ele>889.6</ele>
        <time>2014-10-02T10:07:32Z</time>
      </trkpt>
      <trkpt lat="42.5355440" lon="-7.2190960">
        <ele>889.8</ele>
        <time>2014-10-02T10:07:33Z</time>
      </trkpt>
      <trkpt lat="42.5355650" lon="-7.2190700">
        <ele>890.1</ele>
        <time>2014-10-02T10:07:34Z</time>
      </trkpt>
      <trkpt lat="42.5355860" lon="-7.2190450">
        <ele>890.3</ele>
        <time>2014-10-02T10:07:35Z</time>
      </trkpt>
      <trkpt lat="42.5356170" lon="-7.2190110">
        <ele>890.6</ele>
        <time>2014-10-02T10:07:36Z</time>
      </trkpt>
      <trkpt lat="42.5356450" lon="-7.2189810">
        <ele>890.9</ele>
        <time>2014-10-02T10:07:37Z</time>
      </trkpt>
      <trkpt lat="42.5356690" lon="-7.2189540">
        <ele>891.1</ele>
        <time>2014-10-02T10:07:38Z</time>
      </trkpt>
      <trkpt lat="42.5356930" lon="-7.2189270">
        <ele>891.4</ele>
        <time>2014-10-02T10:07:39Z</time>
      </trkpt>
      <trkpt lat="42.5357210" lon="-7.2189000">
        <ele>891.6</ele>
        <time>2014-10-02T10:07:40Z</time>
      </trkpt>
      <trkpt lat="42.5357500" lon="-7.2188770">
        <ele>891.9</ele>
        <time>2014-10-02T10:07:41Z</time>
      </trkpt>
      <trkpt lat="42.5357800" lon="-7.2188550">
        <ele>892.2</ele>
        <time>2014-10-02T10:07:42Z</time>
      </trkpt>
      <trkpt lat="42.5358050" lon="-7.2188330">
        <ele>892.4</ele>
        <time>2014-10-02T10:07:43Z</time>
      </trkpt>
      <trkpt lat="42.5358310" lon="-7.2188160">
        <ele>892.7</ele>
        <time>2014-10-02T10:07:44Z</time>
      </trkpt>
      <trkpt lat="42.5358570" lon="-7.2187990">
        <ele>892.9</ele>
        <time>2014-10-02T10:07:45Z</time>
      </trkpt>
      <trkpt lat="42.5359020" lon="-7.2187660">
        <ele>893.4</ele>
        <time>2014-10-02T10:07:47Z</time>
      </trkpt>
      <trkpt lat="42.5359520" lon="-7.2187330">
        <ele>893.9</ele>
        <time>2014-10-02T10:07:49Z</time>
      </trkpt>
      <trkpt lat="42.5359780" lon="-7.2187180">
        <ele>894.1</ele>
        <time>2014-10-02T10:07:50Z</time>
      </trkpt>
      <trkpt lat="42.5360070" lon="-7.2186990">
        <ele>894.4</ele>
        <time>2014-10-02T10:07:51Z</time>
      </trkpt>
      <trkpt lat="42.5360530" lon="-7.2186630">
        <ele>894.9</ele>
        <time>2014-10-02T10:07:53Z</time>
      </trkpt>
      <trkpt lat="42.5360780" lon="-7.2186470">
        <ele>895.1</ele>
        <time>2014-10-02T10:07:54Z</time>
      </trkpt>
      <trkpt lat="42.5361040" lon="-7.2186320">
        <ele>895.3</ele>
        <time>2014-10-02T10:07:55Z</time>
      </trkpt>
      <trkpt lat="42.5361300" lon="-7.2186190">
        <ele>895.6</ele>
        <time>2014-10-02T10:07:56Z</time>
      </trkpt>
      <trkpt lat="42.5361780" lon="-7.2186000">
        <ele>896.0</ele>
        <time>2014-10-02T10:07:58Z</time>
      </trkpt>
      <trkpt lat="42.5362050" lon="-7.2185890">
        <ele>896.3</ele>
        <time>2014-10-02T10:07:59Z</time>
      </trkpt>
      <trkpt lat="42.5362330" lon="-7.2185750">
        <ele>896.5</ele>
        <time>2014-10-02T10:08:00Z</time>
      </trkpt>
      <trkpt lat="42.5362840" lon="-7.2185450">
        <ele>897.0</ele>
        <time>2014-10-02T10:08:02Z</time>
      </trkpt>
      <trkpt lat="42.5363160" lon="-7.2185270">
        <ele>897.3</ele>
        <time>2014-10-02T10:08:03Z</time>
      </trkpt>
      <trkpt lat="42.5363500" lon="-7.2185070">
        <ele>897.6</ele>
        <time>2014-10-02T10:08:04Z</time>
      </trkpt>
      <trkpt lat="42.5363830" lon="-7.2184870">
        <ele>897.9</ele>
        <time>2014-10-02T10:08:05Z</time>
      </trkpt>
      <trkpt lat="42.5364160" lon="-7.2184720">
        <ele>898.2</ele>
        <time>2014-10-02T10:08:06Z</time>
      </trkpt>
      <trkpt lat="42.5364450" lon="-7.2184580">
        <ele>898.5</ele>
        <time>2014-10-02T10:08:07Z</time>
      </trkpt>
      <trkpt lat="42.5364770" lon="-7.2184480">
        <ele>898.7</ele>
        <time>2014-10-02T10:08:08Z</time>
      </trkpt>
      <trkpt lat="42.5365040" lon="-7.2184390">
        <ele>898.9</ele>
        <time>2014-10-02T10:08:09Z</time>
      </trkpt>
      <trkpt lat="42.5365530" lon="-7.2184190">
        <ele>899.3</ele>
        <time>2014-10-02T10:08:11Z</time>
      </trkpt>
      <trkpt lat="42.5365830" lon="-7.2184030">
        <ele>899.5</ele>
        <time>2014-10-02T10:08:12Z</time>
      </trkpt>
      <trkpt lat="42.5366120" lon="-7.2183860">
        <ele>899.7</ele>
        <time>2014-10-02T10:08:13Z</time>
      </trkpt>
      <trkpt lat="42.5366410" lon="-7.2183710">
        <ele>899.9</ele>
        <time>2014-10-02T10:08:14Z</time>
      </trkpt>
      <trkpt lat="42.5366690" lon="-7.2183570">
        <ele>900.1</ele>
        <time>2014-10-02T10:08:15Z</time>
      </trkpt>
      <trkpt lat="42.5366960" lon="-7.2183390">
        <ele>900.3</ele>
        <time>2014-10-02T10:08:16Z</time>
      </trkpt>
      <trkpt lat="42.5367270" lon="-7.2183170">
        <ele>900.5</ele>
        <time>2014-10-02T10:08:17Z</time>
      </trkpt>
      <trkpt lat="42.5367630" lon="-7.2182930">
        <ele>900.8</ele>
        <time>2014-10-02T10:08:18Z</time>
      </trkpt>
      <trkpt lat="42.5368020" lon="-7.2182710">
        <ele>901.1</ele>
        <time>2014-10-02T10:08:19Z</time>
      </trkpt>
      <trkpt lat="42.5368340" lon="-7.2182500">
        <ele>901.3</ele>
        <time>2014-10-02T10:08:20Z</time>
      </trkpt>
      <trkpt lat="42.5368640" lon="-7.2182300">
        <ele>901.5</ele>
        <time>2014-10-02T10:08:21Z</time>
      </trkpt>
      <trkpt lat="42.5368970" lon="-7.2182100">
        <ele>901.8</ele>
        <time>2014-10-02T10:08:22Z</time>
      </trkpt>
      <trkpt lat="42.5369310" lon="-7.2181870">
        <ele>902.0</ele>
        <time>2014-10-02T10:08:23Z</time>
      </trkpt>
      <trkpt lat="42.5369670" lon="-7.2181630">
        <ele>902.3</ele>
        <time>2014-10-02T10:08:24Z</time>
      </trkpt>
      <trkpt lat="42.5370000" lon="-7.2181390">
        <ele>902.5</ele>
        <time>2014-10-02T10:08:25Z</time>
      </trkpt>
      <trkpt lat="42.5370320" lon="-7.2181170">
        <ele>902.8</ele>
        <time>2014-10-02T10:08:26Z</time>
      </trkpt>
      <trkpt lat="42.5370600" lon="-7.2180980">
        <ele>903.0</ele>
        <time>2014-10-02T10:08:27Z</time>
      </trkpt>
      <trkpt lat="42.5370900" lon="-7.2180770">
        <ele>903.2</ele>
        <time>2014-10-02T10:08:28Z</time>
      </trkpt>
      <trkpt lat="42.5371200" lon="-7.2180550">
        <ele>903.4</ele>
        <time>2014-10-02T10:08:29Z</time>
      </trkpt>
      <trkpt lat="42.5371490" lon="-7.2180340">
        <ele>903.6</ele>
        <time>2014-10-02T10:08:30Z</time>
      </trkpt>
      <trkpt lat="42.5371790" lon="-7.2180120">
        <ele>903.8</ele>
        <time>2014-10-02T10:08:31Z</time>
      </trkpt>
      <trkpt lat="42.5372080" lon="-7.2179880">
        <ele>904.0</ele>
        <time>2014-10-02T10:08:32Z</time>
      </trkpt>
      <trkpt lat="42.5372380" lon="-7.2179630">
        <ele>904.2</ele>
        <time>2014-10-02T10:08:33Z</time>
      </trkpt>
      <trkpt lat="42.5372660" lon="-7.2179430">
        <ele>904.4</ele>
        <time>2014-10-02T10:08:34Z</time>
      </trkpt>
      <trkpt lat="42.5372910" lon="-7.2179220">
        <ele>904.5</ele>
        <time>2014-10-02T10:08:35Z</time>
      </trkpt>
      <trkpt lat="42.5373190" lon="-7.2178980">
        <ele>904.7</ele>
        <time>2014-10-02T10:08:36Z</time>
      </trkpt>
      <trkpt lat="42.5373460" lon="-7.2178740">
        <ele>904.9</ele>
        <time>2014-10-02T10:08:37Z</time>
      </trkpt>
      <trkpt lat="42.5373730" lon="-7.2178510">
        <ele>905.1</ele>
        <time>2014-10-02T10:08:38Z</time>
      </trkpt>
      <trkpt lat="42.5373950" lon="-7.2178300">
        <ele>905.3</ele>
        <time>2014-10-02T10:08:39Z</time>
      </trkpt>
      <trkpt lat="42.5374200" lon="-7.2178110">
        <ele>905.5</ele>
        <time>2014-10-02T10:08:40Z</time>
      </trkpt>
      <trkpt lat="42.5374450" lon="-7.2177910">
        <ele>905.7</ele>
        <time>2014-10-02T10:08:41Z</time>
      </trkpt>
      <trkpt lat="42.5374710" lon="-7.2177700">
        <ele>906.0</ele>
        <time>2014-10-02T10:08:42Z</time>
      </trkpt>
      <trkpt lat="42.5374970" lon="-7.2177460">
        <ele>906.2</ele>
        <time>2014-10-02T10:08:43Z</time>
      </trkpt>
      <trkpt lat="42.5375240" lon="-7.2177250">
        <ele>906.4</ele>
        <time>2014-10-02T10:08:44Z</time>
      </trkpt>
      <trkpt lat="42.5375540" lon="-7.2177010">
        <ele>906.7</ele>
        <time>2014-10-02T10:08:45Z</time>
      </trkpt>
      <trkpt lat="42.5375780" lon="-7.2176790">
        <ele>906.9</ele>
        <time>2014-10-02T10:08:46Z</time>
      </trkpt>
      <trkpt lat="42.5376050" lon="-7.2176580">
        <ele>907.2</ele>
        <time>2014-10-02T10:08:47Z</time>
      </trkpt>
      <trkpt lat="42.5376300" lon="-7.2176390">
        <ele>907.4</ele>
        <time>2014-10-02T10:08:48Z</time>
      </trkpt>
      <trkpt lat="42.5376550" lon="-7.2176190">
        <ele>907.6</ele>
        <time>2014-10-02T10:08:49Z</time>
      </trkpt>
      <trkpt lat="42.5376790" lon="-7.2175970">
        <ele>907.9</ele>
        <time>2014-10-02T10:08:50Z</time>
      </trkpt>
      <trkpt lat="42.5377020" lon="-7.2175750">
        <ele>908.1</ele>
        <time>2014-10-02T10:08:51Z</time>
      </trkpt>
      <trkpt lat="42.5377440" lon="-7.2175350">
        <ele>908.7</ele>
        <time>2014-10-02T10:08:53Z</time>
      </trkpt>
      <trkpt lat="42.5377680" lon="-7.2175140">
        <ele>909.0</ele>
        <time>2014-10-02T10:08:54Z</time>
      </trkpt>
      <trkpt lat="42.5378160" lon="-7.2174700">
        <ele>909.6</ele>
        <time>2014-10-02T10:08:56Z</time>
      </trkpt>
      <trkpt lat="42.5378410" lon="-7.2174450">
        <ele>909.9</ele>
        <time>2014-10-02T10:08:57Z</time>
      </trkpt>
      <trkpt lat="42.5378810" lon="-7.2174030">
        <ele>910.5</ele>
        <time>2014-10-02T10:08:59Z</time>
      </trkpt>
      <trkpt lat="42.5379050" lon="-7.2173810">
        <ele>910.8</ele>
        <time>2014-10-02T10:09:00Z</time>
      </trkpt>
      <trkpt lat="42.5379280" lon="-7.2173610">
        <ele>911.0</ele>
        <time>2014-10-02T10:09:01Z</time>
      </trkpt>
      <trkpt lat="42.5379740" lon="-7.2173240">
        <ele>911.6</ele>
        <time>2014-10-02T10:09:03Z</time>
      </trkpt>
      <trkpt lat="42.5380010" lon="-7.2173050">
        <ele>911.9</ele>
        <time>2014-10-02T10:09:04Z</time>
      </trkpt>
      <trkpt lat="42.5380280" lon="-7.2172840">
        <ele>912.2</ele>
        <time>2014-10-02T10:09:05Z</time>
      </trkpt>
      <trkpt lat="42.5380540" lon="-7.2172660">
        <ele>912.5</ele>
        <time>2014-10-02T10:09:06Z</time>
      </trkpt>
      <trkpt lat="42.5380760" lon="-7.2172460">
        <ele>912.8</ele>
        <time>2014-10-02T10:09:07Z</time>
      </trkpt>
      <trkpt lat="42.5381020" lon="-7.2172260">
        <ele>913.1</ele>
        <time>2014-10-02T10:09:08Z</time>
      </trkpt>
      <trkpt lat="42.5381290" lon="-7.2172040">
        <ele>913.4</ele>
        <time>2014-10-02T10:09:09Z</time>
      </trkpt>
      <trkpt lat="42.5381570" lon="-7.2171820">
        <ele>913.7</ele>
        <time>2014-10-02T10:09:10Z</time>
      </trkpt>
      <trkpt lat="42.5381830" lon="-7.2171630">
        <ele>914.0</ele>
        <time>2014-10-02T10:09:11Z</time>
      </trkpt>
      <trkpt lat="42.5382090" lon="-7.2171450">
        <ele>914.3</ele>
        <time>2014-10-02T10:09:12Z</time>
      </trkpt>
      <trkpt lat="42.5382340" lon="-7.2171280">
        <ele>914.5</ele>
        <time>2014-10-02T10:09:13Z</time>
      </trkpt>
      <trkpt lat="42.5382590" lon="-7.2171090">
        <ele>914.8</ele>
        <time>2014-10-02T10:09:14Z</time>
      </trkpt>
      <trkpt lat="42.5382830" lon="-7.2170910">
        <ele>915.0</ele>
        <time>2014-10-02T10:09:15Z</time>
      </trkpt>
      <trkpt lat="42.5383080" lon="-7.2170750">
        <ele>915.3</ele>
        <time>2014-10-02T10:09:16Z</time>
      </trkpt>
      <trkpt lat="42.5383310" lon="-7.2170560">
        <ele>915.6</ele>
        <time>2014-10-02T10:09:17Z</time>
      </trkpt>
      <trkpt lat="42.5383790" lon="-7.2170220">
        <ele>916.1</ele>
        <time>2014-10-02T10:09:19Z</time>
      </trkpt>
      <trkpt lat="42.5384230" lon="-7.2169950">
        <ele>916.5</ele>
        <time>2014-10-02T10:09:21Z</time>
      </trkpt>
      <trkpt lat="42.5384500" lon="-7.2169790">
        <ele>916.8</ele>
        <time>2014-10-02T10:09:22Z</time>
      </trkpt>
      <trkpt lat="42.5384790" lon="-7.2169630">
        <ele>917.1</ele>
        <time>2014-10-02T10:09:23Z</time>
      </trkpt>
      <trkpt lat="42.5385270" lon="-7.2169430">
        <ele>917.6</ele>
        <time>2014-10-02T10:09:25Z</time>
      </trkpt>
      <trkpt lat="42.5385780" lon="-7.2169250">
        <ele>918.0</ele>
        <time>2014-10-02T10:09:27Z</time>
      </trkpt>
      <trkpt lat="42.5386050" lon="-7.2169170">
        <ele>918.3</ele>
        <time>2014-10-02T10:09:28Z</time>
      </trkpt>
      <trkpt lat="42.5386520" lon="-7.2169010">
        <ele>918.7</ele>
        <time>2014-10-02T10:09:30Z</time>
      </trkpt>
      <trkpt lat="42.5386990" lon="-7.2168900">
        <ele>919.0</ele>
        <time>2014-10-02T10:09:32Z</time>
      </trkpt>
      <trkpt lat="42.5387470" lon="-7.2168810">
        <ele>919.4</ele>
        <time>2014-10-02T10:09:34Z</time>
      </trkpt>
      <trkpt lat="42.5387750" lon="-7.2168770">
        <ele>919.6</ele>
        <time>2014-10-02T10:09:35Z</time>
      </trkpt>
      <trkpt lat="42.5388060" lon="-7.2168730">
        <ele>919.9</ele>
        <time>2014-10-02T10:09:36Z</time>
      </trkpt>
      <trkpt lat="42.5388330" lon="-7.2168700">
        <ele>920.1</ele>
        <time>2014-10-02T10:09:37Z</time>
      </trkpt>
      <trkpt lat="42.5388600" lon="-7.2168670">
        <ele>920.3</ele>
        <time>2014-10-02T10:09:38Z</time>
      </trkpt>
      <trkpt lat="42.5388900" lon="-7.2168640">
        <ele>920.5</ele>
        <time>2014-10-02T10:09:39Z</time>
      </trkpt>
      <trkpt lat="42.5389210" lon="-7.2168620">
        <ele>920.8</ele>
        <time>2014-10-02T10:09:40Z</time>
      </trkpt>
      <trkpt lat="42.5389570" lon="-7.2168580">
        <ele>921.1</ele>
        <time>2014-10-02T10:09:41Z</time>
      </trkpt>
      <trkpt lat="42.5389870" lon="-7.2168560">
        <ele>921.3</ele>
        <time>2014-10-02T10:09:42Z</time>
      </trkpt>
      <trkpt lat="42.5390170" lon="-7.2168550">
        <ele>921.6</ele>
        <time>2014-10-02T10:09:43Z</time>
      </trkpt>
      <trkpt lat="42.5390440" lon="-7.2168530">
        <ele>921.8</ele>
        <time>2014-10-02T10:09:44Z</time>
      </trkpt>
      <trkpt lat="42.5390930" lon="-7.2168500">
        <ele>922.2</ele>
        <time>2014-10-02T10:09:46Z</time>
      </trkpt>
      <trkpt lat="42.5391470" lon="-7.2168400">
        <ele>922.7</ele>
        <time>2014-10-02T10:09:48Z</time>
      </trkpt>
      <trkpt lat="42.5391750" lon="-7.2168390">
        <ele>922.9</ele>
        <time>2014-10-02T10:09:49Z</time>
      </trkpt>
      <trkpt lat="42.5392020" lon="-7.2168370">
        <ele>923.1</ele>
        <time>2014-10-02T10:09:50Z</time>
      </trkpt>
      <trkpt lat="42.5392360" lon="-7.2168330">
        <ele>923.3</ele>
        <time>2014-10-02T10:09:51Z</time>
      </trkpt>
      <trkpt lat="42.5392680" lon="-7.2168320">
        <ele>923.6</ele>
        <time>2014-10-02T10:09:52Z</time>
      </trkpt>
      <trkpt lat="42.5392960" lon="-7.2168310">
        <ele>923.8</ele>
        <time>2014-10-02T10:09:53Z</time>
      </trkpt>
      <trkpt lat="42.5393490" lon="-7.2168320">
        <ele>924.3</ele>
        <time>2014-10-02T10:09:55Z</time>
      </trkpt>
      <trkpt lat="42.5394010" lon="-7.2168270">
        <ele>924.7</ele>
        <time>2014-10-02T10:09:57Z</time>
      </trkpt>
      <trkpt lat="42.5394530" lon="-7.2168220">
        <ele>925.2</ele>
        <time>2014-10-02T10:09:59Z</time>
      </trkpt>
      <trkpt lat="42.5395060" lon="-7.2168160">
        <ele>925.7</ele>
        <time>2014-10-02T10:10:01Z</time>
      </trkpt>
      <trkpt lat="42.5395570" lon="-7.2168130">
        <ele>926.2</ele>
        <time>2014-10-02T10:10:03Z</time>
      </trkpt>
      <trkpt lat="42.5396100" lon="-7.2168070">
        <ele>926.8</ele>
        <time>2014-10-02T10:10:05Z</time>
      </trkpt>
      <trkpt lat="42.5396380" lon="-7.2168060">
        <ele>927.1</ele>
        <time>2014-10-02T10:10:06Z</time>
      </trkpt>
      <trkpt lat="42.5396660" lon="-7.2168050">
        <ele>927.4</ele>
        <time>2014-10-02T10:10:07Z</time>
      </trkpt>
      <trkpt lat="42.5396940" lon="-7.2168010">
        <ele>927.6</ele>
        <time>2014-10-02T10:10:08Z</time>
      </trkpt>
      <trkpt lat="42.5397220" lon="-7.2167960">
        <ele>927.9</ele>
        <time>2014-10-02T10:10:09Z</time>
      </trkpt>
      <trkpt lat="42.5397740" lon="-7.2167910">
        <ele>928.4</ele>
        <time>2014-10-02T10:10:11Z</time>
      </trkpt>
      <trkpt lat="42.5398260" lon="-7.2167860">
        <ele>928.8</ele>
        <time>2014-10-02T10:10:13Z</time>
      </trkpt>
      <trkpt lat="42.5398800" lon="-7.2167810">
        <ele>929.3</ele>
        <time>2014-10-02T10:10:15Z</time>
      </trkpt>
      <trkpt lat="42.5399070" lon="-7.2167800">
        <ele>929.5</ele>
        <time>2014-10-02T10:10:16Z</time>
      </trkpt>
      <trkpt lat="42.5399340" lon="-7.2167780">
        <ele>929.8</ele>
        <time>2014-10-02T10:10:17Z</time>
      </trkpt>
      <trkpt lat="42.5399610" lon="-7.2167790">
        <ele>930.1</ele>
        <time>2014-10-02T10:10:18Z</time>
      </trkpt>
      <trkpt lat="42.5399890" lon="-7.2167770">
        <ele>930.4</ele>
        <time>2014-10-02T10:10:19Z</time>
      </trkpt>
      <trkpt lat="42.5400160" lon="-7.2167740">
        <ele>930.7</ele>
        <time>2014-10-02T10:10:20Z</time>
      </trkpt>
      <trkpt lat="42.5400690" lon="-7.2167720">
        <ele>931.2</ele>
        <time>2014-10-02T10:10:22Z</time>
      </trkpt>
      <trkpt lat="42.5401220" lon="-7.2167660">
        <ele>931.8</ele>
        <time>2014-10-02T10:10:24Z</time>
      </trkpt>
      <trkpt lat="42.5401740" lon="-7.2167620">
        <ele>932.3</ele>
        <time>2014-10-02T10:10:26Z</time>
      </trkpt>
      <trkpt lat="42.5402250" lon="-7.2167480">
        <ele>932.8</ele>
        <time>2014-10-02T10:10:28Z</time>
      </trkpt>
      <trkpt lat="42.5402730" lon="-7.2167350">
        <ele>933.2</ele>
        <time>2014-10-02T10:10:30Z</time>
      </trkpt>
      <trkpt lat="42.5403220" lon="-7.2167170">
        <ele>933.6</ele>
        <time>2014-10-02T10:10:32Z</time>
      </trkpt>
      <trkpt lat="42.5403670" lon="-7.2166980">
        <ele>934.1</ele>
        <time>2014-10-02T10:10:34Z</time>
      </trkpt>
      <trkpt lat="42.5404140" lon="-7.2166810">
        <ele>934.6</ele>
        <time>2014-10-02T10:10:36Z</time>
      </trkpt>
      <trkpt lat="42.5404400" lon="-7.2166680">
        <ele>934.9</ele>
        <time>2014-10-02T10:10:37Z</time>
      </trkpt>
      <trkpt lat="42.5404850" lon="-7.2166440">
        <ele>935.3</ele>
        <time>2014-10-02T10:10:39Z</time>
      </trkpt>
      <trkpt lat="42.5405150" lon="-7.2166230">
        <ele>935.7</ele>
        <time>2014-10-02T10:10:40Z</time>
      </trkpt>
      <trkpt lat="42.5405430" lon="-7.2166030">
        <ele>936.0</ele>
        <time>2014-10-02T10:10:41Z</time>
      </trkpt>
      <trkpt lat="42.5405700" lon="-7.2165800">
        <ele>936.3</ele>
        <time>2014-10-02T10:10:42Z</time>
      </trkpt>
      <trkpt lat="42.5405950" lon="-7.2165570">
        <ele>936.7</ele>
        <time>2014-10-02T10:10:43Z</time>
      </trkpt>
      <trkpt lat="42.5406190" lon="-7.2165370">
        <ele>937.0</ele>
        <time>2014-10-02T10:10:44Z</time>
      </trkpt>
      <trkpt lat="42.5406410" lon="-7.2165160">
        <ele>937.3</ele>
        <time>2014-10-02T10:10:45Z</time>
      </trkpt>
      <trkpt lat="42.5406860" lon="-7.2164790">
        <ele>937.8</ele>
        <time>2014-10-02T10:10:47Z</time>
      </trkpt>
      <trkpt lat="42.5407270" lon="-7.2164370">
        <ele>938.4</ele>
        <time>2014-10-02T10:10:49Z</time>
      </trkpt>
      <trkpt lat="42.5407510" lon="-7.2164160">
        <ele>938.7</ele>
        <time>2014-10-02T10:10:50Z</time>
      </trkpt>
      <trkpt lat="42.5407730" lon="-7.2163960">
        <ele>939.0</ele>
        <time>2014-10-02T10:10:51Z</time>
      </trkpt>
      <trkpt lat="42.5408180" lon="-7.2163540">
        <ele>939.7</ele>
        <time>2014-10-02T10:10:53Z</time>
      </trkpt>
      <trkpt lat="42.5408390" lon="-7.2163310">
        <ele>940.0</ele>
        <time>2014-10-02T10:10:54Z</time>
      </trkpt>
      <trkpt lat="42.5408620" lon="-7.2163080">
        <ele>940.3</ele>
        <time>2014-10-02T10:10:55Z</time>
      </trkpt>
      <trkpt lat="42.5408840" lon="-7.2162850">
        <ele>940.6</ele>
        <time>2014-10-02T10:10:56Z</time>
      </trkpt>
      <trkpt lat="42.5409210" lon="-7.2162360">
        <ele>941.2</ele>
        <time>2014-10-02T10:10:58Z</time>
      </trkpt>
      <trkpt lat="42.5409520" lon="-7.2162020">
        <ele>941.7</ele>
        <time>2014-10-02T10:11:00Z</time>
      </trkpt>
      <trkpt lat="42.5409900" lon="-7.2161620">
        <ele>942.2</ele>
        <time>2014-10-02T10:11:02Z</time>
      </trkpt>
      <trkpt lat="42.5410270" lon="-7.2161160">
        <ele>942.7</ele>
        <time>2014-10-02T10:11:04Z</time>
      </trkpt>
      <trkpt lat="42.5410540" lon="-7.2160800">
        <ele>943.1</ele>
        <time>2014-10-02T10:11:06Z</time>
      </trkpt>
      <trkpt lat="42.5410860" lon="-7.2160360">
        <ele>943.6</ele>
        <time>2014-10-02T10:11:08Z</time>
      </trkpt>
      <trkpt lat="42.5411210" lon="-7.2159950">
        <ele>944.2</ele>
        <time>2014-10-02T10:11:10Z</time>
      </trkpt>
      <trkpt lat="42.5411540" lon="-7.2159590">
        <ele>944.7</ele>
        <time>2014-10-02T10:11:12Z</time>
      </trkpt>
      <trkpt lat="42.5411930" lon="-7.2159180">
        <ele>945.2</ele>
        <time>2014-10-02T10:11:14Z</time>
      </trkpt>
      <trkpt lat="42.5412270" lon="-7.2158800">
        <ele>945.7</ele>
        <time>2014-10-02T10:11:16Z</time>
      </trkpt>
      <trkpt lat="42.5412710" lon="-7.2158330">
        <ele>946.3</ele>
        <time>2014-10-02T10:11:18Z</time>
      </trkpt>
      <trkpt lat="42.5412950" lon="-7.2158130">
        <ele>946.6</ele>
        <time>2014-10-02T10:11:19Z</time>
      </trkpt>
      <trkpt lat="42.5413360" lon="-7.2157840">
        <ele>947.1</ele>
        <time>2014-10-02T10:11:21Z</time>
      </trkpt>
      <trkpt lat="42.5413770" lon="-7.2157540">
        <ele>947.6</ele>
        <time>2014-10-02T10:11:23Z</time>
      </trkpt>
      <trkpt lat="42.5414130" lon="-7.2157220">
        <ele>948.0</ele>
        <time>2014-10-02T10:11:25Z</time>
      </trkpt>
      <trkpt lat="42.5414580" lon="-7.2156920">
        <ele>948.6</ele>
        <time>2014-10-02T10:11:27Z</time>
      </trkpt>
      <trkpt lat="42.5414840" lon="-7.2156800">
        <ele>948.9</ele>
        <time>2014-10-02T10:11:28Z</time>
      </trkpt>
      <trkpt lat="42.5415350" lon="-7.2156530">
        <ele>949.5</ele>
        <time>2014-10-02T10:11:30Z</time>
      </trkpt>
      <trkpt lat="42.5415810" lon="-7.2156360">
        <ele>950.0</ele>
        <time>2014-10-02T10:11:32Z</time>
      </trkpt>
      <trkpt lat="42.5416270" lon="-7.2156290">
        <ele>950.5</ele>
        <time>2014-10-02T10:11:34Z</time>
      </trkpt>
      <trkpt lat="42.5416860" lon="-7.2156190">
        <ele>951.1</ele>
        <time>2014-10-02T10:11:36Z</time>
      </trkpt>
      <trkpt lat="42.5417290" lon="-7.2156220">
        <ele>951.6</ele>
        <time>2014-10-02T10:11:38Z</time>
      </trkpt>
      <trkpt lat="42.5417790" lon="-7.2156250">
        <ele>952.1</ele>
        <time>2014-10-02T10:11:40Z</time>
      </trkpt>
      <trkpt lat="42.5418060" lon="-7.2156310">
        <ele>952.4</ele>
        <time>2014-10-02T10:11:41Z</time>
      </trkpt>
      <trkpt lat="42.5418550" lon="-7.2156430">
        <ele>952.9</ele>
        <time>2014-10-02T10:11:43Z</time>
      </trkpt>
      <trkpt lat="42.5418830" lon="-7.2156430">
        <ele>953.2</ele>
        <time>2014-10-02T10:11:44Z</time>
      </trkpt>
      <trkpt lat="42.5419150" lon="-7.2156410">
        <ele>953.5</ele>
        <time>2014-10-02T10:11:45Z</time>
      </trkpt>
      <trkpt lat="42.5419470" lon="-7.2156410">
        <ele>953.8</ele>
        <time>2014-10-02T10:11:46Z</time>
      </trkpt>
      <trkpt lat="42.5419960" lon="-7.2156340">
        <ele>954.3</ele>
        <time>2014-10-02T10:11:48Z</time>
      </trkpt>
      <trkpt lat="42.5420460" lon="-7.2156290">
        <ele>954.8</ele>
        <time>2014-10-02T10:11:50Z</time>
      </trkpt>
      <trkpt lat="42.5421020" lon="-7.2156240">
        <ele>955.4</ele>
        <time>2014-10-02T10:11:52Z</time>
      </trkpt>
      <trkpt lat="42.5421360" lon="-7.2156150">
        <ele>955.8</ele>
        <time>2014-10-02T10:11:53Z</time>
      </trkpt>
      <trkpt lat="42.5421700" lon="-7.2156070">
        <ele>956.1</ele>
        <time>2014-10-02T10:11:54Z</time>
      </trkpt>
      <trkpt lat="42.5422060" lon="-7.2155990">
        <ele>956.5</ele>
        <time>2014-10-02T10:11:55Z</time>
      </trkpt>
      <trkpt lat="42.5422360" lon="-7.2156040">
        <ele>956.8</ele>
        <time>2014-10-02T10:11:56Z</time>
      </trkpt>
      <trkpt lat="42.5422770" lon="-7.2155890">
        <ele>957.2</ele>
        <time>2014-10-02T10:11:58Z</time>
      </trkpt>
      <trkpt lat="42.5423120" lon="-7.2155910">
        <ele>957.6</ele>
        <time>2014-10-02T10:12:00Z</time>
      </trkpt>
      <trkpt lat="42.5423610" lon="-7.2155890">
        <ele>958.1</ele>
        <time>2014-10-02T10:12:02Z</time>
      </trkpt>
      <trkpt lat="42.5424040" lon="-7.2155920">
        <ele>958.6</ele>
        <time>2014-10-02T10:12:04Z</time>
      </trkpt>
      <trkpt lat="42.5424510" lon="-7.2155910">
        <ele>959.1</ele>
        <time>2014-10-02T10:12:06Z</time>
      </trkpt>
      <trkpt lat="42.5424990" lon="-7.2155970">
        <ele>959.6</ele>
        <time>2014-10-02T10:12:08Z</time>
      </trkpt>
      <trkpt lat="42.5425450" lon="-7.2156040">
        <ele>960.1</ele>
        <time>2014-10-02T10:12:10Z</time>
      </trkpt>
      <trkpt lat="42.5425920" lon="-7.2156080">
        <ele>960.6</ele>
        <time>2014-10-02T10:12:12Z</time>
      </trkpt>
      <trkpt lat="42.5426300" lon="-7.2156050">
        <ele>961.0</ele>
        <time>2014-10-02T10:12:14Z</time>
      </trkpt>
      <trkpt lat="42.5426670" lon="-7.2156040">
        <ele>961.3</ele>
        <time>2014-10-02T10:12:16Z</time>
      </trkpt>
      <trkpt lat="42.5427150" lon="-7.2156050">
        <ele>961.8</ele>
        <time>2014-10-02T10:12:18Z</time>
      </trkpt>
      <trkpt lat="42.5427680" lon="-7.2156060">
        <ele>962.4</ele>
        <time>2014-10-02T10:12:20Z</time>
      </trkpt>
      <trkpt lat="42.5428180" lon="-7.2156090">
        <ele>962.9</ele>
        <time>2014-10-02T10:12:22Z</time>
      </trkpt>
      <trkpt lat="42.5428640" lon="-7.2156110">
        <ele>963.3</ele>
        <time>2014-10-02T10:12:24Z</time>
      </trkpt>
      <trkpt lat="42.5429140" lon="-7.2156140">
        <ele>963.8</ele>
        <time>2014-10-02T10:12:26Z</time>
      </trkpt>
      <trkpt lat="42.5429600" lon="-7.2156190">
        <ele>964.3</ele>
        <time>2014-10-02T10:12:28Z</time>
      </trkpt>
      <trkpt lat="42.5430030" lon="-7.2156250">
        <ele>964.8</ele>
        <time>2014-10-02T10:12:30Z</time>
      </trkpt>
      <trkpt lat="42.5430500" lon="-7.2156300">
        <ele>965.3</ele>
        <time>2014-10-02T10:12:32Z</time>
      </trkpt>
      <trkpt lat="42.5430870" lon="-7.2156360">
        <ele>965.7</ele>
        <time>2014-10-02T10:12:34Z</time>
      </trkpt>
      <trkpt lat="42.5431180" lon="-7.2156500">
        <ele>966.0</ele>
        <time>2014-10-02T10:12:36Z</time>
      </trkpt>
      <trkpt lat="42.5431590" lon="-7.2156480">
        <ele>966.5</ele>
        <time>2014-10-02T10:12:38Z</time>
      </trkpt>
      <trkpt lat="42.5431980" lon="-7.2156450">
        <ele>966.9</ele>
        <time>2014-10-02T10:12:40Z</time>
      </trkpt>
      <trkpt lat="42.5432380" lon="-7.2156390">
        <ele>967.3</ele>
        <time>2014-10-02T10:12:42Z</time>
      </trkpt>
      <trkpt lat="42.5432800" lon="-7.2156340">
        <ele>967.7</ele>
        <time>2014-10-02T10:12:44Z</time>
      </trkpt>
      <trkpt lat="42.5433190" lon="-7.2156180">
        <ele>968.1</ele>
        <time>2014-10-02T10:12:46Z</time>
      </trkpt>
      <trkpt lat="42.5433450" lon="-7.2156070">
        <ele>968.4</ele>
        <time>2014-10-02T10:12:47Z</time>
      </trkpt>
      <trkpt lat="42.5433960" lon="-7.2155850">
        <ele>969.0</ele>
        <time>2014-10-02T10:12:49Z</time>
      </trkpt>
      <trkpt lat="42.5434350" lon="-7.2155610">
        <ele>969.4</ele>
        <time>2014-10-02T10:12:51Z</time>
      </trkpt>
      <trkpt lat="42.5434760" lon="-7.2155390">
        <ele>969.9</ele>
        <time>2014-10-02T10:12:53Z</time>
      </trkpt>
      <trkpt lat="42.5435000" lon="-7.2155210">
        <ele>970.2</ele>
        <time>2014-10-02T10:12:54Z</time>
      </trkpt>
      <trkpt lat="42.5435380" lon="-7.2154890">
        <ele>970.7</ele>
        <time>2014-10-02T10:12:56Z</time>
      </trkpt>
      <trkpt lat="42.5435760" lon="-7.2154450">
        <ele>971.2</ele>
        <time>2014-10-02T10:12:58Z</time>
      </trkpt>
      <trkpt lat="42.5435970" lon="-7.2154170">
        <ele>971.6</ele>
        <time>2014-10-02T10:12:59Z</time>
      </trkpt>
      <trkpt lat="42.5436160" lon="-7.2153910">
        <ele>971.8</ele>
        <time>2014-10-02T10:13:00Z</time>
      </trkpt>
      <trkpt lat="42.5436380" lon="-7.2153640">
        <ele>972.2</ele>
        <time>2014-10-02T10:13:01Z</time>
      </trkpt>
      <trkpt lat="42.5436580" lon="-7.2153360">
        <ele>972.5</ele>
        <time>2014-10-02T10:13:02Z</time>
      </trkpt>
      <trkpt lat="42.5436910" lon="-7.2152800">
        <ele>973.1</ele>
        <time>2014-10-02T10:13:04Z</time>
      </trkpt>
      <trkpt lat="42.5437230" lon="-7.2152270">
        <ele>973.7</ele>
        <time>2014-10-02T10:13:06Z</time>
      </trkpt>
      <trkpt lat="42.5437540" lon="-7.2151760">
        <ele>974.2</ele>
        <time>2014-10-02T10:13:08Z</time>
      </trkpt>
      <trkpt lat="42.5437840" lon="-7.2151240">
        <ele>974.8</ele>
        <time>2014-10-02T10:13:10Z</time>
      </trkpt>
      <trkpt lat="42.5438120" lon="-7.2150680">
        <ele>975.3</ele>
        <time>2014-10-02T10:13:12Z</time>
      </trkpt>
      <trkpt lat="42.5438360" lon="-7.2150200">
        <ele>975.8</ele>
        <time>2014-10-02T10:13:14Z</time>
      </trkpt>
      <trkpt lat="42.5438630" lon="-7.2149600">
        <ele>976.4</ele>
        <time>2014-10-02T10:13:16Z</time>
      </trkpt>
      <trkpt lat="42.5438920" lon="-7.2149000">
        <ele>977.0</ele>
        <time>2014-10-02T10:13:18Z</time>
      </trkpt>
      <trkpt lat="42.5439090" lon="-7.2148690">
        <ele>977.3</ele>
        <time>2014-10-02T10:13:19Z</time>
      </trkpt>
      <trkpt lat="42.5439250" lon="-7.2148390">
        <ele>977.6</ele>
        <time>2014-10-02T10:13:20Z</time>
      </trkpt>
      <trkpt lat="42.5439390" lon="-7.2148070">
        <ele>977.9</ele>
        <time>2014-10-02T10:13:21Z</time>
      </trkpt>
      <trkpt lat="42.5439540" lon="-7.2147750">
        <ele>978.2</ele>
        <time>2014-10-02T10:13:22Z</time>
      </trkpt>
      <trkpt lat="42.5439720" lon="-7.2147440">
        <ele>978.5</ele>
        <time>2014-10-02T10:13:23Z</time>
      </trkpt>
      <trkpt lat="42.5440050" lon="-7.2146830">
        <ele>979.1</ele>
        <time>2014-10-02T10:13:25Z</time>
      </trkpt>
      <trkpt lat="42.5440200" lon="-7.2146530">
        <ele>979.3</ele>
        <time>2014-10-02T10:13:26Z</time>
      </trkpt>
      <trkpt lat="42.5440580" lon="-7.2146030">
        <ele>979.9</ele>
        <time>2014-10-02T10:13:28Z</time>
      </trkpt>
      <trkpt lat="42.5440980" lon="-7.2145580">
        <ele>980.4</ele>
        <time>2014-10-02T10:13:30Z</time>
      </trkpt>
      <trkpt lat="42.5441210" lon="-7.2145380">
        <ele>980.6</ele>
        <time>2014-10-02T10:13:31Z</time>
      </trkpt>
      <trkpt lat="42.5441660" lon="-7.2144980">
        <ele>981.1</ele>
        <time>2014-10-02T10:13:33Z</time>
      </trkpt>
      <trkpt lat="42.5442130" lon="-7.2144690">
        <ele>981.6</ele>
        <time>2014-10-02T10:13:35Z</time>
      </trkpt>
      <trkpt lat="42.5442600" lon="-7.2144440">
        <ele>982.0</ele>
        <time>2014-10-02T10:13:37Z</time>
      </trkpt>
      <trkpt lat="42.5443090" lon="-7.2144210">
        <ele>982.5</ele>
        <time>2014-10-02T10:13:39Z</time>
      </trkpt>
      <trkpt lat="42.5443470" lon="-7.2144080">
        <ele>982.8</ele>
        <time>2014-10-02T10:13:41Z</time>
      </trkpt>
      <trkpt lat="42.5443930" lon="-7.2144010">
        <ele>983.2</ele>
        <time>2014-10-02T10:13:43Z</time>
      </trkpt>
      <trkpt lat="42.5444240" lon="-7.2144050">
        <ele>983.4</ele>
        <time>2014-10-02T10:13:44Z</time>
      </trkpt>
      <trkpt lat="42.5444630" lon="-7.2144060">
        <ele>983.6</ele>
        <time>2014-10-02T10:13:45Z</time>
      </trkpt>
      <trkpt lat="42.5444970" lon="-7.2144110">
        <ele>983.8</ele>
        <time>2014-10-02T10:13:46Z</time>
      </trkpt>
      <trkpt lat="42.5445280" lon="-7.2144130">
        <ele>984.0</ele>
        <time>2014-10-02T10:13:47Z</time>
      </trkpt>
      <trkpt lat="42.5445600" lon="-7.2144230">
        <ele>984.2</ele>
        <time>2014-10-02T10:13:48Z</time>
      </trkpt>
      <trkpt lat="42.5445910" lon="-7.2144320">
        <ele>984.4</ele>
        <time>2014-10-02T10:13:49Z</time>
      </trkpt>
      <trkpt lat="42.5446220" lon="-7.2144420">
        <ele>984.6</ele>
        <time>2014-10-02T10:13:50Z</time>
      </trkpt>
      <trkpt lat="42.5446540" lon="-7.2144500">
        <ele>984.8</ele>
        <time>2014-10-02T10:13:51Z</time>
      </trkpt>
      <trkpt lat="42.5446870" lon="-7.2144610">
        <ele>985.0</ele>
        <time>2014-10-02T10:13:52Z</time>
      </trkpt>
      <trkpt lat="42.5447160" lon="-7.2144670">
        <ele>985.1</ele>
        <time>2014-10-02T10:13:53Z</time>
      </trkpt>
      <trkpt lat="42.5447460" lon="-7.2144740">
        <ele>985.3</ele>
        <time>2014-10-02T10:13:54Z</time>
      </trkpt>
      <trkpt lat="42.5447740" lon="-7.2144850">
        <ele>985.4</ele>
        <time>2014-10-02T10:13:55Z</time>
      </trkpt>
      <trkpt lat="42.5448030" lon="-7.2144940">
        <ele>985.6</ele>
        <time>2014-10-02T10:13:56Z</time>
      </trkpt>
      <trkpt lat="42.5448350" lon="-7.2145020">
        <ele>985.7</ele>
        <time>2014-10-02T10:13:57Z</time>
      </trkpt>
      <trkpt lat="42.5448650" lon="-7.2145100">
        <ele>985.8</ele>
        <time>2014-10-02T10:13:58Z</time>
      </trkpt>
      <trkpt lat="42.5448940" lon="-7.2145140">
        <ele>986.0</ele>
        <time>2014-10-02T10:13:59Z</time>
      </trkpt>
      <trkpt lat="42.5449240" lon="-7.2145140">
        <ele>986.1</ele>
        <time>2014-10-02T10:14:00Z</time>
      </trkpt>
      <trkpt lat="42.5449810" lon="-7.2145120">
        <ele>986.3</ele>
        <time>2014-10-02T10:14:02Z</time>
      </trkpt>
      <trkpt lat="42.5450150" lon="-7.2145100">
        <ele>986.5</ele>
        <time>2014-10-02T10:14:03Z</time>
      </trkpt>
      <trkpt lat="42.5450480" lon="-7.2145080">
        <ele>986.6</ele>
        <time>2014-10-02T10:14:04Z</time>
      </trkpt>
      <trkpt lat="42.5450800" lon="-7.2145050">
        <ele>986.7</ele>
        <time>2014-10-02T10:14:05Z</time>
      </trkpt>
      <trkpt lat="42.5451100" lon="-7.2145020">
        <ele>986.7</ele>
        <time>2014-10-02T10:14:06Z</time>
      </trkpt>
      <trkpt lat="42.5451380" lon="-7.2145020">
        <ele>986.8</ele>
        <time>2014-10-02T10:14:07Z</time>
      </trkpt>
      <trkpt lat="42.5451920" lon="-7.2145050">
        <ele>986.8</ele>
        <time>2014-10-02T10:14:09Z</time>
      </trkpt>
      <trkpt lat="42.5452430" lon="-7.2144940">
        <ele>986.2</ele>
        <time>2014-10-02T10:14:11Z</time>
      </trkpt>
      <trkpt lat="42.5452890" lon="-7.2144720">
        <ele>985.7</ele>
        <time>2014-10-02T10:14:13Z</time>
      </trkpt>
      <trkpt lat="42.5453150" lon="-7.2144560">
        <ele>985.4</ele>
        <time>2014-10-02T10:14:14Z</time>
      </trkpt>
      <trkpt lat="42.5453630" lon="-7.2144210">
        <ele>984.9</ele>
        <time>2014-10-02T10:14:16Z</time>
      </trkpt>
      <trkpt lat="42.5453880" lon="-7.2144010">
        <ele>984.6</ele>
        <time>2014-10-02T10:14:17Z</time>
      </trkpt>
      <trkpt lat="42.5454320" lon="-7.2143790">
        <ele>984.1</ele>
        <time>2014-10-02T10:14:19Z</time>
      </trkpt>
      <trkpt lat="42.5454700" lon="-7.2143360">
        <ele>983.5</ele>
        <time>2014-10-02T10:14:21Z</time>
      </trkpt>
      <trkpt lat="42.5455100" lon="-7.2142940">
        <ele>983.0</ele>
        <time>2014-10-02T10:14:23Z</time>
      </trkpt>
      <trkpt lat="42.5455400" lon="-7.2142670">
        <ele>982.6</ele>
        <time>2014-10-02T10:14:25Z</time>
      </trkpt>
      <trkpt lat="42.5455710" lon="-7.2142510">
        <ele>982.2</ele>
        <time>2014-10-02T10:14:27Z</time>
      </trkpt>
      <trkpt lat="42.5456050" lon="-7.2142340">
        <ele>981.8</ele>
        <time>2014-10-02T10:14:28Z</time>
      </trkpt>
      <trkpt lat="42.5456310" lon="-7.2142160">
        <ele>981.5</ele>
        <time>2014-10-02T10:14:30Z</time>
      </trkpt>
      <trkpt lat="42.5456630" lon="-7.2141860">
        <ele>981.1</ele>
        <time>2014-10-02T10:14:32Z</time>
      </trkpt>
      <trkpt lat="42.5456930" lon="-7.2141620">
        <ele>980.6</ele>
        <time>2014-10-02T10:14:34Z</time>
      </trkpt>
      <trkpt lat="42.5457360" lon="-7.2141240">
        <ele>980.0</ele>
        <time>2014-10-02T10:14:36Z</time>
      </trkpt>
      <trkpt lat="42.5457710" lon="-7.2140960">
        <ele>979.5</ele>
        <time>2014-10-02T10:14:38Z</time>
      </trkpt>
      <trkpt lat="42.5458000" lon="-7.2140720">
        <ele>979.0</ele>
        <time>2014-10-02T10:14:40Z</time>
      </trkpt>
      <trkpt lat="42.5458270" lon="-7.2140460">
        <ele>978.6</ele>
        <time>2014-10-02T10:14:42Z</time>
      </trkpt>
      <trkpt lat="42.5458500" lon="-7.2140200">
        <ele>978.2</ele>
        <time>2014-10-02T10:14:45Z</time>
      </trkpt>
      <trkpt lat="42.5458910" lon="-7.2139890">
        <ele>977.6</ele>
        <time>2014-10-02T10:14:48Z</time>
      </trkpt>
      <trkpt lat="42.5459180" lon="-7.2139680">
        <ele>977.1</ele>
        <time>2014-10-02T10:14:49Z</time>
      </trkpt>
      <trkpt lat="42.5459460" lon="-7.2139550">
        <ele>976.7</ele>
        <time>2014-10-02T10:14:50Z</time>
      </trkpt>
      <trkpt lat="42.5459770" lon="-7.2139290">
        <ele>976.2</ele>
        <time>2014-10-02T10:14:51Z</time>
      </trkpt>
      <trkpt lat="42.5460060" lon="-7.2139220">
        <ele>975.8</ele>
        <time>2014-10-02T10:14:52Z</time>
      </trkpt>
      <trkpt lat="42.5460390" lon="-7.2139080">
        <ele>975.3</ele>
        <time>2014-10-02T10:14:53Z</time>
      </trkpt>
      <trkpt lat="42.5460720" lon="-7.2138910">
        <ele>974.7</ele>
        <time>2014-10-02T10:14:54Z</time>
      </trkpt>
      <trkpt lat="42.5461050" lon="-7.2138670">
        <ele>974.2</ele>
        <time>2014-10-02T10:14:55Z</time>
      </trkpt>
      <trkpt lat="42.5461400" lon="-7.2138380">
        <ele>973.6</ele>
        <time>2014-10-02T10:14:56Z</time>
      </trkpt>
      <trkpt lat="42.5461750" lon="-7.2138030">
        <ele>972.9</ele>
        <time>2014-10-02T10:14:57Z</time>
      </trkpt>
      <trkpt lat="42.5462150" lon="-7.2137650">
        <ele>972.2</ele>
        <time>2014-10-02T10:14:58Z</time>
      </trkpt>
      <trkpt lat="42.5462530" lon="-7.2137330">
        <ele>971.6</ele>
        <time>2014-10-02T10:14:59Z</time>
      </trkpt>
      <trkpt lat="42.5462990" lon="-7.2137040">
        <ele>970.9</ele>
        <time>2014-10-02T10:15:00Z</time>
      </trkpt>
      <trkpt lat="42.5463510" lon="-7.2136740">
        <ele>970.0</ele>
        <time>2014-10-02T10:15:01Z</time>
      </trkpt>
      <trkpt lat="42.5464040" lon="-7.2136510">
        <ele>969.2</ele>
        <time>2014-10-02T10:15:02Z</time>
      </trkpt>
      <trkpt lat="42.5464640" lon="-7.2136320">
        <ele>968.3</ele>
        <time>2014-10-02T10:15:03Z</time>
      </trkpt>
      <trkpt lat="42.5465240" lon="-7.2136060">
        <ele>967.4</ele>
        <time>2014-10-02T10:15:04Z</time>
      </trkpt>
      <trkpt lat="42.5465830" lon="-7.2135830">
        <ele>966.4</ele>
        <time>2014-10-02T10:15:05Z</time>
      </trkpt>
      <trkpt lat="42.5466430" lon="-7.2135810">
        <ele>965.5</ele>
        <time>2014-10-02T10:15:06Z</time>
      </trkpt>
      <trkpt lat="42.5467010" lon="-7.2135890">
        <ele>964.5</ele>
        <time>2014-10-02T10:15:07Z</time>
      </trkpt>
      <trkpt lat="42.5467600" lon="-7.2135920">
        <ele>963.4</ele>
        <time>2014-10-02T10:15:08Z</time>
      </trkpt>
      <trkpt lat="42.5468180" lon="-7.2135820">
        <ele>963.0</ele>
        <time>2014-10-02T10:15:09Z</time>
      </trkpt>
      <trkpt lat="42.5468730" lon="-7.2135650">
        <ele>962.6</ele>
        <time>2014-10-02T10:15:10Z</time>
      </trkpt>
      <trkpt lat="42.5469380" lon="-7.2135500">
        <ele>962.1</ele>
        <time>2014-10-02T10:15:11Z</time>
      </trkpt>
      <trkpt lat="42.5470110" lon="-7.2135360">
        <ele>961.6</ele>
        <time>2014-10-02T10:15:12Z</time>
      </trkpt>
      <trkpt lat="42.5470920" lon="-7.2135200">
        <ele>961.0</ele>
        <time>2014-10-02T10:15:13Z</time>
      </trkpt>
      <trkpt lat="42.5471750" lon="-7.2135040">
        <ele>960.5</ele>
        <time>2014-10-02T10:15:14Z</time>
      </trkpt>
      <trkpt lat="42.5472650" lon="-7.2134860">
        <ele>959.9</ele>
        <time>2014-10-02T10:15:15Z</time>
      </trkpt>
      <trkpt lat="42.5473610" lon="-7.2134680">
        <ele>959.3</ele>
        <time>2014-10-02T10:15:16Z</time>
      </trkpt>
      <trkpt lat="42.5474420" lon="-7.2134490">
        <ele>958.7</ele>
        <time>2014-10-02T10:15:17Z</time>
      </trkpt>
      <trkpt lat="42.5475230" lon="-7.2134280">
        <ele>958.1</ele>
        <time>2014-10-02T10:15:18Z</time>
      </trkpt>
      <trkpt lat="42.5476120" lon="-7.2133940">
        <ele>957.4</ele>
        <time>2014-10-02T10:15:19Z</time>
      </trkpt>
      <trkpt lat="42.5476960" lon="-7.2133570">
        <ele>956.8</ele>
        <time>2014-10-02T10:15:20Z</time>
      </trkpt>
      <trkpt lat="42.5477830" lon="-7.2133060">
        <ele>956.3</ele>
        <time>2014-10-02T10:15:21Z</time>
      </trkpt>
      <trkpt lat="42.5478710" lon="-7.2132570">
        <ele>955.8</ele>
        <time>2014-10-02T10:15:22Z</time>
      </trkpt>
      <trkpt lat="42.5479620" lon="-7.2132110">
        <ele>955.1</ele>
        <time>2014-10-02T10:15:23Z</time>
      </trkpt>
      <trkpt lat="42.5480550" lon="-7.2131710">
        <ele>954.4</ele>
        <time>2014-10-02T10:15:24Z</time>
      </trkpt>
      <trkpt lat="42.5481540" lon="-7.2131220">
        <ele>953.5</ele>
        <time>2014-10-02T10:15:25Z</time>
      </trkpt>
      <trkpt lat="42.5482520" lon="-7.2130720">
        <ele>952.6</ele>
        <time>2014-10-02T10:15:26Z</time>
      </trkpt>
      <trkpt lat="42.5483630" lon="-7.2130370">
        <ele>951.7</ele>
        <time>2014-10-02T10:15:27Z</time>
      </trkpt>
      <trkpt lat="42.5484760" lon="-7.2130400">
        <ele>950.8</ele>
        <time>2014-10-02T10:15:28Z</time>
      </trkpt>
      <trkpt lat="42.5485840" lon="-7.2130560">
        <ele>949.8</ele>
        <time>2014-10-02T10:15:29Z</time>
      </trkpt>
      <trkpt lat="42.5486910" lon="-7.2130860">
        <ele>948.8</ele>
        <time>2014-10-02T10:15:30Z</time>
      </trkpt>
      <trkpt lat="42.5487910" lon="-7.2131380">
        <ele>947.7</ele>
        <time>2014-10-02T10:15:31Z</time>
      </trkpt>
      <trkpt lat="42.5488920" lon="-7.2132010">
        <ele>946.4</ele>
        <time>2014-10-02T10:15:32Z</time>
      </trkpt>
      <trkpt lat="42.5489950" lon="-7.2132650">
        <ele>945.1</ele>
        <time>2014-10-02T10:15:33Z</time>
      </trkpt>
      <trkpt lat="42.5490970" lon="-7.2133300">
        <ele>944.0</ele>
        <time>2014-10-02T10:15:34Z</time>
      </trkpt>
      <trkpt lat="42.5492020" lon="-7.2133980">
        <ele>943.0</ele>
        <time>2014-10-02T10:15:35Z</time>
      </trkpt>
      <trkpt lat="42.5493010" lon="-7.2134600">
        <ele>942.0</ele>
        <time>2014-10-02T10:15:36Z</time>
      </trkpt>
      <trkpt lat="42.5494010" lon="-7.2135210">
        <ele>941.1</ele>
        <time>2014-10-02T10:15:37Z</time>
      </trkpt>
      <trkpt lat="42.5495010" lon="-7.2135820">
        <ele>940.2</ele>
        <time>2014-10-02T10:15:38Z</time>
      </trkpt>
      <trkpt lat="42.5495990" lon="-7.2136340">
        <ele>939.4</ele>
        <time>2014-10-02T10:15:39Z</time>
      </trkpt>
      <trkpt lat="42.5496880" lon="-7.2136720">
        <ele>938.8</ele>
        <time>2014-10-02T10:15:40Z</time>
      </trkpt>
      <trkpt lat="42.5497890" lon="-7.2137230">
        <ele>938.1</ele>
        <time>2014-10-02T10:15:41Z</time>
      </trkpt>
      <trkpt lat="42.5498990" lon="-7.2137880">
        <ele>937.5</ele>
        <time>2014-10-02T10:15:42Z</time>
      </trkpt>
      <trkpt lat="42.5500120" lon="-7.2138620">
        <ele>936.8</ele>
        <time>2014-10-02T10:15:43Z</time>
      </trkpt>
      <trkpt lat="42.5501300" lon="-7.2139350">
        <ele>936.0</ele>
        <time>2014-10-02T10:15:44Z</time>
      </trkpt>
      <trkpt lat="42.5502510" lon="-7.2140080">
        <ele>935.3</ele>
        <time>2014-10-02T10:15:45Z</time>
      </trkpt>
      <trkpt lat="42.5503720" lon="-7.2140750">
        <ele>934.5</ele>
        <time>2014-10-02T10:15:46Z</time>
      </trkpt>
      <trkpt lat="42.5504920" lon="-7.2141280">
        <ele>933.5</ele>
        <time>2014-10-02T10:15:47Z</time>
      </trkpt>
      <trkpt lat="42.5506150" lon="-7.2141330">
        <ele>932.3</ele>
        <time>2014-10-02T10:15:48Z</time>
      </trkpt>
      <trkpt lat="42.5507350" lon="-7.2141280">
        <ele>931.1</ele>
        <time>2014-10-02T10:15:49Z</time>
      </trkpt>
      <trkpt lat="42.5508650" lon="-7.2140840">
        <ele>930.0</ele>
        <time>2014-10-02T10:15:50Z</time>
      </trkpt>
      <trkpt lat="42.5509730" lon="-7.2139650">
        <ele>929.1</ele>
        <time>2014-10-02T10:15:51Z</time>
      </trkpt>
      <trkpt lat="42.5510470" lon="-7.2138250">
        <ele>928.2</ele>
        <time>2014-10-02T10:15:52Z</time>
      </trkpt>
      <trkpt lat="42.5511260" lon="-7.2136660">
        <ele>927.4</ele>
        <time>2014-10-02T10:15:53Z</time>
      </trkpt>
      <trkpt lat="42.5512100" lon="-7.2135030">
        <ele>926.5</ele>
        <time>2014-10-02T10:15:54Z</time>
      </trkpt>
      <trkpt lat="42.5512780" lon="-7.2133530">
        <ele>925.7</ele>
        <time>2014-10-02T10:15:55Z</time>
      </trkpt>
      <trkpt lat="42.5513320" lon="-7.2131980">
        <ele>924.9</ele>
        <time>2014-10-02T10:15:56Z</time>
      </trkpt>
      <trkpt lat="42.5514190" lon="-7.2130480">
        <ele>924.1</ele>
        <time>2014-10-02T10:15:57Z</time>
      </trkpt>
      <trkpt lat="42.5514980" lon="-7.2129030">
        <ele>923.5</ele>
        <time>2014-10-02T10:15:58Z</time>
      </trkpt>
      <trkpt lat="42.5515770" lon="-7.2127510">
        <ele>922.7</ele>
        <time>2014-10-02T10:15:59Z</time>
      </trkpt>
      <trkpt lat="42.5516480" lon="-7.2126010">
        <ele>921.9</ele>
        <time>2014-10-02T10:16:00Z</time>
      </trkpt>
      <trkpt lat="42.5517150" lon="-7.2124490">
        <ele>921.3</ele>
        <time>2014-10-02T10:16:01Z</time>
      </trkpt>
      <trkpt lat="42.5517790" lon="-7.2123000">
        <ele>920.8</ele>
        <time>2014-10-02T10:16:02Z</time>
      </trkpt>
      <trkpt lat="42.5518410" lon="-7.2121550">
        <ele>920.4</ele>
        <time>2014-10-02T10:16:03Z</time>
      </trkpt>
      <trkpt lat="42.5518980" lon="-7.2120110">
        <ele>920.0</ele>
        <time>2014-10-02T10:16:04Z</time>
      </trkpt>
      <trkpt lat="42.5519550" lon="-7.2118640">
        <ele>919.3</ele>
        <time>2014-10-02T10:16:05Z</time>
      </trkpt>
      <trkpt lat="42.5520140" lon="-7.2117110">
        <ele>918.5</ele>
        <time>2014-10-02T10:16:06Z</time>
      </trkpt>
      <trkpt lat="42.5520420" lon="-7.2115530">
        <ele>917.8</ele>
        <time>2014-10-02T10:16:07Z</time>
      </trkpt>
      <trkpt lat="42.5520750" lon="-7.2113980">
        <ele>917.1</ele>
        <time>2014-10-02T10:16:08Z</time>
      </trkpt>
      <trkpt lat="42.5521060" lon="-7.2112420">
        <ele>916.7</ele>
        <time>2014-10-02T10:16:09Z</time>
      </trkpt>
      <trkpt lat="42.5521310" lon="-7.2110780">
        <ele>916.1</ele>
        <time>2014-10-02T10:16:10Z</time>
      </trkpt>
      <trkpt lat="42.5521580" lon="-7.2109200">
        <ele>915.5</ele>
        <time>2014-10-02T10:16:11Z</time>
      </trkpt>
      <trkpt lat="42.5521760" lon="-7.2107630">
        <ele>914.9</ele>
        <time>2014-10-02T10:16:12Z</time>
      </trkpt>
      <trkpt lat="42.5522050" lon="-7.2106050">
        <ele>914.2</ele>
        <time>2014-10-02T10:16:13Z</time>
      </trkpt>
      <trkpt lat="42.5522490" lon="-7.2104500">
        <ele>913.6</ele>
        <time>2014-10-02T10:16:14Z</time>
      </trkpt>
      <trkpt lat="42.5522910" lon="-7.2102990">
        <ele>912.8</ele>
        <time>2014-10-02T10:16:15Z</time>
      </trkpt>
      <trkpt lat="42.5523450" lon="-7.2101420">
        <ele>912.0</ele>
        <time>2014-10-02T10:16:16Z</time>
      </trkpt>
      <trkpt lat="42.5524030" lon="-7.2099950">
        <ele>911.2</ele>
        <time>2014-10-02T10:16:17Z</time>
      </trkpt>
      <trkpt lat="42.5524670" lon="-7.2098530">
        <ele>910.4</ele>
        <time>2014-10-02T10:16:18Z</time>
      </trkpt>
      <trkpt lat="42.5525340" lon="-7.2097220">
        <ele>909.7</ele>
        <time>2014-10-02T10:16:19Z</time>
      </trkpt>
      <trkpt lat="42.5526090" lon="-7.2095990">
        <ele>909.1</ele>
        <time>2014-10-02T10:16:20Z</time>
      </trkpt>
      <trkpt lat="42.5526920" lon="-7.2094800">
        <ele>908.8</ele>
        <time>2014-10-02T10:16:21Z</time>
      </trkpt>
      <trkpt lat="42.5527760" lon="-7.2093730">
        <ele>908.8</ele>
        <time>2014-10-02T10:16:22Z</time>
      </trkpt>
      <trkpt lat="42.5528650" lon="-7.2092790">
        <ele>908.3</ele>
        <time>2014-10-02T10:16:23Z</time>
      </trkpt>
      <trkpt lat="42.5529750" lon="-7.2091850">
        <ele>906.8</ele>
        <time>2014-10-02T10:16:24Z</time>
      </trkpt>
      <trkpt lat="42.5530720" lon="-7.2090900">
        <ele>905.9</ele>
        <time>2014-10-02T10:16:25Z</time>
      </trkpt>
      <trkpt lat="42.5531710" lon="-7.2089880">
        <ele>905.0</ele>
        <time>2014-10-02T10:16:26Z</time>
      </trkpt>
      <trkpt lat="42.5532590" lon="-7.2088810">
        <ele>904.3</ele>
        <time>2014-10-02T10:16:27Z</time>
      </trkpt>
      <trkpt lat="42.5533580" lon="-7.2087600">
        <ele>903.5</ele>
        <time>2014-10-02T10:16:28Z</time>
      </trkpt>
      <trkpt lat="42.5534540" lon="-7.2086340">
        <ele>902.7</ele>
        <time>2014-10-02T10:16:29Z</time>
      </trkpt>
      <trkpt lat="42.5535450" lon="-7.2085010">
        <ele>901.7</ele>
        <time>2014-10-02T10:16:30Z</time>
      </trkpt>
      <trkpt lat="42.5536260" lon="-7.2083640">
        <ele>901.0</ele>
        <time>2014-10-02T10:16:31Z</time>
      </trkpt>
      <trkpt lat="42.5536970" lon="-7.2082290">
        <ele>900.6</ele>
        <time>2014-10-02T10:16:32Z</time>
      </trkpt>
      <trkpt lat="42.5537650" lon="-7.2080820">
        <ele>900.1</ele>
        <time>2014-10-02T10:16:33Z</time>
      </trkpt>
      <trkpt lat="42.5538240" lon="-7.2079360">
        <ele>899.5</ele>
        <time>2014-10-02T10:16:34Z</time>
      </trkpt>
      <trkpt lat="42.5538850" lon="-7.2077780">
        <ele>899.0</ele>
        <time>2014-10-02T10:16:35Z</time>
      </trkpt>
      <trkpt lat="42.5539510" lon="-7.2076210">
        <ele>898.5</ele>
        <time>2014-10-02T10:16:36Z</time>
      </trkpt>
      <trkpt lat="42.5540120" lon="-7.2074820">
        <ele>898.2</ele>
        <time>2014-10-02T10:16:37Z</time>
      </trkpt>
      <trkpt lat="42.5540850" lon="-7.2073450">
        <ele>897.8</ele>
        <time>2014-10-02T10:16:38Z</time>
      </trkpt>
      <trkpt lat="42.5541760" lon="-7.2072330">
        <ele>897.3</ele>
        <time>2014-10-02T10:16:39Z</time>
      </trkpt>
      <trkpt lat="42.5542600" lon="-7.2071280">
        <ele>896.9</ele>
        <time>2014-10-02T10:16:40Z</time>
      </trkpt>
      <trkpt lat="42.5543450" lon="-7.2070330">
        <ele>896.4</ele>
        <time>2014-10-02T10:16:41Z</time>
      </trkpt>
      <trkpt lat="42.5544290" lon="-7.2069510">
        <ele>895.9</ele>
        <time>2014-10-02T10:16:42Z</time>
      </trkpt>
      <trkpt lat="42.5545160" lon="-7.2068750">
        <ele>895.3</ele>
        <time>2014-10-02T10:16:43Z</time>
      </trkpt>
      <trkpt lat="42.5545950" lon="-7.2068110">
        <ele>894.7</ele>
        <time>2014-10-02T10:16:44Z</time>
      </trkpt>
      <trkpt lat="42.5546820" lon="-7.2067450">
        <ele>894.3</ele>
        <time>2014-10-02T10:16:45Z</time>
      </trkpt>
      <trkpt lat="42.5547710" lon="-7.2066770">
        <ele>893.8</ele>
        <time>2014-10-02T10:16:46Z</time>
      </trkpt>
      <trkpt lat="42.5548670" lon="-7.2066050">
        <ele>893.2</ele>
        <time>2014-10-02T10:16:47Z</time>
      </trkpt>
      <trkpt lat="42.5549710" lon="-7.2065260">
        <ele>892.6</ele>
        <time>2014-10-02T10:16:48Z</time>
      </trkpt>
      <trkpt lat="42.5550810" lon="-7.2064490">
        <ele>892.0</ele>
        <time>2014-10-02T10:16:49Z</time>
      </trkpt>
      <trkpt lat="42.5551950" lon="-7.2063680">
        <ele>891.6</ele>
        <time>2014-10-02T10:16:50Z</time>
      </trkpt>
      <trkpt lat="42.5553150" lon="-7.2062750">
        <ele>891.0</ele>
        <time>2014-10-02T10:16:51Z</time>
      </trkpt>
      <trkpt lat="42.5554380" lon="-7.2061760">
        <ele>890.3</ele>
        <time>2014-10-02T10:16:52Z</time>
      </trkpt>
      <trkpt lat="42.5555560" lon="-7.2060760">
        <ele>889.5</ele>
        <time>2014-10-02T10:16:53Z</time>
      </trkpt>
      <trkpt lat="42.5556610" lon="-7.2059750">
        <ele>888.8</ele>
        <time>2014-10-02T10:16:54Z</time>
      </trkpt>
      <trkpt lat="42.5557660" lon="-7.2058740">
        <ele>888.2</ele>
        <time>2014-10-02T10:16:55Z</time>
      </trkpt>
      <trkpt lat="42.5558680" lon="-7.2057730">
        <ele>887.7</ele>
        <time>2014-10-02T10:16:56Z</time>
      </trkpt>
      <trkpt lat="42.5559550" lon="-7.2056760">
        <ele>887.2</ele>
        <time>2014-10-02T10:16:57Z</time>
      </trkpt>
      <trkpt lat="42.5560430" lon="-7.2055800">
        <ele>886.7</ele>
        <time>2014-10-02T10:16:58Z</time>
      </trkpt>
      <trkpt lat="42.5561390" lon="-7.2054810">
        <ele>886.2</ele>
        <time>2014-10-02T10:16:59Z</time>
      </trkpt>
      <trkpt lat="42.5562320" lon="-7.2053870">
        <ele>885.8</ele>
        <time>2014-10-02T10:17:00Z</time>
      </trkpt>
      <trkpt lat="42.5563270" lon="-7.2053000">
        <ele>885.4</ele>
        <time>2014-10-02T10:17:01Z</time>
      </trkpt>
      <trkpt lat="42.5564150" lon="-7.2052260">
        <ele>884.8</ele>
        <time>2014-10-02T10:17:02Z</time>
      </trkpt>
      <trkpt lat="42.5565430" lon="-7.2051680">
        <ele>884.0</ele>
        <time>2014-10-02T10:17:03Z</time>
      </trkpt>
      <trkpt lat="42.5566510" lon="-7.2051240">
        <ele>883.3</ele>
        <time>2014-10-02T10:17:04Z</time>
      </trkpt>
      <trkpt lat="42.5567550" lon="-7.2050930">
        <ele>882.7</ele>
        <time>2014-10-02T10:17:05Z</time>
      </trkpt>
      <trkpt lat="42.5568620" lon="-7.2050800">
        <ele>882.0</ele>
        <time>2014-10-02T10:17:06Z</time>
      </trkpt>
      <trkpt lat="42.5569900" lon="-7.2050870">
        <ele>881.2</ele>
        <time>2014-10-02T10:17:07Z</time>
      </trkpt>
      <trkpt lat="42.5571210" lon="-7.2051090">
        <ele>880.4</ele>
        <time>2014-10-02T10:17:08Z</time>
      </trkpt>
      <trkpt lat="42.5572440" lon="-7.2051580">
        <ele>879.5</ele>
        <time>2014-10-02T10:17:09Z</time>
      </trkpt>
      <trkpt lat="42.5573680" lon="-7.2052180">
        <ele>878.6</ele>
        <time>2014-10-02T10:17:10Z</time>
      </trkpt>
      <trkpt lat="42.5574890" lon="-7.2052910">
        <ele>877.5</ele>
        <time>2014-10-02T10:17:11Z</time>
      </trkpt>
      <trkpt lat="42.5576080" lon="-7.2053560">
        <ele>876.4</ele>
        <time>2014-10-02T10:17:12Z</time>
      </trkpt>
      <trkpt lat="42.5577300" lon="-7.2054220">
        <ele>875.4</ele>
        <time>2014-10-02T10:17:13Z</time>
      </trkpt>
      <trkpt lat="42.5578510" lon="-7.2055000">
        <ele>874.5</ele>
        <time>2014-10-02T10:17:14Z</time>
      </trkpt>
      <trkpt lat="42.5579500" lon="-7.2055590">
        <ele>873.8</ele>
        <time>2014-10-02T10:17:15Z</time>
      </trkpt>
      <trkpt lat="42.5580810" lon="-7.2056130">
        <ele>872.9</ele>
        <time>2014-10-02T10:17:16Z</time>
      </trkpt>
      <trkpt lat="42.5582110" lon="-7.2056220">
        <ele>872.0</ele>
        <time>2014-10-02T10:17:17Z</time>
      </trkpt>
      <trkpt lat="42.5583360" lon="-7.2056190">
        <ele>870.9</ele>
        <time>2014-10-02T10:17:18Z</time>
      </trkpt>
      <trkpt lat="42.5584620" lon="-7.2055950">
        <ele>869.7</ele>
        <time>2014-10-02T10:17:19Z</time>
      </trkpt>
      <trkpt lat="42.5585980" lon="-7.2054970">
        <ele>867.9</ele>
        <time>2014-10-02T10:17:20Z</time>
      </trkpt>
      <trkpt lat="42.5587260" lon="-7.2054030">
        <ele>866.2</ele>
        <time>2014-10-02T10:17:21Z</time>
      </trkpt>
      <trkpt lat="42.5588440" lon="-7.2052990">
        <ele>864.8</ele>
        <time>2014-10-02T10:17:22Z</time>
      </trkpt>
      <trkpt lat="42.5589610" lon="-7.2051930">
        <ele>863.4</ele>
        <time>2014-10-02T10:17:23Z</time>
      </trkpt>
      <trkpt lat="42.5590750" lon="-7.2050910">
        <ele>862.2</ele>
        <time>2014-10-02T10:17:24Z</time>
      </trkpt>
      <trkpt lat="42.5592150" lon="-7.2049990">
        <ele>860.7</ele>
        <time>2014-10-02T10:17:25Z</time>
      </trkpt>
      <trkpt lat="42.5593670" lon="-7.2049650">
        <ele>858.8</ele>
        <time>2014-10-02T10:17:26Z</time>
      </trkpt>
      <trkpt lat="42.5595100" lon="-7.2049460">
        <ele>856.9</ele>
        <time>2014-10-02T10:17:27Z</time>
      </trkpt>
      <trkpt lat="42.5596610" lon="-7.2049420">
        <ele>855.1</ele>
        <time>2014-10-02T10:17:28Z</time>
      </trkpt>
      <trkpt lat="42.5598220" lon="-7.2049580">
        <ele>853.5</ele>
        <time>2014-10-02T10:17:29Z</time>
      </trkpt>
      <trkpt lat="42.5599810" lon="-7.2049940">
        <ele>852.1</ele>
        <time>2014-10-02T10:17:30Z</time>
      </trkpt>
      <trkpt lat="42.5601500" lon="-7.2050480">
        <ele>851.1</ele>
        <time>2014-10-02T10:17:31Z</time>
      </trkpt>
      <trkpt lat="42.5603200" lon="-7.2051120">
        <ele>850.0</ele>
        <time>2014-10-02T10:17:32Z</time>
      </trkpt>
      <trkpt lat="42.5604800" lon="-7.2052280">
        <ele>849.1</ele>
        <time>2014-10-02T10:17:33Z</time>
      </trkpt>
      <trkpt lat="42.5606400" lon="-7.2053640">
        <ele>850.5</ele>
        <time>2014-10-02T10:17:34Z</time>
      </trkpt>
      <trkpt lat="42.5607930" lon="-7.2055540">
        <ele>849.9</ele>
        <time>2014-10-02T10:17:35Z</time>
      </trkpt>
      <trkpt lat="42.5609210" lon="-7.2057460">
        <ele>849.1</ele>
        <time>2014-10-02T10:17:36Z</time>
      </trkpt>
      <trkpt lat="42.5609850" lon="-7.2059500">
        <ele>848.5</ele>
        <time>2014-10-02T10:17:37Z</time>
      </trkpt>
      <trkpt lat="42.5610410" lon="-7.2061590">
        <ele>848.4</ele>
        <time>2014-10-02T10:17:38Z</time>
      </trkpt>
      <trkpt lat="42.5610850" lon="-7.2063670">
        <ele>848.6</ele>
        <time>2014-10-02T10:17:39Z</time>
      </trkpt>
      <trkpt lat="42.5611310" lon="-7.2065810">
        <ele>848.9</ele>
        <time>2014-10-02T10:17:40Z</time>
      </trkpt>
      <trkpt lat="42.5611730" lon="-7.2067690">
        <ele>849.2</ele>
        <time>2014-10-02T10:17:41Z</time>
      </trkpt>
      <trkpt lat="42.5612170" lon="-7.2069430">
        <ele>849.8</ele>
        <time>2014-10-02T10:17:42Z</time>
      </trkpt>
      <trkpt lat="42.5612630" lon="-7.2071150">
        <ele>850.5</ele>
        <time>2014-10-02T10:17:43Z</time>
      </trkpt>
      <trkpt lat="42.5613100" lon="-7.2072650">
        <ele>851.5</ele>
        <time>2014-10-02T10:17:44Z</time>
      </trkpt>
      <trkpt lat="42.5613610" lon="-7.2073880">
        <ele>852.9</ele>
        <time>2014-10-02T10:17:45Z</time>
      </trkpt>
      <trkpt lat="42.5614300" lon="-7.2074860">
        <ele>853.6</ele>
        <time>2014-10-02T10:17:46Z</time>
      </trkpt>
      <trkpt lat="42.5615010" lon="-7.2075780">
        <ele>854.0</ele>
        <time>2014-10-02T10:17:47Z</time>
      </trkpt>
      <trkpt lat="42.5615640" lon="-7.2076520">
        <ele>854.2</ele>
        <time>2014-10-02T10:17:48Z</time>
      </trkpt>
      <trkpt lat="42.5616220" lon="-7.2077120">
        <ele>854.5</ele>
        <time>2014-10-02T10:17:49Z</time>
      </trkpt>
      <trkpt lat="42.5616840" lon="-7.2077690">
        <ele>854.8</ele>
        <time>2014-10-02T10:17:50Z</time>
      </trkpt>
      <trkpt lat="42.5617450" lon="-7.2078160">
        <ele>855.2</ele>
        <time>2014-10-02T10:17:51Z</time>
      </trkpt>
      <trkpt lat="42.5618040" lon="-7.2078560">
        <ele>855.6</ele>
        <time>2014-10-02T10:17:52Z</time>
      </trkpt>
      <trkpt lat="42.5618630" lon="-7.2078940">
        <ele>856.0</ele>
        <time>2014-10-02T10:17:53Z</time>
      </trkpt>
      <trkpt lat="42.5619220" lon="-7.2079290">
        <ele>856.5</ele>
        <time>2014-10-02T10:17:54Z</time>
      </trkpt>
      <trkpt lat="42.5619750" lon="-7.2079600">
        <ele>857.0</ele>
        <time>2014-10-02T10:17:55Z</time>
      </trkpt>
      <trkpt lat="42.5620250" lon="-7.2079950">
        <ele>857.5</ele>
        <time>2014-10-02T10:17:56Z</time>
      </trkpt>
      <trkpt lat="42.5620690" lon="-7.2080240">
        <ele>858.1</ele>
        <time>2014-10-02T10:17:57Z</time>
      </trkpt>
      <trkpt lat="42.5621140" lon="-7.2080550">
        <ele>858.7</ele>
        <time>2014-10-02T10:17:58Z</time>
      </trkpt>
      <trkpt lat="42.5621520" lon="-7.2080820">
        <ele>859.3</ele>
        <time>2014-10-02T10:17:59Z</time>
      </trkpt>
      <trkpt lat="42.5621890" lon="-7.2081090">
        <ele>859.8</ele>
        <time>2014-10-02T10:18:00Z</time>
      </trkpt>
      <trkpt lat="42.5622260" lon="-7.2081380">
        <ele>860.4</ele>
        <time>2014-10-02T10:18:01Z</time>
      </trkpt>
      <trkpt lat="42.5622600" lon="-7.2081640">
        <ele>860.9</ele>
        <time>2014-10-02T10:18:02Z</time>
      </trkpt>
      <trkpt lat="42.5622970" lon="-7.2081950">
        <ele>861.5</ele>
        <time>2014-10-02T10:18:03Z</time>
      </trkpt>
      <trkpt lat="42.5623290" lon="-7.2082230">
        <ele>862.0</ele>
        <time>2014-10-02T10:18:04Z</time>
      </trkpt>
      <trkpt lat="42.5623620" lon="-7.2082510">
        <ele>862.5</ele>
        <time>2014-10-02T10:18:05Z</time>
      </trkpt>
      <trkpt lat="42.5623930" lon="-7.2082790">
        <ele>862.9</ele>
        <time>2014-10-02T10:18:06Z</time>
      </trkpt>
      <trkpt lat="42.5624260" lon="-7.2083100">
        <ele>863.4</ele>
        <time>2014-10-02T10:18:07Z</time>
      </trkpt>
      <trkpt lat="42.5624570" lon="-7.2083370">
        <ele>863.8</ele>
        <time>2014-10-02T10:18:08Z</time>
      </trkpt>
      <trkpt lat="42.5624850" lon="-7.2083600">
        <ele>864.2</ele>
        <time>2014-10-02T10:18:09Z</time>
      </trkpt>
      <trkpt lat="42.5625140" lon="-7.2083860">
        <ele>864.5</ele>
        <time>2014-10-02T10:18:10Z</time>
      </trkpt>
      <trkpt lat="42.5625420" lon="-7.2084140">
        <ele>864.8</ele>
        <time>2014-10-02T10:18:11Z</time>
      </trkpt>
      <trkpt lat="42.5625680" lon="-7.2084400">
        <ele>865.1</ele>
        <time>2014-10-02T10:18:12Z</time>
      </trkpt>
      <trkpt lat="42.5625920" lon="-7.2084660">
        <ele>865.3</ele>
        <time>2014-10-02T10:18:13Z</time>
      </trkpt>
      <trkpt lat="42.5626170" lon="-7.2084940">
        <ele>865.6</ele>
        <time>2014-10-02T10:18:14Z</time>
      </trkpt>
      <trkpt lat="42.5626410" lon="-7.2085250">
        <ele>865.9</ele>
        <time>2014-10-02T10:18:15Z</time>
      </trkpt>
      <trkpt lat="42.5626670" lon="-7.2085600">
        <ele>866.1</ele>
        <time>2014-10-02T10:18:16Z</time>
      </trkpt>
      <trkpt lat="42.5626880" lon="-7.2085920">
        <ele>866.4</ele>
        <time>2014-10-02T10:18:17Z</time>
      </trkpt>
      <trkpt lat="42.5627140" lon="-7.2086320">
        <ele>866.7</ele>
        <time>2014-10-02T10:18:18Z</time>
      </trkpt>
      <trkpt lat="42.5627350" lon="-7.2086660">
        <ele>867.0</ele>
        <time>2014-10-02T10:18:19Z</time>
      </trkpt>
      <trkpt lat="42.5627490" lon="-7.2087070">
        <ele>867.2</ele>
        <time>2014-10-02T10:18:20Z</time>
      </trkpt>
      <trkpt lat="42.5627620" lon="-7.2087440">
        <ele>867.4</ele>
        <time>2014-10-02T10:18:21Z</time>
      </trkpt>
      <trkpt lat="42.5627870" lon="-7.2088130">
        <ele>867.8</ele>
        <time>2014-10-02T10:18:23Z</time>
      </trkpt>
      <trkpt lat="42.5628030" lon="-7.2088520">
        <ele>868.0</ele>
        <time>2014-10-02T10:18:24Z</time>
      </trkpt>
      <trkpt lat="42.5628130" lon="-7.2088900">
        <ele>868.2</ele>
        <time>2014-10-02T10:18:25Z</time>
      </trkpt>
      <trkpt lat="42.5628230" lon="-7.2089280">
        <ele>868.4</ele>
        <time>2014-10-02T10:18:26Z</time>
      </trkpt>
      <trkpt lat="42.5628320" lon="-7.2089630">
        <ele>868.5</ele>
        <time>2014-10-02T10:18:27Z</time>
      </trkpt>
      <trkpt lat="42.5628420" lon="-7.2090030">
        <ele>868.7</ele>
        <time>2014-10-02T10:18:28Z</time>
      </trkpt>
      <trkpt lat="42.5628540" lon="-7.2090570">
        <ele>868.9</ele>
        <time>2014-10-02T10:18:29Z</time>
      </trkpt>
      <trkpt lat="42.5628640" lon="-7.2091180">
        <ele>869.1</ele>
        <time>2014-10-02T10:18:30Z</time>
      </trkpt>
      <trkpt lat="42.5628750" lon="-7.2091910">
        <ele>869.3</ele>
        <time>2014-10-02T10:18:31Z</time>
      </trkpt>
      <trkpt lat="42.5628720" lon="-7.2092620">
        <ele>869.5</ele>
        <time>2014-10-02T10:18:32Z</time>
      </trkpt>
      <trkpt lat="42.5628640" lon="-7.2093250">
        <ele>869.6</ele>
        <time>2014-10-02T10:18:33Z</time>
      </trkpt>
      <trkpt lat="42.5628530" lon="-7.2093810">
        <ele>869.7</ele>
        <time>2014-10-02T10:18:34Z</time>
      </trkpt>
      <trkpt lat="42.5628380" lon="-7.2094260">
        <ele>869.8</ele>
        <time>2014-10-02T10:18:35Z</time>
      </trkpt>
      <trkpt lat="42.5628230" lon="-7.2094710">
        <ele>869.9</ele>
        <time>2014-10-02T10:18:36Z</time>
      </trkpt>
      <trkpt lat="42.5628090" lon="-7.2095350">
        <ele>869.9</ele>
        <time>2014-10-02T10:18:37Z</time>
      </trkpt>
      <trkpt lat="42.5627950" lon="-7.2096080">
        <ele>869.9</ele>
        <time>2014-10-02T10:18:38Z</time>
      </trkpt>
      <trkpt lat="42.5627820" lon="-7.2096740">
        <ele>869.9</ele>
        <time>2014-10-02T10:18:39Z</time>
      </trkpt>
      <trkpt lat="42.5627700" lon="-7.2097380">
        <ele>869.9</ele>
        <time>2014-10-02T10:18:40Z</time>
      </trkpt>
      <trkpt lat="42.5627560" lon="-7.2098010">
        <ele>869.8</ele>
        <time>2014-10-02T10:18:41Z</time>
      </trkpt>
      <trkpt lat="42.5627450" lon="-7.2098640">
        <ele>869.8</ele>
        <time>2014-10-02T10:18:42Z</time>
      </trkpt>
      <trkpt lat="42.5627370" lon="-7.2099250">
        <ele>869.8</ele>
        <time>2014-10-02T10:18:43Z</time>
      </trkpt>
      <trkpt lat="42.5627300" lon="-7.2099850">
        <ele>869.8</ele>
        <time>2014-10-02T10:18:44Z</time>
      </trkpt>
      <trkpt lat="42.5627250" lon="-7.2100430">
        <ele>869.8</ele>
        <time>2014-10-02T10:18:45Z</time>
      </trkpt>
      <trkpt lat="42.5627280" lon="-7.2101040">
        <ele>869.8</ele>
        <time>2014-10-02T10:18:46Z</time>
      </trkpt>
      <trkpt lat="42.5627320" lon="-7.2101660">
        <ele>869.8</ele>
        <time>2014-10-02T10:18:47Z</time>
      </trkpt>
      <trkpt lat="42.5627370" lon="-7.2102300">
        <ele>869.9</ele>
        <time>2014-10-02T10:18:48Z</time>
      </trkpt>
      <trkpt lat="42.5627510" lon="-7.2102880">
        <ele>870.0</ele>
        <time>2014-10-02T10:18:49Z</time>
      </trkpt>
      <trkpt lat="42.5627670" lon="-7.2103430">
        <ele>870.1</ele>
        <time>2014-10-02T10:18:50Z</time>
      </trkpt>
      <trkpt lat="42.5627830" lon="-7.2103870">
        <ele>870.2</ele>
        <time>2014-10-02T10:18:51Z</time>
      </trkpt>
      <trkpt lat="42.5628080" lon="-7.2104330">
        <ele>870.3</ele>
        <time>2014-10-02T10:18:52Z</time>
      </trkpt>
      <trkpt lat="42.5628350" lon="-7.2104790">
        <ele>870.5</ele>
        <time>2014-10-02T10:18:53Z</time>
      </trkpt>
      <trkpt lat="42.5628590" lon="-7.2105160">
        <ele>870.6</ele>
        <time>2014-10-02T10:18:54Z</time>
      </trkpt>
      <trkpt lat="42.5628850" lon="-7.2105540">
        <ele>870.8</ele>
        <time>2014-10-02T10:18:55Z</time>
      </trkpt>
      <trkpt lat="42.5629130" lon="-7.2105910">
        <ele>870.9</ele>
        <time>2014-10-02T10:18:56Z</time>
      </trkpt>
      <trkpt lat="42.5629430" lon="-7.2106250">
        <ele>871.1</ele>
        <time>2014-10-02T10:18:57Z</time>
      </trkpt>
      <trkpt lat="42.5629720" lon="-7.2106510">
        <ele>871.2</ele>
        <time>2014-10-02T10:18:58Z</time>
      </trkpt>
      <trkpt lat="42.5630120" lon="-7.2106740">
        <ele>871.4</ele>
        <time>2014-10-02T10:18:59Z</time>
      </trkpt>
      <trkpt lat="42.5630460" lon="-7.2106890">
        <ele>871.6</ele>
        <time>2014-10-02T10:19:00Z</time>
      </trkpt>
      <trkpt lat="42.5630840" lon="-7.2107050">
        <ele>871.7</ele>
        <time>2014-10-02T10:19:01Z</time>
      </trkpt>
      <trkpt lat="42.5631210" lon="-7.2107140">
        <ele>871.9</ele>
        <time>2014-10-02T10:19:02Z</time>
      </trkpt>
      <trkpt lat="42.5631510" lon="-7.2107190">
        <ele>872.1</ele>
        <time>2014-10-02T10:19:03Z</time>
      </trkpt>
      <trkpt lat="42.5631830" lon="-7.2107220">
        <ele>872.2</ele>
        <time>2014-10-02T10:19:04Z</time>
      </trkpt>
      <trkpt lat="42.5632160" lon="-7.2107180">
        <ele>872.4</ele>
        <time>2014-10-02T10:19:05Z</time>
      </trkpt>
      <trkpt lat="42.5632460" lon="-7.2107140">
        <ele>872.5</ele>
        <time>2014-10-02T10:19:06Z</time>
      </trkpt>
      <trkpt lat="42.5632860" lon="-7.2107090">
        <ele>872.7</ele>
        <time>2014-10-02T10:19:07Z</time>
      </trkpt>
      <trkpt lat="42.5633210" lon="-7.2107020">
        <ele>872.8</ele>
        <time>2014-10-02T10:19:08Z</time>
      </trkpt>
      <trkpt lat="42.5633610" lon="-7.2106930">
        <ele>872.9</ele>
        <time>2014-10-02T10:19:09Z</time>
      </trkpt>
      <trkpt lat="42.5633980" lon="-7.2106830">
        <ele>873.1</ele>
        <time>2014-10-02T10:19:10Z</time>
      </trkpt>
      <trkpt lat="42.5634310" lon="-7.2106640">
        <ele>873.2</ele>
        <time>2014-10-02T10:19:11Z</time>
      </trkpt>
      <trkpt lat="42.5634650" lon="-7.2106430">
        <ele>873.3</ele>
        <time>2014-10-02T10:19:12Z</time>
      </trkpt>
      <trkpt lat="42.5635030" lon="-7.2106240">
        <ele>873.5</ele>
        <time>2014-10-02T10:19:13Z</time>
      </trkpt>
      <trkpt lat="42.5635340" lon="-7.2106090">
        <ele>873.6</ele>
        <time>2014-10-02T10:19:14Z</time>
      </trkpt>
      <trkpt lat="42.5635670" lon="-7.2105950">
        <ele>873.7</ele>
        <time>2014-10-02T10:19:15Z</time>
      </trkpt>
      <trkpt lat="42.5636090" lon="-7.2105790">
        <ele>873.8</ele>
        <time>2014-10-02T10:19:16Z</time>
      </trkpt>
      <trkpt lat="42.5636520" lon="-7.2105620">
        <ele>873.9</ele>
        <time>2014-10-02T10:19:17Z</time>
      </trkpt>
      <trkpt lat="42.5636860" lon="-7.2105500">
        <ele>873.9</ele>
        <time>2014-10-02T10:19:18Z</time>
      </trkpt>
      <trkpt lat="42.5637660" lon="-7.2105150">
        <ele>874.1</ele>
        <time>2014-10-02T10:19:21Z</time>
      </trkpt>
      <trkpt lat="42.5637960" lon="-7.2105020">
        <ele>874.1</ele>
        <time>2014-10-02T10:19:22Z</time>
      </trkpt>
      <trkpt lat="42.5638240" lon="-7.2104880">
        <ele>874.2</ele>
        <time>2014-10-02T10:19:23Z</time>
      </trkpt>
      <trkpt lat="42.5638550" lon="-7.2104730">
        <ele>874.2</ele>
        <time>2014-10-02T10:19:24Z</time>
      </trkpt>
      <trkpt lat="42.5638880" lon="-7.2104590">
        <ele>874.3</ele>
        <time>2014-10-02T10:19:25Z</time>
      </trkpt>
      <trkpt lat="42.5639470" lon="-7.2104320">
        <ele>874.4</ele>
        <time>2014-10-02T10:19:27Z</time>
      </trkpt>
      <trkpt lat="42.5639930" lon="-7.2104130">
        <ele>874.5</ele>
        <time>2014-10-02T10:19:28Z</time>
      </trkpt>
      <trkpt lat="42.5640330" lon="-7.2103980">
        <ele>874.6</ele>
        <time>2014-10-02T10:19:29Z</time>
      </trkpt>
      <trkpt lat="42.5640750" lon="-7.2103830">
        <ele>874.7</ele>
        <time>2014-10-02T10:19:30Z</time>
      </trkpt>
      <trkpt lat="42.5641190" lon="-7.2103680">
        <ele>874.9</ele>
        <time>2014-10-02T10:19:31Z</time>
      </trkpt>
      <trkpt lat="42.5641550" lon="-7.2103550">
        <ele>875.0</ele>
        <time>2014-10-02T10:19:32Z</time>
      </trkpt>
      <trkpt lat="42.5641900" lon="-7.2103420">
        <ele>875.1</ele>
        <time>2014-10-02T10:19:33Z</time>
      </trkpt>
      <trkpt lat="42.5642240" lon="-7.2103260">
        <ele>875.2</ele>
        <time>2014-10-02T10:19:34Z</time>
      </trkpt>
      <trkpt lat="42.5642630" lon="-7.2103090">
        <ele>875.4</ele>
        <time>2014-10-02T10:19:35Z</time>
      </trkpt>
      <trkpt lat="42.5642900" lon="-7.2102980">
        <ele>875.5</ele>
        <time>2014-10-02T10:19:36Z</time>
      </trkpt>
      <trkpt lat="42.5643260" lon="-7.2102830">
        <ele>875.6</ele>
        <time>2014-10-02T10:19:37Z</time>
      </trkpt>
      <trkpt lat="42.5643620" lon="-7.2102690">
        <ele>875.7</ele>
        <time>2014-10-02T10:19:38Z</time>
      </trkpt>
      <trkpt lat="42.5644030" lon="-7.2102510">
        <ele>875.9</ele>
        <time>2014-10-02T10:19:39Z</time>
      </trkpt>
      <trkpt lat="42.5644460" lon="-7.2102370">
        <ele>876.1</ele>
        <time>2014-10-02T10:19:40Z</time>
      </trkpt>
      <trkpt lat="42.5644940" lon="-7.2102250">
        <ele>876.3</ele>
        <time>2014-10-02T10:19:41Z</time>
      </trkpt>
      <trkpt lat="42.5645380" lon="-7.2102130">
        <ele>876.4</ele>
        <time>2014-10-02T10:19:42Z</time>
      </trkpt>
      <trkpt lat="42.5645830" lon="-7.2101990">
        <ele>876.6</ele>
        <time>2014-10-02T10:19:43Z</time>
      </trkpt>
      <trkpt lat="42.5646200" lon="-7.2101890">
        <ele>876.7</ele>
        <time>2014-10-02T10:19:44Z</time>
      </trkpt>
      <trkpt lat="42.5646590" lon="-7.2101820">
        <ele>876.8</ele>
        <time>2014-10-02T10:19:45Z</time>
      </trkpt>
      <trkpt lat="42.5647010" lon="-7.2101740">
        <ele>877.0</ele>
        <time>2014-10-02T10:19:46Z</time>
      </trkpt>
      <trkpt lat="42.5647410" lon="-7.2101700">
        <ele>877.2</ele>
        <time>2014-10-02T10:19:47Z</time>
      </trkpt>
      <trkpt lat="42.5647910" lon="-7.2101660">
        <ele>877.5</ele>
        <time>2014-10-02T10:19:49Z</time>
      </trkpt>
      <trkpt lat="42.5649070" lon="-7.2101630">
        <ele>878.2</ele>
        <time>2014-10-02T10:19:53Z</time>
      </trkpt>
      <trkpt lat="42.5649450" lon="-7.2101610">
        <ele>878.4</ele>
        <time>2014-10-02T10:19:54Z</time>
      </trkpt>
      <trkpt lat="42.5649920" lon="-7.2101610">
        <ele>878.6</ele>
        <time>2014-10-02T10:19:55Z</time>
      </trkpt>
      <trkpt lat="42.5650260" lon="-7.2101600">
        <ele>878.8</ele>
        <time>2014-10-02T10:19:56Z</time>
      </trkpt>
      <trkpt lat="42.5650630" lon="-7.2101560">
        <ele>878.9</ele>
        <time>2014-10-02T10:19:57Z</time>
      </trkpt>
      <trkpt lat="42.5650930" lon="-7.2101570">
        <ele>879.1</ele>
        <time>2014-10-02T10:19:58Z</time>
      </trkpt>
      <trkpt lat="42.5651290" lon="-7.2101570">
        <ele>879.3</ele>
        <time>2014-10-02T10:19:59Z</time>
      </trkpt>
      <trkpt lat="42.5651640" lon="-7.2101540">
        <ele>879.5</ele>
        <time>2014-10-02T10:20:00Z</time>
      </trkpt>
      <trkpt lat="42.5652060" lon="-7.2101540">
        <ele>879.7</ele>
        <time>2014-10-02T10:20:01Z</time>
      </trkpt>
      <trkpt lat="42.5652410" lon="-7.2101530">
        <ele>879.9</ele>
        <time>2014-10-02T10:20:02Z</time>
      </trkpt>
      <trkpt lat="42.5652750" lon="-7.2101540">
        <ele>880.1</ele>
        <time>2014-10-02T10:20:03Z</time>
      </trkpt>
      <trkpt lat="42.5653100" lon="-7.2101540">
        <ele>880.2</ele>
        <time>2014-10-02T10:20:04Z</time>
      </trkpt>
      <trkpt lat="42.5653500" lon="-7.2101530">
        <ele>880.4</ele>
        <time>2014-10-02T10:20:05Z</time>
      </trkpt>
      <trkpt lat="42.5653910" lon="-7.2101520">
        <ele>880.5</ele>
        <time>2014-10-02T10:20:06Z</time>
      </trkpt>
      <trkpt lat="42.5654380" lon="-7.2101540">
        <ele>880.7</ele>
        <time>2014-10-02T10:20:07Z</time>
      </trkpt>
      <trkpt lat="42.5654810" lon="-7.2101560">
        <ele>880.9</ele>
        <time>2014-10-02T10:20:08Z</time>
      </trkpt>
      <trkpt lat="42.5655250" lon="-7.2101590">
        <ele>881.0</ele>
        <time>2014-10-02T10:20:09Z</time>
      </trkpt>
      <trkpt lat="42.5655650" lon="-7.2101600">
        <ele>881.2</ele>
        <time>2014-10-02T10:20:10Z</time>
      </trkpt>
      <trkpt lat="42.5656060" lon="-7.2101630">
        <ele>881.3</ele>
        <time>2014-10-02T10:20:11Z</time>
      </trkpt>
      <trkpt lat="42.5656440" lon="-7.2101680">
        <ele>881.4</ele>
        <time>2014-10-02T10:20:12Z</time>
      </trkpt>
      <trkpt lat="42.5656820" lon="-7.2101750">
        <ele>881.6</ele>
        <time>2014-10-02T10:20:13Z</time>
      </trkpt>
      <trkpt lat="42.5657120" lon="-7.2101790">
        <ele>881.7</ele>
        <time>2014-10-02T10:20:14Z</time>
      </trkpt>
      <trkpt lat="42.5657440" lon="-7.2101840">
        <ele>881.7</ele>
        <time>2014-10-02T10:20:15Z</time>
      </trkpt>
      <trkpt lat="42.5657790" lon="-7.2101870">
        <ele>881.8</ele>
        <time>2014-10-02T10:20:16Z</time>
      </trkpt>
      <trkpt lat="42.5658170" lon="-7.2101910">
        <ele>881.9</ele>
        <time>2014-10-02T10:20:17Z</time>
      </trkpt>
      <trkpt lat="42.5658470" lon="-7.2101940">
        <ele>881.9</ele>
        <time>2014-10-02T10:20:18Z</time>
      </trkpt>
      <trkpt lat="42.5658830" lon="-7.2101970">
        <ele>882.0</ele>
        <time>2014-10-02T10:20:19Z</time>
      </trkpt>
      <trkpt lat="42.5659240" lon="-7.2101980">
        <ele>882.1</ele>
        <time>2014-10-02T10:20:20Z</time>
      </trkpt>
      <trkpt lat="42.5659650" lon="-7.2102010">
        <ele>882.2</ele>
        <time>2014-10-02T10:20:21Z</time>
      </trkpt>
      <trkpt lat="42.5660050" lon="-7.2102020">
        <ele>882.3</ele>
        <time>2014-10-02T10:20:22Z</time>
      </trkpt>
      <trkpt lat="42.5660400" lon="-7.2102020">
        <ele>882.4</ele>
        <time>2014-10-02T10:20:23Z</time>
      </trkpt>
      <trkpt lat="42.5660740" lon="-7.2102000">
        <ele>882.5</ele>
        <time>2014-10-02T10:20:24Z</time>
      </trkpt>
      <trkpt lat="42.5661090" lon="-7.2101940">
        <ele>882.5</ele>
        <time>2014-10-02T10:20:25Z</time>
      </trkpt>
      <trkpt lat="42.5661690" lon="-7.2101680">
        <ele>882.7</ele>
        <time>2014-10-02T10:20:27Z</time>
      </trkpt>
      <trkpt lat="42.5662070" lon="-7.2101480">
        <ele>882.9</ele>
        <time>2014-10-02T10:20:28Z</time>
      </trkpt>
      <trkpt lat="42.5662430" lon="-7.2101270">
        <ele>883.3</ele>
        <time>2014-10-02T10:20:29Z</time>
      </trkpt>
      <trkpt lat="42.5662790" lon="-7.2101040">
        <ele>883.6</ele>
        <time>2014-10-02T10:20:30Z</time>
      </trkpt>
      <trkpt lat="42.5663120" lon="-7.2100780">
        <ele>883.9</ele>
        <time>2014-10-02T10:20:31Z</time>
      </trkpt>
      <trkpt lat="42.5663480" lon="-7.2100460">
        <ele>884.2</ele>
        <time>2014-10-02T10:20:32Z</time>
      </trkpt>
      <trkpt lat="42.5663850" lon="-7.2100090">
        <ele>884.5</ele>
        <time>2014-10-02T10:20:33Z</time>
      </trkpt>
      <trkpt lat="42.5664140" lon="-7.2099670">
        <ele>884.7</ele>
        <time>2014-10-02T10:20:34Z</time>
      </trkpt>
      <trkpt lat="42.5664370" lon="-7.2099300">
        <ele>884.9</ele>
        <time>2014-10-02T10:20:35Z</time>
      </trkpt>
      <trkpt lat="42.5664610" lon="-7.2098890">
        <ele>885.2</ele>
        <time>2014-10-02T10:20:36Z</time>
      </trkpt>
      <trkpt lat="42.5664830" lon="-7.2098440">
        <ele>885.4</ele>
        <time>2014-10-02T10:20:37Z</time>
      </trkpt>
      <trkpt lat="42.5664890" lon="-7.2098000">
        <ele>885.5</ele>
        <time>2014-10-02T10:20:38Z</time>
      </trkpt>
      <trkpt lat="42.5664940" lon="-7.2097540">
        <ele>885.7</ele>
        <time>2014-10-02T10:20:39Z</time>
      </trkpt>
      <trkpt lat="42.5665010" lon="-7.2096990">
        <ele>885.8</ele>
        <time>2014-10-02T10:20:40Z</time>
      </trkpt>
      <trkpt lat="42.5665120" lon="-7.2096370">
        <ele>885.9</ele>
        <time>2014-10-02T10:20:41Z</time>
      </trkpt>
      <trkpt lat="42.5665220" lon="-7.2095750">
        <ele>886.0</ele>
        <time>2014-10-02T10:20:42Z</time>
      </trkpt>
      <trkpt lat="42.5665320" lon="-7.2095000">
        <ele>886.0</ele>
        <time>2014-10-02T10:20:43Z</time>
      </trkpt>
      <trkpt lat="42.5665410" lon="-7.2094220">
        <ele>886.0</ele>
        <time>2014-10-02T10:20:44Z</time>
      </trkpt>
      <trkpt lat="42.5665470" lon="-7.2093400">
        <ele>885.9</ele>
        <time>2014-10-02T10:20:45Z</time>
      </trkpt>
      <trkpt lat="42.5665560" lon="-7.2092580">
        <ele>885.7</ele>
        <time>2014-10-02T10:20:46Z</time>
      </trkpt>
      <trkpt lat="42.5665640" lon="-7.2091830">
        <ele>885.6</ele>
        <time>2014-10-02T10:20:47Z</time>
      </trkpt>
      <trkpt lat="42.5665680" lon="-7.2091110">
        <ele>885.4</ele>
        <time>2014-10-02T10:20:48Z</time>
      </trkpt>
      <trkpt lat="42.5665720" lon="-7.2090310">
        <ele>885.1</ele>
        <time>2014-10-02T10:20:49Z</time>
      </trkpt>
      <trkpt lat="42.5665750" lon="-7.2089490">
        <ele>884.9</ele>
        <time>2014-10-02T10:20:50Z</time>
      </trkpt>
      <trkpt lat="42.5665790" lon="-7.2088600">
        <ele>884.6</ele>
        <time>2014-10-02T10:20:51Z</time>
      </trkpt>
      <trkpt lat="42.5665810" lon="-7.2087630">
        <ele>884.3</ele>
        <time>2014-10-02T10:20:52Z</time>
      </trkpt>
      <trkpt lat="42.5665970" lon="-7.2086570">
        <ele>883.9</ele>
        <time>2014-10-02T10:20:53Z</time>
      </trkpt>
      <trkpt lat="42.5666170" lon="-7.2085510">
        <ele>883.4</ele>
        <time>2014-10-02T10:20:54Z</time>
      </trkpt>
      <trkpt lat="42.5666400" lon="-7.2084450">
        <ele>883.0</ele>
        <time>2014-10-02T10:20:55Z</time>
      </trkpt>
      <trkpt lat="42.5666620" lon="-7.2083450">
        <ele>882.5</ele>
        <time>2014-10-02T10:20:56Z</time>
      </trkpt>
      <trkpt lat="42.5667080" lon="-7.2082460">
        <ele>881.9</ele>
        <time>2014-10-02T10:20:57Z</time>
      </trkpt>
      <trkpt lat="42.5667330" lon="-7.2081460">
        <ele>881.4</ele>
        <time>2014-10-02T10:20:58Z</time>
      </trkpt>
      <trkpt lat="42.5667860" lon="-7.2080480">
        <ele>880.9</ele>
        <time>2014-10-02T10:20:59Z</time>
      </trkpt>
      <trkpt lat="42.5668420" lon="-7.2079520">
        <ele>880.3</ele>
        <time>2014-10-02T10:21:00Z</time>
      </trkpt>
      <trkpt lat="42.5669010" lon="-7.2078540">
        <ele>879.7</ele>
        <time>2014-10-02T10:21:01Z</time>
      </trkpt>
      <trkpt lat="42.5669640" lon="-7.2077530">
        <ele>879.0</ele>
        <time>2014-10-02T10:21:02Z</time>
      </trkpt>
      <trkpt lat="42.5670200" lon="-7.2076540">
        <ele>878.3</ele>
        <time>2014-10-02T10:21:03Z</time>
      </trkpt>
      <trkpt lat="42.5670500" lon="-7.2075450">
        <ele>877.6</ele>
        <time>2014-10-02T10:21:04Z</time>
      </trkpt>
      <trkpt lat="42.5670950" lon="-7.2074270">
        <ele>876.8</ele>
        <time>2014-10-02T10:21:05Z</time>
      </trkpt>
      <trkpt lat="42.5671580" lon="-7.2073060">
        <ele>875.9</ele>
        <time>2014-10-02T10:21:06Z</time>
      </trkpt>
      <trkpt lat="42.5672160" lon="-7.2071940">
        <ele>875.1</ele>
        <time>2014-10-02T10:21:07Z</time>
      </trkpt>
      <trkpt lat="42.5672430" lon="-7.2070470">
        <ele>874.1</ele>
        <time>2014-10-02T10:21:08Z</time>
      </trkpt>
      <trkpt lat="42.5672400" lon="-7.2068700">
        <ele>873.0</ele>
        <time>2014-10-02T10:21:09Z</time>
      </trkpt>
      <trkpt lat="42.5672360" lon="-7.2066960">
        <ele>871.8</ele>
        <time>2014-10-02T10:21:10Z</time>
      </trkpt>
      <trkpt lat="42.5671720" lon="-7.2065630">
        <ele>870.7</ele>
        <time>2014-10-02T10:21:11Z</time>
      </trkpt>
      <trkpt lat="42.5671260" lon="-7.2064040">
        <ele>869.7</ele>
        <time>2014-10-02T10:21:12Z</time>
      </trkpt>
      <trkpt lat="42.5670770" lon="-7.2062500">
        <ele>868.9</ele>
        <time>2014-10-02T10:21:13Z</time>
      </trkpt>
      <trkpt lat="42.5670250" lon="-7.2060960">
        <ele>868.1</ele>
        <time>2014-10-02T10:21:14Z</time>
      </trkpt>
      <trkpt lat="42.5669740" lon="-7.2059420">
        <ele>867.2</ele>
        <time>2014-10-02T10:21:15Z</time>
      </trkpt>
      <trkpt lat="42.5669260" lon="-7.2057710">
        <ele>866.1</ele>
        <time>2014-10-02T10:21:16Z</time>
      </trkpt>
      <trkpt lat="42.5669070" lon="-7.2056040">
        <ele>865.1</ele>
        <time>2014-10-02T10:21:17Z</time>
      </trkpt>
      <trkpt lat="42.5668970" lon="-7.2054470">
        <ele>864.1</ele>
        <time>2014-10-02T10:21:18Z</time>
      </trkpt>
      <trkpt lat="42.5668910" lon="-7.2052970">
        <ele>863.3</ele>
        <time>2014-10-02T10:21:19Z</time>
      </trkpt>
      <trkpt lat="42.5668890" lon="-7.2051440">
        <ele>862.5</ele>
        <time>2014-10-02T10:21:20Z</time>
      </trkpt>
      <trkpt lat="42.5669020" lon="-7.2049920">
        <ele>861.7</ele>
        <time>2014-10-02T10:21:21Z</time>
      </trkpt>
      <trkpt lat="42.5669110" lon="-7.2048440">
        <ele>860.9</ele>
        <time>2014-10-02T10:21:22Z</time>
      </trkpt>
      <trkpt lat="42.5669200" lon="-7.2046880">
        <ele>860.1</ele>
        <time>2014-10-02T10:21:23Z</time>
      </trkpt>
      <trkpt lat="42.5669280" lon="-7.2045300">
        <ele>859.2</ele>
        <time>2014-10-02T10:21:24Z</time>
      </trkpt>
      <trkpt lat="42.5669500" lon="-7.2043720">
        <ele>858.3</ele>
        <time>2014-10-02T10:21:25Z</time>
      </trkpt>
      <trkpt lat="42.5669710" lon="-7.2042010">
        <ele>857.5</ele>
        <time>2014-10-02T10:21:26Z</time>
      </trkpt>
      <trkpt lat="42.5669930" lon="-7.2040380">
        <ele>856.6</ele>
        <time>2014-10-02T10:21:27Z</time>
      </trkpt>
      <trkpt lat="42.5670230" lon="-7.2038810">
        <ele>855.9</ele>
        <time>2014-10-02T10:21:28Z</time>
      </trkpt>
      <trkpt lat="42.5670830" lon="-7.2037350">
        <ele>855.1</ele>
        <time>2014-10-02T10:21:29Z</time>
      </trkpt>
      <trkpt lat="42.5671460" lon="-7.2035780">
        <ele>854.2</ele>
        <time>2014-10-02T10:21:30Z</time>
      </trkpt>
      <trkpt lat="42.5672260" lon="-7.2034540">
        <ele>853.4</ele>
        <time>2014-10-02T10:21:31Z</time>
      </trkpt>
      <trkpt lat="42.5674280" lon="-7.2032680">
        <ele>851.6</ele>
        <time>2014-10-02T10:21:33Z</time>
      </trkpt>
      <trkpt lat="42.5675350" lon="-7.2032190">
        <ele>850.8</ele>
        <time>2014-10-02T10:21:34Z</time>
      </trkpt>
      <trkpt lat="42.5676460" lon="-7.2031970">
        <ele>850.0</ele>
        <time>2014-10-02T10:21:35Z</time>
      </trkpt>
      <trkpt lat="42.5677650" lon="-7.2031790">
        <ele>849.0</ele>
        <time>2014-10-02T10:21:36Z</time>
      </trkpt>
      <trkpt lat="42.5678960" lon="-7.2031670">
        <ele>847.9</ele>
        <time>2014-10-02T10:21:37Z</time>
      </trkpt>
      <trkpt lat="42.5680140" lon="-7.2031590">
        <ele>846.8</ele>
        <time>2014-10-02T10:21:38Z</time>
      </trkpt>
      <trkpt lat="42.5681370" lon="-7.2031550">
        <ele>845.8</ele>
        <time>2014-10-02T10:21:39Z</time>
      </trkpt>
      <trkpt lat="42.5682650" lon="-7.2031470">
        <ele>844.7</ele>
        <time>2014-10-02T10:21:40Z</time>
      </trkpt>
      <trkpt lat="42.5683310" lon="-7.2031430">
        <ele>844.2</ele>
        <time>2014-10-02T10:21:41Z</time>
      </trkpt>
      <trkpt lat="42.5684500" lon="-7.2031320">
        <ele>843.2</ele>
        <time>2014-10-02T10:21:42Z</time>
      </trkpt>
      <trkpt lat="42.5685640" lon="-7.2031270">
        <ele>842.4</ele>
        <time>2014-10-02T10:21:43Z</time>
      </trkpt>
      <trkpt lat="42.5686880" lon="-7.2031220">
        <ele>841.5</ele>
        <time>2014-10-02T10:21:44Z</time>
      </trkpt>
      <trkpt lat="42.5688320" lon="-7.2031210">
        <ele>840.3</ele>
        <time>2014-10-02T10:21:45Z</time>
      </trkpt>
      <trkpt lat="42.5689710" lon="-7.2031170">
        <ele>839.0</ele>
        <time>2014-10-02T10:21:46Z</time>
      </trkpt>
      <trkpt lat="42.5691020" lon="-7.2031160">
        <ele>837.8</ele>
        <time>2014-10-02T10:21:47Z</time>
      </trkpt>
      <trkpt lat="42.5692070" lon="-7.2031160">
        <ele>836.8</ele>
        <time>2014-10-02T10:21:48Z</time>
      </trkpt>
      <trkpt lat="42.5693230" lon="-7.2031190">
        <ele>835.8</ele>
        <time>2014-10-02T10:21:49Z</time>
      </trkpt>
      <trkpt lat="42.5694450" lon="-7.2031360">
        <ele>834.7</ele>
        <time>2014-10-02T10:21:50Z</time>
      </trkpt>
      <trkpt lat="42.5695680" lon="-7.2031560">
        <ele>833.3</ele>
        <time>2014-10-02T10:21:51Z</time>
      </trkpt>
      <trkpt lat="42.5696920" lon="-7.2031770">
        <ele>831.3</ele>
        <time>2014-10-02T10:21:52Z</time>
      </trkpt>
      <trkpt lat="42.5698180" lon="-7.2032050">
        <ele>828.4</ele>
        <time>2014-10-02T10:21:53Z</time>
      </trkpt>
      <trkpt lat="42.5699530" lon="-7.2032380">
        <ele>825.9</ele>
        <time>2014-10-02T10:21:54Z</time>
      </trkpt>
      <trkpt lat="42.5700870" lon="-7.2032700">
        <ele>825.1</ele>
        <time>2014-10-02T10:21:55Z</time>
      </trkpt>
      <trkpt lat="42.5702200" lon="-7.2032980">
        <ele>824.3</ele>
        <time>2014-10-02T10:21:56Z</time>
      </trkpt>
      <trkpt lat="42.5703300" lon="-7.2033240">
        <ele>823.7</ele>
        <time>2014-10-02T10:21:57Z</time>
      </trkpt>
      <trkpt lat="42.5704820" lon="-7.2033490">
        <ele>822.8</ele>
        <time>2014-10-02T10:21:58Z</time>
      </trkpt>
      <trkpt lat="42.5706280" lon="-7.2033720">
        <ele>822.0</ele>
        <time>2014-10-02T10:21:59Z</time>
      </trkpt>
      <trkpt lat="42.5707760" lon="-7.2033990">
        <ele>821.2</ele>
        <time>2014-10-02T10:22:00Z</time>
      </trkpt>
      <trkpt lat="42.5709460" lon="-7.2034240">
        <ele>820.6</ele>
        <time>2014-10-02T10:22:01Z</time>
      </trkpt>
      <trkpt lat="42.5711180" lon="-7.2034350">
        <ele>820.2</ele>
        <time>2014-10-02T10:22:02Z</time>
      </trkpt>
      <trkpt lat="42.5712340" lon="-7.2034180">
        <ele>820.2</ele>
        <time>2014-10-02T10:22:03Z</time>
      </trkpt>
      <trkpt lat="42.5713640" lon="-7.2033580">
        <ele>820.3</ele>
        <time>2014-10-02T10:22:04Z</time>
      </trkpt>
      <trkpt lat="42.5715040" lon="-7.2032810">
        <ele>820.4</ele>
        <time>2014-10-02T10:22:05Z</time>
      </trkpt>
      <trkpt lat="42.5716460" lon="-7.2031760">
        <ele>820.2</ele>
        <time>2014-10-02T10:22:06Z</time>
      </trkpt>
      <trkpt lat="42.5717820" lon="-7.2030590">
        <ele>820.0</ele>
        <time>2014-10-02T10:22:07Z</time>
      </trkpt>
      <trkpt lat="42.5719040" lon="-7.2029110">
        <ele>819.7</ele>
        <time>2014-10-02T10:22:08Z</time>
      </trkpt>
      <trkpt lat="42.5720230" lon="-7.2027480">
        <ele>819.6</ele>
        <time>2014-10-02T10:22:09Z</time>
      </trkpt>
      <trkpt lat="42.5721200" lon="-7.2025740">
        <ele>819.1</ele>
        <time>2014-10-02T10:22:10Z</time>
      </trkpt>
      <trkpt lat="42.5722070" lon="-7.2023830">
        <ele>817.7</ele>
        <time>2014-10-02T10:22:11Z</time>
      </trkpt>
      <trkpt lat="42.5721760" lon="-7.2021690">
        <ele>816.3</ele>
        <time>2014-10-02T10:22:12Z</time>
      </trkpt>
      <trkpt lat="42.5721360" lon="-7.2019550">
        <ele>815.2</ele>
        <time>2014-10-02T10:22:13Z</time>
      </trkpt>
      <trkpt lat="42.5720600" lon="-7.2017660">
        <ele>814.2</ele>
        <time>2014-10-02T10:22:14Z</time>
      </trkpt>
      <trkpt lat="42.5719820" lon="-7.2015810">
        <ele>813.2</ele>
        <time>2014-10-02T10:22:15Z</time>
      </trkpt>
      <trkpt lat="42.5719000" lon="-7.2013910">
        <ele>812.2</ele>
        <time>2014-10-02T10:22:16Z</time>
      </trkpt>
      <trkpt lat="42.5718020" lon="-7.2012430">
        <ele>811.4</ele>
        <time>2014-10-02T10:22:17Z</time>
      </trkpt>
      <trkpt lat="42.5717080" lon="-7.2011020">
        <ele>810.5</ele>
        <time>2014-10-02T10:22:18Z</time>
      </trkpt>
      <trkpt lat="42.5715910" lon="-7.2009470">
        <ele>809.3</ele>
        <time>2014-10-02T10:22:19Z</time>
      </trkpt>
      <trkpt lat="42.5714790" lon="-7.2008250">
        <ele>808.3</ele>
        <time>2014-10-02T10:22:20Z</time>
      </trkpt>
      <trkpt lat="42.5713800" lon="-7.2006860">
        <ele>807.3</ele>
        <time>2014-10-02T10:22:21Z</time>
      </trkpt>
      <trkpt lat="42.5712870" lon="-7.2005310">
        <ele>806.3</ele>
        <time>2014-10-02T10:22:22Z</time>
      </trkpt>
      <trkpt lat="42.5711880" lon="-7.2003620">
        <ele>805.5</ele>
        <time>2014-10-02T10:22:23Z</time>
      </trkpt>
      <trkpt lat="42.5711210" lon="-7.2001770">
        <ele>804.5</ele>
        <time>2014-10-02T10:22:24Z</time>
      </trkpt>
      <trkpt lat="42.5710520" lon="-7.1999870">
        <ele>803.5</ele>
        <time>2014-10-02T10:22:25Z</time>
      </trkpt>
      <trkpt lat="42.5710220" lon="-7.1998120">
        <ele>802.7</ele>
        <time>2014-10-02T10:22:26Z</time>
      </trkpt>
      <trkpt lat="42.5709930" lon="-7.1996370">
        <ele>802.1</ele>
        <time>2014-10-02T10:22:27Z</time>
      </trkpt>
      <trkpt lat="42.5709740" lon="-7.1994560">
        <ele>801.4</ele>
        <time>2014-10-02T10:22:28Z</time>
      </trkpt>
      <trkpt lat="42.5709630" lon="-7.1992700">
        <ele>800.9</ele>
        <time>2014-10-02T10:22:29Z</time>
      </trkpt>
      <trkpt lat="42.5709590" lon="-7.1990900">
        <ele>800.4</ele>
        <time>2014-10-02T10:22:30Z</time>
      </trkpt>
      <trkpt lat="42.5709560" lon="-7.1989130">
        <ele>799.9</ele>
        <time>2014-10-02T10:22:31Z</time>
      </trkpt>
      <trkpt lat="42.5709600" lon="-7.1987230">
        <ele>799.1</ele>
        <time>2014-10-02T10:22:32Z</time>
      </trkpt>
      <trkpt lat="42.5709500" lon="-7.1985370">
        <ele>797.9</ele>
        <time>2014-10-02T10:22:33Z</time>
      </trkpt>
      <trkpt lat="42.5709390" lon="-7.1983430">
        <ele>795.3</ele>
        <time>2014-10-02T10:22:34Z</time>
      </trkpt>
      <trkpt lat="42.5708980" lon="-7.1981410">
        <ele>794.9</ele>
        <time>2014-10-02T10:22:35Z</time>
      </trkpt>
      <trkpt lat="42.5708420" lon="-7.1979440">
        <ele>794.4</ele>
        <time>2014-10-02T10:22:36Z</time>
      </trkpt>
      <trkpt lat="42.5707720" lon="-7.1977910">
        <ele>794.3</ele>
        <time>2014-10-02T10:22:37Z</time>
      </trkpt>
      <trkpt lat="42.5707100" lon="-7.1976380">
        <ele>794.5</ele>
        <time>2014-10-02T10:22:38Z</time>
      </trkpt>
      <trkpt lat="42.5706440" lon="-7.1974740">
        <ele>794.6</ele>
        <time>2014-10-02T10:22:39Z</time>
      </trkpt>
      <trkpt lat="42.5705830" lon="-7.1973000">
        <ele>794.4</ele>
        <time>2014-10-02T10:22:40Z</time>
      </trkpt>
      <trkpt lat="42.5705500" lon="-7.1971130">
        <ele>790.9</ele>
        <time>2014-10-02T10:22:41Z</time>
      </trkpt>
      <trkpt lat="42.5705700" lon="-7.1969330">
        <ele>787.5</ele>
        <time>2014-10-02T10:22:42Z</time>
      </trkpt>
      <trkpt lat="42.5705990" lon="-7.1967610">
        <ele>784.4</ele>
        <time>2014-10-02T10:22:43Z</time>
      </trkpt>
      <trkpt lat="42.5706690" lon="-7.1966110">
        <ele>781.4</ele>
        <time>2014-10-02T10:22:44Z</time>
      </trkpt>
      <trkpt lat="42.5707470" lon="-7.1964650">
        <ele>778.4</ele>
        <time>2014-10-02T10:22:45Z</time>
      </trkpt>
      <trkpt lat="42.5708320" lon="-7.1963210">
        <ele>775.7</ele>
        <time>2014-10-02T10:22:46Z</time>
      </trkpt>
      <trkpt lat="42.5709200" lon="-7.1961780">
        <ele>774.2</ele>
        <time>2014-10-02T10:22:47Z</time>
      </trkpt>
      <trkpt lat="42.5710070" lon="-7.1960380">
        <ele>773.0</ele>
        <time>2014-10-02T10:22:48Z</time>
      </trkpt>
      <trkpt lat="42.5710940" lon="-7.1958990">
        <ele>772.0</ele>
        <time>2014-10-02T10:22:49Z</time>
      </trkpt>
      <trkpt lat="42.5711720" lon="-7.1957680">
        <ele>771.3</ele>
        <time>2014-10-02T10:22:50Z</time>
      </trkpt>
      <trkpt lat="42.5712560" lon="-7.1956280">
        <ele>770.6</ele>
        <time>2014-10-02T10:22:51Z</time>
      </trkpt>
      <trkpt lat="42.5713460" lon="-7.1954890">
        <ele>770.0</ele>
        <time>2014-10-02T10:22:52Z</time>
      </trkpt>
      <trkpt lat="42.5714370" lon="-7.1953500">
        <ele>769.4</ele>
        <time>2014-10-02T10:22:53Z</time>
      </trkpt>
      <trkpt lat="42.5715260" lon="-7.1952140">
        <ele>770.0</ele>
        <time>2014-10-02T10:22:54Z</time>
      </trkpt>
      <trkpt lat="42.5716130" lon="-7.1950720">
        <ele>771.8</ele>
        <time>2014-10-02T10:22:55Z</time>
      </trkpt>
      <trkpt lat="42.5716690" lon="-7.1949140">
        <ele>772.8</ele>
        <time>2014-10-02T10:22:56Z</time>
      </trkpt>
      <trkpt lat="42.5717380" lon="-7.1947380">
        <ele>773.7</ele>
        <time>2014-10-02T10:22:57Z</time>
      </trkpt>
      <trkpt lat="42.5718170" lon="-7.1945640">
        <ele>774.8</ele>
        <time>2014-10-02T10:22:58Z</time>
      </trkpt>
      <trkpt lat="42.5718920" lon="-7.1943900">
        <ele>775.9</ele>
        <time>2014-10-02T10:22:59Z</time>
      </trkpt>
      <trkpt lat="42.5719400" lon="-7.1942060">
        <ele>777.1</ele>
        <time>2014-10-02T10:23:00Z</time>
      </trkpt>
      <trkpt lat="42.5719520" lon="-7.1940040">
        <ele>778.4</ele>
        <time>2014-10-02T10:23:01Z</time>
      </trkpt>
      <trkpt lat="42.5719320" lon="-7.1938060">
        <ele>779.3</ele>
        <time>2014-10-02T10:23:02Z</time>
      </trkpt>
      <trkpt lat="42.5719170" lon="-7.1936150">
        <ele>777.6</ele>
        <time>2014-10-02T10:23:03Z</time>
      </trkpt>
      <trkpt lat="42.5719210" lon="-7.1934270">
        <ele>776.0</ele>
        <time>2014-10-02T10:23:04Z</time>
      </trkpt>
      <trkpt lat="42.5719530" lon="-7.1932520">
        <ele>774.6</ele>
        <time>2014-10-02T10:23:05Z</time>
      </trkpt>
      <trkpt lat="42.5720060" lon="-7.1930970">
        <ele>773.2</ele>
        <time>2014-10-02T10:23:06Z</time>
      </trkpt>
      <trkpt lat="42.5720850" lon="-7.1929690">
        <ele>771.7</ele>
        <time>2014-10-02T10:23:07Z</time>
      </trkpt>
      <trkpt lat="42.5722090" lon="-7.1928840">
        <ele>770.0</ele>
        <time>2014-10-02T10:23:08Z</time>
      </trkpt>
      <trkpt lat="42.5723210" lon="-7.1928490">
        <ele>768.6</ele>
        <time>2014-10-02T10:23:09Z</time>
      </trkpt>
      <trkpt lat="42.5724070" lon="-7.1928370">
        <ele>767.6</ele>
        <time>2014-10-02T10:23:10Z</time>
      </trkpt>
      <trkpt lat="42.5724980" lon="-7.1928680">
        <ele>766.5</ele>
        <time>2014-10-02T10:23:11Z</time>
      </trkpt>
      <trkpt lat="42.5726240" lon="-7.1929830">
        <ele>763.8</ele>
        <time>2014-10-02T10:23:12Z</time>
      </trkpt>
      <trkpt lat="42.5727510" lon="-7.1931100">
        <ele>762.2</ele>
        <time>2014-10-02T10:23:13Z</time>
      </trkpt>
      <trkpt lat="42.5728750" lon="-7.1932350">
        <ele>760.7</ele>
        <time>2014-10-02T10:23:14Z</time>
      </trkpt>
      <trkpt lat="42.5729890" lon="-7.1933540">
        <ele>759.3</ele>
        <time>2014-10-02T10:23:15Z</time>
      </trkpt>
      <trkpt lat="42.5731080" lon="-7.1934790">
        <ele>758.1</ele>
        <time>2014-10-02T10:23:16Z</time>
      </trkpt>
      <trkpt lat="42.5732320" lon="-7.1936010">
        <ele>756.8</ele>
        <time>2014-10-02T10:23:17Z</time>
      </trkpt>
      <trkpt lat="42.5733520" lon="-7.1937220">
        <ele>755.7</ele>
        <time>2014-10-02T10:23:18Z</time>
      </trkpt>
      <trkpt lat="42.5734750" lon="-7.1938440">
        <ele>754.6</ele>
        <time>2014-10-02T10:23:19Z</time>
      </trkpt>
      <trkpt lat="42.5736010" lon="-7.1939690">
        <ele>753.3</ele>
        <time>2014-10-02T10:23:20Z</time>
      </trkpt>
      <trkpt lat="42.5737240" lon="-7.1940970">
        <ele>752.0</ele>
        <time>2014-10-02T10:23:21Z</time>
      </trkpt>
      <trkpt lat="42.5738520" lon="-7.1942370">
        <ele>750.6</ele>
        <time>2014-10-02T10:23:22Z</time>
      </trkpt>
      <trkpt lat="42.5739730" lon="-7.1943840">
        <ele>749.3</ele>
        <time>2014-10-02T10:23:23Z</time>
      </trkpt>
      <trkpt lat="42.5740860" lon="-7.1945350">
        <ele>748.0</ele>
        <time>2014-10-02T10:23:24Z</time>
      </trkpt>
      <trkpt lat="42.5741860" lon="-7.1946900">
        <ele>746.7</ele>
        <time>2014-10-02T10:23:25Z</time>
      </trkpt>
      <trkpt lat="42.5742700" lon="-7.1948410">
        <ele>745.4</ele>
        <time>2014-10-02T10:23:26Z</time>
      </trkpt>
      <trkpt lat="42.5743280" lon="-7.1949970">
        <ele>744.4</ele>
        <time>2014-10-02T10:23:27Z</time>
      </trkpt>
      <trkpt lat="42.5743770" lon="-7.1951580">
        <ele>743.4</ele>
        <time>2014-10-02T10:23:28Z</time>
      </trkpt>
      <trkpt lat="42.5744460" lon="-7.1953330">
        <ele>742.3</ele>
        <time>2014-10-02T10:23:29Z</time>
      </trkpt>
      <trkpt lat="42.5745370" lon="-7.1955010">
        <ele>741.3</ele>
        <time>2014-10-02T10:23:30Z</time>
      </trkpt>
      <trkpt lat="42.5746350" lon="-7.1956370">
        <ele>740.5</ele>
        <time>2014-10-02T10:23:31Z</time>
      </trkpt>
      <trkpt lat="42.5747230" lon="-7.1957740">
        <ele>739.6</ele>
        <time>2014-10-02T10:23:32Z</time>
      </trkpt>
      <trkpt lat="42.5748150" lon="-7.1959080">
        <ele>738.2</ele>
        <time>2014-10-02T10:23:33Z</time>
      </trkpt>
      <trkpt lat="42.5749100" lon="-7.1960400">
        <ele>736.8</ele>
        <time>2014-10-02T10:23:34Z</time>
      </trkpt>
      <trkpt lat="42.5750020" lon="-7.1961660">
        <ele>735.7</ele>
        <time>2014-10-02T10:23:35Z</time>
      </trkpt>
      <trkpt lat="42.5751030" lon="-7.1962920">
        <ele>734.8</ele>
        <time>2014-10-02T10:23:36Z</time>
      </trkpt>
      <trkpt lat="42.5752070" lon="-7.1964190">
        <ele>734.0</ele>
        <time>2014-10-02T10:23:37Z</time>
      </trkpt>
      <trkpt lat="42.5753120" lon="-7.1965490">
        <ele>733.5</ele>
        <time>2014-10-02T10:23:38Z</time>
      </trkpt>
      <trkpt lat="42.5754170" lon="-7.1966790">
        <ele>732.7</ele>
        <time>2014-10-02T10:23:39Z</time>
      </trkpt>
      <trkpt lat="42.5755220" lon="-7.1968100">
        <ele>731.4</ele>
        <time>2014-10-02T10:23:40Z</time>
      </trkpt>
      <trkpt lat="42.5756260" lon="-7.1969420">
        <ele>730.0</ele>
        <time>2014-10-02T10:23:41Z</time>
      </trkpt>
      <trkpt lat="42.5757280" lon="-7.1970650">
        <ele>729.0</ele>
        <time>2014-10-02T10:23:42Z</time>
      </trkpt>
      <trkpt lat="42.5758290" lon="-7.1971900">
        <ele>728.2</ele>
        <time>2014-10-02T10:23:43Z</time>
      </trkpt>
      <trkpt lat="42.5759330" lon="-7.1973090">
        <ele>727.4</ele>
        <time>2014-10-02T10:23:44Z</time>
      </trkpt>
      <trkpt lat="42.5760400" lon="-7.1974330">
        <ele>726.5</ele>
        <time>2014-10-02T10:23:45Z</time>
      </trkpt>
      <trkpt lat="42.5761380" lon="-7.1975360">
        <ele>725.8</ele>
        <time>2014-10-02T10:23:46Z</time>
      </trkpt>
      <trkpt lat="42.5762360" lon="-7.1976260">
        <ele>725.1</ele>
        <time>2014-10-02T10:23:47Z</time>
      </trkpt>
      <trkpt lat="42.5763380" lon="-7.1977030">
        <ele>724.4</ele>
        <time>2014-10-02T10:23:48Z</time>
      </trkpt>
      <trkpt lat="42.5764480" lon="-7.1977580">
        <ele>723.5</ele>
        <time>2014-10-02T10:23:49Z</time>
      </trkpt>
      <trkpt lat="42.5765880" lon="-7.1977430">
        <ele>722.5</ele>
        <time>2014-10-02T10:23:50Z</time>
      </trkpt>
      <trkpt lat="42.5767250" lon="-7.1977190">
        <ele>721.5</ele>
        <time>2014-10-02T10:23:51Z</time>
      </trkpt>
      <trkpt lat="42.5768630" lon="-7.1976670">
        <ele>720.5</ele>
        <time>2014-10-02T10:23:52Z</time>
      </trkpt>
      <trkpt lat="42.5769910" lon="-7.1976180">
        <ele>719.7</ele>
        <time>2014-10-02T10:23:53Z</time>
      </trkpt>
      <trkpt lat="42.5771220" lon="-7.1975690">
        <ele>718.8</ele>
        <time>2014-10-02T10:23:54Z</time>
      </trkpt>
      <trkpt lat="42.5772570" lon="-7.1975380">
        <ele>717.9</ele>
        <time>2014-10-02T10:23:55Z</time>
      </trkpt>
      <trkpt lat="42.5773970" lon="-7.1975100">
        <ele>716.9</ele>
        <time>2014-10-02T10:23:56Z</time>
      </trkpt>
      <trkpt lat="42.5775350" lon="-7.1974820">
        <ele>715.9</ele>
        <time>2014-10-02T10:23:57Z</time>
      </trkpt>
      <trkpt lat="42.5776690" lon="-7.1974460">
        <ele>714.9</ele>
        <time>2014-10-02T10:23:58Z</time>
      </trkpt>
      <trkpt lat="42.5778070" lon="-7.1973850">
        <ele>713.8</ele>
        <time>2014-10-02T10:23:59Z</time>
      </trkpt>
      <trkpt lat="42.5779430" lon="-7.1973080">
        <ele>712.7</ele>
        <time>2014-10-02T10:24:00Z</time>
      </trkpt>
      <trkpt lat="42.5780730" lon="-7.1972210">
        <ele>711.6</ele>
        <time>2014-10-02T10:24:01Z</time>
      </trkpt>
      <trkpt lat="42.5782010" lon="-7.1971180">
        <ele>710.5</ele>
        <time>2014-10-02T10:24:02Z</time>
      </trkpt>
      <trkpt lat="42.5783370" lon="-7.1970170">
        <ele>709.2</ele>
        <time>2014-10-02T10:24:03Z</time>
      </trkpt>
      <trkpt lat="42.5784720" lon="-7.1969160">
        <ele>707.8</ele>
        <time>2014-10-02T10:24:04Z</time>
      </trkpt>
      <trkpt lat="42.5786000" lon="-7.1968190">
        <ele>706.3</ele>
        <time>2014-10-02T10:24:05Z</time>
      </trkpt>
      <trkpt lat="42.5787310" lon="-7.1967140">
        <ele>703.0</ele>
        <time>2014-10-02T10:24:06Z</time>
      </trkpt>
      <trkpt lat="42.5788430" lon="-7.1966210">
        <ele>703.0</ele>
        <time>2014-10-02T10:24:07Z</time>
      </trkpt>
      <trkpt lat="42.5789380" lon="-7.1965400">
        <ele>705.2</ele>
        <time>2014-10-02T10:24:08Z</time>
      </trkpt>
      <trkpt lat="42.5790290" lon="-7.1964590">
        <ele>707.1</ele>
        <time>2014-10-02T10:24:09Z</time>
      </trkpt>
      <trkpt lat="42.5791230" lon="-7.1964200">
        <ele>708.8</ele>
        <time>2014-10-02T10:24:10Z</time>
      </trkpt>
      <trkpt lat="42.5792170" lon="-7.1964190">
        <ele>710.5</ele>
        <time>2014-10-02T10:24:11Z</time>
      </trkpt>
      <trkpt lat="42.5793050" lon="-7.1964530">
        <ele>712.2</ele>
        <time>2014-10-02T10:24:12Z</time>
      </trkpt>
      <trkpt lat="42.5793880" lon="-7.1964960">
        <ele>713.9</ele>
        <time>2014-10-02T10:24:13Z</time>
      </trkpt>
      <trkpt lat="42.5794540" lon="-7.1965740">
        <ele>715.6</ele>
        <time>2014-10-02T10:24:14Z</time>
      </trkpt>
      <trkpt lat="42.5795150" lon="-7.1966540">
        <ele>717.1</ele>
        <time>2014-10-02T10:24:15Z</time>
      </trkpt>
      <trkpt lat="42.5795570" lon="-7.1967550">
        <ele>718.6</ele>
        <time>2014-10-02T10:24:16Z</time>
      </trkpt>
      <trkpt lat="42.5795980" lon="-7.1968610">
        <ele>719.8</ele>
        <time>2014-10-02T10:24:17Z</time>
      </trkpt>
      <trkpt lat="42.5796360" lon="-7.1969570">
        <ele>720.0</ele>
        <time>2014-10-02T10:24:18Z</time>
      </trkpt>
      <trkpt lat="42.5796730" lon="-7.1970490">
        <ele>720.3</ele>
        <time>2014-10-02T10:24:19Z</time>
      </trkpt>
      <trkpt lat="42.5796910" lon="-7.1971450">
        <ele>720.4</ele>
        <time>2014-10-02T10:24:20Z</time>
      </trkpt>
      <trkpt lat="42.5797060" lon="-7.1972310">
        <ele>720.5</ele>
        <time>2014-10-02T10:24:21Z</time>
      </trkpt>
      <trkpt lat="42.5797230" lon="-7.1973150">
        <ele>720.6</ele>
        <time>2014-10-02T10:24:22Z</time>
      </trkpt>
      <trkpt lat="42.5797350" lon="-7.1973900">
        <ele>720.8</ele>
        <time>2014-10-02T10:24:23Z</time>
      </trkpt>
      <trkpt lat="42.5797470" lon="-7.1974560">
        <ele>721.0</ele>
        <time>2014-10-02T10:24:24Z</time>
      </trkpt>
      <trkpt lat="42.5797620" lon="-7.1975240">
        <ele>721.3</ele>
        <time>2014-10-02T10:24:25Z</time>
      </trkpt>
      <trkpt lat="42.5797780" lon="-7.1976010">
        <ele>721.6</ele>
        <time>2014-10-02T10:24:26Z</time>
      </trkpt>
      <trkpt lat="42.5797910" lon="-7.1976750">
        <ele>721.9</ele>
        <time>2014-10-02T10:24:27Z</time>
      </trkpt>
      <trkpt lat="42.5798040" lon="-7.1977550">
        <ele>722.2</ele>
        <time>2014-10-02T10:24:28Z</time>
      </trkpt>
      <trkpt lat="42.5798150" lon="-7.1978330">
        <ele>722.4</ele>
        <time>2014-10-02T10:24:29Z</time>
      </trkpt>
      <trkpt lat="42.5798260" lon="-7.1979080">
        <ele>722.6</ele>
        <time>2014-10-02T10:24:30Z</time>
      </trkpt>
      <trkpt lat="42.5798360" lon="-7.1979750">
        <ele>722.8</ele>
        <time>2014-10-02T10:24:31Z</time>
      </trkpt>
      <trkpt lat="42.5798490" lon="-7.1980440">
        <ele>722.9</ele>
        <time>2014-10-02T10:24:32Z</time>
      </trkpt>
      <trkpt lat="42.5798640" lon="-7.1981140">
        <ele>723.0</ele>
        <time>2014-10-02T10:24:33Z</time>
      </trkpt>
      <trkpt lat="42.5798770" lon="-7.1981850">
        <ele>723.1</ele>
        <time>2014-10-02T10:24:34Z</time>
      </trkpt>
      <trkpt lat="42.5798910" lon="-7.1982590">
        <ele>723.2</ele>
        <time>2014-10-02T10:24:35Z</time>
      </trkpt>
      <trkpt lat="42.5799060" lon="-7.1983360">
        <ele>723.2</ele>
        <time>2014-10-02T10:24:36Z</time>
      </trkpt>
      <trkpt lat="42.5799150" lon="-7.1984120">
        <ele>723.2</ele>
        <time>2014-10-02T10:24:37Z</time>
      </trkpt>
      <trkpt lat="42.5799270" lon="-7.1984900">
        <ele>723.1</ele>
        <time>2014-10-02T10:24:38Z</time>
      </trkpt>
      <trkpt lat="42.5799410" lon="-7.1985710">
        <ele>723.1</ele>
        <time>2014-10-02T10:24:39Z</time>
      </trkpt>
      <trkpt lat="42.5799580" lon="-7.1986560">
        <ele>723.0</ele>
        <time>2014-10-02T10:24:40Z</time>
      </trkpt>
      <trkpt lat="42.5799770" lon="-7.1987390">
        <ele>722.9</ele>
        <time>2014-10-02T10:24:41Z</time>
      </trkpt>
      <trkpt lat="42.5799950" lon="-7.1988220">
        <ele>722.7</ele>
        <time>2014-10-02T10:24:42Z</time>
      </trkpt>
      <trkpt lat="42.5800080" lon="-7.1989080">
        <ele>722.6</ele>
        <time>2014-10-02T10:24:43Z</time>
      </trkpt>
      <trkpt lat="42.5800180" lon="-7.1989880">
        <ele>722.4</ele>
        <time>2014-10-02T10:24:44Z</time>
      </trkpt>
      <trkpt lat="42.5800250" lon="-7.1990700">
        <ele>722.3</ele>
        <time>2014-10-02T10:24:45Z</time>
      </trkpt>
      <trkpt lat="42.5800180" lon="-7.1991580">
        <ele>722.1</ele>
        <time>2014-10-02T10:24:46Z</time>
      </trkpt>
      <trkpt lat="42.5800120" lon="-7.1992450">
        <ele>721.9</ele>
        <time>2014-10-02T10:24:47Z</time>
      </trkpt>
      <trkpt lat="42.5799920" lon="-7.1993350">
        <ele>721.8</ele>
        <time>2014-10-02T10:24:48Z</time>
      </trkpt>
      <trkpt lat="42.5799700" lon="-7.1994220">
        <ele>721.6</ele>
        <time>2014-10-02T10:24:49Z</time>
      </trkpt>
      <trkpt lat="42.5799480" lon="-7.1995060">
        <ele>721.4</ele>
        <time>2014-10-02T10:24:50Z</time>
      </trkpt>
      <trkpt lat="42.5799200" lon="-7.1995870">
        <ele>721.3</ele>
        <time>2014-10-02T10:24:51Z</time>
      </trkpt>
      <trkpt lat="42.5798930" lon="-7.1996680">
        <ele>721.1</ele>
        <time>2014-10-02T10:24:52Z</time>
      </trkpt>
      <trkpt lat="42.5798480" lon="-7.1997390">
        <ele>721.0</ele>
        <time>2014-10-02T10:24:53Z</time>
      </trkpt>
      <trkpt lat="42.5798030" lon="-7.1998120">
        <ele>721.0</ele>
        <time>2014-10-02T10:24:54Z</time>
      </trkpt>
      <trkpt lat="42.5797600" lon="-7.1998870">
        <ele>720.9</ele>
        <time>2014-10-02T10:24:55Z</time>
      </trkpt>
      <trkpt lat="42.5797310" lon="-7.1999480">
        <ele>720.9</ele>
        <time>2014-10-02T10:24:56Z</time>
      </trkpt>
      <trkpt lat="42.5797000" lon="-7.2000100">
        <ele>720.9</ele>
        <time>2014-10-02T10:24:57Z</time>
      </trkpt>
      <trkpt lat="42.5796670" lon="-7.2000730">
        <ele>721.0</ele>
        <time>2014-10-02T10:24:58Z</time>
      </trkpt>
      <trkpt lat="42.5796360" lon="-7.2001310">
        <ele>721.0</ele>
        <time>2014-10-02T10:24:59Z</time>
      </trkpt>
      <trkpt lat="42.5796020" lon="-7.2001960">
        <ele>721.1</ele>
        <time>2014-10-02T10:25:00Z</time>
      </trkpt>
      <trkpt lat="42.5795710" lon="-7.2002580">
        <ele>721.1</ele>
        <time>2014-10-02T10:25:01Z</time>
      </trkpt>
      <trkpt lat="42.5795380" lon="-7.2003260">
        <ele>721.2</ele>
        <time>2014-10-02T10:25:02Z</time>
      </trkpt>
      <trkpt lat="42.5794980" lon="-7.2003900">
        <ele>721.3</ele>
        <time>2014-10-02T10:25:03Z</time>
      </trkpt>
      <trkpt lat="42.5794610" lon="-7.2004510">
        <ele>721.4</ele>
        <time>2014-10-02T10:25:04Z</time>
      </trkpt>
      <trkpt lat="42.5794220" lon="-7.2005140">
        <ele>721.5</ele>
        <time>2014-10-02T10:25:05Z</time>
      </trkpt>
      <trkpt lat="42.5793930" lon="-7.2005740">
        <ele>721.6</ele>
        <time>2014-10-02T10:25:06Z</time>
      </trkpt>
      <trkpt lat="42.5793650" lon="-7.2006390">
        <ele>721.8</ele>
        <time>2014-10-02T10:25:07Z</time>
      </trkpt>
      <trkpt lat="42.5793500" lon="-7.2007050">
        <ele>721.9</ele>
        <time>2014-10-02T10:25:08Z</time>
      </trkpt>
      <trkpt lat="42.5793340" lon="-7.2007670">
        <ele>722.1</ele>
        <time>2014-10-02T10:25:09Z</time>
      </trkpt>
      <trkpt lat="42.5793180" lon="-7.2008270">
        <ele>722.3</ele>
        <time>2014-10-02T10:25:10Z</time>
      </trkpt>
      <trkpt lat="42.5793130" lon="-7.2008820">
        <ele>722.5</ele>
        <time>2014-10-02T10:25:11Z</time>
      </trkpt>
      <trkpt lat="42.5793080" lon="-7.2009370">
        <ele>722.7</ele>
        <time>2014-10-02T10:25:12Z</time>
      </trkpt>
      <trkpt lat="42.5793070" lon="-7.2010000">
        <ele>723.0</ele>
        <time>2014-10-02T10:25:13Z</time>
      </trkpt>
      <trkpt lat="42.5793040" lon="-7.2010690">
        <ele>723.2</ele>
        <time>2014-10-02T10:25:14Z</time>
      </trkpt>
      <trkpt lat="42.5793020" lon="-7.2011220">
        <ele>723.5</ele>
        <time>2014-10-02T10:25:15Z</time>
      </trkpt>
      <trkpt lat="42.5793120" lon="-7.2011750">
        <ele>723.7</ele>
        <time>2014-10-02T10:25:16Z</time>
      </trkpt>
      <trkpt lat="42.5793190" lon="-7.2012280">
        <ele>723.9</ele>
        <time>2014-10-02T10:25:17Z</time>
      </trkpt>
      <trkpt lat="42.5793270" lon="-7.2012830">
        <ele>724.1</ele>
        <time>2014-10-02T10:25:18Z</time>
      </trkpt>
      <trkpt lat="42.5793380" lon="-7.2013410">
        <ele>724.4</ele>
        <time>2014-10-02T10:25:19Z</time>
      </trkpt>
      <trkpt lat="42.5793490" lon="-7.2013900">
        <ele>724.6</ele>
        <time>2014-10-02T10:25:20Z</time>
      </trkpt>
      <trkpt lat="42.5793470" lon="-7.2014420">
        <ele>724.8</ele>
        <time>2014-10-02T10:25:21Z</time>
      </trkpt>
      <trkpt lat="42.5793490" lon="-7.2014940">
        <ele>725.1</ele>
        <time>2014-10-02T10:25:22Z</time>
      </trkpt>
      <trkpt lat="42.5793550" lon="-7.2015500">
        <ele>725.3</ele>
        <time>2014-10-02T10:25:23Z</time>
      </trkpt>
      <trkpt lat="42.5793620" lon="-7.2016060">
        <ele>725.6</ele>
        <time>2014-10-02T10:25:24Z</time>
      </trkpt>
      <trkpt lat="42.5793710" lon="-7.2016600">
        <ele>725.8</ele>
        <time>2014-10-02T10:25:25Z</time>
      </trkpt>
      <trkpt lat="42.5793790" lon="-7.2017050">
        <ele>726.0</ele>
        <time>2014-10-02T10:25:26Z</time>
      </trkpt>
      <trkpt lat="42.5793920" lon="-7.2017650">
        <ele>726.2</ele>
        <time>2014-10-02T10:25:27Z</time>
      </trkpt>
      <trkpt lat="42.5794010" lon="-7.2018100">
        <ele>726.4</ele>
        <time>2014-10-02T10:25:28Z</time>
      </trkpt>
      <trkpt lat="42.5794070" lon="-7.2018530">
        <ele>726.5</ele>
        <time>2014-10-02T10:25:29Z</time>
      </trkpt>
      <trkpt lat="42.5794150" lon="-7.2018890">
        <ele>726.7</ele>
        <time>2014-10-02T10:25:30Z</time>
      </trkpt>
      <trkpt lat="42.5794280" lon="-7.2019260">
        <ele>726.8</ele>
        <time>2014-10-02T10:25:31Z</time>
      </trkpt>
      <trkpt lat="42.5794430" lon="-7.2019710">
        <ele>727.0</ele>
        <time>2014-10-02T10:25:32Z</time>
      </trkpt>
      <trkpt lat="42.5794580" lon="-7.2020170">
        <ele>727.2</ele>
        <time>2014-10-02T10:25:33Z</time>
      </trkpt>
      <trkpt lat="42.5794710" lon="-7.2020650">
        <ele>727.4</ele>
        <time>2014-10-02T10:25:34Z</time>
      </trkpt>
      <trkpt lat="42.5794880" lon="-7.2021130">
        <ele>727.6</ele>
        <time>2014-10-02T10:25:35Z</time>
      </trkpt>
      <trkpt lat="42.5795040" lon="-7.2021560">
        <ele>727.8</ele>
        <time>2014-10-02T10:25:36Z</time>
      </trkpt>
      <trkpt lat="42.5795230" lon="-7.2022050">
        <ele>728.0</ele>
        <time>2014-10-02T10:25:37Z</time>
      </trkpt>
      <trkpt lat="42.5795450" lon="-7.2022470">
        <ele>728.2</ele>
        <time>2014-10-02T10:25:38Z</time>
      </trkpt>
      <trkpt lat="42.5795600" lon="-7.2022850">
        <ele>728.3</ele>
        <time>2014-10-02T10:25:39Z</time>
      </trkpt>
      <trkpt lat="42.5795700" lon="-7.2023240">
        <ele>728.4</ele>
        <time>2014-10-02T10:25:40Z</time>
      </trkpt>
      <trkpt lat="42.5795820" lon="-7.2023680">
        <ele>728.5</ele>
        <time>2014-10-02T10:25:41Z</time>
      </trkpt>
      <trkpt lat="42.5795940" lon="-7.2024090">
        <ele>728.7</ele>
        <time>2014-10-02T10:25:42Z</time>
      </trkpt>
      <trkpt lat="42.5796050" lon="-7.2024460">
        <ele>728.8</ele>
        <time>2014-10-02T10:25:43Z</time>
      </trkpt>
      <trkpt lat="42.5796170" lon="-7.2024860">
        <ele>728.9</ele>
        <time>2014-10-02T10:25:44Z</time>
      </trkpt>
      <trkpt lat="42.5796290" lon="-7.2025230">
        <ele>729.0</ele>
        <time>2014-10-02T10:25:45Z</time>
      </trkpt>
      <trkpt lat="42.5796390" lon="-7.2025600">
        <ele>729.1</ele>
        <time>2014-10-02T10:25:46Z</time>
      </trkpt>
      <trkpt lat="42.5796460" lon="-7.2025950">
        <ele>729.2</ele>
        <time>2014-10-02T10:25:47Z</time>
      </trkpt>
      <trkpt lat="42.5796600" lon="-7.2026400">
        <ele>729.4</ele>
        <time>2014-10-02T10:25:48Z</time>
      </trkpt>
      <trkpt lat="42.5796740" lon="-7.2026810">
        <ele>729.5</ele>
        <time>2014-10-02T10:25:49Z</time>
      </trkpt>
      <trkpt lat="42.5796890" lon="-7.2027250">
        <ele>729.6</ele>
        <time>2014-10-02T10:25:50Z</time>
      </trkpt>
      <trkpt lat="42.5797090" lon="-7.2027680">
        <ele>729.7</ele>
        <time>2014-10-02T10:25:51Z</time>
      </trkpt>
      <trkpt lat="42.5797350" lon="-7.2028080">
        <ele>729.8</ele>
        <time>2014-10-02T10:25:52Z</time>
      </trkpt>
      <trkpt lat="42.5797500" lon="-7.2028460">
        <ele>729.9</ele>
        <time>2014-10-02T10:25:53Z</time>
      </trkpt>
      <trkpt lat="42.5797690" lon="-7.2028890">
        <ele>730.1</ele>
        <time>2014-10-02T10:25:54Z</time>
      </trkpt>
      <trkpt lat="42.5797820" lon="-7.2029260">
        <ele>730.2</ele>
        <time>2014-10-02T10:25:55Z</time>
      </trkpt>
      <trkpt lat="42.5797950" lon="-7.2029670">
        <ele>730.3</ele>
        <time>2014-10-02T10:25:56Z</time>
      </trkpt>
      <trkpt lat="42.5798170" lon="-7.2030470">
        <ele>730.6</ele>
        <time>2014-10-02T10:25:58Z</time>
      </trkpt>
      <trkpt lat="42.5798300" lon="-7.2030920">
        <ele>730.7</ele>
        <time>2014-10-02T10:25:59Z</time>
      </trkpt>
      <trkpt lat="42.5798440" lon="-7.2031380">
        <ele>730.8</ele>
        <time>2014-10-02T10:26:00Z</time>
      </trkpt>
      <trkpt lat="42.5798570" lon="-7.2031780">
        <ele>730.8</ele>
        <time>2014-10-02T10:26:01Z</time>
      </trkpt>
      <trkpt lat="42.5798780" lon="-7.2032340">
        <ele>730.7</ele>
        <time>2014-10-02T10:26:02Z</time>
      </trkpt>
      <trkpt lat="42.5798970" lon="-7.2032820">
        <ele>730.4</ele>
        <time>2014-10-02T10:26:03Z</time>
      </trkpt>
      <trkpt lat="42.5799160" lon="-7.2033310">
        <ele>730.0</ele>
        <time>2014-10-02T10:26:04Z</time>
      </trkpt>
      <trkpt lat="42.5799340" lon="-7.2033730">
        <ele>729.7</ele>
        <time>2014-10-02T10:26:05Z</time>
      </trkpt>
      <trkpt lat="42.5799500" lon="-7.2034190">
        <ele>729.8</ele>
        <time>2014-10-02T10:26:06Z</time>
      </trkpt>
      <trkpt lat="42.5799640" lon="-7.2034560">
        <ele>729.9</ele>
        <time>2014-10-02T10:26:07Z</time>
      </trkpt>
      <trkpt lat="42.5799780" lon="-7.2035000">
        <ele>729.9</ele>
        <time>2014-10-02T10:26:08Z</time>
      </trkpt>
      <trkpt lat="42.5799930" lon="-7.2035440">
        <ele>730.0</ele>
        <time>2014-10-02T10:26:09Z</time>
      </trkpt>
      <trkpt lat="42.5800080" lon="-7.2035910">
        <ele>730.1</ele>
        <time>2014-10-02T10:26:10Z</time>
      </trkpt>
      <trkpt lat="42.5800220" lon="-7.2036360">
        <ele>730.2</ele>
        <time>2014-10-02T10:26:11Z</time>
      </trkpt>
      <trkpt lat="42.5800370" lon="-7.2036830">
        <ele>730.2</ele>
        <time>2014-10-02T10:26:12Z</time>
      </trkpt>
      <trkpt lat="42.5800510" lon="-7.2037210">
        <ele>730.3</ele>
        <time>2014-10-02T10:26:13Z</time>
      </trkpt>
      <trkpt lat="42.5800670" lon="-7.2037690">
        <ele>730.4</ele>
        <time>2014-10-02T10:26:14Z</time>
      </trkpt>
      <trkpt lat="42.5800820" lon="-7.2038150">
        <ele>730.5</ele>
        <time>2014-10-02T10:26:15Z</time>
      </trkpt>
      <trkpt lat="42.5800940" lon="-7.2038570">
        <ele>730.5</ele>
        <time>2014-10-02T10:26:16Z</time>
      </trkpt>
      <trkpt lat="42.5801040" lon="-7.2038920">
        <ele>730.6</ele>
        <time>2014-10-02T10:26:17Z</time>
      </trkpt>
      <trkpt lat="42.5801180" lon="-7.2039320">
        <ele>730.7</ele>
        <time>2014-10-02T10:26:18Z</time>
      </trkpt>
      <trkpt lat="42.5801380" lon="-7.2039810">
        <ele>730.8</ele>
        <time>2014-10-02T10:26:19Z</time>
      </trkpt>
      <trkpt lat="42.5801570" lon="-7.2040300">
        <ele>730.8</ele>
        <time>2014-10-02T10:26:20Z</time>
      </trkpt>
      <trkpt lat="42.5801740" lon="-7.2040660">
        <ele>730.9</ele>
        <time>2014-10-02T10:26:21Z</time>
      </trkpt>
      <trkpt lat="42.5801930" lon="-7.2041080">
        <ele>731.0</ele>
        <time>2014-10-02T10:26:22Z</time>
      </trkpt>
      <trkpt lat="42.5802090" lon="-7.2041490">
        <ele>731.0</ele>
        <time>2014-10-02T10:26:23Z</time>
      </trkpt>
      <trkpt lat="42.5802280" lon="-7.2041960">
        <ele>731.1</ele>
        <time>2014-10-02T10:26:24Z</time>
      </trkpt>
      <trkpt lat="42.5802460" lon="-7.2042340">
        <ele>731.1</ele>
        <time>2014-10-02T10:26:25Z</time>
      </trkpt>
      <trkpt lat="42.5802660" lon="-7.2042690">
        <ele>731.1</ele>
        <time>2014-10-02T10:26:26Z</time>
      </trkpt>
      <trkpt lat="42.5802900" lon="-7.2043020">
        <ele>731.0</ele>
        <time>2014-10-02T10:26:27Z</time>
      </trkpt>
      <trkpt lat="42.5803140" lon="-7.2043320">
        <ele>731.0</ele>
        <time>2014-10-02T10:26:28Z</time>
      </trkpt>
      <trkpt lat="42.5803580" lon="-7.2043570">
        <ele>731.0</ele>
        <time>2014-10-02T10:26:29Z</time>
      </trkpt>
      <trkpt lat="42.5804030" lon="-7.2043840">
        <ele>730.9</ele>
        <time>2014-10-02T10:26:30Z</time>
      </trkpt>
      <trkpt lat="42.5804480" lon="-7.2043980">
        <ele>730.8</ele>
        <time>2014-10-02T10:26:31Z</time>
      </trkpt>
      <trkpt lat="42.5804930" lon="-7.2044090">
        <ele>730.7</ele>
        <time>2014-10-02T10:26:32Z</time>
      </trkpt>
      <trkpt lat="42.5805380" lon="-7.2044150">
        <ele>730.5</ele>
        <time>2014-10-02T10:26:33Z</time>
      </trkpt>
      <trkpt lat="42.5805870" lon="-7.2044130">
        <ele>730.3</ele>
        <time>2014-10-02T10:26:34Z</time>
      </trkpt>
      <trkpt lat="42.5806300" lon="-7.2044000">
        <ele>729.8</ele>
        <time>2014-10-02T10:26:35Z</time>
      </trkpt>
      <trkpt lat="42.5806760" lon="-7.2043840">
        <ele>729.1</ele>
        <time>2014-10-02T10:26:36Z</time>
      </trkpt>
      <trkpt lat="42.5807320" lon="-7.2043510">
        <ele>728.2</ele>
        <time>2014-10-02T10:26:37Z</time>
      </trkpt>
      <trkpt lat="42.5807820" lon="-7.2043060">
        <ele>727.4</ele>
        <time>2014-10-02T10:26:38Z</time>
      </trkpt>
      <trkpt lat="42.5808370" lon="-7.2042550">
        <ele>727.0</ele>
        <time>2014-10-02T10:26:39Z</time>
      </trkpt>
      <trkpt lat="42.5808960" lon="-7.2041990">
        <ele>727.0</ele>
        <time>2014-10-02T10:26:40Z</time>
      </trkpt>
      <trkpt lat="42.5809510" lon="-7.2041440">
        <ele>726.9</ele>
        <time>2014-10-02T10:26:41Z</time>
      </trkpt>
      <trkpt lat="42.5810110" lon="-7.2040800">
        <ele>726.8</ele>
        <time>2014-10-02T10:26:42Z</time>
      </trkpt>
      <trkpt lat="42.5810600" lon="-7.2040010">
        <ele>726.7</ele>
        <time>2014-10-02T10:26:43Z</time>
      </trkpt>
      <trkpt lat="42.5811120" lon="-7.2039170">
        <ele>726.6</ele>
        <time>2014-10-02T10:26:44Z</time>
      </trkpt>
      <trkpt lat="42.5811620" lon="-7.2038330">
        <ele>726.6</ele>
        <time>2014-10-02T10:26:45Z</time>
      </trkpt>
      <trkpt lat="42.5812130" lon="-7.2037430">
        <ele>726.6</ele>
        <time>2014-10-02T10:26:46Z</time>
      </trkpt>
      <trkpt lat="42.5812720" lon="-7.2036450">
        <ele>726.5</ele>
        <time>2014-10-02T10:26:47Z</time>
      </trkpt>
      <trkpt lat="42.5813220" lon="-7.2035580">
        <ele>726.3</ele>
        <time>2014-10-02T10:26:48Z</time>
      </trkpt>
      <trkpt lat="42.5813730" lon="-7.2034620">
        <ele>725.9</ele>
        <time>2014-10-02T10:26:49Z</time>
      </trkpt>
      <trkpt lat="42.5814230" lon="-7.2033620">
        <ele>725.5</ele>
        <time>2014-10-02T10:26:50Z</time>
      </trkpt>
      <trkpt lat="42.5814760" lon="-7.2032620">
        <ele>725.1</ele>
        <time>2014-10-02T10:26:51Z</time>
      </trkpt>
      <trkpt lat="42.5815290" lon="-7.2031600">
        <ele>724.7</ele>
        <time>2014-10-02T10:26:52Z</time>
      </trkpt>
      <trkpt lat="42.5815860" lon="-7.2030590">
        <ele>724.3</ele>
        <time>2014-10-02T10:26:53Z</time>
      </trkpt>
      <trkpt lat="42.5816440" lon="-7.2029620">
        <ele>723.8</ele>
        <time>2014-10-02T10:26:54Z</time>
      </trkpt>
      <trkpt lat="42.5817090" lon="-7.2028620">
        <ele>723.3</ele>
        <time>2014-10-02T10:26:55Z</time>
      </trkpt>
      <trkpt lat="42.5817730" lon="-7.2027750">
        <ele>722.8</ele>
        <time>2014-10-02T10:26:56Z</time>
      </trkpt>
      <trkpt lat="42.5818360" lon="-7.2026880">
        <ele>722.4</ele>
        <time>2014-10-02T10:26:57Z</time>
      </trkpt>
      <trkpt lat="42.5819430" lon="-7.2025970">
        <ele>721.9</ele>
        <time>2014-10-02T10:26:58Z</time>
      </trkpt>
      <trkpt lat="42.5820470" lon="-7.2025070">
        <ele>721.3</ele>
        <time>2014-10-02T10:26:59Z</time>
      </trkpt>
      <trkpt lat="42.5821520" lon="-7.2024060">
        <ele>720.6</ele>
        <time>2014-10-02T10:27:00Z</time>
      </trkpt>
      <trkpt lat="42.5822710" lon="-7.2023050">
        <ele>720.0</ele>
        <time>2014-10-02T10:27:01Z</time>
      </trkpt>
      <trkpt lat="42.5823910" lon="-7.2021920">
        <ele>719.4</ele>
        <time>2014-10-02T10:27:02Z</time>
      </trkpt>
      <trkpt lat="42.5825060" lon="-7.2020570">
        <ele>718.8</ele>
        <time>2014-10-02T10:27:03Z</time>
      </trkpt>
      <trkpt lat="42.5825480" lon="-7.2019010">
        <ele>718.1</ele>
        <time>2014-10-02T10:27:04Z</time>
      </trkpt>
      <trkpt lat="42.5825810" lon="-7.2017440">
        <ele>717.5</ele>
        <time>2014-10-02T10:27:05Z</time>
      </trkpt>
      <trkpt lat="42.5826120" lon="-7.2015800">
        <ele>716.7</ele>
        <time>2014-10-02T10:27:06Z</time>
      </trkpt>
      <trkpt lat="42.5825970" lon="-7.2014210">
        <ele>715.8</ele>
        <time>2014-10-02T10:27:07Z</time>
      </trkpt>
      <trkpt lat="42.5825750" lon="-7.2012480">
        <ele>715.0</ele>
        <time>2014-10-02T10:27:08Z</time>
      </trkpt>
      <trkpt lat="42.5825490" lon="-7.2010750">
        <ele>714.3</ele>
        <time>2014-10-02T10:27:09Z</time>
      </trkpt>
      <trkpt lat="42.5825240" lon="-7.2008990">
        <ele>713.6</ele>
        <time>2014-10-02T10:27:10Z</time>
      </trkpt>
      <trkpt lat="42.5824920" lon="-7.2007240">
        <ele>712.9</ele>
        <time>2014-10-02T10:27:11Z</time>
      </trkpt>
      <trkpt lat="42.5824580" lon="-7.2005400">
        <ele>712.1</ele>
        <time>2014-10-02T10:27:12Z</time>
      </trkpt>
      <trkpt lat="42.5824130" lon="-7.2003590">
        <ele>711.3</ele>
        <time>2014-10-02T10:27:13Z</time>
      </trkpt>
      <trkpt lat="42.5823610" lon="-7.2001550">
        <ele>710.4</ele>
        <time>2014-10-02T10:27:14Z</time>
      </trkpt>
      <trkpt lat="42.5823360" lon="-7.1999650">
        <ele>709.5</ele>
        <time>2014-10-02T10:27:15Z</time>
      </trkpt>
      <trkpt lat="42.5823090" lon="-7.1997700">
        <ele>708.6</ele>
        <time>2014-10-02T10:27:16Z</time>
      </trkpt>
      <trkpt lat="42.5822950" lon="-7.1995800">
        <ele>707.7</ele>
        <time>2014-10-02T10:27:17Z</time>
      </trkpt>
      <trkpt lat="42.5822860" lon="-7.1993840">
        <ele>706.7</ele>
        <time>2014-10-02T10:27:18Z</time>
      </trkpt>
      <trkpt lat="42.5822780" lon="-7.1991860">
        <ele>705.8</ele>
        <time>2014-10-02T10:27:19Z</time>
      </trkpt>
      <trkpt lat="42.5823090" lon="-7.1989990">
        <ele>704.9</ele>
        <time>2014-10-02T10:27:20Z</time>
      </trkpt>
      <trkpt lat="42.5823370" lon="-7.1988180">
        <ele>703.9</ele>
        <time>2014-10-02T10:27:21Z</time>
      </trkpt>
      <trkpt lat="42.5823720" lon="-7.1986350">
        <ele>703.0</ele>
        <time>2014-10-02T10:27:22Z</time>
      </trkpt>
      <trkpt lat="42.5824040" lon="-7.1984550">
        <ele>702.0</ele>
        <time>2014-10-02T10:27:23Z</time>
      </trkpt>
      <trkpt lat="42.5824430" lon="-7.1982750">
        <ele>701.0</ele>
        <time>2014-10-02T10:27:24Z</time>
      </trkpt>
      <trkpt lat="42.5824850" lon="-7.1980940">
        <ele>700.3</ele>
        <time>2014-10-02T10:27:25Z</time>
      </trkpt>
      <trkpt lat="42.5825420" lon="-7.1979130">
        <ele>699.5</ele>
        <time>2014-10-02T10:27:26Z</time>
      </trkpt>
      <trkpt lat="42.5826140" lon="-7.1977330">
        <ele>698.8</ele>
        <time>2014-10-02T10:27:27Z</time>
      </trkpt>
      <trkpt lat="42.5826880" lon="-7.1975570">
        <ele>697.9</ele>
        <time>2014-10-02T10:27:28Z</time>
      </trkpt>
      <trkpt lat="42.5827630" lon="-7.1973770">
        <ele>697.1</ele>
        <time>2014-10-02T10:27:29Z</time>
      </trkpt>
      <trkpt lat="42.5828440" lon="-7.1971970">
        <ele>696.3</ele>
        <time>2014-10-02T10:27:30Z</time>
      </trkpt>
      <trkpt lat="42.5828960" lon="-7.1970130">
        <ele>695.5</ele>
        <time>2014-10-02T10:27:31Z</time>
      </trkpt>
      <trkpt lat="42.5829530" lon="-7.1968300">
        <ele>694.8</ele>
        <time>2014-10-02T10:27:32Z</time>
      </trkpt>
      <trkpt lat="42.5830120" lon="-7.1966400">
        <ele>694.2</ele>
        <time>2014-10-02T10:27:33Z</time>
      </trkpt>
      <trkpt lat="42.5830670" lon="-7.1964560">
        <ele>693.1</ele>
        <time>2014-10-02T10:27:34Z</time>
      </trkpt>
      <trkpt lat="42.5831300" lon="-7.1962750">
        <ele>692.0</ele>
        <time>2014-10-02T10:27:35Z</time>
      </trkpt>
      <trkpt lat="42.5831740" lon="-7.1960800">
        <ele>691.5</ele>
        <time>2014-10-02T10:27:36Z</time>
      </trkpt>
      <trkpt lat="42.5832110" lon="-7.1958850">
        <ele>691.3</ele>
        <time>2014-10-02T10:27:37Z</time>
      </trkpt>
      <trkpt lat="42.5832300" lon="-7.1956930">
        <ele>691.2</ele>
        <time>2014-10-02T10:27:38Z</time>
      </trkpt>
      <trkpt lat="42.5832120" lon="-7.1954850">
        <ele>691.2</ele>
        <time>2014-10-02T10:27:39Z</time>
      </trkpt>
      <trkpt lat="42.5831960" lon="-7.1952870">
        <ele>691.4</ele>
        <time>2014-10-02T10:27:40Z</time>
      </trkpt>
      <trkpt lat="42.5831780" lon="-7.1951090">
        <ele>691.6</ele>
        <time>2014-10-02T10:27:41Z</time>
      </trkpt>
      <trkpt lat="42.5831560" lon="-7.1949450">
        <ele>691.5</ele>
        <time>2014-10-02T10:27:42Z</time>
      </trkpt>
      <trkpt lat="42.5831230" lon="-7.1947820">
        <ele>691.3</ele>
        <time>2014-10-02T10:27:43Z</time>
      </trkpt>
      <trkpt lat="42.5830880" lon="-7.1946210">
        <ele>691.1</ele>
        <time>2014-10-02T10:27:44Z</time>
      </trkpt>
      <trkpt lat="42.5830550" lon="-7.1944710">
        <ele>691.0</ele>
        <time>2014-10-02T10:27:45Z</time>
      </trkpt>
      <trkpt lat="42.5830710" lon="-7.1943260">
        <ele>691.0</ele>
        <time>2014-10-02T10:27:46Z</time>
      </trkpt>
      <trkpt lat="42.5830790" lon="-7.1941870">
        <ele>691.1</ele>
        <time>2014-10-02T10:27:47Z</time>
      </trkpt>
      <trkpt lat="42.5830890" lon="-7.1940420">
        <ele>691.2</ele>
        <time>2014-10-02T10:27:48Z</time>
      </trkpt>
      <trkpt lat="42.5831040" lon="-7.1939100">
        <ele>691.5</ele>
        <time>2014-10-02T10:27:49Z</time>
      </trkpt>
      <trkpt lat="42.5831580" lon="-7.1937850">
        <ele>691.7</ele>
        <time>2014-10-02T10:27:50Z</time>
      </trkpt>
      <trkpt lat="42.5832330" lon="-7.1936770">
        <ele>692.1</ele>
        <time>2014-10-02T10:27:51Z</time>
      </trkpt>
      <trkpt lat="42.5833380" lon="-7.1936060">
        <ele>691.5</ele>
        <time>2014-10-02T10:27:52Z</time>
      </trkpt>
      <trkpt lat="42.5834310" lon="-7.1935540">
        <ele>690.9</ele>
        <time>2014-10-02T10:27:53Z</time>
      </trkpt>
      <trkpt lat="42.5835200" lon="-7.1935180">
        <ele>690.3</ele>
        <time>2014-10-02T10:27:54Z</time>
      </trkpt>
      <trkpt lat="42.5836250" lon="-7.1935090">
        <ele>689.7</ele>
        <time>2014-10-02T10:27:55Z</time>
      </trkpt>
      <trkpt lat="42.5837360" lon="-7.1934990">
        <ele>689.0</ele>
        <time>2014-10-02T10:27:56Z</time>
      </trkpt>
      <trkpt lat="42.5838100" lon="-7.1934250">
        <ele>688.3</ele>
        <time>2014-10-02T10:27:57Z</time>
      </trkpt>
      <trkpt lat="42.5838740" lon="-7.1934010">
        <ele>687.8</ele>
        <time>2014-10-02T10:27:58Z</time>
      </trkpt>
      <trkpt lat="42.5839930" lon="-7.1933670">
        <ele>687.0</ele>
        <time>2014-10-02T10:27:59Z</time>
      </trkpt>
      <trkpt lat="42.5841150" lon="-7.1933070">
        <ele>686.1</ele>
        <time>2014-10-02T10:28:00Z</time>
      </trkpt>
      <trkpt lat="42.5842510" lon="-7.1932220">
        <ele>685.0</ele>
        <time>2014-10-02T10:28:01Z</time>
      </trkpt>
      <trkpt lat="42.5843810" lon="-7.1931220">
        <ele>683.6</ele>
        <time>2014-10-02T10:28:02Z</time>
      </trkpt>
      <trkpt lat="42.5844810" lon="-7.1929840">
        <ele>682.2</ele>
        <time>2014-10-02T10:28:03Z</time>
      </trkpt>
      <trkpt lat="42.5845620" lon="-7.1928090">
        <ele>680.7</ele>
        <time>2014-10-02T10:28:04Z</time>
      </trkpt>
      <trkpt lat="42.5846310" lon="-7.1926320">
        <ele>679.2</ele>
        <time>2014-10-02T10:28:05Z</time>
      </trkpt>
      <trkpt lat="42.5846950" lon="-7.1924470">
        <ele>677.6</ele>
        <time>2014-10-02T10:28:06Z</time>
      </trkpt>
      <trkpt lat="42.5847640" lon="-7.1922630">
        <ele>676.0</ele>
        <time>2014-10-02T10:28:07Z</time>
      </trkpt>
      <trkpt lat="42.5848410" lon="-7.1920810">
        <ele>674.6</ele>
        <time>2014-10-02T10:28:08Z</time>
      </trkpt>
      <trkpt lat="42.5849270" lon="-7.1919050">
        <ele>673.1</ele>
        <time>2014-10-02T10:28:09Z</time>
      </trkpt>
      <trkpt lat="42.5850210" lon="-7.1917360">
        <ele>671.8</ele>
        <time>2014-10-02T10:28:10Z</time>
      </trkpt>
      <trkpt lat="42.5851180" lon="-7.1915630">
        <ele>670.3</ele>
        <time>2014-10-02T10:28:11Z</time>
      </trkpt>
      <trkpt lat="42.5852150" lon="-7.1913850">
        <ele>668.8</ele>
        <time>2014-10-02T10:28:12Z</time>
      </trkpt>
      <trkpt lat="42.5852450" lon="-7.1912020">
        <ele>667.5</ele>
        <time>2014-10-02T10:28:13Z</time>
      </trkpt>
      <trkpt lat="42.5852600" lon="-7.1910230">
        <ele>666.5</ele>
        <time>2014-10-02T10:28:14Z</time>
      </trkpt>
      <trkpt lat="42.5852610" lon="-7.1908550">
        <ele>665.7</ele>
        <time>2014-10-02T10:28:15Z</time>
      </trkpt>
      <trkpt lat="42.5852370" lon="-7.1906760">
        <ele>664.7</ele>
        <time>2014-10-02T10:28:16Z</time>
      </trkpt>
      <trkpt lat="42.5852170" lon="-7.1904910">
        <ele>663.9</ele>
        <time>2014-10-02T10:28:17Z</time>
      </trkpt>
      <trkpt lat="42.5851610" lon="-7.1902760">
        <ele>663.1</ele>
        <time>2014-10-02T10:28:18Z</time>
      </trkpt>
      <trkpt lat="42.5851190" lon="-7.1900820">
        <ele>662.5</ele>
        <time>2014-10-02T10:28:19Z</time>
      </trkpt>
      <trkpt lat="42.5850750" lon="-7.1899040">
        <ele>662.0</ele>
        <time>2014-10-02T10:28:20Z</time>
      </trkpt>
      <trkpt lat="42.5850330" lon="-7.1897340">
        <ele>661.3</ele>
        <time>2014-10-02T10:28:21Z</time>
      </trkpt>
      <trkpt lat="42.5849920" lon="-7.1895660">
        <ele>660.6</ele>
        <time>2014-10-02T10:28:22Z</time>
      </trkpt>
      <trkpt lat="42.5849650" lon="-7.1894120">
        <ele>660.0</ele>
        <time>2014-10-02T10:28:23Z</time>
      </trkpt>
      <trkpt lat="42.5849390" lon="-7.1892650">
        <ele>659.4</ele>
        <time>2014-10-02T10:28:24Z</time>
      </trkpt>
      <trkpt lat="42.5849180" lon="-7.1891180">
        <ele>658.7</ele>
        <time>2014-10-02T10:28:25Z</time>
      </trkpt>
      <trkpt lat="42.5848870" lon="-7.1889510">
        <ele>657.9</ele>
        <time>2014-10-02T10:28:26Z</time>
      </trkpt>
      <trkpt lat="42.5848610" lon="-7.1887880">
        <ele>657.0</ele>
        <time>2014-10-02T10:28:27Z</time>
      </trkpt>
      <trkpt lat="42.5848480" lon="-7.1886180">
        <ele>656.0</ele>
        <time>2014-10-02T10:28:28Z</time>
      </trkpt>
      <trkpt lat="42.5848920" lon="-7.1884570">
        <ele>655.0</ele>
        <time>2014-10-02T10:28:29Z</time>
      </trkpt>
      <trkpt lat="42.5849380" lon="-7.1883010">
        <ele>654.0</ele>
        <time>2014-10-02T10:28:30Z</time>
      </trkpt>
      <trkpt lat="42.5849730" lon="-7.1881520">
        <ele>653.0</ele>
        <time>2014-10-02T10:28:31Z</time>
      </trkpt>
      <trkpt lat="42.5850110" lon="-7.1880000">
        <ele>651.8</ele>
        <time>2014-10-02T10:28:32Z</time>
      </trkpt>
      <trkpt lat="42.5850520" lon="-7.1878480">
        <ele>650.8</ele>
        <time>2014-10-02T10:28:33Z</time>
      </trkpt>
      <trkpt lat="42.5851040" lon="-7.1876970">
        <ele>649.7</ele>
        <time>2014-10-02T10:28:34Z</time>
      </trkpt>
      <trkpt lat="42.5851560" lon="-7.1875490">
        <ele>648.7</ele>
        <time>2014-10-02T10:28:35Z</time>
      </trkpt>
      <trkpt lat="42.5851990" lon="-7.1874080">
        <ele>647.7</ele>
        <time>2014-10-02T10:28:36Z</time>
      </trkpt>
      <trkpt lat="42.5852640" lon="-7.1872510">
        <ele>646.6</ele>
        <time>2014-10-02T10:28:37Z</time>
      </trkpt>
      <trkpt lat="42.5853290" lon="-7.1870970">
        <ele>645.4</ele>
        <time>2014-10-02T10:28:38Z</time>
      </trkpt>
      <trkpt lat="42.5854020" lon="-7.1869490">
        <ele>644.3</ele>
        <time>2014-10-02T10:28:39Z</time>
      </trkpt>
      <trkpt lat="42.5854790" lon="-7.1868020">
        <ele>643.4</ele>
        <time>2014-10-02T10:28:40Z</time>
      </trkpt>
      <trkpt lat="42.5855610" lon="-7.1866570">
        <ele>642.3</ele>
        <time>2014-10-02T10:28:41Z</time>
      </trkpt>
      <trkpt lat="42.5856440" lon="-7.1865080">
        <ele>641.0</ele>
        <time>2014-10-02T10:28:42Z</time>
      </trkpt>
      <trkpt lat="42.5857260" lon="-7.1863650">
        <ele>639.4</ele>
        <time>2014-10-02T10:28:43Z</time>
      </trkpt>
      <trkpt lat="42.5858150" lon="-7.1862250">
        <ele>636.3</ele>
        <time>2014-10-02T10:28:44Z</time>
      </trkpt>
      <trkpt lat="42.5859330" lon="-7.1861440">
        <ele>633.0</ele>
        <time>2014-10-02T10:28:45Z</time>
      </trkpt>
      <trkpt lat="42.5860840" lon="-7.1860980">
        <ele>633.3</ele>
        <time>2014-10-02T10:28:46Z</time>
      </trkpt>
      <trkpt lat="42.5862280" lon="-7.1861150">
        <ele>633.8</ele>
        <time>2014-10-02T10:28:47Z</time>
      </trkpt>
      <trkpt lat="42.5863610" lon="-7.1861860">
        <ele>634.4</ele>
        <time>2014-10-02T10:28:48Z</time>
      </trkpt>
      <trkpt lat="42.5864830" lon="-7.1862970">
        <ele>634.2</ele>
        <time>2014-10-02T10:28:49Z</time>
      </trkpt>
      <trkpt lat="42.5866140" lon="-7.1864300">
        <ele>632.6</ele>
        <time>2014-10-02T10:28:50Z</time>
      </trkpt>
      <trkpt lat="42.5867020" lon="-7.1866140">
        <ele>631.6</ele>
        <time>2014-10-02T10:28:51Z</time>
      </trkpt>
      <trkpt lat="42.5867790" lon="-7.1867920">
        <ele>631.0</ele>
        <time>2014-10-02T10:28:52Z</time>
      </trkpt>
      <trkpt lat="42.5868200" lon="-7.1869770">
        <ele>630.6</ele>
        <time>2014-10-02T10:28:53Z</time>
      </trkpt>
      <trkpt lat="42.5868500" lon="-7.1871470">
        <ele>630.5</ele>
        <time>2014-10-02T10:28:54Z</time>
      </trkpt>
      <trkpt lat="42.5868750" lon="-7.1873060">
        <ele>630.5</ele>
        <time>2014-10-02T10:28:55Z</time>
      </trkpt>
      <trkpt lat="42.5869000" lon="-7.1874650">
        <ele>630.6</ele>
        <time>2014-10-02T10:28:56Z</time>
      </trkpt>
      <trkpt lat="42.5869230" lon="-7.1876140">
        <ele>630.9</ele>
        <time>2014-10-02T10:28:57Z</time>
      </trkpt>
      <trkpt lat="42.5869440" lon="-7.1877610">
        <ele>630.9</ele>
        <time>2014-10-02T10:28:58Z</time>
      </trkpt>
      <trkpt lat="42.5869640" lon="-7.1879030">
        <ele>630.5</ele>
        <time>2014-10-02T10:28:59Z</time>
      </trkpt>
      <trkpt lat="42.5869890" lon="-7.1880380">
        <ele>630.2</ele>
        <time>2014-10-02T10:29:00Z</time>
      </trkpt>
      <trkpt lat="42.5870150" lon="-7.1881700">
        <ele>629.9</ele>
        <time>2014-10-02T10:29:01Z</time>
      </trkpt>
      <trkpt lat="42.5870410" lon="-7.1882980">
        <ele>629.7</ele>
        <time>2014-10-02T10:29:02Z</time>
      </trkpt>
      <trkpt lat="42.5870680" lon="-7.1884290">
        <ele>629.5</ele>
        <time>2014-10-02T10:29:03Z</time>
      </trkpt>
      <trkpt lat="42.5870980" lon="-7.1885540">
        <ele>629.3</ele>
        <time>2014-10-02T10:29:04Z</time>
      </trkpt>
      <trkpt lat="42.5871340" lon="-7.1886750">
        <ele>629.1</ele>
        <time>2014-10-02T10:29:05Z</time>
      </trkpt>
      <trkpt lat="42.5871720" lon="-7.1887940">
        <ele>628.8</ele>
        <time>2014-10-02T10:29:06Z</time>
      </trkpt>
      <trkpt lat="42.5872150" lon="-7.1889070">
        <ele>628.6</ele>
        <time>2014-10-02T10:29:07Z</time>
      </trkpt>
      <trkpt lat="42.5872560" lon="-7.1890090">
        <ele>628.3</ele>
        <time>2014-10-02T10:29:08Z</time>
      </trkpt>
      <trkpt lat="42.5872950" lon="-7.1891100">
        <ele>628.1</ele>
        <time>2014-10-02T10:29:09Z</time>
      </trkpt>
      <trkpt lat="42.5873380" lon="-7.1892220">
        <ele>627.7</ele>
        <time>2014-10-02T10:29:10Z</time>
      </trkpt>
      <trkpt lat="42.5873840" lon="-7.1893330">
        <ele>627.2</ele>
        <time>2014-10-02T10:29:11Z</time>
      </trkpt>
      <trkpt lat="42.5874290" lon="-7.1894420">
        <ele>626.8</ele>
        <time>2014-10-02T10:29:12Z</time>
      </trkpt>
      <trkpt lat="42.5874670" lon="-7.1895560">
        <ele>626.3</ele>
        <time>2014-10-02T10:29:13Z</time>
      </trkpt>
      <trkpt lat="42.5875230" lon="-7.1896620">
        <ele>625.8</ele>
        <time>2014-10-02T10:29:14Z</time>
      </trkpt>
      <trkpt lat="42.5875620" lon="-7.1898020">
        <ele>625.2</ele>
        <time>2014-10-02T10:29:15Z</time>
      </trkpt>
      <trkpt lat="42.5875990" lon="-7.1899430">
        <ele>624.6</ele>
        <time>2014-10-02T10:29:16Z</time>
      </trkpt>
      <trkpt lat="42.5876390" lon="-7.1900800">
        <ele>623.9</ele>
        <time>2014-10-02T10:29:17Z</time>
      </trkpt>
      <trkpt lat="42.5876780" lon="-7.1902160">
        <ele>623.2</ele>
        <time>2014-10-02T10:29:18Z</time>
      </trkpt>
      <trkpt lat="42.5877200" lon="-7.1903440">
        <ele>622.6</ele>
        <time>2014-10-02T10:29:19Z</time>
      </trkpt>
      <trkpt lat="42.5877580" lon="-7.1904680">
        <ele>622.0</ele>
        <time>2014-10-02T10:29:20Z</time>
      </trkpt>
      <trkpt lat="42.5877990" lon="-7.1905870">
        <ele>621.4</ele>
        <time>2014-10-02T10:29:21Z</time>
      </trkpt>
      <trkpt lat="42.5878410" lon="-7.1907020">
        <ele>620.7</ele>
        <time>2014-10-02T10:29:22Z</time>
      </trkpt>
      <trkpt lat="42.5878830" lon="-7.1908190">
        <ele>620.1</ele>
        <time>2014-10-02T10:29:23Z</time>
      </trkpt>
      <trkpt lat="42.5879270" lon="-7.1909390">
        <ele>619.5</ele>
        <time>2014-10-02T10:29:24Z</time>
      </trkpt>
      <trkpt lat="42.5879730" lon="-7.1910560">
        <ele>618.9</ele>
        <time>2014-10-02T10:29:25Z</time>
      </trkpt>
      <trkpt lat="42.5880180" lon="-7.1911820">
        <ele>618.1</ele>
        <time>2014-10-02T10:29:26Z</time>
      </trkpt>
      <trkpt lat="42.5880590" lon="-7.1913200">
        <ele>616.6</ele>
        <time>2014-10-02T10:29:27Z</time>
      </trkpt>
      <trkpt lat="42.5880940" lon="-7.1914560">
        <ele>615.3</ele>
        <time>2014-10-02T10:29:28Z</time>
      </trkpt>
      <trkpt lat="42.5881260" lon="-7.1915840">
        <ele>614.9</ele>
        <time>2014-10-02T10:29:29Z</time>
      </trkpt>
      <trkpt lat="42.5881560" lon="-7.1917100">
        <ele>614.6</ele>
        <time>2014-10-02T10:29:30Z</time>
      </trkpt>
      <trkpt lat="42.5881900" lon="-7.1918410">
        <ele>614.3</ele>
        <time>2014-10-02T10:29:31Z</time>
      </trkpt>
      <trkpt lat="42.5882230" lon="-7.1919710">
        <ele>614.2</ele>
        <time>2014-10-02T10:29:32Z</time>
      </trkpt>
      <trkpt lat="42.5882580" lon="-7.1920980">
        <ele>614.1</ele>
        <time>2014-10-02T10:29:33Z</time>
      </trkpt>
      <trkpt lat="42.5882920" lon="-7.1922240">
        <ele>613.8</ele>
        <time>2014-10-02T10:29:34Z</time>
      </trkpt>
      <trkpt lat="42.5883150" lon="-7.1923370">
        <ele>613.8</ele>
        <time>2014-10-02T10:29:35Z</time>
      </trkpt>
      <trkpt lat="42.5883280" lon="-7.1924430">
        <ele>613.3</ele>
        <time>2014-10-02T10:29:36Z</time>
      </trkpt>
      <trkpt lat="42.5883410" lon="-7.1925640">
        <ele>612.8</ele>
        <time>2014-10-02T10:29:37Z</time>
      </trkpt>
      <trkpt lat="42.5883310" lon="-7.1926990">
        <ele>612.5</ele>
        <time>2014-10-02T10:29:38Z</time>
      </trkpt>
      <trkpt lat="42.5883420" lon="-7.1928250">
        <ele>612.2</ele>
        <time>2014-10-02T10:29:39Z</time>
      </trkpt>
      <trkpt lat="42.5883790" lon="-7.1929310">
        <ele>612.1</ele>
        <time>2014-10-02T10:29:40Z</time>
      </trkpt>
      <trkpt lat="42.5884190" lon="-7.1930320">
        <ele>611.8</ele>
        <time>2014-10-02T10:29:41Z</time>
      </trkpt>
      <trkpt lat="42.5884580" lon="-7.1931280">
        <ele>611.5</ele>
        <time>2014-10-02T10:29:42Z</time>
      </trkpt>
      <trkpt lat="42.5884980" lon="-7.1932110">
        <ele>611.2</ele>
        <time>2014-10-02T10:29:43Z</time>
      </trkpt>
      <trkpt lat="42.5885450" lon="-7.1932990">
        <ele>611.5</ele>
        <time>2014-10-02T10:29:44Z</time>
      </trkpt>
      <trkpt lat="42.5885980" lon="-7.1933920">
        <ele>611.8</ele>
        <time>2014-10-02T10:29:45Z</time>
      </trkpt>
      <trkpt lat="42.5886470" lon="-7.1934740">
        <ele>612.0</ele>
        <time>2014-10-02T10:29:46Z</time>
      </trkpt>
      <trkpt lat="42.5887070" lon="-7.1935590">
        <ele>612.3</ele>
        <time>2014-10-02T10:29:47Z</time>
      </trkpt>
      <trkpt lat="42.5887630" lon="-7.1936390">
        <ele>612.6</ele>
        <time>2014-10-02T10:29:48Z</time>
      </trkpt>
      <trkpt lat="42.5888180" lon="-7.1937190">
        <ele>612.8</ele>
        <time>2014-10-02T10:29:49Z</time>
      </trkpt>
      <trkpt lat="42.5888730" lon="-7.1938030">
        <ele>613.1</ele>
        <time>2014-10-02T10:29:50Z</time>
      </trkpt>
      <trkpt lat="42.5889260" lon="-7.1938860">
        <ele>613.4</ele>
        <time>2014-10-02T10:29:51Z</time>
      </trkpt>
      <trkpt lat="42.5889760" lon="-7.1939680">
        <ele>613.8</ele>
        <time>2014-10-02T10:29:52Z</time>
      </trkpt>
      <trkpt lat="42.5890250" lon="-7.1940500">
        <ele>614.3</ele>
        <time>2014-10-02T10:29:53Z</time>
      </trkpt>
      <trkpt lat="42.5890760" lon="-7.1941360">
        <ele>614.9</ele>
        <time>2014-10-02T10:29:54Z</time>
      </trkpt>
      <trkpt lat="42.5891310" lon="-7.1942220">
        <ele>615.6</ele>
        <time>2014-10-02T10:29:55Z</time>
      </trkpt>
      <trkpt lat="42.5891840" lon="-7.1943070">
        <ele>616.4</ele>
        <time>2014-10-02T10:29:56Z</time>
      </trkpt>
      <trkpt lat="42.5892170" lon="-7.1943850">
        <ele>617.0</ele>
        <time>2014-10-02T10:29:57Z</time>
      </trkpt>
      <trkpt lat="42.5892500" lon="-7.1944620">
        <ele>617.7</ele>
        <time>2014-10-02T10:29:58Z</time>
      </trkpt>
      <trkpt lat="42.5892810" lon="-7.1945300">
        <ele>618.2</ele>
        <time>2014-10-02T10:29:59Z</time>
      </trkpt>
      <trkpt lat="42.5892960" lon="-7.1946030">
        <ele>618.7</ele>
        <time>2014-10-02T10:30:00Z</time>
      </trkpt>
      <trkpt lat="42.5893210" lon="-7.1946780">
        <ele>619.1</ele>
        <time>2014-10-02T10:30:01Z</time>
      </trkpt>
      <trkpt lat="42.5893500" lon="-7.1947560">
        <ele>619.5</ele>
        <time>2014-10-02T10:30:02Z</time>
      </trkpt>
      <trkpt lat="42.5893660" lon="-7.1948340">
        <ele>619.6</ele>
        <time>2014-10-02T10:30:03Z</time>
      </trkpt>
      <trkpt lat="42.5893800" lon="-7.1949210">
        <ele>619.4</ele>
        <time>2014-10-02T10:30:04Z</time>
      </trkpt>
      <trkpt lat="42.5893960" lon="-7.1949960">
        <ele>619.1</ele>
        <time>2014-10-02T10:30:05Z</time>
      </trkpt>
      <trkpt lat="42.5894090" lon="-7.1950680">
        <ele>618.9</ele>
        <time>2014-10-02T10:30:06Z</time>
      </trkpt>
      <trkpt lat="42.5894100" lon="-7.1951430">
        <ele>618.3</ele>
        <time>2014-10-02T10:30:07Z</time>
      </trkpt>
      <trkpt lat="42.5894130" lon="-7.1952170">
        <ele>617.8</ele>
        <time>2014-10-02T10:30:08Z</time>
      </trkpt>
      <trkpt lat="42.5894090" lon="-7.1953010">
        <ele>617.1</ele>
        <time>2014-10-02T10:30:09Z</time>
      </trkpt>
      <trkpt lat="42.5894060" lon="-7.1953840">
        <ele>616.5</ele>
        <time>2014-10-02T10:30:10Z</time>
      </trkpt>
      <trkpt lat="42.5894130" lon="-7.1954630">
        <ele>615.9</ele>
        <time>2014-10-02T10:30:11Z</time>
      </trkpt>
      <trkpt lat="42.5894250" lon="-7.1955340">
        <ele>616.1</ele>
        <time>2014-10-02T10:30:12Z</time>
      </trkpt>
      <trkpt lat="42.5894370" lon="-7.1956170">
        <ele>616.5</ele>
        <time>2014-10-02T10:30:13Z</time>
      </trkpt>
      <trkpt lat="42.5894510" lon="-7.1956980">
        <ele>616.7</ele>
        <time>2014-10-02T10:30:14Z</time>
      </trkpt>
      <trkpt lat="42.5894670" lon="-7.1957840">
        <ele>616.9</ele>
        <time>2014-10-02T10:30:15Z</time>
      </trkpt>
      <trkpt lat="42.5894860" lon="-7.1958820">
        <ele>617.0</ele>
        <time>2014-10-02T10:30:16Z</time>
      </trkpt>
      <trkpt lat="42.5895080" lon="-7.1959870">
        <ele>617.1</ele>
        <time>2014-10-02T10:30:17Z</time>
      </trkpt>
      <trkpt lat="42.5895560" lon="-7.1960880">
        <ele>617.1</ele>
        <time>2014-10-02T10:30:18Z</time>
      </trkpt>
      <trkpt lat="42.5896020" lon="-7.1961810">
        <ele>617.1</ele>
        <time>2014-10-02T10:30:19Z</time>
      </trkpt>
      <trkpt lat="42.5896500" lon="-7.1962770">
        <ele>617.1</ele>
        <time>2014-10-02T10:30:20Z</time>
      </trkpt>
      <trkpt lat="42.5896960" lon="-7.1963840">
        <ele>617.0</ele>
        <time>2014-10-02T10:30:21Z</time>
      </trkpt>
      <trkpt lat="42.5897260" lon="-7.1965140">
        <ele>616.8</ele>
        <time>2014-10-02T10:30:22Z</time>
      </trkpt>
      <trkpt lat="42.5897530" lon="-7.1966600">
        <ele>616.5</ele>
        <time>2014-10-02T10:30:23Z</time>
      </trkpt>
      <trkpt lat="42.5897410" lon="-7.1968060">
        <ele>616.2</ele>
        <time>2014-10-02T10:30:24Z</time>
      </trkpt>
      <trkpt lat="42.5897290" lon="-7.1969510">
        <ele>615.2</ele>
        <time>2014-10-02T10:30:25Z</time>
      </trkpt>
      <trkpt lat="42.5897130" lon="-7.1971070">
        <ele>614.0</ele>
        <time>2014-10-02T10:30:26Z</time>
      </trkpt>
      <trkpt lat="42.5896910" lon="-7.1972610">
        <ele>612.9</ele>
        <time>2014-10-02T10:30:27Z</time>
      </trkpt>
      <trkpt lat="42.5896740" lon="-7.1974110">
        <ele>611.7</ele>
        <time>2014-10-02T10:30:28Z</time>
      </trkpt>
      <trkpt lat="42.5896580" lon="-7.1975540">
        <ele>610.6</ele>
        <time>2014-10-02T10:30:29Z</time>
      </trkpt>
      <trkpt lat="42.5896350" lon="-7.1976940">
        <ele>609.6</ele>
        <time>2014-10-02T10:30:30Z</time>
      </trkpt>
      <trkpt lat="42.5896340" lon="-7.1978390">
        <ele>608.7</ele>
        <time>2014-10-02T10:30:31Z</time>
      </trkpt>
      <trkpt lat="42.5896370" lon="-7.1979900">
        <ele>607.6</ele>
        <time>2014-10-02T10:30:32Z</time>
      </trkpt>
      <trkpt lat="42.5896410" lon="-7.1981470">
        <ele>606.4</ele>
        <time>2014-10-02T10:30:33Z</time>
      </trkpt>
      <trkpt lat="42.5896540" lon="-7.1982960">
        <ele>605.4</ele>
        <time>2014-10-02T10:30:34Z</time>
      </trkpt>
      <trkpt lat="42.5896710" lon="-7.1984330">
        <ele>604.5</ele>
        <time>2014-10-02T10:30:35Z</time>
      </trkpt>
      <trkpt lat="42.5896910" lon="-7.1985500">
        <ele>603.8</ele>
        <time>2014-10-02T10:30:36Z</time>
      </trkpt>
      <trkpt lat="42.5897140" lon="-7.1986630">
        <ele>603.1</ele>
        <time>2014-10-02T10:30:37Z</time>
      </trkpt>
      <trkpt lat="42.5897350" lon="-7.1987770">
        <ele>602.4</ele>
        <time>2014-10-02T10:30:38Z</time>
      </trkpt>
      <trkpt lat="42.5897500" lon="-7.1988980">
        <ele>601.7</ele>
        <time>2014-10-02T10:30:39Z</time>
      </trkpt>
      <trkpt lat="42.5897420" lon="-7.1990180">
        <ele>601.0</ele>
        <time>2014-10-02T10:30:40Z</time>
      </trkpt>
      <trkpt lat="42.5897290" lon="-7.1991440">
        <ele>600.4</ele>
        <time>2014-10-02T10:30:41Z</time>
      </trkpt>
      <trkpt lat="42.5897070" lon="-7.1992680">
        <ele>599.7</ele>
        <time>2014-10-02T10:30:42Z</time>
      </trkpt>
      <trkpt lat="42.5896810" lon="-7.1994010">
        <ele>598.9</ele>
        <time>2014-10-02T10:30:43Z</time>
      </trkpt>
      <trkpt lat="42.5896590" lon="-7.1995180">
        <ele>598.1</ele>
        <time>2014-10-02T10:30:44Z</time>
      </trkpt>
      <trkpt lat="42.5896390" lon="-7.1996400">
        <ele>597.6</ele>
        <time>2014-10-02T10:30:45Z</time>
      </trkpt>
      <trkpt lat="42.5896460" lon="-7.1997630">
        <ele>597.3</ele>
        <time>2014-10-02T10:30:46Z</time>
      </trkpt>
      <trkpt lat="42.5896570" lon="-7.1998750">
        <ele>596.8</ele>
        <time>2014-10-02T10:30:47Z</time>
      </trkpt>
      <trkpt lat="42.5896750" lon="-7.1999870">
        <ele>596.2</ele>
        <time>2014-10-02T10:30:48Z</time>
      </trkpt>
      <trkpt lat="42.5897160" lon="-7.2000840">
        <ele>595.7</ele>
        <time>2014-10-02T10:30:49Z</time>
      </trkpt>
      <trkpt lat="42.5897530" lon="-7.2001820">
        <ele>595.2</ele>
        <time>2014-10-02T10:30:50Z</time>
      </trkpt>
      <trkpt lat="42.5897920" lon="-7.2002830">
        <ele>594.7</ele>
        <time>2014-10-02T10:30:51Z</time>
      </trkpt>
      <trkpt lat="42.5898370" lon="-7.2003710">
        <ele>594.2</ele>
        <time>2014-10-02T10:30:52Z</time>
      </trkpt>
      <trkpt lat="42.5898870" lon="-7.2004590">
        <ele>593.8</ele>
        <time>2014-10-02T10:30:53Z</time>
      </trkpt>
      <trkpt lat="42.5899360" lon="-7.2005450">
        <ele>593.3</ele>
        <time>2014-10-02T10:30:54Z</time>
      </trkpt>
      <trkpt lat="42.5899890" lon="-7.2006310">
        <ele>592.9</ele>
        <time>2014-10-02T10:30:55Z</time>
      </trkpt>
      <trkpt lat="42.5900410" lon="-7.2007130">
        <ele>592.5</ele>
        <time>2014-10-02T10:30:56Z</time>
      </trkpt>
      <trkpt lat="42.5900980" lon="-7.2008040">
        <ele>592.0</ele>
        <time>2014-10-02T10:30:57Z</time>
      </trkpt>
      <trkpt lat="42.5901550" lon="-7.2008950">
        <ele>591.4</ele>
        <time>2014-10-02T10:30:58Z</time>
      </trkpt>
      <trkpt lat="42.5902190" lon="-7.2009780">
        <ele>590.9</ele>
        <time>2014-10-02T10:30:59Z</time>
      </trkpt>
      <trkpt lat="42.5902870" lon="-7.2010530">
        <ele>590.3</ele>
        <time>2014-10-02T10:31:00Z</time>
      </trkpt>
      <trkpt lat="42.5903660" lon="-7.2011010">
        <ele>589.9</ele>
        <time>2014-10-02T10:31:01Z</time>
      </trkpt>
      <trkpt lat="42.5904470" lon="-7.2011430">
        <ele>589.4</ele>
        <time>2014-10-02T10:31:02Z</time>
      </trkpt>
      <trkpt lat="42.5905210" lon="-7.2011720">
        <ele>589.0</ele>
        <time>2014-10-02T10:31:03Z</time>
      </trkpt>
      <trkpt lat="42.5905870" lon="-7.2011900">
        <ele>588.6</ele>
        <time>2014-10-02T10:31:04Z</time>
      </trkpt>
      <trkpt lat="42.5906500" lon="-7.2012100">
        <ele>588.1</ele>
        <time>2014-10-02T10:31:05Z</time>
      </trkpt>
      <trkpt lat="42.5907200" lon="-7.2012560">
        <ele>587.3</ele>
        <time>2014-10-02T10:31:06Z</time>
      </trkpt>
      <trkpt lat="42.5907840" lon="-7.2013340">
        <ele>586.4</ele>
        <time>2014-10-02T10:31:07Z</time>
      </trkpt>
      <trkpt lat="42.5908250" lon="-7.2014250">
        <ele>585.4</ele>
        <time>2014-10-02T10:31:08Z</time>
      </trkpt>
      <trkpt lat="42.5908660" lon="-7.2015280">
        <ele>584.1</ele>
        <time>2014-10-02T10:31:09Z</time>
      </trkpt>
      <trkpt lat="42.5909000" lon="-7.2016340">
        <ele>582.9</ele>
        <time>2014-10-02T10:31:10Z</time>
      </trkpt>
      <trkpt lat="42.5909300" lon="-7.2017420">
        <ele>581.9</ele>
        <time>2014-10-02T10:31:11Z</time>
      </trkpt>
      <trkpt lat="42.5909580" lon="-7.2018590">
        <ele>580.7</ele>
        <time>2014-10-02T10:31:12Z</time>
      </trkpt>
      <trkpt lat="42.5909870" lon="-7.2019880">
        <ele>579.6</ele>
        <time>2014-10-02T10:31:13Z</time>
      </trkpt>
      <trkpt lat="42.5910080" lon="-7.2021150">
        <ele>578.6</ele>
        <time>2014-10-02T10:31:14Z</time>
      </trkpt>
      <trkpt lat="42.5910230" lon="-7.2022440">
        <ele>577.6</ele>
        <time>2014-10-02T10:31:15Z</time>
      </trkpt>
      <trkpt lat="42.5910140" lon="-7.2023750">
        <ele>576.6</ele>
        <time>2014-10-02T10:31:16Z</time>
      </trkpt>
      <trkpt lat="42.5910040" lon="-7.2025080">
        <ele>575.6</ele>
        <time>2014-10-02T10:31:17Z</time>
      </trkpt>
      <trkpt lat="42.5909900" lon="-7.2026410">
        <ele>574.6</ele>
        <time>2014-10-02T10:31:18Z</time>
      </trkpt>
      <trkpt lat="42.5909780" lon="-7.2027760">
        <ele>573.7</ele>
        <time>2014-10-02T10:31:19Z</time>
      </trkpt>
      <trkpt lat="42.5909750" lon="-7.2029040">
        <ele>572.9</ele>
        <time>2014-10-02T10:31:20Z</time>
      </trkpt>
      <trkpt lat="42.5909940" lon="-7.2030260">
        <ele>572.0</ele>
        <time>2014-10-02T10:31:21Z</time>
      </trkpt>
      <trkpt lat="42.5910410" lon="-7.2031190">
        <ele>571.0</ele>
        <time>2014-10-02T10:31:22Z</time>
      </trkpt>
      <trkpt lat="42.5910650" lon="-7.2031650">
        <ele>570.4</ele>
        <time>2014-10-02T10:31:23Z</time>
      </trkpt>
      <trkpt lat="42.5911350" lon="-7.2031580">
        <ele>569.7</ele>
        <time>2014-10-02T10:31:24Z</time>
      </trkpt>
      <trkpt lat="42.5911790" lon="-7.2031270">
        <ele>569.3</ele>
        <time>2014-10-02T10:31:25Z</time>
      </trkpt>
      <trkpt lat="42.5912270" lon="-7.2030760">
        <ele>568.9</ele>
        <time>2014-10-02T10:31:26Z</time>
      </trkpt>
      <trkpt lat="42.5912800" lon="-7.2030140">
        <ele>568.5</ele>
        <time>2014-10-02T10:31:27Z</time>
      </trkpt>
      <trkpt lat="42.5913270" lon="-7.2029430">
        <ele>568.3</ele>
        <time>2014-10-02T10:31:28Z</time>
      </trkpt>
      <trkpt lat="42.5913860" lon="-7.2028600">
        <ele>568.1</ele>
        <time>2014-10-02T10:31:29Z</time>
      </trkpt>
      <trkpt lat="42.5914490" lon="-7.2027810">
        <ele>568.1</ele>
        <time>2014-10-02T10:31:30Z</time>
      </trkpt>
      <trkpt lat="42.5915100" lon="-7.2026990">
        <ele>568.0</ele>
        <time>2014-10-02T10:31:31Z</time>
      </trkpt>
      <trkpt lat="42.5915790" lon="-7.2026140">
        <ele>567.8</ele>
        <time>2014-10-02T10:31:32Z</time>
      </trkpt>
      <trkpt lat="42.5916520" lon="-7.2025350">
        <ele>567.5</ele>
        <time>2014-10-02T10:31:33Z</time>
      </trkpt>
      <trkpt lat="42.5917160" lon="-7.2024650">
        <ele>567.2</ele>
        <time>2014-10-02T10:31:34Z</time>
      </trkpt>
      <trkpt lat="42.5917800" lon="-7.2023980">
        <ele>566.9</ele>
        <time>2014-10-02T10:31:35Z</time>
      </trkpt>
      <trkpt lat="42.5918420" lon="-7.2023560">
        <ele>566.7</ele>
        <time>2014-10-02T10:31:36Z</time>
      </trkpt>
      <trkpt lat="42.5919160" lon="-7.2023070">
        <ele>566.5</ele>
        <time>2014-10-02T10:31:37Z</time>
      </trkpt>
      <trkpt lat="42.5919810" lon="-7.2022620">
        <ele>566.5</ele>
        <time>2014-10-02T10:31:38Z</time>
      </trkpt>
      <trkpt lat="42.5920530" lon="-7.2022060">
        <ele>566.6</ele>
        <time>2014-10-02T10:31:39Z</time>
      </trkpt>
      <trkpt lat="42.5921130" lon="-7.2021360">
        <ele>566.6</ele>
        <time>2014-10-02T10:31:40Z</time>
      </trkpt>
      <trkpt lat="42.5921730" lon="-7.2020570">
        <ele>566.7</ele>
        <time>2014-10-02T10:31:41Z</time>
      </trkpt>
      <trkpt lat="42.5922220" lon="-7.2019520">
        <ele>567.0</ele>
        <time>2014-10-02T10:31:42Z</time>
      </trkpt>
      <trkpt lat="42.5922760" lon="-7.2018370">
        <ele>567.5</ele>
        <time>2014-10-02T10:31:43Z</time>
      </trkpt>
      <trkpt lat="42.5923510" lon="-7.2017300">
        <ele>568.0</ele>
        <time>2014-10-02T10:31:44Z</time>
      </trkpt>
      <trkpt lat="42.5924290" lon="-7.2016230">
        <ele>568.2</ele>
        <time>2014-10-02T10:31:45Z</time>
      </trkpt>
      <trkpt lat="42.5925110" lon="-7.2015290">
        <ele>568.2</ele>
        <time>2014-10-02T10:31:46Z</time>
      </trkpt>
      <trkpt lat="42.5925870" lon="-7.2014280">
        <ele>567.8</ele>
        <time>2014-10-02T10:31:47Z</time>
      </trkpt>
      <trkpt lat="42.5926680" lon="-7.2013580">
        <ele>567.1</ele>
        <time>2014-10-02T10:31:48Z</time>
      </trkpt>
      <trkpt lat="42.5927390" lon="-7.2012990">
        <ele>566.4</ele>
        <time>2014-10-02T10:31:49Z</time>
      </trkpt>
      <trkpt lat="42.5928230" lon="-7.2012690">
        <ele>565.6</ele>
        <time>2014-10-02T10:31:50Z</time>
      </trkpt>
      <trkpt lat="42.5929020" lon="-7.2012580">
        <ele>564.8</ele>
        <time>2014-10-02T10:31:51Z</time>
      </trkpt>
      <trkpt lat="42.5929870" lon="-7.2012770">
        <ele>564.0</ele>
        <time>2014-10-02T10:31:52Z</time>
      </trkpt>
      <trkpt lat="42.5930730" lon="-7.2013290">
        <ele>563.3</ele>
        <time>2014-10-02T10:31:53Z</time>
      </trkpt>
      <trkpt lat="42.5931560" lon="-7.2014030">
        <ele>562.6</ele>
        <time>2014-10-02T10:31:54Z</time>
      </trkpt>
      <trkpt lat="42.5932410" lon="-7.2014780">
        <ele>561.8</ele>
        <time>2014-10-02T10:31:55Z</time>
      </trkpt>
      <trkpt lat="42.5933420" lon="-7.2015530">
        <ele>561.0</ele>
        <time>2014-10-02T10:31:56Z</time>
      </trkpt>
      <trkpt lat="42.5934490" lon="-7.2016230">
        <ele>560.0</ele>
        <time>2014-10-02T10:31:57Z</time>
      </trkpt>
      <trkpt lat="42.5935530" lon="-7.2016810">
        <ele>558.9</ele>
        <time>2014-10-02T10:31:58Z</time>
      </trkpt>
      <trkpt lat="42.5936630" lon="-7.2017290">
        <ele>557.8</ele>
        <time>2014-10-02T10:31:59Z</time>
      </trkpt>
      <trkpt lat="42.5937610" lon="-7.2017130">
        <ele>556.8</ele>
        <time>2014-10-02T10:32:00Z</time>
      </trkpt>
      <trkpt lat="42.5938360" lon="-7.2016870">
        <ele>555.9</ele>
        <time>2014-10-02T10:32:01Z</time>
      </trkpt>
      <trkpt lat="42.5939400" lon="-7.2016250">
        <ele>554.8</ele>
        <time>2014-10-02T10:32:02Z</time>
      </trkpt>
      <trkpt lat="42.5940420" lon="-7.2015510">
        <ele>554.1</ele>
        <time>2014-10-02T10:32:03Z</time>
      </trkpt>
      <trkpt lat="42.5941320" lon="-7.2014220">
        <ele>553.7</ele>
        <time>2014-10-02T10:32:04Z</time>
      </trkpt>
      <trkpt lat="42.5942180" lon="-7.2012860">
        <ele>553.4</ele>
        <time>2014-10-02T10:32:05Z</time>
      </trkpt>
      <trkpt lat="42.5942940" lon="-7.2011510">
        <ele>553.3</ele>
        <time>2014-10-02T10:32:06Z</time>
      </trkpt>
      <trkpt lat="42.5943660" lon="-7.2010000">
        <ele>552.9</ele>
        <time>2014-10-02T10:32:07Z</time>
      </trkpt>
      <trkpt lat="42.5944060" lon="-7.2008410">
        <ele>552.3</ele>
        <time>2014-10-02T10:32:08Z</time>
      </trkpt>
      <trkpt lat="42.5944440" lon="-7.2006780">
        <ele>552.2</ele>
        <time>2014-10-02T10:32:09Z</time>
      </trkpt>
      <trkpt lat="42.5944760" lon="-7.2005080">
        <ele>552.0</ele>
        <time>2014-10-02T10:32:10Z</time>
      </trkpt>
      <trkpt lat="42.5945040" lon="-7.2003360">
        <ele>551.9</ele>
        <time>2014-10-02T10:32:11Z</time>
      </trkpt>
      <trkpt lat="42.5945230" lon="-7.2001820">
        <ele>551.7</ele>
        <time>2014-10-02T10:32:12Z</time>
      </trkpt>
      <trkpt lat="42.5945380" lon="-7.2000210">
        <ele>551.6</ele>
        <time>2014-10-02T10:32:13Z</time>
      </trkpt>
      <trkpt lat="42.5945490" lon="-7.1998490">
        <ele>551.7</ele>
        <time>2014-10-02T10:32:14Z</time>
      </trkpt>
      <trkpt lat="42.5945540" lon="-7.1996670">
        <ele>552.0</ele>
        <time>2014-10-02T10:32:15Z</time>
      </trkpt>
      <trkpt lat="42.5945520" lon="-7.1995040">
        <ele>552.3</ele>
        <time>2014-10-02T10:32:16Z</time>
      </trkpt>
      <trkpt lat="42.5945430" lon="-7.1993480">
        <ele>552.6</ele>
        <time>2014-10-02T10:32:17Z</time>
      </trkpt>
      <trkpt lat="42.5945320" lon="-7.1992050">
        <ele>552.9</ele>
        <time>2014-10-02T10:32:18Z</time>
      </trkpt>
      <trkpt lat="42.5945460" lon="-7.1990720">
        <ele>552.9</ele>
        <time>2014-10-02T10:32:19Z</time>
      </trkpt>
      <trkpt lat="42.5945530" lon="-7.1989380">
        <ele>553.0</ele>
        <time>2014-10-02T10:32:20Z</time>
      </trkpt>
      <trkpt lat="42.5945660" lon="-7.1988070">
        <ele>552.5</ele>
        <time>2014-10-02T10:32:21Z</time>
      </trkpt>
      <trkpt lat="42.5945980" lon="-7.1986920">
        <ele>551.7</ele>
        <time>2014-10-02T10:32:22Z</time>
      </trkpt>
      <trkpt lat="42.5946510" lon="-7.1986370">
        <ele>551.0</ele>
        <time>2014-10-02T10:32:23Z</time>
      </trkpt>
      <trkpt lat="42.5946930" lon="-7.1985950">
        <ele>550.6</ele>
        <time>2014-10-02T10:32:24Z</time>
      </trkpt>
      <trkpt lat="42.5947320" lon="-7.1985590">
        <ele>550.2</ele>
        <time>2014-10-02T10:32:25Z</time>
      </trkpt>
      <trkpt lat="42.5947930" lon="-7.1985240">
        <ele>549.8</ele>
        <time>2014-10-02T10:32:26Z</time>
      </trkpt>
      <trkpt lat="42.5948730" lon="-7.1984730">
        <ele>549.6</ele>
        <time>2014-10-02T10:32:27Z</time>
      </trkpt>
      <trkpt lat="42.5949350" lon="-7.1984000">
        <ele>549.7</ele>
        <time>2014-10-02T10:32:28Z</time>
      </trkpt>
      <trkpt lat="42.5949590" lon="-7.1983010">
        <ele>549.9</ele>
        <time>2014-10-02T10:32:29Z</time>
      </trkpt>
      <trkpt lat="42.5949850" lon="-7.1981950">
        <ele>550.4</ele>
        <time>2014-10-02T10:32:30Z</time>
      </trkpt>
      <trkpt lat="42.5950050" lon="-7.1980970">
        <ele>551.0</ele>
        <time>2014-10-02T10:32:31Z</time>
      </trkpt>
      <trkpt lat="42.5950420" lon="-7.1980140">
        <ele>551.5</ele>
        <time>2014-10-02T10:32:32Z</time>
      </trkpt>
      <trkpt lat="42.5950780" lon="-7.1979320">
        <ele>551.9</ele>
        <time>2014-10-02T10:32:33Z</time>
      </trkpt>
      <trkpt lat="42.5951140" lon="-7.1978520">
        <ele>552.4</ele>
        <time>2014-10-02T10:32:34Z</time>
      </trkpt>
      <trkpt lat="42.5951590" lon="-7.1977800">
        <ele>552.8</ele>
        <time>2014-10-02T10:32:35Z</time>
      </trkpt>
      <trkpt lat="42.5952040" lon="-7.1977040">
        <ele>553.1</ele>
        <time>2014-10-02T10:32:36Z</time>
      </trkpt>
      <trkpt lat="42.5952570" lon="-7.1976470">
        <ele>553.3</ele>
        <time>2014-10-02T10:32:37Z</time>
      </trkpt>
      <trkpt lat="42.5953320" lon="-7.1976180">
        <ele>553.3</ele>
        <time>2014-10-02T10:32:38Z</time>
      </trkpt>
      <trkpt lat="42.5953750" lon="-7.1975960">
        <ele>553.3</ele>
        <time>2014-10-02T10:32:39Z</time>
      </trkpt>
      <trkpt lat="42.5954410" lon="-7.1975590">
        <ele>553.3</ele>
        <time>2014-10-02T10:32:41Z</time>
      </trkpt>
      <trkpt lat="42.5955380" lon="-7.1975230">
        <ele>553.4</ele>
        <time>2014-10-02T10:32:42Z</time>
      </trkpt>
      <trkpt lat="42.5956070" lon="-7.1974500">
        <ele>553.6</ele>
        <time>2014-10-02T10:32:43Z</time>
      </trkpt>
      <trkpt lat="42.5956750" lon="-7.1973770">
        <ele>553.9</ele>
        <time>2014-10-02T10:32:44Z</time>
      </trkpt>
      <trkpt lat="42.5957570" lon="-7.1972920">
        <ele>554.4</ele>
        <time>2014-10-02T10:32:45Z</time>
      </trkpt>
      <trkpt lat="42.5958980" lon="-7.1972410">
        <ele>555.1</ele>
        <time>2014-10-02T10:32:46Z</time>
      </trkpt>
      <trkpt lat="42.5960340" lon="-7.1971850">
        <ele>555.7</ele>
        <time>2014-10-02T10:32:47Z</time>
      </trkpt>
      <trkpt lat="42.5961120" lon="-7.1971400">
        <ele>556.1</ele>
        <time>2014-10-02T10:32:48Z</time>
      </trkpt>
      <trkpt lat="42.5962040" lon="-7.1971040">
        <ele>556.3</ele>
        <time>2014-10-02T10:32:49Z</time>
      </trkpt>
      <trkpt lat="42.5963040" lon="-7.1971110">
        <ele>556.2</ele>
        <time>2014-10-02T10:32:50Z</time>
      </trkpt>
      <trkpt lat="42.5963960" lon="-7.1971190">
        <ele>555.9</ele>
        <time>2014-10-02T10:32:51Z</time>
      </trkpt>
      <trkpt lat="42.5964780" lon="-7.1972010">
        <ele>555.2</ele>
        <time>2014-10-02T10:32:52Z</time>
      </trkpt>
      <trkpt lat="42.5967190" lon="-7.1977450">
        <ele>551.3</ele>
        <time>2014-10-02T10:32:56Z</time>
      </trkpt>
      <trkpt lat="42.5967730" lon="-7.1978860">
        <ele>550.7</ele>
        <time>2014-10-02T10:32:57Z</time>
      </trkpt>
      <trkpt lat="42.5967560" lon="-7.1980150">
        <ele>550.5</ele>
        <time>2014-10-02T10:32:58Z</time>
      </trkpt>
      <trkpt lat="42.5967280" lon="-7.1981380">
        <ele>550.3</ele>
        <time>2014-10-02T10:32:59Z</time>
      </trkpt>
      <trkpt lat="42.5966840" lon="-7.1982840">
        <ele>550.0</ele>
        <time>2014-10-02T10:33:00Z</time>
      </trkpt>
      <trkpt lat="42.5966250" lon="-7.1984220">
        <ele>549.9</ele>
        <time>2014-10-02T10:33:01Z</time>
      </trkpt>
      <trkpt lat="42.5965760" lon="-7.1985440">
        <ele>549.7</ele>
        <time>2014-10-02T10:33:02Z</time>
      </trkpt>
      <trkpt lat="42.5965850" lon="-7.1986590">
        <ele>549.4</ele>
        <time>2014-10-02T10:33:03Z</time>
      </trkpt>
      <trkpt lat="42.5966290" lon="-7.1987160">
        <ele>549.2</ele>
        <time>2014-10-02T10:33:04Z</time>
      </trkpt>
      <trkpt lat="42.5966590" lon="-7.1987510">
        <ele>549.0</ele>
        <time>2014-10-02T10:33:05Z</time>
      </trkpt>
      <trkpt lat="42.5966890" lon="-7.1987810">
        <ele>548.7</ele>
        <time>2014-10-02T10:33:06Z</time>
      </trkpt>
      <trkpt lat="42.5967440" lon="-7.1988050">
        <ele>548.4</ele>
        <time>2014-10-02T10:33:07Z</time>
      </trkpt>
      <trkpt lat="42.5968170" lon="-7.1987690">
        <ele>547.9</ele>
        <time>2014-10-02T10:33:08Z</time>
      </trkpt>
      <trkpt lat="42.5968970" lon="-7.1987380">
        <ele>547.4</ele>
        <time>2014-10-02T10:33:09Z</time>
      </trkpt>
      <trkpt lat="42.5969660" lon="-7.1987070">
        <ele>547.0</ele>
        <time>2014-10-02T10:33:10Z</time>
      </trkpt>
      <trkpt lat="42.5970460" lon="-7.1986710">
        <ele>546.6</ele>
        <time>2014-10-02T10:33:11Z</time>
      </trkpt>
      <trkpt lat="42.5971640" lon="-7.1986120">
        <ele>546.0</ele>
        <time>2014-10-02T10:33:12Z</time>
      </trkpt>
      <trkpt lat="42.5972750" lon="-7.1985480">
        <ele>545.5</ele>
        <time>2014-10-02T10:33:13Z</time>
      </trkpt>
      <trkpt lat="42.5973580" lon="-7.1984610">
        <ele>545.2</ele>
        <time>2014-10-02T10:33:14Z</time>
      </trkpt>
      <trkpt lat="42.5974570" lon="-7.1983510">
        <ele>544.7</ele>
        <time>2014-10-02T10:33:15Z</time>
      </trkpt>
      <trkpt lat="42.5975600" lon="-7.1982180">
        <ele>544.1</ele>
        <time>2014-10-02T10:33:16Z</time>
      </trkpt>
      <trkpt lat="42.5976400" lon="-7.1980830">
        <ele>543.7</ele>
        <time>2014-10-02T10:33:17Z</time>
      </trkpt>
      <trkpt lat="42.5977230" lon="-7.1979520">
        <ele>543.2</ele>
        <time>2014-10-02T10:33:18Z</time>
      </trkpt>
      <trkpt lat="42.5977890" lon="-7.1978320">
        <ele>542.7</ele>
        <time>2014-10-02T10:33:19Z</time>
      </trkpt>
      <trkpt lat="42.5978580" lon="-7.1977000">
        <ele>542.2</ele>
        <time>2014-10-02T10:33:20Z</time>
      </trkpt>
      <trkpt lat="42.5979140" lon="-7.1975520">
        <ele>541.7</ele>
        <time>2014-10-02T10:33:21Z</time>
      </trkpt>
      <trkpt lat="42.5979690" lon="-7.1973990">
        <ele>541.2</ele>
        <time>2014-10-02T10:33:22Z</time>
      </trkpt>
      <trkpt lat="42.5980210" lon="-7.1972500">
        <ele>540.7</ele>
        <time>2014-10-02T10:33:23Z</time>
      </trkpt>
      <trkpt lat="42.5980660" lon="-7.1971130">
        <ele>540.3</ele>
        <time>2014-10-02T10:33:24Z</time>
      </trkpt>
      <trkpt lat="42.5981060" lon="-7.1969840">
        <ele>539.9</ele>
        <time>2014-10-02T10:33:25Z</time>
      </trkpt>
      <trkpt lat="42.5981460" lon="-7.1968550">
        <ele>539.6</ele>
        <time>2014-10-02T10:33:26Z</time>
      </trkpt>
      <trkpt lat="42.5981920" lon="-7.1967060">
        <ele>539.3</ele>
        <time>2014-10-02T10:33:27Z</time>
      </trkpt>
      <trkpt lat="42.5982480" lon="-7.1965510">
        <ele>539.0</ele>
        <time>2014-10-02T10:33:28Z</time>
      </trkpt>
      <trkpt lat="42.5983010" lon="-7.1963990">
        <ele>538.9</ele>
        <time>2014-10-02T10:33:29Z</time>
      </trkpt>
      <trkpt lat="42.5983830" lon="-7.1962860">
        <ele>538.6</ele>
        <time>2014-10-02T10:33:30Z</time>
      </trkpt>
      <trkpt lat="42.5984480" lon="-7.1961810">
        <ele>538.3</ele>
        <time>2014-10-02T10:33:31Z</time>
      </trkpt>
      <trkpt lat="42.5985070" lon="-7.1960720">
        <ele>537.9</ele>
        <time>2014-10-02T10:33:32Z</time>
      </trkpt>
      <trkpt lat="42.5985070" lon="-7.1959420">
        <ele>537.4</ele>
        <time>2014-10-02T10:33:33Z</time>
      </trkpt>
      <trkpt lat="42.5985140" lon="-7.1957930">
        <ele>536.9</ele>
        <time>2014-10-02T10:33:34Z</time>
      </trkpt>
      <trkpt lat="42.5985240" lon="-7.1956240">
        <ele>536.3</ele>
        <time>2014-10-02T10:33:35Z</time>
      </trkpt>
      <trkpt lat="42.5985460" lon="-7.1954740">
        <ele>536.0</ele>
        <time>2014-10-02T10:33:36Z</time>
      </trkpt>
      <trkpt lat="42.5985740" lon="-7.1953500">
        <ele>536.4</ele>
        <time>2014-10-02T10:33:37Z</time>
      </trkpt>
      <trkpt lat="42.5986000" lon="-7.1952360">
        <ele>537.0</ele>
        <time>2014-10-02T10:33:38Z</time>
      </trkpt>
      <trkpt lat="42.5986390" lon="-7.1951410">
        <ele>537.0</ele>
        <time>2014-10-02T10:33:39Z</time>
      </trkpt>
      <trkpt lat="42.5986750" lon="-7.1950660">
        <ele>535.8</ele>
        <time>2014-10-02T10:33:40Z</time>
      </trkpt>
      <trkpt lat="42.5987310" lon="-7.1950530">
        <ele>535.1</ele>
        <time>2014-10-02T10:33:41Z</time>
      </trkpt>
      <trkpt lat="42.5987780" lon="-7.1950830">
        <ele>534.6</ele>
        <time>2014-10-02T10:33:42Z</time>
      </trkpt>
      <trkpt lat="42.5988180" lon="-7.1951260">
        <ele>534.2</ele>
        <time>2014-10-02T10:33:43Z</time>
      </trkpt>
      <trkpt lat="42.5988570" lon="-7.1951670">
        <ele>533.8</ele>
        <time>2014-10-02T10:33:44Z</time>
      </trkpt>
      <trkpt lat="42.5988780" lon="-7.1951940">
        <ele>533.6</ele>
        <time>2014-10-02T10:33:45Z</time>
      </trkpt>
      <trkpt lat="42.5989040" lon="-7.1952090">
        <ele>533.4</ele>
        <time>2014-10-02T10:33:46Z</time>
      </trkpt>
      <trkpt lat="42.5989440" lon="-7.1952020">
        <ele>533.2</ele>
        <time>2014-10-02T10:33:47Z</time>
      </trkpt>
      <trkpt lat="42.5989810" lon="-7.1951820">
        <ele>532.9</ele>
        <time>2014-10-02T10:33:48Z</time>
      </trkpt>
      <trkpt lat="42.5990410" lon="-7.1951510">
        <ele>532.6</ele>
        <time>2014-10-02T10:33:49Z</time>
      </trkpt>
      <trkpt lat="42.5991100" lon="-7.1951040">
        <ele>532.1</ele>
        <time>2014-10-02T10:33:50Z</time>
      </trkpt>
      <trkpt lat="42.5991660" lon="-7.1950630">
        <ele>531.8</ele>
        <time>2014-10-02T10:33:51Z</time>
      </trkpt>
      <trkpt lat="42.5992390" lon="-7.1950280">
        <ele>531.4</ele>
        <time>2014-10-02T10:33:52Z</time>
      </trkpt>
      <trkpt lat="42.5993140" lon="-7.1949930">
        <ele>531.0</ele>
        <time>2014-10-02T10:33:53Z</time>
      </trkpt>
      <trkpt lat="42.5993750" lon="-7.1949650">
        <ele>530.7</ele>
        <time>2014-10-02T10:33:54Z</time>
      </trkpt>
      <trkpt lat="42.5994390" lon="-7.1949450">
        <ele>530.4</ele>
        <time>2014-10-02T10:33:55Z</time>
      </trkpt>
      <trkpt lat="42.5995320" lon="-7.1949340">
        <ele>530.0</ele>
        <time>2014-10-02T10:33:56Z</time>
      </trkpt>
      <trkpt lat="42.5996400" lon="-7.1949190">
        <ele>529.7</ele>
        <time>2014-10-02T10:33:57Z</time>
      </trkpt>
      <trkpt lat="42.5997730" lon="-7.1949030">
        <ele>529.5</ele>
        <time>2014-10-02T10:33:58Z</time>
      </trkpt>
      <trkpt lat="42.5999140" lon="-7.1948830">
        <ele>529.3</ele>
        <time>2014-10-02T10:33:59Z</time>
      </trkpt>
      <trkpt lat="42.5999620" lon="-7.1948270">
        <ele>529.2</ele>
        <time>2014-10-02T10:34:00Z</time>
      </trkpt>
      <trkpt lat="42.6000160" lon="-7.1947750">
        <ele>529.3</ele>
        <time>2014-10-02T10:34:01Z</time>
      </trkpt>
      <trkpt lat="42.6000580" lon="-7.1947260">
        <ele>529.4</ele>
        <time>2014-10-02T10:34:02Z</time>
      </trkpt>
      <trkpt lat="42.6001000" lon="-7.1946730">
        <ele>529.5</ele>
        <time>2014-10-02T10:34:03Z</time>
      </trkpt>
      <trkpt lat="42.6001460" lon="-7.1946140">
        <ele>529.8</ele>
        <time>2014-10-02T10:34:04Z</time>
      </trkpt>
      <trkpt lat="42.6001830" lon="-7.1945650">
        <ele>530.0</ele>
        <time>2014-10-02T10:34:05Z</time>
      </trkpt>
      <trkpt lat="42.6002180" lon="-7.1945180">
        <ele>530.2</ele>
        <time>2014-10-02T10:34:06Z</time>
      </trkpt>
      <trkpt lat="42.6002500" lon="-7.1944750">
        <ele>530.4</ele>
        <time>2014-10-02T10:34:07Z</time>
      </trkpt>
      <trkpt lat="42.6002950" lon="-7.1944330">
        <ele>530.7</ele>
        <time>2014-10-02T10:34:08Z</time>
      </trkpt>
      <trkpt lat="42.6003500" lon="-7.1943750">
        <ele>531.0</ele>
        <time>2014-10-02T10:34:09Z</time>
      </trkpt>
      <trkpt lat="42.6003900" lon="-7.1943390">
        <ele>531.3</ele>
        <time>2014-10-02T10:34:10Z</time>
      </trkpt>
      <trkpt lat="42.6004290" lon="-7.1943150">
        <ele>531.6</ele>
        <time>2014-10-02T10:34:12Z</time>
      </trkpt>
      <trkpt lat="42.6004590" lon="-7.1943160">
        <ele>531.7</ele>
        <time>2014-10-02T10:34:14Z</time>
      </trkpt>
      <trkpt lat="42.6005120" lon="-7.1944460">
        <ele>532.3</ele>
        <time>2014-10-02T10:34:22Z</time>
      </trkpt>
      <trkpt lat="42.6005990" lon="-7.1945330">
        <ele>532.6</ele>
        <time>2014-10-02T10:34:27Z</time>
      </trkpt>
      <trkpt lat="42.6006530" lon="-7.1946330">
        <ele>532.9</ele>
        <time>2014-10-02T10:34:33Z</time>
      </trkpt>
      <trkpt lat="42.6007430" lon="-7.1947060">
        <ele>533.1</ele>
        <time>2014-10-02T10:34:37Z</time>
      </trkpt>
      <trkpt lat="42.6008680" lon="-7.1947820">
        <ele>533.6</ele>
        <time>2014-10-02T10:34:40Z</time>
      </trkpt>
      <trkpt lat="42.6009200" lon="-7.1948050">
        <ele>533.8</ele>
        <time>2014-10-02T10:34:41Z</time>
      </trkpt>
      <trkpt lat="42.6009700" lon="-7.1948180">
        <ele>534.0</ele>
        <time>2014-10-02T10:34:42Z</time>
      </trkpt>
      <trkpt lat="42.6010200" lon="-7.1948320">
        <ele>534.2</ele>
        <time>2014-10-02T10:34:43Z</time>
      </trkpt>
      <trkpt lat="42.6010620" lon="-7.1948450">
        <ele>534.4</ele>
        <time>2014-10-02T10:34:44Z</time>
      </trkpt>
      <trkpt lat="42.6011090" lon="-7.1948600">
        <ele>534.5</ele>
        <time>2014-10-02T10:34:45Z</time>
      </trkpt>
      <trkpt lat="42.6011530" lon="-7.1948660">
        <ele>534.6</ele>
        <time>2014-10-02T10:34:46Z</time>
      </trkpt>
      <trkpt lat="42.6011940" lon="-7.1948730">
        <ele>534.7</ele>
        <time>2014-10-02T10:34:47Z</time>
      </trkpt>
      <trkpt lat="42.6012350" lon="-7.1948760">
        <ele>534.8</ele>
        <time>2014-10-02T10:34:48Z</time>
      </trkpt>
      <trkpt lat="42.6012820" lon="-7.1948760">
        <ele>535.0</ele>
        <time>2014-10-02T10:34:49Z</time>
      </trkpt>
      <trkpt lat="42.6013250" lon="-7.1948750">
        <ele>535.1</ele>
        <time>2014-10-02T10:34:50Z</time>
      </trkpt>
      <trkpt lat="42.6013540" lon="-7.1948750">
        <ele>535.3</ele>
        <time>2014-10-02T10:34:51Z</time>
      </trkpt>
      <trkpt lat="42.6013940" lon="-7.1948750">
        <ele>535.5</ele>
        <time>2014-10-02T10:34:52Z</time>
      </trkpt>
      <trkpt lat="42.6014310" lon="-7.1948740">
        <ele>535.7</ele>
        <time>2014-10-02T10:34:53Z</time>
      </trkpt>
      <trkpt lat="42.6014620" lon="-7.1948710">
        <ele>535.8</ele>
        <time>2014-10-02T10:34:54Z</time>
      </trkpt>
      <trkpt lat="42.6014950" lon="-7.1948690">
        <ele>536.0</ele>
        <time>2014-10-02T10:34:55Z</time>
      </trkpt>
      <trkpt lat="42.6015270" lon="-7.1948670">
        <ele>536.1</ele>
        <time>2014-10-02T10:34:56Z</time>
      </trkpt>
      <trkpt lat="42.6015650" lon="-7.1948660">
        <ele>536.3</ele>
        <time>2014-10-02T10:34:57Z</time>
      </trkpt>
      <trkpt lat="42.6016010" lon="-7.1948660">
        <ele>536.4</ele>
        <time>2014-10-02T10:34:58Z</time>
      </trkpt>
      <trkpt lat="42.6017300" lon="-7.1948680">
        <ele>536.8</ele>
        <time>2014-10-02T10:35:01Z</time>
      </trkpt>
      <trkpt lat="42.6017580" lon="-7.1948690">
        <ele>536.9</ele>
        <time>2014-10-02T10:35:02Z</time>
      </trkpt>
      <trkpt lat="42.6018570" lon="-7.1948550">
        <ele>537.2</ele>
        <time>2014-10-02T10:35:06Z</time>
      </trkpt>
      <trkpt lat="42.6019060" lon="-7.1948490">
        <ele>537.4</ele>
        <time>2014-10-02T10:35:07Z</time>
      </trkpt>
      <trkpt lat="42.6019550" lon="-7.1948410">
        <ele>537.5</ele>
        <time>2014-10-02T10:35:08Z</time>
      </trkpt>
      <trkpt lat="42.6019940" lon="-7.1948330">
        <ele>537.5</ele>
        <time>2014-10-02T10:35:09Z</time>
      </trkpt>
      <trkpt lat="42.6020350" lon="-7.1948200">
        <ele>537.5</ele>
        <time>2014-10-02T10:35:10Z</time>
      </trkpt>
      <trkpt lat="42.6020730" lon="-7.1948050">
        <ele>537.5</ele>
        <time>2014-10-02T10:35:11Z</time>
      </trkpt>
      <trkpt lat="42.6021160" lon="-7.1947860">
        <ele>537.5</ele>
        <time>2014-10-02T10:35:12Z</time>
      </trkpt>
      <trkpt lat="42.6021530" lon="-7.1947660">
        <ele>537.5</ele>
        <time>2014-10-02T10:35:13Z</time>
      </trkpt>
      <trkpt lat="42.6021920" lon="-7.1947420">
        <ele>537.4</ele>
        <time>2014-10-02T10:35:14Z</time>
      </trkpt>
      <trkpt lat="42.6022320" lon="-7.1947220">
        <ele>537.3</ele>
        <time>2014-10-02T10:35:15Z</time>
      </trkpt>
      <trkpt lat="42.6022730" lon="-7.1947020">
        <ele>537.2</ele>
        <time>2014-10-02T10:35:16Z</time>
      </trkpt>
      <trkpt lat="42.6023280" lon="-7.1946790">
        <ele>537.0</ele>
        <time>2014-10-02T10:35:17Z</time>
      </trkpt>
      <trkpt lat="42.6023710" lon="-7.1946610">
        <ele>536.8</ele>
        <time>2014-10-02T10:35:18Z</time>
      </trkpt>
      <trkpt lat="42.6024100" lon="-7.1946440">
        <ele>536.7</ele>
        <time>2014-10-02T10:35:19Z</time>
      </trkpt>
      <trkpt lat="42.6024590" lon="-7.1946380">
        <ele>536.5</ele>
        <time>2014-10-02T10:35:20Z</time>
      </trkpt>
      <trkpt lat="42.6025110" lon="-7.1946290">
        <ele>536.3</ele>
        <time>2014-10-02T10:35:21Z</time>
      </trkpt>
      <trkpt lat="42.6025670" lon="-7.1946300">
        <ele>536.1</ele>
        <time>2014-10-02T10:35:22Z</time>
      </trkpt>
      <trkpt lat="42.6026350" lon="-7.1946310">
        <ele>535.9</ele>
        <time>2014-10-02T10:35:23Z</time>
      </trkpt>
      <trkpt lat="42.6027060" lon="-7.1946360">
        <ele>535.6</ele>
        <time>2014-10-02T10:35:24Z</time>
      </trkpt>
      <trkpt lat="42.6027610" lon="-7.1946480">
        <ele>535.4</ele>
        <time>2014-10-02T10:35:25Z</time>
      </trkpt>
      <trkpt lat="42.6028130" lon="-7.1946620">
        <ele>535.3</ele>
        <time>2014-10-02T10:35:26Z</time>
      </trkpt>
      <trkpt lat="42.6028650" lon="-7.1946730">
        <ele>535.1</ele>
        <time>2014-10-02T10:35:27Z</time>
      </trkpt>
      <trkpt lat="42.6029180" lon="-7.1946870">
        <ele>534.8</ele>
        <time>2014-10-02T10:35:28Z</time>
      </trkpt>
      <trkpt lat="42.6029750" lon="-7.1947010">
        <ele>534.6</ele>
        <time>2014-10-02T10:35:29Z</time>
      </trkpt>
      <trkpt lat="42.6030330" lon="-7.1947160">
        <ele>534.3</ele>
        <time>2014-10-02T10:35:30Z</time>
      </trkpt>
      <trkpt lat="42.6030890" lon="-7.1947210">
        <ele>534.1</ele>
        <time>2014-10-02T10:35:31Z</time>
      </trkpt>
      <trkpt lat="42.6031480" lon="-7.1947260">
        <ele>533.9</ele>
        <time>2014-10-02T10:35:32Z</time>
      </trkpt>
      <trkpt lat="42.6032090" lon="-7.1947130">
        <ele>533.6</ele>
        <time>2014-10-02T10:35:33Z</time>
      </trkpt>
      <trkpt lat="42.6032740" lon="-7.1947010">
        <ele>533.3</ele>
        <time>2014-10-02T10:35:34Z</time>
      </trkpt>
      <trkpt lat="42.6033340" lon="-7.1946880">
        <ele>533.0</ele>
        <time>2014-10-02T10:35:35Z</time>
      </trkpt>
      <trkpt lat="42.6034090" lon="-7.1946670">
        <ele>532.7</ele>
        <time>2014-10-02T10:35:36Z</time>
      </trkpt>
      <trkpt lat="42.6034680" lon="-7.1946490">
        <ele>532.5</ele>
        <time>2014-10-02T10:35:37Z</time>
      </trkpt>
      <trkpt lat="42.6035200" lon="-7.1946290">
        <ele>532.3</ele>
        <time>2014-10-02T10:35:38Z</time>
      </trkpt>
      <trkpt lat="42.6035810" lon="-7.1946100">
        <ele>532.0</ele>
        <time>2014-10-02T10:35:39Z</time>
      </trkpt>
      <trkpt lat="42.6036510" lon="-7.1945850">
        <ele>531.8</ele>
        <time>2014-10-02T10:35:40Z</time>
      </trkpt>
      <trkpt lat="42.6037210" lon="-7.1945600">
        <ele>531.6</ele>
        <time>2014-10-02T10:35:41Z</time>
      </trkpt>
      <trkpt lat="42.6037680" lon="-7.1945260">
        <ele>531.5</ele>
        <time>2014-10-02T10:35:42Z</time>
      </trkpt>
      <trkpt lat="42.6038230" lon="-7.1944870">
        <ele>531.4</ele>
        <time>2014-10-02T10:35:43Z</time>
      </trkpt>
      <trkpt lat="42.6038700" lon="-7.1944420">
        <ele>531.3</ele>
        <time>2014-10-02T10:35:44Z</time>
      </trkpt>
      <trkpt lat="42.6039150" lon="-7.1943950">
        <ele>531.3</ele>
        <time>2014-10-02T10:35:45Z</time>
      </trkpt>
      <trkpt lat="42.6039520" lon="-7.1943520">
        <ele>531.2</ele>
        <time>2014-10-02T10:35:46Z</time>
      </trkpt>
      <trkpt lat="42.6039990" lon="-7.1943020">
        <ele>531.2</ele>
        <time>2014-10-02T10:35:47Z</time>
      </trkpt>
      <trkpt lat="42.6040330" lon="-7.1942560">
        <ele>531.3</ele>
        <time>2014-10-02T10:35:48Z</time>
      </trkpt>
      <trkpt lat="42.6040570" lon="-7.1942120">
        <ele>531.4</ele>
        <time>2014-10-02T10:35:49Z</time>
      </trkpt>
      <trkpt lat="42.6040840" lon="-7.1941650">
        <ele>531.5</ele>
        <time>2014-10-02T10:35:50Z</time>
      </trkpt>
      <trkpt lat="42.6041090" lon="-7.1941170">
        <ele>531.6</ele>
        <time>2014-10-02T10:35:51Z</time>
      </trkpt>
      <trkpt lat="42.6041220" lon="-7.1940690">
        <ele>531.8</ele>
        <time>2014-10-02T10:35:52Z</time>
      </trkpt>
      <trkpt lat="42.6041360" lon="-7.1940330">
        <ele>531.9</ele>
        <time>2014-10-02T10:35:53Z</time>
      </trkpt>
      <trkpt lat="42.6041540" lon="-7.1939960">
        <ele>532.0</ele>
        <time>2014-10-02T10:35:54Z</time>
      </trkpt>
      <trkpt lat="42.6041830" lon="-7.1939580">
        <ele>532.2</ele>
        <time>2014-10-02T10:35:55Z</time>
      </trkpt>
      <trkpt lat="42.6042150" lon="-7.1939210">
        <ele>532.4</ele>
        <time>2014-10-02T10:35:56Z</time>
      </trkpt>
      <trkpt lat="42.6042350" lon="-7.1938850">
        <ele>532.5</ele>
        <time>2014-10-02T10:35:57Z</time>
      </trkpt>
      <trkpt lat="42.6042580" lon="-7.1938470">
        <ele>532.7</ele>
        <time>2014-10-02T10:35:58Z</time>
      </trkpt>
      <trkpt lat="42.6042730" lon="-7.1938150">
        <ele>532.8</ele>
        <time>2014-10-02T10:35:59Z</time>
      </trkpt>
      <trkpt lat="42.6043000" lon="-7.1937590">
        <ele>533.0</ele>
        <time>2014-10-02T10:36:01Z</time>
      </trkpt>
      <trkpt lat="42.6043250" lon="-7.1937250">
        <ele>533.1</ele>
        <time>2014-10-02T10:36:02Z</time>
      </trkpt>
      <trkpt lat="42.6043480" lon="-7.1936970">
        <ele>533.3</ele>
        <time>2014-10-02T10:36:03Z</time>
      </trkpt>
      <trkpt lat="42.6043720" lon="-7.1936670">
        <ele>533.4</ele>
        <time>2014-10-02T10:36:04Z</time>
      </trkpt>
      <trkpt lat="42.6044050" lon="-7.1936130">
        <ele>533.7</ele>
        <time>2014-10-02T10:36:06Z</time>
      </trkpt>
      <trkpt lat="42.6044360" lon="-7.1935860">
        <ele>533.8</ele>
        <time>2014-10-02T10:36:07Z</time>
      </trkpt>
      <trkpt lat="42.6044600" lon="-7.1935630">
        <ele>533.9</ele>
        <time>2014-10-02T10:36:08Z</time>
      </trkpt>
      <trkpt lat="42.6045070" lon="-7.1935230">
        <ele>534.2</ele>
        <time>2014-10-02T10:36:10Z</time>
      </trkpt>
      <trkpt lat="42.6045590" lon="-7.1934900">
        <ele>534.3</ele>
        <time>2014-10-02T10:36:12Z</time>
      </trkpt>
      <trkpt lat="42.6045830" lon="-7.1934720">
        <ele>534.4</ele>
        <time>2014-10-02T10:36:13Z</time>
      </trkpt>
      <trkpt lat="42.6046080" lon="-7.1934520">
        <ele>534.4</ele>
        <time>2014-10-02T10:36:14Z</time>
      </trkpt>
      <trkpt lat="42.6046670" lon="-7.1934080">
        <ele>534.6</ele>
        <time>2014-10-02T10:36:16Z</time>
      </trkpt>
      <trkpt lat="42.6047030" lon="-7.1933860">
        <ele>534.7</ele>
        <time>2014-10-02T10:36:17Z</time>
      </trkpt>
      <trkpt lat="42.6047310" lon="-7.1933680">
        <ele>534.8</ele>
        <time>2014-10-02T10:36:18Z</time>
      </trkpt>
      <trkpt lat="42.6047720" lon="-7.1933250">
        <ele>535.1</ele>
        <time>2014-10-02T10:36:20Z</time>
      </trkpt>
      <trkpt lat="42.6047970" lon="-7.1932960">
        <ele>535.2</ele>
        <time>2014-10-02T10:36:21Z</time>
      </trkpt>
      <trkpt lat="42.6048230" lon="-7.1932650">
        <ele>535.3</ele>
        <time>2014-10-02T10:36:22Z</time>
      </trkpt>
      <trkpt lat="42.6048450" lon="-7.1932360">
        <ele>535.5</ele>
        <time>2014-10-02T10:36:23Z</time>
      </trkpt>
      <trkpt lat="42.6049090" lon="-7.1932160">
        <ele>535.7</ele>
        <time>2014-10-02T10:36:24Z</time>
      </trkpt>
      <trkpt lat="42.6049560" lon="-7.1931940">
        <ele>535.8</ele>
        <time>2014-10-02T10:36:25Z</time>
      </trkpt>
      <trkpt lat="42.6049800" lon="-7.1931620">
        <ele>535.9</ele>
        <time>2014-10-02T10:36:26Z</time>
      </trkpt>
      <trkpt lat="42.6049810" lon="-7.1931220">
        <ele>536.0</ele>
        <time>2014-10-02T10:36:27Z</time>
      </trkpt>
      <trkpt lat="42.6049900" lon="-7.1930790">
        <ele>536.1</ele>
        <time>2014-10-02T10:36:28Z</time>
      </trkpt>
      <trkpt lat="42.6050000" lon="-7.1930410">
        <ele>536.2</ele>
        <time>2014-10-02T10:36:29Z</time>
      </trkpt>
      <trkpt lat="42.6050170" lon="-7.1930000">
        <ele>536.4</ele>
        <time>2014-10-02T10:36:30Z</time>
      </trkpt>
      <trkpt lat="42.6050330" lon="-7.1929660">
        <ele>536.5</ele>
        <time>2014-10-02T10:36:31Z</time>
      </trkpt>
      <trkpt lat="42.6050530" lon="-7.1929260">
        <ele>536.6</ele>
        <time>2014-10-02T10:36:32Z</time>
      </trkpt>
      <trkpt lat="42.6050740" lon="-7.1928880">
        <ele>536.7</ele>
        <time>2014-10-02T10:36:33Z</time>
      </trkpt>
      <trkpt lat="42.6050950" lon="-7.1928540">
        <ele>536.8</ele>
        <time>2014-10-02T10:36:34Z</time>
      </trkpt>
      <trkpt lat="42.6051310" lon="-7.1927930">
        <ele>537.0</ele>
        <time>2014-10-02T10:36:36Z</time>
      </trkpt>
      <trkpt lat="42.6051530" lon="-7.1927530">
        <ele>537.1</ele>
        <time>2014-10-02T10:36:37Z</time>
      </trkpt>
      <trkpt lat="42.6051770" lon="-7.1927050">
        <ele>537.2</ele>
        <time>2014-10-02T10:36:38Z</time>
      </trkpt>
      <trkpt lat="42.6051960" lon="-7.1926590">
        <ele>537.3</ele>
        <time>2014-10-02T10:36:39Z</time>
      </trkpt>
      <trkpt lat="42.6052180" lon="-7.1926090">
        <ele>537.4</ele>
        <time>2014-10-02T10:36:40Z</time>
      </trkpt>
      <trkpt lat="42.6052350" lon="-7.1925690">
        <ele>537.5</ele>
        <time>2014-10-02T10:36:41Z</time>
      </trkpt>
      <trkpt lat="42.6052530" lon="-7.1925270">
        <ele>537.5</ele>
        <time>2014-10-02T10:36:42Z</time>
      </trkpt>
      <trkpt lat="42.6052700" lon="-7.1924840">
        <ele>537.6</ele>
        <time>2014-10-02T10:36:43Z</time>
      </trkpt>
      <trkpt lat="42.6052910" lon="-7.1924410">
        <ele>537.6</ele>
        <time>2014-10-02T10:36:44Z</time>
      </trkpt>
      <trkpt lat="42.6053090" lon="-7.1924040">
        <ele>537.6</ele>
        <time>2014-10-02T10:36:45Z</time>
      </trkpt>
      <trkpt lat="42.6053240" lon="-7.1923650">
        <ele>537.6</ele>
        <time>2014-10-02T10:36:46Z</time>
      </trkpt>
      <trkpt lat="42.6053420" lon="-7.1923150">
        <ele>537.6</ele>
        <time>2014-10-02T10:36:47Z</time>
      </trkpt>
      <trkpt lat="42.6053570" lon="-7.1922690">
        <ele>537.6</ele>
        <time>2014-10-02T10:36:48Z</time>
      </trkpt>
      <trkpt lat="42.6053700" lon="-7.1922260">
        <ele>537.7</ele>
        <time>2014-10-02T10:36:49Z</time>
      </trkpt>
      <trkpt lat="42.6053860" lon="-7.1921760">
        <ele>537.7</ele>
        <time>2014-10-02T10:36:50Z</time>
      </trkpt>
      <trkpt lat="42.6053980" lon="-7.1921340">
        <ele>537.7</ele>
        <time>2014-10-02T10:36:51Z</time>
      </trkpt>
      <trkpt lat="42.6054070" lon="-7.1920960">
        <ele>537.7</ele>
        <time>2014-10-02T10:36:52Z</time>
      </trkpt>
      <trkpt lat="42.6054170" lon="-7.1920550">
        <ele>537.7</ele>
        <time>2014-10-02T10:36:53Z</time>
      </trkpt>
      <trkpt lat="42.6054250" lon="-7.1920130">
        <ele>537.8</ele>
        <time>2014-10-02T10:36:54Z</time>
      </trkpt>
      <trkpt lat="42.6054340" lon="-7.1919680">
        <ele>537.8</ele>
        <time>2014-10-02T10:36:55Z</time>
      </trkpt>
      <trkpt lat="42.6054400" lon="-7.1919230">
        <ele>537.9</ele>
        <time>2014-10-02T10:36:56Z</time>
      </trkpt>
      <trkpt lat="42.6054520" lon="-7.1918420">
        <ele>538.0</ele>
        <time>2014-10-02T10:36:58Z</time>
      </trkpt>
      <trkpt lat="42.6054560" lon="-7.1918060">
        <ele>538.0</ele>
        <time>2014-10-02T10:36:59Z</time>
      </trkpt>
      <trkpt lat="42.6054660" lon="-7.1917640">
        <ele>538.1</ele>
        <time>2014-10-02T10:37:00Z</time>
      </trkpt>
      <trkpt lat="42.6054770" lon="-7.1917200">
        <ele>538.1</ele>
        <time>2014-10-02T10:37:01Z</time>
      </trkpt>
      <trkpt lat="42.6054890" lon="-7.1916800">
        <ele>538.2</ele>
        <time>2014-10-02T10:37:02Z</time>
      </trkpt>
      <trkpt lat="42.6055030" lon="-7.1916360">
        <ele>538.2</ele>
        <time>2014-10-02T10:37:03Z</time>
      </trkpt>
      <trkpt lat="42.6055160" lon="-7.1915940">
        <ele>538.3</ele>
        <time>2014-10-02T10:37:04Z</time>
      </trkpt>
      <trkpt lat="42.6055320" lon="-7.1915490">
        <ele>538.3</ele>
        <time>2014-10-02T10:37:05Z</time>
      </trkpt>
      <trkpt lat="42.6055470" lon="-7.1915040">
        <ele>538.4</ele>
        <time>2014-10-02T10:37:06Z</time>
      </trkpt>
      <trkpt lat="42.6055590" lon="-7.1914610">
        <ele>538.5</ele>
        <time>2014-10-02T10:37:07Z</time>
      </trkpt>
      <trkpt lat="42.6055730" lon="-7.1914160">
        <ele>538.6</ele>
        <time>2014-10-02T10:37:08Z</time>
      </trkpt>
      <trkpt lat="42.6055840" lon="-7.1913720">
        <ele>538.6</ele>
        <time>2014-10-02T10:37:09Z</time>
      </trkpt>
      <trkpt lat="42.6055960" lon="-7.1913310">
        <ele>538.7</ele>
        <time>2014-10-02T10:37:10Z</time>
      </trkpt>
      <trkpt lat="42.6056060" lon="-7.1912910">
        <ele>538.8</ele>
        <time>2014-10-02T10:37:11Z</time>
      </trkpt>
      <trkpt lat="42.6056150" lon="-7.1912460">
        <ele>538.9</ele>
        <time>2014-10-02T10:37:12Z</time>
      </trkpt>
      <trkpt lat="42.6056190" lon="-7.1912090">
        <ele>539.0</ele>
        <time>2014-10-02T10:37:13Z</time>
      </trkpt>
      <trkpt lat="42.6056250" lon="-7.1911690">
        <ele>539.1</ele>
        <time>2014-10-02T10:37:14Z</time>
      </trkpt>
      <trkpt lat="42.6056320" lon="-7.1911290">
        <ele>539.3</ele>
        <time>2014-10-02T10:37:15Z</time>
      </trkpt>
      <trkpt lat="42.6056340" lon="-7.1910850">
        <ele>539.5</ele>
        <time>2014-10-02T10:37:16Z</time>
      </trkpt>
      <trkpt lat="42.6056370" lon="-7.1910480">
        <ele>539.7</ele>
        <time>2014-10-02T10:37:17Z</time>
      </trkpt>
      <trkpt lat="42.6056410" lon="-7.1910010">
        <ele>540.0</ele>
        <time>2014-10-02T10:37:18Z</time>
      </trkpt>
      <trkpt lat="42.6056480" lon="-7.1909520">
        <ele>540.2</ele>
        <time>2014-10-02T10:37:19Z</time>
      </trkpt>
      <trkpt lat="42.6056550" lon="-7.1909000">
        <ele>540.5</ele>
        <time>2014-10-02T10:37:20Z</time>
      </trkpt>
      <trkpt lat="42.6056640" lon="-7.1908470">
        <ele>540.8</ele>
        <time>2014-10-02T10:37:21Z</time>
      </trkpt>
      <trkpt lat="42.6056660" lon="-7.1907970">
        <ele>541.1</ele>
        <time>2014-10-02T10:37:22Z</time>
      </trkpt>
      <trkpt lat="42.6056750" lon="-7.1907550">
        <ele>541.3</ele>
        <time>2014-10-02T10:37:23Z</time>
      </trkpt>
      <trkpt lat="42.6056800" lon="-7.1907160">
        <ele>541.5</ele>
        <time>2014-10-02T10:37:24Z</time>
      </trkpt>
      <trkpt lat="42.6056920" lon="-7.1906380">
        <ele>542.0</ele>
        <time>2014-10-02T10:37:26Z</time>
      </trkpt>
      <trkpt lat="42.6057030" lon="-7.1906000">
        <ele>542.2</ele>
        <time>2014-10-02T10:37:27Z</time>
      </trkpt>
      <trkpt lat="42.6057140" lon="-7.1905640">
        <ele>542.4</ele>
        <time>2014-10-02T10:37:28Z</time>
      </trkpt>
      <trkpt lat="42.6057230" lon="-7.1905230">
        <ele>542.7</ele>
        <time>2014-10-02T10:37:29Z</time>
      </trkpt>
      <trkpt lat="42.6057280" lon="-7.1904850">
        <ele>542.9</ele>
        <time>2014-10-02T10:37:30Z</time>
      </trkpt>
      <trkpt lat="42.6057380" lon="-7.1904410">
        <ele>543.1</ele>
        <time>2014-10-02T10:37:31Z</time>
      </trkpt>
      <trkpt lat="42.6057490" lon="-7.1903960">
        <ele>543.4</ele>
        <time>2014-10-02T10:37:32Z</time>
      </trkpt>
      <trkpt lat="42.6057590" lon="-7.1903550">
        <ele>543.6</ele>
        <time>2014-10-02T10:37:33Z</time>
      </trkpt>
      <trkpt lat="42.6057670" lon="-7.1903190">
        <ele>543.8</ele>
        <time>2014-10-02T10:37:34Z</time>
      </trkpt>
      <trkpt lat="42.6057830" lon="-7.1902460">
        <ele>544.2</ele>
        <time>2014-10-02T10:37:36Z</time>
      </trkpt>
      <trkpt lat="42.6057900" lon="-7.1902010">
        <ele>544.5</ele>
        <time>2014-10-02T10:37:37Z</time>
      </trkpt>
      <trkpt lat="42.6058030" lon="-7.1901580">
        <ele>544.8</ele>
        <time>2014-10-02T10:37:38Z</time>
      </trkpt>
      <trkpt lat="42.6058060" lon="-7.1901190">
        <ele>545.0</ele>
        <time>2014-10-02T10:37:39Z</time>
      </trkpt>
      <trkpt lat="42.6058110" lon="-7.1900760">
        <ele>545.2</ele>
        <time>2014-10-02T10:37:40Z</time>
      </trkpt>
      <trkpt lat="42.6058120" lon="-7.1900290">
        <ele>545.5</ele>
        <time>2014-10-02T10:37:41Z</time>
      </trkpt>
      <trkpt lat="42.6058120" lon="-7.1899790">
        <ele>545.8</ele>
        <time>2014-10-02T10:37:42Z</time>
      </trkpt>
      <trkpt lat="42.6058200" lon="-7.1899240">
        <ele>546.1</ele>
        <time>2014-10-02T10:37:43Z</time>
      </trkpt>
      <trkpt lat="42.6058240" lon="-7.1898620">
        <ele>546.4</ele>
        <time>2014-10-02T10:37:44Z</time>
      </trkpt>
      <trkpt lat="42.6058260" lon="-7.1898070">
        <ele>546.7</ele>
        <time>2014-10-02T10:37:45Z</time>
      </trkpt>
      <trkpt lat="42.6058260" lon="-7.1897570">
        <ele>546.9</ele>
        <time>2014-10-02T10:37:46Z</time>
      </trkpt>
      <trkpt lat="42.6058270" lon="-7.1897080">
        <ele>547.1</ele>
        <time>2014-10-02T10:37:47Z</time>
      </trkpt>
      <trkpt lat="42.6058290" lon="-7.1896640">
        <ele>547.3</ele>
        <time>2014-10-02T10:37:48Z</time>
      </trkpt>
      <trkpt lat="42.6058310" lon="-7.1896140">
        <ele>547.5</ele>
        <time>2014-10-02T10:37:49Z</time>
      </trkpt>
      <trkpt lat="42.6058310" lon="-7.1895640">
        <ele>547.7</ele>
        <time>2014-10-02T10:37:50Z</time>
      </trkpt>
      <trkpt lat="42.6058330" lon="-7.1895140">
        <ele>547.8</ele>
        <time>2014-10-02T10:37:51Z</time>
      </trkpt>
      <trkpt lat="42.6058380" lon="-7.1894630">
        <ele>548.0</ele>
        <time>2014-10-02T10:37:52Z</time>
      </trkpt>
      <trkpt lat="42.6058420" lon="-7.1894100">
        <ele>548.2</ele>
        <time>2014-10-02T10:37:53Z</time>
      </trkpt>
      <trkpt lat="42.6058400" lon="-7.1893640">
        <ele>548.3</ele>
        <time>2014-10-02T10:37:54Z</time>
      </trkpt>
      <trkpt lat="42.6058390" lon="-7.1893160">
        <ele>548.5</ele>
        <time>2014-10-02T10:37:55Z</time>
      </trkpt>
      <trkpt lat="42.6058380" lon="-7.1892600">
        <ele>548.7</ele>
        <time>2014-10-02T10:37:56Z</time>
      </trkpt>
      <trkpt lat="42.6058320" lon="-7.1892010">
        <ele>549.0</ele>
        <time>2014-10-02T10:37:57Z</time>
      </trkpt>
      <trkpt lat="42.6058290" lon="-7.1891450">
        <ele>549.3</ele>
        <time>2014-10-02T10:37:58Z</time>
      </trkpt>
      <trkpt lat="42.6058240" lon="-7.1890870">
        <ele>549.5</ele>
        <time>2014-10-02T10:37:59Z</time>
      </trkpt>
      <trkpt lat="42.6058160" lon="-7.1890310">
        <ele>549.8</ele>
        <time>2014-10-02T10:38:00Z</time>
      </trkpt>
      <trkpt lat="42.6058100" lon="-7.1889760">
        <ele>550.0</ele>
        <time>2014-10-02T10:38:01Z</time>
      </trkpt>
      <trkpt lat="42.6058040" lon="-7.1889280">
        <ele>550.2</ele>
        <time>2014-10-02T10:38:02Z</time>
      </trkpt>
      <trkpt lat="42.6057960" lon="-7.1888760">
        <ele>550.3</ele>
        <time>2014-10-02T10:38:03Z</time>
      </trkpt>
      <trkpt lat="42.6057870" lon="-7.1888270">
        <ele>550.5</ele>
        <time>2014-10-02T10:38:04Z</time>
      </trkpt>
      <trkpt lat="42.6057790" lon="-7.1887830">
        <ele>550.7</ele>
        <time>2014-10-02T10:38:05Z</time>
      </trkpt>
      <trkpt lat="42.6057700" lon="-7.1887350">
        <ele>550.8</ele>
        <time>2014-10-02T10:38:06Z</time>
      </trkpt>
      <trkpt lat="42.6057510" lon="-7.1886920">
        <ele>551.0</ele>
        <time>2014-10-02T10:38:07Z</time>
      </trkpt>
      <trkpt lat="42.6057350" lon="-7.1886510">
        <ele>551.1</ele>
        <time>2014-10-02T10:38:08Z</time>
      </trkpt>
      <trkpt lat="42.6057190" lon="-7.1886060">
        <ele>551.2</ele>
        <time>2014-10-02T10:38:09Z</time>
      </trkpt>
      <trkpt lat="42.6057120" lon="-7.1885550">
        <ele>551.4</ele>
        <time>2014-10-02T10:38:10Z</time>
      </trkpt>
      <trkpt lat="42.6057200" lon="-7.1885000">
        <ele>551.5</ele>
        <time>2014-10-02T10:38:11Z</time>
      </trkpt>
      <trkpt lat="42.6057270" lon="-7.1884450">
        <ele>551.6</ele>
        <time>2014-10-02T10:38:12Z</time>
      </trkpt>
      <trkpt lat="42.6057340" lon="-7.1883910">
        <ele>551.7</ele>
        <time>2014-10-02T10:38:13Z</time>
      </trkpt>
      <trkpt lat="42.6057450" lon="-7.1883380">
        <ele>551.9</ele>
        <time>2014-10-02T10:38:14Z</time>
      </trkpt>
      <trkpt lat="42.6057590" lon="-7.1882920">
        <ele>551.9</ele>
        <time>2014-10-02T10:38:15Z</time>
      </trkpt>
      <trkpt lat="42.6058060" lon="-7.1882500">
        <ele>552.0</ele>
        <time>2014-10-02T10:38:17Z</time>
      </trkpt>
      <trkpt lat="42.6058960" lon="-7.1882680">
        <ele>551.9</ele>
        <time>2014-10-02T10:38:21Z</time>
      </trkpt>
      <trkpt lat="42.6059830" lon="-7.1883280">
        <ele>551.9</ele>
        <time>2014-10-02T10:38:23Z</time>
      </trkpt>
      <trkpt lat="42.6060330" lon="-7.1883700">
        <ele>552.0</ele>
        <time>2014-10-02T10:38:24Z</time>
      </trkpt>
      <trkpt lat="42.6060830" lon="-7.1884130">
        <ele>552.1</ele>
        <time>2014-10-02T10:38:25Z</time>
      </trkpt>
      <trkpt lat="42.6061500" lon="-7.1884610">
        <ele>552.2</ele>
        <time>2014-10-02T10:38:26Z</time>
      </trkpt>
      <trkpt lat="42.6062090" lon="-7.1885000">
        <ele>552.4</ele>
        <time>2014-10-02T10:38:27Z</time>
      </trkpt>
      <trkpt lat="42.6062710" lon="-7.1885420">
        <ele>552.6</ele>
        <time>2014-10-02T10:38:28Z</time>
      </trkpt>
      <trkpt lat="42.6063260" lon="-7.1885860">
        <ele>552.9</ele>
        <time>2014-10-02T10:38:29Z</time>
      </trkpt>
      <trkpt lat="42.6063730" lon="-7.1886250">
        <ele>553.2</ele>
        <time>2014-10-02T10:38:30Z</time>
      </trkpt>
      <trkpt lat="42.6064230" lon="-7.1886680">
        <ele>553.6</ele>
        <time>2014-10-02T10:38:31Z</time>
      </trkpt>
      <trkpt lat="42.6064590" lon="-7.1887020">
        <ele>553.8</ele>
        <time>2014-10-02T10:38:32Z</time>
      </trkpt>
      <trkpt lat="42.6064990" lon="-7.1887360">
        <ele>554.1</ele>
        <time>2014-10-02T10:38:33Z</time>
      </trkpt>
      <trkpt lat="42.6065390" lon="-7.1887690">
        <ele>554.4</ele>
        <time>2014-10-02T10:38:34Z</time>
      </trkpt>
      <trkpt lat="42.6065830" lon="-7.1888050">
        <ele>554.7</ele>
        <time>2014-10-02T10:38:35Z</time>
      </trkpt>
      <trkpt lat="42.6066210" lon="-7.1888320">
        <ele>555.0</ele>
        <time>2014-10-02T10:38:36Z</time>
      </trkpt>
      <trkpt lat="42.6066570" lon="-7.1888540">
        <ele>555.3</ele>
        <time>2014-10-02T10:38:37Z</time>
      </trkpt>
      <trkpt lat="42.6066930" lon="-7.1888710">
        <ele>555.6</ele>
        <time>2014-10-02T10:38:38Z</time>
      </trkpt>
      <trkpt lat="42.6067830" lon="-7.1889120">
        <ele>556.4</ele>
        <time>2014-10-02T10:38:41Z</time>
      </trkpt>
      <trkpt lat="42.6068460" lon="-7.1889380">
        <ele>556.9</ele>
        <time>2014-10-02T10:38:43Z</time>
      </trkpt>
      <trkpt lat="42.6068940" lon="-7.1889540">
        <ele>557.3</ele>
        <time>2014-10-02T10:38:44Z</time>
      </trkpt>
      <trkpt lat="42.6069470" lon="-7.1889680">
        <ele>557.8</ele>
        <time>2014-10-02T10:38:45Z</time>
      </trkpt>
      <trkpt lat="42.6069850" lon="-7.1889790">
        <ele>558.1</ele>
        <time>2014-10-02T10:38:46Z</time>
      </trkpt>
      <trkpt lat="42.6070160" lon="-7.1889870">
        <ele>558.4</ele>
        <time>2014-10-02T10:38:47Z</time>
      </trkpt>
      <trkpt lat="42.6070520" lon="-7.1889930">
        <ele>558.7</ele>
        <time>2014-10-02T10:38:48Z</time>
      </trkpt>
      <trkpt lat="42.6070900" lon="-7.1889980">
        <ele>559.0</ele>
        <time>2014-10-02T10:38:49Z</time>
      </trkpt>
      <trkpt lat="42.6071380" lon="-7.1890040">
        <ele>559.5</ele>
        <time>2014-10-02T10:38:50Z</time>
      </trkpt>
      <trkpt lat="42.6071820" lon="-7.1890070">
        <ele>559.9</ele>
        <time>2014-10-02T10:38:51Z</time>
      </trkpt>
      <trkpt lat="42.6072180" lon="-7.1890050">
        <ele>560.2</ele>
        <time>2014-10-02T10:38:52Z</time>
      </trkpt>
      <trkpt lat="42.6072450" lon="-7.1889950">
        <ele>560.5</ele>
        <time>2014-10-02T10:38:53Z</time>
      </trkpt>
      <trkpt lat="42.6072810" lon="-7.1889830">
        <ele>560.8</ele>
        <time>2014-10-02T10:38:54Z</time>
      </trkpt>
      <trkpt lat="42.6073200" lon="-7.1889700">
        <ele>561.2</ele>
        <time>2014-10-02T10:38:55Z</time>
      </trkpt>
      <trkpt lat="42.6073550" lon="-7.1889600">
        <ele>561.5</ele>
        <time>2014-10-02T10:38:56Z</time>
      </trkpt>
      <trkpt lat="42.6074010" lon="-7.1889460">
        <ele>561.9</ele>
        <time>2014-10-02T10:38:57Z</time>
      </trkpt>
      <trkpt lat="42.6074340" lon="-7.1889350">
        <ele>562.2</ele>
        <time>2014-10-02T10:38:58Z</time>
      </trkpt>
      <trkpt lat="42.6074660" lon="-7.1889230">
        <ele>562.5</ele>
        <time>2014-10-02T10:38:59Z</time>
      </trkpt>
      <trkpt lat="42.6075000" lon="-7.1889120">
        <ele>562.9</ele>
        <time>2014-10-02T10:39:00Z</time>
      </trkpt>
      <trkpt lat="42.6075290" lon="-7.1889030">
        <ele>563.1</ele>
        <time>2014-10-02T10:39:01Z</time>
      </trkpt>
      <trkpt lat="42.6075590" lon="-7.1888930">
        <ele>563.4</ele>
        <time>2014-10-02T10:39:02Z</time>
      </trkpt>
      <trkpt lat="42.6075870" lon="-7.1888830">
        <ele>563.7</ele>
        <time>2014-10-02T10:39:03Z</time>
      </trkpt>
      <trkpt lat="42.6076140" lon="-7.1888730">
        <ele>563.9</ele>
        <time>2014-10-02T10:39:04Z</time>
      </trkpt>
      <trkpt lat="42.6076600" lon="-7.1888520">
        <ele>564.3</ele>
        <time>2014-10-02T10:39:06Z</time>
      </trkpt>
      <trkpt lat="42.6076860" lon="-7.1888380">
        <ele>564.5</ele>
        <time>2014-10-02T10:39:07Z</time>
      </trkpt>
      <trkpt lat="42.6077150" lon="-7.1888230">
        <ele>564.8</ele>
        <time>2014-10-02T10:39:08Z</time>
      </trkpt>
      <trkpt lat="42.6077420" lon="-7.1888090">
        <ele>565.0</ele>
        <time>2014-10-02T10:39:09Z</time>
      </trkpt>
      <trkpt lat="42.6077680" lon="-7.1887920">
        <ele>565.3</ele>
        <time>2014-10-02T10:39:10Z</time>
      </trkpt>
      <trkpt lat="42.6077940" lon="-7.1887740">
        <ele>565.5</ele>
        <time>2014-10-02T10:39:11Z</time>
      </trkpt>
      <trkpt lat="42.6078210" lon="-7.1887550">
        <ele>565.8</ele>
        <time>2014-10-02T10:39:12Z</time>
      </trkpt>
      <trkpt lat="42.6078450" lon="-7.1887260">
        <ele>566.1</ele>
        <time>2014-10-02T10:39:13Z</time>
      </trkpt>
      <trkpt lat="42.6078750" lon="-7.1886940">
        <ele>566.5</ele>
        <time>2014-10-02T10:39:14Z</time>
      </trkpt>
      <trkpt lat="42.6079020" lon="-7.1886610">
        <ele>566.8</ele>
        <time>2014-10-02T10:39:15Z</time>
      </trkpt>
      <trkpt lat="42.6079310" lon="-7.1886280">
        <ele>567.1</ele>
        <time>2014-10-02T10:39:16Z</time>
      </trkpt>
      <trkpt lat="42.6079530" lon="-7.1885990">
        <ele>567.4</ele>
        <time>2014-10-02T10:39:17Z</time>
      </trkpt>
      <trkpt lat="42.6079730" lon="-7.1885740">
        <ele>567.6</ele>
        <time>2014-10-02T10:39:18Z</time>
      </trkpt>
      <trkpt lat="42.6080180" lon="-7.1885230">
        <ele>568.1</ele>
        <time>2014-10-02T10:39:20Z</time>
      </trkpt>
      <trkpt lat="42.6080470" lon="-7.1884850">
        <ele>568.4</ele>
        <time>2014-10-02T10:39:21Z</time>
      </trkpt>
      <trkpt lat="42.6080730" lon="-7.1884520">
        <ele>568.7</ele>
        <time>2014-10-02T10:39:22Z</time>
      </trkpt>
      <trkpt lat="42.6081010" lon="-7.1884140">
        <ele>569.0</ele>
        <time>2014-10-02T10:39:23Z</time>
      </trkpt>
      <trkpt lat="42.6081210" lon="-7.1883830">
        <ele>569.2</ele>
        <time>2014-10-02T10:39:24Z</time>
      </trkpt>
      <trkpt lat="42.6081480" lon="-7.1883440">
        <ele>569.6</ele>
        <time>2014-10-02T10:39:25Z</time>
      </trkpt>
      <trkpt lat="42.6081680" lon="-7.1883100">
        <ele>569.8</ele>
        <time>2014-10-02T10:39:26Z</time>
      </trkpt>
      <trkpt lat="42.6081840" lon="-7.1882740">
        <ele>570.1</ele>
        <time>2014-10-02T10:39:27Z</time>
      </trkpt>
      <trkpt lat="42.6081980" lon="-7.1882400">
        <ele>570.3</ele>
        <time>2014-10-02T10:39:28Z</time>
      </trkpt>
      <trkpt lat="42.6082150" lon="-7.1882000">
        <ele>570.6</ele>
        <time>2014-10-02T10:39:29Z</time>
      </trkpt>
      <trkpt lat="42.6082320" lon="-7.1881560">
        <ele>570.9</ele>
        <time>2014-10-02T10:39:30Z</time>
      </trkpt>
      <trkpt lat="42.6082500" lon="-7.1881110">
        <ele>571.2</ele>
        <time>2014-10-02T10:39:31Z</time>
      </trkpt>
      <trkpt lat="42.6082660" lon="-7.1880690">
        <ele>571.5</ele>
        <time>2014-10-02T10:39:32Z</time>
      </trkpt>
      <trkpt lat="42.6082820" lon="-7.1880270">
        <ele>571.7</ele>
        <time>2014-10-02T10:39:33Z</time>
      </trkpt>
      <trkpt lat="42.6083020" lon="-7.1879750">
        <ele>572.1</ele>
        <time>2014-10-02T10:39:34Z</time>
      </trkpt>
      <trkpt lat="42.6083190" lon="-7.1879300">
        <ele>572.4</ele>
        <time>2014-10-02T10:39:35Z</time>
      </trkpt>
      <trkpt lat="42.6083300" lon="-7.1878960">
        <ele>572.6</ele>
        <time>2014-10-02T10:39:36Z</time>
      </trkpt>
      <trkpt lat="42.6083450" lon="-7.1878550">
        <ele>572.8</ele>
        <time>2014-10-02T10:39:37Z</time>
      </trkpt>
      <trkpt lat="42.6083580" lon="-7.1878170">
        <ele>573.1</ele>
        <time>2014-10-02T10:39:38Z</time>
      </trkpt>
      <trkpt lat="42.6083720" lon="-7.1877730">
        <ele>573.4</ele>
        <time>2014-10-02T10:39:39Z</time>
      </trkpt>
      <trkpt lat="42.6083850" lon="-7.1877310">
        <ele>573.6</ele>
        <time>2014-10-02T10:39:40Z</time>
      </trkpt>
      <trkpt lat="42.6084010" lon="-7.1876920">
        <ele>573.9</ele>
        <time>2014-10-02T10:39:41Z</time>
      </trkpt>
      <trkpt lat="42.6084160" lon="-7.1876530">
        <ele>574.1</ele>
        <time>2014-10-02T10:39:42Z</time>
      </trkpt>
      <trkpt lat="42.6084290" lon="-7.1876150">
        <ele>574.3</ele>
        <time>2014-10-02T10:39:43Z</time>
      </trkpt>
      <trkpt lat="42.6084420" lon="-7.1875700">
        <ele>574.6</ele>
        <time>2014-10-02T10:39:44Z</time>
      </trkpt>
      <trkpt lat="42.6084520" lon="-7.1875310">
        <ele>574.8</ele>
        <time>2014-10-02T10:39:45Z</time>
      </trkpt>
      <trkpt lat="42.6084610" lon="-7.1874930">
        <ele>575.1</ele>
        <time>2014-10-02T10:39:46Z</time>
      </trkpt>
      <trkpt lat="42.6084720" lon="-7.1874500">
        <ele>575.4</ele>
        <time>2014-10-02T10:39:47Z</time>
      </trkpt>
      <trkpt lat="42.6084800" lon="-7.1874140">
        <ele>575.6</ele>
        <time>2014-10-02T10:39:48Z</time>
      </trkpt>
      <trkpt lat="42.6084890" lon="-7.1873710">
        <ele>575.8</ele>
        <time>2014-10-02T10:39:49Z</time>
      </trkpt>
      <trkpt lat="42.6084970" lon="-7.1873330">
        <ele>576.1</ele>
        <time>2014-10-02T10:39:50Z</time>
      </trkpt>
      <trkpt lat="42.6085070" lon="-7.1872490">
        <ele>576.6</ele>
        <time>2014-10-02T10:39:52Z</time>
      </trkpt>
      <trkpt lat="42.6085140" lon="-7.1872040">
        <ele>576.8</ele>
        <time>2014-10-02T10:39:53Z</time>
      </trkpt>
      <trkpt lat="42.6085220" lon="-7.1871550">
        <ele>577.1</ele>
        <time>2014-10-02T10:39:54Z</time>
      </trkpt>
      <trkpt lat="42.6085280" lon="-7.1871150">
        <ele>577.3</ele>
        <time>2014-10-02T10:39:55Z</time>
      </trkpt>
      <trkpt lat="42.6085370" lon="-7.1870720">
        <ele>577.5</ele>
        <time>2014-10-02T10:39:56Z</time>
      </trkpt>
      <trkpt lat="42.6085460" lon="-7.1870280">
        <ele>577.7</ele>
        <time>2014-10-02T10:39:57Z</time>
      </trkpt>
      <trkpt lat="42.6085540" lon="-7.1869850">
        <ele>578.0</ele>
        <time>2014-10-02T10:39:58Z</time>
      </trkpt>
      <trkpt lat="42.6085620" lon="-7.1869470">
        <ele>578.2</ele>
        <time>2014-10-02T10:39:59Z</time>
      </trkpt>
      <trkpt lat="42.6085720" lon="-7.1869070">
        <ele>578.4</ele>
        <time>2014-10-02T10:40:00Z</time>
      </trkpt>
      <trkpt lat="42.6085850" lon="-7.1868580">
        <ele>578.7</ele>
        <time>2014-10-02T10:40:01Z</time>
      </trkpt>
      <trkpt lat="42.6085940" lon="-7.1868190">
        <ele>578.9</ele>
        <time>2014-10-02T10:40:02Z</time>
      </trkpt>
      <trkpt lat="42.6086000" lon="-7.1867410">
        <ele>579.2</ele>
        <time>2014-10-02T10:40:04Z</time>
      </trkpt>
      <trkpt lat="42.6086060" lon="-7.1866990">
        <ele>579.4</ele>
        <time>2014-10-02T10:40:05Z</time>
      </trkpt>
      <trkpt lat="42.6086140" lon="-7.1866500">
        <ele>579.7</ele>
        <time>2014-10-02T10:40:06Z</time>
      </trkpt>
      <trkpt lat="42.6086230" lon="-7.1866090">
        <ele>579.9</ele>
        <time>2014-10-02T10:40:07Z</time>
      </trkpt>
      <trkpt lat="42.6086310" lon="-7.1865720">
        <ele>580.1</ele>
        <time>2014-10-02T10:40:08Z</time>
      </trkpt>
      <trkpt lat="42.6086420" lon="-7.1865300">
        <ele>580.3</ele>
        <time>2014-10-02T10:40:09Z</time>
      </trkpt>
      <trkpt lat="42.6086540" lon="-7.1864910">
        <ele>580.5</ele>
        <time>2014-10-02T10:40:10Z</time>
      </trkpt>
      <trkpt lat="42.6086660" lon="-7.1864540">
        <ele>580.7</ele>
        <time>2014-10-02T10:40:11Z</time>
      </trkpt>
      <trkpt lat="42.6086770" lon="-7.1864180">
        <ele>581.0</ele>
        <time>2014-10-02T10:40:12Z</time>
      </trkpt>
      <trkpt lat="42.6086890" lon="-7.1863760">
        <ele>581.2</ele>
        <time>2014-10-02T10:40:13Z</time>
      </trkpt>
      <trkpt lat="42.6087010" lon="-7.1863380">
        <ele>581.5</ele>
        <time>2014-10-02T10:40:14Z</time>
      </trkpt>
      <trkpt lat="42.6087190" lon="-7.1863040">
        <ele>581.7</ele>
        <time>2014-10-02T10:40:15Z</time>
      </trkpt>
      <trkpt lat="42.6087390" lon="-7.1862690">
        <ele>582.0</ele>
        <time>2014-10-02T10:40:16Z</time>
      </trkpt>
      <trkpt lat="42.6087650" lon="-7.1862250">
        <ele>582.3</ele>
        <time>2014-10-02T10:40:17Z</time>
      </trkpt>
      <trkpt lat="42.6087900" lon="-7.1861900">
        <ele>582.6</ele>
        <time>2014-10-02T10:40:18Z</time>
      </trkpt>
      <trkpt lat="42.6088150" lon="-7.1861610">
        <ele>582.9</ele>
        <time>2014-10-02T10:40:19Z</time>
      </trkpt>
      <trkpt lat="42.6088410" lon="-7.1861330">
        <ele>583.1</ele>
        <time>2014-10-02T10:40:20Z</time>
      </trkpt>
      <trkpt lat="42.6088760" lon="-7.1860990">
        <ele>583.4</ele>
        <time>2014-10-02T10:40:21Z</time>
      </trkpt>
      <trkpt lat="42.6089110" lon="-7.1860690">
        <ele>583.7</ele>
        <time>2014-10-02T10:40:22Z</time>
      </trkpt>
      <trkpt lat="42.6089450" lon="-7.1860480">
        <ele>584.0</ele>
        <time>2014-10-02T10:40:23Z</time>
      </trkpt>
      <trkpt lat="42.6089800" lon="-7.1860240">
        <ele>584.2</ele>
        <time>2014-10-02T10:40:24Z</time>
      </trkpt>
      <trkpt lat="42.6090180" lon="-7.1859970">
        <ele>584.5</ele>
        <time>2014-10-02T10:40:25Z</time>
      </trkpt>
      <trkpt lat="42.6090600" lon="-7.1859640">
        <ele>584.8</ele>
        <time>2014-10-02T10:40:26Z</time>
      </trkpt>
      <trkpt lat="42.6091030" lon="-7.1859310">
        <ele>585.0</ele>
        <time>2014-10-02T10:40:27Z</time>
      </trkpt>
      <trkpt lat="42.6091420" lon="-7.1859000">
        <ele>585.2</ele>
        <time>2014-10-02T10:40:28Z</time>
      </trkpt>
      <trkpt lat="42.6091790" lon="-7.1858710">
        <ele>585.4</ele>
        <time>2014-10-02T10:40:29Z</time>
      </trkpt>
      <trkpt lat="42.6092200" lon="-7.1858370">
        <ele>585.6</ele>
        <time>2014-10-02T10:40:30Z</time>
      </trkpt>
      <trkpt lat="42.6092590" lon="-7.1858020">
        <ele>585.7</ele>
        <time>2014-10-02T10:40:31Z</time>
      </trkpt>
      <trkpt lat="42.6093000" lon="-7.1857670">
        <ele>585.8</ele>
        <time>2014-10-02T10:40:32Z</time>
      </trkpt>
      <trkpt lat="42.6093370" lon="-7.1857310">
        <ele>585.9</ele>
        <time>2014-10-02T10:40:33Z</time>
      </trkpt>
      <trkpt lat="42.6093740" lon="-7.1856940">
        <ele>586.0</ele>
        <time>2014-10-02T10:40:34Z</time>
      </trkpt>
      <trkpt lat="42.6094130" lon="-7.1856540">
        <ele>586.0</ele>
        <time>2014-10-02T10:40:35Z</time>
      </trkpt>
      <trkpt lat="42.6094540" lon="-7.1856080">
        <ele>586.3</ele>
        <time>2014-10-02T10:40:36Z</time>
      </trkpt>
      <trkpt lat="42.6094970" lon="-7.1855580">
        <ele>586.6</ele>
        <time>2014-10-02T10:40:37Z</time>
      </trkpt>
      <trkpt lat="42.6095390" lon="-7.1855090">
        <ele>586.8</ele>
        <time>2014-10-02T10:40:38Z</time>
      </trkpt>
      <trkpt lat="42.6095810" lon="-7.1854560">
        <ele>586.9</ele>
        <time>2014-10-02T10:40:39Z</time>
      </trkpt>
      <trkpt lat="42.6096250" lon="-7.1853970">
        <ele>586.9</ele>
        <time>2014-10-02T10:40:40Z</time>
      </trkpt>
      <trkpt lat="42.6096720" lon="-7.1853300">
        <ele>586.9</ele>
        <time>2014-10-02T10:40:41Z</time>
      </trkpt>
      <trkpt lat="42.6097200" lon="-7.1852540">
        <ele>586.9</ele>
        <time>2014-10-02T10:40:42Z</time>
      </trkpt>
      <trkpt lat="42.6097660" lon="-7.1851760">
        <ele>587.0</ele>
        <time>2014-10-02T10:40:43Z</time>
      </trkpt>
      <trkpt lat="42.6097990" lon="-7.1851160">
        <ele>587.0</ele>
        <time>2014-10-02T10:40:44Z</time>
      </trkpt>
      <trkpt lat="42.6098200" lon="-7.1850810">
        <ele>587.0</ele>
        <time>2014-10-02T10:40:45Z</time>
      </trkpt>
      <trkpt lat="42.6098520" lon="-7.1850310">
        <ele>587.0</ele>
        <time>2014-10-02T10:40:48Z</time>
      </trkpt>
      <trkpt lat="42.6098680" lon="-7.1850000">
        <ele>587.0</ele>
        <time>2014-10-02T10:40:49Z</time>
      </trkpt>
      <trkpt lat="42.6099080" lon="-7.1848740">
        <ele>586.9</ele>
        <time>2014-10-02T10:40:54Z</time>
      </trkpt>
      <trkpt lat="42.6099190" lon="-7.1847750">
        <ele>586.7</ele>
        <time>2014-10-02T10:40:59Z</time>
      </trkpt>
      <trkpt lat="42.6099420" lon="-7.1847390">
        <ele>586.6</ele>
        <time>2014-10-02T10:41:00Z</time>
      </trkpt>
      <trkpt lat="42.6099710" lon="-7.1847000">
        <ele>586.5</ele>
        <time>2014-10-02T10:41:01Z</time>
      </trkpt>
      <trkpt lat="42.6099880" lon="-7.1846690">
        <ele>586.4</ele>
        <time>2014-10-02T10:41:02Z</time>
      </trkpt>
      <trkpt lat="42.6100280" lon="-7.1845970">
        <ele>586.1</ele>
        <time>2014-10-02T10:41:03Z</time>
      </trkpt>
      <trkpt lat="42.6100600" lon="-7.1845300">
        <ele>585.8</ele>
        <time>2014-10-02T10:41:04Z</time>
      </trkpt>
      <trkpt lat="42.6100770" lon="-7.1844550">
        <ele>585.6</ele>
        <time>2014-10-02T10:41:05Z</time>
      </trkpt>
      <trkpt lat="42.6100860" lon="-7.1843800">
        <ele>585.4</ele>
        <time>2014-10-02T10:41:06Z</time>
      </trkpt>
      <trkpt lat="42.6100910" lon="-7.1842930">
        <ele>585.3</ele>
        <time>2014-10-02T10:41:07Z</time>
      </trkpt>
      <trkpt lat="42.6100990" lon="-7.1841960">
        <ele>585.1</ele>
        <time>2014-10-02T10:41:08Z</time>
      </trkpt>
      <trkpt lat="42.6101090" lon="-7.1840980">
        <ele>584.9</ele>
        <time>2014-10-02T10:41:09Z</time>
      </trkpt>
      <trkpt lat="42.6101170" lon="-7.1840050">
        <ele>584.5</ele>
        <time>2014-10-02T10:41:10Z</time>
      </trkpt>
      <trkpt lat="42.6101330" lon="-7.1839250">
        <ele>584.1</ele>
        <time>2014-10-02T10:41:11Z</time>
      </trkpt>
      <trkpt lat="42.6101530" lon="-7.1838490">
        <ele>583.7</ele>
        <time>2014-10-02T10:41:12Z</time>
      </trkpt>
      <trkpt lat="42.6101730" lon="-7.1837900">
        <ele>583.4</ele>
        <time>2014-10-02T10:41:13Z</time>
      </trkpt>
      <trkpt lat="42.6101960" lon="-7.1837290">
        <ele>583.1</ele>
        <time>2014-10-02T10:41:14Z</time>
      </trkpt>
      <trkpt lat="42.6102260" lon="-7.1836560">
        <ele>582.7</ele>
        <time>2014-10-02T10:41:15Z</time>
      </trkpt>
      <trkpt lat="42.6102560" lon="-7.1835800">
        <ele>582.4</ele>
        <time>2014-10-02T10:41:16Z</time>
      </trkpt>
      <trkpt lat="42.6102880" lon="-7.1834940">
        <ele>582.0</ele>
        <time>2014-10-02T10:41:17Z</time>
      </trkpt>
      <trkpt lat="42.6103230" lon="-7.1834040">
        <ele>581.7</ele>
        <time>2014-10-02T10:41:18Z</time>
      </trkpt>
      <trkpt lat="42.6103290" lon="-7.1833090">
        <ele>581.4</ele>
        <time>2014-10-02T10:41:19Z</time>
      </trkpt>
      <trkpt lat="42.6103350" lon="-7.1831680">
        <ele>581.1</ele>
        <time>2014-10-02T10:41:20Z</time>
      </trkpt>
      <trkpt lat="42.6103380" lon="-7.1830270">
        <ele>580.9</ele>
        <time>2014-10-02T10:41:21Z</time>
      </trkpt>
      <trkpt lat="42.6103440" lon="-7.1829220">
        <ele>580.7</ele>
        <time>2014-10-02T10:41:22Z</time>
      </trkpt>
      <trkpt lat="42.6103580" lon="-7.1828390">
        <ele>580.7</ele>
        <time>2014-10-02T10:41:23Z</time>
      </trkpt>
      <trkpt lat="42.6103780" lon="-7.1827590">
        <ele>580.6</ele>
        <time>2014-10-02T10:41:24Z</time>
      </trkpt>
      <trkpt lat="42.6104140" lon="-7.1826670">
        <ele>580.6</ele>
        <time>2014-10-02T10:41:25Z</time>
      </trkpt>
      <trkpt lat="42.6104710" lon="-7.1825750">
        <ele>580.7</ele>
        <time>2014-10-02T10:41:26Z</time>
      </trkpt>
      <trkpt lat="42.6105720" lon="-7.1825230">
        <ele>581.0</ele>
        <time>2014-10-02T10:41:27Z</time>
      </trkpt>
      <trkpt lat="42.6106810" lon="-7.1824670">
        <ele>581.5</ele>
        <time>2014-10-02T10:41:28Z</time>
      </trkpt>
      <trkpt lat="42.6108040" lon="-7.1824170">
        <ele>581.9</ele>
        <time>2014-10-02T10:41:29Z</time>
      </trkpt>
      <trkpt lat="42.6109370" lon="-7.1823660">
        <ele>582.4</ele>
        <time>2014-10-02T10:41:30Z</time>
      </trkpt>
      <trkpt lat="42.6110640" lon="-7.1823060">
        <ele>583.0</ele>
        <time>2014-10-02T10:41:31Z</time>
      </trkpt>
      <trkpt lat="42.6111980" lon="-7.1822350">
        <ele>583.9</ele>
        <time>2014-10-02T10:41:32Z</time>
      </trkpt>
      <trkpt lat="42.6113420" lon="-7.1821940">
        <ele>585.0</ele>
        <time>2014-10-02T10:41:33Z</time>
      </trkpt>
      <trkpt lat="42.6114420" lon="-7.1821470">
        <ele>585.7</ele>
        <time>2014-10-02T10:41:34Z</time>
      </trkpt>
      <trkpt lat="42.6114990" lon="-7.1820960">
        <ele>586.1</ele>
        <time>2014-10-02T10:41:35Z</time>
      </trkpt>
      <trkpt lat="42.6115330" lon="-7.1820330">
        <ele>586.4</ele>
        <time>2014-10-02T10:41:36Z</time>
      </trkpt>
      <trkpt lat="42.6115590" lon="-7.1819610">
        <ele>586.6</ele>
        <time>2014-10-02T10:41:37Z</time>
      </trkpt>
      <trkpt lat="42.6115670" lon="-7.1818910">
        <ele>586.9</ele>
        <time>2014-10-02T10:41:38Z</time>
      </trkpt>
      <trkpt lat="42.6115680" lon="-7.1818080">
        <ele>587.1</ele>
        <time>2014-10-02T10:41:39Z</time>
      </trkpt>
      <trkpt lat="42.6115590" lon="-7.1817170">
        <ele>587.2</ele>
        <time>2014-10-02T10:41:40Z</time>
      </trkpt>
      <trkpt lat="42.6115290" lon="-7.1816310">
        <ele>587.1</ele>
        <time>2014-10-02T10:41:41Z</time>
      </trkpt>
      <trkpt lat="42.6114930" lon="-7.1815380">
        <ele>587.0</ele>
        <time>2014-10-02T10:41:42Z</time>
      </trkpt>
      <trkpt lat="42.6114470" lon="-7.1814410">
        <ele>586.8</ele>
        <time>2014-10-02T10:41:43Z</time>
      </trkpt>
      <trkpt lat="42.6113980" lon="-7.1813380">
        <ele>586.6</ele>
        <time>2014-10-02T10:41:44Z</time>
      </trkpt>
      <trkpt lat="42.6113480" lon="-7.1812400">
        <ele>586.5</ele>
        <time>2014-10-02T10:41:45Z</time>
      </trkpt>
      <trkpt lat="42.6112960" lon="-7.1811360">
        <ele>586.5</ele>
        <time>2014-10-02T10:41:46Z</time>
      </trkpt>
      <trkpt lat="42.6112420" lon="-7.1810290">
        <ele>586.4</ele>
        <time>2014-10-02T10:41:47Z</time>
      </trkpt>
      <trkpt lat="42.6111920" lon="-7.1809110">
        <ele>586.3</ele>
        <time>2014-10-02T10:41:48Z</time>
      </trkpt>
      <trkpt lat="42.6111400" lon="-7.1807810">
        <ele>586.1</ele>
        <time>2014-10-02T10:41:49Z</time>
      </trkpt>
      <trkpt lat="42.6110920" lon="-7.1806470">
        <ele>585.9</ele>
        <time>2014-10-02T10:41:50Z</time>
      </trkpt>
      <trkpt lat="42.6110440" lon="-7.1805040">
        <ele>585.8</ele>
        <time>2014-10-02T10:41:51Z</time>
      </trkpt>
      <trkpt lat="42.6110010" lon="-7.1803570">
        <ele>585.6</ele>
        <time>2014-10-02T10:41:52Z</time>
      </trkpt>
      <trkpt lat="42.6109560" lon="-7.1802090">
        <ele>585.4</ele>
        <time>2014-10-02T10:41:53Z</time>
      </trkpt>
      <trkpt lat="42.6109110" lon="-7.1800610">
        <ele>585.2</ele>
        <time>2014-10-02T10:41:54Z</time>
      </trkpt>
      <trkpt lat="42.6108650" lon="-7.1799150">
        <ele>584.9</ele>
        <time>2014-10-02T10:41:55Z</time>
      </trkpt>
      <trkpt lat="42.6108280" lon="-7.1797650">
        <ele>584.1</ele>
        <time>2014-10-02T10:41:56Z</time>
      </trkpt>
      <trkpt lat="42.6108250" lon="-7.1796020">
        <ele>583.1</ele>
        <time>2014-10-02T10:41:57Z</time>
      </trkpt>
      <trkpt lat="42.6108300" lon="-7.1794440">
        <ele>582.2</ele>
        <time>2014-10-02T10:41:58Z</time>
      </trkpt>
      <trkpt lat="42.6108360" lon="-7.1792910">
        <ele>581.5</ele>
        <time>2014-10-02T10:41:59Z</time>
      </trkpt>
      <trkpt lat="42.6108320" lon="-7.1791340">
        <ele>581.1</ele>
        <time>2014-10-02T10:42:00Z</time>
      </trkpt>
      <trkpt lat="42.6108030" lon="-7.1789800">
        <ele>580.9</ele>
        <time>2014-10-02T10:42:01Z</time>
      </trkpt>
      <trkpt lat="42.6107690" lon="-7.1788270">
        <ele>580.8</ele>
        <time>2014-10-02T10:42:02Z</time>
      </trkpt>
      <trkpt lat="42.6107070" lon="-7.1786930">
        <ele>580.5</ele>
        <time>2014-10-02T10:42:03Z</time>
      </trkpt>
      <trkpt lat="42.6106400" lon="-7.1785670">
        <ele>580.3</ele>
        <time>2014-10-02T10:42:04Z</time>
      </trkpt>
      <trkpt lat="42.6105680" lon="-7.1784480">
        <ele>580.1</ele>
        <time>2014-10-02T10:42:05Z</time>
      </trkpt>
      <trkpt lat="42.6104920" lon="-7.1783240">
        <ele>579.5</ele>
        <time>2014-10-02T10:42:06Z</time>
      </trkpt>
      <trkpt lat="42.6104170" lon="-7.1782010">
        <ele>578.5</ele>
        <time>2014-10-02T10:42:07Z</time>
      </trkpt>
      <trkpt lat="42.6103500" lon="-7.1780780">
        <ele>578.1</ele>
        <time>2014-10-02T10:42:08Z</time>
      </trkpt>
      <trkpt lat="42.6102870" lon="-7.1779440">
        <ele>578.2</ele>
        <time>2014-10-02T10:42:09Z</time>
      </trkpt>
      <trkpt lat="42.6102470" lon="-7.1777940">
        <ele>578.5</ele>
        <time>2014-10-02T10:42:10Z</time>
      </trkpt>
      <trkpt lat="42.6102090" lon="-7.1776450">
        <ele>578.5</ele>
        <time>2014-10-02T10:42:11Z</time>
      </trkpt>
      <trkpt lat="42.6101730" lon="-7.1774950">
        <ele>578.3</ele>
        <time>2014-10-02T10:42:12Z</time>
      </trkpt>
      <trkpt lat="42.6101430" lon="-7.1773440">
        <ele>578.1</ele>
        <time>2014-10-02T10:42:13Z</time>
      </trkpt>
      <trkpt lat="42.6101150" lon="-7.1771860">
        <ele>578.1</ele>
        <time>2014-10-02T10:42:14Z</time>
      </trkpt>
      <trkpt lat="42.6100890" lon="-7.1770310">
        <ele>578.1</ele>
        <time>2014-10-02T10:42:15Z</time>
      </trkpt>
      <trkpt lat="42.6100660" lon="-7.1768760">
        <ele>578.3</ele>
        <time>2014-10-02T10:42:16Z</time>
      </trkpt>
      <trkpt lat="42.6100410" lon="-7.1767230">
        <ele>578.8</ele>
        <time>2014-10-02T10:42:17Z</time>
      </trkpt>
      <trkpt lat="42.6100050" lon="-7.1765660">
        <ele>579.0</ele>
        <time>2014-10-02T10:42:18Z</time>
      </trkpt>
      <trkpt lat="42.6099270" lon="-7.1764580">
        <ele>579.0</ele>
        <time>2014-10-02T10:42:19Z</time>
      </trkpt>
      <trkpt lat="42.6098530" lon="-7.1763650">
        <ele>578.8</ele>
        <time>2014-10-02T10:42:20Z</time>
      </trkpt>
      <trkpt lat="42.6097550" lon="-7.1762890">
        <ele>578.7</ele>
        <time>2014-10-02T10:42:21Z</time>
      </trkpt>
      <trkpt lat="42.6096740" lon="-7.1762250">
        <ele>578.8</ele>
        <time>2014-10-02T10:42:22Z</time>
      </trkpt>
      <trkpt lat="42.6095900" lon="-7.1761530">
        <ele>579.0</ele>
        <time>2014-10-02T10:42:23Z</time>
      </trkpt>
      <trkpt lat="42.6095350" lon="-7.1760370">
        <ele>579.2</ele>
        <time>2014-10-02T10:42:24Z</time>
      </trkpt>
      <trkpt lat="42.6094710" lon="-7.1759050">
        <ele>579.3</ele>
        <time>2014-10-02T10:42:25Z</time>
      </trkpt>
      <trkpt lat="42.6094130" lon="-7.1757730">
        <ele>578.4</ele>
        <time>2014-10-02T10:42:26Z</time>
      </trkpt>
      <trkpt lat="42.6093560" lon="-7.1756350">
        <ele>576.7</ele>
        <time>2014-10-02T10:42:27Z</time>
      </trkpt>
      <trkpt lat="42.6092930" lon="-7.1754920">
        <ele>574.9</ele>
        <time>2014-10-02T10:42:28Z</time>
      </trkpt>
      <trkpt lat="42.6092360" lon="-7.1753530">
        <ele>573.2</ele>
        <time>2014-10-02T10:42:29Z</time>
      </trkpt>
      <trkpt lat="42.6091900" lon="-7.1752200">
        <ele>571.6</ele>
        <time>2014-10-02T10:42:30Z</time>
      </trkpt>
      <trkpt lat="42.6092020" lon="-7.1750990">
        <ele>570.1</ele>
        <time>2014-10-02T10:42:31Z</time>
      </trkpt>
      <trkpt lat="42.6092390" lon="-7.1750010">
        <ele>568.4</ele>
        <time>2014-10-02T10:42:32Z</time>
      </trkpt>
      <trkpt lat="42.6092850" lon="-7.1749370">
        <ele>567.2</ele>
        <time>2014-10-02T10:42:33Z</time>
      </trkpt>
      <trkpt lat="42.6093510" lon="-7.1749050">
        <ele>566.5</ele>
        <time>2014-10-02T10:42:34Z</time>
      </trkpt>
      <trkpt lat="42.6094190" lon="-7.1748930">
        <ele>565.8</ele>
        <time>2014-10-02T10:42:35Z</time>
      </trkpt>
      <trkpt lat="42.6094920" lon="-7.1748950">
        <ele>565.2</ele>
        <time>2014-10-02T10:42:36Z</time>
      </trkpt>
      <trkpt lat="42.6095560" lon="-7.1749350">
        <ele>564.7</ele>
        <time>2014-10-02T10:42:37Z</time>
      </trkpt>
      <trkpt lat="42.6096260" lon="-7.1750060">
        <ele>564.4</ele>
        <time>2014-10-02T10:42:38Z</time>
      </trkpt>
      <trkpt lat="42.6097030" lon="-7.1750890">
        <ele>564.6</ele>
        <time>2014-10-02T10:42:39Z</time>
      </trkpt>
      <trkpt lat="42.6097630" lon="-7.1752070">
        <ele>564.9</ele>
        <time>2014-10-02T10:42:40Z</time>
      </trkpt>
      <trkpt lat="42.6097980" lon="-7.1753390">
        <ele>564.1</ele>
        <time>2014-10-02T10:42:41Z</time>
      </trkpt>
      <trkpt lat="42.6098270" lon="-7.1754770">
        <ele>563.2</ele>
        <time>2014-10-02T10:42:42Z</time>
      </trkpt>
      <trkpt lat="42.6098540" lon="-7.1756040">
        <ele>562.5</ele>
        <time>2014-10-02T10:42:43Z</time>
      </trkpt>
      <trkpt lat="42.6099220" lon="-7.1757020">
        <ele>561.7</ele>
        <time>2014-10-02T10:42:44Z</time>
      </trkpt>
      <trkpt lat="42.6099920" lon="-7.1757550">
        <ele>561.1</ele>
        <time>2014-10-02T10:42:45Z</time>
      </trkpt>
      <trkpt lat="42.6100470" lon="-7.1757960">
        <ele>560.7</ele>
        <time>2014-10-02T10:42:46Z</time>
      </trkpt>
      <trkpt lat="42.6101030" lon="-7.1758370">
        <ele>560.2</ele>
        <time>2014-10-02T10:42:47Z</time>
      </trkpt>
      <trkpt lat="42.6102070" lon="-7.1758980">
        <ele>559.3</ele>
        <time>2014-10-02T10:42:48Z</time>
      </trkpt>
      <trkpt lat="42.6103040" lon="-7.1759910">
        <ele>558.1</ele>
        <time>2014-10-02T10:42:49Z</time>
      </trkpt>
      <trkpt lat="42.6103790" lon="-7.1761070">
        <ele>556.8</ele>
        <time>2014-10-02T10:42:50Z</time>
      </trkpt>
      <trkpt lat="42.6104560" lon="-7.1762290">
        <ele>555.5</ele>
        <time>2014-10-02T10:42:51Z</time>
      </trkpt>
      <trkpt lat="42.6105280" lon="-7.1763570">
        <ele>554.3</ele>
        <time>2014-10-02T10:42:52Z</time>
      </trkpt>
      <trkpt lat="42.6105880" lon="-7.1764860">
        <ele>553.2</ele>
        <time>2014-10-02T10:42:53Z</time>
      </trkpt>
      <trkpt lat="42.6106410" lon="-7.1766170">
        <ele>551.9</ele>
        <time>2014-10-02T10:42:54Z</time>
      </trkpt>
      <trkpt lat="42.6106910" lon="-7.1767550">
        <ele>550.6</ele>
        <time>2014-10-02T10:42:55Z</time>
      </trkpt>
      <trkpt lat="42.6107340" lon="-7.1768960">
        <ele>549.3</ele>
        <time>2014-10-02T10:42:56Z</time>
      </trkpt>
      <trkpt lat="42.6107820" lon="-7.1770380">
        <ele>548.2</ele>
        <time>2014-10-02T10:42:57Z</time>
      </trkpt>
      <trkpt lat="42.6108330" lon="-7.1771720">
        <ele>547.3</ele>
        <time>2014-10-02T10:42:58Z</time>
      </trkpt>
      <trkpt lat="42.6108850" lon="-7.1772920">
        <ele>546.6</ele>
        <time>2014-10-02T10:42:59Z</time>
      </trkpt>
      <trkpt lat="42.6109360" lon="-7.1774000">
        <ele>546.0</ele>
        <time>2014-10-02T10:43:00Z</time>
      </trkpt>
      <trkpt lat="42.6109900" lon="-7.1775130">
        <ele>545.1</ele>
        <time>2014-10-02T10:43:01Z</time>
      </trkpt>
      <trkpt lat="42.6110770" lon="-7.1775730">
        <ele>543.9</ele>
        <time>2014-10-02T10:43:02Z</time>
      </trkpt>
      <trkpt lat="42.6111710" lon="-7.1776320">
        <ele>542.4</ele>
        <time>2014-10-02T10:43:03Z</time>
      </trkpt>
      <trkpt lat="42.6112740" lon="-7.1776890">
        <ele>541.1</ele>
        <time>2014-10-02T10:43:04Z</time>
      </trkpt>
      <trkpt lat="42.6113650" lon="-7.1777370">
        <ele>539.9</ele>
        <time>2014-10-02T10:43:05Z</time>
      </trkpt>
      <trkpt lat="42.6114800" lon="-7.1777910">
        <ele>538.5</ele>
        <time>2014-10-02T10:43:06Z</time>
      </trkpt>
      <trkpt lat="42.6115830" lon="-7.1778500">
        <ele>537.5</ele>
        <time>2014-10-02T10:43:07Z</time>
      </trkpt>
      <trkpt lat="42.6117010" lon="-7.1779170">
        <ele>536.6</ele>
        <time>2014-10-02T10:43:08Z</time>
      </trkpt>
      <trkpt lat="42.6117950" lon="-7.1779760">
        <ele>535.9</ele>
        <time>2014-10-02T10:43:09Z</time>
      </trkpt>
      <trkpt lat="42.6118770" lon="-7.1780680">
        <ele>535.1</ele>
        <time>2014-10-02T10:43:10Z</time>
      </trkpt>
      <trkpt lat="42.6119280" lon="-7.1781810">
        <ele>534.3</ele>
        <time>2014-10-02T10:43:11Z</time>
      </trkpt>
      <trkpt lat="42.6119640" lon="-7.1783200">
        <ele>533.2</ele>
        <time>2014-10-02T10:43:12Z</time>
      </trkpt>
      <trkpt lat="42.6119690" lon="-7.1784660">
        <ele>532.2</ele>
        <time>2014-10-02T10:43:13Z</time>
      </trkpt>
      <trkpt lat="42.6119570" lon="-7.1786210">
        <ele>530.9</ele>
        <time>2014-10-02T10:43:14Z</time>
      </trkpt>
      <trkpt lat="42.6119430" lon="-7.1787780">
        <ele>529.5</ele>
        <time>2014-10-02T10:43:15Z</time>
      </trkpt>
      <trkpt lat="42.6119320" lon="-7.1789320">
        <ele>528.3</ele>
        <time>2014-10-02T10:43:16Z</time>
      </trkpt>
      <trkpt lat="42.6119250" lon="-7.1790800">
        <ele>527.4</ele>
        <time>2014-10-02T10:43:17Z</time>
      </trkpt>
      <trkpt lat="42.6119240" lon="-7.1792200">
        <ele>526.6</ele>
        <time>2014-10-02T10:43:18Z</time>
      </trkpt>
      <trkpt lat="42.6119310" lon="-7.1793590">
        <ele>525.7</ele>
        <time>2014-10-02T10:43:19Z</time>
      </trkpt>
      <trkpt lat="42.6120050" lon="-7.1794670">
        <ele>524.6</ele>
        <time>2014-10-02T10:43:20Z</time>
      </trkpt>
      <trkpt lat="42.6120820" lon="-7.1795640">
        <ele>523.4</ele>
        <time>2014-10-02T10:43:21Z</time>
      </trkpt>
      <trkpt lat="42.6121700" lon="-7.1796670">
        <ele>522.1</ele>
        <time>2014-10-02T10:43:22Z</time>
      </trkpt>
      <trkpt lat="42.6122650" lon="-7.1797610">
        <ele>521.0</ele>
        <time>2014-10-02T10:43:23Z</time>
      </trkpt>
      <trkpt lat="42.6123690" lon="-7.1798610">
        <ele>519.7</ele>
        <time>2014-10-02T10:43:24Z</time>
      </trkpt>
      <trkpt lat="42.6124790" lon="-7.1799520">
        <ele>518.4</ele>
        <time>2014-10-02T10:43:25Z</time>
      </trkpt>
      <trkpt lat="42.6125840" lon="-7.1800390">
        <ele>517.2</ele>
        <time>2014-10-02T10:43:26Z</time>
      </trkpt>
      <trkpt lat="42.6126870" lon="-7.1801440">
        <ele>515.9</ele>
        <time>2014-10-02T10:43:27Z</time>
      </trkpt>
      <trkpt lat="42.6127750" lon="-7.1802510">
        <ele>514.8</ele>
        <time>2014-10-02T10:43:28Z</time>
      </trkpt>
      <trkpt lat="42.6128530" lon="-7.1803620">
        <ele>513.8</ele>
        <time>2014-10-02T10:43:29Z</time>
      </trkpt>
      <trkpt lat="42.6129320" lon="-7.1804820">
        <ele>512.9</ele>
        <time>2014-10-02T10:43:30Z</time>
      </trkpt>
      <trkpt lat="42.6130070" lon="-7.1805980">
        <ele>512.0</ele>
        <time>2014-10-02T10:43:31Z</time>
      </trkpt>
      <trkpt lat="42.6130880" lon="-7.1807120">
        <ele>511.1</ele>
        <time>2014-10-02T10:43:32Z</time>
      </trkpt>
      <trkpt lat="42.6131620" lon="-7.1808090">
        <ele>510.4</ele>
        <time>2014-10-02T10:43:33Z</time>
      </trkpt>
      <trkpt lat="42.6132570" lon="-7.1808370">
        <ele>509.8</ele>
        <time>2014-10-02T10:43:34Z</time>
      </trkpt>
      <trkpt lat="42.6133510" lon="-7.1808670">
        <ele>509.2</ele>
        <time>2014-10-02T10:43:35Z</time>
      </trkpt>
      <trkpt lat="42.6134610" lon="-7.1808620">
        <ele>508.5</ele>
        <time>2014-10-02T10:43:36Z</time>
      </trkpt>
      <trkpt lat="42.6135760" lon="-7.1808080">
        <ele>507.8</ele>
        <time>2014-10-02T10:43:37Z</time>
      </trkpt>
      <trkpt lat="42.6136550" lon="-7.1806840">
        <ele>507.2</ele>
        <time>2014-10-02T10:43:38Z</time>
      </trkpt>
      <trkpt lat="42.6137290" lon="-7.1805730">
        <ele>506.6</ele>
        <time>2014-10-02T10:43:39Z</time>
      </trkpt>
      <trkpt lat="42.6138080" lon="-7.1804800">
        <ele>509.7</ele>
        <time>2014-10-02T10:43:40Z</time>
      </trkpt>
      <trkpt lat="42.6138930" lon="-7.1804140">
        <ele>511.6</ele>
        <time>2014-10-02T10:43:41Z</time>
      </trkpt>
      <trkpt lat="42.6139880" lon="-7.1803530">
        <ele>512.3</ele>
        <time>2014-10-02T10:43:42Z</time>
      </trkpt>
      <trkpt lat="42.6140790" lon="-7.1802870">
        <ele>511.5</ele>
        <time>2014-10-02T10:43:43Z</time>
      </trkpt>
      <trkpt lat="42.6141540" lon="-7.1801910">
        <ele>511.0</ele>
        <time>2014-10-02T10:43:44Z</time>
      </trkpt>
      <trkpt lat="42.6142230" lon="-7.1800890">
        <ele>510.7</ele>
        <time>2014-10-02T10:43:45Z</time>
      </trkpt>
      <trkpt lat="42.6142910" lon="-7.1799770">
        <ele>510.7</ele>
        <time>2014-10-02T10:43:46Z</time>
      </trkpt>
      <trkpt lat="42.6143510" lon="-7.1798730">
        <ele>510.6</ele>
        <time>2014-10-02T10:43:47Z</time>
      </trkpt>
      <trkpt lat="42.6144100" lon="-7.1797700">
        <ele>510.5</ele>
        <time>2014-10-02T10:43:48Z</time>
      </trkpt>
      <trkpt lat="42.6144620" lon="-7.1796700">
        <ele>510.6</ele>
        <time>2014-10-02T10:43:49Z</time>
      </trkpt>
      <trkpt lat="42.6145220" lon="-7.1795700">
        <ele>510.6</ele>
        <time>2014-10-02T10:43:50Z</time>
      </trkpt>
      <trkpt lat="42.6145810" lon="-7.1794830">
        <ele>510.6</ele>
        <time>2014-10-02T10:43:51Z</time>
      </trkpt>
      <trkpt lat="42.6146380" lon="-7.1794060">
        <ele>510.6</ele>
        <time>2014-10-02T10:43:52Z</time>
      </trkpt>
      <trkpt lat="42.6146890" lon="-7.1793430">
        <ele>510.7</ele>
        <time>2014-10-02T10:43:53Z</time>
      </trkpt>
      <trkpt lat="42.6147610" lon="-7.1793060">
        <ele>510.9</ele>
        <time>2014-10-02T10:43:54Z</time>
      </trkpt>
      <trkpt lat="42.6148240" lon="-7.1792760">
        <ele>511.0</ele>
        <time>2014-10-02T10:43:55Z</time>
      </trkpt>
      <trkpt lat="42.6148830" lon="-7.1792550">
        <ele>511.2</ele>
        <time>2014-10-02T10:43:56Z</time>
      </trkpt>
      <trkpt lat="42.6149380" lon="-7.1792390">
        <ele>511.3</ele>
        <time>2014-10-02T10:43:57Z</time>
      </trkpt>
      <trkpt lat="42.6149990" lon="-7.1792270">
        <ele>511.3</ele>
        <time>2014-10-02T10:43:58Z</time>
      </trkpt>
      <trkpt lat="42.6150760" lon="-7.1792360">
        <ele>511.4</ele>
        <time>2014-10-02T10:43:59Z</time>
      </trkpt>
      <trkpt lat="42.6151480" lon="-7.1792410">
        <ele>511.5</ele>
        <time>2014-10-02T10:44:00Z</time>
      </trkpt>
      <trkpt lat="42.6152220" lon="-7.1792450">
        <ele>511.6</ele>
        <time>2014-10-02T10:44:01Z</time>
      </trkpt>
      <trkpt lat="42.6152970" lon="-7.1792400">
        <ele>511.6</ele>
        <time>2014-10-02T10:44:02Z</time>
      </trkpt>
      <trkpt lat="42.6153750" lon="-7.1792280">
        <ele>511.6</ele>
        <time>2014-10-02T10:44:03Z</time>
      </trkpt>
      <trkpt lat="42.6154550" lon="-7.1792040">
        <ele>511.6</ele>
        <time>2014-10-02T10:44:04Z</time>
      </trkpt>
      <trkpt lat="42.6155300" lon="-7.1791660">
        <ele>511.7</ele>
        <time>2014-10-02T10:44:05Z</time>
      </trkpt>
      <trkpt lat="42.6156030" lon="-7.1791270">
        <ele>511.7</ele>
        <time>2014-10-02T10:44:06Z</time>
      </trkpt>
      <trkpt lat="42.6156750" lon="-7.1790910">
        <ele>511.8</ele>
        <time>2014-10-02T10:44:07Z</time>
      </trkpt>
      <trkpt lat="42.6157470" lon="-7.1790600">
        <ele>511.9</ele>
        <time>2014-10-02T10:44:08Z</time>
      </trkpt>
      <trkpt lat="42.6158200" lon="-7.1790330">
        <ele>512.2</ele>
        <time>2014-10-02T10:44:09Z</time>
      </trkpt>
      <trkpt lat="42.6158900" lon="-7.1790090">
        <ele>512.4</ele>
        <time>2014-10-02T10:44:10Z</time>
      </trkpt>
      <trkpt lat="42.6159580" lon="-7.1789850">
        <ele>512.6</ele>
        <time>2014-10-02T10:44:11Z</time>
      </trkpt>
      <trkpt lat="42.6160410" lon="-7.1789730">
        <ele>512.7</ele>
        <time>2014-10-02T10:44:12Z</time>
      </trkpt>
      <trkpt lat="42.6161230" lon="-7.1789670">
        <ele>512.8</ele>
        <time>2014-10-02T10:44:13Z</time>
      </trkpt>
      <trkpt lat="42.6162000" lon="-7.1789580">
        <ele>512.9</ele>
        <time>2014-10-02T10:44:14Z</time>
      </trkpt>
      <trkpt lat="42.6170860" lon="-7.1790000">
        <ele>515.0</ele>
        <time>2014-10-02T10:44:28Z</time>
      </trkpt>
      <trkpt lat="42.6171510" lon="-7.1789930">
        <ele>515.3</ele>
        <time>2014-10-02T10:44:29Z</time>
      </trkpt>
      <trkpt lat="42.6172190" lon="-7.1789660">
        <ele>515.6</ele>
        <time>2014-10-02T10:44:30Z</time>
      </trkpt>
      <trkpt lat="42.6172880" lon="-7.1789310">
        <ele>516.0</ele>
        <time>2014-10-02T10:44:31Z</time>
      </trkpt>
      <trkpt lat="42.6173680" lon="-7.1788960">
        <ele>516.4</ele>
        <time>2014-10-02T10:44:32Z</time>
      </trkpt>
      <trkpt lat="42.6174440" lon="-7.1788590">
        <ele>516.9</ele>
        <time>2014-10-02T10:44:33Z</time>
      </trkpt>
      <trkpt lat="42.6184020" lon="-7.1784660">
        <ele>515.5</ele>
        <time>2014-10-02T10:44:45Z</time>
      </trkpt>
      <trkpt lat="42.6197520" lon="-7.1782870">
        <ele>515.1</ele>
        <time>2014-10-02T10:45:06Z</time>
      </trkpt>
      <trkpt lat="42.6198120" lon="-7.1782650">
        <ele>515.3</ele>
        <time>2014-10-02T10:45:07Z</time>
      </trkpt>
      <trkpt lat="42.6198710" lon="-7.1782400">
        <ele>515.5</ele>
        <time>2014-10-02T10:45:08Z</time>
      </trkpt>
      <trkpt lat="42.6199280" lon="-7.1782150">
        <ele>515.7</ele>
        <time>2014-10-02T10:45:09Z</time>
      </trkpt>
      <trkpt lat="42.6199820" lon="-7.1781930">
        <ele>515.9</ele>
        <time>2014-10-02T10:45:10Z</time>
      </trkpt>
      <trkpt lat="42.6200310" lon="-7.1781720">
        <ele>516.1</ele>
        <time>2014-10-02T10:45:11Z</time>
      </trkpt>
      <trkpt lat="42.6200800" lon="-7.1781470">
        <ele>516.2</ele>
        <time>2014-10-02T10:45:12Z</time>
      </trkpt>
      <trkpt lat="42.6201300" lon="-7.1781210">
        <ele>516.4</ele>
        <time>2014-10-02T10:45:13Z</time>
      </trkpt>
      <trkpt lat="42.6201770" lon="-7.1780960">
        <ele>516.6</ele>
        <time>2014-10-02T10:45:14Z</time>
      </trkpt>
      <trkpt lat="42.6202030" lon="-7.1780680">
        <ele>516.7</ele>
        <time>2014-10-02T10:45:15Z</time>
      </trkpt>
      <trkpt lat="42.6202250" lon="-7.1780390">
        <ele>516.8</ele>
        <time>2014-10-02T10:45:16Z</time>
      </trkpt>
      <trkpt lat="42.6202380" lon="-7.1780020">
        <ele>516.9</ele>
        <time>2014-10-02T10:45:17Z</time>
      </trkpt>
      <trkpt lat="42.6202430" lon="-7.1779630">
        <ele>517.0</ele>
        <time>2014-10-02T10:45:18Z</time>
      </trkpt>
      <trkpt lat="42.6202440" lon="-7.1779230">
        <ele>517.2</ele>
        <time>2014-10-02T10:45:19Z</time>
      </trkpt>
      <trkpt lat="42.6202520" lon="-7.1778860">
        <ele>517.3</ele>
        <time>2014-10-02T10:45:20Z</time>
      </trkpt>
      <trkpt lat="42.6202640" lon="-7.1778450">
        <ele>517.4</ele>
        <time>2014-10-02T10:45:21Z</time>
      </trkpt>
      <trkpt lat="42.6202720" lon="-7.1778060">
        <ele>517.6</ele>
        <time>2014-10-02T10:45:22Z</time>
      </trkpt>
      <trkpt lat="42.6202870" lon="-7.1777670">
        <ele>517.7</ele>
        <time>2014-10-02T10:45:23Z</time>
      </trkpt>
      <trkpt lat="42.6203060" lon="-7.1777250">
        <ele>517.9</ele>
        <time>2014-10-02T10:45:24Z</time>
      </trkpt>
      <trkpt lat="42.6203250" lon="-7.1776790">
        <ele>518.1</ele>
        <time>2014-10-02T10:45:25Z</time>
      </trkpt>
      <trkpt lat="42.6203450" lon="-7.1776310">
        <ele>518.3</ele>
        <time>2014-10-02T10:45:26Z</time>
      </trkpt>
      <trkpt lat="42.6203530" lon="-7.1775830">
        <ele>518.5</ele>
        <time>2014-10-02T10:45:27Z</time>
      </trkpt>
      <trkpt lat="42.6203620" lon="-7.1775340">
        <ele>518.8</ele>
        <time>2014-10-02T10:45:28Z</time>
      </trkpt>
      <trkpt lat="42.6203720" lon="-7.1774830">
        <ele>519.1</ele>
        <time>2014-10-02T10:45:29Z</time>
      </trkpt>
      <trkpt lat="42.6203850" lon="-7.1774310">
        <ele>519.3</ele>
        <time>2014-10-02T10:45:30Z</time>
      </trkpt>
      <trkpt lat="42.6203940" lon="-7.1773910">
        <ele>519.5</ele>
        <time>2014-10-02T10:45:31Z</time>
      </trkpt>
      <trkpt lat="42.6203900" lon="-7.1773400">
        <ele>519.8</ele>
        <time>2014-10-02T10:45:32Z</time>
      </trkpt>
      <trkpt lat="42.6203890" lon="-7.1772900">
        <ele>520.0</ele>
        <time>2014-10-02T10:45:33Z</time>
      </trkpt>
      <trkpt lat="42.6203880" lon="-7.1772370">
        <ele>520.2</ele>
        <time>2014-10-02T10:45:34Z</time>
      </trkpt>
      <trkpt lat="42.6203870" lon="-7.1771770">
        <ele>520.4</ele>
        <time>2014-10-02T10:45:35Z</time>
      </trkpt>
      <trkpt lat="42.6203850" lon="-7.1771180">
        <ele>520.7</ele>
        <time>2014-10-02T10:45:36Z</time>
      </trkpt>
      <trkpt lat="42.6203850" lon="-7.1770630">
        <ele>520.9</ele>
        <time>2014-10-02T10:45:37Z</time>
      </trkpt>
      <trkpt lat="42.6203850" lon="-7.1770150">
        <ele>521.0</ele>
        <time>2014-10-02T10:45:38Z</time>
      </trkpt>
      <trkpt lat="42.6203820" lon="-7.1769740">
        <ele>521.2</ele>
        <time>2014-10-02T10:45:39Z</time>
      </trkpt>
      <trkpt lat="42.6203790" lon="-7.1769340">
        <ele>521.3</ele>
        <time>2014-10-02T10:45:40Z</time>
      </trkpt>
      <trkpt lat="42.6203760" lon="-7.1768950">
        <ele>521.5</ele>
        <time>2014-10-02T10:45:41Z</time>
      </trkpt>
      <trkpt lat="42.6203720" lon="-7.1768540">
        <ele>521.7</ele>
        <time>2014-10-02T10:45:42Z</time>
      </trkpt>
      <trkpt lat="42.6203660" lon="-7.1768120">
        <ele>521.8</ele>
        <time>2014-10-02T10:45:43Z</time>
      </trkpt>
      <trkpt lat="42.6203620" lon="-7.1767630">
        <ele>522.1</ele>
        <time>2014-10-02T10:45:44Z</time>
      </trkpt>
      <trkpt lat="42.6203630" lon="-7.1767230">
        <ele>522.2</ele>
        <time>2014-10-02T10:45:45Z</time>
      </trkpt>
      <trkpt lat="42.6203580" lon="-7.1766840">
        <ele>522.4</ele>
        <time>2014-10-02T10:45:46Z</time>
      </trkpt>
      <trkpt lat="42.6203550" lon="-7.1766310">
        <ele>522.6</ele>
        <time>2014-10-02T10:45:47Z</time>
      </trkpt>
      <trkpt lat="42.6203480" lon="-7.1765830">
        <ele>522.8</ele>
        <time>2014-10-02T10:45:48Z</time>
      </trkpt>
      <trkpt lat="42.6203460" lon="-7.1765360">
        <ele>523.0</ele>
        <time>2014-10-02T10:45:49Z</time>
      </trkpt>
      <trkpt lat="42.6203380" lon="-7.1764930">
        <ele>523.1</ele>
        <time>2014-10-02T10:45:50Z</time>
      </trkpt>
      <trkpt lat="42.6203360" lon="-7.1764510">
        <ele>523.3</ele>
        <time>2014-10-02T10:45:51Z</time>
      </trkpt>
      <trkpt lat="42.6203350" lon="-7.1764090">
        <ele>523.5</ele>
        <time>2014-10-02T10:45:52Z</time>
      </trkpt>
      <trkpt lat="42.6203310" lon="-7.1763280">
        <ele>523.8</ele>
        <time>2014-10-02T10:45:54Z</time>
      </trkpt>
      <trkpt lat="42.6203280" lon="-7.1762780">
        <ele>524.0</ele>
        <time>2014-10-02T10:45:55Z</time>
      </trkpt>
      <trkpt lat="42.6203230" lon="-7.1762290">
        <ele>524.2</ele>
        <time>2014-10-02T10:45:56Z</time>
      </trkpt>
      <trkpt lat="42.6203130" lon="-7.1761810">
        <ele>524.4</ele>
        <time>2014-10-02T10:45:57Z</time>
      </trkpt>
      <trkpt lat="42.6203050" lon="-7.1761460">
        <ele>524.6</ele>
        <time>2014-10-02T10:45:58Z</time>
      </trkpt>
      <trkpt lat="42.6202960" lon="-7.1761110">
        <ele>524.8</ele>
        <time>2014-10-02T10:45:59Z</time>
      </trkpt>
      <trkpt lat="42.6202910" lon="-7.1760730">
        <ele>525.0</ele>
        <time>2014-10-02T10:46:00Z</time>
      </trkpt>
      <trkpt lat="42.6202790" lon="-7.1760260">
        <ele>525.3</ele>
        <time>2014-10-02T10:46:01Z</time>
      </trkpt>
      <trkpt lat="42.6202690" lon="-7.1759880">
        <ele>525.5</ele>
        <time>2014-10-02T10:46:02Z</time>
      </trkpt>
      <trkpt lat="42.6202520" lon="-7.1759500">
        <ele>525.7</ele>
        <time>2014-10-02T10:46:03Z</time>
      </trkpt>
      <trkpt lat="42.6202390" lon="-7.1759000">
        <ele>526.0</ele>
        <time>2014-10-02T10:46:04Z</time>
      </trkpt>
      <trkpt lat="42.6202240" lon="-7.1758450">
        <ele>526.3</ele>
        <time>2014-10-02T10:46:05Z</time>
      </trkpt>
      <trkpt lat="42.6202120" lon="-7.1758020">
        <ele>526.4</ele>
        <time>2014-10-02T10:46:06Z</time>
      </trkpt>
      <trkpt lat="42.6202020" lon="-7.1757570">
        <ele>526.5</ele>
        <time>2014-10-02T10:46:07Z</time>
      </trkpt>
      <trkpt lat="42.6202010" lon="-7.1757070">
        <ele>526.6</ele>
        <time>2014-10-02T10:46:08Z</time>
      </trkpt>
      <trkpt lat="42.6201970" lon="-7.1756550">
        <ele>526.8</ele>
        <time>2014-10-02T10:46:09Z</time>
      </trkpt>
      <trkpt lat="42.6201920" lon="-7.1756000">
        <ele>526.9</ele>
        <time>2014-10-02T10:46:10Z</time>
      </trkpt>
      <trkpt lat="42.6201920" lon="-7.1755440">
        <ele>527.0</ele>
        <time>2014-10-02T10:46:11Z</time>
      </trkpt>
      <trkpt lat="42.6201950" lon="-7.1754860">
        <ele>527.2</ele>
        <time>2014-10-02T10:46:12Z</time>
      </trkpt>
      <trkpt lat="42.6201940" lon="-7.1754160">
        <ele>527.2</ele>
        <time>2014-10-02T10:46:13Z</time>
      </trkpt>
      <trkpt lat="42.6202030" lon="-7.1753490">
        <ele>527.0</ele>
        <time>2014-10-02T10:46:14Z</time>
      </trkpt>
      <trkpt lat="42.6202200" lon="-7.1752860">
        <ele>526.6</ele>
        <time>2014-10-02T10:46:15Z</time>
      </trkpt>
      <trkpt lat="42.6202380" lon="-7.1752340">
        <ele>526.2</ele>
        <time>2014-10-02T10:46:16Z</time>
      </trkpt>
      <trkpt lat="42.6202700" lon="-7.1751990">
        <ele>526.3</ele>
        <time>2014-10-02T10:46:17Z</time>
      </trkpt>
      <trkpt lat="42.6203070" lon="-7.1751790">
        <ele>526.3</ele>
        <time>2014-10-02T10:46:18Z</time>
      </trkpt>
      <trkpt lat="42.6203410" lon="-7.1751630">
        <ele>526.3</ele>
        <time>2014-10-02T10:46:19Z</time>
      </trkpt>
      <trkpt lat="42.6203860" lon="-7.1751730">
        <ele>526.4</ele>
        <time>2014-10-02T10:46:20Z</time>
      </trkpt>
      <trkpt lat="42.6204310" lon="-7.1751850">
        <ele>526.4</ele>
        <time>2014-10-02T10:46:21Z</time>
      </trkpt>
      <trkpt lat="42.6204740" lon="-7.1752000">
        <ele>526.5</ele>
        <time>2014-10-02T10:46:22Z</time>
      </trkpt>
      <trkpt lat="42.6205210" lon="-7.1752110">
        <ele>526.6</ele>
        <time>2014-10-02T10:46:23Z</time>
      </trkpt>
      <trkpt lat="42.6205700" lon="-7.1752070">
        <ele>526.6</ele>
        <time>2014-10-02T10:46:24Z</time>
      </trkpt>
      <trkpt lat="42.6206160" lon="-7.1751840">
        <ele>526.7</ele>
        <time>2014-10-02T10:46:25Z</time>
      </trkpt>
      <trkpt lat="42.6206680" lon="-7.1751530">
        <ele>526.9</ele>
        <time>2014-10-02T10:46:26Z</time>
      </trkpt>
      <trkpt lat="42.6207230" lon="-7.1751140">
        <ele>527.2</ele>
        <time>2014-10-02T10:46:27Z</time>
      </trkpt>
      <trkpt lat="42.6207720" lon="-7.1750660">
        <ele>527.4</ele>
        <time>2014-10-02T10:46:28Z</time>
      </trkpt>
      <trkpt lat="42.6208120" lon="-7.1750100">
        <ele>527.6</ele>
        <time>2014-10-02T10:46:29Z</time>
      </trkpt>
      <trkpt lat="42.6208460" lon="-7.1749540">
        <ele>527.8</ele>
        <time>2014-10-02T10:46:30Z</time>
      </trkpt>
      <trkpt lat="42.6208810" lon="-7.1748960">
        <ele>527.9</ele>
        <time>2014-10-02T10:46:31Z</time>
      </trkpt>
      <trkpt lat="42.6209220" lon="-7.1748340">
        <ele>527.9</ele>
        <time>2014-10-02T10:46:32Z</time>
      </trkpt>
      <trkpt lat="42.6209580" lon="-7.1747820">
        <ele>527.9</ele>
        <time>2014-10-02T10:46:33Z</time>
      </trkpt>
      <trkpt lat="42.6209950" lon="-7.1747260">
        <ele>527.9</ele>
        <time>2014-10-02T10:46:34Z</time>
      </trkpt>
      <trkpt lat="42.6210330" lon="-7.1746720">
        <ele>528.0</ele>
        <time>2014-10-02T10:46:35Z</time>
      </trkpt>
      <trkpt lat="42.6210770" lon="-7.1746070">
        <ele>528.1</ele>
        <time>2014-10-02T10:46:36Z</time>
      </trkpt>
      <trkpt lat="42.6211180" lon="-7.1745430">
        <ele>528.2</ele>
        <time>2014-10-02T10:46:37Z</time>
      </trkpt>
      <trkpt lat="42.6211560" lon="-7.1744790">
        <ele>528.3</ele>
        <time>2014-10-02T10:46:38Z</time>
      </trkpt>
      <trkpt lat="42.6211930" lon="-7.1744190">
        <ele>528.5</ele>
        <time>2014-10-02T10:46:39Z</time>
      </trkpt>
      <trkpt lat="42.6212280" lon="-7.1743610">
        <ele>528.6</ele>
        <time>2014-10-02T10:46:40Z</time>
      </trkpt>
      <trkpt lat="42.6212630" lon="-7.1743020">
        <ele>528.7</ele>
        <time>2014-10-02T10:46:41Z</time>
      </trkpt>
      <trkpt lat="42.6213050" lon="-7.1742430">
        <ele>528.8</ele>
        <time>2014-10-02T10:46:42Z</time>
      </trkpt>
      <trkpt lat="42.6213430" lon="-7.1741840">
        <ele>528.9</ele>
        <time>2014-10-02T10:46:43Z</time>
      </trkpt>
      <trkpt lat="42.6213830" lon="-7.1741180">
        <ele>529.0</ele>
        <time>2014-10-02T10:46:44Z</time>
      </trkpt>
      <trkpt lat="42.6214200" lon="-7.1740550">
        <ele>529.1</ele>
        <time>2014-10-02T10:46:45Z</time>
      </trkpt>
      <trkpt lat="42.6214610" lon="-7.1739960">
        <ele>529.2</ele>
        <time>2014-10-02T10:46:46Z</time>
      </trkpt>
      <trkpt lat="42.6214930" lon="-7.1739360">
        <ele>529.2</ele>
        <time>2014-10-02T10:46:47Z</time>
      </trkpt>
      <trkpt lat="42.6215290" lon="-7.1738690">
        <ele>529.3</ele>
        <time>2014-10-02T10:46:48Z</time>
      </trkpt>
      <trkpt lat="42.6215710" lon="-7.1738030">
        <ele>529.4</ele>
        <time>2014-10-02T10:46:49Z</time>
      </trkpt>
      <trkpt lat="42.6216140" lon="-7.1737410">
        <ele>529.5</ele>
        <time>2014-10-02T10:46:50Z</time>
      </trkpt>
      <trkpt lat="42.6216760" lon="-7.1736900">
        <ele>529.7</ele>
        <time>2014-10-02T10:46:51Z</time>
      </trkpt>
      <trkpt lat="42.6217240" lon="-7.1736460">
        <ele>529.9</ele>
        <time>2014-10-02T10:46:52Z</time>
      </trkpt>
      <trkpt lat="42.6217670" lon="-7.1736060">
        <ele>530.1</ele>
        <time>2014-10-02T10:46:53Z</time>
      </trkpt>
      <trkpt lat="42.6218180" lon="-7.1735660">
        <ele>530.4</ele>
        <time>2014-10-02T10:46:54Z</time>
      </trkpt>
      <trkpt lat="42.6218720" lon="-7.1735310">
        <ele>530.7</ele>
        <time>2014-10-02T10:46:55Z</time>
      </trkpt>
      <trkpt lat="42.6219250" lon="-7.1735040">
        <ele>530.9</ele>
        <time>2014-10-02T10:46:56Z</time>
      </trkpt>
      <trkpt lat="42.6219800" lon="-7.1734800">
        <ele>531.2</ele>
        <time>2014-10-02T10:46:57Z</time>
      </trkpt>
      <trkpt lat="42.6220350" lon="-7.1734530">
        <ele>531.4</ele>
        <time>2014-10-02T10:46:58Z</time>
      </trkpt>
      <trkpt lat="42.6220930" lon="-7.1734240">
        <ele>531.6</ele>
        <time>2014-10-02T10:46:59Z</time>
      </trkpt>
      <trkpt lat="42.6221460" lon="-7.1733960">
        <ele>531.7</ele>
        <time>2014-10-02T10:47:00Z</time>
      </trkpt>
      <trkpt lat="42.6221980" lon="-7.1733710">
        <ele>531.8</ele>
        <time>2014-10-02T10:47:01Z</time>
      </trkpt>
      <trkpt lat="42.6222450" lon="-7.1733480">
        <ele>531.9</ele>
        <time>2014-10-02T10:47:02Z</time>
      </trkpt>
      <trkpt lat="42.6222970" lon="-7.1733240">
        <ele>531.9</ele>
        <time>2014-10-02T10:47:03Z</time>
      </trkpt>
      <trkpt lat="42.6223470" lon="-7.1732930">
        <ele>531.9</ele>
        <time>2014-10-02T10:47:04Z</time>
      </trkpt>
      <trkpt lat="42.6223840" lon="-7.1732470">
        <ele>531.9</ele>
        <time>2014-10-02T10:47:05Z</time>
      </trkpt>
      <trkpt lat="42.6224190" lon="-7.1731980">
        <ele>531.9</ele>
        <time>2014-10-02T10:47:06Z</time>
      </trkpt>
      <trkpt lat="42.6224400" lon="-7.1731370">
        <ele>531.9</ele>
        <time>2014-10-02T10:47:07Z</time>
      </trkpt>
      <trkpt lat="42.6224570" lon="-7.1730820">
        <ele>531.9</ele>
        <time>2014-10-02T10:47:08Z</time>
      </trkpt>
      <trkpt lat="42.6224720" lon="-7.1730220">
        <ele>531.8</ele>
        <time>2014-10-02T10:47:09Z</time>
      </trkpt>
      <trkpt lat="42.6224760" lon="-7.1729520">
        <ele>531.9</ele>
        <time>2014-10-02T10:47:10Z</time>
      </trkpt>
      <trkpt lat="42.6224780" lon="-7.1728790">
        <ele>531.9</ele>
        <time>2014-10-02T10:47:11Z</time>
      </trkpt>
      <trkpt lat="42.6224910" lon="-7.1728070">
        <ele>531.8</ele>
        <time>2014-10-02T10:47:12Z</time>
      </trkpt>
      <trkpt lat="42.6225020" lon="-7.1727410">
        <ele>531.6</ele>
        <time>2014-10-02T10:47:13Z</time>
      </trkpt>
      <trkpt lat="42.6225070" lon="-7.1726770">
        <ele>531.3</ele>
        <time>2014-10-02T10:47:14Z</time>
      </trkpt>
      <trkpt lat="42.6225140" lon="-7.1726070">
        <ele>531.1</ele>
        <time>2014-10-02T10:47:15Z</time>
      </trkpt>
      <trkpt lat="42.6225170" lon="-7.1725320">
        <ele>531.0</ele>
        <time>2014-10-02T10:47:16Z</time>
      </trkpt>
      <trkpt lat="42.6225220" lon="-7.1724580">
        <ele>531.0</ele>
        <time>2014-10-02T10:47:17Z</time>
      </trkpt>
      <trkpt lat="42.6225270" lon="-7.1723800">
        <ele>531.0</ele>
        <time>2014-10-02T10:47:18Z</time>
      </trkpt>
      <trkpt lat="42.6225240" lon="-7.1723110">
        <ele>531.1</ele>
        <time>2014-10-02T10:47:19Z</time>
      </trkpt>
      <trkpt lat="42.6225220" lon="-7.1722310">
        <ele>531.2</ele>
        <time>2014-10-02T10:47:20Z</time>
      </trkpt>
      <trkpt lat="42.6225170" lon="-7.1721510">
        <ele>531.3</ele>
        <time>2014-10-02T10:47:21Z</time>
      </trkpt>
      <trkpt lat="42.6225100" lon="-7.1720740">
        <ele>531.5</ele>
        <time>2014-10-02T10:47:22Z</time>
      </trkpt>
      <trkpt lat="42.6225000" lon="-7.1720030">
        <ele>531.7</ele>
        <time>2014-10-02T10:47:23Z</time>
      </trkpt>
      <trkpt lat="42.6224920" lon="-7.1719280">
        <ele>531.8</ele>
        <time>2014-10-02T10:47:24Z</time>
      </trkpt>
      <trkpt lat="42.6224830" lon="-7.1718580">
        <ele>532.0</ele>
        <time>2014-10-02T10:47:25Z</time>
      </trkpt>
      <trkpt lat="42.6224730" lon="-7.1717850">
        <ele>532.2</ele>
        <time>2014-10-02T10:47:26Z</time>
      </trkpt>
      <trkpt lat="42.6224660" lon="-7.1717130">
        <ele>532.3</ele>
        <time>2014-10-02T10:47:27Z</time>
      </trkpt>
      <trkpt lat="42.6224580" lon="-7.1716460">
        <ele>532.4</ele>
        <time>2014-10-02T10:47:28Z</time>
      </trkpt>
      <trkpt lat="42.6224480" lon="-7.1715730">
        <ele>532.5</ele>
        <time>2014-10-02T10:47:29Z</time>
      </trkpt>
      <trkpt lat="42.6224410" lon="-7.1715010">
        <ele>532.6</ele>
        <time>2014-10-02T10:47:30Z</time>
      </trkpt>
      <trkpt lat="42.6224310" lon="-7.1714260">
        <ele>532.7</ele>
        <time>2014-10-02T10:47:31Z</time>
      </trkpt>
      <trkpt lat="42.6224230" lon="-7.1713530">
        <ele>532.9</ele>
        <time>2014-10-02T10:47:32Z</time>
      </trkpt>
      <trkpt lat="42.6224170" lon="-7.1712800">
        <ele>533.1</ele>
        <time>2014-10-02T10:47:33Z</time>
      </trkpt>
      <trkpt lat="42.6224110" lon="-7.1712150">
        <ele>533.3</ele>
        <time>2014-10-02T10:47:34Z</time>
      </trkpt>
      <trkpt lat="42.6224040" lon="-7.1711430">
        <ele>533.6</ele>
        <time>2014-10-02T10:47:35Z</time>
      </trkpt>
      <trkpt lat="42.6224140" lon="-7.1710640">
        <ele>533.8</ele>
        <time>2014-10-02T10:47:36Z</time>
      </trkpt>
      <trkpt lat="42.6224280" lon="-7.1709870">
        <ele>534.1</ele>
        <time>2014-10-02T10:47:37Z</time>
      </trkpt>
      <trkpt lat="42.6224540" lon="-7.1709280">
        <ele>534.3</ele>
        <time>2014-10-02T10:47:38Z</time>
      </trkpt>
      <trkpt lat="42.6224960" lon="-7.1708800">
        <ele>534.4</ele>
        <time>2014-10-02T10:47:39Z</time>
      </trkpt>
      <trkpt lat="42.6225420" lon="-7.1708380">
        <ele>534.5</ele>
        <time>2014-10-02T10:47:40Z</time>
      </trkpt>
      <trkpt lat="42.6225980" lon="-7.1708140">
        <ele>534.5</ele>
        <time>2014-10-02T10:47:41Z</time>
      </trkpt>
      <trkpt lat="42.6226540" lon="-7.1707930">
        <ele>534.5</ele>
        <time>2014-10-02T10:47:42Z</time>
      </trkpt>
      <trkpt lat="42.6227150" lon="-7.1707770">
        <ele>534.5</ele>
        <time>2014-10-02T10:47:43Z</time>
      </trkpt>
      <trkpt lat="42.6227730" lon="-7.1707680">
        <ele>534.5</ele>
        <time>2014-10-02T10:47:44Z</time>
      </trkpt>
      <trkpt lat="42.6228370" lon="-7.1707640">
        <ele>534.6</ele>
        <time>2014-10-02T10:47:45Z</time>
      </trkpt>
      <trkpt lat="42.6228920" lon="-7.1707610">
        <ele>534.7</ele>
        <time>2014-10-02T10:47:46Z</time>
      </trkpt>
      <trkpt lat="42.6229520" lon="-7.1707590">
        <ele>534.8</ele>
        <time>2014-10-02T10:47:47Z</time>
      </trkpt>
      <trkpt lat="42.6230120" lon="-7.1707560">
        <ele>534.9</ele>
        <time>2014-10-02T10:47:48Z</time>
      </trkpt>
      <trkpt lat="42.6230730" lon="-7.1707510">
        <ele>535.0</ele>
        <time>2014-10-02T10:47:49Z</time>
      </trkpt>
      <trkpt lat="42.6231340" lon="-7.1707480">
        <ele>535.2</ele>
        <time>2014-10-02T10:47:50Z</time>
      </trkpt>
      <trkpt lat="42.6231940" lon="-7.1707460">
        <ele>535.3</ele>
        <time>2014-10-02T10:47:51Z</time>
      </trkpt>
      <trkpt lat="42.6232480" lon="-7.1707480">
        <ele>535.4</ele>
        <time>2014-10-02T10:47:52Z</time>
      </trkpt>
      <trkpt lat="42.6233010" lon="-7.1707560">
        <ele>535.5</ele>
        <time>2014-10-02T10:47:53Z</time>
      </trkpt>
      <trkpt lat="42.6233570" lon="-7.1707790">
        <ele>535.6</ele>
        <time>2014-10-02T10:47:54Z</time>
      </trkpt>
      <trkpt lat="42.6234050" lon="-7.1708020">
        <ele>535.7</ele>
        <time>2014-10-02T10:47:55Z</time>
      </trkpt>
      <trkpt lat="42.6234570" lon="-7.1708290">
        <ele>535.9</ele>
        <time>2014-10-02T10:47:56Z</time>
      </trkpt>
      <trkpt lat="42.6235140" lon="-7.1708620">
        <ele>536.0</ele>
        <time>2014-10-02T10:47:57Z</time>
      </trkpt>
      <trkpt lat="42.6235620" lon="-7.1708880">
        <ele>536.1</ele>
        <time>2014-10-02T10:47:58Z</time>
      </trkpt>
      <trkpt lat="42.6236180" lon="-7.1708950">
        <ele>536.1</ele>
        <time>2014-10-02T10:47:59Z</time>
      </trkpt>
      <trkpt lat="42.6236740" lon="-7.1708970">
        <ele>536.2</ele>
        <time>2014-10-02T10:48:00Z</time>
      </trkpt>
      <trkpt lat="42.6237320" lon="-7.1708800">
        <ele>536.3</ele>
        <time>2014-10-02T10:48:01Z</time>
      </trkpt>
      <trkpt lat="42.6237970" lon="-7.1708560">
        <ele>536.4</ele>
        <time>2014-10-02T10:48:02Z</time>
      </trkpt>
      <trkpt lat="42.6238620" lon="-7.1708280">
        <ele>536.5</ele>
        <time>2014-10-02T10:48:03Z</time>
      </trkpt>
      <trkpt lat="42.6239350" lon="-7.1707970">
        <ele>536.5</ele>
        <time>2014-10-02T10:48:04Z</time>
      </trkpt>
      <trkpt lat="42.6240040" lon="-7.1707630">
        <ele>536.6</ele>
        <time>2014-10-02T10:48:05Z</time>
      </trkpt>
      <trkpt lat="42.6240630" lon="-7.1707270">
        <ele>536.6</ele>
        <time>2014-10-02T10:48:06Z</time>
      </trkpt>
      <trkpt lat="42.6241180" lon="-7.1706870">
        <ele>536.7</ele>
        <time>2014-10-02T10:48:07Z</time>
      </trkpt>
      <trkpt lat="42.6241740" lon="-7.1706410">
        <ele>536.8</ele>
        <time>2014-10-02T10:48:08Z</time>
      </trkpt>
      <trkpt lat="42.6242290" lon="-7.1705930">
        <ele>537.0</ele>
        <time>2014-10-02T10:48:09Z</time>
      </trkpt>
      <trkpt lat="42.6242800" lon="-7.1705410">
        <ele>537.3</ele>
        <time>2014-10-02T10:48:10Z</time>
      </trkpt>
      <trkpt lat="42.6243220" lon="-7.1704830">
        <ele>537.5</ele>
        <time>2014-10-02T10:48:11Z</time>
      </trkpt>
      <trkpt lat="42.6243610" lon="-7.1704200">
        <ele>537.7</ele>
        <time>2014-10-02T10:48:12Z</time>
      </trkpt>
      <trkpt lat="42.6243900" lon="-7.1703490">
        <ele>537.9</ele>
        <time>2014-10-02T10:48:13Z</time>
      </trkpt>
      <trkpt lat="42.6244180" lon="-7.1702730">
        <ele>538.0</ele>
        <time>2014-10-02T10:48:14Z</time>
      </trkpt>
      <trkpt lat="42.6244330" lon="-7.1702020">
        <ele>538.1</ele>
        <time>2014-10-02T10:48:15Z</time>
      </trkpt>
      <trkpt lat="42.6244430" lon="-7.1701330">
        <ele>538.2</ele>
        <time>2014-10-02T10:48:16Z</time>
      </trkpt>
      <trkpt lat="42.6244510" lon="-7.1700590">
        <ele>538.3</ele>
        <time>2014-10-02T10:48:17Z</time>
      </trkpt>
      <trkpt lat="42.6244560" lon="-7.1699830">
        <ele>538.4</ele>
        <time>2014-10-02T10:48:18Z</time>
      </trkpt>
      <trkpt lat="42.6244570" lon="-7.1699050">
        <ele>538.5</ele>
        <time>2014-10-02T10:48:19Z</time>
      </trkpt>
      <trkpt lat="42.6244590" lon="-7.1698200">
        <ele>538.6</ele>
        <time>2014-10-02T10:48:20Z</time>
      </trkpt>
      <trkpt lat="42.6244580" lon="-7.1697410">
        <ele>538.7</ele>
        <time>2014-10-02T10:48:21Z</time>
      </trkpt>
      <trkpt lat="42.6244560" lon="-7.1696650">
        <ele>538.8</ele>
        <time>2014-10-02T10:48:22Z</time>
      </trkpt>
      <trkpt lat="42.6244550" lon="-7.1695880">
        <ele>538.9</ele>
        <time>2014-10-02T10:48:23Z</time>
      </trkpt>
      <trkpt lat="42.6244530" lon="-7.1695160">
        <ele>539.0</ele>
        <time>2014-10-02T10:48:24Z</time>
      </trkpt>
      <trkpt lat="42.6244540" lon="-7.1694380">
        <ele>539.1</ele>
        <time>2014-10-02T10:48:25Z</time>
      </trkpt>
      <trkpt lat="42.6244550" lon="-7.1693630">
        <ele>539.3</ele>
        <time>2014-10-02T10:48:26Z</time>
      </trkpt>
      <trkpt lat="42.6244560" lon="-7.1692850">
        <ele>539.4</ele>
        <time>2014-10-02T10:48:27Z</time>
      </trkpt>
      <trkpt lat="42.6244600" lon="-7.1692020">
        <ele>539.5</ele>
        <time>2014-10-02T10:48:28Z</time>
      </trkpt>
      <trkpt lat="42.6244660" lon="-7.1691240">
        <ele>539.6</ele>
        <time>2014-10-02T10:48:29Z</time>
      </trkpt>
      <trkpt lat="42.6244730" lon="-7.1690460">
        <ele>539.7</ele>
        <time>2014-10-02T10:48:30Z</time>
      </trkpt>
      <trkpt lat="42.6244840" lon="-7.1689670">
        <ele>539.8</ele>
        <time>2014-10-02T10:48:31Z</time>
      </trkpt>
      <trkpt lat="42.6244940" lon="-7.1688920">
        <ele>540.0</ele>
        <time>2014-10-02T10:48:32Z</time>
      </trkpt>
      <trkpt lat="42.6245080" lon="-7.1688120">
        <ele>540.1</ele>
        <time>2014-10-02T10:48:33Z</time>
      </trkpt>
      <trkpt lat="42.6245230" lon="-7.1687350">
        <ele>540.3</ele>
        <time>2014-10-02T10:48:34Z</time>
      </trkpt>
      <trkpt lat="42.6245430" lon="-7.1686570">
        <ele>540.4</ele>
        <time>2014-10-02T10:48:35Z</time>
      </trkpt>
      <trkpt lat="42.6245640" lon="-7.1685770">
        <ele>540.7</ele>
        <time>2014-10-02T10:48:36Z</time>
      </trkpt>
      <trkpt lat="42.6245860" lon="-7.1685030">
        <ele>540.9</ele>
        <time>2014-10-02T10:48:37Z</time>
      </trkpt>
      <trkpt lat="42.6246100" lon="-7.1684280">
        <ele>541.3</ele>
        <time>2014-10-02T10:48:38Z</time>
      </trkpt>
      <trkpt lat="42.6246370" lon="-7.1683540">
        <ele>541.6</ele>
        <time>2014-10-02T10:48:39Z</time>
      </trkpt>
      <trkpt lat="42.6246640" lon="-7.1682820">
        <ele>541.9</ele>
        <time>2014-10-02T10:48:40Z</time>
      </trkpt>
      <trkpt lat="42.6246940" lon="-7.1682080">
        <ele>542.1</ele>
        <time>2014-10-02T10:48:41Z</time>
      </trkpt>
      <trkpt lat="42.6247190" lon="-7.1681430">
        <ele>542.4</ele>
        <time>2014-10-02T10:48:42Z</time>
      </trkpt>
      <trkpt lat="42.6247460" lon="-7.1680730">
        <ele>542.7</ele>
        <time>2014-10-02T10:48:43Z</time>
      </trkpt>
      <trkpt lat="42.6247700" lon="-7.1680090">
        <ele>542.9</ele>
        <time>2014-10-02T10:48:44Z</time>
      </trkpt>
      <trkpt lat="42.6247950" lon="-7.1679440">
        <ele>543.2</ele>
        <time>2014-10-02T10:48:45Z</time>
      </trkpt>
      <trkpt lat="42.6248220" lon="-7.1678840">
        <ele>543.4</ele>
        <time>2014-10-02T10:48:46Z</time>
      </trkpt>
      <trkpt lat="42.6248620" lon="-7.1678260">
        <ele>543.6</ele>
        <time>2014-10-02T10:48:47Z</time>
      </trkpt>
      <trkpt lat="42.6249050" lon="-7.1677690">
        <ele>543.9</ele>
        <time>2014-10-02T10:48:48Z</time>
      </trkpt>
      <trkpt lat="42.6249630" lon="-7.1677300">
        <ele>544.2</ele>
        <time>2014-10-02T10:48:49Z</time>
      </trkpt>
      <trkpt lat="42.6250180" lon="-7.1677010">
        <ele>544.4</ele>
        <time>2014-10-02T10:48:50Z</time>
      </trkpt>
      <trkpt lat="42.6250830" lon="-7.1676920">
        <ele>544.6</ele>
        <time>2014-10-02T10:48:51Z</time>
      </trkpt>
      <trkpt lat="42.6251410" lon="-7.1676880">
        <ele>544.8</ele>
        <time>2014-10-02T10:48:52Z</time>
      </trkpt>
      <trkpt lat="42.6251950" lon="-7.1676900">
        <ele>545.0</ele>
        <time>2014-10-02T10:48:53Z</time>
      </trkpt>
      <trkpt lat="42.6252500" lon="-7.1677080">
        <ele>545.2</ele>
        <time>2014-10-02T10:48:54Z</time>
      </trkpt>
      <trkpt lat="42.6252960" lon="-7.1677260">
        <ele>545.4</ele>
        <time>2014-10-02T10:48:55Z</time>
      </trkpt>
      <trkpt lat="42.6253460" lon="-7.1677490">
        <ele>545.6</ele>
        <time>2014-10-02T10:48:56Z</time>
      </trkpt>
      <trkpt lat="42.6253910" lon="-7.1677730">
        <ele>545.8</ele>
        <time>2014-10-02T10:48:57Z</time>
      </trkpt>
      <trkpt lat="42.6254310" lon="-7.1678070">
        <ele>546.0</ele>
        <time>2014-10-02T10:48:58Z</time>
      </trkpt>
      <trkpt lat="42.6254730" lon="-7.1678470">
        <ele>546.3</ele>
        <time>2014-10-02T10:48:59Z</time>
      </trkpt>
      <trkpt lat="42.6255190" lon="-7.1678940">
        <ele>546.6</ele>
        <time>2014-10-02T10:49:00Z</time>
      </trkpt>
      <trkpt lat="42.6255680" lon="-7.1679430">
        <ele>547.0</ele>
        <time>2014-10-02T10:49:01Z</time>
      </trkpt>
      <trkpt lat="42.6256180" lon="-7.1679910">
        <ele>547.3</ele>
        <time>2014-10-02T10:49:02Z</time>
      </trkpt>
      <trkpt lat="42.6256670" lon="-7.1680330">
        <ele>547.7</ele>
        <time>2014-10-02T10:49:03Z</time>
      </trkpt>
      <trkpt lat="42.6257100" lon="-7.1680620">
        <ele>547.9</ele>
        <time>2014-10-02T10:49:04Z</time>
      </trkpt>
      <trkpt lat="42.6257560" lon="-7.1680870">
        <ele>548.2</ele>
        <time>2014-10-02T10:49:05Z</time>
      </trkpt>
      <trkpt lat="42.6258120" lon="-7.1680940">
        <ele>548.5</ele>
        <time>2014-10-02T10:49:06Z</time>
      </trkpt>
      <trkpt lat="42.6258630" lon="-7.1680940">
        <ele>548.7</ele>
        <time>2014-10-02T10:49:07Z</time>
      </trkpt>
      <trkpt lat="42.6259110" lon="-7.1680870">
        <ele>549.0</ele>
        <time>2014-10-02T10:49:08Z</time>
      </trkpt>
      <trkpt lat="42.6259590" lon="-7.1680610">
        <ele>549.2</ele>
        <time>2014-10-02T10:49:09Z</time>
      </trkpt>
      <trkpt lat="42.6260040" lon="-7.1680310">
        <ele>549.5</ele>
        <time>2014-10-02T10:49:10Z</time>
      </trkpt>
      <trkpt lat="42.6260490" lon="-7.1679930">
        <ele>549.8</ele>
        <time>2014-10-02T10:49:11Z</time>
      </trkpt>
      <trkpt lat="42.6260820" lon="-7.1679370">
        <ele>550.1</ele>
        <time>2014-10-02T10:49:12Z</time>
      </trkpt>
      <trkpt lat="42.6261120" lon="-7.1678830">
        <ele>550.3</ele>
        <time>2014-10-02T10:49:13Z</time>
      </trkpt>
      <trkpt lat="42.6261410" lon="-7.1678250">
        <ele>550.5</ele>
        <time>2014-10-02T10:49:14Z</time>
      </trkpt>
      <trkpt lat="42.6261570" lon="-7.1677680">
        <ele>550.7</ele>
        <time>2014-10-02T10:49:15Z</time>
      </trkpt>
      <trkpt lat="42.6261750" lon="-7.1677090">
        <ele>550.9</ele>
        <time>2014-10-02T10:49:16Z</time>
      </trkpt>
      <trkpt lat="42.6261950" lon="-7.1676500">
        <ele>551.2</ele>
        <time>2014-10-02T10:49:17Z</time>
      </trkpt>
      <trkpt lat="42.6262120" lon="-7.1676000">
        <ele>551.4</ele>
        <time>2014-10-02T10:49:18Z</time>
      </trkpt>
      <trkpt lat="42.6262310" lon="-7.1675490">
        <ele>551.6</ele>
        <time>2014-10-02T10:49:19Z</time>
      </trkpt>
      <trkpt lat="42.6262470" lon="-7.1675020">
        <ele>551.7</ele>
        <time>2014-10-02T10:49:20Z</time>
      </trkpt>
      <trkpt lat="42.6262600" lon="-7.1674600">
        <ele>551.9</ele>
        <time>2014-10-02T10:49:21Z</time>
      </trkpt>
      <trkpt lat="42.6262700" lon="-7.1674080">
        <ele>552.0</ele>
        <time>2014-10-02T10:49:22Z</time>
      </trkpt>
      <trkpt lat="42.6262910" lon="-7.1673490">
        <ele>552.3</ele>
        <time>2014-10-02T10:49:23Z</time>
      </trkpt>
      <trkpt lat="42.6263110" lon="-7.1672920">
        <ele>552.5</ele>
        <time>2014-10-02T10:49:24Z</time>
      </trkpt>
      <trkpt lat="42.6263210" lon="-7.1672480">
        <ele>552.7</ele>
        <time>2014-10-02T10:49:25Z</time>
      </trkpt>
      <trkpt lat="42.6263290" lon="-7.1671970">
        <ele>553.0</ele>
        <time>2014-10-02T10:49:26Z</time>
      </trkpt>
      <trkpt lat="42.6263430" lon="-7.1671460">
        <ele>553.2</ele>
        <time>2014-10-02T10:49:27Z</time>
      </trkpt>
      <trkpt lat="42.6263570" lon="-7.1670960">
        <ele>553.5</ele>
        <time>2014-10-02T10:49:28Z</time>
      </trkpt>
      <trkpt lat="42.6263710" lon="-7.1670460">
        <ele>553.7</ele>
        <time>2014-10-02T10:49:29Z</time>
      </trkpt>
      <trkpt lat="42.6263850" lon="-7.1669970">
        <ele>553.9</ele>
        <time>2014-10-02T10:49:30Z</time>
      </trkpt>
      <trkpt lat="42.6263950" lon="-7.1669530">
        <ele>554.1</ele>
        <time>2014-10-02T10:49:31Z</time>
      </trkpt>
      <trkpt lat="42.6264060" lon="-7.1669050">
        <ele>554.3</ele>
        <time>2014-10-02T10:49:32Z</time>
      </trkpt>
      <trkpt lat="42.6264190" lon="-7.1668580">
        <ele>554.5</ele>
        <time>2014-10-02T10:49:33Z</time>
      </trkpt>
      <trkpt lat="42.6264330" lon="-7.1668100">
        <ele>554.6</ele>
        <time>2014-10-02T10:49:34Z</time>
      </trkpt>
      <trkpt lat="42.6264460" lon="-7.1667620">
        <ele>554.8</ele>
        <time>2014-10-02T10:49:35Z</time>
      </trkpt>
      <trkpt lat="42.6264680" lon="-7.1667080">
        <ele>555.1</ele>
        <time>2014-10-02T10:49:36Z</time>
      </trkpt>
      <trkpt lat="42.6264860" lon="-7.1666620">
        <ele>555.3</ele>
        <time>2014-10-02T10:49:37Z</time>
      </trkpt>
      <trkpt lat="42.6265030" lon="-7.1666170">
        <ele>555.6</ele>
        <time>2014-10-02T10:49:38Z</time>
      </trkpt>
      <trkpt lat="42.6265220" lon="-7.1665710">
        <ele>555.8</ele>
        <time>2014-10-02T10:49:39Z</time>
      </trkpt>
      <trkpt lat="42.6265440" lon="-7.1665240">
        <ele>556.1</ele>
        <time>2014-10-02T10:49:40Z</time>
      </trkpt>
      <trkpt lat="42.6265820" lon="-7.1664860">
        <ele>556.4</ele>
        <time>2014-10-02T10:49:41Z</time>
      </trkpt>
      <trkpt lat="42.6266260" lon="-7.1664510">
        <ele>556.7</ele>
        <time>2014-10-02T10:49:42Z</time>
      </trkpt>
      <trkpt lat="42.6266790" lon="-7.1664340">
        <ele>556.9</ele>
        <time>2014-10-02T10:49:43Z</time>
      </trkpt>
      <trkpt lat="42.6267350" lon="-7.1664360">
        <ele>557.2</ele>
        <time>2014-10-02T10:49:44Z</time>
      </trkpt>
      <trkpt lat="42.6267840" lon="-7.1664530">
        <ele>557.3</ele>
        <time>2014-10-02T10:49:45Z</time>
      </trkpt>
      <trkpt lat="42.6268270" lon="-7.1664850">
        <ele>557.5</ele>
        <time>2014-10-02T10:49:46Z</time>
      </trkpt>
      <trkpt lat="42.6268620" lon="-7.1665350">
        <ele>557.7</ele>
        <time>2014-10-02T10:49:47Z</time>
      </trkpt>
      <trkpt lat="42.6268830" lon="-7.1665920">
        <ele>557.9</ele>
        <time>2014-10-02T10:49:48Z</time>
      </trkpt>
      <trkpt lat="42.6269030" lon="-7.1666550">
        <ele>558.0</ele>
        <time>2014-10-02T10:49:49Z</time>
      </trkpt>
      <trkpt lat="42.6269240" lon="-7.1667180">
        <ele>558.1</ele>
        <time>2014-10-02T10:49:50Z</time>
      </trkpt>
      <trkpt lat="42.6269400" lon="-7.1667830">
        <ele>558.3</ele>
        <time>2014-10-02T10:49:51Z</time>
      </trkpt>
      <trkpt lat="42.6269570" lon="-7.1668450">
        <ele>558.4</ele>
        <time>2014-10-02T10:49:52Z</time>
      </trkpt>
      <trkpt lat="42.6269750" lon="-7.1669060">
        <ele>558.5</ele>
        <time>2014-10-02T10:49:53Z</time>
      </trkpt>
      <trkpt lat="42.6269940" lon="-7.1669660">
        <ele>558.6</ele>
        <time>2014-10-02T10:49:54Z</time>
      </trkpt>
      <trkpt lat="42.6270230" lon="-7.1670170">
        <ele>558.7</ele>
        <time>2014-10-02T10:49:55Z</time>
      </trkpt>
      <trkpt lat="42.6270560" lon="-7.1670670">
        <ele>558.7</ele>
        <time>2014-10-02T10:49:56Z</time>
      </trkpt>
      <trkpt lat="42.6271010" lon="-7.1671080">
        <ele>558.7</ele>
        <time>2014-10-02T10:49:57Z</time>
      </trkpt>
      <trkpt lat="42.6271450" lon="-7.1671460">
        <ele>558.7</ele>
        <time>2014-10-02T10:49:58Z</time>
      </trkpt>
      <trkpt lat="42.6271920" lon="-7.1671840">
        <ele>558.7</ele>
        <time>2014-10-02T10:49:59Z</time>
      </trkpt>
      <trkpt lat="42.6272390" lon="-7.1672210">
        <ele>558.5</ele>
        <time>2014-10-02T10:50:00Z</time>
      </trkpt>
      <trkpt lat="42.6272820" lon="-7.1672540">
        <ele>558.2</ele>
        <time>2014-10-02T10:50:01Z</time>
      </trkpt>
      <trkpt lat="42.6273260" lon="-7.1672890">
        <ele>557.6</ele>
        <time>2014-10-02T10:50:02Z</time>
      </trkpt>
      <trkpt lat="42.6273710" lon="-7.1673250">
        <ele>557.1</ele>
        <time>2014-10-02T10:50:03Z</time>
      </trkpt>
      <trkpt lat="42.6274200" lon="-7.1673630">
        <ele>556.7</ele>
        <time>2014-10-02T10:50:04Z</time>
      </trkpt>
      <trkpt lat="42.6274650" lon="-7.1673950">
        <ele>556.3</ele>
        <time>2014-10-02T10:50:05Z</time>
      </trkpt>
      <trkpt lat="42.6275220" lon="-7.1674170">
        <ele>555.9</ele>
        <time>2014-10-02T10:50:06Z</time>
      </trkpt>
      <trkpt lat="42.6275850" lon="-7.1674420">
        <ele>555.6</ele>
        <time>2014-10-02T10:50:07Z</time>
      </trkpt>
      <trkpt lat="42.6276450" lon="-7.1674610">
        <ele>555.2</ele>
        <time>2014-10-02T10:50:08Z</time>
      </trkpt>
      <trkpt lat="42.6277090" lon="-7.1674740">
        <ele>554.8</ele>
        <time>2014-10-02T10:50:09Z</time>
      </trkpt>
      <trkpt lat="42.6277690" lon="-7.1674810">
        <ele>554.4</ele>
        <time>2014-10-02T10:50:10Z</time>
      </trkpt>
      <trkpt lat="42.6278290" lon="-7.1674700">
        <ele>554.0</ele>
        <time>2014-10-02T10:50:11Z</time>
      </trkpt>
      <trkpt lat="42.6278840" lon="-7.1674600">
        <ele>553.6</ele>
        <time>2014-10-02T10:50:12Z</time>
      </trkpt>
      <trkpt lat="42.6279410" lon="-7.1674440">
        <ele>553.3</ele>
        <time>2014-10-02T10:50:13Z</time>
      </trkpt>
      <trkpt lat="42.6280010" lon="-7.1674230">
        <ele>553.0</ele>
        <time>2014-10-02T10:50:14Z</time>
      </trkpt>
      <trkpt lat="42.6280600" lon="-7.1674000">
        <ele>552.6</ele>
        <time>2014-10-02T10:50:15Z</time>
      </trkpt>
      <trkpt lat="42.6281170" lon="-7.1673730">
        <ele>552.3</ele>
        <time>2014-10-02T10:50:16Z</time>
      </trkpt>
      <trkpt lat="42.6281720" lon="-7.1673410">
        <ele>552.0</ele>
        <time>2014-10-02T10:50:17Z</time>
      </trkpt>
      <trkpt lat="42.6282270" lon="-7.1673090">
        <ele>551.6</ele>
        <time>2014-10-02T10:50:18Z</time>
      </trkpt>
      <trkpt lat="42.6282810" lon="-7.1672730">
        <ele>551.2</ele>
        <time>2014-10-02T10:50:19Z</time>
      </trkpt>
      <trkpt lat="42.6283340" lon="-7.1672340">
        <ele>550.8</ele>
        <time>2014-10-02T10:50:20Z</time>
      </trkpt>
      <trkpt lat="42.6283780" lon="-7.1671730">
        <ele>550.4</ele>
        <time>2014-10-02T10:50:21Z</time>
      </trkpt>
      <trkpt lat="42.6284160" lon="-7.1670930">
        <ele>550.0</ele>
        <time>2014-10-02T10:50:22Z</time>
      </trkpt>
      <trkpt lat="42.6284450" lon="-7.1670180">
        <ele>549.8</ele>
        <time>2014-10-02T10:50:23Z</time>
      </trkpt>
      <trkpt lat="42.6284570" lon="-7.1669530">
        <ele>549.6</ele>
        <time>2014-10-02T10:50:24Z</time>
      </trkpt>
      <trkpt lat="42.6284700" lon="-7.1668820">
        <ele>549.5</ele>
        <time>2014-10-02T10:50:25Z</time>
      </trkpt>
      <trkpt lat="42.6284810" lon="-7.1668170">
        <ele>549.4</ele>
        <time>2014-10-02T10:50:26Z</time>
      </trkpt>
      <trkpt lat="42.6284920" lon="-7.1667500">
        <ele>549.3</ele>
        <time>2014-10-02T10:50:27Z</time>
      </trkpt>
      <trkpt lat="42.6285050" lon="-7.1666790">
        <ele>549.2</ele>
        <time>2014-10-02T10:50:28Z</time>
      </trkpt>
      <trkpt lat="42.6285180" lon="-7.1666210">
        <ele>549.1</ele>
        <time>2014-10-02T10:50:29Z</time>
      </trkpt>
      <trkpt lat="42.6285310" lon="-7.1665690">
        <ele>549.0</ele>
        <time>2014-10-02T10:50:30Z</time>
      </trkpt>
      <trkpt lat="42.6285480" lon="-7.1665110">
        <ele>549.0</ele>
        <time>2014-10-02T10:50:31Z</time>
      </trkpt>
      <trkpt lat="42.6285680" lon="-7.1664520">
        <ele>548.9</ele>
        <time>2014-10-02T10:50:32Z</time>
      </trkpt>
      <trkpt lat="42.6285880" lon="-7.1663970">
        <ele>548.9</ele>
        <time>2014-10-02T10:50:33Z</time>
      </trkpt>
      <trkpt lat="42.6286080" lon="-7.1663480">
        <ele>548.9</ele>
        <time>2014-10-02T10:50:34Z</time>
      </trkpt>
      <trkpt lat="42.6286270" lon="-7.1663040">
        <ele>549.0</ele>
        <time>2014-10-02T10:50:35Z</time>
      </trkpt>
      <trkpt lat="42.6286460" lon="-7.1662650">
        <ele>549.0</ele>
        <time>2014-10-02T10:50:36Z</time>
      </trkpt>
      <trkpt lat="42.6286680" lon="-7.1662260">
        <ele>549.1</ele>
        <time>2014-10-02T10:50:37Z</time>
      </trkpt>
      <trkpt lat="42.6286890" lon="-7.1661900">
        <ele>549.1</ele>
        <time>2014-10-02T10:50:38Z</time>
      </trkpt>
      <trkpt lat="42.6287110" lon="-7.1661580">
        <ele>549.1</ele>
        <time>2014-10-02T10:50:39Z</time>
      </trkpt>
      <trkpt lat="42.6287370" lon="-7.1661240">
        <ele>549.1</ele>
        <time>2014-10-02T10:50:40Z</time>
      </trkpt>
      <trkpt lat="42.6287680" lon="-7.1660870">
        <ele>549.1</ele>
        <time>2014-10-02T10:50:41Z</time>
      </trkpt>
      <trkpt lat="42.6288020" lon="-7.1660450">
        <ele>549.1</ele>
        <time>2014-10-02T10:50:42Z</time>
      </trkpt>
      <trkpt lat="42.6288340" lon="-7.1660040">
        <ele>549.1</ele>
        <time>2014-10-02T10:50:43Z</time>
      </trkpt>
      <trkpt lat="42.6288590" lon="-7.1659660">
        <ele>549.1</ele>
        <time>2014-10-02T10:50:44Z</time>
      </trkpt>
      <trkpt lat="42.6288840" lon="-7.1659250">
        <ele>549.1</ele>
        <time>2014-10-02T10:50:45Z</time>
      </trkpt>
      <trkpt lat="42.6289020" lon="-7.1658660">
        <ele>549.0</ele>
        <time>2014-10-02T10:50:46Z</time>
      </trkpt>
      <trkpt lat="42.6289170" lon="-7.1658100">
        <ele>549.0</ele>
        <time>2014-10-02T10:50:47Z</time>
      </trkpt>
      <trkpt lat="42.6289300" lon="-7.1657590">
        <ele>548.9</ele>
        <time>2014-10-02T10:50:48Z</time>
      </trkpt>
      <trkpt lat="42.6289410" lon="-7.1657140">
        <ele>548.9</ele>
        <time>2014-10-02T10:50:49Z</time>
      </trkpt>
      <trkpt lat="42.6289510" lon="-7.1656650">
        <ele>548.8</ele>
        <time>2014-10-02T10:50:50Z</time>
      </trkpt>
      <trkpt lat="42.6289590" lon="-7.1656220">
        <ele>548.8</ele>
        <time>2014-10-02T10:50:51Z</time>
      </trkpt>
      <trkpt lat="42.6289660" lon="-7.1655760">
        <ele>548.8</ele>
        <time>2014-10-02T10:50:52Z</time>
      </trkpt>
      <trkpt lat="42.6289710" lon="-7.1655340">
        <ele>548.7</ele>
        <time>2014-10-02T10:50:53Z</time>
      </trkpt>
      <trkpt lat="42.6289760" lon="-7.1654870">
        <ele>548.7</ele>
        <time>2014-10-02T10:50:54Z</time>
      </trkpt>
      <trkpt lat="42.6289810" lon="-7.1654350">
        <ele>548.7</ele>
        <time>2014-10-02T10:50:55Z</time>
      </trkpt>
      <trkpt lat="42.6289870" lon="-7.1653830">
        <ele>548.7</ele>
        <time>2014-10-02T10:50:56Z</time>
      </trkpt>
      <trkpt lat="42.6289940" lon="-7.1653320">
        <ele>548.6</ele>
        <time>2014-10-02T10:50:57Z</time>
      </trkpt>
      <trkpt lat="42.6290010" lon="-7.1652820">
        <ele>548.6</ele>
        <time>2014-10-02T10:50:58Z</time>
      </trkpt>
      <trkpt lat="42.6290100" lon="-7.1652270">
        <ele>548.6</ele>
        <time>2014-10-02T10:50:59Z</time>
      </trkpt>
      <trkpt lat="42.6290180" lon="-7.1651770">
        <ele>548.6</ele>
        <time>2014-10-02T10:51:00Z</time>
      </trkpt>
      <trkpt lat="42.6290230" lon="-7.1651280">
        <ele>548.5</ele>
        <time>2014-10-02T10:51:01Z</time>
      </trkpt>
      <trkpt lat="42.6290260" lon="-7.1650800">
        <ele>548.5</ele>
        <time>2014-10-02T10:51:02Z</time>
      </trkpt>
      <trkpt lat="42.6290300" lon="-7.1650320">
        <ele>548.4</ele>
        <time>2014-10-02T10:51:03Z</time>
      </trkpt>
      <trkpt lat="42.6290360" lon="-7.1649830">
        <ele>548.2</ele>
        <time>2014-10-02T10:51:04Z</time>
      </trkpt>
      <trkpt lat="42.6290360" lon="-7.1649340">
        <ele>548.0</ele>
        <time>2014-10-02T10:51:05Z</time>
      </trkpt>
      <trkpt lat="42.6290360" lon="-7.1648900">
        <ele>547.8</ele>
        <time>2014-10-02T10:51:06Z</time>
      </trkpt>
      <trkpt lat="42.6290350" lon="-7.1648500">
        <ele>547.8</ele>
        <time>2014-10-02T10:51:07Z</time>
      </trkpt>
      <trkpt lat="42.6290280" lon="-7.1648010">
        <ele>547.9</ele>
        <time>2014-10-02T10:51:08Z</time>
      </trkpt>
      <trkpt lat="42.6290190" lon="-7.1647410">
        <ele>548.0</ele>
        <time>2014-10-02T10:51:09Z</time>
      </trkpt>
      <trkpt lat="42.6290060" lon="-7.1646870">
        <ele>548.1</ele>
        <time>2014-10-02T10:51:10Z</time>
      </trkpt>
      <trkpt lat="42.6289860" lon="-7.1646410">
        <ele>548.1</ele>
        <time>2014-10-02T10:51:11Z</time>
      </trkpt>
      <trkpt lat="42.6289600" lon="-7.1645910">
        <ele>548.2</ele>
        <time>2014-10-02T10:51:12Z</time>
      </trkpt>
      <trkpt lat="42.6289320" lon="-7.1645390">
        <ele>548.3</ele>
        <time>2014-10-02T10:51:13Z</time>
      </trkpt>
      <trkpt lat="42.6289030" lon="-7.1644850">
        <ele>548.3</ele>
        <time>2014-10-02T10:51:14Z</time>
      </trkpt>
      <trkpt lat="42.6288760" lon="-7.1644310">
        <ele>548.4</ele>
        <time>2014-10-02T10:51:15Z</time>
      </trkpt>
      <trkpt lat="42.6288510" lon="-7.1643770">
        <ele>548.5</ele>
        <time>2014-10-02T10:51:16Z</time>
      </trkpt>
      <trkpt lat="42.6288280" lon="-7.1643260">
        <ele>548.6</ele>
        <time>2014-10-02T10:51:17Z</time>
      </trkpt>
      <trkpt lat="42.6288160" lon="-7.1642700">
        <ele>548.6</ele>
        <time>2014-10-02T10:51:18Z</time>
      </trkpt>
      <trkpt lat="42.6288210" lon="-7.1642130">
        <ele>548.7</ele>
        <time>2014-10-02T10:51:19Z</time>
      </trkpt>
      <trkpt lat="42.6288220" lon="-7.1641570">
        <ele>548.8</ele>
        <time>2014-10-02T10:51:20Z</time>
      </trkpt>
      <trkpt lat="42.6288240" lon="-7.1641030">
        <ele>548.8</ele>
        <time>2014-10-02T10:51:21Z</time>
      </trkpt>
      <trkpt lat="42.6288260" lon="-7.1640540">
        <ele>548.9</ele>
        <time>2014-10-02T10:51:22Z</time>
      </trkpt>
      <trkpt lat="42.6288140" lon="-7.1640010">
        <ele>548.9</ele>
        <time>2014-10-02T10:51:23Z</time>
      </trkpt>
      <trkpt lat="42.6287970" lon="-7.1639530">
        <ele>549.0</ele>
        <time>2014-10-02T10:51:24Z</time>
      </trkpt>
      <trkpt lat="42.6287910" lon="-7.1639030">
        <ele>549.0</ele>
        <time>2014-10-02T10:51:25Z</time>
      </trkpt>
      <trkpt lat="42.6287880" lon="-7.1638540">
        <ele>549.1</ele>
        <time>2014-10-02T10:51:26Z</time>
      </trkpt>
      <trkpt lat="42.6287900" lon="-7.1638010">
        <ele>549.1</ele>
        <time>2014-10-02T10:51:27Z</time>
      </trkpt>
      <trkpt lat="42.6287940" lon="-7.1637460">
        <ele>549.2</ele>
        <time>2014-10-02T10:51:28Z</time>
      </trkpt>
      <trkpt lat="42.6288020" lon="-7.1636860">
        <ele>549.2</ele>
        <time>2014-10-02T10:51:29Z</time>
      </trkpt>
      <trkpt lat="42.6288120" lon="-7.1636300">
        <ele>549.3</ele>
        <time>2014-10-02T10:51:30Z</time>
      </trkpt>
      <trkpt lat="42.6288250" lon="-7.1635760">
        <ele>549.4</ele>
        <time>2014-10-02T10:51:31Z</time>
      </trkpt>
      <trkpt lat="42.6288370" lon="-7.1635310">
        <ele>549.5</ele>
        <time>2014-10-02T10:51:32Z</time>
      </trkpt>
      <trkpt lat="42.6288520" lon="-7.1634840">
        <ele>549.6</ele>
        <time>2014-10-02T10:51:33Z</time>
      </trkpt>
      <trkpt lat="42.6288640" lon="-7.1634400">
        <ele>549.7</ele>
        <time>2014-10-02T10:51:34Z</time>
      </trkpt>
      <trkpt lat="42.6288760" lon="-7.1633950">
        <ele>549.8</ele>
        <time>2014-10-02T10:51:35Z</time>
      </trkpt>
      <trkpt lat="42.6288870" lon="-7.1633460">
        <ele>550.2</ele>
        <time>2014-10-02T10:51:36Z</time>
      </trkpt>
      <trkpt lat="42.6289000" lon="-7.1632870">
        <ele>550.5</ele>
        <time>2014-10-02T10:51:37Z</time>
      </trkpt>
      <trkpt lat="42.6289120" lon="-7.1632270">
        <ele>550.9</ele>
        <time>2014-10-02T10:51:38Z</time>
      </trkpt>
      <trkpt lat="42.6289350" lon="-7.1631620">
        <ele>551.2</ele>
        <time>2014-10-02T10:51:39Z</time>
      </trkpt>
      <trkpt lat="42.6289530" lon="-7.1631090">
        <ele>551.4</ele>
        <time>2014-10-02T10:51:40Z</time>
      </trkpt>
      <trkpt lat="42.6289580" lon="-7.1630650">
        <ele>551.6</ele>
        <time>2014-10-02T10:51:41Z</time>
      </trkpt>
      <trkpt lat="42.6289690" lon="-7.1630190">
        <ele>551.8</ele>
        <time>2014-10-02T10:51:42Z</time>
      </trkpt>
      <trkpt lat="42.6289890" lon="-7.1629680">
        <ele>552.0</ele>
        <time>2014-10-02T10:51:43Z</time>
      </trkpt>
      <trkpt lat="42.6290080" lon="-7.1629160">
        <ele>552.2</ele>
        <time>2014-10-02T10:51:44Z</time>
      </trkpt>
      <trkpt lat="42.6290300" lon="-7.1628640">
        <ele>552.4</ele>
        <time>2014-10-02T10:51:45Z</time>
      </trkpt>
      <trkpt lat="42.6290560" lon="-7.1628130">
        <ele>552.7</ele>
        <time>2014-10-02T10:51:46Z</time>
      </trkpt>
      <trkpt lat="42.6290860" lon="-7.1627650">
        <ele>553.0</ele>
        <time>2014-10-02T10:51:47Z</time>
      </trkpt>
      <trkpt lat="42.6291220" lon="-7.1627150">
        <ele>553.4</ele>
        <time>2014-10-02T10:51:48Z</time>
      </trkpt>
      <trkpt lat="42.6291530" lon="-7.1626740">
        <ele>553.7</ele>
        <time>2014-10-02T10:51:49Z</time>
      </trkpt>
      <trkpt lat="42.6291810" lon="-7.1626430">
        <ele>553.9</ele>
        <time>2014-10-02T10:51:50Z</time>
      </trkpt>
      <trkpt lat="42.6292120" lon="-7.1626070">
        <ele>554.1</ele>
        <time>2014-10-02T10:51:51Z</time>
      </trkpt>
      <trkpt lat="42.6292520" lon="-7.1625810">
        <ele>554.4</ele>
        <time>2014-10-02T10:51:52Z</time>
      </trkpt>
      <trkpt lat="42.6292890" lon="-7.1625510">
        <ele>554.5</ele>
        <time>2014-10-02T10:51:53Z</time>
      </trkpt>
      <trkpt lat="42.6293320" lon="-7.1625120">
        <ele>554.7</ele>
        <time>2014-10-02T10:51:54Z</time>
      </trkpt>
      <trkpt lat="42.6293720" lon="-7.1624810">
        <ele>554.9</ele>
        <time>2014-10-02T10:51:55Z</time>
      </trkpt>
      <trkpt lat="42.6294140" lon="-7.1624490">
        <ele>555.0</ele>
        <time>2014-10-02T10:51:56Z</time>
      </trkpt>
      <trkpt lat="42.6294580" lon="-7.1624190">
        <ele>555.2</ele>
        <time>2014-10-02T10:51:57Z</time>
      </trkpt>
      <trkpt lat="42.6295030" lon="-7.1623900">
        <ele>555.4</ele>
        <time>2014-10-02T10:51:58Z</time>
      </trkpt>
      <trkpt lat="42.6295430" lon="-7.1623680">
        <ele>555.6</ele>
        <time>2014-10-02T10:51:59Z</time>
      </trkpt>
      <trkpt lat="42.6295840" lon="-7.1623480">
        <ele>555.8</ele>
        <time>2014-10-02T10:52:00Z</time>
      </trkpt>
      <trkpt lat="42.6296230" lon="-7.1623320">
        <ele>556.0</ele>
        <time>2014-10-02T10:52:01Z</time>
      </trkpt>
      <trkpt lat="42.6296680" lon="-7.1623260">
        <ele>556.3</ele>
        <time>2014-10-02T10:52:02Z</time>
      </trkpt>
      <trkpt lat="42.6297130" lon="-7.1623310">
        <ele>556.6</ele>
        <time>2014-10-02T10:52:03Z</time>
      </trkpt>
      <trkpt lat="42.6297560" lon="-7.1623400">
        <ele>556.8</ele>
        <time>2014-10-02T10:52:04Z</time>
      </trkpt>
      <trkpt lat="42.6297980" lon="-7.1623630">
        <ele>557.0</ele>
        <time>2014-10-02T10:52:05Z</time>
      </trkpt>
      <trkpt lat="42.6298350" lon="-7.1623860">
        <ele>557.2</ele>
        <time>2014-10-02T10:52:06Z</time>
      </trkpt>
      <trkpt lat="42.6298660" lon="-7.1624080">
        <ele>557.3</ele>
        <time>2014-10-02T10:52:07Z</time>
      </trkpt>
      <trkpt lat="42.6299060" lon="-7.1624340">
        <ele>557.5</ele>
        <time>2014-10-02T10:52:08Z</time>
      </trkpt>
      <trkpt lat="42.6299400" lon="-7.1624540">
        <ele>557.6</ele>
        <time>2014-10-02T10:52:09Z</time>
      </trkpt>
      <trkpt lat="42.6299770" lon="-7.1624620">
        <ele>557.7</ele>
        <time>2014-10-02T10:52:10Z</time>
      </trkpt>
      <trkpt lat="42.6300200" lon="-7.1624700">
        <ele>557.8</ele>
        <time>2014-10-02T10:52:11Z</time>
      </trkpt>
      <trkpt lat="42.6300620" lon="-7.1624760">
        <ele>557.8</ele>
        <time>2014-10-02T10:52:12Z</time>
      </trkpt>
      <trkpt lat="42.6301130" lon="-7.1624800">
        <ele>557.9</ele>
        <time>2014-10-02T10:52:13Z</time>
      </trkpt>
      <trkpt lat="42.6301740" lon="-7.1624830">
        <ele>558.1</ele>
        <time>2014-10-02T10:52:14Z</time>
      </trkpt>
      <trkpt lat="42.6302340" lon="-7.1624850">
        <ele>558.2</ele>
        <time>2014-10-02T10:52:15Z</time>
      </trkpt>
      <trkpt lat="42.6302940" lon="-7.1624830">
        <ele>558.4</ele>
        <time>2014-10-02T10:52:16Z</time>
      </trkpt>
      <trkpt lat="42.6303460" lon="-7.1624780">
        <ele>558.5</ele>
        <time>2014-10-02T10:52:17Z</time>
      </trkpt>
      <trkpt lat="42.6303920" lon="-7.1624690">
        <ele>558.6</ele>
        <time>2014-10-02T10:52:18Z</time>
      </trkpt>
      <trkpt lat="42.6304390" lon="-7.1624530">
        <ele>558.7</ele>
        <time>2014-10-02T10:52:19Z</time>
      </trkpt>
      <trkpt lat="42.6304880" lon="-7.1624190">
        <ele>558.8</ele>
        <time>2014-10-02T10:52:20Z</time>
      </trkpt>
      <trkpt lat="42.6305390" lon="-7.1623680">
        <ele>558.9</ele>
        <time>2014-10-02T10:52:21Z</time>
      </trkpt>
      <trkpt lat="42.6305850" lon="-7.1623140">
        <ele>559.0</ele>
        <time>2014-10-02T10:52:22Z</time>
      </trkpt>
      <trkpt lat="42.6306260" lon="-7.1622690">
        <ele>559.1</ele>
        <time>2014-10-02T10:52:23Z</time>
      </trkpt>
      <trkpt lat="42.6306640" lon="-7.1622210">
        <ele>559.1</ele>
        <time>2014-10-02T10:52:24Z</time>
      </trkpt>
      <trkpt lat="42.6306970" lon="-7.1621610">
        <ele>559.1</ele>
        <time>2014-10-02T10:52:25Z</time>
      </trkpt>
      <trkpt lat="42.6307160" lon="-7.1620920">
        <ele>559.1</ele>
        <time>2014-10-02T10:52:26Z</time>
      </trkpt>
      <trkpt lat="42.6307340" lon="-7.1620200">
        <ele>559.1</ele>
        <time>2014-10-02T10:52:27Z</time>
      </trkpt>
      <trkpt lat="42.6307530" lon="-7.1619480">
        <ele>559.1</ele>
        <time>2014-10-02T10:52:28Z</time>
      </trkpt>
      <trkpt lat="42.6307640" lon="-7.1618800">
        <ele>559.1</ele>
        <time>2014-10-02T10:52:29Z</time>
      </trkpt>
      <trkpt lat="42.6307790" lon="-7.1617990">
        <ele>559.2</ele>
        <time>2014-10-02T10:52:30Z</time>
      </trkpt>
      <trkpt lat="42.6307960" lon="-7.1617190">
        <ele>559.4</ele>
        <time>2014-10-02T10:52:31Z</time>
      </trkpt>
      <trkpt lat="42.6308130" lon="-7.1616430">
        <ele>559.7</ele>
        <time>2014-10-02T10:52:32Z</time>
      </trkpt>
      <trkpt lat="42.6308310" lon="-7.1615670">
        <ele>559.9</ele>
        <time>2014-10-02T10:52:33Z</time>
      </trkpt>
      <trkpt lat="42.6308510" lon="-7.1614890">
        <ele>560.1</ele>
        <time>2014-10-02T10:52:34Z</time>
      </trkpt>
      <trkpt lat="42.6308670" lon="-7.1614150">
        <ele>560.2</ele>
        <time>2014-10-02T10:52:35Z</time>
      </trkpt>
      <trkpt lat="42.6308940" lon="-7.1613250">
        <ele>560.3</ele>
        <time>2014-10-02T10:52:36Z</time>
      </trkpt>
      <trkpt lat="42.6309220" lon="-7.1612310">
        <ele>560.4</ele>
        <time>2014-10-02T10:52:37Z</time>
      </trkpt>
      <trkpt lat="42.6309510" lon="-7.1611400">
        <ele>560.5</ele>
        <time>2014-10-02T10:52:38Z</time>
      </trkpt>
      <trkpt lat="42.6309790" lon="-7.1610520">
        <ele>560.6</ele>
        <time>2014-10-02T10:52:39Z</time>
      </trkpt>
      <trkpt lat="42.6310030" lon="-7.1609760">
        <ele>560.7</ele>
        <time>2014-10-02T10:52:40Z</time>
      </trkpt>
      <trkpt lat="42.6310080" lon="-7.1609160">
        <ele>560.8</ele>
        <time>2014-10-02T10:52:41Z</time>
      </trkpt>
      <trkpt lat="42.6309920" lon="-7.1608550">
        <ele>561.0</ele>
        <time>2014-10-02T10:52:42Z</time>
      </trkpt>
      <trkpt lat="42.6309630" lon="-7.1608030">
        <ele>561.0</ele>
        <time>2014-10-02T10:52:43Z</time>
      </trkpt>
      <trkpt lat="42.6309310" lon="-7.1607530">
        <ele>561.1</ele>
        <time>2014-10-02T10:52:44Z</time>
      </trkpt>
      <trkpt lat="42.6308990" lon="-7.1607010">
        <ele>561.2</ele>
        <time>2014-10-02T10:52:45Z</time>
      </trkpt>
      <trkpt lat="42.6308660" lon="-7.1606430">
        <ele>561.2</ele>
        <time>2014-10-02T10:52:46Z</time>
      </trkpt>
      <trkpt lat="42.6308500" lon="-7.1605840">
        <ele>561.3</ele>
        <time>2014-10-02T10:52:47Z</time>
      </trkpt>
      <trkpt lat="42.6308330" lon="-7.1605180">
        <ele>561.3</ele>
        <time>2014-10-02T10:52:48Z</time>
      </trkpt>
      <trkpt lat="42.6308190" lon="-7.1604560">
        <ele>561.3</ele>
        <time>2014-10-02T10:52:49Z</time>
      </trkpt>
      <trkpt lat="42.6308100" lon="-7.1604120">
        <ele>561.4</ele>
        <time>2014-10-02T10:52:50Z</time>
      </trkpt>
      <trkpt lat="42.6308020" lon="-7.1603720">
        <ele>561.4</ele>
        <time>2014-10-02T10:52:51Z</time>
      </trkpt>
      <trkpt lat="42.6308350" lon="-7.1603280">
        <ele>561.5</ele>
        <time>2014-10-02T10:55:35Z</time>
      </trkpt>
      <trkpt lat="42.6308410" lon="-7.1602720">
        <ele>561.5</ele>
        <time>2014-10-02T10:55:37Z</time>
      </trkpt>
      <trkpt lat="42.6308350" lon="-7.1602260">
        <ele>561.6</ele>
        <time>2014-10-02T10:55:39Z</time>
      </trkpt>
      <trkpt lat="42.6308270" lon="-7.1601630">
        <ele>561.7</ele>
        <time>2014-10-02T10:55:41Z</time>
      </trkpt>
      <trkpt lat="42.6308260" lon="-7.1601190">
        <ele>561.8</ele>
        <time>2014-10-02T10:55:42Z</time>
      </trkpt>
      <trkpt lat="42.6308320" lon="-7.1600800">
        <ele>561.8</ele>
        <time>2014-10-02T10:55:43Z</time>
      </trkpt>
      <trkpt lat="42.6308400" lon="-7.1600350">
        <ele>561.9</ele>
        <time>2014-10-02T10:55:44Z</time>
      </trkpt>
      <trkpt lat="42.6308510" lon="-7.1599800">
        <ele>562.0</ele>
        <time>2014-10-02T10:55:45Z</time>
      </trkpt>
      <trkpt lat="42.6308660" lon="-7.1599170">
        <ele>562.1</ele>
        <time>2014-10-02T10:55:46Z</time>
      </trkpt>
      <trkpt lat="42.6308840" lon="-7.1598510">
        <ele>562.3</ele>
        <time>2014-10-02T10:55:47Z</time>
      </trkpt>
      <trkpt lat="42.6309020" lon="-7.1597910">
        <ele>562.4</ele>
        <time>2014-10-02T10:55:48Z</time>
      </trkpt>
      <trkpt lat="42.6309220" lon="-7.1597300">
        <ele>562.5</ele>
        <time>2014-10-02T10:55:49Z</time>
      </trkpt>
      <trkpt lat="42.6309430" lon="-7.1596620">
        <ele>562.6</ele>
        <time>2014-10-02T10:55:50Z</time>
      </trkpt>
      <trkpt lat="42.6309660" lon="-7.1595950">
        <ele>562.7</ele>
        <time>2014-10-02T10:55:51Z</time>
      </trkpt>
      <trkpt lat="42.6309900" lon="-7.1595310">
        <ele>562.9</ele>
        <time>2014-10-02T10:55:52Z</time>
      </trkpt>
      <trkpt lat="42.6310240" lon="-7.1594760">
        <ele>563.0</ele>
        <time>2014-10-02T10:55:53Z</time>
      </trkpt>
      <trkpt lat="42.6310600" lon="-7.1594250">
        <ele>563.2</ele>
        <time>2014-10-02T10:55:54Z</time>
      </trkpt>
      <trkpt lat="42.6310970" lon="-7.1593740">
        <ele>563.4</ele>
        <time>2014-10-02T10:55:55Z</time>
      </trkpt>
      <trkpt lat="42.6311370" lon="-7.1593230">
        <ele>563.6</ele>
        <time>2014-10-02T10:55:56Z</time>
      </trkpt>
      <trkpt lat="42.6311780" lon="-7.1592740">
        <ele>563.8</ele>
        <time>2014-10-02T10:55:57Z</time>
      </trkpt>
      <trkpt lat="42.6312200" lon="-7.1592260">
        <ele>564.1</ele>
        <time>2014-10-02T10:55:58Z</time>
      </trkpt>
      <trkpt lat="42.6312600" lon="-7.1591820">
        <ele>564.3</ele>
        <time>2014-10-02T10:55:59Z</time>
      </trkpt>
      <trkpt lat="42.6313030" lon="-7.1591340">
        <ele>564.5</ele>
        <time>2014-10-02T10:56:00Z</time>
      </trkpt>
      <trkpt lat="42.6313480" lon="-7.1590840">
        <ele>564.7</ele>
        <time>2014-10-02T10:56:01Z</time>
      </trkpt>
      <trkpt lat="42.6313970" lon="-7.1590350">
        <ele>564.9</ele>
        <time>2014-10-02T10:56:02Z</time>
      </trkpt>
      <trkpt lat="42.6314440" lon="-7.1589860">
        <ele>565.1</ele>
        <time>2014-10-02T10:56:03Z</time>
      </trkpt>
      <trkpt lat="42.6314910" lon="-7.1589390">
        <ele>565.3</ele>
        <time>2014-10-02T10:56:04Z</time>
      </trkpt>
      <trkpt lat="42.6315430" lon="-7.1589130">
        <ele>565.6</ele>
        <time>2014-10-02T10:56:05Z</time>
      </trkpt>
      <trkpt lat="42.6315950" lon="-7.1588930">
        <ele>565.8</ele>
        <time>2014-10-02T10:56:06Z</time>
      </trkpt>
      <trkpt lat="42.6316430" lon="-7.1588810">
        <ele>566.0</ele>
        <time>2014-10-02T10:56:07Z</time>
      </trkpt>
      <trkpt lat="42.6316960" lon="-7.1588700">
        <ele>566.2</ele>
        <time>2014-10-02T10:56:08Z</time>
      </trkpt>
      <trkpt lat="42.6317500" lon="-7.1588590">
        <ele>566.4</ele>
        <time>2014-10-02T10:56:09Z</time>
      </trkpt>
      <trkpt lat="42.6318030" lon="-7.1588490">
        <ele>566.6</ele>
        <time>2014-10-02T10:56:10Z</time>
      </trkpt>
      <trkpt lat="42.6318570" lon="-7.1588390">
        <ele>566.9</ele>
        <time>2014-10-02T10:56:11Z</time>
      </trkpt>
      <trkpt lat="42.6319100" lon="-7.1588340">
        <ele>567.2</ele>
        <time>2014-10-02T10:56:12Z</time>
      </trkpt>
      <trkpt lat="42.6319590" lon="-7.1588320">
        <ele>567.4</ele>
        <time>2014-10-02T10:56:13Z</time>
      </trkpt>
      <trkpt lat="42.6320090" lon="-7.1588350">
        <ele>567.7</ele>
        <time>2014-10-02T10:56:14Z</time>
      </trkpt>
      <trkpt lat="42.6320630" lon="-7.1588420">
        <ele>568.0</ele>
        <time>2014-10-02T10:56:15Z</time>
      </trkpt>
      <trkpt lat="42.6321140" lon="-7.1588480">
        <ele>568.2</ele>
        <time>2014-10-02T10:56:16Z</time>
      </trkpt>
      <trkpt lat="42.6321660" lon="-7.1588510">
        <ele>568.5</ele>
        <time>2014-10-02T10:56:17Z</time>
      </trkpt>
      <trkpt lat="42.6322190" lon="-7.1588540">
        <ele>568.7</ele>
        <time>2014-10-02T10:56:18Z</time>
      </trkpt>
      <trkpt lat="42.6322760" lon="-7.1588580">
        <ele>569.0</ele>
        <time>2014-10-02T10:56:19Z</time>
      </trkpt>
      <trkpt lat="42.6323300" lon="-7.1588590">
        <ele>569.2</ele>
        <time>2014-10-02T10:56:20Z</time>
      </trkpt>
      <trkpt lat="42.6323880" lon="-7.1588570">
        <ele>569.4</ele>
        <time>2014-10-02T10:56:21Z</time>
      </trkpt>
      <trkpt lat="42.6324430" lon="-7.1588520">
        <ele>569.6</ele>
        <time>2014-10-02T10:56:22Z</time>
      </trkpt>
      <trkpt lat="42.6324950" lon="-7.1588460">
        <ele>569.8</ele>
        <time>2014-10-02T10:56:23Z</time>
      </trkpt>
      <trkpt lat="42.6325500" lon="-7.1588420">
        <ele>570.1</ele>
        <time>2014-10-02T10:56:24Z</time>
      </trkpt>
      <trkpt lat="42.6325980" lon="-7.1588370">
        <ele>570.3</ele>
        <time>2014-10-02T10:56:25Z</time>
      </trkpt>
      <trkpt lat="42.6326490" lon="-7.1588370">
        <ele>570.6</ele>
        <time>2014-10-02T10:56:26Z</time>
      </trkpt>
      <trkpt lat="42.6327020" lon="-7.1588390">
        <ele>570.7</ele>
        <time>2014-10-02T10:56:27Z</time>
      </trkpt>
      <trkpt lat="42.6327520" lon="-7.1588410">
        <ele>570.9</ele>
        <time>2014-10-02T10:56:28Z</time>
      </trkpt>
      <trkpt lat="42.6328060" lon="-7.1588440">
        <ele>571.0</ele>
        <time>2014-10-02T10:56:29Z</time>
      </trkpt>
      <trkpt lat="42.6328590" lon="-7.1588510">
        <ele>571.1</ele>
        <time>2014-10-02T10:56:30Z</time>
      </trkpt>
      <trkpt lat="42.6329130" lon="-7.1588570">
        <ele>571.2</ele>
        <time>2014-10-02T10:56:31Z</time>
      </trkpt>
      <trkpt lat="42.6329720" lon="-7.1588680">
        <ele>571.4</ele>
        <time>2014-10-02T10:56:32Z</time>
      </trkpt>
      <trkpt lat="42.6330310" lon="-7.1588800">
        <ele>571.6</ele>
        <time>2014-10-02T10:56:33Z</time>
      </trkpt>
      <trkpt lat="42.6330900" lon="-7.1588940">
        <ele>571.8</ele>
        <time>2014-10-02T10:56:34Z</time>
      </trkpt>
      <trkpt lat="42.6331530" lon="-7.1589050">
        <ele>572.0</ele>
        <time>2014-10-02T10:56:35Z</time>
      </trkpt>
      <trkpt lat="42.6332110" lon="-7.1589140">
        <ele>572.2</ele>
        <time>2014-10-02T10:56:36Z</time>
      </trkpt>
      <trkpt lat="42.6332730" lon="-7.1589200">
        <ele>572.4</ele>
        <time>2014-10-02T10:56:37Z</time>
      </trkpt>
      <trkpt lat="42.6333320" lon="-7.1589240">
        <ele>572.7</ele>
        <time>2014-10-02T10:56:38Z</time>
      </trkpt>
      <trkpt lat="42.6333870" lon="-7.1589280">
        <ele>572.9</ele>
        <time>2014-10-02T10:56:39Z</time>
      </trkpt>
      <trkpt lat="42.6334400" lon="-7.1589300">
        <ele>573.1</ele>
        <time>2014-10-02T10:56:40Z</time>
      </trkpt>
      <trkpt lat="42.6334960" lon="-7.1589330">
        <ele>573.4</ele>
        <time>2014-10-02T10:56:41Z</time>
      </trkpt>
      <trkpt lat="42.6335540" lon="-7.1589350">
        <ele>573.6</ele>
        <time>2014-10-02T10:56:42Z</time>
      </trkpt>
      <trkpt lat="42.6336130" lon="-7.1589370">
        <ele>573.8</ele>
        <time>2014-10-02T10:56:43Z</time>
      </trkpt>
      <trkpt lat="42.6336740" lon="-7.1589410">
        <ele>574.1</ele>
        <time>2014-10-02T10:56:44Z</time>
      </trkpt>
      <trkpt lat="42.6337290" lon="-7.1589460">
        <ele>574.3</ele>
        <time>2014-10-02T10:56:45Z</time>
      </trkpt>
      <trkpt lat="42.6337860" lon="-7.1589500">
        <ele>574.5</ele>
        <time>2014-10-02T10:56:46Z</time>
      </trkpt>
      <trkpt lat="42.6338400" lon="-7.1589540">
        <ele>574.8</ele>
        <time>2014-10-02T10:56:47Z</time>
      </trkpt>
      <trkpt lat="42.6338960" lon="-7.1589560">
        <ele>575.1</ele>
        <time>2014-10-02T10:56:48Z</time>
      </trkpt>
      <trkpt lat="42.6339520" lon="-7.1589550">
        <ele>575.3</ele>
        <time>2014-10-02T10:56:49Z</time>
      </trkpt>
      <trkpt lat="42.6340030" lon="-7.1589500">
        <ele>575.6</ele>
        <time>2014-10-02T10:56:50Z</time>
      </trkpt>
      <trkpt lat="42.6340520" lon="-7.1589410">
        <ele>575.8</ele>
        <time>2014-10-02T10:56:51Z</time>
      </trkpt>
      <trkpt lat="42.6341050" lon="-7.1589290">
        <ele>576.1</ele>
        <time>2014-10-02T10:56:52Z</time>
      </trkpt>
      <trkpt lat="42.6341600" lon="-7.1589140">
        <ele>576.3</ele>
        <time>2014-10-02T10:56:53Z</time>
      </trkpt>
      <trkpt lat="42.6342140" lon="-7.1588960">
        <ele>576.6</ele>
        <time>2014-10-02T10:56:54Z</time>
      </trkpt>
      <trkpt lat="42.6342680" lon="-7.1588730">
        <ele>576.9</ele>
        <time>2014-10-02T10:56:55Z</time>
      </trkpt>
      <trkpt lat="42.6343170" lon="-7.1588470">
        <ele>577.3</ele>
        <time>2014-10-02T10:56:56Z</time>
      </trkpt>
      <trkpt lat="42.6343680" lon="-7.1588170">
        <ele>577.6</ele>
        <time>2014-10-02T10:56:57Z</time>
      </trkpt>
      <trkpt lat="42.6344190" lon="-7.1587870">
        <ele>578.0</ele>
        <time>2014-10-02T10:56:58Z</time>
      </trkpt>
      <trkpt lat="42.6344670" lon="-7.1587550">
        <ele>578.4</ele>
        <time>2014-10-02T10:56:59Z</time>
      </trkpt>
      <trkpt lat="42.6345120" lon="-7.1587230">
        <ele>578.7</ele>
        <time>2014-10-02T10:57:00Z</time>
      </trkpt>
      <trkpt lat="42.6345540" lon="-7.1586890">
        <ele>579.1</ele>
        <time>2014-10-02T10:57:01Z</time>
      </trkpt>
      <trkpt lat="42.6345920" lon="-7.1586570">
        <ele>579.4</ele>
        <time>2014-10-02T10:57:02Z</time>
      </trkpt>
      <trkpt lat="42.6346310" lon="-7.1586230">
        <ele>579.7</ele>
        <time>2014-10-02T10:57:03Z</time>
      </trkpt>
      <trkpt lat="42.6346620" lon="-7.1585900">
        <ele>580.0</ele>
        <time>2014-10-02T10:57:04Z</time>
      </trkpt>
      <trkpt lat="42.6346920" lon="-7.1585550">
        <ele>580.3</ele>
        <time>2014-10-02T10:57:05Z</time>
      </trkpt>
      <trkpt lat="42.6347190" lon="-7.1585200">
        <ele>580.6</ele>
        <time>2014-10-02T10:57:06Z</time>
      </trkpt>
      <trkpt lat="42.6347490" lon="-7.1584800">
        <ele>581.0</ele>
        <time>2014-10-02T10:57:07Z</time>
      </trkpt>
      <trkpt lat="42.6347770" lon="-7.1584400">
        <ele>581.4</ele>
        <time>2014-10-02T10:57:08Z</time>
      </trkpt>
      <trkpt lat="42.6348040" lon="-7.1584030">
        <ele>581.7</ele>
        <time>2014-10-02T10:57:09Z</time>
      </trkpt>
      <trkpt lat="42.6348340" lon="-7.1583570">
        <ele>582.1</ele>
        <time>2014-10-02T10:57:10Z</time>
      </trkpt>
      <trkpt lat="42.6348610" lon="-7.1583130">
        <ele>582.5</ele>
        <time>2014-10-02T10:57:11Z</time>
      </trkpt>
      <trkpt lat="42.6348860" lon="-7.1582680">
        <ele>582.9</ele>
        <time>2014-10-02T10:57:12Z</time>
      </trkpt>
      <trkpt lat="42.6349090" lon="-7.1582200">
        <ele>583.3</ele>
        <time>2014-10-02T10:57:13Z</time>
      </trkpt>
      <trkpt lat="42.6349260" lon="-7.1581770">
        <ele>583.7</ele>
        <time>2014-10-02T10:57:14Z</time>
      </trkpt>
      <trkpt lat="42.6349420" lon="-7.1581310">
        <ele>583.9</ele>
        <time>2014-10-02T10:57:15Z</time>
      </trkpt>
      <trkpt lat="42.6349560" lon="-7.1580870">
        <ele>583.6</ele>
        <time>2014-10-02T10:57:16Z</time>
      </trkpt>
      <trkpt lat="42.6349670" lon="-7.1580440">
        <ele>583.2</ele>
        <time>2014-10-02T10:57:17Z</time>
      </trkpt>
      <trkpt lat="42.6349760" lon="-7.1580030">
        <ele>582.9</ele>
        <time>2014-10-02T10:57:18Z</time>
      </trkpt>
      <trkpt lat="42.6349870" lon="-7.1579520">
        <ele>582.5</ele>
        <time>2014-10-02T10:57:19Z</time>
      </trkpt>
      <trkpt lat="42.6349940" lon="-7.1579050">
        <ele>582.1</ele>
        <time>2014-10-02T10:57:20Z</time>
      </trkpt>
      <trkpt lat="42.6350020" lon="-7.1578490">
        <ele>581.6</ele>
        <time>2014-10-02T10:57:21Z</time>
      </trkpt>
      <trkpt lat="42.6350060" lon="-7.1578050">
        <ele>581.2</ele>
        <time>2014-10-02T10:57:22Z</time>
      </trkpt>
      <trkpt lat="42.6350120" lon="-7.1577540">
        <ele>580.8</ele>
        <time>2014-10-02T10:57:23Z</time>
      </trkpt>
      <trkpt lat="42.6350160" lon="-7.1577070">
        <ele>580.4</ele>
        <time>2014-10-02T10:57:24Z</time>
      </trkpt>
      <trkpt lat="42.6350210" lon="-7.1576620">
        <ele>580.0</ele>
        <time>2014-10-02T10:57:25Z</time>
      </trkpt>
      <trkpt lat="42.6350260" lon="-7.1576110">
        <ele>579.6</ele>
        <time>2014-10-02T10:57:26Z</time>
      </trkpt>
      <trkpt lat="42.6350300" lon="-7.1575620">
        <ele>579.1</ele>
        <time>2014-10-02T10:57:27Z</time>
      </trkpt>
      <trkpt lat="42.6350330" lon="-7.1575170">
        <ele>578.8</ele>
        <time>2014-10-02T10:57:28Z</time>
      </trkpt>
      <trkpt lat="42.6350360" lon="-7.1574720">
        <ele>578.4</ele>
        <time>2014-10-02T10:57:29Z</time>
      </trkpt>
      <trkpt lat="42.6350440" lon="-7.1574200">
        <ele>577.9</ele>
        <time>2014-10-02T10:57:30Z</time>
      </trkpt>
      <trkpt lat="42.6350520" lon="-7.1573780">
        <ele>577.5</ele>
        <time>2014-10-02T10:57:31Z</time>
      </trkpt>
      <trkpt lat="42.6350580" lon="-7.1573340">
        <ele>577.0</ele>
        <time>2014-10-02T10:57:32Z</time>
      </trkpt>
      <trkpt lat="42.6350690" lon="-7.1572940">
        <ele>576.5</ele>
        <time>2014-10-02T10:57:33Z</time>
      </trkpt>
      <trkpt lat="42.6350780" lon="-7.1572540">
        <ele>576.0</ele>
        <time>2014-10-02T10:57:34Z</time>
      </trkpt>
      <trkpt lat="42.6351010" lon="-7.1571750">
        <ele>575.5</ele>
        <time>2014-10-02T10:57:36Z</time>
      </trkpt>
      <trkpt lat="42.6351200" lon="-7.1571270">
        <ele>575.7</ele>
        <time>2014-10-02T10:57:37Z</time>
      </trkpt>
      <trkpt lat="42.6351410" lon="-7.1570800">
        <ele>576.0</ele>
        <time>2014-10-02T10:57:38Z</time>
      </trkpt>
      <trkpt lat="42.6351650" lon="-7.1570310">
        <ele>576.2</ele>
        <time>2014-10-02T10:57:39Z</time>
      </trkpt>
      <trkpt lat="42.6351880" lon="-7.1569800">
        <ele>576.5</ele>
        <time>2014-10-02T10:57:40Z</time>
      </trkpt>
      <trkpt lat="42.6352120" lon="-7.1569330">
        <ele>576.7</ele>
        <time>2014-10-02T10:57:41Z</time>
      </trkpt>
      <trkpt lat="42.6352360" lon="-7.1568910">
        <ele>576.9</ele>
        <time>2014-10-02T10:57:42Z</time>
      </trkpt>
      <trkpt lat="42.6352600" lon="-7.1568490">
        <ele>577.1</ele>
        <time>2014-10-02T10:57:43Z</time>
      </trkpt>
      <trkpt lat="42.6352860" lon="-7.1568010">
        <ele>577.3</ele>
        <time>2014-10-02T10:57:44Z</time>
      </trkpt>
      <trkpt lat="42.6353080" lon="-7.1567610">
        <ele>577.5</ele>
        <time>2014-10-02T10:57:45Z</time>
      </trkpt>
      <trkpt lat="42.6353320" lon="-7.1567150">
        <ele>577.7</ele>
        <time>2014-10-02T10:57:46Z</time>
      </trkpt>
      <trkpt lat="42.6353590" lon="-7.1566740">
        <ele>577.9</ele>
        <time>2014-10-02T10:57:47Z</time>
      </trkpt>
      <trkpt lat="42.6353880" lon="-7.1566330">
        <ele>578.0</ele>
        <time>2014-10-02T10:57:48Z</time>
      </trkpt>
      <trkpt lat="42.6354150" lon="-7.1565920">
        <ele>578.2</ele>
        <time>2014-10-02T10:57:49Z</time>
      </trkpt>
      <trkpt lat="42.6354430" lon="-7.1565460">
        <ele>578.3</ele>
        <time>2014-10-02T10:57:50Z</time>
      </trkpt>
      <trkpt lat="42.6354750" lon="-7.1564960">
        <ele>578.4</ele>
        <time>2014-10-02T10:57:51Z</time>
      </trkpt>
      <trkpt lat="42.6355060" lon="-7.1564540">
        <ele>578.5</ele>
        <time>2014-10-02T10:57:52Z</time>
      </trkpt>
      <trkpt lat="42.6355390" lon="-7.1564120">
        <ele>578.6</ele>
        <time>2014-10-02T10:57:53Z</time>
      </trkpt>
      <trkpt lat="42.6355750" lon="-7.1563690">
        <ele>578.7</ele>
        <time>2014-10-02T10:57:54Z</time>
      </trkpt>
      <trkpt lat="42.6356100" lon="-7.1563150">
        <ele>578.7</ele>
        <time>2014-10-02T10:57:55Z</time>
      </trkpt>
      <trkpt lat="42.6356510" lon="-7.1562550">
        <ele>578.7</ele>
        <time>2014-10-02T10:57:56Z</time>
      </trkpt>
      <trkpt lat="42.6356960" lon="-7.1561970">
        <ele>578.5</ele>
        <time>2014-10-02T10:57:57Z</time>
      </trkpt>
      <trkpt lat="42.6357480" lon="-7.1561380">
        <ele>578.4</ele>
        <time>2014-10-02T10:57:58Z</time>
      </trkpt>
      <trkpt lat="42.6358030" lon="-7.1560760">
        <ele>578.1</ele>
        <time>2014-10-02T10:57:59Z</time>
      </trkpt>
      <trkpt lat="42.6358590" lon="-7.1560120">
        <ele>577.9</ele>
        <time>2014-10-02T10:58:00Z</time>
      </trkpt>
      <trkpt lat="42.6359160" lon="-7.1559490">
        <ele>577.6</ele>
        <time>2014-10-02T10:58:01Z</time>
      </trkpt>
      <trkpt lat="42.6359770" lon="-7.1558900">
        <ele>577.4</ele>
        <time>2014-10-02T10:58:02Z</time>
      </trkpt>
      <trkpt lat="42.6360410" lon="-7.1558360">
        <ele>577.0</ele>
        <time>2014-10-02T10:58:03Z</time>
      </trkpt>
      <trkpt lat="42.6361100" lon="-7.1557840">
        <ele>576.6</ele>
        <time>2014-10-02T10:58:04Z</time>
      </trkpt>
      <trkpt lat="42.6361850" lon="-7.1557530">
        <ele>576.1</ele>
        <time>2014-10-02T10:58:05Z</time>
      </trkpt>
      <trkpt lat="42.6362590" lon="-7.1557210">
        <ele>575.6</ele>
        <time>2014-10-02T10:58:06Z</time>
      </trkpt>
      <trkpt lat="42.6363380" lon="-7.1556840">
        <ele>575.1</ele>
        <time>2014-10-02T10:58:07Z</time>
      </trkpt>
      <trkpt lat="42.6364110" lon="-7.1556100">
        <ele>574.5</ele>
        <time>2014-10-02T10:58:08Z</time>
      </trkpt>
      <trkpt lat="42.6364810" lon="-7.1555280">
        <ele>573.8</ele>
        <time>2014-10-02T10:58:09Z</time>
      </trkpt>
      <trkpt lat="42.6365420" lon="-7.1554460">
        <ele>573.1</ele>
        <time>2014-10-02T10:58:10Z</time>
      </trkpt>
      <trkpt lat="42.6366020" lon="-7.1553560">
        <ele>572.3</ele>
        <time>2014-10-02T10:58:11Z</time>
      </trkpt>
      <trkpt lat="42.6366620" lon="-7.1552610">
        <ele>571.6</ele>
        <time>2014-10-02T10:58:12Z</time>
      </trkpt>
      <trkpt lat="42.6367300" lon="-7.1551580">
        <ele>570.9</ele>
        <time>2014-10-02T10:58:13Z</time>
      </trkpt>
      <trkpt lat="42.6367960" lon="-7.1550530">
        <ele>570.2</ele>
        <time>2014-10-02T10:58:14Z</time>
      </trkpt>
      <trkpt lat="42.6368570" lon="-7.1549430">
        <ele>569.6</ele>
        <time>2014-10-02T10:58:15Z</time>
      </trkpt>
      <trkpt lat="42.6368930" lon="-7.1548190">
        <ele>569.0</ele>
        <time>2014-10-02T10:58:16Z</time>
      </trkpt>
      <trkpt lat="42.6369240" lon="-7.1546880">
        <ele>568.3</ele>
        <time>2014-10-02T10:58:17Z</time>
      </trkpt>
      <trkpt lat="42.6369210" lon="-7.1545460">
        <ele>567.4</ele>
        <time>2014-10-02T10:58:18Z</time>
      </trkpt>
      <trkpt lat="42.6369120" lon="-7.1544050">
        <ele>566.4</ele>
        <time>2014-10-02T10:58:19Z</time>
      </trkpt>
      <trkpt lat="42.6368980" lon="-7.1542740">
        <ele>565.5</ele>
        <time>2014-10-02T10:58:20Z</time>
      </trkpt>
      <trkpt lat="42.6368790" lon="-7.1541430">
        <ele>564.8</ele>
        <time>2014-10-02T10:58:21Z</time>
      </trkpt>
      <trkpt lat="42.6368600" lon="-7.1540000">
        <ele>564.4</ele>
        <time>2014-10-02T10:58:22Z</time>
      </trkpt>
      <trkpt lat="42.6368400" lon="-7.1538580">
        <ele>564.1</ele>
        <time>2014-10-02T10:58:23Z</time>
      </trkpt>
      <trkpt lat="42.6368200" lon="-7.1537140">
        <ele>563.9</ele>
        <time>2014-10-02T10:58:24Z</time>
      </trkpt>
      <trkpt lat="42.6368030" lon="-7.1535830">
        <ele>563.9</ele>
        <time>2014-10-02T10:58:25Z</time>
      </trkpt>
      <trkpt lat="42.6367870" lon="-7.1534520">
        <ele>566.2</ele>
        <time>2014-10-02T10:58:26Z</time>
      </trkpt>
      <trkpt lat="42.6367700" lon="-7.1533380">
        <ele>568.2</ele>
        <time>2014-10-02T10:58:27Z</time>
      </trkpt>
      <trkpt lat="42.6367550" lon="-7.1532340">
        <ele>569.3</ele>
        <time>2014-10-02T10:58:28Z</time>
      </trkpt>
      <trkpt lat="42.6367410" lon="-7.1531300">
        <ele>570.0</ele>
        <time>2014-10-02T10:58:29Z</time>
      </trkpt>
      <trkpt lat="42.6367300" lon="-7.1530370">
        <ele>570.5</ele>
        <time>2014-10-02T10:58:30Z</time>
      </trkpt>
      <trkpt lat="42.6367250" lon="-7.1529450">
        <ele>570.9</ele>
        <time>2014-10-02T10:58:31Z</time>
      </trkpt>
      <trkpt lat="42.6367250" lon="-7.1528510">
        <ele>571.3</ele>
        <time>2014-10-02T10:58:32Z</time>
      </trkpt>
      <trkpt lat="42.6367400" lon="-7.1527740">
        <ele>571.7</ele>
        <time>2014-10-02T10:58:33Z</time>
      </trkpt>
      <trkpt lat="42.6367540" lon="-7.1527070">
        <ele>572.1</ele>
        <time>2014-10-02T10:58:34Z</time>
      </trkpt>
      <trkpt lat="42.6367750" lon="-7.1526240">
        <ele>572.5</ele>
        <time>2014-10-02T10:58:35Z</time>
      </trkpt>
      <trkpt lat="42.6368010" lon="-7.1525430">
        <ele>573.0</ele>
        <time>2014-10-02T10:58:36Z</time>
      </trkpt>
      <trkpt lat="42.6368270" lon="-7.1524800">
        <ele>573.5</ele>
        <time>2014-10-02T10:58:37Z</time>
      </trkpt>
      <trkpt lat="42.6368510" lon="-7.1524310">
        <ele>573.8</ele>
        <time>2014-10-02T10:58:38Z</time>
      </trkpt>
      <trkpt lat="42.6368810" lon="-7.1523880">
        <ele>574.2</ele>
        <time>2014-10-02T10:58:39Z</time>
      </trkpt>
      <trkpt lat="42.6369100" lon="-7.1523450">
        <ele>574.6</ele>
        <time>2014-10-02T10:58:40Z</time>
      </trkpt>
      <trkpt lat="42.6369350" lon="-7.1523070">
        <ele>575.0</ele>
        <time>2014-10-02T10:58:41Z</time>
      </trkpt>
      <trkpt lat="42.6369590" lon="-7.1522710">
        <ele>575.4</ele>
        <time>2014-10-02T10:58:42Z</time>
      </trkpt>
      <trkpt lat="42.6369850" lon="-7.1522310">
        <ele>575.8</ele>
        <time>2014-10-02T10:58:43Z</time>
      </trkpt>
      <trkpt lat="42.6370100" lon="-7.1521940">
        <ele>576.2</ele>
        <time>2014-10-02T10:58:44Z</time>
      </trkpt>
      <trkpt lat="42.6370320" lon="-7.1521630">
        <ele>576.5</ele>
        <time>2014-10-02T10:58:45Z</time>
      </trkpt>
      <trkpt lat="42.6370530" lon="-7.1521340">
        <ele>576.8</ele>
        <time>2014-10-02T10:58:46Z</time>
      </trkpt>
      <trkpt lat="42.6370800" lon="-7.1521000">
        <ele>577.3</ele>
        <time>2014-10-02T10:58:47Z</time>
      </trkpt>
      <trkpt lat="42.6371110" lon="-7.1520650">
        <ele>577.7</ele>
        <time>2014-10-02T10:58:48Z</time>
      </trkpt>
      <trkpt lat="42.6371370" lon="-7.1520410">
        <ele>578.0</ele>
        <time>2014-10-02T10:58:49Z</time>
      </trkpt>
      <trkpt lat="42.6371620" lon="-7.1520210">
        <ele>578.4</ele>
        <time>2014-10-02T10:58:50Z</time>
      </trkpt>
      <trkpt lat="42.6371920" lon="-7.1520070">
        <ele>578.7</ele>
        <time>2014-10-02T10:58:51Z</time>
      </trkpt>
      <trkpt lat="42.6372260" lon="-7.1519930">
        <ele>579.1</ele>
        <time>2014-10-02T10:58:52Z</time>
      </trkpt>
      <trkpt lat="42.6372570" lon="-7.1519820">
        <ele>579.4</ele>
        <time>2014-10-02T10:58:53Z</time>
      </trkpt>
      <trkpt lat="42.6372890" lon="-7.1519820">
        <ele>579.7</ele>
        <time>2014-10-02T10:58:54Z</time>
      </trkpt>
      <trkpt lat="42.6373220" lon="-7.1519800">
        <ele>580.0</ele>
        <time>2014-10-02T10:58:55Z</time>
      </trkpt>
      <trkpt lat="42.6373610" lon="-7.1519760">
        <ele>580.4</ele>
        <time>2014-10-02T10:58:56Z</time>
      </trkpt>
      <trkpt lat="42.6373940" lon="-7.1519710">
        <ele>580.7</ele>
        <time>2014-10-02T10:58:57Z</time>
      </trkpt>
      <trkpt lat="42.6374340" lon="-7.1519700">
        <ele>581.0</ele>
        <time>2014-10-02T10:58:58Z</time>
      </trkpt>
      <trkpt lat="42.6374680" lon="-7.1519710">
        <ele>581.3</ele>
        <time>2014-10-02T10:58:59Z</time>
      </trkpt>
      <trkpt lat="42.6375010" lon="-7.1519760">
        <ele>581.6</ele>
        <time>2014-10-02T10:59:00Z</time>
      </trkpt>
      <trkpt lat="42.6375520" lon="-7.1519830">
        <ele>582.0</ele>
        <time>2014-10-02T10:59:02Z</time>
      </trkpt>
      <trkpt lat="42.6375830" lon="-7.1519940">
        <ele>582.2</ele>
        <time>2014-10-02T10:59:03Z</time>
      </trkpt>
      <trkpt lat="42.6376170" lon="-7.1520090">
        <ele>582.5</ele>
        <time>2014-10-02T10:59:04Z</time>
      </trkpt>
      <trkpt lat="42.6376570" lon="-7.1520290">
        <ele>582.9</ele>
        <time>2014-10-02T10:59:05Z</time>
      </trkpt>
      <trkpt lat="42.6376950" lon="-7.1520490">
        <ele>583.2</ele>
        <time>2014-10-02T10:59:06Z</time>
      </trkpt>
      <trkpt lat="42.6377250" lon="-7.1520670">
        <ele>583.4</ele>
        <time>2014-10-02T10:59:07Z</time>
      </trkpt>
      <trkpt lat="42.6377500" lon="-7.1520890">
        <ele>583.6</ele>
        <time>2014-10-02T10:59:08Z</time>
      </trkpt>
      <trkpt lat="42.6377760" lon="-7.1521150">
        <ele>583.8</ele>
        <time>2014-10-02T10:59:09Z</time>
      </trkpt>
      <trkpt lat="42.6378120" lon="-7.1521490">
        <ele>584.0</ele>
        <time>2014-10-02T10:59:10Z</time>
      </trkpt>
      <trkpt lat="42.6378420" lon="-7.1521750">
        <ele>584.2</ele>
        <time>2014-10-02T10:59:11Z</time>
      </trkpt>
      <trkpt lat="42.6378770" lon="-7.1522100">
        <ele>584.4</ele>
        <time>2014-10-02T10:59:12Z</time>
      </trkpt>
      <trkpt lat="42.6379140" lon="-7.1522530">
        <ele>584.7</ele>
        <time>2014-10-02T10:59:13Z</time>
      </trkpt>
      <trkpt lat="42.6379460" lon="-7.1522940">
        <ele>585.0</ele>
        <time>2014-10-02T10:59:14Z</time>
      </trkpt>
      <trkpt lat="42.6379840" lon="-7.1523440">
        <ele>585.3</ele>
        <time>2014-10-02T10:59:15Z</time>
      </trkpt>
      <trkpt lat="42.6380200" lon="-7.1523920">
        <ele>585.7</ele>
        <time>2014-10-02T10:59:16Z</time>
      </trkpt>
      <trkpt lat="42.6380480" lon="-7.1524370">
        <ele>586.0</ele>
        <time>2014-10-02T10:59:17Z</time>
      </trkpt>
      <trkpt lat="42.6380660" lon="-7.1524830">
        <ele>586.3</ele>
        <time>2014-10-02T10:59:18Z</time>
      </trkpt>
      <trkpt lat="42.6380810" lon="-7.1525230">
        <ele>586.6</ele>
        <time>2014-10-02T10:59:19Z</time>
      </trkpt>
      <trkpt lat="42.6381000" lon="-7.1525700">
        <ele>586.8</ele>
        <time>2014-10-02T10:59:20Z</time>
      </trkpt>
      <trkpt lat="42.6381170" lon="-7.1526090">
        <ele>587.0</ele>
        <time>2014-10-02T10:59:21Z</time>
      </trkpt>
      <trkpt lat="42.6381460" lon="-7.1526500">
        <ele>587.3</ele>
        <time>2014-10-02T10:59:22Z</time>
      </trkpt>
      <trkpt lat="42.6381740" lon="-7.1526880">
        <ele>587.5</ele>
        <time>2014-10-02T10:59:23Z</time>
      </trkpt>
      <trkpt lat="42.6382060" lon="-7.1527270">
        <ele>587.8</ele>
        <time>2014-10-02T10:59:24Z</time>
      </trkpt>
      <trkpt lat="42.6382420" lon="-7.1527670">
        <ele>588.0</ele>
        <time>2014-10-02T10:59:25Z</time>
      </trkpt>
      <trkpt lat="42.6382790" lon="-7.1527940">
        <ele>588.1</ele>
        <time>2014-10-02T10:59:26Z</time>
      </trkpt>
      <trkpt lat="42.6383180" lon="-7.1528250">
        <ele>588.3</ele>
        <time>2014-10-02T10:59:27Z</time>
      </trkpt>
      <trkpt lat="42.6383630" lon="-7.1528620">
        <ele>588.3</ele>
        <time>2014-10-02T10:59:28Z</time>
      </trkpt>
      <trkpt lat="42.6384090" lon="-7.1528960">
        <ele>588.4</ele>
        <time>2014-10-02T10:59:29Z</time>
      </trkpt>
      <trkpt lat="42.6384560" lon="-7.1529240">
        <ele>588.5</ele>
        <time>2014-10-02T10:59:30Z</time>
      </trkpt>
      <trkpt lat="42.6385080" lon="-7.1529370">
        <ele>588.5</ele>
        <time>2014-10-02T10:59:31Z</time>
      </trkpt>
      <trkpt lat="42.6385580" lon="-7.1529480">
        <ele>588.7</ele>
        <time>2014-10-02T10:59:32Z</time>
      </trkpt>
      <trkpt lat="42.6386050" lon="-7.1529590">
        <ele>588.8</ele>
        <time>2014-10-02T10:59:33Z</time>
      </trkpt>
      <trkpt lat="42.6386470" lon="-7.1529670">
        <ele>589.0</ele>
        <time>2014-10-02T10:59:34Z</time>
      </trkpt>
      <trkpt lat="42.6386890" lon="-7.1529780">
        <ele>589.1</ele>
        <time>2014-10-02T10:59:35Z</time>
      </trkpt>
      <trkpt lat="42.6387330" lon="-7.1529890">
        <ele>589.2</ele>
        <time>2014-10-02T10:59:36Z</time>
      </trkpt>
      <trkpt lat="42.6387760" lon="-7.1529990">
        <ele>589.3</ele>
        <time>2014-10-02T10:59:37Z</time>
      </trkpt>
      <trkpt lat="42.6388230" lon="-7.1530130">
        <ele>589.4</ele>
        <time>2014-10-02T10:59:38Z</time>
      </trkpt>
      <trkpt lat="42.6388740" lon="-7.1530330">
        <ele>589.7</ele>
        <time>2014-10-02T10:59:39Z</time>
      </trkpt>
      <trkpt lat="42.6389240" lon="-7.1530720">
        <ele>590.0</ele>
        <time>2014-10-02T10:59:40Z</time>
      </trkpt>
      <trkpt lat="42.6389730" lon="-7.1531150">
        <ele>590.3</ele>
        <time>2014-10-02T10:59:41Z</time>
      </trkpt>
      <trkpt lat="42.6390060" lon="-7.1531810">
        <ele>590.6</ele>
        <time>2014-10-02T10:59:42Z</time>
      </trkpt>
      <trkpt lat="42.6390240" lon="-7.1532460">
        <ele>590.8</ele>
        <time>2014-10-02T10:59:43Z</time>
      </trkpt>
      <trkpt lat="42.6390390" lon="-7.1533090">
        <ele>591.1</ele>
        <time>2014-10-02T10:59:44Z</time>
      </trkpt>
      <trkpt lat="42.6390510" lon="-7.1533720">
        <ele>591.4</ele>
        <time>2014-10-02T10:59:45Z</time>
      </trkpt>
      <trkpt lat="42.6390600" lon="-7.1534330">
        <ele>591.7</ele>
        <time>2014-10-02T10:59:46Z</time>
      </trkpt>
      <trkpt lat="42.6390670" lon="-7.1535010">
        <ele>592.0</ele>
        <time>2014-10-02T10:59:47Z</time>
      </trkpt>
      <trkpt lat="42.6390690" lon="-7.1535530">
        <ele>592.2</ele>
        <time>2014-10-02T10:59:48Z</time>
      </trkpt>
      <trkpt lat="42.6390750" lon="-7.1536170">
        <ele>592.4</ele>
        <time>2014-10-02T10:59:49Z</time>
      </trkpt>
      <trkpt lat="42.6390880" lon="-7.1536750">
        <ele>592.7</ele>
        <time>2014-10-02T10:59:50Z</time>
      </trkpt>
      <trkpt lat="42.6391020" lon="-7.1537330">
        <ele>593.0</ele>
        <time>2014-10-02T10:59:51Z</time>
      </trkpt>
      <trkpt lat="42.6391130" lon="-7.1537820">
        <ele>593.2</ele>
        <time>2014-10-02T10:59:52Z</time>
      </trkpt>
      <trkpt lat="42.6391240" lon="-7.1538300">
        <ele>593.4</ele>
        <time>2014-10-02T10:59:53Z</time>
      </trkpt>
      <trkpt lat="42.6391380" lon="-7.1538700">
        <ele>593.6</ele>
        <time>2014-10-02T10:59:54Z</time>
      </trkpt>
      <trkpt lat="42.6391520" lon="-7.1539050">
        <ele>593.8</ele>
        <time>2014-10-02T10:59:55Z</time>
      </trkpt>
      <trkpt lat="42.6391880" lon="-7.1539520">
        <ele>594.1</ele>
        <time>2014-10-02T10:59:57Z</time>
      </trkpt>
      <trkpt lat="42.6392130" lon="-7.1539750">
        <ele>594.2</ele>
        <time>2014-10-02T10:59:58Z</time>
      </trkpt>
      <trkpt lat="42.6392390" lon="-7.1539980">
        <ele>594.3</ele>
        <time>2014-10-02T10:59:59Z</time>
      </trkpt>
      <trkpt lat="42.6392700" lon="-7.1540210">
        <ele>594.5</ele>
        <time>2014-10-02T11:00:00Z</time>
      </trkpt>
      <trkpt lat="42.6392980" lon="-7.1540370">
        <ele>594.6</ele>
        <time>2014-10-02T11:00:01Z</time>
      </trkpt>
      <trkpt lat="42.6393340" lon="-7.1540530">
        <ele>594.8</ele>
        <time>2014-10-02T11:00:02Z</time>
      </trkpt>
      <trkpt lat="42.6393690" lon="-7.1540700">
        <ele>595.0</ele>
        <time>2014-10-02T11:00:03Z</time>
      </trkpt>
      <trkpt lat="42.6394030" lon="-7.1540880">
        <ele>595.2</ele>
        <time>2014-10-02T11:00:04Z</time>
      </trkpt>
      <trkpt lat="42.6394370" lon="-7.1541100">
        <ele>595.5</ele>
        <time>2014-10-02T11:00:05Z</time>
      </trkpt>
      <trkpt lat="42.6394760" lon="-7.1541360">
        <ele>595.7</ele>
        <time>2014-10-02T11:00:06Z</time>
      </trkpt>
      <trkpt lat="42.6395110" lon="-7.1541600">
        <ele>596.0</ele>
        <time>2014-10-02T11:00:07Z</time>
      </trkpt>
      <trkpt lat="42.6395420" lon="-7.1541790">
        <ele>596.2</ele>
        <time>2014-10-02T11:00:08Z</time>
      </trkpt>
      <trkpt lat="42.6395720" lon="-7.1542010">
        <ele>596.4</ele>
        <time>2014-10-02T11:00:09Z</time>
      </trkpt>
      <trkpt lat="42.6396120" lon="-7.1542300">
        <ele>596.8</ele>
        <time>2014-10-02T11:00:10Z</time>
      </trkpt>
      <trkpt lat="42.6396540" lon="-7.1542700">
        <ele>597.1</ele>
        <time>2014-10-02T11:00:11Z</time>
      </trkpt>
      <trkpt lat="42.6397020" lon="-7.1543120">
        <ele>597.6</ele>
        <time>2014-10-02T11:00:12Z</time>
      </trkpt>
      <trkpt lat="42.6397470" lon="-7.1543510">
        <ele>598.0</ele>
        <time>2014-10-02T11:00:13Z</time>
      </trkpt>
      <trkpt lat="42.6397910" lon="-7.1543930">
        <ele>598.5</ele>
        <time>2014-10-02T11:00:14Z</time>
      </trkpt>
      <trkpt lat="42.6398300" lon="-7.1544340">
        <ele>598.9</ele>
        <time>2014-10-02T11:00:15Z</time>
      </trkpt>
      <trkpt lat="42.6398650" lon="-7.1544720">
        <ele>599.2</ele>
        <time>2014-10-02T11:00:16Z</time>
      </trkpt>
      <trkpt lat="42.6398940" lon="-7.1545020">
        <ele>599.6</ele>
        <time>2014-10-02T11:00:17Z</time>
      </trkpt>
      <trkpt lat="42.6399180" lon="-7.1545380">
        <ele>599.9</ele>
        <time>2014-10-02T11:00:18Z</time>
      </trkpt>
      <trkpt lat="42.6399420" lon="-7.1545710">
        <ele>600.3</ele>
        <time>2014-10-02T11:00:19Z</time>
      </trkpt>
      <trkpt lat="42.6399690" lon="-7.1546090">
        <ele>600.7</ele>
        <time>2014-10-02T11:00:20Z</time>
      </trkpt>
      <trkpt lat="42.6399940" lon="-7.1546450">
        <ele>601.1</ele>
        <time>2014-10-02T11:00:21Z</time>
      </trkpt>
      <trkpt lat="42.6400180" lon="-7.1546840">
        <ele>601.4</ele>
        <time>2014-10-02T11:00:22Z</time>
      </trkpt>
      <trkpt lat="42.6400400" lon="-7.1547290">
        <ele>601.8</ele>
        <time>2014-10-02T11:00:23Z</time>
      </trkpt>
      <trkpt lat="42.6400620" lon="-7.1547720">
        <ele>602.2</ele>
        <time>2014-10-02T11:00:24Z</time>
      </trkpt>
      <trkpt lat="42.6400800" lon="-7.1548110">
        <ele>602.5</ele>
        <time>2014-10-02T11:00:25Z</time>
      </trkpt>
      <trkpt lat="42.6400950" lon="-7.1548500">
        <ele>602.8</ele>
        <time>2014-10-02T11:00:26Z</time>
      </trkpt>
      <trkpt lat="42.6401110" lon="-7.1548860">
        <ele>603.1</ele>
        <time>2014-10-02T11:00:27Z</time>
      </trkpt>
      <trkpt lat="42.6401270" lon="-7.1549180">
        <ele>603.3</ele>
        <time>2014-10-02T11:00:28Z</time>
      </trkpt>
      <trkpt lat="42.6401400" lon="-7.1549540">
        <ele>603.6</ele>
        <time>2014-10-02T11:00:29Z</time>
      </trkpt>
      <trkpt lat="42.6401580" lon="-7.1549970">
        <ele>604.0</ele>
        <time>2014-10-02T11:00:30Z</time>
      </trkpt>
      <trkpt lat="42.6401720" lon="-7.1550340">
        <ele>604.3</ele>
        <time>2014-10-02T11:00:31Z</time>
      </trkpt>
      <trkpt lat="42.6401870" lon="-7.1550670">
        <ele>604.6</ele>
        <time>2014-10-02T11:00:32Z</time>
      </trkpt>
      <trkpt lat="42.6402210" lon="-7.1551200">
        <ele>605.0</ele>
        <time>2014-10-02T11:00:34Z</time>
      </trkpt>
      <trkpt lat="42.6402400" lon="-7.1551480">
        <ele>605.2</ele>
        <time>2014-10-02T11:00:35Z</time>
      </trkpt>
      <trkpt lat="42.6402580" lon="-7.1551770">
        <ele>605.4</ele>
        <time>2014-10-02T11:00:36Z</time>
      </trkpt>
      <trkpt lat="42.6402790" lon="-7.1552020">
        <ele>605.6</ele>
        <time>2014-10-02T11:00:37Z</time>
      </trkpt>
      <trkpt lat="42.6403020" lon="-7.1552280">
        <ele>605.8</ele>
        <time>2014-10-02T11:00:38Z</time>
      </trkpt>
      <trkpt lat="42.6403260" lon="-7.1552550">
        <ele>606.0</ele>
        <time>2014-10-02T11:00:39Z</time>
      </trkpt>
      <trkpt lat="42.6403510" lon="-7.1552810">
        <ele>606.2</ele>
        <time>2014-10-02T11:00:40Z</time>
      </trkpt>
      <trkpt lat="42.6403750" lon="-7.1553040">
        <ele>606.4</ele>
        <time>2014-10-02T11:00:41Z</time>
      </trkpt>
      <trkpt lat="42.6403980" lon="-7.1553240">
        <ele>606.5</ele>
        <time>2014-10-02T11:00:42Z</time>
      </trkpt>
      <trkpt lat="42.6404390" lon="-7.1553550">
        <ele>606.9</ele>
        <time>2014-10-02T11:00:44Z</time>
      </trkpt>
      <trkpt lat="42.6404630" lon="-7.1553730">
        <ele>607.1</ele>
        <time>2014-10-02T11:00:45Z</time>
      </trkpt>
      <trkpt lat="42.6404890" lon="-7.1553910">
        <ele>607.4</ele>
        <time>2014-10-02T11:00:46Z</time>
      </trkpt>
      <trkpt lat="42.6405360" lon="-7.1554230">
        <ele>607.8</ele>
        <time>2014-10-02T11:00:48Z</time>
      </trkpt>
      <trkpt lat="42.6405610" lon="-7.1554370">
        <ele>608.0</ele>
        <time>2014-10-02T11:00:49Z</time>
      </trkpt>
      <trkpt lat="42.6405880" lon="-7.1554500">
        <ele>608.2</ele>
        <time>2014-10-02T11:00:50Z</time>
      </trkpt>
      <trkpt lat="42.6406140" lon="-7.1554580">
        <ele>608.5</ele>
        <time>2014-10-02T11:00:51Z</time>
      </trkpt>
      <trkpt lat="42.6406450" lon="-7.1554670">
        <ele>608.7</ele>
        <time>2014-10-02T11:00:52Z</time>
      </trkpt>
      <trkpt lat="42.6406770" lon="-7.1554770">
        <ele>608.9</ele>
        <time>2014-10-02T11:00:53Z</time>
      </trkpt>
      <trkpt lat="42.6407090" lon="-7.1554850">
        <ele>609.1</ele>
        <time>2014-10-02T11:00:54Z</time>
      </trkpt>
      <trkpt lat="42.6407480" lon="-7.1554940">
        <ele>609.4</ele>
        <time>2014-10-02T11:00:55Z</time>
      </trkpt>
      <trkpt lat="42.6407860" lon="-7.1555010">
        <ele>609.6</ele>
        <time>2014-10-02T11:00:56Z</time>
      </trkpt>
      <trkpt lat="42.6408310" lon="-7.1555090">
        <ele>609.9</ele>
        <time>2014-10-02T11:00:57Z</time>
      </trkpt>
      <trkpt lat="42.6408770" lon="-7.1555160">
        <ele>610.2</ele>
        <time>2014-10-02T11:00:58Z</time>
      </trkpt>
      <trkpt lat="42.6409240" lon="-7.1555230">
        <ele>610.5</ele>
        <time>2014-10-02T11:00:59Z</time>
      </trkpt>
      <trkpt lat="42.6409700" lon="-7.1555280">
        <ele>610.9</ele>
        <time>2014-10-02T11:01:00Z</time>
      </trkpt>
      <trkpt lat="42.6410130" lon="-7.1555300">
        <ele>611.2</ele>
        <time>2014-10-02T11:01:01Z</time>
      </trkpt>
      <trkpt lat="42.6410520" lon="-7.1555300">
        <ele>611.6</ele>
        <time>2014-10-02T11:01:02Z</time>
      </trkpt>
      <trkpt lat="42.6410890" lon="-7.1555260">
        <ele>611.9</ele>
        <time>2014-10-02T11:01:03Z</time>
      </trkpt>
      <trkpt lat="42.6411290" lon="-7.1555190">
        <ele>612.3</ele>
        <time>2014-10-02T11:01:04Z</time>
      </trkpt>
      <trkpt lat="42.6411660" lon="-7.1555100">
        <ele>612.6</ele>
        <time>2014-10-02T11:01:05Z</time>
      </trkpt>
      <trkpt lat="42.6412030" lon="-7.1554910">
        <ele>612.9</ele>
        <time>2014-10-02T11:01:06Z</time>
      </trkpt>
      <trkpt lat="42.6412400" lon="-7.1554720">
        <ele>613.2</ele>
        <time>2014-10-02T11:01:07Z</time>
      </trkpt>
      <trkpt lat="42.6412730" lon="-7.1554520">
        <ele>613.5</ele>
        <time>2014-10-02T11:01:08Z</time>
      </trkpt>
      <trkpt lat="42.6413050" lon="-7.1554320">
        <ele>613.7</ele>
        <time>2014-10-02T11:01:09Z</time>
      </trkpt>
      <trkpt lat="42.6413430" lon="-7.1554100">
        <ele>614.0</ele>
        <time>2014-10-02T11:01:10Z</time>
      </trkpt>
      <trkpt lat="42.6413800" lon="-7.1553890">
        <ele>614.2</ele>
        <time>2014-10-02T11:01:11Z</time>
      </trkpt>
      <trkpt lat="42.6414150" lon="-7.1553680">
        <ele>614.4</ele>
        <time>2014-10-02T11:01:12Z</time>
      </trkpt>
      <trkpt lat="42.6414490" lon="-7.1553620">
        <ele>614.6</ele>
        <time>2014-10-02T11:01:13Z</time>
      </trkpt>
      <trkpt lat="42.6414810" lon="-7.1553680">
        <ele>614.7</ele>
        <time>2014-10-02T11:01:14Z</time>
      </trkpt>
      <trkpt lat="42.6415180" lon="-7.1553780">
        <ele>614.9</ele>
        <time>2014-10-02T11:01:15Z</time>
      </trkpt>
      <trkpt lat="42.6415460" lon="-7.1554050">
        <ele>615.1</ele>
        <time>2014-10-02T11:01:16Z</time>
      </trkpt>
      <trkpt lat="42.6415740" lon="-7.1554370">
        <ele>615.3</ele>
        <time>2014-10-02T11:01:17Z</time>
      </trkpt>
      <trkpt lat="42.6416000" lon="-7.1554720">
        <ele>615.5</ele>
        <time>2014-10-02T11:01:18Z</time>
      </trkpt>
      <trkpt lat="42.6416260" lon="-7.1555140">
        <ele>615.8</ele>
        <time>2014-10-02T11:01:19Z</time>
      </trkpt>
      <trkpt lat="42.6416490" lon="-7.1555540">
        <ele>616.1</ele>
        <time>2014-10-02T11:01:20Z</time>
      </trkpt>
      <trkpt lat="42.6416660" lon="-7.1555890">
        <ele>616.3</ele>
        <time>2014-10-02T11:01:21Z</time>
      </trkpt>
      <trkpt lat="42.6416820" lon="-7.1556180">
        <ele>616.5</ele>
        <time>2014-10-02T11:01:22Z</time>
      </trkpt>
      <trkpt lat="42.6417020" lon="-7.1556520">
        <ele>616.7</ele>
        <time>2014-10-02T11:01:23Z</time>
      </trkpt>
      <trkpt lat="42.6417240" lon="-7.1556850">
        <ele>616.9</ele>
        <time>2014-10-02T11:01:24Z</time>
      </trkpt>
      <trkpt lat="42.6417500" lon="-7.1557170">
        <ele>617.2</ele>
        <time>2014-10-02T11:01:25Z</time>
      </trkpt>
      <trkpt lat="42.6417770" lon="-7.1557490">
        <ele>617.4</ele>
        <time>2014-10-02T11:01:26Z</time>
      </trkpt>
      <trkpt lat="42.6418090" lon="-7.1557800">
        <ele>617.7</ele>
        <time>2014-10-02T11:01:27Z</time>
      </trkpt>
      <trkpt lat="42.6418400" lon="-7.1558040">
        <ele>617.9</ele>
        <time>2014-10-02T11:01:28Z</time>
      </trkpt>
      <trkpt lat="42.6418750" lon="-7.1558280">
        <ele>618.1</ele>
        <time>2014-10-02T11:01:29Z</time>
      </trkpt>
      <trkpt lat="42.6419140" lon="-7.1558540">
        <ele>618.4</ele>
        <time>2014-10-02T11:01:30Z</time>
      </trkpt>
      <trkpt lat="42.6419560" lon="-7.1558840">
        <ele>618.7</ele>
        <time>2014-10-02T11:01:31Z</time>
      </trkpt>
      <trkpt lat="42.6419870" lon="-7.1559070">
        <ele>618.9</ele>
        <time>2014-10-02T11:01:32Z</time>
      </trkpt>
      <trkpt lat="42.6420100" lon="-7.1559350">
        <ele>619.1</ele>
        <time>2014-10-02T11:01:33Z</time>
      </trkpt>
      <trkpt lat="42.6420320" lon="-7.1559640">
        <ele>619.2</ele>
        <time>2014-10-02T11:01:34Z</time>
      </trkpt>
      <trkpt lat="42.6420570" lon="-7.1560010">
        <ele>619.4</ele>
        <time>2014-10-02T11:01:35Z</time>
      </trkpt>
      <trkpt lat="42.6420800" lon="-7.1560410">
        <ele>619.6</ele>
        <time>2014-10-02T11:01:36Z</time>
      </trkpt>
      <trkpt lat="42.6420950" lon="-7.1560920">
        <ele>619.8</ele>
        <time>2014-10-02T11:01:37Z</time>
      </trkpt>
      <trkpt lat="42.6421110" lon="-7.1561480">
        <ele>620.0</ele>
        <time>2014-10-02T11:01:38Z</time>
      </trkpt>
      <trkpt lat="42.6421260" lon="-7.1561940">
        <ele>620.1</ele>
        <time>2014-10-02T11:01:39Z</time>
      </trkpt>
      <trkpt lat="42.6421560" lon="-7.1562340">
        <ele>620.3</ele>
        <time>2014-10-02T11:01:40Z</time>
      </trkpt>
      <trkpt lat="42.6421980" lon="-7.1562580">
        <ele>620.5</ele>
        <time>2014-10-02T11:01:41Z</time>
      </trkpt>
      <trkpt lat="42.6422440" lon="-7.1562710">
        <ele>620.7</ele>
        <time>2014-10-02T11:01:42Z</time>
      </trkpt>
      <trkpt lat="42.6422910" lon="-7.1562780">
        <ele>620.9</ele>
        <time>2014-10-02T11:01:43Z</time>
      </trkpt>
      <trkpt lat="42.6423340" lon="-7.1562810">
        <ele>621.1</ele>
        <time>2014-10-02T11:01:44Z</time>
      </trkpt>
      <trkpt lat="42.6423810" lon="-7.1562830">
        <ele>621.3</ele>
        <time>2014-10-02T11:01:45Z</time>
      </trkpt>
      <trkpt lat="42.6424270" lon="-7.1562880">
        <ele>621.5</ele>
        <time>2014-10-02T11:01:46Z</time>
      </trkpt>
      <trkpt lat="42.6424730" lon="-7.1562960">
        <ele>621.7</ele>
        <time>2014-10-02T11:01:47Z</time>
      </trkpt>
      <trkpt lat="42.6425150" lon="-7.1563090">
        <ele>621.8</ele>
        <time>2014-10-02T11:01:48Z</time>
      </trkpt>
      <trkpt lat="42.6425520" lon="-7.1563340">
        <ele>621.9</ele>
        <time>2014-10-02T11:01:49Z</time>
      </trkpt>
      <trkpt lat="42.6425930" lon="-7.1563650">
        <ele>622.0</ele>
        <time>2014-10-02T11:01:50Z</time>
      </trkpt>
      <trkpt lat="42.6426360" lon="-7.1564010">
        <ele>622.1</ele>
        <time>2014-10-02T11:01:51Z</time>
      </trkpt>
      <trkpt lat="42.6426740" lon="-7.1564400">
        <ele>622.2</ele>
        <time>2014-10-02T11:01:52Z</time>
      </trkpt>
      <trkpt lat="42.6427090" lon="-7.1564820">
        <ele>622.3</ele>
        <time>2014-10-02T11:01:53Z</time>
      </trkpt>
      <trkpt lat="42.6427420" lon="-7.1565250">
        <ele>622.3</ele>
        <time>2014-10-02T11:01:54Z</time>
      </trkpt>
      <trkpt lat="42.6427750" lon="-7.1565680">
        <ele>622.4</ele>
        <time>2014-10-02T11:01:55Z</time>
      </trkpt>
      <trkpt lat="42.6428120" lon="-7.1566110">
        <ele>622.4</ele>
        <time>2014-10-02T11:01:56Z</time>
      </trkpt>
      <trkpt lat="42.6428580" lon="-7.1566380">
        <ele>622.5</ele>
        <time>2014-10-02T11:01:57Z</time>
      </trkpt>
      <trkpt lat="42.6429080" lon="-7.1566620">
        <ele>622.5</ele>
        <time>2014-10-02T11:01:58Z</time>
      </trkpt>
      <trkpt lat="42.6429570" lon="-7.1566780">
        <ele>622.5</ele>
        <time>2014-10-02T11:01:59Z</time>
      </trkpt>
      <trkpt lat="42.6430140" lon="-7.1566780">
        <ele>622.5</ele>
        <time>2014-10-02T11:02:00Z</time>
      </trkpt>
      <trkpt lat="42.6430670" lon="-7.1566760">
        <ele>622.6</ele>
        <time>2014-10-02T11:02:01Z</time>
      </trkpt>
      <trkpt lat="42.6431220" lon="-7.1566710">
        <ele>622.6</ele>
        <time>2014-10-02T11:02:02Z</time>
      </trkpt>
      <trkpt lat="42.6431740" lon="-7.1566660">
        <ele>622.3</ele>
        <time>2014-10-02T11:02:03Z</time>
      </trkpt>
      <trkpt lat="42.6432170" lon="-7.1566640">
        <ele>621.9</ele>
        <time>2014-10-02T11:02:04Z</time>
      </trkpt>
      <trkpt lat="42.6432670" lon="-7.1566680">
        <ele>621.2</ele>
        <time>2014-10-02T11:02:05Z</time>
      </trkpt>
      <trkpt lat="42.6433210" lon="-7.1566770">
        <ele>620.9</ele>
        <time>2014-10-02T11:02:06Z</time>
      </trkpt>
      <trkpt lat="42.6433730" lon="-7.1566900">
        <ele>620.9</ele>
        <time>2014-10-02T11:02:07Z</time>
      </trkpt>
      <trkpt lat="42.6434310" lon="-7.1567090">
        <ele>620.8</ele>
        <time>2014-10-02T11:02:08Z</time>
      </trkpt>
      <trkpt lat="42.6434900" lon="-7.1567320">
        <ele>620.7</ele>
        <time>2014-10-02T11:02:09Z</time>
      </trkpt>
      <trkpt lat="42.6435510" lon="-7.1567570">
        <ele>620.6</ele>
        <time>2014-10-02T11:02:10Z</time>
      </trkpt>
      <trkpt lat="42.6436090" lon="-7.1567850">
        <ele>620.6</ele>
        <time>2014-10-02T11:02:11Z</time>
      </trkpt>
      <trkpt lat="42.6436640" lon="-7.1568130">
        <ele>620.5</ele>
        <time>2014-10-02T11:02:12Z</time>
      </trkpt>
      <trkpt lat="42.6437230" lon="-7.1568440">
        <ele>620.3</ele>
        <time>2014-10-02T11:02:13Z</time>
      </trkpt>
      <trkpt lat="42.6437770" lon="-7.1568710">
        <ele>620.2</ele>
        <time>2014-10-02T11:02:14Z</time>
      </trkpt>
      <trkpt lat="42.6438290" lon="-7.1568970">
        <ele>620.1</ele>
        <time>2014-10-02T11:02:15Z</time>
      </trkpt>
      <trkpt lat="42.6438700" lon="-7.1569170">
        <ele>620.1</ele>
        <time>2014-10-02T11:02:16Z</time>
      </trkpt>
      <trkpt lat="42.6439090" lon="-7.1569410">
        <ele>620.0</ele>
        <time>2014-10-02T11:02:17Z</time>
      </trkpt>
      <trkpt lat="42.6439490" lon="-7.1569700">
        <ele>619.9</ele>
        <time>2014-10-02T11:02:18Z</time>
      </trkpt>
      <trkpt lat="42.6439900" lon="-7.1570050">
        <ele>619.8</ele>
        <time>2014-10-02T11:02:19Z</time>
      </trkpt>
      <trkpt lat="42.6440320" lon="-7.1570580">
        <ele>619.6</ele>
        <time>2014-10-02T11:02:20Z</time>
      </trkpt>
      <trkpt lat="42.6440790" lon="-7.1571280">
        <ele>619.3</ele>
        <time>2014-10-02T11:02:21Z</time>
      </trkpt>
      <trkpt lat="42.6441060" lon="-7.1572190">
        <ele>619.0</ele>
        <time>2014-10-02T11:02:22Z</time>
      </trkpt>
      <trkpt lat="42.6441310" lon="-7.1573080">
        <ele>618.7</ele>
        <time>2014-10-02T11:02:23Z</time>
      </trkpt>
      <trkpt lat="42.6441510" lon="-7.1574040">
        <ele>618.4</ele>
        <time>2014-10-02T11:02:24Z</time>
      </trkpt>
      <trkpt lat="42.6441650" lon="-7.1574940">
        <ele>618.1</ele>
        <time>2014-10-02T11:02:25Z</time>
      </trkpt>
      <trkpt lat="42.6441750" lon="-7.1575730">
        <ele>617.8</ele>
        <time>2014-10-02T11:02:26Z</time>
      </trkpt>
      <trkpt lat="42.6441860" lon="-7.1576470">
        <ele>617.5</ele>
        <time>2014-10-02T11:02:27Z</time>
      </trkpt>
      <trkpt lat="42.6442000" lon="-7.1577200">
        <ele>617.2</ele>
        <time>2014-10-02T11:02:28Z</time>
      </trkpt>
      <trkpt lat="42.6442340" lon="-7.1577770">
        <ele>616.9</ele>
        <time>2014-10-02T11:02:29Z</time>
      </trkpt>
      <trkpt lat="42.6442810" lon="-7.1578040">
        <ele>616.7</ele>
        <time>2014-10-02T11:02:30Z</time>
      </trkpt>
      <trkpt lat="42.6443320" lon="-7.1578010">
        <ele>616.4</ele>
        <time>2014-10-02T11:02:31Z</time>
      </trkpt>
      <trkpt lat="42.6443830" lon="-7.1577770">
        <ele>616.0</ele>
        <time>2014-10-02T11:02:32Z</time>
      </trkpt>
      <trkpt lat="42.6444320" lon="-7.1577450">
        <ele>615.7</ele>
        <time>2014-10-02T11:02:33Z</time>
      </trkpt>
      <trkpt lat="42.6444920" lon="-7.1577050">
        <ele>615.3</ele>
        <time>2014-10-02T11:02:34Z</time>
      </trkpt>
      <trkpt lat="42.6445520" lon="-7.1576590">
        <ele>614.9</ele>
        <time>2014-10-02T11:02:35Z</time>
      </trkpt>
      <trkpt lat="42.6446110" lon="-7.1576100">
        <ele>614.5</ele>
        <time>2014-10-02T11:02:36Z</time>
      </trkpt>
      <trkpt lat="42.6446740" lon="-7.1575550">
        <ele>614.1</ele>
        <time>2014-10-02T11:02:37Z</time>
      </trkpt>
      <trkpt lat="42.6447370" lon="-7.1574920">
        <ele>613.7</ele>
        <time>2014-10-02T11:02:38Z</time>
      </trkpt>
      <trkpt lat="42.6447960" lon="-7.1574250">
        <ele>613.4</ele>
        <time>2014-10-02T11:02:39Z</time>
      </trkpt>
      <trkpt lat="42.6448510" lon="-7.1573560">
        <ele>613.0</ele>
        <time>2014-10-02T11:02:40Z</time>
      </trkpt>
      <trkpt lat="42.6449030" lon="-7.1572880">
        <ele>612.7</ele>
        <time>2014-10-02T11:02:41Z</time>
      </trkpt>
      <trkpt lat="42.6449550" lon="-7.1572200">
        <ele>612.4</ele>
        <time>2014-10-02T11:02:42Z</time>
      </trkpt>
      <trkpt lat="42.6450100" lon="-7.1571540">
        <ele>612.1</ele>
        <time>2014-10-02T11:02:43Z</time>
      </trkpt>
      <trkpt lat="42.6450700" lon="-7.1570930">
        <ele>611.8</ele>
        <time>2014-10-02T11:02:44Z</time>
      </trkpt>
      <trkpt lat="42.6451330" lon="-7.1570370">
        <ele>611.4</ele>
        <time>2014-10-02T11:02:45Z</time>
      </trkpt>
      <trkpt lat="42.6452000" lon="-7.1569870">
        <ele>610.9</ele>
        <time>2014-10-02T11:02:46Z</time>
      </trkpt>
      <trkpt lat="42.6452670" lon="-7.1569430">
        <ele>610.0</ele>
        <time>2014-10-02T11:02:47Z</time>
      </trkpt>
      <trkpt lat="42.6453370" lon="-7.1568960">
        <ele>608.4</ele>
        <time>2014-10-02T11:02:48Z</time>
      </trkpt>
      <trkpt lat="42.6454060" lon="-7.1568400">
        <ele>606.8</ele>
        <time>2014-10-02T11:02:49Z</time>
      </trkpt>
      <trkpt lat="42.6454700" lon="-7.1567780">
        <ele>605.4</ele>
        <time>2014-10-02T11:02:50Z</time>
      </trkpt>
      <trkpt lat="42.6455220" lon="-7.1567010">
        <ele>604.3</ele>
        <time>2014-10-02T11:02:51Z</time>
      </trkpt>
      <trkpt lat="42.6455500" lon="-7.1566220">
        <ele>604.3</ele>
        <time>2014-10-02T11:02:52Z</time>
      </trkpt>
      <trkpt lat="42.6455520" lon="-7.1565440">
        <ele>604.3</ele>
        <time>2014-10-02T11:02:53Z</time>
      </trkpt>
      <trkpt lat="42.6455380" lon="-7.1564670">
        <ele>604.4</ele>
        <time>2014-10-02T11:02:54Z</time>
      </trkpt>
      <trkpt lat="42.6455050" lon="-7.1564190">
        <ele>604.5</ele>
        <time>2014-10-02T11:02:55Z</time>
      </trkpt>
      <trkpt lat="42.6454720" lon="-7.1563740">
        <ele>604.6</ele>
        <time>2014-10-02T11:02:56Z</time>
      </trkpt>
      <trkpt lat="42.6454380" lon="-7.1563300">
        <ele>604.7</ele>
        <time>2014-10-02T11:02:57Z</time>
      </trkpt>
      <trkpt lat="42.6454040" lon="-7.1562850">
        <ele>604.8</ele>
        <time>2014-10-02T11:02:58Z</time>
      </trkpt>
      <trkpt lat="42.6453640" lon="-7.1562540">
        <ele>605.0</ele>
        <time>2014-10-02T11:02:59Z</time>
      </trkpt>
      <trkpt lat="42.6453310" lon="-7.1562230">
        <ele>605.2</ele>
        <time>2014-10-02T11:03:00Z</time>
      </trkpt>
      <trkpt lat="42.6453110" lon="-7.1561840">
        <ele>605.4</ele>
        <time>2014-10-02T11:03:01Z</time>
      </trkpt>
      <trkpt lat="42.6452770" lon="-7.1561440">
        <ele>605.7</ele>
        <time>2014-10-02T11:03:02Z</time>
      </trkpt>
      <trkpt lat="42.6452220" lon="-7.1561280">
        <ele>606.1</ele>
        <time>2014-10-02T11:03:03Z</time>
      </trkpt>
      <trkpt lat="42.6451760" lon="-7.1561130">
        <ele>606.5</ele>
        <time>2014-10-02T11:03:04Z</time>
      </trkpt>
      <trkpt lat="42.6451440" lon="-7.1560890">
        <ele>606.8</ele>
        <time>2014-10-02T11:03:05Z</time>
      </trkpt>
      <trkpt lat="42.6451160" lon="-7.1560720">
        <ele>607.0</ele>
        <time>2014-10-02T11:03:06Z</time>
      </trkpt>
      <trkpt lat="42.6450850" lon="-7.1560580">
        <ele>607.3</ele>
        <time>2014-10-02T11:03:07Z</time>
      </trkpt>
      <trkpt lat="42.6450540" lon="-7.1560480">
        <ele>607.5</ele>
        <time>2014-10-02T11:03:08Z</time>
      </trkpt>
      <trkpt lat="42.6450200" lon="-7.1560430">
        <ele>607.8</ele>
        <time>2014-10-02T11:03:09Z</time>
      </trkpt>
      <trkpt lat="42.6449880" lon="-7.1560430">
        <ele>608.0</ele>
        <time>2014-10-02T11:03:10Z</time>
      </trkpt>
      <trkpt lat="42.6449440" lon="-7.1560550">
        <ele>608.3</ele>
        <time>2014-10-02T11:03:11Z</time>
      </trkpt>
      <trkpt lat="42.6449030" lon="-7.1560680">
        <ele>608.6</ele>
        <time>2014-10-02T11:03:12Z</time>
      </trkpt>
      <trkpt lat="42.6448640" lon="-7.1560800">
        <ele>608.9</ele>
        <time>2014-10-02T11:03:13Z</time>
      </trkpt>
      <trkpt lat="42.6448260" lon="-7.1560940">
        <ele>609.2</ele>
        <time>2014-10-02T11:03:14Z</time>
      </trkpt>
      <trkpt lat="42.6447880" lon="-7.1561100">
        <ele>609.5</ele>
        <time>2014-10-02T11:03:15Z</time>
      </trkpt>
      <trkpt lat="42.6447550" lon="-7.1561260">
        <ele>609.8</ele>
        <time>2014-10-02T11:03:16Z</time>
      </trkpt>
      <trkpt lat="42.6447210" lon="-7.1561440">
        <ele>610.0</ele>
        <time>2014-10-02T11:03:17Z</time>
      </trkpt>
      <trkpt lat="42.6446890" lon="-7.1561600">
        <ele>610.3</ele>
        <time>2014-10-02T11:03:18Z</time>
      </trkpt>
      <trkpt lat="42.6446570" lon="-7.1561770">
        <ele>610.5</ele>
        <time>2014-10-02T11:03:19Z</time>
      </trkpt>
      <trkpt lat="42.6446300" lon="-7.1561940">
        <ele>610.7</ele>
        <time>2014-10-02T11:03:20Z</time>
      </trkpt>
      <trkpt lat="42.6445960" lon="-7.1562150">
        <ele>611.0</ele>
        <time>2014-10-02T11:03:21Z</time>
      </trkpt>
      <trkpt lat="42.6445720" lon="-7.1562310">
        <ele>611.2</ele>
        <time>2014-10-02T11:03:22Z</time>
      </trkpt>
      <trkpt lat="42.6445380" lon="-7.1562470">
        <ele>611.5</ele>
        <time>2014-10-02T11:03:23Z</time>
      </trkpt>
      <trkpt lat="42.6445070" lon="-7.1562600">
        <ele>611.8</ele>
        <time>2014-10-02T11:03:24Z</time>
      </trkpt>
      <trkpt lat="42.6444630" lon="-7.1562570">
        <ele>612.1</ele>
        <time>2014-10-02T11:03:26Z</time>
      </trkpt>
      <trkpt lat="42.6444210" lon="-7.1562600">
        <ele>612.4</ele>
        <time>2014-10-02T11:03:28Z</time>
      </trkpt>
      <trkpt lat="42.6443730" lon="-7.1562520">
        <ele>612.7</ele>
        <time>2014-10-02T11:03:30Z</time>
      </trkpt>
      <trkpt lat="42.6443330" lon="-7.1562240">
        <ele>612.9</ele>
        <time>2014-10-02T11:03:32Z</time>
      </trkpt>
      <trkpt lat="42.6442670" lon="-7.1561650">
        <ele>613.3</ele>
        <time>2014-10-02T11:03:35Z</time>
      </trkpt>
      <trkpt lat="42.6442020" lon="-7.1561240">
        <ele>613.6</ele>
        <time>2014-10-02T11:03:38Z</time>
      </trkpt>
      <trkpt lat="42.6441730" lon="-7.1561070">
        <ele>613.7</ele>
        <time>2014-10-02T11:03:39Z</time>
      </trkpt>
      <trkpt lat="42.6441490" lon="-7.1560870">
        <ele>613.8</ele>
        <time>2014-10-02T11:03:40Z</time>
      </trkpt>
      <trkpt lat="42.6440690" lon="-7.1560100">
        <ele>614.2</ele>
        <time>2014-10-02T11:03:44Z</time>
      </trkpt>
      <trkpt lat="42.6439690" lon="-7.1559510">
        <ele>614.8</ele>
        <time>2014-10-02T11:03:48Z</time>
      </trkpt>
      <trkpt lat="42.6439430" lon="-7.1559380">
        <ele>614.9</ele>
        <time>2014-10-02T11:03:49Z</time>
      </trkpt>
      <trkpt lat="42.6439080" lon="-7.1559250">
        <ele>615.1</ele>
        <time>2014-10-02T11:03:50Z</time>
      </trkpt>
      <trkpt lat="42.6438730" lon="-7.1559150">
        <ele>615.3</ele>
        <time>2014-10-02T11:03:51Z</time>
      </trkpt>
      <trkpt lat="42.6438420" lon="-7.1559050">
        <ele>615.4</ele>
        <time>2014-10-02T11:03:52Z</time>
      </trkpt>
      <trkpt lat="42.6438000" lon="-7.1559000">
        <ele>615.6</ele>
        <time>2014-10-02T11:03:53Z</time>
      </trkpt>
      <trkpt lat="42.6437470" lon="-7.1558790">
        <ele>615.9</ele>
        <time>2014-10-02T11:03:55Z</time>
      </trkpt>
      <trkpt lat="42.6436670" lon="-7.1558170">
        <ele>616.5</ele>
        <time>2014-10-02T11:03:58Z</time>
      </trkpt>
      <trkpt lat="42.6435650" lon="-7.1557420">
        <ele>617.0</ele>
        <time>2014-10-02T11:04:02Z</time>
      </trkpt>
      <trkpt lat="42.6435360" lon="-7.1557300">
        <ele>617.2</ele>
        <time>2014-10-02T11:04:03Z</time>
      </trkpt>
      <trkpt lat="42.6434680" lon="-7.1556770">
        <ele>617.5</ele>
        <time>2014-10-02T11:04:06Z</time>
      </trkpt>
      <trkpt lat="42.6434340" lon="-7.1556610">
        <ele>617.7</ele>
        <time>2014-10-02T11:04:07Z</time>
      </trkpt>
      <trkpt lat="42.6433670" lon="-7.1556250">
        <ele>618.0</ele>
        <time>2014-10-02T11:04:09Z</time>
      </trkpt>
      <trkpt lat="42.6433230" lon="-7.1556020">
        <ele>618.2</ele>
        <time>2014-10-02T11:04:10Z</time>
      </trkpt>
      <trkpt lat="42.6432800" lon="-7.1555610">
        <ele>618.5</ele>
        <time>2014-10-02T11:04:11Z</time>
      </trkpt>
      <trkpt lat="42.6432370" lon="-7.1555120">
        <ele>618.7</ele>
        <time>2014-10-02T11:04:12Z</time>
      </trkpt>
      <trkpt lat="42.6432080" lon="-7.1554800">
        <ele>618.8</ele>
        <time>2014-10-02T11:04:13Z</time>
      </trkpt>
      <trkpt lat="42.6431650" lon="-7.1554630">
        <ele>619.0</ele>
        <time>2014-10-02T11:04:14Z</time>
      </trkpt>
      <trkpt lat="42.6431200" lon="-7.1554450">
        <ele>619.1</ele>
        <time>2014-10-02T11:04:15Z</time>
      </trkpt>
      <trkpt lat="42.6430880" lon="-7.1554290">
        <ele>619.2</ele>
        <time>2014-10-02T11:04:16Z</time>
      </trkpt>
      <trkpt lat="42.6430060" lon="-7.1553760">
        <ele>619.5</ele>
        <time>2014-10-02T11:04:18Z</time>
      </trkpt>
      <trkpt lat="42.6429670" lon="-7.1553550">
        <ele>619.6</ele>
        <time>2014-10-02T11:04:19Z</time>
      </trkpt>
      <trkpt lat="42.6429300" lon="-7.1553210">
        <ele>619.8</ele>
        <time>2014-10-02T11:04:20Z</time>
      </trkpt>
      <trkpt lat="42.6428980" lon="-7.1552800">
        <ele>619.9</ele>
        <time>2014-10-02T11:04:21Z</time>
      </trkpt>
      <trkpt lat="42.6428570" lon="-7.1552540">
        <ele>620.1</ele>
        <time>2014-10-02T11:04:22Z</time>
      </trkpt>
      <trkpt lat="42.6428160" lon="-7.1552250">
        <ele>620.3</ele>
        <time>2014-10-02T11:04:23Z</time>
      </trkpt>
      <trkpt lat="42.6427890" lon="-7.1551870">
        <ele>620.5</ele>
        <time>2014-10-02T11:04:24Z</time>
      </trkpt>
      <trkpt lat="42.6427550" lon="-7.1551540">
        <ele>620.6</ele>
        <time>2014-10-02T11:04:25Z</time>
      </trkpt>
      <trkpt lat="42.6427190" lon="-7.1551190">
        <ele>620.8</ele>
        <time>2014-10-02T11:04:26Z</time>
      </trkpt>
      <trkpt lat="42.6426780" lon="-7.1550990">
        <ele>621.0</ele>
        <time>2014-10-02T11:04:27Z</time>
      </trkpt>
      <trkpt lat="42.6426450" lon="-7.1550790">
        <ele>621.1</ele>
        <time>2014-10-02T11:04:28Z</time>
      </trkpt>
      <trkpt lat="42.6426200" lon="-7.1550500">
        <ele>621.3</ele>
        <time>2014-10-02T11:04:29Z</time>
      </trkpt>
      <trkpt lat="42.6425970" lon="-7.1550130">
        <ele>621.4</ele>
        <time>2014-10-02T11:04:30Z</time>
      </trkpt>
      <trkpt lat="42.6425740" lon="-7.1549780">
        <ele>621.5</ele>
        <time>2014-10-02T11:04:31Z</time>
      </trkpt>
      <trkpt lat="42.6425540" lon="-7.1549390">
        <ele>621.7</ele>
        <time>2014-10-02T11:04:32Z</time>
      </trkpt>
      <trkpt lat="42.6425330" lon="-7.1549000">
        <ele>621.8</ele>
        <time>2014-10-02T11:04:33Z</time>
      </trkpt>
      <trkpt lat="42.6425110" lon="-7.1548460">
        <ele>621.9</ele>
        <time>2014-10-02T11:04:34Z</time>
      </trkpt>
      <trkpt lat="42.6424910" lon="-7.1548020">
        <ele>622.0</ele>
        <time>2014-10-02T11:04:35Z</time>
      </trkpt>
      <trkpt lat="42.6424780" lon="-7.1547640">
        <ele>622.1</ele>
        <time>2014-10-02T11:04:36Z</time>
      </trkpt>
      <trkpt lat="42.6424650" lon="-7.1547310">
        <ele>622.2</ele>
        <time>2014-10-02T11:04:37Z</time>
      </trkpt>
      <trkpt lat="42.6424550" lon="-7.1546960">
        <ele>622.3</ele>
        <time>2014-10-02T11:04:38Z</time>
      </trkpt>
      <trkpt lat="42.6424460" lon="-7.1546620">
        <ele>622.4</ele>
        <time>2014-10-02T11:04:39Z</time>
      </trkpt>
      <trkpt lat="42.6424330" lon="-7.1546170">
        <ele>622.5</ele>
        <time>2014-10-02T11:04:40Z</time>
      </trkpt>
      <trkpt lat="42.6424210" lon="-7.1545810">
        <ele>622.6</ele>
        <time>2014-10-02T11:04:41Z</time>
      </trkpt>
      <trkpt lat="42.6424070" lon="-7.1545430">
        <ele>622.8</ele>
        <time>2014-10-02T11:04:42Z</time>
      </trkpt>
      <trkpt lat="42.6423850" lon="-7.1545170">
        <ele>622.9</ele>
        <time>2014-10-02T11:04:43Z</time>
      </trkpt>
      <trkpt lat="42.6423660" lon="-7.1544800">
        <ele>623.1</ele>
        <time>2014-10-02T11:04:44Z</time>
      </trkpt>
      <trkpt lat="42.6423430" lon="-7.1544370">
        <ele>623.2</ele>
        <time>2014-10-02T11:04:45Z</time>
      </trkpt>
      <trkpt lat="42.6423220" lon="-7.1544060">
        <ele>623.4</ele>
        <time>2014-10-02T11:04:46Z</time>
      </trkpt>
      <trkpt lat="42.6423040" lon="-7.1543660">
        <ele>623.5</ele>
        <time>2014-10-02T11:04:47Z</time>
      </trkpt>
      <trkpt lat="42.6422840" lon="-7.1543350">
        <ele>623.6</ele>
        <time>2014-10-02T11:04:48Z</time>
      </trkpt>
      <trkpt lat="42.6422630" lon="-7.1543070">
        <ele>623.7</ele>
        <time>2014-10-02T11:04:49Z</time>
      </trkpt>
      <trkpt lat="42.6422340" lon="-7.1542880">
        <ele>623.8</ele>
        <time>2014-10-02T11:04:50Z</time>
      </trkpt>
      <trkpt lat="42.6422080" lon="-7.1542660">
        <ele>623.9</ele>
        <time>2014-10-02T11:04:51Z</time>
      </trkpt>
      <trkpt lat="42.6421930" lon="-7.1542320">
        <ele>624.0</ele>
        <time>2014-10-02T11:04:52Z</time>
      </trkpt>
      <trkpt lat="42.6421770" lon="-7.1541970">
        <ele>624.1</ele>
        <time>2014-10-02T11:04:53Z</time>
      </trkpt>
      <trkpt lat="42.6421590" lon="-7.1541600">
        <ele>624.2</ele>
        <time>2014-10-02T11:04:54Z</time>
      </trkpt>
      <trkpt lat="42.6421300" lon="-7.1541320">
        <ele>624.3</ele>
        <time>2014-10-02T11:04:55Z</time>
      </trkpt>
      <trkpt lat="42.6421110" lon="-7.1540940">
        <ele>624.5</ele>
        <time>2014-10-02T11:04:56Z</time>
      </trkpt>
      <trkpt lat="42.6420910" lon="-7.1540570">
        <ele>624.5</ele>
        <time>2014-10-02T11:04:57Z</time>
      </trkpt>
      <trkpt lat="42.6420730" lon="-7.1540220">
        <ele>624.6</ele>
        <time>2014-10-02T11:04:58Z</time>
      </trkpt>
      <trkpt lat="42.6420530" lon="-7.1539880">
        <ele>624.7</ele>
        <time>2014-10-02T11:04:59Z</time>
      </trkpt>
      <trkpt lat="42.6420330" lon="-7.1539600">
        <ele>624.8</ele>
        <time>2014-10-02T11:05:00Z</time>
      </trkpt>
      <trkpt lat="42.6419960" lon="-7.1539140">
        <ele>624.9</ele>
        <time>2014-10-02T11:05:02Z</time>
      </trkpt>
      <trkpt lat="42.6419750" lon="-7.1538880">
        <ele>625.0</ele>
        <time>2014-10-02T11:05:03Z</time>
      </trkpt>
      <trkpt lat="42.6419520" lon="-7.1538620">
        <ele>625.1</ele>
        <time>2014-10-02T11:05:04Z</time>
      </trkpt>
      <trkpt lat="42.6419280" lon="-7.1538350">
        <ele>625.2</ele>
        <time>2014-10-02T11:05:05Z</time>
      </trkpt>
      <trkpt lat="42.6419020" lon="-7.1538040">
        <ele>625.3</ele>
        <time>2014-10-02T11:05:06Z</time>
      </trkpt>
      <trkpt lat="42.6418720" lon="-7.1537800">
        <ele>625.4</ele>
        <time>2014-10-02T11:05:07Z</time>
      </trkpt>
      <trkpt lat="42.6418410" lon="-7.1537450">
        <ele>625.6</ele>
        <time>2014-10-02T11:05:08Z</time>
      </trkpt>
      <trkpt lat="42.6418100" lon="-7.1537100">
        <ele>625.7</ele>
        <time>2014-10-02T11:05:09Z</time>
      </trkpt>
      <trkpt lat="42.6417800" lon="-7.1536830">
        <ele>625.9</ele>
        <time>2014-10-02T11:05:10Z</time>
      </trkpt>
      <trkpt lat="42.6417530" lon="-7.1536480">
        <ele>626.1</ele>
        <time>2014-10-02T11:05:11Z</time>
      </trkpt>
      <trkpt lat="42.6417270" lon="-7.1536120">
        <ele>626.3</ele>
        <time>2014-10-02T11:05:12Z</time>
      </trkpt>
      <trkpt lat="42.6417010" lon="-7.1535790">
        <ele>626.5</ele>
        <time>2014-10-02T11:05:13Z</time>
      </trkpt>
      <trkpt lat="42.6416670" lon="-7.1535570">
        <ele>626.6</ele>
        <time>2014-10-02T11:05:14Z</time>
      </trkpt>
      <trkpt lat="42.6416460" lon="-7.1535250">
        <ele>626.8</ele>
        <time>2014-10-02T11:05:15Z</time>
      </trkpt>
      <trkpt lat="42.6416230" lon="-7.1534930">
        <ele>627.3</ele>
        <time>2014-10-02T11:05:16Z</time>
      </trkpt>
      <trkpt lat="42.6416050" lon="-7.1534620">
        <ele>627.8</ele>
        <time>2014-10-02T11:05:17Z</time>
      </trkpt>
      <trkpt lat="42.6415870" lon="-7.1534300">
        <ele>628.3</ele>
        <time>2014-10-02T11:05:18Z</time>
      </trkpt>
      <trkpt lat="42.6415760" lon="-7.1533970">
        <ele>628.7</ele>
        <time>2014-10-02T11:05:19Z</time>
      </trkpt>
      <trkpt lat="42.6415620" lon="-7.1533570">
        <ele>629.3</ele>
        <time>2014-10-02T11:05:20Z</time>
      </trkpt>
      <trkpt lat="42.6415490" lon="-7.1533210">
        <ele>629.8</ele>
        <time>2014-10-02T11:05:21Z</time>
      </trkpt>
      <trkpt lat="42.6415310" lon="-7.1532790">
        <ele>630.4</ele>
        <time>2014-10-02T11:05:22Z</time>
      </trkpt>
      <trkpt lat="42.6415140" lon="-7.1532430">
        <ele>630.9</ele>
        <time>2014-10-02T11:05:23Z</time>
      </trkpt>
      <trkpt lat="42.6414970" lon="-7.1532040">
        <ele>631.5</ele>
        <time>2014-10-02T11:05:24Z</time>
      </trkpt>
      <trkpt lat="42.6414780" lon="-7.1531580">
        <ele>632.1</ele>
        <time>2014-10-02T11:05:25Z</time>
      </trkpt>
      <trkpt lat="42.6414610" lon="-7.1531180">
        <ele>632.7</ele>
        <time>2014-10-02T11:05:26Z</time>
      </trkpt>
      <trkpt lat="42.6414410" lon="-7.1530670">
        <ele>633.3</ele>
        <time>2014-10-02T11:05:27Z</time>
      </trkpt>
      <trkpt lat="42.6414310" lon="-7.1530090">
        <ele>634.0</ele>
        <time>2014-10-02T11:05:28Z</time>
      </trkpt>
      <trkpt lat="42.6414220" lon="-7.1529490">
        <ele>634.6</ele>
        <time>2014-10-02T11:05:29Z</time>
      </trkpt>
      <trkpt lat="42.6414160" lon="-7.1528950">
        <ele>635.2</ele>
        <time>2014-10-02T11:05:30Z</time>
      </trkpt>
      <trkpt lat="42.6414080" lon="-7.1528410">
        <ele>635.7</ele>
        <time>2014-10-02T11:05:31Z</time>
      </trkpt>
      <trkpt lat="42.6414000" lon="-7.1527860">
        <ele>636.3</ele>
        <time>2014-10-02T11:05:32Z</time>
      </trkpt>
      <trkpt lat="42.6413920" lon="-7.1527310">
        <ele>636.9</ele>
        <time>2014-10-02T11:05:33Z</time>
      </trkpt>
      <trkpt lat="42.6413730" lon="-7.1526800">
        <ele>637.3</ele>
        <time>2014-10-02T11:05:34Z</time>
      </trkpt>
      <trkpt lat="42.6413510" lon="-7.1526300">
        <ele>637.6</ele>
        <time>2014-10-02T11:05:35Z</time>
      </trkpt>
      <trkpt lat="42.6413250" lon="-7.1525850">
        <ele>637.8</ele>
        <time>2014-10-02T11:05:36Z</time>
      </trkpt>
      <trkpt lat="42.6412920" lon="-7.1525460">
        <ele>638.1</ele>
        <time>2014-10-02T11:05:37Z</time>
      </trkpt>
      <trkpt lat="42.6412630" lon="-7.1525150">
        <ele>638.3</ele>
        <time>2014-10-02T11:05:38Z</time>
      </trkpt>
      <trkpt lat="42.6412330" lon="-7.1524820">
        <ele>638.5</ele>
        <time>2014-10-02T11:05:39Z</time>
      </trkpt>
      <trkpt lat="42.6412050" lon="-7.1524530">
        <ele>638.7</ele>
        <time>2014-10-02T11:05:40Z</time>
      </trkpt>
      <trkpt lat="42.6411750" lon="-7.1524240">
        <ele>638.8</ele>
        <time>2014-10-02T11:05:41Z</time>
      </trkpt>
      <trkpt lat="42.6411450" lon="-7.1523930">
        <ele>639.1</ele>
        <time>2014-10-02T11:05:42Z</time>
      </trkpt>
      <trkpt lat="42.6411120" lon="-7.1523570">
        <ele>639.4</ele>
        <time>2014-10-02T11:05:43Z</time>
      </trkpt>
      <trkpt lat="42.6410790" lon="-7.1523200">
        <ele>639.7</ele>
        <time>2014-10-02T11:05:44Z</time>
      </trkpt>
      <trkpt lat="42.6410460" lon="-7.1522870">
        <ele>639.9</ele>
        <time>2014-10-02T11:05:45Z</time>
      </trkpt>
      <trkpt lat="42.6410160" lon="-7.1522570">
        <ele>640.1</ele>
        <time>2014-10-02T11:05:46Z</time>
      </trkpt>
      <trkpt lat="42.6409830" lon="-7.1522260">
        <ele>640.2</ele>
        <time>2014-10-02T11:05:47Z</time>
      </trkpt>
      <trkpt lat="42.6409500" lon="-7.1521930">
        <ele>640.3</ele>
        <time>2014-10-02T11:05:48Z</time>
      </trkpt>
      <trkpt lat="42.6409090" lon="-7.1521590">
        <ele>640.3</ele>
        <time>2014-10-02T11:05:49Z</time>
      </trkpt>
      <trkpt lat="42.6408650" lon="-7.1521190">
        <ele>640.3</ele>
        <time>2014-10-02T11:05:50Z</time>
      </trkpt>
      <trkpt lat="42.6408170" lon="-7.1520720">
        <ele>640.2</ele>
        <time>2014-10-02T11:05:51Z</time>
      </trkpt>
      <trkpt lat="42.6407620" lon="-7.1520150">
        <ele>640.2</ele>
        <time>2014-10-02T11:05:52Z</time>
      </trkpt>
      <trkpt lat="42.6407020" lon="-7.1519500">
        <ele>640.1</ele>
        <time>2014-10-02T11:05:53Z</time>
      </trkpt>
      <trkpt lat="42.6406420" lon="-7.1518810">
        <ele>640.1</ele>
        <time>2014-10-02T11:05:54Z</time>
      </trkpt>
      <trkpt lat="42.6405820" lon="-7.1517980">
        <ele>640.1</ele>
        <time>2014-10-02T11:05:55Z</time>
      </trkpt>
      <trkpt lat="42.6405320" lon="-7.1517210">
        <ele>640.3</ele>
        <time>2014-10-02T11:05:56Z</time>
      </trkpt>
      <trkpt lat="42.6404780" lon="-7.1516420">
        <ele>640.4</ele>
        <time>2014-10-02T11:05:57Z</time>
      </trkpt>
      <trkpt lat="42.6404130" lon="-7.1515600">
        <ele>640.6</ele>
        <time>2014-10-02T11:05:58Z</time>
      </trkpt>
      <trkpt lat="42.6403480" lon="-7.1514700">
        <ele>640.9</ele>
        <time>2014-10-02T11:05:59Z</time>
      </trkpt>
      <trkpt lat="42.6402960" lon="-7.1513970">
        <ele>640.6</ele>
        <time>2014-10-02T11:06:00Z</time>
      </trkpt>
      <trkpt lat="42.6402510" lon="-7.1513340">
        <ele>639.5</ele>
        <time>2014-10-02T11:06:01Z</time>
      </trkpt>
      <trkpt lat="42.6402100" lon="-7.1512790">
        <ele>639.6</ele>
        <time>2014-10-02T11:06:02Z</time>
      </trkpt>
      <trkpt lat="42.6401770" lon="-7.1512340">
        <ele>639.6</ele>
        <time>2014-10-02T11:06:03Z</time>
      </trkpt>
      <trkpt lat="42.6401420" lon="-7.1511900">
        <ele>639.7</ele>
        <time>2014-10-02T11:06:04Z</time>
      </trkpt>
      <trkpt lat="42.6400820" lon="-7.1511770">
        <ele>639.8</ele>
        <time>2014-10-02T11:06:05Z</time>
      </trkpt>
      <trkpt lat="42.6400240" lon="-7.1511610">
        <ele>639.9</ele>
        <time>2014-10-02T11:06:06Z</time>
      </trkpt>
      <trkpt lat="42.6399680" lon="-7.1511460">
        <ele>640.0</ele>
        <time>2014-10-02T11:06:07Z</time>
      </trkpt>
      <trkpt lat="42.6399140" lon="-7.1511250">
        <ele>640.1</ele>
        <time>2014-10-02T11:06:08Z</time>
      </trkpt>
      <trkpt lat="42.6398610" lon="-7.1510990">
        <ele>640.3</ele>
        <time>2014-10-02T11:06:09Z</time>
      </trkpt>
      <trkpt lat="42.6398180" lon="-7.1510750">
        <ele>640.5</ele>
        <time>2014-10-02T11:06:10Z</time>
      </trkpt>
      <trkpt lat="42.6397710" lon="-7.1510490">
        <ele>640.7</ele>
        <time>2014-10-02T11:06:11Z</time>
      </trkpt>
      <trkpt lat="42.6397160" lon="-7.1510210">
        <ele>640.9</ele>
        <time>2014-10-02T11:06:12Z</time>
      </trkpt>
      <trkpt lat="42.6396750" lon="-7.1509880">
        <ele>641.2</ele>
        <time>2014-10-02T11:06:13Z</time>
      </trkpt>
      <trkpt lat="42.6396280" lon="-7.1509510">
        <ele>641.4</ele>
        <time>2014-10-02T11:06:14Z</time>
      </trkpt>
      <trkpt lat="42.6395940" lon="-7.1509030">
        <ele>641.6</ele>
        <time>2014-10-02T11:06:15Z</time>
      </trkpt>
      <trkpt lat="42.6395580" lon="-7.1508580">
        <ele>641.8</ele>
        <time>2014-10-02T11:06:16Z</time>
      </trkpt>
      <trkpt lat="42.6395220" lon="-7.1508070">
        <ele>642.1</ele>
        <time>2014-10-02T11:06:17Z</time>
      </trkpt>
      <trkpt lat="42.6394780" lon="-7.1507530">
        <ele>642.4</ele>
        <time>2014-10-02T11:06:18Z</time>
      </trkpt>
      <trkpt lat="42.6394450" lon="-7.1507120">
        <ele>642.6</ele>
        <time>2014-10-02T11:06:19Z</time>
      </trkpt>
      <trkpt lat="42.6394130" lon="-7.1506760">
        <ele>642.8</ele>
        <time>2014-10-02T11:06:20Z</time>
      </trkpt>
      <trkpt lat="42.6393780" lon="-7.1506390">
        <ele>643.1</ele>
        <time>2014-10-02T11:06:21Z</time>
      </trkpt>
      <trkpt lat="42.6393430" lon="-7.1506020">
        <ele>643.4</ele>
        <time>2014-10-02T11:06:22Z</time>
      </trkpt>
      <trkpt lat="42.6393110" lon="-7.1505660">
        <ele>643.6</ele>
        <time>2014-10-02T11:06:23Z</time>
      </trkpt>
      <trkpt lat="42.6392840" lon="-7.1505360">
        <ele>643.8</ele>
        <time>2014-10-02T11:06:24Z</time>
      </trkpt>
      <trkpt lat="42.6392620" lon="-7.1504810">
        <ele>643.8</ele>
        <time>2014-10-02T11:06:26Z</time>
      </trkpt>
      <trkpt lat="42.6392330" lon="-7.1504520">
        <ele>643.7</ele>
        <time>2014-10-02T11:06:28Z</time>
      </trkpt>
      <trkpt lat="42.6391960" lon="-7.1504160">
        <ele>643.7</ele>
        <time>2014-10-02T11:06:30Z</time>
      </trkpt>
      <trkpt lat="42.6391410" lon="-7.1503470">
        <ele>643.5</ele>
        <time>2014-10-02T11:06:34Z</time>
      </trkpt>
      <trkpt lat="42.6391170" lon="-7.1503260">
        <ele>643.4</ele>
        <time>2014-10-02T11:06:35Z</time>
      </trkpt>
      <trkpt lat="42.6390900" lon="-7.1503070">
        <ele>643.9</ele>
        <time>2014-10-02T11:06:36Z</time>
      </trkpt>
      <trkpt lat="42.6390670" lon="-7.1502860">
        <ele>644.3</ele>
        <time>2014-10-02T11:06:37Z</time>
      </trkpt>
      <trkpt lat="42.6390180" lon="-7.1502600">
        <ele>645.2</ele>
        <time>2014-10-02T11:06:39Z</time>
      </trkpt>
      <trkpt lat="42.6389930" lon="-7.1502450">
        <ele>645.6</ele>
        <time>2014-10-02T11:06:40Z</time>
      </trkpt>
      <trkpt lat="42.6389620" lon="-7.1502260">
        <ele>646.0</ele>
        <time>2014-10-02T11:06:41Z</time>
      </trkpt>
      <trkpt lat="42.6389290" lon="-7.1502110">
        <ele>646.5</ele>
        <time>2014-10-02T11:06:42Z</time>
      </trkpt>
      <trkpt lat="42.6388950" lon="-7.1501940">
        <ele>647.0</ele>
        <time>2014-10-02T11:06:43Z</time>
      </trkpt>
      <trkpt lat="42.6388620" lon="-7.1501760">
        <ele>647.4</ele>
        <time>2014-10-02T11:06:44Z</time>
      </trkpt>
      <trkpt lat="42.6388320" lon="-7.1501530">
        <ele>647.9</ele>
        <time>2014-10-02T11:06:45Z</time>
      </trkpt>
      <trkpt lat="42.6387980" lon="-7.1501210">
        <ele>648.4</ele>
        <time>2014-10-02T11:06:46Z</time>
      </trkpt>
      <trkpt lat="42.6387740" lon="-7.1500990">
        <ele>648.8</ele>
        <time>2014-10-02T11:06:47Z</time>
      </trkpt>
      <trkpt lat="42.6387510" lon="-7.1500740">
        <ele>649.1</ele>
        <time>2014-10-02T11:06:48Z</time>
      </trkpt>
      <trkpt lat="42.6387280" lon="-7.1500390">
        <ele>649.6</ele>
        <time>2014-10-02T11:06:49Z</time>
      </trkpt>
      <trkpt lat="42.6387120" lon="-7.1500080">
        <ele>650.0</ele>
        <time>2014-10-02T11:06:50Z</time>
      </trkpt>
      <trkpt lat="42.6386960" lon="-7.1499760">
        <ele>650.4</ele>
        <time>2014-10-02T11:06:51Z</time>
      </trkpt>
      <trkpt lat="42.6386790" lon="-7.1499360">
        <ele>650.9</ele>
        <time>2014-10-02T11:06:52Z</time>
      </trkpt>
      <trkpt lat="42.6386670" lon="-7.1499030">
        <ele>651.3</ele>
        <time>2014-10-02T11:06:53Z</time>
      </trkpt>
      <trkpt lat="42.6386620" lon="-7.1498590">
        <ele>651.8</ele>
        <time>2014-10-02T11:06:54Z</time>
      </trkpt>
      <trkpt lat="42.6386540" lon="-7.1497900">
        <ele>652.6</ele>
        <time>2014-10-02T11:06:56Z</time>
      </trkpt>
      <trkpt lat="42.6386420" lon="-7.1497250">
        <ele>653.3</ele>
        <time>2014-10-02T11:06:58Z</time>
      </trkpt>
      <trkpt lat="42.6386280" lon="-7.1496500">
        <ele>654.2</ele>
        <time>2014-10-02T11:07:00Z</time>
      </trkpt>
      <trkpt lat="42.6386120" lon="-7.1495780">
        <ele>655.0</ele>
        <time>2014-10-02T11:07:02Z</time>
      </trkpt>
      <trkpt lat="42.6385980" lon="-7.1495130">
        <ele>655.8</ele>
        <time>2014-10-02T11:07:04Z</time>
      </trkpt>
      <trkpt lat="42.6385890" lon="-7.1494670">
        <ele>656.3</ele>
        <time>2014-10-02T11:07:06Z</time>
      </trkpt>
      <trkpt lat="42.6386100" lon="-7.1494440">
        <ele>656.7</ele>
        <time>2014-10-02T11:07:08Z</time>
      </trkpt>
      <trkpt lat="42.6386240" lon="-7.1494930">
        <ele>657.3</ele>
        <time>2014-10-02T11:07:10Z</time>
      </trkpt>
      <trkpt lat="42.6386260" lon="-7.1495310">
        <ele>657.7</ele>
        <time>2014-10-02T11:07:11Z</time>
      </trkpt>
      <trkpt lat="42.6386220" lon="-7.1495820">
        <ele>657.0</ele>
        <time>2014-10-02T11:07:12Z</time>
      </trkpt>
      <trkpt lat="42.6386410" lon="-7.1496230">
        <ele>656.3</ele>
        <time>2014-10-02T11:07:13Z</time>
      </trkpt>
      <trkpt lat="42.6386500" lon="-7.1496900">
        <ele>655.4</ele>
        <time>2014-10-02T11:07:14Z</time>
      </trkpt>
      <trkpt lat="42.6386720" lon="-7.1497580">
        <ele>654.4</ele>
        <time>2014-10-02T11:07:15Z</time>
      </trkpt>
      <trkpt lat="42.6386990" lon="-7.1498390">
        <ele>653.1</ele>
        <time>2014-10-02T11:07:16Z</time>
      </trkpt>
      <trkpt lat="42.6387290" lon="-7.1499170">
        <ele>651.9</ele>
        <time>2014-10-02T11:07:17Z</time>
      </trkpt>
      <trkpt lat="42.6387620" lon="-7.1499890">
        <ele>650.8</ele>
        <time>2014-10-02T11:07:18Z</time>
      </trkpt>
      <trkpt lat="42.6387920" lon="-7.1500480">
        <ele>649.8</ele>
        <time>2014-10-02T11:07:19Z</time>
      </trkpt>
      <trkpt lat="42.6388260" lon="-7.1501140">
        <ele>648.9</ele>
        <time>2014-10-02T11:07:20Z</time>
      </trkpt>
      <trkpt lat="42.6388720" lon="-7.1501620">
        <ele>648.0</ele>
        <time>2014-10-02T11:07:21Z</time>
      </trkpt>
      <trkpt lat="42.6389140" lon="-7.1502100">
        <ele>647.2</ele>
        <time>2014-10-02T11:07:22Z</time>
      </trkpt>
      <trkpt lat="42.6389560" lon="-7.1502600">
        <ele>646.2</ele>
        <time>2014-10-02T11:07:23Z</time>
      </trkpt>
      <trkpt lat="42.6389930" lon="-7.1502980">
        <ele>645.4</ele>
        <time>2014-10-02T11:07:24Z</time>
      </trkpt>
      <trkpt lat="42.6390190" lon="-7.1503480">
        <ele>643.0</ele>
        <time>2014-10-02T11:07:25Z</time>
      </trkpt>
      <trkpt lat="42.6390200" lon="-7.1503990">
        <ele>642.7</ele>
        <time>2014-10-02T11:07:26Z</time>
      </trkpt>
      <trkpt lat="42.6389990" lon="-7.1504440">
        <ele>642.4</ele>
        <time>2014-10-02T11:07:27Z</time>
      </trkpt>
      <trkpt lat="42.6389710" lon="-7.1504570">
        <ele>642.1</ele>
        <time>2014-10-02T11:07:28Z</time>
      </trkpt>
      <trkpt lat="42.6389390" lon="-7.1504520">
        <ele>641.7</ele>
        <time>2014-10-02T11:07:29Z</time>
      </trkpt>
      <trkpt lat="42.6389070" lon="-7.1504470">
        <ele>641.3</ele>
        <time>2014-10-02T11:07:30Z</time>
      </trkpt>
      <trkpt lat="42.6388600" lon="-7.1504410">
        <ele>640.7</ele>
        <time>2014-10-02T11:07:31Z</time>
      </trkpt>
      <trkpt lat="42.6387860" lon="-7.1504310">
        <ele>639.8</ele>
        <time>2014-10-02T11:07:32Z</time>
      </trkpt>
      <trkpt lat="42.6387050" lon="-7.1504170">
        <ele>638.8</ele>
        <time>2014-10-02T11:07:33Z</time>
      </trkpt>
      <trkpt lat="42.6386190" lon="-7.1503730">
        <ele>637.6</ele>
        <time>2014-10-02T11:07:34Z</time>
      </trkpt>
      <trkpt lat="42.6385300" lon="-7.1503270">
        <ele>636.4</ele>
        <time>2014-10-02T11:07:35Z</time>
      </trkpt>
      <trkpt lat="42.6384460" lon="-7.1502780">
        <ele>635.3</ele>
        <time>2014-10-02T11:07:36Z</time>
      </trkpt>
      <trkpt lat="42.6383770" lon="-7.1502090">
        <ele>634.5</ele>
        <time>2014-10-02T11:07:37Z</time>
      </trkpt>
      <trkpt lat="42.6383120" lon="-7.1501330">
        <ele>633.6</ele>
        <time>2014-10-02T11:07:38Z</time>
      </trkpt>
      <trkpt lat="42.6382570" lon="-7.1500390">
        <ele>632.7</ele>
        <time>2014-10-02T11:07:39Z</time>
      </trkpt>
      <trkpt lat="42.6382050" lon="-7.1499260">
        <ele>632.9</ele>
        <time>2014-10-02T11:07:40Z</time>
      </trkpt>
      <trkpt lat="42.6381570" lon="-7.1498080">
        <ele>634.0</ele>
        <time>2014-10-02T11:07:41Z</time>
      </trkpt>
      <trkpt lat="42.6381350" lon="-7.1496600">
        <ele>634.9</ele>
        <time>2014-10-02T11:07:42Z</time>
      </trkpt>
      <trkpt lat="42.6381250" lon="-7.1495140">
        <ele>635.6</ele>
        <time>2014-10-02T11:07:43Z</time>
      </trkpt>
      <trkpt lat="42.6381500" lon="-7.1493460">
        <ele>636.3</ele>
        <time>2014-10-02T11:07:44Z</time>
      </trkpt>
      <trkpt lat="42.6381820" lon="-7.1491790">
        <ele>636.5</ele>
        <time>2014-10-02T11:07:45Z</time>
      </trkpt>
      <trkpt lat="42.6382150" lon="-7.1490190">
        <ele>635.7</ele>
        <time>2014-10-02T11:07:46Z</time>
      </trkpt>
      <trkpt lat="42.6382450" lon="-7.1488780">
        <ele>634.9</ele>
        <time>2014-10-02T11:07:47Z</time>
      </trkpt>
      <trkpt lat="42.6382480" lon="-7.1487310">
        <ele>634.1</ele>
        <time>2014-10-02T11:07:48Z</time>
      </trkpt>
      <trkpt lat="42.6382450" lon="-7.1485850">
        <ele>633.2</ele>
        <time>2014-10-02T11:07:49Z</time>
      </trkpt>
      <trkpt lat="42.6382410" lon="-7.1484330">
        <ele>632.5</ele>
        <time>2014-10-02T11:07:50Z</time>
      </trkpt>
      <trkpt lat="42.6382320" lon="-7.1482860">
        <ele>631.7</ele>
        <time>2014-10-02T11:07:51Z</time>
      </trkpt>
      <trkpt lat="42.6382180" lon="-7.1481500">
        <ele>630.9</ele>
        <time>2014-10-02T11:07:52Z</time>
      </trkpt>
      <trkpt lat="42.6382010" lon="-7.1480090">
        <ele>630.0</ele>
        <time>2014-10-02T11:07:53Z</time>
      </trkpt>
      <trkpt lat="42.6381660" lon="-7.1478680">
        <ele>629.1</ele>
        <time>2014-10-02T11:07:54Z</time>
      </trkpt>
      <trkpt lat="42.6381220" lon="-7.1477290">
        <ele>628.5</ele>
        <time>2014-10-02T11:07:55Z</time>
      </trkpt>
      <trkpt lat="42.6380770" lon="-7.1475810">
        <ele>627.9</ele>
        <time>2014-10-02T11:07:56Z</time>
      </trkpt>
      <trkpt lat="42.6380290" lon="-7.1474340">
        <ele>627.4</ele>
        <time>2014-10-02T11:07:57Z</time>
      </trkpt>
      <trkpt lat="42.6379900" lon="-7.1472860">
        <ele>627.1</ele>
        <time>2014-10-02T11:07:58Z</time>
      </trkpt>
      <trkpt lat="42.6379490" lon="-7.1471460">
        <ele>627.0</ele>
        <time>2014-10-02T11:07:59Z</time>
      </trkpt>
      <trkpt lat="42.6379170" lon="-7.1470110">
        <ele>627.2</ele>
        <time>2014-10-02T11:08:00Z</time>
      </trkpt>
      <trkpt lat="42.6378810" lon="-7.1468950">
        <ele>627.5</ele>
        <time>2014-10-02T11:08:01Z</time>
      </trkpt>
      <trkpt lat="42.6378460" lon="-7.1467780">
        <ele>627.7</ele>
        <time>2014-10-02T11:08:02Z</time>
      </trkpt>
      <trkpt lat="42.6378020" lon="-7.1467010">
        <ele>627.9</ele>
        <time>2014-10-02T11:08:03Z</time>
      </trkpt>
      <trkpt lat="42.6377570" lon="-7.1466290">
        <ele>628.1</ele>
        <time>2014-10-02T11:08:04Z</time>
      </trkpt>
      <trkpt lat="42.6376900" lon="-7.1465390">
        <ele>628.3</ele>
        <time>2014-10-02T11:08:05Z</time>
      </trkpt>
      <trkpt lat="42.6376340" lon="-7.1464370">
        <ele>628.7</ele>
        <time>2014-10-02T11:08:06Z</time>
      </trkpt>
      <trkpt lat="42.6376190" lon="-7.1462980">
        <ele>629.3</ele>
        <time>2014-10-02T11:08:07Z</time>
      </trkpt>
      <trkpt lat="42.6376080" lon="-7.1461740">
        <ele>629.8</ele>
        <time>2014-10-02T11:08:08Z</time>
      </trkpt>
      <trkpt lat="42.6375950" lon="-7.1460710">
        <ele>630.2</ele>
        <time>2014-10-02T11:08:09Z</time>
      </trkpt>
      <trkpt lat="42.6375870" lon="-7.1459790">
        <ele>630.6</ele>
        <time>2014-10-02T11:08:10Z</time>
      </trkpt>
      <trkpt lat="42.6375740" lon="-7.1458970">
        <ele>630.9</ele>
        <time>2014-10-02T11:08:11Z</time>
      </trkpt>
      <trkpt lat="42.6375740" lon="-7.1458060">
        <ele>631.3</ele>
        <time>2014-10-02T11:08:12Z</time>
      </trkpt>
      <trkpt lat="42.6375790" lon="-7.1456980">
        <ele>631.8</ele>
        <time>2014-10-02T11:08:13Z</time>
      </trkpt>
      <trkpt lat="42.6375850" lon="-7.1455960">
        <ele>632.3</ele>
        <time>2014-10-02T11:08:14Z</time>
      </trkpt>
      <trkpt lat="42.6375850" lon="-7.1455160">
        <ele>632.6</ele>
        <time>2014-10-02T11:08:15Z</time>
      </trkpt>
      <trkpt lat="42.6375880" lon="-7.1454400">
        <ele>632.9</ele>
        <time>2014-10-02T11:08:16Z</time>
      </trkpt>
      <trkpt lat="42.6375770" lon="-7.1453800">
        <ele>633.2</ele>
        <time>2014-10-02T11:08:17Z</time>
      </trkpt>
      <trkpt lat="42.6375780" lon="-7.1453010">
        <ele>633.6</ele>
        <time>2014-10-02T11:08:18Z</time>
      </trkpt>
      <trkpt lat="42.6375930" lon="-7.1452120">
        <ele>634.0</ele>
        <time>2014-10-02T11:08:19Z</time>
      </trkpt>
      <trkpt lat="42.6376050" lon="-7.1451310">
        <ele>634.5</ele>
        <time>2014-10-02T11:08:20Z</time>
      </trkpt>
      <trkpt lat="42.6376190" lon="-7.1450350">
        <ele>635.1</ele>
        <time>2014-10-02T11:08:21Z</time>
      </trkpt>
      <trkpt lat="42.6376480" lon="-7.1449440">
        <ele>635.7</ele>
        <time>2014-10-02T11:08:22Z</time>
      </trkpt>
      <trkpt lat="42.6376750" lon="-7.1448560">
        <ele>636.3</ele>
        <time>2014-10-02T11:08:23Z</time>
      </trkpt>
      <trkpt lat="42.6376990" lon="-7.1447720">
        <ele>636.7</ele>
        <time>2014-10-02T11:08:24Z</time>
      </trkpt>
      <trkpt lat="42.6377230" lon="-7.1446910">
        <ele>637.2</ele>
        <time>2014-10-02T11:08:25Z</time>
      </trkpt>
      <trkpt lat="42.6377380" lon="-7.1446270">
        <ele>637.4</ele>
        <time>2014-10-02T11:08:26Z</time>
      </trkpt>
      <trkpt lat="42.6377530" lon="-7.1445580">
        <ele>637.7</ele>
        <time>2014-10-02T11:08:27Z</time>
      </trkpt>
      <trkpt lat="42.6377740" lon="-7.1444860">
        <ele>638.0</ele>
        <time>2014-10-02T11:08:28Z</time>
      </trkpt>
      <trkpt lat="42.6377980" lon="-7.1444100">
        <ele>638.3</ele>
        <time>2014-10-02T11:08:29Z</time>
      </trkpt>
      <trkpt lat="42.6378210" lon="-7.1443330">
        <ele>638.5</ele>
        <time>2014-10-02T11:08:30Z</time>
      </trkpt>
      <trkpt lat="42.6378420" lon="-7.1442670">
        <ele>638.8</ele>
        <time>2014-10-02T11:08:31Z</time>
      </trkpt>
      <trkpt lat="42.6378590" lon="-7.1442150">
        <ele>639.0</ele>
        <time>2014-10-02T11:08:32Z</time>
      </trkpt>
      <trkpt lat="42.6378810" lon="-7.1441570">
        <ele>639.3</ele>
        <time>2014-10-02T11:08:33Z</time>
      </trkpt>
      <trkpt lat="42.6379110" lon="-7.1441010">
        <ele>639.5</ele>
        <time>2014-10-02T11:08:34Z</time>
      </trkpt>
      <trkpt lat="42.6379410" lon="-7.1440510">
        <ele>639.6</ele>
        <time>2014-10-02T11:08:35Z</time>
      </trkpt>
      <trkpt lat="42.6379750" lon="-7.1440030">
        <ele>639.8</ele>
        <time>2014-10-02T11:08:36Z</time>
      </trkpt>
      <trkpt lat="42.6380110" lon="-7.1439530">
        <ele>639.9</ele>
        <time>2014-10-02T11:08:37Z</time>
      </trkpt>
      <trkpt lat="42.6380420" lon="-7.1439080">
        <ele>640.0</ele>
        <time>2014-10-02T11:08:38Z</time>
      </trkpt>
      <trkpt lat="42.6380750" lon="-7.1438610">
        <ele>640.2</ele>
        <time>2014-10-02T11:08:39Z</time>
      </trkpt>
      <trkpt lat="42.6381040" lon="-7.1438070">
        <ele>640.3</ele>
        <time>2014-10-02T11:08:40Z</time>
      </trkpt>
      <trkpt lat="42.6381340" lon="-7.1437590">
        <ele>640.4</ele>
        <time>2014-10-02T11:08:41Z</time>
      </trkpt>
      <trkpt lat="42.6381510" lon="-7.1437090">
        <ele>640.5</ele>
        <time>2014-10-02T11:08:42Z</time>
      </trkpt>
      <trkpt lat="42.6381710" lon="-7.1436620">
        <ele>640.6</ele>
        <time>2014-10-02T11:08:43Z</time>
      </trkpt>
      <trkpt lat="42.6381930" lon="-7.1436080">
        <ele>640.8</ele>
        <time>2014-10-02T11:08:44Z</time>
      </trkpt>
      <trkpt lat="42.6382110" lon="-7.1435680">
        <ele>640.9</ele>
        <time>2014-10-02T11:08:45Z</time>
      </trkpt>
      <trkpt lat="42.6382250" lon="-7.1435260">
        <ele>641.1</ele>
        <time>2014-10-02T11:08:46Z</time>
      </trkpt>
      <trkpt lat="42.6382430" lon="-7.1434760">
        <ele>641.3</ele>
        <time>2014-10-02T11:08:47Z</time>
      </trkpt>
      <trkpt lat="42.6382740" lon="-7.1434030">
        <ele>641.6</ele>
        <time>2014-10-02T11:08:48Z</time>
      </trkpt>
      <trkpt lat="42.6383080" lon="-7.1433280">
        <ele>641.9</ele>
        <time>2014-10-02T11:08:49Z</time>
      </trkpt>
      <trkpt lat="42.6383350" lon="-7.1432590">
        <ele>642.1</ele>
        <time>2014-10-02T11:08:50Z</time>
      </trkpt>
      <trkpt lat="42.6383630" lon="-7.1431870">
        <ele>642.4</ele>
        <time>2014-10-02T11:08:51Z</time>
      </trkpt>
      <trkpt lat="42.6383860" lon="-7.1431170">
        <ele>642.8</ele>
        <time>2014-10-02T11:08:52Z</time>
      </trkpt>
      <trkpt lat="42.6384110" lon="-7.1430490">
        <ele>643.1</ele>
        <time>2014-10-02T11:08:53Z</time>
      </trkpt>
      <trkpt lat="42.6384280" lon="-7.1429960">
        <ele>643.4</ele>
        <time>2014-10-02T11:08:54Z</time>
      </trkpt>
      <trkpt lat="42.6384380" lon="-7.1429600">
        <ele>643.6</ele>
        <time>2014-10-02T11:08:55Z</time>
      </trkpt>
      <trkpt lat="42.6384660" lon="-7.1428770">
        <ele>644.1</ele>
        <time>2014-10-02T11:08:57Z</time>
      </trkpt>
      <trkpt lat="42.6384940" lon="-7.1428280">
        <ele>644.5</ele>
        <time>2014-10-02T11:08:58Z</time>
      </trkpt>
      <trkpt lat="42.6385260" lon="-7.1427670">
        <ele>644.9</ele>
        <time>2014-10-02T11:08:59Z</time>
      </trkpt>
      <trkpt lat="42.6385560" lon="-7.1426960">
        <ele>645.3</ele>
        <time>2014-10-02T11:09:00Z</time>
      </trkpt>
      <trkpt lat="42.6385840" lon="-7.1426190">
        <ele>645.9</ele>
        <time>2014-10-02T11:09:01Z</time>
      </trkpt>
      <trkpt lat="42.6386100" lon="-7.1425510">
        <ele>646.3</ele>
        <time>2014-10-02T11:09:02Z</time>
      </trkpt>
      <trkpt lat="42.6386330" lon="-7.1424950">
        <ele>646.7</ele>
        <time>2014-10-02T11:09:03Z</time>
      </trkpt>
      <trkpt lat="42.6386550" lon="-7.1424450">
        <ele>647.1</ele>
        <time>2014-10-02T11:09:04Z</time>
      </trkpt>
      <trkpt lat="42.6386750" lon="-7.1423980">
        <ele>647.4</ele>
        <time>2014-10-02T11:09:05Z</time>
      </trkpt>
      <trkpt lat="42.6386910" lon="-7.1423630">
        <ele>647.7</ele>
        <time>2014-10-02T11:09:06Z</time>
      </trkpt>
      <trkpt lat="42.6387100" lon="-7.1423290">
        <ele>647.9</ele>
        <time>2014-10-02T11:09:07Z</time>
      </trkpt>
      <trkpt lat="42.6387330" lon="-7.1422950">
        <ele>648.2</ele>
        <time>2014-10-02T11:09:08Z</time>
      </trkpt>
      <trkpt lat="42.6387590" lon="-7.1422510">
        <ele>648.5</ele>
        <time>2014-10-02T11:09:09Z</time>
      </trkpt>
      <trkpt lat="42.6387850" lon="-7.1422050">
        <ele>648.8</ele>
        <time>2014-10-02T11:09:10Z</time>
      </trkpt>
      <trkpt lat="42.6388120" lon="-7.1421450">
        <ele>649.2</ele>
        <time>2014-10-02T11:09:11Z</time>
      </trkpt>
      <trkpt lat="42.6388340" lon="-7.1420990">
        <ele>649.3</ele>
        <time>2014-10-02T11:09:12Z</time>
      </trkpt>
      <trkpt lat="42.6388600" lon="-7.1420430">
        <ele>649.5</ele>
        <time>2014-10-02T11:09:13Z</time>
      </trkpt>
      <trkpt lat="42.6388850" lon="-7.1419850">
        <ele>649.7</ele>
        <time>2014-10-02T11:09:14Z</time>
      </trkpt>
      <trkpt lat="42.6389110" lon="-7.1419240">
        <ele>649.8</ele>
        <time>2014-10-02T11:09:15Z</time>
      </trkpt>
      <trkpt lat="42.6389400" lon="-7.1418580">
        <ele>650.0</ele>
        <time>2014-10-02T11:09:16Z</time>
      </trkpt>
      <trkpt lat="42.6389650" lon="-7.1417850">
        <ele>650.1</ele>
        <time>2014-10-02T11:09:17Z</time>
      </trkpt>
      <trkpt lat="42.6389900" lon="-7.1417130">
        <ele>650.2</ele>
        <time>2014-10-02T11:09:18Z</time>
      </trkpt>
      <trkpt lat="42.6390110" lon="-7.1416470">
        <ele>650.3</ele>
        <time>2014-10-02T11:09:19Z</time>
      </trkpt>
      <trkpt lat="42.6390290" lon="-7.1415820">
        <ele>650.3</ele>
        <time>2014-10-02T11:09:20Z</time>
      </trkpt>
      <trkpt lat="42.6390420" lon="-7.1415220">
        <ele>650.3</ele>
        <time>2014-10-02T11:09:21Z</time>
      </trkpt>
      <trkpt lat="42.6390560" lon="-7.1414600">
        <ele>650.3</ele>
        <time>2014-10-02T11:09:22Z</time>
      </trkpt>
      <trkpt lat="42.6390690" lon="-7.1413950">
        <ele>650.3</ele>
        <time>2014-10-02T11:09:23Z</time>
      </trkpt>
      <trkpt lat="42.6390760" lon="-7.1413270">
        <ele>650.3</ele>
        <time>2014-10-02T11:09:24Z</time>
      </trkpt>
      <trkpt lat="42.6390800" lon="-7.1412470">
        <ele>650.3</ele>
        <time>2014-10-02T11:09:25Z</time>
      </trkpt>
      <trkpt lat="42.6390810" lon="-7.1411610">
        <ele>650.3</ele>
        <time>2014-10-02T11:09:26Z</time>
      </trkpt>
      <trkpt lat="42.6390700" lon="-7.1410790">
        <ele>650.3</ele>
        <time>2014-10-02T11:09:27Z</time>
      </trkpt>
      <trkpt lat="42.6390820" lon="-7.1410370">
        <ele>650.3</ele>
        <time>2014-10-02T11:09:28Z</time>
      </trkpt>
      <trkpt lat="42.6391040" lon="-7.1409830">
        <ele>650.3</ele>
        <time>2014-10-02T11:09:29Z</time>
      </trkpt>
      <trkpt lat="42.6391190" lon="-7.1409170">
        <ele>650.2</ele>
        <time>2014-10-02T11:09:30Z</time>
      </trkpt>
      <trkpt lat="42.6391160" lon="-7.1408440">
        <ele>650.3</ele>
        <time>2014-10-02T11:09:31Z</time>
      </trkpt>
      <trkpt lat="42.6391170" lon="-7.1407570">
        <ele>650.3</ele>
        <time>2014-10-02T11:09:32Z</time>
      </trkpt>
      <trkpt lat="42.6391200" lon="-7.1406720">
        <ele>650.3</ele>
        <time>2014-10-02T11:09:33Z</time>
      </trkpt>
      <trkpt lat="42.6391250" lon="-7.1405950">
        <ele>650.3</ele>
        <time>2014-10-02T11:09:34Z</time>
      </trkpt>
      <trkpt lat="42.6391310" lon="-7.1405070">
        <ele>650.2</ele>
        <time>2014-10-02T11:09:35Z</time>
      </trkpt>
      <trkpt lat="42.6391500" lon="-7.1404250">
        <ele>650.1</ele>
        <time>2014-10-02T11:09:36Z</time>
      </trkpt>
      <trkpt lat="42.6391740" lon="-7.1403470">
        <ele>650.1</ele>
        <time>2014-10-02T11:09:37Z</time>
      </trkpt>
      <trkpt lat="42.6392010" lon="-7.1402660">
        <ele>650.1</ele>
        <time>2014-10-02T11:09:38Z</time>
      </trkpt>
      <trkpt lat="42.6392310" lon="-7.1401860">
        <ele>650.0</ele>
        <time>2014-10-02T11:09:39Z</time>
      </trkpt>
      <trkpt lat="42.6392640" lon="-7.1401100">
        <ele>650.0</ele>
        <time>2014-10-02T11:09:40Z</time>
      </trkpt>
      <trkpt lat="42.6392990" lon="-7.1400300">
        <ele>649.9</ele>
        <time>2014-10-02T11:09:41Z</time>
      </trkpt>
      <trkpt lat="42.6393340" lon="-7.1399460">
        <ele>649.8</ele>
        <time>2014-10-02T11:09:42Z</time>
      </trkpt>
      <trkpt lat="42.6393770" lon="-7.1398590">
        <ele>649.8</ele>
        <time>2014-10-02T11:09:43Z</time>
      </trkpt>
      <trkpt lat="42.6394160" lon="-7.1397820">
        <ele>649.8</ele>
        <time>2014-10-02T11:09:44Z</time>
      </trkpt>
      <trkpt lat="42.6394660" lon="-7.1397240">
        <ele>649.8</ele>
        <time>2014-10-02T11:09:45Z</time>
      </trkpt>
      <trkpt lat="42.6395170" lon="-7.1396690">
        <ele>649.8</ele>
        <time>2014-10-02T11:09:46Z</time>
      </trkpt>
      <trkpt lat="42.6395720" lon="-7.1396160">
        <ele>649.8</ele>
        <time>2014-10-02T11:09:47Z</time>
      </trkpt>
      <trkpt lat="42.6396260" lon="-7.1395620">
        <ele>649.7</ele>
        <time>2014-10-02T11:09:48Z</time>
      </trkpt>
      <trkpt lat="42.6396810" lon="-7.1395150">
        <ele>649.6</ele>
        <time>2014-10-02T11:09:49Z</time>
      </trkpt>
      <trkpt lat="42.6397350" lon="-7.1394680">
        <ele>649.5</ele>
        <time>2014-10-02T11:09:50Z</time>
      </trkpt>
      <trkpt lat="42.6397880" lon="-7.1394280">
        <ele>649.4</ele>
        <time>2014-10-02T11:09:51Z</time>
      </trkpt>
      <trkpt lat="42.6398450" lon="-7.1393830">
        <ele>649.3</ele>
        <time>2014-10-02T11:09:52Z</time>
      </trkpt>
      <trkpt lat="42.6399010" lon="-7.1393440">
        <ele>649.2</ele>
        <time>2014-10-02T11:09:53Z</time>
      </trkpt>
      <trkpt lat="42.6399580" lon="-7.1393040">
        <ele>649.1</ele>
        <time>2014-10-02T11:09:54Z</time>
      </trkpt>
      <trkpt lat="42.6400200" lon="-7.1392570">
        <ele>648.9</ele>
        <time>2014-10-02T11:09:55Z</time>
      </trkpt>
      <trkpt lat="42.6400870" lon="-7.1392020">
        <ele>648.8</ele>
        <time>2014-10-02T11:09:56Z</time>
      </trkpt>
      <trkpt lat="42.6401540" lon="-7.1391490">
        <ele>648.5</ele>
        <time>2014-10-02T11:09:57Z</time>
      </trkpt>
      <trkpt lat="42.6402250" lon="-7.1390940">
        <ele>648.3</ele>
        <time>2014-10-02T11:09:58Z</time>
      </trkpt>
      <trkpt lat="42.6403000" lon="-7.1390440">
        <ele>648.0</ele>
        <time>2014-10-02T11:09:59Z</time>
      </trkpt>
      <trkpt lat="42.6403760" lon="-7.1389950">
        <ele>647.8</ele>
        <time>2014-10-02T11:10:00Z</time>
      </trkpt>
      <trkpt lat="42.6404540" lon="-7.1389470">
        <ele>647.5</ele>
        <time>2014-10-02T11:10:01Z</time>
      </trkpt>
      <trkpt lat="42.6405310" lon="-7.1389030">
        <ele>647.3</ele>
        <time>2014-10-02T11:10:02Z</time>
      </trkpt>
      <trkpt lat="42.6406190" lon="-7.1388510">
        <ele>647.2</ele>
        <time>2014-10-02T11:10:03Z</time>
      </trkpt>
      <trkpt lat="42.6407080" lon="-7.1388050">
        <ele>647.2</ele>
        <time>2014-10-02T11:10:04Z</time>
      </trkpt>
      <trkpt lat="42.6407970" lon="-7.1387650">
        <ele>647.7</ele>
        <time>2014-10-02T11:10:05Z</time>
      </trkpt>
      <trkpt lat="42.6408820" lon="-7.1387340">
        <ele>648.1</ele>
        <time>2014-10-02T11:10:06Z</time>
      </trkpt>
      <trkpt lat="42.6409730" lon="-7.1387050">
        <ele>647.9</ele>
        <time>2014-10-02T11:10:07Z</time>
      </trkpt>
      <trkpt lat="42.6410660" lon="-7.1386840">
        <ele>647.5</ele>
        <time>2014-10-02T11:10:08Z</time>
      </trkpt>
      <trkpt lat="42.6411580" lon="-7.1386730">
        <ele>647.1</ele>
        <time>2014-10-02T11:10:09Z</time>
      </trkpt>
      <trkpt lat="42.6412520" lon="-7.1386670">
        <ele>646.4</ele>
        <time>2014-10-02T11:10:10Z</time>
      </trkpt>
      <trkpt lat="42.6413530" lon="-7.1386610">
        <ele>645.6</ele>
        <time>2014-10-02T11:10:11Z</time>
      </trkpt>
      <trkpt lat="42.6414510" lon="-7.1386530">
        <ele>644.8</ele>
        <time>2014-10-02T11:10:12Z</time>
      </trkpt>
      <trkpt lat="42.6415620" lon="-7.1386440">
        <ele>643.7</ele>
        <time>2014-10-02T11:10:13Z</time>
      </trkpt>
      <trkpt lat="42.6416720" lon="-7.1386310">
        <ele>642.6</ele>
        <time>2014-10-02T11:10:14Z</time>
      </trkpt>
      <trkpt lat="42.6417670" lon="-7.1386110">
        <ele>641.7</ele>
        <time>2014-10-02T11:10:15Z</time>
      </trkpt>
      <trkpt lat="42.6418610" lon="-7.1385800">
        <ele>640.7</ele>
        <time>2014-10-02T11:10:16Z</time>
      </trkpt>
      <trkpt lat="42.6419530" lon="-7.1384890">
        <ele>636.4</ele>
        <time>2014-10-02T11:10:17Z</time>
      </trkpt>
      <trkpt lat="42.6420410" lon="-7.1383870">
        <ele>633.3</ele>
        <time>2014-10-02T11:10:18Z</time>
      </trkpt>
      <trkpt lat="42.6421100" lon="-7.1382610">
        <ele>630.3</ele>
        <time>2014-10-02T11:10:19Z</time>
      </trkpt>
      <trkpt lat="42.6421810" lon="-7.1381320">
        <ele>627.4</ele>
        <time>2014-10-02T11:10:20Z</time>
      </trkpt>
      <trkpt lat="42.6422300" lon="-7.1379890">
        <ele>624.5</ele>
        <time>2014-10-02T11:10:21Z</time>
      </trkpt>
      <trkpt lat="42.6422800" lon="-7.1378450">
        <ele>621.6</ele>
        <time>2014-10-02T11:10:22Z</time>
      </trkpt>
      <trkpt lat="42.6423320" lon="-7.1376940">
        <ele>618.7</ele>
        <time>2014-10-02T11:10:23Z</time>
      </trkpt>
      <trkpt lat="42.6423820" lon="-7.1375470">
        <ele>615.8</ele>
        <time>2014-10-02T11:10:24Z</time>
      </trkpt>
      <trkpt lat="42.6424330" lon="-7.1373920">
        <ele>612.8</ele>
        <time>2014-10-02T11:10:25Z</time>
      </trkpt>
      <trkpt lat="42.6424690" lon="-7.1372490">
        <ele>610.1</ele>
        <time>2014-10-02T11:10:26Z</time>
      </trkpt>
      <trkpt lat="42.6424930" lon="-7.1371110">
        <ele>607.8</ele>
        <time>2014-10-02T11:10:27Z</time>
      </trkpt>
      <trkpt lat="42.6425010" lon="-7.1369790">
        <ele>605.6</ele>
        <time>2014-10-02T11:10:28Z</time>
      </trkpt>
      <trkpt lat="42.6425170" lon="-7.1368290">
        <ele>603.0</ele>
        <time>2014-10-02T11:10:29Z</time>
      </trkpt>
      <trkpt lat="42.6425380" lon="-7.1366820">
        <ele>600.0</ele>
        <time>2014-10-02T11:10:30Z</time>
      </trkpt>
      <trkpt lat="42.6425560" lon="-7.1365360">
        <ele>596.4</ele>
        <time>2014-10-02T11:10:31Z</time>
      </trkpt>
      <trkpt lat="42.6425430" lon="-7.1364110">
        <ele>595.6</ele>
        <time>2014-10-02T11:10:32Z</time>
      </trkpt>
      <trkpt lat="42.6425230" lon="-7.1362830">
        <ele>594.8</ele>
        <time>2014-10-02T11:10:33Z</time>
      </trkpt>
      <trkpt lat="42.6425080" lon="-7.1361500">
        <ele>594.1</ele>
        <time>2014-10-02T11:10:34Z</time>
      </trkpt>
      <trkpt lat="42.6424990" lon="-7.1360340">
        <ele>593.5</ele>
        <time>2014-10-02T11:10:35Z</time>
      </trkpt>
      <trkpt lat="42.6425150" lon="-7.1359360">
        <ele>593.3</ele>
        <time>2014-10-02T11:10:36Z</time>
      </trkpt>
      <trkpt lat="42.6425320" lon="-7.1358420">
        <ele>593.8</ele>
        <time>2014-10-02T11:10:37Z</time>
      </trkpt>
      <trkpt lat="42.6425600" lon="-7.1357460">
        <ele>594.3</ele>
        <time>2014-10-02T11:10:38Z</time>
      </trkpt>
      <trkpt lat="42.6425890" lon="-7.1356680">
        <ele>594.8</ele>
        <time>2014-10-02T11:10:39Z</time>
      </trkpt>
      <trkpt lat="42.6426100" lon="-7.1356070">
        <ele>595.3</ele>
        <time>2014-10-02T11:10:40Z</time>
      </trkpt>
      <trkpt lat="42.6426180" lon="-7.1355600">
        <ele>595.8</ele>
        <time>2014-10-02T11:10:41Z</time>
      </trkpt>
      <trkpt lat="42.6426240" lon="-7.1355220">
        <ele>596.2</ele>
        <time>2014-10-02T11:10:42Z</time>
      </trkpt>
      <trkpt lat="42.6426300" lon="-7.1354540">
        <ele>597.0</ele>
        <time>2014-10-02T11:10:44Z</time>
      </trkpt>
      <trkpt lat="42.6426300" lon="-7.1353770">
        <ele>597.9</ele>
        <time>2014-10-02T11:10:46Z</time>
      </trkpt>
      <trkpt lat="42.6426280" lon="-7.1353400">
        <ele>598.3</ele>
        <time>2014-10-02T11:10:47Z</time>
      </trkpt>
      <trkpt lat="42.6426260" lon="-7.1352980">
        <ele>598.8</ele>
        <time>2014-10-02T11:10:48Z</time>
      </trkpt>
      <trkpt lat="42.6426270" lon="-7.1352520">
        <ele>599.3</ele>
        <time>2014-10-02T11:10:49Z</time>
      </trkpt>
      <trkpt lat="42.6426270" lon="-7.1352140">
        <ele>599.8</ele>
        <time>2014-10-02T11:10:50Z</time>
      </trkpt>
      <trkpt lat="42.6426320" lon="-7.1351510">
        <ele>600.5</ele>
        <time>2014-10-02T11:10:52Z</time>
      </trkpt>
      <trkpt lat="42.6426350" lon="-7.1350620">
        <ele>601.4</ele>
        <time>2014-10-02T11:10:55Z</time>
      </trkpt>
      <trkpt lat="42.6426280" lon="-7.1350190">
        <ele>601.8</ele>
        <time>2014-10-02T11:10:57Z</time>
      </trkpt>
      <trkpt lat="42.6426140" lon="-7.1349700">
        <ele>602.2</ele>
        <time>2014-10-02T11:10:59Z</time>
      </trkpt>
      <trkpt lat="42.6425990" lon="-7.1349100">
        <ele>602.7</ele>
        <time>2014-10-02T11:11:01Z</time>
      </trkpt>
      <trkpt lat="42.6425830" lon="-7.1348780">
        <ele>603.0</ele>
        <time>2014-10-02T11:11:03Z</time>
      </trkpt>
      <trkpt lat="42.6425730" lon="-7.1348400">
        <ele>603.4</ele>
        <time>2014-10-02T11:11:05Z</time>
      </trkpt>
      <trkpt lat="42.6425610" lon="-7.1347970">
        <ele>603.8</ele>
        <time>2014-10-02T11:11:07Z</time>
      </trkpt>
      <trkpt lat="42.6425420" lon="-7.1347220">
        <ele>604.4</ele>
        <time>2014-10-02T11:11:10Z</time>
      </trkpt>
      <trkpt lat="42.6425220" lon="-7.1346710">
        <ele>604.9</ele>
        <time>2014-10-02T11:11:12Z</time>
      </trkpt>
      <trkpt lat="42.6425010" lon="-7.1346250">
        <ele>605.3</ele>
        <time>2014-10-02T11:11:14Z</time>
      </trkpt>
      <trkpt lat="42.6424840" lon="-7.1345760">
        <ele>605.8</ele>
        <time>2014-10-02T11:11:16Z</time>
      </trkpt>
      <trkpt lat="42.6424730" lon="-7.1345320">
        <ele>606.3</ele>
        <time>2014-10-02T11:11:18Z</time>
      </trkpt>
      <trkpt lat="42.6424630" lon="-7.1344800">
        <ele>606.8</ele>
        <time>2014-10-02T11:11:20Z</time>
      </trkpt>
      <trkpt lat="42.6424500" lon="-7.1344370">
        <ele>607.2</ele>
        <time>2014-10-02T11:11:22Z</time>
      </trkpt>
      <trkpt lat="42.6424440" lon="-7.1343820">
        <ele>607.8</ele>
        <time>2014-10-02T11:11:24Z</time>
      </trkpt>
      <trkpt lat="42.6424380" lon="-7.1343230">
        <ele>608.3</ele>
        <time>2014-10-02T11:11:26Z</time>
      </trkpt>
      <trkpt lat="42.6424300" lon="-7.1342750">
        <ele>608.8</ele>
        <time>2014-10-02T11:11:28Z</time>
      </trkpt>
      <trkpt lat="42.6424140" lon="-7.1342330">
        <ele>609.2</ele>
        <time>2014-10-02T11:11:30Z</time>
      </trkpt>
      <trkpt lat="42.6423890" lon="-7.1341790">
        <ele>609.7</ele>
        <time>2014-10-02T11:11:32Z</time>
      </trkpt>
      <trkpt lat="42.6423630" lon="-7.1341220">
        <ele>610.3</ele>
        <time>2014-10-02T11:11:34Z</time>
      </trkpt>
      <trkpt lat="42.6423410" lon="-7.1340750">
        <ele>610.8</ele>
        <time>2014-10-02T11:11:36Z</time>
      </trkpt>
      <trkpt lat="42.6423160" lon="-7.1340410">
        <ele>611.2</ele>
        <time>2014-10-02T11:11:38Z</time>
      </trkpt>
      <trkpt lat="42.6422930" lon="-7.1340040">
        <ele>611.6</ele>
        <time>2014-10-02T11:11:40Z</time>
      </trkpt>
      <trkpt lat="42.6422740" lon="-7.1339720">
        <ele>611.9</ele>
        <time>2014-10-02T11:11:42Z</time>
      </trkpt>
      <trkpt lat="42.6422390" lon="-7.1339400">
        <ele>612.4</ele>
        <time>2014-10-02T11:11:45Z</time>
      </trkpt>
      <trkpt lat="42.6422080" lon="-7.1339180">
        <ele>612.7</ele>
        <time>2014-10-02T11:11:48Z</time>
      </trkpt>
      <trkpt lat="42.6421590" lon="-7.1339110">
        <ele>613.3</ele>
        <time>2014-10-02T11:11:50Z</time>
      </trkpt>
      <trkpt lat="42.6421180" lon="-7.1339040">
        <ele>613.8</ele>
        <time>2014-10-02T11:11:52Z</time>
      </trkpt>
      <trkpt lat="42.6420790" lon="-7.1338960">
        <ele>614.3</ele>
        <time>2014-10-02T11:11:54Z</time>
      </trkpt>
      <trkpt lat="42.6420240" lon="-7.1338860">
        <ele>614.9</ele>
        <time>2014-10-02T11:11:57Z</time>
      </trkpt>
      <trkpt lat="42.6419940" lon="-7.1338740">
        <ele>615.3</ele>
        <time>2014-10-02T11:11:59Z</time>
      </trkpt>
      <trkpt lat="42.6419680" lon="-7.1338590">
        <ele>615.6</ele>
        <time>2014-10-02T11:12:01Z</time>
      </trkpt>
      <trkpt lat="42.6419360" lon="-7.1338470">
        <ele>616.0</ele>
        <time>2014-10-02T11:12:03Z</time>
      </trkpt>
      <trkpt lat="42.6419010" lon="-7.1338430">
        <ele>616.3</ele>
        <time>2014-10-02T11:12:05Z</time>
      </trkpt>
      <trkpt lat="42.6418670" lon="-7.1338360">
        <ele>616.7</ele>
        <time>2014-10-02T11:12:07Z</time>
      </trkpt>
      <trkpt lat="42.6418320" lon="-7.1338270">
        <ele>617.1</ele>
        <time>2014-10-02T11:12:09Z</time>
      </trkpt>
      <trkpt lat="42.6417730" lon="-7.1338040">
        <ele>617.9</ele>
        <time>2014-10-02T11:12:13Z</time>
      </trkpt>
      <trkpt lat="42.6417370" lon="-7.1337800">
        <ele>618.4</ele>
        <time>2014-10-02T11:12:15Z</time>
      </trkpt>
      <trkpt lat="42.6416870" lon="-7.1337580">
        <ele>619.0</ele>
        <time>2014-10-02T11:12:17Z</time>
      </trkpt>
      <trkpt lat="42.6416100" lon="-7.1337340">
        <ele>619.9</ele>
        <time>2014-10-02T11:12:20Z</time>
      </trkpt>
      <trkpt lat="42.6415570" lon="-7.1337230">
        <ele>620.6</ele>
        <time>2014-10-02T11:12:22Z</time>
      </trkpt>
      <trkpt lat="42.6415280" lon="-7.1337160">
        <ele>620.9</ele>
        <time>2014-10-02T11:12:23Z</time>
      </trkpt>
      <trkpt lat="42.6414830" lon="-7.1337070">
        <ele>621.4</ele>
        <time>2014-10-02T11:12:25Z</time>
      </trkpt>
      <trkpt lat="42.6414510" lon="-7.1337030">
        <ele>621.8</ele>
        <time>2014-10-02T11:12:26Z</time>
      </trkpt>
      <trkpt lat="42.6414140" lon="-7.1336990">
        <ele>622.1</ele>
        <time>2014-10-02T11:12:27Z</time>
      </trkpt>
      <trkpt lat="42.6413800" lon="-7.1336970">
        <ele>622.5</ele>
        <time>2014-10-02T11:12:28Z</time>
      </trkpt>
      <trkpt lat="42.6413420" lon="-7.1336950">
        <ele>622.8</ele>
        <time>2014-10-02T11:12:29Z</time>
      </trkpt>
      <trkpt lat="42.6413070" lon="-7.1336950">
        <ele>623.1</ele>
        <time>2014-10-02T11:12:30Z</time>
      </trkpt>
      <trkpt lat="42.6412730" lon="-7.1337020">
        <ele>623.4</ele>
        <time>2014-10-02T11:12:31Z</time>
      </trkpt>
      <trkpt lat="42.6412390" lon="-7.1337080">
        <ele>623.7</ele>
        <time>2014-10-02T11:12:32Z</time>
      </trkpt>
      <trkpt lat="42.6412040" lon="-7.1337170">
        <ele>624.1</ele>
        <time>2014-10-02T11:12:33Z</time>
      </trkpt>
      <trkpt lat="42.6411710" lon="-7.1337260">
        <ele>624.5</ele>
        <time>2014-10-02T11:12:34Z</time>
      </trkpt>
      <trkpt lat="42.6411420" lon="-7.1337390">
        <ele>624.8</ele>
        <time>2014-10-02T11:12:35Z</time>
      </trkpt>
      <trkpt lat="42.6410510" lon="-7.1338190">
        <ele>626.2</ele>
        <time>2014-10-02T11:12:39Z</time>
      </trkpt>
      <trkpt lat="42.6409840" lon="-7.1339000">
        <ele>627.1</ele>
        <time>2014-10-02T11:12:42Z</time>
      </trkpt>
      <trkpt lat="42.6409280" lon="-7.1340050">
        <ele>627.9</ele>
        <time>2014-10-02T11:12:46Z</time>
      </trkpt>
      <trkpt lat="42.6408910" lon="-7.1341270">
        <ele>628.7</ele>
        <time>2014-10-02T11:12:51Z</time>
      </trkpt>
      <trkpt lat="42.6408630" lon="-7.1341900">
        <ele>629.2</ele>
        <time>2014-10-02T11:12:53Z</time>
      </trkpt>
      <trkpt lat="42.6408240" lon="-7.1343020">
        <ele>630.1</ele>
        <time>2014-10-02T11:12:57Z</time>
      </trkpt>
      <trkpt lat="42.6407800" lon="-7.1344220">
        <ele>631.1</ele>
        <time>2014-10-02T11:13:02Z</time>
      </trkpt>
      <trkpt lat="42.6407580" lon="-7.1345020">
        <ele>631.7</ele>
        <time>2014-10-02T11:13:06Z</time>
      </trkpt>
      <trkpt lat="42.6407400" lon="-7.1345480">
        <ele>632.1</ele>
        <time>2014-10-02T11:13:08Z</time>
      </trkpt>
      <trkpt lat="42.6407220" lon="-7.1345890">
        <ele>632.5</ele>
        <time>2014-10-02T11:13:10Z</time>
      </trkpt>
      <trkpt lat="42.6406970" lon="-7.1346330">
        <ele>632.9</ele>
        <time>2014-10-02T11:13:12Z</time>
      </trkpt>
      <trkpt lat="42.6406730" lon="-7.1346790">
        <ele>633.4</ele>
        <time>2014-10-02T11:13:14Z</time>
      </trkpt>
      <trkpt lat="42.6406560" lon="-7.1347090">
        <ele>633.7</ele>
        <time>2014-10-02T11:13:15Z</time>
      </trkpt>
      <trkpt lat="42.6406370" lon="-7.1347420">
        <ele>634.0</ele>
        <time>2014-10-02T11:13:16Z</time>
      </trkpt>
      <trkpt lat="42.6406200" lon="-7.1347730">
        <ele>634.2</ele>
        <time>2014-10-02T11:13:17Z</time>
      </trkpt>
      <trkpt lat="42.6406030" lon="-7.1348020">
        <ele>634.5</ele>
        <time>2014-10-02T11:13:18Z</time>
      </trkpt>
      <trkpt lat="42.6405760" lon="-7.1348550">
        <ele>634.9</ele>
        <time>2014-10-02T11:13:20Z</time>
      </trkpt>
      <trkpt lat="42.6405560" lon="-7.1348990">
        <ele>635.1</ele>
        <time>2014-10-02T11:13:22Z</time>
      </trkpt>
      <trkpt lat="42.6405310" lon="-7.1349530">
        <ele>635.5</ele>
        <time>2014-10-02T11:13:24Z</time>
      </trkpt>
      <trkpt lat="42.6405180" lon="-7.1349860">
        <ele>635.7</ele>
        <time>2014-10-02T11:13:25Z</time>
      </trkpt>
      <trkpt lat="42.6404940" lon="-7.1350430">
        <ele>636.0</ele>
        <time>2014-10-02T11:13:27Z</time>
      </trkpt>
      <trkpt lat="42.6404630" lon="-7.1351030">
        <ele>636.5</ele>
        <time>2014-10-02T11:13:29Z</time>
      </trkpt>
      <trkpt lat="42.6404450" lon="-7.1351400">
        <ele>636.7</ele>
        <time>2014-10-02T11:13:31Z</time>
      </trkpt>
      <trkpt lat="42.6404190" lon="-7.1351880">
        <ele>637.1</ele>
        <time>2014-10-02T11:13:33Z</time>
      </trkpt>
      <trkpt lat="42.6403930" lon="-7.1352330">
        <ele>637.5</ele>
        <time>2014-10-02T11:13:35Z</time>
      </trkpt>
      <trkpt lat="42.6403710" lon="-7.1352830">
        <ele>637.8</ele>
        <time>2014-10-02T11:13:37Z</time>
      </trkpt>
      <trkpt lat="42.6403560" lon="-7.1353310">
        <ele>638.1</ele>
        <time>2014-10-02T11:13:39Z</time>
      </trkpt>
      <trkpt lat="42.6403490" lon="-7.1353690">
        <ele>638.4</ele>
        <time>2014-10-02T11:13:41Z</time>
      </trkpt>
      <trkpt lat="42.6403300" lon="-7.1354210">
        <ele>638.8</ele>
        <time>2014-10-02T11:13:44Z</time>
      </trkpt>
      <trkpt lat="42.6403040" lon="-7.1354700">
        <ele>639.3</ele>
        <time>2014-10-02T11:13:46Z</time>
      </trkpt>
      <trkpt lat="42.6402770" lon="-7.1355300">
        <ele>640.0</ele>
        <time>2014-10-02T11:13:48Z</time>
      </trkpt>
      <trkpt lat="42.6402390" lon="-7.1356020">
        <ele>640.8</ele>
        <time>2014-10-02T11:13:51Z</time>
      </trkpt>
      <trkpt lat="42.6402170" lon="-7.1356430">
        <ele>641.3</ele>
        <time>2014-10-02T11:13:53Z</time>
      </trkpt>
      <trkpt lat="42.6401910" lon="-7.1356950">
        <ele>641.9</ele>
        <time>2014-10-02T11:13:55Z</time>
      </trkpt>
      <trkpt lat="42.6401650" lon="-7.1357440">
        <ele>642.4</ele>
        <time>2014-10-02T11:13:57Z</time>
      </trkpt>
      <trkpt lat="42.6401480" lon="-7.1357740">
        <ele>642.7</ele>
        <time>2014-10-02T11:13:58Z</time>
      </trkpt>
      <trkpt lat="42.6401190" lon="-7.1358240">
        <ele>643.3</ele>
        <time>2014-10-02T11:14:00Z</time>
      </trkpt>
      <trkpt lat="42.6400950" lon="-7.1358720">
        <ele>643.8</ele>
        <time>2014-10-02T11:14:02Z</time>
      </trkpt>
      <trkpt lat="42.6400650" lon="-7.1359120">
        <ele>644.3</ele>
        <time>2014-10-02T11:14:04Z</time>
      </trkpt>
      <trkpt lat="42.6400330" lon="-7.1359510">
        <ele>644.8</ele>
        <time>2014-10-02T11:14:06Z</time>
      </trkpt>
      <trkpt lat="42.6399960" lon="-7.1359880">
        <ele>645.3</ele>
        <time>2014-10-02T11:14:08Z</time>
      </trkpt>
      <trkpt lat="42.6399560" lon="-7.1360210">
        <ele>645.9</ele>
        <time>2014-10-02T11:14:10Z</time>
      </trkpt>
      <trkpt lat="42.6399170" lon="-7.1360500">
        <ele>646.4</ele>
        <time>2014-10-02T11:14:12Z</time>
      </trkpt>
      <trkpt lat="42.6398870" lon="-7.1360700">
        <ele>646.7</ele>
        <time>2014-10-02T11:14:14Z</time>
      </trkpt>
      <trkpt lat="42.6398580" lon="-7.1360860">
        <ele>647.1</ele>
        <time>2014-10-02T11:14:16Z</time>
      </trkpt>
      <trkpt lat="42.6398150" lon="-7.1360990">
        <ele>647.6</ele>
        <time>2014-10-02T11:14:19Z</time>
      </trkpt>
      <trkpt lat="42.6397260" lon="-7.1361130">
        <ele>648.6</ele>
        <time>2014-10-02T11:14:25Z</time>
      </trkpt>
      <trkpt lat="42.6396380" lon="-7.1360510">
        <ele>650.0</ele>
        <time>2014-10-02T11:14:31Z</time>
      </trkpt>
      <trkpt lat="42.6396830" lon="-7.1359120">
        <ele>652.1</ele>
        <time>2014-10-02T11:14:37Z</time>
      </trkpt>
      <trkpt lat="42.6397230" lon="-7.1358590">
        <ele>652.8</ele>
        <time>2014-10-02T11:14:40Z</time>
      </trkpt>
      <trkpt lat="42.6398070" lon="-7.1357670">
        <ele>654.2</ele>
        <time>2014-10-02T11:14:46Z</time>
      </trkpt>
      <trkpt lat="42.6398420" lon="-7.1357100">
        <ele>654.9</ele>
        <time>2014-10-02T11:14:50Z</time>
      </trkpt>
      <trkpt lat="42.6398880" lon="-7.1355610">
        <ele>656.5</ele>
        <time>2014-10-02T11:14:56Z</time>
      </trkpt>
      <trkpt lat="42.6398990" lon="-7.1354910">
        <ele>657.1</ele>
        <time>2014-10-02T11:14:58Z</time>
      </trkpt>
      <trkpt lat="42.6399050" lon="-7.1354540">
        <ele>657.5</ele>
        <time>2014-10-02T11:14:59Z</time>
      </trkpt>
      <trkpt lat="42.6399210" lon="-7.1353940">
        <ele>657.9</ele>
        <time>2014-10-02T11:15:01Z</time>
      </trkpt>
      <trkpt lat="42.6399230" lon="-7.1353180">
        <ele>658.5</ele>
        <time>2014-10-02T11:15:04Z</time>
      </trkpt>
      <trkpt lat="42.6399190" lon="-7.1352310">
        <ele>659.1</ele>
        <time>2014-10-02T11:15:07Z</time>
      </trkpt>
      <trkpt lat="42.6399220" lon="-7.1351760">
        <ele>659.5</ele>
        <time>2014-10-02T11:15:09Z</time>
      </trkpt>
      <trkpt lat="42.6399190" lon="-7.1350370">
        <ele>660.5</ele>
        <time>2014-10-02T11:15:14Z</time>
      </trkpt>
      <trkpt lat="42.6399400" lon="-7.1348570">
        <ele>661.8</ele>
        <time>2014-10-02T11:15:20Z</time>
      </trkpt>
      <trkpt lat="42.6399690" lon="-7.1347250">
        <ele>662.9</ele>
        <time>2014-10-02T11:15:24Z</time>
      </trkpt>
      <trkpt lat="42.6400040" lon="-7.1346060">
        <ele>664.0</ele>
        <time>2014-10-02T11:15:28Z</time>
      </trkpt>
      <trkpt lat="42.6400290" lon="-7.1345340">
        <ele>664.7</ele>
        <time>2014-10-02T11:15:30Z</time>
      </trkpt>
      <trkpt lat="42.6400410" lon="-7.1344990">
        <ele>665.0</ele>
        <time>2014-10-02T11:15:31Z</time>
      </trkpt>
      <trkpt lat="42.6400560" lon="-7.1344600">
        <ele>665.4</ele>
        <time>2014-10-02T11:15:32Z</time>
      </trkpt>
      <trkpt lat="42.6400810" lon="-7.1343980">
        <ele>666.1</ele>
        <time>2014-10-02T11:15:34Z</time>
      </trkpt>
      <trkpt lat="42.6401120" lon="-7.1343260">
        <ele>666.8</ele>
        <time>2014-10-02T11:15:36Z</time>
      </trkpt>
      <trkpt lat="42.6401310" lon="-7.1342660">
        <ele>667.4</ele>
        <time>2014-10-02T11:15:38Z</time>
      </trkpt>
      <trkpt lat="42.6401490" lon="-7.1342000">
        <ele>668.0</ele>
        <time>2014-10-02T11:15:40Z</time>
      </trkpt>
      <trkpt lat="42.6401690" lon="-7.1341490">
        <ele>668.5</ele>
        <time>2014-10-02T11:15:42Z</time>
      </trkpt>
      <trkpt lat="42.6401790" lon="-7.1341100">
        <ele>668.9</ele>
        <time>2014-10-02T11:15:43Z</time>
      </trkpt>
      <trkpt lat="42.6401850" lon="-7.1340710">
        <ele>669.3</ele>
        <time>2014-10-02T11:15:44Z</time>
      </trkpt>
      <trkpt lat="42.6402010" lon="-7.1340000">
        <ele>670.0</ele>
        <time>2014-10-02T11:15:46Z</time>
      </trkpt>
      <trkpt lat="42.6402150" lon="-7.1339670">
        <ele>670.4</ele>
        <time>2014-10-02T11:15:47Z</time>
      </trkpt>
      <trkpt lat="42.6402270" lon="-7.1339340">
        <ele>670.8</ele>
        <time>2014-10-02T11:15:48Z</time>
      </trkpt>
      <trkpt lat="42.6402560" lon="-7.1338770">
        <ele>671.5</ele>
        <time>2014-10-02T11:15:50Z</time>
      </trkpt>
      <trkpt lat="42.6402790" lon="-7.1338280">
        <ele>672.1</ele>
        <time>2014-10-02T11:15:52Z</time>
      </trkpt>
      <trkpt lat="42.6402960" lon="-7.1337680">
        <ele>672.8</ele>
        <time>2014-10-02T11:15:54Z</time>
      </trkpt>
      <trkpt lat="42.6403130" lon="-7.1337150">
        <ele>673.3</ele>
        <time>2014-10-02T11:15:56Z</time>
      </trkpt>
      <trkpt lat="42.6403320" lon="-7.1336650">
        <ele>673.9</ele>
        <time>2014-10-02T11:15:58Z</time>
      </trkpt>
      <trkpt lat="42.6403490" lon="-7.1336090">
        <ele>674.5</ele>
        <time>2014-10-02T11:16:00Z</time>
      </trkpt>
      <trkpt lat="42.6403640" lon="-7.1335760">
        <ele>674.9</ele>
        <time>2014-10-02T11:16:01Z</time>
      </trkpt>
      <trkpt lat="42.6403830" lon="-7.1335290">
        <ele>675.5</ele>
        <time>2014-10-02T11:16:03Z</time>
      </trkpt>
      <trkpt lat="42.6404030" lon="-7.1334840">
        <ele>676.1</ele>
        <time>2014-10-02T11:16:05Z</time>
      </trkpt>
      <trkpt lat="42.6404210" lon="-7.1334550">
        <ele>676.5</ele>
        <time>2014-10-02T11:16:06Z</time>
      </trkpt>
      <trkpt lat="42.6404400" lon="-7.1333990">
        <ele>677.2</ele>
        <time>2014-10-02T11:16:08Z</time>
      </trkpt>
      <trkpt lat="42.6404600" lon="-7.1333490">
        <ele>677.7</ele>
        <time>2014-10-02T11:16:10Z</time>
      </trkpt>
      <trkpt lat="42.6404790" lon="-7.1333030">
        <ele>678.2</ele>
        <time>2014-10-02T11:16:12Z</time>
      </trkpt>
      <trkpt lat="42.6404970" lon="-7.1332500">
        <ele>678.8</ele>
        <time>2014-10-02T11:16:14Z</time>
      </trkpt>
      <trkpt lat="42.6405070" lon="-7.1331900">
        <ele>679.4</ele>
        <time>2014-10-02T11:16:16Z</time>
      </trkpt>
      <trkpt lat="42.6405220" lon="-7.1331430">
        <ele>679.9</ele>
        <time>2014-10-02T11:16:18Z</time>
      </trkpt>
      <trkpt lat="42.6405390" lon="-7.1330860">
        <ele>680.5</ele>
        <time>2014-10-02T11:16:20Z</time>
      </trkpt>
      <trkpt lat="42.6405580" lon="-7.1330300">
        <ele>681.0</ele>
        <time>2014-10-02T11:16:22Z</time>
      </trkpt>
      <trkpt lat="42.6405530" lon="-7.1329760">
        <ele>681.5</ele>
        <time>2014-10-02T11:16:24Z</time>
      </trkpt>
      <trkpt lat="42.6405710" lon="-7.1329220">
        <ele>682.1</ele>
        <time>2014-10-02T11:16:26Z</time>
      </trkpt>
      <trkpt lat="42.6405950" lon="-7.1328800">
        <ele>682.5</ele>
        <time>2014-10-02T11:16:28Z</time>
      </trkpt>
      <trkpt lat="42.6406170" lon="-7.1328360">
        <ele>683.0</ele>
        <time>2014-10-02T11:16:30Z</time>
      </trkpt>
      <trkpt lat="42.6406400" lon="-7.1327860">
        <ele>683.5</ele>
        <time>2014-10-02T11:16:32Z</time>
      </trkpt>
      <trkpt lat="42.6406500" lon="-7.1327500">
        <ele>683.9</ele>
        <time>2014-10-02T11:16:33Z</time>
      </trkpt>
      <trkpt lat="42.6406630" lon="-7.1327100">
        <ele>684.3</ele>
        <time>2014-10-02T11:16:34Z</time>
      </trkpt>
      <trkpt lat="42.6406810" lon="-7.1326680">
        <ele>684.7</ele>
        <time>2014-10-02T11:16:35Z</time>
      </trkpt>
      <trkpt lat="42.6407020" lon="-7.1326210">
        <ele>685.2</ele>
        <time>2014-10-02T11:16:37Z</time>
      </trkpt>
      <trkpt lat="42.6407130" lon="-7.1325680">
        <ele>685.6</ele>
        <time>2014-10-02T11:16:39Z</time>
      </trkpt>
      <trkpt lat="42.6407320" lon="-7.1325330">
        <ele>685.9</ele>
        <time>2014-10-02T11:16:40Z</time>
      </trkpt>
      <trkpt lat="42.6407510" lon="-7.1324990">
        <ele>686.3</ele>
        <time>2014-10-02T11:16:41Z</time>
      </trkpt>
      <trkpt lat="42.6407730" lon="-7.1324400">
        <ele>686.8</ele>
        <time>2014-10-02T11:16:43Z</time>
      </trkpt>
      <trkpt lat="42.6407970" lon="-7.1323720">
        <ele>687.4</ele>
        <time>2014-10-02T11:16:45Z</time>
      </trkpt>
      <trkpt lat="42.6408240" lon="-7.1323350">
        <ele>687.8</ele>
        <time>2014-10-02T11:16:46Z</time>
      </trkpt>
      <trkpt lat="42.6408480" lon="-7.1322960">
        <ele>688.2</ele>
        <time>2014-10-02T11:16:47Z</time>
      </trkpt>
      <trkpt lat="42.6408750" lon="-7.1322540">
        <ele>688.6</ele>
        <time>2014-10-02T11:16:48Z</time>
      </trkpt>
      <trkpt lat="42.6409010" lon="-7.1322120">
        <ele>689.0</ele>
        <time>2014-10-02T11:16:49Z</time>
      </trkpt>
      <trkpt lat="42.6409310" lon="-7.1321750">
        <ele>689.4</ele>
        <time>2014-10-02T11:16:50Z</time>
      </trkpt>
      <trkpt lat="42.6409610" lon="-7.1321430">
        <ele>689.8</ele>
        <time>2014-10-02T11:16:51Z</time>
      </trkpt>
      <trkpt lat="42.6409890" lon="-7.1321100">
        <ele>690.2</ele>
        <time>2014-10-02T11:16:52Z</time>
      </trkpt>
      <trkpt lat="42.6410110" lon="-7.1320840">
        <ele>690.4</ele>
        <time>2014-10-02T11:16:53Z</time>
      </trkpt>
      <trkpt lat="42.6410350" lon="-7.1320600">
        <ele>690.7</ele>
        <time>2014-10-02T11:16:54Z</time>
      </trkpt>
      <trkpt lat="42.6410620" lon="-7.1320420">
        <ele>691.1</ele>
        <time>2014-10-02T11:16:55Z</time>
      </trkpt>
      <trkpt lat="42.6411080" lon="-7.1320060">
        <ele>691.6</ele>
        <time>2014-10-02T11:16:57Z</time>
      </trkpt>
      <trkpt lat="42.6411570" lon="-7.1319740">
        <ele>692.3</ele>
        <time>2014-10-02T11:16:59Z</time>
      </trkpt>
      <trkpt lat="42.6411990" lon="-7.1319490">
        <ele>692.8</ele>
        <time>2014-10-02T11:17:01Z</time>
      </trkpt>
      <trkpt lat="42.6412430" lon="-7.1319290">
        <ele>693.4</ele>
        <time>2014-10-02T11:17:03Z</time>
      </trkpt>
      <trkpt lat="42.6412740" lon="-7.1319100">
        <ele>693.8</ele>
        <time>2014-10-02T11:17:05Z</time>
      </trkpt>
      <trkpt lat="42.6413030" lon="-7.1318970">
        <ele>694.2</ele>
        <time>2014-10-02T11:17:07Z</time>
      </trkpt>
      <trkpt lat="42.6413370" lon="-7.1318790">
        <ele>694.7</ele>
        <time>2014-10-02T11:17:09Z</time>
      </trkpt>
      <trkpt lat="42.6413770" lon="-7.1318610">
        <ele>695.3</ele>
        <time>2014-10-02T11:17:11Z</time>
      </trkpt>
      <trkpt lat="42.6414130" lon="-7.1318430">
        <ele>695.8</ele>
        <time>2014-10-02T11:17:13Z</time>
      </trkpt>
      <trkpt lat="42.6414600" lon="-7.1318090">
        <ele>696.6</ele>
        <time>2014-10-02T11:17:15Z</time>
      </trkpt>
      <trkpt lat="42.6415060" lon="-7.1317850">
        <ele>697.4</ele>
        <time>2014-10-02T11:17:17Z</time>
      </trkpt>
      <trkpt lat="42.6415400" lon="-7.1317640">
        <ele>697.9</ele>
        <time>2014-10-02T11:17:19Z</time>
      </trkpt>
      <trkpt lat="42.6415650" lon="-7.1317490">
        <ele>698.3</ele>
        <time>2014-10-02T11:17:20Z</time>
      </trkpt>
      <trkpt lat="42.6416070" lon="-7.1317230">
        <ele>699.0</ele>
        <time>2014-10-02T11:17:22Z</time>
      </trkpt>
      <trkpt lat="42.6416500" lon="-7.1316990">
        <ele>699.7</ele>
        <time>2014-10-02T11:17:24Z</time>
      </trkpt>
      <trkpt lat="42.6416860" lon="-7.1316820">
        <ele>700.2</ele>
        <time>2014-10-02T11:17:26Z</time>
      </trkpt>
      <trkpt lat="42.6417160" lon="-7.1316610">
        <ele>700.7</ele>
        <time>2014-10-02T11:17:27Z</time>
      </trkpt>
      <trkpt lat="42.6417440" lon="-7.1316330">
        <ele>701.1</ele>
        <time>2014-10-02T11:17:28Z</time>
      </trkpt>
      <trkpt lat="42.6417670" lon="-7.1316080">
        <ele>701.6</ele>
        <time>2014-10-02T11:17:29Z</time>
      </trkpt>
      <trkpt lat="42.6417960" lon="-7.1315840">
        <ele>702.0</ele>
        <time>2014-10-02T11:17:30Z</time>
      </trkpt>
      <trkpt lat="42.6418200" lon="-7.1315550">
        <ele>702.5</ele>
        <time>2014-10-02T11:17:31Z</time>
      </trkpt>
      <trkpt lat="42.6418420" lon="-7.1315220">
        <ele>702.9</ele>
        <time>2014-10-02T11:17:32Z</time>
      </trkpt>
      <trkpt lat="42.6418710" lon="-7.1314690">
        <ele>703.6</ele>
        <time>2014-10-02T11:17:34Z</time>
      </trkpt>
      <trkpt lat="42.6419090" lon="-7.1314150">
        <ele>704.3</ele>
        <time>2014-10-02T11:17:36Z</time>
      </trkpt>
      <trkpt lat="42.6419370" lon="-7.1313620">
        <ele>704.9</ele>
        <time>2014-10-02T11:17:38Z</time>
      </trkpt>
      <trkpt lat="42.6419620" lon="-7.1313030">
        <ele>705.6</ele>
        <time>2014-10-02T11:17:40Z</time>
      </trkpt>
      <trkpt lat="42.6419790" lon="-7.1312430">
        <ele>706.2</ele>
        <time>2014-10-02T11:17:42Z</time>
      </trkpt>
      <trkpt lat="42.6419990" lon="-7.1311870">
        <ele>706.7</ele>
        <time>2014-10-02T11:17:44Z</time>
      </trkpt>
      <trkpt lat="42.6420230" lon="-7.1311290">
        <ele>707.3</ele>
        <time>2014-10-02T11:17:46Z</time>
      </trkpt>
      <trkpt lat="42.6420420" lon="-7.1310770">
        <ele>707.7</ele>
        <time>2014-10-02T11:17:48Z</time>
      </trkpt>
      <trkpt lat="42.6420570" lon="-7.1310310">
        <ele>708.1</ele>
        <time>2014-10-02T11:17:50Z</time>
      </trkpt>
      <trkpt lat="42.6420760" lon="-7.1309880">
        <ele>708.5</ele>
        <time>2014-10-02T11:17:52Z</time>
      </trkpt>
      <trkpt lat="42.6421070" lon="-7.1309390">
        <ele>709.1</ele>
        <time>2014-10-02T11:17:54Z</time>
      </trkpt>
      <trkpt lat="42.6421450" lon="-7.1308940">
        <ele>709.7</ele>
        <time>2014-10-02T11:17:56Z</time>
      </trkpt>
      <trkpt lat="42.6421790" lon="-7.1308520">
        <ele>710.2</ele>
        <time>2014-10-02T11:17:58Z</time>
      </trkpt>
      <trkpt lat="42.6422210" lon="-7.1308050">
        <ele>710.7</ele>
        <time>2014-10-02T11:18:00Z</time>
      </trkpt>
      <trkpt lat="42.6422550" lon="-7.1307660">
        <ele>711.2</ele>
        <time>2014-10-02T11:18:02Z</time>
      </trkpt>
      <trkpt lat="42.6422830" lon="-7.1307290">
        <ele>711.6</ele>
        <time>2014-10-02T11:18:04Z</time>
      </trkpt>
      <trkpt lat="42.6423040" lon="-7.1306760">
        <ele>712.0</ele>
        <time>2014-10-02T11:18:06Z</time>
      </trkpt>
      <trkpt lat="42.6423110" lon="-7.1306170">
        <ele>712.5</ele>
        <time>2014-10-02T11:18:08Z</time>
      </trkpt>
      <trkpt lat="42.6423050" lon="-7.1305480">
        <ele>713.0</ele>
        <time>2014-10-02T11:18:10Z</time>
      </trkpt>
      <trkpt lat="42.6422650" lon="-7.1305160">
        <ele>713.4</ele>
        <time>2014-10-02T11:18:12Z</time>
      </trkpt>
      <trkpt lat="42.6422100" lon="-7.1305250">
        <ele>714.0</ele>
        <time>2014-10-02T11:18:14Z</time>
      </trkpt>
      <trkpt lat="42.6421740" lon="-7.1305730">
        <ele>714.5</ele>
        <time>2014-10-02T11:18:16Z</time>
      </trkpt>
      <trkpt lat="42.6421580" lon="-7.1306040">
        <ele>714.8</ele>
        <time>2014-10-02T11:18:17Z</time>
      </trkpt>
      <trkpt lat="42.6421420" lon="-7.1306350">
        <ele>715.1</ele>
        <time>2014-10-02T11:18:18Z</time>
      </trkpt>
      <trkpt lat="42.6421260" lon="-7.1306690">
        <ele>715.4</ele>
        <time>2014-10-02T11:18:19Z</time>
      </trkpt>
      <trkpt lat="42.6420940" lon="-7.1307240">
        <ele>715.9</ele>
        <time>2014-10-02T11:18:21Z</time>
      </trkpt>
      <trkpt lat="42.6420620" lon="-7.1307700">
        <ele>716.5</ele>
        <time>2014-10-02T11:18:23Z</time>
      </trkpt>
      <trkpt lat="42.6420310" lon="-7.1308160">
        <ele>717.0</ele>
        <time>2014-10-02T11:18:25Z</time>
      </trkpt>
      <trkpt lat="42.6419960" lon="-7.1308610">
        <ele>717.6</ele>
        <time>2014-10-02T11:18:27Z</time>
      </trkpt>
      <trkpt lat="42.6419600" lon="-7.1309040">
        <ele>718.2</ele>
        <time>2014-10-02T11:18:29Z</time>
      </trkpt>
      <trkpt lat="42.6419240" lon="-7.1309420">
        <ele>718.7</ele>
        <time>2014-10-02T11:18:31Z</time>
      </trkpt>
      <trkpt lat="42.6418850" lon="-7.1309770">
        <ele>719.3</ele>
        <time>2014-10-02T11:18:33Z</time>
      </trkpt>
      <trkpt lat="42.6418440" lon="-7.1310150">
        <ele>719.9</ele>
        <time>2014-10-02T11:18:35Z</time>
      </trkpt>
      <trkpt lat="42.6418020" lon="-7.1310460">
        <ele>720.5</ele>
        <time>2014-10-02T11:18:37Z</time>
      </trkpt>
      <trkpt lat="42.6417580" lon="-7.1310780">
        <ele>721.2</ele>
        <time>2014-10-02T11:18:39Z</time>
      </trkpt>
      <trkpt lat="42.6417130" lon="-7.1311070">
        <ele>721.8</ele>
        <time>2014-10-02T11:18:41Z</time>
      </trkpt>
      <trkpt lat="42.6416730" lon="-7.1311290">
        <ele>722.2</ele>
        <time>2014-10-02T11:18:43Z</time>
      </trkpt>
      <trkpt lat="42.6416300" lon="-7.1311450">
        <ele>722.6</ele>
        <time>2014-10-02T11:18:45Z</time>
      </trkpt>
      <trkpt lat="42.6415830" lon="-7.1311520">
        <ele>723.1</ele>
        <time>2014-10-02T11:18:47Z</time>
      </trkpt>
      <trkpt lat="42.6415320" lon="-7.1311580">
        <ele>723.6</ele>
        <time>2014-10-02T11:18:49Z</time>
      </trkpt>
      <trkpt lat="42.6414820" lon="-7.1311670">
        <ele>724.1</ele>
        <time>2014-10-02T11:18:51Z</time>
      </trkpt>
      <trkpt lat="42.6414550" lon="-7.1311740">
        <ele>724.4</ele>
        <time>2014-10-02T11:18:52Z</time>
      </trkpt>
      <trkpt lat="42.6414100" lon="-7.1311820">
        <ele>724.8</ele>
        <time>2014-10-02T11:18:54Z</time>
      </trkpt>
      <trkpt lat="42.6413560" lon="-7.1311960">
        <ele>725.2</ele>
        <time>2014-10-02T11:18:56Z</time>
      </trkpt>
      <trkpt lat="42.6413000" lon="-7.1312070">
        <ele>725.6</ele>
        <time>2014-10-02T11:18:58Z</time>
      </trkpt>
      <trkpt lat="42.6412650" lon="-7.1312120">
        <ele>725.9</ele>
        <time>2014-10-02T11:18:59Z</time>
      </trkpt>
      <trkpt lat="42.6412320" lon="-7.1312140">
        <ele>726.1</ele>
        <time>2014-10-02T11:19:00Z</time>
      </trkpt>
      <trkpt lat="42.6412000" lon="-7.1312110">
        <ele>726.2</ele>
        <time>2014-10-02T11:19:01Z</time>
      </trkpt>
      <trkpt lat="42.6411610" lon="-7.1312150">
        <ele>726.4</ele>
        <time>2014-10-02T11:19:02Z</time>
      </trkpt>
      <trkpt lat="42.6411240" lon="-7.1312200">
        <ele>726.6</ele>
        <time>2014-10-02T11:19:03Z</time>
      </trkpt>
      <trkpt lat="42.6410900" lon="-7.1312260">
        <ele>726.7</ele>
        <time>2014-10-02T11:19:04Z</time>
      </trkpt>
      <trkpt lat="42.6410570" lon="-7.1312270">
        <ele>726.9</ele>
        <time>2014-10-02T11:19:05Z</time>
      </trkpt>
      <trkpt lat="42.6410230" lon="-7.1312360">
        <ele>727.0</ele>
        <time>2014-10-02T11:19:06Z</time>
      </trkpt>
      <trkpt lat="42.6409880" lon="-7.1312490">
        <ele>727.2</ele>
        <time>2014-10-02T11:19:07Z</time>
      </trkpt>
      <trkpt lat="42.6409520" lon="-7.1312640">
        <ele>727.3</ele>
        <time>2014-10-02T11:19:08Z</time>
      </trkpt>
      <trkpt lat="42.6409260" lon="-7.1312760">
        <ele>727.5</ele>
        <time>2014-10-02T11:19:09Z</time>
      </trkpt>
      <trkpt lat="42.6408930" lon="-7.1312910">
        <ele>727.6</ele>
        <time>2014-10-02T11:19:10Z</time>
      </trkpt>
      <trkpt lat="42.6408630" lon="-7.1313110">
        <ele>727.8</ele>
        <time>2014-10-02T11:19:11Z</time>
      </trkpt>
      <trkpt lat="42.6408350" lon="-7.1313360">
        <ele>727.9</ele>
        <time>2014-10-02T11:19:12Z</time>
      </trkpt>
      <trkpt lat="42.6408060" lon="-7.1313680">
        <ele>728.0</ele>
        <time>2014-10-02T11:19:13Z</time>
      </trkpt>
      <trkpt lat="42.6407770" lon="-7.1314000">
        <ele>728.2</ele>
        <time>2014-10-02T11:19:14Z</time>
      </trkpt>
      <trkpt lat="42.6407470" lon="-7.1314340">
        <ele>728.3</ele>
        <time>2014-10-02T11:19:15Z</time>
      </trkpt>
      <trkpt lat="42.6407180" lon="-7.1314680">
        <ele>728.5</ele>
        <time>2014-10-02T11:19:16Z</time>
      </trkpt>
      <trkpt lat="42.6406850" lon="-7.1315010">
        <ele>728.7</ele>
        <time>2014-10-02T11:19:17Z</time>
      </trkpt>
      <trkpt lat="42.6406530" lon="-7.1315360">
        <ele>728.9</ele>
        <time>2014-10-02T11:19:18Z</time>
      </trkpt>
      <trkpt lat="42.6406210" lon="-7.1315740">
        <ele>729.2</ele>
        <time>2014-10-02T11:19:19Z</time>
      </trkpt>
      <trkpt lat="42.6405860" lon="-7.1316160">
        <ele>729.6</ele>
        <time>2014-10-02T11:19:20Z</time>
      </trkpt>
      <trkpt lat="42.6405540" lon="-7.1316580">
        <ele>729.9</ele>
        <time>2014-10-02T11:19:21Z</time>
      </trkpt>
      <trkpt lat="42.6405190" lon="-7.1316990">
        <ele>730.3</ele>
        <time>2014-10-02T11:19:22Z</time>
      </trkpt>
      <trkpt lat="42.6404820" lon="-7.1317420">
        <ele>730.6</ele>
        <time>2014-10-02T11:19:23Z</time>
      </trkpt>
      <trkpt lat="42.6404510" lon="-7.1317820">
        <ele>730.8</ele>
        <time>2014-10-02T11:19:24Z</time>
      </trkpt>
      <trkpt lat="42.6404270" lon="-7.1318080">
        <ele>731.0</ele>
        <time>2014-10-02T11:19:25Z</time>
      </trkpt>
      <trkpt lat="42.6404060" lon="-7.1318370">
        <ele>731.1</ele>
        <time>2014-10-02T11:19:26Z</time>
      </trkpt>
      <trkpt lat="42.6403760" lon="-7.1318740">
        <ele>731.4</ele>
        <time>2014-10-02T11:19:27Z</time>
      </trkpt>
      <trkpt lat="42.6403450" lon="-7.1319110">
        <ele>731.6</ele>
        <time>2014-10-02T11:19:28Z</time>
      </trkpt>
      <trkpt lat="42.6403130" lon="-7.1319510">
        <ele>731.8</ele>
        <time>2014-10-02T11:19:29Z</time>
      </trkpt>
      <trkpt lat="42.6402730" lon="-7.1320000">
        <ele>732.2</ele>
        <time>2014-10-02T11:19:30Z</time>
      </trkpt>
      <trkpt lat="42.6402360" lon="-7.1320450">
        <ele>732.4</ele>
        <time>2014-10-02T11:19:31Z</time>
      </trkpt>
      <trkpt lat="42.6402060" lon="-7.1320830">
        <ele>732.7</ele>
        <time>2014-10-02T11:19:32Z</time>
      </trkpt>
      <trkpt lat="42.6401770" lon="-7.1321190">
        <ele>732.9</ele>
        <time>2014-10-02T11:19:33Z</time>
      </trkpt>
      <trkpt lat="42.6401530" lon="-7.1321480">
        <ele>733.1</ele>
        <time>2014-10-02T11:19:34Z</time>
      </trkpt>
      <trkpt lat="42.6401270" lon="-7.1321800">
        <ele>733.3</ele>
        <time>2014-10-02T11:19:35Z</time>
      </trkpt>
      <trkpt lat="42.6401060" lon="-7.1322070">
        <ele>733.4</ele>
        <time>2014-10-02T11:19:36Z</time>
      </trkpt>
      <trkpt lat="42.6400840" lon="-7.1322360">
        <ele>733.6</ele>
        <time>2014-10-02T11:19:37Z</time>
      </trkpt>
      <trkpt lat="42.6400570" lon="-7.1322690">
        <ele>733.8</ele>
        <time>2014-10-02T11:19:38Z</time>
      </trkpt>
      <trkpt lat="42.6400250" lon="-7.1323050">
        <ele>734.1</ele>
        <time>2014-10-02T11:19:39Z</time>
      </trkpt>
      <trkpt lat="42.6399930" lon="-7.1323460">
        <ele>734.4</ele>
        <time>2014-10-02T11:19:40Z</time>
      </trkpt>
      <trkpt lat="42.6399630" lon="-7.1323840">
        <ele>734.7</ele>
        <time>2014-10-02T11:19:41Z</time>
      </trkpt>
      <trkpt lat="42.6399330" lon="-7.1324220">
        <ele>735.1</ele>
        <time>2014-10-02T11:19:42Z</time>
      </trkpt>
      <trkpt lat="42.6399040" lon="-7.1324630">
        <ele>735.4</ele>
        <time>2014-10-02T11:19:43Z</time>
      </trkpt>
      <trkpt lat="42.6398780" lon="-7.1325040">
        <ele>735.7</ele>
        <time>2014-10-02T11:19:44Z</time>
      </trkpt>
      <trkpt lat="42.6398520" lon="-7.1325390">
        <ele>736.0</ele>
        <time>2014-10-02T11:19:45Z</time>
      </trkpt>
      <trkpt lat="42.6398290" lon="-7.1325720">
        <ele>736.3</ele>
        <time>2014-10-02T11:19:46Z</time>
      </trkpt>
      <trkpt lat="42.6397950" lon="-7.1326230">
        <ele>736.8</ele>
        <time>2014-10-02T11:19:48Z</time>
      </trkpt>
      <trkpt lat="42.6397750" lon="-7.1326560">
        <ele>737.1</ele>
        <time>2014-10-02T11:19:49Z</time>
      </trkpt>
      <trkpt lat="42.6397520" lon="-7.1326880">
        <ele>737.3</ele>
        <time>2014-10-02T11:19:50Z</time>
      </trkpt>
      <trkpt lat="42.6397230" lon="-7.1327260">
        <ele>737.7</ele>
        <time>2014-10-02T11:19:51Z</time>
      </trkpt>
      <trkpt lat="42.6396930" lon="-7.1327680">
        <ele>738.1</ele>
        <time>2014-10-02T11:19:52Z</time>
      </trkpt>
      <trkpt lat="42.6396570" lon="-7.1328150">
        <ele>738.5</ele>
        <time>2014-10-02T11:19:53Z</time>
      </trkpt>
      <trkpt lat="42.6396270" lon="-7.1328500">
        <ele>738.9</ele>
        <time>2014-10-02T11:19:54Z</time>
      </trkpt>
      <trkpt lat="42.6396010" lon="-7.1328790">
        <ele>739.2</ele>
        <time>2014-10-02T11:19:55Z</time>
      </trkpt>
      <trkpt lat="42.6395790" lon="-7.1329080">
        <ele>739.5</ele>
        <time>2014-10-02T11:19:56Z</time>
      </trkpt>
      <trkpt lat="42.6395570" lon="-7.1329380">
        <ele>739.8</ele>
        <time>2014-10-02T11:19:57Z</time>
      </trkpt>
      <trkpt lat="42.6395330" lon="-7.1329700">
        <ele>740.1</ele>
        <time>2014-10-02T11:19:58Z</time>
      </trkpt>
      <trkpt lat="42.6395050" lon="-7.1330000">
        <ele>740.4</ele>
        <time>2014-10-02T11:19:59Z</time>
      </trkpt>
      <trkpt lat="42.6394840" lon="-7.1330260">
        <ele>740.7</ele>
        <time>2014-10-02T11:20:00Z</time>
      </trkpt>
      <trkpt lat="42.6394630" lon="-7.1330520">
        <ele>741.0</ele>
        <time>2014-10-02T11:20:01Z</time>
      </trkpt>
      <trkpt lat="42.6394370" lon="-7.1330760">
        <ele>741.3</ele>
        <time>2014-10-02T11:20:02Z</time>
      </trkpt>
      <trkpt lat="42.6394130" lon="-7.1330980">
        <ele>741.6</ele>
        <time>2014-10-02T11:20:03Z</time>
      </trkpt>
      <trkpt lat="42.6393870" lon="-7.1331100">
        <ele>741.9</ele>
        <time>2014-10-02T11:20:04Z</time>
      </trkpt>
      <trkpt lat="42.6393600" lon="-7.1331250">
        <ele>742.2</ele>
        <time>2014-10-02T11:20:05Z</time>
      </trkpt>
      <trkpt lat="42.6393330" lon="-7.1331370">
        <ele>742.5</ele>
        <time>2014-10-02T11:20:06Z</time>
      </trkpt>
      <trkpt lat="42.6392830" lon="-7.1331510">
        <ele>743.1</ele>
        <time>2014-10-02T11:20:08Z</time>
      </trkpt>
      <trkpt lat="42.6392300" lon="-7.1331490">
        <ele>743.6</ele>
        <time>2014-10-02T11:20:10Z</time>
      </trkpt>
      <trkpt lat="42.6392010" lon="-7.1331510">
        <ele>743.8</ele>
        <time>2014-10-02T11:20:11Z</time>
      </trkpt>
      <trkpt lat="42.6391610" lon="-7.1331160">
        <ele>744.3</ele>
        <time>2014-10-02T11:20:13Z</time>
      </trkpt>
      <trkpt lat="42.6391270" lon="-7.1330740">
        <ele>744.9</ele>
        <time>2014-10-02T11:20:15Z</time>
      </trkpt>
      <trkpt lat="42.6391160" lon="-7.1330340">
        <ele>745.3</ele>
        <time>2014-10-02T11:20:16Z</time>
      </trkpt>
      <trkpt lat="42.6391050" lon="-7.1330000">
        <ele>745.6</ele>
        <time>2014-10-02T11:20:17Z</time>
      </trkpt>
      <trkpt lat="42.6391340" lon="-7.1329580">
        <ele>746.1</ele>
        <time>2014-10-02T11:20:19Z</time>
      </trkpt>
      <trkpt lat="42.6391600" lon="-7.1329250">
        <ele>746.5</ele>
        <time>2014-10-02T11:20:21Z</time>
      </trkpt>
      <trkpt lat="42.6391900" lon="-7.1328830">
        <ele>747.0</ele>
        <time>2014-10-02T11:20:23Z</time>
      </trkpt>
      <trkpt lat="42.6392090" lon="-7.1328560">
        <ele>747.3</ele>
        <time>2014-10-02T11:20:24Z</time>
      </trkpt>
      <trkpt lat="42.6392300" lon="-7.1328310">
        <ele>747.6</ele>
        <time>2014-10-02T11:20:25Z</time>
      </trkpt>
      <trkpt lat="42.6392530" lon="-7.1328110">
        <ele>747.9</ele>
        <time>2014-10-02T11:20:26Z</time>
      </trkpt>
      <trkpt lat="42.6392850" lon="-7.1327740">
        <ele>748.4</ele>
        <time>2014-10-02T11:20:28Z</time>
      </trkpt>
      <trkpt lat="42.6393170" lon="-7.1327330">
        <ele>748.9</ele>
        <time>2014-10-02T11:20:30Z</time>
      </trkpt>
      <trkpt lat="42.6393390" lon="-7.1327070">
        <ele>749.2</ele>
        <time>2014-10-02T11:20:31Z</time>
      </trkpt>
      <trkpt lat="42.6393710" lon="-7.1326710">
        <ele>749.7</ele>
        <time>2014-10-02T11:20:33Z</time>
      </trkpt>
      <trkpt lat="42.6393950" lon="-7.1326400">
        <ele>750.1</ele>
        <time>2014-10-02T11:20:34Z</time>
      </trkpt>
      <trkpt lat="42.6394200" lon="-7.1326070">
        <ele>750.4</ele>
        <time>2014-10-02T11:20:35Z</time>
      </trkpt>
      <trkpt lat="42.6394380" lon="-7.1325760">
        <ele>750.7</ele>
        <time>2014-10-02T11:20:36Z</time>
      </trkpt>
      <trkpt lat="42.6394720" lon="-7.1325210">
        <ele>751.3</ele>
        <time>2014-10-02T11:20:38Z</time>
      </trkpt>
      <trkpt lat="42.6395050" lon="-7.1324610">
        <ele>751.8</ele>
        <time>2014-10-02T11:20:40Z</time>
      </trkpt>
      <trkpt lat="42.6395370" lon="-7.1324030">
        <ele>752.3</ele>
        <time>2014-10-02T11:20:42Z</time>
      </trkpt>
      <trkpt lat="42.6395690" lon="-7.1323420">
        <ele>752.8</ele>
        <time>2014-10-02T11:20:44Z</time>
      </trkpt>
      <trkpt lat="42.6395990" lon="-7.1322880">
        <ele>753.2</ele>
        <time>2014-10-02T11:20:46Z</time>
      </trkpt>
      <trkpt lat="42.6396160" lon="-7.1322520">
        <ele>753.5</ele>
        <time>2014-10-02T11:20:47Z</time>
      </trkpt>
      <trkpt lat="42.6396320" lon="-7.1322180">
        <ele>753.8</ele>
        <time>2014-10-02T11:20:48Z</time>
      </trkpt>
      <trkpt lat="42.6396490" lon="-7.1321830">
        <ele>754.1</ele>
        <time>2014-10-02T11:20:49Z</time>
      </trkpt>
      <trkpt lat="42.6396800" lon="-7.1321250">
        <ele>754.6</ele>
        <time>2014-10-02T11:20:51Z</time>
      </trkpt>
      <trkpt lat="42.6397080" lon="-7.1320700">
        <ele>755.1</ele>
        <time>2014-10-02T11:20:53Z</time>
      </trkpt>
      <trkpt lat="42.6397350" lon="-7.1320090">
        <ele>755.6</ele>
        <time>2014-10-02T11:20:55Z</time>
      </trkpt>
      <trkpt lat="42.6397510" lon="-7.1319770">
        <ele>755.8</ele>
        <time>2014-10-02T11:20:56Z</time>
      </trkpt>
      <trkpt lat="42.6397650" lon="-7.1319450">
        <ele>756.1</ele>
        <time>2014-10-02T11:20:57Z</time>
      </trkpt>
      <trkpt lat="42.6397820" lon="-7.1319090">
        <ele>756.4</ele>
        <time>2014-10-02T11:20:58Z</time>
      </trkpt>
      <trkpt lat="42.6398030" lon="-7.1318740">
        <ele>756.6</ele>
        <time>2014-10-02T11:20:59Z</time>
      </trkpt>
      <trkpt lat="42.6398300" lon="-7.1318140">
        <ele>757.1</ele>
        <time>2014-10-02T11:21:01Z</time>
      </trkpt>
      <trkpt lat="42.6398480" lon="-7.1317800">
        <ele>757.4</ele>
        <time>2014-10-02T11:21:02Z</time>
      </trkpt>
      <trkpt lat="42.6398700" lon="-7.1317470">
        <ele>757.7</ele>
        <time>2014-10-02T11:21:03Z</time>
      </trkpt>
      <trkpt lat="42.6398980" lon="-7.1316970">
        <ele>758.1</ele>
        <time>2014-10-02T11:21:05Z</time>
      </trkpt>
      <trkpt lat="42.6399090" lon="-7.1316630">
        <ele>758.4</ele>
        <time>2014-10-02T11:21:06Z</time>
      </trkpt>
      <trkpt lat="42.6399200" lon="-7.1316290">
        <ele>758.6</ele>
        <time>2014-10-02T11:21:07Z</time>
      </trkpt>
      <trkpt lat="42.6399500" lon="-7.1315720">
        <ele>759.1</ele>
        <time>2014-10-02T11:21:09Z</time>
      </trkpt>
      <trkpt lat="42.6399800" lon="-7.1315060">
        <ele>759.6</ele>
        <time>2014-10-02T11:21:11Z</time>
      </trkpt>
      <trkpt lat="42.6400010" lon="-7.1314720">
        <ele>759.9</ele>
        <time>2014-10-02T11:21:12Z</time>
      </trkpt>
      <trkpt lat="42.6400210" lon="-7.1314380">
        <ele>760.2</ele>
        <time>2014-10-02T11:21:13Z</time>
      </trkpt>
      <trkpt lat="42.6400400" lon="-7.1314060">
        <ele>760.5</ele>
        <time>2014-10-02T11:21:14Z</time>
      </trkpt>
      <trkpt lat="42.6400650" lon="-7.1313530">
        <ele>760.9</ele>
        <time>2014-10-02T11:21:16Z</time>
      </trkpt>
      <trkpt lat="42.6400860" lon="-7.1313030">
        <ele>761.2</ele>
        <time>2014-10-02T11:21:18Z</time>
      </trkpt>
      <trkpt lat="42.6401020" lon="-7.1312520">
        <ele>761.5</ele>
        <time>2014-10-02T11:21:20Z</time>
      </trkpt>
      <trkpt lat="42.6401230" lon="-7.1311920">
        <ele>762.0</ele>
        <time>2014-10-02T11:21:22Z</time>
      </trkpt>
      <trkpt lat="42.6401390" lon="-7.1311360">
        <ele>762.4</ele>
        <time>2014-10-02T11:21:24Z</time>
      </trkpt>
      <trkpt lat="42.6401690" lon="-7.1310770">
        <ele>762.9</ele>
        <time>2014-10-02T11:21:26Z</time>
      </trkpt>
      <trkpt lat="42.6401960" lon="-7.1310220">
        <ele>763.4</ele>
        <time>2014-10-02T11:21:28Z</time>
      </trkpt>
      <trkpt lat="42.6402230" lon="-7.1309710">
        <ele>763.8</ele>
        <time>2014-10-02T11:21:30Z</time>
      </trkpt>
      <trkpt lat="42.6402500" lon="-7.1309140">
        <ele>764.3</ele>
        <time>2014-10-02T11:21:32Z</time>
      </trkpt>
      <trkpt lat="42.6402690" lon="-7.1308810">
        <ele>764.7</ele>
        <time>2014-10-02T11:21:33Z</time>
      </trkpt>
      <trkpt lat="42.6403000" lon="-7.1308260">
        <ele>765.2</ele>
        <time>2014-10-02T11:21:35Z</time>
      </trkpt>
      <trkpt lat="42.6403260" lon="-7.1307740">
        <ele>765.7</ele>
        <time>2014-10-02T11:21:37Z</time>
      </trkpt>
      <trkpt lat="42.6403530" lon="-7.1307240">
        <ele>766.2</ele>
        <time>2014-10-02T11:21:39Z</time>
      </trkpt>
      <trkpt lat="42.6403820" lon="-7.1306760">
        <ele>766.6</ele>
        <time>2014-10-02T11:21:41Z</time>
      </trkpt>
      <trkpt lat="42.6404130" lon="-7.1306200">
        <ele>767.1</ele>
        <time>2014-10-02T11:21:43Z</time>
      </trkpt>
      <trkpt lat="42.6404420" lon="-7.1305710">
        <ele>767.6</ele>
        <time>2014-10-02T11:21:45Z</time>
      </trkpt>
      <trkpt lat="42.6404720" lon="-7.1305280">
        <ele>768.1</ele>
        <time>2014-10-02T11:21:47Z</time>
      </trkpt>
      <trkpt lat="42.6405000" lon="-7.1304830">
        <ele>768.5</ele>
        <time>2014-10-02T11:21:49Z</time>
      </trkpt>
      <trkpt lat="42.6405290" lon="-7.1304350">
        <ele>769.0</ele>
        <time>2014-10-02T11:21:51Z</time>
      </trkpt>
      <trkpt lat="42.6405540" lon="-7.1303770">
        <ele>769.6</ele>
        <time>2014-10-02T11:21:53Z</time>
      </trkpt>
      <trkpt lat="42.6405710" lon="-7.1303440">
        <ele>769.9</ele>
        <time>2014-10-02T11:21:54Z</time>
      </trkpt>
      <trkpt lat="42.6405900" lon="-7.1302750">
        <ele>770.5</ele>
        <time>2014-10-02T11:21:56Z</time>
      </trkpt>
      <trkpt lat="42.6406040" lon="-7.1302400">
        <ele>770.8</ele>
        <time>2014-10-02T11:21:57Z</time>
      </trkpt>
      <trkpt lat="42.6406150" lon="-7.1302020">
        <ele>771.1</ele>
        <time>2014-10-02T11:21:58Z</time>
      </trkpt>
      <trkpt lat="42.6406290" lon="-7.1301680">
        <ele>771.3</ele>
        <time>2014-10-02T11:21:59Z</time>
      </trkpt>
      <trkpt lat="42.6406480" lon="-7.1301340">
        <ele>771.6</ele>
        <time>2014-10-02T11:22:00Z</time>
      </trkpt>
      <trkpt lat="42.6406670" lon="-7.1301020">
        <ele>772.0</ele>
        <time>2014-10-02T11:22:01Z</time>
      </trkpt>
      <trkpt lat="42.6406880" lon="-7.1300660">
        <ele>772.3</ele>
        <time>2014-10-02T11:22:02Z</time>
      </trkpt>
      <trkpt lat="42.6407060" lon="-7.1300310">
        <ele>772.6</ele>
        <time>2014-10-02T11:22:03Z</time>
      </trkpt>
      <trkpt lat="42.6407240" lon="-7.1300010">
        <ele>772.9</ele>
        <time>2014-10-02T11:22:04Z</time>
      </trkpt>
      <trkpt lat="42.6407400" lon="-7.1299710">
        <ele>773.2</ele>
        <time>2014-10-02T11:22:05Z</time>
      </trkpt>
      <trkpt lat="42.6407540" lon="-7.1299390">
        <ele>773.4</ele>
        <time>2014-10-02T11:22:06Z</time>
      </trkpt>
      <trkpt lat="42.6407670" lon="-7.1299070">
        <ele>773.7</ele>
        <time>2014-10-02T11:22:07Z</time>
      </trkpt>
      <trkpt lat="42.6407820" lon="-7.1298710">
        <ele>774.0</ele>
        <time>2014-10-02T11:22:08Z</time>
      </trkpt>
      <trkpt lat="42.6407930" lon="-7.1298120">
        <ele>774.4</ele>
        <time>2014-10-02T11:22:10Z</time>
      </trkpt>
      <trkpt lat="42.6407960" lon="-7.1297550">
        <ele>774.8</ele>
        <time>2014-10-02T11:22:12Z</time>
      </trkpt>
      <trkpt lat="42.6407950" lon="-7.1297040">
        <ele>775.1</ele>
        <time>2014-10-02T11:22:14Z</time>
      </trkpt>
      <trkpt lat="42.6407880" lon="-7.1296670">
        <ele>775.5</ele>
        <time>2014-10-02T11:22:16Z</time>
      </trkpt>
      <trkpt lat="42.6407700" lon="-7.1296220">
        <ele>776.0</ele>
        <time>2014-10-02T11:22:18Z</time>
      </trkpt>
      <trkpt lat="42.6407560" lon="-7.1295640">
        <ele>776.5</ele>
        <time>2014-10-02T11:22:20Z</time>
      </trkpt>
      <trkpt lat="42.6407390" lon="-7.1295070">
        <ele>777.1</ele>
        <time>2014-10-02T11:22:22Z</time>
      </trkpt>
      <trkpt lat="42.6407170" lon="-7.1294510">
        <ele>777.7</ele>
        <time>2014-10-02T11:22:24Z</time>
      </trkpt>
      <trkpt lat="42.6407120" lon="-7.1293890">
        <ele>778.2</ele>
        <time>2014-10-02T11:22:26Z</time>
      </trkpt>
      <trkpt lat="42.6406990" lon="-7.1293250">
        <ele>778.9</ele>
        <time>2014-10-02T11:22:28Z</time>
      </trkpt>
      <trkpt lat="42.6406800" lon="-7.1292690">
        <ele>779.4</ele>
        <time>2014-10-02T11:22:30Z</time>
      </trkpt>
      <trkpt lat="42.6406580" lon="-7.1292140">
        <ele>780.0</ele>
        <time>2014-10-02T11:22:32Z</time>
      </trkpt>
      <trkpt lat="42.6406360" lon="-7.1291660">
        <ele>780.5</ele>
        <time>2014-10-02T11:22:34Z</time>
      </trkpt>
      <trkpt lat="42.6406100" lon="-7.1291200">
        <ele>781.1</ele>
        <time>2014-10-02T11:22:36Z</time>
      </trkpt>
      <trkpt lat="42.6405820" lon="-7.1290630">
        <ele>781.7</ele>
        <time>2014-10-02T11:22:38Z</time>
      </trkpt>
      <trkpt lat="42.6405560" lon="-7.1290170">
        <ele>782.3</ele>
        <time>2014-10-02T11:22:40Z</time>
      </trkpt>
      <trkpt lat="42.6405440" lon="-7.1289830">
        <ele>782.6</ele>
        <time>2014-10-02T11:22:42Z</time>
      </trkpt>
      <trkpt lat="42.6405310" lon="-7.1289340">
        <ele>783.1</ele>
        <time>2014-10-02T11:22:44Z</time>
      </trkpt>
      <trkpt lat="42.6405380" lon="-7.1288850">
        <ele>783.6</ele>
        <time>2014-10-02T11:22:45Z</time>
      </trkpt>
      <trkpt lat="42.6405520" lon="-7.1288120">
        <ele>784.3</ele>
        <time>2014-10-02T11:22:47Z</time>
      </trkpt>
      <trkpt lat="42.6405440" lon="-7.1287520">
        <ele>784.8</ele>
        <time>2014-10-02T11:22:49Z</time>
      </trkpt>
      <trkpt lat="42.6405430" lon="-7.1286950">
        <ele>785.3</ele>
        <time>2014-10-02T11:22:51Z</time>
      </trkpt>
      <trkpt lat="42.6405360" lon="-7.1286330">
        <ele>785.8</ele>
        <time>2014-10-02T11:22:53Z</time>
      </trkpt>
      <trkpt lat="42.6405390" lon="-7.1285690">
        <ele>786.3</ele>
        <time>2014-10-02T11:22:55Z</time>
      </trkpt>
      <trkpt lat="42.6405300" lon="-7.1284910">
        <ele>786.9</ele>
        <time>2014-10-02T11:22:57Z</time>
      </trkpt>
      <trkpt lat="42.6405290" lon="-7.1284490">
        <ele>787.2</ele>
        <time>2014-10-02T11:22:58Z</time>
      </trkpt>
      <trkpt lat="42.6405290" lon="-7.1284100">
        <ele>787.5</ele>
        <time>2014-10-02T11:22:59Z</time>
      </trkpt>
      <trkpt lat="42.6405250" lon="-7.1283510">
        <ele>788.0</ele>
        <time>2014-10-02T11:23:01Z</time>
      </trkpt>
      <trkpt lat="42.6405380" lon="-7.1282810">
        <ele>788.6</ele>
        <time>2014-10-02T11:23:03Z</time>
      </trkpt>
      <trkpt lat="42.6405450" lon="-7.1282190">
        <ele>789.1</ele>
        <time>2014-10-02T11:23:05Z</time>
      </trkpt>
      <trkpt lat="42.6405570" lon="-7.1281860">
        <ele>789.4</ele>
        <time>2014-10-02T11:23:06Z</time>
      </trkpt>
      <trkpt lat="42.6405680" lon="-7.1281160">
        <ele>790.1</ele>
        <time>2014-10-02T11:23:08Z</time>
      </trkpt>
      <trkpt lat="42.6405720" lon="-7.1280740">
        <ele>790.4</ele>
        <time>2014-10-02T11:23:09Z</time>
      </trkpt>
      <trkpt lat="42.6405770" lon="-7.1280380">
        <ele>790.7</ele>
        <time>2014-10-02T11:23:10Z</time>
      </trkpt>
      <trkpt lat="42.6405810" lon="-7.1280010">
        <ele>791.1</ele>
        <time>2014-10-02T11:23:11Z</time>
      </trkpt>
      <trkpt lat="42.6405830" lon="-7.1279350">
        <ele>791.6</ele>
        <time>2014-10-02T11:23:13Z</time>
      </trkpt>
      <trkpt lat="42.6405830" lon="-7.1278650">
        <ele>792.2</ele>
        <time>2014-10-02T11:23:15Z</time>
      </trkpt>
      <trkpt lat="42.6405880" lon="-7.1278070">
        <ele>792.7</ele>
        <time>2014-10-02T11:23:17Z</time>
      </trkpt>
      <trkpt lat="42.6405900" lon="-7.1277370">
        <ele>793.3</ele>
        <time>2014-10-02T11:23:19Z</time>
      </trkpt>
      <trkpt lat="42.6405850" lon="-7.1276960">
        <ele>793.6</ele>
        <time>2014-10-02T11:23:20Z</time>
      </trkpt>
      <trkpt lat="42.6405780" lon="-7.1276330">
        <ele>794.1</ele>
        <time>2014-10-02T11:23:22Z</time>
      </trkpt>
      <trkpt lat="42.6405750" lon="-7.1275740">
        <ele>794.6</ele>
        <time>2014-10-02T11:23:24Z</time>
      </trkpt>
      <trkpt lat="42.6405730" lon="-7.1275170">
        <ele>795.1</ele>
        <time>2014-10-02T11:23:26Z</time>
      </trkpt>
      <trkpt lat="42.6405640" lon="-7.1274630">
        <ele>795.6</ele>
        <time>2014-10-02T11:23:28Z</time>
      </trkpt>
      <trkpt lat="42.6405400" lon="-7.1274270">
        <ele>795.9</ele>
        <time>2014-10-02T11:23:30Z</time>
      </trkpt>
      <trkpt lat="42.6405320" lon="-7.1273850">
        <ele>796.3</ele>
        <time>2014-10-02T11:23:31Z</time>
      </trkpt>
      <trkpt lat="42.6405170" lon="-7.1273210">
        <ele>796.8</ele>
        <time>2014-10-02T11:23:33Z</time>
      </trkpt>
      <trkpt lat="42.6405050" lon="-7.1272870">
        <ele>797.1</ele>
        <time>2014-10-02T11:23:34Z</time>
      </trkpt>
      <trkpt lat="42.6404850" lon="-7.1272210">
        <ele>797.6</ele>
        <time>2014-10-02T11:23:36Z</time>
      </trkpt>
      <trkpt lat="42.6404690" lon="-7.1271600">
        <ele>798.2</ele>
        <time>2014-10-02T11:23:38Z</time>
      </trkpt>
      <trkpt lat="42.6404540" lon="-7.1271120">
        <ele>798.6</ele>
        <time>2014-10-02T11:23:40Z</time>
      </trkpt>
      <trkpt lat="42.6404280" lon="-7.1270630">
        <ele>799.1</ele>
        <time>2014-10-02T11:23:42Z</time>
      </trkpt>
      <trkpt lat="42.6404040" lon="-7.1270180">
        <ele>799.5</ele>
        <time>2014-10-02T11:23:44Z</time>
      </trkpt>
      <trkpt lat="42.6403840" lon="-7.1269790">
        <ele>799.9</ele>
        <time>2014-10-02T11:23:46Z</time>
      </trkpt>
      <trkpt lat="42.6403650" lon="-7.1269400">
        <ele>800.3</ele>
        <time>2014-10-02T11:23:48Z</time>
      </trkpt>
      <trkpt lat="42.6403460" lon="-7.1268950">
        <ele>800.8</ele>
        <time>2014-10-02T11:23:50Z</time>
      </trkpt>
      <trkpt lat="42.6403260" lon="-7.1268490">
        <ele>801.3</ele>
        <time>2014-10-02T11:23:52Z</time>
      </trkpt>
      <trkpt lat="42.6402970" lon="-7.1268040">
        <ele>801.9</ele>
        <time>2014-10-02T11:23:54Z</time>
      </trkpt>
      <trkpt lat="42.6402730" lon="-7.1267650">
        <ele>802.3</ele>
        <time>2014-10-02T11:23:56Z</time>
      </trkpt>
      <trkpt lat="42.6402490" lon="-7.1267170">
        <ele>802.9</ele>
        <time>2014-10-02T11:23:58Z</time>
      </trkpt>
      <trkpt lat="42.6402200" lon="-7.1266790">
        <ele>803.4</ele>
        <time>2014-10-02T11:24:00Z</time>
      </trkpt>
      <trkpt lat="42.6401980" lon="-7.1266470">
        <ele>803.8</ele>
        <time>2014-10-02T11:24:02Z</time>
      </trkpt>
      <trkpt lat="42.6401770" lon="-7.1266170">
        <ele>804.2</ele>
        <time>2014-10-02T11:24:04Z</time>
      </trkpt>
      <trkpt lat="42.6401510" lon="-7.1265720">
        <ele>804.7</ele>
        <time>2014-10-02T11:24:06Z</time>
      </trkpt>
      <trkpt lat="42.6401160" lon="-7.1265280">
        <ele>805.2</ele>
        <time>2014-10-02T11:24:08Z</time>
      </trkpt>
      <trkpt lat="42.6400940" lon="-7.1264770">
        <ele>805.6</ele>
        <time>2014-10-02T11:24:10Z</time>
      </trkpt>
      <trkpt lat="42.6400690" lon="-7.1264250">
        <ele>806.1</ele>
        <time>2014-10-02T11:24:12Z</time>
      </trkpt>
      <trkpt lat="42.6400600" lon="-7.1263560">
        <ele>806.5</ele>
        <time>2014-10-02T11:24:14Z</time>
      </trkpt>
      <trkpt lat="42.6400560" lon="-7.1263100">
        <ele>806.8</ele>
        <time>2014-10-02T11:24:15Z</time>
      </trkpt>
      <trkpt lat="42.6400630" lon="-7.1262590">
        <ele>807.1</ele>
        <time>2014-10-02T11:24:16Z</time>
      </trkpt>
      <trkpt lat="42.6400670" lon="-7.1261990">
        <ele>807.4</ele>
        <time>2014-10-02T11:24:17Z</time>
      </trkpt>
      <trkpt lat="42.6400700" lon="-7.1261400">
        <ele>807.8</ele>
        <time>2014-10-02T11:24:19Z</time>
      </trkpt>
      <trkpt lat="42.6400850" lon="-7.1261070">
        <ele>808.1</ele>
        <time>2014-10-02T11:24:20Z</time>
      </trkpt>
      <trkpt lat="42.6401090" lon="-7.1260690">
        <ele>808.4</ele>
        <time>2014-10-02T11:24:21Z</time>
      </trkpt>
      <trkpt lat="42.6401340" lon="-7.1260400">
        <ele>808.7</ele>
        <time>2014-10-02T11:24:22Z</time>
      </trkpt>
      <trkpt lat="42.6401670" lon="-7.1260030">
        <ele>809.1</ele>
        <time>2014-10-02T11:24:23Z</time>
      </trkpt>
      <trkpt lat="42.6401960" lon="-7.1259760">
        <ele>809.4</ele>
        <time>2014-10-02T11:24:24Z</time>
      </trkpt>
      <trkpt lat="42.6402260" lon="-7.1259510">
        <ele>809.8</ele>
        <time>2014-10-02T11:24:25Z</time>
      </trkpt>
      <trkpt lat="42.6402560" lon="-7.1259300">
        <ele>810.2</ele>
        <time>2014-10-02T11:24:26Z</time>
      </trkpt>
      <trkpt lat="42.6402860" lon="-7.1259140">
        <ele>810.7</ele>
        <time>2014-10-02T11:24:27Z</time>
      </trkpt>
      <trkpt lat="42.6403130" lon="-7.1258980">
        <ele>811.0</ele>
        <time>2014-10-02T11:24:28Z</time>
      </trkpt>
      <trkpt lat="42.6403420" lon="-7.1258790">
        <ele>811.5</ele>
        <time>2014-10-02T11:24:29Z</time>
      </trkpt>
      <trkpt lat="42.6403870" lon="-7.1258530">
        <ele>812.2</ele>
        <time>2014-10-02T11:24:31Z</time>
      </trkpt>
      <trkpt lat="42.6404270" lon="-7.1258350">
        <ele>812.8</ele>
        <time>2014-10-02T11:24:33Z</time>
      </trkpt>
      <trkpt lat="42.6404670" lon="-7.1258170">
        <ele>813.4</ele>
        <time>2014-10-02T11:24:35Z</time>
      </trkpt>
      <trkpt lat="42.6405150" lon="-7.1257990">
        <ele>814.1</ele>
        <time>2014-10-02T11:24:37Z</time>
      </trkpt>
      <trkpt lat="42.6405420" lon="-7.1257910">
        <ele>814.4</ele>
        <time>2014-10-02T11:24:38Z</time>
      </trkpt>
      <trkpt lat="42.6405690" lon="-7.1257840">
        <ele>814.8</ele>
        <time>2014-10-02T11:24:39Z</time>
      </trkpt>
      <trkpt lat="42.6405970" lon="-7.1257760">
        <ele>815.2</ele>
        <time>2014-10-02T11:24:40Z</time>
      </trkpt>
      <trkpt lat="42.6406470" lon="-7.1257650">
        <ele>815.9</ele>
        <time>2014-10-02T11:24:42Z</time>
      </trkpt>
      <trkpt lat="42.6406910" lon="-7.1257530">
        <ele>816.5</ele>
        <time>2014-10-02T11:24:44Z</time>
      </trkpt>
      <trkpt lat="42.6407350" lon="-7.1257410">
        <ele>817.0</ele>
        <time>2014-10-02T11:24:46Z</time>
      </trkpt>
      <trkpt lat="42.6407640" lon="-7.1257340">
        <ele>817.4</ele>
        <time>2014-10-02T11:24:47Z</time>
      </trkpt>
      <trkpt lat="42.6407940" lon="-7.1257290">
        <ele>817.7</ele>
        <time>2014-10-02T11:24:48Z</time>
      </trkpt>
      <trkpt lat="42.6408240" lon="-7.1257220">
        <ele>818.1</ele>
        <time>2014-10-02T11:24:49Z</time>
      </trkpt>
      <trkpt lat="42.6408520" lon="-7.1257170">
        <ele>818.4</ele>
        <time>2014-10-02T11:24:50Z</time>
      </trkpt>
      <trkpt lat="42.6408810" lon="-7.1257090">
        <ele>818.7</ele>
        <time>2014-10-02T11:24:51Z</time>
      </trkpt>
      <trkpt lat="42.6409080" lon="-7.1257020">
        <ele>819.0</ele>
        <time>2014-10-02T11:24:52Z</time>
      </trkpt>
      <trkpt lat="42.6409360" lon="-7.1257020">
        <ele>819.3</ele>
        <time>2014-10-02T11:24:53Z</time>
      </trkpt>
      <trkpt lat="42.6409650" lon="-7.1256980">
        <ele>819.6</ele>
        <time>2014-10-02T11:24:54Z</time>
      </trkpt>
      <trkpt lat="42.6410120" lon="-7.1256890">
        <ele>820.1</ele>
        <time>2014-10-02T11:24:56Z</time>
      </trkpt>
      <trkpt lat="42.6410560" lon="-7.1256770">
        <ele>820.6</ele>
        <time>2014-10-02T11:24:58Z</time>
      </trkpt>
      <trkpt lat="42.6410950" lon="-7.1256700">
        <ele>820.9</ele>
        <time>2014-10-02T11:25:00Z</time>
      </trkpt>
      <trkpt lat="42.6411430" lon="-7.1256610">
        <ele>821.4</ele>
        <time>2014-10-02T11:25:02Z</time>
      </trkpt>
      <trkpt lat="42.6411700" lon="-7.1256580">
        <ele>821.7</ele>
        <time>2014-10-02T11:25:03Z</time>
      </trkpt>
      <trkpt lat="42.6412220" lon="-7.1256630">
        <ele>822.2</ele>
        <time>2014-10-02T11:25:05Z</time>
      </trkpt>
      <trkpt lat="42.6412710" lon="-7.1256690">
        <ele>822.7</ele>
        <time>2014-10-02T11:25:07Z</time>
      </trkpt>
      <trkpt lat="42.6413140" lon="-7.1256710">
        <ele>823.1</ele>
        <time>2014-10-02T11:25:09Z</time>
      </trkpt>
      <trkpt lat="42.6413590" lon="-7.1256680">
        <ele>823.5</ele>
        <time>2014-10-02T11:25:11Z</time>
      </trkpt>
      <trkpt lat="42.6414030" lon="-7.1256620">
        <ele>824.0</ele>
        <time>2014-10-02T11:25:13Z</time>
      </trkpt>
      <trkpt lat="42.6414460" lon="-7.1256500">
        <ele>824.4</ele>
        <time>2014-10-02T11:25:15Z</time>
      </trkpt>
      <trkpt lat="42.6414910" lon="-7.1256390">
        <ele>824.8</ele>
        <time>2014-10-02T11:25:17Z</time>
      </trkpt>
      <trkpt lat="42.6415300" lon="-7.1256300">
        <ele>825.3</ele>
        <time>2014-10-02T11:25:19Z</time>
      </trkpt>
      <trkpt lat="42.6415710" lon="-7.1256210">
        <ele>825.7</ele>
        <time>2014-10-02T11:25:21Z</time>
      </trkpt>
      <trkpt lat="42.6416160" lon="-7.1256120">
        <ele>826.2</ele>
        <time>2014-10-02T11:25:23Z</time>
      </trkpt>
      <trkpt lat="42.6416560" lon="-7.1256040">
        <ele>826.6</ele>
        <time>2014-10-02T11:25:25Z</time>
      </trkpt>
      <trkpt lat="42.6416990" lon="-7.1256010">
        <ele>827.1</ele>
        <time>2014-10-02T11:25:27Z</time>
      </trkpt>
      <trkpt lat="42.6417470" lon="-7.1255960">
        <ele>827.6</ele>
        <time>2014-10-02T11:25:29Z</time>
      </trkpt>
      <trkpt lat="42.6417970" lon="-7.1255880">
        <ele>828.1</ele>
        <time>2014-10-02T11:25:31Z</time>
      </trkpt>
      <trkpt lat="42.6418240" lon="-7.1255820">
        <ele>828.4</ele>
        <time>2014-10-02T11:25:32Z</time>
      </trkpt>
      <trkpt lat="42.6418740" lon="-7.1255690">
        <ele>828.9</ele>
        <time>2014-10-02T11:25:34Z</time>
      </trkpt>
      <trkpt lat="42.6419180" lon="-7.1255560">
        <ele>829.4</ele>
        <time>2014-10-02T11:25:36Z</time>
      </trkpt>
      <trkpt lat="42.6419600" lon="-7.1255470">
        <ele>829.8</ele>
        <time>2014-10-02T11:25:38Z</time>
      </trkpt>
      <trkpt lat="42.6419980" lon="-7.1255370">
        <ele>830.2</ele>
        <time>2014-10-02T11:25:40Z</time>
      </trkpt>
      <trkpt lat="42.6420470" lon="-7.1255230">
        <ele>830.6</ele>
        <time>2014-10-02T11:25:42Z</time>
      </trkpt>
      <trkpt lat="42.6420750" lon="-7.1255130">
        <ele>830.9</ele>
        <time>2014-10-02T11:25:43Z</time>
      </trkpt>
      <trkpt lat="42.6421030" lon="-7.1255030">
        <ele>831.2</ele>
        <time>2014-10-02T11:25:44Z</time>
      </trkpt>
      <trkpt lat="42.6421310" lon="-7.1254940">
        <ele>831.4</ele>
        <time>2014-10-02T11:25:45Z</time>
      </trkpt>
      <trkpt lat="42.6421570" lon="-7.1254800">
        <ele>831.7</ele>
        <time>2014-10-02T11:25:46Z</time>
      </trkpt>
      <trkpt lat="42.6421840" lon="-7.1254670">
        <ele>832.0</ele>
        <time>2014-10-02T11:25:47Z</time>
      </trkpt>
      <trkpt lat="42.6422120" lon="-7.1254540">
        <ele>832.3</ele>
        <time>2014-10-02T11:25:48Z</time>
      </trkpt>
      <trkpt lat="42.6422380" lon="-7.1254380">
        <ele>832.5</ele>
        <time>2014-10-02T11:25:49Z</time>
      </trkpt>
      <trkpt lat="42.6422830" lon="-7.1254050">
        <ele>833.0</ele>
        <time>2014-10-02T11:25:51Z</time>
      </trkpt>
      <trkpt lat="42.6423250" lon="-7.1253760">
        <ele>833.5</ele>
        <time>2014-10-02T11:25:53Z</time>
      </trkpt>
      <trkpt lat="42.6423660" lon="-7.1253430">
        <ele>833.9</ele>
        <time>2014-10-02T11:25:55Z</time>
      </trkpt>
      <trkpt lat="42.6424040" lon="-7.1253090">
        <ele>834.3</ele>
        <time>2014-10-02T11:25:57Z</time>
      </trkpt>
      <trkpt lat="42.6424420" lon="-7.1252750">
        <ele>834.7</ele>
        <time>2014-10-02T11:25:59Z</time>
      </trkpt>
      <trkpt lat="42.6424840" lon="-7.1252410">
        <ele>835.2</ele>
        <time>2014-10-02T11:26:01Z</time>
      </trkpt>
      <trkpt lat="42.6425290" lon="-7.1252060">
        <ele>835.7</ele>
        <time>2014-10-02T11:26:03Z</time>
      </trkpt>
      <trkpt lat="42.6425520" lon="-7.1251830">
        <ele>836.0</ele>
        <time>2014-10-02T11:26:04Z</time>
      </trkpt>
      <trkpt lat="42.6425870" lon="-7.1251490">
        <ele>836.4</ele>
        <time>2014-10-02T11:26:06Z</time>
      </trkpt>
      <trkpt lat="42.6426230" lon="-7.1251080">
        <ele>836.8</ele>
        <time>2014-10-02T11:26:08Z</time>
      </trkpt>
      <trkpt lat="42.6426560" lon="-7.1250610">
        <ele>837.3</ele>
        <time>2014-10-02T11:26:10Z</time>
      </trkpt>
      <trkpt lat="42.6426950" lon="-7.1250080">
        <ele>837.8</ele>
        <time>2014-10-02T11:26:12Z</time>
      </trkpt>
      <trkpt lat="42.6427130" lon="-7.1249800">
        <ele>838.1</ele>
        <time>2014-10-02T11:26:13Z</time>
      </trkpt>
      <trkpt lat="42.6427440" lon="-7.1249270">
        <ele>838.6</ele>
        <time>2014-10-02T11:26:15Z</time>
      </trkpt>
      <trkpt lat="42.6427590" lon="-7.1248950">
        <ele>838.9</ele>
        <time>2014-10-02T11:26:16Z</time>
      </trkpt>
      <trkpt lat="42.6427740" lon="-7.1248640">
        <ele>839.2</ele>
        <time>2014-10-02T11:26:17Z</time>
      </trkpt>
      <trkpt lat="42.6427970" lon="-7.1248070">
        <ele>839.7</ele>
        <time>2014-10-02T11:26:19Z</time>
      </trkpt>
      <trkpt lat="42.6428190" lon="-7.1247520">
        <ele>840.1</ele>
        <time>2014-10-02T11:26:21Z</time>
      </trkpt>
      <trkpt lat="42.6428390" lon="-7.1246910">
        <ele>840.6</ele>
        <time>2014-10-02T11:26:23Z</time>
      </trkpt>
      <trkpt lat="42.6428570" lon="-7.1246280">
        <ele>841.1</ele>
        <time>2014-10-02T11:26:25Z</time>
      </trkpt>
      <trkpt lat="42.6428660" lon="-7.1245920">
        <ele>841.4</ele>
        <time>2014-10-02T11:26:26Z</time>
      </trkpt>
      <trkpt lat="42.6428790" lon="-7.1245350">
        <ele>841.9</ele>
        <time>2014-10-02T11:26:28Z</time>
      </trkpt>
      <trkpt lat="42.6428860" lon="-7.1244790">
        <ele>842.3</ele>
        <time>2014-10-02T11:26:30Z</time>
      </trkpt>
      <trkpt lat="42.6428950" lon="-7.1244210">
        <ele>842.7</ele>
        <time>2014-10-02T11:26:32Z</time>
      </trkpt>
      <trkpt lat="42.6428950" lon="-7.1243670">
        <ele>843.2</ele>
        <time>2014-10-02T11:26:34Z</time>
      </trkpt>
      <trkpt lat="42.6428860" lon="-7.1243190">
        <ele>843.6</ele>
        <time>2014-10-02T11:26:36Z</time>
      </trkpt>
      <trkpt lat="42.6428760" lon="-7.1242680">
        <ele>844.1</ele>
        <time>2014-10-02T11:26:38Z</time>
      </trkpt>
      <trkpt lat="42.6428630" lon="-7.1242050">
        <ele>844.6</ele>
        <time>2014-10-02T11:26:40Z</time>
      </trkpt>
      <trkpt lat="42.6428530" lon="-7.1241710">
        <ele>844.9</ele>
        <time>2014-10-02T11:26:41Z</time>
      </trkpt>
      <trkpt lat="42.6428260" lon="-7.1241280">
        <ele>845.4</ele>
        <time>2014-10-02T11:26:43Z</time>
      </trkpt>
      <trkpt lat="42.6428110" lon="-7.1240690">
        <ele>845.8</ele>
        <time>2014-10-02T11:26:45Z</time>
      </trkpt>
      <trkpt lat="42.6427830" lon="-7.1240170">
        <ele>846.4</ele>
        <time>2014-10-02T11:26:47Z</time>
      </trkpt>
      <trkpt lat="42.6427500" lon="-7.1239690">
        <ele>847.0</ele>
        <time>2014-10-02T11:26:49Z</time>
      </trkpt>
      <trkpt lat="42.6427290" lon="-7.1239180">
        <ele>847.5</ele>
        <time>2014-10-02T11:26:51Z</time>
      </trkpt>
      <trkpt lat="42.6427020" lon="-7.1238660">
        <ele>848.1</ele>
        <time>2014-10-02T11:26:53Z</time>
      </trkpt>
      <trkpt lat="42.6426790" lon="-7.1238210">
        <ele>848.7</ele>
        <time>2014-10-02T11:26:55Z</time>
      </trkpt>
      <trkpt lat="42.6426610" lon="-7.1237650">
        <ele>849.3</ele>
        <time>2014-10-02T11:26:57Z</time>
      </trkpt>
      <trkpt lat="42.6426430" lon="-7.1237120">
        <ele>849.8</ele>
        <time>2014-10-02T11:26:59Z</time>
      </trkpt>
      <trkpt lat="42.6426120" lon="-7.1236700">
        <ele>850.4</ele>
        <time>2014-10-02T11:27:01Z</time>
      </trkpt>
      <trkpt lat="42.6425950" lon="-7.1236150">
        <ele>850.9</ele>
        <time>2014-10-02T11:27:03Z</time>
      </trkpt>
      <trkpt lat="42.6425810" lon="-7.1235500">
        <ele>851.5</ele>
        <time>2014-10-02T11:27:05Z</time>
      </trkpt>
      <trkpt lat="42.6425690" lon="-7.1235010">
        <ele>852.0</ele>
        <time>2014-10-02T11:27:07Z</time>
      </trkpt>
      <trkpt lat="42.6425590" lon="-7.1234450">
        <ele>852.5</ele>
        <time>2014-10-02T11:27:09Z</time>
      </trkpt>
      <trkpt lat="42.6425550" lon="-7.1233800">
        <ele>853.1</ele>
        <time>2014-10-02T11:27:11Z</time>
      </trkpt>
      <trkpt lat="42.6425500" lon="-7.1233240">
        <ele>853.7</ele>
        <time>2014-10-02T11:27:13Z</time>
      </trkpt>
      <trkpt lat="42.6425420" lon="-7.1232740">
        <ele>854.2</ele>
        <time>2014-10-02T11:27:15Z</time>
      </trkpt>
      <trkpt lat="42.6425290" lon="-7.1232220">
        <ele>854.7</ele>
        <time>2014-10-02T11:27:17Z</time>
      </trkpt>
      <trkpt lat="42.6425220" lon="-7.1231620">
        <ele>855.3</ele>
        <time>2014-10-02T11:27:19Z</time>
      </trkpt>
      <trkpt lat="42.6425160" lon="-7.1231060">
        <ele>855.8</ele>
        <time>2014-10-02T11:27:21Z</time>
      </trkpt>
      <trkpt lat="42.6425130" lon="-7.1230510">
        <ele>856.3</ele>
        <time>2014-10-02T11:27:23Z</time>
      </trkpt>
      <trkpt lat="42.6425020" lon="-7.1229940">
        <ele>856.8</ele>
        <time>2014-10-02T11:27:25Z</time>
      </trkpt>
      <trkpt lat="42.6424910" lon="-7.1229360">
        <ele>857.3</ele>
        <time>2014-10-02T11:27:27Z</time>
      </trkpt>
      <trkpt lat="42.6424870" lon="-7.1228740">
        <ele>857.9</ele>
        <time>2014-10-02T11:27:29Z</time>
      </trkpt>
      <trkpt lat="42.6424820" lon="-7.1228230">
        <ele>858.3</ele>
        <time>2014-10-02T11:27:31Z</time>
      </trkpt>
      <trkpt lat="42.6424760" lon="-7.1227620">
        <ele>858.9</ele>
        <time>2014-10-02T11:27:33Z</time>
      </trkpt>
      <trkpt lat="42.6424680" lon="-7.1227000">
        <ele>859.5</ele>
        <time>2014-10-02T11:27:35Z</time>
      </trkpt>
      <trkpt lat="42.6424630" lon="-7.1226590">
        <ele>859.9</ele>
        <time>2014-10-02T11:27:37Z</time>
      </trkpt>
      <trkpt lat="42.6424500" lon="-7.1226100">
        <ele>860.4</ele>
        <time>2014-10-02T11:27:39Z</time>
      </trkpt>
      <trkpt lat="42.6424350" lon="-7.1225550">
        <ele>861.0</ele>
        <time>2014-10-02T11:27:41Z</time>
      </trkpt>
      <trkpt lat="42.6424320" lon="-7.1224940">
        <ele>861.5</ele>
        <time>2014-10-02T11:27:43Z</time>
      </trkpt>
      <trkpt lat="42.6424240" lon="-7.1224470">
        <ele>861.9</ele>
        <time>2014-10-02T11:27:45Z</time>
      </trkpt>
      <trkpt lat="42.6424100" lon="-7.1223870">
        <ele>862.5</ele>
        <time>2014-10-02T11:27:47Z</time>
      </trkpt>
      <trkpt lat="42.6424080" lon="-7.1223460">
        <ele>862.8</ele>
        <time>2014-10-02T11:27:48Z</time>
      </trkpt>
      <trkpt lat="42.6424080" lon="-7.1223050">
        <ele>863.2</ele>
        <time>2014-10-02T11:27:49Z</time>
      </trkpt>
      <trkpt lat="42.6424160" lon="-7.1222410">
        <ele>863.7</ele>
        <time>2014-10-02T11:27:51Z</time>
      </trkpt>
      <trkpt lat="42.6424240" lon="-7.1221780">
        <ele>864.3</ele>
        <time>2014-10-02T11:27:53Z</time>
      </trkpt>
      <trkpt lat="42.6424420" lon="-7.1221190">
        <ele>864.9</ele>
        <time>2014-10-02T11:27:55Z</time>
      </trkpt>
      <trkpt lat="42.6424610" lon="-7.1220580">
        <ele>865.6</ele>
        <time>2014-10-02T11:27:57Z</time>
      </trkpt>
      <trkpt lat="42.6424740" lon="-7.1219990">
        <ele>866.2</ele>
        <time>2014-10-02T11:27:59Z</time>
      </trkpt>
      <trkpt lat="42.6424920" lon="-7.1219490">
        <ele>866.8</ele>
        <time>2014-10-02T11:28:01Z</time>
      </trkpt>
      <trkpt lat="42.6425070" lon="-7.1219030">
        <ele>867.2</ele>
        <time>2014-10-02T11:28:03Z</time>
      </trkpt>
      <trkpt lat="42.6425240" lon="-7.1218550">
        <ele>867.7</ele>
        <time>2014-10-02T11:28:05Z</time>
      </trkpt>
      <trkpt lat="42.6425390" lon="-7.1217940">
        <ele>868.3</ele>
        <time>2014-10-02T11:28:07Z</time>
      </trkpt>
      <trkpt lat="42.6425520" lon="-7.1217320">
        <ele>868.9</ele>
        <time>2014-10-02T11:28:09Z</time>
      </trkpt>
      <trkpt lat="42.6425640" lon="-7.1216800">
        <ele>869.4</ele>
        <time>2014-10-02T11:28:11Z</time>
      </trkpt>
      <trkpt lat="42.6425740" lon="-7.1216250">
        <ele>870.0</ele>
        <time>2014-10-02T11:28:13Z</time>
      </trkpt>
      <trkpt lat="42.6425800" lon="-7.1215670">
        <ele>870.6</ele>
        <time>2014-10-02T11:28:15Z</time>
      </trkpt>
      <trkpt lat="42.6425860" lon="-7.1215080">
        <ele>871.3</ele>
        <time>2014-10-02T11:28:17Z</time>
      </trkpt>
      <trkpt lat="42.6425900" lon="-7.1214510">
        <ele>871.8</ele>
        <time>2014-10-02T11:28:19Z</time>
      </trkpt>
      <trkpt lat="42.6425920" lon="-7.1213950">
        <ele>872.4</ele>
        <time>2014-10-02T11:28:21Z</time>
      </trkpt>
      <trkpt lat="42.6425930" lon="-7.1213460">
        <ele>872.8</ele>
        <time>2014-10-02T11:28:23Z</time>
      </trkpt>
      <trkpt lat="42.6425890" lon="-7.1212930">
        <ele>873.3</ele>
        <time>2014-10-02T11:28:25Z</time>
      </trkpt>
      <trkpt lat="42.6425770" lon="-7.1212430">
        <ele>873.8</ele>
        <time>2014-10-02T11:28:27Z</time>
      </trkpt>
      <trkpt lat="42.6425640" lon="-7.1211890">
        <ele>874.3</ele>
        <time>2014-10-02T11:28:29Z</time>
      </trkpt>
      <trkpt lat="42.6425430" lon="-7.1211420">
        <ele>874.8</ele>
        <time>2014-10-02T11:28:31Z</time>
      </trkpt>
      <trkpt lat="42.6425230" lon="-7.1211130">
        <ele>875.1</ele>
        <time>2014-10-02T11:28:32Z</time>
      </trkpt>
      <trkpt lat="42.6424960" lon="-7.1210650">
        <ele>875.7</ele>
        <time>2014-10-02T11:28:34Z</time>
      </trkpt>
      <trkpt lat="42.6424760" lon="-7.1210080">
        <ele>876.2</ele>
        <time>2014-10-02T11:28:36Z</time>
      </trkpt>
      <trkpt lat="42.6424670" lon="-7.1209710">
        <ele>876.5</ele>
        <time>2014-10-02T11:28:37Z</time>
      </trkpt>
      <trkpt lat="42.6424350" lon="-7.1209220">
        <ele>877.0</ele>
        <time>2014-10-02T11:28:39Z</time>
      </trkpt>
      <trkpt lat="42.6424100" lon="-7.1208750">
        <ele>877.5</ele>
        <time>2014-10-02T11:28:41Z</time>
      </trkpt>
      <trkpt lat="42.6423930" lon="-7.1208300">
        <ele>878.4</ele>
        <time>2014-10-02T11:28:43Z</time>
      </trkpt>
      <trkpt lat="42.6423730" lon="-7.1207790">
        <ele>879.0</ele>
        <time>2014-10-02T11:28:45Z</time>
      </trkpt>
      <trkpt lat="42.6423550" lon="-7.1207290">
        <ele>879.5</ele>
        <time>2014-10-02T11:28:47Z</time>
      </trkpt>
      <trkpt lat="42.6423260" lon="-7.1206810">
        <ele>880.1</ele>
        <time>2014-10-02T11:28:49Z</time>
      </trkpt>
      <trkpt lat="42.6422910" lon="-7.1206510">
        <ele>880.6</ele>
        <time>2014-10-02T11:28:51Z</time>
      </trkpt>
      <trkpt lat="42.6422670" lon="-7.1206050">
        <ele>881.1</ele>
        <time>2014-10-02T11:28:53Z</time>
      </trkpt>
      <trkpt lat="42.6422430" lon="-7.1205530">
        <ele>881.7</ele>
        <time>2014-10-02T11:28:55Z</time>
      </trkpt>
      <trkpt lat="42.6422150" lon="-7.1205150">
        <ele>882.2</ele>
        <time>2014-10-02T11:28:57Z</time>
      </trkpt>
      <trkpt lat="42.6421910" lon="-7.1204460">
        <ele>882.9</ele>
        <time>2014-10-02T11:28:59Z</time>
      </trkpt>
      <trkpt lat="42.6421790" lon="-7.1204060">
        <ele>883.3</ele>
        <time>2014-10-02T11:29:00Z</time>
      </trkpt>
      <trkpt lat="42.6421750" lon="-7.1203410">
        <ele>883.9</ele>
        <time>2014-10-02T11:29:02Z</time>
      </trkpt>
      <trkpt lat="42.6421880" lon="-7.1202850">
        <ele>884.4</ele>
        <time>2014-10-02T11:29:04Z</time>
      </trkpt>
      <trkpt lat="42.6421990" lon="-7.1202480">
        <ele>884.8</ele>
        <time>2014-10-02T11:29:05Z</time>
      </trkpt>
      <trkpt lat="42.6422200" lon="-7.1201810">
        <ele>885.4</ele>
        <time>2014-10-02T11:29:07Z</time>
      </trkpt>
      <trkpt lat="42.6422470" lon="-7.1201130">
        <ele>886.1</ele>
        <time>2014-10-02T11:29:09Z</time>
      </trkpt>
      <trkpt lat="42.6422570" lon="-7.1200730">
        <ele>886.5</ele>
        <time>2014-10-02T11:29:10Z</time>
      </trkpt>
      <trkpt lat="42.6422740" lon="-7.1200340">
        <ele>886.9</ele>
        <time>2014-10-02T11:29:11Z</time>
      </trkpt>
      <trkpt lat="42.6422930" lon="-7.1200010">
        <ele>887.2</ele>
        <time>2014-10-02T11:29:12Z</time>
      </trkpt>
      <trkpt lat="42.6423100" lon="-7.1199700">
        <ele>887.6</ele>
        <time>2014-10-02T11:29:13Z</time>
      </trkpt>
      <trkpt lat="42.6423370" lon="-7.1199080">
        <ele>888.2</ele>
        <time>2014-10-02T11:29:15Z</time>
      </trkpt>
      <trkpt lat="42.6423660" lon="-7.1198470">
        <ele>888.9</ele>
        <time>2014-10-02T11:29:17Z</time>
      </trkpt>
      <trkpt lat="42.6423840" lon="-7.1198160">
        <ele>889.3</ele>
        <time>2014-10-02T11:29:18Z</time>
      </trkpt>
      <trkpt lat="42.6424020" lon="-7.1197640">
        <ele>889.8</ele>
        <time>2014-10-02T11:29:20Z</time>
      </trkpt>
      <trkpt lat="42.6423960" lon="-7.1197160">
        <ele>891.7</ele>
        <time>2014-10-02T11:29:22Z</time>
      </trkpt>
      <trkpt lat="42.6423660" lon="-7.1197010">
        <ele>892.0</ele>
        <time>2014-10-02T11:29:24Z</time>
      </trkpt>
      <trkpt lat="42.6423250" lon="-7.1197240">
        <ele>892.3</ele>
        <time>2014-10-02T11:29:26Z</time>
      </trkpt>
      <trkpt lat="42.6422870" lon="-7.1197640">
        <ele>892.6</ele>
        <time>2014-10-02T11:29:28Z</time>
      </trkpt>
      <trkpt lat="42.6422530" lon="-7.1198140">
        <ele>892.9</ele>
        <time>2014-10-02T11:29:30Z</time>
      </trkpt>
      <trkpt lat="42.6422220" lon="-7.1198630">
        <ele>893.1</ele>
        <time>2014-10-02T11:29:32Z</time>
      </trkpt>
      <trkpt lat="42.6421910" lon="-7.1199170">
        <ele>893.4</ele>
        <time>2014-10-02T11:29:34Z</time>
      </trkpt>
      <trkpt lat="42.6421710" lon="-7.1199500">
        <ele>893.6</ele>
        <time>2014-10-02T11:29:35Z</time>
      </trkpt>
      <trkpt lat="42.6421510" lon="-7.1199900">
        <ele>893.7</ele>
        <time>2014-10-02T11:29:36Z</time>
      </trkpt>
      <trkpt lat="42.6421320" lon="-7.1200360">
        <ele>893.8</ele>
        <time>2014-10-02T11:29:37Z</time>
      </trkpt>
      <trkpt lat="42.6421230" lon="-7.1201030">
        <ele>893.9</ele>
        <time>2014-10-02T11:29:39Z</time>
      </trkpt>
      <trkpt lat="42.6421140" lon="-7.1201480">
        <ele>893.9</ele>
        <time>2014-10-02T11:29:40Z</time>
      </trkpt>
      <trkpt lat="42.6421150" lon="-7.1201910">
        <ele>893.9</ele>
        <time>2014-10-02T11:29:41Z</time>
      </trkpt>
      <trkpt lat="42.6421220" lon="-7.1202320">
        <ele>893.9</ele>
        <time>2014-10-02T11:29:42Z</time>
      </trkpt>
      <trkpt lat="42.6421340" lon="-7.1202890">
        <ele>893.9</ele>
        <time>2014-10-02T11:29:43Z</time>
      </trkpt>
      <trkpt lat="42.6421450" lon="-7.1203500">
        <ele>893.8</ele>
        <time>2014-10-02T11:29:44Z</time>
      </trkpt>
      <trkpt lat="42.6421660" lon="-7.1204110">
        <ele>893.8</ele>
        <time>2014-10-02T11:29:45Z</time>
      </trkpt>
      <trkpt lat="42.6421910" lon="-7.1204600">
        <ele>893.7</ele>
        <time>2014-10-02T11:29:46Z</time>
      </trkpt>
      <trkpt lat="42.6422110" lon="-7.1205100">
        <ele>893.6</ele>
        <time>2014-10-02T11:29:47Z</time>
      </trkpt>
      <trkpt lat="42.6422260" lon="-7.1205660">
        <ele>893.5</ele>
        <time>2014-10-02T11:29:48Z</time>
      </trkpt>
      <trkpt lat="42.6422500" lon="-7.1206230">
        <ele>893.4</ele>
        <time>2014-10-02T11:29:49Z</time>
      </trkpt>
      <trkpt lat="42.6422710" lon="-7.1206780">
        <ele>893.3</ele>
        <time>2014-10-02T11:29:50Z</time>
      </trkpt>
      <trkpt lat="42.6422920" lon="-7.1207350">
        <ele>893.2</ele>
        <time>2014-10-02T11:29:51Z</time>
      </trkpt>
      <trkpt lat="42.6423140" lon="-7.1207960">
        <ele>893.1</ele>
        <time>2014-10-02T11:29:52Z</time>
      </trkpt>
      <trkpt lat="42.6423350" lon="-7.1208650">
        <ele>893.0</ele>
        <time>2014-10-02T11:29:53Z</time>
      </trkpt>
      <trkpt lat="42.6423470" lon="-7.1209370">
        <ele>892.9</ele>
        <time>2014-10-02T11:29:54Z</time>
      </trkpt>
      <trkpt lat="42.6423560" lon="-7.1210150">
        <ele>892.8</ele>
        <time>2014-10-02T11:29:55Z</time>
      </trkpt>
      <trkpt lat="42.6423560" lon="-7.1210960">
        <ele>892.6</ele>
        <time>2014-10-02T11:29:56Z</time>
      </trkpt>
      <trkpt lat="42.6423550" lon="-7.1211870">
        <ele>892.3</ele>
        <time>2014-10-02T11:29:57Z</time>
      </trkpt>
      <trkpt lat="42.6423440" lon="-7.1212740">
        <ele>892.0</ele>
        <time>2014-10-02T11:29:58Z</time>
      </trkpt>
      <trkpt lat="42.6423300" lon="-7.1213550">
        <ele>891.7</ele>
        <time>2014-10-02T11:29:59Z</time>
      </trkpt>
      <trkpt lat="42.6423120" lon="-7.1214390">
        <ele>891.4</ele>
        <time>2014-10-02T11:30:00Z</time>
      </trkpt>
      <trkpt lat="42.6422880" lon="-7.1215220">
        <ele>891.1</ele>
        <time>2014-10-02T11:30:01Z</time>
      </trkpt>
      <trkpt lat="42.6422600" lon="-7.1216050">
        <ele>890.8</ele>
        <time>2014-10-02T11:30:02Z</time>
      </trkpt>
      <trkpt lat="42.6422300" lon="-7.1216870">
        <ele>890.5</ele>
        <time>2014-10-02T11:30:03Z</time>
      </trkpt>
      <trkpt lat="42.6421990" lon="-7.1217710">
        <ele>890.2</ele>
        <time>2014-10-02T11:30:04Z</time>
      </trkpt>
      <trkpt lat="42.6421690" lon="-7.1218640">
        <ele>889.7</ele>
        <time>2014-10-02T11:30:05Z</time>
      </trkpt>
      <trkpt lat="42.6421560" lon="-7.1219500">
        <ele>889.3</ele>
        <time>2014-10-02T11:30:06Z</time>
      </trkpt>
      <trkpt lat="42.6421480" lon="-7.1220340">
        <ele>888.9</ele>
        <time>2014-10-02T11:30:07Z</time>
      </trkpt>
      <trkpt lat="42.6421410" lon="-7.1221390">
        <ele>888.3</ele>
        <time>2014-10-02T11:30:08Z</time>
      </trkpt>
      <trkpt lat="42.6421390" lon="-7.1222570">
        <ele>887.7</ele>
        <time>2014-10-02T11:30:09Z</time>
      </trkpt>
      <trkpt lat="42.6421410" lon="-7.1223830">
        <ele>887.2</ele>
        <time>2014-10-02T11:30:10Z</time>
      </trkpt>
      <trkpt lat="42.6421450" lon="-7.1225090">
        <ele>886.8</ele>
        <time>2014-10-02T11:30:11Z</time>
      </trkpt>
      <trkpt lat="42.6421490" lon="-7.1226280">
        <ele>886.4</ele>
        <time>2014-10-02T11:30:12Z</time>
      </trkpt>
      <trkpt lat="42.6421520" lon="-7.1227380">
        <ele>886.1</ele>
        <time>2014-10-02T11:30:13Z</time>
      </trkpt>
      <trkpt lat="42.6421500" lon="-7.1228480">
        <ele>885.8</ele>
        <time>2014-10-02T11:30:14Z</time>
      </trkpt>
      <trkpt lat="42.6421440" lon="-7.1229510">
        <ele>885.5</ele>
        <time>2014-10-02T11:30:15Z</time>
      </trkpt>
      <trkpt lat="42.6421320" lon="-7.1230610">
        <ele>885.3</ele>
        <time>2014-10-02T11:30:16Z</time>
      </trkpt>
      <trkpt lat="42.6421160" lon="-7.1231660">
        <ele>885.1</ele>
        <time>2014-10-02T11:30:17Z</time>
      </trkpt>
      <trkpt lat="42.6420940" lon="-7.1232680">
        <ele>885.0</ele>
        <time>2014-10-02T11:30:18Z</time>
      </trkpt>
      <trkpt lat="42.6420670" lon="-7.1233610">
        <ele>884.8</ele>
        <time>2014-10-02T11:30:19Z</time>
      </trkpt>
      <trkpt lat="42.6420250" lon="-7.1234460">
        <ele>884.7</ele>
        <time>2014-10-02T11:30:20Z</time>
      </trkpt>
      <trkpt lat="42.6419830" lon="-7.1235280">
        <ele>884.5</ele>
        <time>2014-10-02T11:30:21Z</time>
      </trkpt>
      <trkpt lat="42.6419380" lon="-7.1236040">
        <ele>884.4</ele>
        <time>2014-10-02T11:30:22Z</time>
      </trkpt>
      <trkpt lat="42.6418910" lon="-7.1236770">
        <ele>884.4</ele>
        <time>2014-10-02T11:30:23Z</time>
      </trkpt>
      <trkpt lat="42.6418400" lon="-7.1237440">
        <ele>884.3</ele>
        <time>2014-10-02T11:30:24Z</time>
      </trkpt>
      <trkpt lat="42.6417810" lon="-7.1237940">
        <ele>884.2</ele>
        <time>2014-10-02T11:30:25Z</time>
      </trkpt>
      <trkpt lat="42.6417190" lon="-7.1238400">
        <ele>884.2</ele>
        <time>2014-10-02T11:30:26Z</time>
      </trkpt>
      <trkpt lat="42.6416590" lon="-7.1238800">
        <ele>884.1</ele>
        <time>2014-10-02T11:30:27Z</time>
      </trkpt>
      <trkpt lat="42.6416000" lon="-7.1239180">
        <ele>884.1</ele>
        <time>2014-10-02T11:30:28Z</time>
      </trkpt>
      <trkpt lat="42.6415380" lon="-7.1239540">
        <ele>884.1</ele>
        <time>2014-10-02T11:30:29Z</time>
      </trkpt>
      <trkpt lat="42.6414750" lon="-7.1239830">
        <ele>884.0</ele>
        <time>2014-10-02T11:30:30Z</time>
      </trkpt>
      <trkpt lat="42.6414060" lon="-7.1240100">
        <ele>884.0</ele>
        <time>2014-10-02T11:30:31Z</time>
      </trkpt>
      <trkpt lat="42.6413370" lon="-7.1240330">
        <ele>883.9</ele>
        <time>2014-10-02T11:30:32Z</time>
      </trkpt>
      <trkpt lat="42.6412670" lon="-7.1240510">
        <ele>883.8</ele>
        <time>2014-10-02T11:30:33Z</time>
      </trkpt>
      <trkpt lat="42.6411930" lon="-7.1240660">
        <ele>883.8</ele>
        <time>2014-10-02T11:30:34Z</time>
      </trkpt>
      <trkpt lat="42.6411180" lon="-7.1240760">
        <ele>883.8</ele>
        <time>2014-10-02T11:30:35Z</time>
      </trkpt>
      <trkpt lat="42.6410430" lon="-7.1240840">
        <ele>883.8</ele>
        <time>2014-10-02T11:30:36Z</time>
      </trkpt>
      <trkpt lat="42.6409680" lon="-7.1240910">
        <ele>883.8</ele>
        <time>2014-10-02T11:30:37Z</time>
      </trkpt>
      <trkpt lat="42.6408960" lon="-7.1240930">
        <ele>883.8</ele>
        <time>2014-10-02T11:30:38Z</time>
      </trkpt>
      <trkpt lat="42.6408240" lon="-7.1240950">
        <ele>883.9</ele>
        <time>2014-10-02T11:30:39Z</time>
      </trkpt>
      <trkpt lat="42.6407540" lon="-7.1240990">
        <ele>884.0</ele>
        <time>2014-10-02T11:30:40Z</time>
      </trkpt>
      <trkpt lat="42.6406810" lon="-7.1241020">
        <ele>884.0</ele>
        <time>2014-10-02T11:30:41Z</time>
      </trkpt>
      <trkpt lat="42.6406110" lon="-7.1241110">
        <ele>884.1</ele>
        <time>2014-10-02T11:30:42Z</time>
      </trkpt>
      <trkpt lat="42.6405440" lon="-7.1241230">
        <ele>884.1</ele>
        <time>2014-10-02T11:30:43Z</time>
      </trkpt>
      <trkpt lat="42.6404770" lon="-7.1241350">
        <ele>884.1</ele>
        <time>2014-10-02T11:30:44Z</time>
      </trkpt>
      <trkpt lat="42.6404080" lon="-7.1241510">
        <ele>884.1</ele>
        <time>2014-10-02T11:30:45Z</time>
      </trkpt>
      <trkpt lat="42.6403370" lon="-7.1241690">
        <ele>884.1</ele>
        <time>2014-10-02T11:30:46Z</time>
      </trkpt>
      <trkpt lat="42.6402650" lon="-7.1241870">
        <ele>884.2</ele>
        <time>2014-10-02T11:30:47Z</time>
      </trkpt>
      <trkpt lat="42.6401940" lon="-7.1242050">
        <ele>884.3</ele>
        <time>2014-10-02T11:30:48Z</time>
      </trkpt>
      <trkpt lat="42.6401200" lon="-7.1242200">
        <ele>884.4</ele>
        <time>2014-10-02T11:30:49Z</time>
      </trkpt>
      <trkpt lat="42.6400470" lon="-7.1242360">
        <ele>884.6</ele>
        <time>2014-10-02T11:30:50Z</time>
      </trkpt>
      <trkpt lat="42.6399790" lon="-7.1242450">
        <ele>884.9</ele>
        <time>2014-10-02T11:30:51Z</time>
      </trkpt>
      <trkpt lat="42.6399140" lon="-7.1242510">
        <ele>885.2</ele>
        <time>2014-10-02T11:30:52Z</time>
      </trkpt>
      <trkpt lat="42.6398490" lon="-7.1242510">
        <ele>885.5</ele>
        <time>2014-10-02T11:30:53Z</time>
      </trkpt>
      <trkpt lat="42.6397890" lon="-7.1242480">
        <ele>885.8</ele>
        <time>2014-10-02T11:30:54Z</time>
      </trkpt>
      <trkpt lat="42.6397320" lon="-7.1242450">
        <ele>886.0</ele>
        <time>2014-10-02T11:30:55Z</time>
      </trkpt>
      <trkpt lat="42.6396770" lon="-7.1242400">
        <ele>886.3</ele>
        <time>2014-10-02T11:30:56Z</time>
      </trkpt>
      <trkpt lat="42.6396190" lon="-7.1242380">
        <ele>886.6</ele>
        <time>2014-10-02T11:30:57Z</time>
      </trkpt>
      <trkpt lat="42.6395660" lon="-7.1242370">
        <ele>886.9</ele>
        <time>2014-10-02T11:30:58Z</time>
      </trkpt>
      <trkpt lat="42.6395120" lon="-7.1242370">
        <ele>887.2</ele>
        <time>2014-10-02T11:30:59Z</time>
      </trkpt>
      <trkpt lat="42.6394630" lon="-7.1242370">
        <ele>887.5</ele>
        <time>2014-10-02T11:31:00Z</time>
      </trkpt>
      <trkpt lat="42.6394130" lon="-7.1242380">
        <ele>887.7</ele>
        <time>2014-10-02T11:31:01Z</time>
      </trkpt>
      <trkpt lat="42.6393650" lon="-7.1242420">
        <ele>888.0</ele>
        <time>2014-10-02T11:31:02Z</time>
      </trkpt>
      <trkpt lat="42.6393170" lon="-7.1242460">
        <ele>888.3</ele>
        <time>2014-10-02T11:31:03Z</time>
      </trkpt>
      <trkpt lat="42.6392720" lon="-7.1242550">
        <ele>888.6</ele>
        <time>2014-10-02T11:31:04Z</time>
      </trkpt>
      <trkpt lat="42.6392270" lon="-7.1242700">
        <ele>888.9</ele>
        <time>2014-10-02T11:31:05Z</time>
      </trkpt>
      <trkpt lat="42.6391810" lon="-7.1242870">
        <ele>889.2</ele>
        <time>2014-10-02T11:31:06Z</time>
      </trkpt>
      <trkpt lat="42.6391310" lon="-7.1243270">
        <ele>889.5</ele>
        <time>2014-10-02T11:31:07Z</time>
      </trkpt>
      <trkpt lat="42.6390920" lon="-7.1243650">
        <ele>889.8</ele>
        <time>2014-10-02T11:31:08Z</time>
      </trkpt>
      <trkpt lat="42.6390540" lon="-7.1244090">
        <ele>890.1</ele>
        <time>2014-10-02T11:31:09Z</time>
      </trkpt>
      <trkpt lat="42.6390270" lon="-7.1244500">
        <ele>890.4</ele>
        <time>2014-10-02T11:31:10Z</time>
      </trkpt>
      <trkpt lat="42.6390100" lon="-7.1245010">
        <ele>890.6</ele>
        <time>2014-10-02T11:31:11Z</time>
      </trkpt>
      <trkpt lat="42.6389920" lon="-7.1245580">
        <ele>890.9</ele>
        <time>2014-10-02T11:31:12Z</time>
      </trkpt>
      <trkpt lat="42.6389770" lon="-7.1246130">
        <ele>891.2</ele>
        <time>2014-10-02T11:31:13Z</time>
      </trkpt>
      <trkpt lat="42.6389670" lon="-7.1246620">
        <ele>891.5</ele>
        <time>2014-10-02T11:31:14Z</time>
      </trkpt>
      <trkpt lat="42.6389560" lon="-7.1247090">
        <ele>891.8</ele>
        <time>2014-10-02T11:31:15Z</time>
      </trkpt>
      <trkpt lat="42.6389470" lon="-7.1247550">
        <ele>892.0</ele>
        <time>2014-10-02T11:31:16Z</time>
      </trkpt>
      <trkpt lat="42.6389410" lon="-7.1247980">
        <ele>892.2</ele>
        <time>2014-10-02T11:31:17Z</time>
      </trkpt>
      <trkpt lat="42.6389370" lon="-7.1248380">
        <ele>892.4</ele>
        <time>2014-10-02T11:31:18Z</time>
      </trkpt>
      <trkpt lat="42.6389340" lon="-7.1248770">
        <ele>892.7</ele>
        <time>2014-10-02T11:31:19Z</time>
      </trkpt>
      <trkpt lat="42.6389290" lon="-7.1249180">
        <ele>892.9</ele>
        <time>2014-10-02T11:31:20Z</time>
      </trkpt>
      <trkpt lat="42.6389240" lon="-7.1249580">
        <ele>893.1</ele>
        <time>2014-10-02T11:31:21Z</time>
      </trkpt>
      <trkpt lat="42.6389190" lon="-7.1249940">
        <ele>893.3</ele>
        <time>2014-10-02T11:31:22Z</time>
      </trkpt>
      <trkpt lat="42.6389120" lon="-7.1250370">
        <ele>893.5</ele>
        <time>2014-10-02T11:31:23Z</time>
      </trkpt>
      <trkpt lat="42.6389050" lon="-7.1250840">
        <ele>893.8</ele>
        <time>2014-10-02T11:31:24Z</time>
      </trkpt>
      <trkpt lat="42.6388980" lon="-7.1251270">
        <ele>894.0</ele>
        <time>2014-10-02T11:31:25Z</time>
      </trkpt>
      <trkpt lat="42.6388900" lon="-7.1251770">
        <ele>894.3</ele>
        <time>2014-10-02T11:31:26Z</time>
      </trkpt>
      <trkpt lat="42.6388830" lon="-7.1252200">
        <ele>894.6</ele>
        <time>2014-10-02T11:31:27Z</time>
      </trkpt>
      <trkpt lat="42.6388760" lon="-7.1252590">
        <ele>894.9</ele>
        <time>2014-10-02T11:31:28Z</time>
      </trkpt>
      <trkpt lat="42.6388700" lon="-7.1252960">
        <ele>895.1</ele>
        <time>2014-10-02T11:31:29Z</time>
      </trkpt>
      <trkpt lat="42.6388630" lon="-7.1253350">
        <ele>895.4</ele>
        <time>2014-10-02T11:31:30Z</time>
      </trkpt>
      <trkpt lat="42.6388560" lon="-7.1253780">
        <ele>895.7</ele>
        <time>2014-10-02T11:31:31Z</time>
      </trkpt>
      <trkpt lat="42.6388490" lon="-7.1254170">
        <ele>895.9</ele>
        <time>2014-10-02T11:31:32Z</time>
      </trkpt>
      <trkpt lat="42.6388400" lon="-7.1254580">
        <ele>896.2</ele>
        <time>2014-10-02T11:31:33Z</time>
      </trkpt>
      <trkpt lat="42.6388320" lon="-7.1254970">
        <ele>896.4</ele>
        <time>2014-10-02T11:31:34Z</time>
      </trkpt>
      <trkpt lat="42.6388220" lon="-7.1255330">
        <ele>896.6</ele>
        <time>2014-10-02T11:31:35Z</time>
      </trkpt>
      <trkpt lat="42.6388110" lon="-7.1255720">
        <ele>896.9</ele>
        <time>2014-10-02T11:31:36Z</time>
      </trkpt>
      <trkpt lat="42.6387940" lon="-7.1256330">
        <ele>897.3</ele>
        <time>2014-10-02T11:31:38Z</time>
      </trkpt>
      <trkpt lat="42.6387750" lon="-7.1256980">
        <ele>897.7</ele>
        <time>2014-10-02T11:31:40Z</time>
      </trkpt>
      <trkpt lat="42.6387650" lon="-7.1257340">
        <ele>897.9</ele>
        <time>2014-10-02T11:31:41Z</time>
      </trkpt>
      <trkpt lat="42.6387540" lon="-7.1257700">
        <ele>898.2</ele>
        <time>2014-10-02T11:31:42Z</time>
      </trkpt>
      <trkpt lat="42.6387430" lon="-7.1258090">
        <ele>898.4</ele>
        <time>2014-10-02T11:31:43Z</time>
      </trkpt>
      <trkpt lat="42.6387310" lon="-7.1258480">
        <ele>898.7</ele>
        <time>2014-10-02T11:31:44Z</time>
      </trkpt>
      <trkpt lat="42.6387190" lon="-7.1258850">
        <ele>898.9</ele>
        <time>2014-10-02T11:31:45Z</time>
      </trkpt>
      <trkpt lat="42.6387090" lon="-7.1259210">
        <ele>899.1</ele>
        <time>2014-10-02T11:31:46Z</time>
      </trkpt>
      <trkpt lat="42.6386970" lon="-7.1259570">
        <ele>899.3</ele>
        <time>2014-10-02T11:31:47Z</time>
      </trkpt>
      <trkpt lat="42.6386660" lon="-7.1260230">
        <ele>899.7</ele>
        <time>2014-10-02T11:31:49Z</time>
      </trkpt>
      <trkpt lat="42.6386490" lon="-7.1260530">
        <ele>899.9</ele>
        <time>2014-10-02T11:31:50Z</time>
      </trkpt>
      <trkpt lat="42.6386310" lon="-7.1260830">
        <ele>900.1</ele>
        <time>2014-10-02T11:31:51Z</time>
      </trkpt>
      <trkpt lat="42.6386130" lon="-7.1261120">
        <ele>900.2</ele>
        <time>2014-10-02T11:31:52Z</time>
      </trkpt>
      <trkpt lat="42.6385900" lon="-7.1261400">
        <ele>900.4</ele>
        <time>2014-10-02T11:31:53Z</time>
      </trkpt>
      <trkpt lat="42.6385670" lon="-7.1261660">
        <ele>900.6</ele>
        <time>2014-10-02T11:31:54Z</time>
      </trkpt>
      <trkpt lat="42.6385430" lon="-7.1261900">
        <ele>900.8</ele>
        <time>2014-10-02T11:31:55Z</time>
      </trkpt>
      <trkpt lat="42.6385210" lon="-7.1262120">
        <ele>901.0</ele>
        <time>2014-10-02T11:31:56Z</time>
      </trkpt>
      <trkpt lat="42.6384740" lon="-7.1262460">
        <ele>901.3</ele>
        <time>2014-10-02T11:31:58Z</time>
      </trkpt>
      <trkpt lat="42.6384460" lon="-7.1262550">
        <ele>901.5</ele>
        <time>2014-10-02T11:31:59Z</time>
      </trkpt>
      <trkpt lat="42.6384170" lon="-7.1262630">
        <ele>901.7</ele>
        <time>2014-10-02T11:32:00Z</time>
      </trkpt>
      <trkpt lat="42.6383870" lon="-7.1262690">
        <ele>901.8</ele>
        <time>2014-10-02T11:32:01Z</time>
      </trkpt>
      <trkpt lat="42.6383570" lon="-7.1262660">
        <ele>902.0</ele>
        <time>2014-10-02T11:32:02Z</time>
      </trkpt>
      <trkpt lat="42.6383270" lon="-7.1262600">
        <ele>902.2</ele>
        <time>2014-10-02T11:32:03Z</time>
      </trkpt>
      <trkpt lat="42.6382980" lon="-7.1262520">
        <ele>902.5</ele>
        <time>2014-10-02T11:32:04Z</time>
      </trkpt>
      <trkpt lat="42.6382550" lon="-7.1262100">
        <ele>903.0</ele>
        <time>2014-10-02T11:32:06Z</time>
      </trkpt>
      <trkpt lat="42.6382340" lon="-7.1261850">
        <ele>903.3</ele>
        <time>2014-10-02T11:32:07Z</time>
      </trkpt>
      <trkpt lat="42.6382120" lon="-7.1261580">
        <ele>903.6</ele>
        <time>2014-10-02T11:32:08Z</time>
      </trkpt>
      <trkpt lat="42.6381900" lon="-7.1261280">
        <ele>903.9</ele>
        <time>2014-10-02T11:32:09Z</time>
      </trkpt>
      <trkpt lat="42.6381510" lon="-7.1260660">
        <ele>904.5</ele>
        <time>2014-10-02T11:32:11Z</time>
      </trkpt>
      <trkpt lat="42.6381320" lon="-7.1260360">
        <ele>904.8</ele>
        <time>2014-10-02T11:32:12Z</time>
      </trkpt>
      <trkpt lat="42.6381120" lon="-7.1260030">
        <ele>905.1</ele>
        <time>2014-10-02T11:32:13Z</time>
      </trkpt>
      <trkpt lat="42.6380870" lon="-7.1259640">
        <ele>905.4</ele>
        <time>2014-10-02T11:32:14Z</time>
      </trkpt>
      <trkpt lat="42.6380630" lon="-7.1259270">
        <ele>905.7</ele>
        <time>2014-10-02T11:32:15Z</time>
      </trkpt>
      <trkpt lat="42.6380420" lon="-7.1258930">
        <ele>905.9</ele>
        <time>2014-10-02T11:32:16Z</time>
      </trkpt>
      <trkpt lat="42.6380210" lon="-7.1258570">
        <ele>906.2</ele>
        <time>2014-10-02T11:32:17Z</time>
      </trkpt>
      <trkpt lat="42.6380020" lon="-7.1258230">
        <ele>906.4</ele>
        <time>2014-10-02T11:32:18Z</time>
      </trkpt>
      <trkpt lat="42.6379780" lon="-7.1257780">
        <ele>906.7</ele>
        <time>2014-10-02T11:32:19Z</time>
      </trkpt>
      <trkpt lat="42.6379570" lon="-7.1257320">
        <ele>907.0</ele>
        <time>2014-10-02T11:32:20Z</time>
      </trkpt>
      <trkpt lat="42.6379360" lon="-7.1256850">
        <ele>907.3</ele>
        <time>2014-10-02T11:32:21Z</time>
      </trkpt>
      <trkpt lat="42.6379160" lon="-7.1256380">
        <ele>907.6</ele>
        <time>2014-10-02T11:32:22Z</time>
      </trkpt>
      <trkpt lat="42.6378950" lon="-7.1256010">
        <ele>907.8</ele>
        <time>2014-10-02T11:32:23Z</time>
      </trkpt>
      <trkpt lat="42.6378750" lon="-7.1255590">
        <ele>908.1</ele>
        <time>2014-10-02T11:32:24Z</time>
      </trkpt>
      <trkpt lat="42.6378520" lon="-7.1255100">
        <ele>908.4</ele>
        <time>2014-10-02T11:32:25Z</time>
      </trkpt>
      <trkpt lat="42.6378280" lon="-7.1254580">
        <ele>908.7</ele>
        <time>2014-10-02T11:32:26Z</time>
      </trkpt>
      <trkpt lat="42.6378030" lon="-7.1254080">
        <ele>908.9</ele>
        <time>2014-10-02T11:32:27Z</time>
      </trkpt>
      <trkpt lat="42.6377790" lon="-7.1253620">
        <ele>909.2</ele>
        <time>2014-10-02T11:32:28Z</time>
      </trkpt>
      <trkpt lat="42.6377550" lon="-7.1253170">
        <ele>909.5</ele>
        <time>2014-10-02T11:32:29Z</time>
      </trkpt>
      <trkpt lat="42.6377310" lon="-7.1252710">
        <ele>909.7</ele>
        <time>2014-10-02T11:32:30Z</time>
      </trkpt>
      <trkpt lat="42.6377100" lon="-7.1252320">
        <ele>910.0</ele>
        <time>2014-10-02T11:32:31Z</time>
      </trkpt>
      <trkpt lat="42.6376890" lon="-7.1251990">
        <ele>910.2</ele>
        <time>2014-10-02T11:32:32Z</time>
      </trkpt>
      <trkpt lat="42.6376620" lon="-7.1251550">
        <ele>910.5</ele>
        <time>2014-10-02T11:32:33Z</time>
      </trkpt>
      <trkpt lat="42.6376360" lon="-7.1251070">
        <ele>910.8</ele>
        <time>2014-10-02T11:32:34Z</time>
      </trkpt>
      <trkpt lat="42.6376150" lon="-7.1250680">
        <ele>911.0</ele>
        <time>2014-10-02T11:32:35Z</time>
      </trkpt>
      <trkpt lat="42.6375900" lon="-7.1250210">
        <ele>911.3</ele>
        <time>2014-10-02T11:32:36Z</time>
      </trkpt>
      <trkpt lat="42.6375650" lon="-7.1249780">
        <ele>911.6</ele>
        <time>2014-10-02T11:32:37Z</time>
      </trkpt>
      <trkpt lat="42.6375350" lon="-7.1249270">
        <ele>911.9</ele>
        <time>2014-10-02T11:32:38Z</time>
      </trkpt>
      <trkpt lat="42.6375050" lon="-7.1248760">
        <ele>912.1</ele>
        <time>2014-10-02T11:32:39Z</time>
      </trkpt>
      <trkpt lat="42.6374700" lon="-7.1248370">
        <ele>912.3</ele>
        <time>2014-10-02T11:32:40Z</time>
      </trkpt>
      <trkpt lat="42.6374360" lon="-7.1248000">
        <ele>912.5</ele>
        <time>2014-10-02T11:32:41Z</time>
      </trkpt>
      <trkpt lat="42.6374060" lon="-7.1247670">
        <ele>912.7</ele>
        <time>2014-10-02T11:32:42Z</time>
      </trkpt>
      <trkpt lat="42.6373770" lon="-7.1247320">
        <ele>912.9</ele>
        <time>2014-10-02T11:32:43Z</time>
      </trkpt>
      <trkpt lat="42.6373470" lon="-7.1246980">
        <ele>913.1</ele>
        <time>2014-10-02T11:32:44Z</time>
      </trkpt>
      <trkpt lat="42.6373080" lon="-7.1246680">
        <ele>913.3</ele>
        <time>2014-10-02T11:32:45Z</time>
      </trkpt>
      <trkpt lat="42.6372690" lon="-7.1246540">
        <ele>913.5</ele>
        <time>2014-10-02T11:32:46Z</time>
      </trkpt>
      <trkpt lat="42.6372260" lon="-7.1246420">
        <ele>913.8</ele>
        <time>2014-10-02T11:32:47Z</time>
      </trkpt>
      <trkpt lat="42.6371770" lon="-7.1246330">
        <ele>914.0</ele>
        <time>2014-10-02T11:32:48Z</time>
      </trkpt>
      <trkpt lat="42.6371250" lon="-7.1246440">
        <ele>914.2</ele>
        <time>2014-10-02T11:32:49Z</time>
      </trkpt>
      <trkpt lat="42.6370710" lon="-7.1246570">
        <ele>914.4</ele>
        <time>2014-10-02T11:32:50Z</time>
      </trkpt>
      <trkpt lat="42.6370190" lon="-7.1246710">
        <ele>914.6</ele>
        <time>2014-10-02T11:32:51Z</time>
      </trkpt>
      <trkpt lat="42.6369730" lon="-7.1246850">
        <ele>914.8</ele>
        <time>2014-10-02T11:32:52Z</time>
      </trkpt>
      <trkpt lat="42.6369240" lon="-7.1246940">
        <ele>915.0</ele>
        <time>2014-10-02T11:32:53Z</time>
      </trkpt>
      <trkpt lat="42.6368740" lon="-7.1246990">
        <ele>915.3</ele>
        <time>2014-10-02T11:32:54Z</time>
      </trkpt>
      <trkpt lat="42.6368270" lon="-7.1246970">
        <ele>915.6</ele>
        <time>2014-10-02T11:32:55Z</time>
      </trkpt>
      <trkpt lat="42.6367890" lon="-7.1246800">
        <ele>915.9</ele>
        <time>2014-10-02T11:32:56Z</time>
      </trkpt>
      <trkpt lat="42.6367390" lon="-7.1246600">
        <ele>916.2</ele>
        <time>2014-10-02T11:32:57Z</time>
      </trkpt>
      <trkpt lat="42.6366910" lon="-7.1246400">
        <ele>916.6</ele>
        <time>2014-10-02T11:32:58Z</time>
      </trkpt>
      <trkpt lat="42.6366500" lon="-7.1246180">
        <ele>916.9</ele>
        <time>2014-10-02T11:32:59Z</time>
      </trkpt>
      <trkpt lat="42.6366070" lon="-7.1245900">
        <ele>917.3</ele>
        <time>2014-10-02T11:33:00Z</time>
      </trkpt>
      <trkpt lat="42.6365730" lon="-7.1245530">
        <ele>917.7</ele>
        <time>2014-10-02T11:33:01Z</time>
      </trkpt>
      <trkpt lat="42.6365390" lon="-7.1245140">
        <ele>918.2</ele>
        <time>2014-10-02T11:33:02Z</time>
      </trkpt>
      <trkpt lat="42.6365060" lon="-7.1244750">
        <ele>918.7</ele>
        <time>2014-10-02T11:33:03Z</time>
      </trkpt>
      <trkpt lat="42.6364790" lon="-7.1244400">
        <ele>919.1</ele>
        <time>2014-10-02T11:33:04Z</time>
      </trkpt>
      <trkpt lat="42.6364550" lon="-7.1244030">
        <ele>919.5</ele>
        <time>2014-10-02T11:33:05Z</time>
      </trkpt>
      <trkpt lat="42.6364270" lon="-7.1243590">
        <ele>919.9</ele>
        <time>2014-10-02T11:33:06Z</time>
      </trkpt>
      <trkpt lat="42.6364080" lon="-7.1243230">
        <ele>920.3</ele>
        <time>2014-10-02T11:33:07Z</time>
      </trkpt>
      <trkpt lat="42.6363910" lon="-7.1242910">
        <ele>920.6</ele>
        <time>2014-10-02T11:33:08Z</time>
      </trkpt>
      <trkpt lat="42.6363630" lon="-7.1242280">
        <ele>921.1</ele>
        <time>2014-10-02T11:33:10Z</time>
      </trkpt>
      <trkpt lat="42.6363470" lon="-7.1241920">
        <ele>921.5</ele>
        <time>2014-10-02T11:33:11Z</time>
      </trkpt>
      <trkpt lat="42.6363320" lon="-7.1241510">
        <ele>921.9</ele>
        <time>2014-10-02T11:33:12Z</time>
      </trkpt>
      <trkpt lat="42.6363180" lon="-7.1241130">
        <ele>922.3</ele>
        <time>2014-10-02T11:33:13Z</time>
      </trkpt>
      <trkpt lat="42.6363010" lon="-7.1240710">
        <ele>922.7</ele>
        <time>2014-10-02T11:33:14Z</time>
      </trkpt>
      <trkpt lat="42.6362860" lon="-7.1240330">
        <ele>923.1</ele>
        <time>2014-10-02T11:33:15Z</time>
      </trkpt>
      <trkpt lat="42.6362720" lon="-7.1239990">
        <ele>923.5</ele>
        <time>2014-10-02T11:33:16Z</time>
      </trkpt>
      <trkpt lat="42.6362550" lon="-7.1239610">
        <ele>924.0</ele>
        <time>2014-10-02T11:33:17Z</time>
      </trkpt>
      <trkpt lat="42.6362340" lon="-7.1239110">
        <ele>924.5</ele>
        <time>2014-10-02T11:33:19Z</time>
      </trkpt>
      <trkpt lat="42.6362210" lon="-7.1238510">
        <ele>925.4</ele>
        <time>2014-10-02T11:33:21Z</time>
      </trkpt>
      <trkpt lat="42.6362130" lon="-7.1238100">
        <ele>926.0</ele>
        <time>2014-10-02T11:33:22Z</time>
      </trkpt>
      <trkpt lat="42.6362040" lon="-7.1237680">
        <ele>926.7</ele>
        <time>2014-10-02T11:33:23Z</time>
      </trkpt>
      <trkpt lat="42.6361960" lon="-7.1237320">
        <ele>927.2</ele>
        <time>2014-10-02T11:33:24Z</time>
      </trkpt>
      <trkpt lat="42.6361880" lon="-7.1236930">
        <ele>927.8</ele>
        <time>2014-10-02T11:33:25Z</time>
      </trkpt>
      <trkpt lat="42.6361820" lon="-7.1236500">
        <ele>928.4</ele>
        <time>2014-10-02T11:33:26Z</time>
      </trkpt>
      <trkpt lat="42.6361700" lon="-7.1235810">
        <ele>929.4</ele>
        <time>2014-10-02T11:33:28Z</time>
      </trkpt>
      <trkpt lat="42.6361600" lon="-7.1235050">
        <ele>930.5</ele>
        <time>2014-10-02T11:33:30Z</time>
      </trkpt>
      <trkpt lat="42.6361550" lon="-7.1234340">
        <ele>931.4</ele>
        <time>2014-10-02T11:33:32Z</time>
      </trkpt>
      <trkpt lat="42.6361510" lon="-7.1233970">
        <ele>931.9</ele>
        <time>2014-10-02T11:33:33Z</time>
      </trkpt>
      <trkpt lat="42.6361420" lon="-7.1233230">
        <ele>932.9</ele>
        <time>2014-10-02T11:33:35Z</time>
      </trkpt>
      <trkpt lat="42.6361360" lon="-7.1232830">
        <ele>933.4</ele>
        <time>2014-10-02T11:33:36Z</time>
      </trkpt>
      <trkpt lat="42.6361290" lon="-7.1232400">
        <ele>934.0</ele>
        <time>2014-10-02T11:33:37Z</time>
      </trkpt>
      <trkpt lat="42.6361240" lon="-7.1231970">
        <ele>934.6</ele>
        <time>2014-10-02T11:33:38Z</time>
      </trkpt>
      <trkpt lat="42.6361190" lon="-7.1231540">
        <ele>935.2</ele>
        <time>2014-10-02T11:33:39Z</time>
      </trkpt>
      <trkpt lat="42.6361140" lon="-7.1231100">
        <ele>935.8</ele>
        <time>2014-10-02T11:33:40Z</time>
      </trkpt>
      <trkpt lat="42.6361110" lon="-7.1230610">
        <ele>936.5</ele>
        <time>2014-10-02T11:33:41Z</time>
      </trkpt>
      <trkpt lat="42.6361070" lon="-7.1230140">
        <ele>937.1</ele>
        <time>2014-10-02T11:33:42Z</time>
      </trkpt>
      <trkpt lat="42.6361030" lon="-7.1229680">
        <ele>937.7</ele>
        <time>2014-10-02T11:33:43Z</time>
      </trkpt>
      <trkpt lat="42.6360980" lon="-7.1229180">
        <ele>938.3</ele>
        <time>2014-10-02T11:33:44Z</time>
      </trkpt>
      <trkpt lat="42.6360920" lon="-7.1228730">
        <ele>938.9</ele>
        <time>2014-10-02T11:33:45Z</time>
      </trkpt>
      <trkpt lat="42.6360880" lon="-7.1228250">
        <ele>939.6</ele>
        <time>2014-10-02T11:33:46Z</time>
      </trkpt>
      <trkpt lat="42.6360860" lon="-7.1227790">
        <ele>940.1</ele>
        <time>2014-10-02T11:33:47Z</time>
      </trkpt>
      <trkpt lat="42.6360820" lon="-7.1227310">
        <ele>940.8</ele>
        <time>2014-10-02T11:33:48Z</time>
      </trkpt>
      <trkpt lat="42.6360790" lon="-7.1226840">
        <ele>941.4</ele>
        <time>2014-10-02T11:33:49Z</time>
      </trkpt>
      <trkpt lat="42.6360770" lon="-7.1226370">
        <ele>942.1</ele>
        <time>2014-10-02T11:33:50Z</time>
      </trkpt>
      <trkpt lat="42.6360710" lon="-7.1225890">
        <ele>942.8</ele>
        <time>2014-10-02T11:33:51Z</time>
      </trkpt>
      <trkpt lat="42.6360630" lon="-7.1225420">
        <ele>943.4</ele>
        <time>2014-10-02T11:33:52Z</time>
      </trkpt>
      <trkpt lat="42.6360530" lon="-7.1224990">
        <ele>944.1</ele>
        <time>2014-10-02T11:33:53Z</time>
      </trkpt>
      <trkpt lat="42.6360450" lon="-7.1224570">
        <ele>944.7</ele>
        <time>2014-10-02T11:33:54Z</time>
      </trkpt>
      <trkpt lat="42.6360410" lon="-7.1224110">
        <ele>944.9</ele>
        <time>2014-10-02T11:33:55Z</time>
      </trkpt>
      <trkpt lat="42.6360360" lon="-7.1223630">
        <ele>944.9</ele>
        <time>2014-10-02T11:33:56Z</time>
      </trkpt>
      <trkpt lat="42.6360310" lon="-7.1223180">
        <ele>945.2</ele>
        <time>2014-10-02T11:33:57Z</time>
      </trkpt>
      <trkpt lat="42.6360240" lon="-7.1222780">
        <ele>945.5</ele>
        <time>2014-10-02T11:33:58Z</time>
      </trkpt>
      <trkpt lat="42.6360180" lon="-7.1222310">
        <ele>945.9</ele>
        <time>2014-10-02T11:33:59Z</time>
      </trkpt>
      <trkpt lat="42.6360060" lon="-7.1221790">
        <ele>946.3</ele>
        <time>2014-10-02T11:34:00Z</time>
      </trkpt>
      <trkpt lat="42.6359940" lon="-7.1221370">
        <ele>946.7</ele>
        <time>2014-10-02T11:34:01Z</time>
      </trkpt>
      <trkpt lat="42.6359800" lon="-7.1220920">
        <ele>947.1</ele>
        <time>2014-10-02T11:34:02Z</time>
      </trkpt>
      <trkpt lat="42.6359680" lon="-7.1220590">
        <ele>947.4</ele>
        <time>2014-10-02T11:34:03Z</time>
      </trkpt>
      <trkpt lat="42.6359430" lon="-7.1219940">
        <ele>947.9</ele>
        <time>2014-10-02T11:34:05Z</time>
      </trkpt>
      <trkpt lat="42.6359280" lon="-7.1219510">
        <ele>948.3</ele>
        <time>2014-10-02T11:34:06Z</time>
      </trkpt>
      <trkpt lat="42.6359140" lon="-7.1219060">
        <ele>948.7</ele>
        <time>2014-10-02T11:34:07Z</time>
      </trkpt>
      <trkpt lat="42.6359000" lon="-7.1218640">
        <ele>949.1</ele>
        <time>2014-10-02T11:34:08Z</time>
      </trkpt>
      <trkpt lat="42.6358810" lon="-7.1218050">
        <ele>949.6</ele>
        <time>2014-10-02T11:34:10Z</time>
      </trkpt>
      <trkpt lat="42.6358710" lon="-7.1217510">
        <ele>950.1</ele>
        <time>2014-10-02T11:34:12Z</time>
      </trkpt>
      <trkpt lat="42.6358610" lon="-7.1217040">
        <ele>950.5</ele>
        <time>2014-10-02T11:34:13Z</time>
      </trkpt>
      <trkpt lat="42.6358530" lon="-7.1216570">
        <ele>950.9</ele>
        <time>2014-10-02T11:34:14Z</time>
      </trkpt>
      <trkpt lat="42.6358460" lon="-7.1216210">
        <ele>951.1</ele>
        <time>2014-10-02T11:34:15Z</time>
      </trkpt>
      <trkpt lat="42.6358270" lon="-7.1215430">
        <ele>951.7</ele>
        <time>2014-10-02T11:34:17Z</time>
      </trkpt>
      <trkpt lat="42.6358100" lon="-7.1215080">
        <ele>952.1</ele>
        <time>2014-10-02T11:34:18Z</time>
      </trkpt>
      <trkpt lat="42.6357870" lon="-7.1214700">
        <ele>952.4</ele>
        <time>2014-10-02T11:34:19Z</time>
      </trkpt>
      <trkpt lat="42.6357700" lon="-7.1214340">
        <ele>952.7</ele>
        <time>2014-10-02T11:34:20Z</time>
      </trkpt>
      <trkpt lat="42.6357540" lon="-7.1213970">
        <ele>953.1</ele>
        <time>2014-10-02T11:34:21Z</time>
      </trkpt>
      <trkpt lat="42.6357360" lon="-7.1213580">
        <ele>953.5</ele>
        <time>2014-10-02T11:34:22Z</time>
      </trkpt>
      <trkpt lat="42.6357210" lon="-7.1213280">
        <ele>953.8</ele>
        <time>2014-10-02T11:34:23Z</time>
      </trkpt>
      <trkpt lat="42.6357010" lon="-7.1212880">
        <ele>954.2</ele>
        <time>2014-10-02T11:34:24Z</time>
      </trkpt>
      <trkpt lat="42.6356750" lon="-7.1212330">
        <ele>954.8</ele>
        <time>2014-10-02T11:34:26Z</time>
      </trkpt>
      <trkpt lat="42.6356600" lon="-7.1212020">
        <ele>955.1</ele>
        <time>2014-10-02T11:34:27Z</time>
      </trkpt>
      <trkpt lat="42.6356290" lon="-7.1211450">
        <ele>955.7</ele>
        <time>2014-10-02T11:34:29Z</time>
      </trkpt>
      <trkpt lat="42.6355990" lon="-7.1210870">
        <ele>956.3</ele>
        <time>2014-10-02T11:34:31Z</time>
      </trkpt>
      <trkpt lat="42.6355830" lon="-7.1210550">
        <ele>956.6</ele>
        <time>2014-10-02T11:34:32Z</time>
      </trkpt>
      <trkpt lat="42.6355650" lon="-7.1210170">
        <ele>956.9</ele>
        <time>2014-10-02T11:34:33Z</time>
      </trkpt>
      <trkpt lat="42.6355480" lon="-7.1209760">
        <ele>957.3</ele>
        <time>2014-10-02T11:34:34Z</time>
      </trkpt>
      <trkpt lat="42.6355330" lon="-7.1209320">
        <ele>957.6</ele>
        <time>2014-10-02T11:34:35Z</time>
      </trkpt>
      <trkpt lat="42.6355200" lon="-7.1208890">
        <ele>958.0</ele>
        <time>2014-10-02T11:34:36Z</time>
      </trkpt>
      <trkpt lat="42.6355110" lon="-7.1208510">
        <ele>958.3</ele>
        <time>2014-10-02T11:34:37Z</time>
      </trkpt>
      <trkpt lat="42.6355020" lon="-7.1208110">
        <ele>958.6</ele>
        <time>2014-10-02T11:34:38Z</time>
      </trkpt>
      <trkpt lat="42.6354990" lon="-7.1207680">
        <ele>958.9</ele>
        <time>2014-10-02T11:34:39Z</time>
      </trkpt>
      <trkpt lat="42.6354960" lon="-7.1207300">
        <ele>959.2</ele>
        <time>2014-10-02T11:34:40Z</time>
      </trkpt>
      <trkpt lat="42.6354930" lon="-7.1206880">
        <ele>959.5</ele>
        <time>2014-10-02T11:34:41Z</time>
      </trkpt>
      <trkpt lat="42.6354880" lon="-7.1206470">
        <ele>959.8</ele>
        <time>2014-10-02T11:34:42Z</time>
      </trkpt>
      <trkpt lat="42.6354830" lon="-7.1206070">
        <ele>960.1</ele>
        <time>2014-10-02T11:34:43Z</time>
      </trkpt>
      <trkpt lat="42.6354720" lon="-7.1205430">
        <ele>960.6</ele>
        <time>2014-10-02T11:34:45Z</time>
      </trkpt>
      <trkpt lat="42.6354650" lon="-7.1205030">
        <ele>960.9</ele>
        <time>2014-10-02T11:34:46Z</time>
      </trkpt>
      <trkpt lat="42.6354580" lon="-7.1204650">
        <ele>961.2</ele>
        <time>2014-10-02T11:34:47Z</time>
      </trkpt>
      <trkpt lat="42.6354480" lon="-7.1204290">
        <ele>961.4</ele>
        <time>2014-10-02T11:34:48Z</time>
      </trkpt>
      <trkpt lat="42.6354320" lon="-7.1203550">
        <ele>962.0</ele>
        <time>2014-10-02T11:34:50Z</time>
      </trkpt>
      <trkpt lat="42.6354250" lon="-7.1203090">
        <ele>962.3</ele>
        <time>2014-10-02T11:34:51Z</time>
      </trkpt>
      <trkpt lat="42.6354190" lon="-7.1202650">
        <ele>962.6</ele>
        <time>2014-10-02T11:34:52Z</time>
      </trkpt>
      <trkpt lat="42.6354120" lon="-7.1202220">
        <ele>963.0</ele>
        <time>2014-10-02T11:34:53Z</time>
      </trkpt>
      <trkpt lat="42.6354070" lon="-7.1201830">
        <ele>963.2</ele>
        <time>2014-10-02T11:34:54Z</time>
      </trkpt>
      <trkpt lat="42.6354010" lon="-7.1201440">
        <ele>963.5</ele>
        <time>2014-10-02T11:34:55Z</time>
      </trkpt>
      <trkpt lat="42.6353930" lon="-7.1200970">
        <ele>963.9</ele>
        <time>2014-10-02T11:34:56Z</time>
      </trkpt>
      <trkpt lat="42.6353850" lon="-7.1200490">
        <ele>964.2</ele>
        <time>2014-10-02T11:34:57Z</time>
      </trkpt>
      <trkpt lat="42.6353790" lon="-7.1199990">
        <ele>964.6</ele>
        <time>2014-10-02T11:34:58Z</time>
      </trkpt>
      <trkpt lat="42.6353740" lon="-7.1199540">
        <ele>964.9</ele>
        <time>2014-10-02T11:34:59Z</time>
      </trkpt>
      <trkpt lat="42.6353700" lon="-7.1199130">
        <ele>965.2</ele>
        <time>2014-10-02T11:35:00Z</time>
      </trkpt>
      <trkpt lat="42.6353660" lon="-7.1198630">
        <ele>965.5</ele>
        <time>2014-10-02T11:35:01Z</time>
      </trkpt>
      <trkpt lat="42.6353640" lon="-7.1198130">
        <ele>965.8</ele>
        <time>2014-10-02T11:35:02Z</time>
      </trkpt>
      <trkpt lat="42.6353620" lon="-7.1197650">
        <ele>966.1</ele>
        <time>2014-10-02T11:35:03Z</time>
      </trkpt>
      <trkpt lat="42.6353600" lon="-7.1197230">
        <ele>966.4</ele>
        <time>2014-10-02T11:35:04Z</time>
      </trkpt>
      <trkpt lat="42.6353540" lon="-7.1196720">
        <ele>966.8</ele>
        <time>2014-10-02T11:35:05Z</time>
      </trkpt>
      <trkpt lat="42.6353460" lon="-7.1196250">
        <ele>967.1</ele>
        <time>2014-10-02T11:35:06Z</time>
      </trkpt>
      <trkpt lat="42.6353400" lon="-7.1195750">
        <ele>967.5</ele>
        <time>2014-10-02T11:35:07Z</time>
      </trkpt>
      <trkpt lat="42.6353340" lon="-7.1195220">
        <ele>967.9</ele>
        <time>2014-10-02T11:35:08Z</time>
      </trkpt>
      <trkpt lat="42.6353290" lon="-7.1194680">
        <ele>968.2</ele>
        <time>2014-10-02T11:35:09Z</time>
      </trkpt>
      <trkpt lat="42.6353240" lon="-7.1194160">
        <ele>968.6</ele>
        <time>2014-10-02T11:35:10Z</time>
      </trkpt>
      <trkpt lat="42.6353160" lon="-7.1193640">
        <ele>968.9</ele>
        <time>2014-10-02T11:35:11Z</time>
      </trkpt>
      <trkpt lat="42.6353060" lon="-7.1193160">
        <ele>969.2</ele>
        <time>2014-10-02T11:35:12Z</time>
      </trkpt>
      <trkpt lat="42.6352960" lon="-7.1192750">
        <ele>969.5</ele>
        <time>2014-10-02T11:35:13Z</time>
      </trkpt>
      <trkpt lat="42.6352820" lon="-7.1192260">
        <ele>969.9</ele>
        <time>2014-10-02T11:35:14Z</time>
      </trkpt>
      <trkpt lat="42.6352670" lon="-7.1191810">
        <ele>970.3</ele>
        <time>2014-10-02T11:35:15Z</time>
      </trkpt>
      <trkpt lat="42.6352460" lon="-7.1191450">
        <ele>970.8</ele>
        <time>2014-10-02T11:35:16Z</time>
      </trkpt>
      <trkpt lat="42.6352220" lon="-7.1191040">
        <ele>971.3</ele>
        <time>2014-10-02T11:35:17Z</time>
      </trkpt>
      <trkpt lat="42.6351980" lon="-7.1190680">
        <ele>971.8</ele>
        <time>2014-10-02T11:35:18Z</time>
      </trkpt>
      <trkpt lat="42.6351710" lon="-7.1190280">
        <ele>972.4</ele>
        <time>2014-10-02T11:35:19Z</time>
      </trkpt>
      <trkpt lat="42.6351480" lon="-7.1189930">
        <ele>972.9</ele>
        <time>2014-10-02T11:35:20Z</time>
      </trkpt>
      <trkpt lat="42.6351290" lon="-7.1189600">
        <ele>973.4</ele>
        <time>2014-10-02T11:35:21Z</time>
      </trkpt>
      <trkpt lat="42.6351110" lon="-7.1189320">
        <ele>973.8</ele>
        <time>2014-10-02T11:35:22Z</time>
      </trkpt>
      <trkpt lat="42.6350780" lon="-7.1188750">
        <ele>974.4</ele>
        <time>2014-10-02T11:35:24Z</time>
      </trkpt>
      <trkpt lat="42.6350590" lon="-7.1188390">
        <ele>974.8</ele>
        <time>2014-10-02T11:35:25Z</time>
      </trkpt>
      <trkpt lat="42.6350510" lon="-7.1187990">
        <ele>975.2</ele>
        <time>2014-10-02T11:35:26Z</time>
      </trkpt>
      <trkpt lat="42.6350430" lon="-7.1187440">
        <ele>975.7</ele>
        <time>2014-10-02T11:35:28Z</time>
      </trkpt>
      <trkpt lat="42.6350400" lon="-7.1186780">
        <ele>976.3</ele>
        <time>2014-10-02T11:35:30Z</time>
      </trkpt>
      <trkpt lat="42.6350360" lon="-7.1186190">
        <ele>976.9</ele>
        <time>2014-10-02T11:35:32Z</time>
      </trkpt>
      <trkpt lat="42.6350360" lon="-7.1185530">
        <ele>977.6</ele>
        <time>2014-10-02T11:35:34Z</time>
      </trkpt>
      <trkpt lat="42.6350360" lon="-7.1184880">
        <ele>978.2</ele>
        <time>2014-10-02T11:35:36Z</time>
      </trkpt>
      <trkpt lat="42.6350360" lon="-7.1184500">
        <ele>978.6</ele>
        <time>2014-10-02T11:35:37Z</time>
      </trkpt>
      <trkpt lat="42.6350310" lon="-7.1183890">
        <ele>979.3</ele>
        <time>2014-10-02T11:35:39Z</time>
      </trkpt>
      <trkpt lat="42.6350240" lon="-7.1183350">
        <ele>979.8</ele>
        <time>2014-10-02T11:35:41Z</time>
      </trkpt>
      <trkpt lat="42.6350200" lon="-7.1182700">
        <ele>980.5</ele>
        <time>2014-10-02T11:35:43Z</time>
      </trkpt>
      <trkpt lat="42.6350110" lon="-7.1182080">
        <ele>981.1</ele>
        <time>2014-10-02T11:35:45Z</time>
      </trkpt>
      <trkpt lat="42.6349990" lon="-7.1181580">
        <ele>981.7</ele>
        <time>2014-10-02T11:35:47Z</time>
      </trkpt>
      <trkpt lat="42.6349840" lon="-7.1181110">
        <ele>982.2</ele>
        <time>2014-10-02T11:35:49Z</time>
      </trkpt>
      <trkpt lat="42.6349740" lon="-7.1180480">
        <ele>982.8</ele>
        <time>2014-10-02T11:35:51Z</time>
      </trkpt>
      <trkpt lat="42.6349650" lon="-7.1179900">
        <ele>983.3</ele>
        <time>2014-10-02T11:35:53Z</time>
      </trkpt>
      <trkpt lat="42.6349440" lon="-7.1179420">
        <ele>983.9</ele>
        <time>2014-10-02T11:35:55Z</time>
      </trkpt>
      <trkpt lat="42.6349260" lon="-7.1179030">
        <ele>984.3</ele>
        <time>2014-10-02T11:35:57Z</time>
      </trkpt>
      <trkpt lat="42.6349090" lon="-7.1178580">
        <ele>984.9</ele>
        <time>2014-10-02T11:35:59Z</time>
      </trkpt>
      <trkpt lat="42.6348990" lon="-7.1178070">
        <ele>985.5</ele>
        <time>2014-10-02T11:36:01Z</time>
      </trkpt>
      <trkpt lat="42.6348930" lon="-7.1177500">
        <ele>986.2</ele>
        <time>2014-10-02T11:36:03Z</time>
      </trkpt>
      <trkpt lat="42.6348900" lon="-7.1176850">
        <ele>987.0</ele>
        <time>2014-10-02T11:36:05Z</time>
      </trkpt>
      <trkpt lat="42.6348840" lon="-7.1176290">
        <ele>987.7</ele>
        <time>2014-10-02T11:36:07Z</time>
      </trkpt>
      <trkpt lat="42.6348740" lon="-7.1175720">
        <ele>988.4</ele>
        <time>2014-10-02T11:36:09Z</time>
      </trkpt>
      <trkpt lat="42.6348680" lon="-7.1175250">
        <ele>988.9</ele>
        <time>2014-10-02T11:36:11Z</time>
      </trkpt>
      <trkpt lat="42.6348490" lon="-7.1174740">
        <ele>989.6</ele>
        <time>2014-10-02T11:36:13Z</time>
      </trkpt>
      <trkpt lat="42.6348410" lon="-7.1174160">
        <ele>990.3</ele>
        <time>2014-10-02T11:36:15Z</time>
      </trkpt>
      <trkpt lat="42.6348320" lon="-7.1173590">
        <ele>991.0</ele>
        <time>2014-10-02T11:36:17Z</time>
      </trkpt>
      <trkpt lat="42.6348220" lon="-7.1173070">
        <ele>991.7</ele>
        <time>2014-10-02T11:36:19Z</time>
      </trkpt>
      <trkpt lat="42.6348040" lon="-7.1172540">
        <ele>992.4</ele>
        <time>2014-10-02T11:36:21Z</time>
      </trkpt>
      <trkpt lat="42.6347910" lon="-7.1172070">
        <ele>993.0</ele>
        <time>2014-10-02T11:36:23Z</time>
      </trkpt>
      <trkpt lat="42.6347790" lon="-7.1171520">
        <ele>993.7</ele>
        <time>2014-10-02T11:36:25Z</time>
      </trkpt>
      <trkpt lat="42.6347680" lon="-7.1170940">
        <ele>994.4</ele>
        <time>2014-10-02T11:36:27Z</time>
      </trkpt>
      <trkpt lat="42.6347570" lon="-7.1170420">
        <ele>995.0</ele>
        <time>2014-10-02T11:36:29Z</time>
      </trkpt>
      <trkpt lat="42.6347430" lon="-7.1169960">
        <ele>995.6</ele>
        <time>2014-10-02T11:36:31Z</time>
      </trkpt>
      <trkpt lat="42.6347290" lon="-7.1169610">
        <ele>996.1</ele>
        <time>2014-10-02T11:36:33Z</time>
      </trkpt>
      <trkpt lat="42.6347150" lon="-7.1169000">
        <ele>996.8</ele>
        <time>2014-10-02T11:36:35Z</time>
      </trkpt>
      <trkpt lat="42.6347060" lon="-7.1168510">
        <ele>997.5</ele>
        <time>2014-10-02T11:36:37Z</time>
      </trkpt>
      <trkpt lat="42.6346930" lon="-7.1167960">
        <ele>998.2</ele>
        <time>2014-10-02T11:36:39Z</time>
      </trkpt>
      <trkpt lat="42.6346830" lon="-7.1167410">
        <ele>998.9</ele>
        <time>2014-10-02T11:36:41Z</time>
      </trkpt>
      <trkpt lat="42.6346740" lon="-7.1166750">
        <ele>999.7</ele>
        <time>2014-10-02T11:36:43Z</time>
      </trkpt>
      <trkpt lat="42.6346620" lon="-7.1166160">
        <ele>1000.5</ele>
        <time>2014-10-02T11:36:45Z</time>
      </trkpt>
      <trkpt lat="42.6346520" lon="-7.1165580">
        <ele>1001.2</ele>
        <time>2014-10-02T11:36:47Z</time>
      </trkpt>
      <trkpt lat="42.6346350" lon="-7.1165070">
        <ele>1001.9</ele>
        <time>2014-10-02T11:36:49Z</time>
      </trkpt>
      <trkpt lat="42.6346270" lon="-7.1164500">
        <ele>1002.6</ele>
        <time>2014-10-02T11:36:51Z</time>
      </trkpt>
      <trkpt lat="42.6346200" lon="-7.1163940">
        <ele>1003.4</ele>
        <time>2014-10-02T11:36:53Z</time>
      </trkpt>
      <trkpt lat="42.6346120" lon="-7.1163540">
        <ele>1004.0</ele>
        <time>2014-10-02T11:36:55Z</time>
      </trkpt>
      <trkpt lat="42.6346050" lon="-7.1163090">
        <ele>1004.6</ele>
        <time>2014-10-02T11:36:57Z</time>
      </trkpt>
      <trkpt lat="42.6345950" lon="-7.1162680">
        <ele>1005.2</ele>
        <time>2014-10-02T11:36:59Z</time>
      </trkpt>
      <trkpt lat="42.6345780" lon="-7.1162270">
        <ele>1005.8</ele>
        <time>2014-10-02T11:37:01Z</time>
      </trkpt>
      <trkpt lat="42.6345610" lon="-7.1161710">
        <ele>1006.6</ele>
        <time>2014-10-02T11:37:03Z</time>
      </trkpt>
      <trkpt lat="42.6345490" lon="-7.1161200">
        <ele>1007.2</ele>
        <time>2014-10-02T11:37:05Z</time>
      </trkpt>
      <trkpt lat="42.6345320" lon="-7.1160680">
        <ele>1007.9</ele>
        <time>2014-10-02T11:37:07Z</time>
      </trkpt>
      <trkpt lat="42.6345260" lon="-7.1160200">
        <ele>1008.5</ele>
        <time>2014-10-02T11:37:09Z</time>
      </trkpt>
      <trkpt lat="42.6345120" lon="-7.1159760">
        <ele>1009.0</ele>
        <time>2014-10-02T11:37:11Z</time>
      </trkpt>
      <trkpt lat="42.6345070" lon="-7.1159250">
        <ele>1009.6</ele>
        <time>2014-10-02T11:37:13Z</time>
      </trkpt>
      <trkpt lat="42.6344970" lon="-7.1158710">
        <ele>1010.3</ele>
        <time>2014-10-02T11:37:15Z</time>
      </trkpt>
      <trkpt lat="42.6344920" lon="-7.1158140">
        <ele>1011.0</ele>
        <time>2014-10-02T11:37:17Z</time>
      </trkpt>
      <trkpt lat="42.6344810" lon="-7.1157580">
        <ele>1011.8</ele>
        <time>2014-10-02T11:37:19Z</time>
      </trkpt>
      <trkpt lat="42.6344690" lon="-7.1157100">
        <ele>1012.4</ele>
        <time>2014-10-02T11:37:21Z</time>
      </trkpt>
      <trkpt lat="42.6344570" lon="-7.1156560">
        <ele>1013.2</ele>
        <time>2014-10-02T11:37:23Z</time>
      </trkpt>
      <trkpt lat="42.6344440" lon="-7.1156160">
        <ele>1013.8</ele>
        <time>2014-10-02T11:37:25Z</time>
      </trkpt>
      <trkpt lat="42.6344300" lon="-7.1155660">
        <ele>1014.6</ele>
        <time>2014-10-02T11:37:27Z</time>
      </trkpt>
      <trkpt lat="42.6344210" lon="-7.1155160">
        <ele>1015.3</ele>
        <time>2014-10-02T11:37:29Z</time>
      </trkpt>
      <trkpt lat="42.6344120" lon="-7.1154590">
        <ele>1016.0</ele>
        <time>2014-10-02T11:37:31Z</time>
      </trkpt>
      <trkpt lat="42.6344110" lon="-7.1153960">
        <ele>1016.7</ele>
        <time>2014-10-02T11:37:33Z</time>
      </trkpt>
      <trkpt lat="42.6344020" lon="-7.1153400">
        <ele>1017.4</ele>
        <time>2014-10-02T11:37:35Z</time>
      </trkpt>
      <trkpt lat="42.6343940" lon="-7.1152950">
        <ele>1017.9</ele>
        <time>2014-10-02T11:37:37Z</time>
      </trkpt>
      <trkpt lat="42.6343890" lon="-7.1152350">
        <ele>1018.7</ele>
        <time>2014-10-02T11:37:39Z</time>
      </trkpt>
      <trkpt lat="42.6343890" lon="-7.1151690">
        <ele>1019.4</ele>
        <time>2014-10-02T11:37:41Z</time>
      </trkpt>
      <trkpt lat="42.6343830" lon="-7.1151020">
        <ele>1020.1</ele>
        <time>2014-10-02T11:37:43Z</time>
      </trkpt>
      <trkpt lat="42.6343760" lon="-7.1150490">
        <ele>1020.7</ele>
        <time>2014-10-02T11:37:45Z</time>
      </trkpt>
      <trkpt lat="42.6343760" lon="-7.1149930">
        <ele>1021.3</ele>
        <time>2014-10-02T11:37:47Z</time>
      </trkpt>
      <trkpt lat="42.6343740" lon="-7.1149430">
        <ele>1021.8</ele>
        <time>2014-10-02T11:37:49Z</time>
      </trkpt>
      <trkpt lat="42.6343780" lon="-7.1148940">
        <ele>1022.4</ele>
        <time>2014-10-02T11:37:51Z</time>
      </trkpt>
      <trkpt lat="42.6343820" lon="-7.1148380">
        <ele>1023.0</ele>
        <time>2014-10-02T11:37:53Z</time>
      </trkpt>
      <trkpt lat="42.6343850" lon="-7.1147830">
        <ele>1023.5</ele>
        <time>2014-10-02T11:37:55Z</time>
      </trkpt>
      <trkpt lat="42.6343890" lon="-7.1147260">
        <ele>1024.1</ele>
        <time>2014-10-02T11:37:57Z</time>
      </trkpt>
      <trkpt lat="42.6343930" lon="-7.1146750">
        <ele>1024.6</ele>
        <time>2014-10-02T11:37:59Z</time>
      </trkpt>
      <trkpt lat="42.6343990" lon="-7.1146330">
        <ele>1025.0</ele>
        <time>2014-10-02T11:38:01Z</time>
      </trkpt>
      <trkpt lat="42.6344090" lon="-7.1145840">
        <ele>1025.5</ele>
        <time>2014-10-02T11:38:03Z</time>
      </trkpt>
      <trkpt lat="42.6344180" lon="-7.1145260">
        <ele>1026.1</ele>
        <time>2014-10-02T11:38:05Z</time>
      </trkpt>
      <trkpt lat="42.6344260" lon="-7.1144720">
        <ele>1026.6</ele>
        <time>2014-10-02T11:38:07Z</time>
      </trkpt>
      <trkpt lat="42.6344340" lon="-7.1144150">
        <ele>1027.1</ele>
        <time>2014-10-02T11:38:09Z</time>
      </trkpt>
      <trkpt lat="42.6344400" lon="-7.1143570">
        <ele>1027.7</ele>
        <time>2014-10-02T11:38:11Z</time>
      </trkpt>
      <trkpt lat="42.6344430" lon="-7.1142940">
        <ele>1028.3</ele>
        <time>2014-10-02T11:38:13Z</time>
      </trkpt>
      <trkpt lat="42.6344450" lon="-7.1142560">
        <ele>1028.7</ele>
        <time>2014-10-02T11:38:14Z</time>
      </trkpt>
      <trkpt lat="42.6344430" lon="-7.1141970">
        <ele>1029.2</ele>
        <time>2014-10-02T11:38:16Z</time>
      </trkpt>
      <trkpt lat="42.6344420" lon="-7.1141370">
        <ele>1029.8</ele>
        <time>2014-10-02T11:38:18Z</time>
      </trkpt>
      <trkpt lat="42.6344350" lon="-7.1140810">
        <ele>1030.4</ele>
        <time>2014-10-02T11:38:20Z</time>
      </trkpt>
      <trkpt lat="42.6344280" lon="-7.1140260">
        <ele>1031.0</ele>
        <time>2014-10-02T11:38:22Z</time>
      </trkpt>
      <trkpt lat="42.6344160" lon="-7.1139660">
        <ele>1031.7</ele>
        <time>2014-10-02T11:38:24Z</time>
      </trkpt>
      <trkpt lat="42.6344160" lon="-7.1139180">
        <ele>1032.2</ele>
        <time>2014-10-02T11:38:26Z</time>
      </trkpt>
      <trkpt lat="42.6344130" lon="-7.1138750">
        <ele>1032.6</ele>
        <time>2014-10-02T11:38:28Z</time>
      </trkpt>
      <trkpt lat="42.6344060" lon="-7.1138190">
        <ele>1033.3</ele>
        <time>2014-10-02T11:38:30Z</time>
      </trkpt>
      <trkpt lat="42.6344010" lon="-7.1137670">
        <ele>1033.8</ele>
        <time>2014-10-02T11:38:32Z</time>
      </trkpt>
      <trkpt lat="42.6343950" lon="-7.1137230">
        <ele>1034.3</ele>
        <time>2014-10-02T11:38:34Z</time>
      </trkpt>
      <trkpt lat="42.6343950" lon="-7.1136720">
        <ele>1034.9</ele>
        <time>2014-10-02T11:38:36Z</time>
      </trkpt>
      <trkpt lat="42.6343960" lon="-7.1136210">
        <ele>1035.5</ele>
        <time>2014-10-02T11:38:38Z</time>
      </trkpt>
      <trkpt lat="42.6343910" lon="-7.1135720">
        <ele>1036.1</ele>
        <time>2014-10-02T11:38:40Z</time>
      </trkpt>
      <trkpt lat="42.6343860" lon="-7.1135230">
        <ele>1036.6</ele>
        <time>2014-10-02T11:38:42Z</time>
      </trkpt>
      <trkpt lat="42.6343870" lon="-7.1134740">
        <ele>1037.2</ele>
        <time>2014-10-02T11:38:44Z</time>
      </trkpt>
      <trkpt lat="42.6343900" lon="-7.1134200">
        <ele>1037.7</ele>
        <time>2014-10-02T11:38:46Z</time>
      </trkpt>
      <trkpt lat="42.6343940" lon="-7.1133630">
        <ele>1038.2</ele>
        <time>2014-10-02T11:38:48Z</time>
      </trkpt>
      <trkpt lat="42.6344000" lon="-7.1133010">
        <ele>1038.8</ele>
        <time>2014-10-02T11:38:50Z</time>
      </trkpt>
      <trkpt lat="42.6344040" lon="-7.1132400">
        <ele>1039.3</ele>
        <time>2014-10-02T11:38:52Z</time>
      </trkpt>
      <trkpt lat="42.6344120" lon="-7.1131760">
        <ele>1039.9</ele>
        <time>2014-10-02T11:38:54Z</time>
      </trkpt>
      <trkpt lat="42.6344270" lon="-7.1131050">
        <ele>1040.6</ele>
        <time>2014-10-02T11:38:56Z</time>
      </trkpt>
      <trkpt lat="42.6344400" lon="-7.1130380">
        <ele>1041.2</ele>
        <time>2014-10-02T11:38:58Z</time>
      </trkpt>
      <trkpt lat="42.6344480" lon="-7.1130000">
        <ele>1041.5</ele>
        <time>2014-10-02T11:38:59Z</time>
      </trkpt>
      <trkpt lat="42.6344650" lon="-7.1129300">
        <ele>1042.2</ele>
        <time>2014-10-02T11:39:01Z</time>
      </trkpt>
      <trkpt lat="42.6344750" lon="-7.1128940">
        <ele>1042.5</ele>
        <time>2014-10-02T11:39:02Z</time>
      </trkpt>
      <trkpt lat="42.6344860" lon="-7.1128530">
        <ele>1042.9</ele>
        <time>2014-10-02T11:39:03Z</time>
      </trkpt>
      <trkpt lat="42.6344980" lon="-7.1128110">
        <ele>1043.3</ele>
        <time>2014-10-02T11:39:04Z</time>
      </trkpt>
      <trkpt lat="42.6345100" lon="-7.1127740">
        <ele>1043.7</ele>
        <time>2014-10-02T11:39:05Z</time>
      </trkpt>
      <trkpt lat="42.6345320" lon="-7.1127110">
        <ele>1044.2</ele>
        <time>2014-10-02T11:39:07Z</time>
      </trkpt>
      <trkpt lat="42.6345550" lon="-7.1126460">
        <ele>1044.7</ele>
        <time>2014-10-02T11:39:09Z</time>
      </trkpt>
      <trkpt lat="42.6345690" lon="-7.1126140">
        <ele>1045.0</ele>
        <time>2014-10-02T11:39:10Z</time>
      </trkpt>
      <trkpt lat="42.6345830" lon="-7.1125810">
        <ele>1045.2</ele>
        <time>2014-10-02T11:39:11Z</time>
      </trkpt>
      <trkpt lat="42.6345960" lon="-7.1125470">
        <ele>1045.4</ele>
        <time>2014-10-02T11:39:12Z</time>
      </trkpt>
      <trkpt lat="42.6346090" lon="-7.1125140">
        <ele>1045.6</ele>
        <time>2014-10-02T11:39:13Z</time>
      </trkpt>
      <trkpt lat="42.6346310" lon="-7.1124490">
        <ele>1046.0</ele>
        <time>2014-10-02T11:39:15Z</time>
      </trkpt>
      <trkpt lat="42.6346490" lon="-7.1123880">
        <ele>1046.3</ele>
        <time>2014-10-02T11:39:17Z</time>
      </trkpt>
      <trkpt lat="42.6346670" lon="-7.1123280">
        <ele>1046.7</ele>
        <time>2014-10-02T11:39:19Z</time>
      </trkpt>
      <trkpt lat="42.6346740" lon="-7.1122910">
        <ele>1047.0</ele>
        <time>2014-10-02T11:39:20Z</time>
      </trkpt>
      <trkpt lat="42.6346840" lon="-7.1122520">
        <ele>1047.3</ele>
        <time>2014-10-02T11:39:21Z</time>
      </trkpt>
      <trkpt lat="42.6346910" lon="-7.1122140">
        <ele>1047.6</ele>
        <time>2014-10-02T11:39:22Z</time>
      </trkpt>
      <trkpt lat="42.6347040" lon="-7.1121510">
        <ele>1048.2</ele>
        <time>2014-10-02T11:39:24Z</time>
      </trkpt>
      <trkpt lat="42.6347160" lon="-7.1120820">
        <ele>1048.8</ele>
        <time>2014-10-02T11:39:26Z</time>
      </trkpt>
      <trkpt lat="42.6347250" lon="-7.1120450">
        <ele>1049.2</ele>
        <time>2014-10-02T11:39:27Z</time>
      </trkpt>
      <trkpt lat="42.6347400" lon="-7.1119760">
        <ele>1049.8</ele>
        <time>2014-10-02T11:39:29Z</time>
      </trkpt>
      <trkpt lat="42.6347610" lon="-7.1119060">
        <ele>1050.4</ele>
        <time>2014-10-02T11:39:31Z</time>
      </trkpt>
      <trkpt lat="42.6347720" lon="-7.1118710">
        <ele>1050.7</ele>
        <time>2014-10-02T11:39:32Z</time>
      </trkpt>
      <trkpt lat="42.6347960" lon="-7.1118010">
        <ele>1051.4</ele>
        <time>2014-10-02T11:39:34Z</time>
      </trkpt>
      <trkpt lat="42.6348090" lon="-7.1117640">
        <ele>1051.8</ele>
        <time>2014-10-02T11:39:35Z</time>
      </trkpt>
      <trkpt lat="42.6348200" lon="-7.1117300">
        <ele>1052.1</ele>
        <time>2014-10-02T11:39:36Z</time>
      </trkpt>
      <trkpt lat="42.6348350" lon="-7.1116970">
        <ele>1052.5</ele>
        <time>2014-10-02T11:39:37Z</time>
      </trkpt>
      <trkpt lat="42.6348510" lon="-7.1116610">
        <ele>1052.8</ele>
        <time>2014-10-02T11:39:38Z</time>
      </trkpt>
      <trkpt lat="42.6348670" lon="-7.1116270">
        <ele>1053.2</ele>
        <time>2014-10-02T11:39:39Z</time>
      </trkpt>
      <trkpt lat="42.6348820" lon="-7.1115950">
        <ele>1053.4</ele>
        <time>2014-10-02T11:39:40Z</time>
      </trkpt>
      <trkpt lat="42.6349100" lon="-7.1115300">
        <ele>1054.0</ele>
        <time>2014-10-02T11:39:42Z</time>
      </trkpt>
      <trkpt lat="42.6349260" lon="-7.1114930">
        <ele>1054.3</ele>
        <time>2014-10-02T11:39:43Z</time>
      </trkpt>
      <trkpt lat="42.6349440" lon="-7.1114520">
        <ele>1054.6</ele>
        <time>2014-10-02T11:39:44Z</time>
      </trkpt>
      <trkpt lat="42.6349610" lon="-7.1114150">
        <ele>1055.0</ele>
        <time>2014-10-02T11:39:45Z</time>
      </trkpt>
      <trkpt lat="42.6349790" lon="-7.1113800">
        <ele>1055.3</ele>
        <time>2014-10-02T11:39:46Z</time>
      </trkpt>
      <trkpt lat="42.6349950" lon="-7.1113430">
        <ele>1055.6</ele>
        <time>2014-10-02T11:39:47Z</time>
      </trkpt>
      <trkpt lat="42.6350130" lon="-7.1113010">
        <ele>1056.0</ele>
        <time>2014-10-02T11:39:48Z</time>
      </trkpt>
      <trkpt lat="42.6350280" lon="-7.1112670">
        <ele>1056.3</ele>
        <time>2014-10-02T11:39:49Z</time>
      </trkpt>
      <trkpt lat="42.6350460" lon="-7.1112270">
        <ele>1056.7</ele>
        <time>2014-10-02T11:39:50Z</time>
      </trkpt>
      <trkpt lat="42.6350630" lon="-7.1111900">
        <ele>1057.0</ele>
        <time>2014-10-02T11:39:51Z</time>
      </trkpt>
      <trkpt lat="42.6350810" lon="-7.1111520">
        <ele>1057.3</ele>
        <time>2014-10-02T11:39:52Z</time>
      </trkpt>
      <trkpt lat="42.6350960" lon="-7.1111150">
        <ele>1057.7</ele>
        <time>2014-10-02T11:39:53Z</time>
      </trkpt>
      <trkpt lat="42.6351100" lon="-7.1110790">
        <ele>1058.0</ele>
        <time>2014-10-02T11:39:54Z</time>
      </trkpt>
      <trkpt lat="42.6351210" lon="-7.1110450">
        <ele>1058.3</ele>
        <time>2014-10-02T11:39:55Z</time>
      </trkpt>
      <trkpt lat="42.6351430" lon="-7.1109860">
        <ele>1058.9</ele>
        <time>2014-10-02T11:39:57Z</time>
      </trkpt>
      <trkpt lat="42.6351500" lon="-7.1109500">
        <ele>1059.2</ele>
        <time>2014-10-02T11:39:58Z</time>
      </trkpt>
      <trkpt lat="42.6351580" lon="-7.1109120">
        <ele>1059.2</ele>
        <time>2014-10-02T11:39:59Z</time>
      </trkpt>
      <trkpt lat="42.6351590" lon="-7.1108390">
        <ele>1059.3</ele>
        <time>2014-10-02T11:40:01Z</time>
      </trkpt>
      <trkpt lat="42.6351560" lon="-7.1107990">
        <ele>1059.5</ele>
        <time>2014-10-02T11:40:02Z</time>
      </trkpt>
      <trkpt lat="42.6351450" lon="-7.1107650">
        <ele>1059.6</ele>
        <time>2014-10-02T11:40:03Z</time>
      </trkpt>
      <trkpt lat="42.6351310" lon="-7.1107270">
        <ele>1059.7</ele>
        <time>2014-10-02T11:40:04Z</time>
      </trkpt>
      <trkpt lat="42.6351150" lon="-7.1106930">
        <ele>1059.8</ele>
        <time>2014-10-02T11:40:05Z</time>
      </trkpt>
      <trkpt lat="42.6351000" lon="-7.1106590">
        <ele>1060.0</ele>
        <time>2014-10-02T11:40:06Z</time>
      </trkpt>
      <trkpt lat="42.6350790" lon="-7.1106000">
        <ele>1060.2</ele>
        <time>2014-10-02T11:40:08Z</time>
      </trkpt>
      <trkpt lat="42.6350480" lon="-7.1105630">
        <ele>1060.3</ele>
        <time>2014-10-02T11:40:10Z</time>
      </trkpt>
      <trkpt lat="42.6350210" lon="-7.1105340">
        <ele>1060.5</ele>
        <time>2014-10-02T11:40:12Z</time>
      </trkpt>
      <trkpt lat="42.6349850" lon="-7.1105140">
        <ele>1060.7</ele>
        <time>2014-10-02T11:40:14Z</time>
      </trkpt>
      <trkpt lat="42.6349500" lon="-7.1105040">
        <ele>1060.8</ele>
        <time>2014-10-02T11:40:16Z</time>
      </trkpt>
      <trkpt lat="42.6349190" lon="-7.1105070">
        <ele>1061.0</ele>
        <time>2014-10-02T11:40:19Z</time>
      </trkpt>
      <trkpt lat="42.6348930" lon="-7.1105230">
        <ele>1061.1</ele>
        <time>2014-10-02T11:40:22Z</time>
      </trkpt>
      <trkpt lat="42.6348560" lon="-7.1105020">
        <ele>1061.3</ele>
        <time>2014-10-02T11:41:27Z</time>
      </trkpt>
      <trkpt lat="42.6348290" lon="-7.1104890">
        <ele>1061.5</ele>
        <time>2014-10-02T11:41:32Z</time>
      </trkpt>
      <trkpt lat="42.6347970" lon="-7.1104760">
        <ele>1061.7</ele>
        <time>2014-10-02T11:41:34Z</time>
      </trkpt>
      <trkpt lat="42.6347500" lon="-7.1104520">
        <ele>1061.9</ele>
        <time>2014-10-02T11:41:36Z</time>
      </trkpt>
      <trkpt lat="42.6347180" lon="-7.1104370">
        <ele>1062.0</ele>
        <time>2014-10-02T11:41:37Z</time>
      </trkpt>
      <trkpt lat="42.6346900" lon="-7.1104220">
        <ele>1062.2</ele>
        <time>2014-10-02T11:41:38Z</time>
      </trkpt>
      <trkpt lat="42.6346580" lon="-7.1104120">
        <ele>1062.3</ele>
        <time>2014-10-02T11:41:39Z</time>
      </trkpt>
      <trkpt lat="42.6346250" lon="-7.1103990">
        <ele>1062.4</ele>
        <time>2014-10-02T11:41:40Z</time>
      </trkpt>
      <trkpt lat="42.6345880" lon="-7.1103930">
        <ele>1062.5</ele>
        <time>2014-10-02T11:41:41Z</time>
      </trkpt>
      <trkpt lat="42.6345510" lon="-7.1103920">
        <ele>1062.6</ele>
        <time>2014-10-02T11:41:42Z</time>
      </trkpt>
      <trkpt lat="42.6345130" lon="-7.1103930">
        <ele>1062.7</ele>
        <time>2014-10-02T11:41:43Z</time>
      </trkpt>
      <trkpt lat="42.6344810" lon="-7.1103920">
        <ele>1062.8</ele>
        <time>2014-10-02T11:41:44Z</time>
      </trkpt>
      <trkpt lat="42.6344470" lon="-7.1103970">
        <ele>1062.9</ele>
        <time>2014-10-02T11:41:45Z</time>
      </trkpt>
      <trkpt lat="42.6344030" lon="-7.1104050">
        <ele>1063.0</ele>
        <time>2014-10-02T11:41:46Z</time>
      </trkpt>
      <trkpt lat="42.6343670" lon="-7.1104180">
        <ele>1063.1</ele>
        <time>2014-10-02T11:41:47Z</time>
      </trkpt>
      <trkpt lat="42.6343330" lon="-7.1104330">
        <ele>1063.2</ele>
        <time>2014-10-02T11:41:48Z</time>
      </trkpt>
      <trkpt lat="42.6343030" lon="-7.1104520">
        <ele>1063.3</ele>
        <time>2014-10-02T11:41:49Z</time>
      </trkpt>
      <trkpt lat="42.6342700" lon="-7.1104690">
        <ele>1063.4</ele>
        <time>2014-10-02T11:41:50Z</time>
      </trkpt>
      <trkpt lat="42.6342410" lon="-7.1104860">
        <ele>1063.5</ele>
        <time>2014-10-02T11:41:51Z</time>
      </trkpt>
      <trkpt lat="42.6342100" lon="-7.1105030">
        <ele>1063.6</ele>
        <time>2014-10-02T11:41:52Z</time>
      </trkpt>
      <trkpt lat="42.6341830" lon="-7.1105180">
        <ele>1063.8</ele>
        <time>2014-10-02T11:41:53Z</time>
      </trkpt>
      <trkpt lat="42.6341540" lon="-7.1105280">
        <ele>1063.9</ele>
        <time>2014-10-02T11:41:54Z</time>
      </trkpt>
      <trkpt lat="42.6341250" lon="-7.1105410">
        <ele>1064.0</ele>
        <time>2014-10-02T11:41:55Z</time>
      </trkpt>
      <trkpt lat="42.6340930" lon="-7.1105500">
        <ele>1064.2</ele>
        <time>2014-10-02T11:41:56Z</time>
      </trkpt>
      <trkpt lat="42.6340620" lon="-7.1105550">
        <ele>1064.3</ele>
        <time>2014-10-02T11:41:57Z</time>
      </trkpt>
      <trkpt lat="42.6340270" lon="-7.1105600">
        <ele>1064.4</ele>
        <time>2014-10-02T11:41:58Z</time>
      </trkpt>
      <trkpt lat="42.6339920" lon="-7.1105610">
        <ele>1064.6</ele>
        <time>2014-10-02T11:41:59Z</time>
      </trkpt>
      <trkpt lat="42.6339540" lon="-7.1105610">
        <ele>1064.7</ele>
        <time>2014-10-02T11:42:00Z</time>
      </trkpt>
      <trkpt lat="42.6339190" lon="-7.1105570">
        <ele>1064.8</ele>
        <time>2014-10-02T11:42:01Z</time>
      </trkpt>
      <trkpt lat="42.6338870" lon="-7.1105570">
        <ele>1064.9</ele>
        <time>2014-10-02T11:42:02Z</time>
      </trkpt>
      <trkpt lat="42.6338540" lon="-7.1105540">
        <ele>1065.0</ele>
        <time>2014-10-02T11:42:03Z</time>
      </trkpt>
      <trkpt lat="42.6338230" lon="-7.1105480">
        <ele>1065.1</ele>
        <time>2014-10-02T11:42:04Z</time>
      </trkpt>
      <trkpt lat="42.6337920" lon="-7.1105410">
        <ele>1065.2</ele>
        <time>2014-10-02T11:42:05Z</time>
      </trkpt>
      <trkpt lat="42.6337630" lon="-7.1105330">
        <ele>1065.3</ele>
        <time>2014-10-02T11:42:06Z</time>
      </trkpt>
      <trkpt lat="42.6337270" lon="-7.1105210">
        <ele>1065.4</ele>
        <time>2014-10-02T11:42:07Z</time>
      </trkpt>
      <trkpt lat="42.6336920" lon="-7.1105100">
        <ele>1065.5</ele>
        <time>2014-10-02T11:42:08Z</time>
      </trkpt>
      <trkpt lat="42.6336620" lon="-7.1104930">
        <ele>1065.6</ele>
        <time>2014-10-02T11:42:09Z</time>
      </trkpt>
      <trkpt lat="42.6336360" lon="-7.1104780">
        <ele>1065.7</ele>
        <time>2014-10-02T11:42:10Z</time>
      </trkpt>
      <trkpt lat="42.6335830" lon="-7.1104510">
        <ele>1065.8</ele>
        <time>2014-10-02T11:42:12Z</time>
      </trkpt>
      <trkpt lat="42.6335530" lon="-7.1104260">
        <ele>1065.9</ele>
        <time>2014-10-02T11:42:13Z</time>
      </trkpt>
      <trkpt lat="42.6335240" lon="-7.1104000">
        <ele>1065.9</ele>
        <time>2014-10-02T11:42:14Z</time>
      </trkpt>
      <trkpt lat="42.6334980" lon="-7.1103740">
        <ele>1066.0</ele>
        <time>2014-10-02T11:42:15Z</time>
      </trkpt>
      <trkpt lat="42.6334640" lon="-7.1103450">
        <ele>1066.1</ele>
        <time>2014-10-02T11:42:16Z</time>
      </trkpt>
      <trkpt lat="42.6334290" lon="-7.1103130">
        <ele>1066.1</ele>
        <time>2014-10-02T11:42:17Z</time>
      </trkpt>
      <trkpt lat="42.6334070" lon="-7.1102820">
        <ele>1066.1</ele>
        <time>2014-10-02T11:42:18Z</time>
      </trkpt>
      <trkpt lat="42.6333850" lon="-7.1102490">
        <ele>1066.2</ele>
        <time>2014-10-02T11:42:19Z</time>
      </trkpt>
      <trkpt lat="42.6333540" lon="-7.1102150">
        <ele>1066.2</ele>
        <time>2014-10-02T11:42:20Z</time>
      </trkpt>
      <trkpt lat="42.6333270" lon="-7.1101800">
        <ele>1066.2</ele>
        <time>2014-10-02T11:42:21Z</time>
      </trkpt>
      <trkpt lat="42.6332980" lon="-7.1101460">
        <ele>1066.2</ele>
        <time>2014-10-02T11:42:22Z</time>
      </trkpt>
      <trkpt lat="42.6332720" lon="-7.1101190">
        <ele>1066.1</ele>
        <time>2014-10-02T11:42:23Z</time>
      </trkpt>
      <trkpt lat="42.6332450" lon="-7.1100910">
        <ele>1066.1</ele>
        <time>2014-10-02T11:42:24Z</time>
      </trkpt>
      <trkpt lat="42.6332150" lon="-7.1100550">
        <ele>1066.1</ele>
        <time>2014-10-02T11:42:25Z</time>
      </trkpt>
      <trkpt lat="42.6331780" lon="-7.1100140">
        <ele>1066.0</ele>
        <time>2014-10-02T11:42:26Z</time>
      </trkpt>
      <trkpt lat="42.6331470" lon="-7.1099800">
        <ele>1065.9</ele>
        <time>2014-10-02T11:42:27Z</time>
      </trkpt>
      <trkpt lat="42.6331140" lon="-7.1099420">
        <ele>1065.9</ele>
        <time>2014-10-02T11:42:28Z</time>
      </trkpt>
      <trkpt lat="42.6330860" lon="-7.1099070">
        <ele>1065.8</ele>
        <time>2014-10-02T11:42:29Z</time>
      </trkpt>
      <trkpt lat="42.6330570" lon="-7.1098680">
        <ele>1065.8</ele>
        <time>2014-10-02T11:42:30Z</time>
      </trkpt>
      <trkpt lat="42.6330270" lon="-7.1098430">
        <ele>1065.7</ele>
        <time>2014-10-02T11:42:31Z</time>
      </trkpt>
      <trkpt lat="42.6329970" lon="-7.1098180">
        <ele>1065.7</ele>
        <time>2014-10-02T11:42:32Z</time>
      </trkpt>
      <trkpt lat="42.6329650" lon="-7.1097980">
        <ele>1065.7</ele>
        <time>2014-10-02T11:42:33Z</time>
      </trkpt>
      <trkpt lat="42.6329300" lon="-7.1097770">
        <ele>1065.8</ele>
        <time>2014-10-02T11:42:34Z</time>
      </trkpt>
      <trkpt lat="42.6328980" lon="-7.1097540">
        <ele>1065.8</ele>
        <time>2014-10-02T11:42:35Z</time>
      </trkpt>
      <trkpt lat="42.6328640" lon="-7.1097360">
        <ele>1065.9</ele>
        <time>2014-10-02T11:42:36Z</time>
      </trkpt>
      <trkpt lat="42.6328290" lon="-7.1097310">
        <ele>1065.9</ele>
        <time>2014-10-02T11:42:37Z</time>
      </trkpt>
      <trkpt lat="42.6327970" lon="-7.1097320">
        <ele>1065.9</ele>
        <time>2014-10-02T11:42:38Z</time>
      </trkpt>
      <trkpt lat="42.6327640" lon="-7.1097410">
        <ele>1065.9</ele>
        <time>2014-10-02T11:42:39Z</time>
      </trkpt>
      <trkpt lat="42.6327310" lon="-7.1097640">
        <ele>1065.9</ele>
        <time>2014-10-02T11:42:40Z</time>
      </trkpt>
      <trkpt lat="42.6326970" lon="-7.1097930">
        <ele>1065.9</ele>
        <time>2014-10-02T11:42:41Z</time>
      </trkpt>
      <trkpt lat="42.6326730" lon="-7.1098260">
        <ele>1065.8</ele>
        <time>2014-10-02T11:42:42Z</time>
      </trkpt>
      <trkpt lat="42.6326530" lon="-7.1098640">
        <ele>1065.8</ele>
        <time>2014-10-02T11:42:43Z</time>
      </trkpt>
      <trkpt lat="42.6326320" lon="-7.1099010">
        <ele>1065.8</ele>
        <time>2014-10-02T11:42:44Z</time>
      </trkpt>
      <trkpt lat="42.6326080" lon="-7.1099430">
        <ele>1065.7</ele>
        <time>2014-10-02T11:42:45Z</time>
      </trkpt>
      <trkpt lat="42.6325840" lon="-7.1099850">
        <ele>1065.7</ele>
        <time>2014-10-02T11:42:46Z</time>
      </trkpt>
      <trkpt lat="42.6325610" lon="-7.1100290">
        <ele>1065.6</ele>
        <time>2014-10-02T11:42:47Z</time>
      </trkpt>
      <trkpt lat="42.6325390" lon="-7.1100690">
        <ele>1065.6</ele>
        <time>2014-10-02T11:42:48Z</time>
      </trkpt>
      <trkpt lat="42.6325220" lon="-7.1101110">
        <ele>1065.5</ele>
        <time>2014-10-02T11:42:49Z</time>
      </trkpt>
      <trkpt lat="42.6325050" lon="-7.1101560">
        <ele>1065.5</ele>
        <time>2014-10-02T11:42:50Z</time>
      </trkpt>
      <trkpt lat="42.6324920" lon="-7.1101930">
        <ele>1065.4</ele>
        <time>2014-10-02T11:42:51Z</time>
      </trkpt>
      <trkpt lat="42.6324790" lon="-7.1102320">
        <ele>1065.4</ele>
        <time>2014-10-02T11:42:52Z</time>
      </trkpt>
      <trkpt lat="42.6324620" lon="-7.1102720">
        <ele>1065.4</ele>
        <time>2014-10-02T11:42:53Z</time>
      </trkpt>
      <trkpt lat="42.6324430" lon="-7.1103200">
        <ele>1065.3</ele>
        <time>2014-10-02T11:42:54Z</time>
      </trkpt>
      <trkpt lat="42.6324280" lon="-7.1103620">
        <ele>1065.3</ele>
        <time>2014-10-02T11:42:55Z</time>
      </trkpt>
      <trkpt lat="42.6324100" lon="-7.1104060">
        <ele>1065.3</ele>
        <time>2014-10-02T11:42:56Z</time>
      </trkpt>
      <trkpt lat="42.6323960" lon="-7.1104520">
        <ele>1065.2</ele>
        <time>2014-10-02T11:42:57Z</time>
      </trkpt>
      <trkpt lat="42.6323840" lon="-7.1104930">
        <ele>1065.2</ele>
        <time>2014-10-02T11:42:58Z</time>
      </trkpt>
      <trkpt lat="42.6323680" lon="-7.1105340">
        <ele>1065.2</ele>
        <time>2014-10-02T11:42:59Z</time>
      </trkpt>
      <trkpt lat="42.6323540" lon="-7.1105710">
        <ele>1065.2</ele>
        <time>2014-10-02T11:43:00Z</time>
      </trkpt>
      <trkpt lat="42.6323410" lon="-7.1106040">
        <ele>1065.2</ele>
        <time>2014-10-02T11:43:01Z</time>
      </trkpt>
      <trkpt lat="42.6323290" lon="-7.1106370">
        <ele>1065.2</ele>
        <time>2014-10-02T11:43:02Z</time>
      </trkpt>
      <trkpt lat="42.6323170" lon="-7.1106740">
        <ele>1065.2</ele>
        <time>2014-10-02T11:43:03Z</time>
      </trkpt>
      <trkpt lat="42.6322990" lon="-7.1107190">
        <ele>1065.3</ele>
        <time>2014-10-02T11:43:04Z</time>
      </trkpt>
      <trkpt lat="42.6322880" lon="-7.1107570">
        <ele>1065.3</ele>
        <time>2014-10-02T11:43:05Z</time>
      </trkpt>
      <trkpt lat="42.6322720" lon="-7.1107920">
        <ele>1065.3</ele>
        <time>2014-10-02T11:43:06Z</time>
      </trkpt>
      <trkpt lat="42.6322620" lon="-7.1108310">
        <ele>1065.4</ele>
        <time>2014-10-02T11:43:07Z</time>
      </trkpt>
      <trkpt lat="42.6322480" lon="-7.1108680">
        <ele>1065.5</ele>
        <time>2014-10-02T11:43:08Z</time>
      </trkpt>
      <trkpt lat="42.6322350" lon="-7.1109030">
        <ele>1065.6</ele>
        <time>2014-10-02T11:43:09Z</time>
      </trkpt>
      <trkpt lat="42.6322170" lon="-7.1109420">
        <ele>1065.7</ele>
        <time>2014-10-02T11:43:10Z</time>
      </trkpt>
      <trkpt lat="42.6321970" lon="-7.1109870">
        <ele>1065.8</ele>
        <time>2014-10-02T11:43:11Z</time>
      </trkpt>
      <trkpt lat="42.6321810" lon="-7.1110360">
        <ele>1065.8</ele>
        <time>2014-10-02T11:43:12Z</time>
      </trkpt>
      <trkpt lat="42.6321630" lon="-7.1110900">
        <ele>1065.8</ele>
        <time>2014-10-02T11:43:13Z</time>
      </trkpt>
      <trkpt lat="42.6321480" lon="-7.1111410">
        <ele>1065.8</ele>
        <time>2014-10-02T11:43:14Z</time>
      </trkpt>
      <trkpt lat="42.6321340" lon="-7.1111930">
        <ele>1065.8</ele>
        <time>2014-10-02T11:43:15Z</time>
      </trkpt>
      <trkpt lat="42.6321220" lon="-7.1112450">
        <ele>1065.8</ele>
        <time>2014-10-02T11:43:16Z</time>
      </trkpt>
      <trkpt lat="42.6321080" lon="-7.1112990">
        <ele>1065.9</ele>
        <time>2014-10-02T11:43:17Z</time>
      </trkpt>
      <trkpt lat="42.6320950" lon="-7.1113440">
        <ele>1065.9</ele>
        <time>2014-10-02T11:43:18Z</time>
      </trkpt>
      <trkpt lat="42.6320810" lon="-7.1113910">
        <ele>1066.0</ele>
        <time>2014-10-02T11:43:19Z</time>
      </trkpt>
      <trkpt lat="42.6320620" lon="-7.1114400">
        <ele>1066.0</ele>
        <time>2014-10-02T11:43:20Z</time>
      </trkpt>
      <trkpt lat="42.6320440" lon="-7.1114970">
        <ele>1066.0</ele>
        <time>2014-10-02T11:43:21Z</time>
      </trkpt>
      <trkpt lat="42.6320240" lon="-7.1115470">
        <ele>1066.1</ele>
        <time>2014-10-02T11:43:22Z</time>
      </trkpt>
      <trkpt lat="42.6320020" lon="-7.1115960">
        <ele>1066.2</ele>
        <time>2014-10-02T11:43:23Z</time>
      </trkpt>
      <trkpt lat="42.6319770" lon="-7.1116410">
        <ele>1066.3</ele>
        <time>2014-10-02T11:43:24Z</time>
      </trkpt>
      <trkpt lat="42.6319580" lon="-7.1116760">
        <ele>1066.4</ele>
        <time>2014-10-02T11:43:25Z</time>
      </trkpt>
      <trkpt lat="42.6319340" lon="-7.1117130">
        <ele>1066.5</ele>
        <time>2014-10-02T11:43:26Z</time>
      </trkpt>
      <trkpt lat="42.6319090" lon="-7.1117420">
        <ele>1066.6</ele>
        <time>2014-10-02T11:43:27Z</time>
      </trkpt>
      <trkpt lat="42.6318790" lon="-7.1117640">
        <ele>1066.7</ele>
        <time>2014-10-02T11:43:28Z</time>
      </trkpt>
      <trkpt lat="42.6318520" lon="-7.1117770">
        <ele>1066.8</ele>
        <time>2014-10-02T11:43:29Z</time>
      </trkpt>
      <trkpt lat="42.6318220" lon="-7.1117850">
        <ele>1066.8</ele>
        <time>2014-10-02T11:43:30Z</time>
      </trkpt>
      <trkpt lat="42.6317870" lon="-7.1117890">
        <ele>1066.9</ele>
        <time>2014-10-02T11:43:31Z</time>
      </trkpt>
      <trkpt lat="42.6317540" lon="-7.1117870">
        <ele>1066.9</ele>
        <time>2014-10-02T11:43:32Z</time>
      </trkpt>
      <trkpt lat="42.6317250" lon="-7.1117830">
        <ele>1066.9</ele>
        <time>2014-10-02T11:43:33Z</time>
      </trkpt>
      <trkpt lat="42.6316940" lon="-7.1117760">
        <ele>1066.9</ele>
        <time>2014-10-02T11:43:34Z</time>
      </trkpt>
      <trkpt lat="42.6316600" lon="-7.1117690">
        <ele>1066.9</ele>
        <time>2014-10-02T11:43:35Z</time>
      </trkpt>
      <trkpt lat="42.6316250" lon="-7.1117580">
        <ele>1066.9</ele>
        <time>2014-10-02T11:43:36Z</time>
      </trkpt>
      <trkpt lat="42.6315910" lon="-7.1117480">
        <ele>1066.9</ele>
        <time>2014-10-02T11:43:37Z</time>
      </trkpt>
      <trkpt lat="42.6315600" lon="-7.1117450">
        <ele>1066.9</ele>
        <time>2014-10-02T11:43:38Z</time>
      </trkpt>
      <trkpt lat="42.6315260" lon="-7.1117420">
        <ele>1066.9</ele>
        <time>2014-10-02T11:43:39Z</time>
      </trkpt>
      <trkpt lat="42.6314900" lon="-7.1117400">
        <ele>1067.0</ele>
        <time>2014-10-02T11:43:40Z</time>
      </trkpt>
      <trkpt lat="42.6314560" lon="-7.1117300">
        <ele>1067.0</ele>
        <time>2014-10-02T11:43:41Z</time>
      </trkpt>
      <trkpt lat="42.6314210" lon="-7.1117240">
        <ele>1067.1</ele>
        <time>2014-10-02T11:43:42Z</time>
      </trkpt>
      <trkpt lat="42.6313880" lon="-7.1117180">
        <ele>1067.2</ele>
        <time>2014-10-02T11:43:43Z</time>
      </trkpt>
      <trkpt lat="42.6313550" lon="-7.1117090">
        <ele>1067.2</ele>
        <time>2014-10-02T11:43:44Z</time>
      </trkpt>
      <trkpt lat="42.6313240" lon="-7.1116990">
        <ele>1067.3</ele>
        <time>2014-10-02T11:43:45Z</time>
      </trkpt>
      <trkpt lat="42.6312620" lon="-7.1116790">
        <ele>1067.4</ele>
        <time>2014-10-02T11:43:47Z</time>
      </trkpt>
      <trkpt lat="42.6312150" lon="-7.1116470">
        <ele>1067.6</ele>
        <time>2014-10-02T11:43:49Z</time>
      </trkpt>
      <trkpt lat="42.6311900" lon="-7.1116340">
        <ele>1067.7</ele>
        <time>2014-10-02T11:43:50Z</time>
      </trkpt>
      <trkpt lat="42.6311620" lon="-7.1116230">
        <ele>1068.0</ele>
        <time>2014-10-02T11:43:51Z</time>
      </trkpt>
      <trkpt lat="42.6311380" lon="-7.1116050">
        <ele>1068.5</ele>
        <time>2014-10-02T11:43:52Z</time>
      </trkpt>
      <trkpt lat="42.6311130" lon="-7.1115850">
        <ele>1068.9</ele>
        <time>2014-10-02T11:43:53Z</time>
      </trkpt>
      <trkpt lat="42.6310870" lon="-7.1115690">
        <ele>1069.3</ele>
        <time>2014-10-02T11:43:54Z</time>
      </trkpt>
      <trkpt lat="42.6310620" lon="-7.1115470">
        <ele>1069.6</ele>
        <time>2014-10-02T11:43:55Z</time>
      </trkpt>
      <trkpt lat="42.6310190" lon="-7.1115080">
        <ele>1070.2</ele>
        <time>2014-10-02T11:43:57Z</time>
      </trkpt>
      <trkpt lat="42.6309940" lon="-7.1114860">
        <ele>1070.4</ele>
        <time>2014-10-02T11:43:58Z</time>
      </trkpt>
      <trkpt lat="42.6309730" lon="-7.1114590">
        <ele>1070.7</ele>
        <time>2014-10-02T11:43:59Z</time>
      </trkpt>
      <trkpt lat="42.6309470" lon="-7.1114350">
        <ele>1070.9</ele>
        <time>2014-10-02T11:44:00Z</time>
      </trkpt>
      <trkpt lat="42.6309190" lon="-7.1114100">
        <ele>1071.2</ele>
        <time>2014-10-02T11:44:01Z</time>
      </trkpt>
      <trkpt lat="42.6308890" lon="-7.1113840">
        <ele>1071.6</ele>
        <time>2014-10-02T11:44:02Z</time>
      </trkpt>
      <trkpt lat="42.6308650" lon="-7.1113600">
        <ele>1071.8</ele>
        <time>2014-10-02T11:44:03Z</time>
      </trkpt>
      <trkpt lat="42.6308220" lon="-7.1113180">
        <ele>1072.3</ele>
        <time>2014-10-02T11:44:05Z</time>
      </trkpt>
      <trkpt lat="42.6308000" lon="-7.1112910">
        <ele>1072.6</ele>
        <time>2014-10-02T11:44:06Z</time>
      </trkpt>
      <trkpt lat="42.6307770" lon="-7.1112660">
        <ele>1072.9</ele>
        <time>2014-10-02T11:44:07Z</time>
      </trkpt>
      <trkpt lat="42.6307530" lon="-7.1112410">
        <ele>1073.2</ele>
        <time>2014-10-02T11:44:08Z</time>
      </trkpt>
      <trkpt lat="42.6307330" lon="-7.1112110">
        <ele>1073.4</ele>
        <time>2014-10-02T11:44:09Z</time>
      </trkpt>
      <trkpt lat="42.6307120" lon="-7.1111780">
        <ele>1073.7</ele>
        <time>2014-10-02T11:44:10Z</time>
      </trkpt>
      <trkpt lat="42.6306930" lon="-7.1111430">
        <ele>1074.0</ele>
        <time>2014-10-02T11:44:11Z</time>
      </trkpt>
      <trkpt lat="42.6306780" lon="-7.1111100">
        <ele>1074.3</ele>
        <time>2014-10-02T11:44:12Z</time>
      </trkpt>
      <trkpt lat="42.6306620" lon="-7.1110700">
        <ele>1074.6</ele>
        <time>2014-10-02T11:44:13Z</time>
      </trkpt>
      <trkpt lat="42.6306450" lon="-7.1110330">
        <ele>1074.9</ele>
        <time>2014-10-02T11:44:14Z</time>
      </trkpt>
      <trkpt lat="42.6306220" lon="-7.1109880">
        <ele>1075.2</ele>
        <time>2014-10-02T11:44:15Z</time>
      </trkpt>
      <trkpt lat="42.6306010" lon="-7.1109500">
        <ele>1075.5</ele>
        <time>2014-10-02T11:44:16Z</time>
      </trkpt>
      <trkpt lat="42.6305860" lon="-7.1109110">
        <ele>1075.8</ele>
        <time>2014-10-02T11:44:17Z</time>
      </trkpt>
      <trkpt lat="42.6305690" lon="-7.1108760">
        <ele>1076.1</ele>
        <time>2014-10-02T11:44:18Z</time>
      </trkpt>
      <trkpt lat="42.6305500" lon="-7.1108400">
        <ele>1076.5</ele>
        <time>2014-10-02T11:44:19Z</time>
      </trkpt>
      <trkpt lat="42.6305320" lon="-7.1108060">
        <ele>1076.8</ele>
        <time>2014-10-02T11:44:20Z</time>
      </trkpt>
      <trkpt lat="42.6305150" lon="-7.1107770">
        <ele>1077.1</ele>
        <time>2014-10-02T11:44:21Z</time>
      </trkpt>
      <trkpt lat="42.6304990" lon="-7.1107460">
        <ele>1077.3</ele>
        <time>2014-10-02T11:44:22Z</time>
      </trkpt>
      <trkpt lat="42.6304720" lon="-7.1106920">
        <ele>1077.8</ele>
        <time>2014-10-02T11:44:24Z</time>
      </trkpt>
      <trkpt lat="42.6304520" lon="-7.1106330">
        <ele>1078.3</ele>
        <time>2014-10-02T11:44:26Z</time>
      </trkpt>
      <trkpt lat="42.6304190" lon="-7.1105710">
        <ele>1078.8</ele>
        <time>2014-10-02T11:44:28Z</time>
      </trkpt>
      <trkpt lat="42.6304030" lon="-7.1105350">
        <ele>1079.1</ele>
        <time>2014-10-02T11:44:29Z</time>
      </trkpt>
      <trkpt lat="42.6303860" lon="-7.1104980">
        <ele>1079.4</ele>
        <time>2014-10-02T11:44:30Z</time>
      </trkpt>
      <trkpt lat="42.6303700" lon="-7.1104660">
        <ele>1079.7</ele>
        <time>2014-10-02T11:44:31Z</time>
      </trkpt>
      <trkpt lat="42.6303510" lon="-7.1104280">
        <ele>1080.1</ele>
        <time>2014-10-02T11:44:32Z</time>
      </trkpt>
      <trkpt lat="42.6303310" lon="-7.1103870">
        <ele>1080.5</ele>
        <time>2014-10-02T11:44:33Z</time>
      </trkpt>
      <trkpt lat="42.6303130" lon="-7.1103560">
        <ele>1080.8</ele>
        <time>2014-10-02T11:44:34Z</time>
      </trkpt>
      <trkpt lat="42.6302940" lon="-7.1103250">
        <ele>1081.1</ele>
        <time>2014-10-02T11:44:35Z</time>
      </trkpt>
      <trkpt lat="42.6302600" lon="-7.1102670">
        <ele>1081.7</ele>
        <time>2014-10-02T11:44:37Z</time>
      </trkpt>
      <trkpt lat="42.6302420" lon="-7.1102350">
        <ele>1082.0</ele>
        <time>2014-10-02T11:44:38Z</time>
      </trkpt>
      <trkpt lat="42.6302250" lon="-7.1102040">
        <ele>1082.4</ele>
        <time>2014-10-02T11:44:39Z</time>
      </trkpt>
      <trkpt lat="42.6302060" lon="-7.1101730">
        <ele>1082.7</ele>
        <time>2014-10-02T11:44:40Z</time>
      </trkpt>
      <trkpt lat="42.6301880" lon="-7.1101450">
        <ele>1083.1</ele>
        <time>2014-10-02T11:44:41Z</time>
      </trkpt>
      <trkpt lat="42.6301700" lon="-7.1101160">
        <ele>1083.4</ele>
        <time>2014-10-02T11:44:42Z</time>
      </trkpt>
      <trkpt lat="42.6301480" lon="-7.1100790">
        <ele>1083.9</ele>
        <time>2014-10-02T11:44:43Z</time>
      </trkpt>
      <trkpt lat="42.6301300" lon="-7.1100480">
        <ele>1084.2</ele>
        <time>2014-10-02T11:44:44Z</time>
      </trkpt>
      <trkpt lat="42.6300990" lon="-7.1099950">
        <ele>1084.8</ele>
        <time>2014-10-02T11:44:46Z</time>
      </trkpt>
      <trkpt lat="42.6300630" lon="-7.1099400">
        <ele>1085.5</ele>
        <time>2014-10-02T11:44:48Z</time>
      </trkpt>
      <trkpt lat="42.6300430" lon="-7.1099130">
        <ele>1085.9</ele>
        <time>2014-10-02T11:44:49Z</time>
      </trkpt>
      <trkpt lat="42.6300070" lon="-7.1098690">
        <ele>1086.4</ele>
        <time>2014-10-02T11:44:51Z</time>
      </trkpt>
      <trkpt lat="42.6299670" lon="-7.1098330">
        <ele>1087.0</ele>
        <time>2014-10-02T11:44:53Z</time>
      </trkpt>
      <trkpt lat="42.6299180" lon="-7.1098010">
        <ele>1087.6</ele>
        <time>2014-10-02T11:44:55Z</time>
      </trkpt>
      <trkpt lat="42.6298920" lon="-7.1097860">
        <ele>1087.9</ele>
        <time>2014-10-02T11:44:56Z</time>
      </trkpt>
      <trkpt lat="42.6298650" lon="-7.1097710">
        <ele>1088.2</ele>
        <time>2014-10-02T11:44:57Z</time>
      </trkpt>
      <trkpt lat="42.6298370" lon="-7.1097580">
        <ele>1088.5</ele>
        <time>2014-10-02T11:44:58Z</time>
      </trkpt>
      <trkpt lat="42.6298110" lon="-7.1097470">
        <ele>1088.8</ele>
        <time>2014-10-02T11:44:59Z</time>
      </trkpt>
      <trkpt lat="42.6297620" lon="-7.1097180">
        <ele>1089.4</ele>
        <time>2014-10-02T11:45:01Z</time>
      </trkpt>
      <trkpt lat="42.6297130" lon="-7.1096840">
        <ele>1090.1</ele>
        <time>2014-10-02T11:45:03Z</time>
      </trkpt>
      <trkpt lat="42.6296690" lon="-7.1096510">
        <ele>1090.7</ele>
        <time>2014-10-02T11:45:05Z</time>
      </trkpt>
      <trkpt lat="42.6296350" lon="-7.1096240">
        <ele>1091.2</ele>
        <time>2014-10-02T11:45:07Z</time>
      </trkpt>
      <trkpt lat="42.6296130" lon="-7.1096010">
        <ele>1091.6</ele>
        <time>2014-10-02T11:45:09Z</time>
      </trkpt>
      <trkpt lat="42.6295810" lon="-7.1095320">
        <ele>1092.3</ele>
        <time>2014-10-02T11:45:11Z</time>
      </trkpt>
      <trkpt lat="42.6295770" lon="-7.1094890">
        <ele>1092.7</ele>
        <time>2014-10-02T11:45:12Z</time>
      </trkpt>
      <trkpt lat="42.6295820" lon="-7.1094180">
        <ele>1093.2</ele>
        <time>2014-10-02T11:45:14Z</time>
      </trkpt>
      <trkpt lat="42.6295860" lon="-7.1093790">
        <ele>1093.6</ele>
        <time>2014-10-02T11:45:15Z</time>
      </trkpt>
      <trkpt lat="42.6296040" lon="-7.1093210">
        <ele>1094.0</ele>
        <time>2014-10-02T11:45:17Z</time>
      </trkpt>
      <trkpt lat="42.6296270" lon="-7.1092640">
        <ele>1094.5</ele>
        <time>2014-10-02T11:45:19Z</time>
      </trkpt>
      <trkpt lat="42.6296410" lon="-7.1092310">
        <ele>1094.8</ele>
        <time>2014-10-02T11:45:20Z</time>
      </trkpt>
      <trkpt lat="42.6296720" lon="-7.1091720">
        <ele>1095.4</ele>
        <time>2014-10-02T11:45:22Z</time>
      </trkpt>
      <trkpt lat="42.6297090" lon="-7.1091190">
        <ele>1096.0</ele>
        <time>2014-10-02T11:45:24Z</time>
      </trkpt>
      <trkpt lat="42.6297250" lon="-7.1090900">
        <ele>1096.3</ele>
        <time>2014-10-02T11:45:25Z</time>
      </trkpt>
      <trkpt lat="42.6297470" lon="-7.1090610">
        <ele>1096.6</ele>
        <time>2014-10-02T11:45:26Z</time>
      </trkpt>
      <trkpt lat="42.6297840" lon="-7.1090180">
        <ele>1097.1</ele>
        <time>2014-10-02T11:45:28Z</time>
      </trkpt>
      <trkpt lat="42.6298040" lon="-7.1089860">
        <ele>1097.5</ele>
        <time>2014-10-02T11:45:29Z</time>
      </trkpt>
      <trkpt lat="42.6298380" lon="-7.1089360">
        <ele>1098.1</ele>
        <time>2014-10-02T11:45:31Z</time>
      </trkpt>
      <trkpt lat="42.6298750" lon="-7.1088830">
        <ele>1098.7</ele>
        <time>2014-10-02T11:45:33Z</time>
      </trkpt>
      <trkpt lat="42.6298950" lon="-7.1088550">
        <ele>1099.0</ele>
        <time>2014-10-02T11:45:34Z</time>
      </trkpt>
      <trkpt lat="42.6299290" lon="-7.1088010">
        <ele>1099.5</ele>
        <time>2014-10-02T11:45:36Z</time>
      </trkpt>
      <trkpt lat="42.6299530" lon="-7.1087430">
        <ele>1100.1</ele>
        <time>2014-10-02T11:45:38Z</time>
      </trkpt>
      <trkpt lat="42.6299740" lon="-7.1086840">
        <ele>1100.6</ele>
        <time>2014-10-02T11:45:40Z</time>
      </trkpt>
      <trkpt lat="42.6299870" lon="-7.1086180">
        <ele>1101.1</ele>
        <time>2014-10-02T11:45:42Z</time>
      </trkpt>
      <trkpt lat="42.6299860" lon="-7.1085460">
        <ele>1101.6</ele>
        <time>2014-10-02T11:45:44Z</time>
      </trkpt>
      <trkpt lat="42.6299790" lon="-7.1085070">
        <ele>1101.9</ele>
        <time>2014-10-02T11:45:45Z</time>
      </trkpt>
      <trkpt lat="42.6299690" lon="-7.1084730">
        <ele>1102.2</ele>
        <time>2014-10-02T11:45:46Z</time>
      </trkpt>
      <trkpt lat="42.6299460" lon="-7.1084040">
        <ele>1102.7</ele>
        <time>2014-10-02T11:45:48Z</time>
      </trkpt>
      <trkpt lat="42.6299190" lon="-7.1083430">
        <ele>1103.1</ele>
        <time>2014-10-02T11:45:50Z</time>
      </trkpt>
      <trkpt lat="42.6299000" lon="-7.1083070">
        <ele>1103.4</ele>
        <time>2014-10-02T11:45:51Z</time>
      </trkpt>
      <trkpt lat="42.6298790" lon="-7.1082700">
        <ele>1103.7</ele>
        <time>2014-10-02T11:45:52Z</time>
      </trkpt>
      <trkpt lat="42.6298570" lon="-7.1082380">
        <ele>1104.0</ele>
        <time>2014-10-02T11:45:53Z</time>
      </trkpt>
      <trkpt lat="42.6298370" lon="-7.1082090">
        <ele>1104.3</ele>
        <time>2014-10-02T11:45:54Z</time>
      </trkpt>
      <trkpt lat="42.6298170" lon="-7.1081760">
        <ele>1104.6</ele>
        <time>2014-10-02T11:45:55Z</time>
      </trkpt>
      <trkpt lat="42.6297790" lon="-7.1081290">
        <ele>1105.0</ele>
        <time>2014-10-02T11:45:57Z</time>
      </trkpt>
      <trkpt lat="42.6297370" lon="-7.1080720">
        <ele>1105.6</ele>
        <time>2014-10-02T11:45:59Z</time>
      </trkpt>
      <trkpt lat="42.6297100" lon="-7.1080360">
        <ele>1106.0</ele>
        <time>2014-10-02T11:46:00Z</time>
      </trkpt>
      <trkpt lat="42.6296860" lon="-7.1080010">
        <ele>1106.3</ele>
        <time>2014-10-02T11:46:01Z</time>
      </trkpt>
      <trkpt lat="42.6296630" lon="-7.1079730">
        <ele>1106.5</ele>
        <time>2014-10-02T11:46:02Z</time>
      </trkpt>
      <trkpt lat="42.6296390" lon="-7.1079480">
        <ele>1106.8</ele>
        <time>2014-10-02T11:46:03Z</time>
      </trkpt>
      <trkpt lat="42.6296130" lon="-7.1079210">
        <ele>1107.0</ele>
        <time>2014-10-02T11:46:04Z</time>
      </trkpt>
      <trkpt lat="42.6295840" lon="-7.1078990">
        <ele>1107.3</ele>
        <time>2014-10-02T11:46:05Z</time>
      </trkpt>
      <trkpt lat="42.6295580" lon="-7.1078740">
        <ele>1107.6</ele>
        <time>2014-10-02T11:46:06Z</time>
      </trkpt>
      <trkpt lat="42.6295390" lon="-7.1078430">
        <ele>1107.8</ele>
        <time>2014-10-02T11:46:07Z</time>
      </trkpt>
      <trkpt lat="42.6295200" lon="-7.1078070">
        <ele>1108.1</ele>
        <time>2014-10-02T11:46:08Z</time>
      </trkpt>
      <trkpt lat="42.6295000" lon="-7.1077760">
        <ele>1108.4</ele>
        <time>2014-10-02T11:46:09Z</time>
      </trkpt>
      <trkpt lat="42.6294730" lon="-7.1077070">
        <ele>1109.0</ele>
        <time>2014-10-02T11:46:11Z</time>
      </trkpt>
      <trkpt lat="42.6294580" lon="-7.1076680">
        <ele>1109.3</ele>
        <time>2014-10-02T11:46:12Z</time>
      </trkpt>
      <trkpt lat="42.6294500" lon="-7.1076310">
        <ele>1109.6</ele>
        <time>2014-10-02T11:46:13Z</time>
      </trkpt>
      <trkpt lat="42.6294380" lon="-7.1075720">
        <ele>1110.1</ele>
        <time>2014-10-02T11:46:15Z</time>
      </trkpt>
      <trkpt lat="42.6294260" lon="-7.1075330">
        <ele>1110.4</ele>
        <time>2014-10-02T11:46:16Z</time>
      </trkpt>
      <trkpt lat="42.6294090" lon="-7.1074640">
        <ele>1110.9</ele>
        <time>2014-10-02T11:46:18Z</time>
      </trkpt>
      <trkpt lat="42.6293990" lon="-7.1074260">
        <ele>1111.2</ele>
        <time>2014-10-02T11:46:19Z</time>
      </trkpt>
      <trkpt lat="42.6293900" lon="-7.1073910">
        <ele>1111.5</ele>
        <time>2014-10-02T11:46:20Z</time>
      </trkpt>
      <trkpt lat="42.6293840" lon="-7.1073550">
        <ele>1111.8</ele>
        <time>2014-10-02T11:46:21Z</time>
      </trkpt>
      <trkpt lat="42.6293690" lon="-7.1072890">
        <ele>1112.2</ele>
        <time>2014-10-02T11:46:23Z</time>
      </trkpt>
      <trkpt lat="42.6293580" lon="-7.1072240">
        <ele>1112.7</ele>
        <time>2014-10-02T11:46:25Z</time>
      </trkpt>
      <trkpt lat="42.6293550" lon="-7.1071870">
        <ele>1113.0</ele>
        <time>2014-10-02T11:46:26Z</time>
      </trkpt>
      <trkpt lat="42.6293500" lon="-7.1071510">
        <ele>1113.3</ele>
        <time>2014-10-02T11:46:27Z</time>
      </trkpt>
      <trkpt lat="42.6293420" lon="-7.1070910">
        <ele>1113.7</ele>
        <time>2014-10-02T11:46:29Z</time>
      </trkpt>
      <trkpt lat="42.6293350" lon="-7.1070260">
        <ele>1114.2</ele>
        <time>2014-10-02T11:46:31Z</time>
      </trkpt>
      <trkpt lat="42.6293310" lon="-7.1069880">
        <ele>1114.5</ele>
        <time>2014-10-02T11:46:32Z</time>
      </trkpt>
      <trkpt lat="42.6293240" lon="-7.1069180">
        <ele>1115.0</ele>
        <time>2014-10-02T11:46:34Z</time>
      </trkpt>
      <trkpt lat="42.6293140" lon="-7.1068820">
        <ele>1115.3</ele>
        <time>2014-10-02T11:46:35Z</time>
      </trkpt>
      <trkpt lat="42.6293060" lon="-7.1068450">
        <ele>1115.6</ele>
        <time>2014-10-02T11:46:36Z</time>
      </trkpt>
      <trkpt lat="42.6292990" lon="-7.1068090">
        <ele>1115.8</ele>
        <time>2014-10-02T11:46:37Z</time>
      </trkpt>
      <trkpt lat="42.6292900" lon="-7.1067470">
        <ele>1116.3</ele>
        <time>2014-10-02T11:46:39Z</time>
      </trkpt>
      <trkpt lat="42.6292790" lon="-7.1066730">
        <ele>1116.8</ele>
        <time>2014-10-02T11:46:41Z</time>
      </trkpt>
      <trkpt lat="42.6292670" lon="-7.1066070">
        <ele>1117.3</ele>
        <time>2014-10-02T11:46:43Z</time>
      </trkpt>
      <trkpt lat="42.6292560" lon="-7.1065380">
        <ele>1117.8</ele>
        <time>2014-10-02T11:46:45Z</time>
      </trkpt>
      <trkpt lat="42.6292400" lon="-7.1064750">
        <ele>1118.3</ele>
        <time>2014-10-02T11:46:47Z</time>
      </trkpt>
      <trkpt lat="42.6292170" lon="-7.1064100">
        <ele>1118.8</ele>
        <time>2014-10-02T11:46:49Z</time>
      </trkpt>
      <trkpt lat="42.6291950" lon="-7.1063450">
        <ele>1119.3</ele>
        <time>2014-10-02T11:46:51Z</time>
      </trkpt>
      <trkpt lat="42.6291810" lon="-7.1063090">
        <ele>1119.6</ele>
        <time>2014-10-02T11:46:52Z</time>
      </trkpt>
      <trkpt lat="42.6291610" lon="-7.1062410">
        <ele>1120.1</ele>
        <time>2014-10-02T11:46:54Z</time>
      </trkpt>
      <trkpt lat="42.6291370" lon="-7.1061760">
        <ele>1120.7</ele>
        <time>2014-10-02T11:46:56Z</time>
      </trkpt>
      <trkpt lat="42.6291190" lon="-7.1061140">
        <ele>1121.2</ele>
        <time>2014-10-02T11:46:58Z</time>
      </trkpt>
      <trkpt lat="42.6291100" lon="-7.1060780">
        <ele>1121.5</ele>
        <time>2014-10-02T11:46:59Z</time>
      </trkpt>
      <trkpt lat="42.6290980" lon="-7.1060350">
        <ele>1121.9</ele>
        <time>2014-10-02T11:47:00Z</time>
      </trkpt>
      <trkpt lat="42.6290870" lon="-7.1060010">
        <ele>1122.2</ele>
        <time>2014-10-02T11:47:01Z</time>
      </trkpt>
      <trkpt lat="42.6290740" lon="-7.1059660">
        <ele>1122.6</ele>
        <time>2014-10-02T11:47:02Z</time>
      </trkpt>
      <trkpt lat="42.6290610" lon="-7.1059290">
        <ele>1122.9</ele>
        <time>2014-10-02T11:47:03Z</time>
      </trkpt>
      <trkpt lat="42.6290460" lon="-7.1058950">
        <ele>1123.3</ele>
        <time>2014-10-02T11:47:04Z</time>
      </trkpt>
      <trkpt lat="42.6290300" lon="-7.1058610">
        <ele>1123.6</ele>
        <time>2014-10-02T11:47:05Z</time>
      </trkpt>
      <trkpt lat="42.6290140" lon="-7.1058290">
        <ele>1124.0</ele>
        <time>2014-10-02T11:47:06Z</time>
      </trkpt>
      <trkpt lat="42.6289990" lon="-7.1057980">
        <ele>1124.3</ele>
        <time>2014-10-02T11:47:07Z</time>
      </trkpt>
      <trkpt lat="42.6289810" lon="-7.1057650">
        <ele>1124.6</ele>
        <time>2014-10-02T11:47:08Z</time>
      </trkpt>
      <trkpt lat="42.6289710" lon="-7.1057320">
        <ele>1124.9</ele>
        <time>2014-10-02T11:47:09Z</time>
      </trkpt>
      <trkpt lat="42.6289470" lon="-7.1056690">
        <ele>1125.4</ele>
        <time>2014-10-02T11:47:11Z</time>
      </trkpt>
      <trkpt lat="42.6289260" lon="-7.1056160">
        <ele>1125.9</ele>
        <time>2014-10-02T11:47:13Z</time>
      </trkpt>
      <trkpt lat="42.6289000" lon="-7.1055540">
        <ele>1126.5</ele>
        <time>2014-10-02T11:47:15Z</time>
      </trkpt>
      <trkpt lat="42.6288860" lon="-7.1055210">
        <ele>1126.8</ele>
        <time>2014-10-02T11:47:16Z</time>
      </trkpt>
      <trkpt lat="42.6288670" lon="-7.1054620">
        <ele>1127.3</ele>
        <time>2014-10-02T11:47:18Z</time>
      </trkpt>
      <trkpt lat="42.6288460" lon="-7.1053940">
        <ele>1127.8</ele>
        <time>2014-10-02T11:47:20Z</time>
      </trkpt>
      <trkpt lat="42.6288350" lon="-7.1053590">
        <ele>1128.1</ele>
        <time>2014-10-02T11:47:21Z</time>
      </trkpt>
      <trkpt lat="42.6288240" lon="-7.1053250">
        <ele>1128.4</ele>
        <time>2014-10-02T11:47:22Z</time>
      </trkpt>
      <trkpt lat="42.6288130" lon="-7.1052880">
        <ele>1128.7</ele>
        <time>2014-10-02T11:47:23Z</time>
      </trkpt>
      <trkpt lat="42.6288020" lon="-7.1052490">
        <ele>1129.0</ele>
        <time>2014-10-02T11:47:24Z</time>
      </trkpt>
      <trkpt lat="42.6287920" lon="-7.1052060">
        <ele>1129.3</ele>
        <time>2014-10-02T11:47:25Z</time>
      </trkpt>
      <trkpt lat="42.6287820" lon="-7.1051650">
        <ele>1129.6</ele>
        <time>2014-10-02T11:47:26Z</time>
      </trkpt>
      <trkpt lat="42.6287730" lon="-7.1051290">
        <ele>1129.9</ele>
        <time>2014-10-02T11:47:27Z</time>
      </trkpt>
      <trkpt lat="42.6287650" lon="-7.1050890">
        <ele>1130.2</ele>
        <time>2014-10-02T11:47:28Z</time>
      </trkpt>
      <trkpt lat="42.6287560" lon="-7.1050450">
        <ele>1130.5</ele>
        <time>2014-10-02T11:47:29Z</time>
      </trkpt>
      <trkpt lat="42.6287470" lon="-7.1049970">
        <ele>1130.9</ele>
        <time>2014-10-02T11:47:30Z</time>
      </trkpt>
      <trkpt lat="42.6287370" lon="-7.1049570">
        <ele>1131.2</ele>
        <time>2014-10-02T11:47:31Z</time>
      </trkpt>
      <trkpt lat="42.6287160" lon="-7.1048850">
        <ele>1131.8</ele>
        <time>2014-10-02T11:47:33Z</time>
      </trkpt>
      <trkpt lat="42.6287060" lon="-7.1048430">
        <ele>1132.0</ele>
        <time>2014-10-02T11:47:34Z</time>
      </trkpt>
      <trkpt lat="42.6286950" lon="-7.1048050">
        <ele>1132.3</ele>
        <time>2014-10-02T11:47:35Z</time>
      </trkpt>
      <trkpt lat="42.6286850" lon="-7.1047650">
        <ele>1132.6</ele>
        <time>2014-10-02T11:47:36Z</time>
      </trkpt>
      <trkpt lat="42.6286750" lon="-7.1047240">
        <ele>1132.8</ele>
        <time>2014-10-02T11:47:37Z</time>
      </trkpt>
      <trkpt lat="42.6286640" lon="-7.1046860">
        <ele>1133.1</ele>
        <time>2014-10-02T11:47:38Z</time>
      </trkpt>
      <trkpt lat="42.6286560" lon="-7.1046420">
        <ele>1133.4</ele>
        <time>2014-10-02T11:47:39Z</time>
      </trkpt>
      <trkpt lat="42.6286510" lon="-7.1046050">
        <ele>1133.6</ele>
        <time>2014-10-02T11:47:40Z</time>
      </trkpt>
      <trkpt lat="42.6286450" lon="-7.1045680">
        <ele>1133.9</ele>
        <time>2014-10-02T11:47:41Z</time>
      </trkpt>
      <trkpt lat="42.6286370" lon="-7.1045260">
        <ele>1134.2</ele>
        <time>2014-10-02T11:47:42Z</time>
      </trkpt>
      <trkpt lat="42.6286290" lon="-7.1044790">
        <ele>1134.5</ele>
        <time>2014-10-02T11:47:43Z</time>
      </trkpt>
      <trkpt lat="42.6286240" lon="-7.1044370">
        <ele>1134.8</ele>
        <time>2014-10-02T11:47:44Z</time>
      </trkpt>
      <trkpt lat="42.6286170" lon="-7.1043940">
        <ele>1135.1</ele>
        <time>2014-10-02T11:47:45Z</time>
      </trkpt>
      <trkpt lat="42.6286040" lon="-7.1043200">
        <ele>1135.6</ele>
        <time>2014-10-02T11:47:47Z</time>
      </trkpt>
      <trkpt lat="42.6285960" lon="-7.1042820">
        <ele>1135.9</ele>
        <time>2014-10-02T11:47:48Z</time>
      </trkpt>
      <trkpt lat="42.6285870" lon="-7.1042470">
        <ele>1136.1</ele>
        <time>2014-10-02T11:47:49Z</time>
      </trkpt>
      <trkpt lat="42.6285750" lon="-7.1042100">
        <ele>1136.3</ele>
        <time>2014-10-02T11:47:50Z</time>
      </trkpt>
      <trkpt lat="42.6285680" lon="-7.1041680">
        <ele>1136.6</ele>
        <time>2014-10-02T11:47:51Z</time>
      </trkpt>
      <trkpt lat="42.6285590" lon="-7.1041260">
        <ele>1136.8</ele>
        <time>2014-10-02T11:47:52Z</time>
      </trkpt>
      <trkpt lat="42.6285520" lon="-7.1040810">
        <ele>1137.1</ele>
        <time>2014-10-02T11:47:53Z</time>
      </trkpt>
      <trkpt lat="42.6285460" lon="-7.1040330">
        <ele>1137.4</ele>
        <time>2014-10-02T11:47:54Z</time>
      </trkpt>
      <trkpt lat="42.6285280" lon="-7.1039640">
        <ele>1137.9</ele>
        <time>2014-10-02T11:47:56Z</time>
      </trkpt>
      <trkpt lat="42.6285050" lon="-7.1039060">
        <ele>1138.3</ele>
        <time>2014-10-02T11:47:58Z</time>
      </trkpt>
      <trkpt lat="42.6284870" lon="-7.1038740">
        <ele>1138.6</ele>
        <time>2014-10-02T11:47:59Z</time>
      </trkpt>
      <trkpt lat="42.6284650" lon="-7.1038430">
        <ele>1138.9</ele>
        <time>2014-10-02T11:48:00Z</time>
      </trkpt>
      <trkpt lat="42.6284400" lon="-7.1038210">
        <ele>1139.2</ele>
        <time>2014-10-02T11:48:01Z</time>
      </trkpt>
      <trkpt lat="42.6284130" lon="-7.1038010">
        <ele>1139.4</ele>
        <time>2014-10-02T11:48:02Z</time>
      </trkpt>
      <trkpt lat="42.6283840" lon="-7.1037840">
        <ele>1139.7</ele>
        <time>2014-10-02T11:48:03Z</time>
      </trkpt>
      <trkpt lat="42.6283540" lon="-7.1037670">
        <ele>1140.1</ele>
        <time>2014-10-02T11:48:04Z</time>
      </trkpt>
      <trkpt lat="42.6283270" lon="-7.1037560">
        <ele>1140.4</ele>
        <time>2014-10-02T11:48:05Z</time>
      </trkpt>
      <trkpt lat="42.6282740" lon="-7.1037390">
        <ele>1140.9</ele>
        <time>2014-10-02T11:48:07Z</time>
      </trkpt>
      <trkpt lat="42.6282260" lon="-7.1037190">
        <ele>1141.5</ele>
        <time>2014-10-02T11:48:09Z</time>
      </trkpt>
      <trkpt lat="42.6281970" lon="-7.1037070">
        <ele>1141.8</ele>
        <time>2014-10-02T11:48:10Z</time>
      </trkpt>
      <trkpt lat="42.6281460" lon="-7.1036880">
        <ele>1142.3</ele>
        <time>2014-10-02T11:48:12Z</time>
      </trkpt>
      <trkpt lat="42.6281030" lon="-7.1036620">
        <ele>1142.8</ele>
        <time>2014-10-02T11:48:14Z</time>
      </trkpt>
      <trkpt lat="42.6280610" lon="-7.1036410">
        <ele>1143.3</ele>
        <time>2014-10-02T11:48:16Z</time>
      </trkpt>
      <trkpt lat="42.6280150" lon="-7.1036140">
        <ele>1143.8</ele>
        <time>2014-10-02T11:48:18Z</time>
      </trkpt>
      <trkpt lat="42.6279690" lon="-7.1035830">
        <ele>1144.2</ele>
        <time>2014-10-02T11:48:20Z</time>
      </trkpt>
      <trkpt lat="42.6279420" lon="-7.1035720">
        <ele>1144.5</ele>
        <time>2014-10-02T11:48:21Z</time>
      </trkpt>
      <trkpt lat="42.6279350" lon="-7.1035190">
        <ele>1144.8</ele>
        <time>2014-10-02T11:48:23Z</time>
      </trkpt>
      <trkpt lat="42.6278690" lon="-7.1035120">
        <ele>1145.3</ele>
        <time>2014-10-02T11:48:25Z</time>
      </trkpt>
      <trkpt lat="42.6278430" lon="-7.1035000">
        <ele>1145.5</ele>
        <time>2014-10-02T11:48:26Z</time>
      </trkpt>
      <trkpt lat="42.6277970" lon="-7.1034940">
        <ele>1145.8</ele>
        <time>2014-10-02T11:48:28Z</time>
      </trkpt>
      <trkpt lat="42.6277450" lon="-7.1034990">
        <ele>1146.1</ele>
        <time>2014-10-02T11:48:30Z</time>
      </trkpt>
      <trkpt lat="42.6277050" lon="-7.1034940">
        <ele>1146.4</ele>
        <time>2014-10-02T11:48:31Z</time>
      </trkpt>
      <trkpt lat="42.6276610" lon="-7.1034760">
        <ele>1146.7</ele>
        <time>2014-10-02T11:48:34Z</time>
      </trkpt>
      <trkpt lat="42.6276240" lon="-7.1034740">
        <ele>1147.0</ele>
        <time>2014-10-02T11:48:35Z</time>
      </trkpt>
      <trkpt lat="42.6275870" lon="-7.1034670">
        <ele>1147.3</ele>
        <time>2014-10-02T11:48:36Z</time>
      </trkpt>
      <trkpt lat="42.6275440" lon="-7.1034690">
        <ele>1147.6</ele>
        <time>2014-10-02T11:48:37Z</time>
      </trkpt>
      <trkpt lat="42.6275070" lon="-7.1034660">
        <ele>1147.9</ele>
        <time>2014-10-02T11:48:38Z</time>
      </trkpt>
      <trkpt lat="42.6274780" lon="-7.1034590">
        <ele>1148.2</ele>
        <time>2014-10-02T11:48:39Z</time>
      </trkpt>
      <trkpt lat="42.6274490" lon="-7.1034550">
        <ele>1148.4</ele>
        <time>2014-10-02T11:48:40Z</time>
      </trkpt>
      <trkpt lat="42.6274180" lon="-7.1034520">
        <ele>1148.7</ele>
        <time>2014-10-02T11:48:41Z</time>
      </trkpt>
      <trkpt lat="42.6273890" lon="-7.1034460">
        <ele>1149.0</ele>
        <time>2014-10-02T11:48:42Z</time>
      </trkpt>
      <trkpt lat="42.6273600" lon="-7.1034390">
        <ele>1149.2</ele>
        <time>2014-10-02T11:48:43Z</time>
      </trkpt>
      <trkpt lat="42.6273290" lon="-7.1034260">
        <ele>1149.5</ele>
        <time>2014-10-02T11:48:44Z</time>
      </trkpt>
      <trkpt lat="42.6272970" lon="-7.1034160">
        <ele>1149.8</ele>
        <time>2014-10-02T11:48:45Z</time>
      </trkpt>
      <trkpt lat="42.6272510" lon="-7.1033980">
        <ele>1150.2</ele>
        <time>2014-10-02T11:48:47Z</time>
      </trkpt>
      <trkpt lat="42.6272010" lon="-7.1033760">
        <ele>1150.6</ele>
        <time>2014-10-02T11:48:49Z</time>
      </trkpt>
      <trkpt lat="42.6271710" lon="-7.1033650">
        <ele>1150.9</ele>
        <time>2014-10-02T11:48:50Z</time>
      </trkpt>
      <trkpt lat="42.6271280" lon="-7.1033260">
        <ele>1151.2</ele>
        <time>2014-10-02T11:48:52Z</time>
      </trkpt>
      <trkpt lat="42.6271080" lon="-7.1033020">
        <ele>1151.4</ele>
        <time>2014-10-02T11:48:53Z</time>
      </trkpt>
      <trkpt lat="42.6270840" lon="-7.1032720">
        <ele>1151.7</ele>
        <time>2014-10-02T11:48:54Z</time>
      </trkpt>
      <trkpt lat="42.6270550" lon="-7.1032430">
        <ele>1151.9</ele>
        <time>2014-10-02T11:48:55Z</time>
      </trkpt>
      <trkpt lat="42.6270310" lon="-7.1032090">
        <ele>1152.2</ele>
        <time>2014-10-02T11:48:56Z</time>
      </trkpt>
      <trkpt lat="42.6270100" lon="-7.1031740">
        <ele>1152.4</ele>
        <time>2014-10-02T11:48:57Z</time>
      </trkpt>
      <trkpt lat="42.6269880" lon="-7.1031460">
        <ele>1152.7</ele>
        <time>2014-10-02T11:48:58Z</time>
      </trkpt>
      <trkpt lat="42.6269620" lon="-7.1031120">
        <ele>1152.9</ele>
        <time>2014-10-02T11:48:59Z</time>
      </trkpt>
      <trkpt lat="42.6269390" lon="-7.1030820">
        <ele>1153.2</ele>
        <time>2014-10-02T11:49:00Z</time>
      </trkpt>
      <trkpt lat="42.6269140" lon="-7.1030550">
        <ele>1153.5</ele>
        <time>2014-10-02T11:49:01Z</time>
      </trkpt>
      <trkpt lat="42.6268700" lon="-7.1030100">
        <ele>1153.9</ele>
        <time>2014-10-02T11:49:03Z</time>
      </trkpt>
      <trkpt lat="42.6268410" lon="-7.1029830">
        <ele>1154.2</ele>
        <time>2014-10-02T11:49:04Z</time>
      </trkpt>
      <trkpt lat="42.6268150" lon="-7.1029590">
        <ele>1154.4</ele>
        <time>2014-10-02T11:49:05Z</time>
      </trkpt>
      <trkpt lat="42.6267900" lon="-7.1029350">
        <ele>1154.7</ele>
        <time>2014-10-02T11:49:06Z</time>
      </trkpt>
      <trkpt lat="42.6267650" lon="-7.1029110">
        <ele>1154.9</ele>
        <time>2014-10-02T11:49:07Z</time>
      </trkpt>
      <trkpt lat="42.6267400" lon="-7.1028870">
        <ele>1155.2</ele>
        <time>2014-10-02T11:49:08Z</time>
      </trkpt>
      <trkpt lat="42.6267140" lon="-7.1028620">
        <ele>1155.5</ele>
        <time>2014-10-02T11:49:09Z</time>
      </trkpt>
      <trkpt lat="42.6266890" lon="-7.1028350">
        <ele>1155.8</ele>
        <time>2014-10-02T11:49:10Z</time>
      </trkpt>
      <trkpt lat="42.6266640" lon="-7.1028060">
        <ele>1156.1</ele>
        <time>2014-10-02T11:49:11Z</time>
      </trkpt>
      <trkpt lat="42.6266400" lon="-7.1027770">
        <ele>1156.4</ele>
        <time>2014-10-02T11:49:12Z</time>
      </trkpt>
      <trkpt lat="42.6266140" lon="-7.1027480">
        <ele>1156.7</ele>
        <time>2014-10-02T11:49:13Z</time>
      </trkpt>
      <trkpt lat="42.6265920" lon="-7.1027210">
        <ele>1157.0</ele>
        <time>2014-10-02T11:49:14Z</time>
      </trkpt>
      <trkpt lat="42.6265690" lon="-7.1026900">
        <ele>1157.3</ele>
        <time>2014-10-02T11:49:15Z</time>
      </trkpt>
      <trkpt lat="42.6265330" lon="-7.1026320">
        <ele>1157.8</ele>
        <time>2014-10-02T11:49:17Z</time>
      </trkpt>
      <trkpt lat="42.6265140" lon="-7.1026020">
        <ele>1158.1</ele>
        <time>2014-10-02T11:49:18Z</time>
      </trkpt>
      <trkpt lat="42.6264930" lon="-7.1025670">
        <ele>1158.5</ele>
        <time>2014-10-02T11:49:19Z</time>
      </trkpt>
      <trkpt lat="42.6264740" lon="-7.1025370">
        <ele>1158.8</ele>
        <time>2014-10-02T11:49:20Z</time>
      </trkpt>
      <trkpt lat="42.6264530" lon="-7.1025040">
        <ele>1159.1</ele>
        <time>2014-10-02T11:49:21Z</time>
      </trkpt>
      <trkpt lat="42.6264190" lon="-7.1024550">
        <ele>1159.6</ele>
        <time>2014-10-02T11:49:23Z</time>
      </trkpt>
      <trkpt lat="42.6264000" lon="-7.1024280">
        <ele>1159.9</ele>
        <time>2014-10-02T11:49:24Z</time>
      </trkpt>
      <trkpt lat="42.6263810" lon="-7.1024000">
        <ele>1160.1</ele>
        <time>2014-10-02T11:49:25Z</time>
      </trkpt>
      <trkpt lat="42.6263610" lon="-7.1023680">
        <ele>1160.4</ele>
        <time>2014-10-02T11:49:26Z</time>
      </trkpt>
      <trkpt lat="42.6263430" lon="-7.1023360">
        <ele>1160.7</ele>
        <time>2014-10-02T11:49:27Z</time>
      </trkpt>
      <trkpt lat="42.6263230" lon="-7.1023050">
        <ele>1161.0</ele>
        <time>2014-10-02T11:49:28Z</time>
      </trkpt>
      <trkpt lat="42.6263030" lon="-7.1022770">
        <ele>1161.3</ele>
        <time>2014-10-02T11:49:29Z</time>
      </trkpt>
      <trkpt lat="42.6262810" lon="-7.1022480">
        <ele>1161.6</ele>
        <time>2014-10-02T11:49:30Z</time>
      </trkpt>
      <trkpt lat="42.6262610" lon="-7.1022160">
        <ele>1162.0</ele>
        <time>2014-10-02T11:49:31Z</time>
      </trkpt>
      <trkpt lat="42.6262260" lon="-7.1021590">
        <ele>1162.6</ele>
        <time>2014-10-02T11:49:33Z</time>
      </trkpt>
      <trkpt lat="42.6262080" lon="-7.1021280">
        <ele>1162.9</ele>
        <time>2014-10-02T11:49:34Z</time>
      </trkpt>
      <trkpt lat="42.6261730" lon="-7.1020740">
        <ele>1163.4</ele>
        <time>2014-10-02T11:49:36Z</time>
      </trkpt>
      <trkpt lat="42.6261540" lon="-7.1020430">
        <ele>1163.7</ele>
        <time>2014-10-02T11:49:37Z</time>
      </trkpt>
      <trkpt lat="42.6261320" lon="-7.1020060">
        <ele>1164.1</ele>
        <time>2014-10-02T11:49:38Z</time>
      </trkpt>
      <trkpt lat="42.6261140" lon="-7.1019730">
        <ele>1164.5</ele>
        <time>2014-10-02T11:49:39Z</time>
      </trkpt>
      <trkpt lat="42.6260970" lon="-7.1019410">
        <ele>1164.8</ele>
        <time>2014-10-02T11:49:40Z</time>
      </trkpt>
      <trkpt lat="42.6260810" lon="-7.1019110">
        <ele>1165.1</ele>
        <time>2014-10-02T11:49:41Z</time>
      </trkpt>
      <trkpt lat="42.6260640" lon="-7.1018790">
        <ele>1165.4</ele>
        <time>2014-10-02T11:49:42Z</time>
      </trkpt>
      <trkpt lat="42.6260320" lon="-7.1018180">
        <ele>1166.1</ele>
        <time>2014-10-02T11:49:44Z</time>
      </trkpt>
      <trkpt lat="42.6260140" lon="-7.1017830">
        <ele>1166.5</ele>
        <time>2014-10-02T11:49:45Z</time>
      </trkpt>
      <trkpt lat="42.6259830" lon="-7.1017280">
        <ele>1167.2</ele>
        <time>2014-10-02T11:49:47Z</time>
      </trkpt>
      <trkpt lat="42.6259640" lon="-7.1016970">
        <ele>1167.5</ele>
        <time>2014-10-02T11:49:48Z</time>
      </trkpt>
      <trkpt lat="42.6259340" lon="-7.1016500">
        <ele>1168.1</ele>
        <time>2014-10-02T11:49:50Z</time>
      </trkpt>
      <trkpt lat="42.6259020" lon="-7.1015960">
        <ele>1168.7</ele>
        <time>2014-10-02T11:49:52Z</time>
      </trkpt>
      <trkpt lat="42.6258840" lon="-7.1015610">
        <ele>1169.1</ele>
        <time>2014-10-02T11:49:53Z</time>
      </trkpt>
      <trkpt lat="42.6258680" lon="-7.1015300">
        <ele>1169.4</ele>
        <time>2014-10-02T11:49:54Z</time>
      </trkpt>
      <trkpt lat="42.6258510" lon="-7.1014970">
        <ele>1169.9</ele>
        <time>2014-10-02T11:49:55Z</time>
      </trkpt>
      <trkpt lat="42.6258320" lon="-7.1014680">
        <ele>1170.2</ele>
        <time>2014-10-02T11:49:56Z</time>
      </trkpt>
      <trkpt lat="42.6258140" lon="-7.1014390">
        <ele>1170.6</ele>
        <time>2014-10-02T11:49:57Z</time>
      </trkpt>
      <trkpt lat="42.6257920" lon="-7.1014090">
        <ele>1171.1</ele>
        <time>2014-10-02T11:49:58Z</time>
      </trkpt>
      <trkpt lat="42.6257720" lon="-7.1013820">
        <ele>1171.5</ele>
        <time>2014-10-02T11:49:59Z</time>
      </trkpt>
      <trkpt lat="42.6257310" lon="-7.1013390">
        <ele>1172.2</ele>
        <time>2014-10-02T11:50:01Z</time>
      </trkpt>
      <trkpt lat="42.6256920" lon="-7.1013000">
        <ele>1172.8</ele>
        <time>2014-10-02T11:50:03Z</time>
      </trkpt>
      <trkpt lat="42.6256680" lon="-7.1012820">
        <ele>1173.2</ele>
        <time>2014-10-02T11:50:04Z</time>
      </trkpt>
      <trkpt lat="42.6256240" lon="-7.1012560">
        <ele>1173.8</ele>
        <time>2014-10-02T11:50:06Z</time>
      </trkpt>
      <trkpt lat="42.6255770" lon="-7.1012290">
        <ele>1174.6</ele>
        <time>2014-10-02T11:50:08Z</time>
      </trkpt>
      <trkpt lat="42.6255360" lon="-7.1012050">
        <ele>1175.3</ele>
        <time>2014-10-02T11:50:10Z</time>
      </trkpt>
      <trkpt lat="42.6254990" lon="-7.1011880">
        <ele>1175.9</ele>
        <time>2014-10-02T11:50:12Z</time>
      </trkpt>
      <trkpt lat="42.6254680" lon="-7.1011660">
        <ele>1176.5</ele>
        <time>2014-10-02T11:50:14Z</time>
      </trkpt>
      <trkpt lat="42.6254280" lon="-7.1011350">
        <ele>1177.3</ele>
        <time>2014-10-02T11:50:16Z</time>
      </trkpt>
      <trkpt lat="42.6253870" lon="-7.1011060">
        <ele>1178.1</ele>
        <time>2014-10-02T11:50:18Z</time>
      </trkpt>
      <trkpt lat="42.6253480" lon="-7.1010760">
        <ele>1178.8</ele>
        <time>2014-10-02T11:50:20Z</time>
      </trkpt>
      <trkpt lat="42.6253130" lon="-7.1010420">
        <ele>1179.5</ele>
        <time>2014-10-02T11:50:22Z</time>
      </trkpt>
      <trkpt lat="42.6252750" lon="-7.1010110">
        <ele>1180.2</ele>
        <time>2014-10-02T11:50:24Z</time>
      </trkpt>
      <trkpt lat="42.6252380" lon="-7.1009700">
        <ele>1180.9</ele>
        <time>2014-10-02T11:50:26Z</time>
      </trkpt>
      <trkpt lat="42.6252010" lon="-7.1009290">
        <ele>1181.6</ele>
        <time>2014-10-02T11:50:28Z</time>
      </trkpt>
      <trkpt lat="42.6251630" lon="-7.1008920">
        <ele>1182.2</ele>
        <time>2014-10-02T11:50:30Z</time>
      </trkpt>
      <trkpt lat="42.6251270" lon="-7.1008540">
        <ele>1182.9</ele>
        <time>2014-10-02T11:50:32Z</time>
      </trkpt>
      <trkpt lat="42.6250910" lon="-7.1008130">
        <ele>1183.5</ele>
        <time>2014-10-02T11:50:34Z</time>
      </trkpt>
      <trkpt lat="42.6250580" lon="-7.1007720">
        <ele>1184.1</ele>
        <time>2014-10-02T11:50:36Z</time>
      </trkpt>
      <trkpt lat="42.6250290" lon="-7.1007270">
        <ele>1184.8</ele>
        <time>2014-10-02T11:50:38Z</time>
      </trkpt>
      <trkpt lat="42.6249990" lon="-7.1006830">
        <ele>1185.4</ele>
        <time>2014-10-02T11:50:40Z</time>
      </trkpt>
      <trkpt lat="42.6249650" lon="-7.1006390">
        <ele>1186.0</ele>
        <time>2014-10-02T11:50:42Z</time>
      </trkpt>
      <trkpt lat="42.6249310" lon="-7.1005960">
        <ele>1186.7</ele>
        <time>2014-10-02T11:50:44Z</time>
      </trkpt>
      <trkpt lat="42.6248930" lon="-7.1005540">
        <ele>1187.3</ele>
        <time>2014-10-02T11:50:46Z</time>
      </trkpt>
      <trkpt lat="42.6248550" lon="-7.1005140">
        <ele>1188.0</ele>
        <time>2014-10-02T11:50:48Z</time>
      </trkpt>
      <trkpt lat="42.6248130" lon="-7.1004750">
        <ele>1188.6</ele>
        <time>2014-10-02T11:50:50Z</time>
      </trkpt>
      <trkpt lat="42.6247740" lon="-7.1004380">
        <ele>1189.2</ele>
        <time>2014-10-02T11:50:52Z</time>
      </trkpt>
      <trkpt lat="42.6247320" lon="-7.1004050">
        <ele>1189.9</ele>
        <time>2014-10-02T11:50:54Z</time>
      </trkpt>
      <trkpt lat="42.6246930" lon="-7.1003700">
        <ele>1190.5</ele>
        <time>2014-10-02T11:50:56Z</time>
      </trkpt>
      <trkpt lat="42.6246520" lon="-7.1003370">
        <ele>1191.2</ele>
        <time>2014-10-02T11:50:58Z</time>
      </trkpt>
      <trkpt lat="42.6246120" lon="-7.1003000">
        <ele>1191.9</ele>
        <time>2014-10-02T11:51:00Z</time>
      </trkpt>
      <trkpt lat="42.6245720" lon="-7.1002650">
        <ele>1192.5</ele>
        <time>2014-10-02T11:51:02Z</time>
      </trkpt>
      <trkpt lat="42.6245300" lon="-7.1002340">
        <ele>1193.1</ele>
        <time>2014-10-02T11:51:04Z</time>
      </trkpt>
      <trkpt lat="42.6244880" lon="-7.1001990">
        <ele>1193.8</ele>
        <time>2014-10-02T11:51:06Z</time>
      </trkpt>
      <trkpt lat="42.6244450" lon="-7.1001690">
        <ele>1194.4</ele>
        <time>2014-10-02T11:51:08Z</time>
      </trkpt>
      <trkpt lat="42.6244030" lon="-7.1001350">
        <ele>1195.1</ele>
        <time>2014-10-02T11:51:10Z</time>
      </trkpt>
      <trkpt lat="42.6243630" lon="-7.1000970">
        <ele>1195.8</ele>
        <time>2014-10-02T11:51:12Z</time>
      </trkpt>
      <trkpt lat="42.6243250" lon="-7.1000620">
        <ele>1196.4</ele>
        <time>2014-10-02T11:51:14Z</time>
      </trkpt>
      <trkpt lat="42.6242840" lon="-7.1000320">
        <ele>1197.1</ele>
        <time>2014-10-02T11:51:16Z</time>
      </trkpt>
      <trkpt lat="42.6242450" lon="-7.1000010">
        <ele>1197.7</ele>
        <time>2014-10-02T11:51:18Z</time>
      </trkpt>
      <trkpt lat="42.6242040" lon="-7.0999690">
        <ele>1198.4</ele>
        <time>2014-10-02T11:51:20Z</time>
      </trkpt>
      <trkpt lat="42.6241630" lon="-7.0999390">
        <ele>1199.1</ele>
        <time>2014-10-02T11:51:22Z</time>
      </trkpt>
      <trkpt lat="42.6241230" lon="-7.0999080">
        <ele>1199.8</ele>
        <time>2014-10-02T11:51:24Z</time>
      </trkpt>
      <trkpt lat="42.6240860" lon="-7.0998740">
        <ele>1200.4</ele>
        <time>2014-10-02T11:51:26Z</time>
      </trkpt>
      <trkpt lat="42.6240460" lon="-7.0998410">
        <ele>1201.1</ele>
        <time>2014-10-02T11:51:28Z</time>
      </trkpt>
      <trkpt lat="42.6240090" lon="-7.0998080">
        <ele>1201.7</ele>
        <time>2014-10-02T11:51:30Z</time>
      </trkpt>
      <trkpt lat="42.6239710" lon="-7.0997750">
        <ele>1202.3</ele>
        <time>2014-10-02T11:51:32Z</time>
      </trkpt>
      <trkpt lat="42.6239350" lon="-7.0997350">
        <ele>1202.9</ele>
        <time>2014-10-02T11:51:34Z</time>
      </trkpt>
      <trkpt lat="42.6239000" lon="-7.0996920">
        <ele>1203.5</ele>
        <time>2014-10-02T11:51:36Z</time>
      </trkpt>
      <trkpt lat="42.6238630" lon="-7.0996460">
        <ele>1204.1</ele>
        <time>2014-10-02T11:51:38Z</time>
      </trkpt>
      <trkpt lat="42.6238260" lon="-7.0996020">
        <ele>1204.7</ele>
        <time>2014-10-02T11:51:40Z</time>
      </trkpt>
      <trkpt lat="42.6237870" lon="-7.0995580">
        <ele>1205.3</ele>
        <time>2014-10-02T11:51:42Z</time>
      </trkpt>
      <trkpt lat="42.6237490" lon="-7.0995120">
        <ele>1205.8</ele>
        <time>2014-10-02T11:51:44Z</time>
      </trkpt>
      <trkpt lat="42.6237120" lon="-7.0994620">
        <ele>1206.4</ele>
        <time>2014-10-02T11:51:46Z</time>
      </trkpt>
      <trkpt lat="42.6236760" lon="-7.0994140">
        <ele>1207.0</ele>
        <time>2014-10-02T11:51:48Z</time>
      </trkpt>
      <trkpt lat="42.6236370" lon="-7.0993700">
        <ele>1207.5</ele>
        <time>2014-10-02T11:51:50Z</time>
      </trkpt>
      <trkpt lat="42.6235960" lon="-7.0993330">
        <ele>1208.1</ele>
        <time>2014-10-02T11:51:52Z</time>
      </trkpt>
      <trkpt lat="42.6235500" lon="-7.0992990">
        <ele>1208.7</ele>
        <time>2014-10-02T11:51:54Z</time>
      </trkpt>
      <trkpt lat="42.6235020" lon="-7.0992730">
        <ele>1209.2</ele>
        <time>2014-10-02T11:51:56Z</time>
      </trkpt>
      <trkpt lat="42.6234500" lon="-7.0992520">
        <ele>1209.8</ele>
        <time>2014-10-02T11:51:58Z</time>
      </trkpt>
      <trkpt lat="42.6233970" lon="-7.0992360">
        <ele>1210.3</ele>
        <time>2014-10-02T11:52:00Z</time>
      </trkpt>
      <trkpt lat="42.6233480" lon="-7.0992190">
        <ele>1210.7</ele>
        <time>2014-10-02T11:52:02Z</time>
      </trkpt>
      <trkpt lat="42.6233030" lon="-7.0992050">
        <ele>1211.0</ele>
        <time>2014-10-02T11:52:04Z</time>
      </trkpt>
      <trkpt lat="42.6232470" lon="-7.0991960">
        <ele>1211.5</ele>
        <time>2014-10-02T11:52:06Z</time>
      </trkpt>
      <trkpt lat="42.6232200" lon="-7.0991930">
        <ele>1211.7</ele>
        <time>2014-10-02T11:52:07Z</time>
      </trkpt>
      <trkpt lat="42.6231890" lon="-7.0991860">
        <ele>1212.0</ele>
        <time>2014-10-02T11:52:08Z</time>
      </trkpt>
      <trkpt lat="42.6231560" lon="-7.0991780">
        <ele>1212.2</ele>
        <time>2014-10-02T11:52:09Z</time>
      </trkpt>
      <trkpt lat="42.6231230" lon="-7.0991710">
        <ele>1212.5</ele>
        <time>2014-10-02T11:52:10Z</time>
      </trkpt>
      <trkpt lat="42.6230890" lon="-7.0991920">
        <ele>1212.7</ele>
        <time>2014-10-02T11:52:11Z</time>
      </trkpt>
      <trkpt lat="42.6230450" lon="-7.0992100">
        <ele>1213.1</ele>
        <time>2014-10-02T11:52:12Z</time>
      </trkpt>
      <trkpt lat="42.6229320" lon="-7.0992360">
        <ele>1213.9</ele>
        <time>2014-10-02T11:52:13Z</time>
      </trkpt>
      <trkpt lat="42.6228950" lon="-7.0991780">
        <ele>1214.3</ele>
        <time>2014-10-02T11:52:15Z</time>
      </trkpt>
      <trkpt lat="42.6228610" lon="-7.0991090">
        <ele>1214.7</ele>
        <time>2014-10-02T11:52:17Z</time>
      </trkpt>
      <trkpt lat="42.6228400" lon="-7.0990720">
        <ele>1214.9</ele>
        <time>2014-10-02T11:52:18Z</time>
      </trkpt>
      <trkpt lat="42.6228200" lon="-7.0990430">
        <ele>1215.1</ele>
        <time>2014-10-02T11:52:19Z</time>
      </trkpt>
      <trkpt lat="42.6227970" lon="-7.0990080">
        <ele>1215.3</ele>
        <time>2014-10-02T11:52:20Z</time>
      </trkpt>
      <trkpt lat="42.6227920" lon="-7.0989560">
        <ele>1215.6</ele>
        <time>2014-10-02T11:52:22Z</time>
      </trkpt>
      <trkpt lat="42.6227690" lon="-7.0989120">
        <ele>1215.9</ele>
        <time>2014-10-02T11:52:24Z</time>
      </trkpt>
      <trkpt lat="42.6227470" lon="-7.0988900">
        <ele>1216.1</ele>
        <time>2014-10-02T11:52:25Z</time>
      </trkpt>
      <trkpt lat="42.6227200" lon="-7.0988680">
        <ele>1216.3</ele>
        <time>2014-10-02T11:52:26Z</time>
      </trkpt>
      <trkpt lat="42.6226950" lon="-7.0988460">
        <ele>1216.6</ele>
        <time>2014-10-02T11:52:27Z</time>
      </trkpt>
      <trkpt lat="42.6226680" lon="-7.0988240">
        <ele>1216.8</ele>
        <time>2014-10-02T11:52:28Z</time>
      </trkpt>
      <trkpt lat="42.6226430" lon="-7.0988000">
        <ele>1217.1</ele>
        <time>2014-10-02T11:52:29Z</time>
      </trkpt>
      <trkpt lat="42.6226160" lon="-7.0987740">
        <ele>1217.4</ele>
        <time>2014-10-02T11:52:30Z</time>
      </trkpt>
      <trkpt lat="42.6225910" lon="-7.0987500">
        <ele>1217.7</ele>
        <time>2014-10-02T11:52:31Z</time>
      </trkpt>
      <trkpt lat="42.6225650" lon="-7.0987240">
        <ele>1218.0</ele>
        <time>2014-10-02T11:52:32Z</time>
      </trkpt>
      <trkpt lat="42.6225400" lon="-7.0987000">
        <ele>1218.3</ele>
        <time>2014-10-02T11:52:33Z</time>
      </trkpt>
      <trkpt lat="42.6225140" lon="-7.0986810">
        <ele>1218.5</ele>
        <time>2014-10-02T11:52:34Z</time>
      </trkpt>
      <trkpt lat="42.6224870" lon="-7.0986620">
        <ele>1218.8</ele>
        <time>2014-10-02T11:52:35Z</time>
      </trkpt>
      <trkpt lat="42.6224620" lon="-7.0986390">
        <ele>1219.0</ele>
        <time>2014-10-02T11:52:36Z</time>
      </trkpt>
      <trkpt lat="42.6224320" lon="-7.0986120">
        <ele>1219.3</ele>
        <time>2014-10-02T11:52:37Z</time>
      </trkpt>
      <trkpt lat="42.6224050" lon="-7.0985890">
        <ele>1219.6</ele>
        <time>2014-10-02T11:52:38Z</time>
      </trkpt>
      <trkpt lat="42.6223590" lon="-7.0985500">
        <ele>1220.1</ele>
        <time>2014-10-02T11:52:40Z</time>
      </trkpt>
      <trkpt lat="42.6223150" lon="-7.0985100">
        <ele>1220.7</ele>
        <time>2014-10-02T11:52:42Z</time>
      </trkpt>
      <trkpt lat="42.6222900" lon="-7.0984880">
        <ele>1221.0</ele>
        <time>2014-10-02T11:52:43Z</time>
      </trkpt>
      <trkpt lat="42.6222660" lon="-7.0984690">
        <ele>1221.3</ele>
        <time>2014-10-02T11:52:44Z</time>
      </trkpt>
      <trkpt lat="42.6222190" lon="-7.0984370">
        <ele>1221.8</ele>
        <time>2014-10-02T11:52:46Z</time>
      </trkpt>
      <trkpt lat="42.6221760" lon="-7.0984100">
        <ele>1222.3</ele>
        <time>2014-10-02T11:52:48Z</time>
      </trkpt>
      <trkpt lat="42.6221280" lon="-7.0983850">
        <ele>1222.8</ele>
        <time>2014-10-02T11:52:50Z</time>
      </trkpt>
      <trkpt lat="42.6221020" lon="-7.0983710">
        <ele>1223.1</ele>
        <time>2014-10-02T11:52:51Z</time>
      </trkpt>
      <trkpt lat="42.6220770" lon="-7.0983590">
        <ele>1223.3</ele>
        <time>2014-10-02T11:52:52Z</time>
      </trkpt>
      <trkpt lat="42.6220270" lon="-7.0983380">
        <ele>1223.8</ele>
        <time>2014-10-02T11:52:54Z</time>
      </trkpt>
      <trkpt lat="42.6219750" lon="-7.0983200">
        <ele>1224.4</ele>
        <time>2014-10-02T11:52:56Z</time>
      </trkpt>
      <trkpt lat="42.6219480" lon="-7.0983100">
        <ele>1224.6</ele>
        <time>2014-10-02T11:52:57Z</time>
      </trkpt>
      <trkpt lat="42.6219060" lon="-7.0982870">
        <ele>1225.1</ele>
        <time>2014-10-02T11:52:59Z</time>
      </trkpt>
      <trkpt lat="42.6218590" lon="-7.0982610">
        <ele>1225.6</ele>
        <time>2014-10-02T11:53:01Z</time>
      </trkpt>
      <trkpt lat="42.6218320" lon="-7.0982490">
        <ele>1225.9</ele>
        <time>2014-10-02T11:53:02Z</time>
      </trkpt>
      <trkpt lat="42.6217790" lon="-7.0982220">
        <ele>1226.5</ele>
        <time>2014-10-02T11:53:04Z</time>
      </trkpt>
      <trkpt lat="42.6217300" lon="-7.0981990">
        <ele>1227.0</ele>
        <time>2014-10-02T11:53:06Z</time>
      </trkpt>
      <trkpt lat="42.6216830" lon="-7.0981770">
        <ele>1227.5</ele>
        <time>2014-10-02T11:53:08Z</time>
      </trkpt>
      <trkpt lat="42.6216400" lon="-7.0981590">
        <ele>1228.0</ele>
        <time>2014-10-02T11:53:10Z</time>
      </trkpt>
      <trkpt lat="42.6215950" lon="-7.0981350">
        <ele>1228.6</ele>
        <time>2014-10-02T11:53:12Z</time>
      </trkpt>
      <trkpt lat="42.6215540" lon="-7.0981060">
        <ele>1229.1</ele>
        <time>2014-10-02T11:53:14Z</time>
      </trkpt>
      <trkpt lat="42.6215090" lon="-7.0980740">
        <ele>1229.7</ele>
        <time>2014-10-02T11:53:16Z</time>
      </trkpt>
      <trkpt lat="42.6214650" lon="-7.0980440">
        <ele>1230.3</ele>
        <time>2014-10-02T11:53:18Z</time>
      </trkpt>
      <trkpt lat="42.6214220" lon="-7.0980100">
        <ele>1230.9</ele>
        <time>2014-10-02T11:53:20Z</time>
      </trkpt>
      <trkpt lat="42.6213990" lon="-7.0979910">
        <ele>1231.2</ele>
        <time>2014-10-02T11:53:21Z</time>
      </trkpt>
      <trkpt lat="42.6213570" lon="-7.0979560">
        <ele>1231.8</ele>
        <time>2014-10-02T11:53:23Z</time>
      </trkpt>
      <trkpt lat="42.6213150" lon="-7.0979220">
        <ele>1232.3</ele>
        <time>2014-10-02T11:53:25Z</time>
      </trkpt>
      <trkpt lat="42.6212800" lon="-7.0978910">
        <ele>1232.7</ele>
        <time>2014-10-02T11:53:27Z</time>
      </trkpt>
      <trkpt lat="42.6212410" lon="-7.0978580">
        <ele>1233.1</ele>
        <time>2014-10-02T11:53:29Z</time>
      </trkpt>
      <trkpt lat="42.6212080" lon="-7.0978220">
        <ele>1233.6</ele>
        <time>2014-10-02T11:53:31Z</time>
      </trkpt>
      <trkpt lat="42.6211720" lon="-7.0977840">
        <ele>1234.0</ele>
        <time>2014-10-02T11:53:33Z</time>
      </trkpt>
      <trkpt lat="42.6211380" lon="-7.0977360">
        <ele>1234.6</ele>
        <time>2014-10-02T11:53:35Z</time>
      </trkpt>
      <trkpt lat="42.6211030" lon="-7.0976850">
        <ele>1235.1</ele>
        <time>2014-10-02T11:53:37Z</time>
      </trkpt>
      <trkpt lat="42.6210700" lon="-7.0976330">
        <ele>1235.6</ele>
        <time>2014-10-02T11:53:39Z</time>
      </trkpt>
      <trkpt lat="42.6210370" lon="-7.0975790">
        <ele>1236.1</ele>
        <time>2014-10-02T11:53:41Z</time>
      </trkpt>
      <trkpt lat="42.6210050" lon="-7.0975290">
        <ele>1236.6</ele>
        <time>2014-10-02T11:53:43Z</time>
      </trkpt>
      <trkpt lat="42.6209720" lon="-7.0974760">
        <ele>1237.0</ele>
        <time>2014-10-02T11:53:45Z</time>
      </trkpt>
      <trkpt lat="42.6209410" lon="-7.0974180">
        <ele>1237.6</ele>
        <time>2014-10-02T11:53:47Z</time>
      </trkpt>
      <trkpt lat="42.6209260" lon="-7.0973870">
        <ele>1237.9</ele>
        <time>2014-10-02T11:53:48Z</time>
      </trkpt>
      <trkpt lat="42.6208950" lon="-7.0973280">
        <ele>1238.4</ele>
        <time>2014-10-02T11:53:50Z</time>
      </trkpt>
      <trkpt lat="42.6208620" lon="-7.0972720">
        <ele>1239.0</ele>
        <time>2014-10-02T11:53:52Z</time>
      </trkpt>
      <trkpt lat="42.6208230" lon="-7.0972220">
        <ele>1239.5</ele>
        <time>2014-10-02T11:53:54Z</time>
      </trkpt>
      <trkpt lat="42.6208010" lon="-7.0971990">
        <ele>1239.8</ele>
        <time>2014-10-02T11:53:55Z</time>
      </trkpt>
      <trkpt lat="42.6207570" lon="-7.0971560">
        <ele>1240.2</ele>
        <time>2014-10-02T11:53:57Z</time>
      </trkpt>
      <trkpt lat="42.6207340" lon="-7.0971360">
        <ele>1240.5</ele>
        <time>2014-10-02T11:53:58Z</time>
      </trkpt>
      <trkpt lat="42.6207100" lon="-7.0971170">
        <ele>1240.7</ele>
        <time>2014-10-02T11:53:59Z</time>
      </trkpt>
      <trkpt lat="42.6206660" lon="-7.0970830">
        <ele>1241.1</ele>
        <time>2014-10-02T11:54:01Z</time>
      </trkpt>
      <trkpt lat="42.6206250" lon="-7.0970570">
        <ele>1241.5</ele>
        <time>2014-10-02T11:54:03Z</time>
      </trkpt>
      <trkpt lat="42.6205750" lon="-7.0970310">
        <ele>1242.0</ele>
        <time>2014-10-02T11:54:05Z</time>
      </trkpt>
      <trkpt lat="42.6205290" lon="-7.0970090">
        <ele>1242.5</ele>
        <time>2014-10-02T11:54:07Z</time>
      </trkpt>
      <trkpt lat="42.6204850" lon="-7.0969810">
        <ele>1242.9</ele>
        <time>2014-10-02T11:54:09Z</time>
      </trkpt>
      <trkpt lat="42.6204360" lon="-7.0969580">
        <ele>1243.4</ele>
        <time>2014-10-02T11:54:11Z</time>
      </trkpt>
      <trkpt lat="42.6203870" lon="-7.0969360">
        <ele>1243.9</ele>
        <time>2014-10-02T11:54:13Z</time>
      </trkpt>
      <trkpt lat="42.6203400" lon="-7.0969160">
        <ele>1244.3</ele>
        <time>2014-10-02T11:54:15Z</time>
      </trkpt>
      <trkpt lat="42.6202920" lon="-7.0968950">
        <ele>1244.8</ele>
        <time>2014-10-02T11:54:17Z</time>
      </trkpt>
      <trkpt lat="42.6202440" lon="-7.0968730">
        <ele>1245.4</ele>
        <time>2014-10-02T11:54:19Z</time>
      </trkpt>
      <trkpt lat="42.6201980" lon="-7.0968500">
        <ele>1245.9</ele>
        <time>2014-10-02T11:54:21Z</time>
      </trkpt>
      <trkpt lat="42.6201540" lon="-7.0968270">
        <ele>1246.4</ele>
        <time>2014-10-02T11:54:23Z</time>
      </trkpt>
      <trkpt lat="42.6201090" lon="-7.0968050">
        <ele>1246.8</ele>
        <time>2014-10-02T11:54:25Z</time>
      </trkpt>
      <trkpt lat="42.6200610" lon="-7.0967820">
        <ele>1247.4</ele>
        <time>2014-10-02T11:54:27Z</time>
      </trkpt>
      <trkpt lat="42.6200100" lon="-7.0967590">
        <ele>1247.9</ele>
        <time>2014-10-02T11:54:29Z</time>
      </trkpt>
      <trkpt lat="42.6199570" lon="-7.0967360">
        <ele>1248.5</ele>
        <time>2014-10-02T11:54:31Z</time>
      </trkpt>
      <trkpt lat="42.6199300" lon="-7.0967260">
        <ele>1248.8</ele>
        <time>2014-10-02T11:54:32Z</time>
      </trkpt>
      <trkpt lat="42.6198790" lon="-7.0967040">
        <ele>1249.4</ele>
        <time>2014-10-02T11:54:34Z</time>
      </trkpt>
      <trkpt lat="42.6198290" lon="-7.0966880">
        <ele>1250.0</ele>
        <time>2014-10-02T11:54:36Z</time>
      </trkpt>
      <trkpt lat="42.6197800" lon="-7.0966810">
        <ele>1250.5</ele>
        <time>2014-10-02T11:54:38Z</time>
      </trkpt>
      <trkpt lat="42.6197320" lon="-7.0966780">
        <ele>1250.9</ele>
        <time>2014-10-02T11:54:40Z</time>
      </trkpt>
      <trkpt lat="42.6196830" lon="-7.0966730">
        <ele>1251.4</ele>
        <time>2014-10-02T11:54:42Z</time>
      </trkpt>
      <trkpt lat="42.6196300" lon="-7.0966660">
        <ele>1252.0</ele>
        <time>2014-10-02T11:54:44Z</time>
      </trkpt>
      <trkpt lat="42.6195780" lon="-7.0966620">
        <ele>1252.6</ele>
        <time>2014-10-02T11:54:46Z</time>
      </trkpt>
      <trkpt lat="42.6195320" lon="-7.0966480">
        <ele>1253.1</ele>
        <time>2014-10-02T11:54:48Z</time>
      </trkpt>
      <trkpt lat="42.6194720" lon="-7.0966520">
        <ele>1253.7</ele>
        <time>2014-10-02T11:54:50Z</time>
      </trkpt>
      <trkpt lat="42.6194410" lon="-7.0966520">
        <ele>1254.1</ele>
        <time>2014-10-02T11:54:51Z</time>
      </trkpt>
      <trkpt lat="42.6194110" lon="-7.0966500">
        <ele>1254.4</ele>
        <time>2014-10-02T11:54:52Z</time>
      </trkpt>
      <trkpt lat="42.6193840" lon="-7.0966490">
        <ele>1254.7</ele>
        <time>2014-10-02T11:54:53Z</time>
      </trkpt>
      <trkpt lat="42.6193540" lon="-7.0966540">
        <ele>1254.9</ele>
        <time>2014-10-02T11:54:54Z</time>
      </trkpt>
      <trkpt lat="42.6193090" lon="-7.0966540">
        <ele>1255.4</ele>
        <time>2014-10-02T11:54:56Z</time>
      </trkpt>
      <trkpt lat="42.6192600" lon="-7.0966630">
        <ele>1255.8</ele>
        <time>2014-10-02T11:54:58Z</time>
      </trkpt>
      <trkpt lat="42.6192100" lon="-7.0966710">
        <ele>1256.3</ele>
        <time>2014-10-02T11:55:00Z</time>
      </trkpt>
      <trkpt lat="42.6191690" lon="-7.0966940">
        <ele>1256.8</ele>
        <time>2014-10-02T11:55:02Z</time>
      </trkpt>
      <trkpt lat="42.6191260" lon="-7.0967200">
        <ele>1257.2</ele>
        <time>2014-10-02T11:55:04Z</time>
      </trkpt>
      <trkpt lat="42.6190910" lon="-7.0967300">
        <ele>1257.5</ele>
        <time>2014-10-02T11:55:06Z</time>
      </trkpt>
      <trkpt lat="42.6190410" lon="-7.0967400">
        <ele>1258.0</ele>
        <time>2014-10-02T11:55:08Z</time>
      </trkpt>
      <trkpt lat="42.6189960" lon="-7.0967670">
        <ele>1258.4</ele>
        <time>2014-10-02T11:55:10Z</time>
      </trkpt>
      <trkpt lat="42.6189690" lon="-7.0967750">
        <ele>1258.7</ele>
        <time>2014-10-02T11:55:11Z</time>
      </trkpt>
      <trkpt lat="42.6189390" lon="-7.0967850">
        <ele>1258.9</ele>
        <time>2014-10-02T11:55:12Z</time>
      </trkpt>
      <trkpt lat="42.6188870" lon="-7.0968230">
        <ele>1259.5</ele>
        <time>2014-10-02T11:55:14Z</time>
      </trkpt>
      <trkpt lat="42.6188550" lon="-7.0968550">
        <ele>1259.8</ele>
        <time>2014-10-02T11:55:15Z</time>
      </trkpt>
      <trkpt lat="42.6188230" lon="-7.0968820">
        <ele>1260.2</ele>
        <time>2014-10-02T11:55:16Z</time>
      </trkpt>
      <trkpt lat="42.6187930" lon="-7.0969020">
        <ele>1260.4</ele>
        <time>2014-10-02T11:55:17Z</time>
      </trkpt>
      <trkpt lat="42.6187460" lon="-7.0969380">
        <ele>1260.9</ele>
        <time>2014-10-02T11:55:19Z</time>
      </trkpt>
      <trkpt lat="42.6187020" lon="-7.0969560">
        <ele>1261.3</ele>
        <time>2014-10-02T11:55:21Z</time>
      </trkpt>
      <trkpt lat="42.6186720" lon="-7.0969670">
        <ele>1261.6</ele>
        <time>2014-10-02T11:55:22Z</time>
      </trkpt>
      <trkpt lat="42.6186450" lon="-7.0969760">
        <ele>1261.9</ele>
        <time>2014-10-02T11:55:23Z</time>
      </trkpt>
      <trkpt lat="42.6185960" lon="-7.0969960">
        <ele>1262.4</ele>
        <time>2014-10-02T11:55:25Z</time>
      </trkpt>
      <trkpt lat="42.6185690" lon="-7.0970090">
        <ele>1262.6</ele>
        <time>2014-10-02T11:55:26Z</time>
      </trkpt>
      <trkpt lat="42.6185220" lon="-7.0970300">
        <ele>1263.1</ele>
        <time>2014-10-02T11:55:28Z</time>
      </trkpt>
      <trkpt lat="42.6184790" lon="-7.0970550">
        <ele>1263.6</ele>
        <time>2014-10-02T11:55:30Z</time>
      </trkpt>
      <trkpt lat="42.6184470" lon="-7.0970850">
        <ele>1264.0</ele>
        <time>2014-10-02T11:55:32Z</time>
      </trkpt>
      <trkpt lat="42.6184170" lon="-7.0971260">
        <ele>1264.4</ele>
        <time>2014-10-02T11:55:34Z</time>
      </trkpt>
      <trkpt lat="42.6183810" lon="-7.0971600">
        <ele>1264.9</ele>
        <time>2014-10-02T11:55:36Z</time>
      </trkpt>
      <trkpt lat="42.6183440" lon="-7.0971870">
        <ele>1265.3</ele>
        <time>2014-10-02T11:55:38Z</time>
      </trkpt>
      <trkpt lat="42.6183180" lon="-7.0972040">
        <ele>1265.6</ele>
        <time>2014-10-02T11:55:39Z</time>
      </trkpt>
      <trkpt lat="42.6182780" lon="-7.0972400">
        <ele>1266.1</ele>
        <time>2014-10-02T11:55:41Z</time>
      </trkpt>
      <trkpt lat="42.6182350" lon="-7.0972710">
        <ele>1266.6</ele>
        <time>2014-10-02T11:55:43Z</time>
      </trkpt>
      <trkpt lat="42.6181950" lon="-7.0973010">
        <ele>1267.0</ele>
        <time>2014-10-02T11:55:45Z</time>
      </trkpt>
      <trkpt lat="42.6181520" lon="-7.0973290">
        <ele>1267.5</ele>
        <time>2014-10-02T11:55:47Z</time>
      </trkpt>
      <trkpt lat="42.6181040" lon="-7.0973600">
        <ele>1268.1</ele>
        <time>2014-10-02T11:55:49Z</time>
      </trkpt>
      <trkpt lat="42.6180560" lon="-7.0973840">
        <ele>1268.7</ele>
        <time>2014-10-02T11:55:51Z</time>
      </trkpt>
      <trkpt lat="42.6180120" lon="-7.0974200">
        <ele>1269.3</ele>
        <time>2014-10-02T11:55:53Z</time>
      </trkpt>
      <trkpt lat="42.6179870" lon="-7.0974370">
        <ele>1269.5</ele>
        <time>2014-10-02T11:55:54Z</time>
      </trkpt>
      <trkpt lat="42.6179620" lon="-7.0974520">
        <ele>1269.8</ele>
        <time>2014-10-02T11:55:55Z</time>
      </trkpt>
      <trkpt lat="42.6179160" lon="-7.0974780">
        <ele>1270.4</ele>
        <time>2014-10-02T11:55:57Z</time>
      </trkpt>
      <trkpt lat="42.6178900" lon="-7.0974920">
        <ele>1270.6</ele>
        <time>2014-10-02T11:55:58Z</time>
      </trkpt>
      <trkpt lat="42.6178400" lon="-7.0975140">
        <ele>1271.2</ele>
        <time>2014-10-02T11:56:00Z</time>
      </trkpt>
      <trkpt lat="42.6177910" lon="-7.0975220">
        <ele>1271.7</ele>
        <time>2014-10-02T11:56:02Z</time>
      </trkpt>
      <trkpt lat="42.6177390" lon="-7.0975220">
        <ele>1272.2</ele>
        <time>2014-10-02T11:56:04Z</time>
      </trkpt>
      <trkpt lat="42.6176880" lon="-7.0975180">
        <ele>1272.7</ele>
        <time>2014-10-02T11:56:06Z</time>
      </trkpt>
      <trkpt lat="42.6176360" lon="-7.0975100">
        <ele>1273.3</ele>
        <time>2014-10-02T11:56:08Z</time>
      </trkpt>
      <trkpt lat="42.6175870" lon="-7.0974980">
        <ele>1273.8</ele>
        <time>2014-10-02T11:56:10Z</time>
      </trkpt>
      <trkpt lat="42.6175370" lon="-7.0974820">
        <ele>1274.4</ele>
        <time>2014-10-02T11:56:12Z</time>
      </trkpt>
      <trkpt lat="42.6174870" lon="-7.0974650">
        <ele>1274.9</ele>
        <time>2014-10-02T11:56:14Z</time>
      </trkpt>
      <trkpt lat="42.6174390" lon="-7.0974510">
        <ele>1275.5</ele>
        <time>2014-10-02T11:56:16Z</time>
      </trkpt>
      <trkpt lat="42.6173920" lon="-7.0974330">
        <ele>1276.0</ele>
        <time>2014-10-02T11:56:18Z</time>
      </trkpt>
      <trkpt lat="42.6173410" lon="-7.0974130">
        <ele>1276.5</ele>
        <time>2014-10-02T11:56:20Z</time>
      </trkpt>
      <trkpt lat="42.6173140" lon="-7.0973970">
        <ele>1276.8</ele>
        <time>2014-10-02T11:56:21Z</time>
      </trkpt>
      <trkpt lat="42.6172890" lon="-7.0973830">
        <ele>1277.1</ele>
        <time>2014-10-02T11:56:22Z</time>
      </trkpt>
      <trkpt lat="42.6172440" lon="-7.0973550">
        <ele>1277.6</ele>
        <time>2014-10-02T11:56:24Z</time>
      </trkpt>
      <trkpt lat="42.6171970" lon="-7.0973320">
        <ele>1278.1</ele>
        <time>2014-10-02T11:56:26Z</time>
      </trkpt>
      <trkpt lat="42.6171470" lon="-7.0973120">
        <ele>1278.6</ele>
        <time>2014-10-02T11:56:28Z</time>
      </trkpt>
      <trkpt lat="42.6170960" lon="-7.0972910">
        <ele>1279.2</ele>
        <time>2014-10-02T11:56:30Z</time>
      </trkpt>
      <trkpt lat="42.6170690" lon="-7.0972810">
        <ele>1279.5</ele>
        <time>2014-10-02T11:56:31Z</time>
      </trkpt>
      <trkpt lat="42.6170420" lon="-7.0972710">
        <ele>1279.7</ele>
        <time>2014-10-02T11:56:32Z</time>
      </trkpt>
      <trkpt lat="42.6170110" lon="-7.0972670">
        <ele>1280.0</ele>
        <time>2014-10-02T11:56:33Z</time>
      </trkpt>
      <trkpt lat="42.6169820" lon="-7.0972590">
        <ele>1280.3</ele>
        <time>2014-10-02T11:56:34Z</time>
      </trkpt>
      <trkpt lat="42.6169520" lon="-7.0972510">
        <ele>1280.6</ele>
        <time>2014-10-02T11:56:35Z</time>
      </trkpt>
      <trkpt lat="42.6169200" lon="-7.0972420">
        <ele>1280.9</ele>
        <time>2014-10-02T11:56:36Z</time>
      </trkpt>
      <trkpt lat="42.6168910" lon="-7.0972310">
        <ele>1281.2</ele>
        <time>2014-10-02T11:56:37Z</time>
      </trkpt>
      <trkpt lat="42.6168400" lon="-7.0972180">
        <ele>1281.7</ele>
        <time>2014-10-02T11:56:39Z</time>
      </trkpt>
      <trkpt lat="42.6168110" lon="-7.0972140">
        <ele>1282.0</ele>
        <time>2014-10-02T11:56:40Z</time>
      </trkpt>
      <trkpt lat="42.6167830" lon="-7.0972060">
        <ele>1282.3</ele>
        <time>2014-10-02T11:56:41Z</time>
      </trkpt>
      <trkpt lat="42.6167550" lon="-7.0971990">
        <ele>1282.6</ele>
        <time>2014-10-02T11:56:42Z</time>
      </trkpt>
      <trkpt lat="42.6167060" lon="-7.0971860">
        <ele>1283.2</ele>
        <time>2014-10-02T11:56:44Z</time>
      </trkpt>
      <trkpt lat="42.6166790" lon="-7.0971780">
        <ele>1283.4</ele>
        <time>2014-10-02T11:56:45Z</time>
      </trkpt>
      <trkpt lat="42.6166490" lon="-7.0971750">
        <ele>1283.7</ele>
        <time>2014-10-02T11:56:46Z</time>
      </trkpt>
      <trkpt lat="42.6166200" lon="-7.0971710">
        <ele>1284.0</ele>
        <time>2014-10-02T11:56:47Z</time>
      </trkpt>
      <trkpt lat="42.6165910" lon="-7.0971660">
        <ele>1284.3</ele>
        <time>2014-10-02T11:56:48Z</time>
      </trkpt>
      <trkpt lat="42.6165630" lon="-7.0971630">
        <ele>1284.6</ele>
        <time>2014-10-02T11:56:49Z</time>
      </trkpt>
      <trkpt lat="42.6165350" lon="-7.0971590">
        <ele>1284.9</ele>
        <time>2014-10-02T11:56:50Z</time>
      </trkpt>
      <trkpt lat="42.6165080" lon="-7.0971560">
        <ele>1285.2</ele>
        <time>2014-10-02T11:56:51Z</time>
      </trkpt>
      <trkpt lat="42.6164590" lon="-7.0971460">
        <ele>1285.7</ele>
        <time>2014-10-02T11:56:53Z</time>
      </trkpt>
      <trkpt lat="42.6164040" lon="-7.0971310">
        <ele>1286.2</ele>
        <time>2014-10-02T11:56:55Z</time>
      </trkpt>
      <trkpt lat="42.6163750" lon="-7.0971280">
        <ele>1286.5</ele>
        <time>2014-10-02T11:56:56Z</time>
      </trkpt>
      <trkpt lat="42.6163470" lon="-7.0971240">
        <ele>1286.7</ele>
        <time>2014-10-02T11:56:57Z</time>
      </trkpt>
      <trkpt lat="42.6163190" lon="-7.0971200">
        <ele>1287.0</ele>
        <time>2014-10-02T11:56:58Z</time>
      </trkpt>
      <trkpt lat="42.6162890" lon="-7.0971150">
        <ele>1287.3</ele>
        <time>2014-10-02T11:56:59Z</time>
      </trkpt>
      <trkpt lat="42.6162600" lon="-7.0971130">
        <ele>1287.5</ele>
        <time>2014-10-02T11:57:00Z</time>
      </trkpt>
      <trkpt lat="42.6162310" lon="-7.0971110">
        <ele>1287.8</ele>
        <time>2014-10-02T11:57:01Z</time>
      </trkpt>
      <trkpt lat="42.6161700" lon="-7.0971080">
        <ele>1288.3</ele>
        <time>2014-10-02T11:57:03Z</time>
      </trkpt>
      <trkpt lat="42.6161390" lon="-7.0971050">
        <ele>1288.6</ele>
        <time>2014-10-02T11:57:04Z</time>
      </trkpt>
      <trkpt lat="42.6160860" lon="-7.0971020">
        <ele>1289.1</ele>
        <time>2014-10-02T11:57:06Z</time>
      </trkpt>
      <trkpt lat="42.6160570" lon="-7.0971000">
        <ele>1289.4</ele>
        <time>2014-10-02T11:57:07Z</time>
      </trkpt>
      <trkpt lat="42.6160040" lon="-7.0970970">
        <ele>1290.0</ele>
        <time>2014-10-02T11:57:09Z</time>
      </trkpt>
      <trkpt lat="42.6159560" lon="-7.0970930">
        <ele>1290.5</ele>
        <time>2014-10-02T11:57:11Z</time>
      </trkpt>
      <trkpt lat="42.6159070" lon="-7.0970920">
        <ele>1291.0</ele>
        <time>2014-10-02T11:57:13Z</time>
      </trkpt>
      <trkpt lat="42.6158550" lon="-7.0970930">
        <ele>1291.5</ele>
        <time>2014-10-02T11:57:15Z</time>
      </trkpt>
      <trkpt lat="42.6158040" lon="-7.0970980">
        <ele>1292.0</ele>
        <time>2014-10-02T11:57:17Z</time>
      </trkpt>
      <trkpt lat="42.6157740" lon="-7.0971010">
        <ele>1292.2</ele>
        <time>2014-10-02T11:57:18Z</time>
      </trkpt>
      <trkpt lat="42.6157410" lon="-7.0971030">
        <ele>1292.5</ele>
        <time>2014-10-02T11:57:19Z</time>
      </trkpt>
      <trkpt lat="42.6157090" lon="-7.0971090">
        <ele>1292.8</ele>
        <time>2014-10-02T11:57:20Z</time>
      </trkpt>
      <trkpt lat="42.6156810" lon="-7.0971140">
        <ele>1293.0</ele>
        <time>2014-10-02T11:57:21Z</time>
      </trkpt>
      <trkpt lat="42.6156530" lon="-7.0971210">
        <ele>1293.2</ele>
        <time>2014-10-02T11:57:22Z</time>
      </trkpt>
      <trkpt lat="42.6156230" lon="-7.0971280">
        <ele>1293.4</ele>
        <time>2014-10-02T11:57:23Z</time>
      </trkpt>
      <trkpt lat="42.6155940" lon="-7.0971360">
        <ele>1293.4</ele>
        <time>2014-10-02T11:57:24Z</time>
      </trkpt>
      <trkpt lat="42.6155650" lon="-7.0971470">
        <ele>1293.4</ele>
        <time>2014-10-02T11:57:25Z</time>
      </trkpt>
      <trkpt lat="42.6155380" lon="-7.0971590">
        <ele>1293.4</ele>
        <time>2014-10-02T11:57:26Z</time>
      </trkpt>
      <trkpt lat="42.6155090" lon="-7.0971750">
        <ele>1293.4</ele>
        <time>2014-10-02T11:57:27Z</time>
      </trkpt>
      <trkpt lat="42.6154830" lon="-7.0971890">
        <ele>1293.4</ele>
        <time>2014-10-02T11:57:28Z</time>
      </trkpt>
      <trkpt lat="42.6154550" lon="-7.0972050">
        <ele>1293.3</ele>
        <time>2014-10-02T11:57:29Z</time>
      </trkpt>
      <trkpt lat="42.6154290" lon="-7.0972250">
        <ele>1293.3</ele>
        <time>2014-10-02T11:57:30Z</time>
      </trkpt>
      <trkpt lat="42.6154020" lon="-7.0972440">
        <ele>1293.2</ele>
        <time>2014-10-02T11:57:31Z</time>
      </trkpt>
      <trkpt lat="42.6153730" lon="-7.0972620">
        <ele>1293.2</ele>
        <time>2014-10-02T11:57:32Z</time>
      </trkpt>
      <trkpt lat="42.6153420" lon="-7.0972850">
        <ele>1293.1</ele>
        <time>2014-10-02T11:57:33Z</time>
      </trkpt>
      <trkpt lat="42.6153100" lon="-7.0973080">
        <ele>1293.1</ele>
        <time>2014-10-02T11:57:34Z</time>
      </trkpt>
      <trkpt lat="42.6152800" lon="-7.0973300">
        <ele>1293.0</ele>
        <time>2014-10-02T11:57:35Z</time>
      </trkpt>
      <trkpt lat="42.6152480" lon="-7.0973510">
        <ele>1292.9</ele>
        <time>2014-10-02T11:57:36Z</time>
      </trkpt>
      <trkpt lat="42.6152170" lon="-7.0973720">
        <ele>1292.9</ele>
        <time>2014-10-02T11:57:37Z</time>
      </trkpt>
      <trkpt lat="42.6151830" lon="-7.0973950">
        <ele>1292.9</ele>
        <time>2014-10-02T11:57:38Z</time>
      </trkpt>
      <trkpt lat="42.6151460" lon="-7.0974210">
        <ele>1292.8</ele>
        <time>2014-10-02T11:57:39Z</time>
      </trkpt>
      <trkpt lat="42.6151110" lon="-7.0974460">
        <ele>1292.8</ele>
        <time>2014-10-02T11:57:40Z</time>
      </trkpt>
      <trkpt lat="42.6150720" lon="-7.0974710">
        <ele>1292.8</ele>
        <time>2014-10-02T11:57:41Z</time>
      </trkpt>
      <trkpt lat="42.6150350" lon="-7.0974930">
        <ele>1292.8</ele>
        <time>2014-10-02T11:57:42Z</time>
      </trkpt>
      <trkpt lat="42.6149950" lon="-7.0975190">
        <ele>1293.0</ele>
        <time>2014-10-02T11:57:43Z</time>
      </trkpt>
      <trkpt lat="42.6149600" lon="-7.0975380">
        <ele>1294.0</ele>
        <time>2014-10-02T11:57:44Z</time>
      </trkpt>
      <trkpt lat="42.6149280" lon="-7.0975520">
        <ele>1294.8</ele>
        <time>2014-10-02T11:57:45Z</time>
      </trkpt>
      <trkpt lat="42.6148920" lon="-7.0975590">
        <ele>1295.7</ele>
        <time>2014-10-02T11:57:46Z</time>
      </trkpt>
      <trkpt lat="42.6148590" lon="-7.0975630">
        <ele>1296.5</ele>
        <time>2014-10-02T11:57:47Z</time>
      </trkpt>
      <trkpt lat="42.6148260" lon="-7.0975670">
        <ele>1297.3</ele>
        <time>2014-10-02T11:57:48Z</time>
      </trkpt>
      <trkpt lat="42.6147910" lon="-7.0975660">
        <ele>1298.1</ele>
        <time>2014-10-02T11:57:49Z</time>
      </trkpt>
      <trkpt lat="42.6147560" lon="-7.0975660">
        <ele>1299.0</ele>
        <time>2014-10-02T11:57:50Z</time>
      </trkpt>
      <trkpt lat="42.6147200" lon="-7.0975570">
        <ele>1299.8</ele>
        <time>2014-10-02T11:57:51Z</time>
      </trkpt>
      <trkpt lat="42.6146840" lon="-7.0975480">
        <ele>1300.7</ele>
        <time>2014-10-02T11:57:52Z</time>
      </trkpt>
      <trkpt lat="42.6146480" lon="-7.0975390">
        <ele>1301.5</ele>
        <time>2014-10-02T11:57:53Z</time>
      </trkpt>
      <trkpt lat="42.6146130" lon="-7.0975260">
        <ele>1302.3</ele>
        <time>2014-10-02T11:57:54Z</time>
      </trkpt>
      <trkpt lat="42.6145850" lon="-7.0975120">
        <ele>1303.0</ele>
        <time>2014-10-02T11:57:55Z</time>
      </trkpt>
      <trkpt lat="42.6145550" lon="-7.0974940">
        <ele>1303.7</ele>
        <time>2014-10-02T11:57:56Z</time>
      </trkpt>
      <trkpt lat="42.6145230" lon="-7.0974710">
        <ele>1304.5</ele>
        <time>2014-10-02T11:57:57Z</time>
      </trkpt>
      <trkpt lat="42.6144900" lon="-7.0974470">
        <ele>1305.3</ele>
        <time>2014-10-02T11:57:58Z</time>
      </trkpt>
      <trkpt lat="42.6144600" lon="-7.0974200">
        <ele>1306.0</ele>
        <time>2014-10-02T11:57:59Z</time>
      </trkpt>
      <trkpt lat="42.6144370" lon="-7.0973950">
        <ele>1306.6</ele>
        <time>2014-10-02T11:58:00Z</time>
      </trkpt>
      <trkpt lat="42.6144140" lon="-7.0973720">
        <ele>1307.2</ele>
        <time>2014-10-02T11:58:01Z</time>
      </trkpt>
      <trkpt lat="42.6143720" lon="-7.0973280">
        <ele>1308.3</ele>
        <time>2014-10-02T11:58:03Z</time>
      </trkpt>
      <trkpt lat="42.6143470" lon="-7.0972990">
        <ele>1308.9</ele>
        <time>2014-10-02T11:58:04Z</time>
      </trkpt>
      <trkpt lat="42.6143200" lon="-7.0972660">
        <ele>1309.5</ele>
        <time>2014-10-02T11:58:05Z</time>
      </trkpt>
      <trkpt lat="42.6142960" lon="-7.0972330">
        <ele>1310.1</ele>
        <time>2014-10-02T11:58:06Z</time>
      </trkpt>
      <trkpt lat="42.6142760" lon="-7.0971930">
        <ele>1310.6</ele>
        <time>2014-10-02T11:58:07Z</time>
      </trkpt>
      <trkpt lat="42.6142560" lon="-7.0971520">
        <ele>1311.1</ele>
        <time>2014-10-02T11:58:08Z</time>
      </trkpt>
      <trkpt lat="42.6142370" lon="-7.0970950">
        <ele>1311.7</ele>
        <time>2014-10-02T11:58:09Z</time>
      </trkpt>
      <trkpt lat="42.6142210" lon="-7.0970400">
        <ele>1312.3</ele>
        <time>2014-10-02T11:58:10Z</time>
      </trkpt>
      <trkpt lat="42.6142090" lon="-7.0969840">
        <ele>1312.3</ele>
        <time>2014-10-02T11:58:11Z</time>
      </trkpt>
      <trkpt lat="42.6142020" lon="-7.0969300">
        <ele>1312.4</ele>
        <time>2014-10-02T11:58:12Z</time>
      </trkpt>
      <trkpt lat="42.6141930" lon="-7.0968720">
        <ele>1312.5</ele>
        <time>2014-10-02T11:58:13Z</time>
      </trkpt>
      <trkpt lat="42.6141910" lon="-7.0968190">
        <ele>1312.5</ele>
        <time>2014-10-02T11:58:14Z</time>
      </trkpt>
      <trkpt lat="42.6141920" lon="-7.0967610">
        <ele>1312.6</ele>
        <time>2014-10-02T11:58:15Z</time>
      </trkpt>
      <trkpt lat="42.6141980" lon="-7.0967030">
        <ele>1312.6</ele>
        <time>2014-10-02T11:58:16Z</time>
      </trkpt>
      <trkpt lat="42.6142090" lon="-7.0966480">
        <ele>1312.5</ele>
        <time>2014-10-02T11:58:17Z</time>
      </trkpt>
      <trkpt lat="42.6142230" lon="-7.0965880">
        <ele>1312.4</ele>
        <time>2014-10-02T11:58:18Z</time>
      </trkpt>
      <trkpt lat="42.6142420" lon="-7.0965260">
        <ele>1312.3</ele>
        <time>2014-10-02T11:58:19Z</time>
      </trkpt>
      <trkpt lat="42.6142610" lon="-7.0964670">
        <ele>1312.2</ele>
        <time>2014-10-02T11:58:20Z</time>
      </trkpt>
      <trkpt lat="42.6142820" lon="-7.0964140">
        <ele>1312.0</ele>
        <time>2014-10-02T11:58:21Z</time>
      </trkpt>
      <trkpt lat="42.6143040" lon="-7.0963680">
        <ele>1311.7</ele>
        <time>2014-10-02T11:58:22Z</time>
      </trkpt>
      <trkpt lat="42.6143290" lon="-7.0963260">
        <ele>1311.4</ele>
        <time>2014-10-02T11:58:23Z</time>
      </trkpt>
      <trkpt lat="42.6143570" lon="-7.0962800">
        <ele>1311.0</ele>
        <time>2014-10-02T11:58:24Z</time>
      </trkpt>
      <trkpt lat="42.6143880" lon="-7.0962350">
        <ele>1310.7</ele>
        <time>2014-10-02T11:58:25Z</time>
      </trkpt>
      <trkpt lat="42.6144170" lon="-7.0961980">
        <ele>1310.5</ele>
        <time>2014-10-02T11:58:26Z</time>
      </trkpt>
      <trkpt lat="42.6144420" lon="-7.0961710">
        <ele>1310.3</ele>
        <time>2014-10-02T11:58:27Z</time>
      </trkpt>
      <trkpt lat="42.6144800" lon="-7.0961360">
        <ele>1310.0</ele>
        <time>2014-10-02T11:58:29Z</time>
      </trkpt>
      <trkpt lat="42.6144930" lon="-7.0961030">
        <ele>1310.1</ele>
        <time>2014-10-02T11:58:31Z</time>
      </trkpt>
      <trkpt lat="42.6145160" lon="-7.0960740">
        <ele>1310.2</ele>
        <time>2014-10-02T11:58:34Z</time>
      </trkpt>
      <trkpt lat="42.6144960" lon="-7.0961040">
        <ele>1310.3</ele>
        <time>2014-10-02T11:58:59Z</time>
      </trkpt>
      <trkpt lat="42.6144860" lon="-7.0961390">
        <ele>1310.4</ele>
        <time>2014-10-02T11:59:10Z</time>
      </trkpt>
      <trkpt lat="42.6145120" lon="-7.0961030">
        <ele>1310.6</ele>
        <time>2014-10-02T11:59:23Z</time>
      </trkpt>
      <trkpt lat="42.6145030" lon="-7.0961520">
        <ele>1310.7</ele>
        <time>2014-10-02T12:02:08Z</time>
      </trkpt>
      <trkpt lat="42.6144890" lon="-7.0961880">
        <ele>1310.8</ele>
        <time>2014-10-02T12:02:11Z</time>
      </trkpt>
      <trkpt lat="42.6144630" lon="-7.0962170">
        <ele>1310.9</ele>
        <time>2014-10-02T12:02:13Z</time>
      </trkpt>
      <trkpt lat="42.6144240" lon="-7.0962550">
        <ele>1311.1</ele>
        <time>2014-10-02T12:02:15Z</time>
      </trkpt>
      <trkpt lat="42.6143920" lon="-7.0962970">
        <ele>1311.3</ele>
        <time>2014-10-02T12:02:17Z</time>
      </trkpt>
      <trkpt lat="42.6143580" lon="-7.0963460">
        <ele>1311.6</ele>
        <time>2014-10-02T12:02:19Z</time>
      </trkpt>
      <trkpt lat="42.6143220" lon="-7.0964050">
        <ele>1311.8</ele>
        <time>2014-10-02T12:02:21Z</time>
      </trkpt>
      <trkpt lat="42.6143050" lon="-7.0964380">
        <ele>1312.1</ele>
        <time>2014-10-02T12:02:22Z</time>
      </trkpt>
      <trkpt lat="42.6142910" lon="-7.0964750">
        <ele>1312.2</ele>
        <time>2014-10-02T12:02:23Z</time>
      </trkpt>
      <trkpt lat="42.6142760" lon="-7.0965110">
        <ele>1312.3</ele>
        <time>2014-10-02T12:02:24Z</time>
      </trkpt>
      <trkpt lat="42.6142650" lon="-7.0965450">
        <ele>1312.3</ele>
        <time>2014-10-02T12:02:25Z</time>
      </trkpt>
      <trkpt lat="42.6142550" lon="-7.0965820">
        <ele>1312.4</ele>
        <time>2014-10-02T12:02:26Z</time>
      </trkpt>
      <trkpt lat="42.6142470" lon="-7.0966230">
        <ele>1312.5</ele>
        <time>2014-10-02T12:02:27Z</time>
      </trkpt>
      <trkpt lat="42.6142430" lon="-7.0966650">
        <ele>1312.5</ele>
        <time>2014-10-02T12:02:28Z</time>
      </trkpt>
      <trkpt lat="42.6142410" lon="-7.0967060">
        <ele>1312.6</ele>
        <time>2014-10-02T12:02:29Z</time>
      </trkpt>
      <trkpt lat="42.6142380" lon="-7.0967490">
        <ele>1312.6</ele>
        <time>2014-10-02T12:02:30Z</time>
      </trkpt>
      <trkpt lat="42.6142360" lon="-7.0967960">
        <ele>1312.6</ele>
        <time>2014-10-02T12:02:31Z</time>
      </trkpt>
      <trkpt lat="42.6142330" lon="-7.0968510">
        <ele>1312.5</ele>
        <time>2014-10-02T12:02:32Z</time>
      </trkpt>
      <trkpt lat="42.6142320" lon="-7.0969070">
        <ele>1312.5</ele>
        <time>2014-10-02T12:02:33Z</time>
      </trkpt>
      <trkpt lat="42.6142330" lon="-7.0969590">
        <ele>1312.4</ele>
        <time>2014-10-02T12:02:34Z</time>
      </trkpt>
      <trkpt lat="42.6142360" lon="-7.0970070">
        <ele>1312.3</ele>
        <time>2014-10-02T12:02:35Z</time>
      </trkpt>
      <trkpt lat="42.6142420" lon="-7.0970520">
        <ele>1312.0</ele>
        <time>2014-10-02T12:02:36Z</time>
      </trkpt>
      <trkpt lat="42.6142530" lon="-7.0970940">
        <ele>1311.6</ele>
        <time>2014-10-02T12:02:37Z</time>
      </trkpt>
      <trkpt lat="42.6142660" lon="-7.0971360">
        <ele>1311.1</ele>
        <time>2014-10-02T12:02:38Z</time>
      </trkpt>
      <trkpt lat="42.6142860" lon="-7.0971780">
        <ele>1310.6</ele>
        <time>2014-10-02T12:02:39Z</time>
      </trkpt>
      <trkpt lat="42.6143110" lon="-7.0972220">
        <ele>1310.0</ele>
        <time>2014-10-02T12:02:40Z</time>
      </trkpt>
      <trkpt lat="42.6143430" lon="-7.0972680">
        <ele>1309.2</ele>
        <time>2014-10-02T12:02:41Z</time>
      </trkpt>
      <trkpt lat="42.6143790" lon="-7.0973170">
        <ele>1308.2</ele>
        <time>2014-10-02T12:02:42Z</time>
      </trkpt>
      <trkpt lat="42.6144200" lon="-7.0973660">
        <ele>1307.1</ele>
        <time>2014-10-02T12:02:43Z</time>
      </trkpt>
      <trkpt lat="42.6144700" lon="-7.0974160">
        <ele>1305.8</ele>
        <time>2014-10-02T12:02:44Z</time>
      </trkpt>
      <trkpt lat="42.6145250" lon="-7.0974610">
        <ele>1304.4</ele>
        <time>2014-10-02T12:02:45Z</time>
      </trkpt>
      <trkpt lat="42.6145890" lon="-7.0975010">
        <ele>1302.8</ele>
        <time>2014-10-02T12:02:46Z</time>
      </trkpt>
      <trkpt lat="42.6146670" lon="-7.0975300">
        <ele>1301.0</ele>
        <time>2014-10-02T12:02:47Z</time>
      </trkpt>
      <trkpt lat="42.6147470" lon="-7.0975550">
        <ele>1299.0</ele>
        <time>2014-10-02T12:02:48Z</time>
      </trkpt>
      <trkpt lat="42.6148290" lon="-7.0975710">
        <ele>1297.0</ele>
        <time>2014-10-02T12:02:49Z</time>
      </trkpt>
      <trkpt lat="42.6149190" lon="-7.0975570">
        <ele>1294.8</ele>
        <time>2014-10-02T12:02:50Z</time>
      </trkpt>
      <trkpt lat="42.6150120" lon="-7.0975380">
        <ele>1292.8</ele>
        <time>2014-10-02T12:02:51Z</time>
      </trkpt>
      <trkpt lat="42.6151060" lon="-7.0974870">
        <ele>1292.8</ele>
        <time>2014-10-02T12:02:52Z</time>
      </trkpt>
      <trkpt lat="42.6151940" lon="-7.0974340">
        <ele>1292.9</ele>
        <time>2014-10-02T12:02:53Z</time>
      </trkpt>
      <trkpt lat="42.6152880" lon="-7.0973680">
        <ele>1293.0</ele>
        <time>2014-10-02T12:02:54Z</time>
      </trkpt>
      <trkpt lat="42.6153780" lon="-7.0973000">
        <ele>1293.2</ele>
        <time>2014-10-02T12:02:55Z</time>
      </trkpt>
      <trkpt lat="42.6154710" lon="-7.0972280">
        <ele>1293.3</ele>
        <time>2014-10-02T12:02:56Z</time>
      </trkpt>
      <trkpt lat="42.6155660" lon="-7.0971560">
        <ele>1293.4</ele>
        <time>2014-10-02T12:02:57Z</time>
      </trkpt>
      <trkpt lat="42.6156620" lon="-7.0970970">
        <ele>1293.1</ele>
        <time>2014-10-02T12:02:58Z</time>
      </trkpt>
      <trkpt lat="42.6157740" lon="-7.0970750">
        <ele>1292.2</ele>
        <time>2014-10-02T12:02:59Z</time>
      </trkpt>
      <trkpt lat="42.6158880" lon="-7.0970610">
        <ele>1291.2</ele>
        <time>2014-10-02T12:03:00Z</time>
      </trkpt>
      <trkpt lat="42.6160070" lon="-7.0970480">
        <ele>1289.9</ele>
        <time>2014-10-02T12:03:01Z</time>
      </trkpt>
      <trkpt lat="42.6161330" lon="-7.0970370">
        <ele>1288.6</ele>
        <time>2014-10-02T12:03:02Z</time>
      </trkpt>
      <trkpt lat="42.6162510" lon="-7.0970370">
        <ele>1287.5</ele>
        <time>2014-10-02T12:03:03Z</time>
      </trkpt>
      <trkpt lat="42.6163810" lon="-7.0970460">
        <ele>1286.3</ele>
        <time>2014-10-02T12:03:04Z</time>
      </trkpt>
      <trkpt lat="42.6165170" lon="-7.0970610">
        <ele>1285.0</ele>
        <time>2014-10-02T12:03:05Z</time>
      </trkpt>
      <trkpt lat="42.6166510" lon="-7.0970790">
        <ele>1283.6</ele>
        <time>2014-10-02T12:03:06Z</time>
      </trkpt>
      <trkpt lat="42.6167800" lon="-7.0971000">
        <ele>1282.2</ele>
        <time>2014-10-02T12:03:07Z</time>
      </trkpt>
      <trkpt lat="42.6169050" lon="-7.0971380">
        <ele>1280.9</ele>
        <time>2014-10-02T12:03:08Z</time>
      </trkpt>
      <trkpt lat="42.6170280" lon="-7.0971940">
        <ele>1279.7</ele>
        <time>2014-10-02T12:03:09Z</time>
      </trkpt>
      <trkpt lat="42.6171600" lon="-7.0972480">
        <ele>1278.3</ele>
        <time>2014-10-02T12:03:10Z</time>
      </trkpt>
      <trkpt lat="42.6172890" lon="-7.0972980">
        <ele>1276.9</ele>
        <time>2014-10-02T12:03:11Z</time>
      </trkpt>
      <trkpt lat="42.6174120" lon="-7.0973430">
        <ele>1275.6</ele>
        <time>2014-10-02T12:03:12Z</time>
      </trkpt>
      <trkpt lat="42.6175430" lon="-7.0973940">
        <ele>1274.1</ele>
        <time>2014-10-02T12:03:13Z</time>
      </trkpt>
      <trkpt lat="42.6176700" lon="-7.0974400">
        <ele>1272.7</ele>
        <time>2014-10-02T12:03:14Z</time>
      </trkpt>
      <trkpt lat="42.6177940" lon="-7.0974680">
        <ele>1271.4</ele>
        <time>2014-10-02T12:03:15Z</time>
      </trkpt>
      <trkpt lat="42.6179170" lon="-7.0974510">
        <ele>1270.1</ele>
        <time>2014-10-02T12:03:16Z</time>
      </trkpt>
      <trkpt lat="42.6180280" lon="-7.0974330">
        <ele>1268.9</ele>
        <time>2014-10-02T12:03:17Z</time>
      </trkpt>
      <trkpt lat="42.6181390" lon="-7.0974070">
        <ele>1267.6</ele>
        <time>2014-10-02T12:03:18Z</time>
      </trkpt>
      <trkpt lat="42.6182540" lon="-7.0973390">
        <ele>1266.3</ele>
        <time>2014-10-02T12:03:19Z</time>
      </trkpt>
      <trkpt lat="42.6183660" lon="-7.0972660">
        <ele>1265.1</ele>
        <time>2014-10-02T12:03:20Z</time>
      </trkpt>
      <trkpt lat="42.6184820" lon="-7.0971470">
        <ele>1263.6</ele>
        <time>2014-10-02T12:03:21Z</time>
      </trkpt>
      <trkpt lat="42.6186060" lon="-7.0970370">
        <ele>1262.1</ele>
        <time>2014-10-02T12:03:22Z</time>
      </trkpt>
      <trkpt lat="42.6187350" lon="-7.0969360">
        <ele>1260.7</ele>
        <time>2014-10-02T12:03:23Z</time>
      </trkpt>
      <trkpt lat="42.6188710" lon="-7.0968530">
        <ele>1259.4</ele>
        <time>2014-10-02T12:03:24Z</time>
      </trkpt>
      <trkpt lat="42.6190110" lon="-7.0967810">
        <ele>1258.0</ele>
        <time>2014-10-02T12:03:25Z</time>
      </trkpt>
      <trkpt lat="42.6191420" lon="-7.0967210">
        <ele>1256.8</ele>
        <time>2014-10-02T12:03:26Z</time>
      </trkpt>
      <trkpt lat="42.6192790" lon="-7.0966750">
        <ele>1255.4</ele>
        <time>2014-10-02T12:03:27Z</time>
      </trkpt>
      <trkpt lat="42.6194190" lon="-7.0966320">
        <ele>1253.9</ele>
        <time>2014-10-02T12:03:28Z</time>
      </trkpt>
      <trkpt lat="42.6195760" lon="-7.0966020">
        <ele>1252.2</ele>
        <time>2014-10-02T12:03:29Z</time>
      </trkpt>
      <trkpt lat="42.6197440" lon="-7.0966200">
        <ele>1250.5</ele>
        <time>2014-10-02T12:03:30Z</time>
      </trkpt>
      <trkpt lat="42.6199050" lon="-7.0966470">
        <ele>1248.7</ele>
        <time>2014-10-02T12:03:31Z</time>
      </trkpt>
      <trkpt lat="42.6200690" lon="-7.0966900">
        <ele>1246.9</ele>
        <time>2014-10-02T12:03:32Z</time>
      </trkpt>
      <trkpt lat="42.6202350" lon="-7.0967470">
        <ele>1245.1</ele>
        <time>2014-10-02T12:03:33Z</time>
      </trkpt>
      <trkpt lat="42.6203840" lon="-7.0968090">
        <ele>1243.6</ele>
        <time>2014-10-02T12:03:34Z</time>
      </trkpt>
      <trkpt lat="42.6205420" lon="-7.0968790">
        <ele>1242.1</ele>
        <time>2014-10-02T12:03:35Z</time>
      </trkpt>
      <trkpt lat="42.6206990" lon="-7.0969570">
        <ele>1240.6</ele>
        <time>2014-10-02T12:03:36Z</time>
      </trkpt>
      <trkpt lat="42.6208490" lon="-7.0970440">
        <ele>1239.1</ele>
        <time>2014-10-02T12:03:37Z</time>
      </trkpt>
      <trkpt lat="42.6209690" lon="-7.0971880">
        <ele>1237.4</ele>
        <time>2014-10-02T12:03:38Z</time>
      </trkpt>
      <trkpt lat="42.6210820" lon="-7.0973390">
        <ele>1235.9</ele>
        <time>2014-10-02T12:03:39Z</time>
      </trkpt>
      <trkpt lat="42.6211850" lon="-7.0974960">
        <ele>1234.3</ele>
        <time>2014-10-02T12:03:40Z</time>
      </trkpt>
      <trkpt lat="42.6212830" lon="-7.0976510">
        <ele>1232.7</ele>
        <time>2014-10-02T12:03:41Z</time>
      </trkpt>
      <trkpt lat="42.6213790" lon="-7.0977940">
        <ele>1231.3</ele>
        <time>2014-10-02T12:03:42Z</time>
      </trkpt>
      <trkpt lat="42.6214970" lon="-7.0978980">
        <ele>1229.6</ele>
        <time>2014-10-02T12:03:43Z</time>
      </trkpt>
      <trkpt lat="42.6216240" lon="-7.0980020">
        <ele>1227.8</ele>
        <time>2014-10-02T12:03:44Z</time>
      </trkpt>
      <trkpt lat="42.6217470" lon="-7.0980940">
        <ele>1226.3</ele>
        <time>2014-10-02T12:03:45Z</time>
      </trkpt>
      <trkpt lat="42.6218720" lon="-7.0981770">
        <ele>1224.9</ele>
        <time>2014-10-02T12:03:46Z</time>
      </trkpt>
      <trkpt lat="42.6220080" lon="-7.0982570">
        <ele>1223.4</ele>
        <time>2014-10-02T12:03:47Z</time>
      </trkpt>
      <trkpt lat="42.6221520" lon="-7.0983420">
        <ele>1221.9</ele>
        <time>2014-10-02T12:03:48Z</time>
      </trkpt>
      <trkpt lat="42.6223000" lon="-7.0984320">
        <ele>1220.1</ele>
        <time>2014-10-02T12:03:49Z</time>
      </trkpt>
      <trkpt lat="42.6224490" lon="-7.0985340">
        <ele>1218.7</ele>
        <time>2014-10-02T12:03:50Z</time>
      </trkpt>
      <trkpt lat="42.6225950" lon="-7.0986460">
        <ele>1217.1</ele>
        <time>2014-10-02T12:03:51Z</time>
      </trkpt>
      <trkpt lat="42.6227370" lon="-7.0987590">
        <ele>1215.8</ele>
        <time>2014-10-02T12:03:52Z</time>
      </trkpt>
      <trkpt lat="42.6228740" lon="-7.0988690">
        <ele>1214.7</ele>
        <time>2014-10-02T12:03:53Z</time>
      </trkpt>
      <trkpt lat="42.6230040" lon="-7.0989730">
        <ele>1213.7</ele>
        <time>2014-10-02T12:03:54Z</time>
      </trkpt>
      <trkpt lat="42.6231240" lon="-7.0990670">
        <ele>1212.6</ele>
        <time>2014-10-02T12:03:55Z</time>
      </trkpt>
      <trkpt lat="42.6232490" lon="-7.0991490">
        <ele>1211.6</ele>
        <time>2014-10-02T12:03:56Z</time>
      </trkpt>
      <trkpt lat="42.6233820" lon="-7.0991840">
        <ele>1210.5</ele>
        <time>2014-10-02T12:03:57Z</time>
      </trkpt>
      <trkpt lat="42.6235140" lon="-7.0992260">
        <ele>1209.2</ele>
        <time>2014-10-02T12:03:58Z</time>
      </trkpt>
      <trkpt lat="42.6236360" lon="-7.0993030">
        <ele>1207.9</ele>
        <time>2014-10-02T12:03:59Z</time>
      </trkpt>
      <trkpt lat="42.6237560" lon="-7.0993930">
        <ele>1206.3</ele>
        <time>2014-10-02T12:04:00Z</time>
      </trkpt>
      <trkpt lat="42.6238770" lon="-7.0995010">
        <ele>1204.7</ele>
        <time>2014-10-02T12:04:01Z</time>
      </trkpt>
      <trkpt lat="42.6239980" lon="-7.0996180">
        <ele>1202.9</ele>
        <time>2014-10-02T12:04:02Z</time>
      </trkpt>
      <trkpt lat="42.6241170" lon="-7.0997330">
        <ele>1200.9</ele>
        <time>2014-10-02T12:04:03Z</time>
      </trkpt>
      <trkpt lat="42.6242360" lon="-7.0998480">
        <ele>1198.8</ele>
        <time>2014-10-02T12:04:04Z</time>
      </trkpt>
      <trkpt lat="42.6243490" lon="-7.0999590">
        <ele>1196.8</ele>
        <time>2014-10-02T12:04:05Z</time>
      </trkpt>
      <trkpt lat="42.6244660" lon="-7.1000630">
        <ele>1194.8</ele>
        <time>2014-10-02T12:04:06Z</time>
      </trkpt>
      <trkpt lat="42.6245870" lon="-7.1001710">
        <ele>1192.9</ele>
        <time>2014-10-02T12:04:07Z</time>
      </trkpt>
      <trkpt lat="42.6247130" lon="-7.1002810">
        <ele>1190.8</ele>
        <time>2014-10-02T12:04:08Z</time>
      </trkpt>
      <trkpt lat="42.6248470" lon="-7.1003970">
        <ele>1188.7</ele>
        <time>2014-10-02T12:04:09Z</time>
      </trkpt>
      <trkpt lat="42.6249770" lon="-7.1005240">
        <ele>1186.6</ele>
        <time>2014-10-02T12:04:10Z</time>
      </trkpt>
      <trkpt lat="42.6251030" lon="-7.1006590">
        <ele>1184.3</ele>
        <time>2014-10-02T12:04:11Z</time>
      </trkpt>
      <trkpt lat="42.6252300" lon="-7.1008040">
        <ele>1182.0</ele>
        <time>2014-10-02T12:04:12Z</time>
      </trkpt>
      <trkpt lat="42.6253550" lon="-7.1009450">
        <ele>1179.7</ele>
        <time>2014-10-02T12:04:13Z</time>
      </trkpt>
      <trkpt lat="42.6254680" lon="-7.1010980">
        <ele>1177.0</ele>
        <time>2014-10-02T12:04:14Z</time>
      </trkpt>
      <trkpt lat="42.6256090" lon="-7.1011990">
        <ele>1174.4</ele>
        <time>2014-10-02T12:04:15Z</time>
      </trkpt>
      <trkpt lat="42.6257540" lon="-7.1013110">
        <ele>1172.1</ele>
        <time>2014-10-02T12:04:16Z</time>
      </trkpt>
      <trkpt lat="42.6258880" lon="-7.1014420">
        <ele>1169.8</ele>
        <time>2014-10-02T12:04:17Z</time>
      </trkpt>
      <trkpt lat="42.6259920" lon="-7.1016220">
        <ele>1167.7</ele>
        <time>2014-10-02T12:04:18Z</time>
      </trkpt>
      <trkpt lat="42.6261010" lon="-7.1018040">
        <ele>1165.5</ele>
        <time>2014-10-02T12:04:19Z</time>
      </trkpt>
      <trkpt lat="42.6262150" lon="-7.1019910">
        <ele>1163.5</ele>
        <time>2014-10-02T12:04:20Z</time>
      </trkpt>
      <trkpt lat="42.6263280" lon="-7.1021720">
        <ele>1161.7</ele>
        <time>2014-10-02T12:04:21Z</time>
      </trkpt>
      <trkpt lat="42.6264420" lon="-7.1023550">
        <ele>1159.9</ele>
        <time>2014-10-02T12:04:22Z</time>
      </trkpt>
      <trkpt lat="42.6265500" lon="-7.1025290">
        <ele>1158.2</ele>
        <time>2014-10-02T12:04:23Z</time>
      </trkpt>
      <trkpt lat="42.6266660" lon="-7.1026980">
        <ele>1156.5</ele>
        <time>2014-10-02T12:04:24Z</time>
      </trkpt>
      <trkpt lat="42.6267770" lon="-7.1028500">
        <ele>1155.1</ele>
        <time>2014-10-02T12:04:25Z</time>
      </trkpt>
      <trkpt lat="42.6268900" lon="-7.1029950">
        <ele>1153.8</ele>
        <time>2014-10-02T12:04:26Z</time>
      </trkpt>
      <trkpt lat="42.6270050" lon="-7.1031380">
        <ele>1152.6</ele>
        <time>2014-10-02T12:04:27Z</time>
      </trkpt>
      <trkpt lat="42.6271170" lon="-7.1032660">
        <ele>1151.5</ele>
        <time>2014-10-02T12:04:28Z</time>
      </trkpt>
      <trkpt lat="42.6272290" lon="-7.1033810">
        <ele>1150.4</ele>
        <time>2014-10-02T12:04:29Z</time>
      </trkpt>
      <trkpt lat="42.6273620" lon="-7.1034410">
        <ele>1149.2</ele>
        <time>2014-10-02T12:04:30Z</time>
      </trkpt>
      <trkpt lat="42.6275000" lon="-7.1034870">
        <ele>1148.0</ele>
        <time>2014-10-02T12:04:31Z</time>
      </trkpt>
      <trkpt lat="42.6276430" lon="-7.1035240">
        <ele>1146.8</ele>
        <time>2014-10-02T12:04:32Z</time>
      </trkpt>
      <trkpt lat="42.6278020" lon="-7.1035630">
        <ele>1145.7</ele>
        <time>2014-10-02T12:04:33Z</time>
      </trkpt>
      <trkpt lat="42.6279530" lon="-7.1036030">
        <ele>1144.6</ele>
        <time>2014-10-02T12:04:34Z</time>
      </trkpt>
      <trkpt lat="42.6281000" lon="-7.1036560">
        <ele>1143.1</ele>
        <time>2014-10-02T12:04:35Z</time>
      </trkpt>
      <trkpt lat="42.6282340" lon="-7.1037110">
        <ele>1141.7</ele>
        <time>2014-10-02T12:04:36Z</time>
      </trkpt>
      <trkpt lat="42.6283580" lon="-7.1037690">
        <ele>1140.3</ele>
        <time>2014-10-02T12:04:37Z</time>
      </trkpt>
      <trkpt lat="42.6284780" lon="-7.1038350">
        <ele>1139.0</ele>
        <time>2014-10-02T12:04:38Z</time>
      </trkpt>
      <trkpt lat="42.6285680" lon="-7.1039570">
        <ele>1137.8</ele>
        <time>2014-10-02T12:04:39Z</time>
      </trkpt>
      <trkpt lat="42.6286270" lon="-7.1041030">
        <ele>1136.8</ele>
        <time>2014-10-02T12:04:40Z</time>
      </trkpt>
      <trkpt lat="42.6286830" lon="-7.1042660">
        <ele>1135.7</ele>
        <time>2014-10-02T12:04:41Z</time>
      </trkpt>
      <trkpt lat="42.6287280" lon="-7.1044350">
        <ele>1134.5</ele>
        <time>2014-10-02T12:04:42Z</time>
      </trkpt>
      <trkpt lat="42.6287700" lon="-7.1045980">
        <ele>1133.3</ele>
        <time>2014-10-02T12:04:43Z</time>
      </trkpt>
      <trkpt lat="42.6288090" lon="-7.1047600">
        <ele>1132.2</ele>
        <time>2014-10-02T12:04:44Z</time>
      </trkpt>
      <trkpt lat="42.6288440" lon="-7.1049240">
        <ele>1131.1</ele>
        <time>2014-10-02T12:04:45Z</time>
      </trkpt>
      <trkpt lat="42.6288770" lon="-7.1050860">
        <ele>1129.8</ele>
        <time>2014-10-02T12:04:46Z</time>
      </trkpt>
      <trkpt lat="42.6289150" lon="-7.1052630">
        <ele>1128.5</ele>
        <time>2014-10-02T12:04:47Z</time>
      </trkpt>
      <trkpt lat="42.6289530" lon="-7.1054240">
        <ele>1127.2</ele>
        <time>2014-10-02T12:04:48Z</time>
      </trkpt>
      <trkpt lat="42.6289980" lon="-7.1055850">
        <ele>1125.8</ele>
        <time>2014-10-02T12:04:49Z</time>
      </trkpt>
      <trkpt lat="42.6290520" lon="-7.1057410">
        <ele>1124.5</ele>
        <time>2014-10-02T12:04:50Z</time>
      </trkpt>
      <trkpt lat="42.6291110" lon="-7.1058950">
        <ele>1123.0</ele>
        <time>2014-10-02T12:04:51Z</time>
      </trkpt>
      <trkpt lat="42.6291760" lon="-7.1060610">
        <ele>1121.4</ele>
        <time>2014-10-02T12:04:52Z</time>
      </trkpt>
      <trkpt lat="42.6292430" lon="-7.1062330">
        <ele>1119.8</ele>
        <time>2014-10-02T12:04:53Z</time>
      </trkpt>
      <trkpt lat="42.6293030" lon="-7.1064070">
        <ele>1118.5</ele>
        <time>2014-10-02T12:04:54Z</time>
      </trkpt>
      <trkpt lat="42.6293580" lon="-7.1065900">
        <ele>1117.0</ele>
        <time>2014-10-02T12:04:55Z</time>
      </trkpt>
      <trkpt lat="42.6294090" lon="-7.1067900">
        <ele>1115.5</ele>
        <time>2014-10-02T12:04:56Z</time>
      </trkpt>
      <trkpt lat="42.6294490" lon="-7.1069810">
        <ele>1114.0</ele>
        <time>2014-10-02T12:04:57Z</time>
      </trkpt>
      <trkpt lat="42.6294840" lon="-7.1071750">
        <ele>1112.5</ele>
        <time>2014-10-02T12:04:58Z</time>
      </trkpt>
      <trkpt lat="42.6295180" lon="-7.1073640">
        <ele>1111.2</ele>
        <time>2014-10-02T12:04:59Z</time>
      </trkpt>
      <trkpt lat="42.6295540" lon="-7.1075490">
        <ele>1109.7</ele>
        <time>2014-10-02T12:05:00Z</time>
      </trkpt>
      <trkpt lat="42.6296210" lon="-7.1077130">
        <ele>1108.3</ele>
        <time>2014-10-02T12:05:01Z</time>
      </trkpt>
      <trkpt lat="42.6296900" lon="-7.1078730">
        <ele>1107.1</ele>
        <time>2014-10-02T12:05:02Z</time>
      </trkpt>
      <trkpt lat="42.6297540" lon="-7.1080310">
        <ele>1106.0</ele>
        <time>2014-10-02T12:05:03Z</time>
      </trkpt>
      <trkpt lat="42.6298470" lon="-7.1081580">
        <ele>1104.7</ele>
        <time>2014-10-02T12:05:04Z</time>
      </trkpt>
      <trkpt lat="42.6299290" lon="-7.1082830">
        <ele>1103.6</ele>
        <time>2014-10-02T12:05:05Z</time>
      </trkpt>
      <trkpt lat="42.6300130" lon="-7.1084060">
        <ele>1102.5</ele>
        <time>2014-10-02T12:05:06Z</time>
      </trkpt>
      <trkpt lat="42.6300510" lon="-7.1085400">
        <ele>1101.5</ele>
        <time>2014-10-02T12:05:07Z</time>
      </trkpt>
      <trkpt lat="42.6300400" lon="-7.1086790">
        <ele>1100.5</ele>
        <time>2014-10-02T12:05:08Z</time>
      </trkpt>
      <trkpt lat="42.6299970" lon="-7.1088100">
        <ele>1099.3</ele>
        <time>2014-10-02T12:05:09Z</time>
      </trkpt>
      <trkpt lat="42.6299520" lon="-7.1089370">
        <ele>1098.1</ele>
        <time>2014-10-02T12:05:10Z</time>
      </trkpt>
      <trkpt lat="42.6298790" lon="-7.1090570">
        <ele>1096.8</ele>
        <time>2014-10-02T12:05:11Z</time>
      </trkpt>
      <trkpt lat="42.6297930" lon="-7.1091810">
        <ele>1095.4</ele>
        <time>2014-10-02T12:05:12Z</time>
      </trkpt>
      <trkpt lat="42.6297070" lon="-7.1093060">
        <ele>1094.1</ele>
        <time>2014-10-02T12:05:13Z</time>
      </trkpt>
      <trkpt lat="42.6296550" lon="-7.1094340">
        <ele>1093.0</ele>
        <time>2014-10-02T12:05:14Z</time>
      </trkpt>
      <trkpt lat="42.6296450" lon="-7.1095530">
        <ele>1091.9</ele>
        <time>2014-10-02T12:05:15Z</time>
      </trkpt>
      <trkpt lat="42.6296740" lon="-7.1096490">
        <ele>1091.0</ele>
        <time>2014-10-02T12:05:16Z</time>
      </trkpt>
      <trkpt lat="42.6297000" lon="-7.1097340">
        <ele>1090.1</ele>
        <time>2014-10-02T12:05:17Z</time>
      </trkpt>
      <trkpt lat="42.6297430" lon="-7.1098170">
        <ele>1089.2</ele>
        <time>2014-10-02T12:05:18Z</time>
      </trkpt>
      <trkpt lat="42.6298180" lon="-7.1098690">
        <ele>1088.3</ele>
        <time>2014-10-02T12:05:19Z</time>
      </trkpt>
      <trkpt lat="42.6299210" lon="-7.1098800">
        <ele>1087.1</ele>
        <time>2014-10-02T12:05:20Z</time>
      </trkpt>
      <trkpt lat="42.6300190" lon="-7.1099370">
        <ele>1085.9</ele>
        <time>2014-10-02T12:05:21Z</time>
      </trkpt>
      <trkpt lat="42.6300980" lon="-7.1100370">
        <ele>1084.5</ele>
        <time>2014-10-02T12:05:22Z</time>
      </trkpt>
      <trkpt lat="42.6301750" lon="-7.1101490">
        <ele>1083.1</ele>
        <time>2014-10-02T12:05:23Z</time>
      </trkpt>
      <trkpt lat="42.6302520" lon="-7.1102740">
        <ele>1081.7</ele>
        <time>2014-10-02T12:05:24Z</time>
      </trkpt>
      <trkpt lat="42.6303360" lon="-7.1104120">
        <ele>1080.2</ele>
        <time>2014-10-02T12:05:25Z</time>
      </trkpt>
      <trkpt lat="42.6304180" lon="-7.1105570">
        <ele>1078.9</ele>
        <time>2014-10-02T12:05:26Z</time>
      </trkpt>
      <trkpt lat="42.6305020" lon="-7.1107060">
        <ele>1077.5</ele>
        <time>2014-10-02T12:05:27Z</time>
      </trkpt>
      <trkpt lat="42.6305850" lon="-7.1108590">
        <ele>1076.1</ele>
        <time>2014-10-02T12:05:28Z</time>
      </trkpt>
      <trkpt lat="42.6306710" lon="-7.1110110">
        <ele>1074.8</ele>
        <time>2014-10-02T12:05:29Z</time>
      </trkpt>
      <trkpt lat="42.6307640" lon="-7.1111640">
        <ele>1073.4</ele>
        <time>2014-10-02T12:05:30Z</time>
      </trkpt>
      <trkpt lat="42.6308580" lon="-7.1113090">
        <ele>1072.1</ele>
        <time>2014-10-02T12:05:31Z</time>
      </trkpt>
      <trkpt lat="42.6309610" lon="-7.1114440">
        <ele>1070.8</ele>
        <time>2014-10-02T12:05:32Z</time>
      </trkpt>
      <trkpt lat="42.6310820" lon="-7.1115370">
        <ele>1069.5</ele>
        <time>2014-10-02T12:05:33Z</time>
      </trkpt>
      <trkpt lat="42.6312070" lon="-7.1116220">
        <ele>1067.7</ele>
        <time>2014-10-02T12:05:34Z</time>
      </trkpt>
      <trkpt lat="42.6313430" lon="-7.1116960">
        <ele>1067.3</ele>
        <time>2014-10-02T12:05:35Z</time>
      </trkpt>
      <trkpt lat="42.6314800" lon="-7.1117550">
        <ele>1067.0</ele>
        <time>2014-10-02T12:05:36Z</time>
      </trkpt>
      <trkpt lat="42.6316170" lon="-7.1117990">
        <ele>1066.9</ele>
        <time>2014-10-02T12:05:37Z</time>
      </trkpt>
      <trkpt lat="42.6317510" lon="-7.1118260">
        <ele>1066.9</ele>
        <time>2014-10-02T12:05:38Z</time>
      </trkpt>
      <trkpt lat="42.6318840" lon="-7.1118030">
        <ele>1066.8</ele>
        <time>2014-10-02T12:05:39Z</time>
      </trkpt>
      <trkpt lat="42.6319850" lon="-7.1117270">
        <ele>1066.5</ele>
        <time>2014-10-02T12:05:40Z</time>
      </trkpt>
      <trkpt lat="42.6320650" lon="-7.1116130">
        <ele>1066.1</ele>
        <time>2014-10-02T12:05:41Z</time>
      </trkpt>
      <trkpt lat="42.6321080" lon="-7.1114730">
        <ele>1066.0</ele>
        <time>2014-10-02T12:05:42Z</time>
      </trkpt>
      <trkpt lat="42.6321420" lon="-7.1113280">
        <ele>1065.9</ele>
        <time>2014-10-02T12:05:43Z</time>
      </trkpt>
      <trkpt lat="42.6321700" lon="-7.1111900">
        <ele>1065.8</ele>
        <time>2014-10-02T12:05:44Z</time>
      </trkpt>
      <trkpt lat="42.6322010" lon="-7.1110450">
        <ele>1065.8</ele>
        <time>2014-10-02T12:05:45Z</time>
      </trkpt>
      <trkpt lat="42.6322450" lon="-7.1108910">
        <ele>1065.6</ele>
        <time>2014-10-02T12:05:46Z</time>
      </trkpt>
      <trkpt lat="42.6322980" lon="-7.1107290">
        <ele>1065.3</ele>
        <time>2014-10-02T12:05:47Z</time>
      </trkpt>
      <trkpt lat="42.6323500" lon="-7.1105720">
        <ele>1065.2</ele>
        <time>2014-10-02T12:05:48Z</time>
      </trkpt>
      <trkpt lat="42.6324040" lon="-7.1104240">
        <ele>1065.2</ele>
        <time>2014-10-02T12:05:49Z</time>
      </trkpt>
      <trkpt lat="42.6324550" lon="-7.1102850">
        <ele>1065.3</ele>
        <time>2014-10-02T12:05:50Z</time>
      </trkpt>
      <trkpt lat="42.6325100" lon="-7.1101370">
        <ele>1065.4</ele>
        <time>2014-10-02T12:05:51Z</time>
      </trkpt>
      <trkpt lat="42.6325650" lon="-7.1099930">
        <ele>1065.6</ele>
        <time>2014-10-02T12:05:52Z</time>
      </trkpt>
      <trkpt lat="42.6326210" lon="-7.1098630">
        <ele>1065.7</ele>
        <time>2014-10-02T12:05:53Z</time>
      </trkpt>
      <trkpt lat="42.6326890" lon="-7.1097610">
        <ele>1065.9</ele>
        <time>2014-10-02T12:05:54Z</time>
      </trkpt>
      <trkpt lat="42.6327630" lon="-7.1097010">
        <ele>1065.9</ele>
        <time>2014-10-02T12:05:55Z</time>
      </trkpt>
      <trkpt lat="42.6328340" lon="-7.1096460">
        <ele>1065.9</ele>
        <time>2014-10-02T12:05:56Z</time>
      </trkpt>
      <trkpt lat="42.6329270" lon="-7.1096730">
        <ele>1065.8</ele>
        <time>2014-10-02T12:05:57Z</time>
      </trkpt>
      <trkpt lat="42.6329960" lon="-7.1097340">
        <ele>1065.7</ele>
        <time>2014-10-02T12:05:58Z</time>
      </trkpt>
      <trkpt lat="42.6330710" lon="-7.1098090">
        <ele>1065.7</ele>
        <time>2014-10-02T12:05:59Z</time>
      </trkpt>
      <trkpt lat="42.6331490" lon="-7.1098940">
        <ele>1065.9</ele>
        <time>2014-10-02T12:06:00Z</time>
      </trkpt>
      <trkpt lat="42.6332280" lon="-7.1099800">
        <ele>1066.0</ele>
        <time>2014-10-02T12:06:01Z</time>
      </trkpt>
      <trkpt lat="42.6333030" lon="-7.1100720">
        <ele>1066.1</ele>
        <time>2014-10-02T12:06:02Z</time>
      </trkpt>
      <trkpt lat="42.6333810" lon="-7.1101660">
        <ele>1066.2</ele>
        <time>2014-10-02T12:06:03Z</time>
      </trkpt>
      <trkpt lat="42.6334590" lon="-7.1102640">
        <ele>1066.1</ele>
        <time>2014-10-02T12:06:04Z</time>
      </trkpt>
      <trkpt lat="42.6335430" lon="-7.1103600">
        <ele>1066.0</ele>
        <time>2014-10-02T12:06:05Z</time>
      </trkpt>
      <trkpt lat="42.6336230" lon="-7.1104420">
        <ele>1065.8</ele>
        <time>2014-10-02T12:06:06Z</time>
      </trkpt>
      <trkpt lat="42.6337170" lon="-7.1104920">
        <ele>1065.6</ele>
        <time>2014-10-02T12:06:07Z</time>
      </trkpt>
      <trkpt lat="42.6338180" lon="-7.1105350">
        <ele>1065.3</ele>
        <time>2014-10-02T12:06:08Z</time>
      </trkpt>
      <trkpt lat="42.6339310" lon="-7.1105400">
        <ele>1064.9</ele>
        <time>2014-10-02T12:06:09Z</time>
      </trkpt>
      <trkpt lat="42.6340390" lon="-7.1105400">
        <ele>1064.6</ele>
        <time>2014-10-02T12:06:10Z</time>
      </trkpt>
      <trkpt lat="42.6341550" lon="-7.1105160">
        <ele>1064.2</ele>
        <time>2014-10-02T12:06:11Z</time>
      </trkpt>
      <trkpt lat="42.6342810" lon="-7.1104610">
        <ele>1063.6</ele>
        <time>2014-10-02T12:06:12Z</time>
      </trkpt>
      <trkpt lat="42.6344170" lon="-7.1103960">
        <ele>1063.2</ele>
        <time>2014-10-02T12:06:13Z</time>
      </trkpt>
      <trkpt lat="42.6345500" lon="-7.1103460">
        <ele>1062.8</ele>
        <time>2014-10-02T12:06:14Z</time>
      </trkpt>
      <trkpt lat="42.6346890" lon="-7.1103450">
        <ele>1062.4</ele>
        <time>2014-10-02T12:06:15Z</time>
      </trkpt>
      <trkpt lat="42.6348280" lon="-7.1103470">
        <ele>1062.0</ele>
        <time>2014-10-02T12:06:16Z</time>
      </trkpt>
      <trkpt lat="42.6349440" lon="-7.1103820">
        <ele>1061.4</ele>
        <time>2014-10-02T12:06:17Z</time>
      </trkpt>
      <trkpt lat="42.6350510" lon="-7.1104260">
        <ele>1060.8</ele>
        <time>2014-10-02T12:06:18Z</time>
      </trkpt>
      <trkpt lat="42.6351330" lon="-7.1105240">
        <ele>1060.4</ele>
        <time>2014-10-02T12:06:19Z</time>
      </trkpt>
      <trkpt lat="42.6351960" lon="-7.1106480">
        <ele>1059.9</ele>
        <time>2014-10-02T12:06:20Z</time>
      </trkpt>
      <trkpt lat="42.6352080" lon="-7.1108020">
        <ele>1059.4</ele>
        <time>2014-10-02T12:06:21Z</time>
      </trkpt>
      <trkpt lat="42.6351810" lon="-7.1109530">
        <ele>1059.2</ele>
        <time>2014-10-02T12:06:22Z</time>
      </trkpt>
      <trkpt lat="42.6351440" lon="-7.1111020">
        <ele>1058.0</ele>
        <time>2014-10-02T12:06:23Z</time>
      </trkpt>
      <trkpt lat="42.6350960" lon="-7.1112550">
        <ele>1056.7</ele>
        <time>2014-10-02T12:06:24Z</time>
      </trkpt>
      <trkpt lat="42.6350380" lon="-7.1114010">
        <ele>1055.4</ele>
        <time>2014-10-02T12:06:25Z</time>
      </trkpt>
      <trkpt lat="42.6349780" lon="-7.1115440">
        <ele>1054.1</ele>
        <time>2014-10-02T12:06:26Z</time>
      </trkpt>
      <trkpt lat="42.6349160" lon="-7.1116870">
        <ele>1052.9</ele>
        <time>2014-10-02T12:06:27Z</time>
      </trkpt>
      <trkpt lat="42.6348520" lon="-7.1118350">
        <ele>1051.3</ele>
        <time>2014-10-02T12:06:28Z</time>
      </trkpt>
      <trkpt lat="42.6347870" lon="-7.1119850">
        <ele>1049.8</ele>
        <time>2014-10-02T12:06:29Z</time>
      </trkpt>
      <trkpt lat="42.6347230" lon="-7.1121410">
        <ele>1048.3</ele>
        <time>2014-10-02T12:06:30Z</time>
      </trkpt>
      <trkpt lat="42.6346640" lon="-7.1122970">
        <ele>1046.9</ele>
        <time>2014-10-02T12:06:31Z</time>
      </trkpt>
      <trkpt lat="42.6346040" lon="-7.1124630">
        <ele>1045.8</ele>
        <time>2014-10-02T12:06:32Z</time>
      </trkpt>
      <trkpt lat="42.6345450" lon="-7.1126360">
        <ele>1044.7</ele>
        <time>2014-10-02T12:06:33Z</time>
      </trkpt>
      <trkpt lat="42.6344930" lon="-7.1128060">
        <ele>1043.2</ele>
        <time>2014-10-02T12:06:34Z</time>
      </trkpt>
      <trkpt lat="42.6344460" lon="-7.1129780">
        <ele>1041.6</ele>
        <time>2014-10-02T12:06:35Z</time>
      </trkpt>
      <trkpt lat="42.6344240" lon="-7.1131650">
        <ele>1039.9</ele>
        <time>2014-10-02T12:06:36Z</time>
      </trkpt>
      <trkpt lat="42.6344110" lon="-7.1133540">
        <ele>1038.2</ele>
        <time>2014-10-02T12:06:37Z</time>
      </trkpt>
      <trkpt lat="42.6344090" lon="-7.1135560">
        <ele>1036.1</ele>
        <time>2014-10-02T12:06:38Z</time>
      </trkpt>
      <trkpt lat="42.6344180" lon="-7.1137540">
        <ele>1033.8</ele>
        <time>2014-10-02T12:06:39Z</time>
      </trkpt>
      <trkpt lat="42.6344350" lon="-7.1139540">
        <ele>1031.6</ele>
        <time>2014-10-02T12:06:40Z</time>
      </trkpt>
      <trkpt lat="42.6344600" lon="-7.1141630">
        <ele>1029.4</ele>
        <time>2014-10-02T12:06:41Z</time>
      </trkpt>
      <trkpt lat="42.6344760" lon="-7.1143800">
        <ele>1027.3</ele>
        <time>2014-10-02T12:06:42Z</time>
      </trkpt>
      <trkpt lat="42.6344430" lon="-7.1145830">
        <ele>1025.2</ele>
        <time>2014-10-02T12:06:43Z</time>
      </trkpt>
      <trkpt lat="42.6344170" lon="-7.1147800">
        <ele>1023.3</ele>
        <time>2014-10-02T12:06:44Z</time>
      </trkpt>
      <trkpt lat="42.6344210" lon="-7.1149920">
        <ele>1021.0</ele>
        <time>2014-10-02T12:06:45Z</time>
      </trkpt>
      <trkpt lat="42.6344310" lon="-7.1152010">
        <ele>1018.7</ele>
        <time>2014-10-02T12:06:46Z</time>
      </trkpt>
      <trkpt lat="42.6344840" lon="-7.1154110">
        <ele>1016.0</ele>
        <time>2014-10-02T12:06:47Z</time>
      </trkpt>
      <trkpt lat="42.6345350" lon="-7.1156320">
        <ele>1012.9</ele>
        <time>2014-10-02T12:06:48Z</time>
      </trkpt>
      <trkpt lat="42.6345790" lon="-7.1158600">
        <ele>1009.9</ele>
        <time>2014-10-02T12:06:49Z</time>
      </trkpt>
      <trkpt lat="42.6346180" lon="-7.1160900">
        <ele>1007.1</ele>
        <time>2014-10-02T12:06:50Z</time>
      </trkpt>
      <trkpt lat="42.6346570" lon="-7.1163200">
        <ele>1003.9</ele>
        <time>2014-10-02T12:06:51Z</time>
      </trkpt>
      <trkpt lat="42.6346970" lon="-7.1165590">
        <ele>1000.8</ele>
        <time>2014-10-02T12:06:52Z</time>
      </trkpt>
      <trkpt lat="42.6347460" lon="-7.1167910">
        <ele>997.7</ele>
        <time>2014-10-02T12:06:53Z</time>
      </trkpt>
      <trkpt lat="42.6347950" lon="-7.1170230">
        <ele>994.8</ele>
        <time>2014-10-02T12:06:54Z</time>
      </trkpt>
      <trkpt lat="42.6348500" lon="-7.1172550">
        <ele>991.9</ele>
        <time>2014-10-02T12:06:55Z</time>
      </trkpt>
      <trkpt lat="42.6349020" lon="-7.1174970">
        <ele>988.8</ele>
        <time>2014-10-02T12:06:56Z</time>
      </trkpt>
      <trkpt lat="42.6349340" lon="-7.1177480">
        <ele>985.7</ele>
        <time>2014-10-02T12:06:57Z</time>
      </trkpt>
      <trkpt lat="42.6349650" lon="-7.1179860">
        <ele>983.2</ele>
        <time>2014-10-02T12:06:58Z</time>
      </trkpt>
      <trkpt lat="42.6349990" lon="-7.1182170">
        <ele>980.9</ele>
        <time>2014-10-02T12:06:59Z</time>
      </trkpt>
      <trkpt lat="42.6350230" lon="-7.1184350">
        <ele>978.6</ele>
        <time>2014-10-02T12:07:00Z</time>
      </trkpt>
      <trkpt lat="42.6350410" lon="-7.1186220">
        <ele>976.6</ele>
        <time>2014-10-02T12:07:01Z</time>
      </trkpt>
      <trkpt lat="42.6350610" lon="-7.1188110">
        <ele>974.8</ele>
        <time>2014-10-02T12:07:02Z</time>
      </trkpt>
      <trkpt lat="42.6351040" lon="-7.1189600">
        <ele>973.3</ele>
        <time>2014-10-02T12:07:03Z</time>
      </trkpt>
      <trkpt lat="42.6351890" lon="-7.1191000">
        <ele>971.3</ele>
        <time>2014-10-02T12:07:04Z</time>
      </trkpt>
      <trkpt lat="42.6352650" lon="-7.1192470">
        <ele>969.7</ele>
        <time>2014-10-02T12:07:05Z</time>
      </trkpt>
      <trkpt lat="42.6353510" lon="-7.1194220">
        <ele>968.3</ele>
        <time>2014-10-02T12:07:06Z</time>
      </trkpt>
      <trkpt lat="42.6354070" lon="-7.1196130">
        <ele>966.9</ele>
        <time>2014-10-02T12:07:07Z</time>
      </trkpt>
      <trkpt lat="42.6354550" lon="-7.1197870">
        <ele>965.6</ele>
        <time>2014-10-02T12:07:08Z</time>
      </trkpt>
      <trkpt lat="42.6354920" lon="-7.1199530">
        <ele>964.4</ele>
        <time>2014-10-02T12:07:09Z</time>
      </trkpt>
      <trkpt lat="42.6355270" lon="-7.1201270">
        <ele>963.1</ele>
        <time>2014-10-02T12:07:10Z</time>
      </trkpt>
      <trkpt lat="42.6355730" lon="-7.1203010">
        <ele>961.7</ele>
        <time>2014-10-02T12:07:11Z</time>
      </trkpt>
      <trkpt lat="42.6356120" lon="-7.1204780">
        <ele>960.4</ele>
        <time>2014-10-02T12:07:12Z</time>
      </trkpt>
      <trkpt lat="42.6356410" lon="-7.1206560">
        <ele>959.0</ele>
        <time>2014-10-02T12:07:13Z</time>
      </trkpt>
      <trkpt lat="42.6356700" lon="-7.1208330">
        <ele>957.7</ele>
        <time>2014-10-02T12:07:14Z</time>
      </trkpt>
      <trkpt lat="42.6356960" lon="-7.1210000">
        <ele>956.4</ele>
        <time>2014-10-02T12:07:15Z</time>
      </trkpt>
      <trkpt lat="42.6357480" lon="-7.1211530">
        <ele>955.0</ele>
        <time>2014-10-02T12:07:16Z</time>
      </trkpt>
      <trkpt lat="42.6358070" lon="-7.1213080">
        <ele>953.5</ele>
        <time>2014-10-02T12:07:17Z</time>
      </trkpt>
      <trkpt lat="42.6358700" lon="-7.1214580">
        <ele>952.1</ele>
        <time>2014-10-02T12:07:18Z</time>
      </trkpt>
      <trkpt lat="42.6359310" lon="-7.1216130">
        <ele>950.8</ele>
        <time>2014-10-02T12:07:19Z</time>
      </trkpt>
      <trkpt lat="42.6359870" lon="-7.1217750">
        <ele>949.3</ele>
        <time>2014-10-02T12:07:20Z</time>
      </trkpt>
      <trkpt lat="42.6360320" lon="-7.1219540">
        <ele>947.8</ele>
        <time>2014-10-02T12:07:21Z</time>
      </trkpt>
      <trkpt lat="42.6360750" lon="-7.1221420">
        <ele>946.2</ele>
        <time>2014-10-02T12:07:22Z</time>
      </trkpt>
      <trkpt lat="42.6361180" lon="-7.1223230">
        <ele>944.9</ele>
        <time>2014-10-02T12:07:23Z</time>
      </trkpt>
      <trkpt lat="42.6361600" lon="-7.1225100">
        <ele>943.6</ele>
        <time>2014-10-02T12:07:24Z</time>
      </trkpt>
      <trkpt lat="42.6361990" lon="-7.1227080">
        <ele>940.9</ele>
        <time>2014-10-02T12:07:25Z</time>
      </trkpt>
      <trkpt lat="42.6362350" lon="-7.1228960">
        <ele>938.5</ele>
        <time>2014-10-02T12:07:26Z</time>
      </trkpt>
      <trkpt lat="42.6362640" lon="-7.1230810">
        <ele>936.1</ele>
        <time>2014-10-02T12:07:27Z</time>
      </trkpt>
      <trkpt lat="42.6362890" lon="-7.1232660">
        <ele>933.6</ele>
        <time>2014-10-02T12:07:28Z</time>
      </trkpt>
      <trkpt lat="42.6363130" lon="-7.1234510">
        <ele>931.3</ele>
        <time>2014-10-02T12:07:29Z</time>
      </trkpt>
      <trkpt lat="42.6363290" lon="-7.1236320">
        <ele>928.9</ele>
        <time>2014-10-02T12:07:30Z</time>
      </trkpt>
      <trkpt lat="42.6363530" lon="-7.1238110">
        <ele>924.5</ele>
        <time>2014-10-02T12:07:31Z</time>
      </trkpt>
      <trkpt lat="42.6363780" lon="-7.1239890">
        <ele>922.6</ele>
        <time>2014-10-02T12:07:32Z</time>
      </trkpt>
      <trkpt lat="42.6364140" lon="-7.1241730">
        <ele>921.0</ele>
        <time>2014-10-02T12:07:33Z</time>
      </trkpt>
      <trkpt lat="42.6364850" lon="-7.1243270">
        <ele>919.6</ele>
        <time>2014-10-02T12:07:34Z</time>
      </trkpt>
      <trkpt lat="42.6365560" lon="-7.1244700">
        <ele>918.2</ele>
        <time>2014-10-02T12:07:35Z</time>
      </trkpt>
      <trkpt lat="42.6366190" lon="-7.1246020">
        <ele>917.1</ele>
        <time>2014-10-02T12:07:36Z</time>
      </trkpt>
      <trkpt lat="42.6367090" lon="-7.1246910">
        <ele>916.3</ele>
        <time>2014-10-02T12:07:37Z</time>
      </trkpt>
      <trkpt lat="42.6368350" lon="-7.1247190">
        <ele>915.5</ele>
        <time>2014-10-02T12:07:38Z</time>
      </trkpt>
      <trkpt lat="42.6369540" lon="-7.1247100">
        <ele>914.8</ele>
        <time>2014-10-02T12:07:39Z</time>
      </trkpt>
      <trkpt lat="42.6370790" lon="-7.1246900">
        <ele>914.3</ele>
        <time>2014-10-02T12:07:40Z</time>
      </trkpt>
      <trkpt lat="42.6372060" lon="-7.1246800">
        <ele>913.8</ele>
        <time>2014-10-02T12:07:41Z</time>
      </trkpt>
      <trkpt lat="42.6373220" lon="-7.1247210">
        <ele>913.2</ele>
        <time>2014-10-02T12:07:42Z</time>
      </trkpt>
      <trkpt lat="42.6374140" lon="-7.1248010">
        <ele>912.6</ele>
        <time>2014-10-02T12:07:43Z</time>
      </trkpt>
      <trkpt lat="42.6375010" lon="-7.1248910">
        <ele>912.1</ele>
        <time>2014-10-02T12:07:44Z</time>
      </trkpt>
      <trkpt lat="42.6375970" lon="-7.1249980">
        <ele>911.5</ele>
        <time>2014-10-02T12:07:45Z</time>
      </trkpt>
      <trkpt lat="42.6376830" lon="-7.1251060">
        <ele>910.6</ele>
        <time>2014-10-02T12:07:46Z</time>
      </trkpt>
      <trkpt lat="42.6377680" lon="-7.1252270">
        <ele>909.8</ele>
        <time>2014-10-02T12:07:47Z</time>
      </trkpt>
      <trkpt lat="42.6378510" lon="-7.1253530">
        <ele>909.0</ele>
        <time>2014-10-02T12:07:48Z</time>
      </trkpt>
      <trkpt lat="42.6379220" lon="-7.1254730">
        <ele>908.3</ele>
        <time>2014-10-02T12:07:49Z</time>
      </trkpt>
      <trkpt lat="42.6379920" lon="-7.1255930">
        <ele>907.6</ele>
        <time>2014-10-02T12:07:50Z</time>
      </trkpt>
      <trkpt lat="42.6380580" lon="-7.1257130">
        <ele>906.7</ele>
        <time>2014-10-02T12:07:51Z</time>
      </trkpt>
      <trkpt lat="42.6381300" lon="-7.1258400">
        <ele>905.9</ele>
        <time>2014-10-02T12:07:52Z</time>
      </trkpt>
      <trkpt lat="42.6382040" lon="-7.1259660">
        <ele>904.9</ele>
        <time>2014-10-02T12:07:53Z</time>
      </trkpt>
      <trkpt lat="42.6382770" lon="-7.1260840">
        <ele>903.8</ele>
        <time>2014-10-02T12:07:54Z</time>
      </trkpt>
      <trkpt lat="42.6383460" lon="-7.1261890">
        <ele>902.1</ele>
        <time>2014-10-02T12:07:55Z</time>
      </trkpt>
      <trkpt lat="42.6384230" lon="-7.1262480">
        <ele>901.7</ele>
        <time>2014-10-02T12:07:56Z</time>
      </trkpt>
      <trkpt lat="42.6385110" lon="-7.1262530">
        <ele>901.1</ele>
        <time>2014-10-02T12:07:57Z</time>
      </trkpt>
      <trkpt lat="42.6385850" lon="-7.1262050">
        <ele>900.6</ele>
        <time>2014-10-02T12:07:58Z</time>
      </trkpt>
      <trkpt lat="42.6386460" lon="-7.1261250">
        <ele>900.1</ele>
        <time>2014-10-02T12:07:59Z</time>
      </trkpt>
      <trkpt lat="42.6387020" lon="-7.1260180">
        <ele>899.4</ele>
        <time>2014-10-02T12:08:00Z</time>
      </trkpt>
      <trkpt lat="42.6387590" lon="-7.1258980">
        <ele>898.7</ele>
        <time>2014-10-02T12:08:01Z</time>
      </trkpt>
      <trkpt lat="42.6387910" lon="-7.1257670">
        <ele>897.8</ele>
        <time>2014-10-02T12:08:02Z</time>
      </trkpt>
      <trkpt lat="42.6388270" lon="-7.1256260">
        <ele>896.9</ele>
        <time>2014-10-02T12:08:03Z</time>
      </trkpt>
      <trkpt lat="42.6388620" lon="-7.1254810">
        <ele>896.0</ele>
        <time>2014-10-02T12:08:04Z</time>
      </trkpt>
      <trkpt lat="42.6389010" lon="-7.1253330">
        <ele>895.0</ele>
        <time>2014-10-02T12:08:05Z</time>
      </trkpt>
      <trkpt lat="42.6389390" lon="-7.1251790">
        <ele>894.0</ele>
        <time>2014-10-02T12:08:06Z</time>
      </trkpt>
      <trkpt lat="42.6389740" lon="-7.1250100">
        <ele>893.0</ele>
        <time>2014-10-02T12:08:07Z</time>
      </trkpt>
      <trkpt lat="42.6390050" lon="-7.1248370">
        <ele>892.1</ele>
        <time>2014-10-02T12:08:08Z</time>
      </trkpt>
      <trkpt lat="42.6390380" lon="-7.1246660">
        <ele>891.2</ele>
        <time>2014-10-02T12:08:09Z</time>
      </trkpt>
      <trkpt lat="42.6390930" lon="-7.1245160">
        <ele>890.3</ele>
        <time>2014-10-02T12:08:10Z</time>
      </trkpt>
      <trkpt lat="42.6391780" lon="-7.1243900">
        <ele>889.6</ele>
        <time>2014-10-02T12:08:11Z</time>
      </trkpt>
      <trkpt lat="42.6392850" lon="-7.1242980">
        <ele>888.8</ele>
        <time>2014-10-02T12:08:12Z</time>
      </trkpt>
      <trkpt lat="42.6393940" lon="-7.1242060">
        <ele>888.0</ele>
        <time>2014-10-02T12:08:13Z</time>
      </trkpt>
      <trkpt lat="42.6395110" lon="-7.1241780">
        <ele>887.3</ele>
        <time>2014-10-02T12:08:14Z</time>
      </trkpt>
      <trkpt lat="42.6396320" lon="-7.1241590">
        <ele>886.7</ele>
        <time>2014-10-02T12:08:15Z</time>
      </trkpt>
      <trkpt lat="42.6397560" lon="-7.1241510">
        <ele>886.0</ele>
        <time>2014-10-02T12:08:16Z</time>
      </trkpt>
      <trkpt lat="42.6398780" lon="-7.1241460">
        <ele>885.5</ele>
        <time>2014-10-02T12:08:17Z</time>
      </trkpt>
      <trkpt lat="42.6400000" lon="-7.1241470">
        <ele>884.9</ele>
        <time>2014-10-02T12:08:18Z</time>
      </trkpt>
      <trkpt lat="42.6401180" lon="-7.1241490">
        <ele>884.4</ele>
        <time>2014-10-02T12:08:19Z</time>
      </trkpt>
      <trkpt lat="42.6402340" lon="-7.1241430">
        <ele>884.3</ele>
        <time>2014-10-02T12:08:20Z</time>
      </trkpt>
      <trkpt lat="42.6403460" lon="-7.1241280">
        <ele>884.1</ele>
        <time>2014-10-02T12:08:21Z</time>
      </trkpt>
      <trkpt lat="42.6404540" lon="-7.1241080">
        <ele>884.1</ele>
        <time>2014-10-02T12:08:22Z</time>
      </trkpt>
      <trkpt lat="42.6405580" lon="-7.1240830">
        <ele>884.1</ele>
        <time>2014-10-02T12:08:23Z</time>
      </trkpt>
      <trkpt lat="42.6406570" lon="-7.1240610">
        <ele>884.1</ele>
        <time>2014-10-02T12:08:24Z</time>
      </trkpt>
      <trkpt lat="42.6407560" lon="-7.1240430">
        <ele>884.0</ele>
        <time>2014-10-02T12:08:25Z</time>
      </trkpt>
      <trkpt lat="42.6408510" lon="-7.1240280">
        <ele>883.9</ele>
        <time>2014-10-02T12:08:26Z</time>
      </trkpt>
      <trkpt lat="42.6409440" lon="-7.1240180">
        <ele>883.8</ele>
        <time>2014-10-02T12:08:27Z</time>
      </trkpt>
      <trkpt lat="42.6410350" lon="-7.1240090">
        <ele>883.8</ele>
        <time>2014-10-02T12:08:28Z</time>
      </trkpt>
      <trkpt lat="42.6411260" lon="-7.1240030">
        <ele>883.8</ele>
        <time>2014-10-02T12:08:29Z</time>
      </trkpt>
      <trkpt lat="42.6412110" lon="-7.1239970">
        <ele>883.8</ele>
        <time>2014-10-02T12:08:30Z</time>
      </trkpt>
      <trkpt lat="42.6412980" lon="-7.1239850">
        <ele>883.9</ele>
        <time>2014-10-02T12:08:31Z</time>
      </trkpt>
      <trkpt lat="42.6413850" lon="-7.1239660">
        <ele>883.9</ele>
        <time>2014-10-02T12:08:32Z</time>
      </trkpt>
      <trkpt lat="42.6414680" lon="-7.1239410">
        <ele>884.0</ele>
        <time>2014-10-02T12:08:33Z</time>
      </trkpt>
      <trkpt lat="42.6415520" lon="-7.1239080">
        <ele>884.1</ele>
        <time>2014-10-02T12:08:34Z</time>
      </trkpt>
      <trkpt lat="42.6416330" lon="-7.1238690">
        <ele>884.1</ele>
        <time>2014-10-02T12:08:35Z</time>
      </trkpt>
      <trkpt lat="42.6417100" lon="-7.1238240">
        <ele>884.1</ele>
        <time>2014-10-02T12:08:36Z</time>
      </trkpt>
      <trkpt lat="42.6417820" lon="-7.1237740">
        <ele>884.2</ele>
        <time>2014-10-02T12:08:37Z</time>
      </trkpt>
      <trkpt lat="42.6418450" lon="-7.1237020">
        <ele>884.3</ele>
        <time>2014-10-02T12:08:38Z</time>
      </trkpt>
      <trkpt lat="42.6419000" lon="-7.1236310">
        <ele>884.4</ele>
        <time>2014-10-02T12:08:39Z</time>
      </trkpt>
      <trkpt lat="42.6419540" lon="-7.1235480">
        <ele>884.4</ele>
        <time>2014-10-02T12:08:40Z</time>
      </trkpt>
      <trkpt lat="42.6419950" lon="-7.1234520">
        <ele>884.6</ele>
        <time>2014-10-02T12:08:41Z</time>
      </trkpt>
      <trkpt lat="42.6420340" lon="-7.1233540">
        <ele>884.7</ele>
        <time>2014-10-02T12:08:42Z</time>
      </trkpt>
      <trkpt lat="42.6420690" lon="-7.1232510">
        <ele>884.9</ele>
        <time>2014-10-02T12:08:43Z</time>
      </trkpt>
      <trkpt lat="42.6420990" lon="-7.1231420">
        <ele>885.1</ele>
        <time>2014-10-02T12:08:44Z</time>
      </trkpt>
      <trkpt lat="42.6421110" lon="-7.1230290">
        <ele>885.2</ele>
        <time>2014-10-02T12:08:45Z</time>
      </trkpt>
      <trkpt lat="42.6421210" lon="-7.1229260">
        <ele>885.4</ele>
        <time>2014-10-02T12:08:46Z</time>
      </trkpt>
      <trkpt lat="42.6421310" lon="-7.1228260">
        <ele>885.7</ele>
        <time>2014-10-02T12:08:47Z</time>
      </trkpt>
      <trkpt lat="42.6421410" lon="-7.1227190">
        <ele>886.0</ele>
        <time>2014-10-02T12:08:48Z</time>
      </trkpt>
      <trkpt lat="42.6421450" lon="-7.1226160">
        <ele>886.3</ele>
        <time>2014-10-02T12:08:49Z</time>
      </trkpt>
      <trkpt lat="42.6421450" lon="-7.1225180">
        <ele>886.5</ele>
        <time>2014-10-02T12:08:50Z</time>
      </trkpt>
      <trkpt lat="42.6421440" lon="-7.1224280">
        <ele>886.8</ele>
        <time>2014-10-02T12:08:51Z</time>
      </trkpt>
      <trkpt lat="42.6421390" lon="-7.1223370">
        <ele>887.1</ele>
        <time>2014-10-02T12:08:52Z</time>
      </trkpt>
      <trkpt lat="42.6421320" lon="-7.1222450">
        <ele>887.5</ele>
        <time>2014-10-02T12:08:53Z</time>
      </trkpt>
      <trkpt lat="42.6421250" lon="-7.1221600">
        <ele>887.9</ele>
        <time>2014-10-02T12:08:54Z</time>
      </trkpt>
      <trkpt lat="42.6421220" lon="-7.1220780">
        <ele>888.3</ele>
        <time>2014-10-02T12:08:55Z</time>
      </trkpt>
      <trkpt lat="42.6421220" lon="-7.1219980">
        <ele>888.7</ele>
        <time>2014-10-02T12:08:56Z</time>
      </trkpt>
      <trkpt lat="42.6421290" lon="-7.1219150">
        <ele>889.2</ele>
        <time>2014-10-02T12:08:57Z</time>
      </trkpt>
      <trkpt lat="42.6421420" lon="-7.1218300">
        <ele>889.6</ele>
        <time>2014-10-02T12:08:58Z</time>
      </trkpt>
      <trkpt lat="42.6421580" lon="-7.1217460">
        <ele>890.0</ele>
        <time>2014-10-02T12:08:59Z</time>
      </trkpt>
      <trkpt lat="42.6421770" lon="-7.1216730">
        <ele>890.3</ele>
        <time>2014-10-02T12:09:00Z</time>
      </trkpt>
      <trkpt lat="42.6422010" lon="-7.1215960">
        <ele>890.6</ele>
        <time>2014-10-02T12:09:01Z</time>
      </trkpt>
      <trkpt lat="42.6422230" lon="-7.1215310">
        <ele>890.8</ele>
        <time>2014-10-02T12:09:02Z</time>
      </trkpt>
      <trkpt lat="42.6422440" lon="-7.1214740">
        <ele>891.0</ele>
        <time>2014-10-02T12:09:03Z</time>
      </trkpt>
      <trkpt lat="42.6422660" lon="-7.1214180">
        <ele>891.2</ele>
        <time>2014-10-02T12:09:04Z</time>
      </trkpt>
      <trkpt lat="42.6422870" lon="-7.1213550">
        <ele>891.5</ele>
        <time>2014-10-02T12:09:05Z</time>
      </trkpt>
      <trkpt lat="42.6423050" lon="-7.1212960">
        <ele>891.7</ele>
        <time>2014-10-02T12:09:06Z</time>
      </trkpt>
      <trkpt lat="42.6423220" lon="-7.1212310">
        <ele>892.0</ele>
        <time>2014-10-02T12:09:07Z</time>
      </trkpt>
      <trkpt lat="42.6423300" lon="-7.1211700">
        <ele>892.2</ele>
        <time>2014-10-02T12:09:08Z</time>
      </trkpt>
      <trkpt lat="42.6423340" lon="-7.1211100">
        <ele>892.4</ele>
        <time>2014-10-02T12:09:09Z</time>
      </trkpt>
      <trkpt lat="42.6423340" lon="-7.1210530">
        <ele>892.5</ele>
        <time>2014-10-02T12:09:10Z</time>
      </trkpt>
      <trkpt lat="42.6423250" lon="-7.1209840">
        <ele>892.7</ele>
        <time>2014-10-02T12:09:11Z</time>
      </trkpt>
      <trkpt lat="42.6423150" lon="-7.1209190">
        <ele>892.8</ele>
        <time>2014-10-02T12:09:12Z</time>
      </trkpt>
      <trkpt lat="42.6423030" lon="-7.1208540">
        <ele>893.0</ele>
        <time>2014-10-02T12:09:13Z</time>
      </trkpt>
      <trkpt lat="42.6422880" lon="-7.1207910">
        <ele>893.1</ele>
        <time>2014-10-02T12:09:14Z</time>
      </trkpt>
      <trkpt lat="42.6422720" lon="-7.1207350">
        <ele>893.1</ele>
        <time>2014-10-02T12:09:15Z</time>
      </trkpt>
      <trkpt lat="42.6422520" lon="-7.1206790">
        <ele>893.2</ele>
        <time>2014-10-02T12:09:16Z</time>
      </trkpt>
      <trkpt lat="42.6422200" lon="-7.1206160">
        <ele>893.3</ele>
        <time>2014-10-02T12:09:17Z</time>
      </trkpt>
      <trkpt lat="42.6421900" lon="-7.1205570">
        <ele>893.4</ele>
        <time>2014-10-02T12:09:18Z</time>
      </trkpt>
      <trkpt lat="42.6421700" lon="-7.1204900">
        <ele>893.6</ele>
        <time>2014-10-02T12:09:19Z</time>
      </trkpt>
      <trkpt lat="42.6421430" lon="-7.1204050">
        <ele>893.7</ele>
        <time>2014-10-02T12:09:20Z</time>
      </trkpt>
      <trkpt lat="42.6421270" lon="-7.1203240">
        <ele>893.8</ele>
        <time>2014-10-02T12:09:21Z</time>
      </trkpt>
      <trkpt lat="42.6421110" lon="-7.1202420">
        <ele>893.9</ele>
        <time>2014-10-02T12:09:22Z</time>
      </trkpt>
      <trkpt lat="42.6420960" lon="-7.1201580">
        <ele>893.9</ele>
        <time>2014-10-02T12:09:23Z</time>
      </trkpt>
      <trkpt lat="42.6420940" lon="-7.1200800">
        <ele>893.9</ele>
        <time>2014-10-02T12:09:24Z</time>
      </trkpt>
      <trkpt lat="42.6421210" lon="-7.1200030">
        <ele>893.9</ele>
        <time>2014-10-02T12:09:25Z</time>
      </trkpt>
      <trkpt lat="42.6421540" lon="-7.1199280">
        <ele>893.7</ele>
        <time>2014-10-02T12:09:26Z</time>
      </trkpt>
      <trkpt lat="42.6421900" lon="-7.1198510">
        <ele>893.3</ele>
        <time>2014-10-02T12:09:27Z</time>
      </trkpt>
      <trkpt lat="42.6422430" lon="-7.1197980">
        <ele>893.0</ele>
        <time>2014-10-02T12:09:28Z</time>
      </trkpt>
      <trkpt lat="42.6422910" lon="-7.1197520">
        <ele>892.7</ele>
        <time>2014-10-02T12:09:29Z</time>
      </trkpt>
      <trkpt lat="42.6423390" lon="-7.1197350">
        <ele>892.4</ele>
        <time>2014-10-02T12:09:30Z</time>
      </trkpt>
      <trkpt lat="42.6423680" lon="-7.1197550">
        <ele>889.5</ele>
        <time>2014-10-02T12:09:31Z</time>
      </trkpt>
      <trkpt lat="42.6423670" lon="-7.1197920">
        <ele>889.1</ele>
        <time>2014-10-02T12:09:32Z</time>
      </trkpt>
      <trkpt lat="42.6423640" lon="-7.1198600">
        <ele>888.4</ele>
        <time>2014-10-02T12:09:33Z</time>
      </trkpt>
      <trkpt lat="42.6423510" lon="-7.1199440">
        <ele>887.5</ele>
        <time>2014-10-02T12:09:34Z</time>
      </trkpt>
      <trkpt lat="42.6423250" lon="-7.1200240">
        <ele>886.6</ele>
        <time>2014-10-02T12:09:35Z</time>
      </trkpt>
      <trkpt lat="42.6422930" lon="-7.1201220">
        <ele>885.5</ele>
        <time>2014-10-02T12:09:36Z</time>
      </trkpt>
      <trkpt lat="42.6422990" lon="-7.1201990">
        <ele>884.7</ele>
        <time>2014-10-02T12:09:37Z</time>
      </trkpt>
      <trkpt lat="42.6423050" lon="-7.1202770">
        <ele>883.9</ele>
        <time>2014-10-02T12:09:38Z</time>
      </trkpt>
      <trkpt lat="42.6423500" lon="-7.1203780">
        <ele>882.7</ele>
        <time>2014-10-02T12:09:39Z</time>
      </trkpt>
      <trkpt lat="42.6424000" lon="-7.1204900">
        <ele>881.2</ele>
        <time>2014-10-02T12:09:40Z</time>
      </trkpt>
      <trkpt lat="42.6424530" lon="-7.1206010">
        <ele>879.8</ele>
        <time>2014-10-02T12:09:41Z</time>
      </trkpt>
      <trkpt lat="42.6425200" lon="-7.1207300">
        <ele>878.0</ele>
        <time>2014-10-02T12:09:42Z</time>
      </trkpt>
      <trkpt lat="42.6425850" lon="-7.1208570">
        <ele>877.0</ele>
        <time>2014-10-02T12:09:43Z</time>
      </trkpt>
      <trkpt lat="42.6426440" lon="-7.1209970">
        <ele>875.7</ele>
        <time>2014-10-02T12:09:44Z</time>
      </trkpt>
      <trkpt lat="42.6426800" lon="-7.1211670">
        <ele>874.2</ele>
        <time>2014-10-02T12:09:45Z</time>
      </trkpt>
      <trkpt lat="42.6427060" lon="-7.1213420">
        <ele>872.5</ele>
        <time>2014-10-02T12:09:46Z</time>
      </trkpt>
      <trkpt lat="42.6426840" lon="-7.1215230">
        <ele>870.7</ele>
        <time>2014-10-02T12:09:47Z</time>
      </trkpt>
      <trkpt lat="42.6426550" lon="-7.1217140">
        <ele>868.7</ele>
        <time>2014-10-02T12:09:48Z</time>
      </trkpt>
      <trkpt lat="42.6426240" lon="-7.1219130">
        <ele>866.9</ele>
        <time>2014-10-02T12:09:49Z</time>
      </trkpt>
      <trkpt lat="42.6425910" lon="-7.1221040">
        <ele>864.9</ele>
        <time>2014-10-02T12:09:50Z</time>
      </trkpt>
      <trkpt lat="42.6425970" lon="-7.1222640">
        <ele>863.4</ele>
        <time>2014-10-02T12:09:51Z</time>
      </trkpt>
      <trkpt lat="42.6426060" lon="-7.1224360">
        <ele>862.0</ele>
        <time>2014-10-02T12:09:52Z</time>
      </trkpt>
      <trkpt lat="42.6426400" lon="-7.1226320">
        <ele>860.2</ele>
        <time>2014-10-02T12:09:53Z</time>
      </trkpt>
      <trkpt lat="42.6426800" lon="-7.1228230">
        <ele>858.3</ele>
        <time>2014-10-02T12:09:54Z</time>
      </trkpt>
      <trkpt lat="42.6427240" lon="-7.1230140">
        <ele>856.5</ele>
        <time>2014-10-02T12:09:55Z</time>
      </trkpt>
      <trkpt lat="42.6427670" lon="-7.1231990">
        <ele>854.8</ele>
        <time>2014-10-02T12:09:56Z</time>
      </trkpt>
      <trkpt lat="42.6428170" lon="-7.1233960">
        <ele>852.8</ele>
        <time>2014-10-02T12:09:57Z</time>
      </trkpt>
      <trkpt lat="42.6428780" lon="-7.1235960">
        <ele>850.8</ele>
        <time>2014-10-02T12:09:58Z</time>
      </trkpt>
      <trkpt lat="42.6429390" lon="-7.1237810">
        <ele>848.9</ele>
        <time>2014-10-02T12:09:59Z</time>
      </trkpt>
      <trkpt lat="42.6430030" lon="-7.1239490">
        <ele>847.1</ele>
        <time>2014-10-02T12:10:00Z</time>
      </trkpt>
      <trkpt lat="42.6430630" lon="-7.1241070">
        <ele>845.6</ele>
        <time>2014-10-02T12:10:01Z</time>
      </trkpt>
      <trkpt lat="42.6431100" lon="-7.1242660">
        <ele>844.2</ele>
        <time>2014-10-02T12:10:02Z</time>
      </trkpt>
      <trkpt lat="42.6431020" lon="-7.1244500">
        <ele>842.6</ele>
        <time>2014-10-02T12:10:03Z</time>
      </trkpt>
      <trkpt lat="42.6430580" lon="-7.1246460">
        <ele>841.1</ele>
        <time>2014-10-02T12:10:04Z</time>
      </trkpt>
      <trkpt lat="42.6429990" lon="-7.1248490">
        <ele>839.5</ele>
        <time>2014-10-02T12:10:05Z</time>
      </trkpt>
      <trkpt lat="42.6428940" lon="-7.1250210">
        <ele>837.8</ele>
        <time>2014-10-02T12:10:06Z</time>
      </trkpt>
      <trkpt lat="42.6427750" lon="-7.1251860">
        <ele>836.2</ele>
        <time>2014-10-02T12:10:07Z</time>
      </trkpt>
      <trkpt lat="42.6426270" lon="-7.1253200">
        <ele>834.5</ele>
        <time>2014-10-02T12:10:08Z</time>
      </trkpt>
      <trkpt lat="42.6424900" lon="-7.1254340">
        <ele>833.0</ele>
        <time>2014-10-02T12:10:09Z</time>
      </trkpt>
      <trkpt lat="42.6423480" lon="-7.1255410">
        <ele>831.5</ele>
        <time>2014-10-02T12:10:10Z</time>
      </trkpt>
      <trkpt lat="42.6422030" lon="-7.1256360">
        <ele>830.0</ele>
        <time>2014-10-02T12:10:11Z</time>
      </trkpt>
      <trkpt lat="42.6420420" lon="-7.1256950">
        <ele>828.3</ele>
        <time>2014-10-02T12:10:12Z</time>
      </trkpt>
      <trkpt lat="42.6418850" lon="-7.1257440">
        <ele>826.6</ele>
        <time>2014-10-02T12:10:13Z</time>
      </trkpt>
      <trkpt lat="42.6417280" lon="-7.1257860">
        <ele>824.9</ele>
        <time>2014-10-02T12:10:14Z</time>
      </trkpt>
      <trkpt lat="42.6415680" lon="-7.1258170">
        <ele>823.3</ele>
        <time>2014-10-02T12:10:15Z</time>
      </trkpt>
      <trkpt lat="42.6414090" lon="-7.1258410">
        <ele>821.8</ele>
        <time>2014-10-02T12:10:16Z</time>
      </trkpt>
      <trkpt lat="42.6412470" lon="-7.1258630">
        <ele>820.2</ele>
        <time>2014-10-02T12:10:17Z</time>
      </trkpt>
      <trkpt lat="42.6410900" lon="-7.1258850">
        <ele>818.6</ele>
        <time>2014-10-02T12:10:18Z</time>
      </trkpt>
      <trkpt lat="42.6409480" lon="-7.1258990">
        <ele>816.9</ele>
        <time>2014-10-02T12:10:19Z</time>
      </trkpt>
      <trkpt lat="42.6408080" lon="-7.1259150">
        <ele>815.1</ele>
        <time>2014-10-02T12:10:20Z</time>
      </trkpt>
      <trkpt lat="42.6406630" lon="-7.1259340">
        <ele>813.1</ele>
        <time>2014-10-02T12:10:21Z</time>
      </trkpt>
      <trkpt lat="42.6405370" lon="-7.1259540">
        <ele>811.3</ele>
        <time>2014-10-02T12:10:22Z</time>
      </trkpt>
      <trkpt lat="42.6404180" lon="-7.1259790">
        <ele>809.7</ele>
        <time>2014-10-02T12:10:23Z</time>
      </trkpt>
      <trkpt lat="42.6403170" lon="-7.1260050">
        <ele>808.7</ele>
        <time>2014-10-02T12:10:24Z</time>
      </trkpt>
      <trkpt lat="42.6402350" lon="-7.1260740">
        <ele>807.9</ele>
        <time>2014-10-02T12:10:25Z</time>
      </trkpt>
      <trkpt lat="42.6401770" lon="-7.1261660">
        <ele>807.1</ele>
        <time>2014-10-02T12:10:26Z</time>
      </trkpt>
      <trkpt lat="42.6401410" lon="-7.1262650">
        <ele>806.5</ele>
        <time>2014-10-02T12:10:27Z</time>
      </trkpt>
      <trkpt lat="42.6401080" lon="-7.1263580">
        <ele>805.8</ele>
        <time>2014-10-02T12:10:28Z</time>
      </trkpt>
      <trkpt lat="42.6400980" lon="-7.1264490">
        <ele>805.1</ele>
        <time>2014-10-02T12:10:29Z</time>
      </trkpt>
      <trkpt lat="42.6401090" lon="-7.1265350">
        <ele>804.4</ele>
        <time>2014-10-02T12:10:30Z</time>
      </trkpt>
      <trkpt lat="42.6401210" lon="-7.1266090">
        <ele>803.7</ele>
        <time>2014-10-02T12:10:31Z</time>
      </trkpt>
      <trkpt lat="42.6401490" lon="-7.1267030">
        <ele>802.8</ele>
        <time>2014-10-02T12:10:32Z</time>
      </trkpt>
      <trkpt lat="42.6402010" lon="-7.1268040">
        <ele>801.6</ele>
        <time>2014-10-02T12:10:33Z</time>
      </trkpt>
      <trkpt lat="42.6402470" lon="-7.1269090">
        <ele>800.5</ele>
        <time>2014-10-02T12:10:34Z</time>
      </trkpt>
      <trkpt lat="42.6403090" lon="-7.1270530">
        <ele>799.1</ele>
        <time>2014-10-02T12:10:35Z</time>
      </trkpt>
      <trkpt lat="42.6403900" lon="-7.1272180">
        <ele>797.5</ele>
        <time>2014-10-02T12:10:36Z</time>
      </trkpt>
      <trkpt lat="42.6404320" lon="-7.1273640">
        <ele>796.3</ele>
        <time>2014-10-02T12:10:37Z</time>
      </trkpt>
      <trkpt lat="42.6404630" lon="-7.1275260">
        <ele>795.0</ele>
        <time>2014-10-02T12:10:38Z</time>
      </trkpt>
      <trkpt lat="42.6404970" lon="-7.1276910">
        <ele>793.6</ele>
        <time>2014-10-02T12:10:39Z</time>
      </trkpt>
      <trkpt lat="42.6405300" lon="-7.1278450">
        <ele>792.3</ele>
        <time>2014-10-02T12:10:40Z</time>
      </trkpt>
      <trkpt lat="42.6405600" lon="-7.1280050">
        <ele>790.8</ele>
        <time>2014-10-02T12:10:41Z</time>
      </trkpt>
      <trkpt lat="42.6405920" lon="-7.1281710">
        <ele>789.4</ele>
        <time>2014-10-02T12:10:42Z</time>
      </trkpt>
      <trkpt lat="42.6406260" lon="-7.1283560">
        <ele>787.8</ele>
        <time>2014-10-02T12:10:43Z</time>
      </trkpt>
      <trkpt lat="42.6406590" lon="-7.1285510">
        <ele>786.3</ele>
        <time>2014-10-02T12:10:44Z</time>
      </trkpt>
      <trkpt lat="42.6407230" lon="-7.1287160">
        <ele>784.7</ele>
        <time>2014-10-02T12:10:45Z</time>
      </trkpt>
      <trkpt lat="42.6407810" lon="-7.1288880">
        <ele>783.0</ele>
        <time>2014-10-02T12:10:46Z</time>
      </trkpt>
      <trkpt lat="42.6408400" lon="-7.1290720">
        <ele>781.1</ele>
        <time>2014-10-02T12:10:47Z</time>
      </trkpt>
      <trkpt lat="42.6408970" lon="-7.1292600">
        <ele>779.3</ele>
        <time>2014-10-02T12:10:48Z</time>
      </trkpt>
      <trkpt lat="42.6409420" lon="-7.1294650">
        <ele>777.3</ele>
        <time>2014-10-02T12:10:49Z</time>
      </trkpt>
      <trkpt lat="42.6409350" lon="-7.1296890">
        <ele>775.2</ele>
        <time>2014-10-02T12:10:50Z</time>
      </trkpt>
      <trkpt lat="42.6408840" lon="-7.1299340">
        <ele>773.7</ele>
        <time>2014-10-02T12:10:51Z</time>
      </trkpt>
      <trkpt lat="42.6408220" lon="-7.1301670">
        <ele>771.9</ele>
        <time>2014-10-02T12:10:52Z</time>
      </trkpt>
      <trkpt lat="42.6407350" lon="-7.1303640">
        <ele>770.3</ele>
        <time>2014-10-02T12:10:53Z</time>
      </trkpt>
      <trkpt lat="42.6406490" lon="-7.1305420">
        <ele>768.6</ele>
        <time>2014-10-02T12:10:54Z</time>
      </trkpt>
      <trkpt lat="42.6405540" lon="-7.1307100">
        <ele>767.0</ele>
        <time>2014-10-02T12:10:55Z</time>
      </trkpt>
      <trkpt lat="42.6404650" lon="-7.1308630">
        <ele>765.6</ele>
        <time>2014-10-02T12:10:56Z</time>
      </trkpt>
      <trkpt lat="42.6403740" lon="-7.1310250">
        <ele>764.0</ele>
        <time>2014-10-02T12:10:57Z</time>
      </trkpt>
      <trkpt lat="42.6402790" lon="-7.1311890">
        <ele>762.5</ele>
        <time>2014-10-02T12:10:58Z</time>
      </trkpt>
      <trkpt lat="42.6401960" lon="-7.1313470">
        <ele>761.3</ele>
        <time>2014-10-02T12:10:59Z</time>
      </trkpt>
      <trkpt lat="42.6401110" lon="-7.1315220">
        <ele>760.0</ele>
        <time>2014-10-02T12:11:00Z</time>
      </trkpt>
      <trkpt lat="42.6400360" lon="-7.1316940">
        <ele>758.7</ele>
        <time>2014-10-02T12:11:01Z</time>
      </trkpt>
      <trkpt lat="42.6399520" lon="-7.1318790">
        <ele>757.3</ele>
        <time>2014-10-02T12:11:02Z</time>
      </trkpt>
      <trkpt lat="42.6398640" lon="-7.1320590">
        <ele>755.9</ele>
        <time>2014-10-02T12:11:03Z</time>
      </trkpt>
      <trkpt lat="42.6397670" lon="-7.1322420">
        <ele>754.3</ele>
        <time>2014-10-02T12:11:04Z</time>
      </trkpt>
      <trkpt lat="42.6396640" lon="-7.1324180">
        <ele>752.8</ele>
        <time>2014-10-02T12:11:05Z</time>
      </trkpt>
      <trkpt lat="42.6395570" lon="-7.1325860">
        <ele>751.3</ele>
        <time>2014-10-02T12:11:06Z</time>
      </trkpt>
      <trkpt lat="42.6394540" lon="-7.1327440">
        <ele>749.8</ele>
        <time>2014-10-02T12:11:07Z</time>
      </trkpt>
      <trkpt lat="42.6393560" lon="-7.1328390">
        <ele>748.4</ele>
        <time>2014-10-02T12:11:08Z</time>
      </trkpt>
      <trkpt lat="42.6392770" lon="-7.1329260">
        <ele>747.3</ele>
        <time>2014-10-02T12:11:09Z</time>
      </trkpt>
      <trkpt lat="42.6392090" lon="-7.1330100">
        <ele>746.3</ele>
        <time>2014-10-02T12:11:10Z</time>
      </trkpt>
      <trkpt lat="42.6391820" lon="-7.1331000">
        <ele>745.5</ele>
        <time>2014-10-02T12:11:11Z</time>
      </trkpt>
      <trkpt lat="42.6392050" lon="-7.1331820">
        <ele>744.7</ele>
        <time>2014-10-02T12:11:12Z</time>
      </trkpt>
      <trkpt lat="42.6392230" lon="-7.1332340">
        <ele>744.2</ele>
        <time>2014-10-02T12:11:13Z</time>
      </trkpt>
      <trkpt lat="42.6392420" lon="-7.1332700">
        <ele>743.9</ele>
        <time>2014-10-02T12:11:14Z</time>
      </trkpt>
      <trkpt lat="42.6392890" lon="-7.1333130">
        <ele>743.4</ele>
        <time>2014-10-02T12:11:15Z</time>
      </trkpt>
      <trkpt lat="42.6393560" lon="-7.1333360">
        <ele>742.9</ele>
        <time>2014-10-02T12:11:16Z</time>
      </trkpt>
      <trkpt lat="42.6394220" lon="-7.1333210">
        <ele>742.5</ele>
        <time>2014-10-02T12:11:17Z</time>
      </trkpt>
      <trkpt lat="42.6395050" lon="-7.1332320">
        <ele>741.5</ele>
        <time>2014-10-02T12:11:18Z</time>
      </trkpt>
      <trkpt lat="42.6395930" lon="-7.1331290">
        <ele>740.3</ele>
        <time>2014-10-02T12:11:19Z</time>
      </trkpt>
      <trkpt lat="42.6397130" lon="-7.1329110">
        <ele>738.5</ele>
        <time>2014-10-02T12:11:20Z</time>
      </trkpt>
      <trkpt lat="42.6398220" lon="-7.1327280">
        <ele>737.0</ele>
        <time>2014-10-02T12:11:21Z</time>
      </trkpt>
      <trkpt lat="42.6399210" lon="-7.1325680">
        <ele>735.7</ele>
        <time>2014-10-02T12:11:22Z</time>
      </trkpt>
      <trkpt lat="42.6400120" lon="-7.1324210">
        <ele>734.6</ele>
        <time>2014-10-02T12:11:23Z</time>
      </trkpt>
      <trkpt lat="42.6401040" lon="-7.1322810">
        <ele>733.6</ele>
        <time>2014-10-02T12:11:24Z</time>
      </trkpt>
      <trkpt lat="42.6401940" lon="-7.1321390">
        <ele>732.9</ele>
        <time>2014-10-02T12:11:25Z</time>
      </trkpt>
      <trkpt lat="42.6402900" lon="-7.1320190">
        <ele>732.1</ele>
        <time>2014-10-02T12:11:26Z</time>
      </trkpt>
      <trkpt lat="42.6403750" lon="-7.1318970">
        <ele>731.4</ele>
        <time>2014-10-02T12:11:27Z</time>
      </trkpt>
      <trkpt lat="42.6404540" lon="-7.1317850">
        <ele>730.8</ele>
        <time>2014-10-02T12:11:28Z</time>
      </trkpt>
      <trkpt lat="42.6405330" lon="-7.1316690">
        <ele>730.1</ele>
        <time>2014-10-02T12:11:29Z</time>
      </trkpt>
      <trkpt lat="42.6406310" lon="-7.1315230">
        <ele>729.0</ele>
        <time>2014-10-02T12:11:30Z</time>
      </trkpt>
      <trkpt lat="42.6407290" lon="-7.1314030">
        <ele>728.3</ele>
        <time>2014-10-02T12:11:31Z</time>
      </trkpt>
      <trkpt lat="42.6408180" lon="-7.1313050">
        <ele>727.9</ele>
        <time>2014-10-02T12:11:32Z</time>
      </trkpt>
      <trkpt lat="42.6409260" lon="-7.1312540">
        <ele>727.4</ele>
        <time>2014-10-02T12:11:33Z</time>
      </trkpt>
      <trkpt lat="42.6410230" lon="-7.1312100">
        <ele>727.0</ele>
        <time>2014-10-02T12:11:34Z</time>
      </trkpt>
      <trkpt lat="42.6411210" lon="-7.1311770">
        <ele>726.6</ele>
        <time>2014-10-02T12:11:35Z</time>
      </trkpt>
      <trkpt lat="42.6412450" lon="-7.1311670">
        <ele>726.0</ele>
        <time>2014-10-02T12:11:36Z</time>
      </trkpt>
      <trkpt lat="42.6413780" lon="-7.1311560">
        <ele>725.0</ele>
        <time>2014-10-02T12:11:37Z</time>
      </trkpt>
      <trkpt lat="42.6414990" lon="-7.1311430">
        <ele>724.0</ele>
        <time>2014-10-02T12:11:38Z</time>
      </trkpt>
      <trkpt lat="42.6416180" lon="-7.1311260">
        <ele>722.8</ele>
        <time>2014-10-02T12:11:39Z</time>
      </trkpt>
      <trkpt lat="42.6417410" lon="-7.1311000">
        <ele>721.6</ele>
        <time>2014-10-02T12:11:40Z</time>
      </trkpt>
      <trkpt lat="42.6418580" lon="-7.1310280">
        <ele>720.0</ele>
        <time>2014-10-02T12:11:41Z</time>
      </trkpt>
      <trkpt lat="42.6419600" lon="-7.1309120">
        <ele>718.3</ele>
        <time>2014-10-02T12:11:42Z</time>
      </trkpt>
      <trkpt lat="42.6420470" lon="-7.1307880">
        <ele>716.8</ele>
        <time>2014-10-02T12:11:43Z</time>
      </trkpt>
      <trkpt lat="42.6421040" lon="-7.1306620">
        <ele>715.6</ele>
        <time>2014-10-02T12:11:44Z</time>
      </trkpt>
      <trkpt lat="42.6421700" lon="-7.1305630">
        <ele>714.6</ele>
        <time>2014-10-02T12:11:45Z</time>
      </trkpt>
      <trkpt lat="42.6422400" lon="-7.1304950">
        <ele>713.7</ele>
        <time>2014-10-02T12:11:46Z</time>
      </trkpt>
      <trkpt lat="42.6423020" lon="-7.1305070">
        <ele>713.1</ele>
        <time>2014-10-02T12:11:47Z</time>
      </trkpt>
      <trkpt lat="42.6423480" lon="-7.1305680">
        <ele>712.5</ele>
        <time>2014-10-02T12:11:48Z</time>
      </trkpt>
      <trkpt lat="42.6423530" lon="-7.1306600">
        <ele>711.9</ele>
        <time>2014-10-02T12:11:49Z</time>
      </trkpt>
      <trkpt lat="42.6423170" lon="-7.1307570">
        <ele>711.1</ele>
        <time>2014-10-02T12:11:50Z</time>
      </trkpt>
      <trkpt lat="42.6422660" lon="-7.1308430">
        <ele>710.2</ele>
        <time>2014-10-02T12:11:51Z</time>
      </trkpt>
      <trkpt lat="42.6421950" lon="-7.1309400">
        <ele>709.1</ele>
        <time>2014-10-02T12:11:52Z</time>
      </trkpt>
      <trkpt lat="42.6421210" lon="-7.1310460">
        <ele>707.9</ele>
        <time>2014-10-02T12:11:53Z</time>
      </trkpt>
      <trkpt lat="42.6420400" lon="-7.1311650">
        <ele>706.7</ele>
        <time>2014-10-02T12:11:54Z</time>
      </trkpt>
      <trkpt lat="42.6419540" lon="-7.1312970">
        <ele>705.0</ele>
        <time>2014-10-02T12:11:55Z</time>
      </trkpt>
      <trkpt lat="42.6418630" lon="-7.1314400">
        <ele>703.2</ele>
        <time>2014-10-02T12:11:56Z</time>
      </trkpt>
      <trkpt lat="42.6417700" lon="-7.1315770">
        <ele>701.4</ele>
        <time>2014-10-02T12:11:57Z</time>
      </trkpt>
      <trkpt lat="42.6416690" lon="-7.1317060">
        <ele>699.5</ele>
        <time>2014-10-02T12:11:58Z</time>
      </trkpt>
      <trkpt lat="42.6415550" lon="-7.1318270">
        <ele>697.4</ele>
        <time>2014-10-02T12:11:59Z</time>
      </trkpt>
      <trkpt lat="42.6414180" lon="-7.1319140">
        <ele>695.2</ele>
        <time>2014-10-02T12:12:00Z</time>
      </trkpt>
      <trkpt lat="42.6412780" lon="-7.1320010">
        <ele>693.2</ele>
        <time>2014-10-02T12:12:01Z</time>
      </trkpt>
      <trkpt lat="42.6411310" lon="-7.1320800">
        <ele>691.4</ele>
        <time>2014-10-02T12:12:02Z</time>
      </trkpt>
      <trkpt lat="42.6409900" lon="-7.1321580">
        <ele>689.9</ele>
        <time>2014-10-02T12:12:03Z</time>
      </trkpt>
      <trkpt lat="42.6408700" lon="-7.1322410">
        <ele>688.5</ele>
        <time>2014-10-02T12:12:04Z</time>
      </trkpt>
      <trkpt lat="42.6407920" lon="-7.1323870">
        <ele>687.1</ele>
        <time>2014-10-02T12:12:05Z</time>
      </trkpt>
      <trkpt lat="42.6407220" lon="-7.1325410">
        <ele>685.8</ele>
        <time>2014-10-02T12:12:06Z</time>
      </trkpt>
      <trkpt lat="42.6406620" lon="-7.1327090">
        <ele>684.2</ele>
        <time>2014-10-02T12:12:07Z</time>
      </trkpt>
      <trkpt lat="42.6406090" lon="-7.1328910">
        <ele>682.5</ele>
        <time>2014-10-02T12:12:08Z</time>
      </trkpt>
      <trkpt lat="42.6405690" lon="-7.1330680">
        <ele>680.9</ele>
        <time>2014-10-02T12:12:09Z</time>
      </trkpt>
      <trkpt lat="42.6405280" lon="-7.1332480">
        <ele>679.1</ele>
        <time>2014-10-02T12:12:10Z</time>
      </trkpt>
      <trkpt lat="42.6404830" lon="-7.1334330">
        <ele>677.2</ele>
        <time>2014-10-02T12:12:11Z</time>
      </trkpt>
      <trkpt lat="42.6404260" lon="-7.1336290">
        <ele>675.0</ele>
        <time>2014-10-02T12:12:12Z</time>
      </trkpt>
      <trkpt lat="42.6403650" lon="-7.1338340">
        <ele>672.8</ele>
        <time>2014-10-02T12:12:13Z</time>
      </trkpt>
      <trkpt lat="42.6403040" lon="-7.1340390">
        <ele>670.5</ele>
        <time>2014-10-02T12:12:14Z</time>
      </trkpt>
      <trkpt lat="42.6402450" lon="-7.1342510">
        <ele>668.4</ele>
        <time>2014-10-02T12:12:15Z</time>
      </trkpt>
      <trkpt lat="42.6401890" lon="-7.1344700">
        <ele>666.3</ele>
        <time>2014-10-02T12:12:16Z</time>
      </trkpt>
      <trkpt lat="42.6401450" lon="-7.1346950">
        <ele>664.3</ele>
        <time>2014-10-02T12:12:17Z</time>
      </trkpt>
      <trkpt lat="42.6401070" lon="-7.1349180">
        <ele>662.4</ele>
        <time>2014-10-02T12:12:18Z</time>
      </trkpt>
      <trkpt lat="42.6400760" lon="-7.1351030">
        <ele>661.0</ele>
        <time>2014-10-02T12:12:19Z</time>
      </trkpt>
      <trkpt lat="42.6400480" lon="-7.1352930">
        <ele>659.6</ele>
        <time>2014-10-02T12:12:20Z</time>
      </trkpt>
      <trkpt lat="42.6400250" lon="-7.1354550">
        <ele>658.5</ele>
        <time>2014-10-02T12:12:21Z</time>
      </trkpt>
      <trkpt lat="42.6399960" lon="-7.1356050">
        <ele>657.3</ele>
        <time>2014-10-02T12:12:22Z</time>
      </trkpt>
      <trkpt lat="42.6399180" lon="-7.1357220">
        <ele>655.9</ele>
        <time>2014-10-02T12:12:23Z</time>
      </trkpt>
      <trkpt lat="42.6398390" lon="-7.1358320">
        <ele>654.4</ele>
        <time>2014-10-02T12:12:24Z</time>
      </trkpt>
      <trkpt lat="42.6397610" lon="-7.1359240">
        <ele>653.1</ele>
        <time>2014-10-02T12:12:25Z</time>
      </trkpt>
      <trkpt lat="42.6396890" lon="-7.1360240">
        <ele>651.8</ele>
        <time>2014-10-02T12:12:26Z</time>
      </trkpt>
      <trkpt lat="42.6396630" lon="-7.1361180">
        <ele>648.6</ele>
        <time>2014-10-02T12:12:27Z</time>
      </trkpt>
      <trkpt lat="42.6396790" lon="-7.1361840">
        <ele>648.0</ele>
        <time>2014-10-02T12:12:28Z</time>
      </trkpt>
      <trkpt lat="42.6397680" lon="-7.1362020">
        <ele>647.0</ele>
        <time>2014-10-02T12:12:31Z</time>
      </trkpt>
      <trkpt lat="42.6398100" lon="-7.1361910">
        <ele>646.5</ele>
        <time>2014-10-02T12:12:32Z</time>
      </trkpt>
      <trkpt lat="42.6399130" lon="-7.1361360">
        <ele>645.3</ele>
        <time>2014-10-02T12:12:33Z</time>
      </trkpt>
      <trkpt lat="42.6400140" lon="-7.1360450">
        <ele>643.9</ele>
        <time>2014-10-02T12:12:34Z</time>
      </trkpt>
      <trkpt lat="42.6401160" lon="-7.1359040">
        <ele>642.3</ele>
        <time>2014-10-02T12:12:35Z</time>
      </trkpt>
      <trkpt lat="42.6401830" lon="-7.1357470">
        <ele>640.7</ele>
        <time>2014-10-02T12:12:36Z</time>
      </trkpt>
      <trkpt lat="42.6402530" lon="-7.1355800">
        <ele>639.0</ele>
        <time>2014-10-02T12:12:37Z</time>
      </trkpt>
      <trkpt lat="42.6403230" lon="-7.1353820">
        <ele>637.6</ele>
        <time>2014-10-02T12:12:38Z</time>
      </trkpt>
      <trkpt lat="42.6404010" lon="-7.1351860">
        <ele>636.2</ele>
        <time>2014-10-02T12:12:39Z</time>
      </trkpt>
      <trkpt lat="42.6404930" lon="-7.1349850">
        <ele>635.0</ele>
        <time>2014-10-02T12:12:40Z</time>
      </trkpt>
      <trkpt lat="42.6405790" lon="-7.1347930">
        <ele>633.6</ele>
        <time>2014-10-02T12:12:41Z</time>
      </trkpt>
      <trkpt lat="42.6406570" lon="-7.1346180">
        <ele>632.1</ele>
        <time>2014-10-02T12:12:42Z</time>
      </trkpt>
      <trkpt lat="42.6407340" lon="-7.1344530">
        <ele>630.7</ele>
        <time>2014-10-02T12:12:43Z</time>
      </trkpt>
      <trkpt lat="42.6408150" lon="-7.1342880">
        <ele>629.3</ele>
        <time>2014-10-02T12:12:44Z</time>
      </trkpt>
      <trkpt lat="42.6408960" lon="-7.1341280">
        <ele>628.1</ele>
        <time>2014-10-02T12:12:45Z</time>
      </trkpt>
      <trkpt lat="42.6409630" lon="-7.1339840">
        <ele>627.1</ele>
        <time>2014-10-02T12:12:46Z</time>
      </trkpt>
      <trkpt lat="42.6410300" lon="-7.1338590">
        <ele>625.9</ele>
        <time>2014-10-02T12:12:47Z</time>
      </trkpt>
      <trkpt lat="42.6410990" lon="-7.1337300">
        <ele>624.4</ele>
        <time>2014-10-02T12:12:48Z</time>
      </trkpt>
      <trkpt lat="42.6411680" lon="-7.1337170">
        <ele>623.7</ele>
        <time>2014-10-02T12:12:49Z</time>
      </trkpt>
      <trkpt lat="42.6412410" lon="-7.1337100">
        <ele>623.1</ele>
        <time>2014-10-02T12:12:50Z</time>
      </trkpt>
      <trkpt lat="42.6413480" lon="-7.1337180">
        <ele>622.2</ele>
        <time>2014-10-02T12:12:51Z</time>
      </trkpt>
      <trkpt lat="42.6414620" lon="-7.1337410">
        <ele>621.0</ele>
        <time>2014-10-02T12:12:52Z</time>
      </trkpt>
      <trkpt lat="42.6416110" lon="-7.1337560">
        <ele>619.3</ele>
        <time>2014-10-02T12:12:53Z</time>
      </trkpt>
      <trkpt lat="42.6417550" lon="-7.1337790">
        <ele>617.6</ele>
        <time>2014-10-02T12:12:54Z</time>
      </trkpt>
      <trkpt lat="42.6418980" lon="-7.1338050">
        <ele>616.0</ele>
        <time>2014-10-02T12:12:55Z</time>
      </trkpt>
      <trkpt lat="42.6420430" lon="-7.1338420">
        <ele>614.4</ele>
        <time>2014-10-02T12:12:56Z</time>
      </trkpt>
      <trkpt lat="42.6421710" lon="-7.1339010">
        <ele>612.9</ele>
        <time>2014-10-02T12:12:57Z</time>
      </trkpt>
      <trkpt lat="42.6423050" lon="-7.1339790">
        <ele>611.3</ele>
        <time>2014-10-02T12:12:58Z</time>
      </trkpt>
      <trkpt lat="42.6424090" lon="-7.1340920">
        <ele>609.8</ele>
        <time>2014-10-02T12:12:59Z</time>
      </trkpt>
      <trkpt lat="42.6425020" lon="-7.1342390">
        <ele>608.2</ele>
        <time>2014-10-02T12:13:00Z</time>
      </trkpt>
      <trkpt lat="42.6425270" lon="-7.1344100">
        <ele>606.6</ele>
        <time>2014-10-02T12:13:01Z</time>
      </trkpt>
      <trkpt lat="42.6425660" lon="-7.1346020">
        <ele>604.8</ele>
        <time>2014-10-02T12:13:02Z</time>
      </trkpt>
      <trkpt lat="42.6426090" lon="-7.1347970">
        <ele>603.2</ele>
        <time>2014-10-02T12:13:03Z</time>
      </trkpt>
      <trkpt lat="42.6426520" lon="-7.1349860">
        <ele>601.6</ele>
        <time>2014-10-02T12:13:04Z</time>
      </trkpt>
      <trkpt lat="42.6426740" lon="-7.1351700">
        <ele>599.8</ele>
        <time>2014-10-02T12:13:05Z</time>
      </trkpt>
      <trkpt lat="42.6426890" lon="-7.1353590">
        <ele>597.7</ele>
        <time>2014-10-02T12:13:06Z</time>
      </trkpt>
      <trkpt lat="42.6426580" lon="-7.1355480">
        <ele>595.6</ele>
        <time>2014-10-02T12:13:07Z</time>
      </trkpt>
      <trkpt lat="42.6426330" lon="-7.1357460">
        <ele>594.2</ele>
        <time>2014-10-02T12:13:08Z</time>
      </trkpt>
      <trkpt lat="42.6426300" lon="-7.1359300">
        <ele>593.3</ele>
        <time>2014-10-02T12:13:09Z</time>
      </trkpt>
      <trkpt lat="42.6426290" lon="-7.1361100">
        <ele>594.0</ele>
        <time>2014-10-02T12:13:10Z</time>
      </trkpt>
      <trkpt lat="42.6426390" lon="-7.1363090">
        <ele>595.1</ele>
        <time>2014-10-02T12:13:11Z</time>
      </trkpt>
      <trkpt lat="42.6426380" lon="-7.1364970">
        <ele>596.1</ele>
        <time>2014-10-02T12:13:12Z</time>
      </trkpt>
      <trkpt lat="42.6426080" lon="-7.1366720">
        <ele>599.1</ele>
        <time>2014-10-02T12:13:13Z</time>
      </trkpt>
      <trkpt lat="42.6425770" lon="-7.1368340">
        <ele>602.5</ele>
        <time>2014-10-02T12:13:14Z</time>
      </trkpt>
      <trkpt lat="42.6425440" lon="-7.1369840">
        <ele>605.2</ele>
        <time>2014-10-02T12:13:15Z</time>
      </trkpt>
      <trkpt lat="42.6425160" lon="-7.1371120">
        <ele>607.3</ele>
        <time>2014-10-02T12:13:16Z</time>
      </trkpt>
      <trkpt lat="42.6424910" lon="-7.1372420">
        <ele>609.5</ele>
        <time>2014-10-02T12:13:17Z</time>
      </trkpt>
      <trkpt lat="42.6424710" lon="-7.1373680">
        <ele>611.7</ele>
        <time>2014-10-02T12:13:18Z</time>
      </trkpt>
      <trkpt lat="42.6424540" lon="-7.1374840">
        <ele>613.8</ele>
        <time>2014-10-02T12:13:19Z</time>
      </trkpt>
      <trkpt lat="42.6424310" lon="-7.1375910">
        <ele>615.7</ele>
        <time>2014-10-02T12:13:20Z</time>
      </trkpt>
      <trkpt lat="42.6424040" lon="-7.1376870">
        <ele>617.5</ele>
        <time>2014-10-02T12:13:21Z</time>
      </trkpt>
      <trkpt lat="42.6423730" lon="-7.1377790">
        <ele>619.3</ele>
        <time>2014-10-02T12:13:22Z</time>
      </trkpt>
      <trkpt lat="42.6423440" lon="-7.1378650">
        <ele>620.9</ele>
        <time>2014-10-02T12:13:23Z</time>
      </trkpt>
      <trkpt lat="42.6423150" lon="-7.1379480">
        <ele>622.5</ele>
        <time>2014-10-02T12:13:24Z</time>
      </trkpt>
      <trkpt lat="42.6422870" lon="-7.1380270">
        <ele>624.1</ele>
        <time>2014-10-02T12:13:25Z</time>
      </trkpt>
      <trkpt lat="42.6422620" lon="-7.1381060">
        <ele>625.6</ele>
        <time>2014-10-02T12:13:26Z</time>
      </trkpt>
      <trkpt lat="42.6422370" lon="-7.1381780">
        <ele>627.0</ele>
        <time>2014-10-02T12:13:27Z</time>
      </trkpt>
      <trkpt lat="42.6422090" lon="-7.1382470">
        <ele>628.5</ele>
        <time>2014-10-02T12:13:28Z</time>
      </trkpt>
      <trkpt lat="42.6421810" lon="-7.1383060">
        <ele>629.7</ele>
        <time>2014-10-02T12:13:29Z</time>
      </trkpt>
      <trkpt lat="42.6421530" lon="-7.1383620">
        <ele>631.0</ele>
        <time>2014-10-02T12:13:30Z</time>
      </trkpt>
      <trkpt lat="42.6421300" lon="-7.1384050">
        <ele>631.9</ele>
        <time>2014-10-02T12:13:31Z</time>
      </trkpt>
      <trkpt lat="42.6421030" lon="-7.1384550">
        <ele>633.1</ele>
        <time>2014-10-02T12:13:32Z</time>
      </trkpt>
      <trkpt lat="42.6420740" lon="-7.1385040">
        <ele>634.3</ele>
        <time>2014-10-02T12:13:33Z</time>
      </trkpt>
      <trkpt lat="42.6420430" lon="-7.1385460">
        <ele>635.5</ele>
        <time>2014-10-02T12:13:34Z</time>
      </trkpt>
      <trkpt lat="42.6420120" lon="-7.1385640">
        <ele>636.4</ele>
        <time>2014-10-02T12:13:35Z</time>
      </trkpt>
      <trkpt lat="42.6419780" lon="-7.1385950">
        <ele>637.5</ele>
        <time>2014-10-02T12:13:36Z</time>
      </trkpt>
      <trkpt lat="42.6419450" lon="-7.1386260">
        <ele>638.7</ele>
        <time>2014-10-02T12:13:37Z</time>
      </trkpt>
      <trkpt lat="42.6419120" lon="-7.1386570">
        <ele>639.8</ele>
        <time>2014-10-02T12:13:38Z</time>
      </trkpt>
      <trkpt lat="42.6418830" lon="-7.1386790">
        <ele>640.6</ele>
        <time>2014-10-02T12:13:39Z</time>
      </trkpt>
      <trkpt lat="42.6418430" lon="-7.1386930">
        <ele>641.0</ele>
        <time>2014-10-02T12:13:41Z</time>
      </trkpt>
      <trkpt lat="42.6417920" lon="-7.1387110">
        <ele>641.6</ele>
        <time>2014-10-02T12:13:43Z</time>
      </trkpt>
      <trkpt lat="42.6417640" lon="-7.1387200">
        <ele>641.9</ele>
        <time>2014-10-02T12:13:44Z</time>
      </trkpt>
      <trkpt lat="42.6417140" lon="-7.1387180">
        <ele>642.4</ele>
        <time>2014-10-02T12:13:46Z</time>
      </trkpt>
      <trkpt lat="42.6416840" lon="-7.1387210">
        <ele>642.7</ele>
        <time>2014-10-02T12:13:47Z</time>
      </trkpt>
      <trkpt lat="42.6416330" lon="-7.1387280">
        <ele>643.2</ele>
        <time>2014-10-02T12:13:49Z</time>
      </trkpt>
      <trkpt lat="42.6415850" lon="-7.1387330">
        <ele>643.7</ele>
        <time>2014-10-02T12:13:51Z</time>
      </trkpt>
      <trkpt lat="42.6415350" lon="-7.1387400">
        <ele>644.2</ele>
        <time>2014-10-02T12:13:53Z</time>
      </trkpt>
      <trkpt lat="42.6414810" lon="-7.1387560">
        <ele>644.7</ele>
        <time>2014-10-02T12:13:55Z</time>
      </trkpt>
      <trkpt lat="42.6413980" lon="-7.1387830">
        <ele>645.5</ele>
        <time>2014-10-02T12:13:58Z</time>
      </trkpt>
      <trkpt lat="42.6413710" lon="-7.1387930">
        <ele>645.7</ele>
        <time>2014-10-02T12:13:59Z</time>
      </trkpt>
      <trkpt lat="42.6413240" lon="-7.1388100">
        <ele>646.1</ele>
        <time>2014-10-02T12:14:01Z</time>
      </trkpt>
      <trkpt lat="42.6412760" lon="-7.1388120">
        <ele>646.5</ele>
        <time>2014-10-02T12:14:03Z</time>
      </trkpt>
      <trkpt lat="42.6412000" lon="-7.1388240">
        <ele>647.0</ele>
        <time>2014-10-02T12:14:06Z</time>
      </trkpt>
      <trkpt lat="42.6411680" lon="-7.1388240">
        <ele>647.2</ele>
        <time>2014-10-02T12:14:07Z</time>
      </trkpt>
      <trkpt lat="42.6411310" lon="-7.1388240">
        <ele>647.4</ele>
        <time>2014-10-02T12:14:08Z</time>
      </trkpt>
      <trkpt lat="42.6411040" lon="-7.1388270">
        <ele>647.5</ele>
        <time>2014-10-02T12:14:09Z</time>
      </trkpt>
      <trkpt lat="42.6410750" lon="-7.1388330">
        <ele>647.6</ele>
        <time>2014-10-02T12:14:10Z</time>
      </trkpt>
      <trkpt lat="42.6410450" lon="-7.1388370">
        <ele>647.8</ele>
        <time>2014-10-02T12:14:11Z</time>
      </trkpt>
      <trkpt lat="42.6409950" lon="-7.1388520">
        <ele>648.0</ele>
        <time>2014-10-02T12:14:13Z</time>
      </trkpt>
      <trkpt lat="42.6409680" lon="-7.1388530">
        <ele>648.0</ele>
        <time>2014-10-02T12:14:14Z</time>
      </trkpt>
      <trkpt lat="42.6409370" lon="-7.1388610">
        <ele>648.1</ele>
        <time>2014-10-02T12:14:15Z</time>
      </trkpt>
      <trkpt lat="42.6408830" lon="-7.1388820">
        <ele>648.0</ele>
        <time>2014-10-02T12:14:17Z</time>
      </trkpt>
      <trkpt lat="42.6408570" lon="-7.1388940">
        <ele>647.9</ele>
        <time>2014-10-02T12:14:18Z</time>
      </trkpt>
      <trkpt lat="42.6408250" lon="-7.1389040">
        <ele>647.7</ele>
        <time>2014-10-02T12:14:19Z</time>
      </trkpt>
      <trkpt lat="42.6407930" lon="-7.1389140">
        <ele>647.4</ele>
        <time>2014-10-02T12:14:20Z</time>
      </trkpt>
      <trkpt lat="42.6407550" lon="-7.1389200">
        <ele>647.3</ele>
        <time>2014-10-02T12:14:21Z</time>
      </trkpt>
      <trkpt lat="42.6407190" lon="-7.1389350">
        <ele>647.2</ele>
        <time>2014-10-02T12:14:22Z</time>
      </trkpt>
      <trkpt lat="42.6406870" lon="-7.1389480">
        <ele>647.1</ele>
        <time>2014-10-02T12:14:23Z</time>
      </trkpt>
      <trkpt lat="42.6406570" lon="-7.1389630">
        <ele>647.2</ele>
        <time>2014-10-02T12:14:24Z</time>
      </trkpt>
      <trkpt lat="42.6406240" lon="-7.1389820">
        <ele>647.2</ele>
        <time>2014-10-02T12:14:25Z</time>
      </trkpt>
      <trkpt lat="42.6405920" lon="-7.1389990">
        <ele>647.3</ele>
        <time>2014-10-02T12:14:26Z</time>
      </trkpt>
      <trkpt lat="42.6405610" lon="-7.1390070">
        <ele>647.3</ele>
        <time>2014-10-02T12:14:27Z</time>
      </trkpt>
      <trkpt lat="42.6405200" lon="-7.1390210">
        <ele>647.4</ele>
        <time>2014-10-02T12:14:28Z</time>
      </trkpt>
      <trkpt lat="42.6404850" lon="-7.1390350">
        <ele>647.5</ele>
        <time>2014-10-02T12:14:29Z</time>
      </trkpt>
      <trkpt lat="42.6404480" lon="-7.1390510">
        <ele>647.6</ele>
        <time>2014-10-02T12:14:30Z</time>
      </trkpt>
      <trkpt lat="42.6404060" lon="-7.1390720">
        <ele>647.8</ele>
        <time>2014-10-02T12:14:31Z</time>
      </trkpt>
      <trkpt lat="42.6403700" lon="-7.1390930">
        <ele>647.9</ele>
        <time>2014-10-02T12:14:32Z</time>
      </trkpt>
      <trkpt lat="42.6403290" lon="-7.1391200">
        <ele>648.0</ele>
        <time>2014-10-02T12:14:33Z</time>
      </trkpt>
      <trkpt lat="42.6402960" lon="-7.1391430">
        <ele>648.2</ele>
        <time>2014-10-02T12:14:34Z</time>
      </trkpt>
      <trkpt lat="42.6402650" lon="-7.1391620">
        <ele>648.3</ele>
        <time>2014-10-02T12:14:35Z</time>
      </trkpt>
      <trkpt lat="42.6402320" lon="-7.1391780">
        <ele>648.4</ele>
        <time>2014-10-02T12:14:36Z</time>
      </trkpt>
      <trkpt lat="42.6401980" lon="-7.1392030">
        <ele>648.5</ele>
        <time>2014-10-02T12:14:37Z</time>
      </trkpt>
      <trkpt lat="42.6401690" lon="-7.1392210">
        <ele>648.6</ele>
        <time>2014-10-02T12:14:38Z</time>
      </trkpt>
      <trkpt lat="42.6401360" lon="-7.1392420">
        <ele>648.7</ele>
        <time>2014-10-02T12:14:39Z</time>
      </trkpt>
      <trkpt lat="42.6400990" lon="-7.1392610">
        <ele>648.8</ele>
        <time>2014-10-02T12:14:40Z</time>
      </trkpt>
      <trkpt lat="42.6400540" lon="-7.1392810">
        <ele>648.9</ele>
        <time>2014-10-02T12:14:41Z</time>
      </trkpt>
      <trkpt lat="42.6400120" lon="-7.1393110">
        <ele>649.0</ele>
        <time>2014-10-02T12:14:42Z</time>
      </trkpt>
      <trkpt lat="42.6399680" lon="-7.1393440">
        <ele>649.1</ele>
        <time>2014-10-02T12:14:43Z</time>
      </trkpt>
      <trkpt lat="42.6399230" lon="-7.1393770">
        <ele>649.2</ele>
        <time>2014-10-02T12:14:44Z</time>
      </trkpt>
      <trkpt lat="42.6398800" lon="-7.1394090">
        <ele>649.3</ele>
        <time>2014-10-02T12:14:45Z</time>
      </trkpt>
      <trkpt lat="42.6398350" lon="-7.1394380">
        <ele>649.3</ele>
        <time>2014-10-02T12:14:46Z</time>
      </trkpt>
      <trkpt lat="42.6397940" lon="-7.1394620">
        <ele>649.4</ele>
        <time>2014-10-02T12:14:47Z</time>
      </trkpt>
      <trkpt lat="42.6397550" lon="-7.1394850">
        <ele>649.5</ele>
        <time>2014-10-02T12:14:48Z</time>
      </trkpt>
      <trkpt lat="42.6397200" lon="-7.1395070">
        <ele>649.6</ele>
        <time>2014-10-02T12:14:49Z</time>
      </trkpt>
      <trkpt lat="42.6396800" lon="-7.1395350">
        <ele>649.7</ele>
        <time>2014-10-02T12:14:50Z</time>
      </trkpt>
      <trkpt lat="42.6396430" lon="-7.1395610">
        <ele>649.7</ele>
        <time>2014-10-02T12:14:51Z</time>
      </trkpt>
      <trkpt lat="42.6396060" lon="-7.1395850">
        <ele>649.8</ele>
        <time>2014-10-02T12:14:52Z</time>
      </trkpt>
      <trkpt lat="42.6395620" lon="-7.1396170">
        <ele>649.8</ele>
        <time>2014-10-02T12:14:53Z</time>
      </trkpt>
      <trkpt lat="42.6395170" lon="-7.1396510">
        <ele>649.8</ele>
        <time>2014-10-02T12:14:54Z</time>
      </trkpt>
      <trkpt lat="42.6394760" lon="-7.1396940">
        <ele>649.8</ele>
        <time>2014-10-02T12:14:55Z</time>
      </trkpt>
      <trkpt lat="42.6394360" lon="-7.1397410">
        <ele>649.8</ele>
        <time>2014-10-02T12:14:56Z</time>
      </trkpt>
      <trkpt lat="42.6394060" lon="-7.1397830">
        <ele>649.8</ele>
        <time>2014-10-02T12:14:57Z</time>
      </trkpt>
      <trkpt lat="42.6393770" lon="-7.1398330">
        <ele>649.8</ele>
        <time>2014-10-02T12:14:58Z</time>
      </trkpt>
      <trkpt lat="42.6393490" lon="-7.1398850">
        <ele>649.8</ele>
        <time>2014-10-02T12:14:59Z</time>
      </trkpt>
      <trkpt lat="42.6393230" lon="-7.1399370">
        <ele>649.9</ele>
        <time>2014-10-02T12:15:00Z</time>
      </trkpt>
      <trkpt lat="42.6392930" lon="-7.1399960">
        <ele>649.9</ele>
        <time>2014-10-02T12:15:01Z</time>
      </trkpt>
      <trkpt lat="42.6392660" lon="-7.1400530">
        <ele>650.0</ele>
        <time>2014-10-02T12:15:02Z</time>
      </trkpt>
      <trkpt lat="42.6392390" lon="-7.1401120">
        <ele>650.0</ele>
        <time>2014-10-02T12:15:03Z</time>
      </trkpt>
      <trkpt lat="42.6392140" lon="-7.1401680">
        <ele>650.0</ele>
        <time>2014-10-02T12:15:04Z</time>
      </trkpt>
      <trkpt lat="42.6391880" lon="-7.1402270">
        <ele>650.1</ele>
        <time>2014-10-02T12:15:05Z</time>
      </trkpt>
      <trkpt lat="42.6391660" lon="-7.1402840">
        <ele>650.1</ele>
        <time>2014-10-02T12:15:06Z</time>
      </trkpt>
      <trkpt lat="42.6391450" lon="-7.1403440">
        <ele>650.1</ele>
        <time>2014-10-02T12:15:07Z</time>
      </trkpt>
      <trkpt lat="42.6391250" lon="-7.1404090">
        <ele>650.2</ele>
        <time>2014-10-02T12:15:08Z</time>
      </trkpt>
      <trkpt lat="42.6391080" lon="-7.1404680">
        <ele>650.2</ele>
        <time>2014-10-02T12:15:09Z</time>
      </trkpt>
      <trkpt lat="42.6390940" lon="-7.1405290">
        <ele>650.3</ele>
        <time>2014-10-02T12:15:10Z</time>
      </trkpt>
      <trkpt lat="42.6390890" lon="-7.1405930">
        <ele>650.3</ele>
        <time>2014-10-02T12:15:11Z</time>
      </trkpt>
      <trkpt lat="42.6390850" lon="-7.1406510">
        <ele>650.3</ele>
        <time>2014-10-02T12:15:12Z</time>
      </trkpt>
      <trkpt lat="42.6390810" lon="-7.1407150">
        <ele>650.3</ele>
        <time>2014-10-02T12:15:13Z</time>
      </trkpt>
      <trkpt lat="42.6390770" lon="-7.1407830">
        <ele>650.2</ele>
        <time>2014-10-02T12:15:14Z</time>
      </trkpt>
      <trkpt lat="42.6390770" lon="-7.1408550">
        <ele>650.2</ele>
        <time>2014-10-02T12:15:15Z</time>
      </trkpt>
      <trkpt lat="42.6390760" lon="-7.1409200">
        <ele>650.3</ele>
        <time>2014-10-02T12:15:16Z</time>
      </trkpt>
      <trkpt lat="42.6390680" lon="-7.1410030">
        <ele>650.3</ele>
        <time>2014-10-02T12:15:17Z</time>
      </trkpt>
      <trkpt lat="42.6390570" lon="-7.1410840">
        <ele>650.3</ele>
        <time>2014-10-02T12:15:18Z</time>
      </trkpt>
      <trkpt lat="42.6390440" lon="-7.1411640">
        <ele>650.3</ele>
        <time>2014-10-02T12:15:19Z</time>
      </trkpt>
      <trkpt lat="42.6390290" lon="-7.1412400">
        <ele>650.3</ele>
        <time>2014-10-02T12:15:20Z</time>
      </trkpt>
      <trkpt lat="42.6390160" lon="-7.1413140">
        <ele>650.3</ele>
        <time>2014-10-02T12:15:21Z</time>
      </trkpt>
      <trkpt lat="42.6390030" lon="-7.1413860">
        <ele>650.3</ele>
        <time>2014-10-02T12:15:22Z</time>
      </trkpt>
      <trkpt lat="42.6389890" lon="-7.1414520">
        <ele>650.3</ele>
        <time>2014-10-02T12:15:23Z</time>
      </trkpt>
      <trkpt lat="42.6389730" lon="-7.1415180">
        <ele>650.3</ele>
        <time>2014-10-02T12:15:24Z</time>
      </trkpt>
      <trkpt lat="42.6389540" lon="-7.1415880">
        <ele>650.2</ele>
        <time>2014-10-02T12:15:25Z</time>
      </trkpt>
      <trkpt lat="42.6389340" lon="-7.1416580">
        <ele>650.1</ele>
        <time>2014-10-02T12:15:26Z</time>
      </trkpt>
      <trkpt lat="42.6389130" lon="-7.1417270">
        <ele>650.0</ele>
        <time>2014-10-02T12:15:27Z</time>
      </trkpt>
      <trkpt lat="42.6388940" lon="-7.1417950">
        <ele>649.9</ele>
        <time>2014-10-02T12:15:28Z</time>
      </trkpt>
      <trkpt lat="42.6388690" lon="-7.1418700">
        <ele>649.8</ele>
        <time>2014-10-02T12:15:29Z</time>
      </trkpt>
      <trkpt lat="42.6388430" lon="-7.1419390">
        <ele>649.6</ele>
        <time>2014-10-02T12:15:30Z</time>
      </trkpt>
      <trkpt lat="42.6388160" lon="-7.1420090">
        <ele>649.4</ele>
        <time>2014-10-02T12:15:31Z</time>
      </trkpt>
      <trkpt lat="42.6387870" lon="-7.1420760">
        <ele>649.1</ele>
        <time>2014-10-02T12:15:32Z</time>
      </trkpt>
      <trkpt lat="42.6387590" lon="-7.1421420">
        <ele>648.7</ele>
        <time>2014-10-02T12:15:33Z</time>
      </trkpt>
      <trkpt lat="42.6387270" lon="-7.1422140">
        <ele>648.3</ele>
        <time>2014-10-02T12:15:34Z</time>
      </trkpt>
      <trkpt lat="42.6386910" lon="-7.1423000">
        <ele>647.7</ele>
        <time>2014-10-02T12:15:35Z</time>
      </trkpt>
      <trkpt lat="42.6386530" lon="-7.1423870">
        <ele>647.0</ele>
        <time>2014-10-02T12:15:36Z</time>
      </trkpt>
      <trkpt lat="42.6386100" lon="-7.1424880">
        <ele>646.3</ele>
        <time>2014-10-02T12:15:37Z</time>
      </trkpt>
      <trkpt lat="42.6385700" lon="-7.1425870">
        <ele>645.6</ele>
        <time>2014-10-02T12:15:38Z</time>
      </trkpt>
      <trkpt lat="42.6385280" lon="-7.1426890">
        <ele>644.9</ele>
        <time>2014-10-02T12:15:39Z</time>
      </trkpt>
      <trkpt lat="42.6384870" lon="-7.1428000">
        <ele>644.2</ele>
        <time>2014-10-02T12:15:40Z</time>
      </trkpt>
      <trkpt lat="42.6384510" lon="-7.1428980">
        <ele>643.6</ele>
        <time>2014-10-02T12:15:41Z</time>
      </trkpt>
      <trkpt lat="42.6384160" lon="-7.1430080">
        <ele>643.0</ele>
        <time>2014-10-02T12:15:42Z</time>
      </trkpt>
      <trkpt lat="42.6383860" lon="-7.1431130">
        <ele>642.5</ele>
        <time>2014-10-02T12:15:43Z</time>
      </trkpt>
      <trkpt lat="42.6383570" lon="-7.1432240">
        <ele>642.0</ele>
        <time>2014-10-02T12:15:44Z</time>
      </trkpt>
      <trkpt lat="42.6383270" lon="-7.1433130">
        <ele>641.7</ele>
        <time>2014-10-02T12:15:45Z</time>
      </trkpt>
      <trkpt lat="42.6382920" lon="-7.1434230">
        <ele>641.3</ele>
        <time>2014-10-02T12:15:46Z</time>
      </trkpt>
      <trkpt lat="42.6382550" lon="-7.1435290">
        <ele>640.8</ele>
        <time>2014-10-02T12:15:47Z</time>
      </trkpt>
      <trkpt lat="42.6382210" lon="-7.1436330">
        <ele>640.5</ele>
        <time>2014-10-02T12:15:48Z</time>
      </trkpt>
      <trkpt lat="42.6381840" lon="-7.1437240">
        <ele>640.3</ele>
        <time>2014-10-02T12:15:49Z</time>
      </trkpt>
      <trkpt lat="42.6381380" lon="-7.1438230">
        <ele>640.1</ele>
        <time>2014-10-02T12:15:50Z</time>
      </trkpt>
      <trkpt lat="42.6380910" lon="-7.1439120">
        <ele>639.9</ele>
        <time>2014-10-02T12:15:51Z</time>
      </trkpt>
      <trkpt lat="42.6380460" lon="-7.1439950">
        <ele>639.7</ele>
        <time>2014-10-02T12:15:52Z</time>
      </trkpt>
      <trkpt lat="42.6379990" lon="-7.1440750">
        <ele>639.5</ele>
        <time>2014-10-02T12:15:53Z</time>
      </trkpt>
      <trkpt lat="42.6379580" lon="-7.1441480">
        <ele>639.2</ele>
        <time>2014-10-02T12:15:54Z</time>
      </trkpt>
      <trkpt lat="42.6379150" lon="-7.1442360">
        <ele>638.8</ele>
        <time>2014-10-02T12:15:55Z</time>
      </trkpt>
      <trkpt lat="42.6378740" lon="-7.1443300">
        <ele>638.4</ele>
        <time>2014-10-02T12:15:56Z</time>
      </trkpt>
      <trkpt lat="42.6378380" lon="-7.1444350">
        <ele>638.0</ele>
        <time>2014-10-02T12:15:57Z</time>
      </trkpt>
      <trkpt lat="42.6378050" lon="-7.1445450">
        <ele>637.5</ele>
        <time>2014-10-02T12:15:58Z</time>
      </trkpt>
      <trkpt lat="42.6377730" lon="-7.1446620">
        <ele>637.0</ele>
        <time>2014-10-02T12:15:59Z</time>
      </trkpt>
      <trkpt lat="42.6377490" lon="-7.1447750">
        <ele>636.4</ele>
        <time>2014-10-02T12:16:00Z</time>
      </trkpt>
      <trkpt lat="42.6377260" lon="-7.1448890">
        <ele>635.7</ele>
        <time>2014-10-02T12:16:01Z</time>
      </trkpt>
      <trkpt lat="42.6377040" lon="-7.1450080">
        <ele>634.9</ele>
        <time>2014-10-02T12:16:02Z</time>
      </trkpt>
      <trkpt lat="42.6376860" lon="-7.1451320">
        <ele>634.2</ele>
        <time>2014-10-02T12:16:03Z</time>
      </trkpt>
      <trkpt lat="42.6376900" lon="-7.1452490">
        <ele>633.5</ele>
        <time>2014-10-02T12:16:04Z</time>
      </trkpt>
      <trkpt lat="42.6376970" lon="-7.1453780">
        <ele>632.9</ele>
        <time>2014-10-02T12:16:05Z</time>
      </trkpt>
      <trkpt lat="42.6377020" lon="-7.1455040">
        <ele>632.4</ele>
        <time>2014-10-02T12:16:06Z</time>
      </trkpt>
      <trkpt lat="42.6377050" lon="-7.1456300">
        <ele>631.9</ele>
        <time>2014-10-02T12:16:07Z</time>
      </trkpt>
      <trkpt lat="42.6377160" lon="-7.1457530">
        <ele>631.3</ele>
        <time>2014-10-02T12:16:08Z</time>
      </trkpt>
      <trkpt lat="42.6377210" lon="-7.1458490">
        <ele>630.8</ele>
        <time>2014-10-02T12:16:09Z</time>
      </trkpt>
      <trkpt lat="42.6377280" lon="-7.1459470">
        <ele>630.4</ele>
        <time>2014-10-02T12:16:10Z</time>
      </trkpt>
      <trkpt lat="42.6377430" lon="-7.1460540">
        <ele>630.0</ele>
        <time>2014-10-02T12:16:11Z</time>
      </trkpt>
      <trkpt lat="42.6377590" lon="-7.1461640">
        <ele>629.5</ele>
        <time>2014-10-02T12:16:12Z</time>
      </trkpt>
      <trkpt lat="42.6377750" lon="-7.1462670">
        <ele>629.1</ele>
        <time>2014-10-02T12:16:13Z</time>
      </trkpt>
      <trkpt lat="42.6377890" lon="-7.1463730">
        <ele>628.7</ele>
        <time>2014-10-02T12:16:14Z</time>
      </trkpt>
      <trkpt lat="42.6378110" lon="-7.1464700">
        <ele>628.4</ele>
        <time>2014-10-02T12:16:15Z</time>
      </trkpt>
      <trkpt lat="42.6378200" lon="-7.1465650">
        <ele>628.2</ele>
        <time>2014-10-02T12:16:16Z</time>
      </trkpt>
      <trkpt lat="42.6378320" lon="-7.1466670">
        <ele>628.0</ele>
        <time>2014-10-02T12:16:17Z</time>
      </trkpt>
      <trkpt lat="42.6378670" lon="-7.1467780">
        <ele>627.7</ele>
        <time>2014-10-02T12:16:18Z</time>
      </trkpt>
      <trkpt lat="42.6379010" lon="-7.1468830">
        <ele>627.5</ele>
        <time>2014-10-02T12:16:19Z</time>
      </trkpt>
      <trkpt lat="42.6379370" lon="-7.1469830">
        <ele>627.3</ele>
        <time>2014-10-02T12:16:20Z</time>
      </trkpt>
      <trkpt lat="42.6379650" lon="-7.1470640">
        <ele>627.1</ele>
        <time>2014-10-02T12:16:21Z</time>
      </trkpt>
      <trkpt lat="42.6380010" lon="-7.1471630">
        <ele>627.0</ele>
        <time>2014-10-02T12:16:22Z</time>
      </trkpt>
      <trkpt lat="42.6380350" lon="-7.1472600">
        <ele>627.1</ele>
        <time>2014-10-02T12:16:23Z</time>
      </trkpt>
      <trkpt lat="42.6380680" lon="-7.1473690">
        <ele>627.3</ele>
        <time>2014-10-02T12:16:24Z</time>
      </trkpt>
      <trkpt lat="42.6380970" lon="-7.1474610">
        <ele>627.4</ele>
        <time>2014-10-02T12:16:25Z</time>
      </trkpt>
      <trkpt lat="42.6381230" lon="-7.1475320">
        <ele>627.8</ele>
        <time>2014-10-02T12:16:26Z</time>
      </trkpt>
      <trkpt lat="42.6381430" lon="-7.1475740">
        <ele>627.9</ele>
        <time>2014-10-02T12:16:27Z</time>
      </trkpt>
      <trkpt lat="42.6381860" lon="-7.1477340">
        <ele>628.5</ele>
        <time>2014-10-02T12:16:30Z</time>
      </trkpt>
      <trkpt lat="42.6382020" lon="-7.1477830">
        <ele>628.7</ele>
        <time>2014-10-02T12:16:31Z</time>
      </trkpt>
      <trkpt lat="42.6382140" lon="-7.1478460">
        <ele>629.0</ele>
        <time>2014-10-02T12:16:32Z</time>
      </trkpt>
      <trkpt lat="42.6382270" lon="-7.1478990">
        <ele>629.3</ele>
        <time>2014-10-02T12:16:33Z</time>
      </trkpt>
      <trkpt lat="42.6382390" lon="-7.1479560">
        <ele>629.7</ele>
        <time>2014-10-02T12:16:34Z</time>
      </trkpt>
      <trkpt lat="42.6382520" lon="-7.1480180">
        <ele>630.1</ele>
        <time>2014-10-02T12:16:35Z</time>
      </trkpt>
      <trkpt lat="42.6382620" lon="-7.1480760">
        <ele>630.5</ele>
        <time>2014-10-02T12:16:36Z</time>
      </trkpt>
      <trkpt lat="42.6382710" lon="-7.1481210">
        <ele>630.7</ele>
        <time>2014-10-02T12:16:37Z</time>
      </trkpt>
      <trkpt lat="42.6382940" lon="-7.1482340">
        <ele>631.4</ele>
        <time>2014-10-02T12:16:40Z</time>
      </trkpt>
      <trkpt lat="42.6383120" lon="-7.1483600">
        <ele>632.0</ele>
        <time>2014-10-02T12:16:43Z</time>
      </trkpt>
      <trkpt lat="42.6383130" lon="-7.1484320">
        <ele>632.4</ele>
        <time>2014-10-02T12:16:45Z</time>
      </trkpt>
      <trkpt lat="42.6383130" lon="-7.1484710">
        <ele>632.6</ele>
        <time>2014-10-02T12:16:46Z</time>
      </trkpt>
      <trkpt lat="42.6383130" lon="-7.1485370">
        <ele>632.9</ele>
        <time>2014-10-02T12:16:48Z</time>
      </trkpt>
      <trkpt lat="42.6383220" lon="-7.1486060">
        <ele>633.3</ele>
        <time>2014-10-02T12:16:50Z</time>
      </trkpt>
      <trkpt lat="42.6383250" lon="-7.1486660">
        <ele>633.6</ele>
        <time>2014-10-02T12:16:52Z</time>
      </trkpt>
      <trkpt lat="42.6383260" lon="-7.1487300">
        <ele>634.0</ele>
        <time>2014-10-02T12:16:54Z</time>
      </trkpt>
      <trkpt lat="42.6383180" lon="-7.1487970">
        <ele>634.4</ele>
        <time>2014-10-02T12:16:56Z</time>
      </trkpt>
      <trkpt lat="42.6383160" lon="-7.1488640">
        <ele>634.7</ele>
        <time>2014-10-02T12:16:58Z</time>
      </trkpt>
      <trkpt lat="42.6383140" lon="-7.1489250">
        <ele>635.1</ele>
        <time>2014-10-02T12:17:00Z</time>
      </trkpt>
      <trkpt lat="42.6383100" lon="-7.1489900">
        <ele>635.4</ele>
        <time>2014-10-02T12:17:02Z</time>
      </trkpt>
      <trkpt lat="42.6383010" lon="-7.1490530">
        <ele>635.8</ele>
        <time>2014-10-02T12:17:04Z</time>
      </trkpt>
      <trkpt lat="42.6382880" lon="-7.1491110">
        <ele>636.0</ele>
        <time>2014-10-02T12:17:06Z</time>
      </trkpt>
      <trkpt lat="42.6382760" lon="-7.1491750">
        <ele>636.3</ele>
        <time>2014-10-02T12:17:08Z</time>
      </trkpt>
      <trkpt lat="42.6382680" lon="-7.1492240">
        <ele>636.6</ele>
        <time>2014-10-02T12:17:10Z</time>
      </trkpt>
      <trkpt lat="42.6382610" lon="-7.1492780">
        <ele>636.7</ele>
        <time>2014-10-02T12:17:12Z</time>
      </trkpt>
      <trkpt lat="42.6382530" lon="-7.1493350">
        <ele>636.5</ele>
        <time>2014-10-02T12:17:14Z</time>
      </trkpt>
      <trkpt lat="42.6382470" lon="-7.1493940">
        <ele>636.2</ele>
        <time>2014-10-02T12:17:16Z</time>
      </trkpt>
      <trkpt lat="42.6382470" lon="-7.1494530">
        <ele>635.9</ele>
        <time>2014-10-02T12:17:18Z</time>
      </trkpt>
      <trkpt lat="42.6382570" lon="-7.1495190">
        <ele>635.6</ele>
        <time>2014-10-02T12:17:20Z</time>
      </trkpt>
      <trkpt lat="42.6382650" lon="-7.1495820">
        <ele>635.2</ele>
        <time>2014-10-02T12:17:22Z</time>
      </trkpt>
      <trkpt lat="42.6382780" lon="-7.1496440">
        <ele>634.8</ele>
        <time>2014-10-02T12:17:24Z</time>
      </trkpt>
      <trkpt lat="42.6382890" lon="-7.1497090">
        <ele>634.3</ele>
        <time>2014-10-02T12:17:26Z</time>
      </trkpt>
      <trkpt lat="42.6382960" lon="-7.1497480">
        <ele>634.0</ele>
        <time>2014-10-02T12:17:27Z</time>
      </trkpt>
      <trkpt lat="42.6383190" lon="-7.1498100">
        <ele>633.4</ele>
        <time>2014-10-02T12:17:29Z</time>
      </trkpt>
      <trkpt lat="42.6383400" lon="-7.1498690">
        <ele>632.8</ele>
        <time>2014-10-02T12:17:31Z</time>
      </trkpt>
      <trkpt lat="42.6383590" lon="-7.1499180">
        <ele>632.5</ele>
        <time>2014-10-02T12:17:33Z</time>
      </trkpt>
      <trkpt lat="42.6383890" lon="-7.1499700">
        <ele>633.1</ele>
        <time>2014-10-02T12:17:35Z</time>
      </trkpt>
      <trkpt lat="42.6384080" lon="-7.1500000">
        <ele>633.5</ele>
        <time>2014-10-02T12:17:36Z</time>
      </trkpt>
      <trkpt lat="42.6384430" lon="-7.1500500">
        <ele>634.1</ele>
        <time>2014-10-02T12:17:38Z</time>
      </trkpt>
      <trkpt lat="42.6384940" lon="-7.1501090">
        <ele>634.8</ele>
        <time>2014-10-02T12:17:41Z</time>
      </trkpt>
      <trkpt lat="42.6385300" lon="-7.1501430">
        <ele>635.4</ele>
        <time>2014-10-02T12:17:43Z</time>
      </trkpt>
      <trkpt lat="42.6385700" lon="-7.1501700">
        <ele>636.0</ele>
        <time>2014-10-02T12:17:45Z</time>
      </trkpt>
      <trkpt lat="42.6386060" lon="-7.1501980">
        <ele>636.6</ele>
        <time>2014-10-02T12:17:47Z</time>
      </trkpt>
      <trkpt lat="42.6386420" lon="-7.1502380">
        <ele>637.3</ele>
        <time>2014-10-02T12:17:49Z</time>
      </trkpt>
      <trkpt lat="42.6386800" lon="-7.1502790">
        <ele>638.0</ele>
        <time>2014-10-02T12:17:51Z</time>
      </trkpt>
      <trkpt lat="42.6387170" lon="-7.1503140">
        <ele>638.6</ele>
        <time>2014-10-02T12:17:53Z</time>
      </trkpt>
      <trkpt lat="42.6387470" lon="-7.1503420">
        <ele>639.2</ele>
        <time>2014-10-02T12:17:55Z</time>
      </trkpt>
      <trkpt lat="42.6387850" lon="-7.1503790">
        <ele>639.8</ele>
        <time>2014-10-02T12:17:58Z</time>
      </trkpt>
      <trkpt lat="42.6388150" lon="-7.1503870">
        <ele>640.3</ele>
        <time>2014-10-02T12:18:00Z</time>
      </trkpt>
      <trkpt lat="42.6388640" lon="-7.1503990">
        <ele>641.0</ele>
        <time>2014-10-02T12:18:03Z</time>
      </trkpt>
      <trkpt lat="42.6389060" lon="-7.1504020">
        <ele>641.6</ele>
        <time>2014-10-02T12:18:05Z</time>
      </trkpt>
      <trkpt lat="42.6389410" lon="-7.1504070">
        <ele>642.1</ele>
        <time>2014-10-02T12:18:07Z</time>
      </trkpt>
      <trkpt lat="42.6389710" lon="-7.1504080">
        <ele>642.4</ele>
        <time>2014-10-02T12:18:09Z</time>
      </trkpt>
      <trkpt lat="42.6389980" lon="-7.1504180">
        <ele>642.7</ele>
        <time>2014-10-02T12:18:11Z</time>
      </trkpt>
      <trkpt lat="42.6390450" lon="-7.1504330">
        <ele>643.2</ele>
        <time>2014-10-02T12:18:13Z</time>
      </trkpt>
      <trkpt lat="42.6390850" lon="-7.1504560">
        <ele>643.4</ele>
        <time>2014-10-02T12:18:15Z</time>
      </trkpt>
      <trkpt lat="42.6390610" lon="-7.1504960">
        <ele>643.4</ele>
        <time>2014-10-02T12:18:57Z</time>
      </trkpt>
      <trkpt lat="42.6390620" lon="-7.1504840">
        <ele>643.4</ele>
        <time>2014-10-02T12:19:33Z</time>
      </trkpt>
      <trkpt lat="42.6390620" lon="-7.1504730">
        <ele>643.4</ele>
        <time>2014-10-02T12:19:52Z</time>
      </trkpt>
      <trkpt lat="42.6390620" lon="-7.1504620">
        <ele>643.4</ele>
        <time>2014-10-02T12:20:26Z</time>
      </trkpt>
      <trkpt lat="42.6390620" lon="-7.1504510">
        <ele>643.4</ele>
        <time>2014-10-02T12:21:20Z</time>
      </trkpt>
      <trkpt lat="42.6390630" lon="-7.1504390">
        <ele>643.4</ele>
        <time>2014-10-02T12:21:41Z</time>
      </trkpt>
      <trkpt lat="42.6390630" lon="-7.1504280">
        <ele>643.4</ele>
        <time>2014-10-02T12:21:42Z</time>
      </trkpt>
      <trkpt lat="42.6390790" lon="-7.1504750">
        <ele>643.4</ele>
        <time>2014-10-02T12:21:56Z</time>
      </trkpt>
      <trkpt lat="42.6391010" lon="-7.1504380">
        <ele>643.4</ele>
        <time>2014-10-02T12:22:33Z</time>
      </trkpt>
      <trkpt lat="42.6390820" lon="-7.1504640">
        <ele>643.4</ele>
        <time>2014-10-02T12:26:25Z</time>
      </trkpt>
      <trkpt lat="42.6390680" lon="-7.1505020">
        <ele>643.4</ele>
        <time>2014-10-02T12:26:39Z</time>
      </trkpt>
      <trkpt lat="42.6390390" lon="-7.1505130">
        <ele>643.4</ele>
        <time>2014-10-02T12:27:05Z</time>
      </trkpt>
      <trkpt lat="42.6391010" lon="-7.1504810">
        <ele>643.4</ele>
        <time>2014-10-02T12:27:37Z</time>
      </trkpt>
      <trkpt lat="42.6390720" lon="-7.1504660">
        <ele>643.4</ele>
        <time>2014-10-02T12:30:18Z</time>
      </trkpt>
      <trkpt lat="42.6390520" lon="-7.1504970">
        <ele>643.4</ele>
        <time>2014-10-02T12:30:23Z</time>
      </trkpt>
      <trkpt lat="42.6390870" lon="-7.1506480">
        <ele>643.4</ele>
        <time>2014-10-02T12:31:39Z</time>
      </trkpt>
      <trkpt lat="42.6389270" lon="-7.1504570">
        <ele>645.8</ele>
        <time>2014-10-02T12:31:47Z</time>
      </trkpt>
      <trkpt lat="42.6390390" lon="-7.1505790">
        <ele>643.4</ele>
        <time>2014-10-02T12:47:49Z</time>
      </trkpt>
      <trkpt lat="42.6390130" lon="-7.1506420">
        <ele>643.4</ele>
        <time>2014-10-02T12:47:51Z</time>
      </trkpt>
      <trkpt lat="42.6392000" lon="-7.1508220">
        <ele>643.3</ele>
        <time>2014-10-02T12:48:05Z</time>
      </trkpt>
      <trkpt lat="42.6392440" lon="-7.1508080">
        <ele>643.2</ele>
        <time>2014-10-02T12:48:06Z</time>
      </trkpt>
      <trkpt lat="42.6392900" lon="-7.1507920">
        <ele>643.0</ele>
        <time>2014-10-02T12:48:07Z</time>
      </trkpt>
      <trkpt lat="42.6393210" lon="-7.1507830">
        <ele>642.9</ele>
        <time>2014-10-02T12:48:08Z</time>
      </trkpt>
      <trkpt lat="42.6393510" lon="-7.1507720">
        <ele>642.8</ele>
        <time>2014-10-02T12:48:09Z</time>
      </trkpt>
      <trkpt lat="42.6393790" lon="-7.1507690">
        <ele>642.7</ele>
        <time>2014-10-02T12:48:23Z</time>
      </trkpt>
      <trkpt lat="42.6388140" lon="-7.1505860">
        <ele>640.7</ele>
        <time>2014-10-02T12:50:31Z</time>
      </trkpt>
      <trkpt lat="42.6389430" lon="-7.1505980">
        <ele>642.3</ele>
        <time>2014-10-02T12:51:11Z</time>
      </trkpt>
      <trkpt lat="42.6389750" lon="-7.1505840">
        <ele>642.4</ele>
        <time>2014-10-02T12:51:12Z</time>
      </trkpt>
      <trkpt lat="42.6390130" lon="-7.1505830">
        <ele>642.6</ele>
        <time>2014-10-02T12:51:33Z</time>
      </trkpt>
      <trkpt lat="42.6390870" lon="-7.1502290">
        <ele>643.4</ele>
        <time>2014-10-02T12:53:59Z</time>
      </trkpt>
      <trkpt lat="42.6391630" lon="-7.1503610">
        <ele>643.4</ele>
        <time>2014-10-02T12:54:01Z</time>
      </trkpt>
      <trkpt lat="42.6391250" lon="-7.1503550">
        <ele>644.1</ele>
        <time>2014-10-02T12:54:12Z</time>
      </trkpt>
      <trkpt lat="42.6390920" lon="-7.1503820">
        <ele>644.7</ele>
        <time>2014-10-02T12:54:16Z</time>
      </trkpt>
      <trkpt lat="42.6390630" lon="-7.1503740">
        <ele>645.2</ele>
        <time>2014-10-02T12:54:17Z</time>
      </trkpt>
      <trkpt lat="42.6390350" lon="-7.1503710">
        <ele>645.7</ele>
        <time>2014-10-02T12:54:18Z</time>
      </trkpt>
      <trkpt lat="42.6389840" lon="-7.1503600">
        <ele>646.5</ele>
        <time>2014-10-02T12:54:20Z</time>
      </trkpt>
      <trkpt lat="42.6389580" lon="-7.1503460">
        <ele>646.9</ele>
        <time>2014-10-02T12:54:21Z</time>
      </trkpt>
      <trkpt lat="42.6389310" lon="-7.1503250">
        <ele>647.3</ele>
        <time>2014-10-02T12:54:22Z</time>
      </trkpt>
      <trkpt lat="42.6389030" lon="-7.1503070">
        <ele>647.8</ele>
        <time>2014-10-02T12:54:23Z</time>
      </trkpt>
      <trkpt lat="42.6388760" lon="-7.1502870">
        <ele>648.2</ele>
        <time>2014-10-02T12:54:24Z</time>
      </trkpt>
      <trkpt lat="42.6388330" lon="-7.1502460">
        <ele>648.9</ele>
        <time>2014-10-02T12:54:26Z</time>
      </trkpt>
      <trkpt lat="42.6387980" lon="-7.1501820">
        <ele>649.8</ele>
        <time>2014-10-02T12:54:28Z</time>
      </trkpt>
      <trkpt lat="42.6387790" lon="-7.1501430">
        <ele>650.3</ele>
        <time>2014-10-02T12:54:29Z</time>
      </trkpt>
      <trkpt lat="42.6387590" lon="-7.1501050">
        <ele>650.9</ele>
        <time>2014-10-02T12:54:30Z</time>
      </trkpt>
      <trkpt lat="42.6387410" lon="-7.1500650">
        <ele>651.4</ele>
        <time>2014-10-02T12:54:31Z</time>
      </trkpt>
      <trkpt lat="42.6387200" lon="-7.1500030">
        <ele>652.3</ele>
        <time>2014-10-02T12:54:33Z</time>
      </trkpt>
      <trkpt lat="42.6387050" lon="-7.1499480">
        <ele>653.0</ele>
        <time>2014-10-02T12:54:35Z</time>
      </trkpt>
      <trkpt lat="42.6386860" lon="-7.1498890">
        <ele>653.8</ele>
        <time>2014-10-02T12:54:37Z</time>
      </trkpt>
      <trkpt lat="42.6386770" lon="-7.1498410">
        <ele>654.4</ele>
        <time>2014-10-02T12:54:39Z</time>
      </trkpt>
      <trkpt lat="42.6386650" lon="-7.1497810">
        <ele>655.2</ele>
        <time>2014-10-02T12:54:41Z</time>
      </trkpt>
      <trkpt lat="42.6386570" lon="-7.1497160">
        <ele>656.0</ele>
        <time>2014-10-02T12:54:43Z</time>
      </trkpt>
      <trkpt lat="42.6386520" lon="-7.1496530">
        <ele>656.8</ele>
        <time>2014-10-02T12:54:45Z</time>
      </trkpt>
      <trkpt lat="42.6386470" lon="-7.1495930">
        <ele>657.5</ele>
        <time>2014-10-02T12:54:47Z</time>
      </trkpt>
      <trkpt lat="42.6386500" lon="-7.1495340">
        <ele>658.2</ele>
        <time>2014-10-02T12:54:49Z</time>
      </trkpt>
      <trkpt lat="42.6386580" lon="-7.1494760">
        <ele>659.0</ele>
        <time>2014-10-02T12:54:51Z</time>
      </trkpt>
      <trkpt lat="42.6386710" lon="-7.1494120">
        <ele>659.8</ele>
        <time>2014-10-02T12:54:53Z</time>
      </trkpt>
      <trkpt lat="42.6386870" lon="-7.1493540">
        <ele>660.5</ele>
        <time>2014-10-02T12:54:55Z</time>
      </trkpt>
      <trkpt lat="42.6387110" lon="-7.1492960">
        <ele>661.3</ele>
        <time>2014-10-02T12:54:57Z</time>
      </trkpt>
      <trkpt lat="42.6387220" lon="-7.1492620">
        <ele>661.8</ele>
        <time>2014-10-02T12:54:58Z</time>
      </trkpt>
      <trkpt lat="42.6387440" lon="-7.1492060">
        <ele>662.6</ele>
        <time>2014-10-02T12:55:00Z</time>
      </trkpt>
      <trkpt lat="42.6387680" lon="-7.1491580">
        <ele>663.3</ele>
        <time>2014-10-02T12:55:02Z</time>
      </trkpt>
      <trkpt lat="42.6387900" lon="-7.1491070">
        <ele>664.0</ele>
        <time>2014-10-02T12:55:04Z</time>
      </trkpt>
      <trkpt lat="42.6388130" lon="-7.1490630">
        <ele>664.7</ele>
        <time>2014-10-02T12:55:06Z</time>
      </trkpt>
      <trkpt lat="42.6388330" lon="-7.1490160">
        <ele>665.3</ele>
        <time>2014-10-02T12:55:08Z</time>
      </trkpt>
      <trkpt lat="42.6388600" lon="-7.1489650">
        <ele>666.1</ele>
        <time>2014-10-02T12:55:10Z</time>
      </trkpt>
      <trkpt lat="42.6388840" lon="-7.1489190">
        <ele>666.8</ele>
        <time>2014-10-02T12:55:12Z</time>
      </trkpt>
      <trkpt lat="42.6389060" lon="-7.1488700">
        <ele>667.5</ele>
        <time>2014-10-02T12:55:14Z</time>
      </trkpt>
      <trkpt lat="42.6389340" lon="-7.1488190">
        <ele>668.2</ele>
        <time>2014-10-02T12:55:16Z</time>
      </trkpt>
      <trkpt lat="42.6389590" lon="-7.1487810">
        <ele>668.8</ele>
        <time>2014-10-02T12:55:18Z</time>
      </trkpt>
      <trkpt lat="42.6389830" lon="-7.1487280">
        <ele>669.6</ele>
        <time>2014-10-02T12:55:20Z</time>
      </trkpt>
      <trkpt lat="42.6390100" lon="-7.1486760">
        <ele>670.3</ele>
        <time>2014-10-02T12:55:22Z</time>
      </trkpt>
      <trkpt lat="42.6390270" lon="-7.1486200">
        <ele>671.0</ele>
        <time>2014-10-02T12:55:24Z</time>
      </trkpt>
      <trkpt lat="42.6390430" lon="-7.1485740">
        <ele>671.6</ele>
        <time>2014-10-02T12:55:26Z</time>
      </trkpt>
      <trkpt lat="42.6390580" lon="-7.1485230">
        <ele>672.2</ele>
        <time>2014-10-02T12:55:28Z</time>
      </trkpt>
      <trkpt lat="42.6390690" lon="-7.1484700">
        <ele>672.8</ele>
        <time>2014-10-02T12:55:30Z</time>
      </trkpt>
      <trkpt lat="42.6390820" lon="-7.1484200">
        <ele>673.3</ele>
        <time>2014-10-02T12:55:32Z</time>
      </trkpt>
      <trkpt lat="42.6390830" lon="-7.1483660">
        <ele>673.9</ele>
        <time>2014-10-02T12:55:34Z</time>
      </trkpt>
      <trkpt lat="42.6390830" lon="-7.1483060">
        <ele>674.5</ele>
        <time>2014-10-02T12:55:36Z</time>
      </trkpt>
      <trkpt lat="42.6390830" lon="-7.1482500">
        <ele>675.0</ele>
        <time>2014-10-02T12:55:38Z</time>
      </trkpt>
      <trkpt lat="42.6390840" lon="-7.1481860">
        <ele>675.6</ele>
        <time>2014-10-02T12:55:40Z</time>
      </trkpt>
      <trkpt lat="42.6390740" lon="-7.1481230">
        <ele>676.2</ele>
        <time>2014-10-02T12:55:42Z</time>
      </trkpt>
      <trkpt lat="42.6390630" lon="-7.1480420">
        <ele>676.8</ele>
        <time>2014-10-02T12:55:44Z</time>
      </trkpt>
      <trkpt lat="42.6390580" lon="-7.1480010">
        <ele>677.0</ele>
        <time>2014-10-02T12:55:45Z</time>
      </trkpt>
      <trkpt lat="42.6390570" lon="-7.1479630">
        <ele>677.3</ele>
        <time>2014-10-02T12:55:46Z</time>
      </trkpt>
      <trkpt lat="42.6390530" lon="-7.1478960">
        <ele>677.9</ele>
        <time>2014-10-02T12:55:48Z</time>
      </trkpt>
      <trkpt lat="42.6390500" lon="-7.1478580">
        <ele>678.2</ele>
        <time>2014-10-02T12:55:49Z</time>
      </trkpt>
      <trkpt lat="42.6390480" lon="-7.1478200">
        <ele>678.5</ele>
        <time>2014-10-02T12:55:50Z</time>
      </trkpt>
      <trkpt lat="42.6390500" lon="-7.1477820">
        <ele>678.7</ele>
        <time>2014-10-02T12:55:51Z</time>
      </trkpt>
      <trkpt lat="42.6390540" lon="-7.1477450">
        <ele>679.0</ele>
        <time>2014-10-02T12:55:52Z</time>
      </trkpt>
      <trkpt lat="42.6390590" lon="-7.1477060">
        <ele>679.2</ele>
        <time>2014-10-02T12:55:53Z</time>
      </trkpt>
      <trkpt lat="42.6390680" lon="-7.1476680">
        <ele>679.5</ele>
        <time>2014-10-02T12:55:54Z</time>
      </trkpt>
      <trkpt lat="42.6390750" lon="-7.1476280">
        <ele>679.8</ele>
        <time>2014-10-02T12:55:55Z</time>
      </trkpt>
      <trkpt lat="42.6390810" lon="-7.1475890">
        <ele>680.0</ele>
        <time>2014-10-02T12:55:56Z</time>
      </trkpt>
      <trkpt lat="42.6390880" lon="-7.1475480">
        <ele>680.3</ele>
        <time>2014-10-02T12:55:57Z</time>
      </trkpt>
      <trkpt lat="42.6391020" lon="-7.1474830">
        <ele>680.8</ele>
        <time>2014-10-02T12:55:59Z</time>
      </trkpt>
      <trkpt lat="42.6391190" lon="-7.1474170">
        <ele>681.2</ele>
        <time>2014-10-02T12:56:01Z</time>
      </trkpt>
      <trkpt lat="42.6391450" lon="-7.1473530">
        <ele>681.7</ele>
        <time>2014-10-02T12:56:03Z</time>
      </trkpt>
      <trkpt lat="42.6391670" lon="-7.1472870">
        <ele>682.1</ele>
        <time>2014-10-02T12:56:05Z</time>
      </trkpt>
      <trkpt lat="42.6391800" lon="-7.1472540">
        <ele>682.3</ele>
        <time>2014-10-02T12:56:06Z</time>
      </trkpt>
      <trkpt lat="42.6391930" lon="-7.1472190">
        <ele>682.5</ele>
        <time>2014-10-02T12:56:07Z</time>
      </trkpt>
      <trkpt lat="42.6392030" lon="-7.1471710">
        <ele>682.8</ele>
        <time>2014-10-02T12:56:08Z</time>
      </trkpt>
      <trkpt lat="42.6392150" lon="-7.1471380">
        <ele>683.0</ele>
        <time>2014-10-02T12:56:09Z</time>
      </trkpt>
      <trkpt lat="42.6392250" lon="-7.1471000">
        <ele>683.2</ele>
        <time>2014-10-02T12:56:10Z</time>
      </trkpt>
      <trkpt lat="42.6392480" lon="-7.1470260">
        <ele>683.6</ele>
        <time>2014-10-02T12:56:12Z</time>
      </trkpt>
      <trkpt lat="42.6392640" lon="-7.1469570">
        <ele>684.0</ele>
        <time>2014-10-02T12:56:14Z</time>
      </trkpt>
      <trkpt lat="42.6392730" lon="-7.1469150">
        <ele>684.2</ele>
        <time>2014-10-02T12:56:15Z</time>
      </trkpt>
      <trkpt lat="42.6392850" lon="-7.1468760">
        <ele>684.5</ele>
        <time>2014-10-02T12:56:16Z</time>
      </trkpt>
      <trkpt lat="42.6392970" lon="-7.1468390">
        <ele>684.7</ele>
        <time>2014-10-02T12:56:17Z</time>
      </trkpt>
      <trkpt lat="42.6393060" lon="-7.1467940">
        <ele>684.9</ele>
        <time>2014-10-02T12:56:18Z</time>
      </trkpt>
      <trkpt lat="42.6393150" lon="-7.1467450">
        <ele>685.2</ele>
        <time>2014-10-02T12:56:19Z</time>
      </trkpt>
      <trkpt lat="42.6393280" lon="-7.1466980">
        <ele>685.5</ele>
        <time>2014-10-02T12:56:20Z</time>
      </trkpt>
      <trkpt lat="42.6393370" lon="-7.1466520">
        <ele>685.7</ele>
        <time>2014-10-02T12:56:21Z</time>
      </trkpt>
      <trkpt lat="42.6393500" lon="-7.1466110">
        <ele>686.0</ele>
        <time>2014-10-02T12:56:22Z</time>
      </trkpt>
      <trkpt lat="42.6393640" lon="-7.1465670">
        <ele>686.3</ele>
        <time>2014-10-02T12:56:23Z</time>
      </trkpt>
      <trkpt lat="42.6393790" lon="-7.1465270">
        <ele>686.6</ele>
        <time>2014-10-02T12:56:24Z</time>
      </trkpt>
      <trkpt lat="42.6393940" lon="-7.1464920">
        <ele>686.8</ele>
        <time>2014-10-02T12:56:25Z</time>
      </trkpt>
      <trkpt lat="42.6394050" lon="-7.1464510">
        <ele>687.1</ele>
        <time>2014-10-02T12:56:26Z</time>
      </trkpt>
      <trkpt lat="42.6394270" lon="-7.1463850">
        <ele>687.5</ele>
        <time>2014-10-02T12:56:28Z</time>
      </trkpt>
      <trkpt lat="42.6394550" lon="-7.1463210">
        <ele>688.0</ele>
        <time>2014-10-02T12:56:30Z</time>
      </trkpt>
      <trkpt lat="42.6394690" lon="-7.1462820">
        <ele>688.3</ele>
        <time>2014-10-02T12:56:31Z</time>
      </trkpt>
      <trkpt lat="42.6394820" lon="-7.1462440">
        <ele>688.5</ele>
        <time>2014-10-02T12:56:32Z</time>
      </trkpt>
      <trkpt lat="42.6394970" lon="-7.1462060">
        <ele>688.8</ele>
        <time>2014-10-02T12:56:33Z</time>
      </trkpt>
      <trkpt lat="42.6395130" lon="-7.1461680">
        <ele>689.0</ele>
        <time>2014-10-02T12:56:34Z</time>
      </trkpt>
      <trkpt lat="42.6395290" lon="-7.1461370">
        <ele>689.3</ele>
        <time>2014-10-02T12:56:35Z</time>
      </trkpt>
      <trkpt lat="42.6395430" lon="-7.1461020">
        <ele>689.5</ele>
        <time>2014-10-02T12:56:36Z</time>
      </trkpt>
      <trkpt lat="42.6395570" lon="-7.1460620">
        <ele>689.8</ele>
        <time>2014-10-02T12:56:37Z</time>
      </trkpt>
      <trkpt lat="42.6395690" lon="-7.1460210">
        <ele>690.0</ele>
        <time>2014-10-02T12:56:38Z</time>
      </trkpt>
      <trkpt lat="42.6395790" lon="-7.1459850">
        <ele>690.3</ele>
        <time>2014-10-02T12:56:39Z</time>
      </trkpt>
      <trkpt lat="42.6395870" lon="-7.1459170">
        <ele>690.8</ele>
        <time>2014-10-02T12:56:41Z</time>
      </trkpt>
      <trkpt lat="42.6395880" lon="-7.1458780">
        <ele>691.1</ele>
        <time>2014-10-02T12:56:42Z</time>
      </trkpt>
      <trkpt lat="42.6395870" lon="-7.1458380">
        <ele>691.4</ele>
        <time>2014-10-02T12:56:43Z</time>
      </trkpt>
      <trkpt lat="42.6395850" lon="-7.1457980">
        <ele>691.7</ele>
        <time>2014-10-02T12:56:44Z</time>
      </trkpt>
      <trkpt lat="42.6395810" lon="-7.1457340">
        <ele>692.3</ele>
        <time>2014-10-02T12:56:46Z</time>
      </trkpt>
      <trkpt lat="42.6395720" lon="-7.1456600">
        <ele>692.9</ele>
        <time>2014-10-02T12:56:48Z</time>
      </trkpt>
      <trkpt lat="42.6395650" lon="-7.1456180">
        <ele>693.3</ele>
        <time>2014-10-02T12:56:49Z</time>
      </trkpt>
      <trkpt lat="42.6395610" lon="-7.1455800">
        <ele>693.6</ele>
        <time>2014-10-02T12:56:50Z</time>
      </trkpt>
      <trkpt lat="42.6395530" lon="-7.1455400">
        <ele>693.9</ele>
        <time>2014-10-02T12:56:51Z</time>
      </trkpt>
      <trkpt lat="42.6395460" lon="-7.1454770">
        <ele>694.4</ele>
        <time>2014-10-02T12:56:53Z</time>
      </trkpt>
      <trkpt lat="42.6395420" lon="-7.1454090">
        <ele>695.0</ele>
        <time>2014-10-02T12:56:55Z</time>
      </trkpt>
      <trkpt lat="42.6395400" lon="-7.1453380">
        <ele>695.5</ele>
        <time>2014-10-02T12:56:57Z</time>
      </trkpt>
      <trkpt lat="42.6395400" lon="-7.1452990">
        <ele>695.8</ele>
        <time>2014-10-02T12:56:58Z</time>
      </trkpt>
      <trkpt lat="42.6395390" lon="-7.1452560">
        <ele>696.1</ele>
        <time>2014-10-02T12:56:59Z</time>
      </trkpt>
      <trkpt lat="42.6395410" lon="-7.1452180">
        <ele>696.3</ele>
        <time>2014-10-02T12:57:00Z</time>
      </trkpt>
      <trkpt lat="42.6395410" lon="-7.1451790">
        <ele>696.6</ele>
        <time>2014-10-02T12:57:01Z</time>
      </trkpt>
      <trkpt lat="42.6395400" lon="-7.1451310">
        <ele>696.9</ele>
        <time>2014-10-02T12:57:02Z</time>
      </trkpt>
      <trkpt lat="42.6395410" lon="-7.1450910">
        <ele>697.1</ele>
        <time>2014-10-02T12:57:03Z</time>
      </trkpt>
      <trkpt lat="42.6395430" lon="-7.1450480">
        <ele>697.4</ele>
        <time>2014-10-02T12:57:04Z</time>
      </trkpt>
      <trkpt lat="42.6395480" lon="-7.1450100">
        <ele>697.7</ele>
        <time>2014-10-02T12:57:05Z</time>
      </trkpt>
      <trkpt lat="42.6395520" lon="-7.1449640">
        <ele>698.0</ele>
        <time>2014-10-02T12:57:06Z</time>
      </trkpt>
      <trkpt lat="42.6395570" lon="-7.1449190">
        <ele>698.3</ele>
        <time>2014-10-02T12:57:07Z</time>
      </trkpt>
      <trkpt lat="42.6395670" lon="-7.1448770">
        <ele>698.6</ele>
        <time>2014-10-02T12:57:08Z</time>
      </trkpt>
      <trkpt lat="42.6395780" lon="-7.1448290">
        <ele>698.9</ele>
        <time>2014-10-02T12:57:09Z</time>
      </trkpt>
      <trkpt lat="42.6395880" lon="-7.1447900">
        <ele>699.2</ele>
        <time>2014-10-02T12:57:10Z</time>
      </trkpt>
      <trkpt lat="42.6395990" lon="-7.1447500">
        <ele>699.4</ele>
        <time>2014-10-02T12:57:11Z</time>
      </trkpt>
      <trkpt lat="42.6396110" lon="-7.1447110">
        <ele>699.7</ele>
        <time>2014-10-02T12:57:12Z</time>
      </trkpt>
      <trkpt lat="42.6396220" lon="-7.1446690">
        <ele>700.0</ele>
        <time>2014-10-02T12:57:13Z</time>
      </trkpt>
      <trkpt lat="42.6396350" lon="-7.1446300">
        <ele>700.2</ele>
        <time>2014-10-02T12:57:14Z</time>
      </trkpt>
      <trkpt lat="42.6396500" lon="-7.1446000">
        <ele>700.4</ele>
        <time>2014-10-02T12:57:15Z</time>
      </trkpt>
      <trkpt lat="42.6396600" lon="-7.1445630">
        <ele>700.7</ele>
        <time>2014-10-02T12:57:16Z</time>
      </trkpt>
      <trkpt lat="42.6396710" lon="-7.1445230">
        <ele>701.0</ele>
        <time>2014-10-02T12:57:17Z</time>
      </trkpt>
      <trkpt lat="42.6396870" lon="-7.1444920">
        <ele>701.2</ele>
        <time>2014-10-02T12:57:18Z</time>
      </trkpt>
      <trkpt lat="42.6396980" lon="-7.1444490">
        <ele>701.5</ele>
        <time>2014-10-02T12:57:19Z</time>
      </trkpt>
      <trkpt lat="42.6397080" lon="-7.1443960">
        <ele>701.8</ele>
        <time>2014-10-02T12:57:20Z</time>
      </trkpt>
      <trkpt lat="42.6397150" lon="-7.1443550">
        <ele>702.0</ele>
        <time>2014-10-02T12:57:21Z</time>
      </trkpt>
      <trkpt lat="42.6397220" lon="-7.1443150">
        <ele>702.3</ele>
        <time>2014-10-02T12:57:22Z</time>
      </trkpt>
      <trkpt lat="42.6397310" lon="-7.1442770">
        <ele>702.5</ele>
        <time>2014-10-02T12:57:23Z</time>
      </trkpt>
      <trkpt lat="42.6397330" lon="-7.1442340">
        <ele>702.7</ele>
        <time>2014-10-02T12:57:24Z</time>
      </trkpt>
      <trkpt lat="42.6397350" lon="-7.1441830">
        <ele>703.1</ele>
        <time>2014-10-02T12:57:25Z</time>
      </trkpt>
      <trkpt lat="42.6397430" lon="-7.1441340">
        <ele>703.3</ele>
        <time>2014-10-02T12:57:26Z</time>
      </trkpt>
      <trkpt lat="42.6397490" lon="-7.1440880">
        <ele>703.3</ele>
        <time>2014-10-02T12:57:27Z</time>
      </trkpt>
      <trkpt lat="42.6397540" lon="-7.1440340">
        <ele>703.3</ele>
        <time>2014-10-02T12:57:28Z</time>
      </trkpt>
      <trkpt lat="42.6397610" lon="-7.1439890">
        <ele>703.3</ele>
        <time>2014-10-02T12:57:29Z</time>
      </trkpt>
      <trkpt lat="42.6397690" lon="-7.1439400">
        <ele>703.4</ele>
        <time>2014-10-02T12:57:30Z</time>
      </trkpt>
      <trkpt lat="42.6397760" lon="-7.1438870">
        <ele>703.4</ele>
        <time>2014-10-02T12:57:31Z</time>
      </trkpt>
      <trkpt lat="42.6397820" lon="-7.1438340">
        <ele>703.5</ele>
        <time>2014-10-02T12:57:32Z</time>
      </trkpt>
      <trkpt lat="42.6397880" lon="-7.1437810">
        <ele>703.7</ele>
        <time>2014-10-02T12:57:33Z</time>
      </trkpt>
      <trkpt lat="42.6397950" lon="-7.1437280">
        <ele>703.8</ele>
        <time>2014-10-02T12:57:34Z</time>
      </trkpt>
      <trkpt lat="42.6398020" lon="-7.1436700">
        <ele>703.9</ele>
        <time>2014-10-02T12:57:35Z</time>
      </trkpt>
      <trkpt lat="42.6398100" lon="-7.1436150">
        <ele>704.0</ele>
        <time>2014-10-02T12:57:36Z</time>
      </trkpt>
      <trkpt lat="42.6398160" lon="-7.1435630">
        <ele>704.1</ele>
        <time>2014-10-02T12:57:37Z</time>
      </trkpt>
      <trkpt lat="42.6398250" lon="-7.1435100">
        <ele>704.1</ele>
        <time>2014-10-02T12:57:38Z</time>
      </trkpt>
      <trkpt lat="42.6398310" lon="-7.1434630">
        <ele>704.2</ele>
        <time>2014-10-02T12:57:39Z</time>
      </trkpt>
      <trkpt lat="42.6398390" lon="-7.1434200">
        <ele>704.2</ele>
        <time>2014-10-02T12:57:40Z</time>
      </trkpt>
      <trkpt lat="42.6398470" lon="-7.1433710">
        <ele>704.2</ele>
        <time>2014-10-02T12:57:41Z</time>
      </trkpt>
      <trkpt lat="42.6398510" lon="-7.1433200">
        <ele>704.3</ele>
        <time>2014-10-02T12:57:42Z</time>
      </trkpt>
      <trkpt lat="42.6398560" lon="-7.1432680">
        <ele>704.3</ele>
        <time>2014-10-02T12:57:43Z</time>
      </trkpt>
      <trkpt lat="42.6398620" lon="-7.1432130">
        <ele>704.4</ele>
        <time>2014-10-02T12:57:44Z</time>
      </trkpt>
      <trkpt lat="42.6398670" lon="-7.1431740">
        <ele>704.5</ele>
        <time>2014-10-02T12:57:45Z</time>
      </trkpt>
      <trkpt lat="42.6398740" lon="-7.1431360">
        <ele>704.5</ele>
        <time>2014-10-02T12:57:46Z</time>
      </trkpt>
      <trkpt lat="42.6398940" lon="-7.1430610">
        <ele>704.8</ele>
        <time>2014-10-02T12:57:48Z</time>
      </trkpt>
      <trkpt lat="42.6399100" lon="-7.1430310">
        <ele>704.9</ele>
        <time>2014-10-02T12:57:49Z</time>
      </trkpt>
      <trkpt lat="42.6399300" lon="-7.1429980">
        <ele>705.1</ele>
        <time>2014-10-02T12:57:50Z</time>
      </trkpt>
      <trkpt lat="42.6399590" lon="-7.1429720">
        <ele>706.3</ele>
        <time>2014-10-02T12:57:51Z</time>
      </trkpt>
      <trkpt lat="42.6399980" lon="-7.1429750">
        <ele>706.4</ele>
        <time>2014-10-02T12:57:53Z</time>
      </trkpt>
      <trkpt lat="42.6400120" lon="-7.1430210">
        <ele>706.5</ele>
        <time>2014-10-02T12:57:55Z</time>
      </trkpt>
      <trkpt lat="42.6400140" lon="-7.1430790">
        <ele>706.6</ele>
        <time>2014-10-02T12:57:57Z</time>
      </trkpt>
      <trkpt lat="42.6400140" lon="-7.1431390">
        <ele>706.8</ele>
        <time>2014-10-02T12:57:59Z</time>
      </trkpt>
      <trkpt lat="42.6400050" lon="-7.1431740">
        <ele>706.8</ele>
        <time>2014-10-02T12:58:00Z</time>
      </trkpt>
      <trkpt lat="42.6400010" lon="-7.1432410">
        <ele>707.0</ele>
        <time>2014-10-02T12:58:02Z</time>
      </trkpt>
      <trkpt lat="42.6399990" lon="-7.1433130">
        <ele>707.1</ele>
        <time>2014-10-02T12:58:04Z</time>
      </trkpt>
      <trkpt lat="42.6399980" lon="-7.1433750">
        <ele>707.1</ele>
        <time>2014-10-02T12:58:06Z</time>
      </trkpt>
      <trkpt lat="42.6399910" lon="-7.1434420">
        <ele>707.2</ele>
        <time>2014-10-02T12:58:08Z</time>
      </trkpt>
      <trkpt lat="42.6399910" lon="-7.1435160">
        <ele>707.3</ele>
        <time>2014-10-02T12:58:10Z</time>
      </trkpt>
      <trkpt lat="42.6399990" lon="-7.1435730">
        <ele>707.4</ele>
        <time>2014-10-02T12:58:12Z</time>
      </trkpt>
      <trkpt lat="42.6399950" lon="-7.1436480">
        <ele>707.7</ele>
        <time>2014-10-02T12:58:14Z</time>
      </trkpt>
      <trkpt lat="42.6399930" lon="-7.1436870">
        <ele>707.8</ele>
        <time>2014-10-02T12:58:15Z</time>
      </trkpt>
      <trkpt lat="42.6399880" lon="-7.1437250">
        <ele>707.9</ele>
        <time>2014-10-02T12:58:16Z</time>
      </trkpt>
      <trkpt lat="42.6399810" lon="-7.1437960">
        <ele>708.2</ele>
        <time>2014-10-02T12:58:18Z</time>
      </trkpt>
      <trkpt lat="42.6399760" lon="-7.1438590">
        <ele>708.4</ele>
        <time>2014-10-02T12:58:20Z</time>
      </trkpt>
      <trkpt lat="42.6399690" lon="-7.1439170">
        <ele>708.6</ele>
        <time>2014-10-02T12:58:22Z</time>
      </trkpt>
      <trkpt lat="42.6399570" lon="-7.1439790">
        <ele>708.9</ele>
        <time>2014-10-02T12:58:24Z</time>
      </trkpt>
      <trkpt lat="42.6399420" lon="-7.1440400">
        <ele>709.1</ele>
        <time>2014-10-02T12:58:26Z</time>
      </trkpt>
      <trkpt lat="42.6399400" lon="-7.1440760">
        <ele>709.2</ele>
        <time>2014-10-02T12:58:27Z</time>
      </trkpt>
      <trkpt lat="42.6399410" lon="-7.1441500">
        <ele>709.5</ele>
        <time>2014-10-02T12:58:29Z</time>
      </trkpt>
      <trkpt lat="42.6399490" lon="-7.1442190">
        <ele>709.8</ele>
        <time>2014-10-02T12:58:31Z</time>
      </trkpt>
      <trkpt lat="42.6399530" lon="-7.1442620">
        <ele>710.0</ele>
        <time>2014-10-02T12:58:32Z</time>
      </trkpt>
      <trkpt lat="42.6399620" lon="-7.1443010">
        <ele>710.2</ele>
        <time>2014-10-02T12:58:33Z</time>
      </trkpt>
      <trkpt lat="42.6399650" lon="-7.1443430">
        <ele>710.3</ele>
        <time>2014-10-02T12:58:34Z</time>
      </trkpt>
      <trkpt lat="42.6399700" lon="-7.1443850">
        <ele>710.5</ele>
        <time>2014-10-02T12:58:35Z</time>
      </trkpt>
      <trkpt lat="42.6399790" lon="-7.1444240">
        <ele>710.7</ele>
        <time>2014-10-02T12:58:36Z</time>
      </trkpt>
      <trkpt lat="42.6399830" lon="-7.1444630">
        <ele>710.9</ele>
        <time>2014-10-02T12:58:37Z</time>
      </trkpt>
      <trkpt lat="42.6399900" lon="-7.1445310">
        <ele>711.3</ele>
        <time>2014-10-02T12:58:39Z</time>
      </trkpt>
      <trkpt lat="42.6399950" lon="-7.1445720">
        <ele>711.5</ele>
        <time>2014-10-02T12:58:40Z</time>
      </trkpt>
      <trkpt lat="42.6399980" lon="-7.1446090">
        <ele>711.7</ele>
        <time>2014-10-02T12:58:41Z</time>
      </trkpt>
      <trkpt lat="42.6400000" lon="-7.1446500">
        <ele>712.0</ele>
        <time>2014-10-02T12:58:42Z</time>
      </trkpt>
      <trkpt lat="42.6399980" lon="-7.1446930">
        <ele>712.2</ele>
        <time>2014-10-02T12:58:43Z</time>
      </trkpt>
      <trkpt lat="42.6399970" lon="-7.1447340">
        <ele>712.5</ele>
        <time>2014-10-02T12:58:44Z</time>
      </trkpt>
      <trkpt lat="42.6400100" lon="-7.1447740">
        <ele>712.7</ele>
        <time>2014-10-02T12:58:45Z</time>
      </trkpt>
      <trkpt lat="42.6400160" lon="-7.1448110">
        <ele>712.9</ele>
        <time>2014-10-02T12:58:46Z</time>
      </trkpt>
      <trkpt lat="42.6400190" lon="-7.1448610">
        <ele>713.1</ele>
        <time>2014-10-02T12:58:47Z</time>
      </trkpt>
      <trkpt lat="42.6400220" lon="-7.1449100">
        <ele>713.4</ele>
        <time>2014-10-02T12:58:48Z</time>
      </trkpt>
      <trkpt lat="42.6400290" lon="-7.1449550">
        <ele>713.6</ele>
        <time>2014-10-02T12:58:49Z</time>
      </trkpt>
      <trkpt lat="42.6400350" lon="-7.1450010">
        <ele>713.9</ele>
        <time>2014-10-02T12:58:50Z</time>
      </trkpt>
      <trkpt lat="42.6400390" lon="-7.1450430">
        <ele>714.1</ele>
        <time>2014-10-02T12:58:51Z</time>
      </trkpt>
      <trkpt lat="42.6400400" lon="-7.1450850">
        <ele>714.4</ele>
        <time>2014-10-02T12:58:52Z</time>
      </trkpt>
      <trkpt lat="42.6400420" lon="-7.1451230">
        <ele>714.6</ele>
        <time>2014-10-02T12:58:53Z</time>
      </trkpt>
      <trkpt lat="42.6400450" lon="-7.1451620">
        <ele>714.8</ele>
        <time>2014-10-02T12:58:54Z</time>
      </trkpt>
      <trkpt lat="42.6400510" lon="-7.1451980">
        <ele>715.1</ele>
        <time>2014-10-02T12:58:55Z</time>
      </trkpt>
      <trkpt lat="42.6400570" lon="-7.1452370">
        <ele>715.3</ele>
        <time>2014-10-02T12:58:56Z</time>
      </trkpt>
      <trkpt lat="42.6400560" lon="-7.1452780">
        <ele>715.6</ele>
        <time>2014-10-02T12:58:57Z</time>
      </trkpt>
      <trkpt lat="42.6400650" lon="-7.1453470">
        <ele>716.0</ele>
        <time>2014-10-02T12:58:59Z</time>
      </trkpt>
      <trkpt lat="42.6400860" lon="-7.1454160">
        <ele>716.5</ele>
        <time>2014-10-02T12:59:01Z</time>
      </trkpt>
      <trkpt lat="42.6400910" lon="-7.1454530">
        <ele>716.7</ele>
        <time>2014-10-02T12:59:02Z</time>
      </trkpt>
      <trkpt lat="42.6401040" lon="-7.1454930">
        <ele>717.0</ele>
        <time>2014-10-02T12:59:03Z</time>
      </trkpt>
      <trkpt lat="42.6401150" lon="-7.1455360">
        <ele>717.3</ele>
        <time>2014-10-02T12:59:04Z</time>
      </trkpt>
      <trkpt lat="42.6401270" lon="-7.1455750">
        <ele>717.5</ele>
        <time>2014-10-02T12:59:05Z</time>
      </trkpt>
      <trkpt lat="42.6401460" lon="-7.1456130">
        <ele>717.8</ele>
        <time>2014-10-02T12:59:06Z</time>
      </trkpt>
      <trkpt lat="42.6401630" lon="-7.1456580">
        <ele>718.1</ele>
        <time>2014-10-02T12:59:07Z</time>
      </trkpt>
      <trkpt lat="42.6401750" lon="-7.1456990">
        <ele>718.3</ele>
        <time>2014-10-02T12:59:08Z</time>
      </trkpt>
      <trkpt lat="42.6401760" lon="-7.1457430">
        <ele>718.6</ele>
        <time>2014-10-02T12:59:09Z</time>
      </trkpt>
      <trkpt lat="42.6401790" lon="-7.1457920">
        <ele>718.9</ele>
        <time>2014-10-02T12:59:10Z</time>
      </trkpt>
      <trkpt lat="42.6401870" lon="-7.1458410">
        <ele>719.2</ele>
        <time>2014-10-02T12:59:11Z</time>
      </trkpt>
      <trkpt lat="42.6401930" lon="-7.1458870">
        <ele>719.5</ele>
        <time>2014-10-02T12:59:12Z</time>
      </trkpt>
      <trkpt lat="42.6401990" lon="-7.1459330">
        <ele>719.8</ele>
        <time>2014-10-02T12:59:13Z</time>
      </trkpt>
      <trkpt lat="42.6402040" lon="-7.1459820">
        <ele>720.2</ele>
        <time>2014-10-02T12:59:14Z</time>
      </trkpt>
      <trkpt lat="42.6402090" lon="-7.1460360">
        <ele>720.5</ele>
        <time>2014-10-02T12:59:15Z</time>
      </trkpt>
      <trkpt lat="42.6402140" lon="-7.1460880">
        <ele>720.8</ele>
        <time>2014-10-02T12:59:16Z</time>
      </trkpt>
      <trkpt lat="42.6402140" lon="-7.1461430">
        <ele>721.2</ele>
        <time>2014-10-02T12:59:17Z</time>
      </trkpt>
      <trkpt lat="42.6402160" lon="-7.1461890">
        <ele>721.5</ele>
        <time>2014-10-02T12:59:18Z</time>
      </trkpt>
      <trkpt lat="42.6402150" lon="-7.1462280">
        <ele>721.7</ele>
        <time>2014-10-02T12:59:19Z</time>
      </trkpt>
      <trkpt lat="42.6402150" lon="-7.1462760">
        <ele>722.1</ele>
        <time>2014-10-02T12:59:20Z</time>
      </trkpt>
      <trkpt lat="42.6402170" lon="-7.1463180">
        <ele>722.3</ele>
        <time>2014-10-02T12:59:21Z</time>
      </trkpt>
      <trkpt lat="42.6402200" lon="-7.1463680">
        <ele>722.7</ele>
        <time>2014-10-02T12:59:22Z</time>
      </trkpt>
      <trkpt lat="42.6402190" lon="-7.1464150">
        <ele>723.0</ele>
        <time>2014-10-02T12:59:23Z</time>
      </trkpt>
      <trkpt lat="42.6402180" lon="-7.1464630">
        <ele>723.4</ele>
        <time>2014-10-02T12:59:24Z</time>
      </trkpt>
      <trkpt lat="42.6402240" lon="-7.1465040">
        <ele>723.7</ele>
        <time>2014-10-02T12:59:25Z</time>
      </trkpt>
      <trkpt lat="42.6402230" lon="-7.1465450">
        <ele>724.1</ele>
        <time>2014-10-02T12:59:26Z</time>
      </trkpt>
      <trkpt lat="42.6402230" lon="-7.1465860">
        <ele>724.4</ele>
        <time>2014-10-02T12:59:27Z</time>
      </trkpt>
      <trkpt lat="42.6402200" lon="-7.1466280">
        <ele>724.7</ele>
        <time>2014-10-02T12:59:28Z</time>
      </trkpt>
      <trkpt lat="42.6402190" lon="-7.1466720">
        <ele>725.1</ele>
        <time>2014-10-02T12:59:29Z</time>
      </trkpt>
      <trkpt lat="42.6402180" lon="-7.1467190">
        <ele>725.4</ele>
        <time>2014-10-02T12:59:30Z</time>
      </trkpt>
      <trkpt lat="42.6402150" lon="-7.1467650">
        <ele>725.7</ele>
        <time>2014-10-02T12:59:31Z</time>
      </trkpt>
      <trkpt lat="42.6402150" lon="-7.1468030">
        <ele>725.9</ele>
        <time>2014-10-02T12:59:32Z</time>
      </trkpt>
      <trkpt lat="42.6402160" lon="-7.1468470">
        <ele>726.1</ele>
        <time>2014-10-02T12:59:33Z</time>
      </trkpt>
      <trkpt lat="42.6402110" lon="-7.1468840">
        <ele>726.2</ele>
        <time>2014-10-02T12:59:34Z</time>
      </trkpt>
      <trkpt lat="42.6402080" lon="-7.1469380">
        <ele>726.3</ele>
        <time>2014-10-02T12:59:36Z</time>
      </trkpt>
      <trkpt lat="42.6402110" lon="-7.1470030">
        <ele>726.6</ele>
        <time>2014-10-02T12:59:38Z</time>
      </trkpt>
      <trkpt lat="42.6402130" lon="-7.1470410">
        <ele>726.7</ele>
        <time>2014-10-02T12:59:39Z</time>
      </trkpt>
      <trkpt lat="42.6402090" lon="-7.1470780">
        <ele>726.9</ele>
        <time>2014-10-02T12:59:40Z</time>
      </trkpt>
      <trkpt lat="42.6402110" lon="-7.1471400">
        <ele>727.1</ele>
        <time>2014-10-02T12:59:42Z</time>
      </trkpt>
      <trkpt lat="42.6402160" lon="-7.1471900">
        <ele>727.3</ele>
        <time>2014-10-02T12:59:45Z</time>
      </trkpt>
      <trkpt lat="42.6402240" lon="-7.1472410">
        <ele>727.4</ele>
        <time>2014-10-02T12:59:48Z</time>
      </trkpt>
      <trkpt lat="42.6402280" lon="-7.1472920">
        <ele>727.6</ele>
        <time>2014-10-02T12:59:50Z</time>
      </trkpt>
      <trkpt lat="42.6402420" lon="-7.1473490">
        <ele>727.9</ele>
        <time>2014-10-02T12:59:52Z</time>
      </trkpt>
      <trkpt lat="42.6402620" lon="-7.1473990">
        <ele>728.2</ele>
        <time>2014-10-02T12:59:54Z</time>
      </trkpt>
      <trkpt lat="42.6402940" lon="-7.1474520">
        <ele>728.6</ele>
        <time>2014-10-02T12:59:56Z</time>
      </trkpt>
      <trkpt lat="42.6403220" lon="-7.1474890">
        <ele>729.0</ele>
        <time>2014-10-02T12:59:58Z</time>
      </trkpt>
      <trkpt lat="42.6403470" lon="-7.1475370">
        <ele>729.3</ele>
        <time>2014-10-02T13:00:00Z</time>
      </trkpt>
      <trkpt lat="42.6403750" lon="-7.1475830">
        <ele>729.7</ele>
        <time>2014-10-02T13:00:02Z</time>
      </trkpt>
      <trkpt lat="42.6403950" lon="-7.1476080">
        <ele>729.9</ele>
        <time>2014-10-02T13:00:03Z</time>
      </trkpt>
      <trkpt lat="42.6404240" lon="-7.1476540">
        <ele>730.3</ele>
        <time>2014-10-02T13:00:05Z</time>
      </trkpt>
      <trkpt lat="42.6404520" lon="-7.1477060">
        <ele>730.8</ele>
        <time>2014-10-02T13:00:07Z</time>
      </trkpt>
      <trkpt lat="42.6404730" lon="-7.1477470">
        <ele>731.2</ele>
        <time>2014-10-02T13:00:08Z</time>
      </trkpt>
      <trkpt lat="42.6404900" lon="-7.1477830">
        <ele>731.5</ele>
        <time>2014-10-02T13:00:09Z</time>
      </trkpt>
      <trkpt lat="42.6405060" lon="-7.1478210">
        <ele>731.8</ele>
        <time>2014-10-02T13:00:10Z</time>
      </trkpt>
      <trkpt lat="42.6405250" lon="-7.1478650">
        <ele>732.2</ele>
        <time>2014-10-02T13:00:11Z</time>
      </trkpt>
      <trkpt lat="42.6405400" lon="-7.1479030">
        <ele>732.5</ele>
        <time>2014-10-02T13:00:12Z</time>
      </trkpt>
      <trkpt lat="42.6405570" lon="-7.1479400">
        <ele>732.8</ele>
        <time>2014-10-02T13:00:13Z</time>
      </trkpt>
      <trkpt lat="42.6405750" lon="-7.1479820">
        <ele>733.1</ele>
        <time>2014-10-02T13:00:14Z</time>
      </trkpt>
      <trkpt lat="42.6405940" lon="-7.1480380">
        <ele>733.5</ele>
        <time>2014-10-02T13:00:16Z</time>
      </trkpt>
      <trkpt lat="42.6406140" lon="-7.1480720">
        <ele>733.7</ele>
        <time>2014-10-02T13:00:18Z</time>
      </trkpt>
      <trkpt lat="42.6406460" lon="-7.1480940">
        <ele>734.0</ele>
        <time>2014-10-02T13:00:20Z</time>
      </trkpt>
      <trkpt lat="42.6406750" lon="-7.1481280">
        <ele>734.3</ele>
        <time>2014-10-02T13:00:22Z</time>
      </trkpt>
      <trkpt lat="42.6407080" lon="-7.1481580">
        <ele>734.6</ele>
        <time>2014-10-02T13:00:24Z</time>
      </trkpt>
      <trkpt lat="42.6407420" lon="-7.1481830">
        <ele>734.8</ele>
        <time>2014-10-02T13:00:26Z</time>
      </trkpt>
      <trkpt lat="42.6407900" lon="-7.1481940">
        <ele>735.1</ele>
        <time>2014-10-02T13:00:28Z</time>
      </trkpt>
      <trkpt lat="42.6408310" lon="-7.1482090">
        <ele>735.4</ele>
        <time>2014-10-02T13:00:30Z</time>
      </trkpt>
      <trkpt lat="42.6408730" lon="-7.1482330">
        <ele>735.7</ele>
        <time>2014-10-02T13:00:32Z</time>
      </trkpt>
      <trkpt lat="42.6409040" lon="-7.1482410">
        <ele>735.9</ele>
        <time>2014-10-02T13:00:33Z</time>
      </trkpt>
      <trkpt lat="42.6409450" lon="-7.1482560">
        <ele>736.3</ele>
        <time>2014-10-02T13:00:35Z</time>
      </trkpt>
      <trkpt lat="42.6409740" lon="-7.1482730">
        <ele>736.6</ele>
        <time>2014-10-02T13:00:37Z</time>
      </trkpt>
      <trkpt lat="42.6410080" lon="-7.1482770">
        <ele>736.9</ele>
        <time>2014-10-02T13:00:38Z</time>
      </trkpt>
      <trkpt lat="42.6410450" lon="-7.1482840">
        <ele>737.2</ele>
        <time>2014-10-02T13:00:39Z</time>
      </trkpt>
      <trkpt lat="42.6410910" lon="-7.1482870">
        <ele>737.6</ele>
        <time>2014-10-02T13:00:40Z</time>
      </trkpt>
      <trkpt lat="42.6411250" lon="-7.1482930">
        <ele>737.9</ele>
        <time>2014-10-02T13:00:41Z</time>
      </trkpt>
      <trkpt lat="42.6411650" lon="-7.1483010">
        <ele>738.3</ele>
        <time>2014-10-02T13:00:42Z</time>
      </trkpt>
      <trkpt lat="42.6412040" lon="-7.1483090">
        <ele>738.6</ele>
        <time>2014-10-02T13:00:43Z</time>
      </trkpt>
      <trkpt lat="42.6412440" lon="-7.1483160">
        <ele>738.9</ele>
        <time>2014-10-02T13:00:44Z</time>
      </trkpt>
      <trkpt lat="42.6412840" lon="-7.1483300">
        <ele>739.2</ele>
        <time>2014-10-02T13:00:45Z</time>
      </trkpt>
      <trkpt lat="42.6413240" lon="-7.1483430">
        <ele>739.5</ele>
        <time>2014-10-02T13:00:46Z</time>
      </trkpt>
      <trkpt lat="42.6413620" lon="-7.1483540">
        <ele>739.8</ele>
        <time>2014-10-02T13:00:47Z</time>
      </trkpt>
      <trkpt lat="42.6414010" lon="-7.1483680">
        <ele>740.1</ele>
        <time>2014-10-02T13:00:48Z</time>
      </trkpt>
      <trkpt lat="42.6414420" lon="-7.1483850">
        <ele>740.4</ele>
        <time>2014-10-02T13:00:49Z</time>
      </trkpt>
      <trkpt lat="42.6414770" lon="-7.1484010">
        <ele>740.7</ele>
        <time>2014-10-02T13:00:50Z</time>
      </trkpt>
      <trkpt lat="42.6415130" lon="-7.1484240">
        <ele>740.9</ele>
        <time>2014-10-02T13:00:51Z</time>
      </trkpt>
      <trkpt lat="42.6415500" lon="-7.1484450">
        <ele>741.2</ele>
        <time>2014-10-02T13:00:52Z</time>
      </trkpt>
      <trkpt lat="42.6415830" lon="-7.1484630">
        <ele>741.5</ele>
        <time>2014-10-02T13:00:53Z</time>
      </trkpt>
      <trkpt lat="42.6416130" lon="-7.1484880">
        <ele>741.8</ele>
        <time>2014-10-02T13:00:54Z</time>
      </trkpt>
      <trkpt lat="42.6416400" lon="-7.1485170">
        <ele>742.1</ele>
        <time>2014-10-02T13:00:55Z</time>
      </trkpt>
      <trkpt lat="42.6416640" lon="-7.1485490">
        <ele>742.4</ele>
        <time>2014-10-02T13:00:56Z</time>
      </trkpt>
      <trkpt lat="42.6416880" lon="-7.1485820">
        <ele>742.7</ele>
        <time>2014-10-02T13:00:57Z</time>
      </trkpt>
      <trkpt lat="42.6417150" lon="-7.1486110">
        <ele>742.9</ele>
        <time>2014-10-02T13:00:58Z</time>
      </trkpt>
      <trkpt lat="42.6417410" lon="-7.1486420">
        <ele>743.3</ele>
        <time>2014-10-02T13:00:59Z</time>
      </trkpt>
      <trkpt lat="42.6417790" lon="-7.1486920">
        <ele>743.8</ele>
        <time>2014-10-02T13:01:01Z</time>
      </trkpt>
      <trkpt lat="42.6417890" lon="-7.1487310">
        <ele>744.1</ele>
        <time>2014-10-02T13:01:02Z</time>
      </trkpt>
      <trkpt lat="42.6418130" lon="-7.1487930">
        <ele>744.7</ele>
        <time>2014-10-02T13:01:04Z</time>
      </trkpt>
      <trkpt lat="42.6418230" lon="-7.1488330">
        <ele>745.1</ele>
        <time>2014-10-02T13:01:05Z</time>
      </trkpt>
      <trkpt lat="42.6418330" lon="-7.1488800">
        <ele>745.5</ele>
        <time>2014-10-02T13:01:06Z</time>
      </trkpt>
      <trkpt lat="42.6418450" lon="-7.1489260">
        <ele>745.9</ele>
        <time>2014-10-02T13:01:07Z</time>
      </trkpt>
      <trkpt lat="42.6418570" lon="-7.1489750">
        <ele>746.4</ele>
        <time>2014-10-02T13:01:08Z</time>
      </trkpt>
      <trkpt lat="42.6418580" lon="-7.1490120">
        <ele>746.7</ele>
        <time>2014-10-02T13:01:09Z</time>
      </trkpt>
      <trkpt lat="42.6418630" lon="-7.1490550">
        <ele>747.1</ele>
        <time>2014-10-02T13:01:10Z</time>
      </trkpt>
      <trkpt lat="42.6418760" lon="-7.1491230">
        <ele>747.7</ele>
        <time>2014-10-02T13:01:12Z</time>
      </trkpt>
      <trkpt lat="42.6419120" lon="-7.1491690">
        <ele>748.3</ele>
        <time>2014-10-02T13:01:14Z</time>
      </trkpt>
      <trkpt lat="42.6419360" lon="-7.1492120">
        <ele>748.8</ele>
        <time>2014-10-02T13:01:16Z</time>
      </trkpt>
      <trkpt lat="42.6419670" lon="-7.1492510">
        <ele>749.2</ele>
        <time>2014-10-02T13:01:18Z</time>
      </trkpt>
      <trkpt lat="42.6420110" lon="-7.1492920">
        <ele>749.7</ele>
        <time>2014-10-02T13:01:20Z</time>
      </trkpt>
      <trkpt lat="42.6420370" lon="-7.1493110">
        <ele>750.0</ele>
        <time>2014-10-02T13:01:21Z</time>
      </trkpt>
      <trkpt lat="42.6420650" lon="-7.1493280">
        <ele>750.2</ele>
        <time>2014-10-02T13:01:22Z</time>
      </trkpt>
      <trkpt lat="42.6421010" lon="-7.1493450">
        <ele>750.5</ele>
        <time>2014-10-02T13:01:23Z</time>
      </trkpt>
      <trkpt lat="42.6421300" lon="-7.1493560">
        <ele>750.7</ele>
        <time>2014-10-02T13:01:24Z</time>
      </trkpt>
      <trkpt lat="42.6421670" lon="-7.1493890">
        <ele>751.0</ele>
        <time>2014-10-02T13:01:26Z</time>
      </trkpt>
      <trkpt lat="42.6422090" lon="-7.1494220">
        <ele>751.4</ele>
        <time>2014-10-02T13:01:28Z</time>
      </trkpt>
      <trkpt lat="42.6422510" lon="-7.1494390">
        <ele>751.6</ele>
        <time>2014-10-02T13:01:30Z</time>
      </trkpt>
      <trkpt lat="42.6422770" lon="-7.1494480">
        <ele>751.8</ele>
        <time>2014-10-02T13:01:31Z</time>
      </trkpt>
      <trkpt lat="42.6423270" lon="-7.1494490">
        <ele>752.1</ele>
        <time>2014-10-02T13:01:33Z</time>
      </trkpt>
      <trkpt lat="42.6423750" lon="-7.1494460">
        <ele>752.4</ele>
        <time>2014-10-02T13:01:35Z</time>
      </trkpt>
      <trkpt lat="42.6424240" lon="-7.1494350">
        <ele>752.7</ele>
        <time>2014-10-02T13:01:37Z</time>
      </trkpt>
      <trkpt lat="42.6424680" lon="-7.1494310">
        <ele>753.1</ele>
        <time>2014-10-02T13:01:39Z</time>
      </trkpt>
      <trkpt lat="42.6425170" lon="-7.1494230">
        <ele>753.6</ele>
        <time>2014-10-02T13:01:41Z</time>
      </trkpt>
      <trkpt lat="42.6425630" lon="-7.1494130">
        <ele>754.0</ele>
        <time>2014-10-02T13:01:43Z</time>
      </trkpt>
      <trkpt lat="42.6426110" lon="-7.1493930">
        <ele>754.4</ele>
        <time>2014-10-02T13:01:45Z</time>
      </trkpt>
      <trkpt lat="42.6426560" lon="-7.1493760">
        <ele>754.7</ele>
        <time>2014-10-02T13:01:47Z</time>
      </trkpt>
      <trkpt lat="42.6427040" lon="-7.1493610">
        <ele>754.9</ele>
        <time>2014-10-02T13:01:49Z</time>
      </trkpt>
      <trkpt lat="42.6427340" lon="-7.1493530">
        <ele>755.1</ele>
        <time>2014-10-02T13:01:50Z</time>
      </trkpt>
      <trkpt lat="42.6427620" lon="-7.1493460">
        <ele>755.3</ele>
        <time>2014-10-02T13:01:51Z</time>
      </trkpt>
      <trkpt lat="42.6427930" lon="-7.1493300">
        <ele>755.5</ele>
        <time>2014-10-02T13:01:53Z</time>
      </trkpt>
      <trkpt lat="42.6428420" lon="-7.1493160">
        <ele>756.0</ele>
        <time>2014-10-02T13:01:55Z</time>
      </trkpt>
      <trkpt lat="42.6428850" lon="-7.1493120">
        <ele>756.3</ele>
        <time>2014-10-02T13:01:57Z</time>
      </trkpt>
      <trkpt lat="42.6429240" lon="-7.1492990">
        <ele>756.7</ele>
        <time>2014-10-02T13:01:59Z</time>
      </trkpt>
      <trkpt lat="42.6429560" lon="-7.1492970">
        <ele>756.9</ele>
        <time>2014-10-02T13:02:00Z</time>
      </trkpt>
      <trkpt lat="42.6429860" lon="-7.1492950">
        <ele>757.2</ele>
        <time>2014-10-02T13:02:01Z</time>
      </trkpt>
      <trkpt lat="42.6430160" lon="-7.1492930">
        <ele>757.5</ele>
        <time>2014-10-02T13:02:02Z</time>
      </trkpt>
      <trkpt lat="42.6430610" lon="-7.1492770">
        <ele>757.9</ele>
        <time>2014-10-02T13:02:04Z</time>
      </trkpt>
      <trkpt lat="42.6430920" lon="-7.1492720">
        <ele>758.1</ele>
        <time>2014-10-02T13:02:05Z</time>
      </trkpt>
      <trkpt lat="42.6431210" lon="-7.1492680">
        <ele>758.4</ele>
        <time>2014-10-02T13:02:06Z</time>
      </trkpt>
      <trkpt lat="42.6431680" lon="-7.1492590">
        <ele>758.8</ele>
        <time>2014-10-02T13:02:08Z</time>
      </trkpt>
      <trkpt lat="42.6432240" lon="-7.1492440">
        <ele>759.4</ele>
        <time>2014-10-02T13:02:10Z</time>
      </trkpt>
      <trkpt lat="42.6432580" lon="-7.1492390">
        <ele>759.7</ele>
        <time>2014-10-02T13:02:11Z</time>
      </trkpt>
      <trkpt lat="42.6432850" lon="-7.1492330">
        <ele>759.9</ele>
        <time>2014-10-02T13:02:12Z</time>
      </trkpt>
      <trkpt lat="42.6433120" lon="-7.1492300">
        <ele>760.2</ele>
        <time>2014-10-02T13:02:13Z</time>
      </trkpt>
      <trkpt lat="42.6433510" lon="-7.1492180">
        <ele>760.6</ele>
        <time>2014-10-02T13:02:15Z</time>
      </trkpt>
      <trkpt lat="42.6433910" lon="-7.1492030">
        <ele>761.0</ele>
        <time>2014-10-02T13:02:17Z</time>
      </trkpt>
      <trkpt lat="42.6434340" lon="-7.1491890">
        <ele>761.5</ele>
        <time>2014-10-02T13:02:19Z</time>
      </trkpt>
      <trkpt lat="42.6434730" lon="-7.1491880">
        <ele>762.0</ele>
        <time>2014-10-02T13:02:20Z</time>
      </trkpt>
      <trkpt lat="42.6435060" lon="-7.1491790">
        <ele>762.4</ele>
        <time>2014-10-02T13:02:21Z</time>
      </trkpt>
      <trkpt lat="42.6435420" lon="-7.1491700">
        <ele>762.8</ele>
        <time>2014-10-02T13:02:22Z</time>
      </trkpt>
      <trkpt lat="42.6435680" lon="-7.1491580">
        <ele>763.1</ele>
        <time>2014-10-02T13:02:23Z</time>
      </trkpt>
      <trkpt lat="42.6436120" lon="-7.1491460">
        <ele>763.5</ele>
        <time>2014-10-02T13:02:25Z</time>
      </trkpt>
      <trkpt lat="42.6436590" lon="-7.1491350">
        <ele>764.0</ele>
        <time>2014-10-02T13:02:27Z</time>
      </trkpt>
      <trkpt lat="42.6436890" lon="-7.1491370">
        <ele>764.3</ele>
        <time>2014-10-02T13:02:28Z</time>
      </trkpt>
      <trkpt lat="42.6437400" lon="-7.1491640">
        <ele>764.7</ele>
        <time>2014-10-02T13:02:30Z</time>
      </trkpt>
      <trkpt lat="42.6437710" lon="-7.1491850">
        <ele>765.0</ele>
        <time>2014-10-02T13:02:31Z</time>
      </trkpt>
      <trkpt lat="42.6438030" lon="-7.1492080">
        <ele>765.2</ele>
        <time>2014-10-02T13:02:32Z</time>
      </trkpt>
      <trkpt lat="42.6438380" lon="-7.1492430">
        <ele>765.6</ele>
        <time>2014-10-02T13:02:33Z</time>
      </trkpt>
      <trkpt lat="42.6438720" lon="-7.1492730">
        <ele>765.9</ele>
        <time>2014-10-02T13:02:34Z</time>
      </trkpt>
      <trkpt lat="42.6439070" lon="-7.1493000">
        <ele>766.2</ele>
        <time>2014-10-02T13:02:35Z</time>
      </trkpt>
      <trkpt lat="42.6439350" lon="-7.1493210">
        <ele>766.5</ele>
        <time>2014-10-02T13:02:36Z</time>
      </trkpt>
      <trkpt lat="42.6439610" lon="-7.1493380">
        <ele>766.7</ele>
        <time>2014-10-02T13:02:37Z</time>
      </trkpt>
      <trkpt lat="42.6439840" lon="-7.1493590">
        <ele>766.9</ele>
        <time>2014-10-02T13:02:38Z</time>
      </trkpt>
      <trkpt lat="42.6440190" lon="-7.1493970">
        <ele>767.2</ele>
        <time>2014-10-02T13:02:40Z</time>
      </trkpt>
      <trkpt lat="42.6440600" lon="-7.1494300">
        <ele>767.6</ele>
        <time>2014-10-02T13:02:42Z</time>
      </trkpt>
      <trkpt lat="42.6441060" lon="-7.1494570">
        <ele>768.0</ele>
        <time>2014-10-02T13:02:44Z</time>
      </trkpt>
      <trkpt lat="42.6441340" lon="-7.1494760">
        <ele>768.3</ele>
        <time>2014-10-02T13:02:45Z</time>
      </trkpt>
      <trkpt lat="42.6441600" lon="-7.1494980">
        <ele>768.6</ele>
        <time>2014-10-02T13:02:46Z</time>
      </trkpt>
      <trkpt lat="42.6441920" lon="-7.1495240">
        <ele>769.1</ele>
        <time>2014-10-02T13:02:47Z</time>
      </trkpt>
      <trkpt lat="42.6442340" lon="-7.1495630">
        <ele>769.7</ele>
        <time>2014-10-02T13:02:49Z</time>
      </trkpt>
      <trkpt lat="42.6442560" lon="-7.1495880">
        <ele>770.0</ele>
        <time>2014-10-02T13:02:50Z</time>
      </trkpt>
      <trkpt lat="42.6442780" lon="-7.1496120">
        <ele>770.3</ele>
        <time>2014-10-02T13:02:52Z</time>
      </trkpt>
      <trkpt lat="42.6442990" lon="-7.1496510">
        <ele>770.7</ele>
        <time>2014-10-02T13:02:54Z</time>
      </trkpt>
      <trkpt lat="42.6443280" lon="-7.1496820">
        <ele>771.2</ele>
        <time>2014-10-02T13:02:56Z</time>
      </trkpt>
      <trkpt lat="42.6443600" lon="-7.1497190">
        <ele>771.6</ele>
        <time>2014-10-02T13:02:58Z</time>
      </trkpt>
      <trkpt lat="42.6443890" lon="-7.1497550">
        <ele>772.1</ele>
        <time>2014-10-02T13:03:00Z</time>
      </trkpt>
      <trkpt lat="42.6444220" lon="-7.1497970">
        <ele>772.6</ele>
        <time>2014-10-02T13:03:02Z</time>
      </trkpt>
      <trkpt lat="42.6444560" lon="-7.1498340">
        <ele>773.1</ele>
        <time>2014-10-02T13:03:04Z</time>
      </trkpt>
      <trkpt lat="42.6444990" lon="-7.1498730">
        <ele>773.6</ele>
        <time>2014-10-02T13:03:06Z</time>
      </trkpt>
      <trkpt lat="42.6445300" lon="-7.1498920">
        <ele>773.9</ele>
        <time>2014-10-02T13:03:07Z</time>
      </trkpt>
      <trkpt lat="42.6445620" lon="-7.1499150">
        <ele>774.3</ele>
        <time>2014-10-02T13:03:08Z</time>
      </trkpt>
      <trkpt lat="42.6445870" lon="-7.1499390">
        <ele>774.6</ele>
        <time>2014-10-02T13:03:09Z</time>
      </trkpt>
      <trkpt lat="42.6446080" lon="-7.1499650">
        <ele>774.9</ele>
        <time>2014-10-02T13:03:10Z</time>
      </trkpt>
      <trkpt lat="42.6446340" lon="-7.1499840">
        <ele>775.2</ele>
        <time>2014-10-02T13:03:11Z</time>
      </trkpt>
      <trkpt lat="42.6446600" lon="-7.1500080">
        <ele>775.4</ele>
        <time>2014-10-02T13:03:12Z</time>
      </trkpt>
      <trkpt lat="42.6446830" lon="-7.1500330">
        <ele>775.7</ele>
        <time>2014-10-02T13:03:13Z</time>
      </trkpt>
      <trkpt lat="42.6447080" lon="-7.1500560">
        <ele>775.9</ele>
        <time>2014-10-02T13:03:14Z</time>
      </trkpt>
      <trkpt lat="42.6447570" lon="-7.1500950">
        <ele>776.3</ele>
        <time>2014-10-02T13:03:16Z</time>
      </trkpt>
      <trkpt lat="42.6447840" lon="-7.1501160">
        <ele>776.6</ele>
        <time>2014-10-02T13:03:17Z</time>
      </trkpt>
      <trkpt lat="42.6448220" lon="-7.1501590">
        <ele>776.9</ele>
        <time>2014-10-02T13:03:19Z</time>
      </trkpt>
      <trkpt lat="42.6448440" lon="-7.1501830">
        <ele>777.1</ele>
        <time>2014-10-02T13:03:20Z</time>
      </trkpt>
      <trkpt lat="42.6448690" lon="-7.1502080">
        <ele>777.3</ele>
        <time>2014-10-02T13:03:21Z</time>
      </trkpt>
      <trkpt lat="42.6448910" lon="-7.1502320">
        <ele>777.5</ele>
        <time>2014-10-02T13:03:22Z</time>
      </trkpt>
      <trkpt lat="42.6449250" lon="-7.1502750">
        <ele>777.8</ele>
        <time>2014-10-02T13:03:24Z</time>
      </trkpt>
      <trkpt lat="42.6449500" lon="-7.1503340">
        <ele>778.1</ele>
        <time>2014-10-02T13:03:26Z</time>
      </trkpt>
      <trkpt lat="42.6449650" lon="-7.1503700">
        <ele>778.2</ele>
        <time>2014-10-02T13:03:27Z</time>
      </trkpt>
      <trkpt lat="42.6449890" lon="-7.1504380">
        <ele>778.6</ele>
        <time>2014-10-02T13:03:29Z</time>
      </trkpt>
      <trkpt lat="42.6449990" lon="-7.1505130">
        <ele>779.0</ele>
        <time>2014-10-02T13:03:31Z</time>
      </trkpt>
      <trkpt lat="42.6450020" lon="-7.1505590">
        <ele>779.3</ele>
        <time>2014-10-02T13:03:33Z</time>
      </trkpt>
      <trkpt lat="42.6450080" lon="-7.1506200">
        <ele>779.8</ele>
        <time>2014-10-02T13:03:35Z</time>
      </trkpt>
      <trkpt lat="42.6450110" lon="-7.1506790">
        <ele>780.2</ele>
        <time>2014-10-02T13:03:37Z</time>
      </trkpt>
      <trkpt lat="42.6450170" lon="-7.1507420">
        <ele>780.6</ele>
        <time>2014-10-02T13:03:39Z</time>
      </trkpt>
      <trkpt lat="42.6450280" lon="-7.1508140">
        <ele>781.0</ele>
        <time>2014-10-02T13:03:41Z</time>
      </trkpt>
      <trkpt lat="42.6450300" lon="-7.1508500">
        <ele>781.2</ele>
        <time>2014-10-02T13:03:42Z</time>
      </trkpt>
      <trkpt lat="42.6450330" lon="-7.1508870">
        <ele>781.4</ele>
        <time>2014-10-02T13:03:43Z</time>
      </trkpt>
      <trkpt lat="42.6450340" lon="-7.1509290">
        <ele>781.6</ele>
        <time>2014-10-02T13:03:44Z</time>
      </trkpt>
      <trkpt lat="42.6450400" lon="-7.1509710">
        <ele>781.9</ele>
        <time>2014-10-02T13:03:45Z</time>
      </trkpt>
      <trkpt lat="42.6450420" lon="-7.1510210">
        <ele>782.1</ele>
        <time>2014-10-02T13:03:46Z</time>
      </trkpt>
      <trkpt lat="42.6450520" lon="-7.1510730">
        <ele>782.4</ele>
        <time>2014-10-02T13:03:47Z</time>
      </trkpt>
      <trkpt lat="42.6450580" lon="-7.1511260">
        <ele>782.6</ele>
        <time>2014-10-02T13:03:48Z</time>
      </trkpt>
      <trkpt lat="42.6450700" lon="-7.1511720">
        <ele>782.8</ele>
        <time>2014-10-02T13:03:49Z</time>
      </trkpt>
      <trkpt lat="42.6450830" lon="-7.1512160">
        <ele>782.9</ele>
        <time>2014-10-02T13:03:50Z</time>
      </trkpt>
      <trkpt lat="42.6451030" lon="-7.1512480">
        <ele>783.0</ele>
        <time>2014-10-02T13:03:51Z</time>
      </trkpt>
      <trkpt lat="42.6451230" lon="-7.1512840">
        <ele>783.0</ele>
        <time>2014-10-02T13:03:52Z</time>
      </trkpt>
      <trkpt lat="42.6451610" lon="-7.1513250">
        <ele>783.1</ele>
        <time>2014-10-02T13:03:54Z</time>
      </trkpt>
      <trkpt lat="42.6451910" lon="-7.1513390">
        <ele>783.0</ele>
        <time>2014-10-02T13:03:55Z</time>
      </trkpt>
      <trkpt lat="42.6452260" lon="-7.1513430">
        <ele>783.0</ele>
        <time>2014-10-02T13:03:56Z</time>
      </trkpt>
      <trkpt lat="42.6452610" lon="-7.1513450">
        <ele>782.9</ele>
        <time>2014-10-02T13:03:57Z</time>
      </trkpt>
      <trkpt lat="42.6453000" lon="-7.1513430">
        <ele>782.9</ele>
        <time>2014-10-02T13:03:58Z</time>
      </trkpt>
      <trkpt lat="42.6453350" lon="-7.1513400">
        <ele>782.8</ele>
        <time>2014-10-02T13:03:59Z</time>
      </trkpt>
      <trkpt lat="42.6453680" lon="-7.1513370">
        <ele>782.7</ele>
        <time>2014-10-02T13:04:00Z</time>
      </trkpt>
      <trkpt lat="42.6453980" lon="-7.1513350">
        <ele>782.7</ele>
        <time>2014-10-02T13:04:01Z</time>
      </trkpt>
      <trkpt lat="42.6454320" lon="-7.1513290">
        <ele>782.7</ele>
        <time>2014-10-02T13:04:02Z</time>
      </trkpt>
      <trkpt lat="42.6454740" lon="-7.1513230">
        <ele>782.6</ele>
        <time>2014-10-02T13:04:03Z</time>
      </trkpt>
      <trkpt lat="42.6455130" lon="-7.1513090">
        <ele>782.6</ele>
        <time>2014-10-02T13:04:04Z</time>
      </trkpt>
      <trkpt lat="42.6455500" lon="-7.1512940">
        <ele>782.7</ele>
        <time>2014-10-02T13:04:05Z</time>
      </trkpt>
      <trkpt lat="42.6455840" lon="-7.1512860">
        <ele>782.7</ele>
        <time>2014-10-02T13:04:06Z</time>
      </trkpt>
      <trkpt lat="42.6456140" lon="-7.1512860">
        <ele>782.7</ele>
        <time>2014-10-02T13:04:07Z</time>
      </trkpt>
      <trkpt lat="42.6456460" lon="-7.1512880">
        <ele>782.8</ele>
        <time>2014-10-02T13:04:08Z</time>
      </trkpt>
      <trkpt lat="42.6456750" lon="-7.1512880">
        <ele>782.9</ele>
        <time>2014-10-02T13:04:09Z</time>
      </trkpt>
      <trkpt lat="42.6457030" lon="-7.1512870">
        <ele>783.0</ele>
        <time>2014-10-02T13:04:10Z</time>
      </trkpt>
      <trkpt lat="42.6457360" lon="-7.1512770">
        <ele>783.1</ele>
        <time>2014-10-02T13:04:11Z</time>
      </trkpt>
      <trkpt lat="42.6457820" lon="-7.1512500">
        <ele>783.2</ele>
        <time>2014-10-02T13:04:13Z</time>
      </trkpt>
      <trkpt lat="42.6458110" lon="-7.1512440">
        <ele>783.1</ele>
        <time>2014-10-02T13:04:14Z</time>
      </trkpt>
      <trkpt lat="42.6458420" lon="-7.1512380">
        <ele>783.0</ele>
        <time>2014-10-02T13:04:15Z</time>
      </trkpt>
      <trkpt lat="42.6458760" lon="-7.1512280">
        <ele>782.8</ele>
        <time>2014-10-02T13:04:16Z</time>
      </trkpt>
      <trkpt lat="42.6459250" lon="-7.1512140">
        <ele>782.8</ele>
        <time>2014-10-02T13:04:18Z</time>
      </trkpt>
      <trkpt lat="42.6459890" lon="-7.1512060">
        <ele>783.5</ele>
        <time>2014-10-02T13:04:20Z</time>
      </trkpt>
      <trkpt lat="42.6460260" lon="-7.1511990">
        <ele>783.9</ele>
        <time>2014-10-02T13:04:21Z</time>
      </trkpt>
      <trkpt lat="42.6460540" lon="-7.1511950">
        <ele>784.1</ele>
        <time>2014-10-02T13:04:22Z</time>
      </trkpt>
      <trkpt lat="42.6460960" lon="-7.1511880">
        <ele>784.6</ele>
        <time>2014-10-02T13:04:24Z</time>
      </trkpt>
      <trkpt lat="42.6461260" lon="-7.1511920">
        <ele>784.8</ele>
        <time>2014-10-02T13:04:25Z</time>
      </trkpt>
      <trkpt lat="42.6461570" lon="-7.1511980">
        <ele>785.1</ele>
        <time>2014-10-02T13:04:26Z</time>
      </trkpt>
      <trkpt lat="42.6462060" lon="-7.1512110">
        <ele>785.5</ele>
        <time>2014-10-02T13:04:28Z</time>
      </trkpt>
      <trkpt lat="42.6462350" lon="-7.1512160">
        <ele>785.8</ele>
        <time>2014-10-02T13:04:29Z</time>
      </trkpt>
      <trkpt lat="42.6462880" lon="-7.1512170">
        <ele>786.2</ele>
        <time>2014-10-02T13:04:31Z</time>
      </trkpt>
      <trkpt lat="42.6463310" lon="-7.1512230">
        <ele>786.6</ele>
        <time>2014-10-02T13:04:33Z</time>
      </trkpt>
      <trkpt lat="42.6463770" lon="-7.1512230">
        <ele>787.1</ele>
        <time>2014-10-02T13:04:35Z</time>
      </trkpt>
      <trkpt lat="42.6464050" lon="-7.1512240">
        <ele>787.4</ele>
        <time>2014-10-02T13:04:36Z</time>
      </trkpt>
      <trkpt lat="42.6464540" lon="-7.1512310">
        <ele>788.0</ele>
        <time>2014-10-02T13:04:38Z</time>
      </trkpt>
      <trkpt lat="42.6464860" lon="-7.1512340">
        <ele>788.4</ele>
        <time>2014-10-02T13:04:39Z</time>
      </trkpt>
      <trkpt lat="42.6465170" lon="-7.1512330">
        <ele>788.8</ele>
        <time>2014-10-02T13:04:40Z</time>
      </trkpt>
      <trkpt lat="42.6465710" lon="-7.1512260">
        <ele>789.6</ele>
        <time>2014-10-02T13:04:42Z</time>
      </trkpt>
      <trkpt lat="42.6466040" lon="-7.1512290">
        <ele>790.0</ele>
        <time>2014-10-02T13:04:43Z</time>
      </trkpt>
      <trkpt lat="42.6466340" lon="-7.1512330">
        <ele>790.3</ele>
        <time>2014-10-02T13:04:44Z</time>
      </trkpt>
      <trkpt lat="42.6466640" lon="-7.1512420">
        <ele>790.7</ele>
        <time>2014-10-02T13:04:45Z</time>
      </trkpt>
      <trkpt lat="42.6466920" lon="-7.1512430">
        <ele>791.0</ele>
        <time>2014-10-02T13:04:46Z</time>
      </trkpt>
      <trkpt lat="42.6467200" lon="-7.1512450">
        <ele>791.3</ele>
        <time>2014-10-02T13:04:47Z</time>
      </trkpt>
      <trkpt lat="42.6467440" lon="-7.1512660">
        <ele>791.7</ele>
        <time>2014-10-02T13:04:48Z</time>
      </trkpt>
      <trkpt lat="42.6467740" lon="-7.1512750">
        <ele>792.0</ele>
        <time>2014-10-02T13:04:49Z</time>
      </trkpt>
      <trkpt lat="42.6468080" lon="-7.1512800">
        <ele>792.5</ele>
        <time>2014-10-02T13:04:50Z</time>
      </trkpt>
      <trkpt lat="42.6468430" lon="-7.1512870">
        <ele>793.0</ele>
        <time>2014-10-02T13:04:51Z</time>
      </trkpt>
      <trkpt lat="42.6468730" lon="-7.1512910">
        <ele>793.3</ele>
        <time>2014-10-02T13:04:52Z</time>
      </trkpt>
      <trkpt lat="42.6469100" lon="-7.1512980">
        <ele>793.8</ele>
        <time>2014-10-02T13:04:53Z</time>
      </trkpt>
      <trkpt lat="42.6469440" lon="-7.1513010">
        <ele>794.3</ele>
        <time>2014-10-02T13:04:54Z</time>
      </trkpt>
      <trkpt lat="42.6469760" lon="-7.1513070">
        <ele>794.7</ele>
        <time>2014-10-02T13:04:55Z</time>
      </trkpt>
      <trkpt lat="42.6470040" lon="-7.1513160">
        <ele>795.1</ele>
        <time>2014-10-02T13:04:56Z</time>
      </trkpt>
      <trkpt lat="42.6470350" lon="-7.1513200">
        <ele>795.5</ele>
        <time>2014-10-02T13:04:57Z</time>
      </trkpt>
      <trkpt lat="42.6470660" lon="-7.1513230">
        <ele>795.9</ele>
        <time>2014-10-02T13:04:58Z</time>
      </trkpt>
      <trkpt lat="42.6471000" lon="-7.1513190">
        <ele>796.4</ele>
        <time>2014-10-02T13:04:59Z</time>
      </trkpt>
      <trkpt lat="42.6471340" lon="-7.1513140">
        <ele>796.9</ele>
        <time>2014-10-02T13:05:00Z</time>
      </trkpt>
      <trkpt lat="42.6471690" lon="-7.1513080">
        <ele>797.3</ele>
        <time>2014-10-02T13:05:01Z</time>
      </trkpt>
      <trkpt lat="42.6472000" lon="-7.1513050">
        <ele>797.7</ele>
        <time>2014-10-02T13:05:02Z</time>
      </trkpt>
      <trkpt lat="42.6472280" lon="-7.1513130">
        <ele>798.1</ele>
        <time>2014-10-02T13:05:03Z</time>
      </trkpt>
      <trkpt lat="42.6472760" lon="-7.1513450">
        <ele>798.8</ele>
        <time>2014-10-02T13:05:05Z</time>
      </trkpt>
      <trkpt lat="42.6472990" lon="-7.1513700">
        <ele>799.1</ele>
        <time>2014-10-02T13:05:06Z</time>
      </trkpt>
      <trkpt lat="42.6473210" lon="-7.1513930">
        <ele>799.4</ele>
        <time>2014-10-02T13:05:07Z</time>
      </trkpt>
      <trkpt lat="42.6473800" lon="-7.1514230">
        <ele>800.0</ele>
        <time>2014-10-02T13:05:09Z</time>
      </trkpt>
      <trkpt lat="42.6474100" lon="-7.1514370">
        <ele>800.3</ele>
        <time>2014-10-02T13:05:10Z</time>
      </trkpt>
      <trkpt lat="42.6474550" lon="-7.1514640">
        <ele>800.6</ele>
        <time>2014-10-02T13:05:12Z</time>
      </trkpt>
      <trkpt lat="42.6474960" lon="-7.1514900">
        <ele>800.8</ele>
        <time>2014-10-02T13:05:14Z</time>
      </trkpt>
      <trkpt lat="42.6475430" lon="-7.1515260">
        <ele>801.1</ele>
        <time>2014-10-02T13:05:16Z</time>
      </trkpt>
      <trkpt lat="42.6475680" lon="-7.1515440">
        <ele>801.3</ele>
        <time>2014-10-02T13:05:17Z</time>
      </trkpt>
      <trkpt lat="42.6475900" lon="-7.1515660">
        <ele>801.5</ele>
        <time>2014-10-02T13:05:18Z</time>
      </trkpt>
      <trkpt lat="42.6476270" lon="-7.1515850">
        <ele>801.7</ele>
        <time>2014-10-02T13:05:19Z</time>
      </trkpt>
      <trkpt lat="42.6476540" lon="-7.1516030">
        <ele>801.8</ele>
        <time>2014-10-02T13:05:20Z</time>
      </trkpt>
      <trkpt lat="42.6476790" lon="-7.1516250">
        <ele>802.0</ele>
        <time>2014-10-02T13:05:21Z</time>
      </trkpt>
      <trkpt lat="42.6477030" lon="-7.1516440">
        <ele>802.1</ele>
        <time>2014-10-02T13:05:22Z</time>
      </trkpt>
      <trkpt lat="42.6477290" lon="-7.1516580">
        <ele>802.3</ele>
        <time>2014-10-02T13:05:23Z</time>
      </trkpt>
      <trkpt lat="42.6477600" lon="-7.1516710">
        <ele>802.5</ele>
        <time>2014-10-02T13:05:24Z</time>
      </trkpt>
      <trkpt lat="42.6477850" lon="-7.1516900">
        <ele>802.7</ele>
        <time>2014-10-02T13:05:25Z</time>
      </trkpt>
      <trkpt lat="42.6478150" lon="-7.1517110">
        <ele>802.9</ele>
        <time>2014-10-02T13:05:26Z</time>
      </trkpt>
      <trkpt lat="42.6478540" lon="-7.1517280">
        <ele>803.3</ele>
        <time>2014-10-02T13:05:27Z</time>
      </trkpt>
      <trkpt lat="42.6478950" lon="-7.1517420">
        <ele>803.6</ele>
        <time>2014-10-02T13:05:28Z</time>
      </trkpt>
      <trkpt lat="42.6479360" lon="-7.1517500">
        <ele>804.0</ele>
        <time>2014-10-02T13:05:29Z</time>
      </trkpt>
      <trkpt lat="42.6479820" lon="-7.1517710">
        <ele>804.3</ele>
        <time>2014-10-02T13:05:30Z</time>
      </trkpt>
      <trkpt lat="42.6480330" lon="-7.1517880">
        <ele>804.7</ele>
        <time>2014-10-02T13:05:31Z</time>
      </trkpt>
      <trkpt lat="42.6480800" lon="-7.1518110">
        <ele>805.0</ele>
        <time>2014-10-02T13:05:32Z</time>
      </trkpt>
      <trkpt lat="42.6481010" lon="-7.1518390">
        <ele>805.2</ele>
        <time>2014-10-02T13:05:33Z</time>
      </trkpt>
      <trkpt lat="42.6481240" lon="-7.1518670">
        <ele>805.4</ele>
        <time>2014-10-02T13:05:34Z</time>
      </trkpt>
      <trkpt lat="42.6481570" lon="-7.1518970">
        <ele>805.6</ele>
        <time>2014-10-02T13:05:35Z</time>
      </trkpt>
      <trkpt lat="42.6481860" lon="-7.1519210">
        <ele>805.8</ele>
        <time>2014-10-02T13:05:36Z</time>
      </trkpt>
      <trkpt lat="42.6482170" lon="-7.1519440">
        <ele>806.0</ele>
        <time>2014-10-02T13:05:37Z</time>
      </trkpt>
      <trkpt lat="42.6482490" lon="-7.1519590">
        <ele>806.2</ele>
        <time>2014-10-02T13:05:38Z</time>
      </trkpt>
      <trkpt lat="42.6482920" lon="-7.1520000">
        <ele>806.4</ele>
        <time>2014-10-02T13:05:40Z</time>
      </trkpt>
      <trkpt lat="42.6483190" lon="-7.1520290">
        <ele>806.6</ele>
        <time>2014-10-02T13:05:41Z</time>
      </trkpt>
      <trkpt lat="42.6483560" lon="-7.1520490">
        <ele>806.8</ele>
        <time>2014-10-02T13:05:42Z</time>
      </trkpt>
      <trkpt lat="42.6483870" lon="-7.1520690">
        <ele>807.0</ele>
        <time>2014-10-02T13:05:43Z</time>
      </trkpt>
      <trkpt lat="42.6484290" lon="-7.1521140">
        <ele>807.2</ele>
        <time>2014-10-02T13:05:45Z</time>
      </trkpt>
      <trkpt lat="42.6484590" lon="-7.1521450">
        <ele>807.3</ele>
        <time>2014-10-02T13:05:46Z</time>
      </trkpt>
      <trkpt lat="42.6484890" lon="-7.1521740">
        <ele>807.5</ele>
        <time>2014-10-02T13:05:47Z</time>
      </trkpt>
      <trkpt lat="42.6485170" lon="-7.1522000">
        <ele>807.6</ele>
        <time>2014-10-02T13:05:48Z</time>
      </trkpt>
      <trkpt lat="42.6485510" lon="-7.1522230">
        <ele>807.8</ele>
        <time>2014-10-02T13:05:49Z</time>
      </trkpt>
      <trkpt lat="42.6485830" lon="-7.1522500">
        <ele>808.0</ele>
        <time>2014-10-02T13:05:50Z</time>
      </trkpt>
      <trkpt lat="42.6486170" lon="-7.1522750">
        <ele>808.1</ele>
        <time>2014-10-02T13:05:51Z</time>
      </trkpt>
      <trkpt lat="42.6486460" lon="-7.1522960">
        <ele>808.3</ele>
        <time>2014-10-02T13:05:52Z</time>
      </trkpt>
      <trkpt lat="42.6486690" lon="-7.1523210">
        <ele>808.3</ele>
        <time>2014-10-02T13:05:53Z</time>
      </trkpt>
      <trkpt lat="42.6486960" lon="-7.1523430">
        <ele>808.4</ele>
        <time>2014-10-02T13:05:54Z</time>
      </trkpt>
      <trkpt lat="42.6487280" lon="-7.1523600">
        <ele>808.5</ele>
        <time>2014-10-02T13:05:55Z</time>
      </trkpt>
      <trkpt lat="42.6487590" lon="-7.1523790">
        <ele>808.6</ele>
        <time>2014-10-02T13:05:56Z</time>
      </trkpt>
      <trkpt lat="42.6487900" lon="-7.1523910">
        <ele>808.7</ele>
        <time>2014-10-02T13:05:57Z</time>
      </trkpt>
      <trkpt lat="42.6488250" lon="-7.1524070">
        <ele>808.7</ele>
        <time>2014-10-02T13:05:58Z</time>
      </trkpt>
      <trkpt lat="42.6488620" lon="-7.1524190">
        <ele>808.8</ele>
        <time>2014-10-02T13:05:59Z</time>
      </trkpt>
      <trkpt lat="42.6488960" lon="-7.1524220">
        <ele>808.9</ele>
        <time>2014-10-02T13:06:00Z</time>
      </trkpt>
      <trkpt lat="42.6489340" lon="-7.1524300">
        <ele>809.0</ele>
        <time>2014-10-02T13:06:01Z</time>
      </trkpt>
      <trkpt lat="42.6489670" lon="-7.1524420">
        <ele>809.0</ele>
        <time>2014-10-02T13:06:02Z</time>
      </trkpt>
      <trkpt lat="42.6490120" lon="-7.1524510">
        <ele>809.1</ele>
        <time>2014-10-02T13:06:03Z</time>
      </trkpt>
      <trkpt lat="42.6490490" lon="-7.1524660">
        <ele>809.1</ele>
        <time>2014-10-02T13:06:04Z</time>
      </trkpt>
      <trkpt lat="42.6490820" lon="-7.1524880">
        <ele>809.2</ele>
        <time>2014-10-02T13:06:05Z</time>
      </trkpt>
      <trkpt lat="42.6491280" lon="-7.1525170">
        <ele>809.2</ele>
        <time>2014-10-02T13:06:06Z</time>
      </trkpt>
      <trkpt lat="42.6491720" lon="-7.1525460">
        <ele>809.3</ele>
        <time>2014-10-02T13:06:07Z</time>
      </trkpt>
      <trkpt lat="42.6492150" lon="-7.1525820">
        <ele>809.5</ele>
        <time>2014-10-02T13:06:08Z</time>
      </trkpt>
      <trkpt lat="42.6492440" lon="-7.1526080">
        <ele>809.5</ele>
        <time>2014-10-02T13:06:09Z</time>
      </trkpt>
      <trkpt lat="42.6492930" lon="-7.1526340">
        <ele>809.7</ele>
        <time>2014-10-02T13:06:10Z</time>
      </trkpt>
      <trkpt lat="42.6493430" lon="-7.1526610">
        <ele>809.8</ele>
        <time>2014-10-02T13:06:11Z</time>
      </trkpt>
      <trkpt lat="42.6493790" lon="-7.1526960">
        <ele>809.9</ele>
        <time>2014-10-02T13:06:12Z</time>
      </trkpt>
      <trkpt lat="42.6494020" lon="-7.1527420">
        <ele>810.0</ele>
        <time>2014-10-02T13:06:13Z</time>
      </trkpt>
      <trkpt lat="42.6494290" lon="-7.1528090">
        <ele>810.1</ele>
        <time>2014-10-02T13:06:15Z</time>
      </trkpt>
      <trkpt lat="42.6494690" lon="-7.1528470">
        <ele>810.3</ele>
        <time>2014-10-02T13:06:16Z</time>
      </trkpt>
      <trkpt lat="42.6495110" lon="-7.1528840">
        <ele>810.5</ele>
        <time>2014-10-02T13:06:17Z</time>
      </trkpt>
      <trkpt lat="42.6495580" lon="-7.1529270">
        <ele>810.8</ele>
        <time>2014-10-02T13:06:18Z</time>
      </trkpt>
      <trkpt lat="42.6496070" lon="-7.1529740">
        <ele>811.1</ele>
        <time>2014-10-02T13:06:19Z</time>
      </trkpt>
      <trkpt lat="42.6496650" lon="-7.1530080">
        <ele>811.3</ele>
        <time>2014-10-02T13:06:20Z</time>
      </trkpt>
      <trkpt lat="42.6497090" lon="-7.1530470">
        <ele>811.5</ele>
        <time>2014-10-02T13:06:21Z</time>
      </trkpt>
      <trkpt lat="42.6497610" lon="-7.1531020">
        <ele>811.7</ele>
        <time>2014-10-02T13:06:22Z</time>
      </trkpt>
      <trkpt lat="42.6498070" lon="-7.1531460">
        <ele>811.9</ele>
        <time>2014-10-02T13:06:23Z</time>
      </trkpt>
      <trkpt lat="42.6498720" lon="-7.1531830">
        <ele>812.1</ele>
        <time>2014-10-02T13:06:24Z</time>
      </trkpt>
      <trkpt lat="42.6499200" lon="-7.1532160">
        <ele>812.4</ele>
        <time>2014-10-02T13:06:25Z</time>
      </trkpt>
      <trkpt lat="42.6499690" lon="-7.1532490">
        <ele>812.6</ele>
        <time>2014-10-02T13:06:26Z</time>
      </trkpt>
      <trkpt lat="42.6500140" lon="-7.1532690">
        <ele>812.9</ele>
        <time>2014-10-02T13:06:27Z</time>
      </trkpt>
      <trkpt lat="42.6500640" lon="-7.1532820">
        <ele>813.1</ele>
        <time>2014-10-02T13:06:28Z</time>
      </trkpt>
      <trkpt lat="42.6501110" lon="-7.1532870">
        <ele>813.3</ele>
        <time>2014-10-02T13:06:29Z</time>
      </trkpt>
      <trkpt lat="42.6501640" lon="-7.1532880">
        <ele>813.6</ele>
        <time>2014-10-02T13:06:30Z</time>
      </trkpt>
      <trkpt lat="42.6502210" lon="-7.1532790">
        <ele>813.8</ele>
        <time>2014-10-02T13:06:31Z</time>
      </trkpt>
      <trkpt lat="42.6502740" lon="-7.1532700">
        <ele>813.9</ele>
        <time>2014-10-02T13:06:32Z</time>
      </trkpt>
      <trkpt lat="42.6503240" lon="-7.1532560">
        <ele>814.1</ele>
        <time>2014-10-02T13:06:33Z</time>
      </trkpt>
      <trkpt lat="42.6503700" lon="-7.1532410">
        <ele>814.3</ele>
        <time>2014-10-02T13:06:34Z</time>
      </trkpt>
      <trkpt lat="42.6504160" lon="-7.1532290">
        <ele>814.5</ele>
        <time>2014-10-02T13:06:35Z</time>
      </trkpt>
      <trkpt lat="42.6504580" lon="-7.1532080">
        <ele>814.7</ele>
        <time>2014-10-02T13:06:36Z</time>
      </trkpt>
      <trkpt lat="42.6504860" lon="-7.1531820">
        <ele>814.9</ele>
        <time>2014-10-02T13:06:37Z</time>
      </trkpt>
      <trkpt lat="42.6505230" lon="-7.1531460">
        <ele>815.0</ele>
        <time>2014-10-02T13:06:38Z</time>
      </trkpt>
      <trkpt lat="42.6505540" lon="-7.1531110">
        <ele>815.2</ele>
        <time>2014-10-02T13:06:39Z</time>
      </trkpt>
      <trkpt lat="42.6505950" lon="-7.1530760">
        <ele>815.3</ele>
        <time>2014-10-02T13:06:40Z</time>
      </trkpt>
      <trkpt lat="42.6506280" lon="-7.1530300">
        <ele>815.5</ele>
        <time>2014-10-02T13:06:41Z</time>
      </trkpt>
      <trkpt lat="42.6506610" lon="-7.1529810">
        <ele>815.6</ele>
        <time>2014-10-02T13:06:42Z</time>
      </trkpt>
      <trkpt lat="42.6506920" lon="-7.1529280">
        <ele>815.8</ele>
        <time>2014-10-02T13:06:43Z</time>
      </trkpt>
      <trkpt lat="42.6507190" lon="-7.1528800">
        <ele>815.9</ele>
        <time>2014-10-02T13:06:44Z</time>
      </trkpt>
      <trkpt lat="42.6507440" lon="-7.1528320">
        <ele>816.1</ele>
        <time>2014-10-02T13:06:45Z</time>
      </trkpt>
      <trkpt lat="42.6507590" lon="-7.1527860">
        <ele>816.2</ele>
        <time>2014-10-02T13:06:46Z</time>
      </trkpt>
      <trkpt lat="42.6507760" lon="-7.1527310">
        <ele>816.4</ele>
        <time>2014-10-02T13:06:47Z</time>
      </trkpt>
      <trkpt lat="42.6508280" lon="-7.1526810">
        <ele>816.6</ele>
        <time>2014-10-02T13:06:49Z</time>
      </trkpt>
      <trkpt lat="42.6508670" lon="-7.1526560">
        <ele>816.7</ele>
        <time>2014-10-02T13:06:50Z</time>
      </trkpt>
      <trkpt lat="42.6508940" lon="-7.1526640">
        <ele>816.8</ele>
        <time>2014-10-02T13:06:51Z</time>
      </trkpt>
      <trkpt lat="42.6509240" lon="-7.1526680">
        <ele>816.9</ele>
        <time>2014-10-02T13:06:52Z</time>
      </trkpt>
      <trkpt lat="42.6509650" lon="-7.1526730">
        <ele>816.9</ele>
        <time>2014-10-02T13:06:53Z</time>
      </trkpt>
      <trkpt lat="42.6509970" lon="-7.1526740">
        <ele>817.0</ele>
        <time>2014-10-02T13:06:54Z</time>
      </trkpt>
      <trkpt lat="42.6510360" lon="-7.1526870">
        <ele>817.1</ele>
        <time>2014-10-02T13:06:55Z</time>
      </trkpt>
      <trkpt lat="42.6510850" lon="-7.1527140">
        <ele>817.2</ele>
        <time>2014-10-02T13:06:56Z</time>
      </trkpt>
      <trkpt lat="42.6511290" lon="-7.1527430">
        <ele>817.4</ele>
        <time>2014-10-02T13:06:57Z</time>
      </trkpt>
      <trkpt lat="42.6511660" lon="-7.1527790">
        <ele>817.6</ele>
        <time>2014-10-02T13:06:58Z</time>
      </trkpt>
      <trkpt lat="42.6512180" lon="-7.1528070">
        <ele>818.0</ele>
        <time>2014-10-02T13:06:59Z</time>
      </trkpt>
      <trkpt lat="42.6512590" lon="-7.1528400">
        <ele>818.3</ele>
        <time>2014-10-02T13:07:00Z</time>
      </trkpt>
      <trkpt lat="42.6513020" lon="-7.1528770">
        <ele>818.7</ele>
        <time>2014-10-02T13:07:01Z</time>
      </trkpt>
      <trkpt lat="42.6513330" lon="-7.1529120">
        <ele>819.0</ele>
        <time>2014-10-02T13:07:02Z</time>
      </trkpt>
      <trkpt lat="42.6513620" lon="-7.1529480">
        <ele>819.3</ele>
        <time>2014-10-02T13:07:03Z</time>
      </trkpt>
      <trkpt lat="42.6513960" lon="-7.1529820">
        <ele>819.6</ele>
        <time>2014-10-02T13:07:04Z</time>
      </trkpt>
      <trkpt lat="42.6514280" lon="-7.1530150">
        <ele>819.9</ele>
        <time>2014-10-02T13:07:05Z</time>
      </trkpt>
      <trkpt lat="42.6514720" lon="-7.1530620">
        <ele>820.3</ele>
        <time>2014-10-02T13:07:06Z</time>
      </trkpt>
      <trkpt lat="42.6515230" lon="-7.1531210">
        <ele>820.8</ele>
        <time>2014-10-02T13:07:07Z</time>
      </trkpt>
      <trkpt lat="42.6515620" lon="-7.1531660">
        <ele>821.2</ele>
        <time>2014-10-02T13:07:08Z</time>
      </trkpt>
      <trkpt lat="42.6515980" lon="-7.1532110">
        <ele>821.6</ele>
        <time>2014-10-02T13:07:09Z</time>
      </trkpt>
      <trkpt lat="42.6516370" lon="-7.1532660">
        <ele>822.2</ele>
        <time>2014-10-02T13:07:10Z</time>
      </trkpt>
      <trkpt lat="42.6516690" lon="-7.1533080">
        <ele>822.6</ele>
        <time>2014-10-02T13:07:11Z</time>
      </trkpt>
      <trkpt lat="42.6516990" lon="-7.1533600">
        <ele>823.0</ele>
        <time>2014-10-02T13:07:12Z</time>
      </trkpt>
      <trkpt lat="42.6517290" lon="-7.1534110">
        <ele>823.3</ele>
        <time>2014-10-02T13:07:13Z</time>
      </trkpt>
      <trkpt lat="42.6517690" lon="-7.1534760">
        <ele>823.9</ele>
        <time>2014-10-02T13:07:14Z</time>
      </trkpt>
      <trkpt lat="42.6517990" lon="-7.1535240">
        <ele>824.3</ele>
        <time>2014-10-02T13:07:15Z</time>
      </trkpt>
      <trkpt lat="42.6518240" lon="-7.1535780">
        <ele>824.7</ele>
        <time>2014-10-02T13:07:16Z</time>
      </trkpt>
      <trkpt lat="42.6518450" lon="-7.1536280">
        <ele>825.1</ele>
        <time>2014-10-02T13:07:17Z</time>
      </trkpt>
      <trkpt lat="42.6518640" lon="-7.1536720">
        <ele>825.4</ele>
        <time>2014-10-02T13:07:18Z</time>
      </trkpt>
      <trkpt lat="42.6518790" lon="-7.1537060">
        <ele>825.8</ele>
        <time>2014-10-02T13:07:19Z</time>
      </trkpt>
      <trkpt lat="42.6518980" lon="-7.1537450">
        <ele>826.2</ele>
        <time>2014-10-02T13:07:20Z</time>
      </trkpt>
      <trkpt lat="42.6519180" lon="-7.1537960">
        <ele>826.7</ele>
        <time>2014-10-02T13:07:21Z</time>
      </trkpt>
      <trkpt lat="42.6519230" lon="-7.1538370">
        <ele>827.0</ele>
        <time>2014-10-02T13:07:22Z</time>
      </trkpt>
      <trkpt lat="42.6519260" lon="-7.1538820">
        <ele>827.4</ele>
        <time>2014-10-02T13:07:23Z</time>
      </trkpt>
      <trkpt lat="42.6519310" lon="-7.1539310">
        <ele>827.9</ele>
        <time>2014-10-02T13:07:24Z</time>
      </trkpt>
      <trkpt lat="42.6519350" lon="-7.1539700">
        <ele>828.2</ele>
        <time>2014-10-02T13:07:25Z</time>
      </trkpt>
      <trkpt lat="42.6519530" lon="-7.1540180">
        <ele>828.6</ele>
        <time>2014-10-02T13:07:27Z</time>
      </trkpt>
      <trkpt lat="42.6519830" lon="-7.1540780">
        <ele>829.3</ele>
        <time>2014-10-02T13:07:29Z</time>
      </trkpt>
      <trkpt lat="42.6520000" lon="-7.1541090">
        <ele>829.6</ele>
        <time>2014-10-02T13:07:30Z</time>
      </trkpt>
      <trkpt lat="42.6520190" lon="-7.1541420">
        <ele>829.9</ele>
        <time>2014-10-02T13:07:31Z</time>
      </trkpt>
      <trkpt lat="42.6520410" lon="-7.1541750">
        <ele>830.2</ele>
        <time>2014-10-02T13:07:32Z</time>
      </trkpt>
      <trkpt lat="42.6520600" lon="-7.1542020">
        <ele>830.4</ele>
        <time>2014-10-02T13:07:33Z</time>
      </trkpt>
      <trkpt lat="42.6521030" lon="-7.1542540">
        <ele>830.8</ele>
        <time>2014-10-02T13:07:35Z</time>
      </trkpt>
      <trkpt lat="42.6521240" lon="-7.1542860">
        <ele>830.9</ele>
        <time>2014-10-02T13:07:36Z</time>
      </trkpt>
      <trkpt lat="42.6521450" lon="-7.1543120">
        <ele>831.0</ele>
        <time>2014-10-02T13:07:37Z</time>
      </trkpt>
      <trkpt lat="42.6521880" lon="-7.1543520">
        <ele>830.8</ele>
        <time>2014-10-02T13:07:39Z</time>
      </trkpt>
      <trkpt lat="42.6522160" lon="-7.1543740">
        <ele>830.7</ele>
        <time>2014-10-02T13:07:40Z</time>
      </trkpt>
      <trkpt lat="42.6522490" lon="-7.1544000">
        <ele>830.6</ele>
        <time>2014-10-02T13:07:41Z</time>
      </trkpt>
      <trkpt lat="42.6522760" lon="-7.1544250">
        <ele>830.5</ele>
        <time>2014-10-02T13:07:42Z</time>
      </trkpt>
      <trkpt lat="42.6523010" lon="-7.1544540">
        <ele>830.5</ele>
        <time>2014-10-02T13:07:43Z</time>
      </trkpt>
      <trkpt lat="42.6523260" lon="-7.1544880">
        <ele>830.4</ele>
        <time>2014-10-02T13:07:44Z</time>
      </trkpt>
      <trkpt lat="42.6523510" lon="-7.1545260">
        <ele>830.3</ele>
        <time>2014-10-02T13:07:45Z</time>
      </trkpt>
      <trkpt lat="42.6523730" lon="-7.1545600">
        <ele>830.3</ele>
        <time>2014-10-02T13:07:46Z</time>
      </trkpt>
      <trkpt lat="42.6523980" lon="-7.1546040">
        <ele>830.2</ele>
        <time>2014-10-02T13:07:47Z</time>
      </trkpt>
      <trkpt lat="42.6524220" lon="-7.1546390">
        <ele>830.1</ele>
        <time>2014-10-02T13:07:48Z</time>
      </trkpt>
      <trkpt lat="42.6524430" lon="-7.1546710">
        <ele>830.1</ele>
        <time>2014-10-02T13:07:49Z</time>
      </trkpt>
      <trkpt lat="42.6524660" lon="-7.1547040">
        <ele>830.0</ele>
        <time>2014-10-02T13:07:50Z</time>
      </trkpt>
      <trkpt lat="42.6524920" lon="-7.1547650">
        <ele>830.0</ele>
        <time>2014-10-02T13:07:52Z</time>
      </trkpt>
      <trkpt lat="42.6525090" lon="-7.1547970">
        <ele>829.9</ele>
        <time>2014-10-02T13:07:53Z</time>
      </trkpt>
      <trkpt lat="42.6525270" lon="-7.1548280">
        <ele>829.9</ele>
        <time>2014-10-02T13:07:54Z</time>
      </trkpt>
      <trkpt lat="42.6525400" lon="-7.1548820">
        <ele>829.9</ele>
        <time>2014-10-02T13:07:56Z</time>
      </trkpt>
      <trkpt lat="42.6525500" lon="-7.1549390">
        <ele>829.9</ele>
        <time>2014-10-02T13:07:57Z</time>
      </trkpt>
      <trkpt lat="42.6525610" lon="-7.1549870">
        <ele>830.0</ele>
        <time>2014-10-02T13:07:58Z</time>
      </trkpt>
      <trkpt lat="42.6525690" lon="-7.1550310">
        <ele>830.0</ele>
        <time>2014-10-02T13:07:59Z</time>
      </trkpt>
      <trkpt lat="42.6525780" lon="-7.1550820">
        <ele>830.0</ele>
        <time>2014-10-02T13:08:00Z</time>
      </trkpt>
      <trkpt lat="42.6525850" lon="-7.1551240">
        <ele>830.1</ele>
        <time>2014-10-02T13:08:01Z</time>
      </trkpt>
      <trkpt lat="42.6525880" lon="-7.1551750">
        <ele>830.2</ele>
        <time>2014-10-02T13:08:02Z</time>
      </trkpt>
      <trkpt lat="42.6525930" lon="-7.1552190">
        <ele>830.3</ele>
        <time>2014-10-02T13:08:03Z</time>
      </trkpt>
      <trkpt lat="42.6525980" lon="-7.1552620">
        <ele>830.3</ele>
        <time>2014-10-02T13:08:04Z</time>
      </trkpt>
      <trkpt lat="42.6526070" lon="-7.1553020">
        <ele>830.4</ele>
        <time>2014-10-02T13:08:05Z</time>
      </trkpt>
      <trkpt lat="42.6526110" lon="-7.1553400">
        <ele>830.5</ele>
        <time>2014-10-02T13:08:06Z</time>
      </trkpt>
      <trkpt lat="42.6526230" lon="-7.1554080">
        <ele>830.6</ele>
        <time>2014-10-02T13:08:08Z</time>
      </trkpt>
      <trkpt lat="42.6526410" lon="-7.1554780">
        <ele>830.7</ele>
        <time>2014-10-02T13:08:10Z</time>
      </trkpt>
      <trkpt lat="42.6526560" lon="-7.1555420">
        <ele>830.8</ele>
        <time>2014-10-02T13:08:12Z</time>
      </trkpt>
      <trkpt lat="42.6526660" lon="-7.1555830">
        <ele>830.9</ele>
        <time>2014-10-02T13:08:13Z</time>
      </trkpt>
      <trkpt lat="42.6526760" lon="-7.1556310">
        <ele>830.9</ele>
        <time>2014-10-02T13:08:14Z</time>
      </trkpt>
      <trkpt lat="42.6526880" lon="-7.1556730">
        <ele>830.9</ele>
        <time>2014-10-02T13:08:15Z</time>
      </trkpt>
      <trkpt lat="42.6526980" lon="-7.1557080">
        <ele>830.9</ele>
        <time>2014-10-02T13:08:16Z</time>
      </trkpt>
      <trkpt lat="42.6527100" lon="-7.1557430">
        <ele>830.9</ele>
        <time>2014-10-02T13:08:17Z</time>
      </trkpt>
      <trkpt lat="42.6527400" lon="-7.1557950">
        <ele>830.9</ele>
        <time>2014-10-02T13:08:19Z</time>
      </trkpt>
      <trkpt lat="42.6527600" lon="-7.1558370">
        <ele>830.9</ele>
        <time>2014-10-02T13:08:20Z</time>
      </trkpt>
      <trkpt lat="42.6527830" lon="-7.1558900">
        <ele>830.9</ele>
        <time>2014-10-02T13:08:21Z</time>
      </trkpt>
      <trkpt lat="42.6528070" lon="-7.1559460">
        <ele>830.9</ele>
        <time>2014-10-02T13:08:22Z</time>
      </trkpt>
      <trkpt lat="42.6528310" lon="-7.1559900">
        <ele>830.8</ele>
        <time>2014-10-02T13:08:23Z</time>
      </trkpt>
      <trkpt lat="42.6528560" lon="-7.1560450">
        <ele>830.7</ele>
        <time>2014-10-02T13:08:24Z</time>
      </trkpt>
      <trkpt lat="42.6528750" lon="-7.1561010">
        <ele>830.5</ele>
        <time>2014-10-02T13:08:25Z</time>
      </trkpt>
      <trkpt lat="42.6528980" lon="-7.1561550">
        <ele>830.4</ele>
        <time>2014-10-02T13:08:26Z</time>
      </trkpt>
      <trkpt lat="42.6529180" lon="-7.1561970">
        <ele>830.3</ele>
        <time>2014-10-02T13:08:27Z</time>
      </trkpt>
      <trkpt lat="42.6529440" lon="-7.1562460">
        <ele>830.1</ele>
        <time>2014-10-02T13:08:28Z</time>
      </trkpt>
      <trkpt lat="42.6529680" lon="-7.1562910">
        <ele>829.9</ele>
        <time>2014-10-02T13:08:29Z</time>
      </trkpt>
      <trkpt lat="42.6529920" lon="-7.1563400">
        <ele>829.6</ele>
        <time>2014-10-02T13:08:30Z</time>
      </trkpt>
      <trkpt lat="42.6530250" lon="-7.1563800">
        <ele>829.4</ele>
        <time>2014-10-02T13:08:31Z</time>
      </trkpt>
      <trkpt lat="42.6530630" lon="-7.1564170">
        <ele>829.1</ele>
        <time>2014-10-02T13:08:32Z</time>
      </trkpt>
      <trkpt lat="42.6530980" lon="-7.1564540">
        <ele>828.8</ele>
        <time>2014-10-02T13:08:33Z</time>
      </trkpt>
      <trkpt lat="42.6531300" lon="-7.1564840">
        <ele>828.6</ele>
        <time>2014-10-02T13:08:34Z</time>
      </trkpt>
      <trkpt lat="42.6531640" lon="-7.1565150">
        <ele>828.4</ele>
        <time>2014-10-02T13:08:35Z</time>
      </trkpt>
      <trkpt lat="42.6531950" lon="-7.1565470">
        <ele>828.1</ele>
        <time>2014-10-02T13:08:36Z</time>
      </trkpt>
      <trkpt lat="42.6532330" lon="-7.1565770">
        <ele>827.9</ele>
        <time>2014-10-02T13:08:37Z</time>
      </trkpt>
      <trkpt lat="42.6532750" lon="-7.1566060">
        <ele>827.6</ele>
        <time>2014-10-02T13:08:38Z</time>
      </trkpt>
      <trkpt lat="42.6533190" lon="-7.1566370">
        <ele>827.3</ele>
        <time>2014-10-02T13:08:39Z</time>
      </trkpt>
      <trkpt lat="42.6533610" lon="-7.1566640">
        <ele>827.1</ele>
        <time>2014-10-02T13:08:40Z</time>
      </trkpt>
      <trkpt lat="42.6534030" lon="-7.1566930">
        <ele>826.8</ele>
        <time>2014-10-02T13:08:41Z</time>
      </trkpt>
      <trkpt lat="42.6534430" lon="-7.1567180">
        <ele>826.6</ele>
        <time>2014-10-02T13:08:42Z</time>
      </trkpt>
      <trkpt lat="42.6534830" lon="-7.1567450">
        <ele>826.4</ele>
        <time>2014-10-02T13:08:43Z</time>
      </trkpt>
      <trkpt lat="42.6535230" lon="-7.1567620">
        <ele>826.3</ele>
        <time>2014-10-02T13:08:44Z</time>
      </trkpt>
      <trkpt lat="42.6535610" lon="-7.1567750">
        <ele>826.1</ele>
        <time>2014-10-02T13:08:45Z</time>
      </trkpt>
      <trkpt lat="42.6536080" lon="-7.1567920">
        <ele>826.6</ele>
        <time>2014-10-02T13:08:46Z</time>
      </trkpt>
      <trkpt lat="42.6536600" lon="-7.1568100">
        <ele>827.5</ele>
        <time>2014-10-02T13:08:47Z</time>
      </trkpt>
      <trkpt lat="42.6537100" lon="-7.1568130">
        <ele>828.2</ele>
        <time>2014-10-02T13:08:48Z</time>
      </trkpt>
      <trkpt lat="42.6537630" lon="-7.1568140">
        <ele>828.8</ele>
        <time>2014-10-02T13:08:49Z</time>
      </trkpt>
      <trkpt lat="42.6538100" lon="-7.1568140">
        <ele>829.3</ele>
        <time>2014-10-02T13:08:50Z</time>
      </trkpt>
      <trkpt lat="42.6538600" lon="-7.1568140">
        <ele>829.8</ele>
        <time>2014-10-02T13:08:51Z</time>
      </trkpt>
      <trkpt lat="42.6539060" lon="-7.1568180">
        <ele>830.2</ele>
        <time>2014-10-02T13:08:52Z</time>
      </trkpt>
      <trkpt lat="42.6539470" lon="-7.1568180">
        <ele>830.6</ele>
        <time>2014-10-02T13:08:53Z</time>
      </trkpt>
      <trkpt lat="42.6539830" lon="-7.1568150">
        <ele>831.0</ele>
        <time>2014-10-02T13:08:54Z</time>
      </trkpt>
      <trkpt lat="42.6540230" lon="-7.1568050">
        <ele>831.5</ele>
        <time>2014-10-02T13:08:55Z</time>
      </trkpt>
      <trkpt lat="42.6540630" lon="-7.1567930">
        <ele>831.9</ele>
        <time>2014-10-02T13:08:56Z</time>
      </trkpt>
      <trkpt lat="42.6540970" lon="-7.1567770">
        <ele>832.3</ele>
        <time>2014-10-02T13:08:57Z</time>
      </trkpt>
      <trkpt lat="42.6541320" lon="-7.1567640">
        <ele>832.6</ele>
        <time>2014-10-02T13:08:58Z</time>
      </trkpt>
      <trkpt lat="42.6541660" lon="-7.1567500">
        <ele>832.9</ele>
        <time>2014-10-02T13:08:59Z</time>
      </trkpt>
      <trkpt lat="42.6541910" lon="-7.1567330">
        <ele>833.2</ele>
        <time>2014-10-02T13:09:00Z</time>
      </trkpt>
      <trkpt lat="42.6542210" lon="-7.1567150">
        <ele>833.5</ele>
        <time>2014-10-02T13:09:01Z</time>
      </trkpt>
      <trkpt lat="42.6542520" lon="-7.1566940">
        <ele>833.8</ele>
        <time>2014-10-02T13:09:02Z</time>
      </trkpt>
      <trkpt lat="42.6542850" lon="-7.1566780">
        <ele>834.5</ele>
        <time>2014-10-02T13:09:03Z</time>
      </trkpt>
      <trkpt lat="42.6543150" lon="-7.1566530">
        <ele>835.3</ele>
        <time>2014-10-02T13:09:04Z</time>
      </trkpt>
      <trkpt lat="42.6543480" lon="-7.1566310">
        <ele>836.2</ele>
        <time>2014-10-02T13:09:05Z</time>
      </trkpt>
      <trkpt lat="42.6543860" lon="-7.1566160">
        <ele>837.1</ele>
        <time>2014-10-02T13:09:06Z</time>
      </trkpt>
      <trkpt lat="42.6544410" lon="-7.1565900">
        <ele>838.5</ele>
        <time>2014-10-02T13:09:08Z</time>
      </trkpt>
      <trkpt lat="42.6544750" lon="-7.1565750">
        <ele>839.4</ele>
        <time>2014-10-02T13:09:09Z</time>
      </trkpt>
      <trkpt lat="42.6545100" lon="-7.1565620">
        <ele>840.2</ele>
        <time>2014-10-02T13:09:10Z</time>
      </trkpt>
      <trkpt lat="42.6545440" lon="-7.1565510">
        <ele>841.0</ele>
        <time>2014-10-02T13:09:11Z</time>
      </trkpt>
      <trkpt lat="42.6545770" lon="-7.1565340">
        <ele>841.8</ele>
        <time>2014-10-02T13:09:12Z</time>
      </trkpt>
      <trkpt lat="42.6546090" lon="-7.1565180">
        <ele>842.6</ele>
        <time>2014-10-02T13:09:13Z</time>
      </trkpt>
      <trkpt lat="42.6546450" lon="-7.1565060">
        <ele>843.6</ele>
        <time>2014-10-02T13:09:14Z</time>
      </trkpt>
      <trkpt lat="42.6546760" lon="-7.1564950">
        <ele>844.4</ele>
        <time>2014-10-02T13:09:15Z</time>
      </trkpt>
      <trkpt lat="42.6547180" lon="-7.1564900">
        <ele>845.6</ele>
        <time>2014-10-02T13:09:16Z</time>
      </trkpt>
      <trkpt lat="42.6547590" lon="-7.1564810">
        <ele>846.5</ele>
        <time>2014-10-02T13:09:17Z</time>
      </trkpt>
      <trkpt lat="42.6548130" lon="-7.1564850">
        <ele>846.5</ele>
        <time>2014-10-02T13:09:18Z</time>
      </trkpt>
      <trkpt lat="42.6548580" lon="-7.1564840">
        <ele>846.5</ele>
        <time>2014-10-02T13:09:19Z</time>
      </trkpt>
      <trkpt lat="42.6549040" lon="-7.1564840">
        <ele>846.5</ele>
        <time>2014-10-02T13:09:20Z</time>
      </trkpt>
      <trkpt lat="42.6549560" lon="-7.1564900">
        <ele>846.6</ele>
        <time>2014-10-02T13:09:22Z</time>
      </trkpt>
      <trkpt lat="42.6550040" lon="-7.1564970">
        <ele>846.7</ele>
        <time>2014-10-02T13:09:23Z</time>
      </trkpt>
      <trkpt lat="42.6550520" lon="-7.1565070">
        <ele>846.7</ele>
        <time>2014-10-02T13:09:24Z</time>
      </trkpt>
      <trkpt lat="42.6551100" lon="-7.1565150">
        <ele>846.8</ele>
        <time>2014-10-02T13:09:25Z</time>
      </trkpt>
      <trkpt lat="42.6551580" lon="-7.1565200">
        <ele>846.8</ele>
        <time>2014-10-02T13:09:26Z</time>
      </trkpt>
      <trkpt lat="42.6551910" lon="-7.1565290">
        <ele>846.9</ele>
        <time>2014-10-02T13:09:27Z</time>
      </trkpt>
      <trkpt lat="42.6552290" lon="-7.1565350">
        <ele>846.9</ele>
        <time>2014-10-02T13:09:28Z</time>
      </trkpt>
      <trkpt lat="42.6552710" lon="-7.1565380">
        <ele>847.0</ele>
        <time>2014-10-02T13:09:29Z</time>
      </trkpt>
      <trkpt lat="42.6553100" lon="-7.1565380">
        <ele>847.0</ele>
        <time>2014-10-02T13:09:30Z</time>
      </trkpt>
      <trkpt lat="42.6553420" lon="-7.1565360">
        <ele>847.1</ele>
        <time>2014-10-02T13:09:31Z</time>
      </trkpt>
      <trkpt lat="42.6553760" lon="-7.1565330">
        <ele>847.1</ele>
        <time>2014-10-02T13:09:32Z</time>
      </trkpt>
      <trkpt lat="42.6554170" lon="-7.1565340">
        <ele>847.2</ele>
        <time>2014-10-02T13:09:33Z</time>
      </trkpt>
      <trkpt lat="42.6554660" lon="-7.1565390">
        <ele>847.3</ele>
        <time>2014-10-02T13:09:34Z</time>
      </trkpt>
      <trkpt lat="42.6555150" lon="-7.1565480">
        <ele>847.4</ele>
        <time>2014-10-02T13:09:35Z</time>
      </trkpt>
      <trkpt lat="42.6555550" lon="-7.1565610">
        <ele>847.5</ele>
        <time>2014-10-02T13:09:36Z</time>
      </trkpt>
      <trkpt lat="42.6555960" lon="-7.1565680">
        <ele>847.6</ele>
        <time>2014-10-02T13:09:37Z</time>
      </trkpt>
      <trkpt lat="42.6556420" lon="-7.1565730">
        <ele>847.7</ele>
        <time>2014-10-02T13:09:38Z</time>
      </trkpt>
      <trkpt lat="42.6556870" lon="-7.1565790">
        <ele>847.8</ele>
        <time>2014-10-02T13:09:39Z</time>
      </trkpt>
      <trkpt lat="42.6557310" lon="-7.1565840">
        <ele>847.8</ele>
        <time>2014-10-02T13:09:40Z</time>
      </trkpt>
      <trkpt lat="42.6557720" lon="-7.1565840">
        <ele>847.8</ele>
        <time>2014-10-02T13:09:41Z</time>
      </trkpt>
      <trkpt lat="42.6558240" lon="-7.1565920">
        <ele>847.7</ele>
        <time>2014-10-02T13:09:42Z</time>
      </trkpt>
      <trkpt lat="42.6558840" lon="-7.1566030">
        <ele>847.6</ele>
        <time>2014-10-02T13:09:43Z</time>
      </trkpt>
      <trkpt lat="42.6559440" lon="-7.1566090">
        <ele>847.6</ele>
        <time>2014-10-02T13:09:44Z</time>
      </trkpt>
      <trkpt lat="42.6560180" lon="-7.1566160">
        <ele>847.6</ele>
        <time>2014-10-02T13:09:45Z</time>
      </trkpt>
      <trkpt lat="42.6560730" lon="-7.1566240">
        <ele>847.6</ele>
        <time>2014-10-02T13:09:46Z</time>
      </trkpt>
      <trkpt lat="42.6561260" lon="-7.1566330">
        <ele>847.6</ele>
        <time>2014-10-02T13:09:47Z</time>
      </trkpt>
      <trkpt lat="42.6561840" lon="-7.1566460">
        <ele>847.7</ele>
        <time>2014-10-02T13:09:48Z</time>
      </trkpt>
      <trkpt lat="42.6562380" lon="-7.1566530">
        <ele>847.9</ele>
        <time>2014-10-02T13:09:49Z</time>
      </trkpt>
      <trkpt lat="42.6562860" lon="-7.1566570">
        <ele>848.0</ele>
        <time>2014-10-02T13:09:50Z</time>
      </trkpt>
      <trkpt lat="42.6563210" lon="-7.1566490">
        <ele>848.1</ele>
        <time>2014-10-02T13:09:51Z</time>
      </trkpt>
      <trkpt lat="42.6563610" lon="-7.1566420">
        <ele>848.2</ele>
        <time>2014-10-02T13:09:52Z</time>
      </trkpt>
      <trkpt lat="42.6564040" lon="-7.1566350">
        <ele>848.4</ele>
        <time>2014-10-02T13:09:53Z</time>
      </trkpt>
      <trkpt lat="42.6564520" lon="-7.1566360">
        <ele>848.5</ele>
        <time>2014-10-02T13:09:54Z</time>
      </trkpt>
      <trkpt lat="42.6565020" lon="-7.1566280">
        <ele>848.7</ele>
        <time>2014-10-02T13:09:55Z</time>
      </trkpt>
      <trkpt lat="42.6565670" lon="-7.1566210">
        <ele>849.0</ele>
        <time>2014-10-02T13:09:56Z</time>
      </trkpt>
      <trkpt lat="42.6566020" lon="-7.1566000">
        <ele>849.1</ele>
        <time>2014-10-02T13:09:57Z</time>
      </trkpt>
      <trkpt lat="42.6566420" lon="-7.1565790">
        <ele>849.2</ele>
        <time>2014-10-02T13:09:58Z</time>
      </trkpt>
      <trkpt lat="42.6566870" lon="-7.1565610">
        <ele>849.3</ele>
        <time>2014-10-02T13:09:59Z</time>
      </trkpt>
      <trkpt lat="42.6567500" lon="-7.1565540">
        <ele>849.4</ele>
        <time>2014-10-02T13:10:00Z</time>
      </trkpt>
      <trkpt lat="42.6568030" lon="-7.1565380">
        <ele>849.6</ele>
        <time>2014-10-02T13:10:01Z</time>
      </trkpt>
      <trkpt lat="42.6568470" lon="-7.1564970">
        <ele>849.8</ele>
        <time>2014-10-02T13:10:03Z</time>
      </trkpt>
      <trkpt lat="42.6568870" lon="-7.1564780">
        <ele>850.0</ele>
        <time>2014-10-02T13:10:04Z</time>
      </trkpt>
      <trkpt lat="42.6569210" lon="-7.1564500">
        <ele>850.2</ele>
        <time>2014-10-02T13:10:05Z</time>
      </trkpt>
      <trkpt lat="42.6569560" lon="-7.1564260">
        <ele>850.4</ele>
        <time>2014-10-02T13:10:06Z</time>
      </trkpt>
      <trkpt lat="42.6569880" lon="-7.1564010">
        <ele>850.6</ele>
        <time>2014-10-02T13:10:07Z</time>
      </trkpt>
      <trkpt lat="42.6570100" lon="-7.1563730">
        <ele>850.8</ele>
        <time>2014-10-02T13:10:08Z</time>
      </trkpt>
      <trkpt lat="42.6570360" lon="-7.1563450">
        <ele>851.0</ele>
        <time>2014-10-02T13:10:09Z</time>
      </trkpt>
      <trkpt lat="42.6570770" lon="-7.1563280">
        <ele>851.2</ele>
        <time>2014-10-02T13:10:10Z</time>
      </trkpt>
      <trkpt lat="42.6571160" lon="-7.1563210">
        <ele>851.4</ele>
        <time>2014-10-02T13:10:11Z</time>
      </trkpt>
      <trkpt lat="42.6571620" lon="-7.1563130">
        <ele>851.5</ele>
        <time>2014-10-02T13:10:12Z</time>
      </trkpt>
      <trkpt lat="42.6572090" lon="-7.1563070">
        <ele>851.6</ele>
        <time>2014-10-02T13:10:13Z</time>
      </trkpt>
      <trkpt lat="42.6572520" lon="-7.1563020">
        <ele>851.6</ele>
        <time>2014-10-02T13:10:14Z</time>
      </trkpt>
      <trkpt lat="42.6572940" lon="-7.1562970">
        <ele>851.6</ele>
        <time>2014-10-02T13:10:15Z</time>
      </trkpt>
      <trkpt lat="42.6573340" lon="-7.1562920">
        <ele>851.7</ele>
        <time>2014-10-02T13:10:16Z</time>
      </trkpt>
      <trkpt lat="42.6573760" lon="-7.1562920">
        <ele>851.7</ele>
        <time>2014-10-02T13:10:17Z</time>
      </trkpt>
      <trkpt lat="42.6574050" lon="-7.1562850">
        <ele>851.7</ele>
        <time>2014-10-02T13:10:18Z</time>
      </trkpt>
      <trkpt lat="42.6574510" lon="-7.1562800">
        <ele>851.8</ele>
        <time>2014-10-02T13:10:19Z</time>
      </trkpt>
      <trkpt lat="42.6574830" lon="-7.1562760">
        <ele>851.8</ele>
        <time>2014-10-02T13:10:20Z</time>
      </trkpt>
      <trkpt lat="42.6575290" lon="-7.1562710">
        <ele>851.9</ele>
        <time>2014-10-02T13:10:21Z</time>
      </trkpt>
      <trkpt lat="42.6575930" lon="-7.1562700">
        <ele>852.0</ele>
        <time>2014-10-02T13:10:22Z</time>
      </trkpt>
      <trkpt lat="42.6576560" lon="-7.1562730">
        <ele>852.0</ele>
        <time>2014-10-02T13:10:23Z</time>
      </trkpt>
      <trkpt lat="42.6576930" lon="-7.1562810">
        <ele>852.0</ele>
        <time>2014-10-02T13:10:24Z</time>
      </trkpt>
      <trkpt lat="42.6577330" lon="-7.1562900">
        <ele>852.0</ele>
        <time>2014-10-02T13:10:25Z</time>
      </trkpt>
      <trkpt lat="42.6577780" lon="-7.1563050">
        <ele>851.9</ele>
        <time>2014-10-02T13:10:26Z</time>
      </trkpt>
      <trkpt lat="42.6578400" lon="-7.1563370">
        <ele>851.7</ele>
        <time>2014-10-02T13:10:27Z</time>
      </trkpt>
      <trkpt lat="42.6578890" lon="-7.1563720">
        <ele>851.5</ele>
        <time>2014-10-02T13:10:28Z</time>
      </trkpt>
      <trkpt lat="42.6579530" lon="-7.1564230">
        <ele>851.2</ele>
        <time>2014-10-02T13:10:29Z</time>
      </trkpt>
      <trkpt lat="42.6580260" lon="-7.1564760">
        <ele>850.9</ele>
        <time>2014-10-02T13:10:30Z</time>
      </trkpt>
      <trkpt lat="42.6580900" lon="-7.1565580">
        <ele>850.7</ele>
        <time>2014-10-02T13:10:31Z</time>
      </trkpt>
      <trkpt lat="42.6581290" lon="-7.1566500">
        <ele>850.5</ele>
        <time>2014-10-02T13:10:32Z</time>
      </trkpt>
      <trkpt lat="42.6581630" lon="-7.1567370">
        <ele>850.4</ele>
        <time>2014-10-02T13:10:33Z</time>
      </trkpt>
      <trkpt lat="42.6581850" lon="-7.1567980">
        <ele>850.3</ele>
        <time>2014-10-02T13:10:34Z</time>
      </trkpt>
      <trkpt lat="42.6582010" lon="-7.1568550">
        <ele>850.3</ele>
        <time>2014-10-02T13:10:35Z</time>
      </trkpt>
      <trkpt lat="42.6582000" lon="-7.1568940">
        <ele>850.2</ele>
        <time>2014-10-02T13:10:36Z</time>
      </trkpt>
      <trkpt lat="42.6581960" lon="-7.1569450">
        <ele>850.2</ele>
        <time>2014-10-02T13:10:37Z</time>
      </trkpt>
      <trkpt lat="42.6581780" lon="-7.1569980">
        <ele>850.1</ele>
        <time>2014-10-02T13:10:38Z</time>
      </trkpt>
      <trkpt lat="42.6581470" lon="-7.1570460">
        <ele>850.1</ele>
        <time>2014-10-02T13:10:39Z</time>
      </trkpt>
      <trkpt lat="42.6581140" lon="-7.1570880">
        <ele>850.2</ele>
        <time>2014-10-02T13:10:40Z</time>
      </trkpt>
      <trkpt lat="42.6580880" lon="-7.1571420">
        <ele>850.2</ele>
        <time>2014-10-02T13:10:41Z</time>
      </trkpt>
      <trkpt lat="42.6580520" lon="-7.1572110">
        <ele>850.3</ele>
        <time>2014-10-02T13:10:42Z</time>
      </trkpt>
      <trkpt lat="42.6580320" lon="-7.1572730">
        <ele>850.2</ele>
        <time>2014-10-02T13:10:43Z</time>
      </trkpt>
      <trkpt lat="42.6580010" lon="-7.1573430">
        <ele>850.2</ele>
        <time>2014-10-02T13:10:44Z</time>
      </trkpt>
      <trkpt lat="42.6579710" lon="-7.1574120">
        <ele>850.2</ele>
        <time>2014-10-02T13:10:45Z</time>
      </trkpt>
      <trkpt lat="42.6579520" lon="-7.1574710">
        <ele>850.1</ele>
        <time>2014-10-02T13:10:46Z</time>
      </trkpt>
      <trkpt lat="42.6579350" lon="-7.1575390">
        <ele>850.1</ele>
        <time>2014-10-02T13:10:47Z</time>
      </trkpt>
      <trkpt lat="42.6579170" lon="-7.1576140">
        <ele>850.0</ele>
        <time>2014-10-02T13:10:48Z</time>
      </trkpt>
      <trkpt lat="42.6578980" lon="-7.1576890">
        <ele>850.0</ele>
        <time>2014-10-02T13:10:49Z</time>
      </trkpt>
      <trkpt lat="42.6578750" lon="-7.1577700">
        <ele>849.9</ele>
        <time>2014-10-02T13:10:50Z</time>
      </trkpt>
      <trkpt lat="42.6578500" lon="-7.1578590">
        <ele>849.9</ele>
        <time>2014-10-02T13:10:51Z</time>
      </trkpt>
      <trkpt lat="42.6578240" lon="-7.1579490">
        <ele>849.8</ele>
        <time>2014-10-02T13:10:52Z</time>
      </trkpt>
      <trkpt lat="42.6578110" lon="-7.1580150">
        <ele>849.8</ele>
        <time>2014-10-02T13:10:53Z</time>
      </trkpt>
      <trkpt lat="42.6577990" lon="-7.1580890">
        <ele>849.8</ele>
        <time>2014-10-02T13:10:54Z</time>
      </trkpt>
      <trkpt lat="42.6577870" lon="-7.1581640">
        <ele>849.8</ele>
        <time>2014-10-02T13:10:55Z</time>
      </trkpt>
      <trkpt lat="42.6577730" lon="-7.1582430">
        <ele>849.7</ele>
        <time>2014-10-02T13:10:56Z</time>
      </trkpt>
      <trkpt lat="42.6577610" lon="-7.1583080">
        <ele>849.6</ele>
        <time>2014-10-02T13:10:57Z</time>
      </trkpt>
      <trkpt lat="42.6577470" lon="-7.1583780">
        <ele>849.5</ele>
        <time>2014-10-02T13:10:58Z</time>
      </trkpt>
      <trkpt lat="42.6577300" lon="-7.1584730">
        <ele>849.3</ele>
        <time>2014-10-02T13:10:59Z</time>
      </trkpt>
      <trkpt lat="42.6576920" lon="-7.1585730">
        <ele>849.3</ele>
        <time>2014-10-02T13:11:00Z</time>
      </trkpt>
      <trkpt lat="42.6576560" lon="-7.1586600">
        <ele>849.5</ele>
        <time>2014-10-02T13:11:01Z</time>
      </trkpt>
      <trkpt lat="42.6576300" lon="-7.1587370">
        <ele>849.8</ele>
        <time>2014-10-02T13:11:02Z</time>
      </trkpt>
      <trkpt lat="42.6576110" lon="-7.1588150">
        <ele>850.1</ele>
        <time>2014-10-02T13:11:03Z</time>
      </trkpt>
      <trkpt lat="42.6575860" lon="-7.1588940">
        <ele>850.4</ele>
        <time>2014-10-02T13:11:04Z</time>
      </trkpt>
      <trkpt lat="42.6575550" lon="-7.1589930">
        <ele>850.8</ele>
        <time>2014-10-02T13:11:05Z</time>
      </trkpt>
      <trkpt lat="42.6575290" lon="-7.1590810">
        <ele>851.1</ele>
        <time>2014-10-02T13:11:06Z</time>
      </trkpt>
      <trkpt lat="42.6575050" lon="-7.1591670">
        <ele>851.2</ele>
        <time>2014-10-02T13:11:07Z</time>
      </trkpt>
      <trkpt lat="42.6574820" lon="-7.1592420">
        <ele>851.3</ele>
        <time>2014-10-02T13:11:08Z</time>
      </trkpt>
      <trkpt lat="42.6574540" lon="-7.1593220">
        <ele>851.4</ele>
        <time>2014-10-02T13:11:09Z</time>
      </trkpt>
      <trkpt lat="42.6574280" lon="-7.1593980">
        <ele>851.5</ele>
        <time>2014-10-02T13:11:10Z</time>
      </trkpt>
      <trkpt lat="42.6574010" lon="-7.1594650">
        <ele>851.7</ele>
        <time>2014-10-02T13:11:11Z</time>
      </trkpt>
      <trkpt lat="42.6573780" lon="-7.1595250">
        <ele>851.9</ele>
        <time>2014-10-02T13:11:12Z</time>
      </trkpt>
      <trkpt lat="42.6573510" lon="-7.1595920">
        <ele>852.1</ele>
        <time>2014-10-02T13:11:13Z</time>
      </trkpt>
      <trkpt lat="42.6573230" lon="-7.1596610">
        <ele>852.3</ele>
        <time>2014-10-02T13:11:14Z</time>
      </trkpt>
      <trkpt lat="42.6573020" lon="-7.1597370">
        <ele>852.7</ele>
        <time>2014-10-02T13:11:15Z</time>
      </trkpt>
      <trkpt lat="42.6572860" lon="-7.1598140">
        <ele>853.0</ele>
        <time>2014-10-02T13:11:16Z</time>
      </trkpt>
      <trkpt lat="42.6572850" lon="-7.1598820">
        <ele>853.4</ele>
        <time>2014-10-02T13:11:17Z</time>
      </trkpt>
      <trkpt lat="42.6572890" lon="-7.1599370">
        <ele>853.8</ele>
        <time>2014-10-02T13:11:18Z</time>
      </trkpt>
      <trkpt lat="42.6573050" lon="-7.1599820">
        <ele>854.1</ele>
        <time>2014-10-02T13:11:19Z</time>
      </trkpt>
      <trkpt lat="42.6573210" lon="-7.1600220">
        <ele>854.4</ele>
        <time>2014-10-02T13:11:20Z</time>
      </trkpt>
      <trkpt lat="42.6573580" lon="-7.1600730">
        <ele>854.9</ele>
        <time>2014-10-02T13:11:22Z</time>
      </trkpt>
      <trkpt lat="42.6573990" lon="-7.1601130">
        <ele>855.2</ele>
        <time>2014-10-02T13:11:24Z</time>
      </trkpt>
      <trkpt lat="42.6574470" lon="-7.1601420">
        <ele>855.6</ele>
        <time>2014-10-02T13:11:26Z</time>
      </trkpt>
      <trkpt lat="42.6574740" lon="-7.1601540">
        <ele>855.7</ele>
        <time>2014-10-02T13:11:27Z</time>
      </trkpt>
      <trkpt lat="42.6575020" lon="-7.1601620">
        <ele>855.9</ele>
        <time>2014-10-02T13:11:28Z</time>
      </trkpt>
      <trkpt lat="42.6576450" lon="-7.1601870">
        <ele>856.9</ele>
        <time>2014-10-02T13:11:34Z</time>
      </trkpt>
      <trkpt lat="42.6576820" lon="-7.1601930">
        <ele>857.1</ele>
        <time>2014-10-02T13:11:35Z</time>
      </trkpt>
      <trkpt lat="42.6577180" lon="-7.1601960">
        <ele>857.3</ele>
        <time>2014-10-02T13:11:36Z</time>
      </trkpt>
      <trkpt lat="42.6577560" lon="-7.1602010">
        <ele>857.4</ele>
        <time>2014-10-02T13:11:37Z</time>
      </trkpt>
      <trkpt lat="42.6578050" lon="-7.1602090">
        <ele>857.6</ele>
        <time>2014-10-02T13:11:38Z</time>
      </trkpt>
      <trkpt lat="42.6578460" lon="-7.1602140">
        <ele>857.9</ele>
        <time>2014-10-02T13:11:39Z</time>
      </trkpt>
      <trkpt lat="42.6578870" lon="-7.1602240">
        <ele>858.1</ele>
        <time>2014-10-02T13:11:40Z</time>
      </trkpt>
      <trkpt lat="42.6579310" lon="-7.1602310">
        <ele>858.2</ele>
        <time>2014-10-02T13:11:41Z</time>
      </trkpt>
      <trkpt lat="42.6579660" lon="-7.1602360">
        <ele>858.3</ele>
        <time>2014-10-02T13:11:42Z</time>
      </trkpt>
      <trkpt lat="42.6579950" lon="-7.1602460">
        <ele>858.4</ele>
        <time>2014-10-02T13:11:43Z</time>
      </trkpt>
      <trkpt lat="42.6580860" lon="-7.1602580">
        <ele>858.4</ele>
        <time>2014-10-02T13:11:45Z</time>
      </trkpt>
      <trkpt lat="42.6581530" lon="-7.1602680">
        <ele>858.4</ele>
        <time>2014-10-02T13:11:46Z</time>
      </trkpt>
      <trkpt lat="42.6582540" lon="-7.1602530">
        <ele>858.4</ele>
        <time>2014-10-02T13:11:49Z</time>
      </trkpt>
      <trkpt lat="42.6583040" lon="-7.1602570">
        <ele>858.4</ele>
        <time>2014-10-02T13:11:50Z</time>
      </trkpt>
      <trkpt lat="42.6583450" lon="-7.1602600">
        <ele>858.4</ele>
        <time>2014-10-02T13:11:51Z</time>
      </trkpt>
      <trkpt lat="42.6583810" lon="-7.1602630">
        <ele>858.3</ele>
        <time>2014-10-02T13:11:52Z</time>
      </trkpt>
      <trkpt lat="42.6584380" lon="-7.1602980">
        <ele>857.8</ele>
        <time>2014-10-02T13:11:53Z</time>
      </trkpt>
      <trkpt lat="42.6584770" lon="-7.1603290">
        <ele>857.3</ele>
        <time>2014-10-02T13:11:54Z</time>
      </trkpt>
      <trkpt lat="42.6585230" lon="-7.1603690">
        <ele>857.4</ele>
        <time>2014-10-02T13:11:55Z</time>
      </trkpt>
      <trkpt lat="42.6585720" lon="-7.1604040">
        <ele>857.4</ele>
        <time>2014-10-02T13:11:56Z</time>
      </trkpt>
      <trkpt lat="42.6586120" lon="-7.1604460">
        <ele>857.4</ele>
        <time>2014-10-02T13:11:57Z</time>
      </trkpt>
      <trkpt lat="42.6586480" lon="-7.1604850">
        <ele>857.4</ele>
        <time>2014-10-02T13:11:58Z</time>
      </trkpt>
      <trkpt lat="42.6586890" lon="-7.1605230">
        <ele>857.4</ele>
        <time>2014-10-02T13:11:59Z</time>
      </trkpt>
      <trkpt lat="42.6587180" lon="-7.1605540">
        <ele>857.4</ele>
        <time>2014-10-02T13:12:00Z</time>
      </trkpt>
      <trkpt lat="42.6587530" lon="-7.1605850">
        <ele>857.3</ele>
        <time>2014-10-02T13:12:01Z</time>
      </trkpt>
      <trkpt lat="42.6587840" lon="-7.1606140">
        <ele>857.1</ele>
        <time>2014-10-02T13:12:02Z</time>
      </trkpt>
      <trkpt lat="42.6588220" lon="-7.1606400">
        <ele>856.9</ele>
        <time>2014-10-02T13:12:03Z</time>
      </trkpt>
      <trkpt lat="42.6588610" lon="-7.1606640">
        <ele>856.7</ele>
        <time>2014-10-02T13:12:04Z</time>
      </trkpt>
      <trkpt lat="42.6589050" lon="-7.1606790">
        <ele>856.4</ele>
        <time>2014-10-02T13:12:05Z</time>
      </trkpt>
      <trkpt lat="42.6589530" lon="-7.1606930">
        <ele>856.1</ele>
        <time>2014-10-02T13:12:06Z</time>
      </trkpt>
      <trkpt lat="42.6589980" lon="-7.1607110">
        <ele>855.8</ele>
        <time>2014-10-02T13:12:07Z</time>
      </trkpt>
      <trkpt lat="42.6590500" lon="-7.1607340">
        <ele>855.3</ele>
        <time>2014-10-02T13:12:08Z</time>
      </trkpt>
      <trkpt lat="42.6591000" lon="-7.1607530">
        <ele>854.8</ele>
        <time>2014-10-02T13:12:09Z</time>
      </trkpt>
      <trkpt lat="42.6591620" lon="-7.1607740">
        <ele>854.1</ele>
        <time>2014-10-02T13:12:10Z</time>
      </trkpt>
      <trkpt lat="42.6592340" lon="-7.1607940">
        <ele>853.4</ele>
        <time>2014-10-02T13:12:11Z</time>
      </trkpt>
      <trkpt lat="42.6593040" lon="-7.1608090">
        <ele>852.7</ele>
        <time>2014-10-02T13:12:12Z</time>
      </trkpt>
      <trkpt lat="42.6593920" lon="-7.1608200">
        <ele>851.9</ele>
        <time>2014-10-02T13:12:13Z</time>
      </trkpt>
      <trkpt lat="42.6594800" lon="-7.1608250">
        <ele>851.3</ele>
        <time>2014-10-02T13:12:14Z</time>
      </trkpt>
      <trkpt lat="42.6595690" lon="-7.1607970">
        <ele>850.8</ele>
        <time>2014-10-02T13:12:15Z</time>
      </trkpt>
      <trkpt lat="42.6596550" lon="-7.1607660">
        <ele>850.5</ele>
        <time>2014-10-02T13:12:16Z</time>
      </trkpt>
      <trkpt lat="42.6597400" lon="-7.1607410">
        <ele>850.1</ele>
        <time>2014-10-02T13:12:17Z</time>
      </trkpt>
      <trkpt lat="42.6598450" lon="-7.1607060">
        <ele>850.0</ele>
        <time>2014-10-02T13:12:18Z</time>
      </trkpt>
      <trkpt lat="42.6599290" lon="-7.1606820">
        <ele>850.0</ele>
        <time>2014-10-02T13:12:19Z</time>
      </trkpt>
      <trkpt lat="42.6600170" lon="-7.1606640">
        <ele>850.1</ele>
        <time>2014-10-02T13:12:20Z</time>
      </trkpt>
      <trkpt lat="42.6600900" lon="-7.1606820">
        <ele>850.0</ele>
        <time>2014-10-02T13:12:21Z</time>
      </trkpt>
      <trkpt lat="42.6601680" lon="-7.1607030">
        <ele>849.9</ele>
        <time>2014-10-02T13:12:22Z</time>
      </trkpt>
      <trkpt lat="42.6602340" lon="-7.1607800">
        <ele>849.6</ele>
        <time>2014-10-02T13:12:23Z</time>
      </trkpt>
      <trkpt lat="42.6602900" lon="-7.1608540">
        <ele>849.3</ele>
        <time>2014-10-02T13:12:24Z</time>
      </trkpt>
      <trkpt lat="42.6603250" lon="-7.1609420">
        <ele>849.1</ele>
        <time>2014-10-02T13:12:25Z</time>
      </trkpt>
      <trkpt lat="42.6603570" lon="-7.1610370">
        <ele>848.8</ele>
        <time>2014-10-02T13:12:26Z</time>
      </trkpt>
      <trkpt lat="42.6603830" lon="-7.1611460">
        <ele>848.5</ele>
        <time>2014-10-02T13:12:27Z</time>
      </trkpt>
      <trkpt lat="42.6603970" lon="-7.1612400">
        <ele>848.3</ele>
        <time>2014-10-02T13:12:28Z</time>
      </trkpt>
      <trkpt lat="42.6604060" lon="-7.1613320">
        <ele>848.1</ele>
        <time>2014-10-02T13:12:29Z</time>
      </trkpt>
      <trkpt lat="42.6604140" lon="-7.1614250">
        <ele>847.9</ele>
        <time>2014-10-02T13:12:30Z</time>
      </trkpt>
      <trkpt lat="42.6604100" lon="-7.1615110">
        <ele>847.8</ele>
        <time>2014-10-02T13:12:31Z</time>
      </trkpt>
      <trkpt lat="42.6603980" lon="-7.1616090">
        <ele>847.8</ele>
        <time>2014-10-02T13:12:32Z</time>
      </trkpt>
      <trkpt lat="42.6603770" lon="-7.1617160">
        <ele>847.8</ele>
        <time>2014-10-02T13:12:33Z</time>
      </trkpt>
      <trkpt lat="42.6603610" lon="-7.1618120">
        <ele>847.8</ele>
        <time>2014-10-02T13:12:34Z</time>
      </trkpt>
      <trkpt lat="42.6603490" lon="-7.1619200">
        <ele>847.8</ele>
        <time>2014-10-02T13:12:35Z</time>
      </trkpt>
      <trkpt lat="42.6603400" lon="-7.1620150">
        <ele>847.7</ele>
        <time>2014-10-02T13:12:36Z</time>
      </trkpt>
      <trkpt lat="42.6603270" lon="-7.1621180">
        <ele>847.6</ele>
        <time>2014-10-02T13:12:37Z</time>
      </trkpt>
      <trkpt lat="42.6603100" lon="-7.1622210">
        <ele>847.4</ele>
        <time>2014-10-02T13:12:38Z</time>
      </trkpt>
      <trkpt lat="42.6602910" lon="-7.1623320">
        <ele>847.3</ele>
        <time>2014-10-02T13:12:39Z</time>
      </trkpt>
      <trkpt lat="42.6602710" lon="-7.1624290">
        <ele>847.2</ele>
        <time>2014-10-02T13:12:40Z</time>
      </trkpt>
      <trkpt lat="42.6602490" lon="-7.1625160">
        <ele>847.2</ele>
        <time>2014-10-02T13:12:41Z</time>
      </trkpt>
      <trkpt lat="42.6602270" lon="-7.1626060">
        <ele>847.1</ele>
        <time>2014-10-02T13:12:42Z</time>
      </trkpt>
      <trkpt lat="42.6602030" lon="-7.1627040">
        <ele>847.0</ele>
        <time>2014-10-02T13:12:43Z</time>
      </trkpt>
      <trkpt lat="42.6601820" lon="-7.1627990">
        <ele>846.9</ele>
        <time>2014-10-02T13:12:44Z</time>
      </trkpt>
      <trkpt lat="42.6601640" lon="-7.1628980">
        <ele>847.0</ele>
        <time>2014-10-02T13:12:45Z</time>
      </trkpt>
      <trkpt lat="42.6601620" lon="-7.1630020">
        <ele>847.0</ele>
        <time>2014-10-02T13:12:46Z</time>
      </trkpt>
      <trkpt lat="42.6601840" lon="-7.1630920">
        <ele>847.1</ele>
        <time>2014-10-02T13:12:47Z</time>
      </trkpt>
      <trkpt lat="42.6602080" lon="-7.1631830">
        <ele>847.3</ele>
        <time>2014-10-02T13:12:48Z</time>
      </trkpt>
      <trkpt lat="42.6602440" lon="-7.1632600">
        <ele>847.5</ele>
        <time>2014-10-02T13:12:49Z</time>
      </trkpt>
      <trkpt lat="42.6602770" lon="-7.1633250">
        <ele>847.8</ele>
        <time>2014-10-02T13:12:50Z</time>
      </trkpt>
      <trkpt lat="42.6603090" lon="-7.1633860">
        <ele>848.3</ele>
        <time>2014-10-02T13:12:51Z</time>
      </trkpt>
      <trkpt lat="42.6603450" lon="-7.1634510">
        <ele>848.8</ele>
        <time>2014-10-02T13:12:52Z</time>
      </trkpt>
      <trkpt lat="42.6603820" lon="-7.1635090">
        <ele>849.3</ele>
        <time>2014-10-02T13:12:53Z</time>
      </trkpt>
      <trkpt lat="42.6604190" lon="-7.1635610">
        <ele>849.9</ele>
        <time>2014-10-02T13:12:54Z</time>
      </trkpt>
      <trkpt lat="42.6604550" lon="-7.1636060">
        <ele>850.4</ele>
        <time>2014-10-02T13:12:55Z</time>
      </trkpt>
      <trkpt lat="42.6604950" lon="-7.1636540">
        <ele>851.0</ele>
        <time>2014-10-02T13:12:56Z</time>
      </trkpt>
      <trkpt lat="42.6605320" lon="-7.1636980">
        <ele>851.7</ele>
        <time>2014-10-02T13:12:57Z</time>
      </trkpt>
      <trkpt lat="42.6605670" lon="-7.1637370">
        <ele>852.2</ele>
        <time>2014-10-02T13:12:58Z</time>
      </trkpt>
      <trkpt lat="42.6606010" lon="-7.1637720">
        <ele>852.7</ele>
        <time>2014-10-02T13:12:59Z</time>
      </trkpt>
      <trkpt lat="42.6606370" lon="-7.1638110">
        <ele>853.3</ele>
        <time>2014-10-02T13:13:00Z</time>
      </trkpt>
      <trkpt lat="42.6606750" lon="-7.1638470">
        <ele>853.8</ele>
        <time>2014-10-02T13:13:01Z</time>
      </trkpt>
      <trkpt lat="42.6607090" lon="-7.1638800">
        <ele>854.4</ele>
        <time>2014-10-02T13:13:02Z</time>
      </trkpt>
      <trkpt lat="42.6607380" lon="-7.1639130">
        <ele>854.8</ele>
        <time>2014-10-02T13:13:03Z</time>
      </trkpt>
      <trkpt lat="42.6607730" lon="-7.1639500">
        <ele>855.4</ele>
        <time>2014-10-02T13:13:04Z</time>
      </trkpt>
      <trkpt lat="42.6608040" lon="-7.1639900">
        <ele>855.9</ele>
        <time>2014-10-02T13:13:05Z</time>
      </trkpt>
      <trkpt lat="42.6608340" lon="-7.1640280">
        <ele>856.4</ele>
        <time>2014-10-02T13:13:06Z</time>
      </trkpt>
      <trkpt lat="42.6608620" lon="-7.1640650">
        <ele>856.9</ele>
        <time>2014-10-02T13:13:07Z</time>
      </trkpt>
      <trkpt lat="42.6608890" lon="-7.1641000">
        <ele>857.4</ele>
        <time>2014-10-02T13:13:08Z</time>
      </trkpt>
      <trkpt lat="42.6609160" lon="-7.1641350">
        <ele>857.8</ele>
        <time>2014-10-02T13:13:09Z</time>
      </trkpt>
      <trkpt lat="42.6609380" lon="-7.1641650">
        <ele>858.2</ele>
        <time>2014-10-02T13:13:10Z</time>
      </trkpt>
      <trkpt lat="42.6609580" lon="-7.1641920">
        <ele>858.6</ele>
        <time>2014-10-02T13:13:11Z</time>
      </trkpt>
      <trkpt lat="42.6610000" lon="-7.1642330">
        <ele>859.2</ele>
        <time>2014-10-02T13:13:13Z</time>
      </trkpt>
      <trkpt lat="42.6610280" lon="-7.1642560">
        <ele>859.6</ele>
        <time>2014-10-02T13:13:14Z</time>
      </trkpt>
      <trkpt lat="42.6610560" lon="-7.1642810">
        <ele>860.0</ele>
        <time>2014-10-02T13:13:15Z</time>
      </trkpt>
      <trkpt lat="42.6610810" lon="-7.1643060">
        <ele>860.4</ele>
        <time>2014-10-02T13:13:16Z</time>
      </trkpt>
      <trkpt lat="42.6611170" lon="-7.1643280">
        <ele>860.8</ele>
        <time>2014-10-02T13:13:17Z</time>
      </trkpt>
      <trkpt lat="42.6611570" lon="-7.1643510">
        <ele>861.3</ele>
        <time>2014-10-02T13:13:19Z</time>
      </trkpt>
      <trkpt lat="42.6611850" lon="-7.1643660">
        <ele>861.6</ele>
        <time>2014-10-02T13:13:20Z</time>
      </trkpt>
      <trkpt lat="42.6612120" lon="-7.1643820">
        <ele>861.8</ele>
        <time>2014-10-02T13:13:21Z</time>
      </trkpt>
      <trkpt lat="42.6612400" lon="-7.1643970">
        <ele>862.1</ele>
        <time>2014-10-02T13:13:22Z</time>
      </trkpt>
      <trkpt lat="42.6612690" lon="-7.1644120">
        <ele>862.3</ele>
        <time>2014-10-02T13:13:23Z</time>
      </trkpt>
      <trkpt lat="42.6613250" lon="-7.1644220">
        <ele>862.7</ele>
        <time>2014-10-02T13:13:25Z</time>
      </trkpt>
      <trkpt lat="42.6613550" lon="-7.1644260">
        <ele>862.8</ele>
        <time>2014-10-02T13:13:26Z</time>
      </trkpt>
      <trkpt lat="42.6613930" lon="-7.1644270">
        <ele>863.0</ele>
        <time>2014-10-02T13:13:27Z</time>
      </trkpt>
      <trkpt lat="42.6614220" lon="-7.1644170">
        <ele>863.1</ele>
        <time>2014-10-02T13:13:28Z</time>
      </trkpt>
      <trkpt lat="42.6614660" lon="-7.1644000">
        <ele>863.2</ele>
        <time>2014-10-02T13:13:29Z</time>
      </trkpt>
      <trkpt lat="42.6614980" lon="-7.1643910">
        <ele>863.3</ele>
        <time>2014-10-02T13:13:30Z</time>
      </trkpt>
      <trkpt lat="42.6615330" lon="-7.1643830">
        <ele>863.4</ele>
        <time>2014-10-02T13:13:31Z</time>
      </trkpt>
      <trkpt lat="42.6615740" lon="-7.1643670">
        <ele>863.4</ele>
        <time>2014-10-02T13:13:32Z</time>
      </trkpt>
      <trkpt lat="42.6616220" lon="-7.1643390">
        <ele>863.5</ele>
        <time>2014-10-02T13:13:33Z</time>
      </trkpt>
      <trkpt lat="42.6616670" lon="-7.1643030">
        <ele>863.6</ele>
        <time>2014-10-02T13:13:34Z</time>
      </trkpt>
      <trkpt lat="42.6617210" lon="-7.1642620">
        <ele>863.5</ele>
        <time>2014-10-02T13:13:35Z</time>
      </trkpt>
      <trkpt lat="42.6617490" lon="-7.1642110">
        <ele>863.4</ele>
        <time>2014-10-02T13:13:36Z</time>
      </trkpt>
      <trkpt lat="42.6617960" lon="-7.1641600">
        <ele>863.1</ele>
        <time>2014-10-02T13:13:37Z</time>
      </trkpt>
      <trkpt lat="42.6618410" lon="-7.1641090">
        <ele>862.7</ele>
        <time>2014-10-02T13:13:38Z</time>
      </trkpt>
      <trkpt lat="42.6618860" lon="-7.1640530">
        <ele>862.3</ele>
        <time>2014-10-02T13:13:39Z</time>
      </trkpt>
      <trkpt lat="42.6619370" lon="-7.1639960">
        <ele>861.7</ele>
        <time>2014-10-02T13:13:40Z</time>
      </trkpt>
      <trkpt lat="42.6619900" lon="-7.1639430">
        <ele>860.9</ele>
        <time>2014-10-02T13:13:41Z</time>
      </trkpt>
      <trkpt lat="42.6620220" lon="-7.1638950">
        <ele>860.2</ele>
        <time>2014-10-02T13:13:42Z</time>
      </trkpt>
      <trkpt lat="42.6620560" lon="-7.1638490">
        <ele>859.5</ele>
        <time>2014-10-02T13:13:43Z</time>
      </trkpt>
      <trkpt lat="42.6621400" lon="-7.1638580">
        <ele>858.3</ele>
        <time>2014-10-02T13:13:44Z</time>
      </trkpt>
      <trkpt lat="42.6622260" lon="-7.1638730">
        <ele>857.3</ele>
        <time>2014-10-02T13:13:45Z</time>
      </trkpt>
      <trkpt lat="42.6623020" lon="-7.1638940">
        <ele>856.5</ele>
        <time>2014-10-02T13:13:46Z</time>
      </trkpt>
      <trkpt lat="42.6623890" lon="-7.1639450">
        <ele>855.4</ele>
        <time>2014-10-02T13:13:47Z</time>
      </trkpt>
      <trkpt lat="42.6624640" lon="-7.1640190">
        <ele>854.4</ele>
        <time>2014-10-02T13:13:48Z</time>
      </trkpt>
      <trkpt lat="42.6625530" lon="-7.1641120">
        <ele>853.5</ele>
        <time>2014-10-02T13:13:49Z</time>
      </trkpt>
      <trkpt lat="42.6626550" lon="-7.1642720">
        <ele>852.8</ele>
        <time>2014-10-02T13:13:50Z</time>
      </trkpt>
      <trkpt lat="42.6627820" lon="-7.1643970">
        <ele>852.8</ele>
        <time>2014-10-02T13:13:51Z</time>
      </trkpt>
      <trkpt lat="42.6628830" lon="-7.1645160">
        <ele>853.2</ele>
        <time>2014-10-02T13:13:52Z</time>
      </trkpt>
      <trkpt lat="42.6629670" lon="-7.1646410">
        <ele>853.9</ele>
        <time>2014-10-02T13:13:53Z</time>
      </trkpt>
      <trkpt lat="42.6630390" lon="-7.1647670">
        <ele>854.7</ele>
        <time>2014-10-02T13:13:54Z</time>
      </trkpt>
      <trkpt lat="42.6631010" lon="-7.1648830">
        <ele>855.5</ele>
        <time>2014-10-02T13:13:55Z</time>
      </trkpt>
      <trkpt lat="42.6631570" lon="-7.1649910">
        <ele>856.4</ele>
        <time>2014-10-02T13:13:56Z</time>
      </trkpt>
      <trkpt lat="42.6632140" lon="-7.1651000">
        <ele>857.4</ele>
        <time>2014-10-02T13:13:57Z</time>
      </trkpt>
      <trkpt lat="42.6632610" lon="-7.1651910">
        <ele>858.4</ele>
        <time>2014-10-02T13:13:58Z</time>
      </trkpt>
      <trkpt lat="42.6633040" lon="-7.1652690">
        <ele>859.4</ele>
        <time>2014-10-02T13:13:59Z</time>
      </trkpt>
      <trkpt lat="42.6633410" lon="-7.1653380">
        <ele>860.4</ele>
        <time>2014-10-02T13:14:00Z</time>
      </trkpt>
      <trkpt lat="42.6633740" lon="-7.1653980">
        <ele>861.2</ele>
        <time>2014-10-02T13:14:01Z</time>
      </trkpt>
      <trkpt lat="42.6634010" lon="-7.1654470">
        <ele>861.8</ele>
        <time>2014-10-02T13:14:02Z</time>
      </trkpt>
      <trkpt lat="42.6634300" lon="-7.1655000">
        <ele>862.4</ele>
        <time>2014-10-02T13:14:03Z</time>
      </trkpt>
      <trkpt lat="42.6634580" lon="-7.1655490">
        <ele>863.1</ele>
        <time>2014-10-02T13:14:04Z</time>
      </trkpt>
      <trkpt lat="42.6634860" lon="-7.1655970">
        <ele>863.7</ele>
        <time>2014-10-02T13:14:05Z</time>
      </trkpt>
      <trkpt lat="42.6635100" lon="-7.1656370">
        <ele>864.2</ele>
        <time>2014-10-02T13:14:06Z</time>
      </trkpt>
      <trkpt lat="42.6635330" lon="-7.1656720">
        <ele>864.7</ele>
        <time>2014-10-02T13:14:07Z</time>
      </trkpt>
      <trkpt lat="42.6635580" lon="-7.1657090">
        <ele>865.2</ele>
        <time>2014-10-02T13:14:08Z</time>
      </trkpt>
      <trkpt lat="42.6635830" lon="-7.1657450">
        <ele>865.8</ele>
        <time>2014-10-02T13:14:09Z</time>
      </trkpt>
      <trkpt lat="42.6636080" lon="-7.1657800">
        <ele>866.3</ele>
        <time>2014-10-02T13:14:10Z</time>
      </trkpt>
      <trkpt lat="42.6636330" lon="-7.1658140">
        <ele>866.8</ele>
        <time>2014-10-02T13:14:11Z</time>
      </trkpt>
      <trkpt lat="42.6636590" lon="-7.1658480">
        <ele>867.3</ele>
        <time>2014-10-02T13:14:12Z</time>
      </trkpt>
      <trkpt lat="42.6636770" lon="-7.1658760">
        <ele>867.6</ele>
        <time>2014-10-02T13:14:13Z</time>
      </trkpt>
      <trkpt lat="42.6636960" lon="-7.1659060">
        <ele>867.9</ele>
        <time>2014-10-02T13:14:14Z</time>
      </trkpt>
      <trkpt lat="42.6637190" lon="-7.1659350">
        <ele>868.2</ele>
        <time>2014-10-02T13:14:15Z</time>
      </trkpt>
      <trkpt lat="42.6637430" lon="-7.1659630">
        <ele>868.4</ele>
        <time>2014-10-02T13:14:16Z</time>
      </trkpt>
      <trkpt lat="42.6637700" lon="-7.1659790">
        <ele>868.6</ele>
        <time>2014-10-02T13:14:17Z</time>
      </trkpt>
      <trkpt lat="42.6638220" lon="-7.1660000">
        <ele>868.9</ele>
        <time>2014-10-02T13:14:19Z</time>
      </trkpt>
      <trkpt lat="42.6638550" lon="-7.1660110">
        <ele>869.2</ele>
        <time>2014-10-02T13:14:20Z</time>
      </trkpt>
      <trkpt lat="42.6638860" lon="-7.1660170">
        <ele>869.5</ele>
        <time>2014-10-02T13:14:21Z</time>
      </trkpt>
      <trkpt lat="42.6639180" lon="-7.1660210">
        <ele>869.8</ele>
        <time>2014-10-02T13:14:22Z</time>
      </trkpt>
      <trkpt lat="42.6639570" lon="-7.1660230">
        <ele>870.3</ele>
        <time>2014-10-02T13:14:23Z</time>
      </trkpt>
      <trkpt lat="42.6639980" lon="-7.1660230">
        <ele>870.7</ele>
        <time>2014-10-02T13:14:24Z</time>
      </trkpt>
      <trkpt lat="42.6640380" lon="-7.1660260">
        <ele>871.1</ele>
        <time>2014-10-02T13:14:25Z</time>
      </trkpt>
      <trkpt lat="42.6640700" lon="-7.1660280">
        <ele>871.5</ele>
        <time>2014-10-02T13:14:26Z</time>
      </trkpt>
      <trkpt lat="42.6641100" lon="-7.1660320">
        <ele>871.9</ele>
        <time>2014-10-02T13:14:27Z</time>
      </trkpt>
      <trkpt lat="42.6641460" lon="-7.1660390">
        <ele>872.3</ele>
        <time>2014-10-02T13:14:28Z</time>
      </trkpt>
      <trkpt lat="42.6641760" lon="-7.1660550">
        <ele>872.7</ele>
        <time>2014-10-02T13:14:29Z</time>
      </trkpt>
      <trkpt lat="42.6642070" lon="-7.1660760">
        <ele>873.0</ele>
        <time>2014-10-02T13:14:30Z</time>
      </trkpt>
      <trkpt lat="42.6642270" lon="-7.1661050">
        <ele>873.3</ele>
        <time>2014-10-02T13:14:31Z</time>
      </trkpt>
      <trkpt lat="42.6642480" lon="-7.1661400">
        <ele>873.6</ele>
        <time>2014-10-02T13:14:32Z</time>
      </trkpt>
      <trkpt lat="42.6642610" lon="-7.1661860">
        <ele>873.8</ele>
        <time>2014-10-02T13:14:33Z</time>
      </trkpt>
      <trkpt lat="42.6642700" lon="-7.1662320">
        <ele>874.0</ele>
        <time>2014-10-02T13:14:34Z</time>
      </trkpt>
      <trkpt lat="42.6642680" lon="-7.1662860">
        <ele>874.2</ele>
        <time>2014-10-02T13:14:35Z</time>
      </trkpt>
      <trkpt lat="42.6642650" lon="-7.1663240">
        <ele>874.3</ele>
        <time>2014-10-02T13:14:36Z</time>
      </trkpt>
      <trkpt lat="42.6642610" lon="-7.1663650">
        <ele>874.4</ele>
        <time>2014-10-02T13:14:37Z</time>
      </trkpt>
      <trkpt lat="42.6642550" lon="-7.1664130">
        <ele>874.6</ele>
        <time>2014-10-02T13:14:38Z</time>
      </trkpt>
      <trkpt lat="42.6642370" lon="-7.1664580">
        <ele>874.8</ele>
        <time>2014-10-02T13:14:39Z</time>
      </trkpt>
      <trkpt lat="42.6642190" lon="-7.1664970">
        <ele>875.0</ele>
        <time>2014-10-02T13:14:40Z</time>
      </trkpt>
      <trkpt lat="42.6642120" lon="-7.1665400">
        <ele>875.2</ele>
        <time>2014-10-02T13:14:41Z</time>
      </trkpt>
      <trkpt lat="42.6641980" lon="-7.1665840">
        <ele>875.4</ele>
        <time>2014-10-02T13:14:42Z</time>
      </trkpt>
      <trkpt lat="42.6641840" lon="-7.1666270">
        <ele>875.6</ele>
        <time>2014-10-02T13:14:43Z</time>
      </trkpt>
      <trkpt lat="42.6641720" lon="-7.1666700">
        <ele>875.7</ele>
        <time>2014-10-02T13:14:44Z</time>
      </trkpt>
      <trkpt lat="42.6641670" lon="-7.1667160">
        <ele>875.9</ele>
        <time>2014-10-02T13:14:45Z</time>
      </trkpt>
      <trkpt lat="42.6641620" lon="-7.1667580">
        <ele>876.0</ele>
        <time>2014-10-02T13:14:46Z</time>
      </trkpt>
      <trkpt lat="42.6641590" lon="-7.1668060">
        <ele>876.1</ele>
        <time>2014-10-02T13:14:47Z</time>
      </trkpt>
      <trkpt lat="42.6641560" lon="-7.1668540">
        <ele>876.3</ele>
        <time>2014-10-02T13:14:48Z</time>
      </trkpt>
      <trkpt lat="42.6641530" lon="-7.1669040">
        <ele>876.4</ele>
        <time>2014-10-02T13:14:49Z</time>
      </trkpt>
      <trkpt lat="42.6641500" lon="-7.1669560">
        <ele>876.6</ele>
        <time>2014-10-02T13:14:50Z</time>
      </trkpt>
      <trkpt lat="42.6641490" lon="-7.1670040">
        <ele>876.8</ele>
        <time>2014-10-02T13:14:51Z</time>
      </trkpt>
      <trkpt lat="42.6641510" lon="-7.1670610">
        <ele>876.9</ele>
        <time>2014-10-02T13:14:52Z</time>
      </trkpt>
      <trkpt lat="42.6641560" lon="-7.1671180">
        <ele>877.1</ele>
        <time>2014-10-02T13:14:53Z</time>
      </trkpt>
      <trkpt lat="42.6641610" lon="-7.1671800">
        <ele>877.4</ele>
        <time>2014-10-02T13:14:54Z</time>
      </trkpt>
      <trkpt lat="42.6641690" lon="-7.1672430">
        <ele>877.6</ele>
        <time>2014-10-02T13:14:55Z</time>
      </trkpt>
      <trkpt lat="42.6641810" lon="-7.1673030">
        <ele>877.8</ele>
        <time>2014-10-02T13:14:56Z</time>
      </trkpt>
      <trkpt lat="42.6641970" lon="-7.1673580">
        <ele>878.1</ele>
        <time>2014-10-02T13:14:57Z</time>
      </trkpt>
      <trkpt lat="42.6642140" lon="-7.1674080">
        <ele>878.4</ele>
        <time>2014-10-02T13:14:58Z</time>
      </trkpt>
      <trkpt lat="42.6642350" lon="-7.1674620">
        <ele>878.7</ele>
        <time>2014-10-02T13:14:59Z</time>
      </trkpt>
      <trkpt lat="42.6642600" lon="-7.1675150">
        <ele>879.0</ele>
        <time>2014-10-02T13:15:00Z</time>
      </trkpt>
      <trkpt lat="42.6642850" lon="-7.1675640">
        <ele>879.3</ele>
        <time>2014-10-02T13:15:01Z</time>
      </trkpt>
      <trkpt lat="42.6643230" lon="-7.1676010">
        <ele>879.6</ele>
        <time>2014-10-02T13:15:02Z</time>
      </trkpt>
      <trkpt lat="42.6643570" lon="-7.1676320">
        <ele>879.9</ele>
        <time>2014-10-02T13:15:03Z</time>
      </trkpt>
      <trkpt lat="42.6643860" lon="-7.1676490">
        <ele>880.2</ele>
        <time>2014-10-02T13:15:04Z</time>
      </trkpt>
      <trkpt lat="42.6644200" lon="-7.1676690">
        <ele>880.5</ele>
        <time>2014-10-02T13:15:05Z</time>
      </trkpt>
      <trkpt lat="42.6644540" lon="-7.1676880">
        <ele>880.9</ele>
        <time>2014-10-02T13:15:06Z</time>
      </trkpt>
      <trkpt lat="42.6644890" lon="-7.1677050">
        <ele>881.2</ele>
        <time>2014-10-02T13:15:07Z</time>
      </trkpt>
      <trkpt lat="42.6645260" lon="-7.1677190">
        <ele>881.6</ele>
        <time>2014-10-02T13:15:08Z</time>
      </trkpt>
      <trkpt lat="42.6645680" lon="-7.1677330">
        <ele>882.0</ele>
        <time>2014-10-02T13:15:09Z</time>
      </trkpt>
      <trkpt lat="42.6646140" lon="-7.1677500">
        <ele>882.4</ele>
        <time>2014-10-02T13:15:10Z</time>
      </trkpt>
      <trkpt lat="42.6646620" lon="-7.1677720">
        <ele>882.8</ele>
        <time>2014-10-02T13:15:11Z</time>
      </trkpt>
      <trkpt lat="42.6647140" lon="-7.1678010">
        <ele>883.2</ele>
        <time>2014-10-02T13:15:12Z</time>
      </trkpt>
      <trkpt lat="42.6647540" lon="-7.1678390">
        <ele>883.5</ele>
        <time>2014-10-02T13:15:13Z</time>
      </trkpt>
      <trkpt lat="42.6647870" lon="-7.1678920">
        <ele>883.9</ele>
        <time>2014-10-02T13:15:14Z</time>
      </trkpt>
      <trkpt lat="42.6648130" lon="-7.1679390">
        <ele>884.1</ele>
        <time>2014-10-02T13:15:15Z</time>
      </trkpt>
      <trkpt lat="42.6648410" lon="-7.1679910">
        <ele>884.4</ele>
        <time>2014-10-02T13:15:16Z</time>
      </trkpt>
      <trkpt lat="42.6648660" lon="-7.1680450">
        <ele>884.6</ele>
        <time>2014-10-02T13:15:17Z</time>
      </trkpt>
      <trkpt lat="42.6648820" lon="-7.1681010">
        <ele>884.9</ele>
        <time>2014-10-02T13:15:18Z</time>
      </trkpt>
      <trkpt lat="42.6648970" lon="-7.1681660">
        <ele>885.2</ele>
        <time>2014-10-02T13:15:19Z</time>
      </trkpt>
      <trkpt lat="42.6649140" lon="-7.1682330">
        <ele>885.6</ele>
        <time>2014-10-02T13:15:20Z</time>
      </trkpt>
      <trkpt lat="42.6649350" lon="-7.1683040">
        <ele>886.0</ele>
        <time>2014-10-02T13:15:21Z</time>
      </trkpt>
      <trkpt lat="42.6649660" lon="-7.1683660">
        <ele>886.4</ele>
        <time>2014-10-02T13:15:22Z</time>
      </trkpt>
      <trkpt lat="42.6649980" lon="-7.1684310">
        <ele>886.8</ele>
        <time>2014-10-02T13:15:23Z</time>
      </trkpt>
      <trkpt lat="42.6650250" lon="-7.1684880">
        <ele>887.2</ele>
        <time>2014-10-02T13:15:24Z</time>
      </trkpt>
      <trkpt lat="42.6650550" lon="-7.1685440">
        <ele>887.6</ele>
        <time>2014-10-02T13:15:25Z</time>
      </trkpt>
      <trkpt lat="42.6650850" lon="-7.1685910">
        <ele>888.0</ele>
        <time>2014-10-02T13:15:26Z</time>
      </trkpt>
      <trkpt lat="42.6651170" lon="-7.1686180">
        <ele>888.3</ele>
        <time>2014-10-02T13:15:27Z</time>
      </trkpt>
      <trkpt lat="42.6651480" lon="-7.1686410">
        <ele>888.6</ele>
        <time>2014-10-02T13:15:28Z</time>
      </trkpt>
      <trkpt lat="42.6651810" lon="-7.1686550">
        <ele>888.9</ele>
        <time>2014-10-02T13:15:29Z</time>
      </trkpt>
      <trkpt lat="42.6652180" lon="-7.1686640">
        <ele>889.3</ele>
        <time>2014-10-02T13:15:30Z</time>
      </trkpt>
      <trkpt lat="42.6652580" lon="-7.1686690">
        <ele>889.7</ele>
        <time>2014-10-02T13:15:31Z</time>
      </trkpt>
      <trkpt lat="42.6652980" lon="-7.1686760">
        <ele>890.2</ele>
        <time>2014-10-02T13:15:32Z</time>
      </trkpt>
      <trkpt lat="42.6653400" lon="-7.1686820">
        <ele>890.6</ele>
        <time>2014-10-02T13:15:33Z</time>
      </trkpt>
      <trkpt lat="42.6653790" lon="-7.1686850">
        <ele>891.0</ele>
        <time>2014-10-02T13:15:34Z</time>
      </trkpt>
      <trkpt lat="42.6654130" lon="-7.1686850">
        <ele>891.4</ele>
        <time>2014-10-02T13:15:35Z</time>
      </trkpt>
      <trkpt lat="42.6654530" lon="-7.1686840">
        <ele>891.8</ele>
        <time>2014-10-02T13:15:36Z</time>
      </trkpt>
      <trkpt lat="42.6654930" lon="-7.1686830">
        <ele>892.1</ele>
        <time>2014-10-02T13:15:37Z</time>
      </trkpt>
      <trkpt lat="42.6655440" lon="-7.1686830">
        <ele>892.6</ele>
        <time>2014-10-02T13:15:38Z</time>
      </trkpt>
      <trkpt lat="42.6655880" lon="-7.1686860">
        <ele>893.0</ele>
        <time>2014-10-02T13:15:39Z</time>
      </trkpt>
      <trkpt lat="42.6656320" lon="-7.1686930">
        <ele>893.3</ele>
        <time>2014-10-02T13:15:40Z</time>
      </trkpt>
      <trkpt lat="42.6656720" lon="-7.1687020">
        <ele>893.7</ele>
        <time>2014-10-02T13:15:41Z</time>
      </trkpt>
      <trkpt lat="42.6657120" lon="-7.1687120">
        <ele>894.0</ele>
        <time>2014-10-02T13:15:42Z</time>
      </trkpt>
      <trkpt lat="42.6657510" lon="-7.1687260">
        <ele>894.3</ele>
        <time>2014-10-02T13:15:43Z</time>
      </trkpt>
      <trkpt lat="42.6657900" lon="-7.1687410">
        <ele>894.7</ele>
        <time>2014-10-02T13:15:44Z</time>
      </trkpt>
      <trkpt lat="42.6658240" lon="-7.1687580">
        <ele>895.0</ele>
        <time>2014-10-02T13:15:45Z</time>
      </trkpt>
      <trkpt lat="42.6658570" lon="-7.1687750">
        <ele>895.2</ele>
        <time>2014-10-02T13:15:46Z</time>
      </trkpt>
      <trkpt lat="42.6658860" lon="-7.1687920">
        <ele>895.5</ele>
        <time>2014-10-02T13:15:47Z</time>
      </trkpt>
      <trkpt lat="42.6659170" lon="-7.1688130">
        <ele>895.7</ele>
        <time>2014-10-02T13:15:48Z</time>
      </trkpt>
      <trkpt lat="42.6659490" lon="-7.1688330">
        <ele>896.0</ele>
        <time>2014-10-02T13:15:49Z</time>
      </trkpt>
      <trkpt lat="42.6659770" lon="-7.1688530">
        <ele>896.2</ele>
        <time>2014-10-02T13:15:50Z</time>
      </trkpt>
      <trkpt lat="42.6660080" lon="-7.1688770">
        <ele>896.5</ele>
        <time>2014-10-02T13:15:51Z</time>
      </trkpt>
      <trkpt lat="42.6660400" lon="-7.1689010">
        <ele>896.8</ele>
        <time>2014-10-02T13:15:52Z</time>
      </trkpt>
      <trkpt lat="42.6660740" lon="-7.1689310">
        <ele>897.1</ele>
        <time>2014-10-02T13:15:53Z</time>
      </trkpt>
      <trkpt lat="42.6661070" lon="-7.1689640">
        <ele>897.4</ele>
        <time>2014-10-02T13:15:54Z</time>
      </trkpt>
      <trkpt lat="42.6661410" lon="-7.1690000">
        <ele>897.7</ele>
        <time>2014-10-02T13:15:55Z</time>
      </trkpt>
      <trkpt lat="42.6661740" lon="-7.1690380">
        <ele>897.8</ele>
        <time>2014-10-02T13:15:56Z</time>
      </trkpt>
      <trkpt lat="42.6662010" lon="-7.1690740">
        <ele>897.8</ele>
        <time>2014-10-02T13:15:57Z</time>
      </trkpt>
      <trkpt lat="42.6662320" lon="-7.1691160">
        <ele>897.3</ele>
        <time>2014-10-02T13:15:58Z</time>
      </trkpt>
      <trkpt lat="42.6662580" lon="-7.1691550">
        <ele>896.6</ele>
        <time>2014-10-02T13:15:59Z</time>
      </trkpt>
      <trkpt lat="42.6662810" lon="-7.1691890">
        <ele>895.8</ele>
        <time>2014-10-02T13:16:00Z</time>
      </trkpt>
      <trkpt lat="42.6663060" lon="-7.1692250">
        <ele>895.4</ele>
        <time>2014-10-02T13:16:01Z</time>
      </trkpt>
      <trkpt lat="42.6663340" lon="-7.1692690">
        <ele>895.7</ele>
        <time>2014-10-02T13:16:02Z</time>
      </trkpt>
      <trkpt lat="42.6663580" lon="-7.1693040">
        <ele>895.9</ele>
        <time>2014-10-02T13:16:03Z</time>
      </trkpt>
      <trkpt lat="42.6663850" lon="-7.1693390">
        <ele>896.1</ele>
        <time>2014-10-02T13:16:04Z</time>
      </trkpt>
      <trkpt lat="42.6664170" lon="-7.1693770">
        <ele>896.3</ele>
        <time>2014-10-02T13:16:05Z</time>
      </trkpt>
      <trkpt lat="42.6664460" lon="-7.1694050">
        <ele>896.6</ele>
        <time>2014-10-02T13:16:06Z</time>
      </trkpt>
      <trkpt lat="42.6664760" lon="-7.1694360">
        <ele>896.8</ele>
        <time>2014-10-02T13:16:07Z</time>
      </trkpt>
      <trkpt lat="42.6665080" lon="-7.1694680">
        <ele>897.0</ele>
        <time>2014-10-02T13:16:08Z</time>
      </trkpt>
      <trkpt lat="42.6665380" lon="-7.1695030">
        <ele>897.3</ele>
        <time>2014-10-02T13:16:09Z</time>
      </trkpt>
      <trkpt lat="42.6665630" lon="-7.1695520">
        <ele>897.5</ele>
        <time>2014-10-02T13:16:10Z</time>
      </trkpt>
      <trkpt lat="42.6665840" lon="-7.1696020">
        <ele>897.7</ele>
        <time>2014-10-02T13:16:11Z</time>
      </trkpt>
      <trkpt lat="42.6665970" lon="-7.1696560">
        <ele>897.8</ele>
        <time>2014-10-02T13:16:12Z</time>
      </trkpt>
      <trkpt lat="42.6665970" lon="-7.1697090">
        <ele>898.0</ele>
        <time>2014-10-02T13:16:13Z</time>
      </trkpt>
      <trkpt lat="42.6665970" lon="-7.1697630">
        <ele>898.1</ele>
        <time>2014-10-02T13:16:14Z</time>
      </trkpt>
      <trkpt lat="42.6665870" lon="-7.1698150">
        <ele>898.3</ele>
        <time>2014-10-02T13:16:15Z</time>
      </trkpt>
      <trkpt lat="42.6665720" lon="-7.1698670">
        <ele>898.4</ele>
        <time>2014-10-02T13:16:16Z</time>
      </trkpt>
      <trkpt lat="42.6665560" lon="-7.1699150">
        <ele>898.5</ele>
        <time>2014-10-02T13:16:17Z</time>
      </trkpt>
      <trkpt lat="42.6665370" lon="-7.1699530">
        <ele>898.6</ele>
        <time>2014-10-02T13:16:18Z</time>
      </trkpt>
      <trkpt lat="42.6665120" lon="-7.1699880">
        <ele>898.6</ele>
        <time>2014-10-02T13:16:19Z</time>
      </trkpt>
      <trkpt lat="42.6664210" lon="-7.1700370">
        <ele>898.7</ele>
        <time>2014-10-02T13:16:22Z</time>
      </trkpt>
      <trkpt lat="42.6663720" lon="-7.1700590">
        <ele>898.7</ele>
        <time>2014-10-02T13:16:23Z</time>
      </trkpt>
      <trkpt lat="42.6663220" lon="-7.1700830">
        <ele>898.7</ele>
        <time>2014-10-02T13:16:24Z</time>
      </trkpt>
      <trkpt lat="42.6662650" lon="-7.1701080">
        <ele>898.8</ele>
        <time>2014-10-02T13:16:25Z</time>
      </trkpt>
      <trkpt lat="42.6662080" lon="-7.1701320">
        <ele>898.9</ele>
        <time>2014-10-02T13:16:26Z</time>
      </trkpt>
      <trkpt lat="42.6661560" lon="-7.1701710">
        <ele>899.0</ele>
        <time>2014-10-02T13:16:27Z</time>
      </trkpt>
      <trkpt lat="42.6661110" lon="-7.1702020">
        <ele>899.2</ele>
        <time>2014-10-02T13:16:28Z</time>
      </trkpt>
      <trkpt lat="42.6660830" lon="-7.1702470">
        <ele>899.4</ele>
        <time>2014-10-02T13:16:29Z</time>
      </trkpt>
      <trkpt lat="42.6660510" lon="-7.1702980">
        <ele>899.6</ele>
        <time>2014-10-02T13:16:30Z</time>
      </trkpt>
      <trkpt lat="42.6660190" lon="-7.1703480">
        <ele>899.8</ele>
        <time>2014-10-02T13:16:31Z</time>
      </trkpt>
      <trkpt lat="42.6659900" lon="-7.1703900">
        <ele>899.9</ele>
        <time>2014-10-02T13:16:32Z</time>
      </trkpt>
      <trkpt lat="42.6659440" lon="-7.1704540">
        <ele>900.1</ele>
        <time>2014-10-02T13:16:33Z</time>
      </trkpt>
      <trkpt lat="42.6658990" lon="-7.1705150">
        <ele>900.2</ele>
        <time>2014-10-02T13:16:34Z</time>
      </trkpt>
      <trkpt lat="42.6658540" lon="-7.1705730">
        <ele>900.4</ele>
        <time>2014-10-02T13:16:35Z</time>
      </trkpt>
      <trkpt lat="42.6658140" lon="-7.1706260">
        <ele>900.6</ele>
        <time>2014-10-02T13:16:36Z</time>
      </trkpt>
      <trkpt lat="42.6657760" lon="-7.1706780">
        <ele>900.8</ele>
        <time>2014-10-02T13:16:37Z</time>
      </trkpt>
      <trkpt lat="42.6657350" lon="-7.1707270">
        <ele>901.0</ele>
        <time>2014-10-02T13:16:38Z</time>
      </trkpt>
      <trkpt lat="42.6656880" lon="-7.1707790">
        <ele>901.2</ele>
        <time>2014-10-02T13:16:39Z</time>
      </trkpt>
      <trkpt lat="42.6656440" lon="-7.1708210">
        <ele>901.4</ele>
        <time>2014-10-02T13:16:40Z</time>
      </trkpt>
      <trkpt lat="42.6655960" lon="-7.1708610">
        <ele>901.6</ele>
        <time>2014-10-02T13:16:41Z</time>
      </trkpt>
      <trkpt lat="42.6655670" lon="-7.1708880">
        <ele>901.8</ele>
        <time>2014-10-02T13:16:42Z</time>
      </trkpt>
      <trkpt lat="42.6655170" lon="-7.1709330">
        <ele>902.0</ele>
        <time>2014-10-02T13:16:43Z</time>
      </trkpt>
      <trkpt lat="42.6654680" lon="-7.1709770">
        <ele>902.2</ele>
        <time>2014-10-02T13:16:44Z</time>
      </trkpt>
      <trkpt lat="42.6654140" lon="-7.1710260">
        <ele>902.5</ele>
        <time>2014-10-02T13:16:45Z</time>
      </trkpt>
      <trkpt lat="42.6653630" lon="-7.1710720">
        <ele>902.8</ele>
        <time>2014-10-02T13:16:46Z</time>
      </trkpt>
      <trkpt lat="42.6653150" lon="-7.1711140">
        <ele>902.9</ele>
        <time>2014-10-02T13:16:47Z</time>
      </trkpt>
      <trkpt lat="42.6652650" lon="-7.1711590">
        <ele>902.8</ele>
        <time>2014-10-02T13:16:48Z</time>
      </trkpt>
      <trkpt lat="42.6652110" lon="-7.1712090">
        <ele>902.7</ele>
        <time>2014-10-02T13:16:49Z</time>
      </trkpt>
      <trkpt lat="42.6651610" lon="-7.1712600">
        <ele>902.6</ele>
        <time>2014-10-02T13:16:50Z</time>
      </trkpt>
      <trkpt lat="42.6651140" lon="-7.1713170">
        <ele>902.6</ele>
        <time>2014-10-02T13:16:51Z</time>
      </trkpt>
      <trkpt lat="42.6650790" lon="-7.1713770">
        <ele>902.6</ele>
        <time>2014-10-02T13:16:52Z</time>
      </trkpt>
      <trkpt lat="42.6650610" lon="-7.1714360">
        <ele>902.7</ele>
        <time>2014-10-02T13:16:53Z</time>
      </trkpt>
      <trkpt lat="42.6650460" lon="-7.1714960">
        <ele>902.8</ele>
        <time>2014-10-02T13:16:54Z</time>
      </trkpt>
      <trkpt lat="42.6650330" lon="-7.1715570">
        <ele>903.0</ele>
        <time>2014-10-02T13:16:55Z</time>
      </trkpt>
      <trkpt lat="42.6650230" lon="-7.1716200">
        <ele>903.1</ele>
        <time>2014-10-02T13:16:56Z</time>
      </trkpt>
      <trkpt lat="42.6650140" lon="-7.1716880">
        <ele>903.2</ele>
        <time>2014-10-02T13:16:57Z</time>
      </trkpt>
      <trkpt lat="42.6650070" lon="-7.1717560">
        <ele>903.3</ele>
        <time>2014-10-02T13:16:58Z</time>
      </trkpt>
      <trkpt lat="42.6650040" lon="-7.1718140">
        <ele>903.4</ele>
        <time>2014-10-02T13:16:59Z</time>
      </trkpt>
      <trkpt lat="42.6649900" lon="-7.1718700">
        <ele>903.5</ele>
        <time>2014-10-02T13:17:00Z</time>
      </trkpt>
      <trkpt lat="42.6649600" lon="-7.1719300">
        <ele>903.8</ele>
        <time>2014-10-02T13:17:01Z</time>
      </trkpt>
      <trkpt lat="42.6649270" lon="-7.1719890">
        <ele>904.2</ele>
        <time>2014-10-02T13:17:02Z</time>
      </trkpt>
      <trkpt lat="42.6648900" lon="-7.1720320">
        <ele>904.6</ele>
        <time>2014-10-02T13:17:03Z</time>
      </trkpt>
      <trkpt lat="42.6648490" lon="-7.1720610">
        <ele>905.1</ele>
        <time>2014-10-02T13:17:04Z</time>
      </trkpt>
      <trkpt lat="42.6648140" lon="-7.1720840">
        <ele>905.5</ele>
        <time>2014-10-02T13:17:05Z</time>
      </trkpt>
      <trkpt lat="42.6647800" lon="-7.1721050">
        <ele>906.0</ele>
        <time>2014-10-02T13:17:06Z</time>
      </trkpt>
      <trkpt lat="42.6647450" lon="-7.1721260">
        <ele>906.4</ele>
        <time>2014-10-02T13:17:07Z</time>
      </trkpt>
      <trkpt lat="42.6647090" lon="-7.1721410">
        <ele>906.7</ele>
        <time>2014-10-02T13:17:08Z</time>
      </trkpt>
      <trkpt lat="42.6646710" lon="-7.1721580">
        <ele>907.0</ele>
        <time>2014-10-02T13:17:09Z</time>
      </trkpt>
      <trkpt lat="42.6646330" lon="-7.1721750">
        <ele>907.3</ele>
        <time>2014-10-02T13:17:10Z</time>
      </trkpt>
      <trkpt lat="42.6645990" lon="-7.1721890">
        <ele>907.5</ele>
        <time>2014-10-02T13:17:11Z</time>
      </trkpt>
      <trkpt lat="42.6645590" lon="-7.1722060">
        <ele>907.8</ele>
        <time>2014-10-02T13:17:12Z</time>
      </trkpt>
      <trkpt lat="42.6645210" lon="-7.1722230">
        <ele>908.1</ele>
        <time>2014-10-02T13:17:13Z</time>
      </trkpt>
      <trkpt lat="42.6644810" lon="-7.1722390">
        <ele>908.4</ele>
        <time>2014-10-02T13:17:14Z</time>
      </trkpt>
      <trkpt lat="42.6644420" lon="-7.1722570">
        <ele>908.8</ele>
        <time>2014-10-02T13:17:15Z</time>
      </trkpt>
      <trkpt lat="42.6644030" lon="-7.1722740">
        <ele>909.1</ele>
        <time>2014-10-02T13:17:16Z</time>
      </trkpt>
      <trkpt lat="42.6643680" lon="-7.1722910">
        <ele>909.5</ele>
        <time>2014-10-02T13:17:17Z</time>
      </trkpt>
      <trkpt lat="42.6643290" lon="-7.1723100">
        <ele>909.9</ele>
        <time>2014-10-02T13:17:18Z</time>
      </trkpt>
      <trkpt lat="42.6643000" lon="-7.1723230">
        <ele>910.1</ele>
        <time>2014-10-02T13:17:19Z</time>
      </trkpt>
      <trkpt lat="42.6642650" lon="-7.1723340">
        <ele>910.4</ele>
        <time>2014-10-02T13:17:20Z</time>
      </trkpt>
      <trkpt lat="42.6642240" lon="-7.1723250">
        <ele>910.8</ele>
        <time>2014-10-02T13:17:21Z</time>
      </trkpt>
      <trkpt lat="42.6641840" lon="-7.1723040">
        <ele>911.2</ele>
        <time>2014-10-02T13:17:22Z</time>
      </trkpt>
      <trkpt lat="42.6641360" lon="-7.1722780">
        <ele>911.6</ele>
        <time>2014-10-02T13:17:23Z</time>
      </trkpt>
      <trkpt lat="42.6641010" lon="-7.1722500">
        <ele>912.0</ele>
        <time>2014-10-02T13:17:24Z</time>
      </trkpt>
      <trkpt lat="42.6640700" lon="-7.1722250">
        <ele>912.3</ele>
        <time>2014-10-02T13:17:25Z</time>
      </trkpt>
      <trkpt lat="42.6640460" lon="-7.1721960">
        <ele>912.6</ele>
        <time>2014-10-02T13:17:26Z</time>
      </trkpt>
      <trkpt lat="42.6640140" lon="-7.1721640">
        <ele>913.0</ele>
        <time>2014-10-02T13:17:27Z</time>
      </trkpt>
      <trkpt lat="42.6639900" lon="-7.1721430">
        <ele>913.2</ele>
        <time>2014-10-02T13:17:28Z</time>
      </trkpt>
      <trkpt lat="42.6639550" lon="-7.1721280">
        <ele>913.6</ele>
        <time>2014-10-02T13:17:29Z</time>
      </trkpt>
      <trkpt lat="42.6639220" lon="-7.1721110">
        <ele>913.9</ele>
        <time>2014-10-02T13:17:30Z</time>
      </trkpt>
      <trkpt lat="42.6638740" lon="-7.1720760">
        <ele>914.5</ele>
        <time>2014-10-02T13:17:32Z</time>
      </trkpt>
      <trkpt lat="42.6638480" lon="-7.1720560">
        <ele>914.7</ele>
        <time>2014-10-02T13:17:33Z</time>
      </trkpt>
      <trkpt lat="42.6638240" lon="-7.1720330">
        <ele>915.0</ele>
        <time>2014-10-02T13:17:34Z</time>
      </trkpt>
      <trkpt lat="42.6637860" lon="-7.1720090">
        <ele>915.4</ele>
        <time>2014-10-02T13:17:35Z</time>
      </trkpt>
      <trkpt lat="42.6637460" lon="-7.1719800">
        <ele>915.9</ele>
        <time>2014-10-02T13:17:36Z</time>
      </trkpt>
      <trkpt lat="42.6636990" lon="-7.1719340">
        <ele>916.3</ele>
        <time>2014-10-02T13:17:38Z</time>
      </trkpt>
      <trkpt lat="42.6636740" lon="-7.1719150">
        <ele>916.4</ele>
        <time>2014-10-02T13:17:39Z</time>
      </trkpt>
      <trkpt lat="42.6636250" lon="-7.1719160">
        <ele>916.6</ele>
        <time>2014-10-02T13:17:41Z</time>
      </trkpt>
      <trkpt lat="42.6635820" lon="-7.1719390">
        <ele>916.7</ele>
        <time>2014-10-02T13:17:43Z</time>
      </trkpt>
      <trkpt lat="42.6635390" lon="-7.1719640">
        <ele>916.8</ele>
        <time>2014-10-02T13:17:45Z</time>
      </trkpt>
      <trkpt lat="42.6634910" lon="-7.1719910">
        <ele>916.9</ele>
        <time>2014-10-02T13:17:47Z</time>
      </trkpt>
      <trkpt lat="42.6634430" lon="-7.1720180">
        <ele>917.0</ele>
        <time>2014-10-02T13:17:49Z</time>
      </trkpt>
      <trkpt lat="42.6633930" lon="-7.1720460">
        <ele>917.2</ele>
        <time>2014-10-02T13:17:51Z</time>
      </trkpt>
      <trkpt lat="42.6633670" lon="-7.1720630">
        <ele>917.4</ele>
        <time>2014-10-02T13:17:52Z</time>
      </trkpt>
      <trkpt lat="42.6633210" lon="-7.1721100">
        <ele>917.8</ele>
        <time>2014-10-02T13:17:54Z</time>
      </trkpt>
      <trkpt lat="42.6632970" lon="-7.1721330">
        <ele>918.0</ele>
        <time>2014-10-02T13:17:55Z</time>
      </trkpt>
      <trkpt lat="42.6632700" lon="-7.1721610">
        <ele>918.3</ele>
        <time>2014-10-02T13:17:56Z</time>
      </trkpt>
      <trkpt lat="42.6632460" lon="-7.1721820">
        <ele>918.5</ele>
        <time>2014-10-02T13:17:57Z</time>
      </trkpt>
      <trkpt lat="42.6632210" lon="-7.1722010">
        <ele>918.7</ele>
        <time>2014-10-02T13:17:58Z</time>
      </trkpt>
      <trkpt lat="42.6631970" lon="-7.1722190">
        <ele>918.9</ele>
        <time>2014-10-02T13:17:59Z</time>
      </trkpt>
      <trkpt lat="42.6631520" lon="-7.1722570">
        <ele>919.4</ele>
        <time>2014-10-02T13:18:01Z</time>
      </trkpt>
      <trkpt lat="42.6630970" lon="-7.1722890">
        <ele>920.0</ele>
        <time>2014-10-02T13:18:03Z</time>
      </trkpt>
      <trkpt lat="42.6630100" lon="-7.1723470">
        <ele>920.9</ele>
        <time>2014-10-02T13:18:06Z</time>
      </trkpt>
      <trkpt lat="42.6629800" lon="-7.1723650">
        <ele>921.2</ele>
        <time>2014-10-02T13:18:07Z</time>
      </trkpt>
      <trkpt lat="42.6629470" lon="-7.1723890">
        <ele>921.5</ele>
        <time>2014-10-02T13:18:08Z</time>
      </trkpt>
      <trkpt lat="42.6629110" lon="-7.1724020">
        <ele>921.8</ele>
        <time>2014-10-02T13:18:09Z</time>
      </trkpt>
      <trkpt lat="42.6628770" lon="-7.1724150">
        <ele>922.1</ele>
        <time>2014-10-02T13:18:10Z</time>
      </trkpt>
      <trkpt lat="42.6628460" lon="-7.1724250">
        <ele>922.4</ele>
        <time>2014-10-02T13:18:11Z</time>
      </trkpt>
      <trkpt lat="42.6627980" lon="-7.1724310">
        <ele>922.9</ele>
        <time>2014-10-02T13:18:13Z</time>
      </trkpt>
      <trkpt lat="42.6627580" lon="-7.1724280">
        <ele>923.3</ele>
        <time>2014-10-02T13:18:14Z</time>
      </trkpt>
      <trkpt lat="42.6627180" lon="-7.1724260">
        <ele>923.6</ele>
        <time>2014-10-02T13:18:15Z</time>
      </trkpt>
      <trkpt lat="42.6626880" lon="-7.1724240">
        <ele>923.8</ele>
        <time>2014-10-02T13:18:16Z</time>
      </trkpt>
      <trkpt lat="42.6626550" lon="-7.1724220">
        <ele>924.1</ele>
        <time>2014-10-02T13:18:17Z</time>
      </trkpt>
      <trkpt lat="42.6626190" lon="-7.1724230">
        <ele>924.3</ele>
        <time>2014-10-02T13:18:18Z</time>
      </trkpt>
      <trkpt lat="42.6625870" lon="-7.1724240">
        <ele>924.5</ele>
        <time>2014-10-02T13:18:19Z</time>
      </trkpt>
      <trkpt lat="42.6625530" lon="-7.1724260">
        <ele>924.7</ele>
        <time>2014-10-02T13:18:20Z</time>
      </trkpt>
      <trkpt lat="42.6625220" lon="-7.1724260">
        <ele>924.9</ele>
        <time>2014-10-02T13:18:21Z</time>
      </trkpt>
      <trkpt lat="42.6624870" lon="-7.1724360">
        <ele>925.2</ele>
        <time>2014-10-02T13:18:22Z</time>
      </trkpt>
      <trkpt lat="42.6624520" lon="-7.1724450">
        <ele>925.4</ele>
        <time>2014-10-02T13:18:23Z</time>
      </trkpt>
      <trkpt lat="42.6624190" lon="-7.1724540">
        <ele>925.7</ele>
        <time>2014-10-02T13:18:24Z</time>
      </trkpt>
      <trkpt lat="42.6623950" lon="-7.1724700">
        <ele>925.9</ele>
        <time>2014-10-02T13:18:25Z</time>
      </trkpt>
      <trkpt lat="42.6623710" lon="-7.1724930">
        <ele>926.1</ele>
        <time>2014-10-02T13:18:26Z</time>
      </trkpt>
      <trkpt lat="42.6623460" lon="-7.1725150">
        <ele>926.3</ele>
        <time>2014-10-02T13:18:27Z</time>
      </trkpt>
      <trkpt lat="42.6623140" lon="-7.1725360">
        <ele>926.6</ele>
        <time>2014-10-02T13:18:28Z</time>
      </trkpt>
      <trkpt lat="42.6622790" lon="-7.1725690">
        <ele>926.9</ele>
        <time>2014-10-02T13:18:29Z</time>
      </trkpt>
      <trkpt lat="42.6622450" lon="-7.1726030">
        <ele>927.2</ele>
        <time>2014-10-02T13:18:30Z</time>
      </trkpt>
      <trkpt lat="42.6622150" lon="-7.1726300">
        <ele>927.5</ele>
        <time>2014-10-02T13:18:31Z</time>
      </trkpt>
      <trkpt lat="42.6621860" lon="-7.1726580">
        <ele>927.8</ele>
        <time>2014-10-02T13:18:32Z</time>
      </trkpt>
      <trkpt lat="42.6621560" lon="-7.1726880">
        <ele>928.1</ele>
        <time>2014-10-02T13:18:33Z</time>
      </trkpt>
      <trkpt lat="42.6621210" lon="-7.1727180">
        <ele>928.5</ele>
        <time>2014-10-02T13:18:34Z</time>
      </trkpt>
      <trkpt lat="42.6620930" lon="-7.1727430">
        <ele>928.9</ele>
        <time>2014-10-02T13:18:35Z</time>
      </trkpt>
      <trkpt lat="42.6620660" lon="-7.1727630">
        <ele>929.2</ele>
        <time>2014-10-02T13:18:36Z</time>
      </trkpt>
      <trkpt lat="42.6619750" lon="-7.1728510">
        <ele>930.1</ele>
        <time>2014-10-02T13:18:40Z</time>
      </trkpt>
      <trkpt lat="42.6619310" lon="-7.1728910">
        <ele>930.3</ele>
        <time>2014-10-02T13:18:41Z</time>
      </trkpt>
      <trkpt lat="42.6618960" lon="-7.1729320">
        <ele>930.3</ele>
        <time>2014-10-02T13:18:42Z</time>
      </trkpt>
      <trkpt lat="42.6618620" lon="-7.1729730">
        <ele>930.4</ele>
        <time>2014-10-02T13:18:43Z</time>
      </trkpt>
      <trkpt lat="42.6618240" lon="-7.1730140">
        <ele>930.4</ele>
        <time>2014-10-02T13:18:44Z</time>
      </trkpt>
      <trkpt lat="42.6617800" lon="-7.1730560">
        <ele>930.4</ele>
        <time>2014-10-02T13:18:45Z</time>
      </trkpt>
      <trkpt lat="42.6617280" lon="-7.1730920">
        <ele>930.4</ele>
        <time>2014-10-02T13:18:46Z</time>
      </trkpt>
      <trkpt lat="42.6616910" lon="-7.1731320">
        <ele>930.3</ele>
        <time>2014-10-02T13:18:47Z</time>
      </trkpt>
      <trkpt lat="42.6616550" lon="-7.1731690">
        <ele>930.3</ele>
        <time>2014-10-02T13:18:48Z</time>
      </trkpt>
      <trkpt lat="42.6616120" lon="-7.1731960">
        <ele>930.3</ele>
        <time>2014-10-02T13:18:49Z</time>
      </trkpt>
      <trkpt lat="42.6615730" lon="-7.1732280">
        <ele>930.4</ele>
        <time>2014-10-02T13:18:50Z</time>
      </trkpt>
      <trkpt lat="42.6615360" lon="-7.1732590">
        <ele>930.5</ele>
        <time>2014-10-02T13:18:51Z</time>
      </trkpt>
      <trkpt lat="42.6614920" lon="-7.1732960">
        <ele>930.6</ele>
        <time>2014-10-02T13:18:52Z</time>
      </trkpt>
      <trkpt lat="42.6614580" lon="-7.1733260">
        <ele>930.7</ele>
        <time>2014-10-02T13:18:53Z</time>
      </trkpt>
      <trkpt lat="42.6614250" lon="-7.1733480">
        <ele>930.8</ele>
        <time>2014-10-02T13:18:54Z</time>
      </trkpt>
      <trkpt lat="42.6613830" lon="-7.1733700">
        <ele>930.8</ele>
        <time>2014-10-02T13:18:55Z</time>
      </trkpt>
      <trkpt lat="42.6613300" lon="-7.1734000">
        <ele>930.7</ele>
        <time>2014-10-02T13:18:56Z</time>
      </trkpt>
      <trkpt lat="42.6612820" lon="-7.1734360">
        <ele>930.6</ele>
        <time>2014-10-02T13:18:57Z</time>
      </trkpt>
      <trkpt lat="42.6612330" lon="-7.1734770">
        <ele>930.5</ele>
        <time>2014-10-02T13:18:58Z</time>
      </trkpt>
      <trkpt lat="42.6611890" lon="-7.1735160">
        <ele>930.4</ele>
        <time>2014-10-02T13:18:59Z</time>
      </trkpt>
      <trkpt lat="42.6611490" lon="-7.1735530">
        <ele>930.3</ele>
        <time>2014-10-02T13:19:00Z</time>
      </trkpt>
      <trkpt lat="42.6611100" lon="-7.1735900">
        <ele>930.2</ele>
        <time>2014-10-02T13:19:01Z</time>
      </trkpt>
      <trkpt lat="42.6610700" lon="-7.1736360">
        <ele>930.0</ele>
        <time>2014-10-02T13:19:02Z</time>
      </trkpt>
      <trkpt lat="42.6610320" lon="-7.1736810">
        <ele>929.9</ele>
        <time>2014-10-02T13:19:03Z</time>
      </trkpt>
      <trkpt lat="42.6610040" lon="-7.1737200">
        <ele>929.7</ele>
        <time>2014-10-02T13:19:04Z</time>
      </trkpt>
      <trkpt lat="42.6609780" lon="-7.1737560">
        <ele>929.6</ele>
        <time>2014-10-02T13:19:05Z</time>
      </trkpt>
      <trkpt lat="42.6609530" lon="-7.1737980">
        <ele>929.5</ele>
        <time>2014-10-02T13:19:06Z</time>
      </trkpt>
      <trkpt lat="42.6609230" lon="-7.1738330">
        <ele>929.3</ele>
        <time>2014-10-02T13:19:07Z</time>
      </trkpt>
      <trkpt lat="42.6608900" lon="-7.1738650">
        <ele>929.1</ele>
        <time>2014-10-02T13:19:08Z</time>
      </trkpt>
      <trkpt lat="42.6608620" lon="-7.1739000">
        <ele>928.9</ele>
        <time>2014-10-02T13:19:09Z</time>
      </trkpt>
      <trkpt lat="42.6608280" lon="-7.1739360">
        <ele>928.7</ele>
        <time>2014-10-02T13:19:10Z</time>
      </trkpt>
      <trkpt lat="42.6607960" lon="-7.1739680">
        <ele>928.5</ele>
        <time>2014-10-02T13:19:11Z</time>
      </trkpt>
      <trkpt lat="42.6607660" lon="-7.1739960">
        <ele>928.4</ele>
        <time>2014-10-02T13:19:12Z</time>
      </trkpt>
      <trkpt lat="42.6607370" lon="-7.1740280">
        <ele>928.2</ele>
        <time>2014-10-02T13:19:13Z</time>
      </trkpt>
      <trkpt lat="42.6607070" lon="-7.1740700">
        <ele>928.1</ele>
        <time>2014-10-02T13:19:14Z</time>
      </trkpt>
      <trkpt lat="42.6606750" lon="-7.1741180">
        <ele>928.1</ele>
        <time>2014-10-02T13:19:15Z</time>
      </trkpt>
      <trkpt lat="42.6606450" lon="-7.1741710">
        <ele>928.0</ele>
        <time>2014-10-02T13:19:16Z</time>
      </trkpt>
      <trkpt lat="42.6606170" lon="-7.1742310">
        <ele>928.0</ele>
        <time>2014-10-02T13:19:17Z</time>
      </trkpt>
      <trkpt lat="42.6605930" lon="-7.1742930">
        <ele>928.0</ele>
        <time>2014-10-02T13:19:18Z</time>
      </trkpt>
      <trkpt lat="42.6605730" lon="-7.1743600">
        <ele>928.0</ele>
        <time>2014-10-02T13:19:19Z</time>
      </trkpt>
      <trkpt lat="42.6605580" lon="-7.1744170">
        <ele>928.0</ele>
        <time>2014-10-02T13:19:20Z</time>
      </trkpt>
      <trkpt lat="42.6605420" lon="-7.1744810">
        <ele>927.9</ele>
        <time>2014-10-02T13:19:21Z</time>
      </trkpt>
      <trkpt lat="42.6605260" lon="-7.1745450">
        <ele>927.9</ele>
        <time>2014-10-02T13:19:22Z</time>
      </trkpt>
      <trkpt lat="42.6605110" lon="-7.1746110">
        <ele>927.7</ele>
        <time>2014-10-02T13:19:23Z</time>
      </trkpt>
      <trkpt lat="42.6604950" lon="-7.1746800">
        <ele>927.5</ele>
        <time>2014-10-02T13:19:24Z</time>
      </trkpt>
      <trkpt lat="42.6604810" lon="-7.1747470">
        <ele>927.2</ele>
        <time>2014-10-02T13:19:25Z</time>
      </trkpt>
      <trkpt lat="42.6604660" lon="-7.1748130">
        <ele>927.0</ele>
        <time>2014-10-02T13:19:26Z</time>
      </trkpt>
      <trkpt lat="42.6604530" lon="-7.1748730">
        <ele>926.7</ele>
        <time>2014-10-02T13:19:27Z</time>
      </trkpt>
      <trkpt lat="42.6604390" lon="-7.1749380">
        <ele>926.5</ele>
        <time>2014-10-02T13:19:28Z</time>
      </trkpt>
      <trkpt lat="42.6604250" lon="-7.1750050">
        <ele>926.3</ele>
        <time>2014-10-02T13:19:29Z</time>
      </trkpt>
      <trkpt lat="42.6604180" lon="-7.1750650">
        <ele>926.0</ele>
        <time>2014-10-02T13:19:30Z</time>
      </trkpt>
      <trkpt lat="42.6604130" lon="-7.1751300">
        <ele>925.7</ele>
        <time>2014-10-02T13:19:31Z</time>
      </trkpt>
      <trkpt lat="42.6604090" lon="-7.1751930">
        <ele>925.5</ele>
        <time>2014-10-02T13:19:32Z</time>
      </trkpt>
      <trkpt lat="42.6603950" lon="-7.1752550">
        <ele>925.2</ele>
        <time>2014-10-02T13:19:33Z</time>
      </trkpt>
      <trkpt lat="42.6603860" lon="-7.1753220">
        <ele>924.9</ele>
        <time>2014-10-02T13:19:34Z</time>
      </trkpt>
      <trkpt lat="42.6603890" lon="-7.1753990">
        <ele>924.5</ele>
        <time>2014-10-02T13:19:35Z</time>
      </trkpt>
      <trkpt lat="42.6603950" lon="-7.1754750">
        <ele>924.1</ele>
        <time>2014-10-02T13:19:36Z</time>
      </trkpt>
      <trkpt lat="42.6603970" lon="-7.1755560">
        <ele>923.7</ele>
        <time>2014-10-02T13:19:37Z</time>
      </trkpt>
      <trkpt lat="42.6604020" lon="-7.1756340">
        <ele>923.2</ele>
        <time>2014-10-02T13:19:38Z</time>
      </trkpt>
      <trkpt lat="42.6604040" lon="-7.1757080">
        <ele>922.8</ele>
        <time>2014-10-02T13:19:39Z</time>
      </trkpt>
      <trkpt lat="42.6604180" lon="-7.1757790">
        <ele>922.4</ele>
        <time>2014-10-02T13:19:40Z</time>
      </trkpt>
      <trkpt lat="42.6604320" lon="-7.1758390">
        <ele>922.1</ele>
        <time>2014-10-02T13:19:41Z</time>
      </trkpt>
      <trkpt lat="42.6604510" lon="-7.1759110">
        <ele>921.8</ele>
        <time>2014-10-02T13:19:42Z</time>
      </trkpt>
      <trkpt lat="42.6604740" lon="-7.1759740">
        <ele>921.5</ele>
        <time>2014-10-02T13:19:43Z</time>
      </trkpt>
      <trkpt lat="42.6604950" lon="-7.1760400">
        <ele>921.2</ele>
        <time>2014-10-02T13:19:44Z</time>
      </trkpt>
      <trkpt lat="42.6605150" lon="-7.1761040">
        <ele>920.9</ele>
        <time>2014-10-02T13:19:45Z</time>
      </trkpt>
      <trkpt lat="42.6605360" lon="-7.1761730">
        <ele>920.6</ele>
        <time>2014-10-02T13:19:46Z</time>
      </trkpt>
      <trkpt lat="42.6605620" lon="-7.1762420">
        <ele>920.2</ele>
        <time>2014-10-02T13:19:47Z</time>
      </trkpt>
      <trkpt lat="42.6605770" lon="-7.1763120">
        <ele>919.7</ele>
        <time>2014-10-02T13:19:48Z</time>
      </trkpt>
      <trkpt lat="42.6605880" lon="-7.1763810">
        <ele>919.2</ele>
        <time>2014-10-02T13:19:49Z</time>
      </trkpt>
      <trkpt lat="42.6605860" lon="-7.1764290">
        <ele>918.8</ele>
        <time>2014-10-02T13:19:50Z</time>
      </trkpt>
      <trkpt lat="42.6605740" lon="-7.1764770">
        <ele>918.4</ele>
        <time>2014-10-02T13:19:51Z</time>
      </trkpt>
      <trkpt lat="42.6605770" lon="-7.1765380">
        <ele>918.1</ele>
        <time>2014-10-02T13:19:52Z</time>
      </trkpt>
      <trkpt lat="42.6605770" lon="-7.1766050">
        <ele>918.0</ele>
        <time>2014-10-02T13:19:53Z</time>
      </trkpt>
      <trkpt lat="42.6605810" lon="-7.1766680">
        <ele>918.0</ele>
        <time>2014-10-02T13:19:54Z</time>
      </trkpt>
      <trkpt lat="42.6605940" lon="-7.1767290">
        <ele>917.9</ele>
        <time>2014-10-02T13:19:55Z</time>
      </trkpt>
      <trkpt lat="42.6606150" lon="-7.1767910">
        <ele>917.8</ele>
        <time>2014-10-02T13:19:56Z</time>
      </trkpt>
      <trkpt lat="42.6606310" lon="-7.1768420">
        <ele>917.8</ele>
        <time>2014-10-02T13:19:57Z</time>
      </trkpt>
      <trkpt lat="42.6606380" lon="-7.1768920">
        <ele>917.7</ele>
        <time>2014-10-02T13:19:58Z</time>
      </trkpt>
      <trkpt lat="42.6606510" lon="-7.1769470">
        <ele>917.5</ele>
        <time>2014-10-02T13:19:59Z</time>
      </trkpt>
      <trkpt lat="42.6607080" lon="-7.1770110">
        <ele>917.3</ele>
        <time>2014-10-02T13:20:00Z</time>
      </trkpt>
      <trkpt lat="42.6607680" lon="-7.1770790">
        <ele>916.9</ele>
        <time>2014-10-02T13:20:01Z</time>
      </trkpt>
      <trkpt lat="42.6608170" lon="-7.1771680">
        <ele>916.4</ele>
        <time>2014-10-02T13:20:02Z</time>
      </trkpt>
      <trkpt lat="42.6608980" lon="-7.1772630">
        <ele>915.7</ele>
        <time>2014-10-02T13:20:03Z</time>
      </trkpt>
      <trkpt lat="42.6609820" lon="-7.1773710">
        <ele>915.1</ele>
        <time>2014-10-02T13:20:04Z</time>
      </trkpt>
      <trkpt lat="42.6610440" lon="-7.1774690">
        <ele>914.8</ele>
        <time>2014-10-02T13:20:05Z</time>
      </trkpt>
      <trkpt lat="42.6610940" lon="-7.1775830">
        <ele>914.6</ele>
        <time>2014-10-02T13:20:06Z</time>
      </trkpt>
      <trkpt lat="42.6611420" lon="-7.1776910">
        <ele>914.4</ele>
        <time>2014-10-02T13:20:07Z</time>
      </trkpt>
      <trkpt lat="42.6611880" lon="-7.1777910">
        <ele>914.1</ele>
        <time>2014-10-02T13:20:08Z</time>
      </trkpt>
      <trkpt lat="42.6612430" lon="-7.1779160">
        <ele>913.8</ele>
        <time>2014-10-02T13:20:09Z</time>
      </trkpt>
      <trkpt lat="42.6612960" lon="-7.1780390">
        <ele>913.4</ele>
        <time>2014-10-02T13:20:10Z</time>
      </trkpt>
      <trkpt lat="42.6613500" lon="-7.1781560">
        <ele>913.2</ele>
        <time>2014-10-02T13:20:11Z</time>
      </trkpt>
      <trkpt lat="42.6614060" lon="-7.1782510">
        <ele>912.9</ele>
        <time>2014-10-02T13:20:12Z</time>
      </trkpt>
      <trkpt lat="42.6614560" lon="-7.1783290">
        <ele>912.6</ele>
        <time>2014-10-02T13:20:13Z</time>
      </trkpt>
      <trkpt lat="42.6615080" lon="-7.1784100">
        <ele>912.2</ele>
        <time>2014-10-02T13:20:14Z</time>
      </trkpt>
      <trkpt lat="42.6615690" lon="-7.1784960">
        <ele>911.8</ele>
        <time>2014-10-02T13:20:15Z</time>
      </trkpt>
      <trkpt lat="42.6616300" lon="-7.1785780">
        <ele>911.4</ele>
        <time>2014-10-02T13:20:16Z</time>
      </trkpt>
      <trkpt lat="42.6616920" lon="-7.1786640">
        <ele>910.9</ele>
        <time>2014-10-02T13:20:17Z</time>
      </trkpt>
      <trkpt lat="42.6617560" lon="-7.1787570">
        <ele>910.5</ele>
        <time>2014-10-02T13:20:18Z</time>
      </trkpt>
      <trkpt lat="42.6618170" lon="-7.1788530">
        <ele>910.2</ele>
        <time>2014-10-02T13:20:19Z</time>
      </trkpt>
      <trkpt lat="42.6618740" lon="-7.1789580">
        <ele>909.8</ele>
        <time>2014-10-02T13:20:20Z</time>
      </trkpt>
      <trkpt lat="42.6619390" lon="-7.1790710">
        <ele>909.2</ele>
        <time>2014-10-02T13:20:21Z</time>
      </trkpt>
      <trkpt lat="42.6620120" lon="-7.1791740">
        <ele>908.5</ele>
        <time>2014-10-02T13:20:22Z</time>
      </trkpt>
      <trkpt lat="42.6620920" lon="-7.1792630">
        <ele>908.0</ele>
        <time>2014-10-02T13:20:23Z</time>
      </trkpt>
      <trkpt lat="42.6621810" lon="-7.1793440">
        <ele>907.4</ele>
        <time>2014-10-02T13:20:24Z</time>
      </trkpt>
      <trkpt lat="42.6622710" lon="-7.1794160">
        <ele>907.0</ele>
        <time>2014-10-02T13:20:25Z</time>
      </trkpt>
      <trkpt lat="42.6623830" lon="-7.1794880">
        <ele>906.6</ele>
        <time>2014-10-02T13:20:26Z</time>
      </trkpt>
      <trkpt lat="42.6624920" lon="-7.1795620">
        <ele>906.2</ele>
        <time>2014-10-02T13:20:27Z</time>
      </trkpt>
      <trkpt lat="42.6625990" lon="-7.1796380">
        <ele>905.8</ele>
        <time>2014-10-02T13:20:28Z</time>
      </trkpt>
      <trkpt lat="42.6627030" lon="-7.1797130">
        <ele>905.2</ele>
        <time>2014-10-02T13:20:29Z</time>
      </trkpt>
      <trkpt lat="42.6628440" lon="-7.1798190">
        <ele>904.6</ele>
        <time>2014-10-02T13:20:30Z</time>
      </trkpt>
      <trkpt lat="42.6629550" lon="-7.1799660">
        <ele>904.0</ele>
        <time>2014-10-02T13:20:31Z</time>
      </trkpt>
      <trkpt lat="42.6630770" lon="-7.1801370">
        <ele>897.0</ele>
        <time>2014-10-02T13:20:32Z</time>
      </trkpt>
      <trkpt lat="42.6632100" lon="-7.1803290">
        <ele>891.1</ele>
        <time>2014-10-02T13:20:33Z</time>
      </trkpt>
      <trkpt lat="42.6633230" lon="-7.1805060">
        <ele>885.9</ele>
        <time>2014-10-02T13:20:34Z</time>
      </trkpt>
      <trkpt lat="42.6634300" lon="-7.1806660">
        <ele>885.8</ele>
        <time>2014-10-02T13:20:35Z</time>
      </trkpt>
      <trkpt lat="42.6635270" lon="-7.1808170">
        <ele>885.8</ele>
        <time>2014-10-02T13:20:36Z</time>
      </trkpt>
      <trkpt lat="42.6635940" lon="-7.1809720">
        <ele>885.9</ele>
        <time>2014-10-02T13:20:37Z</time>
      </trkpt>
      <trkpt lat="42.6636570" lon="-7.1811160">
        <ele>886.1</ele>
        <time>2014-10-02T13:20:38Z</time>
      </trkpt>
      <trkpt lat="42.6637080" lon="-7.1812570">
        <ele>886.5</ele>
        <time>2014-10-02T13:20:39Z</time>
      </trkpt>
      <trkpt lat="42.6637180" lon="-7.1813380">
        <ele>886.8</ele>
        <time>2014-10-02T13:20:40Z</time>
      </trkpt>
      <trkpt lat="42.6636930" lon="-7.1813900">
        <ele>886.5</ele>
        <time>2014-10-02T13:20:41Z</time>
      </trkpt>
      <trkpt lat="42.6636760" lon="-7.1814320">
        <ele>886.3</ele>
        <time>2014-10-02T13:20:42Z</time>
      </trkpt>
      <trkpt lat="42.6636240" lon="-7.1814300">
        <ele>886.1</ele>
        <time>2014-10-02T13:20:43Z</time>
      </trkpt>
      <trkpt lat="42.6635750" lon="-7.1814000">
        <ele>886.0</ele>
        <time>2014-10-02T13:20:44Z</time>
      </trkpt>
      <trkpt lat="42.6635250" lon="-7.1813030">
        <ele>885.8</ele>
        <time>2014-10-02T13:20:45Z</time>
      </trkpt>
      <trkpt lat="42.6634790" lon="-7.1811910">
        <ele>885.8</ele>
        <time>2014-10-02T13:20:46Z</time>
      </trkpt>
      <trkpt lat="42.6634190" lon="-7.1810770">
        <ele>885.8</ele>
        <time>2014-10-02T13:20:47Z</time>
      </trkpt>
      <trkpt lat="42.6633570" lon="-7.1809600">
        <ele>885.9</ele>
        <time>2014-10-02T13:20:48Z</time>
      </trkpt>
      <trkpt lat="42.6632720" lon="-7.1808610">
        <ele>886.1</ele>
        <time>2014-10-02T13:20:49Z</time>
      </trkpt>
      <trkpt lat="42.6631810" lon="-7.1808320">
        <ele>886.2</ele>
        <time>2014-10-02T13:20:50Z</time>
      </trkpt>
      <trkpt lat="42.6630840" lon="-7.1808090">
        <ele>886.3</ele>
        <time>2014-10-02T13:20:51Z</time>
      </trkpt>
      <trkpt lat="42.6629940" lon="-7.1807920">
        <ele>886.7</ele>
        <time>2014-10-02T13:20:52Z</time>
      </trkpt>
      <trkpt lat="42.6629120" lon="-7.1807930">
        <ele>887.1</ele>
        <time>2014-10-02T13:20:53Z</time>
      </trkpt>
      <trkpt lat="42.6628380" lon="-7.1807910">
        <ele>887.5</ele>
        <time>2014-10-02T13:20:54Z</time>
      </trkpt>
      <trkpt lat="42.6627680" lon="-7.1807910">
        <ele>887.9</ele>
        <time>2014-10-02T13:20:55Z</time>
      </trkpt>
      <trkpt lat="42.6626930" lon="-7.1807920">
        <ele>888.3</ele>
        <time>2014-10-02T13:20:56Z</time>
      </trkpt>
      <trkpt lat="42.6626090" lon="-7.1808020">
        <ele>888.8</ele>
        <time>2014-10-02T13:20:57Z</time>
      </trkpt>
      <trkpt lat="42.6625370" lon="-7.1808140">
        <ele>889.1</ele>
        <time>2014-10-02T13:20:58Z</time>
      </trkpt>
      <trkpt lat="42.6624790" lon="-7.1808230">
        <ele>889.4</ele>
        <time>2014-10-02T13:20:59Z</time>
      </trkpt>
      <trkpt lat="42.6624090" lon="-7.1808390">
        <ele>889.8</ele>
        <time>2014-10-02T13:21:00Z</time>
      </trkpt>
      <trkpt lat="42.6623230" lon="-7.1808750">
        <ele>890.2</ele>
        <time>2014-10-02T13:21:01Z</time>
      </trkpt>
      <trkpt lat="42.6622460" lon="-7.1809000">
        <ele>890.5</ele>
        <time>2014-10-02T13:21:02Z</time>
      </trkpt>
      <trkpt lat="42.6621660" lon="-7.1809200">
        <ele>890.9</ele>
        <time>2014-10-02T13:21:03Z</time>
      </trkpt>
      <trkpt lat="42.6621050" lon="-7.1809220">
        <ele>891.2</ele>
        <time>2014-10-02T13:21:04Z</time>
      </trkpt>
      <trkpt lat="42.6620310" lon="-7.1809230">
        <ele>891.6</ele>
        <time>2014-10-02T13:21:05Z</time>
      </trkpt>
      <trkpt lat="42.6619250" lon="-7.1809420">
        <ele>892.4</ele>
        <time>2014-10-02T13:21:07Z</time>
      </trkpt>
      <trkpt lat="42.6618470" lon="-7.1809610">
        <ele>893.1</ele>
        <time>2014-10-02T13:21:08Z</time>
      </trkpt>
      <trkpt lat="42.6617810" lon="-7.1809870">
        <ele>893.6</ele>
        <time>2014-10-02T13:21:09Z</time>
      </trkpt>
      <trkpt lat="42.6617120" lon="-7.1810200">
        <ele>894.2</ele>
        <time>2014-10-02T13:21:10Z</time>
      </trkpt>
      <trkpt lat="42.6616380" lon="-7.1810540">
        <ele>894.9</ele>
        <time>2014-10-02T13:21:11Z</time>
      </trkpt>
      <trkpt lat="42.6615710" lon="-7.1810870">
        <ele>895.5</ele>
        <time>2014-10-02T13:21:12Z</time>
      </trkpt>
      <trkpt lat="42.6615070" lon="-7.1811100">
        <ele>896.1</ele>
        <time>2014-10-02T13:21:13Z</time>
      </trkpt>
      <trkpt lat="42.6614410" lon="-7.1811310">
        <ele>896.7</ele>
        <time>2014-10-02T13:21:14Z</time>
      </trkpt>
      <trkpt lat="42.6613760" lon="-7.1811440">
        <ele>897.4</ele>
        <time>2014-10-02T13:21:15Z</time>
      </trkpt>
      <trkpt lat="42.6613120" lon="-7.1811500">
        <ele>898.0</ele>
        <time>2014-10-02T13:21:16Z</time>
      </trkpt>
      <trkpt lat="42.6612430" lon="-7.1811510">
        <ele>898.7</ele>
        <time>2014-10-02T13:21:17Z</time>
      </trkpt>
      <trkpt lat="42.6611900" lon="-7.1811680">
        <ele>899.2</ele>
        <time>2014-10-02T13:21:18Z</time>
      </trkpt>
      <trkpt lat="42.6611460" lon="-7.1812030">
        <ele>899.7</ele>
        <time>2014-10-02T13:21:19Z</time>
      </trkpt>
      <trkpt lat="42.6611020" lon="-7.1812460">
        <ele>900.1</ele>
        <time>2014-10-02T13:21:20Z</time>
      </trkpt>
      <trkpt lat="42.6610760" lon="-7.1812980">
        <ele>900.4</ele>
        <time>2014-10-02T13:21:21Z</time>
      </trkpt>
      <trkpt lat="42.6610450" lon="-7.1813420">
        <ele>900.7</ele>
        <time>2014-10-02T13:21:22Z</time>
      </trkpt>
      <trkpt lat="42.6610130" lon="-7.1813960">
        <ele>900.9</ele>
        <time>2014-10-02T13:21:23Z</time>
      </trkpt>
      <trkpt lat="42.6609890" lon="-7.1814410">
        <ele>901.1</ele>
        <time>2014-10-02T13:21:24Z</time>
      </trkpt>
      <trkpt lat="42.6609640" lon="-7.1814870">
        <ele>901.2</ele>
        <time>2014-10-02T13:21:25Z</time>
      </trkpt>
      <trkpt lat="42.6609410" lon="-7.1815350">
        <ele>901.4</ele>
        <time>2014-10-02T13:21:26Z</time>
      </trkpt>
      <trkpt lat="42.6609190" lon="-7.1815740">
        <ele>901.6</ele>
        <time>2014-10-02T13:21:27Z</time>
      </trkpt>
      <trkpt lat="42.6608890" lon="-7.1816250">
        <ele>902.0</ele>
        <time>2014-10-02T13:21:28Z</time>
      </trkpt>
      <trkpt lat="42.6608560" lon="-7.1816680">
        <ele>902.4</ele>
        <time>2014-10-02T13:21:29Z</time>
      </trkpt>
      <trkpt lat="42.6608340" lon="-7.1817100">
        <ele>902.7</ele>
        <time>2014-10-02T13:21:30Z</time>
      </trkpt>
      <trkpt lat="42.6608040" lon="-7.1817410">
        <ele>903.1</ele>
        <time>2014-10-02T13:21:31Z</time>
      </trkpt>
      <trkpt lat="42.6607700" lon="-7.1817560">
        <ele>903.5</ele>
        <time>2014-10-02T13:21:32Z</time>
      </trkpt>
      <trkpt lat="42.6607180" lon="-7.1818080">
        <ele>904.1</ele>
        <time>2014-10-02T13:21:35Z</time>
      </trkpt>
      <trkpt lat="42.6606640" lon="-7.1819280">
        <ele>905.1</ele>
        <time>2014-10-02T13:21:40Z</time>
      </trkpt>
      <trkpt lat="42.6605950" lon="-7.1820430">
        <ele>905.5</ele>
        <time>2014-10-02T13:21:46Z</time>
      </trkpt>
      <trkpt lat="42.6605070" lon="-7.1820540">
        <ele>905.9</ele>
        <time>2014-10-02T13:21:48Z</time>
      </trkpt>
      <trkpt lat="42.6604360" lon="-7.1820550">
        <ele>906.3</ele>
        <time>2014-10-02T13:21:50Z</time>
      </trkpt>
      <trkpt lat="42.6603920" lon="-7.1820530">
        <ele>906.5</ele>
        <time>2014-10-02T13:21:51Z</time>
      </trkpt>
      <trkpt lat="42.6603550" lon="-7.1820510">
        <ele>906.7</ele>
        <time>2014-10-02T13:21:52Z</time>
      </trkpt>
      <trkpt lat="42.6602340" lon="-7.1820370">
        <ele>907.3</ele>
        <time>2014-10-02T13:21:55Z</time>
      </trkpt>
      <trkpt lat="42.6601850" lon="-7.1820280">
        <ele>907.6</ele>
        <time>2014-10-02T13:21:56Z</time>
      </trkpt>
      <trkpt lat="42.6601370" lon="-7.1820180">
        <ele>907.8</ele>
        <time>2014-10-02T13:21:57Z</time>
      </trkpt>
      <trkpt lat="42.6600850" lon="-7.1820080">
        <ele>908.0</ele>
        <time>2014-10-02T13:21:58Z</time>
      </trkpt>
      <trkpt lat="42.6600500" lon="-7.1819990">
        <ele>908.1</ele>
        <time>2014-10-02T13:21:59Z</time>
      </trkpt>
      <trkpt lat="42.6600150" lon="-7.1819960">
        <ele>908.2</ele>
        <time>2014-10-02T13:22:00Z</time>
      </trkpt>
      <trkpt lat="42.6599850" lon="-7.1819910">
        <ele>908.3</ele>
        <time>2014-10-02T13:22:01Z</time>
      </trkpt>
      <trkpt lat="42.6599290" lon="-7.1819850">
        <ele>908.5</ele>
        <time>2014-10-02T13:22:03Z</time>
      </trkpt>
      <trkpt lat="42.6599010" lon="-7.1819840">
        <ele>908.6</ele>
        <time>2014-10-02T13:22:04Z</time>
      </trkpt>
      <trkpt lat="42.6598430" lon="-7.1819760">
        <ele>908.7</ele>
        <time>2014-10-02T13:22:06Z</time>
      </trkpt>
      <trkpt lat="42.6598110" lon="-7.1819680">
        <ele>908.8</ele>
        <time>2014-10-02T13:22:07Z</time>
      </trkpt>
      <trkpt lat="42.6597230" lon="-7.1819360">
        <ele>909.1</ele>
        <time>2014-10-02T13:22:10Z</time>
      </trkpt>
      <trkpt lat="42.6596930" lon="-7.1819240">
        <ele>909.2</ele>
        <time>2014-10-02T13:22:11Z</time>
      </trkpt>
      <trkpt lat="42.6596060" lon="-7.1818890">
        <ele>909.7</ele>
        <time>2014-10-02T13:22:15Z</time>
      </trkpt>
      <trkpt lat="42.6595140" lon="-7.1818910">
        <ele>910.2</ele>
        <time>2014-10-02T13:22:20Z</time>
      </trkpt>
      <trkpt lat="42.6594490" lon="-7.1819050">
        <ele>910.6</ele>
        <time>2014-10-02T13:22:24Z</time>
      </trkpt>
      <trkpt lat="42.6593400" lon="-7.1819520">
        <ele>911.3</ele>
        <time>2014-10-02T13:22:29Z</time>
      </trkpt>
      <trkpt lat="42.6592230" lon="-7.1820320">
        <ele>912.1</ele>
        <time>2014-10-02T13:22:35Z</time>
      </trkpt>
      <trkpt lat="42.6591390" lon="-7.1820940">
        <ele>912.6</ele>
        <time>2014-10-02T13:22:40Z</time>
      </trkpt>
      <trkpt lat="42.6590630" lon="-7.1821650">
        <ele>913.0</ele>
        <time>2014-10-02T13:22:44Z</time>
      </trkpt>
      <trkpt lat="42.6590280" lon="-7.1822060">
        <ele>913.1</ele>
        <time>2014-10-02T13:22:46Z</time>
      </trkpt>
      <trkpt lat="42.6589660" lon="-7.1823380">
        <ele>913.6</ele>
        <time>2014-10-02T13:22:51Z</time>
      </trkpt>
      <trkpt lat="42.6589280" lon="-7.1824550">
        <ele>914.1</ele>
        <time>2014-10-02T13:22:55Z</time>
      </trkpt>
      <trkpt lat="42.6588990" lon="-7.1825610">
        <ele>914.6</ele>
        <time>2014-10-02T13:22:59Z</time>
      </trkpt>
      <trkpt lat="42.6588580" lon="-7.1827070">
        <ele>915.3</ele>
        <time>2014-10-02T13:23:04Z</time>
      </trkpt>
      <trkpt lat="42.6588510" lon="-7.1827480">
        <ele>915.4</ele>
        <time>2014-10-02T13:23:05Z</time>
      </trkpt>
      <trkpt lat="42.6588450" lon="-7.1827890">
        <ele>915.6</ele>
        <time>2014-10-02T13:23:06Z</time>
      </trkpt>
      <trkpt lat="42.6588310" lon="-7.1828590">
        <ele>915.8</ele>
        <time>2014-10-02T13:23:08Z</time>
      </trkpt>
      <trkpt lat="42.6588190" lon="-7.1828930">
        <ele>915.9</ele>
        <time>2014-10-02T13:23:09Z</time>
      </trkpt>
      <trkpt lat="42.6587810" lon="-7.1830440">
        <ele>916.3</ele>
        <time>2014-10-02T13:23:15Z</time>
      </trkpt>
      <trkpt lat="42.6587210" lon="-7.1831730">
        <ele>916.5</ele>
        <time>2014-10-02T13:23:20Z</time>
      </trkpt>
      <trkpt lat="42.6586640" lon="-7.1832920">
        <ele>916.5</ele>
        <time>2014-10-02T13:23:23Z</time>
      </trkpt>
      <trkpt lat="42.6586360" lon="-7.1833920">
        <ele>916.4</ele>
        <time>2014-10-02T13:23:26Z</time>
      </trkpt>
      <trkpt lat="42.6586980" lon="-7.1834540">
        <ele>916.3</ele>
        <time>2014-10-02T13:23:29Z</time>
      </trkpt>
      <trkpt lat="42.6587330" lon="-7.1834740">
        <ele>916.3</ele>
        <time>2014-10-02T13:23:30Z</time>
      </trkpt>
      <trkpt lat="42.6587830" lon="-7.1834780">
        <ele>916.1</ele>
        <time>2014-10-02T13:23:31Z</time>
      </trkpt>
      <trkpt lat="42.6588430" lon="-7.1835020">
        <ele>915.9</ele>
        <time>2014-10-02T13:23:32Z</time>
      </trkpt>
      <trkpt lat="42.6588930" lon="-7.1835330">
        <ele>915.7</ele>
        <time>2014-10-02T13:23:33Z</time>
      </trkpt>
      <trkpt lat="42.6589380" lon="-7.1835770">
        <ele>915.4</ele>
        <time>2014-10-02T13:23:34Z</time>
      </trkpt>
      <trkpt lat="42.6590040" lon="-7.1836980">
        <ele>914.7</ele>
        <time>2014-10-02T13:23:37Z</time>
      </trkpt>
      <trkpt lat="42.6590170" lon="-7.1837810">
        <ele>914.3</ele>
        <time>2014-10-02T13:23:39Z</time>
      </trkpt>
      <trkpt lat="42.6589990" lon="-7.1838270">
        <ele>914.1</ele>
        <time>2014-10-02T13:23:40Z</time>
      </trkpt>
      <trkpt lat="42.6589690" lon="-7.1839000">
        <ele>913.8</ele>
        <time>2014-10-02T13:23:41Z</time>
      </trkpt>
      <trkpt lat="42.6589360" lon="-7.1839800">
        <ele>913.3</ele>
        <time>2014-10-02T13:23:42Z</time>
      </trkpt>
      <trkpt lat="42.6589040" lon="-7.1840560">
        <ele>912.9</ele>
        <time>2014-10-02T13:23:43Z</time>
      </trkpt>
      <trkpt lat="42.6588720" lon="-7.1841390">
        <ele>912.4</ele>
        <time>2014-10-02T13:23:44Z</time>
      </trkpt>
      <trkpt lat="42.6588420" lon="-7.1842250">
        <ele>912.0</ele>
        <time>2014-10-02T13:23:45Z</time>
      </trkpt>
      <trkpt lat="42.6588100" lon="-7.1843090">
        <ele>911.5</ele>
        <time>2014-10-02T13:23:46Z</time>
      </trkpt>
      <trkpt lat="42.6587680" lon="-7.1844250">
        <ele>910.6</ele>
        <time>2014-10-02T13:23:47Z</time>
      </trkpt>
      <trkpt lat="42.6587460" lon="-7.1845170">
        <ele>909.9</ele>
        <time>2014-10-02T13:23:48Z</time>
      </trkpt>
      <trkpt lat="42.6587210" lon="-7.1846140">
        <ele>909.2</ele>
        <time>2014-10-02T13:23:49Z</time>
      </trkpt>
      <trkpt lat="42.6586960" lon="-7.1847300">
        <ele>908.4</ele>
        <time>2014-10-02T13:23:50Z</time>
      </trkpt>
      <trkpt lat="42.6586700" lon="-7.1848520">
        <ele>907.5</ele>
        <time>2014-10-02T13:23:51Z</time>
      </trkpt>
      <trkpt lat="42.6586500" lon="-7.1849560">
        <ele>906.6</ele>
        <time>2014-10-02T13:23:52Z</time>
      </trkpt>
      <trkpt lat="42.6586340" lon="-7.1850610">
        <ele>905.9</ele>
        <time>2014-10-02T13:23:53Z</time>
      </trkpt>
      <trkpt lat="42.6586220" lon="-7.1851650">
        <ele>905.3</ele>
        <time>2014-10-02T13:23:54Z</time>
      </trkpt>
      <trkpt lat="42.6586090" lon="-7.1852720">
        <ele>904.6</ele>
        <time>2014-10-02T13:23:55Z</time>
      </trkpt>
      <trkpt lat="42.6586020" lon="-7.1853690">
        <ele>903.9</ele>
        <time>2014-10-02T13:23:56Z</time>
      </trkpt>
      <trkpt lat="42.6586010" lon="-7.1854610">
        <ele>903.1</ele>
        <time>2014-10-02T13:23:57Z</time>
      </trkpt>
      <trkpt lat="42.6586030" lon="-7.1855520">
        <ele>902.4</ele>
        <time>2014-10-02T13:23:58Z</time>
      </trkpt>
      <trkpt lat="42.6586080" lon="-7.1856420">
        <ele>901.7</ele>
        <time>2014-10-02T13:23:59Z</time>
      </trkpt>
      <trkpt lat="42.6586280" lon="-7.1857140">
        <ele>901.1</ele>
        <time>2014-10-02T13:24:00Z</time>
      </trkpt>
      <trkpt lat="42.6586510" lon="-7.1857880">
        <ele>900.5</ele>
        <time>2014-10-02T13:24:01Z</time>
      </trkpt>
      <trkpt lat="42.6586680" lon="-7.1858620">
        <ele>899.9</ele>
        <time>2014-10-02T13:24:02Z</time>
      </trkpt>
      <trkpt lat="42.6586920" lon="-7.1859490">
        <ele>899.2</ele>
        <time>2014-10-02T13:24:03Z</time>
      </trkpt>
      <trkpt lat="42.6587210" lon="-7.1860420">
        <ele>898.4</ele>
        <time>2014-10-02T13:24:04Z</time>
      </trkpt>
      <trkpt lat="42.6587530" lon="-7.1861380">
        <ele>897.7</ele>
        <time>2014-10-02T13:24:05Z</time>
      </trkpt>
      <trkpt lat="42.6587880" lon="-7.1862390">
        <ele>897.1</ele>
        <time>2014-10-02T13:24:06Z</time>
      </trkpt>
      <trkpt lat="42.6588280" lon="-7.1863390">
        <ele>896.6</ele>
        <time>2014-10-02T13:24:07Z</time>
      </trkpt>
      <trkpt lat="42.6588730" lon="-7.1864420">
        <ele>896.1</ele>
        <time>2014-10-02T13:24:08Z</time>
      </trkpt>
      <trkpt lat="42.6589140" lon="-7.1865440">
        <ele>895.5</ele>
        <time>2014-10-02T13:24:09Z</time>
      </trkpt>
      <trkpt lat="42.6589600" lon="-7.1866200">
        <ele>894.8</ele>
        <time>2014-10-02T13:24:10Z</time>
      </trkpt>
      <trkpt lat="42.6590150" lon="-7.1867010">
        <ele>893.8</ele>
        <time>2014-10-02T13:24:11Z</time>
      </trkpt>
      <trkpt lat="42.6590710" lon="-7.1867790">
        <ele>893.6</ele>
        <time>2014-10-02T13:24:12Z</time>
      </trkpt>
      <trkpt lat="42.6591250" lon="-7.1868490">
        <ele>893.4</ele>
        <time>2014-10-02T13:24:13Z</time>
      </trkpt>
      <trkpt lat="42.6591730" lon="-7.1869130">
        <ele>893.4</ele>
        <time>2014-10-02T13:24:14Z</time>
      </trkpt>
      <trkpt lat="42.6592180" lon="-7.1869770">
        <ele>893.4</ele>
        <time>2014-10-02T13:24:15Z</time>
      </trkpt>
      <trkpt lat="42.6592640" lon="-7.1870520">
        <ele>893.5</ele>
        <time>2014-10-02T13:24:16Z</time>
      </trkpt>
      <trkpt lat="42.6593080" lon="-7.1871280">
        <ele>893.7</ele>
        <time>2014-10-02T13:24:17Z</time>
      </trkpt>
      <trkpt lat="42.6593480" lon="-7.1872110">
        <ele>893.7</ele>
        <time>2014-10-02T13:24:18Z</time>
      </trkpt>
      <trkpt lat="42.6593820" lon="-7.1872910">
        <ele>893.8</ele>
        <time>2014-10-02T13:24:19Z</time>
      </trkpt>
      <trkpt lat="42.6594160" lon="-7.1873760">
        <ele>893.9</ele>
        <time>2014-10-02T13:24:20Z</time>
      </trkpt>
      <trkpt lat="42.6594440" lon="-7.1874570">
        <ele>894.0</ele>
        <time>2014-10-02T13:24:21Z</time>
      </trkpt>
      <trkpt lat="42.6594710" lon="-7.1875380">
        <ele>894.2</ele>
        <time>2014-10-02T13:24:22Z</time>
      </trkpt>
      <trkpt lat="42.6594960" lon="-7.1876160">
        <ele>894.3</ele>
        <time>2014-10-02T13:24:23Z</time>
      </trkpt>
      <trkpt lat="42.6595240" lon="-7.1876930">
        <ele>894.4</ele>
        <time>2014-10-02T13:24:24Z</time>
      </trkpt>
      <trkpt lat="42.6595440" lon="-7.1877590">
        <ele>894.7</ele>
        <time>2014-10-02T13:24:25Z</time>
      </trkpt>
      <trkpt lat="42.6595640" lon="-7.1878280">
        <ele>894.9</ele>
        <time>2014-10-02T13:24:26Z</time>
      </trkpt>
      <trkpt lat="42.6595850" lon="-7.1879030">
        <ele>895.2</ele>
        <time>2014-10-02T13:24:27Z</time>
      </trkpt>
      <trkpt lat="42.6596070" lon="-7.1879850">
        <ele>895.5</ele>
        <time>2014-10-02T13:24:28Z</time>
      </trkpt>
      <trkpt lat="42.6596280" lon="-7.1880690">
        <ele>895.7</ele>
        <time>2014-10-02T13:24:29Z</time>
      </trkpt>
      <trkpt lat="42.6596490" lon="-7.1881520">
        <ele>896.0</ele>
        <time>2014-10-02T13:24:30Z</time>
      </trkpt>
      <trkpt lat="42.6596720" lon="-7.1882380">
        <ele>896.4</ele>
        <time>2014-10-02T13:24:31Z</time>
      </trkpt>
      <trkpt lat="42.6596920" lon="-7.1883120">
        <ele>896.8</ele>
        <time>2014-10-02T13:24:32Z</time>
      </trkpt>
      <trkpt lat="42.6597150" lon="-7.1883890">
        <ele>897.1</ele>
        <time>2014-10-02T13:24:33Z</time>
      </trkpt>
      <trkpt lat="42.6597370" lon="-7.1884610">
        <ele>897.4</ele>
        <time>2014-10-02T13:24:34Z</time>
      </trkpt>
      <trkpt lat="42.6597640" lon="-7.1885330">
        <ele>897.7</ele>
        <time>2014-10-02T13:24:35Z</time>
      </trkpt>
      <trkpt lat="42.6597900" lon="-7.1885940">
        <ele>898.0</ele>
        <time>2014-10-02T13:24:36Z</time>
      </trkpt>
      <trkpt lat="42.6598190" lon="-7.1886600">
        <ele>898.4</ele>
        <time>2014-10-02T13:24:37Z</time>
      </trkpt>
      <trkpt lat="42.6598490" lon="-7.1887290">
        <ele>898.7</ele>
        <time>2014-10-02T13:24:38Z</time>
      </trkpt>
      <trkpt lat="42.6598830" lon="-7.1888020">
        <ele>899.1</ele>
        <time>2014-10-02T13:24:39Z</time>
      </trkpt>
      <trkpt lat="42.6599180" lon="-7.1888700">
        <ele>899.5</ele>
        <time>2014-10-02T13:24:40Z</time>
      </trkpt>
      <trkpt lat="42.6599560" lon="-7.1889370">
        <ele>899.9</ele>
        <time>2014-10-02T13:24:41Z</time>
      </trkpt>
      <trkpt lat="42.6599920" lon="-7.1890020">
        <ele>900.4</ele>
        <time>2014-10-02T13:24:42Z</time>
      </trkpt>
      <trkpt lat="42.6600230" lon="-7.1890670">
        <ele>900.8</ele>
        <time>2014-10-02T13:24:43Z</time>
      </trkpt>
      <trkpt lat="42.6600430" lon="-7.1891170">
        <ele>901.1</ele>
        <time>2014-10-02T13:24:44Z</time>
      </trkpt>
      <trkpt lat="42.6600650" lon="-7.1891710">
        <ele>901.5</ele>
        <time>2014-10-02T13:24:45Z</time>
      </trkpt>
      <trkpt lat="42.6600850" lon="-7.1892260">
        <ele>901.9</ele>
        <time>2014-10-02T13:24:46Z</time>
      </trkpt>
      <trkpt lat="42.6601060" lon="-7.1892830">
        <ele>902.4</ele>
        <time>2014-10-02T13:24:47Z</time>
      </trkpt>
      <trkpt lat="42.6601230" lon="-7.1893360">
        <ele>902.9</ele>
        <time>2014-10-02T13:24:48Z</time>
      </trkpt>
      <trkpt lat="42.6601410" lon="-7.1893900">
        <ele>903.5</ele>
        <time>2014-10-02T13:24:49Z</time>
      </trkpt>
      <trkpt lat="42.6601580" lon="-7.1894370">
        <ele>904.0</ele>
        <time>2014-10-02T13:24:50Z</time>
      </trkpt>
      <trkpt lat="42.6601770" lon="-7.1894870">
        <ele>904.6</ele>
        <time>2014-10-02T13:24:51Z</time>
      </trkpt>
      <trkpt lat="42.6601980" lon="-7.1895390">
        <ele>905.2</ele>
        <time>2014-10-02T13:24:52Z</time>
      </trkpt>
      <trkpt lat="42.6602160" lon="-7.1895850">
        <ele>905.7</ele>
        <time>2014-10-02T13:24:53Z</time>
      </trkpt>
      <trkpt lat="42.6602320" lon="-7.1896190">
        <ele>906.1</ele>
        <time>2014-10-02T13:24:54Z</time>
      </trkpt>
      <trkpt lat="42.6602470" lon="-7.1896540">
        <ele>906.5</ele>
        <time>2014-10-02T13:24:55Z</time>
      </trkpt>
      <trkpt lat="42.6602730" lon="-7.1897120">
        <ele>907.1</ele>
        <time>2014-10-02T13:24:57Z</time>
      </trkpt>
      <trkpt lat="42.6603030" lon="-7.1897720">
        <ele>907.8</ele>
        <time>2014-10-02T13:24:59Z</time>
      </trkpt>
      <trkpt lat="42.6603190" lon="-7.1898010">
        <ele>908.2</ele>
        <time>2014-10-02T13:25:00Z</time>
      </trkpt>
      <trkpt lat="42.6603510" lon="-7.1898530">
        <ele>908.8</ele>
        <time>2014-10-02T13:25:02Z</time>
      </trkpt>
      <trkpt lat="42.6603650" lon="-7.1898850">
        <ele>909.2</ele>
        <time>2014-10-02T13:25:03Z</time>
      </trkpt>
      <trkpt lat="42.6603860" lon="-7.1899150">
        <ele>909.6</ele>
        <time>2014-10-02T13:25:04Z</time>
      </trkpt>
      <trkpt lat="42.6604040" lon="-7.1899460">
        <ele>910.0</ele>
        <time>2014-10-02T13:25:05Z</time>
      </trkpt>
      <trkpt lat="42.6604240" lon="-7.1899740">
        <ele>910.3</ele>
        <time>2014-10-02T13:25:06Z</time>
      </trkpt>
      <trkpt lat="42.6604370" lon="-7.1900280">
        <ele>910.9</ele>
        <time>2014-10-02T13:25:08Z</time>
      </trkpt>
      <trkpt lat="42.6604580" lon="-7.1900700">
        <ele>911.4</ele>
        <time>2014-10-02T13:25:10Z</time>
      </trkpt>
      <trkpt lat="42.6604980" lon="-7.1901170">
        <ele>912.0</ele>
        <time>2014-10-02T13:25:12Z</time>
      </trkpt>
      <trkpt lat="42.6605170" lon="-7.1901440">
        <ele>912.4</ele>
        <time>2014-10-02T13:25:13Z</time>
      </trkpt>
      <trkpt lat="42.6605340" lon="-7.1901740">
        <ele>912.8</ele>
        <time>2014-10-02T13:25:14Z</time>
      </trkpt>
      <trkpt lat="42.6605630" lon="-7.1902270">
        <ele>913.4</ele>
        <time>2014-10-02T13:25:16Z</time>
      </trkpt>
      <trkpt lat="42.6605860" lon="-7.1902860">
        <ele>914.0</ele>
        <time>2014-10-02T13:25:18Z</time>
      </trkpt>
      <trkpt lat="42.6606030" lon="-7.1903480">
        <ele>914.5</ele>
        <time>2014-10-02T13:25:20Z</time>
      </trkpt>
      <trkpt lat="42.6606220" lon="-7.1904160">
        <ele>915.0</ele>
        <time>2014-10-02T13:25:22Z</time>
      </trkpt>
      <trkpt lat="42.6606360" lon="-7.1904470">
        <ele>915.3</ele>
        <time>2014-10-02T13:25:23Z</time>
      </trkpt>
      <trkpt lat="42.6606620" lon="-7.1905100">
        <ele>915.8</ele>
        <time>2014-10-02T13:25:25Z</time>
      </trkpt>
      <trkpt lat="42.6606850" lon="-7.1905720">
        <ele>916.0</ele>
        <time>2014-10-02T13:25:27Z</time>
      </trkpt>
      <trkpt lat="42.6606990" lon="-7.1906100">
        <ele>916.2</ele>
        <time>2014-10-02T13:25:28Z</time>
      </trkpt>
      <trkpt lat="42.6607100" lon="-7.1906450">
        <ele>916.3</ele>
        <time>2014-10-02T13:25:29Z</time>
      </trkpt>
      <trkpt lat="42.6607210" lon="-7.1906800">
        <ele>916.5</ele>
        <time>2014-10-02T13:25:30Z</time>
      </trkpt>
      <trkpt lat="42.6607340" lon="-7.1907160">
        <ele>916.7</ele>
        <time>2014-10-02T13:25:31Z</time>
      </trkpt>
      <trkpt lat="42.6607650" lon="-7.1907700">
        <ele>917.0</ele>
        <time>2014-10-02T13:25:33Z</time>
      </trkpt>
      <trkpt lat="42.6607880" lon="-7.1907990">
        <ele>917.2</ele>
        <time>2014-10-02T13:25:34Z</time>
      </trkpt>
      <trkpt lat="42.6608080" lon="-7.1908250">
        <ele>917.4</ele>
        <time>2014-10-02T13:25:35Z</time>
      </trkpt>
      <trkpt lat="42.6608270" lon="-7.1908510">
        <ele>917.6</ele>
        <time>2014-10-02T13:25:36Z</time>
      </trkpt>
      <trkpt lat="42.6608490" lon="-7.1908800">
        <ele>917.8</ele>
        <time>2014-10-02T13:25:37Z</time>
      </trkpt>
      <trkpt lat="42.6608820" lon="-7.1909270">
        <ele>918.2</ele>
        <time>2014-10-02T13:25:39Z</time>
      </trkpt>
      <trkpt lat="42.6609140" lon="-7.1909700">
        <ele>918.6</ele>
        <time>2014-10-02T13:25:41Z</time>
      </trkpt>
      <trkpt lat="42.6609460" lon="-7.1910110">
        <ele>919.0</ele>
        <time>2014-10-02T13:25:43Z</time>
      </trkpt>
      <trkpt lat="42.6609870" lon="-7.1910550">
        <ele>919.5</ele>
        <time>2014-10-02T13:25:45Z</time>
      </trkpt>
      <trkpt lat="42.6610250" lon="-7.1911020">
        <ele>920.1</ele>
        <time>2014-10-02T13:25:47Z</time>
      </trkpt>
      <trkpt lat="42.6610440" lon="-7.1911280">
        <ele>920.4</ele>
        <time>2014-10-02T13:25:48Z</time>
      </trkpt>
      <trkpt lat="42.6610810" lon="-7.1911770">
        <ele>920.9</ele>
        <time>2014-10-02T13:25:50Z</time>
      </trkpt>
      <trkpt lat="42.6611140" lon="-7.1912170">
        <ele>921.4</ele>
        <time>2014-10-02T13:25:52Z</time>
      </trkpt>
      <trkpt lat="42.6611550" lon="-7.1912620">
        <ele>922.0</ele>
        <time>2014-10-02T13:25:54Z</time>
      </trkpt>
      <trkpt lat="42.6611890" lon="-7.1913030">
        <ele>922.5</ele>
        <time>2014-10-02T13:25:56Z</time>
      </trkpt>
      <trkpt lat="42.6612270" lon="-7.1913430">
        <ele>923.0</ele>
        <time>2014-10-02T13:25:58Z</time>
      </trkpt>
      <trkpt lat="42.6612660" lon="-7.1913710">
        <ele>923.5</ele>
        <time>2014-10-02T13:26:00Z</time>
      </trkpt>
      <trkpt lat="42.6613070" lon="-7.1914020">
        <ele>924.0</ele>
        <time>2014-10-02T13:26:02Z</time>
      </trkpt>
      <trkpt lat="42.6613320" lon="-7.1914150">
        <ele>924.3</ele>
        <time>2014-10-02T13:26:03Z</time>
      </trkpt>
      <trkpt lat="42.6613760" lon="-7.1914400">
        <ele>924.9</ele>
        <time>2014-10-02T13:26:05Z</time>
      </trkpt>
      <trkpt lat="42.6614190" lon="-7.1914670">
        <ele>925.5</ele>
        <time>2014-10-02T13:26:07Z</time>
      </trkpt>
      <trkpt lat="42.6614610" lon="-7.1914950">
        <ele>926.1</ele>
        <time>2014-10-02T13:26:09Z</time>
      </trkpt>
      <trkpt lat="42.6615080" lon="-7.1915290">
        <ele>926.7</ele>
        <time>2014-10-02T13:26:11Z</time>
      </trkpt>
      <trkpt lat="42.6615300" lon="-7.1915490">
        <ele>927.1</ele>
        <time>2014-10-02T13:26:12Z</time>
      </trkpt>
      <trkpt lat="42.6615510" lon="-7.1915750">
        <ele>927.4</ele>
        <time>2014-10-02T13:26:13Z</time>
      </trkpt>
      <trkpt lat="42.6615720" lon="-7.1916040">
        <ele>927.8</ele>
        <time>2014-10-02T13:26:14Z</time>
      </trkpt>
      <trkpt lat="42.6616030" lon="-7.1916560">
        <ele>928.3</ele>
        <time>2014-10-02T13:26:16Z</time>
      </trkpt>
      <trkpt lat="42.6616290" lon="-7.1917200">
        <ele>928.8</ele>
        <time>2014-10-02T13:26:18Z</time>
      </trkpt>
      <trkpt lat="42.6616330" lon="-7.1917670">
        <ele>929.0</ele>
        <time>2014-10-02T13:26:19Z</time>
      </trkpt>
      <trkpt lat="42.6616340" lon="-7.1918190">
        <ele>929.2</ele>
        <time>2014-10-02T13:26:20Z</time>
      </trkpt>
      <trkpt lat="42.6616150" lon="-7.1918830">
        <ele>929.5</ele>
        <time>2014-10-02T13:26:22Z</time>
      </trkpt>
      <trkpt lat="42.6615840" lon="-7.1920140">
        <ele>930.2</ele>
        <time>2014-10-02T13:26:26Z</time>
      </trkpt>
      <trkpt lat="42.6615720" lon="-7.1920590">
        <ele>930.5</ele>
        <time>2014-10-02T13:26:27Z</time>
      </trkpt>
      <trkpt lat="42.6615600" lon="-7.1921000">
        <ele>930.9</ele>
        <time>2014-10-02T13:26:28Z</time>
      </trkpt>
      <trkpt lat="42.6615530" lon="-7.1921390">
        <ele>931.2</ele>
        <time>2014-10-02T13:26:29Z</time>
      </trkpt>
      <trkpt lat="42.6615450" lon="-7.1922110">
        <ele>931.8</ele>
        <time>2014-10-02T13:26:31Z</time>
      </trkpt>
      <trkpt lat="42.6615430" lon="-7.1922500">
        <ele>932.1</ele>
        <time>2014-10-02T13:26:32Z</time>
      </trkpt>
      <trkpt lat="42.6615460" lon="-7.1923680">
        <ele>933.1</ele>
        <time>2014-10-02T13:26:36Z</time>
      </trkpt>
      <trkpt lat="42.6615320" lon="-7.1924050">
        <ele>933.5</ele>
        <time>2014-10-02T13:26:37Z</time>
      </trkpt>
      <trkpt lat="42.6615220" lon="-7.1924480">
        <ele>933.9</ele>
        <time>2014-10-02T13:26:38Z</time>
      </trkpt>
      <trkpt lat="42.6615120" lon="-7.1924930">
        <ele>934.4</ele>
        <time>2014-10-02T13:26:39Z</time>
      </trkpt>
      <trkpt lat="42.6614990" lon="-7.1925820">
        <ele>935.1</ele>
        <time>2014-10-02T13:26:41Z</time>
      </trkpt>
      <trkpt lat="42.6614960" lon="-7.1926250">
        <ele>935.4</ele>
        <time>2014-10-02T13:26:42Z</time>
      </trkpt>
      <trkpt lat="42.6614920" lon="-7.1926700">
        <ele>935.7</ele>
        <time>2014-10-02T13:26:43Z</time>
      </trkpt>
      <trkpt lat="42.6614880" lon="-7.1927160">
        <ele>936.0</ele>
        <time>2014-10-02T13:26:44Z</time>
      </trkpt>
      <trkpt lat="42.6614870" lon="-7.1927640">
        <ele>936.2</ele>
        <time>2014-10-02T13:26:45Z</time>
      </trkpt>
      <trkpt lat="42.6614910" lon="-7.1928060">
        <ele>936.4</ele>
        <time>2014-10-02T13:26:46Z</time>
      </trkpt>
      <trkpt lat="42.6614970" lon="-7.1928470">
        <ele>936.6</ele>
        <time>2014-10-02T13:26:47Z</time>
      </trkpt>
      <trkpt lat="42.6615090" lon="-7.1929210">
        <ele>936.9</ele>
        <time>2014-10-02T13:26:49Z</time>
      </trkpt>
      <trkpt lat="42.6615150" lon="-7.1929610">
        <ele>937.0</ele>
        <time>2014-10-02T13:26:50Z</time>
      </trkpt>
      <trkpt lat="42.6615210" lon="-7.1930010">
        <ele>937.2</ele>
        <time>2014-10-02T13:26:51Z</time>
      </trkpt>
      <trkpt lat="42.6615270" lon="-7.1930390">
        <ele>937.3</ele>
        <time>2014-10-02T13:26:52Z</time>
      </trkpt>
      <trkpt lat="42.6615440" lon="-7.1931050">
        <ele>937.6</ele>
        <time>2014-10-02T13:26:54Z</time>
      </trkpt>
      <trkpt lat="42.6615630" lon="-7.1931680">
        <ele>938.0</ele>
        <time>2014-10-02T13:26:56Z</time>
      </trkpt>
      <trkpt lat="42.6615860" lon="-7.1932290">
        <ele>938.5</ele>
        <time>2014-10-02T13:26:58Z</time>
      </trkpt>
      <trkpt lat="42.6616050" lon="-7.1932780">
        <ele>939.0</ele>
        <time>2014-10-02T13:27:00Z</time>
      </trkpt>
      <trkpt lat="42.6616320" lon="-7.1933250">
        <ele>939.6</ele>
        <time>2014-10-02T13:27:02Z</time>
      </trkpt>
      <trkpt lat="42.6616540" lon="-7.1933730">
        <ele>940.2</ele>
        <time>2014-10-02T13:27:04Z</time>
      </trkpt>
      <trkpt lat="42.6616770" lon="-7.1934210">
        <ele>940.8</ele>
        <time>2014-10-02T13:27:06Z</time>
      </trkpt>
      <trkpt lat="42.6616950" lon="-7.1934690">
        <ele>941.5</ele>
        <time>2014-10-02T13:27:08Z</time>
      </trkpt>
      <trkpt lat="42.6617140" lon="-7.1935170">
        <ele>942.1</ele>
        <time>2014-10-02T13:27:10Z</time>
      </trkpt>
      <trkpt lat="42.6617320" lon="-7.1935650">
        <ele>942.8</ele>
        <time>2014-10-02T13:27:12Z</time>
      </trkpt>
      <trkpt lat="42.6617540" lon="-7.1936170">
        <ele>943.5</ele>
        <time>2014-10-02T13:27:14Z</time>
      </trkpt>
      <trkpt lat="42.6617750" lon="-7.1936710">
        <ele>944.3</ele>
        <time>2014-10-02T13:27:16Z</time>
      </trkpt>
      <trkpt lat="42.6617950" lon="-7.1937250">
        <ele>945.0</ele>
        <time>2014-10-02T13:27:18Z</time>
      </trkpt>
      <trkpt lat="42.6618130" lon="-7.1937890">
        <ele>945.8</ele>
        <time>2014-10-02T13:27:20Z</time>
      </trkpt>
      <trkpt lat="42.6618280" lon="-7.1938420">
        <ele>946.4</ele>
        <time>2014-10-02T13:27:22Z</time>
      </trkpt>
      <trkpt lat="42.6618420" lon="-7.1938950">
        <ele>947.0</ele>
        <time>2014-10-02T13:27:24Z</time>
      </trkpt>
      <trkpt lat="42.6618540" lon="-7.1939440">
        <ele>947.6</ele>
        <time>2014-10-02T13:27:26Z</time>
      </trkpt>
      <trkpt lat="42.6618650" lon="-7.1939980">
        <ele>948.2</ele>
        <time>2014-10-02T13:27:28Z</time>
      </trkpt>
      <trkpt lat="42.6618750" lon="-7.1940460">
        <ele>948.8</ele>
        <time>2014-10-02T13:27:30Z</time>
      </trkpt>
      <trkpt lat="42.6618780" lon="-7.1940950">
        <ele>949.3</ele>
        <time>2014-10-02T13:27:32Z</time>
      </trkpt>
      <trkpt lat="42.6618730" lon="-7.1941670">
        <ele>950.0</ele>
        <time>2014-10-02T13:27:34Z</time>
      </trkpt>
      <trkpt lat="42.6618600" lon="-7.1942740">
        <ele>950.9</ele>
        <time>2014-10-02T13:27:37Z</time>
      </trkpt>
      <trkpt lat="42.6618490" lon="-7.1943440">
        <ele>951.5</ele>
        <time>2014-10-02T13:27:39Z</time>
      </trkpt>
      <trkpt lat="42.6618360" lon="-7.1944020">
        <ele>952.0</ele>
        <time>2014-10-02T13:27:41Z</time>
      </trkpt>
      <trkpt lat="42.6618200" lon="-7.1944620">
        <ele>952.6</ele>
        <time>2014-10-02T13:27:43Z</time>
      </trkpt>
      <trkpt lat="42.6618070" lon="-7.1944990">
        <ele>952.9</ele>
        <time>2014-10-02T13:27:44Z</time>
      </trkpt>
      <trkpt lat="42.6617930" lon="-7.1945360">
        <ele>953.3</ele>
        <time>2014-10-02T13:27:45Z</time>
      </trkpt>
      <trkpt lat="42.6617700" lon="-7.1945900">
        <ele>953.8</ele>
        <time>2014-10-02T13:27:47Z</time>
      </trkpt>
      <trkpt lat="42.6617480" lon="-7.1946410">
        <ele>954.2</ele>
        <time>2014-10-02T13:27:49Z</time>
      </trkpt>
      <trkpt lat="42.6617270" lon="-7.1946910">
        <ele>954.6</ele>
        <time>2014-10-02T13:27:51Z</time>
      </trkpt>
      <trkpt lat="42.6617140" lon="-7.1947240">
        <ele>954.9</ele>
        <time>2014-10-02T13:27:52Z</time>
      </trkpt>
      <trkpt lat="42.6616890" lon="-7.1947780">
        <ele>955.3</ele>
        <time>2014-10-02T13:27:54Z</time>
      </trkpt>
      <trkpt lat="42.6616680" lon="-7.1948320">
        <ele>955.8</ele>
        <time>2014-10-02T13:27:56Z</time>
      </trkpt>
      <trkpt lat="42.6616510" lon="-7.1948880">
        <ele>956.2</ele>
        <time>2014-10-02T13:27:58Z</time>
      </trkpt>
      <trkpt lat="42.6616380" lon="-7.1949410">
        <ele>956.7</ele>
        <time>2014-10-02T13:28:00Z</time>
      </trkpt>
      <trkpt lat="42.6616270" lon="-7.1949980">
        <ele>957.2</ele>
        <time>2014-10-02T13:28:02Z</time>
      </trkpt>
      <trkpt lat="42.6616180" lon="-7.1950580">
        <ele>957.7</ele>
        <time>2014-10-02T13:28:04Z</time>
      </trkpt>
      <trkpt lat="42.6616060" lon="-7.1951210">
        <ele>958.2</ele>
        <time>2014-10-02T13:28:06Z</time>
      </trkpt>
      <trkpt lat="42.6615940" lon="-7.1951910">
        <ele>958.8</ele>
        <time>2014-10-02T13:28:08Z</time>
      </trkpt>
      <trkpt lat="42.6615840" lon="-7.1952540">
        <ele>959.4</ele>
        <time>2014-10-02T13:28:10Z</time>
      </trkpt>
      <trkpt lat="42.6615770" lon="-7.1953260">
        <ele>960.0</ele>
        <time>2014-10-02T13:28:12Z</time>
      </trkpt>
      <trkpt lat="42.6615740" lon="-7.1953940">
        <ele>960.5</ele>
        <time>2014-10-02T13:28:14Z</time>
      </trkpt>
      <trkpt lat="42.6615740" lon="-7.1954560">
        <ele>961.0</ele>
        <time>2014-10-02T13:28:16Z</time>
      </trkpt>
      <trkpt lat="42.6615740" lon="-7.1954930">
        <ele>961.3</ele>
        <time>2014-10-02T13:28:17Z</time>
      </trkpt>
      <trkpt lat="42.6615760" lon="-7.1955300">
        <ele>961.6</ele>
        <time>2014-10-02T13:28:18Z</time>
      </trkpt>
      <trkpt lat="42.6615780" lon="-7.1955710">
        <ele>961.9</ele>
        <time>2014-10-02T13:28:19Z</time>
      </trkpt>
      <trkpt lat="42.6615850" lon="-7.1956380">
        <ele>962.5</ele>
        <time>2014-10-02T13:28:21Z</time>
      </trkpt>
      <trkpt lat="42.6615930" lon="-7.1957070">
        <ele>963.2</ele>
        <time>2014-10-02T13:28:23Z</time>
      </trkpt>
      <trkpt lat="42.6616050" lon="-7.1957800">
        <ele>963.9</ele>
        <time>2014-10-02T13:28:25Z</time>
      </trkpt>
      <trkpt lat="42.6616130" lon="-7.1958190">
        <ele>964.3</ele>
        <time>2014-10-02T13:28:26Z</time>
      </trkpt>
      <trkpt lat="42.6616220" lon="-7.1958610">
        <ele>964.8</ele>
        <time>2014-10-02T13:28:27Z</time>
      </trkpt>
      <trkpt lat="42.6616300" lon="-7.1958970">
        <ele>965.1</ele>
        <time>2014-10-02T13:28:28Z</time>
      </trkpt>
      <trkpt lat="42.6616410" lon="-7.1959650">
        <ele>965.8</ele>
        <time>2014-10-02T13:28:30Z</time>
      </trkpt>
      <trkpt lat="42.6616480" lon="-7.1960280">
        <ele>966.5</ele>
        <time>2014-10-02T13:28:32Z</time>
      </trkpt>
      <trkpt lat="42.6616530" lon="-7.1960650">
        <ele>967.0</ele>
        <time>2014-10-02T13:28:33Z</time>
      </trkpt>
      <trkpt lat="42.6616620" lon="-7.1961310">
        <ele>967.7</ele>
        <time>2014-10-02T13:28:35Z</time>
      </trkpt>
      <trkpt lat="42.6616680" lon="-7.1961670">
        <ele>968.1</ele>
        <time>2014-10-02T13:28:36Z</time>
      </trkpt>
      <trkpt lat="42.6616820" lon="-7.1962400">
        <ele>968.8</ele>
        <time>2014-10-02T13:28:38Z</time>
      </trkpt>
      <trkpt lat="42.6616900" lon="-7.1962800">
        <ele>969.1</ele>
        <time>2014-10-02T13:28:39Z</time>
      </trkpt>
      <trkpt lat="42.6617030" lon="-7.1963340">
        <ele>969.6</ele>
        <time>2014-10-02T13:28:41Z</time>
      </trkpt>
      <trkpt lat="42.6617160" lon="-7.1963810">
        <ele>969.9</ele>
        <time>2014-10-02T13:28:43Z</time>
      </trkpt>
      <trkpt lat="42.6617280" lon="-7.1964340">
        <ele>970.2</ele>
        <time>2014-10-02T13:28:45Z</time>
      </trkpt>
      <trkpt lat="42.6617440" lon="-7.1964970">
        <ele>970.4</ele>
        <time>2014-10-02T13:28:47Z</time>
      </trkpt>
      <trkpt lat="42.6617530" lon="-7.1965320">
        <ele>970.6</ele>
        <time>2014-10-02T13:28:48Z</time>
      </trkpt>
      <trkpt lat="42.6617700" lon="-7.1966000">
        <ele>970.9</ele>
        <time>2014-10-02T13:28:50Z</time>
      </trkpt>
      <trkpt lat="42.6617810" lon="-7.1966400">
        <ele>971.2</ele>
        <time>2014-10-02T13:28:51Z</time>
      </trkpt>
      <trkpt lat="42.6617920" lon="-7.1966740">
        <ele>971.4</ele>
        <time>2014-10-02T13:28:52Z</time>
      </trkpt>
      <trkpt lat="42.6618040" lon="-7.1967180">
        <ele>971.6</ele>
        <time>2014-10-02T13:28:53Z</time>
      </trkpt>
      <trkpt lat="42.6618150" lon="-7.1967580">
        <ele>971.8</ele>
        <time>2014-10-02T13:28:54Z</time>
      </trkpt>
      <trkpt lat="42.6618340" lon="-7.1968260">
        <ele>972.2</ele>
        <time>2014-10-02T13:28:56Z</time>
      </trkpt>
      <trkpt lat="42.6618480" lon="-7.1968710">
        <ele>972.4</ele>
        <time>2014-10-02T13:28:57Z</time>
      </trkpt>
      <trkpt lat="42.6618640" lon="-7.1969230">
        <ele>972.6</ele>
        <time>2014-10-02T13:28:58Z</time>
      </trkpt>
      <trkpt lat="42.6618820" lon="-7.1969720">
        <ele>972.7</ele>
        <time>2014-10-02T13:28:59Z</time>
      </trkpt>
      <trkpt lat="42.6618960" lon="-7.1970130">
        <ele>972.8</ele>
        <time>2014-10-02T13:29:00Z</time>
      </trkpt>
      <trkpt lat="42.6619100" lon="-7.1970470">
        <ele>972.8</ele>
        <time>2014-10-02T13:29:01Z</time>
      </trkpt>
      <trkpt lat="42.6619360" lon="-7.1970850">
        <ele>972.9</ele>
        <time>2014-10-02T13:29:02Z</time>
      </trkpt>
      <trkpt lat="42.6619580" lon="-7.1971220">
        <ele>972.9</ele>
        <time>2014-10-02T13:29:03Z</time>
      </trkpt>
      <trkpt lat="42.6619760" lon="-7.1971680">
        <ele>973.0</ele>
        <time>2014-10-02T13:29:04Z</time>
      </trkpt>
      <trkpt lat="42.6619950" lon="-7.1972130">
        <ele>973.0</ele>
        <time>2014-10-02T13:29:05Z</time>
      </trkpt>
      <trkpt lat="42.6620060" lon="-7.1972520">
        <ele>973.0</ele>
        <time>2014-10-02T13:29:06Z</time>
      </trkpt>
      <trkpt lat="42.6620230" lon="-7.1973000">
        <ele>973.1</ele>
        <time>2014-10-02T13:29:07Z</time>
      </trkpt>
      <trkpt lat="42.6620400" lon="-7.1973540">
        <ele>973.1</ele>
        <time>2014-10-02T13:29:08Z</time>
      </trkpt>
      <trkpt lat="42.6620600" lon="-7.1974060">
        <ele>973.1</ele>
        <time>2014-10-02T13:29:09Z</time>
      </trkpt>
      <trkpt lat="42.6620800" lon="-7.1974650">
        <ele>973.2</ele>
        <time>2014-10-02T13:29:10Z</time>
      </trkpt>
      <trkpt lat="42.6621020" lon="-7.1975240">
        <ele>973.2</ele>
        <time>2014-10-02T13:29:11Z</time>
      </trkpt>
      <trkpt lat="42.6621270" lon="-7.1975880">
        <ele>973.3</ele>
        <time>2014-10-02T13:29:12Z</time>
      </trkpt>
      <trkpt lat="42.6621490" lon="-7.1976400">
        <ele>973.4</ele>
        <time>2014-10-02T13:29:13Z</time>
      </trkpt>
      <trkpt lat="42.6621780" lon="-7.1977010">
        <ele>973.6</ele>
        <time>2014-10-02T13:29:14Z</time>
      </trkpt>
      <trkpt lat="42.6622090" lon="-7.1977590">
        <ele>973.8</ele>
        <time>2014-10-02T13:29:15Z</time>
      </trkpt>
      <trkpt lat="42.6622370" lon="-7.1978110">
        <ele>974.0</ele>
        <time>2014-10-02T13:29:16Z</time>
      </trkpt>
      <trkpt lat="42.6622660" lon="-7.1978660">
        <ele>974.3</ele>
        <time>2014-10-02T13:29:17Z</time>
      </trkpt>
      <trkpt lat="42.6622960" lon="-7.1979210">
        <ele>974.5</ele>
        <time>2014-10-02T13:29:18Z</time>
      </trkpt>
      <trkpt lat="42.6623240" lon="-7.1979740">
        <ele>974.7</ele>
        <time>2014-10-02T13:29:19Z</time>
      </trkpt>
      <trkpt lat="42.6623560" lon="-7.1980330">
        <ele>974.9</ele>
        <time>2014-10-02T13:29:20Z</time>
      </trkpt>
      <trkpt lat="42.6623900" lon="-7.1980960">
        <ele>975.1</ele>
        <time>2014-10-02T13:29:21Z</time>
      </trkpt>
      <trkpt lat="42.6624280" lon="-7.1981620">
        <ele>975.4</ele>
        <time>2014-10-02T13:29:22Z</time>
      </trkpt>
      <trkpt lat="42.6624680" lon="-7.1982260">
        <ele>975.8</ele>
        <time>2014-10-02T13:29:23Z</time>
      </trkpt>
      <trkpt lat="42.6625150" lon="-7.1982950">
        <ele>976.1</ele>
        <time>2014-10-02T13:29:24Z</time>
      </trkpt>
      <trkpt lat="42.6625590" lon="-7.1983500">
        <ele>976.4</ele>
        <time>2014-10-02T13:29:25Z</time>
      </trkpt>
      <trkpt lat="42.6626100" lon="-7.1984050">
        <ele>976.6</ele>
        <time>2014-10-02T13:29:26Z</time>
      </trkpt>
      <trkpt lat="42.6626610" lon="-7.1984550">
        <ele>976.8</ele>
        <time>2014-10-02T13:29:27Z</time>
      </trkpt>
      <trkpt lat="42.6627120" lon="-7.1985010">
        <ele>977.0</ele>
        <time>2014-10-02T13:29:28Z</time>
      </trkpt>
      <trkpt lat="42.6627640" lon="-7.1985400">
        <ele>977.4</ele>
        <time>2014-10-02T13:29:29Z</time>
      </trkpt>
      <trkpt lat="42.6628150" lon="-7.1985790">
        <ele>977.8</ele>
        <time>2014-10-02T13:29:30Z</time>
      </trkpt>
      <trkpt lat="42.6628600" lon="-7.1986070">
        <ele>978.2</ele>
        <time>2014-10-02T13:29:31Z</time>
      </trkpt>
      <trkpt lat="42.6629070" lon="-7.1986350">
        <ele>978.6</ele>
        <time>2014-10-02T13:29:32Z</time>
      </trkpt>
      <trkpt lat="42.6629550" lon="-7.1986630">
        <ele>979.1</ele>
        <time>2014-10-02T13:29:33Z</time>
      </trkpt>
      <trkpt lat="42.6630010" lon="-7.1986860">
        <ele>979.6</ele>
        <time>2014-10-02T13:29:34Z</time>
      </trkpt>
      <trkpt lat="42.6630420" lon="-7.1987050">
        <ele>980.0</ele>
        <time>2014-10-02T13:29:35Z</time>
      </trkpt>
      <trkpt lat="42.6630860" lon="-7.1987370">
        <ele>980.4</ele>
        <time>2014-10-02T13:29:37Z</time>
      </trkpt>
      <trkpt lat="42.6631430" lon="-7.1987550">
        <ele>980.9</ele>
        <time>2014-10-02T13:29:39Z</time>
      </trkpt>
      <trkpt lat="42.6631810" lon="-7.1987670">
        <ele>981.2</ele>
        <time>2014-10-02T13:29:40Z</time>
      </trkpt>
      <trkpt lat="42.6632140" lon="-7.1987790">
        <ele>981.5</ele>
        <time>2014-10-02T13:29:41Z</time>
      </trkpt>
      <trkpt lat="42.6632510" lon="-7.1987930">
        <ele>981.9</ele>
        <time>2014-10-02T13:29:42Z</time>
      </trkpt>
      <trkpt lat="42.6632810" lon="-7.1988090">
        <ele>982.1</ele>
        <time>2014-10-02T13:29:43Z</time>
      </trkpt>
      <trkpt lat="42.6633160" lon="-7.1988290">
        <ele>982.5</ele>
        <time>2014-10-02T13:29:44Z</time>
      </trkpt>
      <trkpt lat="42.6633580" lon="-7.1988450">
        <ele>982.8</ele>
        <time>2014-10-02T13:29:45Z</time>
      </trkpt>
      <trkpt lat="42.6634570" lon="-7.1988980">
        <ele>983.5</ele>
        <time>2014-10-02T13:29:49Z</time>
      </trkpt>
      <trkpt lat="42.6634890" lon="-7.1989120">
        <ele>983.7</ele>
        <time>2014-10-02T13:29:50Z</time>
      </trkpt>
      <trkpt lat="42.6635180" lon="-7.1989280">
        <ele>983.8</ele>
        <time>2014-10-02T13:29:51Z</time>
      </trkpt>
      <trkpt lat="42.6635570" lon="-7.1989450">
        <ele>984.0</ele>
        <time>2014-10-02T13:29:52Z</time>
      </trkpt>
      <trkpt lat="42.6635990" lon="-7.1989630">
        <ele>984.2</ele>
        <time>2014-10-02T13:29:53Z</time>
      </trkpt>
      <trkpt lat="42.6636290" lon="-7.1989730">
        <ele>984.3</ele>
        <time>2014-10-02T13:29:54Z</time>
      </trkpt>
      <trkpt lat="42.6636610" lon="-7.1989840">
        <ele>984.5</ele>
        <time>2014-10-02T13:29:55Z</time>
      </trkpt>
      <trkpt lat="42.6637040" lon="-7.1989950">
        <ele>984.7</ele>
        <time>2014-10-02T13:29:56Z</time>
      </trkpt>
      <trkpt lat="42.6637480" lon="-7.1990060">
        <ele>985.0</ele>
        <time>2014-10-02T13:29:57Z</time>
      </trkpt>
      <trkpt lat="42.6637960" lon="-7.1990170">
        <ele>985.3</ele>
        <time>2014-10-02T13:29:58Z</time>
      </trkpt>
      <trkpt lat="42.6638440" lon="-7.1990290">
        <ele>985.6</ele>
        <time>2014-10-02T13:29:59Z</time>
      </trkpt>
      <trkpt lat="42.6638880" lon="-7.1990400">
        <ele>985.8</ele>
        <time>2014-10-02T13:30:00Z</time>
      </trkpt>
      <trkpt lat="42.6639360" lon="-7.1990530">
        <ele>986.0</ele>
        <time>2014-10-02T13:30:01Z</time>
      </trkpt>
      <trkpt lat="42.6639820" lon="-7.1990670">
        <ele>986.2</ele>
        <time>2014-10-02T13:30:02Z</time>
      </trkpt>
      <trkpt lat="42.6640330" lon="-7.1990840">
        <ele>986.4</ele>
        <time>2014-10-02T13:30:03Z</time>
      </trkpt>
      <trkpt lat="42.6640690" lon="-7.1991070">
        <ele>986.5</ele>
        <time>2014-10-02T13:30:04Z</time>
      </trkpt>
      <trkpt lat="42.6641030" lon="-7.1991280">
        <ele>986.6</ele>
        <time>2014-10-02T13:30:05Z</time>
      </trkpt>
      <trkpt lat="42.6641450" lon="-7.1991690">
        <ele>986.7</ele>
        <time>2014-10-02T13:30:06Z</time>
      </trkpt>
      <trkpt lat="42.6641710" lon="-7.1992500">
        <ele>986.9</ele>
        <time>2014-10-02T13:30:07Z</time>
      </trkpt>
      <trkpt lat="42.6641790" lon="-7.1993250">
        <ele>987.0</ele>
        <time>2014-10-02T13:30:08Z</time>
      </trkpt>
      <trkpt lat="42.6641940" lon="-7.1994110">
        <ele>987.2</ele>
        <time>2014-10-02T13:30:09Z</time>
      </trkpt>
      <trkpt lat="42.6641840" lon="-7.1994960">
        <ele>987.4</ele>
        <time>2014-10-02T13:30:10Z</time>
      </trkpt>
      <trkpt lat="42.6641860" lon="-7.1995870">
        <ele>987.5</ele>
        <time>2014-10-02T13:30:11Z</time>
      </trkpt>
      <trkpt lat="42.6641860" lon="-7.1996760">
        <ele>987.6</ele>
        <time>2014-10-02T13:30:12Z</time>
      </trkpt>
      <trkpt lat="42.6642030" lon="-7.1997570">
        <ele>987.7</ele>
        <time>2014-10-02T13:30:13Z</time>
      </trkpt>
      <trkpt lat="42.6642240" lon="-7.1998240">
        <ele>987.9</ele>
        <time>2014-10-02T13:30:14Z</time>
      </trkpt>
      <trkpt lat="42.6642410" lon="-7.1998860">
        <ele>988.1</ele>
        <time>2014-10-02T13:30:15Z</time>
      </trkpt>
      <trkpt lat="42.6642610" lon="-7.1999500">
        <ele>988.3</ele>
        <time>2014-10-02T13:30:16Z</time>
      </trkpt>
      <trkpt lat="42.6642880" lon="-7.1999960">
        <ele>988.5</ele>
        <time>2014-10-02T13:30:17Z</time>
      </trkpt>
      <trkpt lat="42.6643180" lon="-7.2000410">
        <ele>988.7</ele>
        <time>2014-10-02T13:30:18Z</time>
      </trkpt>
      <trkpt lat="42.6643460" lon="-7.2000760">
        <ele>988.8</ele>
        <time>2014-10-02T13:30:19Z</time>
      </trkpt>
      <trkpt lat="42.6643780" lon="-7.2001030">
        <ele>989.0</ele>
        <time>2014-10-02T13:30:20Z</time>
      </trkpt>
      <trkpt lat="42.6644150" lon="-7.2001300">
        <ele>989.2</ele>
        <time>2014-10-02T13:30:21Z</time>
      </trkpt>
      <trkpt lat="42.6644570" lon="-7.2001590">
        <ele>989.5</ele>
        <time>2014-10-02T13:30:22Z</time>
      </trkpt>
      <trkpt lat="42.6644990" lon="-7.2001860">
        <ele>989.7</ele>
        <time>2014-10-02T13:30:23Z</time>
      </trkpt>
      <trkpt lat="42.6645370" lon="-7.2002100">
        <ele>989.8</ele>
        <time>2014-10-02T13:30:24Z</time>
      </trkpt>
      <trkpt lat="42.6645760" lon="-7.2002350">
        <ele>989.9</ele>
        <time>2014-10-02T13:30:25Z</time>
      </trkpt>
      <trkpt lat="42.6646110" lon="-7.2002550">
        <ele>990.1</ele>
        <time>2014-10-02T13:30:26Z</time>
      </trkpt>
      <trkpt lat="42.6646540" lon="-7.2002820">
        <ele>990.2</ele>
        <time>2014-10-02T13:30:27Z</time>
      </trkpt>
      <trkpt lat="42.6646990" lon="-7.2003160">
        <ele>990.4</ele>
        <time>2014-10-02T13:30:28Z</time>
      </trkpt>
      <trkpt lat="42.6647380" lon="-7.2003500">
        <ele>990.5</ele>
        <time>2014-10-02T13:30:29Z</time>
      </trkpt>
      <trkpt lat="42.6647810" lon="-7.2003830">
        <ele>990.7</ele>
        <time>2014-10-02T13:30:30Z</time>
      </trkpt>
      <trkpt lat="42.6648300" lon="-7.2004200">
        <ele>990.8</ele>
        <time>2014-10-02T13:30:31Z</time>
      </trkpt>
      <trkpt lat="42.6648770" lon="-7.2004570">
        <ele>990.9</ele>
        <time>2014-10-02T13:30:32Z</time>
      </trkpt>
      <trkpt lat="42.6649250" lon="-7.2004970">
        <ele>990.9</ele>
        <time>2014-10-02T13:30:33Z</time>
      </trkpt>
      <trkpt lat="42.6649490" lon="-7.2005180">
        <ele>990.9</ele>
        <time>2014-10-02T13:30:34Z</time>
      </trkpt>
      <trkpt lat="42.6649810" lon="-7.2005570">
        <ele>990.8</ele>
        <time>2014-10-02T13:30:35Z</time>
      </trkpt>
      <trkpt lat="42.6650130" lon="-7.2005970">
        <ele>990.7</ele>
        <time>2014-10-02T13:30:36Z</time>
      </trkpt>
      <trkpt lat="42.6650430" lon="-7.2006420">
        <ele>990.4</ele>
        <time>2014-10-02T13:30:37Z</time>
      </trkpt>
      <trkpt lat="42.6650740" lon="-7.2007000">
        <ele>990.0</ele>
        <time>2014-10-02T13:30:38Z</time>
      </trkpt>
      <trkpt lat="42.6650770" lon="-7.2007790">
        <ele>989.5</ele>
        <time>2014-10-02T13:30:39Z</time>
      </trkpt>
      <trkpt lat="42.6650680" lon="-7.2008570">
        <ele>989.0</ele>
        <time>2014-10-02T13:30:40Z</time>
      </trkpt>
      <trkpt lat="42.6650290" lon="-7.2009110">
        <ele>988.7</ele>
        <time>2014-10-02T13:30:41Z</time>
      </trkpt>
      <trkpt lat="42.6649820" lon="-7.2009530">
        <ele>988.5</ele>
        <time>2014-10-02T13:30:42Z</time>
      </trkpt>
      <trkpt lat="42.6649250" lon="-7.2009760">
        <ele>988.3</ele>
        <time>2014-10-02T13:30:43Z</time>
      </trkpt>
      <trkpt lat="42.6648520" lon="-7.2009970">
        <ele>987.8</ele>
        <time>2014-10-02T13:30:44Z</time>
      </trkpt>
      <trkpt lat="42.6647810" lon="-7.2010170">
        <ele>987.4</ele>
        <time>2014-10-02T13:30:45Z</time>
      </trkpt>
      <trkpt lat="42.6646970" lon="-7.2010350">
        <ele>986.9</ele>
        <time>2014-10-02T13:30:46Z</time>
      </trkpt>
      <trkpt lat="42.6646140" lon="-7.2010570">
        <ele>986.6</ele>
        <time>2014-10-02T13:30:47Z</time>
      </trkpt>
      <trkpt lat="42.6645360" lon="-7.2010810">
        <ele>986.6</ele>
        <time>2014-10-02T13:30:48Z</time>
      </trkpt>
      <trkpt lat="42.6644500" lon="-7.2011080">
        <ele>986.6</ele>
        <time>2014-10-02T13:30:49Z</time>
      </trkpt>
      <trkpt lat="42.6643580" lon="-7.2011390">
        <ele>986.7</ele>
        <time>2014-10-02T13:30:50Z</time>
      </trkpt>
      <trkpt lat="42.6642490" lon="-7.2011740">
        <ele>986.9</ele>
        <time>2014-10-02T13:30:51Z</time>
      </trkpt>
      <trkpt lat="42.6641400" lon="-7.2012070">
        <ele>987.1</ele>
        <time>2014-10-02T13:30:52Z</time>
      </trkpt>
      <trkpt lat="42.6640200" lon="-7.2012420">
        <ele>987.4</ele>
        <time>2014-10-02T13:30:53Z</time>
      </trkpt>
      <trkpt lat="42.6638960" lon="-7.2012690">
        <ele>987.9</ele>
        <time>2014-10-02T13:30:54Z</time>
      </trkpt>
      <trkpt lat="42.6637860" lon="-7.2012860">
        <ele>988.6</ele>
        <time>2014-10-02T13:30:55Z</time>
      </trkpt>
      <trkpt lat="42.6636800" lon="-7.2013050">
        <ele>989.5</ele>
        <time>2014-10-02T13:30:56Z</time>
      </trkpt>
      <trkpt lat="42.6635850" lon="-7.2013290">
        <ele>990.5</ele>
        <time>2014-10-02T13:30:57Z</time>
      </trkpt>
      <trkpt lat="42.6635030" lon="-7.2013540">
        <ele>991.4</ele>
        <time>2014-10-02T13:30:58Z</time>
      </trkpt>
      <trkpt lat="42.6634200" lon="-7.2013800">
        <ele>992.6</ele>
        <time>2014-10-02T13:30:59Z</time>
      </trkpt>
      <trkpt lat="42.6633400" lon="-7.2014000">
        <ele>993.8</ele>
        <time>2014-10-02T13:31:00Z</time>
      </trkpt>
      <trkpt lat="42.6632740" lon="-7.2014150">
        <ele>994.8</ele>
        <time>2014-10-02T13:31:01Z</time>
      </trkpt>
      <trkpt lat="42.6632190" lon="-7.2014230">
        <ele>995.6</ele>
        <time>2014-10-02T13:31:02Z</time>
      </trkpt>
      <trkpt lat="42.6631660" lon="-7.2014310">
        <ele>996.3</ele>
        <time>2014-10-02T13:31:03Z</time>
      </trkpt>
      <trkpt lat="42.6631210" lon="-7.2014550">
        <ele>997.0</ele>
        <time>2014-10-02T13:31:04Z</time>
      </trkpt>
      <trkpt lat="42.6630770" lon="-7.2014790">
        <ele>997.6</ele>
        <time>2014-10-02T13:31:05Z</time>
      </trkpt>
      <trkpt lat="42.6630280" lon="-7.2015040">
        <ele>998.4</ele>
        <time>2014-10-02T13:31:06Z</time>
      </trkpt>
      <trkpt lat="42.6629960" lon="-7.2015230">
        <ele>998.9</ele>
        <time>2014-10-02T13:31:07Z</time>
      </trkpt>
      <trkpt lat="42.6629630" lon="-7.2015470">
        <ele>999.5</ele>
        <time>2014-10-02T13:31:08Z</time>
      </trkpt>
      <trkpt lat="42.6629420" lon="-7.2015800">
        <ele>1000.0</ele>
        <time>2014-10-02T13:31:09Z</time>
      </trkpt>
      <trkpt lat="42.6629250" lon="-7.2016080">
        <ele>1000.4</ele>
        <time>2014-10-02T13:31:10Z</time>
      </trkpt>
      <trkpt lat="42.6629010" lon="-7.2016490">
        <ele>1001.0</ele>
        <time>2014-10-02T13:31:12Z</time>
      </trkpt>
      <trkpt lat="42.6628880" lon="-7.2016930">
        <ele>1001.6</ele>
        <time>2014-10-02T13:31:14Z</time>
      </trkpt>
      <trkpt lat="42.6628730" lon="-7.2017540">
        <ele>1002.4</ele>
        <time>2014-10-02T13:31:16Z</time>
      </trkpt>
      <trkpt lat="42.6628690" lon="-7.2018220">
        <ele>1003.2</ele>
        <time>2014-10-02T13:31:18Z</time>
      </trkpt>
      <trkpt lat="42.6628680" lon="-7.2018920">
        <ele>1003.9</ele>
        <time>2014-10-02T13:31:20Z</time>
      </trkpt>
      <trkpt lat="42.6628790" lon="-7.2019540">
        <ele>1004.5</ele>
        <time>2014-10-02T13:31:22Z</time>
      </trkpt>
      <trkpt lat="42.6628930" lon="-7.2020090">
        <ele>1005.0</ele>
        <time>2014-10-02T13:31:24Z</time>
      </trkpt>
      <trkpt lat="42.6629100" lon="-7.2020720">
        <ele>1005.6</ele>
        <time>2014-10-02T13:31:26Z</time>
      </trkpt>
      <trkpt lat="42.6629240" lon="-7.2021230">
        <ele>1006.1</ele>
        <time>2014-10-02T13:31:28Z</time>
      </trkpt>
      <trkpt lat="42.6629480" lon="-7.2021740">
        <ele>1006.6</ele>
        <time>2014-10-02T13:31:30Z</time>
      </trkpt>
      <trkpt lat="42.6629770" lon="-7.2022290">
        <ele>1007.2</ele>
        <time>2014-10-02T13:31:32Z</time>
      </trkpt>
      <trkpt lat="42.6629970" lon="-7.2022540">
        <ele>1007.5</ele>
        <time>2014-10-02T13:31:33Z</time>
      </trkpt>
      <trkpt lat="42.6630360" lon="-7.2023390">
        <ele>1008.3</ele>
        <time>2014-10-02T13:31:36Z</time>
      </trkpt>
      <trkpt lat="42.6630540" lon="-7.2023920">
        <ele>1008.7</ele>
        <time>2014-10-02T13:31:38Z</time>
      </trkpt>
      <trkpt lat="42.6630660" lon="-7.2024540">
        <ele>1009.3</ele>
        <time>2014-10-02T13:31:40Z</time>
      </trkpt>
      <trkpt lat="42.6630800" lon="-7.2025090">
        <ele>1009.7</ele>
        <time>2014-10-02T13:31:42Z</time>
      </trkpt>
      <trkpt lat="42.6631040" lon="-7.2025620">
        <ele>1010.2</ele>
        <time>2014-10-02T13:31:44Z</time>
      </trkpt>
      <trkpt lat="42.6631270" lon="-7.2026070">
        <ele>1010.5</ele>
        <time>2014-10-02T13:31:46Z</time>
      </trkpt>
      <trkpt lat="42.6631460" lon="-7.2026530">
        <ele>1010.7</ele>
        <time>2014-10-02T13:31:48Z</time>
      </trkpt>
      <trkpt lat="42.6631610" lon="-7.2027050">
        <ele>1010.8</ele>
        <time>2014-10-02T13:31:50Z</time>
      </trkpt>
      <trkpt lat="42.6631800" lon="-7.2027560">
        <ele>1010.8</ele>
        <time>2014-10-02T13:31:52Z</time>
      </trkpt>
      <trkpt lat="42.6632060" lon="-7.2028090">
        <ele>1010.4</ele>
        <time>2014-10-02T13:31:54Z</time>
      </trkpt>
      <trkpt lat="42.6632340" lon="-7.2028580">
        <ele>1009.5</ele>
        <time>2014-10-02T13:31:56Z</time>
      </trkpt>
      <trkpt lat="42.6632490" lon="-7.2029020">
        <ele>1008.3</ele>
        <time>2014-10-02T13:31:58Z</time>
      </trkpt>
      <trkpt lat="42.6632580" lon="-7.2029490">
        <ele>1006.5</ele>
        <time>2014-10-02T13:32:00Z</time>
      </trkpt>
      <trkpt lat="42.6632740" lon="-7.2029900">
        <ele>1004.0</ele>
        <time>2014-10-02T13:32:02Z</time>
      </trkpt>
      <trkpt lat="42.6632930" lon="-7.2030370">
        <ele>1000.5</ele>
        <time>2014-10-02T13:32:04Z</time>
      </trkpt>
      <trkpt lat="42.6633150" lon="-7.2030890">
        <ele>999.8</ele>
        <time>2014-10-02T13:32:06Z</time>
      </trkpt>
      <trkpt lat="42.6633420" lon="-7.2031340">
        <ele>1000.2</ele>
        <time>2014-10-02T13:32:08Z</time>
      </trkpt>
      <trkpt lat="42.6633660" lon="-7.2031770">
        <ele>1000.6</ele>
        <time>2014-10-02T13:32:10Z</time>
      </trkpt>
      <trkpt lat="42.6633840" lon="-7.2032270">
        <ele>1001.1</ele>
        <time>2014-10-02T13:32:12Z</time>
      </trkpt>
      <trkpt lat="42.6634010" lon="-7.2032730">
        <ele>1001.6</ele>
        <time>2014-10-02T13:32:14Z</time>
      </trkpt>
      <trkpt lat="42.6634200" lon="-7.2033170">
        <ele>1002.0</ele>
        <time>2014-10-02T13:32:16Z</time>
      </trkpt>
      <trkpt lat="42.6634390" lon="-7.2033590">
        <ele>1002.5</ele>
        <time>2014-10-02T13:32:18Z</time>
      </trkpt>
      <trkpt lat="42.6634610" lon="-7.2034120">
        <ele>1003.0</ele>
        <time>2014-10-02T13:32:20Z</time>
      </trkpt>
      <trkpt lat="42.6634770" lon="-7.2034440">
        <ele>1003.4</ele>
        <time>2014-10-02T13:32:21Z</time>
      </trkpt>
      <trkpt lat="42.6635040" lon="-7.2034930">
        <ele>1003.9</ele>
        <time>2014-10-02T13:32:23Z</time>
      </trkpt>
      <trkpt lat="42.6635310" lon="-7.2035460">
        <ele>1004.5</ele>
        <time>2014-10-02T13:32:25Z</time>
      </trkpt>
      <trkpt lat="42.6635560" lon="-7.2035910">
        <ele>1004.9</ele>
        <time>2014-10-02T13:32:27Z</time>
      </trkpt>
      <trkpt lat="42.6635760" lon="-7.2036380">
        <ele>1005.4</ele>
        <time>2014-10-02T13:32:29Z</time>
      </trkpt>
      <trkpt lat="42.6635940" lon="-7.2036870">
        <ele>1006.0</ele>
        <time>2014-10-02T13:32:31Z</time>
      </trkpt>
      <trkpt lat="42.6636150" lon="-7.2037380">
        <ele>1006.7</ele>
        <time>2014-10-02T13:32:33Z</time>
      </trkpt>
      <trkpt lat="42.6636400" lon="-7.2037840">
        <ele>1007.4</ele>
        <time>2014-10-02T13:32:35Z</time>
      </trkpt>
      <trkpt lat="42.6636690" lon="-7.2038390">
        <ele>1008.3</ele>
        <time>2014-10-02T13:32:37Z</time>
      </trkpt>
      <trkpt lat="42.6636970" lon="-7.2038860">
        <ele>1009.1</ele>
        <time>2014-10-02T13:32:39Z</time>
      </trkpt>
      <trkpt lat="42.6637240" lon="-7.2039370">
        <ele>1009.9</ele>
        <time>2014-10-02T13:32:41Z</time>
      </trkpt>
      <trkpt lat="42.6637470" lon="-7.2039860">
        <ele>1010.7</ele>
        <time>2014-10-02T13:32:43Z</time>
      </trkpt>
      <trkpt lat="42.6637730" lon="-7.2040430">
        <ele>1011.5</ele>
        <time>2014-10-02T13:32:45Z</time>
      </trkpt>
      <trkpt lat="42.6637960" lon="-7.2040970">
        <ele>1012.3</ele>
        <time>2014-10-02T13:32:47Z</time>
      </trkpt>
      <trkpt lat="42.6638140" lon="-7.2041390">
        <ele>1012.8</ele>
        <time>2014-10-02T13:32:49Z</time>
      </trkpt>
      <trkpt lat="42.6638380" lon="-7.2041870">
        <ele>1013.4</ele>
        <time>2014-10-02T13:32:51Z</time>
      </trkpt>
      <trkpt lat="42.6638600" lon="-7.2042400">
        <ele>1013.9</ele>
        <time>2014-10-02T13:32:53Z</time>
      </trkpt>
      <trkpt lat="42.6638830" lon="-7.2042810">
        <ele>1014.4</ele>
        <time>2014-10-02T13:32:55Z</time>
      </trkpt>
      <trkpt lat="42.6638980" lon="-7.2043320">
        <ele>1014.9</ele>
        <time>2014-10-02T13:32:57Z</time>
      </trkpt>
      <trkpt lat="42.6639110" lon="-7.2043930">
        <ele>1015.6</ele>
        <time>2014-10-02T13:32:59Z</time>
      </trkpt>
      <trkpt lat="42.6639220" lon="-7.2044470">
        <ele>1016.1</ele>
        <time>2014-10-02T13:33:01Z</time>
      </trkpt>
      <trkpt lat="42.6639240" lon="-7.2044920">
        <ele>1016.6</ele>
        <time>2014-10-02T13:33:03Z</time>
      </trkpt>
      <trkpt lat="42.6639280" lon="-7.2045410">
        <ele>1017.1</ele>
        <time>2014-10-02T13:33:05Z</time>
      </trkpt>
      <trkpt lat="42.6639400" lon="-7.2045880">
        <ele>1017.5</ele>
        <time>2014-10-02T13:33:07Z</time>
      </trkpt>
      <trkpt lat="42.6639620" lon="-7.2046330">
        <ele>1018.0</ele>
        <time>2014-10-02T13:33:09Z</time>
      </trkpt>
      <trkpt lat="42.6639840" lon="-7.2046770">
        <ele>1018.5</ele>
        <time>2014-10-02T13:33:11Z</time>
      </trkpt>
      <trkpt lat="42.6640090" lon="-7.2047240">
        <ele>1019.0</ele>
        <time>2014-10-02T13:33:13Z</time>
      </trkpt>
      <trkpt lat="42.6640280" lon="-7.2047750">
        <ele>1019.5</ele>
        <time>2014-10-02T13:33:15Z</time>
      </trkpt>
      <trkpt lat="42.6640500" lon="-7.2048190">
        <ele>1019.9</ele>
        <time>2014-10-02T13:33:17Z</time>
      </trkpt>
      <trkpt lat="42.6640780" lon="-7.2048660">
        <ele>1020.3</ele>
        <time>2014-10-02T13:33:19Z</time>
      </trkpt>
      <trkpt lat="42.6641020" lon="-7.2049110">
        <ele>1020.8</ele>
        <time>2014-10-02T13:33:21Z</time>
      </trkpt>
      <trkpt lat="42.6641230" lon="-7.2049570">
        <ele>1021.2</ele>
        <time>2014-10-02T13:33:23Z</time>
      </trkpt>
      <trkpt lat="42.6641480" lon="-7.2050030">
        <ele>1021.7</ele>
        <time>2014-10-02T13:33:25Z</time>
      </trkpt>
      <trkpt lat="42.6641760" lon="-7.2050550">
        <ele>1022.3</ele>
        <time>2014-10-02T13:33:27Z</time>
      </trkpt>
      <trkpt lat="42.6641960" lon="-7.2051050">
        <ele>1022.8</ele>
        <time>2014-10-02T13:33:29Z</time>
      </trkpt>
      <trkpt lat="42.6642190" lon="-7.2051560">
        <ele>1023.2</ele>
        <time>2014-10-02T13:33:31Z</time>
      </trkpt>
      <trkpt lat="42.6642400" lon="-7.2052020">
        <ele>1023.6</ele>
        <time>2014-10-02T13:33:33Z</time>
      </trkpt>
      <trkpt lat="42.6642620" lon="-7.2052580">
        <ele>1024.0</ele>
        <time>2014-10-02T13:33:35Z</time>
      </trkpt>
      <trkpt lat="42.6642910" lon="-7.2053140">
        <ele>1024.4</ele>
        <time>2014-10-02T13:33:37Z</time>
      </trkpt>
      <trkpt lat="42.6643140" lon="-7.2053600">
        <ele>1024.8</ele>
        <time>2014-10-02T13:33:39Z</time>
      </trkpt>
      <trkpt lat="42.6643410" lon="-7.2054230">
        <ele>1025.3</ele>
        <time>2014-10-02T13:33:41Z</time>
      </trkpt>
      <trkpt lat="42.6643660" lon="-7.2054800">
        <ele>1025.8</ele>
        <time>2014-10-02T13:33:43Z</time>
      </trkpt>
      <trkpt lat="42.6644040" lon="-7.2055360">
        <ele>1026.4</ele>
        <time>2014-10-02T13:33:45Z</time>
      </trkpt>
      <trkpt lat="42.6644350" lon="-7.2055890">
        <ele>1026.9</ele>
        <time>2014-10-02T13:33:47Z</time>
      </trkpt>
      <trkpt lat="42.6644520" lon="-7.2056190">
        <ele>1027.3</ele>
        <time>2014-10-02T13:33:48Z</time>
      </trkpt>
      <trkpt lat="42.6644700" lon="-7.2056470">
        <ele>1027.6</ele>
        <time>2014-10-02T13:33:49Z</time>
      </trkpt>
      <trkpt lat="42.6645060" lon="-7.2057010">
        <ele>1028.3</ele>
        <time>2014-10-02T13:33:51Z</time>
      </trkpt>
      <trkpt lat="42.6645270" lon="-7.2057320">
        <ele>1028.7</ele>
        <time>2014-10-02T13:33:52Z</time>
      </trkpt>
      <trkpt lat="42.6645550" lon="-7.2057850">
        <ele>1029.3</ele>
        <time>2014-10-02T13:33:54Z</time>
      </trkpt>
      <trkpt lat="42.6645780" lon="-7.2058280">
        <ele>1029.7</ele>
        <time>2014-10-02T13:33:55Z</time>
      </trkpt>
      <trkpt lat="42.6645880" lon="-7.2058700">
        <ele>1030.1</ele>
        <time>2014-10-02T13:33:56Z</time>
      </trkpt>
      <trkpt lat="42.6646010" lon="-7.2059240">
        <ele>1030.5</ele>
        <time>2014-10-02T13:33:57Z</time>
      </trkpt>
      <trkpt lat="42.6646180" lon="-7.2059880">
        <ele>1030.9</ele>
        <time>2014-10-02T13:33:58Z</time>
      </trkpt>
      <trkpt lat="42.6646240" lon="-7.2060770">
        <ele>1031.6</ele>
        <time>2014-10-02T13:33:59Z</time>
      </trkpt>
      <trkpt lat="42.6646240" lon="-7.2061510">
        <ele>1032.1</ele>
        <time>2014-10-02T13:34:00Z</time>
      </trkpt>
      <trkpt lat="42.6646100" lon="-7.2062060">
        <ele>1032.5</ele>
        <time>2014-10-02T13:34:01Z</time>
      </trkpt>
      <trkpt lat="42.6645890" lon="-7.2062430">
        <ele>1032.8</ele>
        <time>2014-10-02T13:34:02Z</time>
      </trkpt>
      <trkpt lat="42.6645660" lon="-7.2062800">
        <ele>1033.1</ele>
        <time>2014-10-02T13:34:03Z</time>
      </trkpt>
      <trkpt lat="42.6645420" lon="-7.2063120">
        <ele>1033.4</ele>
        <time>2014-10-02T13:34:04Z</time>
      </trkpt>
      <trkpt lat="42.6645070" lon="-7.2063530">
        <ele>1033.9</ele>
        <time>2014-10-02T13:34:06Z</time>
      </trkpt>
      <trkpt lat="42.6644620" lon="-7.2063940">
        <ele>1034.4</ele>
        <time>2014-10-02T13:34:08Z</time>
      </trkpt>
      <trkpt lat="42.6644230" lon="-7.2064280">
        <ele>1035.0</ele>
        <time>2014-10-02T13:34:10Z</time>
      </trkpt>
      <trkpt lat="42.6643930" lon="-7.2064580">
        <ele>1035.4</ele>
        <time>2014-10-02T13:34:12Z</time>
      </trkpt>
      <trkpt lat="42.6643550" lon="-7.2064990">
        <ele>1036.0</ele>
        <time>2014-10-02T13:34:14Z</time>
      </trkpt>
      <trkpt lat="42.6643290" lon="-7.2065570">
        <ele>1036.7</ele>
        <time>2014-10-02T13:34:16Z</time>
      </trkpt>
      <trkpt lat="42.6643110" lon="-7.2066200">
        <ele>1037.0</ele>
        <time>2014-10-02T13:34:18Z</time>
      </trkpt>
      <trkpt lat="42.6642990" lon="-7.2066790">
        <ele>1037.4</ele>
        <time>2014-10-02T13:34:20Z</time>
      </trkpt>
      <trkpt lat="42.6643030" lon="-7.2067420">
        <ele>1037.9</ele>
        <time>2014-10-02T13:34:22Z</time>
      </trkpt>
      <trkpt lat="42.6643120" lon="-7.2067770">
        <ele>1038.2</ele>
        <time>2014-10-02T13:34:23Z</time>
      </trkpt>
      <trkpt lat="42.6643190" lon="-7.2068130">
        <ele>1038.5</ele>
        <time>2014-10-02T13:34:24Z</time>
      </trkpt>
      <trkpt lat="42.6643240" lon="-7.2068520">
        <ele>1038.9</ele>
        <time>2014-10-02T13:34:25Z</time>
      </trkpt>
      <trkpt lat="42.6643400" lon="-7.2069260">
        <ele>1039.6</ele>
        <time>2014-10-02T13:34:27Z</time>
      </trkpt>
      <trkpt lat="42.6643510" lon="-7.2069610">
        <ele>1040.0</ele>
        <time>2014-10-02T13:34:28Z</time>
      </trkpt>
      <trkpt lat="42.6643650" lon="-7.2070000">
        <ele>1040.5</ele>
        <time>2014-10-02T13:34:29Z</time>
      </trkpt>
      <trkpt lat="42.6643750" lon="-7.2070720">
        <ele>1041.2</ele>
        <time>2014-10-02T13:34:31Z</time>
      </trkpt>
      <trkpt lat="42.6643780" lon="-7.2071110">
        <ele>1041.7</ele>
        <time>2014-10-02T13:34:32Z</time>
      </trkpt>
      <trkpt lat="42.6643910" lon="-7.2071800">
        <ele>1042.4</ele>
        <time>2014-10-02T13:34:34Z</time>
      </trkpt>
      <trkpt lat="42.6644070" lon="-7.2072400">
        <ele>1043.2</ele>
        <time>2014-10-02T13:34:36Z</time>
      </trkpt>
      <trkpt lat="42.6644250" lon="-7.2072940">
        <ele>1043.9</ele>
        <time>2014-10-02T13:34:38Z</time>
      </trkpt>
      <trkpt lat="42.6644390" lon="-7.2073380">
        <ele>1044.4</ele>
        <time>2014-10-02T13:34:40Z</time>
      </trkpt>
      <trkpt lat="42.6644590" lon="-7.2073850">
        <ele>1045.1</ele>
        <time>2014-10-02T13:34:42Z</time>
      </trkpt>
      <trkpt lat="42.6644880" lon="-7.2074390">
        <ele>1045.9</ele>
        <time>2014-10-02T13:34:44Z</time>
      </trkpt>
      <trkpt lat="42.6645180" lon="-7.2074950">
        <ele>1046.8</ele>
        <time>2014-10-02T13:34:46Z</time>
      </trkpt>
      <trkpt lat="42.6645470" lon="-7.2075440">
        <ele>1047.7</ele>
        <time>2014-10-02T13:34:48Z</time>
      </trkpt>
      <trkpt lat="42.6645790" lon="-7.2075960">
        <ele>1048.6</ele>
        <time>2014-10-02T13:34:50Z</time>
      </trkpt>
      <trkpt lat="42.6646130" lon="-7.2076740">
        <ele>1050.0</ele>
        <time>2014-10-02T13:34:53Z</time>
      </trkpt>
      <trkpt lat="42.6646170" lon="-7.2077330">
        <ele>1051.0</ele>
        <time>2014-10-02T13:34:55Z</time>
      </trkpt>
      <trkpt lat="42.6646090" lon="-7.2077730">
        <ele>1051.6</ele>
        <time>2014-10-02T13:34:56Z</time>
      </trkpt>
      <trkpt lat="42.6646000" lon="-7.2078120">
        <ele>1052.2</ele>
        <time>2014-10-02T13:34:57Z</time>
      </trkpt>
      <trkpt lat="42.6645870" lon="-7.2078480">
        <ele>1052.8</ele>
        <time>2014-10-02T13:34:58Z</time>
      </trkpt>
      <trkpt lat="42.6645620" lon="-7.2078940">
        <ele>1053.5</ele>
        <time>2014-10-02T13:35:00Z</time>
      </trkpt>
      <trkpt lat="42.6645180" lon="-7.2079200">
        <ele>1054.4</ele>
        <time>2014-10-02T13:35:02Z</time>
      </trkpt>
      <trkpt lat="42.6644910" lon="-7.2079310">
        <ele>1054.9</ele>
        <time>2014-10-02T13:35:03Z</time>
      </trkpt>
      <trkpt lat="42.6644530" lon="-7.2079470">
        <ele>1055.6</ele>
        <time>2014-10-02T13:35:05Z</time>
      </trkpt>
      <trkpt lat="42.6644180" lon="-7.2079540">
        <ele>1056.2</ele>
        <time>2014-10-02T13:35:07Z</time>
      </trkpt>
      <trkpt lat="42.6643780" lon="-7.2079630">
        <ele>1057.0</ele>
        <time>2014-10-02T13:35:09Z</time>
      </trkpt>
      <trkpt lat="42.6643410" lon="-7.2079740">
        <ele>1057.6</ele>
        <time>2014-10-02T13:35:11Z</time>
      </trkpt>
      <trkpt lat="42.6643090" lon="-7.2079930">
        <ele>1058.1</ele>
        <time>2014-10-02T13:35:13Z</time>
      </trkpt>
      <trkpt lat="42.6642790" lon="-7.2080220">
        <ele>1058.7</ele>
        <time>2014-10-02T13:35:15Z</time>
      </trkpt>
      <trkpt lat="42.6642480" lon="-7.2080600">
        <ele>1059.3</ele>
        <time>2014-10-02T13:35:17Z</time>
      </trkpt>
      <trkpt lat="42.6642410" lon="-7.2080960">
        <ele>1059.7</ele>
        <time>2014-10-02T13:35:19Z</time>
      </trkpt>
      <trkpt lat="42.6642410" lon="-7.2081350">
        <ele>1060.0</ele>
        <time>2014-10-02T13:35:21Z</time>
      </trkpt>
      <trkpt lat="42.6642420" lon="-7.2081850">
        <ele>1060.5</ele>
        <time>2014-10-02T13:35:23Z</time>
      </trkpt>
      <trkpt lat="42.6642360" lon="-7.2082250">
        <ele>1060.9</ele>
        <time>2014-10-02T13:35:25Z</time>
      </trkpt>
      <trkpt lat="42.6642400" lon="-7.2082720">
        <ele>1061.4</ele>
        <time>2014-10-02T13:35:27Z</time>
      </trkpt>
      <trkpt lat="42.6642380" lon="-7.2083220">
        <ele>1061.9</ele>
        <time>2014-10-02T13:35:29Z</time>
      </trkpt>
      <trkpt lat="42.6642300" lon="-7.2083680">
        <ele>1062.4</ele>
        <time>2014-10-02T13:35:31Z</time>
      </trkpt>
      <trkpt lat="42.6642210" lon="-7.2084180">
        <ele>1062.9</ele>
        <time>2014-10-02T13:35:33Z</time>
      </trkpt>
      <trkpt lat="42.6642200" lon="-7.2084640">
        <ele>1063.4</ele>
        <time>2014-10-02T13:35:35Z</time>
      </trkpt>
      <trkpt lat="42.6642170" lon="-7.2085030">
        <ele>1063.8</ele>
        <time>2014-10-02T13:35:37Z</time>
      </trkpt>
      <trkpt lat="42.6642160" lon="-7.2085450">
        <ele>1064.3</ele>
        <time>2014-10-02T13:35:39Z</time>
      </trkpt>
      <trkpt lat="42.6642110" lon="-7.2085870">
        <ele>1064.7</ele>
        <time>2014-10-02T13:35:41Z</time>
      </trkpt>
      <trkpt lat="42.6641960" lon="-7.2086290">
        <ele>1065.2</ele>
        <time>2014-10-02T13:35:43Z</time>
      </trkpt>
      <trkpt lat="42.6641770" lon="-7.2086820">
        <ele>1065.8</ele>
        <time>2014-10-02T13:35:45Z</time>
      </trkpt>
      <trkpt lat="42.6641720" lon="-7.2087320">
        <ele>1066.3</ele>
        <time>2014-10-02T13:35:47Z</time>
      </trkpt>
      <trkpt lat="42.6641710" lon="-7.2087700">
        <ele>1066.7</ele>
        <time>2014-10-02T13:35:49Z</time>
      </trkpt>
      <trkpt lat="42.6641720" lon="-7.2088130">
        <ele>1067.1</ele>
        <time>2014-10-02T13:35:51Z</time>
      </trkpt>
      <trkpt lat="42.6641700" lon="-7.2088530">
        <ele>1067.5</ele>
        <time>2014-10-02T13:35:53Z</time>
      </trkpt>
      <trkpt lat="42.6641710" lon="-7.2088940">
        <ele>1067.9</ele>
        <time>2014-10-02T13:35:55Z</time>
      </trkpt>
      <trkpt lat="42.6641660" lon="-7.2089390">
        <ele>1068.4</ele>
        <time>2014-10-02T13:35:57Z</time>
      </trkpt>
      <trkpt lat="42.6641690" lon="-7.2089920">
        <ele>1068.9</ele>
        <time>2014-10-02T13:35:59Z</time>
      </trkpt>
      <trkpt lat="42.6641670" lon="-7.2090550">
        <ele>1069.6</ele>
        <time>2014-10-02T13:36:01Z</time>
      </trkpt>
      <trkpt lat="42.6641610" lon="-7.2091010">
        <ele>1070.1</ele>
        <time>2014-10-02T13:36:03Z</time>
      </trkpt>
      <trkpt lat="42.6641530" lon="-7.2091460">
        <ele>1070.7</ele>
        <time>2014-10-02T13:36:05Z</time>
      </trkpt>
      <trkpt lat="42.6641430" lon="-7.2091990">
        <ele>1071.4</ele>
        <time>2014-10-02T13:36:07Z</time>
      </trkpt>
      <trkpt lat="42.6641280" lon="-7.2092520">
        <ele>1072.1</ele>
        <time>2014-10-02T13:36:09Z</time>
      </trkpt>
      <trkpt lat="42.6641340" lon="-7.2093040">
        <ele>1072.8</ele>
        <time>2014-10-02T13:36:11Z</time>
      </trkpt>
      <trkpt lat="42.6641330" lon="-7.2093540">
        <ele>1073.4</ele>
        <time>2014-10-02T13:36:13Z</time>
      </trkpt>
      <trkpt lat="42.6641280" lon="-7.2093950">
        <ele>1073.9</ele>
        <time>2014-10-02T13:36:15Z</time>
      </trkpt>
      <trkpt lat="42.6641190" lon="-7.2094390">
        <ele>1074.5</ele>
        <time>2014-10-02T13:36:17Z</time>
      </trkpt>
      <trkpt lat="42.6641170" lon="-7.2094840">
        <ele>1075.1</ele>
        <time>2014-10-02T13:36:19Z</time>
      </trkpt>
      <trkpt lat="42.6641130" lon="-7.2095330">
        <ele>1075.7</ele>
        <time>2014-10-02T13:36:21Z</time>
      </trkpt>
      <trkpt lat="42.6641050" lon="-7.2095730">
        <ele>1076.2</ele>
        <time>2014-10-02T13:36:23Z</time>
      </trkpt>
      <trkpt lat="42.6641090" lon="-7.2096180">
        <ele>1076.8</ele>
        <time>2014-10-02T13:36:25Z</time>
      </trkpt>
      <trkpt lat="42.6640970" lon="-7.2096720">
        <ele>1077.5</ele>
        <time>2014-10-02T13:36:27Z</time>
      </trkpt>
      <trkpt lat="42.6640970" lon="-7.2097190">
        <ele>1078.1</ele>
        <time>2014-10-02T13:36:29Z</time>
      </trkpt>
      <trkpt lat="42.6640890" lon="-7.2097720">
        <ele>1078.8</ele>
        <time>2014-10-02T13:36:31Z</time>
      </trkpt>
      <trkpt lat="42.6640810" lon="-7.2098310">
        <ele>1079.5</ele>
        <time>2014-10-02T13:36:33Z</time>
      </trkpt>
      <trkpt lat="42.6640710" lon="-7.2098840">
        <ele>1080.1</ele>
        <time>2014-10-02T13:36:35Z</time>
      </trkpt>
      <trkpt lat="42.6640590" lon="-7.2099370">
        <ele>1080.7</ele>
        <time>2014-10-02T13:36:37Z</time>
      </trkpt>
      <trkpt lat="42.6640490" lon="-7.2099830">
        <ele>1081.2</ele>
        <time>2014-10-02T13:36:39Z</time>
      </trkpt>
      <trkpt lat="42.6640420" lon="-7.2100300">
        <ele>1081.7</ele>
        <time>2014-10-02T13:36:41Z</time>
      </trkpt>
      <trkpt lat="42.6640370" lon="-7.2100810">
        <ele>1082.3</ele>
        <time>2014-10-02T13:36:43Z</time>
      </trkpt>
      <trkpt lat="42.6640370" lon="-7.2101320">
        <ele>1082.8</ele>
        <time>2014-10-02T13:36:45Z</time>
      </trkpt>
      <trkpt lat="42.6640380" lon="-7.2101950">
        <ele>1083.4</ele>
        <time>2014-10-02T13:36:47Z</time>
      </trkpt>
      <trkpt lat="42.6640510" lon="-7.2102570">
        <ele>1084.0</ele>
        <time>2014-10-02T13:36:49Z</time>
      </trkpt>
      <trkpt lat="42.6640560" lon="-7.2103180">
        <ele>1084.5</ele>
        <time>2014-10-02T13:36:51Z</time>
      </trkpt>
      <trkpt lat="42.6640560" lon="-7.2103770">
        <ele>1085.1</ele>
        <time>2014-10-02T13:36:53Z</time>
      </trkpt>
      <trkpt lat="42.6640420" lon="-7.2104360">
        <ele>1085.6</ele>
        <time>2014-10-02T13:36:55Z</time>
      </trkpt>
      <trkpt lat="42.6640340" lon="-7.2104950">
        <ele>1086.2</ele>
        <time>2014-10-02T13:36:57Z</time>
      </trkpt>
      <trkpt lat="42.6640440" lon="-7.2105540">
        <ele>1086.7</ele>
        <time>2014-10-02T13:36:59Z</time>
      </trkpt>
      <trkpt lat="42.6640390" lon="-7.2106030">
        <ele>1087.2</ele>
        <time>2014-10-02T13:37:01Z</time>
      </trkpt>
      <trkpt lat="42.6640340" lon="-7.2106600">
        <ele>1087.7</ele>
        <time>2014-10-02T13:37:03Z</time>
      </trkpt>
      <trkpt lat="42.6640330" lon="-7.2107150">
        <ele>1088.2</ele>
        <time>2014-10-02T13:37:05Z</time>
      </trkpt>
      <trkpt lat="42.6640360" lon="-7.2107680">
        <ele>1088.7</ele>
        <time>2014-10-02T13:37:07Z</time>
      </trkpt>
      <trkpt lat="42.6640320" lon="-7.2108290">
        <ele>1089.4</ele>
        <time>2014-10-02T13:37:09Z</time>
      </trkpt>
      <trkpt lat="42.6640400" lon="-7.2108910">
        <ele>1090.0</ele>
        <time>2014-10-02T13:37:11Z</time>
      </trkpt>
      <trkpt lat="42.6640350" lon="-7.2109450">
        <ele>1090.3</ele>
        <time>2014-10-02T13:37:13Z</time>
      </trkpt>
      <trkpt lat="42.6640480" lon="-7.2110020">
        <ele>1090.4</ele>
        <time>2014-10-02T13:37:15Z</time>
      </trkpt>
      <trkpt lat="42.6640510" lon="-7.2110500">
        <ele>1090.3</ele>
        <time>2014-10-02T13:37:17Z</time>
      </trkpt>
      <trkpt lat="42.6640570" lon="-7.2111020">
        <ele>1090.1</ele>
        <time>2014-10-02T13:37:19Z</time>
      </trkpt>
      <trkpt lat="42.6640520" lon="-7.2111560">
        <ele>1090.2</ele>
        <time>2014-10-02T13:37:21Z</time>
      </trkpt>
      <trkpt lat="42.6640580" lon="-7.2112140">
        <ele>1090.3</ele>
        <time>2014-10-02T13:37:23Z</time>
      </trkpt>
      <trkpt lat="42.6640820" lon="-7.2112680">
        <ele>1090.4</ele>
        <time>2014-10-02T13:37:25Z</time>
      </trkpt>
      <trkpt lat="42.6640820" lon="-7.2113340">
        <ele>1090.7</ele>
        <time>2014-10-02T13:37:27Z</time>
      </trkpt>
      <trkpt lat="42.6640810" lon="-7.2114020">
        <ele>1091.0</ele>
        <time>2014-10-02T13:37:29Z</time>
      </trkpt>
      <trkpt lat="42.6640800" lon="-7.2114660">
        <ele>1091.4</ele>
        <time>2014-10-02T13:37:31Z</time>
      </trkpt>
      <trkpt lat="42.6640830" lon="-7.2115180">
        <ele>1091.7</ele>
        <time>2014-10-02T13:37:33Z</time>
      </trkpt>
      <trkpt lat="42.6640830" lon="-7.2115790">
        <ele>1092.2</ele>
        <time>2014-10-02T13:37:35Z</time>
      </trkpt>
      <trkpt lat="42.6640900" lon="-7.2116380">
        <ele>1092.6</ele>
        <time>2014-10-02T13:37:37Z</time>
      </trkpt>
      <trkpt lat="42.6640990" lon="-7.2116940">
        <ele>1093.1</ele>
        <time>2014-10-02T13:37:39Z</time>
      </trkpt>
      <trkpt lat="42.6641070" lon="-7.2117500">
        <ele>1093.5</ele>
        <time>2014-10-02T13:37:41Z</time>
      </trkpt>
      <trkpt lat="42.6641130" lon="-7.2118100">
        <ele>1093.9</ele>
        <time>2014-10-02T13:37:43Z</time>
      </trkpt>
      <trkpt lat="42.6641150" lon="-7.2118640">
        <ele>1094.3</ele>
        <time>2014-10-02T13:37:45Z</time>
      </trkpt>
      <trkpt lat="42.6641220" lon="-7.2119180">
        <ele>1094.7</ele>
        <time>2014-10-02T13:37:47Z</time>
      </trkpt>
      <trkpt lat="42.6641390" lon="-7.2119740">
        <ele>1095.0</ele>
        <time>2014-10-02T13:37:49Z</time>
      </trkpt>
      <trkpt lat="42.6641470" lon="-7.2120370">
        <ele>1095.4</ele>
        <time>2014-10-02T13:37:51Z</time>
      </trkpt>
      <trkpt lat="42.6641510" lon="-7.2120800">
        <ele>1095.7</ele>
        <time>2014-10-02T13:37:53Z</time>
      </trkpt>
      <trkpt lat="42.6641630" lon="-7.2121390">
        <ele>1096.1</ele>
        <time>2014-10-02T13:37:55Z</time>
      </trkpt>
      <trkpt lat="42.6641810" lon="-7.2121980">
        <ele>1096.6</ele>
        <time>2014-10-02T13:37:57Z</time>
      </trkpt>
      <trkpt lat="42.6641990" lon="-7.2122500">
        <ele>1096.9</ele>
        <time>2014-10-02T13:37:59Z</time>
      </trkpt>
      <trkpt lat="42.6642280" lon="-7.2123090">
        <ele>1097.4</ele>
        <time>2014-10-02T13:38:01Z</time>
      </trkpt>
      <trkpt lat="42.6642490" lon="-7.2123640">
        <ele>1097.8</ele>
        <time>2014-10-02T13:38:03Z</time>
      </trkpt>
      <trkpt lat="42.6642630" lon="-7.2124160">
        <ele>1098.2</ele>
        <time>2014-10-02T13:38:05Z</time>
      </trkpt>
      <trkpt lat="42.6642870" lon="-7.2124610">
        <ele>1098.6</ele>
        <time>2014-10-02T13:38:07Z</time>
      </trkpt>
      <trkpt lat="42.6643100" lon="-7.2125220">
        <ele>1099.1</ele>
        <time>2014-10-02T13:38:09Z</time>
      </trkpt>
      <trkpt lat="42.6643360" lon="-7.2125740">
        <ele>1099.6</ele>
        <time>2014-10-02T13:38:11Z</time>
      </trkpt>
      <trkpt lat="42.6643610" lon="-7.2126180">
        <ele>1100.0</ele>
        <time>2014-10-02T13:38:13Z</time>
      </trkpt>
      <trkpt lat="42.6643750" lon="-7.2126620">
        <ele>1100.4</ele>
        <time>2014-10-02T13:38:15Z</time>
      </trkpt>
      <trkpt lat="42.6643850" lon="-7.2127040">
        <ele>1100.7</ele>
        <time>2014-10-02T13:38:17Z</time>
      </trkpt>
      <trkpt lat="42.6643990" lon="-7.2127490">
        <ele>1101.1</ele>
        <time>2014-10-02T13:38:19Z</time>
      </trkpt>
      <trkpt lat="42.6644270" lon="-7.2127960">
        <ele>1101.5</ele>
        <time>2014-10-02T13:38:21Z</time>
      </trkpt>
      <trkpt lat="42.6644470" lon="-7.2128350">
        <ele>1101.9</ele>
        <time>2014-10-02T13:38:23Z</time>
      </trkpt>
      <trkpt lat="42.6644650" lon="-7.2128750">
        <ele>1102.2</ele>
        <time>2014-10-02T13:38:25Z</time>
      </trkpt>
      <trkpt lat="42.6644890" lon="-7.2129200">
        <ele>1102.7</ele>
        <time>2014-10-02T13:38:27Z</time>
      </trkpt>
      <trkpt lat="42.6645100" lon="-7.2129570">
        <ele>1103.0</ele>
        <time>2014-10-02T13:38:29Z</time>
      </trkpt>
      <trkpt lat="42.6645320" lon="-7.2129830">
        <ele>1103.3</ele>
        <time>2014-10-02T13:38:30Z</time>
      </trkpt>
      <trkpt lat="42.6645650" lon="-7.2130340">
        <ele>1103.9</ele>
        <time>2014-10-02T13:38:32Z</time>
      </trkpt>
      <trkpt lat="42.6646020" lon="-7.2130840">
        <ele>1104.4</ele>
        <time>2014-10-02T13:38:34Z</time>
      </trkpt>
      <trkpt lat="42.6646400" lon="-7.2131360">
        <ele>1105.0</ele>
        <time>2014-10-02T13:38:36Z</time>
      </trkpt>
      <trkpt lat="42.6646700" lon="-7.2131860">
        <ele>1105.4</ele>
        <time>2014-10-02T13:38:38Z</time>
      </trkpt>
      <trkpt lat="42.6646950" lon="-7.2132360">
        <ele>1105.7</ele>
        <time>2014-10-02T13:38:40Z</time>
      </trkpt>
      <trkpt lat="42.6647260" lon="-7.2132820">
        <ele>1106.1</ele>
        <time>2014-10-02T13:38:42Z</time>
      </trkpt>
      <trkpt lat="42.6647540" lon="-7.2133300">
        <ele>1106.5</ele>
        <time>2014-10-02T13:38:44Z</time>
      </trkpt>
      <trkpt lat="42.6647850" lon="-7.2133770">
        <ele>1106.9</ele>
        <time>2014-10-02T13:38:46Z</time>
      </trkpt>
      <trkpt lat="42.6648110" lon="-7.2134300">
        <ele>1107.2</ele>
        <time>2014-10-02T13:38:48Z</time>
      </trkpt>
      <trkpt lat="42.6648380" lon="-7.2134750">
        <ele>1107.6</ele>
        <time>2014-10-02T13:38:50Z</time>
      </trkpt>
      <trkpt lat="42.6648730" lon="-7.2135180">
        <ele>1108.0</ele>
        <time>2014-10-02T13:38:52Z</time>
      </trkpt>
      <trkpt lat="42.6649100" lon="-7.2135610">
        <ele>1108.3</ele>
        <time>2014-10-02T13:38:54Z</time>
      </trkpt>
      <trkpt lat="42.6649370" lon="-7.2136090">
        <ele>1108.6</ele>
        <time>2014-10-02T13:38:56Z</time>
      </trkpt>
      <trkpt lat="42.6649600" lon="-7.2136480">
        <ele>1108.9</ele>
        <time>2014-10-02T13:38:58Z</time>
      </trkpt>
      <trkpt lat="42.6649850" lon="-7.2136880">
        <ele>1109.1</ele>
        <time>2014-10-02T13:39:00Z</time>
      </trkpt>
      <trkpt lat="42.6650110" lon="-7.2137170">
        <ele>1109.3</ele>
        <time>2014-10-02T13:39:02Z</time>
      </trkpt>
      <trkpt lat="42.6650440" lon="-7.2137570">
        <ele>1109.6</ele>
        <time>2014-10-02T13:39:04Z</time>
      </trkpt>
      <trkpt lat="42.6650830" lon="-7.2138010">
        <ele>1110.2</ele>
        <time>2014-10-02T13:39:06Z</time>
      </trkpt>
      <trkpt lat="42.6651210" lon="-7.2138480">
        <ele>1110.9</ele>
        <time>2014-10-02T13:39:08Z</time>
      </trkpt>
      <trkpt lat="42.6651410" lon="-7.2138830">
        <ele>1111.4</ele>
        <time>2014-10-02T13:39:09Z</time>
      </trkpt>
      <trkpt lat="42.6651650" lon="-7.2139160">
        <ele>1111.9</ele>
        <time>2014-10-02T13:39:10Z</time>
      </trkpt>
      <trkpt lat="42.6651950" lon="-7.2139720">
        <ele>1112.6</ele>
        <time>2014-10-02T13:39:12Z</time>
      </trkpt>
      <trkpt lat="42.6652140" lon="-7.2140040">
        <ele>1113.0</ele>
        <time>2014-10-02T13:39:13Z</time>
      </trkpt>
      <trkpt lat="42.6652530" lon="-7.2140550">
        <ele>1113.7</ele>
        <time>2014-10-02T13:39:15Z</time>
      </trkpt>
      <trkpt lat="42.6652730" lon="-7.2140800">
        <ele>1114.0</ele>
        <time>2014-10-02T13:39:16Z</time>
      </trkpt>
      <trkpt lat="42.6653010" lon="-7.2141030">
        <ele>1114.4</ele>
        <time>2014-10-02T13:39:17Z</time>
      </trkpt>
      <trkpt lat="42.6653270" lon="-7.2141280">
        <ele>1114.8</ele>
        <time>2014-10-02T13:39:18Z</time>
      </trkpt>
      <trkpt lat="42.6653490" lon="-7.2141490">
        <ele>1115.2</ele>
        <time>2014-10-02T13:39:19Z</time>
      </trkpt>
      <trkpt lat="42.6653880" lon="-7.2141940">
        <ele>1115.8</ele>
        <time>2014-10-02T13:39:21Z</time>
      </trkpt>
      <trkpt lat="42.6654240" lon="-7.2142350">
        <ele>1116.5</ele>
        <time>2014-10-02T13:39:23Z</time>
      </trkpt>
      <trkpt lat="42.6654450" lon="-7.2142590">
        <ele>1116.8</ele>
        <time>2014-10-02T13:39:24Z</time>
      </trkpt>
      <trkpt lat="42.6654710" lon="-7.2142880">
        <ele>1117.2</ele>
        <time>2014-10-02T13:39:25Z</time>
      </trkpt>
      <trkpt lat="42.6654970" lon="-7.2143120">
        <ele>1117.5</ele>
        <time>2014-10-02T13:39:26Z</time>
      </trkpt>
      <trkpt lat="42.6655240" lon="-7.2143340">
        <ele>1117.9</ele>
        <time>2014-10-02T13:39:27Z</time>
      </trkpt>
      <trkpt lat="42.6655510" lon="-7.2143560">
        <ele>1118.3</ele>
        <time>2014-10-02T13:39:28Z</time>
      </trkpt>
      <trkpt lat="42.6655820" lon="-7.2143800">
        <ele>1118.5</ele>
        <time>2014-10-02T13:39:29Z</time>
      </trkpt>
      <trkpt lat="42.6656080" lon="-7.2144000">
        <ele>1118.7</ele>
        <time>2014-10-02T13:39:30Z</time>
      </trkpt>
      <trkpt lat="42.6656390" lon="-7.2144300">
        <ele>1118.9</ele>
        <time>2014-10-02T13:39:31Z</time>
      </trkpt>
      <trkpt lat="42.6656700" lon="-7.2144590">
        <ele>1119.2</ele>
        <time>2014-10-02T13:39:32Z</time>
      </trkpt>
      <trkpt lat="42.6657010" lon="-7.2144940">
        <ele>1119.5</ele>
        <time>2014-10-02T13:39:33Z</time>
      </trkpt>
      <trkpt lat="42.6657340" lon="-7.2145310">
        <ele>1119.8</ele>
        <time>2014-10-02T13:39:34Z</time>
      </trkpt>
      <trkpt lat="42.6657600" lon="-7.2145760">
        <ele>1120.1</ele>
        <time>2014-10-02T13:39:35Z</time>
      </trkpt>
      <trkpt lat="42.6657830" lon="-7.2146260">
        <ele>1120.4</ele>
        <time>2014-10-02T13:39:36Z</time>
      </trkpt>
      <trkpt lat="42.6658030" lon="-7.2146660">
        <ele>1120.7</ele>
        <time>2014-10-02T13:39:37Z</time>
      </trkpt>
      <trkpt lat="42.6658250" lon="-7.2147150">
        <ele>1121.1</ele>
        <time>2014-10-02T13:39:38Z</time>
      </trkpt>
      <trkpt lat="42.6658430" lon="-7.2147610">
        <ele>1121.4</ele>
        <time>2014-10-02T13:39:39Z</time>
      </trkpt>
      <trkpt lat="42.6658600" lon="-7.2148080">
        <ele>1121.8</ele>
        <time>2014-10-02T13:39:40Z</time>
      </trkpt>
      <trkpt lat="42.6658780" lon="-7.2148560">
        <ele>1122.1</ele>
        <time>2014-10-02T13:39:41Z</time>
      </trkpt>
      <trkpt lat="42.6658950" lon="-7.2149050">
        <ele>1122.5</ele>
        <time>2014-10-02T13:39:42Z</time>
      </trkpt>
      <trkpt lat="42.6659120" lon="-7.2149510">
        <ele>1122.9</ele>
        <time>2014-10-02T13:39:43Z</time>
      </trkpt>
      <trkpt lat="42.6659340" lon="-7.2149910">
        <ele>1123.6</ele>
        <time>2014-10-02T13:39:44Z</time>
      </trkpt>
      <trkpt lat="42.6659520" lon="-7.2150270">
        <ele>1124.3</ele>
        <time>2014-10-02T13:39:45Z</time>
      </trkpt>
      <trkpt lat="42.6659710" lon="-7.2150620">
        <ele>1125.0</ele>
        <time>2014-10-02T13:39:46Z</time>
      </trkpt>
      <trkpt lat="42.6659930" lon="-7.2151030">
        <ele>1125.7</ele>
        <time>2014-10-02T13:39:47Z</time>
      </trkpt>
      <trkpt lat="42.6660150" lon="-7.2151450">
        <ele>1126.3</ele>
        <time>2014-10-02T13:39:48Z</time>
      </trkpt>
      <trkpt lat="42.6660310" lon="-7.2151790">
        <ele>1126.6</ele>
        <time>2014-10-02T13:39:49Z</time>
      </trkpt>
      <trkpt lat="42.6660470" lon="-7.2152140">
        <ele>1126.9</ele>
        <time>2014-10-02T13:39:50Z</time>
      </trkpt>
      <trkpt lat="42.6660630" lon="-7.2152480">
        <ele>1127.2</ele>
        <time>2014-10-02T13:39:51Z</time>
      </trkpt>
      <trkpt lat="42.6660800" lon="-7.2152820">
        <ele>1127.4</ele>
        <time>2014-10-02T13:39:52Z</time>
      </trkpt>
      <trkpt lat="42.6661210" lon="-7.2153340">
        <ele>1127.7</ele>
        <time>2014-10-02T13:39:54Z</time>
      </trkpt>
      <trkpt lat="42.6661400" lon="-7.2153650">
        <ele>1127.9</ele>
        <time>2014-10-02T13:39:55Z</time>
      </trkpt>
      <trkpt lat="42.6661590" lon="-7.2153970">
        <ele>1128.1</ele>
        <time>2014-10-02T13:39:56Z</time>
      </trkpt>
      <trkpt lat="42.6661800" lon="-7.2154250">
        <ele>1128.2</ele>
        <time>2014-10-02T13:39:57Z</time>
      </trkpt>
      <trkpt lat="42.6661980" lon="-7.2154570">
        <ele>1128.4</ele>
        <time>2014-10-02T13:39:58Z</time>
      </trkpt>
      <trkpt lat="42.6662200" lon="-7.2154810">
        <ele>1128.6</ele>
        <time>2014-10-02T13:39:59Z</time>
      </trkpt>
      <trkpt lat="42.6662370" lon="-7.2155150">
        <ele>1128.8</ele>
        <time>2014-10-02T13:40:00Z</time>
      </trkpt>
      <trkpt lat="42.6662550" lon="-7.2155470">
        <ele>1129.0</ele>
        <time>2014-10-02T13:40:01Z</time>
      </trkpt>
      <trkpt lat="42.6662860" lon="-7.2156030">
        <ele>1129.3</ele>
        <time>2014-10-02T13:40:03Z</time>
      </trkpt>
      <trkpt lat="42.6663170" lon="-7.2156580">
        <ele>1129.7</ele>
        <time>2014-10-02T13:40:05Z</time>
      </trkpt>
      <trkpt lat="42.6663330" lon="-7.2156920">
        <ele>1129.9</ele>
        <time>2014-10-02T13:40:06Z</time>
      </trkpt>
      <trkpt lat="42.6663530" lon="-7.2157250">
        <ele>1130.1</ele>
        <time>2014-10-02T13:40:07Z</time>
      </trkpt>
      <trkpt lat="42.6663690" lon="-7.2157560">
        <ele>1130.3</ele>
        <time>2014-10-02T13:40:08Z</time>
      </trkpt>
      <trkpt lat="42.6663860" lon="-7.2157840">
        <ele>1130.5</ele>
        <time>2014-10-02T13:40:09Z</time>
      </trkpt>
      <trkpt lat="42.6664030" lon="-7.2158210">
        <ele>1130.7</ele>
        <time>2014-10-02T13:40:10Z</time>
      </trkpt>
      <trkpt lat="42.6664210" lon="-7.2158530">
        <ele>1130.9</ele>
        <time>2014-10-02T13:40:11Z</time>
      </trkpt>
      <trkpt lat="42.6664400" lon="-7.2158880">
        <ele>1131.1</ele>
        <time>2014-10-02T13:40:12Z</time>
      </trkpt>
      <trkpt lat="42.6664550" lon="-7.2159240">
        <ele>1131.3</ele>
        <time>2014-10-02T13:40:13Z</time>
      </trkpt>
      <trkpt lat="42.6664700" lon="-7.2159620">
        <ele>1131.5</ele>
        <time>2014-10-02T13:40:14Z</time>
      </trkpt>
      <trkpt lat="42.6664820" lon="-7.2159980">
        <ele>1131.7</ele>
        <time>2014-10-02T13:40:15Z</time>
      </trkpt>
      <trkpt lat="42.6664940" lon="-7.2160320">
        <ele>1131.8</ele>
        <time>2014-10-02T13:40:16Z</time>
      </trkpt>
      <trkpt lat="42.6665060" lon="-7.2160710">
        <ele>1132.0</ele>
        <time>2014-10-02T13:40:17Z</time>
      </trkpt>
      <trkpt lat="42.6665240" lon="-7.2161090">
        <ele>1132.1</ele>
        <time>2014-10-02T13:40:18Z</time>
      </trkpt>
      <trkpt lat="42.6665420" lon="-7.2161390">
        <ele>1132.1</ele>
        <time>2014-10-02T13:40:19Z</time>
      </trkpt>
      <trkpt lat="42.6665610" lon="-7.2161750">
        <ele>1132.2</ele>
        <time>2014-10-02T13:40:20Z</time>
      </trkpt>
      <trkpt lat="42.6665780" lon="-7.2162170">
        <ele>1132.2</ele>
        <time>2014-10-02T13:40:21Z</time>
      </trkpt>
      <trkpt lat="42.6665940" lon="-7.2162570">
        <ele>1132.3</ele>
        <time>2014-10-02T13:40:22Z</time>
      </trkpt>
      <trkpt lat="42.6666120" lon="-7.2162980">
        <ele>1132.4</ele>
        <time>2014-10-02T13:40:23Z</time>
      </trkpt>
      <trkpt lat="42.6666320" lon="-7.2163320">
        <ele>1132.4</ele>
        <time>2014-10-02T13:40:24Z</time>
      </trkpt>
      <trkpt lat="42.6666520" lon="-7.2163670">
        <ele>1132.5</ele>
        <time>2014-10-02T13:40:25Z</time>
      </trkpt>
      <trkpt lat="42.6666760" lon="-7.2164060">
        <ele>1132.7</ele>
        <time>2014-10-02T13:40:26Z</time>
      </trkpt>
      <trkpt lat="42.6667000" lon="-7.2164400">
        <ele>1132.8</ele>
        <time>2014-10-02T13:40:27Z</time>
      </trkpt>
      <trkpt lat="42.6667230" lon="-7.2164800">
        <ele>1132.9</ele>
        <time>2014-10-02T13:40:28Z</time>
      </trkpt>
      <trkpt lat="42.6667430" lon="-7.2165160">
        <ele>1133.1</ele>
        <time>2014-10-02T13:40:29Z</time>
      </trkpt>
      <trkpt lat="42.6667650" lon="-7.2165460">
        <ele>1133.2</ele>
        <time>2014-10-02T13:40:30Z</time>
      </trkpt>
      <trkpt lat="42.6667850" lon="-7.2165780">
        <ele>1133.3</ele>
        <time>2014-10-02T13:40:31Z</time>
      </trkpt>
      <trkpt lat="42.6668280" lon="-7.2166350">
        <ele>1133.6</ele>
        <time>2014-10-02T13:40:33Z</time>
      </trkpt>
      <trkpt lat="42.6668560" lon="-7.2166750">
        <ele>1133.8</ele>
        <time>2014-10-02T13:40:34Z</time>
      </trkpt>
      <trkpt lat="42.6668870" lon="-7.2167070">
        <ele>1134.0</ele>
        <time>2014-10-02T13:40:35Z</time>
      </trkpt>
      <trkpt lat="42.6669120" lon="-7.2167430">
        <ele>1134.1</ele>
        <time>2014-10-02T13:40:36Z</time>
      </trkpt>
      <trkpt lat="42.6669400" lon="-7.2167850">
        <ele>1134.3</ele>
        <time>2014-10-02T13:40:37Z</time>
      </trkpt>
      <trkpt lat="42.6669640" lon="-7.2168270">
        <ele>1134.5</ele>
        <time>2014-10-02T13:40:38Z</time>
      </trkpt>
      <trkpt lat="42.6669900" lon="-7.2168730">
        <ele>1134.7</ele>
        <time>2014-10-02T13:40:39Z</time>
      </trkpt>
      <trkpt lat="42.6670150" lon="-7.2169230">
        <ele>1134.9</ele>
        <time>2014-10-02T13:40:40Z</time>
      </trkpt>
      <trkpt lat="42.6670340" lon="-7.2169670">
        <ele>1135.0</ele>
        <time>2014-10-02T13:40:41Z</time>
      </trkpt>
      <trkpt lat="42.6670540" lon="-7.2170070">
        <ele>1135.2</ele>
        <time>2014-10-02T13:40:42Z</time>
      </trkpt>
      <trkpt lat="42.6670700" lon="-7.2170520">
        <ele>1135.4</ele>
        <time>2014-10-02T13:40:43Z</time>
      </trkpt>
      <trkpt lat="42.6670830" lon="-7.2171000">
        <ele>1135.5</ele>
        <time>2014-10-02T13:40:44Z</time>
      </trkpt>
      <trkpt lat="42.6670990" lon="-7.2171460">
        <ele>1135.7</ele>
        <time>2014-10-02T13:40:45Z</time>
      </trkpt>
      <trkpt lat="42.6671170" lon="-7.2172040">
        <ele>1136.0</ele>
        <time>2014-10-02T13:40:46Z</time>
      </trkpt>
      <trkpt lat="42.6671320" lon="-7.2172620">
        <ele>1136.2</ele>
        <time>2014-10-02T13:40:47Z</time>
      </trkpt>
      <trkpt lat="42.6671450" lon="-7.2173120">
        <ele>1136.5</ele>
        <time>2014-10-02T13:40:48Z</time>
      </trkpt>
      <trkpt lat="42.6671540" lon="-7.2173610">
        <ele>1136.7</ele>
        <time>2014-10-02T13:40:49Z</time>
      </trkpt>
      <trkpt lat="42.6671630" lon="-7.2174110">
        <ele>1136.9</ele>
        <time>2014-10-02T13:40:50Z</time>
      </trkpt>
      <trkpt lat="42.6671700" lon="-7.2174610">
        <ele>1137.0</ele>
        <time>2014-10-02T13:40:51Z</time>
      </trkpt>
      <trkpt lat="42.6671760" lon="-7.2175020">
        <ele>1137.2</ele>
        <time>2014-10-02T13:40:52Z</time>
      </trkpt>
      <trkpt lat="42.6671810" lon="-7.2175410">
        <ele>1137.3</ele>
        <time>2014-10-02T13:40:53Z</time>
      </trkpt>
      <trkpt lat="42.6671870" lon="-7.2175780">
        <ele>1137.4</ele>
        <time>2014-10-02T13:40:54Z</time>
      </trkpt>
      <trkpt lat="42.6672020" lon="-7.2176540">
        <ele>1137.6</ele>
        <time>2014-10-02T13:40:56Z</time>
      </trkpt>
      <trkpt lat="42.6672100" lon="-7.2177050">
        <ele>1137.7</ele>
        <time>2014-10-02T13:40:57Z</time>
      </trkpt>
      <trkpt lat="42.6672180" lon="-7.2177490">
        <ele>1137.8</ele>
        <time>2014-10-02T13:40:58Z</time>
      </trkpt>
      <trkpt lat="42.6672270" lon="-7.2177940">
        <ele>1138.0</ele>
        <time>2014-10-02T13:40:59Z</time>
      </trkpt>
      <trkpt lat="42.6672400" lon="-7.2178370">
        <ele>1138.1</ele>
        <time>2014-10-02T13:41:00Z</time>
      </trkpt>
      <trkpt lat="42.6672510" lon="-7.2178780">
        <ele>1138.2</ele>
        <time>2014-10-02T13:41:01Z</time>
      </trkpt>
      <trkpt lat="42.6672590" lon="-7.2179230">
        <ele>1138.3</ele>
        <time>2014-10-02T13:41:02Z</time>
      </trkpt>
      <trkpt lat="42.6672670" lon="-7.2179700">
        <ele>1138.4</ele>
        <time>2014-10-02T13:41:03Z</time>
      </trkpt>
      <trkpt lat="42.6672760" lon="-7.2180110">
        <ele>1138.5</ele>
        <time>2014-10-02T13:41:04Z</time>
      </trkpt>
      <trkpt lat="42.6672840" lon="-7.2180560">
        <ele>1138.6</ele>
        <time>2014-10-02T13:41:05Z</time>
      </trkpt>
      <trkpt lat="42.6672940" lon="-7.2180980">
        <ele>1138.6</ele>
        <time>2014-10-02T13:41:06Z</time>
      </trkpt>
      <trkpt lat="42.6673040" lon="-7.2181440">
        <ele>1138.6</ele>
        <time>2014-10-02T13:41:07Z</time>
      </trkpt>
      <trkpt lat="42.6673150" lon="-7.2181930">
        <ele>1138.5</ele>
        <time>2014-10-02T13:41:08Z</time>
      </trkpt>
      <trkpt lat="42.6673260" lon="-7.2182320">
        <ele>1138.4</ele>
        <time>2014-10-02T13:41:09Z</time>
      </trkpt>
      <trkpt lat="42.6673390" lon="-7.2182690">
        <ele>1138.3</ele>
        <time>2014-10-02T13:41:10Z</time>
      </trkpt>
      <trkpt lat="42.6673480" lon="-7.2183110">
        <ele>1137.8</ele>
        <time>2014-10-02T13:41:11Z</time>
      </trkpt>
      <trkpt lat="42.6673600" lon="-7.2183460">
        <ele>1137.4</ele>
        <time>2014-10-02T13:41:12Z</time>
      </trkpt>
      <trkpt lat="42.6673730" lon="-7.2183810">
        <ele>1137.0</ele>
        <time>2014-10-02T13:41:13Z</time>
      </trkpt>
      <trkpt lat="42.6673890" lon="-7.2184210">
        <ele>1136.5</ele>
        <time>2014-10-02T13:41:14Z</time>
      </trkpt>
      <trkpt lat="42.6674070" lon="-7.2184540">
        <ele>1136.0</ele>
        <time>2014-10-02T13:41:15Z</time>
      </trkpt>
      <trkpt lat="42.6674410" lon="-7.2184970">
        <ele>1135.3</ele>
        <time>2014-10-02T13:41:17Z</time>
      </trkpt>
      <trkpt lat="42.6674770" lon="-7.2185390">
        <ele>1134.6</ele>
        <time>2014-10-02T13:41:19Z</time>
      </trkpt>
      <trkpt lat="42.6674840" lon="-7.2185520">
        <ele>1134.5</ele>
        <time>2014-10-02T13:41:21Z</time>
      </trkpt>
      <trkpt lat="42.6674640" lon="-7.2185430">
        <ele>1134.7</ele>
        <time>2014-10-02T13:41:25Z</time>
      </trkpt>
      <trkpt lat="42.6674430" lon="-7.2185350">
        <ele>1134.9</ele>
        <time>2014-10-02T13:41:27Z</time>
      </trkpt>
      <trkpt lat="42.6674230" lon="-7.2185270">
        <ele>1135.1</ele>
        <time>2014-10-02T13:41:33Z</time>
      </trkpt>
      <trkpt lat="42.6674020" lon="-7.2185180">
        <ele>1135.3</ele>
        <time>2014-10-02T13:41:38Z</time>
      </trkpt>
      <trkpt lat="42.6673820" lon="-7.2185100">
        <ele>1135.5</ele>
        <time>2014-10-02T13:41:50Z</time>
      </trkpt>
      <trkpt lat="42.6673610" lon="-7.2185020">
        <ele>1136.4</ele>
        <time>2014-10-02T13:41:55Z</time>
      </trkpt>
      <trkpt lat="42.6673410" lon="-7.2184930">
        <ele>1136.5</ele>
        <time>2014-10-02T13:42:09Z</time>
      </trkpt>
      <trkpt lat="42.6673200" lon="-7.2184850">
        <ele>1136.6</ele>
        <time>2014-10-02T13:42:10Z</time>
      </trkpt>
      <trkpt lat="42.6672910" lon="-7.2184890">
        <ele>1136.7</ele>
        <time>2014-10-02T13:42:11Z</time>
      </trkpt>
      <trkpt lat="42.6673520" lon="-7.2184810">
        <ele>1137.0</ele>
        <time>2014-10-02T13:42:18Z</time>
      </trkpt>
      <trkpt lat="42.6673820" lon="-7.2184680">
        <ele>1137.1</ele>
        <time>2014-10-02T13:42:19Z</time>
      </trkpt>
      <trkpt lat="42.6674200" lon="-7.2184690">
        <ele>1137.3</ele>
        <time>2014-10-02T13:42:21Z</time>
      </trkpt>
      <trkpt lat="42.6674350" lon="-7.2185090">
        <ele>1137.4</ele>
        <time>2014-10-02T13:42:26Z</time>
      </trkpt>
      <trkpt lat="42.6674040" lon="-7.2184900">
        <ele>1137.6</ele>
        <time>2014-10-02T13:42:33Z</time>
      </trkpt>
      <trkpt lat="42.6673760" lon="-7.2184440">
        <ele>1137.8</ele>
        <time>2014-10-02T13:42:35Z</time>
      </trkpt>
      <trkpt lat="42.6673460" lon="-7.2184110">
        <ele>1137.9</ele>
        <time>2014-10-02T13:42:37Z</time>
      </trkpt>
      <trkpt lat="42.6673170" lon="-7.2183740">
        <ele>1138.1</ele>
        <time>2014-10-02T13:42:39Z</time>
      </trkpt>
      <trkpt lat="42.6672850" lon="-7.2183260">
        <ele>1138.3</ele>
        <time>2014-10-02T13:42:41Z</time>
      </trkpt>
      <trkpt lat="42.6672610" lon="-7.2182810">
        <ele>1138.4</ele>
        <time>2014-10-02T13:42:43Z</time>
      </trkpt>
      <trkpt lat="42.6672480" lon="-7.2182380">
        <ele>1138.5</ele>
        <time>2014-10-02T13:42:45Z</time>
      </trkpt>
      <trkpt lat="42.6672280" lon="-7.2182080">
        <ele>1138.6</ele>
        <time>2014-10-02T13:42:47Z</time>
      </trkpt>
      <trkpt lat="42.6672070" lon="-7.2181680">
        <ele>1138.6</ele>
        <time>2014-10-02T13:42:49Z</time>
      </trkpt>
      <trkpt lat="42.6671960" lon="-7.2181300">
        <ele>1138.6</ele>
        <time>2014-10-02T13:42:51Z</time>
      </trkpt>
      <trkpt lat="42.6671890" lon="-7.2180850">
        <ele>1138.6</ele>
        <time>2014-10-02T13:42:55Z</time>
      </trkpt>
      <trkpt lat="42.6671890" lon="-7.2180420">
        <ele>1138.5</ele>
        <time>2014-10-02T13:42:58Z</time>
      </trkpt>
      <trkpt lat="42.6671860" lon="-7.2179980">
        <ele>1138.4</ele>
        <time>2014-10-02T13:43:01Z</time>
      </trkpt>
      <trkpt lat="42.6671940" lon="-7.2179600">
        <ele>1138.3</ele>
        <time>2014-10-02T13:43:02Z</time>
      </trkpt>
      <trkpt lat="42.6672150" lon="-7.2179110">
        <ele>1138.2</ele>
        <time>2014-10-02T13:43:04Z</time>
      </trkpt>
      <trkpt lat="42.6672180" lon="-7.2178420">
        <ele>1138.0</ele>
        <time>2014-10-02T13:43:06Z</time>
      </trkpt>
      <trkpt lat="42.6672130" lon="-7.2178000">
        <ele>1137.9</ele>
        <time>2014-10-02T13:43:07Z</time>
      </trkpt>
      <trkpt lat="42.6672010" lon="-7.2177510">
        <ele>1137.8</ele>
        <time>2014-10-02T13:43:08Z</time>
      </trkpt>
      <trkpt lat="42.6671870" lon="-7.2176900">
        <ele>1137.6</ele>
        <time>2014-10-02T13:43:09Z</time>
      </trkpt>
      <trkpt lat="42.6671740" lon="-7.2176120">
        <ele>1137.4</ele>
        <time>2014-10-02T13:43:10Z</time>
      </trkpt>
      <trkpt lat="42.6671620" lon="-7.2175160">
        <ele>1137.1</ele>
        <time>2014-10-02T13:43:11Z</time>
      </trkpt>
      <trkpt lat="42.6671500" lon="-7.2174150">
        <ele>1136.8</ele>
        <time>2014-10-02T13:43:12Z</time>
      </trkpt>
      <trkpt lat="42.6671400" lon="-7.2173170">
        <ele>1136.4</ele>
        <time>2014-10-02T13:43:13Z</time>
      </trkpt>
      <trkpt lat="42.6671220" lon="-7.2172180">
        <ele>1136.0</ele>
        <time>2014-10-02T13:43:14Z</time>
      </trkpt>
      <trkpt lat="42.6671020" lon="-7.2171170">
        <ele>1135.6</ele>
        <time>2014-10-02T13:43:15Z</time>
      </trkpt>
      <trkpt lat="42.6670780" lon="-7.2170140">
        <ele>1135.2</ele>
        <time>2014-10-02T13:43:16Z</time>
      </trkpt>
      <trkpt lat="42.6670490" lon="-7.2169120">
        <ele>1134.9</ele>
        <time>2014-10-02T13:43:17Z</time>
      </trkpt>
      <trkpt lat="42.6670020" lon="-7.2168280">
        <ele>1134.5</ele>
        <time>2014-10-02T13:43:18Z</time>
      </trkpt>
      <trkpt lat="42.6669550" lon="-7.2167440">
        <ele>1134.2</ele>
        <time>2014-10-02T13:43:19Z</time>
      </trkpt>
      <trkpt lat="42.6669000" lon="-7.2166770">
        <ele>1133.9</ele>
        <time>2014-10-02T13:43:20Z</time>
      </trkpt>
      <trkpt lat="42.6668400" lon="-7.2165980">
        <ele>1133.5</ele>
        <time>2014-10-02T13:43:21Z</time>
      </trkpt>
      <trkpt lat="42.6667870" lon="-7.2165210">
        <ele>1133.1</ele>
        <time>2014-10-02T13:43:22Z</time>
      </trkpt>
      <trkpt lat="42.6667290" lon="-7.2164310">
        <ele>1132.8</ele>
        <time>2014-10-02T13:43:23Z</time>
      </trkpt>
      <trkpt lat="42.6666880" lon="-7.2163520">
        <ele>1132.5</ele>
        <time>2014-10-02T13:43:24Z</time>
      </trkpt>
      <trkpt lat="42.6666480" lon="-7.2162650">
        <ele>1132.4</ele>
        <time>2014-10-02T13:43:25Z</time>
      </trkpt>
      <trkpt lat="42.6666030" lon="-7.2161710">
        <ele>1132.2</ele>
        <time>2014-10-02T13:43:26Z</time>
      </trkpt>
      <trkpt lat="42.6665540" lon="-7.2160740">
        <ele>1132.0</ele>
        <time>2014-10-02T13:43:27Z</time>
      </trkpt>
      <trkpt lat="42.6665040" lon="-7.2159700">
        <ele>1131.6</ele>
        <time>2014-10-02T13:43:28Z</time>
      </trkpt>
      <trkpt lat="42.6664530" lon="-7.2158660">
        <ele>1131.1</ele>
        <time>2014-10-02T13:43:29Z</time>
      </trkpt>
      <trkpt lat="42.6663960" lon="-7.2157560">
        <ele>1130.4</ele>
        <time>2014-10-02T13:43:30Z</time>
      </trkpt>
      <trkpt lat="42.6663340" lon="-7.2156470">
        <ele>1129.7</ele>
        <time>2014-10-02T13:43:31Z</time>
      </trkpt>
      <trkpt lat="42.6662690" lon="-7.2155410">
        <ele>1129.0</ele>
        <time>2014-10-02T13:43:32Z</time>
      </trkpt>
      <trkpt lat="42.6662070" lon="-7.2154420">
        <ele>1128.4</ele>
        <time>2014-10-02T13:43:33Z</time>
      </trkpt>
      <trkpt lat="42.6661410" lon="-7.2153480">
        <ele>1127.9</ele>
        <time>2014-10-02T13:43:34Z</time>
      </trkpt>
      <trkpt lat="42.6660670" lon="-7.2152350">
        <ele>1127.2</ele>
        <time>2014-10-02T13:43:35Z</time>
      </trkpt>
      <trkpt lat="42.6659910" lon="-7.2151120">
        <ele>1125.9</ele>
        <time>2014-10-02T13:43:36Z</time>
      </trkpt>
      <trkpt lat="42.6659190" lon="-7.2149880">
        <ele>1123.4</ele>
        <time>2014-10-02T13:43:37Z</time>
      </trkpt>
      <trkpt lat="42.6658510" lon="-7.2148550">
        <ele>1122.1</ele>
        <time>2014-10-02T13:43:38Z</time>
      </trkpt>
      <trkpt lat="42.6657810" lon="-7.2147170">
        <ele>1120.9</ele>
        <time>2014-10-02T13:43:39Z</time>
      </trkpt>
      <trkpt lat="42.6657100" lon="-7.2145870">
        <ele>1119.9</ele>
        <time>2014-10-02T13:43:40Z</time>
      </trkpt>
      <trkpt lat="42.6656240" lon="-7.2144540">
        <ele>1118.9</ele>
        <time>2014-10-02T13:43:41Z</time>
      </trkpt>
      <trkpt lat="42.6655200" lon="-7.2143610">
        <ele>1117.9</ele>
        <time>2014-10-02T13:43:42Z</time>
      </trkpt>
      <trkpt lat="42.6654180" lon="-7.2142730">
        <ele>1116.5</ele>
        <time>2014-10-02T13:43:43Z</time>
      </trkpt>
      <trkpt lat="42.6653240" lon="-7.2141930">
        <ele>1115.1</ele>
        <time>2014-10-02T13:43:44Z</time>
      </trkpt>
      <trkpt lat="42.6652340" lon="-7.2141020">
        <ele>1113.7</ele>
        <time>2014-10-02T13:43:45Z</time>
      </trkpt>
      <trkpt lat="42.6651500" lon="-7.2140080">
        <ele>1112.4</ele>
        <time>2014-10-02T13:43:46Z</time>
      </trkpt>
      <trkpt lat="42.6650590" lon="-7.2138980">
        <ele>1110.7</ele>
        <time>2014-10-02T13:43:47Z</time>
      </trkpt>
      <trkpt lat="42.6649640" lon="-7.2137830">
        <ele>1109.3</ele>
        <time>2014-10-02T13:43:48Z</time>
      </trkpt>
      <trkpt lat="42.6648780" lon="-7.2136760">
        <ele>1108.6</ele>
        <time>2014-10-02T13:43:49Z</time>
      </trkpt>
      <trkpt lat="42.6647880" lon="-7.2135580">
        <ele>1107.7</ele>
        <time>2014-10-02T13:43:50Z</time>
      </trkpt>
      <trkpt lat="42.6646910" lon="-7.2134250">
        <ele>1106.6</ele>
        <time>2014-10-02T13:43:51Z</time>
      </trkpt>
      <trkpt lat="42.6646010" lon="-7.2132910">
        <ele>1105.5</ele>
        <time>2014-10-02T13:43:52Z</time>
      </trkpt>
      <trkpt lat="42.6645090" lon="-7.2131420">
        <ele>1104.3</ele>
        <time>2014-10-02T13:43:53Z</time>
      </trkpt>
      <trkpt lat="42.6644200" lon="-7.2129880">
        <ele>1102.7</ele>
        <time>2014-10-02T13:43:54Z</time>
      </trkpt>
      <trkpt lat="42.6643330" lon="-7.2128260">
        <ele>1101.3</ele>
        <time>2014-10-02T13:43:55Z</time>
      </trkpt>
      <trkpt lat="42.6642510" lon="-7.2126600">
        <ele>1099.8</ele>
        <time>2014-10-02T13:43:56Z</time>
      </trkpt>
      <trkpt lat="42.6641730" lon="-7.2124860">
        <ele>1098.3</ele>
        <time>2014-10-02T13:43:57Z</time>
      </trkpt>
      <trkpt lat="42.6640960" lon="-7.2123060">
        <ele>1097.0</ele>
        <time>2014-10-02T13:43:58Z</time>
      </trkpt>
      <trkpt lat="42.6640320" lon="-7.2121200">
        <ele>1095.7</ele>
        <time>2014-10-02T13:43:59Z</time>
      </trkpt>
      <trkpt lat="42.6639820" lon="-7.2119320">
        <ele>1094.4</ele>
        <time>2014-10-02T13:44:00Z</time>
      </trkpt>
      <trkpt lat="42.6639410" lon="-7.2117340">
        <ele>1093.0</ele>
        <time>2014-10-02T13:44:01Z</time>
      </trkpt>
      <trkpt lat="42.6639060" lon="-7.2115230">
        <ele>1091.5</ele>
        <time>2014-10-02T13:44:02Z</time>
      </trkpt>
      <trkpt lat="42.6638770" lon="-7.2113070">
        <ele>1090.4</ele>
        <time>2014-10-02T13:44:03Z</time>
      </trkpt>
      <trkpt lat="42.6638550" lon="-7.2110870">
        <ele>1090.1</ele>
        <time>2014-10-02T13:44:04Z</time>
      </trkpt>
      <trkpt lat="42.6638400" lon="-7.2108690">
        <ele>1089.8</ele>
        <time>2014-10-02T13:44:05Z</time>
      </trkpt>
      <trkpt lat="42.6638300" lon="-7.2106390">
        <ele>1087.6</ele>
        <time>2014-10-02T13:44:06Z</time>
      </trkpt>
      <trkpt lat="42.6638230" lon="-7.2104200">
        <ele>1085.5</ele>
        <time>2014-10-02T13:44:07Z</time>
      </trkpt>
      <trkpt lat="42.6638180" lon="-7.2102150">
        <ele>1083.7</ele>
        <time>2014-10-02T13:44:08Z</time>
      </trkpt>
      <trkpt lat="42.6638180" lon="-7.2100010">
        <ele>1081.6</ele>
        <time>2014-10-02T13:44:09Z</time>
      </trkpt>
      <trkpt lat="42.6638240" lon="-7.2097800">
        <ele>1079.1</ele>
        <time>2014-10-02T13:44:10Z</time>
      </trkpt>
      <trkpt lat="42.6638390" lon="-7.2095710">
        <ele>1076.5</ele>
        <time>2014-10-02T13:44:11Z</time>
      </trkpt>
      <trkpt lat="42.6638680" lon="-7.2093740">
        <ele>1073.9</ele>
        <time>2014-10-02T13:44:12Z</time>
      </trkpt>
      <trkpt lat="42.6639010" lon="-7.2091720">
        <ele>1071.3</ele>
        <time>2014-10-02T13:44:13Z</time>
      </trkpt>
      <trkpt lat="42.6639430" lon="-7.2089670">
        <ele>1068.8</ele>
        <time>2014-10-02T13:44:14Z</time>
      </trkpt>
      <trkpt lat="42.6639850" lon="-7.2087670">
        <ele>1066.7</ele>
        <time>2014-10-02T13:44:15Z</time>
      </trkpt>
      <trkpt lat="42.6640240" lon="-7.2085780">
        <ele>1064.7</ele>
        <time>2014-10-02T13:44:16Z</time>
      </trkpt>
      <trkpt lat="42.6640600" lon="-7.2084050">
        <ele>1062.8</ele>
        <time>2014-10-02T13:44:17Z</time>
      </trkpt>
      <trkpt lat="42.6640870" lon="-7.2082540">
        <ele>1061.2</ele>
        <time>2014-10-02T13:44:18Z</time>
      </trkpt>
      <trkpt lat="42.6641070" lon="-7.2081000">
        <ele>1059.7</ele>
        <time>2014-10-02T13:44:19Z</time>
      </trkpt>
      <trkpt lat="42.6641330" lon="-7.2079660">
        <ele>1058.2</ele>
        <time>2014-10-02T13:44:20Z</time>
      </trkpt>
      <trkpt lat="42.6642030" lon="-7.2078650">
        <ele>1056.5</ele>
        <time>2014-10-02T13:44:21Z</time>
      </trkpt>
      <trkpt lat="42.6643010" lon="-7.2077940">
        <ele>1054.6</ele>
        <time>2014-10-02T13:44:22Z</time>
      </trkpt>
      <trkpt lat="42.6643910" lon="-7.2077460">
        <ele>1052.8</ele>
        <time>2014-10-02T13:44:23Z</time>
      </trkpt>
      <trkpt lat="42.6644610" lon="-7.2076980">
        <ele>1051.3</ele>
        <time>2014-10-02T13:44:24Z</time>
      </trkpt>
      <trkpt lat="42.6644950" lon="-7.2076130">
        <ele>1049.7</ele>
        <time>2014-10-02T13:44:25Z</time>
      </trkpt>
      <trkpt lat="42.6644870" lon="-7.2075560">
        <ele>1048.8</ele>
        <time>2014-10-02T13:44:26Z</time>
      </trkpt>
      <trkpt lat="42.6644600" lon="-7.2075060">
        <ele>1047.9</ele>
        <time>2014-10-02T13:44:27Z</time>
      </trkpt>
      <trkpt lat="42.6644210" lon="-7.2074320">
        <ele>1046.6</ele>
        <time>2014-10-02T13:44:28Z</time>
      </trkpt>
      <trkpt lat="42.6643670" lon="-7.2073280">
        <ele>1045.1</ele>
        <time>2014-10-02T13:44:29Z</time>
      </trkpt>
      <trkpt lat="42.6643160" lon="-7.2072120">
        <ele>1043.5</ele>
        <time>2014-10-02T13:44:30Z</time>
      </trkpt>
      <trkpt lat="42.6642700" lon="-7.2070940">
        <ele>1041.9</ele>
        <time>2014-10-02T13:44:31Z</time>
      </trkpt>
      <trkpt lat="42.6642320" lon="-7.2069710">
        <ele>1040.5</ele>
        <time>2014-10-02T13:44:32Z</time>
      </trkpt>
      <trkpt lat="42.6641990" lon="-7.2068380">
        <ele>1039.1</ele>
        <time>2014-10-02T13:44:33Z</time>
      </trkpt>
      <trkpt lat="42.6642050" lon="-7.2066910">
        <ele>1037.8</ele>
        <time>2014-10-02T13:44:34Z</time>
      </trkpt>
      <trkpt lat="42.6642400" lon="-7.2065460">
        <ele>1036.8</ele>
        <time>2014-10-02T13:44:35Z</time>
      </trkpt>
      <trkpt lat="42.6643150" lon="-7.2064230">
        <ele>1036.1</ele>
        <time>2014-10-02T13:44:36Z</time>
      </trkpt>
      <trkpt lat="42.6644000" lon="-7.2062990">
        <ele>1034.6</ele>
        <time>2014-10-02T13:44:37Z</time>
      </trkpt>
      <trkpt lat="42.6645000" lon="-7.2062100">
        <ele>1033.4</ele>
        <time>2014-10-02T13:44:38Z</time>
      </trkpt>
      <trkpt lat="42.6645690" lon="-7.2060980">
        <ele>1032.4</ele>
        <time>2014-10-02T13:44:39Z</time>
      </trkpt>
      <trkpt lat="42.6646000" lon="-7.2059620">
        <ele>1031.4</ele>
        <time>2014-10-02T13:44:40Z</time>
      </trkpt>
      <trkpt lat="42.6645870" lon="-7.2058460">
        <ele>1030.5</ele>
        <time>2014-10-02T13:44:41Z</time>
      </trkpt>
      <trkpt lat="42.6645380" lon="-7.2057510">
        <ele>1029.6</ele>
        <time>2014-10-02T13:44:42Z</time>
      </trkpt>
      <trkpt lat="42.6644830" lon="-7.2056570">
        <ele>1028.5</ele>
        <time>2014-10-02T13:44:43Z</time>
      </trkpt>
      <trkpt lat="42.6644260" lon="-7.2055600">
        <ele>1027.3</ele>
        <time>2014-10-02T13:44:44Z</time>
      </trkpt>
      <trkpt lat="42.6643680" lon="-7.2054670">
        <ele>1026.3</ele>
        <time>2014-10-02T13:44:45Z</time>
      </trkpt>
      <trkpt lat="42.6643100" lon="-7.2053700">
        <ele>1025.3</ele>
        <time>2014-10-02T13:44:46Z</time>
      </trkpt>
      <trkpt lat="42.6642430" lon="-7.2052630">
        <ele>1024.3</ele>
        <time>2014-10-02T13:44:47Z</time>
      </trkpt>
      <trkpt lat="42.6641720" lon="-7.2051530">
        <ele>1023.4</ele>
        <time>2014-10-02T13:44:48Z</time>
      </trkpt>
      <trkpt lat="42.6641040" lon="-7.2050400">
        <ele>1022.2</ele>
        <time>2014-10-02T13:44:49Z</time>
      </trkpt>
      <trkpt lat="42.6640340" lon="-7.2049110">
        <ele>1020.8</ele>
        <time>2014-10-02T13:44:50Z</time>
      </trkpt>
      <trkpt lat="42.6639670" lon="-7.2047770">
        <ele>1019.5</ele>
        <time>2014-10-02T13:44:51Z</time>
      </trkpt>
      <trkpt lat="42.6639010" lon="-7.2046150">
        <ele>1017.8</ele>
        <time>2014-10-02T13:44:52Z</time>
      </trkpt>
      <trkpt lat="42.6638360" lon="-7.2044440">
        <ele>1015.9</ele>
        <time>2014-10-02T13:44:53Z</time>
      </trkpt>
      <trkpt lat="42.6637680" lon="-7.2042610">
        <ele>1013.9</ele>
        <time>2014-10-02T13:44:54Z</time>
      </trkpt>
      <trkpt lat="42.6637000" lon="-7.2040820">
        <ele>1011.7</ele>
        <time>2014-10-02T13:44:55Z</time>
      </trkpt>
      <trkpt lat="42.6636230" lon="-7.2039060">
        <ele>1008.9</ele>
        <time>2014-10-02T13:44:56Z</time>
      </trkpt>
      <trkpt lat="42.6635420" lon="-7.2037350">
        <ele>1006.3</ele>
        <time>2014-10-02T13:44:57Z</time>
      </trkpt>
      <trkpt lat="42.6634590" lon="-7.2035640">
        <ele>1004.3</ele>
        <time>2014-10-02T13:44:58Z</time>
      </trkpt>
      <trkpt lat="42.6633700" lon="-7.2033850">
        <ele>1002.3</ele>
        <time>2014-10-02T13:44:59Z</time>
      </trkpt>
      <trkpt lat="42.6632790" lon="-7.2031960">
        <ele>1000.3</ele>
        <time>2014-10-02T13:45:00Z</time>
      </trkpt>
      <trkpt lat="42.6631940" lon="-7.2030100">
        <ele>1006.3</ele>
        <time>2014-10-02T13:45:01Z</time>
      </trkpt>
      <trkpt lat="42.6631150" lon="-7.2028270">
        <ele>1010.7</ele>
        <time>2014-10-02T13:45:02Z</time>
      </trkpt>
      <trkpt lat="42.6630360" lon="-7.2026500">
        <ele>1010.4</ele>
        <time>2014-10-02T13:45:03Z</time>
      </trkpt>
      <trkpt lat="42.6629610" lon="-7.2024730">
        <ele>1008.9</ele>
        <time>2014-10-02T13:45:04Z</time>
      </trkpt>
      <trkpt lat="42.6628930" lon="-7.2023050">
        <ele>1007.4</ele>
        <time>2014-10-02T13:45:05Z</time>
      </trkpt>
      <trkpt lat="42.6628350" lon="-7.2021430">
        <ele>1005.9</ele>
        <time>2014-10-02T13:45:06Z</time>
      </trkpt>
      <trkpt lat="42.6628100" lon="-7.2019770">
        <ele>1004.4</ele>
        <time>2014-10-02T13:45:07Z</time>
      </trkpt>
      <trkpt lat="42.6627920" lon="-7.2018300">
        <ele>1002.9</ele>
        <time>2014-10-02T13:45:08Z</time>
      </trkpt>
      <trkpt lat="42.6628360" lon="-7.2016790">
        <ele>1001.0</ele>
        <time>2014-10-02T13:45:09Z</time>
      </trkpt>
      <trkpt lat="42.6628930" lon="-7.2015340">
        <ele>999.1</ele>
        <time>2014-10-02T13:45:10Z</time>
      </trkpt>
      <trkpt lat="42.6629990" lon="-7.2014030">
        <ele>997.1</ele>
        <time>2014-10-02T13:45:11Z</time>
      </trkpt>
      <trkpt lat="42.6631250" lon="-7.2013150">
        <ele>995.2</ele>
        <time>2014-10-02T13:45:12Z</time>
      </trkpt>
      <trkpt lat="42.6632490" lon="-7.2012750">
        <ele>993.4</ele>
        <time>2014-10-02T13:45:13Z</time>
      </trkpt>
      <trkpt lat="42.6633780" lon="-7.2012380">
        <ele>991.5</ele>
        <time>2014-10-02T13:45:14Z</time>
      </trkpt>
      <trkpt lat="42.6635120" lon="-7.2012000">
        <ele>990.0</ele>
        <time>2014-10-02T13:45:15Z</time>
      </trkpt>
      <trkpt lat="42.6636510" lon="-7.2011610">
        <ele>988.7</ele>
        <time>2014-10-02T13:45:16Z</time>
      </trkpt>
      <trkpt lat="42.6637820" lon="-7.2011290">
        <ele>987.9</ele>
        <time>2014-10-02T13:45:17Z</time>
      </trkpt>
      <trkpt lat="42.6639050" lon="-7.2011010">
        <ele>987.4</ele>
        <time>2014-10-02T13:45:18Z</time>
      </trkpt>
      <trkpt lat="42.6640260" lon="-7.2010740">
        <ele>987.1</ele>
        <time>2014-10-02T13:45:19Z</time>
      </trkpt>
      <trkpt lat="42.6641440" lon="-7.2010430">
        <ele>986.9</ele>
        <time>2014-10-02T13:45:20Z</time>
      </trkpt>
      <trkpt lat="42.6642570" lon="-7.2010160">
        <ele>986.7</ele>
        <time>2014-10-02T13:45:21Z</time>
      </trkpt>
      <trkpt lat="42.6643610" lon="-7.2009940">
        <ele>986.6</ele>
        <time>2014-10-02T13:45:22Z</time>
      </trkpt>
      <trkpt lat="42.6644640" lon="-7.2009710">
        <ele>986.6</ele>
        <time>2014-10-02T13:45:23Z</time>
      </trkpt>
      <trkpt lat="42.6645590" lon="-7.2009530">
        <ele>986.7</ele>
        <time>2014-10-02T13:45:24Z</time>
      </trkpt>
      <trkpt lat="42.6646430" lon="-7.2009300">
        <ele>987.2</ele>
        <time>2014-10-02T13:45:25Z</time>
      </trkpt>
      <trkpt lat="42.6647210" lon="-7.2009190">
        <ele>987.6</ele>
        <time>2014-10-02T13:45:26Z</time>
      </trkpt>
      <trkpt lat="42.6647870" lon="-7.2009110">
        <ele>988.0</ele>
        <time>2014-10-02T13:45:27Z</time>
      </trkpt>
      <trkpt lat="42.6648560" lon="-7.2009000">
        <ele>988.4</ele>
        <time>2014-10-02T13:45:28Z</time>
      </trkpt>
      <trkpt lat="42.6649200" lon="-7.2008950">
        <ele>988.6</ele>
        <time>2014-10-02T13:45:29Z</time>
      </trkpt>
      <trkpt lat="42.6649730" lon="-7.2008920">
        <ele>988.8</ele>
        <time>2014-10-02T13:45:30Z</time>
      </trkpt>
      <trkpt lat="42.6650200" lon="-7.2008790">
        <ele>989.1</ele>
        <time>2014-10-02T13:45:31Z</time>
      </trkpt>
      <trkpt lat="42.6650550" lon="-7.2008520">
        <ele>989.4</ele>
        <time>2014-10-02T13:45:32Z</time>
      </trkpt>
      <trkpt lat="42.6650780" lon="-7.2008100">
        <ele>989.7</ele>
        <time>2014-10-02T13:45:33Z</time>
      </trkpt>
      <trkpt lat="42.6650820" lon="-7.2007710">
        <ele>990.0</ele>
        <time>2014-10-02T13:45:34Z</time>
      </trkpt>
      <trkpt lat="42.6650670" lon="-7.2007260">
        <ele>990.3</ele>
        <time>2014-10-02T13:45:35Z</time>
      </trkpt>
      <trkpt lat="42.6650380" lon="-7.2006770">
        <ele>990.6</ele>
        <time>2014-10-02T13:45:36Z</time>
      </trkpt>
      <trkpt lat="42.6649940" lon="-7.2006260">
        <ele>990.8</ele>
        <time>2014-10-02T13:45:37Z</time>
      </trkpt>
      <trkpt lat="42.6649450" lon="-7.2005670">
        <ele>990.9</ele>
        <time>2014-10-02T13:45:38Z</time>
      </trkpt>
      <trkpt lat="42.6648950" lon="-7.2005080">
        <ele>990.9</ele>
        <time>2014-10-02T13:45:39Z</time>
      </trkpt>
      <trkpt lat="42.6648560" lon="-7.2004650">
        <ele>990.8</ele>
        <time>2014-10-02T13:45:40Z</time>
      </trkpt>
      <trkpt lat="42.6648060" lon="-7.2004180">
        <ele>990.7</ele>
        <time>2014-10-02T13:45:41Z</time>
      </trkpt>
      <trkpt lat="42.6647590" lon="-7.2003740">
        <ele>990.5</ele>
        <time>2014-10-02T13:45:42Z</time>
      </trkpt>
      <trkpt lat="42.6647030" lon="-7.2003320">
        <ele>990.3</ele>
        <time>2014-10-02T13:45:43Z</time>
      </trkpt>
      <trkpt lat="42.6646410" lon="-7.2002900">
        <ele>990.1</ele>
        <time>2014-10-02T13:45:44Z</time>
      </trkpt>
      <trkpt lat="42.6645740" lon="-7.2002460">
        <ele>989.9</ele>
        <time>2014-10-02T13:45:45Z</time>
      </trkpt>
      <trkpt lat="42.6645050" lon="-7.2001990">
        <ele>989.6</ele>
        <time>2014-10-02T13:45:46Z</time>
      </trkpt>
      <trkpt lat="42.6644300" lon="-7.2001490">
        <ele>989.2</ele>
        <time>2014-10-02T13:45:47Z</time>
      </trkpt>
      <trkpt lat="42.6643480" lon="-7.2000950">
        <ele>988.8</ele>
        <time>2014-10-02T13:45:48Z</time>
      </trkpt>
      <trkpt lat="42.6642650" lon="-7.2000350">
        <ele>988.4</ele>
        <time>2014-10-02T13:45:49Z</time>
      </trkpt>
      <trkpt lat="42.6641880" lon="-7.1999730">
        <ele>988.0</ele>
        <time>2014-10-02T13:45:50Z</time>
      </trkpt>
      <trkpt lat="42.6641290" lon="-7.1998980">
        <ele>987.7</ele>
        <time>2014-10-02T13:45:51Z</time>
      </trkpt>
      <trkpt lat="42.6640770" lon="-7.1998200">
        <ele>987.5</ele>
        <time>2014-10-02T13:45:52Z</time>
      </trkpt>
      <trkpt lat="42.6640490" lon="-7.1997280">
        <ele>987.4</ele>
        <time>2014-10-02T13:45:53Z</time>
      </trkpt>
      <trkpt lat="42.6640410" lon="-7.1996390">
        <ele>987.4</ele>
        <time>2014-10-02T13:45:54Z</time>
      </trkpt>
      <trkpt lat="42.6640390" lon="-7.1995470">
        <ele>987.2</ele>
        <time>2014-10-02T13:45:55Z</time>
      </trkpt>
      <trkpt lat="42.6640510" lon="-7.1994500">
        <ele>987.0</ele>
        <time>2014-10-02T13:45:56Z</time>
      </trkpt>
      <trkpt lat="42.6640620" lon="-7.1993500">
        <ele>986.8</ele>
        <time>2014-10-02T13:45:57Z</time>
      </trkpt>
      <trkpt lat="42.6640540" lon="-7.1992660">
        <ele>986.7</ele>
        <time>2014-10-02T13:45:58Z</time>
      </trkpt>
      <trkpt lat="42.6640170" lon="-7.1992030">
        <ele>986.5</ele>
        <time>2014-10-02T13:45:59Z</time>
      </trkpt>
      <trkpt lat="42.6639770" lon="-7.1991460">
        <ele>986.3</ele>
        <time>2014-10-02T13:46:00Z</time>
      </trkpt>
      <trkpt lat="42.6639180" lon="-7.1991110">
        <ele>986.1</ele>
        <time>2014-10-02T13:46:01Z</time>
      </trkpt>
      <trkpt lat="42.6638650" lon="-7.1990880">
        <ele>985.8</ele>
        <time>2014-10-02T13:46:02Z</time>
      </trkpt>
      <trkpt lat="42.6638030" lon="-7.1990670">
        <ele>985.5</ele>
        <time>2014-10-02T13:46:03Z</time>
      </trkpt>
      <trkpt lat="42.6637300" lon="-7.1990450">
        <ele>985.1</ele>
        <time>2014-10-02T13:46:04Z</time>
      </trkpt>
      <trkpt lat="42.6636630" lon="-7.1990270">
        <ele>984.7</ele>
        <time>2014-10-02T13:46:05Z</time>
      </trkpt>
      <trkpt lat="42.6635910" lon="-7.1990070">
        <ele>984.3</ele>
        <time>2014-10-02T13:46:06Z</time>
      </trkpt>
      <trkpt lat="42.6635130" lon="-7.1989860">
        <ele>984.0</ele>
        <time>2014-10-02T13:46:07Z</time>
      </trkpt>
      <trkpt lat="42.6634240" lon="-7.1989580">
        <ele>983.5</ele>
        <time>2014-10-02T13:46:08Z</time>
      </trkpt>
      <trkpt lat="42.6633400" lon="-7.1989220">
        <ele>983.0</ele>
        <time>2014-10-02T13:46:09Z</time>
      </trkpt>
      <trkpt lat="42.6632540" lon="-7.1988830">
        <ele>982.3</ele>
        <time>2014-10-02T13:46:10Z</time>
      </trkpt>
      <trkpt lat="42.6631630" lon="-7.1988370">
        <ele>981.5</ele>
        <time>2014-10-02T13:46:11Z</time>
      </trkpt>
      <trkpt lat="42.6630680" lon="-7.1987870">
        <ele>980.7</ele>
        <time>2014-10-02T13:46:12Z</time>
      </trkpt>
      <trkpt lat="42.6629650" lon="-7.1987350">
        <ele>979.7</ele>
        <time>2014-10-02T13:46:13Z</time>
      </trkpt>
      <trkpt lat="42.6628550" lon="-7.1986740">
        <ele>978.6</ele>
        <time>2014-10-02T13:46:14Z</time>
      </trkpt>
      <trkpt lat="42.6627520" lon="-7.1986180">
        <ele>977.7</ele>
        <time>2014-10-02T13:46:15Z</time>
      </trkpt>
      <trkpt lat="42.6626520" lon="-7.1985520">
        <ele>977.0</ele>
        <time>2014-10-02T13:46:16Z</time>
      </trkpt>
      <trkpt lat="42.6625550" lon="-7.1984750">
        <ele>976.6</ele>
        <time>2014-10-02T13:46:17Z</time>
      </trkpt>
      <trkpt lat="42.6624670" lon="-7.1983640">
        <ele>976.2</ele>
        <time>2014-10-02T13:46:18Z</time>
      </trkpt>
      <trkpt lat="42.6623840" lon="-7.1982560">
        <ele>975.6</ele>
        <time>2014-10-02T13:46:19Z</time>
      </trkpt>
      <trkpt lat="42.6623130" lon="-7.1981500">
        <ele>975.0</ele>
        <time>2014-10-02T13:46:20Z</time>
      </trkpt>
      <trkpt lat="42.6622490" lon="-7.1980440">
        <ele>974.7</ele>
        <time>2014-10-02T13:46:21Z</time>
      </trkpt>
      <trkpt lat="42.6621890" lon="-7.1979380">
        <ele>974.3</ele>
        <time>2014-10-02T13:46:22Z</time>
      </trkpt>
      <trkpt lat="42.6621320" lon="-7.1978270">
        <ele>973.8</ele>
        <time>2014-10-02T13:46:23Z</time>
      </trkpt>
      <trkpt lat="42.6620800" lon="-7.1977140">
        <ele>973.5</ele>
        <time>2014-10-02T13:46:24Z</time>
      </trkpt>
      <trkpt lat="42.6620340" lon="-7.1976050">
        <ele>973.3</ele>
        <time>2014-10-02T13:46:25Z</time>
      </trkpt>
      <trkpt lat="42.6619960" lon="-7.1975010">
        <ele>973.2</ele>
        <time>2014-10-02T13:46:26Z</time>
      </trkpt>
      <trkpt lat="42.6619700" lon="-7.1973990">
        <ele>973.1</ele>
        <time>2014-10-02T13:46:27Z</time>
      </trkpt>
      <trkpt lat="42.6619430" lon="-7.1972950">
        <ele>973.0</ele>
        <time>2014-10-02T13:46:28Z</time>
      </trkpt>
      <trkpt lat="42.6619180" lon="-7.1971910">
        <ele>973.0</ele>
        <time>2014-10-02T13:46:29Z</time>
      </trkpt>
      <trkpt lat="42.6618920" lon="-7.1970870">
        <ele>972.9</ele>
        <time>2014-10-02T13:46:30Z</time>
      </trkpt>
      <trkpt lat="42.6618620" lon="-7.1969840">
        <ele>972.7</ele>
        <time>2014-10-02T13:46:31Z</time>
      </trkpt>
      <trkpt lat="42.6618280" lon="-7.1968710">
        <ele>972.4</ele>
        <time>2014-10-02T13:46:32Z</time>
      </trkpt>
      <trkpt lat="42.6617920" lon="-7.1967580">
        <ele>971.9</ele>
        <time>2014-10-02T13:46:33Z</time>
      </trkpt>
      <trkpt lat="42.6617600" lon="-7.1966490">
        <ele>971.2</ele>
        <time>2014-10-02T13:46:34Z</time>
      </trkpt>
      <trkpt lat="42.6617250" lon="-7.1965360">
        <ele>970.7</ele>
        <time>2014-10-02T13:46:35Z</time>
      </trkpt>
      <trkpt lat="42.6616840" lon="-7.1964140">
        <ele>970.1</ele>
        <time>2014-10-02T13:46:36Z</time>
      </trkpt>
      <trkpt lat="42.6616480" lon="-7.1962960">
        <ele>969.3</ele>
        <time>2014-10-02T13:46:37Z</time>
      </trkpt>
      <trkpt lat="42.6616080" lon="-7.1961640">
        <ele>968.1</ele>
        <time>2014-10-02T13:46:38Z</time>
      </trkpt>
      <trkpt lat="42.6615730" lon="-7.1960320">
        <ele>966.5</ele>
        <time>2014-10-02T13:46:39Z</time>
      </trkpt>
      <trkpt lat="42.6615430" lon="-7.1958820">
        <ele>964.9</ele>
        <time>2014-10-02T13:46:40Z</time>
      </trkpt>
      <trkpt lat="42.6615130" lon="-7.1957200">
        <ele>963.3</ele>
        <time>2014-10-02T13:46:41Z</time>
      </trkpt>
      <trkpt lat="42.6614900" lon="-7.1955520">
        <ele>961.8</ele>
        <time>2014-10-02T13:46:42Z</time>
      </trkpt>
      <trkpt lat="42.6614720" lon="-7.1953800">
        <ele>960.5</ele>
        <time>2014-10-02T13:46:43Z</time>
      </trkpt>
      <trkpt lat="42.6614850" lon="-7.1951910">
        <ele>958.9</ele>
        <time>2014-10-02T13:46:44Z</time>
      </trkpt>
      <trkpt lat="42.6615040" lon="-7.1950100">
        <ele>957.4</ele>
        <time>2014-10-02T13:46:45Z</time>
      </trkpt>
      <trkpt lat="42.6615530" lon="-7.1948300">
        <ele>955.9</ele>
        <time>2014-10-02T13:46:46Z</time>
      </trkpt>
      <trkpt lat="42.6616050" lon="-7.1946470">
        <ele>954.5</ele>
        <time>2014-10-02T13:46:47Z</time>
      </trkpt>
      <trkpt lat="42.6616640" lon="-7.1944750">
        <ele>953.2</ele>
        <time>2014-10-02T13:46:48Z</time>
      </trkpt>
      <trkpt lat="42.6617230" lon="-7.1943030">
        <ele>951.6</ele>
        <time>2014-10-02T13:46:49Z</time>
      </trkpt>
      <trkpt lat="42.6617550" lon="-7.1941220">
        <ele>950.0</ele>
        <time>2014-10-02T13:46:50Z</time>
      </trkpt>
      <trkpt lat="42.6617780" lon="-7.1939520">
        <ele>948.3</ele>
        <time>2014-10-02T13:46:51Z</time>
      </trkpt>
      <trkpt lat="42.6617880" lon="-7.1937900">
        <ele>946.6</ele>
        <time>2014-10-02T13:46:52Z</time>
      </trkpt>
      <trkpt lat="42.6617300" lon="-7.1936340">
        <ele>944.6</ele>
        <time>2014-10-02T13:46:53Z</time>
      </trkpt>
      <trkpt lat="42.6616630" lon="-7.1934720">
        <ele>942.4</ele>
        <time>2014-10-02T13:46:54Z</time>
      </trkpt>
      <trkpt lat="42.6615970" lon="-7.1933130">
        <ele>940.3</ele>
        <time>2014-10-02T13:46:55Z</time>
      </trkpt>
      <trkpt lat="42.6615280" lon="-7.1931570">
        <ele>938.5</ele>
        <time>2014-10-02T13:46:56Z</time>
      </trkpt>
      <trkpt lat="42.6614500" lon="-7.1930050">
        <ele>937.4</ele>
        <time>2014-10-02T13:46:57Z</time>
      </trkpt>
      <trkpt lat="42.6613890" lon="-7.1928540">
        <ele>936.8</ele>
        <time>2014-10-02T13:46:58Z</time>
      </trkpt>
      <trkpt lat="42.6613750" lon="-7.1927100">
        <ele>936.2</ele>
        <time>2014-10-02T13:46:59Z</time>
      </trkpt>
      <trkpt lat="42.6613680" lon="-7.1925700">
        <ele>935.4</ele>
        <time>2014-10-02T13:47:00Z</time>
      </trkpt>
      <trkpt lat="42.6613960" lon="-7.1924140">
        <ele>934.2</ele>
        <time>2014-10-02T13:47:01Z</time>
      </trkpt>
      <trkpt lat="42.6614370" lon="-7.1922390">
        <ele>932.5</ele>
        <time>2014-10-02T13:47:02Z</time>
      </trkpt>
      <trkpt lat="42.6614860" lon="-7.1920810">
        <ele>931.1</ele>
        <time>2014-10-02T13:47:03Z</time>
      </trkpt>
      <trkpt lat="42.6615300" lon="-7.1919410">
        <ele>930.0</ele>
        <time>2014-10-02T13:47:04Z</time>
      </trkpt>
      <trkpt lat="42.6615670" lon="-7.1918100">
        <ele>929.4</ele>
        <time>2014-10-02T13:47:05Z</time>
      </trkpt>
      <trkpt lat="42.6616000" lon="-7.1916800">
        <ele>928.9</ele>
        <time>2014-10-02T13:47:06Z</time>
      </trkpt>
      <trkpt lat="42.6616000" lon="-7.1915420">
        <ele>927.9</ele>
        <time>2014-10-02T13:47:07Z</time>
      </trkpt>
      <trkpt lat="42.6615060" lon="-7.1914280">
        <ele>926.4</ele>
        <time>2014-10-02T13:47:08Z</time>
      </trkpt>
      <trkpt lat="42.6614010" lon="-7.1913460">
        <ele>925.0</ele>
        <time>2014-10-02T13:47:09Z</time>
      </trkpt>
      <trkpt lat="42.6612920" lon="-7.1912770">
        <ele>923.6</ele>
        <time>2014-10-02T13:47:10Z</time>
      </trkpt>
      <trkpt lat="42.6611830" lon="-7.1912110">
        <ele>922.3</ele>
        <time>2014-10-02T13:47:11Z</time>
      </trkpt>
      <trkpt lat="42.6610780" lon="-7.1911480">
        <ele>921.1</ele>
        <time>2014-10-02T13:47:12Z</time>
      </trkpt>
      <trkpt lat="42.6609660" lon="-7.1910730">
        <ele>919.8</ele>
        <time>2014-10-02T13:47:13Z</time>
      </trkpt>
      <trkpt lat="42.6608540" lon="-7.1909880">
        <ele>918.5</ele>
        <time>2014-10-02T13:47:14Z</time>
      </trkpt>
      <trkpt lat="42.6607430" lon="-7.1908910">
        <ele>917.5</ele>
        <time>2014-10-02T13:47:15Z</time>
      </trkpt>
      <trkpt lat="42.6606520" lon="-7.1907610">
        <ele>916.6</ele>
        <time>2014-10-02T13:47:16Z</time>
      </trkpt>
      <trkpt lat="42.6605720" lon="-7.1906260">
        <ele>916.0</ele>
        <time>2014-10-02T13:47:17Z</time>
      </trkpt>
      <trkpt lat="42.6604950" lon="-7.1904790">
        <ele>913.9</ele>
        <time>2014-10-02T13:47:18Z</time>
      </trkpt>
      <trkpt lat="42.6604200" lon="-7.1903370">
        <ele>912.3</ele>
        <time>2014-10-02T13:47:19Z</time>
      </trkpt>
      <trkpt lat="42.6603560" lon="-7.1901810">
        <ele>910.7</ele>
        <time>2014-10-02T13:47:20Z</time>
      </trkpt>
      <trkpt lat="42.6602920" lon="-7.1900210">
        <ele>909.0</ele>
        <time>2014-10-02T13:47:21Z</time>
      </trkpt>
      <trkpt lat="42.6602090" lon="-7.1898500">
        <ele>907.1</ele>
        <time>2014-10-02T13:47:22Z</time>
      </trkpt>
      <trkpt lat="42.6601340" lon="-7.1896810">
        <ele>905.4</ele>
        <time>2014-10-02T13:47:23Z</time>
      </trkpt>
      <trkpt lat="42.6600580" lon="-7.1895040">
        <ele>903.8</ele>
        <time>2014-10-02T13:47:24Z</time>
      </trkpt>
      <trkpt lat="42.6599890" lon="-7.1893240">
        <ele>902.2</ele>
        <time>2014-10-02T13:47:25Z</time>
      </trkpt>
      <trkpt lat="42.6599140" lon="-7.1891390">
        <ele>900.5</ele>
        <time>2014-10-02T13:47:26Z</time>
      </trkpt>
      <trkpt lat="42.6598410" lon="-7.1889600">
        <ele>898.9</ele>
        <time>2014-10-02T13:47:27Z</time>
      </trkpt>
      <trkpt lat="42.6597650" lon="-7.1887790">
        <ele>897.0</ele>
        <time>2014-10-02T13:47:28Z</time>
      </trkpt>
      <trkpt lat="42.6596970" lon="-7.1886100">
        <ele>894.8</ele>
        <time>2014-10-02T13:47:29Z</time>
      </trkpt>
      <trkpt lat="42.6596330" lon="-7.1884440">
        <ele>893.3</ele>
        <time>2014-10-02T13:47:30Z</time>
      </trkpt>
      <trkpt lat="42.6595740" lon="-7.1882780">
        <ele>892.3</ele>
        <time>2014-10-02T13:47:31Z</time>
      </trkpt>
      <trkpt lat="42.6595200" lon="-7.1881100">
        <ele>891.3</ele>
        <time>2014-10-02T13:47:32Z</time>
      </trkpt>
      <trkpt lat="42.6594730" lon="-7.1879480">
        <ele>891.3</ele>
        <time>2014-10-02T13:47:33Z</time>
      </trkpt>
      <trkpt lat="42.6594280" lon="-7.1878020">
        <ele>892.2</ele>
        <time>2014-10-02T13:47:34Z</time>
      </trkpt>
      <trkpt lat="42.6593850" lon="-7.1876630">
        <ele>893.1</ele>
        <time>2014-10-02T13:47:35Z</time>
      </trkpt>
      <trkpt lat="42.6593450" lon="-7.1875210">
        <ele>894.0</ele>
        <time>2014-10-02T13:47:36Z</time>
      </trkpt>
      <trkpt lat="42.6593060" lon="-7.1873810">
        <ele>894.5</ele>
        <time>2014-10-02T13:47:37Z</time>
      </trkpt>
      <trkpt lat="42.6592570" lon="-7.1872400">
        <ele>894.3</ele>
        <time>2014-10-02T13:47:38Z</time>
      </trkpt>
      <trkpt lat="42.6592110" lon="-7.1871170">
        <ele>894.2</ele>
        <time>2014-10-02T13:47:39Z</time>
      </trkpt>
      <trkpt lat="42.6591530" lon="-7.1869790">
        <ele>894.1</ele>
        <time>2014-10-02T13:47:40Z</time>
      </trkpt>
      <trkpt lat="42.6590940" lon="-7.1868550">
        <ele>894.0</ele>
        <time>2014-10-02T13:47:41Z</time>
      </trkpt>
      <trkpt lat="42.6590380" lon="-7.1867440">
        <ele>893.9</ele>
        <time>2014-10-02T13:47:42Z</time>
      </trkpt>
      <trkpt lat="42.6589850" lon="-7.1866390">
        <ele>894.5</ele>
        <time>2014-10-02T13:47:43Z</time>
      </trkpt>
      <trkpt lat="42.6589320" lon="-7.1865320">
        <ele>895.6</ele>
        <time>2014-10-02T13:47:44Z</time>
      </trkpt>
      <trkpt lat="42.6588720" lon="-7.1864170">
        <ele>896.3</ele>
        <time>2014-10-02T13:47:45Z</time>
      </trkpt>
      <trkpt lat="42.6588180" lon="-7.1863070">
        <ele>896.9</ele>
        <time>2014-10-02T13:47:46Z</time>
      </trkpt>
      <trkpt lat="42.6587710" lon="-7.1862040">
        <ele>897.4</ele>
        <time>2014-10-02T13:47:47Z</time>
      </trkpt>
      <trkpt lat="42.6587360" lon="-7.1860950">
        <ele>898.2</ele>
        <time>2014-10-02T13:47:48Z</time>
      </trkpt>
      <trkpt lat="42.6587040" lon="-7.1859980">
        <ele>899.1</ele>
        <time>2014-10-02T13:47:49Z</time>
      </trkpt>
      <trkpt lat="42.6586670" lon="-7.1858910">
        <ele>900.0</ele>
        <time>2014-10-02T13:47:50Z</time>
      </trkpt>
      <trkpt lat="42.6586420" lon="-7.1857940">
        <ele>900.8</ele>
        <time>2014-10-02T13:47:51Z</time>
      </trkpt>
      <trkpt lat="42.6586210" lon="-7.1856880">
        <ele>901.7</ele>
        <time>2014-10-02T13:47:52Z</time>
      </trkpt>
      <trkpt lat="42.6586050" lon="-7.1855810">
        <ele>902.6</ele>
        <time>2014-10-02T13:47:53Z</time>
      </trkpt>
      <trkpt lat="42.6585880" lon="-7.1854830">
        <ele>903.5</ele>
        <time>2014-10-02T13:47:54Z</time>
      </trkpt>
      <trkpt lat="42.6585730" lon="-7.1853900">
        <ele>904.2</ele>
        <time>2014-10-02T13:47:55Z</time>
      </trkpt>
      <trkpt lat="42.6585580" lon="-7.1852990">
        <ele>904.9</ele>
        <time>2014-10-02T13:47:56Z</time>
      </trkpt>
      <trkpt lat="42.6585460" lon="-7.1852100">
        <ele>905.4</ele>
        <time>2014-10-02T13:47:57Z</time>
      </trkpt>
      <trkpt lat="42.6585320" lon="-7.1851090">
        <ele>906.1</ele>
        <time>2014-10-02T13:47:58Z</time>
      </trkpt>
      <trkpt lat="42.6585200" lon="-7.1849990">
        <ele>906.9</ele>
        <time>2014-10-02T13:47:59Z</time>
      </trkpt>
      <trkpt lat="42.6585110" lon="-7.1848920">
        <ele>907.8</ele>
        <time>2014-10-02T13:48:00Z</time>
      </trkpt>
      <trkpt lat="42.6585050" lon="-7.1847830">
        <ele>908.6</ele>
        <time>2014-10-02T13:48:01Z</time>
      </trkpt>
      <trkpt lat="42.6585010" lon="-7.1846660">
        <ele>909.4</ele>
        <time>2014-10-02T13:48:02Z</time>
      </trkpt>
      <trkpt lat="42.6585020" lon="-7.1845640">
        <ele>910.2</ele>
        <time>2014-10-02T13:48:03Z</time>
      </trkpt>
      <trkpt lat="42.6585030" lon="-7.1844720">
        <ele>910.9</ele>
        <time>2014-10-02T13:48:04Z</time>
      </trkpt>
      <trkpt lat="42.6585050" lon="-7.1843790">
        <ele>911.5</ele>
        <time>2014-10-02T13:48:05Z</time>
      </trkpt>
      <trkpt lat="42.6585080" lon="-7.1842940">
        <ele>912.0</ele>
        <time>2014-10-02T13:48:06Z</time>
      </trkpt>
      <trkpt lat="42.6585120" lon="-7.1842080">
        <ele>912.4</ele>
        <time>2014-10-02T13:48:07Z</time>
      </trkpt>
      <trkpt lat="42.6585160" lon="-7.1841180">
        <ele>912.8</ele>
        <time>2014-10-02T13:48:08Z</time>
      </trkpt>
      <trkpt lat="42.6585190" lon="-7.1840240">
        <ele>913.3</ele>
        <time>2014-10-02T13:48:09Z</time>
      </trkpt>
      <trkpt lat="42.6585220" lon="-7.1839350">
        <ele>913.8</ele>
        <time>2014-10-02T13:48:10Z</time>
      </trkpt>
      <trkpt lat="42.6585260" lon="-7.1838480">
        <ele>914.2</ele>
        <time>2014-10-02T13:48:11Z</time>
      </trkpt>
      <trkpt lat="42.6585310" lon="-7.1837510">
        <ele>914.6</ele>
        <time>2014-10-02T13:48:12Z</time>
      </trkpt>
      <trkpt lat="42.6585370" lon="-7.1836510">
        <ele>915.0</ele>
        <time>2014-10-02T13:48:13Z</time>
      </trkpt>
      <trkpt lat="42.6585440" lon="-7.1835440">
        <ele>915.5</ele>
        <time>2014-10-02T13:48:14Z</time>
      </trkpt>
      <trkpt lat="42.6585540" lon="-7.1834320">
        <ele>915.9</ele>
        <time>2014-10-02T13:48:15Z</time>
      </trkpt>
      <trkpt lat="42.6585680" lon="-7.1833400">
        <ele>916.2</ele>
        <time>2014-10-02T13:48:16Z</time>
      </trkpt>
      <trkpt lat="42.6585880" lon="-7.1832480">
        <ele>916.3</ele>
        <time>2014-10-02T13:48:17Z</time>
      </trkpt>
      <trkpt lat="42.6586170" lon="-7.1831600">
        <ele>916.4</ele>
        <time>2014-10-02T13:48:18Z</time>
      </trkpt>
      <trkpt lat="42.6586450" lon="-7.1830790">
        <ele>916.5</ele>
        <time>2014-10-02T13:48:19Z</time>
      </trkpt>
      <trkpt lat="42.6586760" lon="-7.1829810">
        <ele>916.5</ele>
        <time>2014-10-02T13:48:20Z</time>
      </trkpt>
      <trkpt lat="42.6586990" lon="-7.1828860">
        <ele>916.5</ele>
        <time>2014-10-02T13:48:21Z</time>
      </trkpt>
      <trkpt lat="42.6587230" lon="-7.1827750">
        <ele>916.3</ele>
        <time>2014-10-02T13:48:22Z</time>
      </trkpt>
      <trkpt lat="42.6587420" lon="-7.1826620">
        <ele>916.0</ele>
        <time>2014-10-02T13:48:23Z</time>
      </trkpt>
      <trkpt lat="42.6587660" lon="-7.1825420">
        <ele>915.6</ele>
        <time>2014-10-02T13:48:24Z</time>
      </trkpt>
      <trkpt lat="42.6588170" lon="-7.1824070">
        <ele>915.0</ele>
        <time>2014-10-02T13:48:25Z</time>
      </trkpt>
      <trkpt lat="42.6588850" lon="-7.1822670">
        <ele>914.2</ele>
        <time>2014-10-02T13:48:26Z</time>
      </trkpt>
      <trkpt lat="42.6589850" lon="-7.1821380">
        <ele>913.5</ele>
        <time>2014-10-02T13:48:27Z</time>
      </trkpt>
      <trkpt lat="42.6590930" lon="-7.1820110">
        <ele>912.9</ele>
        <time>2014-10-02T13:48:28Z</time>
      </trkpt>
      <trkpt lat="42.6591980" lon="-7.1819000">
        <ele>912.3</ele>
        <time>2014-10-02T13:48:29Z</time>
      </trkpt>
      <trkpt lat="42.6593320" lon="-7.1818260">
        <ele>911.4</ele>
        <time>2014-10-02T13:48:30Z</time>
      </trkpt>
      <trkpt lat="42.6594680" lon="-7.1817620">
        <ele>910.5</ele>
        <time>2014-10-02T13:48:31Z</time>
      </trkpt>
      <trkpt lat="42.6596080" lon="-7.1817450">
        <ele>909.6</ele>
        <time>2014-10-02T13:48:32Z</time>
      </trkpt>
      <trkpt lat="42.6597540" lon="-7.1817790">
        <ele>908.9</ele>
        <time>2014-10-02T13:48:33Z</time>
      </trkpt>
      <trkpt lat="42.6598830" lon="-7.1818100">
        <ele>908.6</ele>
        <time>2014-10-02T13:48:34Z</time>
      </trkpt>
      <trkpt lat="42.6600200" lon="-7.1818460">
        <ele>908.1</ele>
        <time>2014-10-02T13:48:35Z</time>
      </trkpt>
      <trkpt lat="42.6601500" lon="-7.1818390">
        <ele>907.6</ele>
        <time>2014-10-02T13:48:36Z</time>
      </trkpt>
      <trkpt lat="42.6602830" lon="-7.1818360">
        <ele>906.9</ele>
        <time>2014-10-02T13:48:37Z</time>
      </trkpt>
      <trkpt lat="42.6604080" lon="-7.1817910">
        <ele>906.2</ele>
        <time>2014-10-02T13:48:38Z</time>
      </trkpt>
      <trkpt lat="42.6605430" lon="-7.1817450">
        <ele>905.5</ele>
        <time>2014-10-02T13:48:39Z</time>
      </trkpt>
      <trkpt lat="42.6606590" lon="-7.1816400">
        <ele>904.5</ele>
        <time>2014-10-02T13:48:40Z</time>
      </trkpt>
      <trkpt lat="42.6607840" lon="-7.1815240">
        <ele>903.0</ele>
        <time>2014-10-02T13:48:41Z</time>
      </trkpt>
      <trkpt lat="42.6609020" lon="-7.1814010">
        <ele>901.7</ele>
        <time>2014-10-02T13:48:42Z</time>
      </trkpt>
      <trkpt lat="42.6610120" lon="-7.1812750">
        <ele>901.0</ele>
        <time>2014-10-02T13:48:43Z</time>
      </trkpt>
      <trkpt lat="42.6611150" lon="-7.1811630">
        <ele>900.3</ele>
        <time>2014-10-02T13:48:44Z</time>
      </trkpt>
      <trkpt lat="42.6612320" lon="-7.1811140">
        <ele>899.3</ele>
        <time>2014-10-02T13:48:45Z</time>
      </trkpt>
      <trkpt lat="42.6613390" lon="-7.1811130">
        <ele>898.2</ele>
        <time>2014-10-02T13:48:46Z</time>
      </trkpt>
      <trkpt lat="42.6614440" lon="-7.1811080">
        <ele>897.1</ele>
        <time>2014-10-02T13:48:47Z</time>
      </trkpt>
      <trkpt lat="42.6615350" lon="-7.1810790">
        <ele>896.2</ele>
        <time>2014-10-02T13:48:48Z</time>
      </trkpt>
      <trkpt lat="42.6616240" lon="-7.1810540">
        <ele>895.4</ele>
        <time>2014-10-02T13:48:49Z</time>
      </trkpt>
      <trkpt lat="42.6617200" lon="-7.1810320">
        <ele>894.5</ele>
        <time>2014-10-02T13:48:50Z</time>
      </trkpt>
      <trkpt lat="42.6618260" lon="-7.1810070">
        <ele>893.6</ele>
        <time>2014-10-02T13:48:51Z</time>
      </trkpt>
      <trkpt lat="42.6619350" lon="-7.1809880">
        <ele>892.7</ele>
        <time>2014-10-02T13:48:52Z</time>
      </trkpt>
      <trkpt lat="42.6620370" lon="-7.1809780">
        <ele>891.8</ele>
        <time>2014-10-02T13:48:53Z</time>
      </trkpt>
      <trkpt lat="42.6621370" lon="-7.1809780">
        <ele>891.2</ele>
        <time>2014-10-02T13:48:54Z</time>
      </trkpt>
      <trkpt lat="42.6622360" lon="-7.1809770">
        <ele>890.7</ele>
        <time>2014-10-02T13:48:55Z</time>
      </trkpt>
      <trkpt lat="42.6623450" lon="-7.1809730">
        <ele>890.3</ele>
        <time>2014-10-02T13:48:56Z</time>
      </trkpt>
      <trkpt lat="42.6624410" lon="-7.1809430">
        <ele>889.8</ele>
        <time>2014-10-02T13:48:57Z</time>
      </trkpt>
      <trkpt lat="42.6625380" lon="-7.1809080">
        <ele>889.3</ele>
        <time>2014-10-02T13:48:58Z</time>
      </trkpt>
      <trkpt lat="42.6626250" lon="-7.1808690">
        <ele>888.8</ele>
        <time>2014-10-02T13:48:59Z</time>
      </trkpt>
      <trkpt lat="42.6627140" lon="-7.1808270">
        <ele>888.3</ele>
        <time>2014-10-02T13:49:00Z</time>
      </trkpt>
      <trkpt lat="42.6628160" lon="-7.1808100">
        <ele>887.7</ele>
        <time>2014-10-02T13:49:01Z</time>
      </trkpt>
      <trkpt lat="42.6629190" lon="-7.1807860">
        <ele>887.1</ele>
        <time>2014-10-02T13:49:02Z</time>
      </trkpt>
      <trkpt lat="42.6630190" lon="-7.1807690">
        <ele>886.6</ele>
        <time>2014-10-02T13:49:03Z</time>
      </trkpt>
      <trkpt lat="42.6631160" lon="-7.1807540">
        <ele>886.3</ele>
        <time>2014-10-02T13:49:04Z</time>
      </trkpt>
      <trkpt lat="42.6632210" lon="-7.1807480">
        <ele>886.1</ele>
        <time>2014-10-02T13:49:05Z</time>
      </trkpt>
      <trkpt lat="42.6633150" lon="-7.1807520">
        <ele>886.0</ele>
        <time>2014-10-02T13:49:06Z</time>
      </trkpt>
      <trkpt lat="42.6633980" lon="-7.1807920">
        <ele>885.9</ele>
        <time>2014-10-02T13:49:07Z</time>
      </trkpt>
      <trkpt lat="42.6634770" lon="-7.1808360">
        <ele>885.8</ele>
        <time>2014-10-02T13:49:08Z</time>
      </trkpt>
      <trkpt lat="42.6635400" lon="-7.1809070">
        <ele>885.8</ele>
        <time>2014-10-02T13:49:09Z</time>
      </trkpt>
      <trkpt lat="42.6635990" lon="-7.1809800">
        <ele>885.8</ele>
        <time>2014-10-02T13:49:10Z</time>
      </trkpt>
      <trkpt lat="42.6636520" lon="-7.1810490">
        <ele>885.9</ele>
        <time>2014-10-02T13:49:11Z</time>
      </trkpt>
      <trkpt lat="42.6636980" lon="-7.1811140">
        <ele>886.0</ele>
        <time>2014-10-02T13:49:12Z</time>
      </trkpt>
      <trkpt lat="42.6637560" lon="-7.1811630">
        <ele>886.3</ele>
        <time>2014-10-02T13:49:13Z</time>
      </trkpt>
      <trkpt lat="42.6638080" lon="-7.1812050">
        <ele>886.7</ele>
        <time>2014-10-02T13:49:14Z</time>
      </trkpt>
      <trkpt lat="42.6638580" lon="-7.1812210">
        <ele>887.0</ele>
        <time>2014-10-02T13:49:15Z</time>
      </trkpt>
      <trkpt lat="42.6639020" lon="-7.1812350">
        <ele>887.4</ele>
        <time>2014-10-02T13:49:16Z</time>
      </trkpt>
      <trkpt lat="42.6639430" lon="-7.1812460">
        <ele>887.8</ele>
        <time>2014-10-02T13:49:17Z</time>
      </trkpt>
      <trkpt lat="42.6639810" lon="-7.1812250">
        <ele>888.2</ele>
        <time>2014-10-02T13:49:18Z</time>
      </trkpt>
      <trkpt lat="42.6640120" lon="-7.1811810">
        <ele>888.6</ele>
        <time>2014-10-02T13:49:19Z</time>
      </trkpt>
      <trkpt lat="42.6640230" lon="-7.1811310">
        <ele>888.9</ele>
        <time>2014-10-02T13:49:20Z</time>
      </trkpt>
      <trkpt lat="42.6640250" lon="-7.1810750">
        <ele>889.2</ele>
        <time>2014-10-02T13:49:21Z</time>
      </trkpt>
      <trkpt lat="42.6640120" lon="-7.1810180">
        <ele>889.6</ele>
        <time>2014-10-02T13:49:22Z</time>
      </trkpt>
      <trkpt lat="42.6640000" lon="-7.1809650">
        <ele>890.0</ele>
        <time>2014-10-02T13:49:23Z</time>
      </trkpt>
      <trkpt lat="42.6639790" lon="-7.1809130">
        <ele>890.5</ele>
        <time>2014-10-02T13:49:24Z</time>
      </trkpt>
      <trkpt lat="42.6639560" lon="-7.1808640">
        <ele>891.0</ele>
        <time>2014-10-02T13:49:25Z</time>
      </trkpt>
      <trkpt lat="42.6639320" lon="-7.1808200">
        <ele>891.5</ele>
        <time>2014-10-02T13:49:26Z</time>
      </trkpt>
      <trkpt lat="42.6639090" lon="-7.1807680">
        <ele>892.0</ele>
        <time>2014-10-02T13:49:27Z</time>
      </trkpt>
      <trkpt lat="42.6638850" lon="-7.1807320">
        <ele>892.4</ele>
        <time>2014-10-02T13:49:28Z</time>
      </trkpt>
      <trkpt lat="42.6638620" lon="-7.1806910">
        <ele>892.8</ele>
        <time>2014-10-02T13:49:29Z</time>
      </trkpt>
      <trkpt lat="42.6638400" lon="-7.1806520">
        <ele>893.2</ele>
        <time>2014-10-02T13:49:30Z</time>
      </trkpt>
      <trkpt lat="42.6638190" lon="-7.1806130">
        <ele>893.5</ele>
        <time>2014-10-02T13:49:31Z</time>
      </trkpt>
      <trkpt lat="42.6638000" lon="-7.1805710">
        <ele>893.9</ele>
        <time>2014-10-02T13:49:32Z</time>
      </trkpt>
      <trkpt lat="42.6637840" lon="-7.1805330">
        <ele>894.3</ele>
        <time>2014-10-02T13:49:33Z</time>
      </trkpt>
      <trkpt lat="42.6637670" lon="-7.1804950">
        <ele>894.6</ele>
        <time>2014-10-02T13:49:34Z</time>
      </trkpt>
      <trkpt lat="42.6637370" lon="-7.1804300">
        <ele>895.2</ele>
        <time>2014-10-02T13:49:36Z</time>
      </trkpt>
      <trkpt lat="42.6637240" lon="-7.1803960">
        <ele>895.5</ele>
        <time>2014-10-02T13:49:37Z</time>
      </trkpt>
      <trkpt lat="42.6636980" lon="-7.1803380">
        <ele>895.9</ele>
        <time>2014-10-02T13:49:39Z</time>
      </trkpt>
      <trkpt lat="42.6636740" lon="-7.1802960">
        <ele>896.3</ele>
        <time>2014-10-02T13:49:41Z</time>
      </trkpt>
      <trkpt lat="42.6636510" lon="-7.1802510">
        <ele>896.7</ele>
        <time>2014-10-02T13:49:43Z</time>
      </trkpt>
      <trkpt lat="42.6636120" lon="-7.1801750">
        <ele>897.4</ele>
        <time>2014-10-02T13:49:46Z</time>
      </trkpt>
      <trkpt lat="42.6635840" lon="-7.1801220">
        <ele>897.8</ele>
        <time>2014-10-02T13:49:48Z</time>
      </trkpt>
      <trkpt lat="42.6635490" lon="-7.1800690">
        <ele>898.3</ele>
        <time>2014-10-02T13:49:50Z</time>
      </trkpt>
      <trkpt lat="42.6635170" lon="-7.1800170">
        <ele>898.8</ele>
        <time>2014-10-02T13:49:52Z</time>
      </trkpt>
      <trkpt lat="42.6634650" lon="-7.1799700">
        <ele>899.4</ele>
        <time>2014-10-02T13:49:55Z</time>
      </trkpt>
      <trkpt lat="42.6633920" lon="-7.1799070">
        <ele>900.1</ele>
        <time>2014-10-02T13:49:58Z</time>
      </trkpt>
      <trkpt lat="42.6633690" lon="-7.1798880">
        <ele>900.3</ele>
        <time>2014-10-02T13:49:59Z</time>
      </trkpt>
      <trkpt lat="42.6633440" lon="-7.1798700">
        <ele>900.5</ele>
        <time>2014-10-02T13:50:00Z</time>
      </trkpt>
      <trkpt lat="42.6633200" lon="-7.1798520">
        <ele>900.7</ele>
        <time>2014-10-02T13:50:01Z</time>
      </trkpt>
      <trkpt lat="42.6632960" lon="-7.1798330">
        <ele>901.0</ele>
        <time>2014-10-02T13:50:02Z</time>
      </trkpt>
      <trkpt lat="42.6632710" lon="-7.1798130">
        <ele>901.2</ele>
        <time>2014-10-02T13:50:03Z</time>
      </trkpt>
      <trkpt lat="42.6632260" lon="-7.1797750">
        <ele>901.7</ele>
        <time>2014-10-02T13:50:05Z</time>
      </trkpt>
      <trkpt lat="42.6632010" lon="-7.1797550">
        <ele>901.9</ele>
        <time>2014-10-02T13:50:06Z</time>
      </trkpt>
      <trkpt lat="42.6631760" lon="-7.1797380">
        <ele>902.2</ele>
        <time>2014-10-02T13:50:07Z</time>
      </trkpt>
      <trkpt lat="42.6631480" lon="-7.1797200">
        <ele>902.5</ele>
        <time>2014-10-02T13:50:08Z</time>
      </trkpt>
      <trkpt lat="42.6631200" lon="-7.1797040">
        <ele>902.7</ele>
        <time>2014-10-02T13:50:09Z</time>
      </trkpt>
      <trkpt lat="42.6630690" lon="-7.1796760">
        <ele>903.1</ele>
        <time>2014-10-02T13:50:11Z</time>
      </trkpt>
      <trkpt lat="42.6630400" lon="-7.1796590">
        <ele>903.3</ele>
        <time>2014-10-02T13:50:12Z</time>
      </trkpt>
      <trkpt lat="42.6630130" lon="-7.1796450">
        <ele>903.4</ele>
        <time>2014-10-02T13:50:13Z</time>
      </trkpt>
      <trkpt lat="42.6629830" lon="-7.1796300">
        <ele>903.6</ele>
        <time>2014-10-02T13:50:14Z</time>
      </trkpt>
      <trkpt lat="42.6629410" lon="-7.1796040">
        <ele>903.8</ele>
        <time>2014-10-02T13:50:16Z</time>
      </trkpt>
      <trkpt lat="42.6629160" lon="-7.1795880">
        <ele>904.0</ele>
        <time>2014-10-02T13:50:17Z</time>
      </trkpt>
      <trkpt lat="42.6628730" lon="-7.1795580">
        <ele>904.2</ele>
        <time>2014-10-02T13:50:19Z</time>
      </trkpt>
      <trkpt lat="42.6628230" lon="-7.1795380">
        <ele>904.4</ele>
        <time>2014-10-02T13:50:21Z</time>
      </trkpt>
      <trkpt lat="42.6627730" lon="-7.1795140">
        <ele>904.6</ele>
        <time>2014-10-02T13:50:23Z</time>
      </trkpt>
      <trkpt lat="42.6627440" lon="-7.1794960">
        <ele>904.8</ele>
        <time>2014-10-02T13:50:24Z</time>
      </trkpt>
      <trkpt lat="42.6627170" lon="-7.1794760">
        <ele>904.9</ele>
        <time>2014-10-02T13:50:25Z</time>
      </trkpt>
      <trkpt lat="42.6626920" lon="-7.1794600">
        <ele>905.0</ele>
        <time>2014-10-02T13:50:26Z</time>
      </trkpt>
      <trkpt lat="42.6626610" lon="-7.1794380">
        <ele>905.2</ele>
        <time>2014-10-02T13:50:27Z</time>
      </trkpt>
      <trkpt lat="42.6626380" lon="-7.1794130">
        <ele>905.3</ele>
        <time>2014-10-02T13:50:28Z</time>
      </trkpt>
      <trkpt lat="42.6625540" lon="-7.1793580">
        <ele>905.8</ele>
        <time>2014-10-02T13:50:32Z</time>
      </trkpt>
      <trkpt lat="42.6624990" lon="-7.1793120">
        <ele>906.1</ele>
        <time>2014-10-02T13:50:34Z</time>
      </trkpt>
      <trkpt lat="42.6624700" lon="-7.1792790">
        <ele>906.2</ele>
        <time>2014-10-02T13:50:35Z</time>
      </trkpt>
      <trkpt lat="42.6624380" lon="-7.1792450">
        <ele>906.3</ele>
        <time>2014-10-02T13:50:36Z</time>
      </trkpt>
      <trkpt lat="42.6624100" lon="-7.1792170">
        <ele>906.4</ele>
        <time>2014-10-02T13:50:37Z</time>
      </trkpt>
      <trkpt lat="42.6623840" lon="-7.1791900">
        <ele>906.5</ele>
        <time>2014-10-02T13:50:38Z</time>
      </trkpt>
      <trkpt lat="42.6623540" lon="-7.1791580">
        <ele>906.6</ele>
        <time>2014-10-02T13:50:39Z</time>
      </trkpt>
      <trkpt lat="42.6623230" lon="-7.1791270">
        <ele>906.7</ele>
        <time>2014-10-02T13:50:40Z</time>
      </trkpt>
      <trkpt lat="42.6622900" lon="-7.1790930">
        <ele>906.9</ele>
        <time>2014-10-02T13:50:41Z</time>
      </trkpt>
      <trkpt lat="42.6622600" lon="-7.1790600">
        <ele>907.1</ele>
        <time>2014-10-02T13:50:42Z</time>
      </trkpt>
      <trkpt lat="42.6622300" lon="-7.1790300">
        <ele>907.2</ele>
        <time>2014-10-02T13:50:43Z</time>
      </trkpt>
      <trkpt lat="42.6622040" lon="-7.1790000">
        <ele>907.4</ele>
        <time>2014-10-02T13:50:44Z</time>
      </trkpt>
      <trkpt lat="42.6621810" lon="-7.1789760">
        <ele>907.6</ele>
        <time>2014-10-02T13:50:45Z</time>
      </trkpt>
      <trkpt lat="42.6621560" lon="-7.1789490">
        <ele>907.7</ele>
        <time>2014-10-02T13:50:46Z</time>
      </trkpt>
      <trkpt lat="42.6621300" lon="-7.1789170">
        <ele>907.9</ele>
        <time>2014-10-02T13:50:47Z</time>
      </trkpt>
      <trkpt lat="42.6621090" lon="-7.1788850">
        <ele>908.1</ele>
        <time>2014-10-02T13:50:48Z</time>
      </trkpt>
      <trkpt lat="42.6620790" lon="-7.1788540">
        <ele>908.3</ele>
        <time>2014-10-02T13:50:49Z</time>
      </trkpt>
      <trkpt lat="42.6620440" lon="-7.1788130">
        <ele>908.6</ele>
        <time>2014-10-02T13:50:50Z</time>
      </trkpt>
      <trkpt lat="42.6620120" lon="-7.1787720">
        <ele>908.9</ele>
        <time>2014-10-02T13:50:51Z</time>
      </trkpt>
      <trkpt lat="42.6619810" lon="-7.1787300">
        <ele>909.2</ele>
        <time>2014-10-02T13:50:52Z</time>
      </trkpt>
      <trkpt lat="42.6619630" lon="-7.1786980">
        <ele>909.4</ele>
        <time>2014-10-02T13:50:53Z</time>
      </trkpt>
      <trkpt lat="42.6619450" lon="-7.1786620">
        <ele>909.6</ele>
        <time>2014-10-02T13:50:54Z</time>
      </trkpt>
      <trkpt lat="42.6619190" lon="-7.1786340">
        <ele>909.8</ele>
        <time>2014-10-02T13:50:55Z</time>
      </trkpt>
      <trkpt lat="42.6618930" lon="-7.1786090">
        <ele>909.9</ele>
        <time>2014-10-02T13:50:56Z</time>
      </trkpt>
      <trkpt lat="42.6618640" lon="-7.1785850">
        <ele>910.1</ele>
        <time>2014-10-02T13:50:57Z</time>
      </trkpt>
      <trkpt lat="42.6618130" lon="-7.1785290">
        <ele>910.3</ele>
        <time>2014-10-02T13:50:59Z</time>
      </trkpt>
      <trkpt lat="42.6617910" lon="-7.1785000">
        <ele>910.4</ele>
        <time>2014-10-02T13:51:00Z</time>
      </trkpt>
      <trkpt lat="42.6617710" lon="-7.1784730">
        <ele>910.5</ele>
        <time>2014-10-02T13:51:01Z</time>
      </trkpt>
      <trkpt lat="42.6617270" lon="-7.1784160">
        <ele>910.8</ele>
        <time>2014-10-02T13:51:03Z</time>
      </trkpt>
      <trkpt lat="42.6616790" lon="-7.1783640">
        <ele>911.2</ele>
        <time>2014-10-02T13:51:05Z</time>
      </trkpt>
      <trkpt lat="42.6616590" lon="-7.1783360">
        <ele>911.4</ele>
        <time>2014-10-02T13:51:06Z</time>
      </trkpt>
      <trkpt lat="42.6616220" lon="-7.1782950">
        <ele>911.6</ele>
        <time>2014-10-02T13:51:08Z</time>
      </trkpt>
      <trkpt lat="42.6615960" lon="-7.1782650">
        <ele>911.8</ele>
        <time>2014-10-02T13:51:09Z</time>
      </trkpt>
      <trkpt lat="42.6615720" lon="-7.1782220">
        <ele>912.0</ele>
        <time>2014-10-02T13:51:10Z</time>
      </trkpt>
      <trkpt lat="42.6615480" lon="-7.1781940">
        <ele>912.1</ele>
        <time>2014-10-02T13:51:11Z</time>
      </trkpt>
      <trkpt lat="42.6615260" lon="-7.1781610">
        <ele>912.3</ele>
        <time>2014-10-02T13:51:12Z</time>
      </trkpt>
      <trkpt lat="42.6615030" lon="-7.1781330">
        <ele>912.4</ele>
        <time>2014-10-02T13:51:13Z</time>
      </trkpt>
      <trkpt lat="42.6614750" lon="-7.1781050">
        <ele>912.6</ele>
        <time>2014-10-02T13:51:14Z</time>
      </trkpt>
      <trkpt lat="42.6614530" lon="-7.1780810">
        <ele>912.7</ele>
        <time>2014-10-02T13:51:15Z</time>
      </trkpt>
      <trkpt lat="42.6614260" lon="-7.1780460">
        <ele>912.9</ele>
        <time>2014-10-02T13:51:16Z</time>
      </trkpt>
      <trkpt lat="42.6613960" lon="-7.1780100">
        <ele>913.0</ele>
        <time>2014-10-02T13:51:17Z</time>
      </trkpt>
      <trkpt lat="42.6613660" lon="-7.1779830">
        <ele>913.1</ele>
        <time>2014-10-02T13:51:18Z</time>
      </trkpt>
      <trkpt lat="42.6613450" lon="-7.1779480">
        <ele>913.2</ele>
        <time>2014-10-02T13:51:19Z</time>
      </trkpt>
      <trkpt lat="42.6613140" lon="-7.1778860">
        <ele>913.4</ele>
        <time>2014-10-02T13:51:21Z</time>
      </trkpt>
      <trkpt lat="42.6612940" lon="-7.1778530">
        <ele>913.5</ele>
        <time>2014-10-02T13:51:22Z</time>
      </trkpt>
      <trkpt lat="42.6612700" lon="-7.1778190">
        <ele>913.6</ele>
        <time>2014-10-02T13:51:23Z</time>
      </trkpt>
      <trkpt lat="42.6612520" lon="-7.1777800">
        <ele>913.7</ele>
        <time>2014-10-02T13:51:24Z</time>
      </trkpt>
      <trkpt lat="42.6612330" lon="-7.1777420">
        <ele>913.8</ele>
        <time>2014-10-02T13:51:25Z</time>
      </trkpt>
      <trkpt lat="42.6612150" lon="-7.1776960">
        <ele>914.0</ele>
        <time>2014-10-02T13:51:26Z</time>
      </trkpt>
      <trkpt lat="42.6611990" lon="-7.1776500">
        <ele>914.1</ele>
        <time>2014-10-02T13:51:27Z</time>
      </trkpt>
      <trkpt lat="42.6611830" lon="-7.1776100">
        <ele>914.2</ele>
        <time>2014-10-02T13:51:28Z</time>
      </trkpt>
      <trkpt lat="42.6611680" lon="-7.1775710">
        <ele>914.3</ele>
        <time>2014-10-02T13:51:29Z</time>
      </trkpt>
      <trkpt lat="42.6611500" lon="-7.1775290">
        <ele>914.4</ele>
        <time>2014-10-02T13:51:30Z</time>
      </trkpt>
      <trkpt lat="42.6611320" lon="-7.1774950">
        <ele>914.5</ele>
        <time>2014-10-02T13:51:31Z</time>
      </trkpt>
      <trkpt lat="42.6611100" lon="-7.1774640">
        <ele>914.6</ele>
        <time>2014-10-02T13:51:32Z</time>
      </trkpt>
      <trkpt lat="42.6610870" lon="-7.1774310">
        <ele>914.7</ele>
        <time>2014-10-02T13:51:33Z</time>
      </trkpt>
      <trkpt lat="42.6610580" lon="-7.1773970">
        <ele>914.8</ele>
        <time>2014-10-02T13:51:34Z</time>
      </trkpt>
      <trkpt lat="42.6610300" lon="-7.1773660">
        <ele>914.9</ele>
        <time>2014-10-02T13:51:35Z</time>
      </trkpt>
      <trkpt lat="42.6610060" lon="-7.1773340">
        <ele>915.0</ele>
        <time>2014-10-02T13:51:36Z</time>
      </trkpt>
      <trkpt lat="42.6609750" lon="-7.1773160">
        <ele>915.1</ele>
        <time>2014-10-02T13:51:37Z</time>
      </trkpt>
      <trkpt lat="42.6609400" lon="-7.1772810">
        <ele>915.3</ele>
        <time>2014-10-02T13:51:38Z</time>
      </trkpt>
      <trkpt lat="42.6609100" lon="-7.1772440">
        <ele>915.5</ele>
        <time>2014-10-02T13:51:39Z</time>
      </trkpt>
      <trkpt lat="42.6608820" lon="-7.1772080">
        <ele>915.7</ele>
        <time>2014-10-02T13:51:40Z</time>
      </trkpt>
      <trkpt lat="42.6608500" lon="-7.1771700">
        <ele>916.0</ele>
        <time>2014-10-02T13:51:41Z</time>
      </trkpt>
      <trkpt lat="42.6608200" lon="-7.1771310">
        <ele>916.3</ele>
        <time>2014-10-02T13:51:42Z</time>
      </trkpt>
      <trkpt lat="42.6607920" lon="-7.1771000">
        <ele>916.5</ele>
        <time>2014-10-02T13:51:43Z</time>
      </trkpt>
      <trkpt lat="42.6607650" lon="-7.1770670">
        <ele>916.8</ele>
        <time>2014-10-02T13:51:44Z</time>
      </trkpt>
      <trkpt lat="42.6607420" lon="-7.1770280">
        <ele>917.0</ele>
        <time>2014-10-02T13:51:45Z</time>
      </trkpt>
      <trkpt lat="42.6607240" lon="-7.1769980">
        <ele>917.1</ele>
        <time>2014-10-02T13:51:46Z</time>
      </trkpt>
      <trkpt lat="42.6607040" lon="-7.1769670">
        <ele>917.3</ele>
        <time>2014-10-02T13:51:47Z</time>
      </trkpt>
      <trkpt lat="42.6606670" lon="-7.1769140">
        <ele>917.5</ele>
        <time>2014-10-02T13:51:49Z</time>
      </trkpt>
      <trkpt lat="42.6606480" lon="-7.1768750">
        <ele>917.6</ele>
        <time>2014-10-02T13:51:50Z</time>
      </trkpt>
      <trkpt lat="42.6606270" lon="-7.1768280">
        <ele>917.7</ele>
        <time>2014-10-02T13:51:51Z</time>
      </trkpt>
      <trkpt lat="42.6606130" lon="-7.1767830">
        <ele>917.8</ele>
        <time>2014-10-02T13:51:52Z</time>
      </trkpt>
      <trkpt lat="42.6605950" lon="-7.1767260">
        <ele>917.9</ele>
        <time>2014-10-02T13:51:53Z</time>
      </trkpt>
      <trkpt lat="42.6605770" lon="-7.1766620">
        <ele>917.9</ele>
        <time>2014-10-02T13:51:54Z</time>
      </trkpt>
      <trkpt lat="42.6605610" lon="-7.1766010">
        <ele>918.0</ele>
        <time>2014-10-02T13:51:55Z</time>
      </trkpt>
      <trkpt lat="42.6605450" lon="-7.1765400">
        <ele>918.1</ele>
        <time>2014-10-02T13:51:56Z</time>
      </trkpt>
      <trkpt lat="42.6605300" lon="-7.1764750">
        <ele>918.6</ele>
        <time>2014-10-02T13:51:57Z</time>
      </trkpt>
      <trkpt lat="42.6605150" lon="-7.1764100">
        <ele>919.1</ele>
        <time>2014-10-02T13:51:58Z</time>
      </trkpt>
      <trkpt lat="42.6604990" lon="-7.1763490">
        <ele>919.6</ele>
        <time>2014-10-02T13:51:59Z</time>
      </trkpt>
      <trkpt lat="42.6604770" lon="-7.1762830">
        <ele>920.1</ele>
        <time>2014-10-02T13:52:00Z</time>
      </trkpt>
      <trkpt lat="42.6604570" lon="-7.1762260">
        <ele>920.4</ele>
        <time>2014-10-02T13:52:01Z</time>
      </trkpt>
      <trkpt lat="42.6604390" lon="-7.1761720">
        <ele>920.7</ele>
        <time>2014-10-02T13:52:02Z</time>
      </trkpt>
      <trkpt lat="42.6604240" lon="-7.1761120">
        <ele>921.0</ele>
        <time>2014-10-02T13:52:03Z</time>
      </trkpt>
      <trkpt lat="42.6604100" lon="-7.1760520">
        <ele>921.2</ele>
        <time>2014-10-02T13:52:04Z</time>
      </trkpt>
      <trkpt lat="42.6603940" lon="-7.1759840">
        <ele>921.5</ele>
        <time>2014-10-02T13:52:05Z</time>
      </trkpt>
      <trkpt lat="42.6603840" lon="-7.1759150">
        <ele>921.8</ele>
        <time>2014-10-02T13:52:06Z</time>
      </trkpt>
      <trkpt lat="42.6603740" lon="-7.1758470">
        <ele>922.0</ele>
        <time>2014-10-02T13:52:07Z</time>
      </trkpt>
      <trkpt lat="42.6603660" lon="-7.1757800">
        <ele>922.4</ele>
        <time>2014-10-02T13:52:08Z</time>
      </trkpt>
      <trkpt lat="42.6603620" lon="-7.1757200">
        <ele>922.7</ele>
        <time>2014-10-02T13:52:09Z</time>
      </trkpt>
      <trkpt lat="42.6603590" lon="-7.1756500">
        <ele>923.1</ele>
        <time>2014-10-02T13:52:10Z</time>
      </trkpt>
      <trkpt lat="42.6603570" lon="-7.1755790">
        <ele>923.5</ele>
        <time>2014-10-02T13:52:11Z</time>
      </trkpt>
      <trkpt lat="42.6603570" lon="-7.1755130">
        <ele>923.8</ele>
        <time>2014-10-02T13:52:12Z</time>
      </trkpt>
      <trkpt lat="42.6603610" lon="-7.1754480">
        <ele>924.2</ele>
        <time>2014-10-02T13:52:13Z</time>
      </trkpt>
      <trkpt lat="42.6603650" lon="-7.1753870">
        <ele>924.5</ele>
        <time>2014-10-02T13:52:14Z</time>
      </trkpt>
      <trkpt lat="42.6603670" lon="-7.1753240">
        <ele>924.8</ele>
        <time>2014-10-02T13:52:15Z</time>
      </trkpt>
      <trkpt lat="42.6603690" lon="-7.1752680">
        <ele>925.0</ele>
        <time>2014-10-02T13:52:16Z</time>
      </trkpt>
      <trkpt lat="42.6603700" lon="-7.1752120">
        <ele>925.3</ele>
        <time>2014-10-02T13:52:17Z</time>
      </trkpt>
      <trkpt lat="42.6603750" lon="-7.1751440">
        <ele>925.6</ele>
        <time>2014-10-02T13:52:18Z</time>
      </trkpt>
      <trkpt lat="42.6603810" lon="-7.1750800">
        <ele>925.8</ele>
        <time>2014-10-02T13:52:19Z</time>
      </trkpt>
      <trkpt lat="42.6603880" lon="-7.1750090">
        <ele>926.1</ele>
        <time>2014-10-02T13:52:20Z</time>
      </trkpt>
      <trkpt lat="42.6604090" lon="-7.1749320">
        <ele>926.4</ele>
        <time>2014-10-02T13:52:21Z</time>
      </trkpt>
      <trkpt lat="42.6604250" lon="-7.1748680">
        <ele>926.7</ele>
        <time>2014-10-02T13:52:22Z</time>
      </trkpt>
      <trkpt lat="42.6604450" lon="-7.1747870">
        <ele>927.0</ele>
        <time>2014-10-02T13:52:23Z</time>
      </trkpt>
      <trkpt lat="42.6604620" lon="-7.1747210">
        <ele>927.2</ele>
        <time>2014-10-02T13:52:24Z</time>
      </trkpt>
      <trkpt lat="42.6604800" lon="-7.1746490">
        <ele>927.5</ele>
        <time>2014-10-02T13:52:25Z</time>
      </trkpt>
      <trkpt lat="42.6604980" lon="-7.1745760">
        <ele>927.7</ele>
        <time>2014-10-02T13:52:26Z</time>
      </trkpt>
      <trkpt lat="42.6605120" lon="-7.1745160">
        <ele>927.9</ele>
        <time>2014-10-02T13:52:27Z</time>
      </trkpt>
      <trkpt lat="42.6605280" lon="-7.1744580">
        <ele>927.9</ele>
        <time>2014-10-02T13:52:28Z</time>
      </trkpt>
      <trkpt lat="42.6605440" lon="-7.1743960">
        <ele>928.0</ele>
        <time>2014-10-02T13:52:29Z</time>
      </trkpt>
      <trkpt lat="42.6605640" lon="-7.1743300">
        <ele>928.0</ele>
        <time>2014-10-02T13:52:30Z</time>
      </trkpt>
      <trkpt lat="42.6605820" lon="-7.1742660">
        <ele>928.0</ele>
        <time>2014-10-02T13:52:31Z</time>
      </trkpt>
      <trkpt lat="42.6605970" lon="-7.1742090">
        <ele>928.0</ele>
        <time>2014-10-02T13:52:32Z</time>
      </trkpt>
      <trkpt lat="42.6606140" lon="-7.1741580">
        <ele>928.0</ele>
        <time>2014-10-02T13:52:33Z</time>
      </trkpt>
      <trkpt lat="42.6606300" lon="-7.1741140">
        <ele>928.0</ele>
        <time>2014-10-02T13:52:34Z</time>
      </trkpt>
      <trkpt lat="42.6606930" lon="-7.1740260">
        <ele>928.1</ele>
        <time>2014-10-02T13:52:38Z</time>
      </trkpt>
      <trkpt lat="42.6607190" lon="-7.1740430">
        <ele>928.2</ele>
        <time>2014-10-02T13:52:39Z</time>
      </trkpt>
      <trkpt lat="42.6607440" lon="-7.1740640">
        <ele>928.3</ele>
        <time>2014-10-02T13:52:40Z</time>
      </trkpt>
      <trkpt lat="42.6608280" lon="-7.1740580">
        <ele>928.6</ele>
        <time>2014-10-02T13:52:43Z</time>
      </trkpt>
      <trkpt lat="42.6608710" lon="-7.1740310">
        <ele>928.8</ele>
        <time>2014-10-02T13:52:44Z</time>
      </trkpt>
      <trkpt lat="42.6609010" lon="-7.1740000">
        <ele>929.0</ele>
        <time>2014-10-02T13:52:45Z</time>
      </trkpt>
      <trkpt lat="42.6609380" lon="-7.1739640">
        <ele>929.2</ele>
        <time>2014-10-02T13:52:46Z</time>
      </trkpt>
      <trkpt lat="42.6609910" lon="-7.1739050">
        <ele>929.5</ele>
        <time>2014-10-02T13:52:47Z</time>
      </trkpt>
      <trkpt lat="42.6610390" lon="-7.1738480">
        <ele>929.7</ele>
        <time>2014-10-02T13:52:48Z</time>
      </trkpt>
      <trkpt lat="42.6610910" lon="-7.1737860">
        <ele>930.0</ele>
        <time>2014-10-02T13:52:49Z</time>
      </trkpt>
      <trkpt lat="42.6611490" lon="-7.1737180">
        <ele>930.2</ele>
        <time>2014-10-02T13:52:50Z</time>
      </trkpt>
      <trkpt lat="42.6612000" lon="-7.1736620">
        <ele>930.3</ele>
        <time>2014-10-02T13:52:51Z</time>
      </trkpt>
      <trkpt lat="42.6612610" lon="-7.1735920">
        <ele>930.5</ele>
        <time>2014-10-02T13:52:52Z</time>
      </trkpt>
      <trkpt lat="42.6613190" lon="-7.1735530">
        <ele>930.6</ele>
        <time>2014-10-02T13:52:53Z</time>
      </trkpt>
      <trkpt lat="42.6613790" lon="-7.1735100">
        <ele>930.7</ele>
        <time>2014-10-02T13:52:54Z</time>
      </trkpt>
      <trkpt lat="42.6614280" lon="-7.1734610">
        <ele>930.8</ele>
        <time>2014-10-02T13:52:55Z</time>
      </trkpt>
      <trkpt lat="42.6615000" lon="-7.1733710">
        <ele>930.7</ele>
        <time>2014-10-02T13:52:57Z</time>
      </trkpt>
      <trkpt lat="42.6615530" lon="-7.1733060">
        <ele>930.5</ele>
        <time>2014-10-02T13:52:58Z</time>
      </trkpt>
      <trkpt lat="42.6616080" lon="-7.1732420">
        <ele>930.3</ele>
        <time>2014-10-02T13:52:59Z</time>
      </trkpt>
      <trkpt lat="42.6616550" lon="-7.1731850">
        <ele>930.3</ele>
        <time>2014-10-02T13:53:00Z</time>
      </trkpt>
      <trkpt lat="42.6617680" lon="-7.1730370">
        <ele>930.4</ele>
        <time>2014-10-02T13:53:03Z</time>
      </trkpt>
      <trkpt lat="42.6618250" lon="-7.1729700">
        <ele>930.4</ele>
        <time>2014-10-02T13:53:04Z</time>
      </trkpt>
      <trkpt lat="42.6618700" lon="-7.1729070">
        <ele>930.3</ele>
        <time>2014-10-02T13:53:05Z</time>
      </trkpt>
      <trkpt lat="42.6619540" lon="-7.1728310">
        <ele>930.2</ele>
        <time>2014-10-02T13:53:06Z</time>
      </trkpt>
      <trkpt lat="42.6620360" lon="-7.1727600">
        <ele>929.5</ele>
        <time>2014-10-02T13:53:07Z</time>
      </trkpt>
      <trkpt lat="42.6621250" lon="-7.1726820">
        <ele>928.4</ele>
        <time>2014-10-02T13:53:08Z</time>
      </trkpt>
      <trkpt lat="42.6622150" lon="-7.1726120">
        <ele>927.5</ele>
        <time>2014-10-02T13:53:09Z</time>
      </trkpt>
      <trkpt lat="42.6623160" lon="-7.1725670">
        <ele>926.6</ele>
        <time>2014-10-02T13:53:10Z</time>
      </trkpt>
      <trkpt lat="42.6624410" lon="-7.1725370">
        <ele>925.7</ele>
        <time>2014-10-02T13:53:11Z</time>
      </trkpt>
      <trkpt lat="42.6625520" lon="-7.1725280">
        <ele>924.9</ele>
        <time>2014-10-02T13:53:12Z</time>
      </trkpt>
      <trkpt lat="42.6626550" lon="-7.1725270">
        <ele>924.2</ele>
        <time>2014-10-02T13:53:13Z</time>
      </trkpt>
      <trkpt lat="42.6627560" lon="-7.1724950">
        <ele>923.5</ele>
        <time>2014-10-02T13:53:14Z</time>
      </trkpt>
      <trkpt lat="42.6628390" lon="-7.1724370">
        <ele>922.7</ele>
        <time>2014-10-02T13:53:15Z</time>
      </trkpt>
      <trkpt lat="42.6629350" lon="-7.1723710">
        <ele>921.7</ele>
        <time>2014-10-02T13:53:16Z</time>
      </trkpt>
      <trkpt lat="42.6630350" lon="-7.1723000">
        <ele>920.7</ele>
        <time>2014-10-02T13:53:17Z</time>
      </trkpt>
      <trkpt lat="42.6631320" lon="-7.1722140">
        <ele>919.6</ele>
        <time>2014-10-02T13:53:18Z</time>
      </trkpt>
      <trkpt lat="42.6632290" lon="-7.1721260">
        <ele>918.6</ele>
        <time>2014-10-02T13:53:19Z</time>
      </trkpt>
      <trkpt lat="42.6633280" lon="-7.1720340">
        <ele>917.7</ele>
        <time>2014-10-02T13:53:20Z</time>
      </trkpt>
      <trkpt lat="42.6634270" lon="-7.1719430">
        <ele>917.0</ele>
        <time>2014-10-02T13:53:21Z</time>
      </trkpt>
      <trkpt lat="42.6635230" lon="-7.1718670">
        <ele>916.8</ele>
        <time>2014-10-02T13:53:22Z</time>
      </trkpt>
      <trkpt lat="42.6636210" lon="-7.1718410">
        <ele>916.6</ele>
        <time>2014-10-02T13:53:23Z</time>
      </trkpt>
      <trkpt lat="42.6637070" lon="-7.1718760">
        <ele>916.1</ele>
        <time>2014-10-02T13:53:24Z</time>
      </trkpt>
      <trkpt lat="42.6637940" lon="-7.1719310">
        <ele>915.3</ele>
        <time>2014-10-02T13:53:25Z</time>
      </trkpt>
      <trkpt lat="42.6638810" lon="-7.1719970">
        <ele>914.3</ele>
        <time>2014-10-02T13:53:26Z</time>
      </trkpt>
      <trkpt lat="42.6639590" lon="-7.1720570">
        <ele>913.4</ele>
        <time>2014-10-02T13:53:27Z</time>
      </trkpt>
      <trkpt lat="42.6640440" lon="-7.1721320">
        <ele>912.5</ele>
        <time>2014-10-02T13:53:28Z</time>
      </trkpt>
      <trkpt lat="42.6641320" lon="-7.1722000">
        <ele>911.6</ele>
        <time>2014-10-02T13:53:29Z</time>
      </trkpt>
      <trkpt lat="42.6642280" lon="-7.1722290">
        <ele>910.7</ele>
        <time>2014-10-02T13:53:30Z</time>
      </trkpt>
      <trkpt lat="42.6643250" lon="-7.1722130">
        <ele>909.8</ele>
        <time>2014-10-02T13:53:31Z</time>
      </trkpt>
      <trkpt lat="42.6644230" lon="-7.1721880">
        <ele>908.9</ele>
        <time>2014-10-02T13:53:32Z</time>
      </trkpt>
      <trkpt lat="42.6645220" lon="-7.1721550">
        <ele>908.1</ele>
        <time>2014-10-02T13:53:33Z</time>
      </trkpt>
      <trkpt lat="42.6646270" lon="-7.1721120">
        <ele>907.3</ele>
        <time>2014-10-02T13:53:34Z</time>
      </trkpt>
      <trkpt lat="42.6647370" lon="-7.1720650">
        <ele>906.4</ele>
        <time>2014-10-02T13:53:35Z</time>
      </trkpt>
      <trkpt lat="42.6648460" lon="-7.1720130">
        <ele>905.2</ele>
        <time>2014-10-02T13:53:36Z</time>
      </trkpt>
      <trkpt lat="42.6649400" lon="-7.1719610">
        <ele>904.2</ele>
        <time>2014-10-02T13:53:37Z</time>
      </trkpt>
      <trkpt lat="42.6650320" lon="-7.1719070">
        <ele>903.6</ele>
        <time>2014-10-02T13:53:38Z</time>
      </trkpt>
      <trkpt lat="42.6650790" lon="-7.1717810">
        <ele>903.3</ele>
        <time>2014-10-02T13:53:39Z</time>
      </trkpt>
      <trkpt lat="42.6650910" lon="-7.1716610">
        <ele>903.1</ele>
        <time>2014-10-02T13:53:40Z</time>
      </trkpt>
      <trkpt lat="42.6650940" lon="-7.1715330">
        <ele>902.8</ele>
        <time>2014-10-02T13:53:41Z</time>
      </trkpt>
      <trkpt lat="42.6651010" lon="-7.1714000">
        <ele>902.6</ele>
        <time>2014-10-02T13:53:42Z</time>
      </trkpt>
      <trkpt lat="42.6651450" lon="-7.1712850">
        <ele>902.6</ele>
        <time>2014-10-02T13:53:43Z</time>
      </trkpt>
      <trkpt lat="42.6652040" lon="-7.1711960">
        <ele>902.7</ele>
        <time>2014-10-02T13:53:44Z</time>
      </trkpt>
      <trkpt lat="42.6652650" lon="-7.1711150">
        <ele>902.9</ele>
        <time>2014-10-02T13:53:45Z</time>
      </trkpt>
      <trkpt lat="42.6653290" lon="-7.1710390">
        <ele>902.8</ele>
        <time>2014-10-02T13:53:46Z</time>
      </trkpt>
      <trkpt lat="42.6653990" lon="-7.1709670">
        <ele>902.4</ele>
        <time>2014-10-02T13:53:47Z</time>
      </trkpt>
      <trkpt lat="42.6654740" lon="-7.1708940">
        <ele>902.1</ele>
        <time>2014-10-02T13:53:48Z</time>
      </trkpt>
      <trkpt lat="42.6655460" lon="-7.1708300">
        <ele>901.7</ele>
        <time>2014-10-02T13:53:49Z</time>
      </trkpt>
      <trkpt lat="42.6656200" lon="-7.1707640">
        <ele>901.4</ele>
        <time>2014-10-02T13:53:50Z</time>
      </trkpt>
      <trkpt lat="42.6656920" lon="-7.1706940">
        <ele>901.0</ele>
        <time>2014-10-02T13:53:51Z</time>
      </trkpt>
      <trkpt lat="42.6657610" lon="-7.1706180">
        <ele>900.7</ele>
        <time>2014-10-02T13:53:52Z</time>
      </trkpt>
      <trkpt lat="42.6658280" lon="-7.1705380">
        <ele>900.4</ele>
        <time>2014-10-02T13:53:53Z</time>
      </trkpt>
      <trkpt lat="42.6658970" lon="-7.1704570">
        <ele>900.2</ele>
        <time>2014-10-02T13:53:54Z</time>
      </trkpt>
      <trkpt lat="42.6659630" lon="-7.1703790">
        <ele>900.0</ele>
        <time>2014-10-02T13:53:55Z</time>
      </trkpt>
      <trkpt lat="42.6660310" lon="-7.1703020">
        <ele>899.7</ele>
        <time>2014-10-02T13:53:56Z</time>
      </trkpt>
      <trkpt lat="42.6661030" lon="-7.1702300">
        <ele>899.3</ele>
        <time>2014-10-02T13:53:57Z</time>
      </trkpt>
      <trkpt lat="42.6661870" lon="-7.1701770">
        <ele>899.0</ele>
        <time>2014-10-02T13:53:58Z</time>
      </trkpt>
      <trkpt lat="42.6662620" lon="-7.1701310">
        <ele>898.8</ele>
        <time>2014-10-02T13:53:59Z</time>
      </trkpt>
      <trkpt lat="42.6663270" lon="-7.1700960">
        <ele>898.7</ele>
        <time>2014-10-02T13:54:00Z</time>
      </trkpt>
      <trkpt lat="42.6664020" lon="-7.1700560">
        <ele>898.7</ele>
        <time>2014-10-02T13:54:01Z</time>
      </trkpt>
      <trkpt lat="42.6664690" lon="-7.1699880">
        <ele>898.7</ele>
        <time>2014-10-02T13:54:02Z</time>
      </trkpt>
      <trkpt lat="42.6665220" lon="-7.1699270">
        <ele>898.6</ele>
        <time>2014-10-02T13:54:03Z</time>
      </trkpt>
      <trkpt lat="42.6665760" lon="-7.1698580">
        <ele>898.4</ele>
        <time>2014-10-02T13:54:04Z</time>
      </trkpt>
      <trkpt lat="42.6666070" lon="-7.1697980">
        <ele>898.2</ele>
        <time>2014-10-02T13:54:05Z</time>
      </trkpt>
      <trkpt lat="42.6666240" lon="-7.1697510">
        <ele>898.1</ele>
        <time>2014-10-02T13:54:06Z</time>
      </trkpt>
      <trkpt lat="42.6665940" lon="-7.1696620">
        <ele>897.8</ele>
        <time>2014-10-02T13:54:07Z</time>
      </trkpt>
      <trkpt lat="42.6665300" lon="-7.1695520">
        <ele>897.4</ele>
        <time>2014-10-02T13:54:08Z</time>
      </trkpt>
      <trkpt lat="42.6664240" lon="-7.1694350">
        <ele>896.6</ele>
        <time>2014-10-02T13:54:09Z</time>
      </trkpt>
      <trkpt lat="42.6663250" lon="-7.1693310">
        <ele>895.8</ele>
        <time>2014-10-02T13:54:10Z</time>
      </trkpt>
      <trkpt lat="42.6662290" lon="-7.1692180">
        <ele>896.1</ele>
        <time>2014-10-02T13:54:11Z</time>
      </trkpt>
      <trkpt lat="42.6661400" lon="-7.1691070">
        <ele>897.8</ele>
        <time>2014-10-02T13:54:12Z</time>
      </trkpt>
      <trkpt lat="42.6660540" lon="-7.1690120">
        <ele>897.4</ele>
        <time>2014-10-02T13:54:13Z</time>
      </trkpt>
      <trkpt lat="42.6659640" lon="-7.1689270">
        <ele>896.6</ele>
        <time>2014-10-02T13:54:14Z</time>
      </trkpt>
      <trkpt lat="42.6658610" lon="-7.1688680">
        <ele>895.7</ele>
        <time>2014-10-02T13:54:15Z</time>
      </trkpt>
      <trkpt lat="42.6657520" lon="-7.1688070">
        <ele>894.8</ele>
        <time>2014-10-02T13:54:16Z</time>
      </trkpt>
      <trkpt lat="42.6656380" lon="-7.1687520">
        <ele>893.8</ele>
        <time>2014-10-02T13:54:17Z</time>
      </trkpt>
      <trkpt lat="42.6655240" lon="-7.1687100">
        <ele>892.8</ele>
        <time>2014-10-02T13:54:18Z</time>
      </trkpt>
      <trkpt lat="42.6654100" lon="-7.1687040">
        <ele>891.8</ele>
        <time>2014-10-02T13:54:19Z</time>
      </trkpt>
      <trkpt lat="42.6652940" lon="-7.1687000">
        <ele>890.6</ele>
        <time>2014-10-02T13:54:20Z</time>
      </trkpt>
      <trkpt lat="42.6651740" lon="-7.1686900">
        <ele>889.4</ele>
        <time>2014-10-02T13:54:21Z</time>
      </trkpt>
      <trkpt lat="42.6650580" lon="-7.1686390">
        <ele>888.2</ele>
        <time>2014-10-02T13:54:22Z</time>
      </trkpt>
      <trkpt lat="42.6649510" lon="-7.1685830">
        <ele>887.3</ele>
        <time>2014-10-02T13:54:23Z</time>
      </trkpt>
      <trkpt lat="42.6648770" lon="-7.1684680">
        <ele>886.4</ele>
        <time>2014-10-02T13:54:24Z</time>
      </trkpt>
      <trkpt lat="42.6648000" lon="-7.1683490">
        <ele>885.6</ele>
        <time>2014-10-02T13:54:25Z</time>
      </trkpt>
      <trkpt lat="42.6647510" lon="-7.1682120">
        <ele>884.8</ele>
        <time>2014-10-02T13:54:26Z</time>
      </trkpt>
      <trkpt lat="42.6647090" lon="-7.1680850">
        <ele>884.3</ele>
        <time>2014-10-02T13:54:27Z</time>
      </trkpt>
      <trkpt lat="42.6646700" lon="-7.1679790">
        <ele>883.7</ele>
        <time>2014-10-02T13:54:28Z</time>
      </trkpt>
      <trkpt lat="42.6646030" lon="-7.1679050">
        <ele>883.1</ele>
        <time>2014-10-02T13:54:29Z</time>
      </trkpt>
      <trkpt lat="42.6645090" lon="-7.1678370">
        <ele>882.3</ele>
        <time>2014-10-02T13:54:30Z</time>
      </trkpt>
      <trkpt lat="42.6644000" lon="-7.1677650">
        <ele>881.3</ele>
        <time>2014-10-02T13:54:31Z</time>
      </trkpt>
      <trkpt lat="42.6642940" lon="-7.1677020">
        <ele>880.2</ele>
        <time>2014-10-02T13:54:32Z</time>
      </trkpt>
      <trkpt lat="42.6642020" lon="-7.1676130">
        <ele>879.3</ele>
        <time>2014-10-02T13:54:33Z</time>
      </trkpt>
      <trkpt lat="42.6641190" lon="-7.1675170">
        <ele>878.6</ele>
        <time>2014-10-02T13:54:34Z</time>
      </trkpt>
      <trkpt lat="42.6640580" lon="-7.1673910">
        <ele>877.9</ele>
        <time>2014-10-02T13:54:35Z</time>
      </trkpt>
      <trkpt lat="42.6640060" lon="-7.1672600">
        <ele>877.3</ele>
        <time>2014-10-02T13:54:36Z</time>
      </trkpt>
      <trkpt lat="42.6639810" lon="-7.1671100">
        <ele>876.8</ele>
        <time>2014-10-02T13:54:37Z</time>
      </trkpt>
      <trkpt lat="42.6639640" lon="-7.1669600">
        <ele>876.3</ele>
        <time>2014-10-02T13:54:38Z</time>
      </trkpt>
      <trkpt lat="42.6639750" lon="-7.1668070">
        <ele>875.8</ele>
        <time>2014-10-02T13:54:39Z</time>
      </trkpt>
      <trkpt lat="42.6639920" lon="-7.1666610">
        <ele>875.3</ele>
        <time>2014-10-02T13:54:40Z</time>
      </trkpt>
      <trkpt lat="42.6640240" lon="-7.1665280">
        <ele>874.7</ele>
        <time>2014-10-02T13:54:41Z</time>
      </trkpt>
      <trkpt lat="42.6640400" lon="-7.1664040">
        <ele>874.3</ele>
        <time>2014-10-02T13:54:42Z</time>
      </trkpt>
      <trkpt lat="42.6640500" lon="-7.1662750">
        <ele>873.8</ele>
        <time>2014-10-02T13:54:43Z</time>
      </trkpt>
      <trkpt lat="42.6640160" lon="-7.1661760">
        <ele>873.2</ele>
        <time>2014-10-02T13:54:44Z</time>
      </trkpt>
      <trkpt lat="42.6639570" lon="-7.1661230">
        <ele>872.5</ele>
        <time>2014-10-02T13:54:45Z</time>
      </trkpt>
      <trkpt lat="42.6638760" lon="-7.1661010">
        <ele>871.6</ele>
        <time>2014-10-02T13:54:46Z</time>
      </trkpt>
      <trkpt lat="42.6637890" lon="-7.1660770">
        <ele>870.7</ele>
        <time>2014-10-02T13:54:47Z</time>
      </trkpt>
      <trkpt lat="42.6636950" lon="-7.1660370">
        <ele>869.6</ele>
        <time>2014-10-02T13:54:48Z</time>
      </trkpt>
      <trkpt lat="42.6636100" lon="-7.1659580">
        <ele>868.7</ele>
        <time>2014-10-02T13:54:49Z</time>
      </trkpt>
      <trkpt lat="42.6635250" lon="-7.1658650">
        <ele>868.0</ele>
        <time>2014-10-02T13:54:50Z</time>
      </trkpt>
      <trkpt lat="42.6634560" lon="-7.1657370">
        <ele>866.6</ele>
        <time>2014-10-02T13:54:51Z</time>
      </trkpt>
      <trkpt lat="42.6633870" lon="-7.1656030">
        <ele>864.8</ele>
        <time>2014-10-02T13:54:52Z</time>
      </trkpt>
      <trkpt lat="42.6633140" lon="-7.1654630">
        <ele>863.1</ele>
        <time>2014-10-02T13:54:53Z</time>
      </trkpt>
      <trkpt lat="42.6632410" lon="-7.1653230">
        <ele>861.3</ele>
        <time>2014-10-02T13:54:54Z</time>
      </trkpt>
      <trkpt lat="42.6631780" lon="-7.1651840">
        <ele>859.6</ele>
        <time>2014-10-02T13:54:55Z</time>
      </trkpt>
      <trkpt lat="42.6631090" lon="-7.1650330">
        <ele>857.8</ele>
        <time>2014-10-02T13:54:56Z</time>
      </trkpt>
      <trkpt lat="42.6630430" lon="-7.1648810">
        <ele>856.4</ele>
        <time>2014-10-02T13:54:57Z</time>
      </trkpt>
      <trkpt lat="42.6629790" lon="-7.1647290">
        <ele>855.3</ele>
        <time>2014-10-02T13:54:58Z</time>
      </trkpt>
      <trkpt lat="42.6629180" lon="-7.1645710">
        <ele>854.3</ele>
        <time>2014-10-02T13:54:59Z</time>
      </trkpt>
      <trkpt lat="42.6628610" lon="-7.1644230">
        <ele>853.6</ele>
        <time>2014-10-02T13:55:00Z</time>
      </trkpt>
      <trkpt lat="42.6627950" lon="-7.1642760">
        <ele>853.0</ele>
        <time>2014-10-02T13:55:01Z</time>
      </trkpt>
      <trkpt lat="42.6627290" lon="-7.1641480">
        <ele>852.7</ele>
        <time>2014-10-02T13:55:02Z</time>
      </trkpt>
      <trkpt lat="42.6626440" lon="-7.1640530">
        <ele>852.8</ele>
        <time>2014-10-02T13:55:03Z</time>
      </trkpt>
      <trkpt lat="42.6625670" lon="-7.1639830">
        <ele>853.1</ele>
        <time>2014-10-02T13:55:04Z</time>
      </trkpt>
      <trkpt lat="42.6625000" lon="-7.1639230">
        <ele>853.6</ele>
        <time>2014-10-02T13:55:05Z</time>
      </trkpt>
      <trkpt lat="42.6624340" lon="-7.1638710">
        <ele>854.2</ele>
        <time>2014-10-02T13:55:06Z</time>
      </trkpt>
      <trkpt lat="42.6623610" lon="-7.1638520">
        <ele>855.0</ele>
        <time>2014-10-02T13:55:07Z</time>
      </trkpt>
      <trkpt lat="42.6622910" lon="-7.1638350">
        <ele>855.8</ele>
        <time>2014-10-02T13:55:08Z</time>
      </trkpt>
      <trkpt lat="42.6622270" lon="-7.1638330">
        <ele>856.5</ele>
        <time>2014-10-02T13:55:09Z</time>
      </trkpt>
      <trkpt lat="42.6621700" lon="-7.1638500">
        <ele>857.1</ele>
        <time>2014-10-02T13:55:10Z</time>
      </trkpt>
      <trkpt lat="42.6621120" lon="-7.1638690">
        <ele>857.8</ele>
        <time>2014-10-02T13:55:11Z</time>
      </trkpt>
      <trkpt lat="42.6620690" lon="-7.1639020">
        <ele>858.4</ele>
        <time>2014-10-02T13:55:12Z</time>
      </trkpt>
      <trkpt lat="42.6620170" lon="-7.1639430">
        <ele>859.2</ele>
        <time>2014-10-02T13:55:13Z</time>
      </trkpt>
      <trkpt lat="42.6619730" lon="-7.1639840">
        <ele>860.0</ele>
        <time>2014-10-02T13:55:14Z</time>
      </trkpt>
      <trkpt lat="42.6619250" lon="-7.1640290">
        <ele>860.9</ele>
        <time>2014-10-02T13:55:15Z</time>
      </trkpt>
      <trkpt lat="42.6618740" lon="-7.1640750">
        <ele>861.6</ele>
        <time>2014-10-02T13:55:16Z</time>
      </trkpt>
      <trkpt lat="42.6618360" lon="-7.1641160">
        <ele>862.1</ele>
        <time>2014-10-02T13:55:17Z</time>
      </trkpt>
      <trkpt lat="42.6617970" lon="-7.1641560">
        <ele>862.5</ele>
        <time>2014-10-02T13:55:18Z</time>
      </trkpt>
      <trkpt lat="42.6617590" lon="-7.1641970">
        <ele>862.8</ele>
        <time>2014-10-02T13:55:19Z</time>
      </trkpt>
      <trkpt lat="42.6617220" lon="-7.1642330">
        <ele>863.1</ele>
        <time>2014-10-02T13:55:20Z</time>
      </trkpt>
      <trkpt lat="42.6616860" lon="-7.1642660">
        <ele>863.3</ele>
        <time>2014-10-02T13:55:21Z</time>
      </trkpt>
      <trkpt lat="42.6616500" lon="-7.1642980">
        <ele>863.5</ele>
        <time>2014-10-02T13:55:22Z</time>
      </trkpt>
      <trkpt lat="42.6616190" lon="-7.1643240">
        <ele>863.5</ele>
        <time>2014-10-02T13:55:23Z</time>
      </trkpt>
      <trkpt lat="42.6615890" lon="-7.1643460">
        <ele>863.6</ele>
        <time>2014-10-02T13:55:24Z</time>
      </trkpt>
      <trkpt lat="42.6615570" lon="-7.1643660">
        <ele>863.5</ele>
        <time>2014-10-02T13:55:25Z</time>
      </trkpt>
      <trkpt lat="42.6615070" lon="-7.1643940">
        <ele>863.5</ele>
        <time>2014-10-02T13:55:26Z</time>
      </trkpt>
      <trkpt lat="42.6614780" lon="-7.1644120">
        <ele>863.4</ele>
        <time>2014-10-02T13:55:27Z</time>
      </trkpt>
      <trkpt lat="42.6614390" lon="-7.1644310">
        <ele>863.4</ele>
        <time>2014-10-02T13:55:28Z</time>
      </trkpt>
      <trkpt lat="42.6613910" lon="-7.1644350">
        <ele>863.3</ele>
        <time>2014-10-02T13:55:29Z</time>
      </trkpt>
      <trkpt lat="42.6613400" lon="-7.1644380">
        <ele>863.1</ele>
        <time>2014-10-02T13:55:30Z</time>
      </trkpt>
      <trkpt lat="42.6612780" lon="-7.1644310">
        <ele>862.9</ele>
        <time>2014-10-02T13:55:31Z</time>
      </trkpt>
      <trkpt lat="42.6612090" lon="-7.1644190">
        <ele>862.6</ele>
        <time>2014-10-02T13:55:32Z</time>
      </trkpt>
      <trkpt lat="42.6611440" lon="-7.1643860">
        <ele>862.1</ele>
        <time>2014-10-02T13:55:33Z</time>
      </trkpt>
      <trkpt lat="42.6610770" lon="-7.1643500">
        <ele>861.4</ele>
        <time>2014-10-02T13:55:34Z</time>
      </trkpt>
      <trkpt lat="42.6610100" lon="-7.1642870">
        <ele>860.5</ele>
        <time>2014-10-02T13:55:35Z</time>
      </trkpt>
      <trkpt lat="42.6609440" lon="-7.1642230">
        <ele>859.6</ele>
        <time>2014-10-02T13:55:36Z</time>
      </trkpt>
      <trkpt lat="42.6608740" lon="-7.1641540">
        <ele>858.5</ele>
        <time>2014-10-02T13:55:37Z</time>
      </trkpt>
      <trkpt lat="42.6607960" lon="-7.1640760">
        <ele>857.3</ele>
        <time>2014-10-02T13:55:38Z</time>
      </trkpt>
      <trkpt lat="42.6607180" lon="-7.1639980">
        <ele>856.1</ele>
        <time>2014-10-02T13:55:39Z</time>
      </trkpt>
      <trkpt lat="42.6606370" lon="-7.1639160">
        <ele>854.9</ele>
        <time>2014-10-02T13:55:40Z</time>
      </trkpt>
      <trkpt lat="42.6605520" lon="-7.1638290">
        <ele>853.6</ele>
        <time>2014-10-02T13:55:41Z</time>
      </trkpt>
      <trkpt lat="42.6604660" lon="-7.1637420">
        <ele>852.3</ele>
        <time>2014-10-02T13:55:42Z</time>
      </trkpt>
      <trkpt lat="42.6603800" lon="-7.1636540">
        <ele>850.9</ele>
        <time>2014-10-02T13:55:43Z</time>
      </trkpt>
      <trkpt lat="42.6602960" lon="-7.1635680">
        <ele>849.7</ele>
        <time>2014-10-02T13:55:44Z</time>
      </trkpt>
      <trkpt lat="42.6602120" lon="-7.1634760">
        <ele>848.7</ele>
        <time>2014-10-02T13:55:45Z</time>
      </trkpt>
      <trkpt lat="42.6601300" lon="-7.1633790">
        <ele>847.8</ele>
        <time>2014-10-02T13:55:46Z</time>
      </trkpt>
      <trkpt lat="42.6600680" lon="-7.1632670">
        <ele>847.3</ele>
        <time>2014-10-02T13:55:47Z</time>
      </trkpt>
      <trkpt lat="42.6600330" lon="-7.1631390">
        <ele>847.0</ele>
        <time>2014-10-02T13:55:48Z</time>
      </trkpt>
      <trkpt lat="42.6600170" lon="-7.1629920">
        <ele>847.0</ele>
        <time>2014-10-02T13:55:49Z</time>
      </trkpt>
      <trkpt lat="42.6600250" lon="-7.1628500">
        <ele>846.9</ele>
        <time>2014-10-02T13:55:50Z</time>
      </trkpt>
      <trkpt lat="42.6600420" lon="-7.1627230">
        <ele>847.0</ele>
        <time>2014-10-02T13:55:51Z</time>
      </trkpt>
      <trkpt lat="42.6600650" lon="-7.1626090">
        <ele>847.1</ele>
        <time>2014-10-02T13:55:52Z</time>
      </trkpt>
      <trkpt lat="42.6600930" lon="-7.1624960">
        <ele>847.2</ele>
        <time>2014-10-02T13:55:53Z</time>
      </trkpt>
      <trkpt lat="42.6601300" lon="-7.1623780">
        <ele>847.3</ele>
        <time>2014-10-02T13:55:54Z</time>
      </trkpt>
      <trkpt lat="42.6601630" lon="-7.1622600">
        <ele>847.4</ele>
        <time>2014-10-02T13:55:55Z</time>
      </trkpt>
      <trkpt lat="42.6601910" lon="-7.1621440">
        <ele>847.6</ele>
        <time>2014-10-02T13:55:56Z</time>
      </trkpt>
      <trkpt lat="42.6602150" lon="-7.1620280">
        <ele>847.7</ele>
        <time>2014-10-02T13:55:57Z</time>
      </trkpt>
      <trkpt lat="42.6602380" lon="-7.1619160">
        <ele>847.8</ele>
        <time>2014-10-02T13:55:58Z</time>
      </trkpt>
      <trkpt lat="42.6602600" lon="-7.1618090">
        <ele>847.8</ele>
        <time>2014-10-02T13:55:59Z</time>
      </trkpt>
      <trkpt lat="42.6602870" lon="-7.1617180">
        <ele>847.8</ele>
        <time>2014-10-02T13:56:00Z</time>
      </trkpt>
      <trkpt lat="42.6603130" lon="-7.1616150">
        <ele>847.8</ele>
        <time>2014-10-02T13:56:01Z</time>
      </trkpt>
      <trkpt lat="42.6603350" lon="-7.1615150">
        <ele>847.8</ele>
        <time>2014-10-02T13:56:02Z</time>
      </trkpt>
      <trkpt lat="42.6603410" lon="-7.1614100">
        <ele>848.0</ele>
        <time>2014-10-02T13:56:03Z</time>
      </trkpt>
      <trkpt lat="42.6603470" lon="-7.1613060">
        <ele>848.2</ele>
        <time>2014-10-02T13:56:04Z</time>
      </trkpt>
      <trkpt lat="42.6603440" lon="-7.1612060">
        <ele>848.5</ele>
        <time>2014-10-02T13:56:05Z</time>
      </trkpt>
      <trkpt lat="42.6603280" lon="-7.1611040">
        <ele>848.7</ele>
        <time>2014-10-02T13:56:06Z</time>
      </trkpt>
      <trkpt lat="42.6603090" lon="-7.1610030">
        <ele>849.0</ele>
        <time>2014-10-02T13:56:07Z</time>
      </trkpt>
      <trkpt lat="42.6602880" lon="-7.1609110">
        <ele>849.2</ele>
        <time>2014-10-02T13:56:08Z</time>
      </trkpt>
      <trkpt lat="42.6602580" lon="-7.1608360">
        <ele>849.5</ele>
        <time>2014-10-02T13:56:09Z</time>
      </trkpt>
      <trkpt lat="42.6602260" lon="-7.1607640">
        <ele>849.7</ele>
        <time>2014-10-02T13:56:10Z</time>
      </trkpt>
      <trkpt lat="42.6601690" lon="-7.1607260">
        <ele>849.9</ele>
        <time>2014-10-02T13:56:11Z</time>
      </trkpt>
      <trkpt lat="42.6601190" lon="-7.1607000">
        <ele>849.9</ele>
        <time>2014-10-02T13:56:12Z</time>
      </trkpt>
      <trkpt lat="42.6600820" lon="-7.1606970">
        <ele>850.0</ele>
        <time>2014-10-02T13:56:13Z</time>
      </trkpt>
      <trkpt lat="42.6600230" lon="-7.1607180">
        <ele>850.1</ele>
        <time>2014-10-02T13:56:14Z</time>
      </trkpt>
      <trkpt lat="42.6599590" lon="-7.1607410">
        <ele>850.0</ele>
        <time>2014-10-02T13:56:15Z</time>
      </trkpt>
      <trkpt lat="42.6598910" lon="-7.1607670">
        <ele>850.0</ele>
        <time>2014-10-02T13:56:16Z</time>
      </trkpt>
      <trkpt lat="42.6598240" lon="-7.1607900">
        <ele>850.0</ele>
        <time>2014-10-02T13:56:17Z</time>
      </trkpt>
      <trkpt lat="42.6597540" lon="-7.1608080">
        <ele>850.1</ele>
        <time>2014-10-02T13:56:18Z</time>
      </trkpt>
      <trkpt lat="42.6596820" lon="-7.1608200">
        <ele>850.3</ele>
        <time>2014-10-02T13:56:19Z</time>
      </trkpt>
      <trkpt lat="42.6596250" lon="-7.1608330">
        <ele>850.5</ele>
        <time>2014-10-02T13:56:20Z</time>
      </trkpt>
      <trkpt lat="42.6595700" lon="-7.1608490">
        <ele>850.8</ele>
        <time>2014-10-02T13:56:21Z</time>
      </trkpt>
      <trkpt lat="42.6595170" lon="-7.1608640">
        <ele>851.0</ele>
        <time>2014-10-02T13:56:22Z</time>
      </trkpt>
      <trkpt lat="42.6594590" lon="-7.1608780">
        <ele>851.3</ele>
        <time>2014-10-02T13:56:23Z</time>
      </trkpt>
      <trkpt lat="42.6594000" lon="-7.1608880">
        <ele>851.7</ele>
        <time>2014-10-02T13:56:24Z</time>
      </trkpt>
      <trkpt lat="42.6593520" lon="-7.1608940">
        <ele>852.2</ele>
        <time>2014-10-02T13:56:25Z</time>
      </trkpt>
      <trkpt lat="42.6593020" lon="-7.1608760">
        <ele>852.6</ele>
        <time>2014-10-02T13:56:26Z</time>
      </trkpt>
      <trkpt lat="42.6592480" lon="-7.1608580">
        <ele>853.1</ele>
        <time>2014-10-02T13:56:27Z</time>
      </trkpt>
      <trkpt lat="42.6591990" lon="-7.1608400">
        <ele>853.6</ele>
        <time>2014-10-02T13:56:28Z</time>
      </trkpt>
      <trkpt lat="42.6591580" lon="-7.1608200">
        <ele>854.0</ele>
        <time>2014-10-02T13:56:29Z</time>
      </trkpt>
      <trkpt lat="42.6591180" lon="-7.1608030">
        <ele>854.5</ele>
        <time>2014-10-02T13:56:30Z</time>
      </trkpt>
      <trkpt lat="42.6590790" lon="-7.1607890">
        <ele>854.9</ele>
        <time>2014-10-02T13:56:31Z</time>
      </trkpt>
      <trkpt lat="42.6590380" lon="-7.1607750">
        <ele>855.3</ele>
        <time>2014-10-02T13:56:32Z</time>
      </trkpt>
      <trkpt lat="42.6589980" lon="-7.1607580">
        <ele>855.6</ele>
        <time>2014-10-02T13:56:33Z</time>
      </trkpt>
      <trkpt lat="42.6589550" lon="-7.1607440">
        <ele>856.0</ele>
        <time>2014-10-02T13:56:34Z</time>
      </trkpt>
      <trkpt lat="42.6589130" lon="-7.1607320">
        <ele>856.3</ele>
        <time>2014-10-02T13:56:35Z</time>
      </trkpt>
      <trkpt lat="42.6588770" lon="-7.1607160">
        <ele>856.5</ele>
        <time>2014-10-02T13:56:36Z</time>
      </trkpt>
      <trkpt lat="42.6588430" lon="-7.1606990">
        <ele>856.7</ele>
        <time>2014-10-02T13:56:37Z</time>
      </trkpt>
      <trkpt lat="42.6588040" lon="-7.1606780">
        <ele>856.9</ele>
        <time>2014-10-02T13:56:38Z</time>
      </trkpt>
      <trkpt lat="42.6587580" lon="-7.1606530">
        <ele>857.2</ele>
        <time>2014-10-02T13:56:39Z</time>
      </trkpt>
      <trkpt lat="42.6587080" lon="-7.1606250">
        <ele>857.3</ele>
        <time>2014-10-02T13:56:40Z</time>
      </trkpt>
      <trkpt lat="42.6586540" lon="-7.1605950">
        <ele>857.4</ele>
        <time>2014-10-02T13:56:41Z</time>
      </trkpt>
      <trkpt lat="42.6585980" lon="-7.1605610">
        <ele>857.4</ele>
        <time>2014-10-02T13:56:42Z</time>
      </trkpt>
      <trkpt lat="42.6585470" lon="-7.1605300">
        <ele>857.4</ele>
        <time>2014-10-02T13:56:43Z</time>
      </trkpt>
      <trkpt lat="42.6584900" lon="-7.1604940">
        <ele>857.4</ele>
        <time>2014-10-02T13:56:44Z</time>
      </trkpt>
      <trkpt lat="42.6584270" lon="-7.1604560">
        <ele>857.3</ele>
        <time>2014-10-02T13:56:45Z</time>
      </trkpt>
      <trkpt lat="42.6583680" lon="-7.1604220">
        <ele>858.0</ele>
        <time>2014-10-02T13:56:46Z</time>
      </trkpt>
      <trkpt lat="42.6583150" lon="-7.1603910">
        <ele>858.3</ele>
        <time>2014-10-02T13:56:47Z</time>
      </trkpt>
      <trkpt lat="42.6582590" lon="-7.1603620">
        <ele>858.4</ele>
        <time>2014-10-02T13:56:48Z</time>
      </trkpt>
      <trkpt lat="42.6582010" lon="-7.1603360">
        <ele>858.4</ele>
        <time>2014-10-02T13:56:49Z</time>
      </trkpt>
      <trkpt lat="42.6581380" lon="-7.1603140">
        <ele>858.4</ele>
        <time>2014-10-02T13:56:50Z</time>
      </trkpt>
      <trkpt lat="42.6580770" lon="-7.1602980">
        <ele>858.4</ele>
        <time>2014-10-02T13:56:51Z</time>
      </trkpt>
      <trkpt lat="42.6580140" lon="-7.1602840">
        <ele>858.4</ele>
        <time>2014-10-02T13:56:52Z</time>
      </trkpt>
      <trkpt lat="42.6579530" lon="-7.1602700">
        <ele>858.4</ele>
        <time>2014-10-02T13:56:53Z</time>
      </trkpt>
      <trkpt lat="42.6578920" lon="-7.1602570">
        <ele>858.3</ele>
        <time>2014-10-02T13:56:54Z</time>
      </trkpt>
      <trkpt lat="42.6578270" lon="-7.1602480">
        <ele>858.1</ele>
        <time>2014-10-02T13:56:55Z</time>
      </trkpt>
      <trkpt lat="42.6577600" lon="-7.1602400">
        <ele>857.8</ele>
        <time>2014-10-02T13:56:56Z</time>
      </trkpt>
      <trkpt lat="42.6576860" lon="-7.1602310">
        <ele>857.5</ele>
        <time>2014-10-02T13:56:57Z</time>
      </trkpt>
      <trkpt lat="42.6576150" lon="-7.1602200">
        <ele>857.2</ele>
        <time>2014-10-02T13:56:58Z</time>
      </trkpt>
      <trkpt lat="42.6575460" lon="-7.1602110">
        <ele>856.8</ele>
        <time>2014-10-02T13:56:59Z</time>
      </trkpt>
      <trkpt lat="42.6574690" lon="-7.1601950">
        <ele>856.3</ele>
        <time>2014-10-02T13:57:00Z</time>
      </trkpt>
      <trkpt lat="42.6573890" lon="-7.1601720">
        <ele>855.8</ele>
        <time>2014-10-02T13:57:01Z</time>
      </trkpt>
      <trkpt lat="42.6573010" lon="-7.1601390">
        <ele>855.2</ele>
        <time>2014-10-02T13:57:02Z</time>
      </trkpt>
      <trkpt lat="42.6572320" lon="-7.1600770">
        <ele>854.7</ele>
        <time>2014-10-02T13:57:03Z</time>
      </trkpt>
      <trkpt lat="42.6571850" lon="-7.1599820">
        <ele>854.0</ele>
        <time>2014-10-02T13:57:04Z</time>
      </trkpt>
      <trkpt lat="42.6571630" lon="-7.1598710">
        <ele>853.3</ele>
        <time>2014-10-02T13:57:05Z</time>
      </trkpt>
      <trkpt lat="42.6571690" lon="-7.1597420">
        <ele>852.7</ele>
        <time>2014-10-02T13:57:06Z</time>
      </trkpt>
      <trkpt lat="42.6572020" lon="-7.1596130">
        <ele>852.2</ele>
        <time>2014-10-02T13:57:07Z</time>
      </trkpt>
      <trkpt lat="42.6572430" lon="-7.1594780">
        <ele>851.8</ele>
        <time>2014-10-02T13:57:08Z</time>
      </trkpt>
      <trkpt lat="42.6572890" lon="-7.1593390">
        <ele>851.5</ele>
        <time>2014-10-02T13:57:09Z</time>
      </trkpt>
      <trkpt lat="42.6573380" lon="-7.1592120">
        <ele>851.3</ele>
        <time>2014-10-02T13:57:10Z</time>
      </trkpt>
      <trkpt lat="42.6573900" lon="-7.1590840">
        <ele>851.2</ele>
        <time>2014-10-02T13:57:11Z</time>
      </trkpt>
      <trkpt lat="42.6574420" lon="-7.1589620">
        <ele>850.8</ele>
        <time>2014-10-02T13:57:12Z</time>
      </trkpt>
      <trkpt lat="42.6574900" lon="-7.1588500">
        <ele>850.4</ele>
        <time>2014-10-02T13:57:13Z</time>
      </trkpt>
      <trkpt lat="42.6575330" lon="-7.1587520">
        <ele>850.0</ele>
        <time>2014-10-02T13:57:14Z</time>
      </trkpt>
      <trkpt lat="42.6575790" lon="-7.1586430">
        <ele>849.6</ele>
        <time>2014-10-02T13:57:15Z</time>
      </trkpt>
      <trkpt lat="42.6576240" lon="-7.1585420">
        <ele>849.3</ele>
        <time>2014-10-02T13:57:16Z</time>
      </trkpt>
      <trkpt lat="42.6576700" lon="-7.1584210">
        <ele>849.3</ele>
        <time>2014-10-02T13:57:17Z</time>
      </trkpt>
      <trkpt lat="42.6577180" lon="-7.1582900">
        <ele>849.6</ele>
        <time>2014-10-02T13:57:18Z</time>
      </trkpt>
      <trkpt lat="42.6577530" lon="-7.1581660">
        <ele>849.7</ele>
        <time>2014-10-02T13:57:19Z</time>
      </trkpt>
      <trkpt lat="42.6577910" lon="-7.1580430">
        <ele>849.8</ele>
        <time>2014-10-02T13:57:20Z</time>
      </trkpt>
      <trkpt lat="42.6578240" lon="-7.1579250">
        <ele>849.8</ele>
        <time>2014-10-02T13:57:21Z</time>
      </trkpt>
      <trkpt lat="42.6578540" lon="-7.1578250">
        <ele>849.8</ele>
        <time>2014-10-02T13:57:22Z</time>
      </trkpt>
      <trkpt lat="42.6578880" lon="-7.1577250">
        <ele>849.9</ele>
        <time>2014-10-02T13:57:23Z</time>
      </trkpt>
      <trkpt lat="42.6579390" lon="-7.1576220">
        <ele>850.0</ele>
        <time>2014-10-02T13:57:24Z</time>
      </trkpt>
      <trkpt lat="42.6579950" lon="-7.1575270">
        <ele>850.1</ele>
        <time>2014-10-02T13:57:25Z</time>
      </trkpt>
      <trkpt lat="42.6580460" lon="-7.1574290">
        <ele>850.2</ele>
        <time>2014-10-02T13:57:26Z</time>
      </trkpt>
      <trkpt lat="42.6580990" lon="-7.1573270">
        <ele>850.2</ele>
        <time>2014-10-02T13:57:27Z</time>
      </trkpt>
      <trkpt lat="42.6581470" lon="-7.1572310">
        <ele>850.3</ele>
        <time>2014-10-02T13:57:28Z</time>
      </trkpt>
      <trkpt lat="42.6581990" lon="-7.1571290">
        <ele>850.2</ele>
        <time>2014-10-02T13:57:29Z</time>
      </trkpt>
      <trkpt lat="42.6582510" lon="-7.1570240">
        <ele>850.2</ele>
        <time>2014-10-02T13:57:30Z</time>
      </trkpt>
      <trkpt lat="42.6582830" lon="-7.1569230">
        <ele>850.2</ele>
        <time>2014-10-02T13:57:31Z</time>
      </trkpt>
      <trkpt lat="42.6583220" lon="-7.1568000">
        <ele>850.3</ele>
        <time>2014-10-02T13:57:32Z</time>
      </trkpt>
      <trkpt lat="42.6583200" lon="-7.1566770">
        <ele>850.4</ele>
        <time>2014-10-02T13:57:33Z</time>
      </trkpt>
      <trkpt lat="42.6583090" lon="-7.1565520">
        <ele>850.5</ele>
        <time>2014-10-02T13:57:34Z</time>
      </trkpt>
      <trkpt lat="42.6582450" lon="-7.1564490">
        <ele>850.7</ele>
        <time>2014-10-02T13:57:35Z</time>
      </trkpt>
      <trkpt lat="42.6581790" lon="-7.1563670">
        <ele>851.0</ele>
        <time>2014-10-02T13:57:36Z</time>
      </trkpt>
      <trkpt lat="42.6581090" lon="-7.1563200">
        <ele>851.2</ele>
        <time>2014-10-02T13:57:37Z</time>
      </trkpt>
      <trkpt lat="42.6580500" lon="-7.1562830">
        <ele>851.5</ele>
        <time>2014-10-02T13:57:38Z</time>
      </trkpt>
      <trkpt lat="42.6579820" lon="-7.1562460">
        <ele>851.8</ele>
        <time>2014-10-02T13:57:39Z</time>
      </trkpt>
      <trkpt lat="42.6579110" lon="-7.1562130">
        <ele>851.9</ele>
        <time>2014-10-02T13:57:40Z</time>
      </trkpt>
      <trkpt lat="42.6578390" lon="-7.1561830">
        <ele>852.0</ele>
        <time>2014-10-02T13:57:41Z</time>
      </trkpt>
      <trkpt lat="42.6577750" lon="-7.1561770">
        <ele>852.0</ele>
        <time>2014-10-02T13:57:42Z</time>
      </trkpt>
      <trkpt lat="42.6577090" lon="-7.1561780">
        <ele>852.0</ele>
        <time>2014-10-02T13:57:43Z</time>
      </trkpt>
      <trkpt lat="42.6576380" lon="-7.1561820">
        <ele>851.9</ele>
        <time>2014-10-02T13:57:44Z</time>
      </trkpt>
      <trkpt lat="42.6575690" lon="-7.1561910">
        <ele>851.8</ele>
        <time>2014-10-02T13:57:45Z</time>
      </trkpt>
      <trkpt lat="42.6575050" lon="-7.1562020">
        <ele>851.7</ele>
        <time>2014-10-02T13:57:46Z</time>
      </trkpt>
      <trkpt lat="42.6574440" lon="-7.1562160">
        <ele>851.7</ele>
        <time>2014-10-02T13:57:47Z</time>
      </trkpt>
      <trkpt lat="42.6573790" lon="-7.1562350">
        <ele>851.6</ele>
        <time>2014-10-02T13:57:48Z</time>
      </trkpt>
      <trkpt lat="42.6573060" lon="-7.1562630">
        <ele>851.6</ele>
        <time>2014-10-02T13:57:49Z</time>
      </trkpt>
      <trkpt lat="42.6572270" lon="-7.1562930">
        <ele>851.4</ele>
        <time>2014-10-02T13:57:50Z</time>
      </trkpt>
      <trkpt lat="42.6571530" lon="-7.1563240">
        <ele>851.0</ele>
        <time>2014-10-02T13:57:51Z</time>
      </trkpt>
      <trkpt lat="42.6570800" lon="-7.1563640">
        <ele>850.6</ele>
        <time>2014-10-02T13:57:52Z</time>
      </trkpt>
      <trkpt lat="42.6570070" lon="-7.1564080">
        <ele>850.2</ele>
        <time>2014-10-02T13:57:53Z</time>
      </trkpt>
      <trkpt lat="42.6569350" lon="-7.1564530">
        <ele>849.8</ele>
        <time>2014-10-02T13:57:54Z</time>
      </trkpt>
      <trkpt lat="42.6568550" lon="-7.1565020">
        <ele>849.5</ele>
        <time>2014-10-02T13:57:55Z</time>
      </trkpt>
      <trkpt lat="42.6567880" lon="-7.1565450">
        <ele>849.3</ele>
        <time>2014-10-02T13:57:56Z</time>
      </trkpt>
      <trkpt lat="42.6567170" lon="-7.1565940">
        <ele>849.2</ele>
        <time>2014-10-02T13:57:57Z</time>
      </trkpt>
      <trkpt lat="42.6566400" lon="-7.1566360">
        <ele>848.9</ele>
        <time>2014-10-02T13:57:58Z</time>
      </trkpt>
      <trkpt lat="42.6565520" lon="-7.1566730">
        <ele>848.6</ele>
        <time>2014-10-02T13:57:59Z</time>
      </trkpt>
      <trkpt lat="42.6564610" lon="-7.1567050">
        <ele>848.3</ele>
        <time>2014-10-02T13:58:00Z</time>
      </trkpt>
      <trkpt lat="42.6563580" lon="-7.1567320">
        <ele>848.0</ele>
        <time>2014-10-02T13:58:01Z</time>
      </trkpt>
      <trkpt lat="42.6562590" lon="-7.1567290">
        <ele>847.8</ele>
        <time>2014-10-02T13:58:02Z</time>
      </trkpt>
      <trkpt lat="42.6561550" lon="-7.1567270">
        <ele>847.6</ele>
        <time>2014-10-02T13:58:03Z</time>
      </trkpt>
      <trkpt lat="42.6560470" lon="-7.1567150">
        <ele>847.6</ele>
        <time>2014-10-02T13:58:04Z</time>
      </trkpt>
      <trkpt lat="42.6559360" lon="-7.1567050">
        <ele>847.6</ele>
        <time>2014-10-02T13:58:05Z</time>
      </trkpt>
      <trkpt lat="42.6558400" lon="-7.1566900">
        <ele>847.8</ele>
        <time>2014-10-02T13:58:06Z</time>
      </trkpt>
      <trkpt lat="42.6557320" lon="-7.1566800">
        <ele>847.8</ele>
        <time>2014-10-02T13:58:07Z</time>
      </trkpt>
      <trkpt lat="42.6556300" lon="-7.1566700">
        <ele>847.6</ele>
        <time>2014-10-02T13:58:08Z</time>
      </trkpt>
      <trkpt lat="42.6555390" lon="-7.1566590">
        <ele>847.4</ele>
        <time>2014-10-02T13:58:09Z</time>
      </trkpt>
      <trkpt lat="42.6554550" lon="-7.1566490">
        <ele>847.2</ele>
        <time>2014-10-02T13:58:10Z</time>
      </trkpt>
      <trkpt lat="42.6553670" lon="-7.1566380">
        <ele>847.1</ele>
        <time>2014-10-02T13:58:11Z</time>
      </trkpt>
      <trkpt lat="42.6552780" lon="-7.1566260">
        <ele>847.0</ele>
        <time>2014-10-02T13:58:12Z</time>
      </trkpt>
      <trkpt lat="42.6551900" lon="-7.1566140">
        <ele>846.9</ele>
        <time>2014-10-02T13:58:13Z</time>
      </trkpt>
      <trkpt lat="42.6550920" lon="-7.1566010">
        <ele>846.8</ele>
        <time>2014-10-02T13:58:14Z</time>
      </trkpt>
      <trkpt lat="42.6550010" lon="-7.1565870">
        <ele>846.7</ele>
        <time>2014-10-02T13:58:15Z</time>
      </trkpt>
      <trkpt lat="42.6549100" lon="-7.1565700">
        <ele>846.6</ele>
        <time>2014-10-02T13:58:16Z</time>
      </trkpt>
      <trkpt lat="42.6548160" lon="-7.1565600">
        <ele>846.5</ele>
        <time>2014-10-02T13:58:17Z</time>
      </trkpt>
      <trkpt lat="42.6547220" lon="-7.1565560">
        <ele>845.5</ele>
        <time>2014-10-02T13:58:18Z</time>
      </trkpt>
      <trkpt lat="42.6546270" lon="-7.1565550">
        <ele>842.9</ele>
        <time>2014-10-02T13:58:19Z</time>
      </trkpt>
      <trkpt lat="42.6545370" lon="-7.1565660">
        <ele>840.8</ele>
        <time>2014-10-02T13:58:20Z</time>
      </trkpt>
      <trkpt lat="42.6544420" lon="-7.1565890">
        <ele>838.6</ele>
        <time>2014-10-02T13:58:21Z</time>
      </trkpt>
      <trkpt lat="42.6543550" lon="-7.1566370">
        <ele>836.3</ele>
        <time>2014-10-02T13:58:22Z</time>
      </trkpt>
      <trkpt lat="42.6542670" lon="-7.1566890">
        <ele>834.1</ele>
        <time>2014-10-02T13:58:23Z</time>
      </trkpt>
      <trkpt lat="42.6541770" lon="-7.1567420">
        <ele>833.0</ele>
        <time>2014-10-02T13:58:24Z</time>
      </trkpt>
      <trkpt lat="42.6540820" lon="-7.1567930">
        <ele>832.0</ele>
        <time>2014-10-02T13:58:25Z</time>
      </trkpt>
      <trkpt lat="42.6539790" lon="-7.1568370">
        <ele>830.9</ele>
        <time>2014-10-02T13:58:26Z</time>
      </trkpt>
      <trkpt lat="42.6538700" lon="-7.1568740">
        <ele>829.9</ele>
        <time>2014-10-02T13:58:27Z</time>
      </trkpt>
      <trkpt lat="42.6537560" lon="-7.1568960">
        <ele>828.7</ele>
        <time>2014-10-02T13:58:28Z</time>
      </trkpt>
      <trkpt lat="42.6536320" lon="-7.1568840">
        <ele>827.1</ele>
        <time>2014-10-02T13:58:29Z</time>
      </trkpt>
      <trkpt lat="42.6535140" lon="-7.1568660">
        <ele>826.3</ele>
        <time>2014-10-02T13:58:30Z</time>
      </trkpt>
      <trkpt lat="42.6534080" lon="-7.1568390">
        <ele>826.7</ele>
        <time>2014-10-02T13:58:31Z</time>
      </trkpt>
      <trkpt lat="42.6533030" lon="-7.1567780">
        <ele>827.2</ele>
        <time>2014-10-02T13:58:32Z</time>
      </trkpt>
      <trkpt lat="42.6531960" lon="-7.1567140">
        <ele>827.9</ele>
        <time>2014-10-02T13:58:33Z</time>
      </trkpt>
      <trkpt lat="42.6530930" lon="-7.1566460">
        <ele>828.5</ele>
        <time>2014-10-02T13:58:34Z</time>
      </trkpt>
      <trkpt lat="42.6529890" lon="-7.1565750">
        <ele>829.1</ele>
        <time>2014-10-02T13:58:35Z</time>
      </trkpt>
      <trkpt lat="42.6528920" lon="-7.1565030">
        <ele>829.8</ele>
        <time>2014-10-02T13:58:36Z</time>
      </trkpt>
      <trkpt lat="42.6528130" lon="-7.1564310">
        <ele>830.1</ele>
        <time>2014-10-02T13:58:37Z</time>
      </trkpt>
      <trkpt lat="42.6527530" lon="-7.1563340">
        <ele>830.4</ele>
        <time>2014-10-02T13:58:38Z</time>
      </trkpt>
      <trkpt lat="42.6526890" lon="-7.1562280">
        <ele>830.7</ele>
        <time>2014-10-02T13:58:39Z</time>
      </trkpt>
      <trkpt lat="42.6526360" lon="-7.1561250">
        <ele>830.9</ele>
        <time>2014-10-02T13:58:40Z</time>
      </trkpt>
      <trkpt lat="42.6526020" lon="-7.1560000">
        <ele>830.9</ele>
        <time>2014-10-02T13:58:41Z</time>
      </trkpt>
      <trkpt lat="42.6525570" lon="-7.1558530">
        <ele>830.9</ele>
        <time>2014-10-02T13:58:42Z</time>
      </trkpt>
      <trkpt lat="42.6525200" lon="-7.1556850">
        <ele>830.8</ele>
        <time>2014-10-02T13:58:43Z</time>
      </trkpt>
      <trkpt lat="42.6524980" lon="-7.1555190">
        <ele>830.5</ele>
        <time>2014-10-02T13:58:44Z</time>
      </trkpt>
      <trkpt lat="42.6524720" lon="-7.1553650">
        <ele>830.3</ele>
        <time>2014-10-02T13:58:45Z</time>
      </trkpt>
      <trkpt lat="42.6524420" lon="-7.1552030">
        <ele>830.0</ele>
        <time>2014-10-02T13:58:46Z</time>
      </trkpt>
      <trkpt lat="42.6524080" lon="-7.1550390">
        <ele>829.9</ele>
        <time>2014-10-02T13:58:47Z</time>
      </trkpt>
      <trkpt lat="42.6523730" lon="-7.1548710">
        <ele>830.0</ele>
        <time>2014-10-02T13:58:48Z</time>
      </trkpt>
      <trkpt lat="42.6523350" lon="-7.1547210">
        <ele>830.2</ele>
        <time>2014-10-02T13:58:49Z</time>
      </trkpt>
      <trkpt lat="42.6522920" lon="-7.1545810">
        <ele>830.3</ele>
        <time>2014-10-02T13:58:50Z</time>
      </trkpt>
      <trkpt lat="42.6522450" lon="-7.1544450">
        <ele>830.6</ele>
        <time>2014-10-02T13:58:51Z</time>
      </trkpt>
      <trkpt lat="42.6521490" lon="-7.1543760">
        <ele>830.9</ele>
        <time>2014-10-02T13:58:52Z</time>
      </trkpt>
      <trkpt lat="42.6520610" lon="-7.1543140">
        <ele>830.7</ele>
        <time>2014-10-02T13:58:53Z</time>
      </trkpt>
      <trkpt lat="42.6519620" lon="-7.1542460">
        <ele>829.8</ele>
        <time>2014-10-02T13:58:54Z</time>
      </trkpt>
      <trkpt lat="42.6518810" lon="-7.1541230">
        <ele>828.4</ele>
        <time>2014-10-02T13:58:55Z</time>
      </trkpt>
      <trkpt lat="42.6518110" lon="-7.1540060">
        <ele>827.1</ele>
        <time>2014-10-02T13:58:56Z</time>
      </trkpt>
      <trkpt lat="42.6517350" lon="-7.1538800">
        <ele>825.7</ele>
        <time>2014-10-02T13:58:57Z</time>
      </trkpt>
      <trkpt lat="42.6516880" lon="-7.1537160">
        <ele>824.5</ele>
        <time>2014-10-02T13:58:58Z</time>
      </trkpt>
      <trkpt lat="42.6516390" lon="-7.1535650">
        <ele>823.4</ele>
        <time>2014-10-02T13:58:59Z</time>
      </trkpt>
      <trkpt lat="42.6515910" lon="-7.1534170">
        <ele>822.5</ele>
        <time>2014-10-02T13:59:00Z</time>
      </trkpt>
      <trkpt lat="42.6515300" lon="-7.1533010">
        <ele>821.5</ele>
        <time>2014-10-02T13:59:01Z</time>
      </trkpt>
      <trkpt lat="42.6514680" lon="-7.1531890">
        <ele>820.7</ele>
        <time>2014-10-02T13:59:02Z</time>
      </trkpt>
      <trkpt lat="42.6514000" lon="-7.1530740">
        <ele>819.8</ele>
        <time>2014-10-02T13:59:03Z</time>
      </trkpt>
      <trkpt lat="42.6513120" lon="-7.1529480">
        <ele>818.9</ele>
        <time>2014-10-02T13:59:04Z</time>
      </trkpt>
      <trkpt lat="42.6512260" lon="-7.1528630">
        <ele>818.2</ele>
        <time>2014-10-02T13:59:05Z</time>
      </trkpt>
      <trkpt lat="42.6511320" lon="-7.1527790">
        <ele>817.5</ele>
        <time>2014-10-02T13:59:06Z</time>
      </trkpt>
      <trkpt lat="42.6510560" lon="-7.1527160">
        <ele>817.2</ele>
        <time>2014-10-02T13:59:07Z</time>
      </trkpt>
      <trkpt lat="42.6509460" lon="-7.1526920">
        <ele>816.9</ele>
        <time>2014-10-02T13:59:08Z</time>
      </trkpt>
      <trkpt lat="42.6508630" lon="-7.1527050">
        <ele>816.7</ele>
        <time>2014-10-02T13:59:09Z</time>
      </trkpt>
      <trkpt lat="42.6508030" lon="-7.1527550">
        <ele>816.5</ele>
        <time>2014-10-02T13:59:10Z</time>
      </trkpt>
      <trkpt lat="42.6507540" lon="-7.1528140">
        <ele>816.3</ele>
        <time>2014-10-02T13:59:11Z</time>
      </trkpt>
      <trkpt lat="42.6506860" lon="-7.1529040">
        <ele>815.9</ele>
        <time>2014-10-02T13:59:12Z</time>
      </trkpt>
      <trkpt lat="42.6506240" lon="-7.1530090">
        <ele>815.6</ele>
        <time>2014-10-02T13:59:13Z</time>
      </trkpt>
      <trkpt lat="42.6505560" lon="-7.1531150">
        <ele>815.3</ele>
        <time>2014-10-02T13:59:14Z</time>
      </trkpt>
      <trkpt lat="42.6504810" lon="-7.1532200">
        <ele>815.0</ele>
        <time>2014-10-02T13:59:15Z</time>
      </trkpt>
      <trkpt lat="42.6503950" lon="-7.1533350">
        <ele>814.4</ele>
        <time>2014-10-02T13:59:16Z</time>
      </trkpt>
      <trkpt lat="42.6502890" lon="-7.1533850">
        <ele>814.0</ele>
        <time>2014-10-02T13:59:17Z</time>
      </trkpt>
      <trkpt lat="42.6501830" lon="-7.1534190">
        <ele>813.6</ele>
        <time>2014-10-02T13:59:18Z</time>
      </trkpt>
      <trkpt lat="42.6500660" lon="-7.1533950">
        <ele>813.1</ele>
        <time>2014-10-02T13:59:19Z</time>
      </trkpt>
      <trkpt lat="42.6499460" lon="-7.1533610">
        <ele>812.5</ele>
        <time>2014-10-02T13:59:20Z</time>
      </trkpt>
      <trkpt lat="42.6498220" lon="-7.1533130">
        <ele>812.0</ele>
        <time>2014-10-02T13:59:21Z</time>
      </trkpt>
      <trkpt lat="42.6497040" lon="-7.1532570">
        <ele>811.6</ele>
        <time>2014-10-02T13:59:22Z</time>
      </trkpt>
      <trkpt lat="42.6495960" lon="-7.1531930">
        <ele>811.2</ele>
        <time>2014-10-02T13:59:23Z</time>
      </trkpt>
      <trkpt lat="42.6494990" lon="-7.1531250">
        <ele>810.7</ele>
        <time>2014-10-02T13:59:24Z</time>
      </trkpt>
      <trkpt lat="42.6494000" lon="-7.1530480">
        <ele>810.2</ele>
        <time>2014-10-02T13:59:25Z</time>
      </trkpt>
      <trkpt lat="42.6493130" lon="-7.1529780">
        <ele>809.9</ele>
        <time>2014-10-02T13:59:26Z</time>
      </trkpt>
      <trkpt lat="42.6492300" lon="-7.1529040">
        <ele>809.7</ele>
        <time>2014-10-02T13:59:27Z</time>
      </trkpt>
      <trkpt lat="42.6491510" lon="-7.1528300">
        <ele>809.5</ele>
        <time>2014-10-02T13:59:28Z</time>
      </trkpt>
      <trkpt lat="42.6490780" lon="-7.1527560">
        <ele>809.3</ele>
        <time>2014-10-02T13:59:29Z</time>
      </trkpt>
      <trkpt lat="42.6490060" lon="-7.1526880">
        <ele>809.1</ele>
        <time>2014-10-02T13:59:30Z</time>
      </trkpt>
      <trkpt lat="42.6489090" lon="-7.1526320">
        <ele>809.0</ele>
        <time>2014-10-02T13:59:31Z</time>
      </trkpt>
      <trkpt lat="42.6488150" lon="-7.1525830">
        <ele>808.8</ele>
        <time>2014-10-02T13:59:32Z</time>
      </trkpt>
      <trkpt lat="42.6487200" lon="-7.1525430">
        <ele>808.6</ele>
        <time>2014-10-02T13:59:33Z</time>
      </trkpt>
      <trkpt lat="42.6486280" lon="-7.1525120">
        <ele>808.4</ele>
        <time>2014-10-02T13:59:34Z</time>
      </trkpt>
      <trkpt lat="42.6485350" lon="-7.1524830">
        <ele>808.1</ele>
        <time>2014-10-02T13:59:35Z</time>
      </trkpt>
      <trkpt lat="42.6484450" lon="-7.1524520">
        <ele>807.7</ele>
        <time>2014-10-02T13:59:36Z</time>
      </trkpt>
      <trkpt lat="42.6483680" lon="-7.1523900">
        <ele>807.3</ele>
        <time>2014-10-02T13:59:37Z</time>
      </trkpt>
      <trkpt lat="42.6482770" lon="-7.1523190">
        <ele>806.8</ele>
        <time>2014-10-02T13:59:38Z</time>
      </trkpt>
      <trkpt lat="42.6481950" lon="-7.1522540">
        <ele>806.4</ele>
        <time>2014-10-02T13:59:39Z</time>
      </trkpt>
      <trkpt lat="42.6481100" lon="-7.1521880">
        <ele>805.9</ele>
        <time>2014-10-02T13:59:40Z</time>
      </trkpt>
      <trkpt lat="42.6480280" lon="-7.1521120">
        <ele>805.3</ele>
        <time>2014-10-02T13:59:41Z</time>
      </trkpt>
      <trkpt lat="42.6479380" lon="-7.1520330">
        <ele>804.7</ele>
        <time>2014-10-02T13:59:42Z</time>
      </trkpt>
      <trkpt lat="42.6478340" lon="-7.1519500">
        <ele>803.7</ele>
        <time>2014-10-02T13:59:43Z</time>
      </trkpt>
      <trkpt lat="42.6477430" lon="-7.1518790">
        <ele>802.9</ele>
        <time>2014-10-02T13:59:44Z</time>
      </trkpt>
      <trkpt lat="42.6476480" lon="-7.1518170">
        <ele>802.2</ele>
        <time>2014-10-02T13:59:45Z</time>
      </trkpt>
      <trkpt lat="42.6475430" lon="-7.1517570">
        <ele>801.6</ele>
        <time>2014-10-02T13:59:46Z</time>
      </trkpt>
      <trkpt lat="42.6474340" lon="-7.1516990">
        <ele>801.0</ele>
        <time>2014-10-02T13:59:47Z</time>
      </trkpt>
      <trkpt lat="42.6473370" lon="-7.1516410">
        <ele>800.3</ele>
        <time>2014-10-02T13:59:48Z</time>
      </trkpt>
      <trkpt lat="42.6472460" lon="-7.1515890">
        <ele>799.3</ele>
        <time>2014-10-02T13:59:49Z</time>
      </trkpt>
      <trkpt lat="42.6471410" lon="-7.1515490">
        <ele>798.0</ele>
        <time>2014-10-02T13:59:50Z</time>
      </trkpt>
      <trkpt lat="42.6470170" lon="-7.1514970">
        <ele>796.1</ele>
        <time>2014-10-02T13:59:51Z</time>
      </trkpt>
      <trkpt lat="42.6468900" lon="-7.1514550">
        <ele>794.3</ele>
        <time>2014-10-02T13:59:52Z</time>
      </trkpt>
      <trkpt lat="42.6467620" lon="-7.1514190">
        <ele>792.5</ele>
        <time>2014-10-02T13:59:53Z</time>
      </trkpt>
      <trkpt lat="42.6466300" lon="-7.1513880">
        <ele>790.8</ele>
        <time>2014-10-02T13:59:54Z</time>
      </trkpt>
      <trkpt lat="42.6464940" lon="-7.1513620">
        <ele>789.0</ele>
        <time>2014-10-02T13:59:55Z</time>
      </trkpt>
      <trkpt lat="42.6463500" lon="-7.1513450">
        <ele>787.1</ele>
        <time>2014-10-02T13:59:56Z</time>
      </trkpt>
      <trkpt lat="42.6462100" lon="-7.1513270">
        <ele>785.8</ele>
        <time>2014-10-02T13:59:57Z</time>
      </trkpt>
      <trkpt lat="42.6460720" lon="-7.1513170">
        <ele>784.5</ele>
        <time>2014-10-02T13:59:58Z</time>
      </trkpt>
      <trkpt lat="42.6459400" lon="-7.1513130">
        <ele>783.1</ele>
        <time>2014-10-02T13:59:59Z</time>
      </trkpt>
      <trkpt lat="42.6457950" lon="-7.1513160">
        <ele>783.2</ele>
        <time>2014-10-02T14:00:00Z</time>
      </trkpt>
      <trkpt lat="42.6456660" lon="-7.1513310">
        <ele>782.8</ele>
        <time>2014-10-02T14:00:01Z</time>
      </trkpt>
      <trkpt lat="42.6455380" lon="-7.1513580">
        <ele>782.6</ele>
        <time>2014-10-02T14:00:02Z</time>
      </trkpt>
      <trkpt lat="42.6454070" lon="-7.1513950">
        <ele>782.7</ele>
        <time>2014-10-02T14:00:03Z</time>
      </trkpt>
      <trkpt lat="42.6452740" lon="-7.1514360">
        <ele>782.9</ele>
        <time>2014-10-02T14:00:04Z</time>
      </trkpt>
      <trkpt lat="42.6451540" lon="-7.1514680">
        <ele>783.1</ele>
        <time>2014-10-02T14:00:05Z</time>
      </trkpt>
      <trkpt lat="42.6450430" lon="-7.1514540">
        <ele>782.9</ele>
        <time>2014-10-02T14:00:06Z</time>
      </trkpt>
      <trkpt lat="42.6449420" lon="-7.1514330">
        <ele>782.4</ele>
        <time>2014-10-02T14:00:07Z</time>
      </trkpt>
      <trkpt lat="42.6448590" lon="-7.1513550">
        <ele>781.8</ele>
        <time>2014-10-02T14:00:08Z</time>
      </trkpt>
      <trkpt lat="42.6448030" lon="-7.1512630">
        <ele>781.1</ele>
        <time>2014-10-02T14:00:09Z</time>
      </trkpt>
      <trkpt lat="42.6447620" lon="-7.1511420">
        <ele>780.4</ele>
        <time>2014-10-02T14:00:10Z</time>
      </trkpt>
      <trkpt lat="42.6447250" lon="-7.1510190">
        <ele>779.5</ele>
        <time>2014-10-02T14:00:11Z</time>
      </trkpt>
      <trkpt lat="42.6447100" lon="-7.1508740">
        <ele>778.7</ele>
        <time>2014-10-02T14:00:12Z</time>
      </trkpt>
      <trkpt lat="42.6446920" lon="-7.1507260">
        <ele>778.0</ele>
        <time>2014-10-02T14:00:13Z</time>
      </trkpt>
      <trkpt lat="42.6446830" lon="-7.1505480">
        <ele>777.2</ele>
        <time>2014-10-02T14:00:14Z</time>
      </trkpt>
      <trkpt lat="42.6446470" lon="-7.1503960">
        <ele>776.4</ele>
        <time>2014-10-02T14:00:15Z</time>
      </trkpt>
      <trkpt lat="42.6446090" lon="-7.1502490">
        <ele>775.6</ele>
        <time>2014-10-02T14:00:16Z</time>
      </trkpt>
      <trkpt lat="42.6445330" lon="-7.1501500">
        <ele>774.7</ele>
        <time>2014-10-02T14:00:17Z</time>
      </trkpt>
      <trkpt lat="42.6444330" lon="-7.1500460">
        <ele>773.4</ele>
        <time>2014-10-02T14:00:18Z</time>
      </trkpt>
      <trkpt lat="42.6443210" lon="-7.1499470">
        <ele>772.0</ele>
        <time>2014-10-02T14:00:19Z</time>
      </trkpt>
      <trkpt lat="42.6442120" lon="-7.1498540">
        <ele>770.6</ele>
        <time>2014-10-02T14:00:20Z</time>
      </trkpt>
      <trkpt lat="42.6440980" lon="-7.1497520">
        <ele>769.1</ele>
        <time>2014-10-02T14:00:21Z</time>
      </trkpt>
      <trkpt lat="42.6440110" lon="-7.1496700">
        <ele>768.0</ele>
        <time>2014-10-02T14:00:22Z</time>
      </trkpt>
      <trkpt lat="42.6439170" lon="-7.1495740">
        <ele>767.1</ele>
        <time>2014-10-02T14:00:23Z</time>
      </trkpt>
      <trkpt lat="42.6438270" lon="-7.1494760">
        <ele>766.3</ele>
        <time>2014-10-02T14:00:24Z</time>
      </trkpt>
      <trkpt lat="42.6437210" lon="-7.1493940">
        <ele>765.3</ele>
        <time>2014-10-02T14:00:25Z</time>
      </trkpt>
      <trkpt lat="42.6436180" lon="-7.1493270">
        <ele>764.5</ele>
        <time>2014-10-02T14:00:26Z</time>
      </trkpt>
      <trkpt lat="42.6435270" lon="-7.1492990">
        <ele>763.7</ele>
        <time>2014-10-02T14:00:27Z</time>
      </trkpt>
      <trkpt lat="42.6434290" lon="-7.1493030">
        <ele>762.7</ele>
        <time>2014-10-02T14:00:28Z</time>
      </trkpt>
      <trkpt lat="42.6433200" lon="-7.1493150">
        <ele>761.5</ele>
        <time>2014-10-02T14:00:29Z</time>
      </trkpt>
      <trkpt lat="42.6432070" lon="-7.1493290">
        <ele>760.3</ele>
        <time>2014-10-02T14:00:30Z</time>
      </trkpt>
      <trkpt lat="42.6430890" lon="-7.1493410">
        <ele>759.2</ele>
        <time>2014-10-02T14:00:31Z</time>
      </trkpt>
      <trkpt lat="42.6429690" lon="-7.1493610">
        <ele>758.2</ele>
        <time>2014-10-02T14:00:32Z</time>
      </trkpt>
      <trkpt lat="42.6428420" lon="-7.1493920">
        <ele>757.1</ele>
        <time>2014-10-02T14:00:33Z</time>
      </trkpt>
      <trkpt lat="42.6427140" lon="-7.1494300">
        <ele>756.0</ele>
        <time>2014-10-02T14:00:34Z</time>
      </trkpt>
      <trkpt lat="42.6425790" lon="-7.1494660">
        <ele>755.0</ele>
        <time>2014-10-02T14:00:35Z</time>
      </trkpt>
      <trkpt lat="42.6424460" lon="-7.1495020">
        <ele>754.2</ele>
        <time>2014-10-02T14:00:36Z</time>
      </trkpt>
      <trkpt lat="42.6423060" lon="-7.1495310">
        <ele>753.0</ele>
        <time>2014-10-02T14:00:37Z</time>
      </trkpt>
      <trkpt lat="42.6421640" lon="-7.1495130">
        <ele>752.0</ele>
        <time>2014-10-02T14:00:38Z</time>
      </trkpt>
      <trkpt lat="42.6420360" lon="-7.1494900">
        <ele>751.3</ele>
        <time>2014-10-02T14:00:39Z</time>
      </trkpt>
      <trkpt lat="42.6419200" lon="-7.1494550">
        <ele>750.5</ele>
        <time>2014-10-02T14:00:40Z</time>
      </trkpt>
      <trkpt lat="42.6418110" lon="-7.1493720">
        <ele>749.5</ele>
        <time>2014-10-02T14:00:41Z</time>
      </trkpt>
      <trkpt lat="42.6417110" lon="-7.1492810">
        <ele>748.3</ele>
        <time>2014-10-02T14:00:42Z</time>
      </trkpt>
      <trkpt lat="42.6416190" lon="-7.1491780">
        <ele>746.9</ele>
        <time>2014-10-02T14:00:43Z</time>
      </trkpt>
      <trkpt lat="42.6415480" lon="-7.1490440">
        <ele>745.5</ele>
        <time>2014-10-02T14:00:44Z</time>
      </trkpt>
      <trkpt lat="42.6414760" lon="-7.1489110">
        <ele>744.1</ele>
        <time>2014-10-02T14:00:45Z</time>
      </trkpt>
      <trkpt lat="42.6413820" lon="-7.1488110">
        <ele>743.0</ele>
        <time>2014-10-02T14:00:46Z</time>
      </trkpt>
      <trkpt lat="42.6412910" lon="-7.1487090">
        <ele>742.0</ele>
        <time>2014-10-02T14:00:47Z</time>
      </trkpt>
      <trkpt lat="42.6411730" lon="-7.1486390">
        <ele>741.0</ele>
        <time>2014-10-02T14:00:48Z</time>
      </trkpt>
      <trkpt lat="42.6410440" lon="-7.1485630">
        <ele>740.1</ele>
        <time>2014-10-02T14:00:49Z</time>
      </trkpt>
      <trkpt lat="42.6409250" lon="-7.1485030">
        <ele>739.2</ele>
        <time>2014-10-02T14:00:50Z</time>
      </trkpt>
      <trkpt lat="42.6408130" lon="-7.1484540">
        <ele>738.3</ele>
        <time>2014-10-02T14:00:51Z</time>
      </trkpt>
      <trkpt lat="42.6406990" lon="-7.1484210">
        <ele>737.3</ele>
        <time>2014-10-02T14:00:52Z</time>
      </trkpt>
      <trkpt lat="42.6405820" lon="-7.1483910">
        <ele>736.3</ele>
        <time>2014-10-02T14:00:53Z</time>
      </trkpt>
      <trkpt lat="42.6404820" lon="-7.1483570">
        <ele>735.5</ele>
        <time>2014-10-02T14:00:54Z</time>
      </trkpt>
      <trkpt lat="42.6403610" lon="-7.1483060">
        <ele>734.8</ele>
        <time>2014-10-02T14:00:55Z</time>
      </trkpt>
      <trkpt lat="42.6402490" lon="-7.1482050">
        <ele>733.8</ele>
        <time>2014-10-02T14:00:56Z</time>
      </trkpt>
      <trkpt lat="42.6401370" lon="-7.1480870">
        <ele>732.7</ele>
        <time>2014-10-02T14:00:57Z</time>
      </trkpt>
      <trkpt lat="42.6400530" lon="-7.1479550">
        <ele>731.5</ele>
        <time>2014-10-02T14:00:58Z</time>
      </trkpt>
      <trkpt lat="42.6400040" lon="-7.1477760">
        <ele>730.1</ele>
        <time>2014-10-02T14:00:59Z</time>
      </trkpt>
      <trkpt lat="42.6399640" lon="-7.1475810">
        <ele>728.9</ele>
        <time>2014-10-02T14:01:00Z</time>
      </trkpt>
      <trkpt lat="42.6399360" lon="-7.1473810">
        <ele>727.8</ele>
        <time>2014-10-02T14:01:01Z</time>
      </trkpt>
      <trkpt lat="42.6399180" lon="-7.1471700">
        <ele>727.0</ele>
        <time>2014-10-02T14:01:02Z</time>
      </trkpt>
      <trkpt lat="42.6399020" lon="-7.1469650">
        <ele>726.4</ele>
        <time>2014-10-02T14:01:03Z</time>
      </trkpt>
      <trkpt lat="42.6398930" lon="-7.1467600">
        <ele>725.6</ele>
        <time>2014-10-02T14:01:04Z</time>
      </trkpt>
      <trkpt lat="42.6398870" lon="-7.1465480">
        <ele>723.9</ele>
        <time>2014-10-02T14:01:05Z</time>
      </trkpt>
      <trkpt lat="42.6398820" lon="-7.1463350">
        <ele>722.3</ele>
        <time>2014-10-02T14:01:06Z</time>
      </trkpt>
      <trkpt lat="42.6398680" lon="-7.1461350">
        <ele>720.9</ele>
        <time>2014-10-02T14:01:07Z</time>
      </trkpt>
      <trkpt lat="42.6398500" lon="-7.1459510">
        <ele>719.7</ele>
        <time>2014-10-02T14:01:08Z</time>
      </trkpt>
      <trkpt lat="42.6398240" lon="-7.1457750">
        <ele>718.5</ele>
        <time>2014-10-02T14:01:09Z</time>
      </trkpt>
      <trkpt lat="42.6397940" lon="-7.1455960">
        <ele>717.4</ele>
        <time>2014-10-02T14:01:10Z</time>
      </trkpt>
      <trkpt lat="42.6397730" lon="-7.1454080">
        <ele>716.2</ele>
        <time>2014-10-02T14:01:11Z</time>
      </trkpt>
      <trkpt lat="42.6397540" lon="-7.1452200">
        <ele>714.9</ele>
        <time>2014-10-02T14:01:12Z</time>
      </trkpt>
      <trkpt lat="42.6397380" lon="-7.1450420">
        <ele>713.8</ele>
        <time>2014-10-02T14:01:13Z</time>
      </trkpt>
      <trkpt lat="42.6397250" lon="-7.1448570">
        <ele>712.8</ele>
        <time>2014-10-02T14:01:14Z</time>
      </trkpt>
      <trkpt lat="42.6397120" lon="-7.1446830">
        <ele>711.8</ele>
        <time>2014-10-02T14:01:15Z</time>
      </trkpt>
      <trkpt lat="42.6396960" lon="-7.1445050">
        <ele>710.8</ele>
        <time>2014-10-02T14:01:16Z</time>
      </trkpt>
      <trkpt lat="42.6396840" lon="-7.1443210">
        <ele>709.9</ele>
        <time>2014-10-02T14:01:17Z</time>
      </trkpt>
      <trkpt lat="42.6396840" lon="-7.1441340">
        <ele>709.2</ele>
        <time>2014-10-02T14:01:18Z</time>
      </trkpt>
      <trkpt lat="42.6396850" lon="-7.1439550">
        <ele>708.5</ele>
        <time>2014-10-02T14:01:19Z</time>
      </trkpt>
      <trkpt lat="42.6396930" lon="-7.1437660">
        <ele>707.8</ele>
        <time>2014-10-02T14:01:20Z</time>
      </trkpt>
      <trkpt lat="42.6397050" lon="-7.1435780">
        <ele>707.3</ele>
        <time>2014-10-02T14:01:21Z</time>
      </trkpt>
      <trkpt lat="42.6397160" lon="-7.1434110">
        <ele>707.1</ele>
        <time>2014-10-02T14:01:22Z</time>
      </trkpt>
      <trkpt lat="42.6397260" lon="-7.1432610">
        <ele>706.8</ele>
        <time>2014-10-02T14:01:23Z</time>
      </trkpt>
      <trkpt lat="42.6397360" lon="-7.1431230">
        <ele>706.5</ele>
        <time>2014-10-02T14:01:24Z</time>
      </trkpt>
      <trkpt lat="42.6397460" lon="-7.1429840">
        <ele>706.2</ele>
        <time>2014-10-02T14:01:25Z</time>
      </trkpt>
      <trkpt lat="42.6397560" lon="-7.1428530">
        <ele>705.7</ele>
        <time>2014-10-02T14:01:26Z</time>
      </trkpt>
      <trkpt lat="42.6397700" lon="-7.1427350">
        <ele>706.0</ele>
        <time>2014-10-02T14:01:27Z</time>
      </trkpt>
      <trkpt lat="42.6397860" lon="-7.1426330">
        <ele>706.8</ele>
        <time>2014-10-02T14:01:28Z</time>
      </trkpt>
      <trkpt lat="42.6398210" lon="-7.1425620">
        <ele>707.4</ele>
        <time>2014-10-02T14:01:29Z</time>
      </trkpt>
      <trkpt lat="42.6398560" lon="-7.1424900">
        <ele>708.0</ele>
        <time>2014-10-02T14:01:30Z</time>
      </trkpt>
      <trkpt lat="42.6398910" lon="-7.1424150">
        <ele>708.6</ele>
        <time>2014-10-02T14:01:31Z</time>
      </trkpt>
      <trkpt lat="42.6399260" lon="-7.1423450">
        <ele>709.3</ele>
        <time>2014-10-02T14:01:32Z</time>
      </trkpt>
      <trkpt lat="42.6399570" lon="-7.1422850">
        <ele>709.9</ele>
        <time>2014-10-02T14:01:33Z</time>
      </trkpt>
      <trkpt lat="42.6399830" lon="-7.1422280">
        <ele>710.4</ele>
        <time>2014-10-02T14:01:34Z</time>
      </trkpt>
      <trkpt lat="42.6400090" lon="-7.1421660">
        <ele>710.9</ele>
        <time>2014-10-02T14:01:35Z</time>
      </trkpt>
      <trkpt lat="42.6400390" lon="-7.1421090">
        <ele>711.4</ele>
        <time>2014-10-02T14:01:36Z</time>
      </trkpt>
      <trkpt lat="42.6400700" lon="-7.1420540">
        <ele>711.9</ele>
        <time>2014-10-02T14:01:37Z</time>
      </trkpt>
      <trkpt lat="42.6400980" lon="-7.1420070">
        <ele>712.3</ele>
        <time>2014-10-02T14:01:38Z</time>
      </trkpt>
      <trkpt lat="42.6401280" lon="-7.1419590">
        <ele>712.7</ele>
        <time>2014-10-02T14:01:39Z</time>
      </trkpt>
      <trkpt lat="42.6401540" lon="-7.1419130">
        <ele>713.1</ele>
        <time>2014-10-02T14:01:40Z</time>
      </trkpt>
      <trkpt lat="42.6401810" lon="-7.1418700">
        <ele>713.5</ele>
        <time>2014-10-02T14:01:41Z</time>
      </trkpt>
      <trkpt lat="42.6402050" lon="-7.1418290">
        <ele>713.9</ele>
        <time>2014-10-02T14:01:42Z</time>
      </trkpt>
      <trkpt lat="42.6402270" lon="-7.1417920">
        <ele>714.2</ele>
        <time>2014-10-02T14:01:43Z</time>
      </trkpt>
      <trkpt lat="42.6402550" lon="-7.1417500">
        <ele>714.6</ele>
        <time>2014-10-02T14:01:44Z</time>
      </trkpt>
      <trkpt lat="42.6402830" lon="-7.1417130">
        <ele>715.0</ele>
        <time>2014-10-02T14:01:45Z</time>
      </trkpt>
      <trkpt lat="42.6403080" lon="-7.1416840">
        <ele>715.3</ele>
        <time>2014-10-02T14:01:46Z</time>
      </trkpt>
      <trkpt lat="42.6403320" lon="-7.1416600">
        <ele>715.5</ele>
        <time>2014-10-02T14:01:47Z</time>
      </trkpt>
      <trkpt lat="42.6403570" lon="-7.1416370">
        <ele>715.8</ele>
        <time>2014-10-02T14:01:48Z</time>
      </trkpt>
      <trkpt lat="42.6403870" lon="-7.1416210">
        <ele>716.1</ele>
        <time>2014-10-02T14:01:49Z</time>
      </trkpt>
      <trkpt lat="42.6404290" lon="-7.1415960">
        <ele>716.5</ele>
        <time>2014-10-02T14:01:51Z</time>
      </trkpt>
      <trkpt lat="42.6404720" lon="-7.1415690">
        <ele>716.9</ele>
        <time>2014-10-02T14:01:53Z</time>
      </trkpt>
      <trkpt lat="42.6404980" lon="-7.1415550">
        <ele>717.2</ele>
        <time>2014-10-02T14:01:54Z</time>
      </trkpt>
      <trkpt lat="42.6405250" lon="-7.1415430">
        <ele>717.5</ele>
        <time>2014-10-02T14:01:55Z</time>
      </trkpt>
      <trkpt lat="42.6405540" lon="-7.1415300">
        <ele>717.8</ele>
        <time>2014-10-02T14:01:56Z</time>
      </trkpt>
      <trkpt lat="42.6406030" lon="-7.1415050">
        <ele>718.3</ele>
        <time>2014-10-02T14:01:58Z</time>
      </trkpt>
      <trkpt lat="42.6406490" lon="-7.1414830">
        <ele>718.9</ele>
        <time>2014-10-02T14:02:00Z</time>
      </trkpt>
      <trkpt lat="42.6406980" lon="-7.1414620">
        <ele>719.4</ele>
        <time>2014-10-02T14:02:02Z</time>
      </trkpt>
      <trkpt lat="42.6407410" lon="-7.1414390">
        <ele>719.9</ele>
        <time>2014-10-02T14:02:04Z</time>
      </trkpt>
      <trkpt lat="42.6407870" lon="-7.1414160">
        <ele>720.4</ele>
        <time>2014-10-02T14:02:06Z</time>
      </trkpt>
      <trkpt lat="42.6408340" lon="-7.1413890">
        <ele>720.9</ele>
        <time>2014-10-02T14:02:08Z</time>
      </trkpt>
      <trkpt lat="42.6408630" lon="-7.1413750">
        <ele>721.2</ele>
        <time>2014-10-02T14:02:09Z</time>
      </trkpt>
      <trkpt lat="42.6409100" lon="-7.1413550">
        <ele>721.7</ele>
        <time>2014-10-02T14:02:11Z</time>
      </trkpt>
      <trkpt lat="42.6409520" lon="-7.1413420">
        <ele>722.1</ele>
        <time>2014-10-02T14:02:13Z</time>
      </trkpt>
      <trkpt lat="42.6409800" lon="-7.1413240">
        <ele>722.3</ele>
        <time>2014-10-02T14:02:14Z</time>
      </trkpt>
      <trkpt lat="42.6410230" lon="-7.1413000">
        <ele>722.8</ele>
        <time>2014-10-02T14:02:16Z</time>
      </trkpt>
      <trkpt lat="42.6410550" lon="-7.1412860">
        <ele>723.1</ele>
        <time>2014-10-02T14:02:18Z</time>
      </trkpt>
      <trkpt lat="42.6410960" lon="-7.1412700">
        <ele>723.5</ele>
        <time>2014-10-02T14:02:20Z</time>
      </trkpt>
      <trkpt lat="42.6411300" lon="-7.1412580">
        <ele>723.8</ele>
        <time>2014-10-02T14:02:22Z</time>
      </trkpt>
      <trkpt lat="42.6411720" lon="-7.1412420">
        <ele>724.2</ele>
        <time>2014-10-02T14:02:24Z</time>
      </trkpt>
      <trkpt lat="42.6412160" lon="-7.1412190">
        <ele>724.7</ele>
        <time>2014-10-02T14:02:26Z</time>
      </trkpt>
      <trkpt lat="42.6412600" lon="-7.1411960">
        <ele>725.2</ele>
        <time>2014-10-02T14:02:28Z</time>
      </trkpt>
      <trkpt lat="42.6413010" lon="-7.1411750">
        <ele>725.5</ele>
        <time>2014-10-02T14:02:30Z</time>
      </trkpt>
      <trkpt lat="42.6413510" lon="-7.1411540">
        <ele>725.9</ele>
        <time>2014-10-02T14:02:32Z</time>
      </trkpt>
      <trkpt lat="42.6413820" lon="-7.1411420">
        <ele>726.1</ele>
        <time>2014-10-02T14:02:33Z</time>
      </trkpt>
      <trkpt lat="42.6414120" lon="-7.1411280">
        <ele>726.3</ele>
        <time>2014-10-02T14:02:34Z</time>
      </trkpt>
      <trkpt lat="42.6414390" lon="-7.1411170">
        <ele>726.4</ele>
        <time>2014-10-02T14:02:35Z</time>
      </trkpt>
      <trkpt lat="42.6414860" lon="-7.1411010">
        <ele>726.8</ele>
        <time>2014-10-02T14:02:37Z</time>
      </trkpt>
      <trkpt lat="42.6415370" lon="-7.1410830">
        <ele>727.2</ele>
        <time>2014-10-02T14:02:39Z</time>
      </trkpt>
      <trkpt lat="42.6415800" lon="-7.1410640">
        <ele>727.7</ele>
        <time>2014-10-02T14:02:41Z</time>
      </trkpt>
      <trkpt lat="42.6416280" lon="-7.1410450">
        <ele>728.2</ele>
        <time>2014-10-02T14:02:43Z</time>
      </trkpt>
      <trkpt lat="42.6416550" lon="-7.1410340">
        <ele>728.5</ele>
        <time>2014-10-02T14:02:44Z</time>
      </trkpt>
      <trkpt lat="42.6417050" lon="-7.1410110">
        <ele>729.1</ele>
        <time>2014-10-02T14:02:46Z</time>
      </trkpt>
      <trkpt lat="42.6417360" lon="-7.1409980">
        <ele>729.5</ele>
        <time>2014-10-02T14:02:47Z</time>
      </trkpt>
      <trkpt lat="42.6417710" lon="-7.1409850">
        <ele>729.9</ele>
        <time>2014-10-02T14:02:48Z</time>
      </trkpt>
      <trkpt lat="42.6418080" lon="-7.1409740">
        <ele>730.3</ele>
        <time>2014-10-02T14:02:49Z</time>
      </trkpt>
      <trkpt lat="42.6418460" lon="-7.1409600">
        <ele>730.7</ele>
        <time>2014-10-02T14:02:50Z</time>
      </trkpt>
      <trkpt lat="42.6418800" lon="-7.1409480">
        <ele>731.0</ele>
        <time>2014-10-02T14:02:51Z</time>
      </trkpt>
      <trkpt lat="42.6419090" lon="-7.1409330">
        <ele>731.3</ele>
        <time>2014-10-02T14:02:52Z</time>
      </trkpt>
      <trkpt lat="42.6419600" lon="-7.1408990">
        <ele>731.8</ele>
        <time>2014-10-02T14:02:54Z</time>
      </trkpt>
      <trkpt lat="42.6419880" lon="-7.1408800">
        <ele>732.1</ele>
        <time>2014-10-02T14:02:55Z</time>
      </trkpt>
      <trkpt lat="42.6420210" lon="-7.1408590">
        <ele>732.4</ele>
        <time>2014-10-02T14:02:56Z</time>
      </trkpt>
      <trkpt lat="42.6420570" lon="-7.1408380">
        <ele>732.8</ele>
        <time>2014-10-02T14:02:57Z</time>
      </trkpt>
      <trkpt lat="42.6420910" lon="-7.1408180">
        <ele>733.1</ele>
        <time>2014-10-02T14:02:58Z</time>
      </trkpt>
      <trkpt lat="42.6421240" lon="-7.1407980">
        <ele>733.4</ele>
        <time>2014-10-02T14:02:59Z</time>
      </trkpt>
      <trkpt lat="42.6421520" lon="-7.1407790">
        <ele>733.7</ele>
        <time>2014-10-02T14:03:00Z</time>
      </trkpt>
      <trkpt lat="42.6421780" lon="-7.1407620">
        <ele>733.9</ele>
        <time>2014-10-02T14:03:01Z</time>
      </trkpt>
      <trkpt lat="42.6422050" lon="-7.1407450">
        <ele>734.1</ele>
        <time>2014-10-02T14:03:02Z</time>
      </trkpt>
      <trkpt lat="42.6422320" lon="-7.1407280">
        <ele>734.3</ele>
        <time>2014-10-02T14:03:03Z</time>
      </trkpt>
      <trkpt lat="42.6422620" lon="-7.1407080">
        <ele>734.6</ele>
        <time>2014-10-02T14:03:04Z</time>
      </trkpt>
      <trkpt lat="42.6422970" lon="-7.1406840">
        <ele>734.9</ele>
        <time>2014-10-02T14:03:05Z</time>
      </trkpt>
      <trkpt lat="42.6423320" lon="-7.1406660">
        <ele>735.1</ele>
        <time>2014-10-02T14:03:06Z</time>
      </trkpt>
      <trkpt lat="42.6423770" lon="-7.1406420">
        <ele>735.4</ele>
        <time>2014-10-02T14:03:08Z</time>
      </trkpt>
      <trkpt lat="42.6424040" lon="-7.1406270">
        <ele>735.6</ele>
        <time>2014-10-02T14:03:09Z</time>
      </trkpt>
      <trkpt lat="42.6424300" lon="-7.1406100">
        <ele>735.8</ele>
        <time>2014-10-02T14:03:10Z</time>
      </trkpt>
      <trkpt lat="42.6424620" lon="-7.1405870">
        <ele>736.0</ele>
        <time>2014-10-02T14:03:11Z</time>
      </trkpt>
      <trkpt lat="42.6424920" lon="-7.1405670">
        <ele>736.3</ele>
        <time>2014-10-02T14:03:12Z</time>
      </trkpt>
      <trkpt lat="42.6425220" lon="-7.1405470">
        <ele>736.5</ele>
        <time>2014-10-02T14:03:13Z</time>
      </trkpt>
      <trkpt lat="42.6425490" lon="-7.1405330">
        <ele>736.6</ele>
        <time>2014-10-02T14:03:14Z</time>
      </trkpt>
      <trkpt lat="42.6425880" lon="-7.1405140">
        <ele>736.9</ele>
        <time>2014-10-02T14:03:15Z</time>
      </trkpt>
      <trkpt lat="42.6426200" lon="-7.1405000">
        <ele>737.1</ele>
        <time>2014-10-02T14:03:16Z</time>
      </trkpt>
      <trkpt lat="42.6426610" lon="-7.1404800">
        <ele>737.3</ele>
        <time>2014-10-02T14:03:17Z</time>
      </trkpt>
      <trkpt lat="42.6427010" lon="-7.1404610">
        <ele>737.6</ele>
        <time>2014-10-02T14:03:18Z</time>
      </trkpt>
      <trkpt lat="42.6427450" lon="-7.1404410">
        <ele>737.8</ele>
        <time>2014-10-02T14:03:19Z</time>
      </trkpt>
      <trkpt lat="42.6427830" lon="-7.1404250">
        <ele>738.0</ele>
        <time>2014-10-02T14:03:20Z</time>
      </trkpt>
      <trkpt lat="42.6428130" lon="-7.1404130">
        <ele>738.2</ele>
        <time>2014-10-02T14:03:21Z</time>
      </trkpt>
      <trkpt lat="42.6428480" lon="-7.1403970">
        <ele>738.4</ele>
        <time>2014-10-02T14:03:22Z</time>
      </trkpt>
      <trkpt lat="42.6428830" lon="-7.1403820">
        <ele>738.6</ele>
        <time>2014-10-02T14:03:23Z</time>
      </trkpt>
      <trkpt lat="42.6429190" lon="-7.1403650">
        <ele>738.8</ele>
        <time>2014-10-02T14:03:24Z</time>
      </trkpt>
      <trkpt lat="42.6429500" lon="-7.1403490">
        <ele>739.0</ele>
        <time>2014-10-02T14:03:25Z</time>
      </trkpt>
      <trkpt lat="42.6429890" lon="-7.1403290">
        <ele>739.2</ele>
        <time>2014-10-02T14:03:26Z</time>
      </trkpt>
      <trkpt lat="42.6430240" lon="-7.1403100">
        <ele>739.5</ele>
        <time>2014-10-02T14:03:27Z</time>
      </trkpt>
      <trkpt lat="42.6430610" lon="-7.1402900">
        <ele>739.8</ele>
        <time>2014-10-02T14:03:28Z</time>
      </trkpt>
      <trkpt lat="42.6430990" lon="-7.1402730">
        <ele>740.0</ele>
        <time>2014-10-02T14:03:29Z</time>
      </trkpt>
      <trkpt lat="42.6431400" lon="-7.1402550">
        <ele>740.3</ele>
        <time>2014-10-02T14:03:30Z</time>
      </trkpt>
      <trkpt lat="42.6431790" lon="-7.1402410">
        <ele>740.6</ele>
        <time>2014-10-02T14:03:31Z</time>
      </trkpt>
      <trkpt lat="42.6432180" lon="-7.1402260">
        <ele>740.8</ele>
        <time>2014-10-02T14:03:32Z</time>
      </trkpt>
      <trkpt lat="42.6432570" lon="-7.1402120">
        <ele>741.1</ele>
        <time>2014-10-02T14:03:33Z</time>
      </trkpt>
      <trkpt lat="42.6432930" lon="-7.1401990">
        <ele>741.3</ele>
        <time>2014-10-02T14:03:34Z</time>
      </trkpt>
      <trkpt lat="42.6433270" lon="-7.1401840">
        <ele>741.6</ele>
        <time>2014-10-02T14:03:35Z</time>
      </trkpt>
      <trkpt lat="42.6433590" lon="-7.1401720">
        <ele>741.8</ele>
        <time>2014-10-02T14:03:36Z</time>
      </trkpt>
      <trkpt lat="42.6433930" lon="-7.1401590">
        <ele>742.0</ele>
        <time>2014-10-02T14:03:37Z</time>
      </trkpt>
      <trkpt lat="42.6434280" lon="-7.1401480">
        <ele>742.3</ele>
        <time>2014-10-02T14:03:38Z</time>
      </trkpt>
      <trkpt lat="42.6434650" lon="-7.1401400">
        <ele>742.6</ele>
        <time>2014-10-02T14:03:39Z</time>
      </trkpt>
      <trkpt lat="42.6435030" lon="-7.1401380">
        <ele>742.9</ele>
        <time>2014-10-02T14:03:40Z</time>
      </trkpt>
      <trkpt lat="42.6435380" lon="-7.1401370">
        <ele>743.2</ele>
        <time>2014-10-02T14:03:41Z</time>
      </trkpt>
      <trkpt lat="42.6435690" lon="-7.1401370">
        <ele>743.4</ele>
        <time>2014-10-02T14:03:42Z</time>
      </trkpt>
      <trkpt lat="42.6436000" lon="-7.1401390">
        <ele>743.7</ele>
        <time>2014-10-02T14:03:43Z</time>
      </trkpt>
      <trkpt lat="42.6436290" lon="-7.1401430">
        <ele>744.0</ele>
        <time>2014-10-02T14:03:44Z</time>
      </trkpt>
      <trkpt lat="42.6436730" lon="-7.1401500">
        <ele>744.4</ele>
        <time>2014-10-02T14:03:46Z</time>
      </trkpt>
      <trkpt lat="42.6437000" lon="-7.1401560">
        <ele>744.6</ele>
        <time>2014-10-02T14:03:47Z</time>
      </trkpt>
      <trkpt lat="42.6437300" lon="-7.1401630">
        <ele>744.9</ele>
        <time>2014-10-02T14:03:48Z</time>
      </trkpt>
      <trkpt lat="42.6437570" lon="-7.1401720">
        <ele>745.2</ele>
        <time>2014-10-02T14:03:49Z</time>
      </trkpt>
      <trkpt lat="42.6437990" lon="-7.1401860">
        <ele>745.6</ele>
        <time>2014-10-02T14:03:51Z</time>
      </trkpt>
      <trkpt lat="42.6438260" lon="-7.1401950">
        <ele>745.9</ele>
        <time>2014-10-02T14:03:52Z</time>
      </trkpt>
      <trkpt lat="42.6438660" lon="-7.1402080">
        <ele>746.3</ele>
        <time>2014-10-02T14:03:54Z</time>
      </trkpt>
      <trkpt lat="42.6439140" lon="-7.1402170">
        <ele>746.8</ele>
        <time>2014-10-02T14:03:56Z</time>
      </trkpt>
      <trkpt lat="42.6439570" lon="-7.1402310">
        <ele>747.3</ele>
        <time>2014-10-02T14:03:58Z</time>
      </trkpt>
      <trkpt lat="42.6440040" lon="-7.1402440">
        <ele>747.8</ele>
        <time>2014-10-02T14:04:00Z</time>
      </trkpt>
      <trkpt lat="42.6440530" lon="-7.1402560">
        <ele>748.3</ele>
        <time>2014-10-02T14:04:02Z</time>
      </trkpt>
      <trkpt lat="42.6440990" lon="-7.1402710">
        <ele>748.9</ele>
        <time>2014-10-02T14:04:04Z</time>
      </trkpt>
      <trkpt lat="42.6441490" lon="-7.1402850">
        <ele>749.5</ele>
        <time>2014-10-02T14:04:06Z</time>
      </trkpt>
      <trkpt lat="42.6442010" lon="-7.1402960">
        <ele>750.1</ele>
        <time>2014-10-02T14:04:08Z</time>
      </trkpt>
      <trkpt lat="42.6442310" lon="-7.1403010">
        <ele>750.4</ele>
        <time>2014-10-02T14:04:09Z</time>
      </trkpt>
      <trkpt lat="42.6442600" lon="-7.1403060">
        <ele>750.7</ele>
        <time>2014-10-02T14:04:10Z</time>
      </trkpt>
      <trkpt lat="42.6442890" lon="-7.1403130">
        <ele>751.1</ele>
        <time>2014-10-02T14:04:11Z</time>
      </trkpt>
      <trkpt lat="42.6443380" lon="-7.1403270">
        <ele>751.6</ele>
        <time>2014-10-02T14:04:13Z</time>
      </trkpt>
      <trkpt lat="42.6443910" lon="-7.1403380">
        <ele>752.3</ele>
        <time>2014-10-02T14:04:15Z</time>
      </trkpt>
      <trkpt lat="42.6444330" lon="-7.1403480">
        <ele>752.8</ele>
        <time>2014-10-02T14:04:17Z</time>
      </trkpt>
      <trkpt lat="42.6444850" lon="-7.1403650">
        <ele>753.3</ele>
        <time>2014-10-02T14:04:19Z</time>
      </trkpt>
      <trkpt lat="42.6446030" lon="-7.1403740">
        <ele>754.5</ele>
        <time>2014-10-02T14:04:24Z</time>
      </trkpt>
      <trkpt lat="42.6446730" lon="-7.1403790">
        <ele>755.3</ele>
        <time>2014-10-02T14:04:27Z</time>
      </trkpt>
      <trkpt lat="42.6447040" lon="-7.1403840">
        <ele>755.6</ele>
        <time>2014-10-02T14:04:28Z</time>
      </trkpt>
      <trkpt lat="42.6447340" lon="-7.1403890">
        <ele>755.9</ele>
        <time>2014-10-02T14:04:29Z</time>
      </trkpt>
      <trkpt lat="42.6447620" lon="-7.1403940">
        <ele>756.2</ele>
        <time>2014-10-02T14:04:30Z</time>
      </trkpt>
      <trkpt lat="42.6447890" lon="-7.1403990">
        <ele>756.5</ele>
        <time>2014-10-02T14:04:31Z</time>
      </trkpt>
      <trkpt lat="42.6448160" lon="-7.1404040">
        <ele>756.8</ele>
        <time>2014-10-02T14:04:32Z</time>
      </trkpt>
      <trkpt lat="42.6448620" lon="-7.1404120">
        <ele>757.3</ele>
        <time>2014-10-02T14:04:34Z</time>
      </trkpt>
      <trkpt lat="42.6449120" lon="-7.1404190">
        <ele>757.8</ele>
        <time>2014-10-02T14:04:36Z</time>
      </trkpt>
      <trkpt lat="42.6449660" lon="-7.1404230">
        <ele>758.3</ele>
        <time>2014-10-02T14:04:38Z</time>
      </trkpt>
      <trkpt lat="42.6450150" lon="-7.1404260">
        <ele>758.7</ele>
        <time>2014-10-02T14:04:40Z</time>
      </trkpt>
      <trkpt lat="42.6450450" lon="-7.1404290">
        <ele>758.9</ele>
        <time>2014-10-02T14:04:41Z</time>
      </trkpt>
      <trkpt lat="42.6450800" lon="-7.1404320">
        <ele>759.2</ele>
        <time>2014-10-02T14:04:42Z</time>
      </trkpt>
      <trkpt lat="42.6451220" lon="-7.1404340">
        <ele>759.5</ele>
        <time>2014-10-02T14:04:43Z</time>
      </trkpt>
      <trkpt lat="42.6451630" lon="-7.1404340">
        <ele>759.8</ele>
        <time>2014-10-02T14:04:44Z</time>
      </trkpt>
      <trkpt lat="42.6452000" lon="-7.1404340">
        <ele>760.1</ele>
        <time>2014-10-02T14:04:45Z</time>
      </trkpt>
      <trkpt lat="42.6452340" lon="-7.1404340">
        <ele>760.4</ele>
        <time>2014-10-02T14:04:46Z</time>
      </trkpt>
      <trkpt lat="42.6452670" lon="-7.1404330">
        <ele>760.6</ele>
        <time>2014-10-02T14:04:47Z</time>
      </trkpt>
      <trkpt lat="42.6453000" lon="-7.1404310">
        <ele>760.9</ele>
        <time>2014-10-02T14:04:48Z</time>
      </trkpt>
      <trkpt lat="42.6453350" lon="-7.1404290">
        <ele>761.2</ele>
        <time>2014-10-02T14:04:49Z</time>
      </trkpt>
      <trkpt lat="42.6453650" lon="-7.1404260">
        <ele>761.4</ele>
        <time>2014-10-02T14:04:50Z</time>
      </trkpt>
      <trkpt lat="42.6453970" lon="-7.1404220">
        <ele>761.6</ele>
        <time>2014-10-02T14:04:51Z</time>
      </trkpt>
      <trkpt lat="42.6454280" lon="-7.1404170">
        <ele>761.9</ele>
        <time>2014-10-02T14:04:52Z</time>
      </trkpt>
      <trkpt lat="42.6454580" lon="-7.1404110">
        <ele>762.1</ele>
        <time>2014-10-02T14:04:53Z</time>
      </trkpt>
      <trkpt lat="42.6454870" lon="-7.1404010">
        <ele>762.4</ele>
        <time>2014-10-02T14:04:54Z</time>
      </trkpt>
      <trkpt lat="42.6455220" lon="-7.1403900">
        <ele>762.7</ele>
        <time>2014-10-02T14:04:55Z</time>
      </trkpt>
      <trkpt lat="42.6455620" lon="-7.1403750">
        <ele>763.1</ele>
        <time>2014-10-02T14:04:56Z</time>
      </trkpt>
      <trkpt lat="42.6456020" lon="-7.1403580">
        <ele>763.5</ele>
        <time>2014-10-02T14:04:57Z</time>
      </trkpt>
      <trkpt lat="42.6456410" lon="-7.1403390">
        <ele>763.9</ele>
        <time>2014-10-02T14:04:58Z</time>
      </trkpt>
      <trkpt lat="42.6456740" lon="-7.1403240">
        <ele>764.2</ele>
        <time>2014-10-02T14:04:59Z</time>
      </trkpt>
      <trkpt lat="42.6457090" lon="-7.1403100">
        <ele>764.5</ele>
        <time>2014-10-02T14:05:00Z</time>
      </trkpt>
      <trkpt lat="42.6457380" lon="-7.1402990">
        <ele>764.8</ele>
        <time>2014-10-02T14:05:01Z</time>
      </trkpt>
      <trkpt lat="42.6457910" lon="-7.1402730">
        <ele>765.4</ele>
        <time>2014-10-02T14:05:03Z</time>
      </trkpt>
      <trkpt lat="42.6458160" lon="-7.1402600">
        <ele>765.6</ele>
        <time>2014-10-02T14:05:04Z</time>
      </trkpt>
      <trkpt lat="42.6458550" lon="-7.1402390">
        <ele>766.0</ele>
        <time>2014-10-02T14:05:06Z</time>
      </trkpt>
      <trkpt lat="42.6458880" lon="-7.1402230">
        <ele>766.3</ele>
        <time>2014-10-02T14:05:08Z</time>
      </trkpt>
      <trkpt lat="42.6459390" lon="-7.1402010">
        <ele>766.8</ele>
        <time>2014-10-02T14:05:10Z</time>
      </trkpt>
      <trkpt lat="42.6459700" lon="-7.1401870">
        <ele>767.1</ele>
        <time>2014-10-02T14:05:11Z</time>
      </trkpt>
      <trkpt lat="42.6460020" lon="-7.1401700">
        <ele>767.4</ele>
        <time>2014-10-02T14:05:12Z</time>
      </trkpt>
      <trkpt lat="42.6460360" lon="-7.1401510">
        <ele>767.7</ele>
        <time>2014-10-02T14:05:13Z</time>
      </trkpt>
      <trkpt lat="42.6460700" lon="-7.1401350">
        <ele>768.0</ele>
        <time>2014-10-02T14:05:14Z</time>
      </trkpt>
      <trkpt lat="42.6461020" lon="-7.1401210">
        <ele>768.3</ele>
        <time>2014-10-02T14:05:15Z</time>
      </trkpt>
      <trkpt lat="42.6461360" lon="-7.1401030">
        <ele>768.5</ele>
        <time>2014-10-02T14:05:16Z</time>
      </trkpt>
      <trkpt lat="42.6461710" lon="-7.1400860">
        <ele>768.8</ele>
        <time>2014-10-02T14:05:17Z</time>
      </trkpt>
      <trkpt lat="42.6462000" lon="-7.1400580">
        <ele>769.0</ele>
        <time>2014-10-02T14:05:18Z</time>
      </trkpt>
      <trkpt lat="42.6462370" lon="-7.1400260">
        <ele>769.3</ele>
        <time>2014-10-02T14:05:19Z</time>
      </trkpt>
      <trkpt lat="42.6462720" lon="-7.1399980">
        <ele>769.6</ele>
        <time>2014-10-02T14:05:20Z</time>
      </trkpt>
      <trkpt lat="42.6463030" lon="-7.1399700">
        <ele>769.8</ele>
        <time>2014-10-02T14:05:21Z</time>
      </trkpt>
      <trkpt lat="42.6463320" lon="-7.1399430">
        <ele>770.1</ele>
        <time>2014-10-02T14:05:22Z</time>
      </trkpt>
      <trkpt lat="42.6463550" lon="-7.1399200">
        <ele>770.3</ele>
        <time>2014-10-02T14:05:23Z</time>
      </trkpt>
      <trkpt lat="42.6463830" lon="-7.1398940">
        <ele>770.5</ele>
        <time>2014-10-02T14:05:24Z</time>
      </trkpt>
      <trkpt lat="42.6464180" lon="-7.1398440">
        <ele>770.9</ele>
        <time>2014-10-02T14:05:26Z</time>
      </trkpt>
      <trkpt lat="42.6464410" lon="-7.1397860">
        <ele>771.3</ele>
        <time>2014-10-02T14:05:28Z</time>
      </trkpt>
      <trkpt lat="42.6464540" lon="-7.1397520">
        <ele>771.5</ele>
        <time>2014-10-02T14:05:29Z</time>
      </trkpt>
      <trkpt lat="42.6464680" lon="-7.1397170">
        <ele>771.7</ele>
        <time>2014-10-02T14:05:30Z</time>
      </trkpt>
      <trkpt lat="42.6464830" lon="-7.1396820">
        <ele>772.0</ele>
        <time>2014-10-02T14:05:31Z</time>
      </trkpt>
      <trkpt lat="42.6465070" lon="-7.1396070">
        <ele>772.4</ele>
        <time>2014-10-02T14:05:33Z</time>
      </trkpt>
      <trkpt lat="42.6465190" lon="-7.1395660">
        <ele>772.7</ele>
        <time>2014-10-02T14:05:34Z</time>
      </trkpt>
      <trkpt lat="42.6465310" lon="-7.1395230">
        <ele>773.0</ele>
        <time>2014-10-02T14:05:35Z</time>
      </trkpt>
      <trkpt lat="42.6465410" lon="-7.1394780">
        <ele>773.2</ele>
        <time>2014-10-02T14:05:36Z</time>
      </trkpt>
      <trkpt lat="42.6465520" lon="-7.1394080">
        <ele>773.7</ele>
        <time>2014-10-02T14:05:38Z</time>
      </trkpt>
      <trkpt lat="42.6465600" lon="-7.1393530">
        <ele>774.0</ele>
        <time>2014-10-02T14:05:39Z</time>
      </trkpt>
      <trkpt lat="42.6465680" lon="-7.1393000">
        <ele>774.3</ele>
        <time>2014-10-02T14:05:40Z</time>
      </trkpt>
      <trkpt lat="42.6465760" lon="-7.1392430">
        <ele>774.7</ele>
        <time>2014-10-02T14:05:41Z</time>
      </trkpt>
      <trkpt lat="42.6465830" lon="-7.1391930">
        <ele>775.1</ele>
        <time>2014-10-02T14:05:42Z</time>
      </trkpt>
      <trkpt lat="42.6465900" lon="-7.1391430">
        <ele>775.4</ele>
        <time>2014-10-02T14:05:43Z</time>
      </trkpt>
      <trkpt lat="42.6465970" lon="-7.1390960">
        <ele>775.8</ele>
        <time>2014-10-02T14:05:44Z</time>
      </trkpt>
      <trkpt lat="42.6466050" lon="-7.1390470">
        <ele>776.2</ele>
        <time>2014-10-02T14:05:45Z</time>
      </trkpt>
      <trkpt lat="42.6466120" lon="-7.1390060">
        <ele>776.5</ele>
        <time>2014-10-02T14:05:46Z</time>
      </trkpt>
      <trkpt lat="42.6466180" lon="-7.1389640">
        <ele>776.9</ele>
        <time>2014-10-02T14:05:47Z</time>
      </trkpt>
      <trkpt lat="42.6466250" lon="-7.1389210">
        <ele>777.2</ele>
        <time>2014-10-02T14:05:48Z</time>
      </trkpt>
      <trkpt lat="42.6466340" lon="-7.1388780">
        <ele>777.6</ele>
        <time>2014-10-02T14:05:49Z</time>
      </trkpt>
      <trkpt lat="42.6466430" lon="-7.1388400">
        <ele>778.0</ele>
        <time>2014-10-02T14:05:50Z</time>
      </trkpt>
      <trkpt lat="42.6466640" lon="-7.1387660">
        <ele>778.7</ele>
        <time>2014-10-02T14:05:52Z</time>
      </trkpt>
      <trkpt lat="42.6466760" lon="-7.1387330">
        <ele>779.0</ele>
        <time>2014-10-02T14:05:53Z</time>
      </trkpt>
      <trkpt lat="42.6466910" lon="-7.1387010">
        <ele>779.3</ele>
        <time>2014-10-02T14:05:54Z</time>
      </trkpt>
      <trkpt lat="42.6467210" lon="-7.1386460">
        <ele>779.9</ele>
        <time>2014-10-02T14:05:56Z</time>
      </trkpt>
      <trkpt lat="42.6467390" lon="-7.1386130">
        <ele>780.2</ele>
        <time>2014-10-02T14:05:57Z</time>
      </trkpt>
      <trkpt lat="42.6467570" lon="-7.1385820">
        <ele>780.5</ele>
        <time>2014-10-02T14:05:58Z</time>
      </trkpt>
      <trkpt lat="42.6467760" lon="-7.1385510">
        <ele>780.8</ele>
        <time>2014-10-02T14:05:59Z</time>
      </trkpt>
      <trkpt lat="42.6467990" lon="-7.1385170">
        <ele>781.1</ele>
        <time>2014-10-02T14:06:00Z</time>
      </trkpt>
      <trkpt lat="42.6468190" lon="-7.1384910">
        <ele>781.5</ele>
        <time>2014-10-02T14:06:01Z</time>
      </trkpt>
      <trkpt lat="42.6468410" lon="-7.1384680">
        <ele>781.8</ele>
        <time>2014-10-02T14:06:02Z</time>
      </trkpt>
      <trkpt lat="42.6468660" lon="-7.1384450">
        <ele>782.2</ele>
        <time>2014-10-02T14:06:03Z</time>
      </trkpt>
      <trkpt lat="42.6469140" lon="-7.1384060">
        <ele>782.8</ele>
        <time>2014-10-02T14:06:05Z</time>
      </trkpt>
      <trkpt lat="42.6469640" lon="-7.1383720">
        <ele>783.6</ele>
        <time>2014-10-02T14:06:07Z</time>
      </trkpt>
      <trkpt lat="42.6470120" lon="-7.1383450">
        <ele>784.3</ele>
        <time>2014-10-02T14:06:09Z</time>
      </trkpt>
      <trkpt lat="42.6470460" lon="-7.1383220">
        <ele>784.8</ele>
        <time>2014-10-02T14:06:11Z</time>
      </trkpt>
      <trkpt lat="42.6470880" lon="-7.1382850">
        <ele>785.4</ele>
        <time>2014-10-02T14:06:13Z</time>
      </trkpt>
      <trkpt lat="42.6471230" lon="-7.1382590">
        <ele>785.8</ele>
        <time>2014-10-02T14:06:15Z</time>
      </trkpt>
      <trkpt lat="42.6471560" lon="-7.1382450">
        <ele>786.2</ele>
        <time>2014-10-02T14:06:17Z</time>
      </trkpt>
      <trkpt lat="42.6471950" lon="-7.1382310">
        <ele>786.7</ele>
        <time>2014-10-02T14:06:19Z</time>
      </trkpt>
      <trkpt lat="42.6472340" lon="-7.1382160">
        <ele>787.1</ele>
        <time>2014-10-02T14:06:21Z</time>
      </trkpt>
      <trkpt lat="42.6472790" lon="-7.1381900">
        <ele>787.8</ele>
        <time>2014-10-02T14:06:23Z</time>
      </trkpt>
      <trkpt lat="42.6473030" lon="-7.1381720">
        <ele>788.1</ele>
        <time>2014-10-02T14:06:24Z</time>
      </trkpt>
      <trkpt lat="42.6473430" lon="-7.1381390">
        <ele>788.7</ele>
        <time>2014-10-02T14:06:26Z</time>
      </trkpt>
      <trkpt lat="42.6473860" lon="-7.1381070">
        <ele>789.2</ele>
        <time>2014-10-02T14:06:28Z</time>
      </trkpt>
      <trkpt lat="42.6474280" lon="-7.1380630">
        <ele>789.8</ele>
        <time>2014-10-02T14:06:30Z</time>
      </trkpt>
      <trkpt lat="42.6474500" lon="-7.1380400">
        <ele>790.0</ele>
        <time>2014-10-02T14:06:31Z</time>
      </trkpt>
      <trkpt lat="42.6474720" lon="-7.1380140">
        <ele>790.3</ele>
        <time>2014-10-02T14:06:32Z</time>
      </trkpt>
      <trkpt lat="42.6475060" lon="-7.1379650">
        <ele>790.8</ele>
        <time>2014-10-02T14:06:34Z</time>
      </trkpt>
      <trkpt lat="42.6475280" lon="-7.1379410">
        <ele>791.1</ele>
        <time>2014-10-02T14:06:35Z</time>
      </trkpt>
      <trkpt lat="42.6475550" lon="-7.1379170">
        <ele>791.5</ele>
        <time>2014-10-02T14:06:36Z</time>
      </trkpt>
      <trkpt lat="42.6475780" lon="-7.1378880">
        <ele>791.8</ele>
        <time>2014-10-02T14:06:37Z</time>
      </trkpt>
      <trkpt lat="42.6476040" lon="-7.1378660">
        <ele>792.1</ele>
        <time>2014-10-02T14:06:38Z</time>
      </trkpt>
      <trkpt lat="42.6476300" lon="-7.1378140">
        <ele>792.6</ele>
        <time>2014-10-02T14:06:40Z</time>
      </trkpt>
      <trkpt lat="42.6476450" lon="-7.1377500">
        <ele>793.1</ele>
        <time>2014-10-02T14:06:42Z</time>
      </trkpt>
      <trkpt lat="42.6476570" lon="-7.1376950">
        <ele>793.6</ele>
        <time>2014-10-02T14:06:44Z</time>
      </trkpt>
      <trkpt lat="42.6476660" lon="-7.1376440">
        <ele>793.9</ele>
        <time>2014-10-02T14:06:46Z</time>
      </trkpt>
      <trkpt lat="42.6476710" lon="-7.1375800">
        <ele>794.4</ele>
        <time>2014-10-02T14:06:48Z</time>
      </trkpt>
      <trkpt lat="42.6476720" lon="-7.1375150">
        <ele>794.8</ele>
        <time>2014-10-02T14:06:50Z</time>
      </trkpt>
      <trkpt lat="42.6476740" lon="-7.1374590">
        <ele>795.1</ele>
        <time>2014-10-02T14:06:52Z</time>
      </trkpt>
      <trkpt lat="42.6476590" lon="-7.1373980">
        <ele>795.5</ele>
        <time>2014-10-02T14:06:54Z</time>
      </trkpt>
      <trkpt lat="42.6476460" lon="-7.1373320">
        <ele>795.8</ele>
        <time>2014-10-02T14:06:56Z</time>
      </trkpt>
      <trkpt lat="42.6476390" lon="-7.1372920">
        <ele>796.0</ele>
        <time>2014-10-02T14:06:57Z</time>
      </trkpt>
      <trkpt lat="42.6476280" lon="-7.1372520">
        <ele>796.2</ele>
        <time>2014-10-02T14:06:58Z</time>
      </trkpt>
      <trkpt lat="42.6476200" lon="-7.1372130">
        <ele>796.4</ele>
        <time>2014-10-02T14:06:59Z</time>
      </trkpt>
      <trkpt lat="42.6476120" lon="-7.1371650">
        <ele>796.6</ele>
        <time>2014-10-02T14:07:00Z</time>
      </trkpt>
      <trkpt lat="42.6475990" lon="-7.1371170">
        <ele>796.8</ele>
        <time>2014-10-02T14:07:01Z</time>
      </trkpt>
      <trkpt lat="42.6475830" lon="-7.1370700">
        <ele>797.0</ele>
        <time>2014-10-02T14:07:02Z</time>
      </trkpt>
      <trkpt lat="42.6475650" lon="-7.1370200">
        <ele>797.2</ele>
        <time>2014-10-02T14:07:03Z</time>
      </trkpt>
      <trkpt lat="42.6475430" lon="-7.1369750">
        <ele>797.4</ele>
        <time>2014-10-02T14:07:04Z</time>
      </trkpt>
      <trkpt lat="42.6475230" lon="-7.1369250">
        <ele>797.6</ele>
        <time>2014-10-02T14:07:05Z</time>
      </trkpt>
      <trkpt lat="42.6475130" lon="-7.1368840">
        <ele>797.7</ele>
        <time>2014-10-02T14:07:06Z</time>
      </trkpt>
      <trkpt lat="42.6475000" lon="-7.1368370">
        <ele>797.9</ele>
        <time>2014-10-02T14:07:07Z</time>
      </trkpt>
      <trkpt lat="42.6474910" lon="-7.1367900">
        <ele>798.0</ele>
        <time>2014-10-02T14:07:08Z</time>
      </trkpt>
      <trkpt lat="42.6474800" lon="-7.1367350">
        <ele>798.1</ele>
        <time>2014-10-02T14:07:09Z</time>
      </trkpt>
      <trkpt lat="42.6474640" lon="-7.1366830">
        <ele>798.3</ele>
        <time>2014-10-02T14:07:10Z</time>
      </trkpt>
      <trkpt lat="42.6474460" lon="-7.1366330">
        <ele>798.4</ele>
        <time>2014-10-02T14:07:11Z</time>
      </trkpt>
      <trkpt lat="42.6474320" lon="-7.1365810">
        <ele>798.5</ele>
        <time>2014-10-02T14:07:12Z</time>
      </trkpt>
      <trkpt lat="42.6474200" lon="-7.1365240">
        <ele>798.6</ele>
        <time>2014-10-02T14:07:13Z</time>
      </trkpt>
      <trkpt lat="42.6474090" lon="-7.1364790">
        <ele>798.8</ele>
        <time>2014-10-02T14:07:14Z</time>
      </trkpt>
      <trkpt lat="42.6473950" lon="-7.1364390">
        <ele>798.8</ele>
        <time>2014-10-02T14:07:15Z</time>
      </trkpt>
      <trkpt lat="42.6473830" lon="-7.1363920">
        <ele>799.0</ele>
        <time>2014-10-02T14:07:16Z</time>
      </trkpt>
      <trkpt lat="42.6473750" lon="-7.1363410">
        <ele>799.1</ele>
        <time>2014-10-02T14:07:17Z</time>
      </trkpt>
      <trkpt lat="42.6473700" lon="-7.1362880">
        <ele>799.2</ele>
        <time>2014-10-02T14:07:18Z</time>
      </trkpt>
      <trkpt lat="42.6473690" lon="-7.1362270">
        <ele>799.2</ele>
        <time>2014-10-02T14:07:19Z</time>
      </trkpt>
      <trkpt lat="42.6473680" lon="-7.1361700">
        <ele>799.3</ele>
        <time>2014-10-02T14:07:20Z</time>
      </trkpt>
      <trkpt lat="42.6473660" lon="-7.1361130">
        <ele>799.4</ele>
        <time>2014-10-02T14:07:21Z</time>
      </trkpt>
      <trkpt lat="42.6473710" lon="-7.1360580">
        <ele>799.4</ele>
        <time>2014-10-02T14:07:22Z</time>
      </trkpt>
      <trkpt lat="42.6473700" lon="-7.1359960">
        <ele>799.5</ele>
        <time>2014-10-02T14:07:23Z</time>
      </trkpt>
      <trkpt lat="42.6473750" lon="-7.1359240">
        <ele>799.6</ele>
        <time>2014-10-02T14:07:24Z</time>
      </trkpt>
      <trkpt lat="42.6473790" lon="-7.1358460">
        <ele>799.6</ele>
        <time>2014-10-02T14:07:25Z</time>
      </trkpt>
      <trkpt lat="42.6473880" lon="-7.1357760">
        <ele>799.7</ele>
        <time>2014-10-02T14:07:26Z</time>
      </trkpt>
      <trkpt lat="42.6473940" lon="-7.1357130">
        <ele>799.7</ele>
        <time>2014-10-02T14:07:27Z</time>
      </trkpt>
      <trkpt lat="42.6474000" lon="-7.1356470">
        <ele>799.8</ele>
        <time>2014-10-02T14:07:28Z</time>
      </trkpt>
      <trkpt lat="42.6474090" lon="-7.1355940">
        <ele>799.8</ele>
        <time>2014-10-02T14:07:29Z</time>
      </trkpt>
      <trkpt lat="42.6474230" lon="-7.1355330">
        <ele>799.9</ele>
        <time>2014-10-02T14:07:30Z</time>
      </trkpt>
      <trkpt lat="42.6474330" lon="-7.1354730">
        <ele>799.9</ele>
        <time>2014-10-02T14:07:31Z</time>
      </trkpt>
      <trkpt lat="42.6474420" lon="-7.1354000">
        <ele>799.8</ele>
        <time>2014-10-02T14:07:32Z</time>
      </trkpt>
      <trkpt lat="42.6474500" lon="-7.1353270">
        <ele>799.8</ele>
        <time>2014-10-02T14:07:33Z</time>
      </trkpt>
      <trkpt lat="42.6474580" lon="-7.1352580">
        <ele>799.7</ele>
        <time>2014-10-02T14:07:34Z</time>
      </trkpt>
      <trkpt lat="42.6474690" lon="-7.1351840">
        <ele>799.6</ele>
        <time>2014-10-02T14:07:35Z</time>
      </trkpt>
      <trkpt lat="42.6474810" lon="-7.1351110">
        <ele>799.5</ele>
        <time>2014-10-02T14:07:36Z</time>
      </trkpt>
      <trkpt lat="42.6474920" lon="-7.1350400">
        <ele>799.4</ele>
        <time>2014-10-02T14:07:37Z</time>
      </trkpt>
      <trkpt lat="42.6475020" lon="-7.1349600">
        <ele>799.4</ele>
        <time>2014-10-02T14:07:38Z</time>
      </trkpt>
      <trkpt lat="42.6475140" lon="-7.1348750">
        <ele>799.2</ele>
        <time>2014-10-02T14:07:39Z</time>
      </trkpt>
      <trkpt lat="42.6475260" lon="-7.1347920">
        <ele>799.1</ele>
        <time>2014-10-02T14:07:40Z</time>
      </trkpt>
      <trkpt lat="42.6475370" lon="-7.1347020">
        <ele>798.9</ele>
        <time>2014-10-02T14:07:41Z</time>
      </trkpt>
      <trkpt lat="42.6475520" lon="-7.1346160">
        <ele>798.6</ele>
        <time>2014-10-02T14:07:42Z</time>
      </trkpt>
      <trkpt lat="42.6475650" lon="-7.1345340">
        <ele>798.3</ele>
        <time>2014-10-02T14:07:43Z</time>
      </trkpt>
      <trkpt lat="42.6475820" lon="-7.1344490">
        <ele>798.1</ele>
        <time>2014-10-02T14:07:44Z</time>
      </trkpt>
      <trkpt lat="42.6475990" lon="-7.1343630">
        <ele>797.8</ele>
        <time>2014-10-02T14:07:45Z</time>
      </trkpt>
      <trkpt lat="42.6476160" lon="-7.1342700">
        <ele>797.5</ele>
        <time>2014-10-02T14:07:46Z</time>
      </trkpt>
      <trkpt lat="42.6476330" lon="-7.1341900">
        <ele>797.0</ele>
        <time>2014-10-02T14:07:47Z</time>
      </trkpt>
      <trkpt lat="42.6476520" lon="-7.1341070">
        <ele>796.2</ele>
        <time>2014-10-02T14:07:48Z</time>
      </trkpt>
      <trkpt lat="42.6476940" lon="-7.1340150">
        <ele>794.8</ele>
        <time>2014-10-02T14:07:49Z</time>
      </trkpt>
      <trkpt lat="42.6477380" lon="-7.1339260">
        <ele>794.5</ele>
        <time>2014-10-02T14:07:50Z</time>
      </trkpt>
      <trkpt lat="42.6477860" lon="-7.1338450">
        <ele>794.3</ele>
        <time>2014-10-02T14:07:51Z</time>
      </trkpt>
      <trkpt lat="42.6478390" lon="-7.1337700">
        <ele>794.1</ele>
        <time>2014-10-02T14:07:52Z</time>
      </trkpt>
      <trkpt lat="42.6479030" lon="-7.1336840">
        <ele>793.7</ele>
        <time>2014-10-02T14:07:53Z</time>
      </trkpt>
      <trkpt lat="42.6479700" lon="-7.1335950">
        <ele>793.4</ele>
        <time>2014-10-02T14:07:54Z</time>
      </trkpt>
      <trkpt lat="42.6480440" lon="-7.1335040">
        <ele>793.2</ele>
        <time>2014-10-02T14:07:55Z</time>
      </trkpt>
      <trkpt lat="42.6481180" lon="-7.1334130">
        <ele>793.0</ele>
        <time>2014-10-02T14:07:56Z</time>
      </trkpt>
      <trkpt lat="42.6481790" lon="-7.1333290">
        <ele>792.8</ele>
        <time>2014-10-02T14:07:57Z</time>
      </trkpt>
      <trkpt lat="42.6482110" lon="-7.1332290">
        <ele>792.5</ele>
        <time>2014-10-02T14:07:58Z</time>
      </trkpt>
      <trkpt lat="42.6482410" lon="-7.1331240">
        <ele>792.1</ele>
        <time>2014-10-02T14:07:59Z</time>
      </trkpt>
      <trkpt lat="42.6482640" lon="-7.1330210">
        <ele>791.7</ele>
        <time>2014-10-02T14:08:00Z</time>
      </trkpt>
      <trkpt lat="42.6482810" lon="-7.1329040">
        <ele>791.5</ele>
        <time>2014-10-02T14:08:01Z</time>
      </trkpt>
      <trkpt lat="42.6482930" lon="-7.1327760">
        <ele>791.2</ele>
        <time>2014-10-02T14:08:02Z</time>
      </trkpt>
      <trkpt lat="42.6482990" lon="-7.1326390">
        <ele>790.9</ele>
        <time>2014-10-02T14:08:03Z</time>
      </trkpt>
      <trkpt lat="42.6483070" lon="-7.1324890">
        <ele>790.6</ele>
        <time>2014-10-02T14:08:04Z</time>
      </trkpt>
      <trkpt lat="42.6483160" lon="-7.1323460">
        <ele>790.3</ele>
        <time>2014-10-02T14:08:05Z</time>
      </trkpt>
      <trkpt lat="42.6483280" lon="-7.1322070">
        <ele>790.0</ele>
        <time>2014-10-02T14:08:06Z</time>
      </trkpt>
      <trkpt lat="42.6483440" lon="-7.1320800">
        <ele>789.7</ele>
        <time>2014-10-02T14:08:07Z</time>
      </trkpt>
      <trkpt lat="42.6483670" lon="-7.1319570">
        <ele>789.4</ele>
        <time>2014-10-02T14:08:08Z</time>
      </trkpt>
      <trkpt lat="42.6484030" lon="-7.1318240">
        <ele>788.9</ele>
        <time>2014-10-02T14:08:09Z</time>
      </trkpt>
      <trkpt lat="42.6484590" lon="-7.1317090">
        <ele>788.5</ele>
        <time>2014-10-02T14:08:10Z</time>
      </trkpt>
      <trkpt lat="42.6485140" lon="-7.1315930">
        <ele>787.9</ele>
        <time>2014-10-02T14:08:11Z</time>
      </trkpt>
      <trkpt lat="42.6485740" lon="-7.1314700">
        <ele>787.6</ele>
        <time>2014-10-02T14:08:12Z</time>
      </trkpt>
      <trkpt lat="42.6486430" lon="-7.1313360">
        <ele>787.5</ele>
        <time>2014-10-02T14:08:13Z</time>
      </trkpt>
      <trkpt lat="42.6487170" lon="-7.1312080">
        <ele>787.6</ele>
        <time>2014-10-02T14:08:14Z</time>
      </trkpt>
      <trkpt lat="42.6487950" lon="-7.1310790">
        <ele>787.5</ele>
        <time>2014-10-02T14:08:15Z</time>
      </trkpt>
      <trkpt lat="42.6488650" lon="-7.1309670">
        <ele>787.1</ele>
        <time>2014-10-02T14:08:16Z</time>
      </trkpt>
      <trkpt lat="42.6489390" lon="-7.1308520">
        <ele>786.7</ele>
        <time>2014-10-02T14:08:17Z</time>
      </trkpt>
      <trkpt lat="42.6490130" lon="-7.1307400">
        <ele>786.5</ele>
        <time>2014-10-02T14:08:18Z</time>
      </trkpt>
      <trkpt lat="42.6490860" lon="-7.1306280">
        <ele>786.5</ele>
        <time>2014-10-02T14:08:19Z</time>
      </trkpt>
      <trkpt lat="42.6491560" lon="-7.1305180">
        <ele>786.7</ele>
        <time>2014-10-02T14:08:20Z</time>
      </trkpt>
      <trkpt lat="42.6492180" lon="-7.1304190">
        <ele>786.9</ele>
        <time>2014-10-02T14:08:21Z</time>
      </trkpt>
      <trkpt lat="42.6492840" lon="-7.1303130">
        <ele>787.2</ele>
        <time>2014-10-02T14:08:22Z</time>
      </trkpt>
      <trkpt lat="42.6493510" lon="-7.1301990">
        <ele>787.5</ele>
        <time>2014-10-02T14:08:23Z</time>
      </trkpt>
      <trkpt lat="42.6494190" lon="-7.1300890">
        <ele>787.8</ele>
        <time>2014-10-02T14:08:24Z</time>
      </trkpt>
      <trkpt lat="42.6494820" lon="-7.1299870">
        <ele>788.3</ele>
        <time>2014-10-02T14:08:25Z</time>
      </trkpt>
      <trkpt lat="42.6495390" lon="-7.1298950">
        <ele>788.8</ele>
        <time>2014-10-02T14:08:26Z</time>
      </trkpt>
      <trkpt lat="42.6495970" lon="-7.1298090">
        <ele>789.4</ele>
        <time>2014-10-02T14:08:27Z</time>
      </trkpt>
      <trkpt lat="42.6496550" lon="-7.1297300">
        <ele>789.9</ele>
        <time>2014-10-02T14:08:28Z</time>
      </trkpt>
      <trkpt lat="42.6497210" lon="-7.1296520">
        <ele>790.5</ele>
        <time>2014-10-02T14:08:29Z</time>
      </trkpt>
      <trkpt lat="42.6498020" lon="-7.1295930">
        <ele>791.1</ele>
        <time>2014-10-02T14:08:30Z</time>
      </trkpt>
      <trkpt lat="42.6498840" lon="-7.1295440">
        <ele>791.4</ele>
        <time>2014-10-02T14:08:31Z</time>
      </trkpt>
      <trkpt lat="42.6499720" lon="-7.1295270">
        <ele>791.7</ele>
        <time>2014-10-02T14:08:32Z</time>
      </trkpt>
      <trkpt lat="42.6500570" lon="-7.1295170">
        <ele>791.9</ele>
        <time>2014-10-02T14:08:33Z</time>
      </trkpt>
      <trkpt lat="42.6501380" lon="-7.1295450">
        <ele>792.1</ele>
        <time>2014-10-02T14:08:34Z</time>
      </trkpt>
      <trkpt lat="42.6502150" lon="-7.1295840">
        <ele>792.3</ele>
        <time>2014-10-02T14:08:35Z</time>
      </trkpt>
      <trkpt lat="42.6502800" lon="-7.1296510">
        <ele>792.4</ele>
        <time>2014-10-02T14:08:36Z</time>
      </trkpt>
      <trkpt lat="42.6503430" lon="-7.1297190">
        <ele>792.4</ele>
        <time>2014-10-02T14:08:37Z</time>
      </trkpt>
      <trkpt lat="42.6504120" lon="-7.1297970">
        <ele>792.3</ele>
        <time>2014-10-02T14:08:38Z</time>
      </trkpt>
      <trkpt lat="42.6504770" lon="-7.1298730">
        <ele>792.1</ele>
        <time>2014-10-02T14:08:39Z</time>
      </trkpt>
      <trkpt lat="42.6505410" lon="-7.1299450">
        <ele>791.9</ele>
        <time>2014-10-02T14:08:40Z</time>
      </trkpt>
      <trkpt lat="42.6506230" lon="-7.1299990">
        <ele>791.6</ele>
        <time>2014-10-02T14:08:41Z</time>
      </trkpt>
      <trkpt lat="42.6507110" lon="-7.1300510">
        <ele>791.1</ele>
        <time>2014-10-02T14:08:42Z</time>
      </trkpt>
      <trkpt lat="42.6508130" lon="-7.1301000">
        <ele>790.7</ele>
        <time>2014-10-02T14:08:43Z</time>
      </trkpt>
      <trkpt lat="42.6509270" lon="-7.1301130">
        <ele>790.4</ele>
        <time>2014-10-02T14:08:44Z</time>
      </trkpt>
      <trkpt lat="42.6510450" lon="-7.1301200">
        <ele>790.0</ele>
        <time>2014-10-02T14:08:45Z</time>
      </trkpt>
      <trkpt lat="42.6511630" lon="-7.1300960">
        <ele>789.3</ele>
        <time>2014-10-02T14:08:46Z</time>
      </trkpt>
      <trkpt lat="42.6512870" lon="-7.1300610">
        <ele>788.3</ele>
        <time>2014-10-02T14:08:47Z</time>
      </trkpt>
      <trkpt lat="42.6514080" lon="-7.1299820">
        <ele>786.9</ele>
        <time>2014-10-02T14:08:48Z</time>
      </trkpt>
      <trkpt lat="42.6515320" lon="-7.1298850">
        <ele>785.2</ele>
        <time>2014-10-02T14:08:49Z</time>
      </trkpt>
      <trkpt lat="42.6516340" lon="-7.1297490">
        <ele>784.0</ele>
        <time>2014-10-02T14:08:50Z</time>
      </trkpt>
      <trkpt lat="42.6517290" lon="-7.1296010">
        <ele>783.1</ele>
        <time>2014-10-02T14:08:51Z</time>
      </trkpt>
      <trkpt lat="42.6518150" lon="-7.1294400">
        <ele>782.3</ele>
        <time>2014-10-02T14:08:52Z</time>
      </trkpt>
      <trkpt lat="42.6518910" lon="-7.1292750">
        <ele>781.7</ele>
        <time>2014-10-02T14:08:53Z</time>
      </trkpt>
      <trkpt lat="42.6519530" lon="-7.1291250">
        <ele>780.8</ele>
        <time>2014-10-02T14:08:54Z</time>
      </trkpt>
      <trkpt lat="42.6520130" lon="-7.1289630">
        <ele>779.1</ele>
        <time>2014-10-02T14:08:55Z</time>
      </trkpt>
      <trkpt lat="42.6520650" lon="-7.1287990">
        <ele>777.5</ele>
        <time>2014-10-02T14:08:56Z</time>
      </trkpt>
      <trkpt lat="42.6521140" lon="-7.1286300">
        <ele>776.5</ele>
        <time>2014-10-02T14:08:57Z</time>
      </trkpt>
      <trkpt lat="42.6521610" lon="-7.1284590">
        <ele>775.9</ele>
        <time>2014-10-02T14:08:58Z</time>
      </trkpt>
      <trkpt lat="42.6522030" lon="-7.1282940">
        <ele>775.8</ele>
        <time>2014-10-02T14:08:59Z</time>
      </trkpt>
      <trkpt lat="42.6522490" lon="-7.1281240">
        <ele>775.8</ele>
        <time>2014-10-02T14:09:00Z</time>
      </trkpt>
      <trkpt lat="42.6522900" lon="-7.1279650">
        <ele>775.8</ele>
        <time>2014-10-02T14:09:01Z</time>
      </trkpt>
      <trkpt lat="42.6523260" lon="-7.1278110">
        <ele>775.8</ele>
        <time>2014-10-02T14:09:02Z</time>
      </trkpt>
      <trkpt lat="42.6523610" lon="-7.1276670">
        <ele>775.6</ele>
        <time>2014-10-02T14:09:03Z</time>
      </trkpt>
      <trkpt lat="42.6523960" lon="-7.1275210">
        <ele>775.3</ele>
        <time>2014-10-02T14:09:04Z</time>
      </trkpt>
      <trkpt lat="42.6524370" lon="-7.1273610">
        <ele>775.0</ele>
        <time>2014-10-02T14:09:05Z</time>
      </trkpt>
      <trkpt lat="42.6524810" lon="-7.1272160">
        <ele>774.9</ele>
        <time>2014-10-02T14:09:06Z</time>
      </trkpt>
      <trkpt lat="42.6525300" lon="-7.1270740">
        <ele>774.7</ele>
        <time>2014-10-02T14:09:07Z</time>
      </trkpt>
      <trkpt lat="42.6525890" lon="-7.1269320">
        <ele>774.6</ele>
        <time>2014-10-02T14:09:08Z</time>
      </trkpt>
      <trkpt lat="42.6526470" lon="-7.1268120">
        <ele>774.5</ele>
        <time>2014-10-02T14:09:09Z</time>
      </trkpt>
      <trkpt lat="42.6527120" lon="-7.1266830">
        <ele>774.0</ele>
        <time>2014-10-02T14:09:10Z</time>
      </trkpt>
      <trkpt lat="42.6527790" lon="-7.1265630">
        <ele>772.7</ele>
        <time>2014-10-02T14:09:11Z</time>
      </trkpt>
      <trkpt lat="42.6528470" lon="-7.1264560">
        <ele>769.9</ele>
        <time>2014-10-02T14:09:12Z</time>
      </trkpt>
      <trkpt lat="42.6529210" lon="-7.1263450">
        <ele>768.8</ele>
        <time>2014-10-02T14:09:13Z</time>
      </trkpt>
      <trkpt lat="42.6529870" lon="-7.1262560">
        <ele>768.4</ele>
        <time>2014-10-02T14:09:14Z</time>
      </trkpt>
      <trkpt lat="42.6530560" lon="-7.1261710">
        <ele>768.3</ele>
        <time>2014-10-02T14:09:15Z</time>
      </trkpt>
      <trkpt lat="42.6531250" lon="-7.1260920">
        <ele>768.3</ele>
        <time>2014-10-02T14:09:16Z</time>
      </trkpt>
      <trkpt lat="42.6531910" lon="-7.1260180">
        <ele>768.5</ele>
        <time>2014-10-02T14:09:17Z</time>
      </trkpt>
      <trkpt lat="42.6532420" lon="-7.1259570">
        <ele>768.8</ele>
        <time>2014-10-02T14:09:18Z</time>
      </trkpt>
      <trkpt lat="42.6532960" lon="-7.1258780">
        <ele>769.0</ele>
        <time>2014-10-02T14:09:19Z</time>
      </trkpt>
      <trkpt lat="42.6533560" lon="-7.1257980">
        <ele>769.3</ele>
        <time>2014-10-02T14:09:20Z</time>
      </trkpt>
      <trkpt lat="42.6534020" lon="-7.1257290">
        <ele>769.6</ele>
        <time>2014-10-02T14:09:21Z</time>
      </trkpt>
      <trkpt lat="42.6534440" lon="-7.1256640">
        <ele>769.9</ele>
        <time>2014-10-02T14:09:22Z</time>
      </trkpt>
      <trkpt lat="42.6534820" lon="-7.1255970">
        <ele>770.3</ele>
        <time>2014-10-02T14:09:23Z</time>
      </trkpt>
      <trkpt lat="42.6535160" lon="-7.1255400">
        <ele>770.5</ele>
        <time>2014-10-02T14:09:24Z</time>
      </trkpt>
      <trkpt lat="42.6535500" lon="-7.1254830">
        <ele>770.8</ele>
        <time>2014-10-02T14:09:25Z</time>
      </trkpt>
      <trkpt lat="42.6535910" lon="-7.1254200">
        <ele>771.2</ele>
        <time>2014-10-02T14:09:26Z</time>
      </trkpt>
      <trkpt lat="42.6536340" lon="-7.1253620">
        <ele>771.6</ele>
        <time>2014-10-02T14:09:27Z</time>
      </trkpt>
      <trkpt lat="42.6536820" lon="-7.1253030">
        <ele>772.1</ele>
        <time>2014-10-02T14:09:28Z</time>
      </trkpt>
      <trkpt lat="42.6537390" lon="-7.1252670">
        <ele>772.7</ele>
        <time>2014-10-02T14:09:29Z</time>
      </trkpt>
      <trkpt lat="42.6537870" lon="-7.1252360">
        <ele>773.1</ele>
        <time>2014-10-02T14:09:30Z</time>
      </trkpt>
      <trkpt lat="42.6538310" lon="-7.1252140">
        <ele>773.5</ele>
        <time>2014-10-02T14:09:31Z</time>
      </trkpt>
      <trkpt lat="42.6538730" lon="-7.1251940">
        <ele>773.8</ele>
        <time>2014-10-02T14:09:32Z</time>
      </trkpt>
      <trkpt lat="42.6539190" lon="-7.1251720">
        <ele>774.2</ele>
        <time>2014-10-02T14:09:33Z</time>
      </trkpt>
      <trkpt lat="42.6540360" lon="-7.1252240">
        <ele>775.1</ele>
        <time>2014-10-02T14:09:36Z</time>
      </trkpt>
      <trkpt lat="42.6540650" lon="-7.1252480">
        <ele>775.4</ele>
        <time>2014-10-02T14:09:37Z</time>
      </trkpt>
      <trkpt lat="42.6540960" lon="-7.1252770">
        <ele>775.7</ele>
        <time>2014-10-02T14:09:38Z</time>
      </trkpt>
      <trkpt lat="42.6541230" lon="-7.1253020">
        <ele>776.0</ele>
        <time>2014-10-02T14:09:39Z</time>
      </trkpt>
      <trkpt lat="42.6541550" lon="-7.1253320">
        <ele>776.2</ele>
        <time>2014-10-02T14:09:40Z</time>
      </trkpt>
      <trkpt lat="42.6541900" lon="-7.1253720">
        <ele>776.5</ele>
        <time>2014-10-02T14:09:41Z</time>
      </trkpt>
      <trkpt lat="42.6542250" lon="-7.1254070">
        <ele>776.8</ele>
        <time>2014-10-02T14:09:42Z</time>
      </trkpt>
      <trkpt lat="42.6542540" lon="-7.1254350">
        <ele>776.9</ele>
        <time>2014-10-02T14:09:43Z</time>
      </trkpt>
      <trkpt lat="42.6542850" lon="-7.1254630">
        <ele>777.1</ele>
        <time>2014-10-02T14:09:44Z</time>
      </trkpt>
      <trkpt lat="42.6543170" lon="-7.1254950">
        <ele>777.3</ele>
        <time>2014-10-02T14:09:45Z</time>
      </trkpt>
      <trkpt lat="42.6542670" lon="-7.1255290">
        <ele>775.6</ele>
        <time>2014-10-02T14:09:46Z</time>
      </trkpt>
      <trkpt lat="42.6542030" lon="-7.1255640">
        <ele>776.8</ele>
        <time>2014-10-02T14:09:47Z</time>
      </trkpt>
      <trkpt lat="42.6541110" lon="-7.1255820">
        <ele>779.6</ele>
        <time>2014-10-02T14:09:48Z</time>
      </trkpt>
      <trkpt lat="42.6540090" lon="-7.1255750">
        <ele>778.2</ele>
        <time>2014-10-02T14:09:49Z</time>
      </trkpt>
      <trkpt lat="42.6539230" lon="-7.1255800">
        <ele>782.0</ele>
        <time>2014-10-02T14:09:50Z</time>
      </trkpt>
      <trkpt lat="42.6538280" lon="-7.1256620">
        <ele>785.2</ele>
        <time>2014-10-02T14:09:51Z</time>
      </trkpt>
      <trkpt lat="42.6538110" lon="-7.1257160">
        <ele>788.1</ele>
        <time>2014-10-02T14:09:52Z</time>
      </trkpt>
      <trkpt lat="42.6538490" lon="-7.1258360">
        <ele>787.5</ele>
        <time>2014-10-02T14:09:53Z</time>
      </trkpt>
      <trkpt lat="42.6538980" lon="-7.1259150">
        <ele>783.9</ele>
        <time>2014-10-02T14:09:54Z</time>
      </trkpt>
      <trkpt lat="42.6539440" lon="-7.1260020">
        <ele>778.1</ele>
        <time>2014-10-02T14:09:55Z</time>
      </trkpt>
      <trkpt lat="42.6539920" lon="-7.1260980">
        <ele>775.4</ele>
        <time>2014-10-02T14:09:56Z</time>
      </trkpt>
      <trkpt lat="42.6540290" lon="-7.1261790">
        <ele>774.3</ele>
        <time>2014-10-02T14:09:57Z</time>
      </trkpt>
      <trkpt lat="42.6540620" lon="-7.1262690">
        <ele>774.3</ele>
        <time>2014-10-02T14:09:58Z</time>
      </trkpt>
      <trkpt lat="42.6540960" lon="-7.1263470">
        <ele>773.2</ele>
        <time>2014-10-02T14:09:59Z</time>
      </trkpt>
      <trkpt lat="42.6541380" lon="-7.1264310">
        <ele>773.0</ele>
        <time>2014-10-02T14:10:00Z</time>
      </trkpt>
      <trkpt lat="42.6542300" lon="-7.1265370">
        <ele>773.3</ele>
        <time>2014-10-02T14:10:01Z</time>
      </trkpt>
      <trkpt lat="42.6543390" lon="-7.1266410">
        <ele>772.8</ele>
        <time>2014-10-02T14:10:02Z</time>
      </trkpt>
      <trkpt lat="42.6544270" lon="-7.1267370">
        <ele>774.8</ele>
        <time>2014-10-02T14:10:03Z</time>
      </trkpt>
      <trkpt lat="42.6545260" lon="-7.1268220">
        <ele>774.2</ele>
        <time>2014-10-02T14:10:04Z</time>
      </trkpt>
      <trkpt lat="42.6546170" lon="-7.1269020">
        <ele>773.5</ele>
        <time>2014-10-02T14:10:05Z</time>
      </trkpt>
      <trkpt lat="42.6546860" lon="-7.1269640">
        <ele>772.9</ele>
        <time>2014-10-02T14:10:06Z</time>
      </trkpt>
      <trkpt lat="42.6547400" lon="-7.1270120">
        <ele>772.4</ele>
        <time>2014-10-02T14:10:07Z</time>
      </trkpt>
      <trkpt lat="42.6547940" lon="-7.1270500">
        <ele>772.0</ele>
        <time>2014-10-02T14:10:08Z</time>
      </trkpt>
      <trkpt lat="42.6548680" lon="-7.1270610">
        <ele>771.4</ele>
        <time>2014-10-02T14:10:09Z</time>
      </trkpt>
      <trkpt lat="42.6549490" lon="-7.1270230">
        <ele>770.6</ele>
        <time>2014-10-02T14:10:10Z</time>
      </trkpt>
      <trkpt lat="42.6550470" lon="-7.1269810">
        <ele>769.6</ele>
        <time>2014-10-02T14:10:11Z</time>
      </trkpt>
      <trkpt lat="42.6551340" lon="-7.1269250">
        <ele>768.9</ele>
        <time>2014-10-02T14:10:12Z</time>
      </trkpt>
      <trkpt lat="42.6552190" lon="-7.1268750">
        <ele>768.3</ele>
        <time>2014-10-02T14:10:13Z</time>
      </trkpt>
      <trkpt lat="42.6552930" lon="-7.1267940">
        <ele>767.5</ele>
        <time>2014-10-02T14:10:14Z</time>
      </trkpt>
      <trkpt lat="42.6553510" lon="-7.1267240">
        <ele>766.9</ele>
        <time>2014-10-02T14:10:15Z</time>
      </trkpt>
      <trkpt lat="42.6554150" lon="-7.1266420">
        <ele>766.1</ele>
        <time>2014-10-02T14:10:16Z</time>
      </trkpt>
      <trkpt lat="42.6554760" lon="-7.1265530">
        <ele>765.2</ele>
        <time>2014-10-02T14:10:17Z</time>
      </trkpt>
      <trkpt lat="42.6555360" lon="-7.1264570">
        <ele>764.2</ele>
        <time>2014-10-02T14:10:18Z</time>
      </trkpt>
      <trkpt lat="42.6555820" lon="-7.1263320">
        <ele>763.2</ele>
        <time>2014-10-02T14:10:19Z</time>
      </trkpt>
      <trkpt lat="42.6556310" lon="-7.1261930">
        <ele>762.0</ele>
        <time>2014-10-02T14:10:20Z</time>
      </trkpt>
      <trkpt lat="42.6556790" lon="-7.1260420">
        <ele>760.7</ele>
        <time>2014-10-02T14:10:21Z</time>
      </trkpt>
      <trkpt lat="42.6557200" lon="-7.1258900">
        <ele>759.4</ele>
        <time>2014-10-02T14:10:22Z</time>
      </trkpt>
      <trkpt lat="42.6557640" lon="-7.1257340">
        <ele>758.1</ele>
        <time>2014-10-02T14:10:23Z</time>
      </trkpt>
      <trkpt lat="42.6558020" lon="-7.1255860">
        <ele>757.0</ele>
        <time>2014-10-02T14:10:24Z</time>
      </trkpt>
      <trkpt lat="42.6558400" lon="-7.1254240">
        <ele>755.8</ele>
        <time>2014-10-02T14:10:25Z</time>
      </trkpt>
      <trkpt lat="42.6558730" lon="-7.1252610">
        <ele>754.6</ele>
        <time>2014-10-02T14:10:26Z</time>
      </trkpt>
      <trkpt lat="42.6559080" lon="-7.1250980">
        <ele>753.2</ele>
        <time>2014-10-02T14:10:27Z</time>
      </trkpt>
      <trkpt lat="42.6559400" lon="-7.1249410">
        <ele>751.9</ele>
        <time>2014-10-02T14:10:28Z</time>
      </trkpt>
      <trkpt lat="42.6559890" lon="-7.1247730">
        <ele>750.4</ele>
        <time>2014-10-02T14:10:29Z</time>
      </trkpt>
      <trkpt lat="42.6560620" lon="-7.1246210">
        <ele>749.1</ele>
        <time>2014-10-02T14:10:30Z</time>
      </trkpt>
      <trkpt lat="42.6561430" lon="-7.1244590">
        <ele>747.7</ele>
        <time>2014-10-02T14:10:31Z</time>
      </trkpt>
      <trkpt lat="42.6562340" lon="-7.1243020">
        <ele>746.5</ele>
        <time>2014-10-02T14:10:32Z</time>
      </trkpt>
      <trkpt lat="42.6563380" lon="-7.1241490">
        <ele>744.9</ele>
        <time>2014-10-02T14:10:33Z</time>
      </trkpt>
      <trkpt lat="42.6564700" lon="-7.1240300">
        <ele>742.8</ele>
        <time>2014-10-02T14:10:34Z</time>
      </trkpt>
      <trkpt lat="42.6566080" lon="-7.1239250">
        <ele>740.5</ele>
        <time>2014-10-02T14:10:35Z</time>
      </trkpt>
      <trkpt lat="42.6567390" lon="-7.1238400">
        <ele>738.2</ele>
        <time>2014-10-02T14:10:36Z</time>
      </trkpt>
      <trkpt lat="42.6568680" lon="-7.1237690">
        <ele>736.2</ele>
        <time>2014-10-02T14:10:37Z</time>
      </trkpt>
      <trkpt lat="42.6570060" lon="-7.1237050">
        <ele>734.4</ele>
        <time>2014-10-02T14:10:38Z</time>
      </trkpt>
      <trkpt lat="42.6571430" lon="-7.1236530">
        <ele>732.7</ele>
        <time>2014-10-02T14:10:39Z</time>
      </trkpt>
      <trkpt lat="42.6572840" lon="-7.1236020">
        <ele>731.4</ele>
        <time>2014-10-02T14:10:40Z</time>
      </trkpt>
      <trkpt lat="42.6574280" lon="-7.1235610">
        <ele>729.9</ele>
        <time>2014-10-02T14:10:41Z</time>
      </trkpt>
      <trkpt lat="42.6575800" lon="-7.1235300">
        <ele>728.3</ele>
        <time>2014-10-02T14:10:42Z</time>
      </trkpt>
      <trkpt lat="42.6577360" lon="-7.1235500">
        <ele>726.5</ele>
        <time>2014-10-02T14:10:43Z</time>
      </trkpt>
      <trkpt lat="42.6578890" lon="-7.1235820">
        <ele>724.7</ele>
        <time>2014-10-02T14:10:44Z</time>
      </trkpt>
      <trkpt lat="42.6580420" lon="-7.1236200">
        <ele>723.1</ele>
        <time>2014-10-02T14:10:45Z</time>
      </trkpt>
      <trkpt lat="42.6581930" lon="-7.1236470">
        <ele>721.5</ele>
        <time>2014-10-02T14:10:46Z</time>
      </trkpt>
      <trkpt lat="42.6583430" lon="-7.1236590">
        <ele>720.4</ele>
        <time>2014-10-02T14:10:47Z</time>
      </trkpt>
      <trkpt lat="42.6584800" lon="-7.1235840">
        <ele>719.4</ele>
        <time>2014-10-02T14:10:48Z</time>
      </trkpt>
      <trkpt lat="42.6586160" lon="-7.1235030">
        <ele>718.4</ele>
        <time>2014-10-02T14:10:49Z</time>
      </trkpt>
      <trkpt lat="42.6587530" lon="-7.1234300">
        <ele>717.7</ele>
        <time>2014-10-02T14:10:50Z</time>
      </trkpt>
      <trkpt lat="42.6588860" lon="-7.1234110">
        <ele>716.9</ele>
        <time>2014-10-02T14:10:51Z</time>
      </trkpt>
      <trkpt lat="42.6590200" lon="-7.1234280">
        <ele>715.3</ele>
        <time>2014-10-02T14:10:52Z</time>
      </trkpt>
      <trkpt lat="42.6591390" lon="-7.1234900">
        <ele>712.5</ele>
        <time>2014-10-02T14:10:53Z</time>
      </trkpt>
      <trkpt lat="42.6592550" lon="-7.1235610">
        <ele>710.9</ele>
        <time>2014-10-02T14:10:54Z</time>
      </trkpt>
      <trkpt lat="42.6593620" lon="-7.1236250">
        <ele>709.7</ele>
        <time>2014-10-02T14:10:55Z</time>
      </trkpt>
      <trkpt lat="42.6594650" lon="-7.1236500">
        <ele>708.6</ele>
        <time>2014-10-02T14:10:56Z</time>
      </trkpt>
      <trkpt lat="42.6595790" lon="-7.1236690">
        <ele>707.5</ele>
        <time>2014-10-02T14:10:57Z</time>
      </trkpt>
      <trkpt lat="42.6596990" lon="-7.1236830">
        <ele>706.5</ele>
        <time>2014-10-02T14:10:58Z</time>
      </trkpt>
      <trkpt lat="42.6598140" lon="-7.1236850">
        <ele>705.7</ele>
        <time>2014-10-02T14:10:59Z</time>
      </trkpt>
      <trkpt lat="42.6599280" lon="-7.1236750">
        <ele>705.1</ele>
        <time>2014-10-02T14:11:00Z</time>
      </trkpt>
      <trkpt lat="42.6600370" lon="-7.1236590">
        <ele>704.6</ele>
        <time>2014-10-02T14:11:01Z</time>
      </trkpt>
      <trkpt lat="42.6601470" lon="-7.1236330">
        <ele>704.1</ele>
        <time>2014-10-02T14:11:02Z</time>
      </trkpt>
      <trkpt lat="42.6602410" lon="-7.1235940">
        <ele>703.6</ele>
        <time>2014-10-02T14:11:03Z</time>
      </trkpt>
      <trkpt lat="42.6603130" lon="-7.1235160">
        <ele>702.9</ele>
        <time>2014-10-02T14:11:04Z</time>
      </trkpt>
      <trkpt lat="42.6603770" lon="-7.1234120">
        <ele>702.2</ele>
        <time>2014-10-02T14:11:05Z</time>
      </trkpt>
      <trkpt lat="42.6604360" lon="-7.1232990">
        <ele>701.8</ele>
        <time>2014-10-02T14:11:06Z</time>
      </trkpt>
      <trkpt lat="42.6604700" lon="-7.1231710">
        <ele>701.4</ele>
        <time>2014-10-02T14:11:07Z</time>
      </trkpt>
      <trkpt lat="42.6604960" lon="-7.1230440">
        <ele>701.2</ele>
        <time>2014-10-02T14:11:08Z</time>
      </trkpt>
      <trkpt lat="42.6604830" lon="-7.1229090">
        <ele>701.0</ele>
        <time>2014-10-02T14:11:09Z</time>
      </trkpt>
      <trkpt lat="42.6604650" lon="-7.1227890">
        <ele>700.8</ele>
        <time>2014-10-02T14:11:10Z</time>
      </trkpt>
      <trkpt lat="42.6604130" lon="-7.1226690">
        <ele>700.7</ele>
        <time>2014-10-02T14:11:11Z</time>
      </trkpt>
      <trkpt lat="42.6603580" lon="-7.1225470">
        <ele>700.5</ele>
        <time>2014-10-02T14:11:12Z</time>
      </trkpt>
      <trkpt lat="42.6603010" lon="-7.1224430">
        <ele>700.2</ele>
        <time>2014-10-02T14:11:13Z</time>
      </trkpt>
      <trkpt lat="42.6602460" lon="-7.1223550">
        <ele>699.6</ele>
        <time>2014-10-02T14:11:14Z</time>
      </trkpt>
      <trkpt lat="42.6601910" lon="-7.1222780">
        <ele>700.9</ele>
        <time>2014-10-02T14:11:15Z</time>
      </trkpt>
      <trkpt lat="42.6601370" lon="-7.1222100">
        <ele>702.1</ele>
        <time>2014-10-02T14:11:16Z</time>
      </trkpt>
      <trkpt lat="42.6600820" lon="-7.1221450">
        <ele>703.3</ele>
        <time>2014-10-02T14:11:17Z</time>
      </trkpt>
      <trkpt lat="42.6600340" lon="-7.1220920">
        <ele>704.0</ele>
        <time>2014-10-02T14:11:18Z</time>
      </trkpt>
      <trkpt lat="42.6599870" lon="-7.1220380">
        <ele>704.7</ele>
        <time>2014-10-02T14:11:19Z</time>
      </trkpt>
      <trkpt lat="42.6599440" lon="-7.1219930">
        <ele>705.2</ele>
        <time>2014-10-02T14:11:20Z</time>
      </trkpt>
      <trkpt lat="42.6599030" lon="-7.1219510">
        <ele>705.8</ele>
        <time>2014-10-02T14:11:21Z</time>
      </trkpt>
      <trkpt lat="42.6598610" lon="-7.1219070">
        <ele>706.3</ele>
        <time>2014-10-02T14:11:22Z</time>
      </trkpt>
      <trkpt lat="42.6598190" lon="-7.1218620">
        <ele>706.9</ele>
        <time>2014-10-02T14:11:23Z</time>
      </trkpt>
      <trkpt lat="42.6597760" lon="-7.1218190">
        <ele>707.5</ele>
        <time>2014-10-02T14:11:24Z</time>
      </trkpt>
      <trkpt lat="42.6597330" lon="-7.1217780">
        <ele>708.0</ele>
        <time>2014-10-02T14:11:25Z</time>
      </trkpt>
      <trkpt lat="42.6596940" lon="-7.1217440">
        <ele>708.5</ele>
        <time>2014-10-02T14:11:26Z</time>
      </trkpt>
      <trkpt lat="42.6596600" lon="-7.1217190">
        <ele>708.9</ele>
        <time>2014-10-02T14:11:27Z</time>
      </trkpt>
      <trkpt lat="42.6596220" lon="-7.1216930">
        <ele>709.3</ele>
        <time>2014-10-02T14:11:28Z</time>
      </trkpt>
      <trkpt lat="42.6595850" lon="-7.1216670">
        <ele>709.7</ele>
        <time>2014-10-02T14:11:29Z</time>
      </trkpt>
      <trkpt lat="42.6595430" lon="-7.1216370">
        <ele>710.1</ele>
        <time>2014-10-02T14:11:30Z</time>
      </trkpt>
      <trkpt lat="42.6595040" lon="-7.1216130">
        <ele>710.5</ele>
        <time>2014-10-02T14:11:31Z</time>
      </trkpt>
      <trkpt lat="42.6594670" lon="-7.1215890">
        <ele>710.9</ele>
        <time>2014-10-02T14:11:32Z</time>
      </trkpt>
      <trkpt lat="42.6594310" lon="-7.1215660">
        <ele>711.2</ele>
        <time>2014-10-02T14:11:33Z</time>
      </trkpt>
      <trkpt lat="42.6593980" lon="-7.1215460">
        <ele>711.6</ele>
        <time>2014-10-02T14:11:34Z</time>
      </trkpt>
      <trkpt lat="42.6593670" lon="-7.1215280">
        <ele>711.9</ele>
        <time>2014-10-02T14:11:35Z</time>
      </trkpt>
      <trkpt lat="42.6593350" lon="-7.1215120">
        <ele>712.2</ele>
        <time>2014-10-02T14:11:36Z</time>
      </trkpt>
      <trkpt lat="42.6593050" lon="-7.1214960">
        <ele>712.5</ele>
        <time>2014-10-02T14:11:37Z</time>
      </trkpt>
      <trkpt lat="42.6592710" lon="-7.1214790">
        <ele>712.8</ele>
        <time>2014-10-02T14:11:38Z</time>
      </trkpt>
      <trkpt lat="42.6592420" lon="-7.1214630">
        <ele>713.1</ele>
        <time>2014-10-02T14:11:39Z</time>
      </trkpt>
      <trkpt lat="42.6591860" lon="-7.1214350">
        <ele>713.7</ele>
        <time>2014-10-02T14:11:41Z</time>
      </trkpt>
      <trkpt lat="42.6591590" lon="-7.1214220">
        <ele>713.9</ele>
        <time>2014-10-02T14:11:42Z</time>
      </trkpt>
      <trkpt lat="42.6591270" lon="-7.1214040">
        <ele>714.3</ele>
        <time>2014-10-02T14:11:43Z</time>
      </trkpt>
      <trkpt lat="42.6590900" lon="-7.1213850">
        <ele>714.6</ele>
        <time>2014-10-02T14:11:44Z</time>
      </trkpt>
      <trkpt lat="42.6590570" lon="-7.1213670">
        <ele>714.9</ele>
        <time>2014-10-02T14:11:45Z</time>
      </trkpt>
      <trkpt lat="42.6590250" lon="-7.1213480">
        <ele>715.2</ele>
        <time>2014-10-02T14:11:46Z</time>
      </trkpt>
      <trkpt lat="42.6589940" lon="-7.1213300">
        <ele>715.6</ele>
        <time>2014-10-02T14:11:47Z</time>
      </trkpt>
      <trkpt lat="42.6589560" lon="-7.1213080">
        <ele>715.9</ele>
        <time>2014-10-02T14:11:48Z</time>
      </trkpt>
      <trkpt lat="42.6589230" lon="-7.1212900">
        <ele>716.2</ele>
        <time>2014-10-02T14:11:49Z</time>
      </trkpt>
      <trkpt lat="42.6588890" lon="-7.1212710">
        <ele>716.5</ele>
        <time>2014-10-02T14:11:50Z</time>
      </trkpt>
      <trkpt lat="42.6588520" lon="-7.1212510">
        <ele>716.9</ele>
        <time>2014-10-02T14:11:51Z</time>
      </trkpt>
      <trkpt lat="42.6588200" lon="-7.1212320">
        <ele>717.1</ele>
        <time>2014-10-02T14:11:52Z</time>
      </trkpt>
      <trkpt lat="42.6587900" lon="-7.1212140">
        <ele>717.4</ele>
        <time>2014-10-02T14:11:53Z</time>
      </trkpt>
      <trkpt lat="42.6587630" lon="-7.1211960">
        <ele>717.6</ele>
        <time>2014-10-02T14:11:54Z</time>
      </trkpt>
      <trkpt lat="42.6587340" lon="-7.1211750">
        <ele>717.9</ele>
        <time>2014-10-02T14:11:55Z</time>
      </trkpt>
      <trkpt lat="42.6587040" lon="-7.1211490">
        <ele>718.1</ele>
        <time>2014-10-02T14:11:56Z</time>
      </trkpt>
      <trkpt lat="42.6586800" lon="-7.1211280">
        <ele>718.4</ele>
        <time>2014-10-02T14:11:57Z</time>
      </trkpt>
      <trkpt lat="42.6586530" lon="-7.1211040">
        <ele>718.7</ele>
        <time>2014-10-02T14:11:58Z</time>
      </trkpt>
      <trkpt lat="42.6586280" lon="-7.1210810">
        <ele>718.9</ele>
        <time>2014-10-02T14:11:59Z</time>
      </trkpt>
      <trkpt lat="42.6586000" lon="-7.1210510">
        <ele>719.3</ele>
        <time>2014-10-02T14:12:00Z</time>
      </trkpt>
      <trkpt lat="42.6585780" lon="-7.1210230">
        <ele>719.6</ele>
        <time>2014-10-02T14:12:01Z</time>
      </trkpt>
      <trkpt lat="42.6585570" lon="-7.1209980">
        <ele>719.8</ele>
        <time>2014-10-02T14:12:02Z</time>
      </trkpt>
      <trkpt lat="42.6585350" lon="-7.1209730">
        <ele>720.1</ele>
        <time>2014-10-02T14:12:03Z</time>
      </trkpt>
      <trkpt lat="42.6585130" lon="-7.1209460">
        <ele>720.4</ele>
        <time>2014-10-02T14:12:04Z</time>
      </trkpt>
      <trkpt lat="42.6584880" lon="-7.1209130">
        <ele>720.8</ele>
        <time>2014-10-02T14:12:05Z</time>
      </trkpt>
      <trkpt lat="42.6584670" lon="-7.1208830">
        <ele>721.0</ele>
        <time>2014-10-02T14:12:06Z</time>
      </trkpt>
      <trkpt lat="42.6584440" lon="-7.1208510">
        <ele>721.3</ele>
        <time>2014-10-02T14:12:07Z</time>
      </trkpt>
      <trkpt lat="42.6584230" lon="-7.1208200">
        <ele>721.6</ele>
        <time>2014-10-02T14:12:08Z</time>
      </trkpt>
      <trkpt lat="42.6583910" lon="-7.1207630">
        <ele>722.1</ele>
        <time>2014-10-02T14:12:10Z</time>
      </trkpt>
      <trkpt lat="42.6583760" lon="-7.1207300">
        <ele>722.3</ele>
        <time>2014-10-02T14:12:11Z</time>
      </trkpt>
      <trkpt lat="42.6583610" lon="-7.1206960">
        <ele>722.6</ele>
        <time>2014-10-02T14:12:12Z</time>
      </trkpt>
      <trkpt lat="42.6583450" lon="-7.1206640">
        <ele>722.8</ele>
        <time>2014-10-02T14:12:13Z</time>
      </trkpt>
      <trkpt lat="42.6583290" lon="-7.1206310">
        <ele>723.1</ele>
        <time>2014-10-02T14:12:14Z</time>
      </trkpt>
      <trkpt lat="42.6583150" lon="-7.1205990">
        <ele>723.3</ele>
        <time>2014-10-02T14:12:15Z</time>
      </trkpt>
      <trkpt lat="42.6583010" lon="-7.1205660">
        <ele>723.6</ele>
        <time>2014-10-02T14:12:16Z</time>
      </trkpt>
      <trkpt lat="42.6582880" lon="-7.1205250">
        <ele>723.9</ele>
        <time>2014-10-02T14:12:17Z</time>
      </trkpt>
      <trkpt lat="42.6582780" lon="-7.1204850">
        <ele>724.2</ele>
        <time>2014-10-02T14:12:18Z</time>
      </trkpt>
      <trkpt lat="42.6582730" lon="-7.1204260">
        <ele>724.6</ele>
        <time>2014-10-02T14:12:20Z</time>
      </trkpt>
      <trkpt lat="42.6582630" lon="-7.1203510">
        <ele>725.2</ele>
        <time>2014-10-02T14:12:22Z</time>
      </trkpt>
      <trkpt lat="42.6582520" lon="-7.1202890">
        <ele>725.7</ele>
        <time>2014-10-02T14:12:24Z</time>
      </trkpt>
      <trkpt lat="42.6582450" lon="-7.1202200">
        <ele>726.2</ele>
        <time>2014-10-02T14:12:26Z</time>
      </trkpt>
      <trkpt lat="42.6582380" lon="-7.1201580">
        <ele>726.7</ele>
        <time>2014-10-02T14:12:28Z</time>
      </trkpt>
      <trkpt lat="42.6582350" lon="-7.1201160">
        <ele>727.0</ele>
        <time>2014-10-02T14:12:29Z</time>
      </trkpt>
      <trkpt lat="42.6582340" lon="-7.1200430">
        <ele>727.7</ele>
        <time>2014-10-02T14:12:31Z</time>
      </trkpt>
      <trkpt lat="42.6582330" lon="-7.1200030">
        <ele>728.0</ele>
        <time>2014-10-02T14:12:32Z</time>
      </trkpt>
      <trkpt lat="42.6582310" lon="-7.1199300">
        <ele>728.6</ele>
        <time>2014-10-02T14:12:34Z</time>
      </trkpt>
      <trkpt lat="42.6582360" lon="-7.1198940">
        <ele>728.9</ele>
        <time>2014-10-02T14:12:35Z</time>
      </trkpt>
      <trkpt lat="42.6582410" lon="-7.1198540">
        <ele>729.2</ele>
        <time>2014-10-02T14:12:36Z</time>
      </trkpt>
      <trkpt lat="42.6582440" lon="-7.1198150">
        <ele>729.6</ele>
        <time>2014-10-02T14:12:37Z</time>
      </trkpt>
      <trkpt lat="42.6582480" lon="-7.1197760">
        <ele>729.9</ele>
        <time>2014-10-02T14:12:38Z</time>
      </trkpt>
      <trkpt lat="42.6582560" lon="-7.1197080">
        <ele>730.4</ele>
        <time>2014-10-02T14:12:40Z</time>
      </trkpt>
      <trkpt lat="42.6582600" lon="-7.1196710">
        <ele>730.7</ele>
        <time>2014-10-02T14:12:41Z</time>
      </trkpt>
      <trkpt lat="42.6582660" lon="-7.1196310">
        <ele>731.0</ele>
        <time>2014-10-02T14:12:42Z</time>
      </trkpt>
      <trkpt lat="42.6582730" lon="-7.1195890">
        <ele>731.3</ele>
        <time>2014-10-02T14:12:43Z</time>
      </trkpt>
      <trkpt lat="42.6582890" lon="-7.1195230">
        <ele>731.9</ele>
        <time>2014-10-02T14:12:45Z</time>
      </trkpt>
      <trkpt lat="42.6582980" lon="-7.1194870">
        <ele>732.2</ele>
        <time>2014-10-02T14:12:46Z</time>
      </trkpt>
      <trkpt lat="42.6583230" lon="-7.1194260">
        <ele>732.7</ele>
        <time>2014-10-02T14:12:48Z</time>
      </trkpt>
      <trkpt lat="42.6583540" lon="-7.1193720">
        <ele>733.3</ele>
        <time>2014-10-02T14:12:50Z</time>
      </trkpt>
      <trkpt lat="42.6583710" lon="-7.1193420">
        <ele>733.6</ele>
        <time>2014-10-02T14:12:51Z</time>
      </trkpt>
      <trkpt lat="42.6583910" lon="-7.1193130">
        <ele>733.9</ele>
        <time>2014-10-02T14:12:52Z</time>
      </trkpt>
      <trkpt lat="42.6584110" lon="-7.1192860">
        <ele>734.2</ele>
        <time>2014-10-02T14:12:53Z</time>
      </trkpt>
      <trkpt lat="42.6584340" lon="-7.1192560">
        <ele>734.6</ele>
        <time>2014-10-02T14:12:54Z</time>
      </trkpt>
      <trkpt lat="42.6584560" lon="-7.1192290">
        <ele>734.9</ele>
        <time>2014-10-02T14:12:55Z</time>
      </trkpt>
      <trkpt lat="42.6584920" lon="-7.1191830">
        <ele>735.4</ele>
        <time>2014-10-02T14:12:57Z</time>
      </trkpt>
      <trkpt lat="42.6585120" lon="-7.1191570">
        <ele>735.6</ele>
        <time>2014-10-02T14:12:58Z</time>
      </trkpt>
      <trkpt lat="42.6585510" lon="-7.1191120">
        <ele>736.1</ele>
        <time>2014-10-02T14:13:00Z</time>
      </trkpt>
      <trkpt lat="42.6585950" lon="-7.1190680">
        <ele>736.7</ele>
        <time>2014-10-02T14:13:02Z</time>
      </trkpt>
      <trkpt lat="42.6586410" lon="-7.1190220">
        <ele>737.3</ele>
        <time>2014-10-02T14:13:04Z</time>
      </trkpt>
      <trkpt lat="42.6586660" lon="-7.1189950">
        <ele>737.6</ele>
        <time>2014-10-02T14:13:05Z</time>
      </trkpt>
      <trkpt lat="42.6586930" lon="-7.1189640">
        <ele>738.0</ele>
        <time>2014-10-02T14:13:06Z</time>
      </trkpt>
      <trkpt lat="42.6587220" lon="-7.1189330">
        <ele>738.4</ele>
        <time>2014-10-02T14:13:07Z</time>
      </trkpt>
      <trkpt lat="42.6587520" lon="-7.1189030">
        <ele>738.8</ele>
        <time>2014-10-02T14:13:08Z</time>
      </trkpt>
      <trkpt lat="42.6587850" lon="-7.1188710">
        <ele>739.2</ele>
        <time>2014-10-02T14:13:09Z</time>
      </trkpt>
      <trkpt lat="42.6588110" lon="-7.1188450">
        <ele>739.5</ele>
        <time>2014-10-02T14:13:10Z</time>
      </trkpt>
      <trkpt lat="42.6588340" lon="-7.1188220">
        <ele>739.8</ele>
        <time>2014-10-02T14:13:11Z</time>
      </trkpt>
      <trkpt lat="42.6588550" lon="-7.1187990">
        <ele>740.1</ele>
        <time>2014-10-02T14:13:12Z</time>
      </trkpt>
      <trkpt lat="42.6588980" lon="-7.1187530">
        <ele>740.7</ele>
        <time>2014-10-02T14:13:14Z</time>
      </trkpt>
      <trkpt lat="42.6589190" lon="-7.1187290">
        <ele>741.0</ele>
        <time>2014-10-02T14:13:15Z</time>
      </trkpt>
      <trkpt lat="42.6589430" lon="-7.1186990">
        <ele>741.3</ele>
        <time>2014-10-02T14:13:16Z</time>
      </trkpt>
      <trkpt lat="42.6589630" lon="-7.1186710">
        <ele>741.6</ele>
        <time>2014-10-02T14:13:17Z</time>
      </trkpt>
      <trkpt lat="42.6589820" lon="-7.1186390">
        <ele>741.9</ele>
        <time>2014-10-02T14:13:18Z</time>
      </trkpt>
      <trkpt lat="42.6589950" lon="-7.1186050">
        <ele>742.2</ele>
        <time>2014-10-02T14:13:19Z</time>
      </trkpt>
      <trkpt lat="42.6590080" lon="-7.1185670">
        <ele>742.5</ele>
        <time>2014-10-02T14:13:20Z</time>
      </trkpt>
      <trkpt lat="42.6590240" lon="-7.1185110">
        <ele>742.9</ele>
        <time>2014-10-02T14:13:22Z</time>
      </trkpt>
      <trkpt lat="42.6590430" lon="-7.1184500">
        <ele>743.5</ele>
        <time>2014-10-02T14:13:24Z</time>
      </trkpt>
      <trkpt lat="42.6590570" lon="-7.1183880">
        <ele>744.1</ele>
        <time>2014-10-02T14:13:26Z</time>
      </trkpt>
      <trkpt lat="42.6590690" lon="-7.1183240">
        <ele>744.7</ele>
        <time>2014-10-02T14:13:28Z</time>
      </trkpt>
      <trkpt lat="42.6590790" lon="-7.1182650">
        <ele>745.2</ele>
        <time>2014-10-02T14:13:30Z</time>
      </trkpt>
      <trkpt lat="42.6590850" lon="-7.1182080">
        <ele>745.6</ele>
        <time>2014-10-02T14:13:32Z</time>
      </trkpt>
      <trkpt lat="42.6590910" lon="-7.1181440">
        <ele>746.1</ele>
        <time>2014-10-02T14:13:34Z</time>
      </trkpt>
      <trkpt lat="42.6590910" lon="-7.1180810">
        <ele>746.6</ele>
        <time>2014-10-02T14:13:36Z</time>
      </trkpt>
      <trkpt lat="42.6590920" lon="-7.1180210">
        <ele>747.1</ele>
        <time>2014-10-02T14:13:38Z</time>
      </trkpt>
      <trkpt lat="42.6591000" lon="-7.1179610">
        <ele>747.5</ele>
        <time>2014-10-02T14:13:40Z</time>
      </trkpt>
      <trkpt lat="42.6591030" lon="-7.1178920">
        <ele>748.1</ele>
        <time>2014-10-02T14:13:42Z</time>
      </trkpt>
      <trkpt lat="42.6591090" lon="-7.1178190">
        <ele>748.7</ele>
        <time>2014-10-02T14:13:44Z</time>
      </trkpt>
      <trkpt lat="42.6591240" lon="-7.1177610">
        <ele>749.2</ele>
        <time>2014-10-02T14:13:46Z</time>
      </trkpt>
      <trkpt lat="42.6591350" lon="-7.1176900">
        <ele>749.8</ele>
        <time>2014-10-02T14:13:48Z</time>
      </trkpt>
      <trkpt lat="42.6591490" lon="-7.1176180">
        <ele>750.4</ele>
        <time>2014-10-02T14:13:50Z</time>
      </trkpt>
      <trkpt lat="42.6591660" lon="-7.1175530">
        <ele>750.9</ele>
        <time>2014-10-02T14:13:52Z</time>
      </trkpt>
      <trkpt lat="42.6591850" lon="-7.1174880">
        <ele>751.5</ele>
        <time>2014-10-02T14:13:54Z</time>
      </trkpt>
      <trkpt lat="42.6592030" lon="-7.1174210">
        <ele>752.0</ele>
        <time>2014-10-02T14:13:56Z</time>
      </trkpt>
      <trkpt lat="42.6592120" lon="-7.1173860">
        <ele>752.3</ele>
        <time>2014-10-02T14:13:57Z</time>
      </trkpt>
      <trkpt lat="42.6592280" lon="-7.1173220">
        <ele>752.8</ele>
        <time>2014-10-02T14:13:59Z</time>
      </trkpt>
      <trkpt lat="42.6592460" lon="-7.1172610">
        <ele>753.3</ele>
        <time>2014-10-02T14:14:01Z</time>
      </trkpt>
      <trkpt lat="42.6592720" lon="-7.1172020">
        <ele>753.9</ele>
        <time>2014-10-02T14:14:03Z</time>
      </trkpt>
      <trkpt lat="42.6592890" lon="-7.1171730">
        <ele>754.1</ele>
        <time>2014-10-02T14:14:04Z</time>
      </trkpt>
      <trkpt lat="42.6593070" lon="-7.1171420">
        <ele>754.5</ele>
        <time>2014-10-02T14:14:05Z</time>
      </trkpt>
      <trkpt lat="42.6593420" lon="-7.1170810">
        <ele>755.0</ele>
        <time>2014-10-02T14:14:07Z</time>
      </trkpt>
      <trkpt lat="42.6593630" lon="-7.1170520">
        <ele>755.3</ele>
        <time>2014-10-02T14:14:08Z</time>
      </trkpt>
      <trkpt lat="42.6593820" lon="-7.1170250">
        <ele>755.6</ele>
        <time>2014-10-02T14:14:09Z</time>
      </trkpt>
      <trkpt lat="42.6594230" lon="-7.1169820">
        <ele>756.1</ele>
        <time>2014-10-02T14:14:11Z</time>
      </trkpt>
      <trkpt lat="42.6594470" lon="-7.1169610">
        <ele>756.4</ele>
        <time>2014-10-02T14:14:12Z</time>
      </trkpt>
      <trkpt lat="42.6594730" lon="-7.1169410">
        <ele>756.7</ele>
        <time>2014-10-02T14:14:13Z</time>
      </trkpt>
      <trkpt lat="42.6594980" lon="-7.1169210">
        <ele>757.0</ele>
        <time>2014-10-02T14:14:14Z</time>
      </trkpt>
      <trkpt lat="42.6595240" lon="-7.1169040">
        <ele>757.3</ele>
        <time>2014-10-02T14:14:15Z</time>
      </trkpt>
      <trkpt lat="42.6595740" lon="-7.1168750">
        <ele>757.8</ele>
        <time>2014-10-02T14:14:17Z</time>
      </trkpt>
      <trkpt lat="42.6596260" lon="-7.1168470">
        <ele>758.3</ele>
        <time>2014-10-02T14:14:19Z</time>
      </trkpt>
      <trkpt lat="42.6596570" lon="-7.1168340">
        <ele>758.7</ele>
        <time>2014-10-02T14:14:20Z</time>
      </trkpt>
      <trkpt lat="42.6596890" lon="-7.1168220">
        <ele>759.0</ele>
        <time>2014-10-02T14:14:21Z</time>
      </trkpt>
      <trkpt lat="42.6597170" lon="-7.1168130">
        <ele>759.3</ele>
        <time>2014-10-02T14:14:22Z</time>
      </trkpt>
      <trkpt lat="42.6597460" lon="-7.1168060">
        <ele>759.6</ele>
        <time>2014-10-02T14:14:23Z</time>
      </trkpt>
      <trkpt lat="42.6597770" lon="-7.1168000">
        <ele>759.9</ele>
        <time>2014-10-02T14:14:24Z</time>
      </trkpt>
      <trkpt lat="42.6598070" lon="-7.1167940">
        <ele>760.2</ele>
        <time>2014-10-02T14:14:25Z</time>
      </trkpt>
      <trkpt lat="42.6598570" lon="-7.1167840">
        <ele>760.7</ele>
        <time>2014-10-02T14:14:27Z</time>
      </trkpt>
      <trkpt lat="42.6599110" lon="-7.1167740">
        <ele>761.2</ele>
        <time>2014-10-02T14:14:29Z</time>
      </trkpt>
      <trkpt lat="42.6599610" lon="-7.1167620">
        <ele>761.6</ele>
        <time>2014-10-02T14:14:31Z</time>
      </trkpt>
      <trkpt lat="42.6600170" lon="-7.1167420">
        <ele>762.2</ele>
        <time>2014-10-02T14:14:33Z</time>
      </trkpt>
      <trkpt lat="42.6600460" lon="-7.1167290">
        <ele>762.5</ele>
        <time>2014-10-02T14:14:34Z</time>
      </trkpt>
      <trkpt lat="42.6600990" lon="-7.1167030">
        <ele>763.1</ele>
        <time>2014-10-02T14:14:36Z</time>
      </trkpt>
      <trkpt lat="42.6601290" lon="-7.1166880">
        <ele>763.4</ele>
        <time>2014-10-02T14:14:37Z</time>
      </trkpt>
      <trkpt lat="42.6601560" lon="-7.1166730">
        <ele>763.8</ele>
        <time>2014-10-02T14:14:38Z</time>
      </trkpt>
      <trkpt lat="42.6601990" lon="-7.1166450">
        <ele>764.3</ele>
        <time>2014-10-02T14:14:40Z</time>
      </trkpt>
      <trkpt lat="42.6602430" lon="-7.1166130">
        <ele>764.9</ele>
        <time>2014-10-02T14:14:42Z</time>
      </trkpt>
      <trkpt lat="42.6602850" lon="-7.1165810">
        <ele>765.4</ele>
        <time>2014-10-02T14:14:44Z</time>
      </trkpt>
      <trkpt lat="42.6603300" lon="-7.1165450">
        <ele>766.1</ele>
        <time>2014-10-02T14:14:46Z</time>
      </trkpt>
      <trkpt lat="42.6603720" lon="-7.1165110">
        <ele>766.6</ele>
        <time>2014-10-02T14:14:48Z</time>
      </trkpt>
      <trkpt lat="42.6604120" lon="-7.1164800">
        <ele>767.2</ele>
        <time>2014-10-02T14:14:50Z</time>
      </trkpt>
      <trkpt lat="42.6604560" lon="-7.1164520">
        <ele>767.8</ele>
        <time>2014-10-02T14:14:52Z</time>
      </trkpt>
      <trkpt lat="42.6605000" lon="-7.1164220">
        <ele>768.3</ele>
        <time>2014-10-02T14:14:54Z</time>
      </trkpt>
      <trkpt lat="42.6605470" lon="-7.1163910">
        <ele>768.9</ele>
        <time>2014-10-02T14:14:56Z</time>
      </trkpt>
      <trkpt lat="42.6605930" lon="-7.1163660">
        <ele>769.5</ele>
        <time>2014-10-02T14:14:58Z</time>
      </trkpt>
      <trkpt lat="42.6606410" lon="-7.1163440">
        <ele>770.0</ele>
        <time>2014-10-02T14:15:00Z</time>
      </trkpt>
      <trkpt lat="42.6606840" lon="-7.1163270">
        <ele>770.5</ele>
        <time>2014-10-02T14:15:02Z</time>
      </trkpt>
      <trkpt lat="42.6607270" lon="-7.1163010">
        <ele>771.0</ele>
        <time>2014-10-02T14:15:04Z</time>
      </trkpt>
      <trkpt lat="42.6607630" lon="-7.1162750">
        <ele>771.4</ele>
        <time>2014-10-02T14:15:06Z</time>
      </trkpt>
      <trkpt lat="42.6608080" lon="-7.1162420">
        <ele>772.0</ele>
        <time>2014-10-02T14:15:08Z</time>
      </trkpt>
      <trkpt lat="42.6608420" lon="-7.1161970">
        <ele>772.5</ele>
        <time>2014-10-02T14:15:10Z</time>
      </trkpt>
      <trkpt lat="42.6608760" lon="-7.1161470">
        <ele>773.0</ele>
        <time>2014-10-02T14:15:12Z</time>
      </trkpt>
      <trkpt lat="42.6608950" lon="-7.1161180">
        <ele>773.2</ele>
        <time>2014-10-02T14:15:13Z</time>
      </trkpt>
      <trkpt lat="42.6609130" lon="-7.1160880">
        <ele>773.5</ele>
        <time>2014-10-02T14:15:14Z</time>
      </trkpt>
      <trkpt lat="42.6609290" lon="-7.1160580">
        <ele>773.8</ele>
        <time>2014-10-02T14:15:15Z</time>
      </trkpt>
      <trkpt lat="42.6609550" lon="-7.1159990">
        <ele>774.4</ele>
        <time>2014-10-02T14:15:17Z</time>
      </trkpt>
      <trkpt lat="42.6609660" lon="-7.1159370">
        <ele>774.9</ele>
        <time>2014-10-02T14:15:19Z</time>
      </trkpt>
      <trkpt lat="42.6609800" lon="-7.1158650">
        <ele>775.5</ele>
        <time>2014-10-02T14:15:21Z</time>
      </trkpt>
      <trkpt lat="42.6609910" lon="-7.1157980">
        <ele>776.1</ele>
        <time>2014-10-02T14:15:23Z</time>
      </trkpt>
      <trkpt lat="42.6609970" lon="-7.1157240">
        <ele>776.9</ele>
        <time>2014-10-02T14:15:25Z</time>
      </trkpt>
      <trkpt lat="42.6609910" lon="-7.1156830">
        <ele>777.3</ele>
        <time>2014-10-02T14:15:26Z</time>
      </trkpt>
      <trkpt lat="42.6609830" lon="-7.1156380">
        <ele>777.7</ele>
        <time>2014-10-02T14:15:27Z</time>
      </trkpt>
      <trkpt lat="42.6609670" lon="-7.1155700">
        <ele>778.4</ele>
        <time>2014-10-02T14:15:29Z</time>
      </trkpt>
      <trkpt lat="42.6609580" lon="-7.1155310">
        <ele>778.8</ele>
        <time>2014-10-02T14:15:30Z</time>
      </trkpt>
      <trkpt lat="42.6609480" lon="-7.1154950">
        <ele>779.2</ele>
        <time>2014-10-02T14:15:31Z</time>
      </trkpt>
      <trkpt lat="42.6609370" lon="-7.1154600">
        <ele>779.5</ele>
        <time>2014-10-02T14:15:32Z</time>
      </trkpt>
      <trkpt lat="42.6609180" lon="-7.1153980">
        <ele>780.2</ele>
        <time>2014-10-02T14:15:34Z</time>
      </trkpt>
      <trkpt lat="42.6608970" lon="-7.1153360">
        <ele>780.8</ele>
        <time>2014-10-02T14:15:36Z</time>
      </trkpt>
      <trkpt lat="42.6608860" lon="-7.1152690">
        <ele>781.4</ele>
        <time>2014-10-02T14:15:38Z</time>
      </trkpt>
      <trkpt lat="42.6608740" lon="-7.1152140">
        <ele>781.9</ele>
        <time>2014-10-02T14:15:40Z</time>
      </trkpt>
      <trkpt lat="42.6608690" lon="-7.1151750">
        <ele>782.3</ele>
        <time>2014-10-02T14:15:41Z</time>
      </trkpt>
      <trkpt lat="42.6608640" lon="-7.1151360">
        <ele>782.6</ele>
        <time>2014-10-02T14:15:42Z</time>
      </trkpt>
      <trkpt lat="42.6608590" lon="-7.1150990">
        <ele>782.9</ele>
        <time>2014-10-02T14:15:43Z</time>
      </trkpt>
      <trkpt lat="42.6608560" lon="-7.1150560">
        <ele>783.3</ele>
        <time>2014-10-02T14:15:44Z</time>
      </trkpt>
      <trkpt lat="42.6608500" lon="-7.1149890">
        <ele>783.9</ele>
        <time>2014-10-02T14:15:46Z</time>
      </trkpt>
      <trkpt lat="42.6608480" lon="-7.1149290">
        <ele>784.4</ele>
        <time>2014-10-02T14:15:48Z</time>
      </trkpt>
      <trkpt lat="42.6608500" lon="-7.1148670">
        <ele>784.9</ele>
        <time>2014-10-02T14:15:50Z</time>
      </trkpt>
      <trkpt lat="42.6608600" lon="-7.1147990">
        <ele>785.5</ele>
        <time>2014-10-02T14:15:52Z</time>
      </trkpt>
      <trkpt lat="42.6608740" lon="-7.1147270">
        <ele>786.1</ele>
        <time>2014-10-02T14:15:54Z</time>
      </trkpt>
      <trkpt lat="42.6608830" lon="-7.1146910">
        <ele>786.4</ele>
        <time>2014-10-02T14:15:55Z</time>
      </trkpt>
      <trkpt lat="42.6608950" lon="-7.1146530">
        <ele>786.8</ele>
        <time>2014-10-02T14:15:56Z</time>
      </trkpt>
      <trkpt lat="42.6609090" lon="-7.1146200">
        <ele>787.1</ele>
        <time>2014-10-02T14:15:57Z</time>
      </trkpt>
      <trkpt lat="42.6609260" lon="-7.1145840">
        <ele>787.4</ele>
        <time>2014-10-02T14:15:58Z</time>
      </trkpt>
      <trkpt lat="42.6609420" lon="-7.1145540">
        <ele>787.7</ele>
        <time>2014-10-02T14:15:59Z</time>
      </trkpt>
      <trkpt lat="42.6609770" lon="-7.1144930">
        <ele>788.3</ele>
        <time>2014-10-02T14:16:01Z</time>
      </trkpt>
      <trkpt lat="42.6609970" lon="-7.1144570">
        <ele>788.7</ele>
        <time>2014-10-02T14:16:02Z</time>
      </trkpt>
      <trkpt lat="42.6610190" lon="-7.1144200">
        <ele>789.1</ele>
        <time>2014-10-02T14:16:03Z</time>
      </trkpt>
      <trkpt lat="42.6610450" lon="-7.1143790">
        <ele>789.5</ele>
        <time>2014-10-02T14:16:04Z</time>
      </trkpt>
      <trkpt lat="42.6610680" lon="-7.1143410">
        <ele>789.9</ele>
        <time>2014-10-02T14:16:05Z</time>
      </trkpt>
      <trkpt lat="42.6610880" lon="-7.1142800">
        <ele>790.4</ele>
        <time>2014-10-02T14:16:07Z</time>
      </trkpt>
      <trkpt lat="42.6611040" lon="-7.1142160">
        <ele>791.0</ele>
        <time>2014-10-02T14:16:09Z</time>
      </trkpt>
      <trkpt lat="42.6611140" lon="-7.1141600">
        <ele>791.5</ele>
        <time>2014-10-02T14:16:11Z</time>
      </trkpt>
      <trkpt lat="42.6611170" lon="-7.1140990">
        <ele>792.0</ele>
        <time>2014-10-02T14:16:13Z</time>
      </trkpt>
      <trkpt lat="42.6611120" lon="-7.1140380">
        <ele>792.5</ele>
        <time>2014-10-02T14:16:15Z</time>
      </trkpt>
      <trkpt lat="42.6611080" lon="-7.1140010">
        <ele>792.8</ele>
        <time>2014-10-02T14:16:16Z</time>
      </trkpt>
      <trkpt lat="42.6610970" lon="-7.1139650">
        <ele>793.1</ele>
        <time>2014-10-02T14:16:17Z</time>
      </trkpt>
      <trkpt lat="42.6610790" lon="-7.1139030">
        <ele>793.7</ele>
        <time>2014-10-02T14:16:19Z</time>
      </trkpt>
      <trkpt lat="42.6610680" lon="-7.1138690">
        <ele>794.0</ele>
        <time>2014-10-02T14:16:20Z</time>
      </trkpt>
      <trkpt lat="42.6610490" lon="-7.1138090">
        <ele>794.5</ele>
        <time>2014-10-02T14:16:22Z</time>
      </trkpt>
      <trkpt lat="42.6610370" lon="-7.1137400">
        <ele>795.0</ele>
        <time>2014-10-02T14:16:24Z</time>
      </trkpt>
      <trkpt lat="42.6610320" lon="-7.1136760">
        <ele>795.6</ele>
        <time>2014-10-02T14:16:26Z</time>
      </trkpt>
      <trkpt lat="42.6610280" lon="-7.1136130">
        <ele>796.1</ele>
        <time>2014-10-02T14:16:28Z</time>
      </trkpt>
      <trkpt lat="42.6610250" lon="-7.1135490">
        <ele>796.7</ele>
        <time>2014-10-02T14:16:30Z</time>
      </trkpt>
      <trkpt lat="42.6610280" lon="-7.1135050">
        <ele>797.1</ele>
        <time>2014-10-02T14:16:31Z</time>
      </trkpt>
      <trkpt lat="42.6610300" lon="-7.1134640">
        <ele>797.5</ele>
        <time>2014-10-02T14:16:32Z</time>
      </trkpt>
      <trkpt lat="42.6610380" lon="-7.1134270">
        <ele>797.8</ele>
        <time>2014-10-02T14:16:33Z</time>
      </trkpt>
      <trkpt lat="42.6610440" lon="-7.1133630">
        <ele>798.4</ele>
        <time>2014-10-02T14:16:35Z</time>
      </trkpt>
      <trkpt lat="42.6610550" lon="-7.1133020">
        <ele>798.9</ele>
        <time>2014-10-02T14:16:37Z</time>
      </trkpt>
      <trkpt lat="42.6610650" lon="-7.1132650">
        <ele>799.3</ele>
        <time>2014-10-02T14:16:38Z</time>
      </trkpt>
      <trkpt lat="42.6610750" lon="-7.1132300">
        <ele>799.6</ele>
        <time>2014-10-02T14:16:39Z</time>
      </trkpt>
      <trkpt lat="42.6610860" lon="-7.1131940">
        <ele>800.0</ele>
        <time>2014-10-02T14:16:40Z</time>
      </trkpt>
      <trkpt lat="42.6610970" lon="-7.1131590">
        <ele>800.5</ele>
        <time>2014-10-02T14:16:41Z</time>
      </trkpt>
      <trkpt lat="42.6611060" lon="-7.1131020">
        <ele>801.1</ele>
        <time>2014-10-02T14:16:43Z</time>
      </trkpt>
      <trkpt lat="42.6611210" lon="-7.1130530">
        <ele>801.7</ele>
        <time>2014-10-02T14:16:45Z</time>
      </trkpt>
      <trkpt lat="42.6611480" lon="-7.1129990">
        <ele>802.3</ele>
        <time>2014-10-02T14:16:47Z</time>
      </trkpt>
      <trkpt lat="42.6611600" lon="-7.1129650">
        <ele>802.7</ele>
        <time>2014-10-02T14:16:48Z</time>
      </trkpt>
      <trkpt lat="42.6611830" lon="-7.1129300">
        <ele>803.2</ele>
        <time>2014-10-02T14:16:49Z</time>
      </trkpt>
      <trkpt lat="42.6612060" lon="-7.1128930">
        <ele>803.7</ele>
        <time>2014-10-02T14:16:50Z</time>
      </trkpt>
      <trkpt lat="42.6612420" lon="-7.1128380">
        <ele>804.5</ele>
        <time>2014-10-02T14:16:52Z</time>
      </trkpt>
      <trkpt lat="42.6612620" lon="-7.1127930">
        <ele>805.0</ele>
        <time>2014-10-02T14:16:54Z</time>
      </trkpt>
      <trkpt lat="42.6612800" lon="-7.1127650">
        <ele>805.3</ele>
        <time>2014-10-02T14:16:55Z</time>
      </trkpt>
      <trkpt lat="42.6612970" lon="-7.1127290">
        <ele>805.7</ele>
        <time>2014-10-02T14:16:56Z</time>
      </trkpt>
      <trkpt lat="42.6613300" lon="-7.1126700">
        <ele>806.4</ele>
        <time>2014-10-02T14:16:58Z</time>
      </trkpt>
      <trkpt lat="42.6613500" lon="-7.1126170">
        <ele>807.0</ele>
        <time>2014-10-02T14:17:00Z</time>
      </trkpt>
      <trkpt lat="42.6613830" lon="-7.1125560">
        <ele>807.7</ele>
        <time>2014-10-02T14:17:02Z</time>
      </trkpt>
      <trkpt lat="42.6614110" lon="-7.1125000">
        <ele>808.4</ele>
        <time>2014-10-02T14:17:04Z</time>
      </trkpt>
      <trkpt lat="42.6614480" lon="-7.1124420">
        <ele>809.1</ele>
        <time>2014-10-02T14:17:06Z</time>
      </trkpt>
      <trkpt lat="42.6614650" lon="-7.1124090">
        <ele>809.4</ele>
        <time>2014-10-02T14:17:07Z</time>
      </trkpt>
      <trkpt lat="42.6614890" lon="-7.1123860">
        <ele>809.8</ele>
        <time>2014-10-02T14:17:08Z</time>
      </trkpt>
      <trkpt lat="42.6615040" lon="-7.1123540">
        <ele>810.1</ele>
        <time>2014-10-02T14:17:09Z</time>
      </trkpt>
      <trkpt lat="42.6615220" lon="-7.1123180">
        <ele>810.5</ele>
        <time>2014-10-02T14:17:10Z</time>
      </trkpt>
      <trkpt lat="42.6615460" lon="-7.1122870">
        <ele>810.8</ele>
        <time>2014-10-02T14:17:11Z</time>
      </trkpt>
      <trkpt lat="42.6615640" lon="-7.1122570">
        <ele>811.2</ele>
        <time>2014-10-02T14:17:12Z</time>
      </trkpt>
      <trkpt lat="42.6615820" lon="-7.1122260">
        <ele>811.5</ele>
        <time>2014-10-02T14:17:13Z</time>
      </trkpt>
      <trkpt lat="42.6616030" lon="-7.1121940">
        <ele>811.8</ele>
        <time>2014-10-02T14:17:14Z</time>
      </trkpt>
      <trkpt lat="42.6616250" lon="-7.1121630">
        <ele>812.2</ele>
        <time>2014-10-02T14:17:15Z</time>
      </trkpt>
      <trkpt lat="42.6616470" lon="-7.1121320">
        <ele>812.5</ele>
        <time>2014-10-02T14:17:16Z</time>
      </trkpt>
      <trkpt lat="42.6616700" lon="-7.1121020">
        <ele>812.8</ele>
        <time>2014-10-02T14:17:17Z</time>
      </trkpt>
      <trkpt lat="42.6616940" lon="-7.1120700">
        <ele>813.2</ele>
        <time>2014-10-02T14:17:18Z</time>
      </trkpt>
      <trkpt lat="42.6617180" lon="-7.1120390">
        <ele>813.5</ele>
        <time>2014-10-02T14:17:19Z</time>
      </trkpt>
      <trkpt lat="42.6617420" lon="-7.1120010">
        <ele>813.9</ele>
        <time>2014-10-02T14:17:20Z</time>
      </trkpt>
      <trkpt lat="42.6617660" lon="-7.1119680">
        <ele>814.3</ele>
        <time>2014-10-02T14:17:21Z</time>
      </trkpt>
      <trkpt lat="42.6617880" lon="-7.1119380">
        <ele>814.7</ele>
        <time>2014-10-02T14:17:22Z</time>
      </trkpt>
      <trkpt lat="42.6618120" lon="-7.1119060">
        <ele>815.0</ele>
        <time>2014-10-02T14:17:23Z</time>
      </trkpt>
      <trkpt lat="42.6618340" lon="-7.1118780">
        <ele>815.4</ele>
        <time>2014-10-02T14:17:24Z</time>
      </trkpt>
      <trkpt lat="42.6618590" lon="-7.1118510">
        <ele>815.8</ele>
        <time>2014-10-02T14:17:25Z</time>
      </trkpt>
      <trkpt lat="42.6618850" lon="-7.1118230">
        <ele>816.1</ele>
        <time>2014-10-02T14:17:26Z</time>
      </trkpt>
      <trkpt lat="42.6619080" lon="-7.1117960">
        <ele>816.5</ele>
        <time>2014-10-02T14:17:27Z</time>
      </trkpt>
      <trkpt lat="42.6619320" lon="-7.1117710">
        <ele>816.8</ele>
        <time>2014-10-02T14:17:28Z</time>
      </trkpt>
      <trkpt lat="42.6619580" lon="-7.1117500">
        <ele>817.2</ele>
        <time>2014-10-02T14:17:29Z</time>
      </trkpt>
      <trkpt lat="42.6620010" lon="-7.1117140">
        <ele>817.7</ele>
        <time>2014-10-02T14:17:31Z</time>
      </trkpt>
      <trkpt lat="42.6620440" lon="-7.1116830">
        <ele>818.2</ele>
        <time>2014-10-02T14:17:33Z</time>
      </trkpt>
      <trkpt lat="42.6620850" lon="-7.1116570">
        <ele>818.7</ele>
        <time>2014-10-02T14:17:35Z</time>
      </trkpt>
      <trkpt lat="42.6621100" lon="-7.1116430">
        <ele>819.0</ele>
        <time>2014-10-02T14:17:36Z</time>
      </trkpt>
      <trkpt lat="42.6621540" lon="-7.1116160">
        <ele>819.5</ele>
        <time>2014-10-02T14:17:38Z</time>
      </trkpt>
      <trkpt lat="42.6621820" lon="-7.1116040">
        <ele>819.8</ele>
        <time>2014-10-02T14:17:39Z</time>
      </trkpt>
      <trkpt lat="42.6622130" lon="-7.1115880">
        <ele>820.1</ele>
        <time>2014-10-02T14:17:40Z</time>
      </trkpt>
      <trkpt lat="42.6622440" lon="-7.1115750">
        <ele>820.4</ele>
        <time>2014-10-02T14:17:41Z</time>
      </trkpt>
      <trkpt lat="42.6622760" lon="-7.1115590">
        <ele>820.8</ele>
        <time>2014-10-02T14:17:42Z</time>
      </trkpt>
      <trkpt lat="42.6623040" lon="-7.1115440">
        <ele>821.1</ele>
        <time>2014-10-02T14:17:43Z</time>
      </trkpt>
      <trkpt lat="42.6623350" lon="-7.1115280">
        <ele>821.4</ele>
        <time>2014-10-02T14:17:44Z</time>
      </trkpt>
      <trkpt lat="42.6623660" lon="-7.1115150">
        <ele>821.7</ele>
        <time>2014-10-02T14:17:45Z</time>
      </trkpt>
      <trkpt lat="42.6623990" lon="-7.1115010">
        <ele>822.0</ele>
        <time>2014-10-02T14:17:46Z</time>
      </trkpt>
      <trkpt lat="42.6624310" lon="-7.1114900">
        <ele>822.3</ele>
        <time>2014-10-02T14:17:47Z</time>
      </trkpt>
      <trkpt lat="42.6624640" lon="-7.1114780">
        <ele>822.6</ele>
        <time>2014-10-02T14:17:48Z</time>
      </trkpt>
      <trkpt lat="42.6625070" lon="-7.1114650">
        <ele>823.0</ele>
        <time>2014-10-02T14:17:51Z</time>
      </trkpt>
      <trkpt lat="42.6625430" lon="-7.1114490">
        <ele>823.4</ele>
        <time>2014-10-02T14:17:52Z</time>
      </trkpt>
      <trkpt lat="42.6625760" lon="-7.1114340">
        <ele>823.7</ele>
        <time>2014-10-02T14:17:53Z</time>
      </trkpt>
      <trkpt lat="42.6626100" lon="-7.1114180">
        <ele>824.1</ele>
        <time>2014-10-02T14:17:54Z</time>
      </trkpt>
      <trkpt lat="42.6626440" lon="-7.1114060">
        <ele>824.4</ele>
        <time>2014-10-02T14:17:55Z</time>
      </trkpt>
      <trkpt lat="42.6626800" lon="-7.1113960">
        <ele>824.7</ele>
        <time>2014-10-02T14:17:56Z</time>
      </trkpt>
      <trkpt lat="42.6627140" lon="-7.1113850">
        <ele>825.1</ele>
        <time>2014-10-02T14:17:57Z</time>
      </trkpt>
      <trkpt lat="42.6627430" lon="-7.1113740">
        <ele>825.4</ele>
        <time>2014-10-02T14:17:58Z</time>
      </trkpt>
      <trkpt lat="42.6627730" lon="-7.1113660">
        <ele>825.7</ele>
        <time>2014-10-02T14:17:59Z</time>
      </trkpt>
      <trkpt lat="42.6628010" lon="-7.1113580">
        <ele>826.0</ele>
        <time>2014-10-02T14:18:00Z</time>
      </trkpt>
      <trkpt lat="42.6628300" lon="-7.1113460">
        <ele>826.3</ele>
        <time>2014-10-02T14:18:01Z</time>
      </trkpt>
      <trkpt lat="42.6628590" lon="-7.1113350">
        <ele>826.6</ele>
        <time>2014-10-02T14:18:02Z</time>
      </trkpt>
      <trkpt lat="42.6628880" lon="-7.1113250">
        <ele>826.9</ele>
        <time>2014-10-02T14:18:03Z</time>
      </trkpt>
      <trkpt lat="42.6629380" lon="-7.1113050">
        <ele>827.4</ele>
        <time>2014-10-02T14:18:05Z</time>
      </trkpt>
      <trkpt lat="42.6629660" lon="-7.1112960">
        <ele>827.7</ele>
        <time>2014-10-02T14:18:06Z</time>
      </trkpt>
      <trkpt lat="42.6630180" lon="-7.1112730">
        <ele>828.2</ele>
        <time>2014-10-02T14:18:08Z</time>
      </trkpt>
      <trkpt lat="42.6630500" lon="-7.1112560">
        <ele>828.5</ele>
        <time>2014-10-02T14:18:09Z</time>
      </trkpt>
      <trkpt lat="42.6630850" lon="-7.1112380">
        <ele>828.8</ele>
        <time>2014-10-02T14:18:10Z</time>
      </trkpt>
      <trkpt lat="42.6631210" lon="-7.1112230">
        <ele>829.1</ele>
        <time>2014-10-02T14:18:11Z</time>
      </trkpt>
      <trkpt lat="42.6631580" lon="-7.1112110">
        <ele>829.4</ele>
        <time>2014-10-02T14:18:12Z</time>
      </trkpt>
      <trkpt lat="42.6631860" lon="-7.1112000">
        <ele>829.7</ele>
        <time>2014-10-02T14:18:13Z</time>
      </trkpt>
      <trkpt lat="42.6632140" lon="-7.1111870">
        <ele>830.0</ele>
        <time>2014-10-02T14:18:14Z</time>
      </trkpt>
      <trkpt lat="42.6632380" lon="-7.1111670">
        <ele>830.3</ele>
        <time>2014-10-02T14:18:15Z</time>
      </trkpt>
      <trkpt lat="42.6632640" lon="-7.1111480">
        <ele>830.6</ele>
        <time>2014-10-02T14:18:16Z</time>
      </trkpt>
      <trkpt lat="42.6632870" lon="-7.1111240">
        <ele>831.0</ele>
        <time>2014-10-02T14:18:17Z</time>
      </trkpt>
      <trkpt lat="42.6633290" lon="-7.1110760">
        <ele>831.6</ele>
        <time>2014-10-02T14:18:19Z</time>
      </trkpt>
      <trkpt lat="42.6633510" lon="-7.1110510">
        <ele>831.9</ele>
        <time>2014-10-02T14:18:20Z</time>
      </trkpt>
      <trkpt lat="42.6633750" lon="-7.1110230">
        <ele>832.3</ele>
        <time>2014-10-02T14:18:21Z</time>
      </trkpt>
      <trkpt lat="42.6633960" lon="-7.1109930">
        <ele>832.6</ele>
        <time>2014-10-02T14:18:22Z</time>
      </trkpt>
      <trkpt lat="42.6634170" lon="-7.1109570">
        <ele>833.0</ele>
        <time>2014-10-02T14:18:23Z</time>
      </trkpt>
      <trkpt lat="42.6634450" lon="-7.1109080">
        <ele>833.5</ele>
        <time>2014-10-02T14:18:25Z</time>
      </trkpt>
      <trkpt lat="42.6634750" lon="-7.1108510">
        <ele>834.1</ele>
        <time>2014-10-02T14:18:27Z</time>
      </trkpt>
      <trkpt lat="42.6635090" lon="-7.1107940">
        <ele>834.7</ele>
        <time>2014-10-02T14:18:29Z</time>
      </trkpt>
      <trkpt lat="42.6635400" lon="-7.1107430">
        <ele>835.3</ele>
        <time>2014-10-02T14:18:31Z</time>
      </trkpt>
      <trkpt lat="42.6635590" lon="-7.1107120">
        <ele>835.7</ele>
        <time>2014-10-02T14:18:32Z</time>
      </trkpt>
      <trkpt lat="42.6635910" lon="-7.1106530">
        <ele>836.3</ele>
        <time>2014-10-02T14:18:34Z</time>
      </trkpt>
      <trkpt lat="42.6636070" lon="-7.1106220">
        <ele>836.7</ele>
        <time>2014-10-02T14:18:35Z</time>
      </trkpt>
      <trkpt lat="42.6636360" lon="-7.1105650">
        <ele>837.3</ele>
        <time>2014-10-02T14:18:37Z</time>
      </trkpt>
      <trkpt lat="42.6636530" lon="-7.1105350">
        <ele>837.7</ele>
        <time>2014-10-02T14:18:38Z</time>
      </trkpt>
      <trkpt lat="42.6636790" lon="-7.1104810">
        <ele>838.2</ele>
        <time>2014-10-02T14:18:40Z</time>
      </trkpt>
      <trkpt lat="42.6637130" lon="-7.1104250">
        <ele>838.9</ele>
        <time>2014-10-02T14:18:42Z</time>
      </trkpt>
      <trkpt lat="42.6637450" lon="-7.1103690">
        <ele>839.5</ele>
        <time>2014-10-02T14:18:44Z</time>
      </trkpt>
      <trkpt lat="42.6637760" lon="-7.1103140">
        <ele>840.2</ele>
        <time>2014-10-02T14:18:46Z</time>
      </trkpt>
      <trkpt lat="42.6638040" lon="-7.1102620">
        <ele>840.7</ele>
        <time>2014-10-02T14:18:48Z</time>
      </trkpt>
      <trkpt lat="42.6638300" lon="-7.1102000">
        <ele>841.4</ele>
        <time>2014-10-02T14:18:50Z</time>
      </trkpt>
      <trkpt lat="42.6638510" lon="-7.1101420">
        <ele>842.0</ele>
        <time>2014-10-02T14:18:52Z</time>
      </trkpt>
      <trkpt lat="42.6638680" lon="-7.1100730">
        <ele>842.6</ele>
        <time>2014-10-02T14:18:54Z</time>
      </trkpt>
      <trkpt lat="42.6638740" lon="-7.1100330">
        <ele>842.9</ele>
        <time>2014-10-02T14:18:55Z</time>
      </trkpt>
      <trkpt lat="42.6638780" lon="-7.1099750">
        <ele>843.4</ele>
        <time>2014-10-02T14:18:57Z</time>
      </trkpt>
      <trkpt lat="42.6638760" lon="-7.1099270">
        <ele>843.8</ele>
        <time>2014-10-02T14:18:59Z</time>
      </trkpt>
      <trkpt lat="42.6638740" lon="-7.1098690">
        <ele>844.3</ele>
        <time>2014-10-02T14:19:01Z</time>
      </trkpt>
      <trkpt lat="42.6638740" lon="-7.1098060">
        <ele>844.8</ele>
        <time>2014-10-02T14:19:03Z</time>
      </trkpt>
      <trkpt lat="42.6638870" lon="-7.1097440">
        <ele>845.4</ele>
        <time>2014-10-02T14:19:05Z</time>
      </trkpt>
      <trkpt lat="42.6638940" lon="-7.1097050">
        <ele>845.7</ele>
        <time>2014-10-02T14:19:06Z</time>
      </trkpt>
      <trkpt lat="42.6639000" lon="-7.1096360">
        <ele>846.3</ele>
        <time>2014-10-02T14:19:08Z</time>
      </trkpt>
      <trkpt lat="42.6639000" lon="-7.1095940">
        <ele>846.6</ele>
        <time>2014-10-02T14:19:09Z</time>
      </trkpt>
      <trkpt lat="42.6639020" lon="-7.1095540">
        <ele>847.0</ele>
        <time>2014-10-02T14:19:10Z</time>
      </trkpt>
      <trkpt lat="42.6639060" lon="-7.1095130">
        <ele>847.4</ele>
        <time>2014-10-02T14:19:11Z</time>
      </trkpt>
      <trkpt lat="42.6639120" lon="-7.1094400">
        <ele>848.0</ele>
        <time>2014-10-02T14:19:13Z</time>
      </trkpt>
      <trkpt lat="42.6639190" lon="-7.1093990">
        <ele>848.4</ele>
        <time>2014-10-02T14:19:14Z</time>
      </trkpt>
      <trkpt lat="42.6639300" lon="-7.1093600">
        <ele>848.8</ele>
        <time>2014-10-02T14:19:15Z</time>
      </trkpt>
      <trkpt lat="42.6639410" lon="-7.1093240">
        <ele>849.1</ele>
        <time>2014-10-02T14:19:16Z</time>
      </trkpt>
      <trkpt lat="42.6639510" lon="-7.1092900">
        <ele>849.4</ele>
        <time>2014-10-02T14:19:17Z</time>
      </trkpt>
      <trkpt lat="42.6639700" lon="-7.1092260">
        <ele>850.0</ele>
        <time>2014-10-02T14:19:19Z</time>
      </trkpt>
      <trkpt lat="42.6639890" lon="-7.1091610">
        <ele>850.6</ele>
        <time>2014-10-02T14:19:21Z</time>
      </trkpt>
      <trkpt lat="42.6640110" lon="-7.1090940">
        <ele>851.3</ele>
        <time>2014-10-02T14:19:23Z</time>
      </trkpt>
      <trkpt lat="42.6640310" lon="-7.1090450">
        <ele>851.8</ele>
        <time>2014-10-02T14:19:25Z</time>
      </trkpt>
      <trkpt lat="42.6640470" lon="-7.1090130">
        <ele>852.2</ele>
        <time>2014-10-02T14:19:26Z</time>
      </trkpt>
      <trkpt lat="42.6640610" lon="-7.1089770">
        <ele>852.5</ele>
        <time>2014-10-02T14:19:27Z</time>
      </trkpt>
      <trkpt lat="42.6640750" lon="-7.1089420">
        <ele>852.9</ele>
        <time>2014-10-02T14:19:28Z</time>
      </trkpt>
      <trkpt lat="42.6640860" lon="-7.1089070">
        <ele>853.2</ele>
        <time>2014-10-02T14:19:29Z</time>
      </trkpt>
      <trkpt lat="42.6640980" lon="-7.1088710">
        <ele>853.6</ele>
        <time>2014-10-02T14:19:30Z</time>
      </trkpt>
      <trkpt lat="42.6641170" lon="-7.1088150">
        <ele>854.1</ele>
        <time>2014-10-02T14:19:32Z</time>
      </trkpt>
      <trkpt lat="42.6641380" lon="-7.1087570">
        <ele>854.7</ele>
        <time>2014-10-02T14:19:34Z</time>
      </trkpt>
      <trkpt lat="42.6641560" lon="-7.1086930">
        <ele>855.3</ele>
        <time>2014-10-02T14:19:36Z</time>
      </trkpt>
      <trkpt lat="42.6641700" lon="-7.1086280">
        <ele>855.9</ele>
        <time>2014-10-02T14:19:38Z</time>
      </trkpt>
      <trkpt lat="42.6641790" lon="-7.1085670">
        <ele>856.4</ele>
        <time>2014-10-02T14:19:40Z</time>
      </trkpt>
      <trkpt lat="42.6641740" lon="-7.1085080">
        <ele>856.9</ele>
        <time>2014-10-02T14:19:42Z</time>
      </trkpt>
      <trkpt lat="42.6641690" lon="-7.1084380">
        <ele>857.5</ele>
        <time>2014-10-02T14:19:44Z</time>
      </trkpt>
      <trkpt lat="42.6641620" lon="-7.1084000">
        <ele>857.8</ele>
        <time>2014-10-02T14:19:45Z</time>
      </trkpt>
      <trkpt lat="42.6641440" lon="-7.1083380">
        <ele>858.4</ele>
        <time>2014-10-02T14:19:47Z</time>
      </trkpt>
      <trkpt lat="42.6641310" lon="-7.1083010">
        <ele>858.7</ele>
        <time>2014-10-02T14:19:48Z</time>
      </trkpt>
      <trkpt lat="42.6641190" lon="-7.1082670">
        <ele>859.0</ele>
        <time>2014-10-02T14:19:49Z</time>
      </trkpt>
      <trkpt lat="42.6641100" lon="-7.1082330">
        <ele>859.3</ele>
        <time>2014-10-02T14:19:50Z</time>
      </trkpt>
      <trkpt lat="42.6641000" lon="-7.1081950">
        <ele>859.7</ele>
        <time>2014-10-02T14:19:51Z</time>
      </trkpt>
      <trkpt lat="42.6640760" lon="-7.1081230">
        <ele>860.4</ele>
        <time>2014-10-02T14:19:53Z</time>
      </trkpt>
      <trkpt lat="42.6640620" lon="-7.1080850">
        <ele>860.7</ele>
        <time>2014-10-02T14:19:54Z</time>
      </trkpt>
      <trkpt lat="42.6640510" lon="-7.1080470">
        <ele>861.1</ele>
        <time>2014-10-02T14:19:55Z</time>
      </trkpt>
      <trkpt lat="42.6640290" lon="-7.1079810">
        <ele>861.7</ele>
        <time>2014-10-02T14:19:57Z</time>
      </trkpt>
      <trkpt lat="42.6640120" lon="-7.1079120">
        <ele>862.3</ele>
        <time>2014-10-02T14:19:59Z</time>
      </trkpt>
      <trkpt lat="42.6639990" lon="-7.1078470">
        <ele>862.9</ele>
        <time>2014-10-02T14:20:01Z</time>
      </trkpt>
      <trkpt lat="42.6639950" lon="-7.1077830">
        <ele>863.4</ele>
        <time>2014-10-02T14:20:03Z</time>
      </trkpt>
      <trkpt lat="42.6639920" lon="-7.1077440">
        <ele>863.7</ele>
        <time>2014-10-02T14:20:04Z</time>
      </trkpt>
      <trkpt lat="42.6639860" lon="-7.1077070">
        <ele>864.1</ele>
        <time>2014-10-02T14:20:05Z</time>
      </trkpt>
      <trkpt lat="42.6639760" lon="-7.1076710">
        <ele>864.5</ele>
        <time>2014-10-02T14:20:06Z</time>
      </trkpt>
      <trkpt lat="42.6639760" lon="-7.1076330">
        <ele>864.8</ele>
        <time>2014-10-02T14:20:07Z</time>
      </trkpt>
      <trkpt lat="42.6639810" lon="-7.1075630">
        <ele>865.5</ele>
        <time>2014-10-02T14:20:09Z</time>
      </trkpt>
      <trkpt lat="42.6639840" lon="-7.1074970">
        <ele>866.1</ele>
        <time>2014-10-02T14:20:11Z</time>
      </trkpt>
      <trkpt lat="42.6639940" lon="-7.1074270">
        <ele>866.7</ele>
        <time>2014-10-02T14:20:13Z</time>
      </trkpt>
      <trkpt lat="42.6640070" lon="-7.1073610">
        <ele>867.4</ele>
        <time>2014-10-02T14:20:15Z</time>
      </trkpt>
      <trkpt lat="42.6640210" lon="-7.1073240">
        <ele>867.7</ele>
        <time>2014-10-02T14:20:16Z</time>
      </trkpt>
      <trkpt lat="42.6640410" lon="-7.1072860">
        <ele>868.2</ele>
        <time>2014-10-02T14:20:17Z</time>
      </trkpt>
      <trkpt lat="42.6640580" lon="-7.1072460">
        <ele>868.6</ele>
        <time>2014-10-02T14:20:18Z</time>
      </trkpt>
      <trkpt lat="42.6640740" lon="-7.1072120">
        <ele>869.0</ele>
        <time>2014-10-02T14:20:19Z</time>
      </trkpt>
      <trkpt lat="42.6640930" lon="-7.1071740">
        <ele>869.4</ele>
        <time>2014-10-02T14:20:20Z</time>
      </trkpt>
      <trkpt lat="42.6641350" lon="-7.1071190">
        <ele>870.1</ele>
        <time>2014-10-02T14:20:22Z</time>
      </trkpt>
      <trkpt lat="42.6641620" lon="-7.1070890">
        <ele>870.6</ele>
        <time>2014-10-02T14:20:23Z</time>
      </trkpt>
      <trkpt lat="42.6641880" lon="-7.1070590">
        <ele>871.0</ele>
        <time>2014-10-02T14:20:24Z</time>
      </trkpt>
      <trkpt lat="42.6642100" lon="-7.1070320">
        <ele>871.4</ele>
        <time>2014-10-02T14:20:25Z</time>
      </trkpt>
      <trkpt lat="42.6642300" lon="-7.1070060">
        <ele>871.7</ele>
        <time>2014-10-02T14:20:26Z</time>
      </trkpt>
      <trkpt lat="42.6642510" lon="-7.1069800">
        <ele>872.1</ele>
        <time>2014-10-02T14:20:27Z</time>
      </trkpt>
      <trkpt lat="42.6642720" lon="-7.1069510">
        <ele>872.5</ele>
        <time>2014-10-02T14:20:28Z</time>
      </trkpt>
      <trkpt lat="42.6642910" lon="-7.1069230">
        <ele>872.8</ele>
        <time>2014-10-02T14:20:29Z</time>
      </trkpt>
      <trkpt lat="42.6643090" lon="-7.1068950">
        <ele>873.2</ele>
        <time>2014-10-02T14:20:30Z</time>
      </trkpt>
      <trkpt lat="42.6643270" lon="-7.1068620">
        <ele>873.6</ele>
        <time>2014-10-02T14:20:31Z</time>
      </trkpt>
      <trkpt lat="42.6643470" lon="-7.1068300">
        <ele>874.0</ele>
        <time>2014-10-02T14:20:32Z</time>
      </trkpt>
      <trkpt lat="42.6643670" lon="-7.1068020">
        <ele>874.3</ele>
        <time>2014-10-02T14:20:33Z</time>
      </trkpt>
      <trkpt lat="42.6643860" lon="-7.1067740">
        <ele>874.7</ele>
        <time>2014-10-02T14:20:34Z</time>
      </trkpt>
      <trkpt lat="42.6644140" lon="-7.1067300">
        <ele>875.2</ele>
        <time>2014-10-02T14:20:36Z</time>
      </trkpt>
      <trkpt lat="42.6644410" lon="-7.1066870">
        <ele>875.7</ele>
        <time>2014-10-02T14:20:38Z</time>
      </trkpt>
      <trkpt lat="42.6644750" lon="-7.1066270">
        <ele>876.5</ele>
        <time>2014-10-02T14:20:40Z</time>
      </trkpt>
      <trkpt lat="42.6644930" lon="-7.1065860">
        <ele>876.9</ele>
        <time>2014-10-02T14:20:41Z</time>
      </trkpt>
      <trkpt lat="42.6645120" lon="-7.1065540">
        <ele>877.3</ele>
        <time>2014-10-02T14:20:42Z</time>
      </trkpt>
      <trkpt lat="42.6645290" lon="-7.1065190">
        <ele>877.7</ele>
        <time>2014-10-02T14:20:43Z</time>
      </trkpt>
      <trkpt lat="42.6645450" lon="-7.1064880">
        <ele>878.0</ele>
        <time>2014-10-02T14:20:44Z</time>
      </trkpt>
      <trkpt lat="42.6645650" lon="-7.1064540">
        <ele>878.4</ele>
        <time>2014-10-02T14:20:45Z</time>
      </trkpt>
      <trkpt lat="42.6645810" lon="-7.1064240">
        <ele>878.7</ele>
        <time>2014-10-02T14:20:46Z</time>
      </trkpt>
      <trkpt lat="42.6646000" lon="-7.1063950">
        <ele>879.0</ele>
        <time>2014-10-02T14:20:47Z</time>
      </trkpt>
      <trkpt lat="42.6646190" lon="-7.1063670">
        <ele>879.4</ele>
        <time>2014-10-02T14:20:48Z</time>
      </trkpt>
      <trkpt lat="42.6646500" lon="-7.1063180">
        <ele>879.9</ele>
        <time>2014-10-02T14:20:50Z</time>
      </trkpt>
      <trkpt lat="42.6646850" lon="-7.1062660">
        <ele>880.5</ele>
        <time>2014-10-02T14:20:52Z</time>
      </trkpt>
      <trkpt lat="42.6647140" lon="-7.1062130">
        <ele>881.1</ele>
        <time>2014-10-02T14:20:54Z</time>
      </trkpt>
      <trkpt lat="42.6647420" lon="-7.1061760">
        <ele>881.7</ele>
        <time>2014-10-02T14:20:56Z</time>
      </trkpt>
      <trkpt lat="42.6647650" lon="-7.1061380">
        <ele>882.2</ele>
        <time>2014-10-02T14:20:58Z</time>
      </trkpt>
      <trkpt lat="42.6647920" lon="-7.1060990">
        <ele>882.7</ele>
        <time>2014-10-02T14:21:00Z</time>
      </trkpt>
      <trkpt lat="42.6648240" lon="-7.1060540">
        <ele>883.4</ele>
        <time>2014-10-02T14:21:02Z</time>
      </trkpt>
      <trkpt lat="42.6648570" lon="-7.1060080">
        <ele>884.0</ele>
        <time>2014-10-02T14:21:04Z</time>
      </trkpt>
      <trkpt lat="42.6648910" lon="-7.1059690">
        <ele>884.6</ele>
        <time>2014-10-02T14:21:06Z</time>
      </trkpt>
      <trkpt lat="42.6649160" lon="-7.1059480">
        <ele>885.0</ele>
        <time>2014-10-02T14:21:07Z</time>
      </trkpt>
      <trkpt lat="42.6649420" lon="-7.1059320">
        <ele>885.4</ele>
        <time>2014-10-02T14:21:08Z</time>
      </trkpt>
      <trkpt lat="42.6649680" lon="-7.1059140">
        <ele>885.8</ele>
        <time>2014-10-02T14:21:09Z</time>
      </trkpt>
      <trkpt lat="42.6650180" lon="-7.1058860">
        <ele>886.4</ele>
        <time>2014-10-02T14:21:11Z</time>
      </trkpt>
      <trkpt lat="42.6650450" lon="-7.1058740">
        <ele>886.7</ele>
        <time>2014-10-02T14:21:12Z</time>
      </trkpt>
      <trkpt lat="42.6650770" lon="-7.1058560">
        <ele>887.1</ele>
        <time>2014-10-02T14:21:14Z</time>
      </trkpt>
      <trkpt lat="42.6651070" lon="-7.1058380">
        <ele>887.5</ele>
        <time>2014-10-02T14:21:17Z</time>
      </trkpt>
      <trkpt lat="42.6651380" lon="-7.1058230">
        <ele>887.9</ele>
        <time>2014-10-02T14:21:19Z</time>
      </trkpt>
      <trkpt lat="42.6651690" lon="-7.1058090">
        <ele>888.2</ele>
        <time>2014-10-02T14:21:21Z</time>
      </trkpt>
      <trkpt lat="42.6652100" lon="-7.1058030">
        <ele>888.7</ele>
        <time>2014-10-02T14:21:23Z</time>
      </trkpt>
      <trkpt lat="42.6652570" lon="-7.1058010">
        <ele>889.3</ele>
        <time>2014-10-02T14:21:25Z</time>
      </trkpt>
      <trkpt lat="42.6653030" lon="-7.1058060">
        <ele>889.8</ele>
        <time>2014-10-02T14:21:27Z</time>
      </trkpt>
      <trkpt lat="42.6653400" lon="-7.1058140">
        <ele>890.3</ele>
        <time>2014-10-02T14:21:29Z</time>
      </trkpt>
      <trkpt lat="42.6653780" lon="-7.1058210">
        <ele>890.7</ele>
        <time>2014-10-02T14:21:31Z</time>
      </trkpt>
      <trkpt lat="42.6654180" lon="-7.1058300">
        <ele>891.2</ele>
        <time>2014-10-02T14:21:33Z</time>
      </trkpt>
      <trkpt lat="42.6654600" lon="-7.1058450">
        <ele>891.7</ele>
        <time>2014-10-02T14:21:35Z</time>
      </trkpt>
      <trkpt lat="42.6654960" lon="-7.1058580">
        <ele>892.2</ele>
        <time>2014-10-02T14:21:37Z</time>
      </trkpt>
      <trkpt lat="42.6655300" lon="-7.1058830">
        <ele>892.6</ele>
        <time>2014-10-02T14:21:39Z</time>
      </trkpt>
      <trkpt lat="42.6655720" lon="-7.1059130">
        <ele>893.2</ele>
        <time>2014-10-02T14:21:41Z</time>
      </trkpt>
      <trkpt lat="42.6656110" lon="-7.1059470">
        <ele>893.7</ele>
        <time>2014-10-02T14:21:43Z</time>
      </trkpt>
      <trkpt lat="42.6656400" lon="-7.1059680">
        <ele>894.0</ele>
        <time>2014-10-02T14:21:45Z</time>
      </trkpt>
      <trkpt lat="42.6656810" lon="-7.1059980">
        <ele>894.5</ele>
        <time>2014-10-02T14:21:47Z</time>
      </trkpt>
      <trkpt lat="42.6657250" lon="-7.1060290">
        <ele>895.0</ele>
        <time>2014-10-02T14:21:49Z</time>
      </trkpt>
      <trkpt lat="42.6657510" lon="-7.1060480">
        <ele>895.3</ele>
        <time>2014-10-02T14:21:50Z</time>
      </trkpt>
      <trkpt lat="42.6657770" lon="-7.1060600">
        <ele>895.6</ele>
        <time>2014-10-02T14:21:51Z</time>
      </trkpt>
      <trkpt lat="42.6658030" lon="-7.1060690">
        <ele>895.9</ele>
        <time>2014-10-02T14:21:52Z</time>
      </trkpt>
      <trkpt lat="42.6658320" lon="-7.1060840">
        <ele>896.2</ele>
        <time>2014-10-02T14:21:53Z</time>
      </trkpt>
      <trkpt lat="42.6658830" lon="-7.1061130">
        <ele>896.8</ele>
        <time>2014-10-02T14:21:55Z</time>
      </trkpt>
      <trkpt lat="42.6659140" lon="-7.1061260">
        <ele>897.1</ele>
        <time>2014-10-02T14:21:56Z</time>
      </trkpt>
      <trkpt lat="42.6659430" lon="-7.1061360">
        <ele>897.4</ele>
        <time>2014-10-02T14:21:57Z</time>
      </trkpt>
      <trkpt lat="42.6659920" lon="-7.1061450">
        <ele>897.9</ele>
        <time>2014-10-02T14:21:59Z</time>
      </trkpt>
      <trkpt lat="42.6660330" lon="-7.1061550">
        <ele>898.3</ele>
        <time>2014-10-02T14:22:01Z</time>
      </trkpt>
      <trkpt lat="42.6660770" lon="-7.1061720">
        <ele>898.8</ele>
        <time>2014-10-02T14:22:03Z</time>
      </trkpt>
      <trkpt lat="42.6661280" lon="-7.1061800">
        <ele>899.3</ele>
        <time>2014-10-02T14:22:05Z</time>
      </trkpt>
      <trkpt lat="42.6661800" lon="-7.1061840">
        <ele>899.8</ele>
        <time>2014-10-02T14:22:07Z</time>
      </trkpt>
      <trkpt lat="42.6662320" lon="-7.1061860">
        <ele>900.3</ele>
        <time>2014-10-02T14:22:09Z</time>
      </trkpt>
      <trkpt lat="42.6662600" lon="-7.1061900">
        <ele>900.5</ele>
        <time>2014-10-02T14:22:10Z</time>
      </trkpt>
      <trkpt lat="42.6662900" lon="-7.1061920">
        <ele>900.8</ele>
        <time>2014-10-02T14:22:11Z</time>
      </trkpt>
      <trkpt lat="42.6663170" lon="-7.1061940">
        <ele>901.0</ele>
        <time>2014-10-02T14:22:12Z</time>
      </trkpt>
      <trkpt lat="42.6663740" lon="-7.1061960">
        <ele>901.4</ele>
        <time>2014-10-02T14:22:14Z</time>
      </trkpt>
      <trkpt lat="42.6664030" lon="-7.1061980">
        <ele>901.5</ele>
        <time>2014-10-02T14:22:15Z</time>
      </trkpt>
      <trkpt lat="42.6664320" lon="-7.1062000">
        <ele>901.6</ele>
        <time>2014-10-02T14:22:16Z</time>
      </trkpt>
      <trkpt lat="42.6664590" lon="-7.1062050">
        <ele>901.6</ele>
        <time>2014-10-02T14:22:17Z</time>
      </trkpt>
      <trkpt lat="42.6665120" lon="-7.1062210">
        <ele>901.6</ele>
        <time>2014-10-02T14:22:19Z</time>
      </trkpt>
      <trkpt lat="42.6665390" lon="-7.1062280">
        <ele>901.6</ele>
        <time>2014-10-02T14:22:20Z</time>
      </trkpt>
      <trkpt lat="42.6665890" lon="-7.1062460">
        <ele>901.6</ele>
        <time>2014-10-02T14:22:22Z</time>
      </trkpt>
      <trkpt lat="42.6666360" lon="-7.1062620">
        <ele>901.6</ele>
        <time>2014-10-02T14:22:24Z</time>
      </trkpt>
      <trkpt lat="42.6666810" lon="-7.1062800">
        <ele>901.6</ele>
        <time>2014-10-02T14:22:26Z</time>
      </trkpt>
      <trkpt lat="42.6667280" lon="-7.1063030">
        <ele>901.6</ele>
        <time>2014-10-02T14:22:28Z</time>
      </trkpt>
      <trkpt lat="42.6667720" lon="-7.1063280">
        <ele>901.6</ele>
        <time>2014-10-02T14:22:30Z</time>
      </trkpt>
      <trkpt lat="42.6668210" lon="-7.1063490">
        <ele>901.6</ele>
        <time>2014-10-02T14:22:32Z</time>
      </trkpt>
      <trkpt lat="42.6668460" lon="-7.1063660">
        <ele>901.5</ele>
        <time>2014-10-02T14:22:33Z</time>
      </trkpt>
      <trkpt lat="42.6668880" lon="-7.1063950">
        <ele>901.5</ele>
        <time>2014-10-02T14:22:35Z</time>
      </trkpt>
      <trkpt lat="42.6669300" lon="-7.1064250">
        <ele>901.5</ele>
        <time>2014-10-02T14:22:37Z</time>
      </trkpt>
      <trkpt lat="42.6669750" lon="-7.1064520">
        <ele>901.4</ele>
        <time>2014-10-02T14:22:39Z</time>
      </trkpt>
      <trkpt lat="42.6670150" lon="-7.1064770">
        <ele>901.4</ele>
        <time>2014-10-02T14:22:41Z</time>
      </trkpt>
      <trkpt lat="42.6670560" lon="-7.1065010">
        <ele>901.3</ele>
        <time>2014-10-02T14:22:43Z</time>
      </trkpt>
      <trkpt lat="42.6670990" lon="-7.1065270">
        <ele>901.2</ele>
        <time>2014-10-02T14:22:45Z</time>
      </trkpt>
      <trkpt lat="42.6671380" lon="-7.1065560">
        <ele>901.0</ele>
        <time>2014-10-02T14:22:47Z</time>
      </trkpt>
      <trkpt lat="42.6671760" lon="-7.1065780">
        <ele>900.8</ele>
        <time>2014-10-02T14:22:49Z</time>
      </trkpt>
      <trkpt lat="42.6672150" lon="-7.1066000">
        <ele>900.6</ele>
        <time>2014-10-02T14:22:51Z</time>
      </trkpt>
      <trkpt lat="42.6672560" lon="-7.1066190">
        <ele>900.8</ele>
        <time>2014-10-02T14:22:53Z</time>
      </trkpt>
      <trkpt lat="42.6673000" lon="-7.1066430">
        <ele>901.8</ele>
        <time>2014-10-02T14:22:54Z</time>
      </trkpt>
      <trkpt lat="42.6673320" lon="-7.1066610">
        <ele>902.6</ele>
        <time>2014-10-02T14:22:55Z</time>
      </trkpt>
      <trkpt lat="42.6673630" lon="-7.1066760">
        <ele>903.3</ele>
        <time>2014-10-02T14:22:56Z</time>
      </trkpt>
      <trkpt lat="42.6674160" lon="-7.1066970">
        <ele>904.5</ele>
        <time>2014-10-02T14:22:58Z</time>
      </trkpt>
      <trkpt lat="42.6674670" lon="-7.1067170">
        <ele>905.7</ele>
        <time>2014-10-02T14:23:00Z</time>
      </trkpt>
      <trkpt lat="42.6674940" lon="-7.1067240">
        <ele>906.3</ele>
        <time>2014-10-02T14:23:01Z</time>
      </trkpt>
      <trkpt lat="42.6675230" lon="-7.1067350">
        <ele>907.0</ele>
        <time>2014-10-02T14:23:02Z</time>
      </trkpt>
      <trkpt lat="42.6675550" lon="-7.1067420">
        <ele>907.7</ele>
        <time>2014-10-02T14:23:03Z</time>
      </trkpt>
      <trkpt lat="42.6675830" lon="-7.1067530">
        <ele>908.4</ele>
        <time>2014-10-02T14:23:04Z</time>
      </trkpt>
      <trkpt lat="42.6676110" lon="-7.1067660">
        <ele>909.1</ele>
        <time>2014-10-02T14:23:05Z</time>
      </trkpt>
      <trkpt lat="42.6676420" lon="-7.1067780">
        <ele>909.8</ele>
        <time>2014-10-02T14:23:06Z</time>
      </trkpt>
      <trkpt lat="42.6676680" lon="-7.1067880">
        <ele>910.5</ele>
        <time>2014-10-02T14:23:07Z</time>
      </trkpt>
      <trkpt lat="42.6677170" lon="-7.1068110">
        <ele>911.8</ele>
        <time>2014-10-02T14:23:09Z</time>
      </trkpt>
      <trkpt lat="42.6677660" lon="-7.1068250">
        <ele>913.0</ele>
        <time>2014-10-02T14:23:11Z</time>
      </trkpt>
      <trkpt lat="42.6678200" lon="-7.1068400">
        <ele>914.3</ele>
        <time>2014-10-02T14:23:13Z</time>
      </trkpt>
      <trkpt lat="42.6678810" lon="-7.1068470">
        <ele>915.7</ele>
        <time>2014-10-02T14:23:15Z</time>
      </trkpt>
      <trkpt lat="42.6679230" lon="-7.1068490">
        <ele>916.7</ele>
        <time>2014-10-02T14:23:16Z</time>
      </trkpt>
      <trkpt lat="42.6679620" lon="-7.1068550">
        <ele>917.7</ele>
        <time>2014-10-02T14:23:17Z</time>
      </trkpt>
      <trkpt lat="42.6679980" lon="-7.1068580">
        <ele>918.5</ele>
        <time>2014-10-02T14:23:18Z</time>
      </trkpt>
      <trkpt lat="42.6680350" lon="-7.1068590">
        <ele>919.4</ele>
        <time>2014-10-02T14:23:19Z</time>
      </trkpt>
      <trkpt lat="42.6680680" lon="-7.1068590">
        <ele>920.2</ele>
        <time>2014-10-02T14:23:20Z</time>
      </trkpt>
      <trkpt lat="42.6681000" lon="-7.1068580">
        <ele>920.9</ele>
        <time>2014-10-02T14:23:21Z</time>
      </trkpt>
      <trkpt lat="42.6681550" lon="-7.1068560">
        <ele>922.2</ele>
        <time>2014-10-02T14:23:23Z</time>
      </trkpt>
      <trkpt lat="42.6681830" lon="-7.1068560">
        <ele>922.9</ele>
        <time>2014-10-02T14:23:24Z</time>
      </trkpt>
      <trkpt lat="42.6682360" lon="-7.1068520">
        <ele>924.1</ele>
        <time>2014-10-02T14:23:26Z</time>
      </trkpt>
      <trkpt lat="42.6682840" lon="-7.1068520">
        <ele>925.1</ele>
        <time>2014-10-02T14:23:28Z</time>
      </trkpt>
      <trkpt lat="42.6683330" lon="-7.1068560">
        <ele>926.2</ele>
        <time>2014-10-02T14:23:30Z</time>
      </trkpt>
      <trkpt lat="42.6683850" lon="-7.1068520">
        <ele>927.4</ele>
        <time>2014-10-02T14:23:32Z</time>
      </trkpt>
      <trkpt lat="42.6684330" lon="-7.1068500">
        <ele>928.5</ele>
        <time>2014-10-02T14:23:34Z</time>
      </trkpt>
      <trkpt lat="42.6684830" lon="-7.1068430">
        <ele>929.6</ele>
        <time>2014-10-02T14:23:36Z</time>
      </trkpt>
      <trkpt lat="42.6685120" lon="-7.1068320">
        <ele>930.4</ele>
        <time>2014-10-02T14:23:37Z</time>
      </trkpt>
      <trkpt lat="42.6685440" lon="-7.1068190">
        <ele>931.1</ele>
        <time>2014-10-02T14:23:38Z</time>
      </trkpt>
      <trkpt lat="42.6685750" lon="-7.1068010">
        <ele>931.9</ele>
        <time>2014-10-02T14:23:39Z</time>
      </trkpt>
      <trkpt lat="42.6686080" lon="-7.1067780">
        <ele>932.8</ele>
        <time>2014-10-02T14:23:40Z</time>
      </trkpt>
      <trkpt lat="42.6686420" lon="-7.1067500">
        <ele>933.8</ele>
        <time>2014-10-02T14:23:41Z</time>
      </trkpt>
      <trkpt lat="42.6686790" lon="-7.1067200">
        <ele>934.9</ele>
        <time>2014-10-02T14:23:42Z</time>
      </trkpt>
      <trkpt lat="42.6687110" lon="-7.1066890">
        <ele>935.2</ele>
        <time>2014-10-02T14:23:43Z</time>
      </trkpt>
      <trkpt lat="42.6687460" lon="-7.1066540">
        <ele>935.6</ele>
        <time>2014-10-02T14:23:44Z</time>
      </trkpt>
      <trkpt lat="42.6687750" lon="-7.1066200">
        <ele>935.9</ele>
        <time>2014-10-02T14:23:45Z</time>
      </trkpt>
      <trkpt lat="42.6687960" lon="-7.1065870">
        <ele>936.2</ele>
        <time>2014-10-02T14:23:46Z</time>
      </trkpt>
      <trkpt lat="42.6688160" lon="-7.1065520">
        <ele>936.5</ele>
        <time>2014-10-02T14:23:47Z</time>
      </trkpt>
      <trkpt lat="42.6688480" lon="-7.1065000">
        <ele>936.9</ele>
        <time>2014-10-02T14:23:49Z</time>
      </trkpt>
      <trkpt lat="42.6688680" lon="-7.1064570">
        <ele>937.2</ele>
        <time>2014-10-02T14:23:51Z</time>
      </trkpt>
      <trkpt lat="42.6688780" lon="-7.1064100">
        <ele>937.5</ele>
        <time>2014-10-02T14:23:53Z</time>
      </trkpt>
      <trkpt lat="42.6688690" lon="-7.1063460">
        <ele>937.8</ele>
        <time>2014-10-02T14:23:55Z</time>
      </trkpt>
      <trkpt lat="42.6688480" lon="-7.1062770">
        <ele>938.3</ele>
        <time>2014-10-02T14:23:57Z</time>
      </trkpt>
      <trkpt lat="42.6688250" lon="-7.1062160">
        <ele>938.7</ele>
        <time>2014-10-02T14:23:59Z</time>
      </trkpt>
      <trkpt lat="42.6688090" lon="-7.1061500">
        <ele>939.1</ele>
        <time>2014-10-02T14:24:01Z</time>
      </trkpt>
      <trkpt lat="42.6687850" lon="-7.1060970">
        <ele>939.4</ele>
        <time>2014-10-02T14:24:03Z</time>
      </trkpt>
      <trkpt lat="42.6687550" lon="-7.1060430">
        <ele>939.8</ele>
        <time>2014-10-02T14:24:05Z</time>
      </trkpt>
      <trkpt lat="42.6687310" lon="-7.1059880">
        <ele>940.1</ele>
        <time>2014-10-02T14:24:07Z</time>
      </trkpt>
      <trkpt lat="42.6687080" lon="-7.1059270">
        <ele>940.5</ele>
        <time>2014-10-02T14:24:09Z</time>
      </trkpt>
      <trkpt lat="42.6686810" lon="-7.1058660">
        <ele>940.9</ele>
        <time>2014-10-02T14:24:11Z</time>
      </trkpt>
      <trkpt lat="42.6686580" lon="-7.1058170">
        <ele>941.2</ele>
        <time>2014-10-02T14:24:13Z</time>
      </trkpt>
      <trkpt lat="42.6686270" lon="-7.1057730">
        <ele>941.6</ele>
        <time>2014-10-02T14:24:15Z</time>
      </trkpt>
      <trkpt lat="42.6685930" lon="-7.1057130">
        <ele>942.0</ele>
        <time>2014-10-02T14:24:17Z</time>
      </trkpt>
      <trkpt lat="42.6685720" lon="-7.1056730">
        <ele>942.2</ele>
        <time>2014-10-02T14:24:18Z</time>
      </trkpt>
      <trkpt lat="42.6685560" lon="-7.1056420">
        <ele>942.4</ele>
        <time>2014-10-02T14:24:19Z</time>
      </trkpt>
      <trkpt lat="42.6685250" lon="-7.1055840">
        <ele>942.7</ele>
        <time>2014-10-02T14:24:21Z</time>
      </trkpt>
      <trkpt lat="42.6684990" lon="-7.1055320">
        <ele>942.9</ele>
        <time>2014-10-02T14:24:23Z</time>
      </trkpt>
      <trkpt lat="42.6684700" lon="-7.1054750">
        <ele>943.1</ele>
        <time>2014-10-02T14:24:25Z</time>
      </trkpt>
      <trkpt lat="42.6684410" lon="-7.1054190">
        <ele>943.4</ele>
        <time>2014-10-02T14:24:27Z</time>
      </trkpt>
      <trkpt lat="42.6684250" lon="-7.1053900">
        <ele>943.5</ele>
        <time>2014-10-02T14:24:28Z</time>
      </trkpt>
      <trkpt lat="42.6683980" lon="-7.1053350">
        <ele>943.8</ele>
        <time>2014-10-02T14:24:30Z</time>
      </trkpt>
      <trkpt lat="42.6683720" lon="-7.1052870">
        <ele>944.1</ele>
        <time>2014-10-02T14:24:32Z</time>
      </trkpt>
      <trkpt lat="42.6683440" lon="-7.1052260">
        <ele>944.4</ele>
        <time>2014-10-02T14:24:34Z</time>
      </trkpt>
      <trkpt lat="42.6683160" lon="-7.1051620">
        <ele>944.8</ele>
        <time>2014-10-02T14:24:36Z</time>
      </trkpt>
      <trkpt lat="42.6682940" lon="-7.1051250">
        <ele>945.0</ele>
        <time>2014-10-02T14:24:37Z</time>
      </trkpt>
      <trkpt lat="42.6682740" lon="-7.1050960">
        <ele>945.1</ele>
        <time>2014-10-02T14:24:38Z</time>
      </trkpt>
      <trkpt lat="42.6682470" lon="-7.1050380">
        <ele>945.4</ele>
        <time>2014-10-02T14:24:40Z</time>
      </trkpt>
      <trkpt lat="42.6682200" lon="-7.1049860">
        <ele>945.6</ele>
        <time>2014-10-02T14:24:42Z</time>
      </trkpt>
      <trkpt lat="42.6681880" lon="-7.1049320">
        <ele>945.9</ele>
        <time>2014-10-02T14:24:44Z</time>
      </trkpt>
      <trkpt lat="42.6681640" lon="-7.1048730">
        <ele>946.3</ele>
        <time>2014-10-02T14:24:46Z</time>
      </trkpt>
      <trkpt lat="42.6681450" lon="-7.1048060">
        <ele>946.6</ele>
        <time>2014-10-02T14:24:48Z</time>
      </trkpt>
      <trkpt lat="42.6681320" lon="-7.1047720">
        <ele>946.9</ele>
        <time>2014-10-02T14:24:49Z</time>
      </trkpt>
      <trkpt lat="42.6681150" lon="-7.1047260">
        <ele>947.1</ele>
        <time>2014-10-02T14:24:51Z</time>
      </trkpt>
      <trkpt lat="42.6681040" lon="-7.1046670">
        <ele>947.4</ele>
        <time>2014-10-02T14:24:53Z</time>
      </trkpt>
      <trkpt lat="42.6680900" lon="-7.1046100">
        <ele>947.7</ele>
        <time>2014-10-02T14:24:55Z</time>
      </trkpt>
      <trkpt lat="42.6680780" lon="-7.1045540">
        <ele>948.0</ele>
        <time>2014-10-02T14:24:57Z</time>
      </trkpt>
      <trkpt lat="42.6680670" lon="-7.1044990">
        <ele>948.2</ele>
        <time>2014-10-02T14:24:59Z</time>
      </trkpt>
      <trkpt lat="42.6680510" lon="-7.1044380">
        <ele>948.5</ele>
        <time>2014-10-02T14:25:01Z</time>
      </trkpt>
      <trkpt lat="42.6680350" lon="-7.1043740">
        <ele>948.9</ele>
        <time>2014-10-02T14:25:03Z</time>
      </trkpt>
      <trkpt lat="42.6680170" lon="-7.1043200">
        <ele>949.2</ele>
        <time>2014-10-02T14:25:05Z</time>
      </trkpt>
      <trkpt lat="42.6679960" lon="-7.1042630">
        <ele>949.5</ele>
        <time>2014-10-02T14:25:07Z</time>
      </trkpt>
      <trkpt lat="42.6679710" lon="-7.1042010">
        <ele>949.9</ele>
        <time>2014-10-02T14:25:09Z</time>
      </trkpt>
      <trkpt lat="42.6679580" lon="-7.1041670">
        <ele>950.1</ele>
        <time>2014-10-02T14:25:10Z</time>
      </trkpt>
      <trkpt lat="42.6679320" lon="-7.1041070">
        <ele>950.4</ele>
        <time>2014-10-02T14:25:12Z</time>
      </trkpt>
      <trkpt lat="42.6679180" lon="-7.1040720">
        <ele>950.7</ele>
        <time>2014-10-02T14:25:13Z</time>
      </trkpt>
      <trkpt lat="42.6678940" lon="-7.1040070">
        <ele>951.1</ele>
        <time>2014-10-02T14:25:15Z</time>
      </trkpt>
      <trkpt lat="42.6678740" lon="-7.1039440">
        <ele>951.4</ele>
        <time>2014-10-02T14:25:17Z</time>
      </trkpt>
      <trkpt lat="42.6678590" lon="-7.1038850">
        <ele>951.8</ele>
        <time>2014-10-02T14:25:19Z</time>
      </trkpt>
      <trkpt lat="42.6678410" lon="-7.1038340">
        <ele>952.1</ele>
        <time>2014-10-02T14:25:21Z</time>
      </trkpt>
      <trkpt lat="42.6678200" lon="-7.1037760">
        <ele>952.4</ele>
        <time>2014-10-02T14:25:23Z</time>
      </trkpt>
      <trkpt lat="42.6678080" lon="-7.1037420">
        <ele>952.6</ele>
        <time>2014-10-02T14:25:24Z</time>
      </trkpt>
      <trkpt lat="42.6677890" lon="-7.1036870">
        <ele>952.9</ele>
        <time>2014-10-02T14:25:26Z</time>
      </trkpt>
      <trkpt lat="42.6677720" lon="-7.1036120">
        <ele>953.3</ele>
        <time>2014-10-02T14:25:28Z</time>
      </trkpt>
      <trkpt lat="42.6677610" lon="-7.1035420">
        <ele>953.7</ele>
        <time>2014-10-02T14:25:30Z</time>
      </trkpt>
      <trkpt lat="42.6677610" lon="-7.1034900">
        <ele>954.0</ele>
        <time>2014-10-02T14:25:32Z</time>
      </trkpt>
      <trkpt lat="42.6677640" lon="-7.1034190">
        <ele>954.4</ele>
        <time>2014-10-02T14:25:34Z</time>
      </trkpt>
      <trkpt lat="42.6677670" lon="-7.1033820">
        <ele>954.6</ele>
        <time>2014-10-02T14:25:35Z</time>
      </trkpt>
      <trkpt lat="42.6677720" lon="-7.1033460">
        <ele>954.8</ele>
        <time>2014-10-02T14:25:36Z</time>
      </trkpt>
      <trkpt lat="42.6677780" lon="-7.1033100">
        <ele>955.0</ele>
        <time>2014-10-02T14:25:37Z</time>
      </trkpt>
      <trkpt lat="42.6677990" lon="-7.1032460">
        <ele>955.4</ele>
        <time>2014-10-02T14:25:39Z</time>
      </trkpt>
      <trkpt lat="42.6678250" lon="-7.1031790">
        <ele>955.8</ele>
        <time>2014-10-02T14:25:41Z</time>
      </trkpt>
      <trkpt lat="42.6678420" lon="-7.1031450">
        <ele>956.0</ele>
        <time>2014-10-02T14:25:42Z</time>
      </trkpt>
      <trkpt lat="42.6678640" lon="-7.1031140">
        <ele>956.2</ele>
        <time>2014-10-02T14:25:43Z</time>
      </trkpt>
      <trkpt lat="42.6678860" lon="-7.1030860">
        <ele>956.4</ele>
        <time>2014-10-02T14:25:44Z</time>
      </trkpt>
      <trkpt lat="42.6679080" lon="-7.1030570">
        <ele>956.7</ele>
        <time>2014-10-02T14:25:45Z</time>
      </trkpt>
      <trkpt lat="42.6679320" lon="-7.1030280">
        <ele>956.9</ele>
        <time>2014-10-02T14:25:46Z</time>
      </trkpt>
      <trkpt lat="42.6679710" lon="-7.1029800">
        <ele>957.4</ele>
        <time>2014-10-02T14:25:48Z</time>
      </trkpt>
      <trkpt lat="42.6679960" lon="-7.1029550">
        <ele>957.7</ele>
        <time>2014-10-02T14:25:49Z</time>
      </trkpt>
      <trkpt lat="42.6680430" lon="-7.1029200">
        <ele>958.1</ele>
        <time>2014-10-02T14:25:51Z</time>
      </trkpt>
      <trkpt lat="42.6680680" lon="-7.1029050">
        <ele>958.3</ele>
        <time>2014-10-02T14:25:52Z</time>
      </trkpt>
      <trkpt lat="42.6680990" lon="-7.1028830">
        <ele>958.4</ele>
        <time>2014-10-02T14:25:53Z</time>
      </trkpt>
      <trkpt lat="42.6681300" lon="-7.1028650">
        <ele>958.6</ele>
        <time>2014-10-02T14:25:54Z</time>
      </trkpt>
      <trkpt lat="42.6681590" lon="-7.1028480">
        <ele>958.7</ele>
        <time>2014-10-02T14:25:55Z</time>
      </trkpt>
      <trkpt lat="42.6681870" lon="-7.1028290">
        <ele>958.8</ele>
        <time>2014-10-02T14:25:56Z</time>
      </trkpt>
      <trkpt lat="42.6682150" lon="-7.1028130">
        <ele>958.9</ele>
        <time>2014-10-02T14:25:57Z</time>
      </trkpt>
      <trkpt lat="42.6682440" lon="-7.1027920">
        <ele>959.0</ele>
        <time>2014-10-02T14:25:58Z</time>
      </trkpt>
      <trkpt lat="42.6682760" lon="-7.1027680">
        <ele>959.1</ele>
        <time>2014-10-02T14:25:59Z</time>
      </trkpt>
      <trkpt lat="42.6683080" lon="-7.1027420">
        <ele>959.2</ele>
        <time>2014-10-02T14:26:00Z</time>
      </trkpt>
      <trkpt lat="42.6683380" lon="-7.1027100">
        <ele>959.3</ele>
        <time>2014-10-02T14:26:01Z</time>
      </trkpt>
      <trkpt lat="42.6683660" lon="-7.1026740">
        <ele>959.5</ele>
        <time>2014-10-02T14:26:02Z</time>
      </trkpt>
      <trkpt lat="42.6683880" lon="-7.1026420">
        <ele>959.6</ele>
        <time>2014-10-02T14:26:03Z</time>
      </trkpt>
      <trkpt lat="42.6684090" lon="-7.1026040">
        <ele>959.8</ele>
        <time>2014-10-02T14:26:04Z</time>
      </trkpt>
      <trkpt lat="42.6684240" lon="-7.1025740">
        <ele>959.9</ele>
        <time>2014-10-02T14:26:05Z</time>
      </trkpt>
      <trkpt lat="42.6684520" lon="-7.1025130">
        <ele>960.2</ele>
        <time>2014-10-02T14:26:07Z</time>
      </trkpt>
      <trkpt lat="42.6684780" lon="-7.1024480">
        <ele>960.6</ele>
        <time>2014-10-02T14:26:09Z</time>
      </trkpt>
      <trkpt lat="42.6684920" lon="-7.1024130">
        <ele>960.8</ele>
        <time>2014-10-02T14:26:10Z</time>
      </trkpt>
      <trkpt lat="42.6685030" lon="-7.1023480">
        <ele>961.3</ele>
        <time>2014-10-02T14:26:12Z</time>
      </trkpt>
      <trkpt lat="42.6685300" lon="-7.1022960">
        <ele>961.7</ele>
        <time>2014-10-02T14:26:14Z</time>
      </trkpt>
      <trkpt lat="42.6685570" lon="-7.1022330">
        <ele>962.3</ele>
        <time>2014-10-02T14:26:16Z</time>
      </trkpt>
      <trkpt lat="42.6685900" lon="-7.1021870">
        <ele>962.7</ele>
        <time>2014-10-02T14:26:18Z</time>
      </trkpt>
      <trkpt lat="42.6686340" lon="-7.1021370">
        <ele>963.1</ele>
        <time>2014-10-02T14:26:20Z</time>
      </trkpt>
      <trkpt lat="42.6686590" lon="-7.1021120">
        <ele>963.3</ele>
        <time>2014-10-02T14:26:21Z</time>
      </trkpt>
      <trkpt lat="42.6687020" lon="-7.1020640">
        <ele>963.7</ele>
        <time>2014-10-02T14:26:23Z</time>
      </trkpt>
      <trkpt lat="42.6687350" lon="-7.1020220">
        <ele>963.9</ele>
        <time>2014-10-02T14:26:25Z</time>
      </trkpt>
      <trkpt lat="42.6687570" lon="-7.1020000">
        <ele>964.1</ele>
        <time>2014-10-02T14:26:26Z</time>
      </trkpt>
      <trkpt lat="42.6687810" lon="-7.1019780">
        <ele>964.3</ele>
        <time>2014-10-02T14:26:27Z</time>
      </trkpt>
      <trkpt lat="42.6688050" lon="-7.1019570">
        <ele>964.4</ele>
        <time>2014-10-02T14:26:28Z</time>
      </trkpt>
      <trkpt lat="42.6688420" lon="-7.1019220">
        <ele>964.7</ele>
        <time>2014-10-02T14:26:30Z</time>
      </trkpt>
      <trkpt lat="42.6688740" lon="-7.1018860">
        <ele>964.9</ele>
        <time>2014-10-02T14:26:32Z</time>
      </trkpt>
      <trkpt lat="42.6689180" lon="-7.1018440">
        <ele>965.2</ele>
        <time>2014-10-02T14:26:34Z</time>
      </trkpt>
      <trkpt lat="42.6689590" lon="-7.1018070">
        <ele>965.4</ele>
        <time>2014-10-02T14:26:36Z</time>
      </trkpt>
      <trkpt lat="42.6690010" lon="-7.1017780">
        <ele>965.7</ele>
        <time>2014-10-02T14:26:38Z</time>
      </trkpt>
      <trkpt lat="42.6690480" lon="-7.1017450">
        <ele>966.0</ele>
        <time>2014-10-02T14:26:40Z</time>
      </trkpt>
      <trkpt lat="42.6690970" lon="-7.1017230">
        <ele>966.3</ele>
        <time>2014-10-02T14:26:42Z</time>
      </trkpt>
      <trkpt lat="42.6691240" lon="-7.1017150">
        <ele>966.5</ele>
        <time>2014-10-02T14:26:43Z</time>
      </trkpt>
      <trkpt lat="42.6691720" lon="-7.1017110">
        <ele>966.8</ele>
        <time>2014-10-02T14:26:45Z</time>
      </trkpt>
      <trkpt lat="42.6692190" lon="-7.1017300">
        <ele>967.2</ele>
        <time>2014-10-02T14:26:47Z</time>
      </trkpt>
      <trkpt lat="42.6692550" lon="-7.1017700">
        <ele>967.6</ele>
        <time>2014-10-02T14:26:49Z</time>
      </trkpt>
      <trkpt lat="42.6692860" lon="-7.1018220">
        <ele>968.0</ele>
        <time>2014-10-02T14:26:51Z</time>
      </trkpt>
      <trkpt lat="42.6693040" lon="-7.1018750">
        <ele>968.4</ele>
        <time>2014-10-02T14:26:53Z</time>
      </trkpt>
      <trkpt lat="42.6693230" lon="-7.1019290">
        <ele>968.7</ele>
        <time>2014-10-02T14:26:56Z</time>
      </trkpt>
      <trkpt lat="42.6693430" lon="-7.1019740">
        <ele>969.0</ele>
        <time>2014-10-02T14:26:58Z</time>
      </trkpt>
      <trkpt lat="42.6693640" lon="-7.1020220">
        <ele>969.4</ele>
        <time>2014-10-02T14:27:00Z</time>
      </trkpt>
      <trkpt lat="42.6693830" lon="-7.1020720">
        <ele>969.7</ele>
        <time>2014-10-02T14:27:02Z</time>
      </trkpt>
      <trkpt lat="42.6694000" lon="-7.1021070">
        <ele>969.9</ele>
        <time>2014-10-02T14:27:04Z</time>
      </trkpt>
      <trkpt lat="42.6694180" lon="-7.1021360">
        <ele>970.1</ele>
        <time>2014-10-02T14:27:07Z</time>
      </trkpt>
      <trkpt lat="42.6694430" lon="-7.1021660">
        <ele>970.3</ele>
        <time>2014-10-02T14:27:09Z</time>
      </trkpt>
      <trkpt lat="42.6694690" lon="-7.1021990">
        <ele>970.5</ele>
        <time>2014-10-02T14:27:11Z</time>
      </trkpt>
      <trkpt lat="42.6694920" lon="-7.1022250">
        <ele>970.7</ele>
        <time>2014-10-02T14:27:13Z</time>
      </trkpt>
      <trkpt lat="42.6695160" lon="-7.1022540">
        <ele>970.9</ele>
        <time>2014-10-02T14:27:15Z</time>
      </trkpt>
      <trkpt lat="42.6695430" lon="-7.1022850">
        <ele>971.2</ele>
        <time>2014-10-02T14:27:17Z</time>
      </trkpt>
      <trkpt lat="42.6695730" lon="-7.1023200">
        <ele>971.5</ele>
        <time>2014-10-02T14:27:19Z</time>
      </trkpt>
      <trkpt lat="42.6696060" lon="-7.1023600">
        <ele>971.9</ele>
        <time>2014-10-02T14:27:21Z</time>
      </trkpt>
      <trkpt lat="42.6696230" lon="-7.1023970">
        <ele>972.3</ele>
        <time>2014-10-02T14:27:23Z</time>
      </trkpt>
      <trkpt lat="42.6696390" lon="-7.1024360">
        <ele>972.6</ele>
        <time>2014-10-02T14:27:25Z</time>
      </trkpt>
      <trkpt lat="42.6696640" lon="-7.1024960">
        <ele>973.2</ele>
        <time>2014-10-02T14:27:27Z</time>
      </trkpt>
      <trkpt lat="42.6696740" lon="-7.1025550">
        <ele>973.7</ele>
        <time>2014-10-02T14:27:29Z</time>
      </trkpt>
      <trkpt lat="42.6696720" lon="-7.1026010">
        <ele>974.0</ele>
        <time>2014-10-02T14:27:31Z</time>
      </trkpt>
      <trkpt lat="42.6696680" lon="-7.1026450">
        <ele>974.3</ele>
        <time>2014-10-02T14:27:33Z</time>
      </trkpt>
      <trkpt lat="42.6696540" lon="-7.1026830">
        <ele>974.6</ele>
        <time>2014-10-02T14:27:35Z</time>
      </trkpt>
      <trkpt lat="42.6696310" lon="-7.1027170">
        <ele>974.9</ele>
        <time>2014-10-02T14:27:37Z</time>
      </trkpt>
      <trkpt lat="42.6695980" lon="-7.1027470">
        <ele>975.3</ele>
        <time>2014-10-02T14:27:39Z</time>
      </trkpt>
      <trkpt lat="42.6695610" lon="-7.1027930">
        <ele>975.8</ele>
        <time>2014-10-02T14:27:41Z</time>
      </trkpt>
      <trkpt lat="42.6695400" lon="-7.1028170">
        <ele>976.0</ele>
        <time>2014-10-02T14:27:42Z</time>
      </trkpt>
      <trkpt lat="42.6695040" lon="-7.1028640">
        <ele>976.3</ele>
        <time>2014-10-02T14:27:44Z</time>
      </trkpt>
      <trkpt lat="42.6694680" lon="-7.1029140">
        <ele>976.6</ele>
        <time>2014-10-02T14:27:46Z</time>
      </trkpt>
      <trkpt lat="42.6694430" lon="-7.1029370">
        <ele>976.7</ele>
        <time>2014-10-02T14:27:47Z</time>
      </trkpt>
      <trkpt lat="42.6694220" lon="-7.1029610">
        <ele>976.8</ele>
        <time>2014-10-02T14:27:48Z</time>
      </trkpt>
      <trkpt lat="42.6693950" lon="-7.1029900">
        <ele>976.9</ele>
        <time>2014-10-02T14:27:49Z</time>
      </trkpt>
      <trkpt lat="42.6693690" lon="-7.1030150">
        <ele>977.1</ele>
        <time>2014-10-02T14:27:50Z</time>
      </trkpt>
      <trkpt lat="42.6693410" lon="-7.1030460">
        <ele>977.2</ele>
        <time>2014-10-02T14:27:51Z</time>
      </trkpt>
      <trkpt lat="42.6693190" lon="-7.1030750">
        <ele>977.3</ele>
        <time>2014-10-02T14:27:52Z</time>
      </trkpt>
      <trkpt lat="42.6693030" lon="-7.1031120">
        <ele>977.4</ele>
        <time>2014-10-02T14:27:53Z</time>
      </trkpt>
      <trkpt lat="42.6692920" lon="-7.1031510">
        <ele>977.6</ele>
        <time>2014-10-02T14:27:54Z</time>
      </trkpt>
      <trkpt lat="42.6692910" lon="-7.1031910">
        <ele>977.7</ele>
        <time>2014-10-02T14:27:55Z</time>
      </trkpt>
      <trkpt lat="42.6693120" lon="-7.1032500">
        <ele>977.8</ele>
        <time>2014-10-02T14:27:57Z</time>
      </trkpt>
      <trkpt lat="42.6693570" lon="-7.1032580">
        <ele>978.0</ele>
        <time>2014-10-02T14:28:00Z</time>
      </trkpt>
      <trkpt lat="42.6693990" lon="-7.1032380">
        <ele>978.2</ele>
        <time>2014-10-02T14:28:02Z</time>
      </trkpt>
      <trkpt lat="42.6694240" lon="-7.1032200">
        <ele>978.4</ele>
        <time>2014-10-02T14:28:03Z</time>
      </trkpt>
      <trkpt lat="42.6694510" lon="-7.1031990">
        <ele>978.5</ele>
        <time>2014-10-02T14:28:04Z</time>
      </trkpt>
      <trkpt lat="42.6694800" lon="-7.1031830">
        <ele>978.7</ele>
        <time>2014-10-02T14:28:05Z</time>
      </trkpt>
      <trkpt lat="42.6695200" lon="-7.1031630">
        <ele>979.0</ele>
        <time>2014-10-02T14:28:06Z</time>
      </trkpt>
      <trkpt lat="42.6695610" lon="-7.1031410">
        <ele>979.2</ele>
        <time>2014-10-02T14:28:07Z</time>
      </trkpt>
      <trkpt lat="42.6695930" lon="-7.1031250">
        <ele>979.4</ele>
        <time>2014-10-02T14:28:08Z</time>
      </trkpt>
      <trkpt lat="42.6696200" lon="-7.1031130">
        <ele>979.6</ele>
        <time>2014-10-02T14:28:09Z</time>
      </trkpt>
      <trkpt lat="42.6696510" lon="-7.1031020">
        <ele>979.7</ele>
        <time>2014-10-02T14:28:10Z</time>
      </trkpt>
      <trkpt lat="42.6697000" lon="-7.1030640">
        <ele>980.0</ele>
        <time>2014-10-02T14:28:12Z</time>
      </trkpt>
      <trkpt lat="42.6697290" lon="-7.1030430">
        <ele>980.1</ele>
        <time>2014-10-02T14:28:13Z</time>
      </trkpt>
      <trkpt lat="42.6697590" lon="-7.1030180">
        <ele>980.3</ele>
        <time>2014-10-02T14:28:14Z</time>
      </trkpt>
      <trkpt lat="42.6697880" lon="-7.1029930">
        <ele>980.4</ele>
        <time>2014-10-02T14:28:15Z</time>
      </trkpt>
      <trkpt lat="42.6698140" lon="-7.1029710">
        <ele>980.5</ele>
        <time>2014-10-02T14:28:16Z</time>
      </trkpt>
      <trkpt lat="42.6698400" lon="-7.1029530">
        <ele>980.6</ele>
        <time>2014-10-02T14:28:17Z</time>
      </trkpt>
      <trkpt lat="42.6698670" lon="-7.1029330">
        <ele>980.7</ele>
        <time>2014-10-02T14:28:18Z</time>
      </trkpt>
      <trkpt lat="42.6698980" lon="-7.1029130">
        <ele>980.8</ele>
        <time>2014-10-02T14:28:19Z</time>
      </trkpt>
      <trkpt lat="42.6699240" lon="-7.1028940">
        <ele>980.9</ele>
        <time>2014-10-02T14:28:20Z</time>
      </trkpt>
      <trkpt lat="42.6699520" lon="-7.1028720">
        <ele>980.9</ele>
        <time>2014-10-02T14:28:21Z</time>
      </trkpt>
      <trkpt lat="42.6699780" lon="-7.1028520">
        <ele>981.0</ele>
        <time>2014-10-02T14:28:22Z</time>
      </trkpt>
      <trkpt lat="42.6700050" lon="-7.1028370">
        <ele>981.1</ele>
        <time>2014-10-02T14:28:23Z</time>
      </trkpt>
      <trkpt lat="42.6700570" lon="-7.1028040">
        <ele>981.2</ele>
        <time>2014-10-02T14:28:25Z</time>
      </trkpt>
      <trkpt lat="42.6700860" lon="-7.1027830">
        <ele>981.4</ele>
        <time>2014-10-02T14:28:26Z</time>
      </trkpt>
      <trkpt lat="42.6701150" lon="-7.1027690">
        <ele>981.5</ele>
        <time>2014-10-02T14:28:27Z</time>
      </trkpt>
      <trkpt lat="42.6701590" lon="-7.1027440">
        <ele>981.7</ele>
        <time>2014-10-02T14:28:29Z</time>
      </trkpt>
      <trkpt lat="42.6702010" lon="-7.1027290">
        <ele>981.9</ele>
        <time>2014-10-02T14:28:31Z</time>
      </trkpt>
      <trkpt lat="42.6702490" lon="-7.1027100">
        <ele>982.1</ele>
        <time>2014-10-02T14:28:33Z</time>
      </trkpt>
      <trkpt lat="42.6702940" lon="-7.1026830">
        <ele>982.4</ele>
        <time>2014-10-02T14:28:35Z</time>
      </trkpt>
      <trkpt lat="42.6703320" lon="-7.1026500">
        <ele>982.6</ele>
        <time>2014-10-02T14:28:37Z</time>
      </trkpt>
      <trkpt lat="42.6703630" lon="-7.1026280">
        <ele>982.7</ele>
        <time>2014-10-02T14:28:38Z</time>
      </trkpt>
      <trkpt lat="42.6703950" lon="-7.1026030">
        <ele>982.8</ele>
        <time>2014-10-02T14:28:39Z</time>
      </trkpt>
      <trkpt lat="42.6704290" lon="-7.1025760">
        <ele>982.9</ele>
        <time>2014-10-02T14:28:40Z</time>
      </trkpt>
      <trkpt lat="42.6704600" lon="-7.1025520">
        <ele>983.0</ele>
        <time>2014-10-02T14:28:41Z</time>
      </trkpt>
      <trkpt lat="42.6704840" lon="-7.1025270">
        <ele>983.2</ele>
        <time>2014-10-02T14:28:42Z</time>
      </trkpt>
      <trkpt lat="42.6705080" lon="-7.1024980">
        <ele>983.4</ele>
        <time>2014-10-02T14:28:43Z</time>
      </trkpt>
      <trkpt lat="42.6705300" lon="-7.1024720">
        <ele>983.5</ele>
        <time>2014-10-02T14:28:44Z</time>
      </trkpt>
      <trkpt lat="42.6705480" lon="-7.1024430">
        <ele>983.7</ele>
        <time>2014-10-02T14:28:45Z</time>
      </trkpt>
      <trkpt lat="42.6705680" lon="-7.1024130">
        <ele>983.9</ele>
        <time>2014-10-02T14:28:46Z</time>
      </trkpt>
      <trkpt lat="42.6705890" lon="-7.1023630">
        <ele>984.3</ele>
        <time>2014-10-02T14:28:48Z</time>
      </trkpt>
      <trkpt lat="42.6706030" lon="-7.1023210">
        <ele>984.6</ele>
        <time>2014-10-02T14:28:50Z</time>
      </trkpt>
      <trkpt lat="42.6706090" lon="-7.1022770">
        <ele>984.9</ele>
        <time>2014-10-02T14:28:52Z</time>
      </trkpt>
      <trkpt lat="42.6706160" lon="-7.1022250">
        <ele>985.3</ele>
        <time>2014-10-02T14:28:54Z</time>
      </trkpt>
      <trkpt lat="42.6706250" lon="-7.1021670">
        <ele>985.7</ele>
        <time>2014-10-02T14:28:56Z</time>
      </trkpt>
      <trkpt lat="42.6706370" lon="-7.1021040">
        <ele>986.2</ele>
        <time>2014-10-02T14:28:58Z</time>
      </trkpt>
      <trkpt lat="42.6706520" lon="-7.1020450">
        <ele>986.6</ele>
        <time>2014-10-02T14:29:00Z</time>
      </trkpt>
      <trkpt lat="42.6706690" lon="-7.1019920">
        <ele>986.9</ele>
        <time>2014-10-02T14:29:02Z</time>
      </trkpt>
      <trkpt lat="42.6706910" lon="-7.1019370">
        <ele>987.2</ele>
        <time>2014-10-02T14:29:04Z</time>
      </trkpt>
      <trkpt lat="42.6707050" lon="-7.1019040">
        <ele>987.5</ele>
        <time>2014-10-02T14:29:05Z</time>
      </trkpt>
      <trkpt lat="42.6707260" lon="-7.1018720">
        <ele>987.7</ele>
        <time>2014-10-02T14:29:06Z</time>
      </trkpt>
      <trkpt lat="42.6707620" lon="-7.1018300">
        <ele>988.3</ele>
        <time>2014-10-02T14:29:08Z</time>
      </trkpt>
      <trkpt lat="42.6708080" lon="-7.1017850">
        <ele>989.2</ele>
        <time>2014-10-02T14:29:10Z</time>
      </trkpt>
      <trkpt lat="42.6708360" lon="-7.1017650">
        <ele>989.7</ele>
        <time>2014-10-02T14:29:11Z</time>
      </trkpt>
      <trkpt lat="42.6708750" lon="-7.1017320">
        <ele>990.4</ele>
        <time>2014-10-02T14:29:13Z</time>
      </trkpt>
      <trkpt lat="42.6709090" lon="-7.1016990">
        <ele>991.0</ele>
        <time>2014-10-02T14:29:15Z</time>
      </trkpt>
      <trkpt lat="42.6709350" lon="-7.1016770">
        <ele>991.4</ele>
        <time>2014-10-02T14:29:17Z</time>
      </trkpt>
      <trkpt lat="42.6709720" lon="-7.1016460">
        <ele>991.9</ele>
        <time>2014-10-02T14:29:19Z</time>
      </trkpt>
      <trkpt lat="42.6710140" lon="-7.1016070">
        <ele>992.5</ele>
        <time>2014-10-02T14:29:21Z</time>
      </trkpt>
      <trkpt lat="42.6710540" lon="-7.1015800">
        <ele>992.9</ele>
        <time>2014-10-02T14:29:23Z</time>
      </trkpt>
      <trkpt lat="42.6710960" lon="-7.1015500">
        <ele>993.4</ele>
        <time>2014-10-02T14:29:25Z</time>
      </trkpt>
      <trkpt lat="42.6711390" lon="-7.1015230">
        <ele>993.7</ele>
        <time>2014-10-02T14:29:27Z</time>
      </trkpt>
      <trkpt lat="42.6711800" lon="-7.1015010">
        <ele>994.0</ele>
        <time>2014-10-02T14:29:29Z</time>
      </trkpt>
      <trkpt lat="42.6712230" lon="-7.1014690">
        <ele>994.3</ele>
        <time>2014-10-02T14:29:31Z</time>
      </trkpt>
      <trkpt lat="42.6712600" lon="-7.1014320">
        <ele>994.6</ele>
        <time>2014-10-02T14:29:33Z</time>
      </trkpt>
      <trkpt lat="42.6712860" lon="-7.1014050">
        <ele>995.3</ele>
        <time>2014-10-02T14:29:35Z</time>
      </trkpt>
      <trkpt lat="42.6713120" lon="-7.1013680">
        <ele>996.0</ele>
        <time>2014-10-02T14:29:38Z</time>
      </trkpt>
      <trkpt lat="42.6713340" lon="-7.1013340">
        <ele>996.6</ele>
        <time>2014-10-02T14:29:40Z</time>
      </trkpt>
      <trkpt lat="42.6713620" lon="-7.1013050">
        <ele>997.3</ele>
        <time>2014-10-02T14:29:42Z</time>
      </trkpt>
      <trkpt lat="42.6713970" lon="-7.1012780">
        <ele>998.0</ele>
        <time>2014-10-02T14:29:44Z</time>
      </trkpt>
      <trkpt lat="42.6714320" lon="-7.1012490">
        <ele>998.7</ele>
        <time>2014-10-02T14:29:46Z</time>
      </trkpt>
      <trkpt lat="42.6714690" lon="-7.1012180">
        <ele>999.5</ele>
        <time>2014-10-02T14:29:48Z</time>
      </trkpt>
      <trkpt lat="42.6715120" lon="-7.1012110">
        <ele>1000.3</ele>
        <time>2014-10-02T14:29:50Z</time>
      </trkpt>
      <trkpt lat="42.6715510" lon="-7.1012230">
        <ele>1001.0</ele>
        <time>2014-10-02T14:29:52Z</time>
      </trkpt>
      <trkpt lat="42.6715820" lon="-7.1012440">
        <ele>1001.6</ele>
        <time>2014-10-02T14:29:54Z</time>
      </trkpt>
      <trkpt lat="42.6716100" lon="-7.1012860">
        <ele>1002.3</ele>
        <time>2014-10-02T14:29:56Z</time>
      </trkpt>
      <trkpt lat="42.6716470" lon="-7.1013420">
        <ele>1003.2</ele>
        <time>2014-10-02T14:29:58Z</time>
      </trkpt>
      <trkpt lat="42.6716660" lon="-7.1013700">
        <ele>1003.7</ele>
        <time>2014-10-02T14:29:59Z</time>
      </trkpt>
      <trkpt lat="42.6716840" lon="-7.1014040">
        <ele>1004.1</ele>
        <time>2014-10-02T14:30:00Z</time>
      </trkpt>
      <trkpt lat="42.6717000" lon="-7.1014370">
        <ele>1004.6</ele>
        <time>2014-10-02T14:30:01Z</time>
      </trkpt>
      <trkpt lat="42.6717130" lon="-7.1014700">
        <ele>1005.0</ele>
        <time>2014-10-02T14:30:02Z</time>
      </trkpt>
      <trkpt lat="42.6717260" lon="-7.1015030">
        <ele>1005.4</ele>
        <time>2014-10-02T14:30:03Z</time>
      </trkpt>
      <trkpt lat="42.6717350" lon="-7.1015700">
        <ele>1006.2</ele>
        <time>2014-10-02T14:30:05Z</time>
      </trkpt>
      <trkpt lat="42.6717320" lon="-7.1016310">
        <ele>1007.0</ele>
        <time>2014-10-02T14:30:07Z</time>
      </trkpt>
      <trkpt lat="42.6717510" lon="-7.1017000">
        <ele>1007.9</ele>
        <time>2014-10-02T14:30:09Z</time>
      </trkpt>
      <trkpt lat="42.6717650" lon="-7.1017320">
        <ele>1008.3</ele>
        <time>2014-10-02T14:30:10Z</time>
      </trkpt>
      <trkpt lat="42.6717790" lon="-7.1017850">
        <ele>1009.0</ele>
        <time>2014-10-02T14:30:12Z</time>
      </trkpt>
      <trkpt lat="42.6717890" lon="-7.1018190">
        <ele>1009.5</ele>
        <time>2014-10-02T14:30:13Z</time>
      </trkpt>
      <trkpt lat="42.6718050" lon="-7.1018500">
        <ele>1009.9</ele>
        <time>2014-10-02T14:30:14Z</time>
      </trkpt>
      <trkpt lat="42.6718170" lon="-7.1018830">
        <ele>1010.4</ele>
        <time>2014-10-02T14:30:15Z</time>
      </trkpt>
      <trkpt lat="42.6718290" lon="-7.1019190">
        <ele>1010.9</ele>
        <time>2014-10-02T14:30:16Z</time>
      </trkpt>
      <trkpt lat="42.6718450" lon="-7.1019580">
        <ele>1011.4</ele>
        <time>2014-10-02T14:30:17Z</time>
      </trkpt>
      <trkpt lat="42.6718670" lon="-7.1019970">
        <ele>1011.9</ele>
        <time>2014-10-02T14:30:18Z</time>
      </trkpt>
      <trkpt lat="42.6718850" lon="-7.1020380">
        <ele>1012.5</ele>
        <time>2014-10-02T14:30:19Z</time>
      </trkpt>
      <trkpt lat="42.6718910" lon="-7.1020780">
        <ele>1013.0</ele>
        <time>2014-10-02T14:30:20Z</time>
      </trkpt>
      <trkpt lat="42.6718990" lon="-7.1021160">
        <ele>1013.4</ele>
        <time>2014-10-02T14:30:21Z</time>
      </trkpt>
      <trkpt lat="42.6719240" lon="-7.1021810">
        <ele>1014.2</ele>
        <time>2014-10-02T14:30:23Z</time>
      </trkpt>
      <trkpt lat="42.6719420" lon="-7.1022450">
        <ele>1015.0</ele>
        <time>2014-10-02T14:30:25Z</time>
      </trkpt>
      <trkpt lat="42.6719600" lon="-7.1022850">
        <ele>1015.5</ele>
        <time>2014-10-02T14:30:26Z</time>
      </trkpt>
      <trkpt lat="42.6719800" lon="-7.1023190">
        <ele>1015.9</ele>
        <time>2014-10-02T14:30:27Z</time>
      </trkpt>
      <trkpt lat="42.6720020" lon="-7.1023540">
        <ele>1016.4</ele>
        <time>2014-10-02T14:30:28Z</time>
      </trkpt>
      <trkpt lat="42.6720170" lon="-7.1023860">
        <ele>1016.9</ele>
        <time>2014-10-02T14:30:29Z</time>
      </trkpt>
      <trkpt lat="42.6720380" lon="-7.1024300">
        <ele>1017.4</ele>
        <time>2014-10-02T14:30:30Z</time>
      </trkpt>
      <trkpt lat="42.6720610" lon="-7.1024770">
        <ele>1018.0</ele>
        <time>2014-10-02T14:30:31Z</time>
      </trkpt>
      <trkpt lat="42.6720740" lon="-7.1025360">
        <ele>1018.7</ele>
        <time>2014-10-02T14:30:32Z</time>
      </trkpt>
      <trkpt lat="42.6720930" lon="-7.1025860">
        <ele>1019.2</ele>
        <time>2014-10-02T14:30:33Z</time>
      </trkpt>
      <trkpt lat="42.6721150" lon="-7.1026450">
        <ele>1019.9</ele>
        <time>2014-10-02T14:30:34Z</time>
      </trkpt>
      <trkpt lat="42.6721400" lon="-7.1026940">
        <ele>1020.5</ele>
        <time>2014-10-02T14:30:35Z</time>
      </trkpt>
      <trkpt lat="42.6721660" lon="-7.1027440">
        <ele>1021.1</ele>
        <time>2014-10-02T14:30:36Z</time>
      </trkpt>
      <trkpt lat="42.6721870" lon="-7.1027830">
        <ele>1021.5</ele>
        <time>2014-10-02T14:30:37Z</time>
      </trkpt>
      <trkpt lat="42.6722050" lon="-7.1028180">
        <ele>1021.9</ele>
        <time>2014-10-02T14:30:38Z</time>
      </trkpt>
      <trkpt lat="42.6722250" lon="-7.1028540">
        <ele>1022.4</ele>
        <time>2014-10-02T14:30:39Z</time>
      </trkpt>
      <trkpt lat="42.6722460" lon="-7.1028890">
        <ele>1022.8</ele>
        <time>2014-10-02T14:30:40Z</time>
      </trkpt>
      <trkpt lat="42.6722670" lon="-7.1029200">
        <ele>1023.3</ele>
        <time>2014-10-02T14:30:41Z</time>
      </trkpt>
      <trkpt lat="42.6722880" lon="-7.1029480">
        <ele>1023.7</ele>
        <time>2014-10-02T14:30:42Z</time>
      </trkpt>
      <trkpt lat="42.6723320" lon="-7.1029800">
        <ele>1024.4</ele>
        <time>2014-10-02T14:30:44Z</time>
      </trkpt>
      <trkpt lat="42.6723680" lon="-7.1029810">
        <ele>1024.9</ele>
        <time>2014-10-02T14:30:46Z</time>
      </trkpt>
      <trkpt lat="42.6724200" lon="-7.1029740">
        <ele>1025.7</ele>
        <time>2014-10-02T14:30:48Z</time>
      </trkpt>
      <trkpt lat="42.6724540" lon="-7.1029670">
        <ele>1026.3</ele>
        <time>2014-10-02T14:30:49Z</time>
      </trkpt>
      <trkpt lat="42.6724960" lon="-7.1029610">
        <ele>1026.9</ele>
        <time>2014-10-02T14:30:50Z</time>
      </trkpt>
      <trkpt lat="42.6725350" lon="-7.1029500">
        <ele>1027.6</ele>
        <time>2014-10-02T14:30:51Z</time>
      </trkpt>
      <trkpt lat="42.6725750" lon="-7.1029410">
        <ele>1028.2</ele>
        <time>2014-10-02T14:30:52Z</time>
      </trkpt>
      <trkpt lat="42.6726020" lon="-7.1029260">
        <ele>1028.7</ele>
        <time>2014-10-02T14:30:53Z</time>
      </trkpt>
      <trkpt lat="42.6726360" lon="-7.1029130">
        <ele>1029.3</ele>
        <time>2014-10-02T14:30:54Z</time>
      </trkpt>
      <trkpt lat="42.6726670" lon="-7.1029000">
        <ele>1029.8</ele>
        <time>2014-10-02T14:30:55Z</time>
      </trkpt>
      <trkpt lat="42.6726970" lon="-7.1028860">
        <ele>1030.3</ele>
        <time>2014-10-02T14:30:56Z</time>
      </trkpt>
      <trkpt lat="42.6727260" lon="-7.1028700">
        <ele>1030.8</ele>
        <time>2014-10-02T14:30:57Z</time>
      </trkpt>
      <trkpt lat="42.6727560" lon="-7.1028500">
        <ele>1031.3</ele>
        <time>2014-10-02T14:30:58Z</time>
      </trkpt>
      <trkpt lat="42.6727820" lon="-7.1028300">
        <ele>1031.8</ele>
        <time>2014-10-02T14:30:59Z</time>
      </trkpt>
      <trkpt lat="42.6728080" lon="-7.1028150">
        <ele>1032.2</ele>
        <time>2014-10-02T14:31:00Z</time>
      </trkpt>
      <trkpt lat="42.6728540" lon="-7.1027880">
        <ele>1033.1</ele>
        <time>2014-10-02T14:31:02Z</time>
      </trkpt>
      <trkpt lat="42.6728810" lon="-7.1027760">
        <ele>1033.5</ele>
        <time>2014-10-02T14:31:03Z</time>
      </trkpt>
      <trkpt lat="42.6729080" lon="-7.1027670">
        <ele>1034.0</ele>
        <time>2014-10-02T14:31:04Z</time>
      </trkpt>
      <trkpt lat="42.6729380" lon="-7.1027540">
        <ele>1034.5</ele>
        <time>2014-10-02T14:31:05Z</time>
      </trkpt>
      <trkpt lat="42.6729680" lon="-7.1027390">
        <ele>1035.0</ele>
        <time>2014-10-02T14:31:06Z</time>
      </trkpt>
      <trkpt lat="42.6730000" lon="-7.1027220">
        <ele>1035.5</ele>
        <time>2014-10-02T14:31:07Z</time>
      </trkpt>
      <trkpt lat="42.6730330" lon="-7.1026960">
        <ele>1036.1</ele>
        <time>2014-10-02T14:31:08Z</time>
      </trkpt>
      <trkpt lat="42.6730670" lon="-7.1026680">
        <ele>1036.6</ele>
        <time>2014-10-02T14:31:09Z</time>
      </trkpt>
      <trkpt lat="42.6731030" lon="-7.1026360">
        <ele>1037.2</ele>
        <time>2014-10-02T14:31:10Z</time>
      </trkpt>
      <trkpt lat="42.6731310" lon="-7.1026030">
        <ele>1037.6</ele>
        <time>2014-10-02T14:31:11Z</time>
      </trkpt>
      <trkpt lat="42.6731620" lon="-7.1025670">
        <ele>1038.1</ele>
        <time>2014-10-02T14:31:12Z</time>
      </trkpt>
      <trkpt lat="42.6731900" lon="-7.1025300">
        <ele>1038.5</ele>
        <time>2014-10-02T14:31:13Z</time>
      </trkpt>
      <trkpt lat="42.6732190" lon="-7.1024920">
        <ele>1039.0</ele>
        <time>2014-10-02T14:31:14Z</time>
      </trkpt>
      <trkpt lat="42.6732410" lon="-7.1024560">
        <ele>1039.1</ele>
        <time>2014-10-02T14:31:15Z</time>
      </trkpt>
      <trkpt lat="42.6732610" lon="-7.1024220">
        <ele>1039.2</ele>
        <time>2014-10-02T14:31:16Z</time>
      </trkpt>
      <trkpt lat="42.6732800" lon="-7.1023830">
        <ele>1039.3</ele>
        <time>2014-10-02T14:31:17Z</time>
      </trkpt>
      <trkpt lat="42.6733150" lon="-7.1023410">
        <ele>1039.5</ele>
        <time>2014-10-02T14:31:18Z</time>
      </trkpt>
      <trkpt lat="42.6733510" lon="-7.1022970">
        <ele>1039.7</ele>
        <time>2014-10-02T14:31:19Z</time>
      </trkpt>
      <trkpt lat="42.6733800" lon="-7.1022550">
        <ele>1039.9</ele>
        <time>2014-10-02T14:31:20Z</time>
      </trkpt>
      <trkpt lat="42.6734070" lon="-7.1022190">
        <ele>1040.0</ele>
        <time>2014-10-02T14:31:21Z</time>
      </trkpt>
      <trkpt lat="42.6734270" lon="-7.1021830">
        <ele>1040.2</ele>
        <time>2014-10-02T14:31:22Z</time>
      </trkpt>
      <trkpt lat="42.6734430" lon="-7.1021500">
        <ele>1040.3</ele>
        <time>2014-10-02T14:31:23Z</time>
      </trkpt>
      <trkpt lat="42.6734590" lon="-7.1021150">
        <ele>1040.3</ele>
        <time>2014-10-02T14:31:24Z</time>
      </trkpt>
      <trkpt lat="42.6734820" lon="-7.1020770">
        <ele>1040.4</ele>
        <time>2014-10-02T14:31:25Z</time>
      </trkpt>
      <trkpt lat="42.6735000" lon="-7.1020420">
        <ele>1040.5</ele>
        <time>2014-10-02T14:31:26Z</time>
      </trkpt>
      <trkpt lat="42.6735210" lon="-7.1020110">
        <ele>1040.5</ele>
        <time>2014-10-02T14:31:27Z</time>
      </trkpt>
      <trkpt lat="42.6735460" lon="-7.1019680">
        <ele>1040.5</ele>
        <time>2014-10-02T14:31:28Z</time>
      </trkpt>
      <trkpt lat="42.6735650" lon="-7.1019140">
        <ele>1040.5</ele>
        <time>2014-10-02T14:31:29Z</time>
      </trkpt>
      <trkpt lat="42.6735850" lon="-7.1018630">
        <ele>1040.4</ele>
        <time>2014-10-02T14:31:30Z</time>
      </trkpt>
      <trkpt lat="42.6736200" lon="-7.1018170">
        <ele>1040.4</ele>
        <time>2014-10-02T14:31:31Z</time>
      </trkpt>
      <trkpt lat="42.6736580" lon="-7.1017680">
        <ele>1040.3</ele>
        <time>2014-10-02T14:31:32Z</time>
      </trkpt>
      <trkpt lat="42.6736960" lon="-7.1017160">
        <ele>1040.1</ele>
        <time>2014-10-02T14:31:33Z</time>
      </trkpt>
      <trkpt lat="42.6737420" lon="-7.1016650">
        <ele>1039.9</ele>
        <time>2014-10-02T14:31:34Z</time>
      </trkpt>
      <trkpt lat="42.6737850" lon="-7.1016260">
        <ele>1039.7</ele>
        <time>2014-10-02T14:31:35Z</time>
      </trkpt>
      <trkpt lat="42.6738310" lon="-7.1016000">
        <ele>1039.6</ele>
        <time>2014-10-02T14:31:36Z</time>
      </trkpt>
      <trkpt lat="42.6738770" lon="-7.1015720">
        <ele>1039.3</ele>
        <time>2014-10-02T14:31:37Z</time>
      </trkpt>
      <trkpt lat="42.6739220" lon="-7.1015490">
        <ele>1039.1</ele>
        <time>2014-10-02T14:31:38Z</time>
      </trkpt>
      <trkpt lat="42.6739710" lon="-7.1015490">
        <ele>1038.8</ele>
        <time>2014-10-02T14:31:39Z</time>
      </trkpt>
      <trkpt lat="42.6740010" lon="-7.1015480">
        <ele>1038.6</ele>
        <time>2014-10-02T14:31:40Z</time>
      </trkpt>
      <trkpt lat="42.6740340" lon="-7.1015470">
        <ele>1038.4</ele>
        <time>2014-10-02T14:31:41Z</time>
      </trkpt>
      <trkpt lat="42.6740690" lon="-7.1015520">
        <ele>1038.2</ele>
        <time>2014-10-02T14:31:42Z</time>
      </trkpt>
      <trkpt lat="42.6740990" lon="-7.1015630">
        <ele>1037.9</ele>
        <time>2014-10-02T14:31:43Z</time>
      </trkpt>
      <trkpt lat="42.6741300" lon="-7.1015810">
        <ele>1037.7</ele>
        <time>2014-10-02T14:31:44Z</time>
      </trkpt>
      <trkpt lat="42.6741580" lon="-7.1015810">
        <ele>1037.5</ele>
        <time>2014-10-02T14:31:45Z</time>
      </trkpt>
      <trkpt lat="42.6742220" lon="-7.1016090">
        <ele>1037.1</ele>
        <time>2014-10-02T14:31:47Z</time>
      </trkpt>
      <trkpt lat="42.6742680" lon="-7.1016330">
        <ele>1036.8</ele>
        <time>2014-10-02T14:31:48Z</time>
      </trkpt>
      <trkpt lat="42.6743140" lon="-7.1016630">
        <ele>1036.5</ele>
        <time>2014-10-02T14:31:49Z</time>
      </trkpt>
      <trkpt lat="42.6743640" lon="-7.1017010">
        <ele>1036.1</ele>
        <time>2014-10-02T14:31:50Z</time>
      </trkpt>
      <trkpt lat="42.6744140" lon="-7.1017290">
        <ele>1035.7</ele>
        <time>2014-10-02T14:31:51Z</time>
      </trkpt>
      <trkpt lat="42.6744670" lon="-7.1017610">
        <ele>1035.3</ele>
        <time>2014-10-02T14:31:52Z</time>
      </trkpt>
      <trkpt lat="42.6745250" lon="-7.1018000">
        <ele>1034.9</ele>
        <time>2014-10-02T14:31:53Z</time>
      </trkpt>
      <trkpt lat="42.6745860" lon="-7.1018350">
        <ele>1034.4</ele>
        <time>2014-10-02T14:31:54Z</time>
      </trkpt>
      <trkpt lat="42.6746420" lon="-7.1018770">
        <ele>1034.0</ele>
        <time>2014-10-02T14:31:55Z</time>
      </trkpt>
      <trkpt lat="42.6747060" lon="-7.1019210">
        <ele>1033.4</ele>
        <time>2014-10-02T14:31:56Z</time>
      </trkpt>
      <trkpt lat="42.6747810" lon="-7.1019730">
        <ele>1032.8</ele>
        <time>2014-10-02T14:31:57Z</time>
      </trkpt>
      <trkpt lat="42.6748510" lon="-7.1020180">
        <ele>1032.3</ele>
        <time>2014-10-02T14:31:58Z</time>
      </trkpt>
      <trkpt lat="42.6749180" lon="-7.1020540">
        <ele>1031.9</ele>
        <time>2014-10-02T14:31:59Z</time>
      </trkpt>
      <trkpt lat="42.6749850" lon="-7.1020900">
        <ele>1031.6</ele>
        <time>2014-10-02T14:32:00Z</time>
      </trkpt>
      <trkpt lat="42.6750520" lon="-7.1021240">
        <ele>1031.4</ele>
        <time>2014-10-02T14:32:01Z</time>
      </trkpt>
      <trkpt lat="42.6751160" lon="-7.1021550">
        <ele>1031.4</ele>
        <time>2014-10-02T14:32:02Z</time>
      </trkpt>
      <trkpt lat="42.6751750" lon="-7.1021810">
        <ele>1031.4</ele>
        <time>2014-10-02T14:32:03Z</time>
      </trkpt>
      <trkpt lat="42.6752360" lon="-7.1022070">
        <ele>1031.4</ele>
        <time>2014-10-02T14:32:04Z</time>
      </trkpt>
      <trkpt lat="42.6752990" lon="-7.1022330">
        <ele>1031.3</ele>
        <time>2014-10-02T14:32:05Z</time>
      </trkpt>
      <trkpt lat="42.6753540" lon="-7.1022580">
        <ele>1031.3</ele>
        <time>2014-10-02T14:32:06Z</time>
      </trkpt>
      <trkpt lat="42.6754170" lon="-7.1022860">
        <ele>1031.3</ele>
        <time>2014-10-02T14:32:07Z</time>
      </trkpt>
      <trkpt lat="42.6754750" lon="-7.1023150">
        <ele>1031.4</ele>
        <time>2014-10-02T14:32:08Z</time>
      </trkpt>
      <trkpt lat="42.6755340" lon="-7.1023430">
        <ele>1031.6</ele>
        <time>2014-10-02T14:32:09Z</time>
      </trkpt>
      <trkpt lat="42.6755850" lon="-7.1023700">
        <ele>1031.8</ele>
        <time>2014-10-02T14:32:10Z</time>
      </trkpt>
      <trkpt lat="42.6756390" lon="-7.1023970">
        <ele>1032.1</ele>
        <time>2014-10-02T14:32:11Z</time>
      </trkpt>
      <trkpt lat="42.6756930" lon="-7.1024240">
        <ele>1032.5</ele>
        <time>2014-10-02T14:32:12Z</time>
      </trkpt>
      <trkpt lat="42.6757430" lon="-7.1024480">
        <ele>1032.8</ele>
        <time>2014-10-02T14:32:13Z</time>
      </trkpt>
      <trkpt lat="42.6757890" lon="-7.1024720">
        <ele>1033.3</ele>
        <time>2014-10-02T14:32:14Z</time>
      </trkpt>
      <trkpt lat="42.6758290" lon="-7.1024970">
        <ele>1033.7</ele>
        <time>2014-10-02T14:32:15Z</time>
      </trkpt>
      <trkpt lat="42.6758580" lon="-7.1025160">
        <ele>1034.1</ele>
        <time>2014-10-02T14:32:16Z</time>
      </trkpt>
      <trkpt lat="42.6758860" lon="-7.1025340">
        <ele>1034.5</ele>
        <time>2014-10-02T14:32:17Z</time>
      </trkpt>
      <trkpt lat="42.6759190" lon="-7.1025550">
        <ele>1034.9</ele>
        <time>2014-10-02T14:32:18Z</time>
      </trkpt>
      <trkpt lat="42.6759590" lon="-7.1025770">
        <ele>1035.6</ele>
        <time>2014-10-02T14:32:19Z</time>
      </trkpt>
      <trkpt lat="42.6760010" lon="-7.1026000">
        <ele>1036.2</ele>
        <time>2014-10-02T14:32:20Z</time>
      </trkpt>
      <trkpt lat="42.6760390" lon="-7.1026200">
        <ele>1036.9</ele>
        <time>2014-10-02T14:32:21Z</time>
      </trkpt>
      <trkpt lat="42.6760750" lon="-7.1026290">
        <ele>1037.5</ele>
        <time>2014-10-02T14:32:22Z</time>
      </trkpt>
      <trkpt lat="42.6761100" lon="-7.1026360">
        <ele>1038.0</ele>
        <time>2014-10-02T14:32:23Z</time>
      </trkpt>
      <trkpt lat="42.6761440" lon="-7.1026430">
        <ele>1038.5</ele>
        <time>2014-10-02T14:32:24Z</time>
      </trkpt>
      <trkpt lat="42.6761740" lon="-7.1026490">
        <ele>1039.0</ele>
        <time>2014-10-02T14:32:25Z</time>
      </trkpt>
      <trkpt lat="42.6762160" lon="-7.1026530">
        <ele>1039.6</ele>
        <time>2014-10-02T14:32:27Z</time>
      </trkpt>
      <trkpt lat="42.6762880" lon="-7.1026460">
        <ele>1040.5</ele>
        <time>2014-10-02T14:32:30Z</time>
      </trkpt>
      <trkpt lat="42.6763150" lon="-7.1026240">
        <ele>1040.9</ele>
        <time>2014-10-02T14:32:31Z</time>
      </trkpt>
      <trkpt lat="42.6763380" lon="-7.1026030">
        <ele>1041.2</ele>
        <time>2014-10-02T14:32:32Z</time>
      </trkpt>
      <trkpt lat="42.6763760" lon="-7.1025610">
        <ele>1041.8</ele>
        <time>2014-10-02T14:32:34Z</time>
      </trkpt>
      <trkpt lat="42.6763970" lon="-7.1025300">
        <ele>1042.1</ele>
        <time>2014-10-02T14:32:35Z</time>
      </trkpt>
      <trkpt lat="42.6764240" lon="-7.1024690">
        <ele>1042.8</ele>
        <time>2014-10-02T14:32:37Z</time>
      </trkpt>
      <trkpt lat="42.6764400" lon="-7.1024250">
        <ele>1043.2</ele>
        <time>2014-10-02T14:32:38Z</time>
      </trkpt>
      <trkpt lat="42.6764560" lon="-7.1023730">
        <ele>1043.8</ele>
        <time>2014-10-02T14:32:39Z</time>
      </trkpt>
      <trkpt lat="42.6764710" lon="-7.1023230">
        <ele>1044.3</ele>
        <time>2014-10-02T14:32:40Z</time>
      </trkpt>
      <trkpt lat="42.6764820" lon="-7.1022850">
        <ele>1044.6</ele>
        <time>2014-10-02T14:32:41Z</time>
      </trkpt>
      <trkpt lat="42.6764990" lon="-7.1022230">
        <ele>1045.3</ele>
        <time>2014-10-02T14:32:43Z</time>
      </trkpt>
      <trkpt lat="42.6765150" lon="-7.1021610">
        <ele>1045.9</ele>
        <time>2014-10-02T14:32:45Z</time>
      </trkpt>
      <trkpt lat="42.6765260" lon="-7.1020990">
        <ele>1046.4</ele>
        <time>2014-10-02T14:32:47Z</time>
      </trkpt>
      <trkpt lat="42.6765420" lon="-7.1020490">
        <ele>1046.9</ele>
        <time>2014-10-02T14:32:49Z</time>
      </trkpt>
      <trkpt lat="42.6765520" lon="-7.1020090">
        <ele>1047.2</ele>
        <time>2014-10-02T14:32:51Z</time>
      </trkpt>
      <trkpt lat="42.6765630" lon="-7.1019720">
        <ele>1047.4</ele>
        <time>2014-10-02T14:32:53Z</time>
      </trkpt>
      <trkpt lat="42.6765790" lon="-7.1019250">
        <ele>1047.8</ele>
        <time>2014-10-02T14:32:55Z</time>
      </trkpt>
      <trkpt lat="42.6765960" lon="-7.1018850">
        <ele>1048.2</ele>
        <time>2014-10-02T14:32:57Z</time>
      </trkpt>
      <trkpt lat="42.6766210" lon="-7.1018450">
        <ele>1048.6</ele>
        <time>2014-10-02T14:32:59Z</time>
      </trkpt>
      <trkpt lat="42.6766570" lon="-7.1018020">
        <ele>1049.1</ele>
        <time>2014-10-02T14:33:01Z</time>
      </trkpt>
      <trkpt lat="42.6767030" lon="-7.1017560">
        <ele>1049.6</ele>
        <time>2014-10-02T14:33:03Z</time>
      </trkpt>
      <trkpt lat="42.6767290" lon="-7.1017300">
        <ele>1049.8</ele>
        <time>2014-10-02T14:33:04Z</time>
      </trkpt>
      <trkpt lat="42.6767730" lon="-7.1016980">
        <ele>1050.2</ele>
        <time>2014-10-02T14:33:06Z</time>
      </trkpt>
      <trkpt lat="42.6768000" lon="-7.1016810">
        <ele>1050.4</ele>
        <time>2014-10-02T14:33:08Z</time>
      </trkpt>
      <trkpt lat="42.6768390" lon="-7.1016380">
        <ele>1050.8</ele>
        <time>2014-10-02T14:33:10Z</time>
      </trkpt>
      <trkpt lat="42.6768610" lon="-7.1016120">
        <ele>1051.0</ele>
        <time>2014-10-02T14:33:11Z</time>
      </trkpt>
      <trkpt lat="42.6768860" lon="-7.1015860">
        <ele>1051.3</ele>
        <time>2014-10-02T14:33:12Z</time>
      </trkpt>
      <trkpt lat="42.6769250" lon="-7.1015500">
        <ele>1051.7</ele>
        <time>2014-10-02T14:33:14Z</time>
      </trkpt>
      <trkpt lat="42.6769470" lon="-7.1015270">
        <ele>1051.9</ele>
        <time>2014-10-02T14:33:15Z</time>
      </trkpt>
      <trkpt lat="42.6769710" lon="-7.1015020">
        <ele>1052.2</ele>
        <time>2014-10-02T14:33:16Z</time>
      </trkpt>
      <trkpt lat="42.6769930" lon="-7.1014810">
        <ele>1052.4</ele>
        <time>2014-10-02T14:33:17Z</time>
      </trkpt>
      <trkpt lat="42.6770440" lon="-7.1014330">
        <ele>1052.9</ele>
        <time>2014-10-02T14:33:19Z</time>
      </trkpt>
      <trkpt lat="42.6770740" lon="-7.1014050">
        <ele>1053.2</ele>
        <time>2014-10-02T14:33:20Z</time>
      </trkpt>
      <trkpt lat="42.6771040" lon="-7.1013780">
        <ele>1053.4</ele>
        <time>2014-10-02T14:33:21Z</time>
      </trkpt>
      <trkpt lat="42.6771340" lon="-7.1013520">
        <ele>1053.6</ele>
        <time>2014-10-02T14:33:22Z</time>
      </trkpt>
      <trkpt lat="42.6771610" lon="-7.1013300">
        <ele>1053.8</ele>
        <time>2014-10-02T14:33:23Z</time>
      </trkpt>
      <trkpt lat="42.6771940" lon="-7.1013060">
        <ele>1053.9</ele>
        <time>2014-10-02T14:33:24Z</time>
      </trkpt>
      <trkpt lat="42.6772230" lon="-7.1012900">
        <ele>1054.0</ele>
        <time>2014-10-02T14:33:25Z</time>
      </trkpt>
      <trkpt lat="42.6772540" lon="-7.1012740">
        <ele>1054.1</ele>
        <time>2014-10-02T14:33:26Z</time>
      </trkpt>
      <trkpt lat="42.6772840" lon="-7.1012580">
        <ele>1054.1</ele>
        <time>2014-10-02T14:33:27Z</time>
      </trkpt>
      <trkpt lat="42.6773240" lon="-7.1012450">
        <ele>1054.2</ele>
        <time>2014-10-02T14:33:28Z</time>
      </trkpt>
      <trkpt lat="42.6773640" lon="-7.1012330">
        <ele>1054.1</ele>
        <time>2014-10-02T14:33:29Z</time>
      </trkpt>
      <trkpt lat="42.6773900" lon="-7.1012150">
        <ele>1054.1</ele>
        <time>2014-10-02T14:33:30Z</time>
      </trkpt>
      <trkpt lat="42.6774220" lon="-7.1011870">
        <ele>1054.1</ele>
        <time>2014-10-02T14:33:31Z</time>
      </trkpt>
      <trkpt lat="42.6774500" lon="-7.1011610">
        <ele>1054.1</ele>
        <time>2014-10-02T14:33:32Z</time>
      </trkpt>
      <trkpt lat="42.6774940" lon="-7.1011200">
        <ele>1054.1</ele>
        <time>2014-10-02T14:33:33Z</time>
      </trkpt>
      <trkpt lat="42.6775390" lon="-7.1010760">
        <ele>1054.1</ele>
        <time>2014-10-02T14:33:34Z</time>
      </trkpt>
      <trkpt lat="42.6775800" lon="-7.1010320">
        <ele>1054.1</ele>
        <time>2014-10-02T14:33:35Z</time>
      </trkpt>
      <trkpt lat="42.6776230" lon="-7.1009850">
        <ele>1054.1</ele>
        <time>2014-10-02T14:33:36Z</time>
      </trkpt>
      <trkpt lat="42.6776620" lon="-7.1009420">
        <ele>1054.2</ele>
        <time>2014-10-02T14:33:37Z</time>
      </trkpt>
      <trkpt lat="42.6777060" lon="-7.1008970">
        <ele>1054.2</ele>
        <time>2014-10-02T14:33:38Z</time>
      </trkpt>
      <trkpt lat="42.6777510" lon="-7.1008560">
        <ele>1054.3</ele>
        <time>2014-10-02T14:33:39Z</time>
      </trkpt>
      <trkpt lat="42.6777980" lon="-7.1008200">
        <ele>1054.4</ele>
        <time>2014-10-02T14:33:40Z</time>
      </trkpt>
      <trkpt lat="42.6778410" lon="-7.1007870">
        <ele>1054.4</ele>
        <time>2014-10-02T14:33:41Z</time>
      </trkpt>
      <trkpt lat="42.6778790" lon="-7.1007660">
        <ele>1054.5</ele>
        <time>2014-10-02T14:33:42Z</time>
      </trkpt>
      <trkpt lat="42.6779260" lon="-7.1007350">
        <ele>1054.6</ele>
        <time>2014-10-02T14:33:43Z</time>
      </trkpt>
      <trkpt lat="42.6779730" lon="-7.1007090">
        <ele>1054.7</ele>
        <time>2014-10-02T14:33:44Z</time>
      </trkpt>
      <trkpt lat="42.6780210" lon="-7.1006880">
        <ele>1054.8</ele>
        <time>2014-10-02T14:33:45Z</time>
      </trkpt>
      <trkpt lat="42.6780610" lon="-7.1006770">
        <ele>1054.8</ele>
        <time>2014-10-02T14:33:46Z</time>
      </trkpt>
      <trkpt lat="42.6781070" lon="-7.1006670">
        <ele>1054.8</ele>
        <time>2014-10-02T14:33:47Z</time>
      </trkpt>
      <trkpt lat="42.6781510" lon="-7.1006600">
        <ele>1054.8</ele>
        <time>2014-10-02T14:33:48Z</time>
      </trkpt>
      <trkpt lat="42.6781950" lon="-7.1006540">
        <ele>1054.8</ele>
        <time>2014-10-02T14:33:49Z</time>
      </trkpt>
      <trkpt lat="42.6782430" lon="-7.1006520">
        <ele>1054.8</ele>
        <time>2014-10-02T14:33:50Z</time>
      </trkpt>
      <trkpt lat="42.6782970" lon="-7.1006510">
        <ele>1054.8</ele>
        <time>2014-10-02T14:33:51Z</time>
      </trkpt>
      <trkpt lat="42.6783530" lon="-7.1006530">
        <ele>1054.7</ele>
        <time>2014-10-02T14:33:52Z</time>
      </trkpt>
      <trkpt lat="42.6784190" lon="-7.1006550">
        <ele>1054.6</ele>
        <time>2014-10-02T14:33:53Z</time>
      </trkpt>
      <trkpt lat="42.6784850" lon="-7.1006600">
        <ele>1054.5</ele>
        <time>2014-10-02T14:33:54Z</time>
      </trkpt>
      <trkpt lat="42.6785550" lon="-7.1006840">
        <ele>1054.3</ele>
        <time>2014-10-02T14:33:55Z</time>
      </trkpt>
      <trkpt lat="42.6786220" lon="-7.1007140">
        <ele>1054.2</ele>
        <time>2014-10-02T14:33:56Z</time>
      </trkpt>
      <trkpt lat="42.6786880" lon="-7.1007470">
        <ele>1054.0</ele>
        <time>2014-10-02T14:33:57Z</time>
      </trkpt>
      <trkpt lat="42.6787530" lon="-7.1007830">
        <ele>1053.9</ele>
        <time>2014-10-02T14:33:58Z</time>
      </trkpt>
      <trkpt lat="42.6788130" lon="-7.1008220">
        <ele>1053.8</ele>
        <time>2014-10-02T14:33:59Z</time>
      </trkpt>
      <trkpt lat="42.6788670" lon="-7.1008580">
        <ele>1053.6</ele>
        <time>2014-10-02T14:34:00Z</time>
      </trkpt>
      <trkpt lat="42.6789280" lon="-7.1008950">
        <ele>1053.2</ele>
        <time>2014-10-02T14:34:01Z</time>
      </trkpt>
      <trkpt lat="42.6789920" lon="-7.1009320">
        <ele>1052.8</ele>
        <time>2014-10-02T14:34:02Z</time>
      </trkpt>
      <trkpt lat="42.6790610" lon="-7.1009690">
        <ele>1052.4</ele>
        <time>2014-10-02T14:34:03Z</time>
      </trkpt>
      <trkpt lat="42.6791210" lon="-7.1009980">
        <ele>1052.0</ele>
        <time>2014-10-02T14:34:04Z</time>
      </trkpt>
      <trkpt lat="42.6791780" lon="-7.1010290">
        <ele>1051.7</ele>
        <time>2014-10-02T14:34:05Z</time>
      </trkpt>
      <trkpt lat="42.6792320" lon="-7.1010600">
        <ele>1051.3</ele>
        <time>2014-10-02T14:34:06Z</time>
      </trkpt>
      <trkpt lat="42.6792820" lon="-7.1010880">
        <ele>1050.8</ele>
        <time>2014-10-02T14:34:07Z</time>
      </trkpt>
      <trkpt lat="42.6793240" lon="-7.1011110">
        <ele>1050.4</ele>
        <time>2014-10-02T14:34:08Z</time>
      </trkpt>
      <trkpt lat="42.6793710" lon="-7.1011370">
        <ele>1049.9</ele>
        <time>2014-10-02T14:34:09Z</time>
      </trkpt>
      <trkpt lat="42.6794140" lon="-7.1011640">
        <ele>1049.4</ele>
        <time>2014-10-02T14:34:10Z</time>
      </trkpt>
      <trkpt lat="42.6794590" lon="-7.1011920">
        <ele>1048.9</ele>
        <time>2014-10-02T14:34:11Z</time>
      </trkpt>
      <trkpt lat="42.6795100" lon="-7.1012250">
        <ele>1048.3</ele>
        <time>2014-10-02T14:34:12Z</time>
      </trkpt>
      <trkpt lat="42.6795540" lon="-7.1012570">
        <ele>1047.8</ele>
        <time>2014-10-02T14:34:13Z</time>
      </trkpt>
      <trkpt lat="42.6796060" lon="-7.1012980">
        <ele>1047.1</ele>
        <time>2014-10-02T14:34:14Z</time>
      </trkpt>
      <trkpt lat="42.6796570" lon="-7.1013420">
        <ele>1046.6</ele>
        <time>2014-10-02T14:34:15Z</time>
      </trkpt>
      <trkpt lat="42.6797050" lon="-7.1013880">
        <ele>1046.0</ele>
        <time>2014-10-02T14:34:16Z</time>
      </trkpt>
      <trkpt lat="42.6797630" lon="-7.1014360">
        <ele>1045.3</ele>
        <time>2014-10-02T14:34:17Z</time>
      </trkpt>
      <trkpt lat="42.6798300" lon="-7.1014390">
        <ele>1044.7</ele>
        <time>2014-10-02T14:34:18Z</time>
      </trkpt>
      <trkpt lat="42.6798980" lon="-7.1014170">
        <ele>1044.0</ele>
        <time>2014-10-02T14:34:19Z</time>
      </trkpt>
      <trkpt lat="42.6799730" lon="-7.1013780">
        <ele>1043.3</ele>
        <time>2014-10-02T14:34:20Z</time>
      </trkpt>
      <trkpt lat="42.6800150" lon="-7.1013210">
        <ele>1042.7</ele>
        <time>2014-10-02T14:34:21Z</time>
      </trkpt>
      <trkpt lat="42.6800590" lon="-7.1012560">
        <ele>1042.2</ele>
        <time>2014-10-02T14:34:22Z</time>
      </trkpt>
      <trkpt lat="42.6800790" lon="-7.1011970">
        <ele>1041.8</ele>
        <time>2014-10-02T14:34:23Z</time>
      </trkpt>
      <trkpt lat="42.6800990" lon="-7.1011290">
        <ele>1041.4</ele>
        <time>2014-10-02T14:34:24Z</time>
      </trkpt>
      <trkpt lat="42.6801250" lon="-7.1010460">
        <ele>1040.9</ele>
        <time>2014-10-02T14:34:25Z</time>
      </trkpt>
      <trkpt lat="42.6801640" lon="-7.1009640">
        <ele>1040.4</ele>
        <time>2014-10-02T14:34:26Z</time>
      </trkpt>
      <trkpt lat="42.6802030" lon="-7.1008790">
        <ele>1039.9</ele>
        <time>2014-10-02T14:34:27Z</time>
      </trkpt>
      <trkpt lat="42.6802410" lon="-7.1007650">
        <ele>1039.3</ele>
        <time>2014-10-02T14:34:28Z</time>
      </trkpt>
      <trkpt lat="42.6802520" lon="-7.1006690">
        <ele>1038.8</ele>
        <time>2014-10-02T14:34:29Z</time>
      </trkpt>
      <trkpt lat="42.6802490" lon="-7.1005600">
        <ele>1038.3</ele>
        <time>2014-10-02T14:34:30Z</time>
      </trkpt>
      <trkpt lat="42.6802450" lon="-7.1004550">
        <ele>1037.9</ele>
        <time>2014-10-02T14:34:31Z</time>
      </trkpt>
      <trkpt lat="42.6802340" lon="-7.1003550">
        <ele>1037.5</ele>
        <time>2014-10-02T14:34:32Z</time>
      </trkpt>
      <trkpt lat="42.6802210" lon="-7.1002660">
        <ele>1037.2</ele>
        <time>2014-10-02T14:34:33Z</time>
      </trkpt>
      <trkpt lat="42.6802010" lon="-7.1001860">
        <ele>1036.9</ele>
        <time>2014-10-02T14:34:34Z</time>
      </trkpt>
      <trkpt lat="42.6801820" lon="-7.1001090">
        <ele>1036.7</ele>
        <time>2014-10-02T14:34:35Z</time>
      </trkpt>
      <trkpt lat="42.6801600" lon="-7.1000320">
        <ele>1036.4</ele>
        <time>2014-10-02T14:34:36Z</time>
      </trkpt>
      <trkpt lat="42.6801340" lon="-7.0999440">
        <ele>1036.2</ele>
        <time>2014-10-02T14:34:37Z</time>
      </trkpt>
      <trkpt lat="42.6801120" lon="-7.0998680">
        <ele>1035.9</ele>
        <time>2014-10-02T14:34:38Z</time>
      </trkpt>
      <trkpt lat="42.6800930" lon="-7.0997960">
        <ele>1035.8</ele>
        <time>2014-10-02T14:34:39Z</time>
      </trkpt>
      <trkpt lat="42.6800790" lon="-7.0997250">
        <ele>1035.6</ele>
        <time>2014-10-02T14:34:40Z</time>
      </trkpt>
      <trkpt lat="42.6800700" lon="-7.0996620">
        <ele>1035.5</ele>
        <time>2014-10-02T14:34:41Z</time>
      </trkpt>
      <trkpt lat="42.6800600" lon="-7.0995940">
        <ele>1035.3</ele>
        <time>2014-10-02T14:34:42Z</time>
      </trkpt>
      <trkpt lat="42.6800540" lon="-7.0995250">
        <ele>1035.0</ele>
        <time>2014-10-02T14:34:43Z</time>
      </trkpt>
      <trkpt lat="42.6800490" lon="-7.0994680">
        <ele>1034.7</ele>
        <time>2014-10-02T14:34:44Z</time>
      </trkpt>
      <trkpt lat="42.6800560" lon="-7.0994140">
        <ele>1034.7</ele>
        <time>2014-10-02T14:34:45Z</time>
      </trkpt>
      <trkpt lat="42.6800750" lon="-7.0993810">
        <ele>1034.7</ele>
        <time>2014-10-02T14:34:46Z</time>
      </trkpt>
      <trkpt lat="42.6800950" lon="-7.0993490">
        <ele>1034.6</ele>
        <time>2014-10-02T14:34:47Z</time>
      </trkpt>
      <trkpt lat="42.6801270" lon="-7.0993260">
        <ele>1034.7</ele>
        <time>2014-10-02T14:34:48Z</time>
      </trkpt>
      <trkpt lat="42.6801730" lon="-7.0993090">
        <ele>1034.7</ele>
        <time>2014-10-02T14:34:49Z</time>
      </trkpt>
      <trkpt lat="42.6802210" lon="-7.0993110">
        <ele>1034.8</ele>
        <time>2014-10-02T14:34:50Z</time>
      </trkpt>
      <trkpt lat="42.6802720" lon="-7.0993270">
        <ele>1034.8</ele>
        <time>2014-10-02T14:34:51Z</time>
      </trkpt>
      <trkpt lat="42.6803070" lon="-7.0993580">
        <ele>1034.9</ele>
        <time>2014-10-02T14:34:52Z</time>
      </trkpt>
      <trkpt lat="42.6803380" lon="-7.0993910">
        <ele>1034.9</ele>
        <time>2014-10-02T14:34:53Z</time>
      </trkpt>
      <trkpt lat="42.6803840" lon="-7.0994390">
        <ele>1034.9</ele>
        <time>2014-10-02T14:34:54Z</time>
      </trkpt>
      <trkpt lat="42.6804340" lon="-7.0994910">
        <ele>1034.9</ele>
        <time>2014-10-02T14:34:55Z</time>
      </trkpt>
      <trkpt lat="42.6804800" lon="-7.0995400">
        <ele>1034.9</ele>
        <time>2014-10-02T14:34:56Z</time>
      </trkpt>
      <trkpt lat="42.6805280" lon="-7.0995990">
        <ele>1035.0</ele>
        <time>2014-10-02T14:34:57Z</time>
      </trkpt>
      <trkpt lat="42.6805750" lon="-7.0996480">
        <ele>1035.2</ele>
        <time>2014-10-02T14:34:58Z</time>
      </trkpt>
      <trkpt lat="42.6806300" lon="-7.0996990">
        <ele>1035.4</ele>
        <time>2014-10-02T14:34:59Z</time>
      </trkpt>
      <trkpt lat="42.6806870" lon="-7.0997460">
        <ele>1035.5</ele>
        <time>2014-10-02T14:35:00Z</time>
      </trkpt>
      <trkpt lat="42.6807460" lon="-7.0997860">
        <ele>1035.5</ele>
        <time>2014-10-02T14:35:01Z</time>
      </trkpt>
      <trkpt lat="42.6808040" lon="-7.0998210">
        <ele>1035.4</ele>
        <time>2014-10-02T14:35:02Z</time>
      </trkpt>
      <trkpt lat="42.6808650" lon="-7.0998570">
        <ele>1035.3</ele>
        <time>2014-10-02T14:35:03Z</time>
      </trkpt>
      <trkpt lat="42.6809330" lon="-7.0998950">
        <ele>1035.1</ele>
        <time>2014-10-02T14:35:04Z</time>
      </trkpt>
      <trkpt lat="42.6810090" lon="-7.0999400">
        <ele>1034.7</ele>
        <time>2014-10-02T14:35:05Z</time>
      </trkpt>
      <trkpt lat="42.6810900" lon="-7.0999890">
        <ele>1034.4</ele>
        <time>2014-10-02T14:35:06Z</time>
      </trkpt>
      <trkpt lat="42.6811770" lon="-7.1000300">
        <ele>1034.0</ele>
        <time>2014-10-02T14:35:07Z</time>
      </trkpt>
      <trkpt lat="42.6812710" lon="-7.1000700">
        <ele>1033.6</ele>
        <time>2014-10-02T14:35:08Z</time>
      </trkpt>
      <trkpt lat="42.6813630" lon="-7.1001080">
        <ele>1033.1</ele>
        <time>2014-10-02T14:35:09Z</time>
      </trkpt>
      <trkpt lat="42.6814480" lon="-7.1001650">
        <ele>1032.5</ele>
        <time>2014-10-02T14:35:10Z</time>
      </trkpt>
      <trkpt lat="42.6815330" lon="-7.1002320">
        <ele>1031.9</ele>
        <time>2014-10-02T14:35:11Z</time>
      </trkpt>
      <trkpt lat="42.6816060" lon="-7.1003070">
        <ele>1031.5</ele>
        <time>2014-10-02T14:35:12Z</time>
      </trkpt>
      <trkpt lat="42.6816770" lon="-7.1003900">
        <ele>1031.1</ele>
        <time>2014-10-02T14:35:13Z</time>
      </trkpt>
      <trkpt lat="42.6817420" lon="-7.1004690">
        <ele>1030.9</ele>
        <time>2014-10-02T14:35:14Z</time>
      </trkpt>
      <trkpt lat="42.6818030" lon="-7.1005460">
        <ele>1030.7</ele>
        <time>2014-10-02T14:35:15Z</time>
      </trkpt>
      <trkpt lat="42.6818680" lon="-7.1006170">
        <ele>1030.5</ele>
        <time>2014-10-02T14:35:16Z</time>
      </trkpt>
      <trkpt lat="42.6819370" lon="-7.1006570">
        <ele>1030.6</ele>
        <time>2014-10-02T14:35:17Z</time>
      </trkpt>
      <trkpt lat="42.6820160" lon="-7.1006740">
        <ele>1030.6</ele>
        <time>2014-10-02T14:35:18Z</time>
      </trkpt>
      <trkpt lat="42.6821180" lon="-7.1006670">
        <ele>1030.7</ele>
        <time>2014-10-02T14:35:19Z</time>
      </trkpt>
      <trkpt lat="42.6822130" lon="-7.1006490">
        <ele>1030.8</ele>
        <time>2014-10-02T14:35:20Z</time>
      </trkpt>
      <trkpt lat="42.6822700" lon="-7.1006050">
        <ele>1030.9</ele>
        <time>2014-10-02T14:35:21Z</time>
      </trkpt>
      <trkpt lat="42.6823120" lon="-7.1005350">
        <ele>1031.1</ele>
        <time>2014-10-02T14:35:22Z</time>
      </trkpt>
      <trkpt lat="42.6823430" lon="-7.1004600">
        <ele>1031.3</ele>
        <time>2014-10-02T14:35:23Z</time>
      </trkpt>
      <trkpt lat="42.6823710" lon="-7.1003780">
        <ele>1031.6</ele>
        <time>2014-10-02T14:35:24Z</time>
      </trkpt>
      <trkpt lat="42.6823930" lon="-7.1003040">
        <ele>1031.9</ele>
        <time>2014-10-02T14:35:25Z</time>
      </trkpt>
      <trkpt lat="42.6824030" lon="-7.1002180">
        <ele>1032.3</ele>
        <time>2014-10-02T14:35:26Z</time>
      </trkpt>
      <trkpt lat="42.6824130" lon="-7.1001290">
        <ele>1032.8</ele>
        <time>2014-10-02T14:35:27Z</time>
      </trkpt>
      <trkpt lat="42.6824200" lon="-7.1000450">
        <ele>1033.3</ele>
        <time>2014-10-02T14:35:28Z</time>
      </trkpt>
      <trkpt lat="42.6824300" lon="-7.0999730">
        <ele>1033.9</ele>
        <time>2014-10-02T14:35:29Z</time>
      </trkpt>
      <trkpt lat="42.6824360" lon="-7.0999100">
        <ele>1034.4</ele>
        <time>2014-10-02T14:35:30Z</time>
      </trkpt>
      <trkpt lat="42.6824410" lon="-7.0998410">
        <ele>1035.0</ele>
        <time>2014-10-02T14:35:31Z</time>
      </trkpt>
      <trkpt lat="42.6824440" lon="-7.0997710">
        <ele>1035.6</ele>
        <time>2014-10-02T14:35:32Z</time>
      </trkpt>
      <trkpt lat="42.6824330" lon="-7.0997100">
        <ele>1036.2</ele>
        <time>2014-10-02T14:35:33Z</time>
      </trkpt>
      <trkpt lat="42.6824200" lon="-7.0996500">
        <ele>1036.7</ele>
        <time>2014-10-02T14:35:34Z</time>
      </trkpt>
      <trkpt lat="42.6824040" lon="-7.0995860">
        <ele>1037.3</ele>
        <time>2014-10-02T14:35:35Z</time>
      </trkpt>
      <trkpt lat="42.6823910" lon="-7.0995360">
        <ele>1037.7</ele>
        <time>2014-10-02T14:35:36Z</time>
      </trkpt>
      <trkpt lat="42.6823860" lon="-7.0994720">
        <ele>1038.2</ele>
        <time>2014-10-02T14:35:37Z</time>
      </trkpt>
      <trkpt lat="42.6823750" lon="-7.0994040">
        <ele>1038.8</ele>
        <time>2014-10-02T14:35:38Z</time>
      </trkpt>
      <trkpt lat="42.6823630" lon="-7.0993340">
        <ele>1039.3</ele>
        <time>2014-10-02T14:35:39Z</time>
      </trkpt>
      <trkpt lat="42.6823450" lon="-7.0992710">
        <ele>1039.9</ele>
        <time>2014-10-02T14:35:40Z</time>
      </trkpt>
      <trkpt lat="42.6823310" lon="-7.0992250">
        <ele>1040.3</ele>
        <time>2014-10-02T14:35:41Z</time>
      </trkpt>
      <trkpt lat="42.6823180" lon="-7.0991670">
        <ele>1040.8</ele>
        <time>2014-10-02T14:35:42Z</time>
      </trkpt>
      <trkpt lat="42.6823040" lon="-7.0991080">
        <ele>1041.3</ele>
        <time>2014-10-02T14:35:43Z</time>
      </trkpt>
      <trkpt lat="42.6822900" lon="-7.0990490">
        <ele>1041.8</ele>
        <time>2014-10-02T14:35:44Z</time>
      </trkpt>
      <trkpt lat="42.6822800" lon="-7.0990030">
        <ele>1042.1</ele>
        <time>2014-10-02T14:35:45Z</time>
      </trkpt>
      <trkpt lat="42.6822740" lon="-7.0989480">
        <ele>1042.5</ele>
        <time>2014-10-02T14:35:46Z</time>
      </trkpt>
      <trkpt lat="42.6822690" lon="-7.0988940">
        <ele>1042.9</ele>
        <time>2014-10-02T14:35:47Z</time>
      </trkpt>
      <trkpt lat="42.6822660" lon="-7.0988440">
        <ele>1043.2</ele>
        <time>2014-10-02T14:35:48Z</time>
      </trkpt>
      <trkpt lat="42.6822650" lon="-7.0987810">
        <ele>1043.7</ele>
        <time>2014-10-02T14:35:49Z</time>
      </trkpt>
      <trkpt lat="42.6822680" lon="-7.0987140">
        <ele>1044.2</ele>
        <time>2014-10-02T14:35:50Z</time>
      </trkpt>
      <trkpt lat="42.6822730" lon="-7.0986490">
        <ele>1044.6</ele>
        <time>2014-10-02T14:35:51Z</time>
      </trkpt>
      <trkpt lat="42.6822800" lon="-7.0985930">
        <ele>1045.0</ele>
        <time>2014-10-02T14:35:52Z</time>
      </trkpt>
      <trkpt lat="42.6822880" lon="-7.0985450">
        <ele>1045.4</ele>
        <time>2014-10-02T14:35:53Z</time>
      </trkpt>
      <trkpt lat="42.6822950" lon="-7.0984970">
        <ele>1045.8</ele>
        <time>2014-10-02T14:35:54Z</time>
      </trkpt>
      <trkpt lat="42.6823060" lon="-7.0984440">
        <ele>1046.2</ele>
        <time>2014-10-02T14:35:55Z</time>
      </trkpt>
      <trkpt lat="42.6823180" lon="-7.0983870">
        <ele>1046.7</ele>
        <time>2014-10-02T14:35:56Z</time>
      </trkpt>
      <trkpt lat="42.6823330" lon="-7.0983350">
        <ele>1047.2</ele>
        <time>2014-10-02T14:35:57Z</time>
      </trkpt>
      <trkpt lat="42.6823470" lon="-7.0982830">
        <ele>1047.6</ele>
        <time>2014-10-02T14:35:58Z</time>
      </trkpt>
      <trkpt lat="42.6823600" lon="-7.0982390">
        <ele>1048.0</ele>
        <time>2014-10-02T14:35:59Z</time>
      </trkpt>
      <trkpt lat="42.6823750" lon="-7.0981880">
        <ele>1048.5</ele>
        <time>2014-10-02T14:36:00Z</time>
      </trkpt>
      <trkpt lat="42.6823930" lon="-7.0981320">
        <ele>1049.0</ele>
        <time>2014-10-02T14:36:01Z</time>
      </trkpt>
      <trkpt lat="42.6824120" lon="-7.0980810">
        <ele>1049.5</ele>
        <time>2014-10-02T14:36:02Z</time>
      </trkpt>
      <trkpt lat="42.6824340" lon="-7.0980230">
        <ele>1050.1</ele>
        <time>2014-10-02T14:36:03Z</time>
      </trkpt>
      <trkpt lat="42.6824600" lon="-7.0979680">
        <ele>1050.8</ele>
        <time>2014-10-02T14:36:04Z</time>
      </trkpt>
      <trkpt lat="42.6824880" lon="-7.0979080">
        <ele>1051.5</ele>
        <time>2014-10-02T14:36:05Z</time>
      </trkpt>
      <trkpt lat="42.6825190" lon="-7.0978530">
        <ele>1052.2</ele>
        <time>2014-10-02T14:36:06Z</time>
      </trkpt>
      <trkpt lat="42.6825480" lon="-7.0978110">
        <ele>1052.8</ele>
        <time>2014-10-02T14:36:07Z</time>
      </trkpt>
      <trkpt lat="42.6825850" lon="-7.0977730">
        <ele>1053.5</ele>
        <time>2014-10-02T14:36:09Z</time>
      </trkpt>
      <trkpt lat="42.6826070" lon="-7.0977440">
        <ele>1053.9</ele>
        <time>2014-10-02T14:36:10Z</time>
      </trkpt>
      <trkpt lat="42.6826460" lon="-7.0977170">
        <ele>1054.5</ele>
        <time>2014-10-02T14:36:11Z</time>
      </trkpt>
      <trkpt lat="42.6826780" lon="-7.0976960">
        <ele>1055.0</ele>
        <time>2014-10-02T14:36:12Z</time>
      </trkpt>
      <trkpt lat="42.6827120" lon="-7.0976870">
        <ele>1055.5</ele>
        <time>2014-10-02T14:36:13Z</time>
      </trkpt>
      <trkpt lat="42.6827440" lon="-7.0976820">
        <ele>1055.9</ele>
        <time>2014-10-02T14:36:14Z</time>
      </trkpt>
      <trkpt lat="42.6827770" lon="-7.0976860">
        <ele>1056.3</ele>
        <time>2014-10-02T14:36:15Z</time>
      </trkpt>
      <trkpt lat="42.6828290" lon="-7.0976980">
        <ele>1056.9</ele>
        <time>2014-10-02T14:36:17Z</time>
      </trkpt>
      <trkpt lat="42.6828570" lon="-7.0977130">
        <ele>1057.3</ele>
        <time>2014-10-02T14:36:18Z</time>
      </trkpt>
      <trkpt lat="42.6828840" lon="-7.0977280">
        <ele>1057.5</ele>
        <time>2014-10-02T14:36:19Z</time>
      </trkpt>
      <trkpt lat="42.6829110" lon="-7.0977460">
        <ele>1057.8</ele>
        <time>2014-10-02T14:36:20Z</time>
      </trkpt>
      <trkpt lat="42.6829420" lon="-7.0977650">
        <ele>1058.1</ele>
        <time>2014-10-02T14:36:21Z</time>
      </trkpt>
      <trkpt lat="42.6829690" lon="-7.0977840">
        <ele>1058.4</ele>
        <time>2014-10-02T14:36:22Z</time>
      </trkpt>
      <trkpt lat="42.6830070" lon="-7.0978220">
        <ele>1058.8</ele>
        <time>2014-10-02T14:36:24Z</time>
      </trkpt>
      <trkpt lat="42.6830280" lon="-7.0978460">
        <ele>1059.0</ele>
        <time>2014-10-02T14:36:25Z</time>
      </trkpt>
      <trkpt lat="42.6830740" lon="-7.0978990">
        <ele>1059.5</ele>
        <time>2014-10-02T14:36:27Z</time>
      </trkpt>
      <trkpt lat="42.6830960" lon="-7.0979210">
        <ele>1059.8</ele>
        <time>2014-10-02T14:36:28Z</time>
      </trkpt>
      <trkpt lat="42.6831310" lon="-7.0979560">
        <ele>1060.1</ele>
        <time>2014-10-02T14:36:30Z</time>
      </trkpt>
      <trkpt lat="42.6831670" lon="-7.0979870">
        <ele>1060.4</ele>
        <time>2014-10-02T14:36:32Z</time>
      </trkpt>
      <trkpt lat="42.6831920" lon="-7.0980090">
        <ele>1060.6</ele>
        <time>2014-10-02T14:36:33Z</time>
      </trkpt>
      <trkpt lat="42.6832180" lon="-7.0980330">
        <ele>1060.8</ele>
        <time>2014-10-02T14:36:34Z</time>
      </trkpt>
      <trkpt lat="42.6832430" lon="-7.0980540">
        <ele>1061.0</ele>
        <time>2014-10-02T14:36:35Z</time>
      </trkpt>
      <trkpt lat="42.6832720" lon="-7.0980770">
        <ele>1061.2</ele>
        <time>2014-10-02T14:36:36Z</time>
      </trkpt>
      <trkpt lat="42.6833020" lon="-7.0981000">
        <ele>1061.5</ele>
        <time>2014-10-02T14:36:37Z</time>
      </trkpt>
      <trkpt lat="42.6833300" lon="-7.0981210">
        <ele>1061.7</ele>
        <time>2014-10-02T14:36:38Z</time>
      </trkpt>
      <trkpt lat="42.6833700" lon="-7.0981530">
        <ele>1062.0</ele>
        <time>2014-10-02T14:36:39Z</time>
      </trkpt>
      <trkpt lat="42.6834060" lon="-7.0981810">
        <ele>1062.3</ele>
        <time>2014-10-02T14:36:40Z</time>
      </trkpt>
      <trkpt lat="42.6834440" lon="-7.0982090">
        <ele>1062.6</ele>
        <time>2014-10-02T14:36:41Z</time>
      </trkpt>
      <trkpt lat="42.6834700" lon="-7.0982300">
        <ele>1062.8</ele>
        <time>2014-10-02T14:36:42Z</time>
      </trkpt>
      <trkpt lat="42.6835080" lon="-7.0982610">
        <ele>1063.1</ele>
        <time>2014-10-02T14:36:43Z</time>
      </trkpt>
      <trkpt lat="42.6835400" lon="-7.0982900">
        <ele>1063.3</ele>
        <time>2014-10-02T14:36:44Z</time>
      </trkpt>
      <trkpt lat="42.6835690" lon="-7.0983140">
        <ele>1063.5</ele>
        <time>2014-10-02T14:36:45Z</time>
      </trkpt>
      <trkpt lat="42.6835960" lon="-7.0983340">
        <ele>1063.7</ele>
        <time>2014-10-02T14:36:46Z</time>
      </trkpt>
      <trkpt lat="42.6836240" lon="-7.0983540">
        <ele>1063.9</ele>
        <time>2014-10-02T14:36:47Z</time>
      </trkpt>
      <trkpt lat="42.6836510" lon="-7.0983690">
        <ele>1064.1</ele>
        <time>2014-10-02T14:36:48Z</time>
      </trkpt>
      <trkpt lat="42.6836990" lon="-7.0984000">
        <ele>1064.5</ele>
        <time>2014-10-02T14:36:50Z</time>
      </trkpt>
      <trkpt lat="42.6837250" lon="-7.0984180">
        <ele>1064.7</ele>
        <time>2014-10-02T14:36:51Z</time>
      </trkpt>
      <trkpt lat="42.6837510" lon="-7.0984370">
        <ele>1064.9</ele>
        <time>2014-10-02T14:36:52Z</time>
      </trkpt>
      <trkpt lat="42.6837790" lon="-7.0984590">
        <ele>1065.1</ele>
        <time>2014-10-02T14:36:53Z</time>
      </trkpt>
      <trkpt lat="42.6838050" lon="-7.0984840">
        <ele>1065.3</ele>
        <time>2014-10-02T14:36:54Z</time>
      </trkpt>
      <trkpt lat="42.6838340" lon="-7.0985140">
        <ele>1065.5</ele>
        <time>2014-10-02T14:36:55Z</time>
      </trkpt>
      <trkpt lat="42.6838660" lon="-7.0985430">
        <ele>1065.7</ele>
        <time>2014-10-02T14:36:56Z</time>
      </trkpt>
      <trkpt lat="42.6839020" lon="-7.0985760">
        <ele>1066.0</ele>
        <time>2014-10-02T14:36:57Z</time>
      </trkpt>
      <trkpt lat="42.6839380" lon="-7.0986080">
        <ele>1066.3</ele>
        <time>2014-10-02T14:36:58Z</time>
      </trkpt>
      <trkpt lat="42.6839750" lon="-7.0986380">
        <ele>1066.5</ele>
        <time>2014-10-02T14:36:59Z</time>
      </trkpt>
      <trkpt lat="42.6840170" lon="-7.0986670">
        <ele>1066.7</ele>
        <time>2014-10-02T14:37:00Z</time>
      </trkpt>
      <trkpt lat="42.6840640" lon="-7.0986930">
        <ele>1066.9</ele>
        <time>2014-10-02T14:37:01Z</time>
      </trkpt>
      <trkpt lat="42.6841160" lon="-7.0986950">
        <ele>1067.1</ele>
        <time>2014-10-02T14:37:02Z</time>
      </trkpt>
      <trkpt lat="42.6841720" lon="-7.0986950">
        <ele>1067.3</ele>
        <time>2014-10-02T14:37:03Z</time>
      </trkpt>
      <trkpt lat="42.6842290" lon="-7.0986930">
        <ele>1067.4</ele>
        <time>2014-10-02T14:37:04Z</time>
      </trkpt>
      <trkpt lat="42.6842970" lon="-7.0986890">
        <ele>1067.6</ele>
        <time>2014-10-02T14:37:05Z</time>
      </trkpt>
      <trkpt lat="42.6843650" lon="-7.0986810">
        <ele>1067.8</ele>
        <time>2014-10-02T14:37:06Z</time>
      </trkpt>
      <trkpt lat="42.6844340" lon="-7.0986730">
        <ele>1067.9</ele>
        <time>2014-10-02T14:37:07Z</time>
      </trkpt>
      <trkpt lat="42.6844980" lon="-7.0986650">
        <ele>1068.0</ele>
        <time>2014-10-02T14:37:08Z</time>
      </trkpt>
      <trkpt lat="42.6845630" lon="-7.0986560">
        <ele>1068.0</ele>
        <time>2014-10-02T14:37:09Z</time>
      </trkpt>
      <trkpt lat="42.6846740" lon="-7.0986660">
        <ele>1067.9</ele>
        <time>2014-10-02T14:37:10Z</time>
      </trkpt>
      <trkpt lat="42.6848110" lon="-7.0986850">
        <ele>1067.9</ele>
        <time>2014-10-02T14:37:11Z</time>
      </trkpt>
      <trkpt lat="42.6849490" lon="-7.0987030">
        <ele>1068.1</ele>
        <time>2014-10-02T14:37:12Z</time>
      </trkpt>
      <trkpt lat="42.6850740" lon="-7.0987140">
        <ele>1068.2</ele>
        <time>2014-10-02T14:37:13Z</time>
      </trkpt>
      <trkpt lat="42.6851890" lon="-7.0987240">
        <ele>1068.4</ele>
        <time>2014-10-02T14:37:14Z</time>
      </trkpt>
      <trkpt lat="42.6853050" lon="-7.0987340">
        <ele>1068.5</ele>
        <time>2014-10-02T14:37:15Z</time>
      </trkpt>
      <trkpt lat="42.6854030" lon="-7.0987460">
        <ele>1068.6</ele>
        <time>2014-10-02T14:37:16Z</time>
      </trkpt>
      <trkpt lat="42.6854880" lon="-7.0987660">
        <ele>1068.6</ele>
        <time>2014-10-02T14:37:17Z</time>
      </trkpt>
      <trkpt lat="42.6855580" lon="-7.0988160">
        <ele>1068.5</ele>
        <time>2014-10-02T14:37:18Z</time>
      </trkpt>
      <trkpt lat="42.6856200" lon="-7.0989010">
        <ele>1068.2</ele>
        <time>2014-10-02T14:37:19Z</time>
      </trkpt>
      <trkpt lat="42.6856780" lon="-7.0989940">
        <ele>1068.0</ele>
        <time>2014-10-02T14:37:20Z</time>
      </trkpt>
      <trkpt lat="42.6857240" lon="-7.0991050">
        <ele>1067.8</ele>
        <time>2014-10-02T14:37:21Z</time>
      </trkpt>
      <trkpt lat="42.6857710" lon="-7.0992290">
        <ele>1067.7</ele>
        <time>2014-10-02T14:37:22Z</time>
      </trkpt>
      <trkpt lat="42.6858130" lon="-7.0993550">
        <ele>1067.6</ele>
        <time>2014-10-02T14:37:23Z</time>
      </trkpt>
      <trkpt lat="42.6858500" lon="-7.0994720">
        <ele>1067.5</ele>
        <time>2014-10-02T14:37:24Z</time>
      </trkpt>
      <trkpt lat="42.6858870" lon="-7.0995830">
        <ele>1067.6</ele>
        <time>2014-10-02T14:37:25Z</time>
      </trkpt>
      <trkpt lat="42.6859260" lon="-7.0996920">
        <ele>1067.7</ele>
        <time>2014-10-02T14:37:26Z</time>
      </trkpt>
      <trkpt lat="42.6859670" lon="-7.0997990">
        <ele>1067.8</ele>
        <time>2014-10-02T14:37:27Z</time>
      </trkpt>
      <trkpt lat="42.6860210" lon="-7.0998850">
        <ele>1068.0</ele>
        <time>2014-10-02T14:37:28Z</time>
      </trkpt>
      <trkpt lat="42.6860700" lon="-7.0999620">
        <ele>1068.1</ele>
        <time>2014-10-02T14:37:29Z</time>
      </trkpt>
      <trkpt lat="42.6861180" lon="-7.1000390">
        <ele>1068.3</ele>
        <time>2014-10-02T14:37:30Z</time>
      </trkpt>
      <trkpt lat="42.6861720" lon="-7.1001150">
        <ele>1068.6</ele>
        <time>2014-10-02T14:37:31Z</time>
      </trkpt>
      <trkpt lat="42.6862240" lon="-7.1001900">
        <ele>1068.7</ele>
        <time>2014-10-02T14:37:32Z</time>
      </trkpt>
      <trkpt lat="42.6862710" lon="-7.1002650">
        <ele>1068.7</ele>
        <time>2014-10-02T14:37:33Z</time>
      </trkpt>
      <trkpt lat="42.6863170" lon="-7.1003410">
        <ele>1068.6</ele>
        <time>2014-10-02T14:37:34Z</time>
      </trkpt>
      <trkpt lat="42.6863590" lon="-7.1004170">
        <ele>1069.1</ele>
        <time>2014-10-02T14:37:35Z</time>
      </trkpt>
      <trkpt lat="42.6863960" lon="-7.1004860">
        <ele>1069.5</ele>
        <time>2014-10-02T14:37:36Z</time>
      </trkpt>
      <trkpt lat="42.6864390" lon="-7.1005620">
        <ele>1070.0</ele>
        <time>2014-10-02T14:37:37Z</time>
      </trkpt>
      <trkpt lat="42.6864800" lon="-7.1006380">
        <ele>1070.6</ele>
        <time>2014-10-02T14:37:38Z</time>
      </trkpt>
      <trkpt lat="42.6865130" lon="-7.1006990">
        <ele>1071.1</ele>
        <time>2014-10-02T14:37:39Z</time>
      </trkpt>
      <trkpt lat="42.6865460" lon="-7.1007560">
        <ele>1071.6</ele>
        <time>2014-10-02T14:37:40Z</time>
      </trkpt>
      <trkpt lat="42.6865740" lon="-7.1007970">
        <ele>1071.9</ele>
        <time>2014-10-02T14:37:41Z</time>
      </trkpt>
      <trkpt lat="42.6866110" lon="-7.1008270">
        <ele>1072.3</ele>
        <time>2014-10-02T14:37:42Z</time>
      </trkpt>
      <trkpt lat="42.6866450" lon="-7.1008520">
        <ele>1072.6</ele>
        <time>2014-10-02T14:37:43Z</time>
      </trkpt>
      <trkpt lat="42.6867050" lon="-7.1008370">
        <ele>1073.1</ele>
        <time>2014-10-02T14:37:44Z</time>
      </trkpt>
      <trkpt lat="42.6867470" lon="-7.1007960">
        <ele>1073.5</ele>
        <time>2014-10-02T14:37:45Z</time>
      </trkpt>
      <trkpt lat="42.6867880" lon="-7.1007430">
        <ele>1074.0</ele>
        <time>2014-10-02T14:37:46Z</time>
      </trkpt>
      <trkpt lat="42.6868380" lon="-7.1006860">
        <ele>1074.6</ele>
        <time>2014-10-02T14:37:47Z</time>
      </trkpt>
      <trkpt lat="42.6868640" lon="-7.1006390">
        <ele>1075.8</ele>
        <time>2014-10-02T14:37:48Z</time>
      </trkpt>
      <trkpt lat="42.6868700" lon="-7.1005530">
        <ele>1076.1</ele>
        <time>2014-10-02T14:37:50Z</time>
      </trkpt>
      <trkpt lat="42.6868570" lon="-7.1004850">
        <ele>1076.3</ele>
        <time>2014-10-02T14:37:51Z</time>
      </trkpt>
      <trkpt lat="42.6868430" lon="-7.1004280">
        <ele>1076.4</ele>
        <time>2014-10-02T14:37:52Z</time>
      </trkpt>
      <trkpt lat="42.6868210" lon="-7.1003700">
        <ele>1076.6</ele>
        <time>2014-10-02T14:37:53Z</time>
      </trkpt>
      <trkpt lat="42.6868000" lon="-7.1003180">
        <ele>1076.8</ele>
        <time>2014-10-02T14:37:54Z</time>
      </trkpt>
      <trkpt lat="42.6867750" lon="-7.1002610">
        <ele>1077.0</ele>
        <time>2014-10-02T14:37:55Z</time>
      </trkpt>
      <trkpt lat="42.6867500" lon="-7.1002050">
        <ele>1077.2</ele>
        <time>2014-10-02T14:37:56Z</time>
      </trkpt>
      <trkpt lat="42.6867270" lon="-7.1001480">
        <ele>1077.5</ele>
        <time>2014-10-02T14:37:57Z</time>
      </trkpt>
      <trkpt lat="42.6867050" lon="-7.1000930">
        <ele>1077.7</ele>
        <time>2014-10-02T14:37:58Z</time>
      </trkpt>
      <trkpt lat="42.6866850" lon="-7.1000390">
        <ele>1077.9</ele>
        <time>2014-10-02T14:37:59Z</time>
      </trkpt>
      <trkpt lat="42.6866640" lon="-7.0999780">
        <ele>1078.1</ele>
        <time>2014-10-02T14:38:00Z</time>
      </trkpt>
      <trkpt lat="42.6866460" lon="-7.0999220">
        <ele>1078.2</ele>
        <time>2014-10-02T14:38:01Z</time>
      </trkpt>
      <trkpt lat="42.6866310" lon="-7.0998640">
        <ele>1078.4</ele>
        <time>2014-10-02T14:38:02Z</time>
      </trkpt>
      <trkpt lat="42.6866150" lon="-7.0998030">
        <ele>1078.5</ele>
        <time>2014-10-02T14:38:03Z</time>
      </trkpt>
      <trkpt lat="42.6866030" lon="-7.0997450">
        <ele>1078.6</ele>
        <time>2014-10-02T14:38:04Z</time>
      </trkpt>
      <trkpt lat="42.6866020" lon="-7.0996830">
        <ele>1078.7</ele>
        <time>2014-10-02T14:38:05Z</time>
      </trkpt>
      <trkpt lat="42.6866030" lon="-7.0996290">
        <ele>1078.8</ele>
        <time>2014-10-02T14:38:06Z</time>
      </trkpt>
      <trkpt lat="42.6866060" lon="-7.0995570">
        <ele>1078.9</ele>
        <time>2014-10-02T14:38:07Z</time>
      </trkpt>
      <trkpt lat="42.6866180" lon="-7.0994850">
        <ele>1079.1</ele>
        <time>2014-10-02T14:38:08Z</time>
      </trkpt>
      <trkpt lat="42.6866340" lon="-7.0994180">
        <ele>1079.2</ele>
        <time>2014-10-02T14:38:09Z</time>
      </trkpt>
      <trkpt lat="42.6866520" lon="-7.0993550">
        <ele>1079.4</ele>
        <time>2014-10-02T14:38:10Z</time>
      </trkpt>
      <trkpt lat="42.6866710" lon="-7.0993020">
        <ele>1079.6</ele>
        <time>2014-10-02T14:38:11Z</time>
      </trkpt>
      <trkpt lat="42.6866950" lon="-7.0992420">
        <ele>1079.8</ele>
        <time>2014-10-02T14:38:12Z</time>
      </trkpt>
      <trkpt lat="42.6867250" lon="-7.0991850">
        <ele>1080.0</ele>
        <time>2014-10-02T14:38:13Z</time>
      </trkpt>
      <trkpt lat="42.6867610" lon="-7.0991170">
        <ele>1080.3</ele>
        <time>2014-10-02T14:38:14Z</time>
      </trkpt>
      <trkpt lat="42.6867940" lon="-7.0990610">
        <ele>1080.5</ele>
        <time>2014-10-02T14:38:15Z</time>
      </trkpt>
      <trkpt lat="42.6868290" lon="-7.0990040">
        <ele>1080.8</ele>
        <time>2014-10-02T14:38:16Z</time>
      </trkpt>
      <trkpt lat="42.6868630" lon="-7.0989450">
        <ele>1081.0</ele>
        <time>2014-10-02T14:38:17Z</time>
      </trkpt>
      <trkpt lat="42.6868960" lon="-7.0988940">
        <ele>1081.2</ele>
        <time>2014-10-02T14:38:18Z</time>
      </trkpt>
      <trkpt lat="42.6869280" lon="-7.0988450">
        <ele>1081.4</ele>
        <time>2014-10-02T14:38:19Z</time>
      </trkpt>
      <trkpt lat="42.6869620" lon="-7.0987900">
        <ele>1081.5</ele>
        <time>2014-10-02T14:38:20Z</time>
      </trkpt>
      <trkpt lat="42.6870010" lon="-7.0987320">
        <ele>1081.7</ele>
        <time>2014-10-02T14:38:21Z</time>
      </trkpt>
      <trkpt lat="42.6870370" lon="-7.0986770">
        <ele>1081.8</ele>
        <time>2014-10-02T14:38:22Z</time>
      </trkpt>
      <trkpt lat="42.6870730" lon="-7.0986210">
        <ele>1082.0</ele>
        <time>2014-10-02T14:38:23Z</time>
      </trkpt>
      <trkpt lat="42.6871040" lon="-7.0985740">
        <ele>1082.2</ele>
        <time>2014-10-02T14:38:24Z</time>
      </trkpt>
      <trkpt lat="42.6871380" lon="-7.0985230">
        <ele>1082.4</ele>
        <time>2014-10-02T14:38:25Z</time>
      </trkpt>
      <trkpt lat="42.6871720" lon="-7.0984740">
        <ele>1082.6</ele>
        <time>2014-10-02T14:38:26Z</time>
      </trkpt>
      <trkpt lat="42.6872060" lon="-7.0984250">
        <ele>1082.8</ele>
        <time>2014-10-02T14:38:27Z</time>
      </trkpt>
      <trkpt lat="42.6872360" lon="-7.0983800">
        <ele>1083.0</ele>
        <time>2014-10-02T14:38:28Z</time>
      </trkpt>
      <trkpt lat="42.6872630" lon="-7.0983410">
        <ele>1083.1</ele>
        <time>2014-10-02T14:38:29Z</time>
      </trkpt>
      <trkpt lat="42.6872920" lon="-7.0982950">
        <ele>1083.3</ele>
        <time>2014-10-02T14:38:30Z</time>
      </trkpt>
      <trkpt lat="42.6873190" lon="-7.0982460">
        <ele>1083.5</ele>
        <time>2014-10-02T14:38:31Z</time>
      </trkpt>
      <trkpt lat="42.6873480" lon="-7.0981960">
        <ele>1083.8</ele>
        <time>2014-10-02T14:38:32Z</time>
      </trkpt>
      <trkpt lat="42.6873770" lon="-7.0981480">
        <ele>1084.0</ele>
        <time>2014-10-02T14:38:33Z</time>
      </trkpt>
      <trkpt lat="42.6874060" lon="-7.0980990">
        <ele>1084.2</ele>
        <time>2014-10-02T14:38:34Z</time>
      </trkpt>
      <trkpt lat="42.6874350" lon="-7.0980530">
        <ele>1084.5</ele>
        <time>2014-10-02T14:38:35Z</time>
      </trkpt>
      <trkpt lat="42.6874640" lon="-7.0980080">
        <ele>1084.7</ele>
        <time>2014-10-02T14:38:36Z</time>
      </trkpt>
      <trkpt lat="42.6874940" lon="-7.0979650">
        <ele>1084.9</ele>
        <time>2014-10-02T14:38:37Z</time>
      </trkpt>
      <trkpt lat="42.6875200" lon="-7.0979260">
        <ele>1085.1</ele>
        <time>2014-10-02T14:38:38Z</time>
      </trkpt>
      <trkpt lat="42.6875450" lon="-7.0978840">
        <ele>1085.4</ele>
        <time>2014-10-02T14:38:39Z</time>
      </trkpt>
      <trkpt lat="42.6875720" lon="-7.0978380">
        <ele>1085.6</ele>
        <time>2014-10-02T14:38:40Z</time>
      </trkpt>
      <trkpt lat="42.6875980" lon="-7.0977950">
        <ele>1085.9</ele>
        <time>2014-10-02T14:38:41Z</time>
      </trkpt>
      <trkpt lat="42.6876200" lon="-7.0977560">
        <ele>1086.1</ele>
        <time>2014-10-02T14:38:42Z</time>
      </trkpt>
      <trkpt lat="42.6876420" lon="-7.0977140">
        <ele>1086.3</ele>
        <time>2014-10-02T14:38:43Z</time>
      </trkpt>
      <trkpt lat="42.6876620" lon="-7.0976740">
        <ele>1086.5</ele>
        <time>2014-10-02T14:38:44Z</time>
      </trkpt>
      <trkpt lat="42.6876800" lon="-7.0976310">
        <ele>1086.7</ele>
        <time>2014-10-02T14:38:45Z</time>
      </trkpt>
      <trkpt lat="42.6876960" lon="-7.0975900">
        <ele>1086.9</ele>
        <time>2014-10-02T14:38:46Z</time>
      </trkpt>
      <trkpt lat="42.6877150" lon="-7.0975420">
        <ele>1087.1</ele>
        <time>2014-10-02T14:38:47Z</time>
      </trkpt>
      <trkpt lat="42.6877240" lon="-7.0975070">
        <ele>1087.3</ele>
        <time>2014-10-02T14:38:48Z</time>
      </trkpt>
      <trkpt lat="42.6877330" lon="-7.0974690">
        <ele>1087.4</ele>
        <time>2014-10-02T14:38:49Z</time>
      </trkpt>
      <trkpt lat="42.6877430" lon="-7.0974250">
        <ele>1087.5</ele>
        <time>2014-10-02T14:38:50Z</time>
      </trkpt>
      <trkpt lat="42.6877510" lon="-7.0973810">
        <ele>1087.6</ele>
        <time>2014-10-02T14:38:51Z</time>
      </trkpt>
      <trkpt lat="42.6877610" lon="-7.0973330">
        <ele>1087.7</ele>
        <time>2014-10-02T14:38:52Z</time>
      </trkpt>
      <trkpt lat="42.6877720" lon="-7.0972810">
        <ele>1087.7</ele>
        <time>2014-10-02T14:38:53Z</time>
      </trkpt>
      <trkpt lat="42.6877830" lon="-7.0972220">
        <ele>1087.8</ele>
        <time>2014-10-02T14:38:54Z</time>
      </trkpt>
      <trkpt lat="42.6877960" lon="-7.0971640">
        <ele>1087.8</ele>
        <time>2014-10-02T14:38:55Z</time>
      </trkpt>
      <trkpt lat="42.6878080" lon="-7.0971100">
        <ele>1087.7</ele>
        <time>2014-10-02T14:38:56Z</time>
      </trkpt>
      <trkpt lat="42.6878180" lon="-7.0970610">
        <ele>1087.7</ele>
        <time>2014-10-02T14:38:57Z</time>
      </trkpt>
      <trkpt lat="42.6878300" lon="-7.0970090">
        <ele>1087.7</ele>
        <time>2014-10-02T14:38:58Z</time>
      </trkpt>
      <trkpt lat="42.6878430" lon="-7.0969470">
        <ele>1087.6</ele>
        <time>2014-10-02T14:38:59Z</time>
      </trkpt>
      <trkpt lat="42.6878540" lon="-7.0968810">
        <ele>1087.5</ele>
        <time>2014-10-02T14:39:00Z</time>
      </trkpt>
      <trkpt lat="42.6878660" lon="-7.0968130">
        <ele>1087.4</ele>
        <time>2014-10-02T14:39:01Z</time>
      </trkpt>
      <trkpt lat="42.6878740" lon="-7.0967480">
        <ele>1087.3</ele>
        <time>2014-10-02T14:39:02Z</time>
      </trkpt>
      <trkpt lat="42.6878830" lon="-7.0966750">
        <ele>1087.1</ele>
        <time>2014-10-02T14:39:03Z</time>
      </trkpt>
      <trkpt lat="42.6878900" lon="-7.0966040">
        <ele>1086.9</ele>
        <time>2014-10-02T14:39:04Z</time>
      </trkpt>
      <trkpt lat="42.6878950" lon="-7.0965340">
        <ele>1086.7</ele>
        <time>2014-10-02T14:39:05Z</time>
      </trkpt>
      <trkpt lat="42.6878980" lon="-7.0964710">
        <ele>1086.5</ele>
        <time>2014-10-02T14:39:06Z</time>
      </trkpt>
      <trkpt lat="42.6879020" lon="-7.0964010">
        <ele>1086.3</ele>
        <time>2014-10-02T14:39:07Z</time>
      </trkpt>
      <trkpt lat="42.6879080" lon="-7.0963200">
        <ele>1086.1</ele>
        <time>2014-10-02T14:39:08Z</time>
      </trkpt>
      <trkpt lat="42.6879130" lon="-7.0962390">
        <ele>1085.9</ele>
        <time>2014-10-02T14:39:09Z</time>
      </trkpt>
      <trkpt lat="42.6879170" lon="-7.0961570">
        <ele>1085.6</ele>
        <time>2014-10-02T14:39:10Z</time>
      </trkpt>
      <trkpt lat="42.6879230" lon="-7.0960660">
        <ele>1085.3</ele>
        <time>2014-10-02T14:39:11Z</time>
      </trkpt>
      <trkpt lat="42.6879410" lon="-7.0959880">
        <ele>1085.1</ele>
        <time>2014-10-02T14:39:12Z</time>
      </trkpt>
      <trkpt lat="42.6879730" lon="-7.0959130">
        <ele>1084.7</ele>
        <time>2014-10-02T14:39:13Z</time>
      </trkpt>
      <trkpt lat="42.6880270" lon="-7.0958500">
        <ele>1084.3</ele>
        <time>2014-10-02T14:39:14Z</time>
      </trkpt>
      <trkpt lat="42.6880930" lon="-7.0957830">
        <ele>1083.7</ele>
        <time>2014-10-02T14:39:15Z</time>
      </trkpt>
      <trkpt lat="42.6881700" lon="-7.0957210">
        <ele>1083.1</ele>
        <time>2014-10-02T14:39:16Z</time>
      </trkpt>
      <trkpt lat="42.6882510" lon="-7.0956650">
        <ele>1082.3</ele>
        <time>2014-10-02T14:39:17Z</time>
      </trkpt>
      <trkpt lat="42.6883320" lon="-7.0956160">
        <ele>1081.6</ele>
        <time>2014-10-02T14:39:18Z</time>
      </trkpt>
      <trkpt lat="42.6884090" lon="-7.0955740">
        <ele>1081.0</ele>
        <time>2014-10-02T14:39:19Z</time>
      </trkpt>
      <trkpt lat="42.6884910" lon="-7.0955340">
        <ele>1080.5</ele>
        <time>2014-10-02T14:39:20Z</time>
      </trkpt>
      <trkpt lat="42.6885760" lon="-7.0954910">
        <ele>1080.1</ele>
        <time>2014-10-02T14:39:21Z</time>
      </trkpt>
      <trkpt lat="42.6886630" lon="-7.0954460">
        <ele>1079.7</ele>
        <time>2014-10-02T14:39:22Z</time>
      </trkpt>
      <trkpt lat="42.6887470" lon="-7.0954030">
        <ele>1079.3</ele>
        <time>2014-10-02T14:39:23Z</time>
      </trkpt>
      <trkpt lat="42.6888240" lon="-7.0953600">
        <ele>1079.1</ele>
        <time>2014-10-02T14:39:24Z</time>
      </trkpt>
      <trkpt lat="42.6889030" lon="-7.0953150">
        <ele>1079.1</ele>
        <time>2014-10-02T14:39:25Z</time>
      </trkpt>
      <trkpt lat="42.6889860" lon="-7.0952710">
        <ele>1079.0</ele>
        <time>2014-10-02T14:39:26Z</time>
      </trkpt>
      <trkpt lat="42.6890560" lon="-7.0952420">
        <ele>1078.7</ele>
        <time>2014-10-02T14:39:27Z</time>
      </trkpt>
      <trkpt lat="42.6891400" lon="-7.0952460">
        <ele>1078.0</ele>
        <time>2014-10-02T14:39:28Z</time>
      </trkpt>
      <trkpt lat="42.6892180" lon="-7.0952800">
        <ele>1077.3</ele>
        <time>2014-10-02T14:39:29Z</time>
      </trkpt>
      <trkpt lat="42.6892740" lon="-7.0953350">
        <ele>1077.2</ele>
        <time>2014-10-02T14:39:30Z</time>
      </trkpt>
      <trkpt lat="42.6893250" lon="-7.0953910">
        <ele>1077.2</ele>
        <time>2014-10-02T14:39:31Z</time>
      </trkpt>
      <trkpt lat="42.6893770" lon="-7.0954540">
        <ele>1077.4</ele>
        <time>2014-10-02T14:39:32Z</time>
      </trkpt>
      <trkpt lat="42.6894270" lon="-7.0955240">
        <ele>1077.7</ele>
        <time>2014-10-02T14:39:33Z</time>
      </trkpt>
      <trkpt lat="42.6894690" lon="-7.0955880">
        <ele>1078.0</ele>
        <time>2014-10-02T14:39:34Z</time>
      </trkpt>
      <trkpt lat="42.6895110" lon="-7.0956560">
        <ele>1078.4</ele>
        <time>2014-10-02T14:39:35Z</time>
      </trkpt>
      <trkpt lat="42.6895450" lon="-7.0957160">
        <ele>1078.7</ele>
        <time>2014-10-02T14:39:36Z</time>
      </trkpt>
      <trkpt lat="42.6895820" lon="-7.0957800">
        <ele>1079.1</ele>
        <time>2014-10-02T14:39:37Z</time>
      </trkpt>
      <trkpt lat="42.6896170" lon="-7.0958440">
        <ele>1079.4</ele>
        <time>2014-10-02T14:39:38Z</time>
      </trkpt>
      <trkpt lat="42.6896490" lon="-7.0959060">
        <ele>1079.8</ele>
        <time>2014-10-02T14:39:39Z</time>
      </trkpt>
      <trkpt lat="42.6896770" lon="-7.0959680">
        <ele>1080.2</ele>
        <time>2014-10-02T14:39:40Z</time>
      </trkpt>
      <trkpt lat="42.6897000" lon="-7.0960380">
        <ele>1080.6</ele>
        <time>2014-10-02T14:39:41Z</time>
      </trkpt>
      <trkpt lat="42.6897200" lon="-7.0960970">
        <ele>1080.9</ele>
        <time>2014-10-02T14:39:42Z</time>
      </trkpt>
      <trkpt lat="42.6897410" lon="-7.0961610">
        <ele>1081.1</ele>
        <time>2014-10-02T14:39:43Z</time>
      </trkpt>
      <trkpt lat="42.6897580" lon="-7.0962140">
        <ele>1081.4</ele>
        <time>2014-10-02T14:39:44Z</time>
      </trkpt>
      <trkpt lat="42.6897790" lon="-7.0962610">
        <ele>1081.6</ele>
        <time>2014-10-02T14:39:45Z</time>
      </trkpt>
      <trkpt lat="42.6898030" lon="-7.0963060">
        <ele>1081.8</ele>
        <time>2014-10-02T14:39:46Z</time>
      </trkpt>
      <trkpt lat="42.6898270" lon="-7.0963450">
        <ele>1082.0</ele>
        <time>2014-10-02T14:39:47Z</time>
      </trkpt>
      <trkpt lat="42.6898510" lon="-7.0963810">
        <ele>1082.3</ele>
        <time>2014-10-02T14:39:48Z</time>
      </trkpt>
      <trkpt lat="42.6898760" lon="-7.0964170">
        <ele>1082.5</ele>
        <time>2014-10-02T14:39:49Z</time>
      </trkpt>
      <trkpt lat="42.6899100" lon="-7.0964640">
        <ele>1082.8</ele>
        <time>2014-10-02T14:39:51Z</time>
      </trkpt>
      <trkpt lat="42.6899480" lon="-7.0965010">
        <ele>1083.2</ele>
        <time>2014-10-02T14:39:53Z</time>
      </trkpt>
      <trkpt lat="42.6899840" lon="-7.0965330">
        <ele>1083.5</ele>
        <time>2014-10-02T14:39:55Z</time>
      </trkpt>
      <trkpt lat="42.6900300" lon="-7.0965730">
        <ele>1083.8</ele>
        <time>2014-10-02T14:39:57Z</time>
      </trkpt>
      <trkpt lat="42.6900710" lon="-7.0966140">
        <ele>1084.1</ele>
        <time>2014-10-02T14:39:59Z</time>
      </trkpt>
      <trkpt lat="42.6900960" lon="-7.0966330">
        <ele>1084.3</ele>
        <time>2014-10-02T14:40:00Z</time>
      </trkpt>
      <trkpt lat="42.6901220" lon="-7.0966520">
        <ele>1084.5</ele>
        <time>2014-10-02T14:40:01Z</time>
      </trkpt>
      <trkpt lat="42.6901520" lon="-7.0966620">
        <ele>1084.7</ele>
        <time>2014-10-02T14:40:02Z</time>
      </trkpt>
      <trkpt lat="42.6902090" lon="-7.0966740">
        <ele>1085.2</ele>
        <time>2014-10-02T14:40:04Z</time>
      </trkpt>
      <trkpt lat="42.6902410" lon="-7.0966770">
        <ele>1085.4</ele>
        <time>2014-10-02T14:40:05Z</time>
      </trkpt>
      <trkpt lat="42.6902740" lon="-7.0966790">
        <ele>1085.6</ele>
        <time>2014-10-02T14:40:06Z</time>
      </trkpt>
      <trkpt lat="42.6903120" lon="-7.0966790">
        <ele>1085.9</ele>
        <time>2014-10-02T14:40:07Z</time>
      </trkpt>
      <trkpt lat="42.6903510" lon="-7.0966800">
        <ele>1086.2</ele>
        <time>2014-10-02T14:40:08Z</time>
      </trkpt>
      <trkpt lat="42.6903970" lon="-7.0966790">
        <ele>1086.5</ele>
        <time>2014-10-02T14:40:09Z</time>
      </trkpt>
      <trkpt lat="42.6904530" lon="-7.0966760">
        <ele>1086.8</ele>
        <time>2014-10-02T14:40:10Z</time>
      </trkpt>
      <trkpt lat="42.6904960" lon="-7.0966660">
        <ele>1087.0</ele>
        <time>2014-10-02T14:40:11Z</time>
      </trkpt>
      <trkpt lat="42.6905390" lon="-7.0966530">
        <ele>1087.3</ele>
        <time>2014-10-02T14:40:12Z</time>
      </trkpt>
      <trkpt lat="42.6905810" lon="-7.0966340">
        <ele>1087.5</ele>
        <time>2014-10-02T14:40:13Z</time>
      </trkpt>
      <trkpt lat="42.6906170" lon="-7.0966130">
        <ele>1087.7</ele>
        <time>2014-10-02T14:40:14Z</time>
      </trkpt>
      <trkpt lat="42.6906510" lon="-7.0965890">
        <ele>1087.8</ele>
        <time>2014-10-02T14:40:15Z</time>
      </trkpt>
      <trkpt lat="42.6906760" lon="-7.0965610">
        <ele>1088.0</ele>
        <time>2014-10-02T14:40:16Z</time>
      </trkpt>
      <trkpt lat="42.6907010" lon="-7.0965290">
        <ele>1088.2</ele>
        <time>2014-10-02T14:40:17Z</time>
      </trkpt>
      <trkpt lat="42.6907240" lon="-7.0964990">
        <ele>1088.4</ele>
        <time>2014-10-02T14:40:18Z</time>
      </trkpt>
      <trkpt lat="42.6907410" lon="-7.0964690">
        <ele>1088.5</ele>
        <time>2014-10-02T14:40:19Z</time>
      </trkpt>
      <trkpt lat="42.6907580" lon="-7.0964370">
        <ele>1088.7</ele>
        <time>2014-10-02T14:40:20Z</time>
      </trkpt>
      <trkpt lat="42.6907770" lon="-7.0964010">
        <ele>1088.9</ele>
        <time>2014-10-02T14:40:21Z</time>
      </trkpt>
      <trkpt lat="42.6907940" lon="-7.0963630">
        <ele>1089.1</ele>
        <time>2014-10-02T14:40:22Z</time>
      </trkpt>
      <trkpt lat="42.6908070" lon="-7.0963150">
        <ele>1089.3</ele>
        <time>2014-10-02T14:40:23Z</time>
      </trkpt>
      <trkpt lat="42.6908200" lon="-7.0962670">
        <ele>1089.4</ele>
        <time>2014-10-02T14:40:24Z</time>
      </trkpt>
      <trkpt lat="42.6908350" lon="-7.0962190">
        <ele>1089.6</ele>
        <time>2014-10-02T14:40:25Z</time>
      </trkpt>
      <trkpt lat="42.6908480" lon="-7.0961770">
        <ele>1089.7</ele>
        <time>2014-10-02T14:40:26Z</time>
      </trkpt>
      <trkpt lat="42.6908610" lon="-7.0961360">
        <ele>1089.9</ele>
        <time>2014-10-02T14:40:27Z</time>
      </trkpt>
      <trkpt lat="42.6908730" lon="-7.0960980">
        <ele>1090.0</ele>
        <time>2014-10-02T14:40:28Z</time>
      </trkpt>
      <trkpt lat="42.6908900" lon="-7.0960510">
        <ele>1090.1</ele>
        <time>2014-10-02T14:40:29Z</time>
      </trkpt>
      <trkpt lat="42.6909070" lon="-7.0960000">
        <ele>1090.3</ele>
        <time>2014-10-02T14:40:30Z</time>
      </trkpt>
      <trkpt lat="42.6909230" lon="-7.0959530">
        <ele>1090.5</ele>
        <time>2014-10-02T14:40:31Z</time>
      </trkpt>
      <trkpt lat="42.6909370" lon="-7.0959120">
        <ele>1090.6</ele>
        <time>2014-10-02T14:40:32Z</time>
      </trkpt>
      <trkpt lat="42.6909570" lon="-7.0958570">
        <ele>1090.8</ele>
        <time>2014-10-02T14:40:33Z</time>
      </trkpt>
      <trkpt lat="42.6909790" lon="-7.0958050">
        <ele>1091.0</ele>
        <time>2014-10-02T14:40:34Z</time>
      </trkpt>
      <trkpt lat="42.6909980" lon="-7.0957610">
        <ele>1091.1</ele>
        <time>2014-10-02T14:40:35Z</time>
      </trkpt>
      <trkpt lat="42.6910170" lon="-7.0957180">
        <ele>1091.2</ele>
        <time>2014-10-02T14:40:36Z</time>
      </trkpt>
      <trkpt lat="42.6910350" lon="-7.0956800">
        <ele>1091.4</ele>
        <time>2014-10-02T14:40:37Z</time>
      </trkpt>
      <trkpt lat="42.6910580" lon="-7.0956330">
        <ele>1091.5</ele>
        <time>2014-10-02T14:40:38Z</time>
      </trkpt>
      <trkpt lat="42.6910810" lon="-7.0955890">
        <ele>1091.7</ele>
        <time>2014-10-02T14:40:39Z</time>
      </trkpt>
      <trkpt lat="42.6911040" lon="-7.0955490">
        <ele>1091.8</ele>
        <time>2014-10-02T14:40:40Z</time>
      </trkpt>
      <trkpt lat="42.6911280" lon="-7.0955100">
        <ele>1091.9</ele>
        <time>2014-10-02T14:40:41Z</time>
      </trkpt>
      <trkpt lat="42.6911560" lon="-7.0954650">
        <ele>1092.1</ele>
        <time>2014-10-02T14:40:42Z</time>
      </trkpt>
      <trkpt lat="42.6911810" lon="-7.0954260">
        <ele>1092.2</ele>
        <time>2014-10-02T14:40:43Z</time>
      </trkpt>
      <trkpt lat="42.6912080" lon="-7.0953830">
        <ele>1092.3</ele>
        <time>2014-10-02T14:40:44Z</time>
      </trkpt>
      <trkpt lat="42.6912320" lon="-7.0953430">
        <ele>1092.5</ele>
        <time>2014-10-02T14:40:45Z</time>
      </trkpt>
      <trkpt lat="42.6912550" lon="-7.0953110">
        <ele>1092.6</ele>
        <time>2014-10-02T14:40:46Z</time>
      </trkpt>
      <trkpt lat="42.6912740" lon="-7.0952840">
        <ele>1092.7</ele>
        <time>2014-10-02T14:40:47Z</time>
      </trkpt>
      <trkpt lat="42.6912940" lon="-7.0952540">
        <ele>1092.9</ele>
        <time>2014-10-02T14:40:48Z</time>
      </trkpt>
      <trkpt lat="42.6913160" lon="-7.0952270">
        <ele>1093.0</ele>
        <time>2014-10-02T14:40:49Z</time>
      </trkpt>
      <trkpt lat="42.6913390" lon="-7.0951960">
        <ele>1093.2</ele>
        <time>2014-10-02T14:40:50Z</time>
      </trkpt>
      <trkpt lat="42.6913620" lon="-7.0951680">
        <ele>1093.4</ele>
        <time>2014-10-02T14:40:51Z</time>
      </trkpt>
      <trkpt lat="42.6913850" lon="-7.0951420">
        <ele>1093.6</ele>
        <time>2014-10-02T14:40:52Z</time>
      </trkpt>
      <trkpt lat="42.6914360" lon="-7.0950950">
        <ele>1094.0</ele>
        <time>2014-10-02T14:40:54Z</time>
      </trkpt>
      <trkpt lat="42.6914650" lon="-7.0950720">
        <ele>1094.2</ele>
        <time>2014-10-02T14:40:55Z</time>
      </trkpt>
      <trkpt lat="42.6914950" lon="-7.0950520">
        <ele>1094.5</ele>
        <time>2014-10-02T14:40:56Z</time>
      </trkpt>
      <trkpt lat="42.6915240" lon="-7.0950350">
        <ele>1094.7</ele>
        <time>2014-10-02T14:40:57Z</time>
      </trkpt>
      <trkpt lat="42.6915760" lon="-7.0950130">
        <ele>1095.1</ele>
        <time>2014-10-02T14:40:59Z</time>
      </trkpt>
      <trkpt lat="42.6916260" lon="-7.0949940">
        <ele>1095.6</ele>
        <time>2014-10-02T14:41:01Z</time>
      </trkpt>
      <trkpt lat="42.6916760" lon="-7.0949880">
        <ele>1096.1</ele>
        <time>2014-10-02T14:41:03Z</time>
      </trkpt>
      <trkpt lat="42.6917240" lon="-7.0949860">
        <ele>1096.6</ele>
        <time>2014-10-02T14:41:05Z</time>
      </trkpt>
      <trkpt lat="42.6917710" lon="-7.0949800">
        <ele>1097.0</ele>
        <time>2014-10-02T14:41:07Z</time>
      </trkpt>
      <trkpt lat="42.6918190" lon="-7.0949730">
        <ele>1097.5</ele>
        <time>2014-10-02T14:41:09Z</time>
      </trkpt>
      <trkpt lat="42.6918750" lon="-7.0949660">
        <ele>1098.1</ele>
        <time>2014-10-02T14:41:11Z</time>
      </trkpt>
      <trkpt lat="42.6919130" lon="-7.0949600">
        <ele>1098.5</ele>
        <time>2014-10-02T14:41:13Z</time>
      </trkpt>
      <trkpt lat="42.6919600" lon="-7.0949550">
        <ele>1099.0</ele>
        <time>2014-10-02T14:41:15Z</time>
      </trkpt>
      <trkpt lat="42.6919980" lon="-7.0949480">
        <ele>1099.4</ele>
        <time>2014-10-02T14:41:17Z</time>
      </trkpt>
      <trkpt lat="42.6920520" lon="-7.0949320">
        <ele>1099.9</ele>
        <time>2014-10-02T14:41:19Z</time>
      </trkpt>
      <trkpt lat="42.6920790" lon="-7.0949260">
        <ele>1100.2</ele>
        <time>2014-10-02T14:41:20Z</time>
      </trkpt>
      <trkpt lat="42.6921250" lon="-7.0949130">
        <ele>1100.7</ele>
        <time>2014-10-02T14:41:22Z</time>
      </trkpt>
      <trkpt lat="42.6921520" lon="-7.0949040">
        <ele>1101.0</ele>
        <time>2014-10-02T14:41:23Z</time>
      </trkpt>
      <trkpt lat="42.6922010" lon="-7.0948910">
        <ele>1101.5</ele>
        <time>2014-10-02T14:41:25Z</time>
      </trkpt>
      <trkpt lat="42.6922500" lon="-7.0948870">
        <ele>1102.0</ele>
        <time>2014-10-02T14:41:27Z</time>
      </trkpt>
      <trkpt lat="42.6922870" lon="-7.0948850">
        <ele>1102.3</ele>
        <time>2014-10-02T14:41:29Z</time>
      </trkpt>
      <trkpt lat="42.6923180" lon="-7.0948690">
        <ele>1102.6</ele>
        <time>2014-10-02T14:41:30Z</time>
      </trkpt>
      <trkpt lat="42.6923570" lon="-7.0948640">
        <ele>1103.0</ele>
        <time>2014-10-02T14:41:32Z</time>
      </trkpt>
      <trkpt lat="42.6923880" lon="-7.0948550">
        <ele>1103.3</ele>
        <time>2014-10-02T14:41:33Z</time>
      </trkpt>
      <trkpt lat="42.6924500" lon="-7.0948300">
        <ele>1103.9</ele>
        <time>2014-10-02T14:41:36Z</time>
      </trkpt>
      <trkpt lat="42.6924770" lon="-7.0948140">
        <ele>1104.1</ele>
        <time>2014-10-02T14:41:37Z</time>
      </trkpt>
      <trkpt lat="42.6925070" lon="-7.0947950">
        <ele>1104.4</ele>
        <time>2014-10-02T14:41:38Z</time>
      </trkpt>
      <trkpt lat="42.6925350" lon="-7.0947760">
        <ele>1104.7</ele>
        <time>2014-10-02T14:41:39Z</time>
      </trkpt>
      <trkpt lat="42.6925630" lon="-7.0947560">
        <ele>1104.9</ele>
        <time>2014-10-02T14:41:40Z</time>
      </trkpt>
      <trkpt lat="42.6925880" lon="-7.0947370">
        <ele>1105.2</ele>
        <time>2014-10-02T14:41:41Z</time>
      </trkpt>
      <trkpt lat="42.6926190" lon="-7.0947170">
        <ele>1105.4</ele>
        <time>2014-10-02T14:41:42Z</time>
      </trkpt>
      <trkpt lat="42.6926460" lon="-7.0947080">
        <ele>1105.5</ele>
        <time>2014-10-02T14:41:43Z</time>
      </trkpt>
      <trkpt lat="42.6926770" lon="-7.0946970">
        <ele>1105.6</ele>
        <time>2014-10-02T14:41:44Z</time>
      </trkpt>
      <trkpt lat="42.6927320" lon="-7.0946760">
        <ele>1105.9</ele>
        <time>2014-10-02T14:41:46Z</time>
      </trkpt>
      <trkpt lat="42.6927620" lon="-7.0946590">
        <ele>1106.0</ele>
        <time>2014-10-02T14:41:47Z</time>
      </trkpt>
      <trkpt lat="42.6928100" lon="-7.0946370">
        <ele>1106.2</ele>
        <time>2014-10-02T14:41:49Z</time>
      </trkpt>
      <trkpt lat="42.6928360" lon="-7.0946270">
        <ele>1106.3</ele>
        <time>2014-10-02T14:41:50Z</time>
      </trkpt>
      <trkpt lat="42.6928640" lon="-7.0946150">
        <ele>1106.4</ele>
        <time>2014-10-02T14:41:51Z</time>
      </trkpt>
      <trkpt lat="42.6928950" lon="-7.0946000">
        <ele>1106.6</ele>
        <time>2014-10-02T14:41:52Z</time>
      </trkpt>
      <trkpt lat="42.6929250" lon="-7.0945850">
        <ele>1106.7</ele>
        <time>2014-10-02T14:41:53Z</time>
      </trkpt>
      <trkpt lat="42.6929550" lon="-7.0945720">
        <ele>1106.9</ele>
        <time>2014-10-02T14:41:54Z</time>
      </trkpt>
      <trkpt lat="42.6930030" lon="-7.0945520">
        <ele>1107.1</ele>
        <time>2014-10-02T14:41:56Z</time>
      </trkpt>
      <trkpt lat="42.6930310" lon="-7.0945350">
        <ele>1107.3</ele>
        <time>2014-10-02T14:41:57Z</time>
      </trkpt>
      <trkpt lat="42.6930610" lon="-7.0945200">
        <ele>1107.4</ele>
        <time>2014-10-02T14:41:58Z</time>
      </trkpt>
      <trkpt lat="42.6930880" lon="-7.0945090">
        <ele>1107.6</ele>
        <time>2014-10-02T14:41:59Z</time>
      </trkpt>
      <trkpt lat="42.6931210" lon="-7.0944950">
        <ele>1107.8</ele>
        <time>2014-10-02T14:42:00Z</time>
      </trkpt>
      <trkpt lat="42.6931530" lon="-7.0944810">
        <ele>1108.0</ele>
        <time>2014-10-02T14:42:01Z</time>
      </trkpt>
      <trkpt lat="42.6931860" lon="-7.0944660">
        <ele>1108.2</ele>
        <time>2014-10-02T14:42:02Z</time>
      </trkpt>
      <trkpt lat="42.6932160" lon="-7.0944510">
        <ele>1108.4</ele>
        <time>2014-10-02T14:42:03Z</time>
      </trkpt>
      <trkpt lat="42.6932440" lon="-7.0944370">
        <ele>1108.7</ele>
        <time>2014-10-02T14:42:04Z</time>
      </trkpt>
      <trkpt lat="42.6932930" lon="-7.0944050">
        <ele>1109.1</ele>
        <time>2014-10-02T14:42:06Z</time>
      </trkpt>
      <trkpt lat="42.6933430" lon="-7.0943690">
        <ele>1109.5</ele>
        <time>2014-10-02T14:42:08Z</time>
      </trkpt>
      <trkpt lat="42.6933680" lon="-7.0943490">
        <ele>1109.8</ele>
        <time>2014-10-02T14:42:09Z</time>
      </trkpt>
      <trkpt lat="42.6934150" lon="-7.0943130">
        <ele>1110.2</ele>
        <time>2014-10-02T14:42:11Z</time>
      </trkpt>
      <trkpt lat="42.6934400" lon="-7.0942900">
        <ele>1110.4</ele>
        <time>2014-10-02T14:42:12Z</time>
      </trkpt>
      <trkpt lat="42.6934670" lon="-7.0942670">
        <ele>1110.7</ele>
        <time>2014-10-02T14:42:13Z</time>
      </trkpt>
      <trkpt lat="42.6935090" lon="-7.0942200">
        <ele>1111.1</ele>
        <time>2014-10-02T14:42:15Z</time>
      </trkpt>
      <trkpt lat="42.6935430" lon="-7.0941700">
        <ele>1111.5</ele>
        <time>2014-10-02T14:42:17Z</time>
      </trkpt>
      <trkpt lat="42.6935670" lon="-7.0941290">
        <ele>1111.9</ele>
        <time>2014-10-02T14:42:19Z</time>
      </trkpt>
      <trkpt lat="42.6935900" lon="-7.0940860">
        <ele>1112.3</ele>
        <time>2014-10-02T14:42:21Z</time>
      </trkpt>
      <trkpt lat="42.6936140" lon="-7.0940430">
        <ele>1112.6</ele>
        <time>2014-10-02T14:42:23Z</time>
      </trkpt>
      <trkpt lat="42.6936390" lon="-7.0939970">
        <ele>1113.1</ele>
        <time>2014-10-02T14:42:25Z</time>
      </trkpt>
      <trkpt lat="42.6936600" lon="-7.0939420">
        <ele>1113.5</ele>
        <time>2014-10-02T14:42:27Z</time>
      </trkpt>
      <trkpt lat="42.6936750" lon="-7.0938870">
        <ele>1114.0</ele>
        <time>2014-10-02T14:42:29Z</time>
      </trkpt>
      <trkpt lat="42.6936890" lon="-7.0938480">
        <ele>1114.3</ele>
        <time>2014-10-02T14:42:31Z</time>
      </trkpt>
      <trkpt lat="42.6937030" lon="-7.0937990">
        <ele>1114.7</ele>
        <time>2014-10-02T14:42:33Z</time>
      </trkpt>
      <trkpt lat="42.6937180" lon="-7.0937690">
        <ele>1114.9</ele>
        <time>2014-10-02T14:42:34Z</time>
      </trkpt>
      <trkpt lat="42.6937510" lon="-7.0937070">
        <ele>1115.4</ele>
        <time>2014-10-02T14:42:36Z</time>
      </trkpt>
      <trkpt lat="42.6937730" lon="-7.0936740">
        <ele>1115.7</ele>
        <time>2014-10-02T14:42:37Z</time>
      </trkpt>
      <trkpt lat="42.6937940" lon="-7.0936440">
        <ele>1116.0</ele>
        <time>2014-10-02T14:42:38Z</time>
      </trkpt>
      <trkpt lat="42.6938150" lon="-7.0936140">
        <ele>1116.3</ele>
        <time>2014-10-02T14:42:39Z</time>
      </trkpt>
      <trkpt lat="42.6938370" lon="-7.0935840">
        <ele>1116.6</ele>
        <time>2014-10-02T14:42:40Z</time>
      </trkpt>
      <trkpt lat="42.6938750" lon="-7.0935430">
        <ele>1117.2</ele>
        <time>2014-10-02T14:42:42Z</time>
      </trkpt>
      <trkpt lat="42.6939120" lon="-7.0935120">
        <ele>1117.6</ele>
        <time>2014-10-02T14:42:44Z</time>
      </trkpt>
      <trkpt lat="42.6939350" lon="-7.0934920">
        <ele>1117.8</ele>
        <time>2014-10-02T14:42:45Z</time>
      </trkpt>
      <trkpt lat="42.6939740" lon="-7.0934570">
        <ele>1118.3</ele>
        <time>2014-10-02T14:42:47Z</time>
      </trkpt>
      <trkpt lat="42.6939970" lon="-7.0934370">
        <ele>1118.5</ele>
        <time>2014-10-02T14:42:48Z</time>
      </trkpt>
      <trkpt lat="42.6940420" lon="-7.0934020">
        <ele>1119.0</ele>
        <time>2014-10-02T14:42:50Z</time>
      </trkpt>
      <trkpt lat="42.6940670" lon="-7.0933880">
        <ele>1119.3</ele>
        <time>2014-10-02T14:42:51Z</time>
      </trkpt>
      <trkpt lat="42.6940990" lon="-7.0933750">
        <ele>1119.6</ele>
        <time>2014-10-02T14:42:52Z</time>
      </trkpt>
      <trkpt lat="42.6941290" lon="-7.0933650">
        <ele>1119.9</ele>
        <time>2014-10-02T14:42:53Z</time>
      </trkpt>
      <trkpt lat="42.6941600" lon="-7.0933550">
        <ele>1120.2</ele>
        <time>2014-10-02T14:42:54Z</time>
      </trkpt>
      <trkpt lat="42.6941890" lon="-7.0933450">
        <ele>1120.4</ele>
        <time>2014-10-02T14:42:55Z</time>
      </trkpt>
      <trkpt lat="42.6942350" lon="-7.0933270">
        <ele>1120.9</ele>
        <time>2014-10-02T14:42:57Z</time>
      </trkpt>
      <trkpt lat="42.6942790" lon="-7.0933210">
        <ele>1121.2</ele>
        <time>2014-10-02T14:42:59Z</time>
      </trkpt>
      <trkpt lat="42.6943230" lon="-7.0933220">
        <ele>1121.6</ele>
        <time>2014-10-02T14:43:01Z</time>
      </trkpt>
      <trkpt lat="42.6943620" lon="-7.0933290">
        <ele>1121.9</ele>
        <time>2014-10-02T14:43:03Z</time>
      </trkpt>
      <trkpt lat="42.6944120" lon="-7.0933310">
        <ele>1122.3</ele>
        <time>2014-10-02T14:43:05Z</time>
      </trkpt>
      <trkpt lat="42.6944690" lon="-7.0933300">
        <ele>1122.8</ele>
        <time>2014-10-02T14:43:07Z</time>
      </trkpt>
      <trkpt lat="42.6944960" lon="-7.0933240">
        <ele>1123.0</ele>
        <time>2014-10-02T14:43:08Z</time>
      </trkpt>
      <trkpt lat="42.6945240" lon="-7.0933180">
        <ele>1123.3</ele>
        <time>2014-10-02T14:43:09Z</time>
      </trkpt>
      <trkpt lat="42.6945710" lon="-7.0933100">
        <ele>1123.7</ele>
        <time>2014-10-02T14:43:11Z</time>
      </trkpt>
      <trkpt lat="42.6946010" lon="-7.0933070">
        <ele>1123.9</ele>
        <time>2014-10-02T14:43:12Z</time>
      </trkpt>
      <trkpt lat="42.6946500" lon="-7.0933060">
        <ele>1124.3</ele>
        <time>2014-10-02T14:43:14Z</time>
      </trkpt>
      <trkpt lat="42.6946900" lon="-7.0933040">
        <ele>1124.7</ele>
        <time>2014-10-02T14:43:16Z</time>
      </trkpt>
      <trkpt lat="42.6947350" lon="-7.0933070">
        <ele>1125.0</ele>
        <time>2014-10-02T14:43:18Z</time>
      </trkpt>
      <trkpt lat="42.6947800" lon="-7.0933110">
        <ele>1125.4</ele>
        <time>2014-10-02T14:43:20Z</time>
      </trkpt>
      <trkpt lat="42.6948270" lon="-7.0933160">
        <ele>1125.8</ele>
        <time>2014-10-02T14:43:22Z</time>
      </trkpt>
      <trkpt lat="42.6948760" lon="-7.0933270">
        <ele>1126.3</ele>
        <time>2014-10-02T14:43:24Z</time>
      </trkpt>
      <trkpt lat="42.6949140" lon="-7.0933410">
        <ele>1126.6</ele>
        <time>2014-10-02T14:43:26Z</time>
      </trkpt>
      <trkpt lat="42.6949470" lon="-7.0933560">
        <ele>1127.0</ele>
        <time>2014-10-02T14:43:28Z</time>
      </trkpt>
      <trkpt lat="42.6949920" lon="-7.0933660">
        <ele>1127.4</ele>
        <time>2014-10-02T14:43:30Z</time>
      </trkpt>
      <trkpt lat="42.6950320" lon="-7.0933820">
        <ele>1127.9</ele>
        <time>2014-10-02T14:43:32Z</time>
      </trkpt>
      <trkpt lat="42.6950780" lon="-7.0934000">
        <ele>1128.3</ele>
        <time>2014-10-02T14:43:34Z</time>
      </trkpt>
      <trkpt lat="42.6951180" lon="-7.0934240">
        <ele>1128.7</ele>
        <time>2014-10-02T14:43:36Z</time>
      </trkpt>
      <trkpt lat="42.6951620" lon="-7.0934370">
        <ele>1129.1</ele>
        <time>2014-10-02T14:43:38Z</time>
      </trkpt>
      <trkpt lat="42.6951980" lon="-7.0934530">
        <ele>1129.5</ele>
        <time>2014-10-02T14:43:40Z</time>
      </trkpt>
      <trkpt lat="42.6952440" lon="-7.0934610">
        <ele>1130.0</ele>
        <time>2014-10-02T14:43:42Z</time>
      </trkpt>
      <trkpt lat="42.6952740" lon="-7.0934780">
        <ele>1130.3</ele>
        <time>2014-10-02T14:43:44Z</time>
      </trkpt>
      <trkpt lat="42.6953130" lon="-7.0934910">
        <ele>1130.7</ele>
        <time>2014-10-02T14:43:46Z</time>
      </trkpt>
      <trkpt lat="42.6953600" lon="-7.0935070">
        <ele>1131.2</ele>
        <time>2014-10-02T14:43:48Z</time>
      </trkpt>
      <trkpt lat="42.6954010" lon="-7.0935290">
        <ele>1131.7</ele>
        <time>2014-10-02T14:43:50Z</time>
      </trkpt>
      <trkpt lat="42.6954500" lon="-7.0935430">
        <ele>1132.1</ele>
        <time>2014-10-02T14:43:52Z</time>
      </trkpt>
      <trkpt lat="42.6954980" lon="-7.0935460">
        <ele>1132.5</ele>
        <time>2014-10-02T14:43:54Z</time>
      </trkpt>
      <trkpt lat="42.6955470" lon="-7.0935580">
        <ele>1133.0</ele>
        <time>2014-10-02T14:43:56Z</time>
      </trkpt>
      <trkpt lat="42.6956000" lon="-7.0935730">
        <ele>1133.4</ele>
        <time>2014-10-02T14:43:58Z</time>
      </trkpt>
      <trkpt lat="42.6956410" lon="-7.0935970">
        <ele>1133.8</ele>
        <time>2014-10-02T14:44:00Z</time>
      </trkpt>
      <trkpt lat="42.6956840" lon="-7.0936230">
        <ele>1134.3</ele>
        <time>2014-10-02T14:44:02Z</time>
      </trkpt>
      <trkpt lat="42.6957260" lon="-7.0936340">
        <ele>1134.7</ele>
        <time>2014-10-02T14:44:04Z</time>
      </trkpt>
      <trkpt lat="42.6958110" lon="-7.0936750">
        <ele>1135.5</ele>
        <time>2014-10-02T14:44:09Z</time>
      </trkpt>
      <trkpt lat="42.6958560" lon="-7.0936980">
        <ele>1135.9</ele>
        <time>2014-10-02T14:44:11Z</time>
      </trkpt>
      <trkpt lat="42.6959020" lon="-7.0937150">
        <ele>1136.3</ele>
        <time>2014-10-02T14:44:13Z</time>
      </trkpt>
      <trkpt lat="42.6959540" lon="-7.0937350">
        <ele>1136.8</ele>
        <time>2014-10-02T14:44:15Z</time>
      </trkpt>
      <trkpt lat="42.6959790" lon="-7.0937480">
        <ele>1137.0</ele>
        <time>2014-10-02T14:44:16Z</time>
      </trkpt>
      <trkpt lat="42.6960310" lon="-7.0937740">
        <ele>1137.5</ele>
        <time>2014-10-02T14:44:18Z</time>
      </trkpt>
      <trkpt lat="42.6960600" lon="-7.0937860">
        <ele>1137.7</ele>
        <time>2014-10-02T14:44:19Z</time>
      </trkpt>
      <trkpt lat="42.6960900" lon="-7.0937970">
        <ele>1137.9</ele>
        <time>2014-10-02T14:44:20Z</time>
      </trkpt>
      <trkpt lat="42.6961170" lon="-7.0938080">
        <ele>1138.1</ele>
        <time>2014-10-02T14:44:21Z</time>
      </trkpt>
      <trkpt lat="42.6961460" lon="-7.0938190">
        <ele>1138.4</ele>
        <time>2014-10-02T14:44:22Z</time>
      </trkpt>
      <trkpt lat="42.6961730" lon="-7.0938280">
        <ele>1138.6</ele>
        <time>2014-10-02T14:44:23Z</time>
      </trkpt>
      <trkpt lat="42.6962260" lon="-7.0938410">
        <ele>1139.0</ele>
        <time>2014-10-02T14:44:25Z</time>
      </trkpt>
      <trkpt lat="42.6962550" lon="-7.0938460">
        <ele>1139.2</ele>
        <time>2014-10-02T14:44:26Z</time>
      </trkpt>
      <trkpt lat="42.6962920" lon="-7.0938530">
        <ele>1139.5</ele>
        <time>2014-10-02T14:44:27Z</time>
      </trkpt>
      <trkpt lat="42.6963230" lon="-7.0938570">
        <ele>1139.7</ele>
        <time>2014-10-02T14:44:28Z</time>
      </trkpt>
      <trkpt lat="42.6963550" lon="-7.0938600">
        <ele>1139.9</ele>
        <time>2014-10-02T14:44:29Z</time>
      </trkpt>
      <trkpt lat="42.6963880" lon="-7.0938650">
        <ele>1140.2</ele>
        <time>2014-10-02T14:44:30Z</time>
      </trkpt>
      <trkpt lat="42.6964180" lon="-7.0938690">
        <ele>1140.4</ele>
        <time>2014-10-02T14:44:31Z</time>
      </trkpt>
      <trkpt lat="42.6964680" lon="-7.0938780">
        <ele>1140.7</ele>
        <time>2014-10-02T14:44:33Z</time>
      </trkpt>
      <trkpt lat="42.6965090" lon="-7.0938830">
        <ele>1141.0</ele>
        <time>2014-10-02T14:44:35Z</time>
      </trkpt>
      <trkpt lat="42.6965570" lon="-7.0938790">
        <ele>1141.3</ele>
        <time>2014-10-02T14:44:37Z</time>
      </trkpt>
      <trkpt lat="42.6966030" lon="-7.0938630">
        <ele>1141.6</ele>
        <time>2014-10-02T14:44:39Z</time>
      </trkpt>
      <trkpt lat="42.6966520" lon="-7.0938450">
        <ele>1142.0</ele>
        <time>2014-10-02T14:44:41Z</time>
      </trkpt>
      <trkpt lat="42.6966770" lon="-7.0938280">
        <ele>1142.2</ele>
        <time>2014-10-02T14:44:42Z</time>
      </trkpt>
      <trkpt lat="42.6967200" lon="-7.0937960">
        <ele>1142.6</ele>
        <time>2014-10-02T14:44:44Z</time>
      </trkpt>
      <trkpt lat="42.6967440" lon="-7.0937760">
        <ele>1142.8</ele>
        <time>2014-10-02T14:44:45Z</time>
      </trkpt>
      <trkpt lat="42.6967870" lon="-7.0937420">
        <ele>1143.3</ele>
        <time>2014-10-02T14:44:47Z</time>
      </trkpt>
      <trkpt lat="42.6968210" lon="-7.0936930">
        <ele>1143.8</ele>
        <time>2014-10-02T14:44:49Z</time>
      </trkpt>
      <trkpt lat="42.6968360" lon="-7.0936490">
        <ele>1144.1</ele>
        <time>2014-10-02T14:44:51Z</time>
      </trkpt>
      <trkpt lat="42.6968340" lon="-7.0936030">
        <ele>1144.4</ele>
        <time>2014-10-02T14:44:53Z</time>
      </trkpt>
      <trkpt lat="42.6968190" lon="-7.0935560">
        <ele>1144.8</ele>
        <time>2014-10-02T14:44:55Z</time>
      </trkpt>
      <trkpt lat="42.6967830" lon="-7.0935220">
        <ele>1145.3</ele>
        <time>2014-10-02T14:44:57Z</time>
      </trkpt>
      <trkpt lat="42.6967590" lon="-7.0935010">
        <ele>1145.6</ele>
        <time>2014-10-02T14:44:58Z</time>
      </trkpt>
      <trkpt lat="42.6967250" lon="-7.0934810">
        <ele>1146.0</ele>
        <time>2014-10-02T14:44:59Z</time>
      </trkpt>
      <trkpt lat="42.6966860" lon="-7.0934650">
        <ele>1146.4</ele>
        <time>2014-10-02T14:45:00Z</time>
      </trkpt>
      <trkpt lat="42.6966390" lon="-7.0934510">
        <ele>1146.8</ele>
        <time>2014-10-02T14:45:01Z</time>
      </trkpt>
      <trkpt lat="42.6965950" lon="-7.0934400">
        <ele>1147.2</ele>
        <time>2014-10-02T14:45:02Z</time>
      </trkpt>
      <trkpt lat="42.6965480" lon="-7.0934350">
        <ele>1147.5</ele>
        <time>2014-10-02T14:45:03Z</time>
      </trkpt>
      <trkpt lat="42.6965070" lon="-7.0934280">
        <ele>1147.8</ele>
        <time>2014-10-02T14:45:04Z</time>
      </trkpt>
      <trkpt lat="42.6964650" lon="-7.0934240">
        <ele>1148.0</ele>
        <time>2014-10-02T14:45:05Z</time>
      </trkpt>
      <trkpt lat="42.6964210" lon="-7.0934260">
        <ele>1148.1</ele>
        <time>2014-10-02T14:45:06Z</time>
      </trkpt>
      <trkpt lat="42.6963740" lon="-7.0934260">
        <ele>1148.3</ele>
        <time>2014-10-02T14:45:07Z</time>
      </trkpt>
      <trkpt lat="42.6963340" lon="-7.0934240">
        <ele>1148.4</ele>
        <time>2014-10-02T14:45:08Z</time>
      </trkpt>
      <trkpt lat="42.6962930" lon="-7.0934170">
        <ele>1148.5</ele>
        <time>2014-10-02T14:45:09Z</time>
      </trkpt>
      <trkpt lat="42.6962520" lon="-7.0934090">
        <ele>1148.6</ele>
        <time>2014-10-02T14:45:10Z</time>
      </trkpt>
      <trkpt lat="42.6962120" lon="-7.0934010">
        <ele>1148.7</ele>
        <time>2014-10-02T14:45:11Z</time>
      </trkpt>
      <trkpt lat="42.6961730" lon="-7.0933880">
        <ele>1148.7</ele>
        <time>2014-10-02T14:45:12Z</time>
      </trkpt>
      <trkpt lat="42.6961370" lon="-7.0933760">
        <ele>1148.8</ele>
        <time>2014-10-02T14:45:13Z</time>
      </trkpt>
      <trkpt lat="42.6961020" lon="-7.0933560">
        <ele>1148.9</ele>
        <time>2014-10-02T14:45:14Z</time>
      </trkpt>
      <trkpt lat="42.6960670" lon="-7.0933350">
        <ele>1148.9</ele>
        <time>2014-10-02T14:45:15Z</time>
      </trkpt>
      <trkpt lat="42.6960300" lon="-7.0933050">
        <ele>1149.0</ele>
        <time>2014-10-02T14:45:16Z</time>
      </trkpt>
      <trkpt lat="42.6959910" lon="-7.0932690">
        <ele>1149.1</ele>
        <time>2014-10-02T14:45:17Z</time>
      </trkpt>
      <trkpt lat="42.6959530" lon="-7.0932380">
        <ele>1149.2</ele>
        <time>2014-10-02T14:45:18Z</time>
      </trkpt>
      <trkpt lat="42.6959180" lon="-7.0932070">
        <ele>1149.2</ele>
        <time>2014-10-02T14:45:19Z</time>
      </trkpt>
      <trkpt lat="42.6958850" lon="-7.0931780">
        <ele>1149.3</ele>
        <time>2014-10-02T14:45:20Z</time>
      </trkpt>
      <trkpt lat="42.6958490" lon="-7.0931480">
        <ele>1149.3</ele>
        <time>2014-10-02T14:45:21Z</time>
      </trkpt>
      <trkpt lat="42.6958140" lon="-7.0931180">
        <ele>1149.4</ele>
        <time>2014-10-02T14:45:22Z</time>
      </trkpt>
      <trkpt lat="42.6957730" lon="-7.0930850">
        <ele>1149.4</ele>
        <time>2014-10-02T14:45:23Z</time>
      </trkpt>
      <trkpt lat="42.6957280" lon="-7.0930470">
        <ele>1149.5</ele>
        <time>2014-10-02T14:45:24Z</time>
      </trkpt>
      <trkpt lat="42.6956860" lon="-7.0930090">
        <ele>1149.5</ele>
        <time>2014-10-02T14:45:25Z</time>
      </trkpt>
      <trkpt lat="42.6956460" lon="-7.0929760">
        <ele>1149.6</ele>
        <time>2014-10-02T14:45:26Z</time>
      </trkpt>
      <trkpt lat="42.6956140" lon="-7.0929460">
        <ele>1149.6</ele>
        <time>2014-10-02T14:45:27Z</time>
      </trkpt>
      <trkpt lat="42.6955770" lon="-7.0929160">
        <ele>1149.7</ele>
        <time>2014-10-02T14:45:28Z</time>
      </trkpt>
      <trkpt lat="42.6955460" lon="-7.0928860">
        <ele>1149.8</ele>
        <time>2014-10-02T14:45:29Z</time>
      </trkpt>
      <trkpt lat="42.6955120" lon="-7.0928500">
        <ele>1149.8</ele>
        <time>2014-10-02T14:45:30Z</time>
      </trkpt>
      <trkpt lat="42.6954750" lon="-7.0928080">
        <ele>1149.9</ele>
        <time>2014-10-02T14:45:31Z</time>
      </trkpt>
      <trkpt lat="42.6954370" lon="-7.0927640">
        <ele>1150.1</ele>
        <time>2014-10-02T14:45:32Z</time>
      </trkpt>
      <trkpt lat="42.6954070" lon="-7.0927230">
        <ele>1150.2</ele>
        <time>2014-10-02T14:45:33Z</time>
      </trkpt>
      <trkpt lat="42.6953810" lon="-7.0926900">
        <ele>1150.3</ele>
        <time>2014-10-02T14:45:34Z</time>
      </trkpt>
      <trkpt lat="42.6953550" lon="-7.0926560">
        <ele>1150.5</ele>
        <time>2014-10-02T14:45:35Z</time>
      </trkpt>
      <trkpt lat="42.6953350" lon="-7.0926230">
        <ele>1150.6</ele>
        <time>2014-10-02T14:45:36Z</time>
      </trkpt>
      <trkpt lat="42.6953160" lon="-7.0925880">
        <ele>1150.7</ele>
        <time>2014-10-02T14:45:37Z</time>
      </trkpt>
      <trkpt lat="42.6953000" lon="-7.0925570">
        <ele>1150.8</ele>
        <time>2014-10-02T14:45:38Z</time>
      </trkpt>
      <trkpt lat="42.6952840" lon="-7.0924890">
        <ele>1150.8</ele>
        <time>2014-10-02T14:45:40Z</time>
      </trkpt>
      <trkpt lat="42.6952880" lon="-7.0924140">
        <ele>1150.6</ele>
        <time>2014-10-02T14:45:42Z</time>
      </trkpt>
      <trkpt lat="42.6952990" lon="-7.0923640">
        <ele>1150.4</ele>
        <time>2014-10-02T14:45:43Z</time>
      </trkpt>
      <trkpt lat="42.6953230" lon="-7.0923120">
        <ele>1150.9</ele>
        <time>2014-10-02T14:45:44Z</time>
      </trkpt>
      <trkpt lat="42.6953700" lon="-7.0922440">
        <ele>1151.7</ele>
        <time>2014-10-02T14:45:45Z</time>
      </trkpt>
      <trkpt lat="42.6954150" lon="-7.0921880">
        <ele>1152.4</ele>
        <time>2014-10-02T14:45:46Z</time>
      </trkpt>
      <trkpt lat="42.6954510" lon="-7.0921530">
        <ele>1152.9</ele>
        <time>2014-10-02T14:45:47Z</time>
      </trkpt>
      <trkpt lat="42.6954800" lon="-7.0921350">
        <ele>1153.3</ele>
        <time>2014-10-02T14:45:48Z</time>
      </trkpt>
      <trkpt lat="42.6955060" lon="-7.0921240">
        <ele>1153.6</ele>
        <time>2014-10-02T14:45:49Z</time>
      </trkpt>
      <trkpt lat="42.6955340" lon="-7.0921140">
        <ele>1153.9</ele>
        <time>2014-10-02T14:45:50Z</time>
      </trkpt>
      <trkpt lat="42.6955640" lon="-7.0921030">
        <ele>1154.2</ele>
        <time>2014-10-02T14:45:51Z</time>
      </trkpt>
      <trkpt lat="42.6955980" lon="-7.0920960">
        <ele>1154.6</ele>
        <time>2014-10-02T14:45:52Z</time>
      </trkpt>
      <trkpt lat="42.6956260" lon="-7.0920930">
        <ele>1154.8</ele>
        <time>2014-10-02T14:45:53Z</time>
      </trkpt>
      <trkpt lat="42.6956730" lon="-7.0920920">
        <ele>1155.3</ele>
        <time>2014-10-02T14:45:55Z</time>
      </trkpt>
      <trkpt lat="42.6957100" lon="-7.0920880">
        <ele>1155.7</ele>
        <time>2014-10-02T14:45:57Z</time>
      </trkpt>
      <trkpt lat="42.6957450" lon="-7.0920810">
        <ele>1156.0</ele>
        <time>2014-10-02T14:45:59Z</time>
      </trkpt>
      <trkpt lat="42.6957910" lon="-7.0920840">
        <ele>1156.5</ele>
        <time>2014-10-02T14:46:01Z</time>
      </trkpt>
      <trkpt lat="42.6958200" lon="-7.0920900">
        <ele>1156.7</ele>
        <time>2014-10-02T14:46:02Z</time>
      </trkpt>
      <trkpt lat="42.6958490" lon="-7.0920900">
        <ele>1157.0</ele>
        <time>2014-10-02T14:46:03Z</time>
      </trkpt>
      <trkpt lat="42.6958830" lon="-7.0920940">
        <ele>1157.3</ele>
        <time>2014-10-02T14:46:04Z</time>
      </trkpt>
      <trkpt lat="42.6959130" lon="-7.0921000">
        <ele>1157.5</ele>
        <time>2014-10-02T14:46:05Z</time>
      </trkpt>
      <trkpt lat="42.6959660" lon="-7.0921030">
        <ele>1158.0</ele>
        <time>2014-10-02T14:46:07Z</time>
      </trkpt>
      <trkpt lat="42.6959960" lon="-7.0921030">
        <ele>1158.2</ele>
        <time>2014-10-02T14:46:08Z</time>
      </trkpt>
      <trkpt lat="42.6960290" lon="-7.0921050">
        <ele>1158.5</ele>
        <time>2014-10-02T14:46:09Z</time>
      </trkpt>
      <trkpt lat="42.6960590" lon="-7.0921110">
        <ele>1158.8</ele>
        <time>2014-10-02T14:46:10Z</time>
      </trkpt>
      <trkpt lat="42.6960900" lon="-7.0921180">
        <ele>1159.1</ele>
        <time>2014-10-02T14:46:11Z</time>
      </trkpt>
      <trkpt lat="42.6961340" lon="-7.0921270">
        <ele>1159.6</ele>
        <time>2014-10-02T14:46:12Z</time>
      </trkpt>
      <trkpt lat="42.6961670" lon="-7.0921360">
        <ele>1159.9</ele>
        <time>2014-10-02T14:46:13Z</time>
      </trkpt>
      <trkpt lat="42.6961990" lon="-7.0921450">
        <ele>1160.2</ele>
        <time>2014-10-02T14:46:14Z</time>
      </trkpt>
      <trkpt lat="42.6962270" lon="-7.0921520">
        <ele>1160.5</ele>
        <time>2014-10-02T14:46:15Z</time>
      </trkpt>
      <trkpt lat="42.6962810" lon="-7.0921640">
        <ele>1161.1</ele>
        <time>2014-10-02T14:46:17Z</time>
      </trkpt>
      <trkpt lat="42.6963150" lon="-7.0921640">
        <ele>1161.4</ele>
        <time>2014-10-02T14:46:18Z</time>
      </trkpt>
      <trkpt lat="42.6963500" lon="-7.0921670">
        <ele>1161.7</ele>
        <time>2014-10-02T14:46:19Z</time>
      </trkpt>
      <trkpt lat="42.6963890" lon="-7.0921670">
        <ele>1162.1</ele>
        <time>2014-10-02T14:46:20Z</time>
      </trkpt>
      <trkpt lat="42.6964250" lon="-7.0921690">
        <ele>1162.4</ele>
        <time>2014-10-02T14:46:21Z</time>
      </trkpt>
      <trkpt lat="42.6964570" lon="-7.0921680">
        <ele>1162.7</ele>
        <time>2014-10-02T14:46:22Z</time>
      </trkpt>
      <trkpt lat="42.6964880" lon="-7.0921710">
        <ele>1163.0</ele>
        <time>2014-10-02T14:46:23Z</time>
      </trkpt>
      <trkpt lat="42.6965220" lon="-7.0921730">
        <ele>1163.4</ele>
        <time>2014-10-02T14:46:24Z</time>
      </trkpt>
      <trkpt lat="42.6965510" lon="-7.0921740">
        <ele>1163.7</ele>
        <time>2014-10-02T14:46:25Z</time>
      </trkpt>
      <trkpt lat="42.6966040" lon="-7.0921750">
        <ele>1164.2</ele>
        <time>2014-10-02T14:46:27Z</time>
      </trkpt>
      <trkpt lat="42.6966410" lon="-7.0921750">
        <ele>1164.7</ele>
        <time>2014-10-02T14:46:28Z</time>
      </trkpt>
      <trkpt lat="42.6966840" lon="-7.0921770">
        <ele>1165.2</ele>
        <time>2014-10-02T14:46:29Z</time>
      </trkpt>
      <trkpt lat="42.6967310" lon="-7.0921810">
        <ele>1165.8</ele>
        <time>2014-10-02T14:46:30Z</time>
      </trkpt>
      <trkpt lat="42.6967740" lon="-7.0921810">
        <ele>1166.3</ele>
        <time>2014-10-02T14:46:31Z</time>
      </trkpt>
      <trkpt lat="42.6968110" lon="-7.0921830">
        <ele>1166.7</ele>
        <time>2014-10-02T14:46:32Z</time>
      </trkpt>
      <trkpt lat="42.6968480" lon="-7.0921870">
        <ele>1167.0</ele>
        <time>2014-10-02T14:46:33Z</time>
      </trkpt>
      <trkpt lat="42.6968770" lon="-7.0921910">
        <ele>1167.3</ele>
        <time>2014-10-02T14:46:34Z</time>
      </trkpt>
      <trkpt lat="42.6969160" lon="-7.0921930">
        <ele>1167.7</ele>
        <time>2014-10-02T14:46:35Z</time>
      </trkpt>
      <trkpt lat="42.6969530" lon="-7.0921970">
        <ele>1168.0</ele>
        <time>2014-10-02T14:46:36Z</time>
      </trkpt>
      <trkpt lat="42.6969940" lon="-7.0922070">
        <ele>1168.4</ele>
        <time>2014-10-02T14:46:37Z</time>
      </trkpt>
      <trkpt lat="42.6970320" lon="-7.0922130">
        <ele>1168.8</ele>
        <time>2014-10-02T14:46:38Z</time>
      </trkpt>
      <trkpt lat="42.6970700" lon="-7.0922200">
        <ele>1169.2</ele>
        <time>2014-10-02T14:46:39Z</time>
      </trkpt>
      <trkpt lat="42.6971020" lon="-7.0922270">
        <ele>1169.5</ele>
        <time>2014-10-02T14:46:40Z</time>
      </trkpt>
      <trkpt lat="42.6971570" lon="-7.0922430">
        <ele>1170.1</ele>
        <time>2014-10-02T14:46:42Z</time>
      </trkpt>
      <trkpt lat="42.6971890" lon="-7.0922540">
        <ele>1170.4</ele>
        <time>2014-10-02T14:46:43Z</time>
      </trkpt>
      <trkpt lat="42.6972220" lon="-7.0922640">
        <ele>1170.7</ele>
        <time>2014-10-02T14:46:44Z</time>
      </trkpt>
      <trkpt lat="42.6972520" lon="-7.0922710">
        <ele>1170.9</ele>
        <time>2014-10-02T14:46:45Z</time>
      </trkpt>
      <trkpt lat="42.6973050" lon="-7.0922780">
        <ele>1171.4</ele>
        <time>2014-10-02T14:46:47Z</time>
      </trkpt>
      <trkpt lat="42.6973520" lon="-7.0922820">
        <ele>1171.7</ele>
        <time>2014-10-02T14:46:49Z</time>
      </trkpt>
      <trkpt lat="42.6973790" lon="-7.0922850">
        <ele>1172.0</ele>
        <time>2014-10-02T14:46:50Z</time>
      </trkpt>
      <trkpt lat="42.6974110" lon="-7.0922880">
        <ele>1172.3</ele>
        <time>2014-10-02T14:46:51Z</time>
      </trkpt>
      <trkpt lat="42.6974440" lon="-7.0922940">
        <ele>1172.6</ele>
        <time>2014-10-02T14:46:52Z</time>
      </trkpt>
      <trkpt lat="42.6974770" lon="-7.0922970">
        <ele>1172.9</ele>
        <time>2014-10-02T14:46:53Z</time>
      </trkpt>
      <trkpt lat="42.6975360" lon="-7.0923020">
        <ele>1173.4</ele>
        <time>2014-10-02T14:46:55Z</time>
      </trkpt>
      <trkpt lat="42.6975710" lon="-7.0923100">
        <ele>1173.7</ele>
        <time>2014-10-02T14:46:56Z</time>
      </trkpt>
      <trkpt lat="42.6976100" lon="-7.0923170">
        <ele>1174.0</ele>
        <time>2014-10-02T14:46:57Z</time>
      </trkpt>
      <trkpt lat="42.6976440" lon="-7.0923250">
        <ele>1174.3</ele>
        <time>2014-10-02T14:46:58Z</time>
      </trkpt>
      <trkpt lat="42.6976810" lon="-7.0923330">
        <ele>1174.5</ele>
        <time>2014-10-02T14:46:59Z</time>
      </trkpt>
      <trkpt lat="42.6977210" lon="-7.0923410">
        <ele>1174.8</ele>
        <time>2014-10-02T14:47:00Z</time>
      </trkpt>
      <trkpt lat="42.6977570" lon="-7.0923510">
        <ele>1175.0</ele>
        <time>2014-10-02T14:47:01Z</time>
      </trkpt>
      <trkpt lat="42.6977970" lon="-7.0923650">
        <ele>1175.3</ele>
        <time>2014-10-02T14:47:02Z</time>
      </trkpt>
      <trkpt lat="42.6978300" lon="-7.0923850">
        <ele>1175.6</ele>
        <time>2014-10-02T14:47:03Z</time>
      </trkpt>
      <trkpt lat="42.6978690" lon="-7.0923990">
        <ele>1175.9</ele>
        <time>2014-10-02T14:47:04Z</time>
      </trkpt>
      <trkpt lat="42.6979080" lon="-7.0924120">
        <ele>1176.2</ele>
        <time>2014-10-02T14:47:05Z</time>
      </trkpt>
      <trkpt lat="42.6979460" lon="-7.0924260">
        <ele>1176.5</ele>
        <time>2014-10-02T14:47:06Z</time>
      </trkpt>
      <trkpt lat="42.6979860" lon="-7.0924430">
        <ele>1176.8</ele>
        <time>2014-10-02T14:47:07Z</time>
      </trkpt>
      <trkpt lat="42.6980170" lon="-7.0924560">
        <ele>1176.9</ele>
        <time>2014-10-02T14:47:08Z</time>
      </trkpt>
      <trkpt lat="42.6980600" lon="-7.0924650">
        <ele>1177.1</ele>
        <time>2014-10-02T14:47:09Z</time>
      </trkpt>
      <trkpt lat="42.6980930" lon="-7.0924790">
        <ele>1177.3</ele>
        <time>2014-10-02T14:47:10Z</time>
      </trkpt>
      <trkpt lat="42.6981330" lon="-7.0924980">
        <ele>1177.5</ele>
        <time>2014-10-02T14:47:11Z</time>
      </trkpt>
      <trkpt lat="42.6981730" lon="-7.0925140">
        <ele>1177.7</ele>
        <time>2014-10-02T14:47:12Z</time>
      </trkpt>
      <trkpt lat="42.6982190" lon="-7.0925380">
        <ele>1178.0</ele>
        <time>2014-10-02T14:47:13Z</time>
      </trkpt>
      <trkpt lat="42.6982590" lon="-7.0925630">
        <ele>1178.2</ele>
        <time>2014-10-02T14:47:14Z</time>
      </trkpt>
      <trkpt lat="42.6982970" lon="-7.0925940">
        <ele>1178.5</ele>
        <time>2014-10-02T14:47:15Z</time>
      </trkpt>
      <trkpt lat="42.6983340" lon="-7.0926200">
        <ele>1178.7</ele>
        <time>2014-10-02T14:47:16Z</time>
      </trkpt>
      <trkpt lat="42.6983740" lon="-7.0926480">
        <ele>1178.9</ele>
        <time>2014-10-02T14:47:17Z</time>
      </trkpt>
      <trkpt lat="42.6984250" lon="-7.0926700">
        <ele>1179.2</ele>
        <time>2014-10-02T14:47:18Z</time>
      </trkpt>
      <trkpt lat="42.6984690" lon="-7.0927000">
        <ele>1179.4</ele>
        <time>2014-10-02T14:47:19Z</time>
      </trkpt>
      <trkpt lat="42.6985090" lon="-7.0927340">
        <ele>1179.7</ele>
        <time>2014-10-02T14:47:20Z</time>
      </trkpt>
      <trkpt lat="42.6985560" lon="-7.0927690">
        <ele>1179.9</ele>
        <time>2014-10-02T14:47:21Z</time>
      </trkpt>
      <trkpt lat="42.6985980" lon="-7.0928010">
        <ele>1180.1</ele>
        <time>2014-10-02T14:47:22Z</time>
      </trkpt>
      <trkpt lat="42.6986360" lon="-7.0928350">
        <ele>1180.3</ele>
        <time>2014-10-02T14:47:23Z</time>
      </trkpt>
      <trkpt lat="42.6986650" lon="-7.0928700">
        <ele>1180.5</ele>
        <time>2014-10-02T14:47:24Z</time>
      </trkpt>
      <trkpt lat="42.6987050" lon="-7.0929060">
        <ele>1180.7</ele>
        <time>2014-10-02T14:47:25Z</time>
      </trkpt>
      <trkpt lat="42.6987460" lon="-7.0929420">
        <ele>1181.0</ele>
        <time>2014-10-02T14:47:26Z</time>
      </trkpt>
      <trkpt lat="42.6987870" lon="-7.0929740">
        <ele>1181.3</ele>
        <time>2014-10-02T14:47:27Z</time>
      </trkpt>
      <trkpt lat="42.6988280" lon="-7.0930070">
        <ele>1181.7</ele>
        <time>2014-10-02T14:47:28Z</time>
      </trkpt>
      <trkpt lat="42.6988660" lon="-7.0930440">
        <ele>1182.0</ele>
        <time>2014-10-02T14:47:29Z</time>
      </trkpt>
      <trkpt lat="42.6989030" lon="-7.0930810">
        <ele>1182.4</ele>
        <time>2014-10-02T14:47:30Z</time>
      </trkpt>
      <trkpt lat="42.6989410" lon="-7.0931170">
        <ele>1182.7</ele>
        <time>2014-10-02T14:47:31Z</time>
      </trkpt>
      <trkpt lat="42.6989790" lon="-7.0931550">
        <ele>1183.1</ele>
        <time>2014-10-02T14:47:32Z</time>
      </trkpt>
      <trkpt lat="42.6990090" lon="-7.0931840">
        <ele>1183.4</ele>
        <time>2014-10-02T14:47:33Z</time>
      </trkpt>
      <trkpt lat="42.6990390" lon="-7.0932120">
        <ele>1183.6</ele>
        <time>2014-10-02T14:47:34Z</time>
      </trkpt>
      <trkpt lat="42.6990690" lon="-7.0932400">
        <ele>1183.9</ele>
        <time>2014-10-02T14:47:35Z</time>
      </trkpt>
      <trkpt lat="42.6991050" lon="-7.0932690">
        <ele>1184.2</ele>
        <time>2014-10-02T14:47:36Z</time>
      </trkpt>
      <trkpt lat="42.6991320" lon="-7.0932960">
        <ele>1184.4</ele>
        <time>2014-10-02T14:47:37Z</time>
      </trkpt>
      <trkpt lat="42.6991640" lon="-7.0933250">
        <ele>1184.7</ele>
        <time>2014-10-02T14:47:38Z</time>
      </trkpt>
      <trkpt lat="42.6991910" lon="-7.0933460">
        <ele>1184.9</ele>
        <time>2014-10-02T14:47:39Z</time>
      </trkpt>
      <trkpt lat="42.6992220" lon="-7.0933680">
        <ele>1185.2</ele>
        <time>2014-10-02T14:47:40Z</time>
      </trkpt>
      <trkpt lat="42.6992540" lon="-7.0933910">
        <ele>1185.5</ele>
        <time>2014-10-02T14:47:41Z</time>
      </trkpt>
      <trkpt lat="42.6992850" lon="-7.0934210">
        <ele>1185.8</ele>
        <time>2014-10-02T14:47:42Z</time>
      </trkpt>
      <trkpt lat="42.6993220" lon="-7.0934420">
        <ele>1186.1</ele>
        <time>2014-10-02T14:47:43Z</time>
      </trkpt>
      <trkpt lat="42.6993590" lon="-7.0934650">
        <ele>1186.4</ele>
        <time>2014-10-02T14:47:44Z</time>
      </trkpt>
      <trkpt lat="42.6993900" lon="-7.0934870">
        <ele>1186.6</ele>
        <time>2014-10-02T14:47:45Z</time>
      </trkpt>
      <trkpt lat="42.6994210" lon="-7.0935110">
        <ele>1186.9</ele>
        <time>2014-10-02T14:47:46Z</time>
      </trkpt>
      <trkpt lat="42.6994560" lon="-7.0935320">
        <ele>1187.3</ele>
        <time>2014-10-02T14:47:47Z</time>
      </trkpt>
      <trkpt lat="42.6994920" lon="-7.0935600">
        <ele>1187.7</ele>
        <time>2014-10-02T14:47:48Z</time>
      </trkpt>
      <trkpt lat="42.6995330" lon="-7.0935850">
        <ele>1188.1</ele>
        <time>2014-10-02T14:47:49Z</time>
      </trkpt>
      <trkpt lat="42.6995680" lon="-7.0936080">
        <ele>1188.6</ele>
        <time>2014-10-02T14:47:50Z</time>
      </trkpt>
      <trkpt lat="42.6995990" lon="-7.0936300">
        <ele>1188.9</ele>
        <time>2014-10-02T14:47:51Z</time>
      </trkpt>
      <trkpt lat="42.6996330" lon="-7.0936520">
        <ele>1189.3</ele>
        <time>2014-10-02T14:47:52Z</time>
      </trkpt>
      <trkpt lat="42.6996650" lon="-7.0936700">
        <ele>1189.7</ele>
        <time>2014-10-02T14:47:53Z</time>
      </trkpt>
      <trkpt lat="42.6996930" lon="-7.0936880">
        <ele>1190.0</ele>
        <time>2014-10-02T14:47:54Z</time>
      </trkpt>
      <trkpt lat="42.6997280" lon="-7.0937120">
        <ele>1190.3</ele>
        <time>2014-10-02T14:47:55Z</time>
      </trkpt>
      <trkpt lat="42.6997610" lon="-7.0937320">
        <ele>1190.6</ele>
        <time>2014-10-02T14:47:56Z</time>
      </trkpt>
      <trkpt lat="42.6997880" lon="-7.0937460">
        <ele>1190.9</ele>
        <time>2014-10-02T14:47:57Z</time>
      </trkpt>
      <trkpt lat="42.6998130" lon="-7.0937650">
        <ele>1191.1</ele>
        <time>2014-10-02T14:47:58Z</time>
      </trkpt>
      <trkpt lat="42.6998490" lon="-7.0937930">
        <ele>1191.4</ele>
        <time>2014-10-02T14:47:59Z</time>
      </trkpt>
      <trkpt lat="42.6998810" lon="-7.0938180">
        <ele>1191.7</ele>
        <time>2014-10-02T14:48:00Z</time>
      </trkpt>
      <trkpt lat="42.6999140" lon="-7.0938490">
        <ele>1192.1</ele>
        <time>2014-10-02T14:48:01Z</time>
      </trkpt>
      <trkpt lat="42.6999460" lon="-7.0938740">
        <ele>1192.5</ele>
        <time>2014-10-02T14:48:02Z</time>
      </trkpt>
      <trkpt lat="42.6999750" lon="-7.0938970">
        <ele>1192.8</ele>
        <time>2014-10-02T14:48:03Z</time>
      </trkpt>
      <trkpt lat="42.7000050" lon="-7.0939220">
        <ele>1193.2</ele>
        <time>2014-10-02T14:48:04Z</time>
      </trkpt>
      <trkpt lat="42.7000370" lon="-7.0939450">
        <ele>1193.6</ele>
        <time>2014-10-02T14:48:05Z</time>
      </trkpt>
      <trkpt lat="42.7000620" lon="-7.0939680">
        <ele>1193.9</ele>
        <time>2014-10-02T14:48:06Z</time>
      </trkpt>
      <trkpt lat="42.7000880" lon="-7.0939950">
        <ele>1194.2</ele>
        <time>2014-10-02T14:48:07Z</time>
      </trkpt>
      <trkpt lat="42.7001200" lon="-7.0940200">
        <ele>1194.5</ele>
        <time>2014-10-02T14:48:08Z</time>
      </trkpt>
      <trkpt lat="42.7001480" lon="-7.0940370">
        <ele>1194.8</ele>
        <time>2014-10-02T14:48:09Z</time>
      </trkpt>
      <trkpt lat="42.7001850" lon="-7.0940610">
        <ele>1195.2</ele>
        <time>2014-10-02T14:48:10Z</time>
      </trkpt>
      <trkpt lat="42.7002230" lon="-7.0940840">
        <ele>1195.5</ele>
        <time>2014-10-02T14:48:11Z</time>
      </trkpt>
      <trkpt lat="42.7002570" lon="-7.0941040">
        <ele>1195.8</ele>
        <time>2014-10-02T14:48:12Z</time>
      </trkpt>
      <trkpt lat="42.7002930" lon="-7.0941240">
        <ele>1196.1</ele>
        <time>2014-10-02T14:48:13Z</time>
      </trkpt>
      <trkpt lat="42.7003260" lon="-7.0941390">
        <ele>1196.3</ele>
        <time>2014-10-02T14:48:14Z</time>
      </trkpt>
      <trkpt lat="42.7003560" lon="-7.0941530">
        <ele>1196.6</ele>
        <time>2014-10-02T14:48:15Z</time>
      </trkpt>
      <trkpt lat="42.7004040" lon="-7.0941750">
        <ele>1197.0</ele>
        <time>2014-10-02T14:48:17Z</time>
      </trkpt>
      <trkpt lat="42.7004320" lon="-7.0941860">
        <ele>1197.2</ele>
        <time>2014-10-02T14:48:18Z</time>
      </trkpt>
      <trkpt lat="42.7004790" lon="-7.0942050">
        <ele>1197.6</ele>
        <time>2014-10-02T14:48:20Z</time>
      </trkpt>
      <trkpt lat="42.7005350" lon="-7.0942240">
        <ele>1198.2</ele>
        <time>2014-10-02T14:48:22Z</time>
      </trkpt>
      <trkpt lat="42.7005700" lon="-7.0942350">
        <ele>1198.6</ele>
        <time>2014-10-02T14:48:23Z</time>
      </trkpt>
      <trkpt lat="42.7006000" lon="-7.0942410">
        <ele>1199.0</ele>
        <time>2014-10-02T14:48:24Z</time>
      </trkpt>
      <trkpt lat="42.7006370" lon="-7.0942460">
        <ele>1199.4</ele>
        <time>2014-10-02T14:48:25Z</time>
      </trkpt>
      <trkpt lat="42.7006680" lon="-7.0942500">
        <ele>1199.8</ele>
        <time>2014-10-02T14:48:26Z</time>
      </trkpt>
      <trkpt lat="42.7007150" lon="-7.0942530">
        <ele>1200.4</ele>
        <time>2014-10-02T14:48:28Z</time>
      </trkpt>
      <trkpt lat="42.7007670" lon="-7.0942610">
        <ele>1201.0</ele>
        <time>2014-10-02T14:48:30Z</time>
      </trkpt>
      <trkpt lat="42.7007940" lon="-7.0942650">
        <ele>1201.3</ele>
        <time>2014-10-02T14:48:31Z</time>
      </trkpt>
      <trkpt lat="42.7008460" lon="-7.0942700">
        <ele>1201.9</ele>
        <time>2014-10-02T14:48:33Z</time>
      </trkpt>
      <trkpt lat="42.7009000" lon="-7.0942760">
        <ele>1202.6</ele>
        <time>2014-10-02T14:48:35Z</time>
      </trkpt>
      <trkpt lat="42.7009280" lon="-7.0942790">
        <ele>1202.9</ele>
        <time>2014-10-02T14:48:36Z</time>
      </trkpt>
      <trkpt lat="42.7009760" lon="-7.0942850">
        <ele>1203.6</ele>
        <time>2014-10-02T14:48:38Z</time>
      </trkpt>
      <trkpt lat="42.7010270" lon="-7.0942980">
        <ele>1204.3</ele>
        <time>2014-10-02T14:48:40Z</time>
      </trkpt>
      <trkpt lat="42.7010670" lon="-7.0942970">
        <ele>1204.9</ele>
        <time>2014-10-02T14:48:42Z</time>
      </trkpt>
      <trkpt lat="42.7010980" lon="-7.0943010">
        <ele>1205.3</ele>
        <time>2014-10-02T14:48:43Z</time>
      </trkpt>
      <trkpt lat="42.7011310" lon="-7.0943010">
        <ele>1205.8</ele>
        <time>2014-10-02T14:48:44Z</time>
      </trkpt>
      <trkpt lat="42.7011610" lon="-7.0942990">
        <ele>1206.2</ele>
        <time>2014-10-02T14:48:45Z</time>
      </trkpt>
      <trkpt lat="42.7012130" lon="-7.0942950">
        <ele>1206.9</ele>
        <time>2014-10-02T14:48:47Z</time>
      </trkpt>
      <trkpt lat="42.7012420" lon="-7.0942950">
        <ele>1207.3</ele>
        <time>2014-10-02T14:48:48Z</time>
      </trkpt>
      <trkpt lat="42.7012720" lon="-7.0942960">
        <ele>1207.7</ele>
        <time>2014-10-02T14:48:49Z</time>
      </trkpt>
      <trkpt lat="42.7013020" lon="-7.0943030">
        <ele>1207.6</ele>
        <time>2014-10-02T14:48:50Z</time>
      </trkpt>
      <trkpt lat="42.7013310" lon="-7.0943170">
        <ele>1207.4</ele>
        <time>2014-10-02T14:48:51Z</time>
      </trkpt>
      <trkpt lat="42.7013560" lon="-7.0943380">
        <ele>1207.3</ele>
        <time>2014-10-02T14:48:52Z</time>
      </trkpt>
      <trkpt lat="42.7013800" lon="-7.0943690">
        <ele>1207.1</ele>
        <time>2014-10-02T14:48:53Z</time>
      </trkpt>
      <trkpt lat="42.7014010" lon="-7.0943970">
        <ele>1207.0</ele>
        <time>2014-10-02T14:48:54Z</time>
      </trkpt>
      <trkpt lat="42.7014250" lon="-7.0944300">
        <ele>1206.8</ele>
        <time>2014-10-02T14:48:55Z</time>
      </trkpt>
      <trkpt lat="42.7014610" lon="-7.0944690">
        <ele>1206.6</ele>
        <time>2014-10-02T14:48:56Z</time>
      </trkpt>
      <trkpt lat="42.7014980" lon="-7.0945150">
        <ele>1206.5</ele>
        <time>2014-10-02T14:48:57Z</time>
      </trkpt>
      <trkpt lat="42.7015360" lon="-7.0945650">
        <ele>1206.4</ele>
        <time>2014-10-02T14:48:58Z</time>
      </trkpt>
      <trkpt lat="42.7015790" lon="-7.0946110">
        <ele>1206.4</ele>
        <time>2014-10-02T14:48:59Z</time>
      </trkpt>
      <trkpt lat="42.7016200" lon="-7.0946570">
        <ele>1206.4</ele>
        <time>2014-10-02T14:49:00Z</time>
      </trkpt>
      <trkpt lat="42.7016620" lon="-7.0947100">
        <ele>1206.4</ele>
        <time>2014-10-02T14:49:01Z</time>
      </trkpt>
      <trkpt lat="42.7017010" lon="-7.0947700">
        <ele>1206.5</ele>
        <time>2014-10-02T14:49:02Z</time>
      </trkpt>
      <trkpt lat="42.7017430" lon="-7.0948260">
        <ele>1206.6</ele>
        <time>2014-10-02T14:49:03Z</time>
      </trkpt>
      <trkpt lat="42.7017790" lon="-7.0948820">
        <ele>1206.6</ele>
        <time>2014-10-02T14:49:04Z</time>
      </trkpt>
      <trkpt lat="42.7018070" lon="-7.0949320">
        <ele>1206.7</ele>
        <time>2014-10-02T14:49:05Z</time>
      </trkpt>
      <trkpt lat="42.7018260" lon="-7.0949870">
        <ele>1206.8</ele>
        <time>2014-10-02T14:49:06Z</time>
      </trkpt>
      <trkpt lat="42.7018560" lon="-7.0950500">
        <ele>1207.0</ele>
        <time>2014-10-02T14:49:07Z</time>
      </trkpt>
      <trkpt lat="42.7018820" lon="-7.0951080">
        <ele>1207.1</ele>
        <time>2014-10-02T14:49:08Z</time>
      </trkpt>
      <trkpt lat="42.7019100" lon="-7.0951640">
        <ele>1207.3</ele>
        <time>2014-10-02T14:49:09Z</time>
      </trkpt>
      <trkpt lat="42.7019380" lon="-7.0952160">
        <ele>1207.5</ele>
        <time>2014-10-02T14:49:10Z</time>
      </trkpt>
      <trkpt lat="42.7019680" lon="-7.0952670">
        <ele>1207.8</ele>
        <time>2014-10-02T14:49:11Z</time>
      </trkpt>
      <trkpt lat="42.7020030" lon="-7.0953190">
        <ele>1208.1</ele>
        <time>2014-10-02T14:49:12Z</time>
      </trkpt>
      <trkpt lat="42.7020280" lon="-7.0953630">
        <ele>1208.3</ele>
        <time>2014-10-02T14:49:13Z</time>
      </trkpt>
      <trkpt lat="42.7020540" lon="-7.0954070">
        <ele>1208.5</ele>
        <time>2014-10-02T14:49:14Z</time>
      </trkpt>
      <trkpt lat="42.7020780" lon="-7.0954520">
        <ele>1208.8</ele>
        <time>2014-10-02T14:49:15Z</time>
      </trkpt>
      <trkpt lat="42.7021040" lon="-7.0954960">
        <ele>1209.1</ele>
        <time>2014-10-02T14:49:16Z</time>
      </trkpt>
      <trkpt lat="42.7021370" lon="-7.0955440">
        <ele>1209.4</ele>
        <time>2014-10-02T14:49:17Z</time>
      </trkpt>
      <trkpt lat="42.7021660" lon="-7.0955890">
        <ele>1209.8</ele>
        <time>2014-10-02T14:49:18Z</time>
      </trkpt>
      <trkpt lat="42.7021970" lon="-7.0956330">
        <ele>1210.2</ele>
        <time>2014-10-02T14:49:19Z</time>
      </trkpt>
      <trkpt lat="42.7022250" lon="-7.0956740">
        <ele>1210.6</ele>
        <time>2014-10-02T14:49:20Z</time>
      </trkpt>
      <trkpt lat="42.7022520" lon="-7.0957180">
        <ele>1211.0</ele>
        <time>2014-10-02T14:49:21Z</time>
      </trkpt>
      <trkpt lat="42.7022780" lon="-7.0957620">
        <ele>1211.4</ele>
        <time>2014-10-02T14:49:22Z</time>
      </trkpt>
      <trkpt lat="42.7023030" lon="-7.0957950">
        <ele>1211.7</ele>
        <time>2014-10-02T14:49:23Z</time>
      </trkpt>
      <trkpt lat="42.7023250" lon="-7.0958180">
        <ele>1212.0</ele>
        <time>2014-10-02T14:49:24Z</time>
      </trkpt>
      <trkpt lat="42.7023640" lon="-7.0958700">
        <ele>1212.5</ele>
        <time>2014-10-02T14:49:26Z</time>
      </trkpt>
      <trkpt lat="42.7023860" lon="-7.0959040">
        <ele>1212.8</ele>
        <time>2014-10-02T14:49:27Z</time>
      </trkpt>
      <trkpt lat="42.7024110" lon="-7.0959440">
        <ele>1213.2</ele>
        <time>2014-10-02T14:49:28Z</time>
      </trkpt>
      <trkpt lat="42.7024420" lon="-7.0959890">
        <ele>1213.6</ele>
        <time>2014-10-02T14:49:29Z</time>
      </trkpt>
      <trkpt lat="42.7024680" lon="-7.0960270">
        <ele>1214.0</ele>
        <time>2014-10-02T14:49:30Z</time>
      </trkpt>
      <trkpt lat="42.7024930" lon="-7.0960660">
        <ele>1214.3</ele>
        <time>2014-10-02T14:49:31Z</time>
      </trkpt>
      <trkpt lat="42.7025170" lon="-7.0961020">
        <ele>1214.6</ele>
        <time>2014-10-02T14:49:32Z</time>
      </trkpt>
      <trkpt lat="42.7025430" lon="-7.0961380">
        <ele>1214.9</ele>
        <time>2014-10-02T14:49:33Z</time>
      </trkpt>
      <trkpt lat="42.7025700" lon="-7.0961760">
        <ele>1215.3</ele>
        <time>2014-10-02T14:49:34Z</time>
      </trkpt>
      <trkpt lat="42.7026000" lon="-7.0962080">
        <ele>1215.6</ele>
        <time>2014-10-02T14:49:35Z</time>
      </trkpt>
      <trkpt lat="42.7026260" lon="-7.0962350">
        <ele>1215.8</ele>
        <time>2014-10-02T14:49:36Z</time>
      </trkpt>
      <trkpt lat="42.7026540" lon="-7.0962700">
        <ele>1216.1</ele>
        <time>2014-10-02T14:49:37Z</time>
      </trkpt>
      <trkpt lat="42.7026780" lon="-7.0963010">
        <ele>1216.4</ele>
        <time>2014-10-02T14:49:38Z</time>
      </trkpt>
      <trkpt lat="42.7027070" lon="-7.0963360">
        <ele>1216.6</ele>
        <time>2014-10-02T14:49:39Z</time>
      </trkpt>
      <trkpt lat="42.7027340" lon="-7.0963740">
        <ele>1216.9</ele>
        <time>2014-10-02T14:49:40Z</time>
      </trkpt>
      <trkpt lat="42.7027640" lon="-7.0964130">
        <ele>1217.2</ele>
        <time>2014-10-02T14:49:41Z</time>
      </trkpt>
      <trkpt lat="42.7027910" lon="-7.0964510">
        <ele>1217.5</ele>
        <time>2014-10-02T14:49:42Z</time>
      </trkpt>
      <trkpt lat="42.7028150" lon="-7.0964810">
        <ele>1217.7</ele>
        <time>2014-10-02T14:49:43Z</time>
      </trkpt>
      <trkpt lat="42.7028420" lon="-7.0965130">
        <ele>1218.0</ele>
        <time>2014-10-02T14:49:44Z</time>
      </trkpt>
      <trkpt lat="42.7028680" lon="-7.0965450">
        <ele>1218.2</ele>
        <time>2014-10-02T14:49:45Z</time>
      </trkpt>
      <trkpt lat="42.7028940" lon="-7.0965770">
        <ele>1218.4</ele>
        <time>2014-10-02T14:49:46Z</time>
      </trkpt>
      <trkpt lat="42.7029210" lon="-7.0966060">
        <ele>1218.7</ele>
        <time>2014-10-02T14:49:47Z</time>
      </trkpt>
      <trkpt lat="42.7029480" lon="-7.0966340">
        <ele>1218.9</ele>
        <time>2014-10-02T14:49:48Z</time>
      </trkpt>
      <trkpt lat="42.7029740" lon="-7.0966580">
        <ele>1219.1</ele>
        <time>2014-10-02T14:49:49Z</time>
      </trkpt>
      <trkpt lat="42.7030080" lon="-7.0966890">
        <ele>1219.3</ele>
        <time>2014-10-02T14:49:50Z</time>
      </trkpt>
      <trkpt lat="42.7030400" lon="-7.0967200">
        <ele>1219.6</ele>
        <time>2014-10-02T14:49:51Z</time>
      </trkpt>
      <trkpt lat="42.7030650" lon="-7.0967480">
        <ele>1219.8</ele>
        <time>2014-10-02T14:49:52Z</time>
      </trkpt>
      <trkpt lat="42.7030900" lon="-7.0967780">
        <ele>1220.0</ele>
        <time>2014-10-02T14:49:53Z</time>
      </trkpt>
      <trkpt lat="42.7031120" lon="-7.0968070">
        <ele>1220.1</ele>
        <time>2014-10-02T14:49:54Z</time>
      </trkpt>
      <trkpt lat="42.7031320" lon="-7.0968320">
        <ele>1220.3</ele>
        <time>2014-10-02T14:49:55Z</time>
      </trkpt>
      <trkpt lat="42.7031550" lon="-7.0968590">
        <ele>1220.5</ele>
        <time>2014-10-02T14:49:56Z</time>
      </trkpt>
      <trkpt lat="42.7031890" lon="-7.0968940">
        <ele>1220.7</ele>
        <time>2014-10-02T14:49:57Z</time>
      </trkpt>
      <trkpt lat="42.7032230" lon="-7.0969300">
        <ele>1220.9</ele>
        <time>2014-10-02T14:49:58Z</time>
      </trkpt>
      <trkpt lat="42.7032500" lon="-7.0969590">
        <ele>1221.1</ele>
        <time>2014-10-02T14:49:59Z</time>
      </trkpt>
      <trkpt lat="42.7032860" lon="-7.0969940">
        <ele>1221.3</ele>
        <time>2014-10-02T14:50:00Z</time>
      </trkpt>
      <trkpt lat="42.7033230" lon="-7.0970290">
        <ele>1221.5</ele>
        <time>2014-10-02T14:50:01Z</time>
      </trkpt>
      <trkpt lat="42.7033570" lon="-7.0970600">
        <ele>1221.8</ele>
        <time>2014-10-02T14:50:02Z</time>
      </trkpt>
      <trkpt lat="42.7033910" lon="-7.0970930">
        <ele>1222.1</ele>
        <time>2014-10-02T14:50:03Z</time>
      </trkpt>
      <trkpt lat="42.7034260" lon="-7.0971290">
        <ele>1222.3</ele>
        <time>2014-10-02T14:50:04Z</time>
      </trkpt>
      <trkpt lat="42.7034570" lon="-7.0971600">
        <ele>1222.5</ele>
        <time>2014-10-02T14:50:05Z</time>
      </trkpt>
      <trkpt lat="42.7034850" lon="-7.0971930">
        <ele>1222.7</ele>
        <time>2014-10-02T14:50:06Z</time>
      </trkpt>
      <trkpt lat="42.7035120" lon="-7.0972250">
        <ele>1222.9</ele>
        <time>2014-10-02T14:50:07Z</time>
      </trkpt>
      <trkpt lat="42.7035360" lon="-7.0972570">
        <ele>1223.1</ele>
        <time>2014-10-02T14:50:08Z</time>
      </trkpt>
      <trkpt lat="42.7035590" lon="-7.0972830">
        <ele>1223.2</ele>
        <time>2014-10-02T14:50:09Z</time>
      </trkpt>
      <trkpt lat="42.7035840" lon="-7.0973110">
        <ele>1223.4</ele>
        <time>2014-10-02T14:50:10Z</time>
      </trkpt>
      <trkpt lat="42.7036120" lon="-7.0973430">
        <ele>1223.5</ele>
        <time>2014-10-02T14:50:11Z</time>
      </trkpt>
      <trkpt lat="42.7036390" lon="-7.0973730">
        <ele>1223.7</ele>
        <time>2014-10-02T14:50:12Z</time>
      </trkpt>
      <trkpt lat="42.7036730" lon="-7.0974100">
        <ele>1223.9</ele>
        <time>2014-10-02T14:50:13Z</time>
      </trkpt>
      <trkpt lat="42.7037030" lon="-7.0974470">
        <ele>1224.1</ele>
        <time>2014-10-02T14:50:14Z</time>
      </trkpt>
      <trkpt lat="42.7037280" lon="-7.0974790">
        <ele>1224.2</ele>
        <time>2014-10-02T14:50:15Z</time>
      </trkpt>
      <trkpt lat="42.7037510" lon="-7.0975100">
        <ele>1224.4</ele>
        <time>2014-10-02T14:50:16Z</time>
      </trkpt>
      <trkpt lat="42.7037750" lon="-7.0975430">
        <ele>1224.5</ele>
        <time>2014-10-02T14:50:17Z</time>
      </trkpt>
      <trkpt lat="42.7038050" lon="-7.0975770">
        <ele>1224.7</ele>
        <time>2014-10-02T14:50:18Z</time>
      </trkpt>
      <trkpt lat="42.7038300" lon="-7.0976150">
        <ele>1224.9</ele>
        <time>2014-10-02T14:50:19Z</time>
      </trkpt>
      <trkpt lat="42.7038520" lon="-7.0976560">
        <ele>1225.0</ele>
        <time>2014-10-02T14:50:20Z</time>
      </trkpt>
      <trkpt lat="42.7038740" lon="-7.0976980">
        <ele>1225.2</ele>
        <time>2014-10-02T14:50:21Z</time>
      </trkpt>
      <trkpt lat="42.7038970" lon="-7.0977460">
        <ele>1225.4</ele>
        <time>2014-10-02T14:50:22Z</time>
      </trkpt>
      <trkpt lat="42.7039200" lon="-7.0978000">
        <ele>1225.6</ele>
        <time>2014-10-02T14:50:23Z</time>
      </trkpt>
      <trkpt lat="42.7039500" lon="-7.0978590">
        <ele>1225.9</ele>
        <time>2014-10-02T14:50:24Z</time>
      </trkpt>
      <trkpt lat="42.7039760" lon="-7.0979120">
        <ele>1226.1</ele>
        <time>2014-10-02T14:50:25Z</time>
      </trkpt>
      <trkpt lat="42.7040010" lon="-7.0979600">
        <ele>1226.3</ele>
        <time>2014-10-02T14:50:26Z</time>
      </trkpt>
      <trkpt lat="42.7040350" lon="-7.0980150">
        <ele>1226.5</ele>
        <time>2014-10-02T14:50:27Z</time>
      </trkpt>
      <trkpt lat="42.7040630" lon="-7.0980860">
        <ele>1226.7</ele>
        <time>2014-10-02T14:50:28Z</time>
      </trkpt>
      <trkpt lat="42.7040860" lon="-7.0981520">
        <ele>1227.0</ele>
        <time>2014-10-02T14:50:29Z</time>
      </trkpt>
      <trkpt lat="42.7041040" lon="-7.0982070">
        <ele>1227.1</ele>
        <time>2014-10-02T14:50:30Z</time>
      </trkpt>
      <trkpt lat="42.7041200" lon="-7.0982680">
        <ele>1227.4</ele>
        <time>2014-10-02T14:50:31Z</time>
      </trkpt>
      <trkpt lat="42.7041390" lon="-7.0983310">
        <ele>1227.7</ele>
        <time>2014-10-02T14:50:32Z</time>
      </trkpt>
      <trkpt lat="42.7041610" lon="-7.0983900">
        <ele>1227.9</ele>
        <time>2014-10-02T14:50:33Z</time>
      </trkpt>
      <trkpt lat="42.7041780" lon="-7.0984440">
        <ele>1228.2</ele>
        <time>2014-10-02T14:50:34Z</time>
      </trkpt>
      <trkpt lat="42.7041960" lon="-7.0984990">
        <ele>1228.4</ele>
        <time>2014-10-02T14:50:35Z</time>
      </trkpt>
      <trkpt lat="42.7042100" lon="-7.0985610">
        <ele>1228.7</ele>
        <time>2014-10-02T14:50:36Z</time>
      </trkpt>
      <trkpt lat="42.7042250" lon="-7.0986190">
        <ele>1228.9</ele>
        <time>2014-10-02T14:50:37Z</time>
      </trkpt>
      <trkpt lat="42.7042350" lon="-7.0986830">
        <ele>1229.2</ele>
        <time>2014-10-02T14:50:38Z</time>
      </trkpt>
      <trkpt lat="42.7042480" lon="-7.0987320">
        <ele>1229.2</ele>
        <time>2014-10-02T14:50:39Z</time>
      </trkpt>
      <trkpt lat="42.7042600" lon="-7.0987860">
        <ele>1229.3</ele>
        <time>2014-10-02T14:50:40Z</time>
      </trkpt>
      <trkpt lat="42.7042730" lon="-7.0988470">
        <ele>1229.5</ele>
        <time>2014-10-02T14:50:41Z</time>
      </trkpt>
      <trkpt lat="42.7042840" lon="-7.0989000">
        <ele>1229.6</ele>
        <time>2014-10-02T14:50:42Z</time>
      </trkpt>
      <trkpt lat="42.7042920" lon="-7.0989570">
        <ele>1229.7</ele>
        <time>2014-10-02T14:50:43Z</time>
      </trkpt>
      <trkpt lat="42.7042990" lon="-7.0990180">
        <ele>1229.8</ele>
        <time>2014-10-02T14:50:44Z</time>
      </trkpt>
      <trkpt lat="42.7043060" lon="-7.0990780">
        <ele>1229.9</ele>
        <time>2014-10-02T14:50:45Z</time>
      </trkpt>
      <trkpt lat="42.7043120" lon="-7.0991310">
        <ele>1230.2</ele>
        <time>2014-10-02T14:50:46Z</time>
      </trkpt>
      <trkpt lat="42.7043210" lon="-7.0991780">
        <ele>1230.3</ele>
        <time>2014-10-02T14:50:47Z</time>
      </trkpt>
      <trkpt lat="42.7043300" lon="-7.0992350">
        <ele>1230.6</ele>
        <time>2014-10-02T14:50:48Z</time>
      </trkpt>
      <trkpt lat="42.7043360" lon="-7.0993000">
        <ele>1230.8</ele>
        <time>2014-10-02T14:50:49Z</time>
      </trkpt>
      <trkpt lat="42.7043550" lon="-7.0993490">
        <ele>1231.0</ele>
        <time>2014-10-02T14:50:50Z</time>
      </trkpt>
      <trkpt lat="42.7043670" lon="-7.0994040">
        <ele>1231.1</ele>
        <time>2014-10-02T14:50:51Z</time>
      </trkpt>
      <trkpt lat="42.7043710" lon="-7.0994640">
        <ele>1231.3</ele>
        <time>2014-10-02T14:50:52Z</time>
      </trkpt>
      <trkpt lat="42.7043770" lon="-7.0995290">
        <ele>1231.6</ele>
        <time>2014-10-02T14:50:53Z</time>
      </trkpt>
      <trkpt lat="42.7043810" lon="-7.0995890">
        <ele>1231.7</ele>
        <time>2014-10-02T14:50:54Z</time>
      </trkpt>
      <trkpt lat="42.7043840" lon="-7.0996340">
        <ele>1231.9</ele>
        <time>2014-10-02T14:50:55Z</time>
      </trkpt>
      <trkpt lat="42.7043870" lon="-7.0996850">
        <ele>1232.1</ele>
        <time>2014-10-02T14:50:56Z</time>
      </trkpt>
      <trkpt lat="42.7043910" lon="-7.0997420">
        <ele>1232.3</ele>
        <time>2014-10-02T14:50:57Z</time>
      </trkpt>
      <trkpt lat="42.7043940" lon="-7.0997960">
        <ele>1232.4</ele>
        <time>2014-10-02T14:50:58Z</time>
      </trkpt>
      <trkpt lat="42.7043980" lon="-7.0998470">
        <ele>1232.6</ele>
        <time>2014-10-02T14:50:59Z</time>
      </trkpt>
      <trkpt lat="42.7044020" lon="-7.0998940">
        <ele>1232.8</ele>
        <time>2014-10-02T14:51:00Z</time>
      </trkpt>
      <trkpt lat="42.7044050" lon="-7.0999540">
        <ele>1233.0</ele>
        <time>2014-10-02T14:51:01Z</time>
      </trkpt>
      <trkpt lat="42.7044120" lon="-7.1000130">
        <ele>1233.2</ele>
        <time>2014-10-02T14:51:02Z</time>
      </trkpt>
      <trkpt lat="42.7044260" lon="-7.1000690">
        <ele>1233.5</ele>
        <time>2014-10-02T14:51:03Z</time>
      </trkpt>
      <trkpt lat="42.7044310" lon="-7.1001120">
        <ele>1233.6</ele>
        <time>2014-10-02T14:51:04Z</time>
      </trkpt>
      <trkpt lat="42.7044340" lon="-7.1001640">
        <ele>1233.9</ele>
        <time>2014-10-02T14:51:05Z</time>
      </trkpt>
      <trkpt lat="42.7044370" lon="-7.1002180">
        <ele>1234.1</ele>
        <time>2014-10-02T14:51:06Z</time>
      </trkpt>
      <trkpt lat="42.7044380" lon="-7.1002640">
        <ele>1234.3</ele>
        <time>2014-10-02T14:51:07Z</time>
      </trkpt>
      <trkpt lat="42.7044400" lon="-7.1003070">
        <ele>1234.5</ele>
        <time>2014-10-02T14:51:08Z</time>
      </trkpt>
      <trkpt lat="42.7044460" lon="-7.1003540">
        <ele>1234.7</ele>
        <time>2014-10-02T14:51:09Z</time>
      </trkpt>
      <trkpt lat="42.7044520" lon="-7.1004030">
        <ele>1234.9</ele>
        <time>2014-10-02T14:51:10Z</time>
      </trkpt>
      <trkpt lat="42.7044570" lon="-7.1004520">
        <ele>1235.2</ele>
        <time>2014-10-02T14:51:11Z</time>
      </trkpt>
      <trkpt lat="42.7044650" lon="-7.1005050">
        <ele>1235.4</ele>
        <time>2014-10-02T14:51:12Z</time>
      </trkpt>
      <trkpt lat="42.7044750" lon="-7.1005610">
        <ele>1235.7</ele>
        <time>2014-10-02T14:51:13Z</time>
      </trkpt>
      <trkpt lat="42.7044830" lon="-7.1006110">
        <ele>1236.0</ele>
        <time>2014-10-02T14:51:14Z</time>
      </trkpt>
      <trkpt lat="42.7044870" lon="-7.1006560">
        <ele>1236.2</ele>
        <time>2014-10-02T14:51:15Z</time>
      </trkpt>
      <trkpt lat="42.7044930" lon="-7.1007080">
        <ele>1236.5</ele>
        <time>2014-10-02T14:51:16Z</time>
      </trkpt>
      <trkpt lat="42.7044960" lon="-7.1007640">
        <ele>1236.7</ele>
        <time>2014-10-02T14:51:17Z</time>
      </trkpt>
      <trkpt lat="42.7045010" lon="-7.1008190">
        <ele>1237.0</ele>
        <time>2014-10-02T14:51:18Z</time>
      </trkpt>
      <trkpt lat="42.7045040" lon="-7.1008660">
        <ele>1237.3</ele>
        <time>2014-10-02T14:51:19Z</time>
      </trkpt>
      <trkpt lat="42.7045100" lon="-7.1009200">
        <ele>1237.6</ele>
        <time>2014-10-02T14:51:20Z</time>
      </trkpt>
      <trkpt lat="42.7045150" lon="-7.1009640">
        <ele>1237.8</ele>
        <time>2014-10-02T14:51:21Z</time>
      </trkpt>
      <trkpt lat="42.7045230" lon="-7.1010130">
        <ele>1238.2</ele>
        <time>2014-10-02T14:51:22Z</time>
      </trkpt>
      <trkpt lat="42.7045310" lon="-7.1010680">
        <ele>1238.6</ele>
        <time>2014-10-02T14:51:23Z</time>
      </trkpt>
      <trkpt lat="42.7045440" lon="-7.1011190">
        <ele>1238.9</ele>
        <time>2014-10-02T14:51:24Z</time>
      </trkpt>
      <trkpt lat="42.7045500" lon="-7.1011610">
        <ele>1239.3</ele>
        <time>2014-10-02T14:51:25Z</time>
      </trkpt>
      <trkpt lat="42.7045580" lon="-7.1011970">
        <ele>1239.6</ele>
        <time>2014-10-02T14:51:26Z</time>
      </trkpt>
      <trkpt lat="42.7045750" lon="-7.1012600">
        <ele>1240.1</ele>
        <time>2014-10-02T14:51:28Z</time>
      </trkpt>
      <trkpt lat="42.7045830" lon="-7.1013290">
        <ele>1240.6</ele>
        <time>2014-10-02T14:51:30Z</time>
      </trkpt>
      <trkpt lat="42.7045910" lon="-7.1013740">
        <ele>1241.0</ele>
        <time>2014-10-02T14:51:31Z</time>
      </trkpt>
      <trkpt lat="42.7046040" lon="-7.1014150">
        <ele>1241.4</ele>
        <time>2014-10-02T14:51:32Z</time>
      </trkpt>
      <trkpt lat="42.7046160" lon="-7.1014750">
        <ele>1241.9</ele>
        <time>2014-10-02T14:51:34Z</time>
      </trkpt>
      <trkpt lat="42.7046250" lon="-7.1015430">
        <ele>1242.5</ele>
        <time>2014-10-02T14:51:36Z</time>
      </trkpt>
      <trkpt lat="42.7046370" lon="-7.1016020">
        <ele>1243.0</ele>
        <time>2014-10-02T14:51:38Z</time>
      </trkpt>
      <trkpt lat="42.7046430" lon="-7.1016430">
        <ele>1243.4</ele>
        <time>2014-10-02T14:51:39Z</time>
      </trkpt>
      <trkpt lat="42.7046500" lon="-7.1016810">
        <ele>1243.6</ele>
        <time>2014-10-02T14:51:40Z</time>
      </trkpt>
      <trkpt lat="42.7046590" lon="-7.1017480">
        <ele>1243.7</ele>
        <time>2014-10-02T14:51:42Z</time>
      </trkpt>
      <trkpt lat="42.7046680" lon="-7.1018140">
        <ele>1243.9</ele>
        <time>2014-10-02T14:51:44Z</time>
      </trkpt>
      <trkpt lat="42.7046750" lon="-7.1018850">
        <ele>1244.1</ele>
        <time>2014-10-02T14:51:46Z</time>
      </trkpt>
      <trkpt lat="42.7046820" lon="-7.1019300">
        <ele>1244.2</ele>
        <time>2014-10-02T14:51:47Z</time>
      </trkpt>
      <trkpt lat="42.7046910" lon="-7.1019740">
        <ele>1244.2</ele>
        <time>2014-10-02T14:51:48Z</time>
      </trkpt>
      <trkpt lat="42.7046960" lon="-7.1020250">
        <ele>1244.2</ele>
        <time>2014-10-02T14:51:49Z</time>
      </trkpt>
      <trkpt lat="42.7046990" lon="-7.1020650">
        <ele>1244.2</ele>
        <time>2014-10-02T14:51:50Z</time>
      </trkpt>
      <trkpt lat="42.7047100" lon="-7.1021090">
        <ele>1244.2</ele>
        <time>2014-10-02T14:51:51Z</time>
      </trkpt>
      <trkpt lat="42.7047230" lon="-7.1021560">
        <ele>1244.1</ele>
        <time>2014-10-02T14:51:52Z</time>
      </trkpt>
      <trkpt lat="42.7047360" lon="-7.1021990">
        <ele>1244.1</ele>
        <time>2014-10-02T14:51:53Z</time>
      </trkpt>
      <trkpt lat="42.7047520" lon="-7.1022370">
        <ele>1244.0</ele>
        <time>2014-10-02T14:51:54Z</time>
      </trkpt>
      <trkpt lat="42.7047700" lon="-7.1022760">
        <ele>1243.9</ele>
        <time>2014-10-02T14:51:55Z</time>
      </trkpt>
      <trkpt lat="42.7047910" lon="-7.1023180">
        <ele>1243.8</ele>
        <time>2014-10-02T14:51:56Z</time>
      </trkpt>
      <trkpt lat="42.7048110" lon="-7.1023640">
        <ele>1243.7</ele>
        <time>2014-10-02T14:51:57Z</time>
      </trkpt>
      <trkpt lat="42.7048340" lon="-7.1024130">
        <ele>1243.5</ele>
        <time>2014-10-02T14:51:58Z</time>
      </trkpt>
      <trkpt lat="42.7048550" lon="-7.1024660">
        <ele>1243.3</ele>
        <time>2014-10-02T14:51:59Z</time>
      </trkpt>
      <trkpt lat="42.7048790" lon="-7.1025240">
        <ele>1243.2</ele>
        <time>2014-10-02T14:52:00Z</time>
      </trkpt>
      <trkpt lat="42.7049030" lon="-7.1025750">
        <ele>1243.0</ele>
        <time>2014-10-02T14:52:01Z</time>
      </trkpt>
      <trkpt lat="42.7049340" lon="-7.1026250">
        <ele>1242.7</ele>
        <time>2014-10-02T14:52:02Z</time>
      </trkpt>
      <trkpt lat="42.7049630" lon="-7.1026840">
        <ele>1242.5</ele>
        <time>2014-10-02T14:52:03Z</time>
      </trkpt>
      <trkpt lat="42.7049940" lon="-7.1027510">
        <ele>1242.2</ele>
        <time>2014-10-02T14:52:04Z</time>
      </trkpt>
      <trkpt lat="42.7050270" lon="-7.1028200">
        <ele>1241.9</ele>
        <time>2014-10-02T14:52:05Z</time>
      </trkpt>
      <trkpt lat="42.7050580" lon="-7.1028810">
        <ele>1241.6</ele>
        <time>2014-10-02T14:52:06Z</time>
      </trkpt>
      <trkpt lat="42.7050880" lon="-7.1029460">
        <ele>1241.2</ele>
        <time>2014-10-02T14:52:07Z</time>
      </trkpt>
      <trkpt lat="42.7051160" lon="-7.1030100">
        <ele>1240.9</ele>
        <time>2014-10-02T14:52:08Z</time>
      </trkpt>
      <trkpt lat="42.7051480" lon="-7.1030820">
        <ele>1240.5</ele>
        <time>2014-10-02T14:52:09Z</time>
      </trkpt>
      <trkpt lat="42.7051820" lon="-7.1031550">
        <ele>1240.2</ele>
        <time>2014-10-02T14:52:10Z</time>
      </trkpt>
      <trkpt lat="42.7052140" lon="-7.1032370">
        <ele>1240.1</ele>
        <time>2014-10-02T14:52:11Z</time>
      </trkpt>
      <trkpt lat="42.7052450" lon="-7.1033220">
        <ele>1239.9</ele>
        <time>2014-10-02T14:52:12Z</time>
      </trkpt>
      <trkpt lat="42.7052790" lon="-7.1034100">
        <ele>1239.6</ele>
        <time>2014-10-02T14:52:13Z</time>
      </trkpt>
      <trkpt lat="42.7053130" lon="-7.1035000">
        <ele>1239.4</ele>
        <time>2014-10-02T14:52:14Z</time>
      </trkpt>
      <trkpt lat="42.7053470" lon="-7.1035990">
        <ele>1239.1</ele>
        <time>2014-10-02T14:52:15Z</time>
      </trkpt>
      <trkpt lat="42.7053770" lon="-7.1036930">
        <ele>1238.8</ele>
        <time>2014-10-02T14:52:16Z</time>
      </trkpt>
      <trkpt lat="42.7054070" lon="-7.1037890">
        <ele>1238.5</ele>
        <time>2014-10-02T14:52:17Z</time>
      </trkpt>
      <trkpt lat="42.7054320" lon="-7.1038760">
        <ele>1238.2</ele>
        <time>2014-10-02T14:52:18Z</time>
      </trkpt>
      <trkpt lat="42.7054540" lon="-7.1039730">
        <ele>1238.0</ele>
        <time>2014-10-02T14:52:19Z</time>
      </trkpt>
      <trkpt lat="42.7054730" lon="-7.1040810">
        <ele>1237.7</ele>
        <time>2014-10-02T14:52:20Z</time>
      </trkpt>
      <trkpt lat="42.7054680" lon="-7.1041900">
        <ele>1237.4</ele>
        <time>2014-10-02T14:52:21Z</time>
      </trkpt>
      <trkpt lat="42.7054600" lon="-7.1043040">
        <ele>1237.2</ele>
        <time>2014-10-02T14:52:22Z</time>
      </trkpt>
      <trkpt lat="42.7054500" lon="-7.1044140">
        <ele>1237.1</ele>
        <time>2014-10-02T14:52:23Z</time>
      </trkpt>
      <trkpt lat="42.7054340" lon="-7.1045310">
        <ele>1237.0</ele>
        <time>2014-10-02T14:52:24Z</time>
      </trkpt>
      <trkpt lat="42.7054150" lon="-7.1046450">
        <ele>1236.9</ele>
        <time>2014-10-02T14:52:25Z</time>
      </trkpt>
      <trkpt lat="42.7053920" lon="-7.1047460">
        <ele>1236.8</ele>
        <time>2014-10-02T14:52:26Z</time>
      </trkpt>
      <trkpt lat="42.7053640" lon="-7.1048470">
        <ele>1236.7</ele>
        <time>2014-10-02T14:52:27Z</time>
      </trkpt>
      <trkpt lat="42.7053340" lon="-7.1049360">
        <ele>1236.7</ele>
        <time>2014-10-02T14:52:28Z</time>
      </trkpt>
      <trkpt lat="42.7052990" lon="-7.1050310">
        <ele>1236.7</ele>
        <time>2014-10-02T14:52:29Z</time>
      </trkpt>
      <trkpt lat="42.7052560" lon="-7.1051330">
        <ele>1236.7</ele>
        <time>2014-10-02T14:52:30Z</time>
      </trkpt>
      <trkpt lat="42.7052150" lon="-7.1052220">
        <ele>1236.8</ele>
        <time>2014-10-02T14:52:31Z</time>
      </trkpt>
      <trkpt lat="42.7051750" lon="-7.1053280">
        <ele>1236.9</ele>
        <time>2014-10-02T14:52:32Z</time>
      </trkpt>
      <trkpt lat="42.7051440" lon="-7.1054240">
        <ele>1237.0</ele>
        <time>2014-10-02T14:52:33Z</time>
      </trkpt>
      <trkpt lat="42.7051220" lon="-7.1055230">
        <ele>1237.1</ele>
        <time>2014-10-02T14:52:34Z</time>
      </trkpt>
      <trkpt lat="42.7051090" lon="-7.1056190">
        <ele>1237.3</ele>
        <time>2014-10-02T14:52:35Z</time>
      </trkpt>
      <trkpt lat="42.7051140" lon="-7.1057140">
        <ele>1237.4</ele>
        <time>2014-10-02T14:52:36Z</time>
      </trkpt>
      <trkpt lat="42.7051250" lon="-7.1057990">
        <ele>1237.6</ele>
        <time>2014-10-02T14:52:37Z</time>
      </trkpt>
      <trkpt lat="42.7051360" lon="-7.1058750">
        <ele>1237.7</ele>
        <time>2014-10-02T14:52:38Z</time>
      </trkpt>
      <trkpt lat="42.7051480" lon="-7.1059510">
        <ele>1237.9</ele>
        <time>2014-10-02T14:52:39Z</time>
      </trkpt>
      <trkpt lat="42.7051620" lon="-7.1060230">
        <ele>1238.0</ele>
        <time>2014-10-02T14:52:40Z</time>
      </trkpt>
      <trkpt lat="42.7051900" lon="-7.1060930">
        <ele>1238.1</ele>
        <time>2014-10-02T14:52:41Z</time>
      </trkpt>
      <trkpt lat="42.7052180" lon="-7.1061620">
        <ele>1238.2</ele>
        <time>2014-10-02T14:52:42Z</time>
      </trkpt>
      <trkpt lat="42.7052500" lon="-7.1062320">
        <ele>1238.4</ele>
        <time>2014-10-02T14:52:43Z</time>
      </trkpt>
      <trkpt lat="42.7052880" lon="-7.1063000">
        <ele>1238.5</ele>
        <time>2014-10-02T14:52:44Z</time>
      </trkpt>
      <trkpt lat="42.7053240" lon="-7.1063580">
        <ele>1238.7</ele>
        <time>2014-10-02T14:52:45Z</time>
      </trkpt>
      <trkpt lat="42.7053600" lon="-7.1064200">
        <ele>1238.9</ele>
        <time>2014-10-02T14:52:46Z</time>
      </trkpt>
      <trkpt lat="42.7053940" lon="-7.1064770">
        <ele>1239.1</ele>
        <time>2014-10-02T14:52:47Z</time>
      </trkpt>
      <trkpt lat="42.7054290" lon="-7.1065340">
        <ele>1239.3</ele>
        <time>2014-10-02T14:52:48Z</time>
      </trkpt>
      <trkpt lat="42.7054640" lon="-7.1065910">
        <ele>1239.4</ele>
        <time>2014-10-02T14:52:49Z</time>
      </trkpt>
      <trkpt lat="42.7054980" lon="-7.1066470">
        <ele>1239.6</ele>
        <time>2014-10-02T14:52:50Z</time>
      </trkpt>
      <trkpt lat="42.7055190" lon="-7.1067070">
        <ele>1239.7</ele>
        <time>2014-10-02T14:52:51Z</time>
      </trkpt>
      <trkpt lat="42.7055400" lon="-7.1067660">
        <ele>1239.8</ele>
        <time>2014-10-02T14:52:52Z</time>
      </trkpt>
      <trkpt lat="42.7055620" lon="-7.1068350">
        <ele>1239.9</ele>
        <time>2014-10-02T14:52:53Z</time>
      </trkpt>
      <trkpt lat="42.7055850" lon="-7.1069130">
        <ele>1240.0</ele>
        <time>2014-10-02T14:52:54Z</time>
      </trkpt>
      <trkpt lat="42.7056050" lon="-7.1070000">
        <ele>1240.0</ele>
        <time>2014-10-02T14:52:55Z</time>
      </trkpt>
      <trkpt lat="42.7056220" lon="-7.1070910">
        <ele>1240.0</ele>
        <time>2014-10-02T14:52:56Z</time>
      </trkpt>
      <trkpt lat="42.7056340" lon="-7.1071690">
        <ele>1239.9</ele>
        <time>2014-10-02T14:52:57Z</time>
      </trkpt>
      <trkpt lat="42.7056430" lon="-7.1072520">
        <ele>1239.8</ele>
        <time>2014-10-02T14:52:58Z</time>
      </trkpt>
      <trkpt lat="42.7056540" lon="-7.1073500">
        <ele>1239.6</ele>
        <time>2014-10-02T14:52:59Z</time>
      </trkpt>
      <trkpt lat="42.7056610" lon="-7.1074440">
        <ele>1239.4</ele>
        <time>2014-10-02T14:53:00Z</time>
      </trkpt>
      <trkpt lat="42.7056700" lon="-7.1075400">
        <ele>1239.2</ele>
        <time>2014-10-02T14:53:01Z</time>
      </trkpt>
      <trkpt lat="42.7056960" lon="-7.1076330">
        <ele>1239.0</ele>
        <time>2014-10-02T14:53:02Z</time>
      </trkpt>
      <trkpt lat="42.7057200" lon="-7.1077290">
        <ele>1238.8</ele>
        <time>2014-10-02T14:53:03Z</time>
      </trkpt>
      <trkpt lat="42.7057480" lon="-7.1078330">
        <ele>1238.7</ele>
        <time>2014-10-02T14:53:04Z</time>
      </trkpt>
      <trkpt lat="42.7057780" lon="-7.1079220">
        <ele>1238.5</ele>
        <time>2014-10-02T14:53:05Z</time>
      </trkpt>
      <trkpt lat="42.7058100" lon="-7.1080030">
        <ele>1238.4</ele>
        <time>2014-10-02T14:53:06Z</time>
      </trkpt>
      <trkpt lat="42.7058490" lon="-7.1080900">
        <ele>1238.2</ele>
        <time>2014-10-02T14:53:07Z</time>
      </trkpt>
      <trkpt lat="42.7058890" lon="-7.1081760">
        <ele>1238.1</ele>
        <time>2014-10-02T14:53:08Z</time>
      </trkpt>
      <trkpt lat="42.7059480" lon="-7.1082500">
        <ele>1237.9</ele>
        <time>2014-10-02T14:53:09Z</time>
      </trkpt>
      <trkpt lat="42.7060030" lon="-7.1083160">
        <ele>1237.8</ele>
        <time>2014-10-02T14:53:10Z</time>
      </trkpt>
      <trkpt lat="42.7060610" lon="-7.1083590">
        <ele>1237.7</ele>
        <time>2014-10-02T14:53:11Z</time>
      </trkpt>
      <trkpt lat="42.7061210" lon="-7.1084010">
        <ele>1237.6</ele>
        <time>2014-10-02T14:53:12Z</time>
      </trkpt>
      <trkpt lat="42.7061870" lon="-7.1084200">
        <ele>1237.7</ele>
        <time>2014-10-02T14:53:13Z</time>
      </trkpt>
      <trkpt lat="42.7062480" lon="-7.1084340">
        <ele>1237.7</ele>
        <time>2014-10-02T14:53:14Z</time>
      </trkpt>
      <trkpt lat="42.7063090" lon="-7.1084420">
        <ele>1237.8</ele>
        <time>2014-10-02T14:53:15Z</time>
      </trkpt>
      <trkpt lat="42.7063710" lon="-7.1084450">
        <ele>1237.9</ele>
        <time>2014-10-02T14:53:16Z</time>
      </trkpt>
      <trkpt lat="42.7064340" lon="-7.1084460">
        <ele>1238.0</ele>
        <time>2014-10-02T14:53:17Z</time>
      </trkpt>
      <trkpt lat="42.7065020" lon="-7.1084290">
        <ele>1238.2</ele>
        <time>2014-10-02T14:53:18Z</time>
      </trkpt>
      <trkpt lat="42.7065650" lon="-7.1084110">
        <ele>1238.4</ele>
        <time>2014-10-02T14:53:19Z</time>
      </trkpt>
      <trkpt lat="42.7066320" lon="-7.1083920">
        <ele>1238.6</ele>
        <time>2014-10-02T14:53:20Z</time>
      </trkpt>
      <trkpt lat="42.7066950" lon="-7.1083750">
        <ele>1238.8</ele>
        <time>2014-10-02T14:53:21Z</time>
      </trkpt>
      <trkpt lat="42.7067550" lon="-7.1083590">
        <ele>1239.1</ele>
        <time>2014-10-02T14:53:22Z</time>
      </trkpt>
      <trkpt lat="42.7068100" lon="-7.1083460">
        <ele>1239.3</ele>
        <time>2014-10-02T14:53:23Z</time>
      </trkpt>
      <trkpt lat="42.7068710" lon="-7.1083370">
        <ele>1239.5</ele>
        <time>2014-10-02T14:53:24Z</time>
      </trkpt>
      <trkpt lat="42.7069260" lon="-7.1083340">
        <ele>1239.8</ele>
        <time>2014-10-02T14:53:25Z</time>
      </trkpt>
      <trkpt lat="42.7069820" lon="-7.1083320">
        <ele>1240.0</ele>
        <time>2014-10-02T14:53:26Z</time>
      </trkpt>
      <trkpt lat="42.7070330" lon="-7.1083330">
        <ele>1240.2</ele>
        <time>2014-10-02T14:53:27Z</time>
      </trkpt>
      <trkpt lat="42.7070860" lon="-7.1083360">
        <ele>1240.3</ele>
        <time>2014-10-02T14:53:28Z</time>
      </trkpt>
      <trkpt lat="42.7071300" lon="-7.1083410">
        <ele>1240.4</ele>
        <time>2014-10-02T14:53:29Z</time>
      </trkpt>
      <trkpt lat="42.7071780" lon="-7.1083530">
        <ele>1240.6</ele>
        <time>2014-10-02T14:53:30Z</time>
      </trkpt>
      <trkpt lat="42.7072270" lon="-7.1083690">
        <ele>1240.6</ele>
        <time>2014-10-02T14:53:31Z</time>
      </trkpt>
      <trkpt lat="42.7072750" lon="-7.1083870">
        <ele>1240.7</ele>
        <time>2014-10-02T14:53:32Z</time>
      </trkpt>
      <trkpt lat="42.7073180" lon="-7.1084080">
        <ele>1240.8</ele>
        <time>2014-10-02T14:53:33Z</time>
      </trkpt>
      <trkpt lat="42.7073640" lon="-7.1084330">
        <ele>1240.8</ele>
        <time>2014-10-02T14:53:34Z</time>
      </trkpt>
      <trkpt lat="42.7074110" lon="-7.1084640">
        <ele>1240.8</ele>
        <time>2014-10-02T14:53:35Z</time>
      </trkpt>
      <trkpt lat="42.7074510" lon="-7.1085070">
        <ele>1240.7</ele>
        <time>2014-10-02T14:53:36Z</time>
      </trkpt>
      <trkpt lat="42.7074900" lon="-7.1085520">
        <ele>1240.7</ele>
        <time>2014-10-02T14:53:37Z</time>
      </trkpt>
      <trkpt lat="42.7075300" lon="-7.1086010">
        <ele>1240.6</ele>
        <time>2014-10-02T14:53:38Z</time>
      </trkpt>
      <trkpt lat="42.7075690" lon="-7.1086560">
        <ele>1240.5</ele>
        <time>2014-10-02T14:53:39Z</time>
      </trkpt>
      <trkpt lat="42.7076160" lon="-7.1087250">
        <ele>1240.3</ele>
        <time>2014-10-02T14:53:40Z</time>
      </trkpt>
      <trkpt lat="42.7076590" lon="-7.1088350">
        <ele>1240.0</ele>
        <time>2014-10-02T14:53:41Z</time>
      </trkpt>
      <trkpt lat="42.7077020" lon="-7.1089610">
        <ele>1239.7</ele>
        <time>2014-10-02T14:53:42Z</time>
      </trkpt>
      <trkpt lat="42.7077260" lon="-7.1090940">
        <ele>1239.4</ele>
        <time>2014-10-02T14:53:43Z</time>
      </trkpt>
      <trkpt lat="42.7077420" lon="-7.1092120">
        <ele>1239.1</ele>
        <time>2014-10-02T14:53:44Z</time>
      </trkpt>
      <trkpt lat="42.7077370" lon="-7.1093260">
        <ele>1238.8</ele>
        <time>2014-10-02T14:53:45Z</time>
      </trkpt>
      <trkpt lat="42.7077300" lon="-7.1094320">
        <ele>1238.6</ele>
        <time>2014-10-02T14:53:46Z</time>
      </trkpt>
      <trkpt lat="42.7077190" lon="-7.1095350">
        <ele>1238.3</ele>
        <time>2014-10-02T14:53:47Z</time>
      </trkpt>
      <trkpt lat="42.7077030" lon="-7.1096240">
        <ele>1238.1</ele>
        <time>2014-10-02T14:53:48Z</time>
      </trkpt>
      <trkpt lat="42.7076810" lon="-7.1097160">
        <ele>1237.9</ele>
        <time>2014-10-02T14:53:49Z</time>
      </trkpt>
      <trkpt lat="42.7076570" lon="-7.1098060">
        <ele>1237.7</ele>
        <time>2014-10-02T14:53:50Z</time>
      </trkpt>
      <trkpt lat="42.7076260" lon="-7.1099030">
        <ele>1237.5</ele>
        <time>2014-10-02T14:53:51Z</time>
      </trkpt>
      <trkpt lat="42.7075950" lon="-7.1099980">
        <ele>1237.4</ele>
        <time>2014-10-02T14:53:52Z</time>
      </trkpt>
      <trkpt lat="42.7075640" lon="-7.1100930">
        <ele>1237.2</ele>
        <time>2014-10-02T14:53:53Z</time>
      </trkpt>
      <trkpt lat="42.7075280" lon="-7.1101970">
        <ele>1237.1</ele>
        <time>2014-10-02T14:53:54Z</time>
      </trkpt>
      <trkpt lat="42.7074960" lon="-7.1102950">
        <ele>1237.1</ele>
        <time>2014-10-02T14:53:55Z</time>
      </trkpt>
      <trkpt lat="42.7074670" lon="-7.1104000">
        <ele>1237.2</ele>
        <time>2014-10-02T14:53:56Z</time>
      </trkpt>
      <trkpt lat="42.7074570" lon="-7.1104980">
        <ele>1237.3</ele>
        <time>2014-10-02T14:53:57Z</time>
      </trkpt>
      <trkpt lat="42.7074520" lon="-7.1105900">
        <ele>1237.3</ele>
        <time>2014-10-02T14:53:58Z</time>
      </trkpt>
      <trkpt lat="42.7074510" lon="-7.1106820">
        <ele>1237.5</ele>
        <time>2014-10-02T14:53:59Z</time>
      </trkpt>
      <trkpt lat="42.7074670" lon="-7.1107640">
        <ele>1237.7</ele>
        <time>2014-10-02T14:54:00Z</time>
      </trkpt>
      <trkpt lat="42.7074860" lon="-7.1108420">
        <ele>1237.9</ele>
        <time>2014-10-02T14:54:01Z</time>
      </trkpt>
      <trkpt lat="42.7075070" lon="-7.1109230">
        <ele>1238.1</ele>
        <time>2014-10-02T14:54:02Z</time>
      </trkpt>
      <trkpt lat="42.7075290" lon="-7.1110010">
        <ele>1238.3</ele>
        <time>2014-10-02T14:54:03Z</time>
      </trkpt>
      <trkpt lat="42.7075520" lon="-7.1110740">
        <ele>1238.4</ele>
        <time>2014-10-02T14:54:04Z</time>
      </trkpt>
      <trkpt lat="42.7075730" lon="-7.1111410">
        <ele>1238.6</ele>
        <time>2014-10-02T14:54:05Z</time>
      </trkpt>
      <trkpt lat="42.7075960" lon="-7.1112100">
        <ele>1238.7</ele>
        <time>2014-10-02T14:54:06Z</time>
      </trkpt>
      <trkpt lat="42.7076180" lon="-7.1112760">
        <ele>1238.9</ele>
        <time>2014-10-02T14:54:07Z</time>
      </trkpt>
      <trkpt lat="42.7076460" lon="-7.1113390">
        <ele>1239.1</ele>
        <time>2014-10-02T14:54:08Z</time>
      </trkpt>
      <trkpt lat="42.7076720" lon="-7.1113950">
        <ele>1239.2</ele>
        <time>2014-10-02T14:54:09Z</time>
      </trkpt>
      <trkpt lat="42.7077040" lon="-7.1114570">
        <ele>1239.4</ele>
        <time>2014-10-02T14:54:10Z</time>
      </trkpt>
      <trkpt lat="42.7077450" lon="-7.1115030">
        <ele>1239.5</ele>
        <time>2014-10-02T14:54:11Z</time>
      </trkpt>
      <trkpt lat="42.7077800" lon="-7.1115410">
        <ele>1239.7</ele>
        <time>2014-10-02T14:54:12Z</time>
      </trkpt>
      <trkpt lat="42.7078210" lon="-7.1115820">
        <ele>1239.8</ele>
        <time>2014-10-02T14:54:13Z</time>
      </trkpt>
      <trkpt lat="42.7078710" lon="-7.1116070">
        <ele>1240.0</ele>
        <time>2014-10-02T14:54:14Z</time>
      </trkpt>
      <trkpt lat="42.7079260" lon="-7.1116340">
        <ele>1240.2</ele>
        <time>2014-10-02T14:54:15Z</time>
      </trkpt>
      <trkpt lat="42.7079890" lon="-7.1116570">
        <ele>1240.5</ele>
        <time>2014-10-02T14:54:16Z</time>
      </trkpt>
      <trkpt lat="42.7080550" lon="-7.1116790">
        <ele>1240.9</ele>
        <time>2014-10-02T14:54:17Z</time>
      </trkpt>
      <trkpt lat="42.7081140" lon="-7.1116930">
        <ele>1241.2</ele>
        <time>2014-10-02T14:54:18Z</time>
      </trkpt>
      <trkpt lat="42.7081740" lon="-7.1117060">
        <ele>1241.6</ele>
        <time>2014-10-02T14:54:19Z</time>
      </trkpt>
      <trkpt lat="42.7082290" lon="-7.1117160">
        <ele>1241.9</ele>
        <time>2014-10-02T14:54:20Z</time>
      </trkpt>
      <trkpt lat="42.7082810" lon="-7.1117250">
        <ele>1242.3</ele>
        <time>2014-10-02T14:54:21Z</time>
      </trkpt>
      <trkpt lat="42.7083310" lon="-7.1117380">
        <ele>1242.6</ele>
        <time>2014-10-02T14:54:22Z</time>
      </trkpt>
      <trkpt lat="42.7083780" lon="-7.1117490">
        <ele>1243.0</ele>
        <time>2014-10-02T14:54:23Z</time>
      </trkpt>
      <trkpt lat="42.7084200" lon="-7.1117580">
        <ele>1243.3</ele>
        <time>2014-10-02T14:54:24Z</time>
      </trkpt>
      <trkpt lat="42.7084540" lon="-7.1117660">
        <ele>1243.6</ele>
        <time>2014-10-02T14:54:25Z</time>
      </trkpt>
      <trkpt lat="42.7084900" lon="-7.1117750">
        <ele>1243.9</ele>
        <time>2014-10-02T14:54:26Z</time>
      </trkpt>
      <trkpt lat="42.7085210" lon="-7.1117860">
        <ele>1244.2</ele>
        <time>2014-10-02T14:54:27Z</time>
      </trkpt>
      <trkpt lat="42.7085580" lon="-7.1118010">
        <ele>1244.5</ele>
        <time>2014-10-02T14:54:28Z</time>
      </trkpt>
      <trkpt lat="42.7085890" lon="-7.1118150">
        <ele>1244.8</ele>
        <time>2014-10-02T14:54:29Z</time>
      </trkpt>
      <trkpt lat="42.7086240" lon="-7.1118340">
        <ele>1245.1</ele>
        <time>2014-10-02T14:54:30Z</time>
      </trkpt>
      <trkpt lat="42.7086570" lon="-7.1118520">
        <ele>1245.3</ele>
        <time>2014-10-02T14:54:31Z</time>
      </trkpt>
      <trkpt lat="42.7086890" lon="-7.1118680">
        <ele>1245.6</ele>
        <time>2014-10-02T14:54:32Z</time>
      </trkpt>
      <trkpt lat="42.7087410" lon="-7.1118950">
        <ele>1246.0</ele>
        <time>2014-10-02T14:54:34Z</time>
      </trkpt>
      <trkpt lat="42.7087800" lon="-7.1119130">
        <ele>1246.4</ele>
        <time>2014-10-02T14:54:35Z</time>
      </trkpt>
      <trkpt lat="42.7088110" lon="-7.1119260">
        <ele>1246.6</ele>
        <time>2014-10-02T14:54:36Z</time>
      </trkpt>
      <trkpt lat="42.7088410" lon="-7.1119390">
        <ele>1246.9</ele>
        <time>2014-10-02T14:54:37Z</time>
      </trkpt>
      <trkpt lat="42.7088900" lon="-7.1119580">
        <ele>1247.3</ele>
        <time>2014-10-02T14:54:39Z</time>
      </trkpt>
      <trkpt lat="42.7089360" lon="-7.1119740">
        <ele>1247.7</ele>
        <time>2014-10-02T14:54:41Z</time>
      </trkpt>
      <trkpt lat="42.7089750" lon="-7.1119830">
        <ele>1248.1</ele>
        <time>2014-10-02T14:54:43Z</time>
      </trkpt>
      <trkpt lat="42.7090110" lon="-7.1119910">
        <ele>1248.4</ele>
        <time>2014-10-02T14:54:45Z</time>
      </trkpt>
      <trkpt lat="42.7090580" lon="-7.1120130">
        <ele>1248.9</ele>
        <time>2014-10-02T14:54:47Z</time>
      </trkpt>
      <trkpt lat="42.7091020" lon="-7.1120340">
        <ele>1249.3</ele>
        <time>2014-10-02T14:54:49Z</time>
      </trkpt>
      <trkpt lat="42.7091520" lon="-7.1120580">
        <ele>1249.8</ele>
        <time>2014-10-02T14:54:51Z</time>
      </trkpt>
      <trkpt lat="42.7092050" lon="-7.1120840">
        <ele>1250.3</ele>
        <time>2014-10-02T14:54:53Z</time>
      </trkpt>
      <trkpt lat="42.7092300" lon="-7.1121000">
        <ele>1250.5</ele>
        <time>2014-10-02T14:54:54Z</time>
      </trkpt>
      <trkpt lat="42.7092560" lon="-7.1121190">
        <ele>1250.8</ele>
        <time>2014-10-02T14:54:55Z</time>
      </trkpt>
      <trkpt lat="42.7092810" lon="-7.1121390">
        <ele>1251.1</ele>
        <time>2014-10-02T14:54:56Z</time>
      </trkpt>
      <trkpt lat="42.7093080" lon="-7.1121650">
        <ele>1251.3</ele>
        <time>2014-10-02T14:54:57Z</time>
      </trkpt>
      <trkpt lat="42.7093320" lon="-7.1121900">
        <ele>1251.6</ele>
        <time>2014-10-02T14:54:58Z</time>
      </trkpt>
      <trkpt lat="42.7093530" lon="-7.1122210">
        <ele>1251.8</ele>
        <time>2014-10-02T14:54:59Z</time>
      </trkpt>
      <trkpt lat="42.7093720" lon="-7.1122530">
        <ele>1252.1</ele>
        <time>2014-10-02T14:55:00Z</time>
      </trkpt>
      <trkpt lat="42.7093910" lon="-7.1122860">
        <ele>1252.3</ele>
        <time>2014-10-02T14:55:01Z</time>
      </trkpt>
      <trkpt lat="42.7094130" lon="-7.1123250">
        <ele>1252.6</ele>
        <time>2014-10-02T14:55:02Z</time>
      </trkpt>
      <trkpt lat="42.7094360" lon="-7.1123690">
        <ele>1252.8</ele>
        <time>2014-10-02T14:55:03Z</time>
      </trkpt>
      <trkpt lat="42.7094580" lon="-7.1124190">
        <ele>1253.2</ele>
        <time>2014-10-02T14:55:04Z</time>
      </trkpt>
      <trkpt lat="42.7094810" lon="-7.1124770">
        <ele>1253.5</ele>
        <time>2014-10-02T14:55:05Z</time>
      </trkpt>
      <trkpt lat="42.7095020" lon="-7.1125360">
        <ele>1253.8</ele>
        <time>2014-10-02T14:55:06Z</time>
      </trkpt>
      <trkpt lat="42.7095240" lon="-7.1125920">
        <ele>1254.2</ele>
        <time>2014-10-02T14:55:07Z</time>
      </trkpt>
      <trkpt lat="42.7095480" lon="-7.1126540">
        <ele>1254.5</ele>
        <time>2014-10-02T14:55:08Z</time>
      </trkpt>
      <trkpt lat="42.7095660" lon="-7.1127020">
        <ele>1254.8</ele>
        <time>2014-10-02T14:55:09Z</time>
      </trkpt>
      <trkpt lat="42.7095780" lon="-7.1127490">
        <ele>1255.0</ele>
        <time>2014-10-02T14:55:10Z</time>
      </trkpt>
      <trkpt lat="42.7095910" lon="-7.1127980">
        <ele>1255.2</ele>
        <time>2014-10-02T14:55:11Z</time>
      </trkpt>
      <trkpt lat="42.7095990" lon="-7.1128430">
        <ele>1255.5</ele>
        <time>2014-10-02T14:55:12Z</time>
      </trkpt>
      <trkpt lat="42.7096060" lon="-7.1128900">
        <ele>1255.7</ele>
        <time>2014-10-02T14:55:13Z</time>
      </trkpt>
      <trkpt lat="42.7096150" lon="-7.1129440">
        <ele>1256.0</ele>
        <time>2014-10-02T14:55:14Z</time>
      </trkpt>
      <trkpt lat="42.7096280" lon="-7.1129910">
        <ele>1256.2</ele>
        <time>2014-10-02T14:55:15Z</time>
      </trkpt>
      <trkpt lat="42.7096390" lon="-7.1130330">
        <ele>1256.4</ele>
        <time>2014-10-02T14:55:16Z</time>
      </trkpt>
      <trkpt lat="42.7096500" lon="-7.1130710">
        <ele>1256.6</ele>
        <time>2014-10-02T14:55:17Z</time>
      </trkpt>
      <trkpt lat="42.7096580" lon="-7.1131140">
        <ele>1256.8</ele>
        <time>2014-10-02T14:55:18Z</time>
      </trkpt>
      <trkpt lat="42.7096640" lon="-7.1131600">
        <ele>1257.0</ele>
        <time>2014-10-02T14:55:19Z</time>
      </trkpt>
      <trkpt lat="42.7096700" lon="-7.1132040">
        <ele>1257.2</ele>
        <time>2014-10-02T14:55:20Z</time>
      </trkpt>
      <trkpt lat="42.7096740" lon="-7.1132420">
        <ele>1257.4</ele>
        <time>2014-10-02T14:55:21Z</time>
      </trkpt>
      <trkpt lat="42.7096790" lon="-7.1132780">
        <ele>1257.6</ele>
        <time>2014-10-02T14:55:22Z</time>
      </trkpt>
      <trkpt lat="42.7096810" lon="-7.1133210">
        <ele>1257.8</ele>
        <time>2014-10-02T14:55:23Z</time>
      </trkpt>
      <trkpt lat="42.7096830" lon="-7.1133680">
        <ele>1258.0</ele>
        <time>2014-10-02T14:55:24Z</time>
      </trkpt>
      <trkpt lat="42.7096830" lon="-7.1134150">
        <ele>1258.2</ele>
        <time>2014-10-02T14:55:25Z</time>
      </trkpt>
      <trkpt lat="42.7096830" lon="-7.1134550">
        <ele>1258.4</ele>
        <time>2014-10-02T14:55:26Z</time>
      </trkpt>
      <trkpt lat="42.7096850" lon="-7.1134960">
        <ele>1258.5</ele>
        <time>2014-10-02T14:55:27Z</time>
      </trkpt>
      <trkpt lat="42.7096880" lon="-7.1135450">
        <ele>1258.8</ele>
        <time>2014-10-02T14:55:28Z</time>
      </trkpt>
      <trkpt lat="42.7096910" lon="-7.1135920">
        <ele>1259.0</ele>
        <time>2014-10-02T14:55:29Z</time>
      </trkpt>
      <trkpt lat="42.7096960" lon="-7.1136400">
        <ele>1259.2</ele>
        <time>2014-10-02T14:55:30Z</time>
      </trkpt>
      <trkpt lat="42.7097000" lon="-7.1136840">
        <ele>1259.4</ele>
        <time>2014-10-02T14:55:31Z</time>
      </trkpt>
      <trkpt lat="42.7097100" lon="-7.1137590">
        <ele>1259.8</ele>
        <time>2014-10-02T14:55:33Z</time>
      </trkpt>
      <trkpt lat="42.7097160" lon="-7.1138050">
        <ele>1260.0</ele>
        <time>2014-10-02T14:55:34Z</time>
      </trkpt>
      <trkpt lat="42.7097220" lon="-7.1138500">
        <ele>1260.2</ele>
        <time>2014-10-02T14:55:35Z</time>
      </trkpt>
      <trkpt lat="42.7097260" lon="-7.1138960">
        <ele>1260.4</ele>
        <time>2014-10-02T14:55:36Z</time>
      </trkpt>
      <trkpt lat="42.7097350" lon="-7.1139680">
        <ele>1260.7</ele>
        <time>2014-10-02T14:55:38Z</time>
      </trkpt>
      <trkpt lat="42.7097390" lon="-7.1140210">
        <ele>1260.9</ele>
        <time>2014-10-02T14:55:39Z</time>
      </trkpt>
      <trkpt lat="42.7097400" lon="-7.1140830">
        <ele>1261.2</ele>
        <time>2014-10-02T14:55:40Z</time>
      </trkpt>
      <trkpt lat="42.7097410" lon="-7.1141260">
        <ele>1261.4</ele>
        <time>2014-10-02T14:55:41Z</time>
      </trkpt>
      <trkpt lat="42.7097430" lon="-7.1142000">
        <ele>1261.7</ele>
        <time>2014-10-02T14:55:43Z</time>
      </trkpt>
      <trkpt lat="42.7097430" lon="-7.1142510">
        <ele>1261.9</ele>
        <time>2014-10-02T14:55:44Z</time>
      </trkpt>
      <trkpt lat="42.7097430" lon="-7.1142990">
        <ele>1262.1</ele>
        <time>2014-10-02T14:55:45Z</time>
      </trkpt>
      <trkpt lat="42.7097390" lon="-7.1143490">
        <ele>1262.3</ele>
        <time>2014-10-02T14:55:46Z</time>
      </trkpt>
      <trkpt lat="42.7097360" lon="-7.1143990">
        <ele>1262.5</ele>
        <time>2014-10-02T14:55:47Z</time>
      </trkpt>
      <trkpt lat="42.7097320" lon="-7.1144430">
        <ele>1262.7</ele>
        <time>2014-10-02T14:55:48Z</time>
      </trkpt>
      <trkpt lat="42.7097290" lon="-7.1144840">
        <ele>1262.9</ele>
        <time>2014-10-02T14:55:49Z</time>
      </trkpt>
      <trkpt lat="42.7097240" lon="-7.1145240">
        <ele>1263.1</ele>
        <time>2014-10-02T14:55:50Z</time>
      </trkpt>
      <trkpt lat="42.7097180" lon="-7.1145650">
        <ele>1263.3</ele>
        <time>2014-10-02T14:55:51Z</time>
      </trkpt>
      <trkpt lat="42.7097110" lon="-7.1146090">
        <ele>1263.5</ele>
        <time>2014-10-02T14:55:52Z</time>
      </trkpt>
      <trkpt lat="42.7097040" lon="-7.1146590">
        <ele>1263.7</ele>
        <time>2014-10-02T14:55:53Z</time>
      </trkpt>
      <trkpt lat="42.7096970" lon="-7.1147130">
        <ele>1264.0</ele>
        <time>2014-10-02T14:55:54Z</time>
      </trkpt>
      <trkpt lat="42.7096880" lon="-7.1147690">
        <ele>1264.2</ele>
        <time>2014-10-02T14:55:55Z</time>
      </trkpt>
      <trkpt lat="42.7096820" lon="-7.1148120">
        <ele>1264.4</ele>
        <time>2014-10-02T14:55:56Z</time>
      </trkpt>
      <trkpt lat="42.7096680" lon="-7.1148580">
        <ele>1264.6</ele>
        <time>2014-10-02T14:55:57Z</time>
      </trkpt>
      <trkpt lat="42.7096560" lon="-7.1148970">
        <ele>1264.8</ele>
        <time>2014-10-02T14:55:58Z</time>
      </trkpt>
      <trkpt lat="42.7096430" lon="-7.1149410">
        <ele>1265.1</ele>
        <time>2014-10-02T14:55:59Z</time>
      </trkpt>
      <trkpt lat="42.7096250" lon="-7.1149900">
        <ele>1265.3</ele>
        <time>2014-10-02T14:56:00Z</time>
      </trkpt>
      <trkpt lat="42.7096100" lon="-7.1150330">
        <ele>1265.5</ele>
        <time>2014-10-02T14:56:01Z</time>
      </trkpt>
      <trkpt lat="42.7095940" lon="-7.1150790">
        <ele>1265.7</ele>
        <time>2014-10-02T14:56:02Z</time>
      </trkpt>
      <trkpt lat="42.7095800" lon="-7.1151220">
        <ele>1266.0</ele>
        <time>2014-10-02T14:56:03Z</time>
      </trkpt>
      <trkpt lat="42.7095610" lon="-7.1151710">
        <ele>1266.2</ele>
        <time>2014-10-02T14:56:04Z</time>
      </trkpt>
      <trkpt lat="42.7095460" lon="-7.1152120">
        <ele>1266.4</ele>
        <time>2014-10-02T14:56:05Z</time>
      </trkpt>
      <trkpt lat="42.7095270" lon="-7.1152550">
        <ele>1266.6</ele>
        <time>2014-10-02T14:56:06Z</time>
      </trkpt>
      <trkpt lat="42.7095090" lon="-7.1152940">
        <ele>1266.9</ele>
        <time>2014-10-02T14:56:07Z</time>
      </trkpt>
      <trkpt lat="42.7094940" lon="-7.1153260">
        <ele>1267.0</ele>
        <time>2014-10-02T14:56:08Z</time>
      </trkpt>
      <trkpt lat="42.7094640" lon="-7.1153870">
        <ele>1267.4</ele>
        <time>2014-10-02T14:56:10Z</time>
      </trkpt>
      <trkpt lat="42.7094480" lon="-7.1154200">
        <ele>1267.6</ele>
        <time>2014-10-02T14:56:11Z</time>
      </trkpt>
      <trkpt lat="42.7094280" lon="-7.1154580">
        <ele>1267.9</ele>
        <time>2014-10-02T14:56:12Z</time>
      </trkpt>
      <trkpt lat="42.7094090" lon="-7.1154920">
        <ele>1268.1</ele>
        <time>2014-10-02T14:56:13Z</time>
      </trkpt>
      <trkpt lat="42.7093890" lon="-7.1155270">
        <ele>1268.3</ele>
        <time>2014-10-02T14:56:14Z</time>
      </trkpt>
      <trkpt lat="42.7093710" lon="-7.1155600">
        <ele>1268.5</ele>
        <time>2014-10-02T14:56:15Z</time>
      </trkpt>
      <trkpt lat="42.7093470" lon="-7.1155980">
        <ele>1268.8</ele>
        <time>2014-10-02T14:56:16Z</time>
      </trkpt>
      <trkpt lat="42.7093050" lon="-7.1156590">
        <ele>1269.2</ele>
        <time>2014-10-02T14:56:18Z</time>
      </trkpt>
      <trkpt lat="42.7092840" lon="-7.1156880">
        <ele>1269.5</ele>
        <time>2014-10-02T14:56:19Z</time>
      </trkpt>
      <trkpt lat="42.7092610" lon="-7.1157150">
        <ele>1269.7</ele>
        <time>2014-10-02T14:56:20Z</time>
      </trkpt>
      <trkpt lat="42.7092310" lon="-7.1157520">
        <ele>1270.0</ele>
        <time>2014-10-02T14:56:21Z</time>
      </trkpt>
      <trkpt lat="42.7092040" lon="-7.1157830">
        <ele>1270.2</ele>
        <time>2014-10-02T14:56:22Z</time>
      </trkpt>
      <trkpt lat="42.7091750" lon="-7.1158160">
        <ele>1270.5</ele>
        <time>2014-10-02T14:56:23Z</time>
      </trkpt>
      <trkpt lat="42.7091510" lon="-7.1158430">
        <ele>1270.7</ele>
        <time>2014-10-02T14:56:24Z</time>
      </trkpt>
      <trkpt lat="42.7091280" lon="-7.1158720">
        <ele>1271.0</ele>
        <time>2014-10-02T14:56:25Z</time>
      </trkpt>
      <trkpt lat="42.7091060" lon="-7.1158980">
        <ele>1271.2</ele>
        <time>2014-10-02T14:56:26Z</time>
      </trkpt>
      <trkpt lat="42.7090760" lon="-7.1159300">
        <ele>1271.5</ele>
        <time>2014-10-02T14:56:27Z</time>
      </trkpt>
      <trkpt lat="42.7090470" lon="-7.1159600">
        <ele>1271.8</ele>
        <time>2014-10-02T14:56:28Z</time>
      </trkpt>
      <trkpt lat="42.7090230" lon="-7.1159860">
        <ele>1272.0</ele>
        <time>2014-10-02T14:56:29Z</time>
      </trkpt>
      <trkpt lat="42.7089970" lon="-7.1160140">
        <ele>1272.3</ele>
        <time>2014-10-02T14:56:30Z</time>
      </trkpt>
      <trkpt lat="42.7089670" lon="-7.1160470">
        <ele>1272.6</ele>
        <time>2014-10-02T14:56:31Z</time>
      </trkpt>
      <trkpt lat="42.7089360" lon="-7.1160810">
        <ele>1272.9</ele>
        <time>2014-10-02T14:56:32Z</time>
      </trkpt>
      <trkpt lat="42.7089120" lon="-7.1161050">
        <ele>1273.1</ele>
        <time>2014-10-02T14:56:33Z</time>
      </trkpt>
      <trkpt lat="42.7088840" lon="-7.1161320">
        <ele>1273.4</ele>
        <time>2014-10-02T14:56:34Z</time>
      </trkpt>
      <trkpt lat="42.7088610" lon="-7.1161550">
        <ele>1273.7</ele>
        <time>2014-10-02T14:56:35Z</time>
      </trkpt>
      <trkpt lat="42.7088400" lon="-7.1161810">
        <ele>1273.9</ele>
        <time>2014-10-02T14:56:36Z</time>
      </trkpt>
      <trkpt lat="42.7087990" lon="-7.1162330">
        <ele>1274.4</ele>
        <time>2014-10-02T14:56:38Z</time>
      </trkpt>
      <trkpt lat="42.7087750" lon="-7.1162640">
        <ele>1274.7</ele>
        <time>2014-10-02T14:56:39Z</time>
      </trkpt>
      <trkpt lat="42.7087460" lon="-7.1162990">
        <ele>1275.0</ele>
        <time>2014-10-02T14:56:40Z</time>
      </trkpt>
      <trkpt lat="42.7087180" lon="-7.1163300">
        <ele>1275.4</ele>
        <time>2014-10-02T14:56:41Z</time>
      </trkpt>
      <trkpt lat="42.7086860" lon="-7.1163650">
        <ele>1275.8</ele>
        <time>2014-10-02T14:56:42Z</time>
      </trkpt>
      <trkpt lat="42.7086580" lon="-7.1163960">
        <ele>1276.1</ele>
        <time>2014-10-02T14:56:43Z</time>
      </trkpt>
      <trkpt lat="42.7086300" lon="-7.1164280">
        <ele>1276.5</ele>
        <time>2014-10-02T14:56:44Z</time>
      </trkpt>
      <trkpt lat="42.7086070" lon="-7.1164560">
        <ele>1276.8</ele>
        <time>2014-10-02T14:56:45Z</time>
      </trkpt>
      <trkpt lat="42.7085690" lon="-7.1165010">
        <ele>1277.3</ele>
        <time>2014-10-02T14:56:47Z</time>
      </trkpt>
      <trkpt lat="42.7085440" lon="-7.1165320">
        <ele>1277.6</ele>
        <time>2014-10-02T14:56:48Z</time>
      </trkpt>
      <trkpt lat="42.7085210" lon="-7.1165630">
        <ele>1278.0</ele>
        <time>2014-10-02T14:56:49Z</time>
      </trkpt>
      <trkpt lat="42.7084980" lon="-7.1165980">
        <ele>1278.3</ele>
        <time>2014-10-02T14:56:50Z</time>
      </trkpt>
      <trkpt lat="42.7084790" lon="-7.1166270">
        <ele>1278.9</ele>
        <time>2014-10-02T14:56:51Z</time>
      </trkpt>
      <trkpt lat="42.7084510" lon="-7.1166810">
        <ele>1279.4</ele>
        <time>2014-10-02T14:56:53Z</time>
      </trkpt>
      <trkpt lat="42.7084360" lon="-7.1167300">
        <ele>1279.8</ele>
        <time>2014-10-02T14:56:55Z</time>
      </trkpt>
      <trkpt lat="42.7084150" lon="-7.1167930">
        <ele>1280.4</ele>
        <time>2014-10-02T14:56:57Z</time>
      </trkpt>
      <trkpt lat="42.7084040" lon="-7.1168270">
        <ele>1280.6</ele>
        <time>2014-10-02T14:56:58Z</time>
      </trkpt>
      <trkpt lat="42.7083930" lon="-7.1168650">
        <ele>1280.9</ele>
        <time>2014-10-02T14:56:59Z</time>
      </trkpt>
      <trkpt lat="42.7083860" lon="-7.1169030">
        <ele>1281.2</ele>
        <time>2014-10-02T14:57:00Z</time>
      </trkpt>
      <trkpt lat="42.7083770" lon="-7.1169490">
        <ele>1281.5</ele>
        <time>2014-10-02T14:57:01Z</time>
      </trkpt>
      <trkpt lat="42.7083670" lon="-7.1169890">
        <ele>1281.8</ele>
        <time>2014-10-02T14:57:02Z</time>
      </trkpt>
      <trkpt lat="42.7083590" lon="-7.1170300">
        <ele>1282.1</ele>
        <time>2014-10-02T14:57:03Z</time>
      </trkpt>
      <trkpt lat="42.7083540" lon="-7.1170720">
        <ele>1282.3</ele>
        <time>2014-10-02T14:57:04Z</time>
      </trkpt>
      <trkpt lat="42.7083620" lon="-7.1171310">
        <ele>1282.6</ele>
        <time>2014-10-02T14:57:06Z</time>
      </trkpt>
      <trkpt lat="42.7083640" lon="-7.1171770">
        <ele>1282.9</ele>
        <time>2014-10-02T14:57:07Z</time>
      </trkpt>
      <trkpt lat="42.7083670" lon="-7.1172190">
        <ele>1283.1</ele>
        <time>2014-10-02T14:57:08Z</time>
      </trkpt>
      <trkpt lat="42.7083720" lon="-7.1172970">
        <ele>1283.6</ele>
        <time>2014-10-02T14:57:10Z</time>
      </trkpt>
      <trkpt lat="42.7083830" lon="-7.1173690">
        <ele>1283.9</ele>
        <time>2014-10-02T14:57:12Z</time>
      </trkpt>
      <trkpt lat="42.7083900" lon="-7.1174120">
        <ele>1284.2</ele>
        <time>2014-10-02T14:57:13Z</time>
      </trkpt>
      <trkpt lat="42.7084000" lon="-7.1174540">
        <ele>1284.4</ele>
        <time>2014-10-02T14:57:14Z</time>
      </trkpt>
      <trkpt lat="42.7084100" lon="-7.1174960">
        <ele>1284.6</ele>
        <time>2014-10-02T14:57:15Z</time>
      </trkpt>
      <trkpt lat="42.7084240" lon="-7.1175430">
        <ele>1284.8</ele>
        <time>2014-10-02T14:57:16Z</time>
      </trkpt>
      <trkpt lat="42.7084370" lon="-7.1175820">
        <ele>1285.0</ele>
        <time>2014-10-02T14:57:17Z</time>
      </trkpt>
      <trkpt lat="42.7084510" lon="-7.1176160">
        <ele>1285.2</ele>
        <time>2014-10-02T14:57:18Z</time>
      </trkpt>
      <trkpt lat="42.7084710" lon="-7.1176620">
        <ele>1285.5</ele>
        <time>2014-10-02T14:57:19Z</time>
      </trkpt>
      <trkpt lat="42.7084910" lon="-7.1177050">
        <ele>1285.7</ele>
        <time>2014-10-02T14:57:20Z</time>
      </trkpt>
      <trkpt lat="42.7085130" lon="-7.1177480">
        <ele>1286.0</ele>
        <time>2014-10-02T14:57:21Z</time>
      </trkpt>
      <trkpt lat="42.7085340" lon="-7.1177910">
        <ele>1286.3</ele>
        <time>2014-10-02T14:57:22Z</time>
      </trkpt>
      <trkpt lat="42.7085550" lon="-7.1178290">
        <ele>1286.5</ele>
        <time>2014-10-02T14:57:23Z</time>
      </trkpt>
      <trkpt lat="42.7085890" lon="-7.1178940">
        <ele>1286.9</ele>
        <time>2014-10-02T14:57:25Z</time>
      </trkpt>
      <trkpt lat="42.7086050" lon="-7.1179330">
        <ele>1287.1</ele>
        <time>2014-10-02T14:57:26Z</time>
      </trkpt>
      <trkpt lat="42.7086210" lon="-7.1179750">
        <ele>1287.3</ele>
        <time>2014-10-02T14:57:27Z</time>
      </trkpt>
      <trkpt lat="42.7086370" lon="-7.1180230">
        <ele>1287.6</ele>
        <time>2014-10-02T14:57:28Z</time>
      </trkpt>
      <trkpt lat="42.7086490" lon="-7.1180630">
        <ele>1287.8</ele>
        <time>2014-10-02T14:57:29Z</time>
      </trkpt>
      <trkpt lat="42.7086590" lon="-7.1181040">
        <ele>1288.0</ele>
        <time>2014-10-02T14:57:30Z</time>
      </trkpt>
      <trkpt lat="42.7086670" lon="-7.1181500">
        <ele>1288.3</ele>
        <time>2014-10-02T14:57:31Z</time>
      </trkpt>
      <trkpt lat="42.7086730" lon="-7.1181940">
        <ele>1288.5</ele>
        <time>2014-10-02T14:57:32Z</time>
      </trkpt>
      <trkpt lat="42.7086820" lon="-7.1182500">
        <ele>1288.8</ele>
        <time>2014-10-02T14:57:33Z</time>
      </trkpt>
      <trkpt lat="42.7086880" lon="-7.1182940">
        <ele>1289.0</ele>
        <time>2014-10-02T14:57:34Z</time>
      </trkpt>
      <trkpt lat="42.7086910" lon="-7.1183380">
        <ele>1289.2</ele>
        <time>2014-10-02T14:57:35Z</time>
      </trkpt>
      <trkpt lat="42.7086930" lon="-7.1184100">
        <ele>1289.6</ele>
        <time>2014-10-02T14:57:37Z</time>
      </trkpt>
      <trkpt lat="42.7086940" lon="-7.1184490">
        <ele>1289.8</ele>
        <time>2014-10-02T14:57:38Z</time>
      </trkpt>
      <trkpt lat="42.7086950" lon="-7.1184890">
        <ele>1290.0</ele>
        <time>2014-10-02T14:57:39Z</time>
      </trkpt>
      <trkpt lat="42.7086960" lon="-7.1185310">
        <ele>1290.2</ele>
        <time>2014-10-02T14:57:40Z</time>
      </trkpt>
      <trkpt lat="42.7086960" lon="-7.1185750">
        <ele>1290.4</ele>
        <time>2014-10-02T14:57:41Z</time>
      </trkpt>
      <trkpt lat="42.7086940" lon="-7.1186210">
        <ele>1290.6</ele>
        <time>2014-10-02T14:57:42Z</time>
      </trkpt>
      <trkpt lat="42.7086940" lon="-7.1186640">
        <ele>1290.8</ele>
        <time>2014-10-02T14:57:43Z</time>
      </trkpt>
      <trkpt lat="42.7086930" lon="-7.1187400">
        <ele>1291.2</ele>
        <time>2014-10-02T14:57:45Z</time>
      </trkpt>
      <trkpt lat="42.7086910" lon="-7.1187870">
        <ele>1291.4</ele>
        <time>2014-10-02T14:57:46Z</time>
      </trkpt>
      <trkpt lat="42.7086870" lon="-7.1188370">
        <ele>1291.7</ele>
        <time>2014-10-02T14:57:47Z</time>
      </trkpt>
      <trkpt lat="42.7086820" lon="-7.1188850">
        <ele>1291.9</ele>
        <time>2014-10-02T14:57:48Z</time>
      </trkpt>
      <trkpt lat="42.7086750" lon="-7.1189330">
        <ele>1292.1</ele>
        <time>2014-10-02T14:57:49Z</time>
      </trkpt>
      <trkpt lat="42.7086680" lon="-7.1189780">
        <ele>1292.3</ele>
        <time>2014-10-02T14:57:50Z</time>
      </trkpt>
      <trkpt lat="42.7086600" lon="-7.1190260">
        <ele>1292.6</ele>
        <time>2014-10-02T14:57:51Z</time>
      </trkpt>
      <trkpt lat="42.7086530" lon="-7.1190630">
        <ele>1292.7</ele>
        <time>2014-10-02T14:57:52Z</time>
      </trkpt>
      <trkpt lat="42.7086450" lon="-7.1191060">
        <ele>1293.0</ele>
        <time>2014-10-02T14:57:53Z</time>
      </trkpt>
      <trkpt lat="42.7086370" lon="-7.1191500">
        <ele>1293.2</ele>
        <time>2014-10-02T14:57:54Z</time>
      </trkpt>
      <trkpt lat="42.7086270" lon="-7.1192020">
        <ele>1293.4</ele>
        <time>2014-10-02T14:57:55Z</time>
      </trkpt>
      <trkpt lat="42.7086170" lon="-7.1192510">
        <ele>1293.7</ele>
        <time>2014-10-02T14:57:56Z</time>
      </trkpt>
      <trkpt lat="42.7086080" lon="-7.1192970">
        <ele>1293.9</ele>
        <time>2014-10-02T14:57:57Z</time>
      </trkpt>
      <trkpt lat="42.7086000" lon="-7.1193440">
        <ele>1294.1</ele>
        <time>2014-10-02T14:57:58Z</time>
      </trkpt>
      <trkpt lat="42.7085910" lon="-7.1193870">
        <ele>1294.3</ele>
        <time>2014-10-02T14:57:59Z</time>
      </trkpt>
      <trkpt lat="42.7085830" lon="-7.1194350">
        <ele>1294.6</ele>
        <time>2014-10-02T14:58:00Z</time>
      </trkpt>
      <trkpt lat="42.7085750" lon="-7.1194820">
        <ele>1294.8</ele>
        <time>2014-10-02T14:58:01Z</time>
      </trkpt>
      <trkpt lat="42.7085710" lon="-7.1195290">
        <ele>1295.0</ele>
        <time>2014-10-02T14:58:02Z</time>
      </trkpt>
      <trkpt lat="42.7085760" lon="-7.1195680">
        <ele>1295.2</ele>
        <time>2014-10-02T14:58:03Z</time>
      </trkpt>
      <trkpt lat="42.7085810" lon="-7.1196060">
        <ele>1295.4</ele>
        <time>2014-10-02T14:58:04Z</time>
      </trkpt>
      <trkpt lat="42.7085860" lon="-7.1196450">
        <ele>1295.6</ele>
        <time>2014-10-02T14:58:05Z</time>
      </trkpt>
      <trkpt lat="42.7085900" lon="-7.1196860">
        <ele>1295.8</ele>
        <time>2014-10-02T14:58:06Z</time>
      </trkpt>
      <trkpt lat="42.7085940" lon="-7.1197300">
        <ele>1296.0</ele>
        <time>2014-10-02T14:58:07Z</time>
      </trkpt>
      <trkpt lat="42.7086000" lon="-7.1197740">
        <ele>1296.2</ele>
        <time>2014-10-02T14:58:08Z</time>
      </trkpt>
      <trkpt lat="42.7086060" lon="-7.1198210">
        <ele>1296.4</ele>
        <time>2014-10-02T14:58:09Z</time>
      </trkpt>
      <trkpt lat="42.7086210" lon="-7.1198670">
        <ele>1296.6</ele>
        <time>2014-10-02T14:58:10Z</time>
      </trkpt>
      <trkpt lat="42.7086330" lon="-7.1199050">
        <ele>1296.8</ele>
        <time>2014-10-02T14:58:11Z</time>
      </trkpt>
      <trkpt lat="42.7086480" lon="-7.1199440">
        <ele>1296.9</ele>
        <time>2014-10-02T14:58:12Z</time>
      </trkpt>
      <trkpt lat="42.7086630" lon="-7.1199830">
        <ele>1297.1</ele>
        <time>2014-10-02T14:58:13Z</time>
      </trkpt>
      <trkpt lat="42.7086790" lon="-7.1200170">
        <ele>1297.2</ele>
        <time>2014-10-02T14:58:14Z</time>
      </trkpt>
      <trkpt lat="42.7087120" lon="-7.1200870">
        <ele>1297.5</ele>
        <time>2014-10-02T14:58:16Z</time>
      </trkpt>
      <trkpt lat="42.7087280" lon="-7.1201230">
        <ele>1297.7</ele>
        <time>2014-10-02T14:58:17Z</time>
      </trkpt>
      <trkpt lat="42.7087480" lon="-7.1201640">
        <ele>1297.9</ele>
        <time>2014-10-02T14:58:18Z</time>
      </trkpt>
      <trkpt lat="42.7087690" lon="-7.1202040">
        <ele>1298.0</ele>
        <time>2014-10-02T14:58:19Z</time>
      </trkpt>
      <trkpt lat="42.7087900" lon="-7.1202450">
        <ele>1298.2</ele>
        <time>2014-10-02T14:58:20Z</time>
      </trkpt>
      <trkpt lat="42.7088120" lon="-7.1202880">
        <ele>1298.4</ele>
        <time>2014-10-02T14:58:21Z</time>
      </trkpt>
      <trkpt lat="42.7088350" lon="-7.1203310">
        <ele>1298.6</ele>
        <time>2014-10-02T14:58:22Z</time>
      </trkpt>
      <trkpt lat="42.7088580" lon="-7.1203710">
        <ele>1298.8</ele>
        <time>2014-10-02T14:58:23Z</time>
      </trkpt>
      <trkpt lat="42.7088810" lon="-7.1204100">
        <ele>1299.0</ele>
        <time>2014-10-02T14:58:24Z</time>
      </trkpt>
      <trkpt lat="42.7089050" lon="-7.1204520">
        <ele>1299.2</ele>
        <time>2014-10-02T14:58:25Z</time>
      </trkpt>
      <trkpt lat="42.7089290" lon="-7.1204950">
        <ele>1299.5</ele>
        <time>2014-10-02T14:58:26Z</time>
      </trkpt>
      <trkpt lat="42.7089530" lon="-7.1205400">
        <ele>1299.8</ele>
        <time>2014-10-02T14:58:27Z</time>
      </trkpt>
      <trkpt lat="42.7089770" lon="-7.1205810">
        <ele>1300.0</ele>
        <time>2014-10-02T14:58:28Z</time>
      </trkpt>
      <trkpt lat="42.7090010" lon="-7.1206210">
        <ele>1300.2</ele>
        <time>2014-10-02T14:58:29Z</time>
      </trkpt>
      <trkpt lat="42.7090230" lon="-7.1206590">
        <ele>1300.4</ele>
        <time>2014-10-02T14:58:30Z</time>
      </trkpt>
      <trkpt lat="42.7090450" lon="-7.1206950">
        <ele>1300.6</ele>
        <time>2014-10-02T14:58:31Z</time>
      </trkpt>
      <trkpt lat="42.7090670" lon="-7.1207280">
        <ele>1300.8</ele>
        <time>2014-10-02T14:58:32Z</time>
      </trkpt>
      <trkpt lat="42.7090920" lon="-7.1207680">
        <ele>1301.0</ele>
        <time>2014-10-02T14:58:33Z</time>
      </trkpt>
      <trkpt lat="42.7091140" lon="-7.1208080">
        <ele>1301.2</ele>
        <time>2014-10-02T14:58:34Z</time>
      </trkpt>
      <trkpt lat="42.7091360" lon="-7.1208480">
        <ele>1301.4</ele>
        <time>2014-10-02T14:58:35Z</time>
      </trkpt>
      <trkpt lat="42.7091570" lon="-7.1208870">
        <ele>1301.6</ele>
        <time>2014-10-02T14:58:36Z</time>
      </trkpt>
      <trkpt lat="42.7091810" lon="-7.1209310">
        <ele>1301.8</ele>
        <time>2014-10-02T14:58:37Z</time>
      </trkpt>
      <trkpt lat="42.7092080" lon="-7.1209800">
        <ele>1302.1</ele>
        <time>2014-10-02T14:58:38Z</time>
      </trkpt>
      <trkpt lat="42.7092330" lon="-7.1210250">
        <ele>1302.3</ele>
        <time>2014-10-02T14:58:39Z</time>
      </trkpt>
      <trkpt lat="42.7092550" lon="-7.1210660">
        <ele>1302.5</ele>
        <time>2014-10-02T14:58:40Z</time>
      </trkpt>
      <trkpt lat="42.7092750" lon="-7.1211040">
        <ele>1302.7</ele>
        <time>2014-10-02T14:58:41Z</time>
      </trkpt>
      <trkpt lat="42.7092980" lon="-7.1211450">
        <ele>1302.9</ele>
        <time>2014-10-02T14:58:42Z</time>
      </trkpt>
      <trkpt lat="42.7093200" lon="-7.1211860">
        <ele>1303.1</ele>
        <time>2014-10-02T14:58:43Z</time>
      </trkpt>
      <trkpt lat="42.7093450" lon="-7.1212330">
        <ele>1303.3</ele>
        <time>2014-10-02T14:58:44Z</time>
      </trkpt>
      <trkpt lat="42.7093670" lon="-7.1212730">
        <ele>1303.5</ele>
        <time>2014-10-02T14:58:45Z</time>
      </trkpt>
      <trkpt lat="42.7093880" lon="-7.1213130">
        <ele>1303.7</ele>
        <time>2014-10-02T14:58:46Z</time>
      </trkpt>
      <trkpt lat="42.7094050" lon="-7.1213480">
        <ele>1303.9</ele>
        <time>2014-10-02T14:58:47Z</time>
      </trkpt>
      <trkpt lat="42.7094270" lon="-7.1213920">
        <ele>1304.1</ele>
        <time>2014-10-02T14:58:48Z</time>
      </trkpt>
      <trkpt lat="42.7094470" lon="-7.1214320">
        <ele>1304.2</ele>
        <time>2014-10-02T14:58:49Z</time>
      </trkpt>
      <trkpt lat="42.7094690" lon="-7.1214790">
        <ele>1304.4</ele>
        <time>2014-10-02T14:58:50Z</time>
      </trkpt>
      <trkpt lat="42.7094910" lon="-7.1215210">
        <ele>1304.6</ele>
        <time>2014-10-02T14:58:51Z</time>
      </trkpt>
      <trkpt lat="42.7095130" lon="-7.1215650">
        <ele>1304.8</ele>
        <time>2014-10-02T14:58:52Z</time>
      </trkpt>
      <trkpt lat="42.7095380" lon="-7.1216140">
        <ele>1305.0</ele>
        <time>2014-10-02T14:58:53Z</time>
      </trkpt>
      <trkpt lat="42.7095660" lon="-7.1216620">
        <ele>1305.2</ele>
        <time>2014-10-02T14:58:54Z</time>
      </trkpt>
      <trkpt lat="42.7095910" lon="-7.1217070">
        <ele>1305.4</ele>
        <time>2014-10-02T14:58:55Z</time>
      </trkpt>
      <trkpt lat="42.7096160" lon="-7.1217510">
        <ele>1305.5</ele>
        <time>2014-10-02T14:58:56Z</time>
      </trkpt>
      <trkpt lat="42.7096430" lon="-7.1217980">
        <ele>1305.7</ele>
        <time>2014-10-02T14:58:57Z</time>
      </trkpt>
      <trkpt lat="42.7096710" lon="-7.1218520">
        <ele>1305.9</ele>
        <time>2014-10-02T14:58:58Z</time>
      </trkpt>
      <trkpt lat="42.7096960" lon="-7.1219000">
        <ele>1306.1</ele>
        <time>2014-10-02T14:58:59Z</time>
      </trkpt>
      <trkpt lat="42.7097160" lon="-7.1219400">
        <ele>1306.2</ele>
        <time>2014-10-02T14:59:00Z</time>
      </trkpt>
      <trkpt lat="42.7097360" lon="-7.1219770">
        <ele>1306.4</ele>
        <time>2014-10-02T14:59:01Z</time>
      </trkpt>
      <trkpt lat="42.7097600" lon="-7.1220190">
        <ele>1306.5</ele>
        <time>2014-10-02T14:59:02Z</time>
      </trkpt>
      <trkpt lat="42.7097860" lon="-7.1220610">
        <ele>1306.7</ele>
        <time>2014-10-02T14:59:03Z</time>
      </trkpt>
      <trkpt lat="42.7098140" lon="-7.1221040">
        <ele>1306.9</ele>
        <time>2014-10-02T14:59:04Z</time>
      </trkpt>
      <trkpt lat="42.7098440" lon="-7.1221490">
        <ele>1307.1</ele>
        <time>2014-10-02T14:59:05Z</time>
      </trkpt>
      <trkpt lat="42.7098740" lon="-7.1221910">
        <ele>1307.3</ele>
        <time>2014-10-02T14:59:06Z</time>
      </trkpt>
      <trkpt lat="42.7099000" lon="-7.1222180">
        <ele>1307.4</ele>
        <time>2014-10-02T14:59:07Z</time>
      </trkpt>
      <trkpt lat="42.7099320" lon="-7.1222500">
        <ele>1307.6</ele>
        <time>2014-10-02T14:59:08Z</time>
      </trkpt>
      <trkpt lat="42.7099620" lon="-7.1222720">
        <ele>1307.8</ele>
        <time>2014-10-02T14:59:09Z</time>
      </trkpt>
      <trkpt lat="42.7099900" lon="-7.1222900">
        <ele>1307.9</ele>
        <time>2014-10-02T14:59:10Z</time>
      </trkpt>
      <trkpt lat="42.7100260" lon="-7.1223120">
        <ele>1308.1</ele>
        <time>2014-10-02T14:59:11Z</time>
      </trkpt>
      <trkpt lat="42.7100610" lon="-7.1223360">
        <ele>1308.3</ele>
        <time>2014-10-02T14:59:12Z</time>
      </trkpt>
      <trkpt lat="42.7100970" lon="-7.1223600">
        <ele>1308.4</ele>
        <time>2014-10-02T14:59:13Z</time>
      </trkpt>
      <trkpt lat="42.7101360" lon="-7.1223840">
        <ele>1308.6</ele>
        <time>2014-10-02T14:59:14Z</time>
      </trkpt>
      <trkpt lat="42.7101760" lon="-7.1224040">
        <ele>1308.8</ele>
        <time>2014-10-02T14:59:15Z</time>
      </trkpt>
      <trkpt lat="42.7102130" lon="-7.1224270">
        <ele>1308.9</ele>
        <time>2014-10-02T14:59:16Z</time>
      </trkpt>
      <trkpt lat="42.7102480" lon="-7.1224480">
        <ele>1309.0</ele>
        <time>2014-10-02T14:59:17Z</time>
      </trkpt>
      <trkpt lat="42.7102810" lon="-7.1224730">
        <ele>1309.2</ele>
        <time>2014-10-02T14:59:18Z</time>
      </trkpt>
      <trkpt lat="42.7103170" lon="-7.1224900">
        <ele>1309.3</ele>
        <time>2014-10-02T14:59:19Z</time>
      </trkpt>
      <trkpt lat="42.7103540" lon="-7.1225090">
        <ele>1309.4</ele>
        <time>2014-10-02T14:59:20Z</time>
      </trkpt>
      <trkpt lat="42.7103900" lon="-7.1225240">
        <ele>1309.6</ele>
        <time>2014-10-02T14:59:21Z</time>
      </trkpt>
      <trkpt lat="42.7104260" lon="-7.1225420">
        <ele>1309.8</ele>
        <time>2014-10-02T14:59:22Z</time>
      </trkpt>
      <trkpt lat="42.7104610" lon="-7.1225620">
        <ele>1310.0</ele>
        <time>2014-10-02T14:59:23Z</time>
      </trkpt>
      <trkpt lat="42.7105050" lon="-7.1225850">
        <ele>1310.2</ele>
        <time>2014-10-02T14:59:24Z</time>
      </trkpt>
      <trkpt lat="42.7105480" lon="-7.1226090">
        <ele>1310.5</ele>
        <time>2014-10-02T14:59:25Z</time>
      </trkpt>
      <trkpt lat="42.7105920" lon="-7.1226320">
        <ele>1310.7</ele>
        <time>2014-10-02T14:59:26Z</time>
      </trkpt>
      <trkpt lat="42.7106340" lon="-7.1226530">
        <ele>1311.0</ele>
        <time>2014-10-02T14:59:27Z</time>
      </trkpt>
      <trkpt lat="42.7106800" lon="-7.1226820">
        <ele>1311.2</ele>
        <time>2014-10-02T14:59:28Z</time>
      </trkpt>
      <trkpt lat="42.7107210" lon="-7.1227110">
        <ele>1311.5</ele>
        <time>2014-10-02T14:59:29Z</time>
      </trkpt>
      <trkpt lat="42.7107600" lon="-7.1227440">
        <ele>1311.8</ele>
        <time>2014-10-02T14:59:30Z</time>
      </trkpt>
      <trkpt lat="42.7107960" lon="-7.1227800">
        <ele>1312.0</ele>
        <time>2014-10-02T14:59:31Z</time>
      </trkpt>
      <trkpt lat="42.7108260" lon="-7.1228170">
        <ele>1312.2</ele>
        <time>2014-10-02T14:59:32Z</time>
      </trkpt>
      <trkpt lat="42.7108570" lon="-7.1228570">
        <ele>1312.5</ele>
        <time>2014-10-02T14:59:33Z</time>
      </trkpt>
      <trkpt lat="42.7108820" lon="-7.1228980">
        <ele>1312.7</ele>
        <time>2014-10-02T14:59:34Z</time>
      </trkpt>
      <trkpt lat="42.7109080" lon="-7.1229420">
        <ele>1312.9</ele>
        <time>2014-10-02T14:59:35Z</time>
      </trkpt>
      <trkpt lat="42.7109310" lon="-7.1229840">
        <ele>1313.1</ele>
        <time>2014-10-02T14:59:36Z</time>
      </trkpt>
      <trkpt lat="42.7109590" lon="-7.1230300">
        <ele>1313.4</ele>
        <time>2014-10-02T14:59:37Z</time>
      </trkpt>
      <trkpt lat="42.7109880" lon="-7.1230840">
        <ele>1313.6</ele>
        <time>2014-10-02T14:59:38Z</time>
      </trkpt>
      <trkpt lat="42.7110210" lon="-7.1231380">
        <ele>1313.9</ele>
        <time>2014-10-02T14:59:39Z</time>
      </trkpt>
      <trkpt lat="42.7110480" lon="-7.1231880">
        <ele>1314.2</ele>
        <time>2014-10-02T14:59:40Z</time>
      </trkpt>
      <trkpt lat="42.7110760" lon="-7.1232380">
        <ele>1314.5</ele>
        <time>2014-10-02T14:59:41Z</time>
      </trkpt>
      <trkpt lat="42.7111010" lon="-7.1232870">
        <ele>1314.7</ele>
        <time>2014-10-02T14:59:42Z</time>
      </trkpt>
      <trkpt lat="42.7111250" lon="-7.1233390">
        <ele>1315.0</ele>
        <time>2014-10-02T14:59:43Z</time>
      </trkpt>
      <trkpt lat="42.7111500" lon="-7.1233790">
        <ele>1315.2</ele>
        <time>2014-10-02T14:59:44Z</time>
      </trkpt>
      <trkpt lat="42.7111720" lon="-7.1234210">
        <ele>1315.5</ele>
        <time>2014-10-02T14:59:45Z</time>
      </trkpt>
      <trkpt lat="42.7111940" lon="-7.1234650">
        <ele>1315.7</ele>
        <time>2014-10-02T14:59:46Z</time>
      </trkpt>
      <trkpt lat="42.7112130" lon="-7.1235060">
        <ele>1316.0</ele>
        <time>2014-10-02T14:59:47Z</time>
      </trkpt>
      <trkpt lat="42.7112340" lon="-7.1235400">
        <ele>1316.2</ele>
        <time>2014-10-02T14:59:48Z</time>
      </trkpt>
      <trkpt lat="42.7112500" lon="-7.1235720">
        <ele>1316.4</ele>
        <time>2014-10-02T14:59:49Z</time>
      </trkpt>
      <trkpt lat="42.7112700" lon="-7.1236150">
        <ele>1316.7</ele>
        <time>2014-10-02T14:59:50Z</time>
      </trkpt>
      <trkpt lat="42.7112890" lon="-7.1236540">
        <ele>1317.0</ele>
        <time>2014-10-02T14:59:51Z</time>
      </trkpt>
      <trkpt lat="42.7113070" lon="-7.1236950">
        <ele>1317.2</ele>
        <time>2014-10-02T14:59:52Z</time>
      </trkpt>
      <trkpt lat="42.7113240" lon="-7.1237380">
        <ele>1317.5</ele>
        <time>2014-10-02T14:59:53Z</time>
      </trkpt>
      <trkpt lat="42.7113400" lon="-7.1237760">
        <ele>1317.7</ele>
        <time>2014-10-02T14:59:54Z</time>
      </trkpt>
      <trkpt lat="42.7113550" lon="-7.1238110">
        <ele>1318.0</ele>
        <time>2014-10-02T14:59:55Z</time>
      </trkpt>
      <trkpt lat="42.7113710" lon="-7.1238450">
        <ele>1318.2</ele>
        <time>2014-10-02T14:59:56Z</time>
      </trkpt>
      <trkpt lat="42.7113870" lon="-7.1238760">
        <ele>1318.4</ele>
        <time>2014-10-02T14:59:57Z</time>
      </trkpt>
      <trkpt lat="42.7114040" lon="-7.1239050">
        <ele>1318.6</ele>
        <time>2014-10-02T14:59:58Z</time>
      </trkpt>
      <trkpt lat="42.7114220" lon="-7.1239370">
        <ele>1318.8</ele>
        <time>2014-10-02T14:59:59Z</time>
      </trkpt>
      <trkpt lat="42.7114500" lon="-7.1239990">
        <ele>1319.2</ele>
        <time>2014-10-02T15:00:01Z</time>
      </trkpt>
      <trkpt lat="42.7114650" lon="-7.1240430">
        <ele>1319.4</ele>
        <time>2014-10-02T15:00:02Z</time>
      </trkpt>
      <trkpt lat="42.7114800" lon="-7.1240800">
        <ele>1319.6</ele>
        <time>2014-10-02T15:00:03Z</time>
      </trkpt>
      <trkpt lat="42.7114950" lon="-7.1241180">
        <ele>1319.9</ele>
        <time>2014-10-02T15:00:04Z</time>
      </trkpt>
      <trkpt lat="42.7115190" lon="-7.1241830">
        <ele>1320.3</ele>
        <time>2014-10-02T15:00:06Z</time>
      </trkpt>
      <trkpt lat="42.7115320" lon="-7.1242210">
        <ele>1320.5</ele>
        <time>2014-10-02T15:00:07Z</time>
      </trkpt>
      <trkpt lat="42.7115470" lon="-7.1242560">
        <ele>1320.7</ele>
        <time>2014-10-02T15:00:08Z</time>
      </trkpt>
      <trkpt lat="42.7115630" lon="-7.1242920">
        <ele>1321.0</ele>
        <time>2014-10-02T15:00:09Z</time>
      </trkpt>
      <trkpt lat="42.7115830" lon="-7.1243280">
        <ele>1321.2</ele>
        <time>2014-10-02T15:00:10Z</time>
      </trkpt>
      <trkpt lat="42.7116050" lon="-7.1243740">
        <ele>1321.5</ele>
        <time>2014-10-02T15:00:11Z</time>
      </trkpt>
      <trkpt lat="42.7116250" lon="-7.1244150">
        <ele>1321.8</ele>
        <time>2014-10-02T15:00:12Z</time>
      </trkpt>
      <trkpt lat="42.7116450" lon="-7.1244520">
        <ele>1322.0</ele>
        <time>2014-10-02T15:00:13Z</time>
      </trkpt>
      <trkpt lat="42.7116640" lon="-7.1244850">
        <ele>1322.3</ele>
        <time>2014-10-02T15:00:14Z</time>
      </trkpt>
      <trkpt lat="42.7116780" lon="-7.1245160">
        <ele>1322.4</ele>
        <time>2014-10-02T15:00:15Z</time>
      </trkpt>
      <trkpt lat="42.7116930" lon="-7.1245470">
        <ele>1322.6</ele>
        <time>2014-10-02T15:00:16Z</time>
      </trkpt>
      <trkpt lat="42.7117100" lon="-7.1245800">
        <ele>1322.9</ele>
        <time>2014-10-02T15:00:17Z</time>
      </trkpt>
      <trkpt lat="42.7117440" lon="-7.1246470">
        <ele>1323.3</ele>
        <time>2014-10-02T15:00:19Z</time>
      </trkpt>
      <trkpt lat="42.7117750" lon="-7.1247030">
        <ele>1323.7</ele>
        <time>2014-10-02T15:00:21Z</time>
      </trkpt>
      <trkpt lat="42.7117910" lon="-7.1247380">
        <ele>1324.0</ele>
        <time>2014-10-02T15:00:22Z</time>
      </trkpt>
      <trkpt lat="42.7118040" lon="-7.1247760">
        <ele>1324.2</ele>
        <time>2014-10-02T15:00:23Z</time>
      </trkpt>
      <trkpt lat="42.7118300" lon="-7.1248520">
        <ele>1324.6</ele>
        <time>2014-10-02T15:00:25Z</time>
      </trkpt>
      <trkpt lat="42.7118450" lon="-7.1248910">
        <ele>1324.9</ele>
        <time>2014-10-02T15:00:26Z</time>
      </trkpt>
      <trkpt lat="42.7118590" lon="-7.1249300">
        <ele>1325.1</ele>
        <time>2014-10-02T15:00:27Z</time>
      </trkpt>
      <trkpt lat="42.7118750" lon="-7.1249700">
        <ele>1325.4</ele>
        <time>2014-10-02T15:00:28Z</time>
      </trkpt>
      <trkpt lat="42.7118910" lon="-7.1250120">
        <ele>1325.6</ele>
        <time>2014-10-02T15:00:29Z</time>
      </trkpt>
      <trkpt lat="42.7119090" lon="-7.1250480">
        <ele>1325.9</ele>
        <time>2014-10-02T15:00:30Z</time>
      </trkpt>
      <trkpt lat="42.7119260" lon="-7.1250840">
        <ele>1326.1</ele>
        <time>2014-10-02T15:00:31Z</time>
      </trkpt>
      <trkpt lat="42.7119380" lon="-7.1251230">
        <ele>1326.4</ele>
        <time>2014-10-02T15:00:32Z</time>
      </trkpt>
      <trkpt lat="42.7119510" lon="-7.1251650">
        <ele>1326.6</ele>
        <time>2014-10-02T15:00:33Z</time>
      </trkpt>
      <trkpt lat="42.7119600" lon="-7.1251990">
        <ele>1326.8</ele>
        <time>2014-10-02T15:00:34Z</time>
      </trkpt>
      <trkpt lat="42.7119800" lon="-7.1252570">
        <ele>1327.2</ele>
        <time>2014-10-02T15:00:36Z</time>
      </trkpt>
      <trkpt lat="42.7119930" lon="-7.1252940">
        <ele>1327.4</ele>
        <time>2014-10-02T15:00:37Z</time>
      </trkpt>
      <trkpt lat="42.7120010" lon="-7.1253350">
        <ele>1327.7</ele>
        <time>2014-10-02T15:00:38Z</time>
      </trkpt>
      <trkpt lat="42.7120210" lon="-7.1253660">
        <ele>1327.9</ele>
        <time>2014-10-02T15:00:39Z</time>
      </trkpt>
      <trkpt lat="42.7120310" lon="-7.1254020">
        <ele>1328.1</ele>
        <time>2014-10-02T15:00:40Z</time>
      </trkpt>
      <trkpt lat="42.7120480" lon="-7.1254330">
        <ele>1328.3</ele>
        <time>2014-10-02T15:00:41Z</time>
      </trkpt>
      <trkpt lat="42.7120700" lon="-7.1254760">
        <ele>1328.6</ele>
        <time>2014-10-02T15:00:42Z</time>
      </trkpt>
      <trkpt lat="42.7120910" lon="-7.1255110">
        <ele>1328.9</ele>
        <time>2014-10-02T15:00:43Z</time>
      </trkpt>
      <trkpt lat="42.7121090" lon="-7.1255410">
        <ele>1329.1</ele>
        <time>2014-10-02T15:00:44Z</time>
      </trkpt>
      <trkpt lat="42.7121480" lon="-7.1255750">
        <ele>1329.4</ele>
        <time>2014-10-02T15:00:45Z</time>
      </trkpt>
      <trkpt lat="42.7121320" lon="-7.1256330">
        <ele>1329.7</ele>
        <time>2014-10-02T15:00:46Z</time>
      </trkpt>
      <trkpt lat="42.7121150" lon="-7.1256850">
        <ele>1329.9</ele>
        <time>2014-10-02T15:00:47Z</time>
      </trkpt>
      <trkpt lat="42.7121630" lon="-7.1257330">
        <ele>1330.2</ele>
        <time>2014-10-02T15:00:50Z</time>
      </trkpt>
      <trkpt lat="42.7121880" lon="-7.1257670">
        <ele>1330.3</ele>
        <time>2014-10-02T15:00:51Z</time>
      </trkpt>
      <trkpt lat="42.7122130" lon="-7.1258050">
        <ele>1330.5</ele>
        <time>2014-10-02T15:00:52Z</time>
      </trkpt>
      <trkpt lat="42.7122280" lon="-7.1258360">
        <ele>1330.6</ele>
        <time>2014-10-02T15:00:53Z</time>
      </trkpt>
      <trkpt lat="42.7122430" lon="-7.1258660">
        <ele>1330.6</ele>
        <time>2014-10-02T15:00:54Z</time>
      </trkpt>
      <trkpt lat="42.7122590" lon="-7.1259040">
        <ele>1330.7</ele>
        <time>2014-10-02T15:00:55Z</time>
      </trkpt>
      <trkpt lat="42.7122740" lon="-7.1259420">
        <ele>1330.8</ele>
        <time>2014-10-02T15:00:56Z</time>
      </trkpt>
      <trkpt lat="42.7122930" lon="-7.1259730">
        <ele>1330.8</ele>
        <time>2014-10-02T15:00:57Z</time>
      </trkpt>
      <trkpt lat="42.7123150" lon="-7.1260120">
        <ele>1330.8</ele>
        <time>2014-10-02T15:00:58Z</time>
      </trkpt>
      <trkpt lat="42.7123370" lon="-7.1260560">
        <ele>1330.8</ele>
        <time>2014-10-02T15:00:59Z</time>
      </trkpt>
      <trkpt lat="42.7123610" lon="-7.1260970">
        <ele>1330.9</ele>
        <time>2014-10-02T15:01:00Z</time>
      </trkpt>
      <trkpt lat="42.7123830" lon="-7.1261310">
        <ele>1330.9</ele>
        <time>2014-10-02T15:01:01Z</time>
      </trkpt>
      <trkpt lat="42.7124080" lon="-7.1261650">
        <ele>1331.0</ele>
        <time>2014-10-02T15:01:02Z</time>
      </trkpt>
      <trkpt lat="42.7124300" lon="-7.1261970">
        <ele>1331.0</ele>
        <time>2014-10-02T15:01:03Z</time>
      </trkpt>
      <trkpt lat="42.7124530" lon="-7.1262390">
        <ele>1331.0</ele>
        <time>2014-10-02T15:01:04Z</time>
      </trkpt>
      <trkpt lat="42.7124730" lon="-7.1262730">
        <ele>1330.9</ele>
        <time>2014-10-02T15:01:05Z</time>
      </trkpt>
      <trkpt lat="42.7124980" lon="-7.1263140">
        <ele>1330.9</ele>
        <time>2014-10-02T15:01:06Z</time>
      </trkpt>
      <trkpt lat="42.7125260" lon="-7.1263580">
        <ele>1330.9</ele>
        <time>2014-10-02T15:01:07Z</time>
      </trkpt>
      <trkpt lat="42.7125510" lon="-7.1263960">
        <ele>1330.8</ele>
        <time>2014-10-02T15:01:08Z</time>
      </trkpt>
      <trkpt lat="42.7125830" lon="-7.1264390">
        <ele>1330.8</ele>
        <time>2014-10-02T15:01:09Z</time>
      </trkpt>
      <trkpt lat="42.7126090" lon="-7.1264820">
        <ele>1330.7</ele>
        <time>2014-10-02T15:01:10Z</time>
      </trkpt>
      <trkpt lat="42.7126400" lon="-7.1265290">
        <ele>1330.7</ele>
        <time>2014-10-02T15:01:11Z</time>
      </trkpt>
      <trkpt lat="42.7126690" lon="-7.1265740">
        <ele>1330.6</ele>
        <time>2014-10-02T15:01:12Z</time>
      </trkpt>
      <trkpt lat="42.7126980" lon="-7.1266190">
        <ele>1330.6</ele>
        <time>2014-10-02T15:01:13Z</time>
      </trkpt>
      <trkpt lat="42.7127260" lon="-7.1266620">
        <ele>1330.5</ele>
        <time>2014-10-02T15:01:14Z</time>
      </trkpt>
      <trkpt lat="42.7127550" lon="-7.1267040">
        <ele>1330.4</ele>
        <time>2014-10-02T15:01:15Z</time>
      </trkpt>
      <trkpt lat="42.7127890" lon="-7.1267500">
        <ele>1330.3</ele>
        <time>2014-10-02T15:01:16Z</time>
      </trkpt>
      <trkpt lat="42.7128220" lon="-7.1267880">
        <ele>1330.2</ele>
        <time>2014-10-02T15:01:17Z</time>
      </trkpt>
      <trkpt lat="42.7128590" lon="-7.1268280">
        <ele>1330.1</ele>
        <time>2014-10-02T15:01:18Z</time>
      </trkpt>
      <trkpt lat="42.7128870" lon="-7.1268750">
        <ele>1330.0</ele>
        <time>2014-10-02T15:01:19Z</time>
      </trkpt>
      <trkpt lat="42.7129140" lon="-7.1269220">
        <ele>1330.0</ele>
        <time>2014-10-02T15:01:20Z</time>
      </trkpt>
      <trkpt lat="42.7129420" lon="-7.1269630">
        <ele>1329.9</ele>
        <time>2014-10-02T15:01:21Z</time>
      </trkpt>
      <trkpt lat="42.7129780" lon="-7.1270040">
        <ele>1329.8</ele>
        <time>2014-10-02T15:01:22Z</time>
      </trkpt>
      <trkpt lat="42.7130130" lon="-7.1270520">
        <ele>1329.7</ele>
        <time>2014-10-02T15:01:23Z</time>
      </trkpt>
      <trkpt lat="42.7130490" lon="-7.1270980">
        <ele>1329.6</ele>
        <time>2014-10-02T15:01:24Z</time>
      </trkpt>
      <trkpt lat="42.7130860" lon="-7.1271450">
        <ele>1329.5</ele>
        <time>2014-10-02T15:01:25Z</time>
      </trkpt>
      <trkpt lat="42.7131310" lon="-7.1271940">
        <ele>1329.4</ele>
        <time>2014-10-02T15:01:26Z</time>
      </trkpt>
      <trkpt lat="42.7131680" lon="-7.1272400">
        <ele>1329.4</ele>
        <time>2014-10-02T15:01:27Z</time>
      </trkpt>
      <trkpt lat="42.7131980" lon="-7.1272880">
        <ele>1329.3</ele>
        <time>2014-10-02T15:01:28Z</time>
      </trkpt>
      <trkpt lat="42.7132250" lon="-7.1273390">
        <ele>1329.2</ele>
        <time>2014-10-02T15:01:29Z</time>
      </trkpt>
      <trkpt lat="42.7132550" lon="-7.1273950">
        <ele>1329.1</ele>
        <time>2014-10-02T15:01:30Z</time>
      </trkpt>
      <trkpt lat="42.7132840" lon="-7.1274610">
        <ele>1329.0</ele>
        <time>2014-10-02T15:01:31Z</time>
      </trkpt>
      <trkpt lat="42.7133150" lon="-7.1275360">
        <ele>1328.8</ele>
        <time>2014-10-02T15:01:32Z</time>
      </trkpt>
      <trkpt lat="42.7133440" lon="-7.1276150">
        <ele>1328.7</ele>
        <time>2014-10-02T15:01:33Z</time>
      </trkpt>
      <trkpt lat="42.7133750" lon="-7.1276760">
        <ele>1328.6</ele>
        <time>2014-10-02T15:01:34Z</time>
      </trkpt>
      <trkpt lat="42.7134110" lon="-7.1277280">
        <ele>1328.4</ele>
        <time>2014-10-02T15:01:35Z</time>
      </trkpt>
      <trkpt lat="42.7134470" lon="-7.1277730">
        <ele>1328.3</ele>
        <time>2014-10-02T15:01:36Z</time>
      </trkpt>
      <trkpt lat="42.7134940" lon="-7.1278180">
        <ele>1328.2</ele>
        <time>2014-10-02T15:01:37Z</time>
      </trkpt>
      <trkpt lat="42.7135300" lon="-7.1278660">
        <ele>1328.1</ele>
        <time>2014-10-02T15:01:38Z</time>
      </trkpt>
      <trkpt lat="42.7135720" lon="-7.1279150">
        <ele>1328.0</ele>
        <time>2014-10-02T15:01:39Z</time>
      </trkpt>
      <trkpt lat="42.7136050" lon="-7.1279620">
        <ele>1327.9</ele>
        <time>2014-10-02T15:01:40Z</time>
      </trkpt>
      <trkpt lat="42.7136410" lon="-7.1280060">
        <ele>1327.8</ele>
        <time>2014-10-02T15:01:41Z</time>
      </trkpt>
      <trkpt lat="42.7136770" lon="-7.1280480">
        <ele>1327.7</ele>
        <time>2014-10-02T15:01:42Z</time>
      </trkpt>
      <trkpt lat="42.7137010" lon="-7.1280910">
        <ele>1327.6</ele>
        <time>2014-10-02T15:01:43Z</time>
      </trkpt>
      <trkpt lat="42.7136900" lon="-7.1281730">
        <ele>1327.5</ele>
        <time>2014-10-02T15:01:45Z</time>
      </trkpt>
      <trkpt lat="42.7136430" lon="-7.1281760">
        <ele>1327.6</ele>
        <time>2014-10-02T15:01:46Z</time>
      </trkpt>
      <trkpt lat="42.7136150" lon="-7.1281720">
        <ele>1327.6</ele>
        <time>2014-10-02T15:01:47Z</time>
      </trkpt>
      <trkpt lat="42.7135850" lon="-7.1281450">
        <ele>1327.7</ele>
        <time>2014-10-02T15:01:48Z</time>
      </trkpt>
      <trkpt lat="42.7135490" lon="-7.1281050">
        <ele>1327.8</ele>
        <time>2014-10-02T15:01:49Z</time>
      </trkpt>
      <trkpt lat="42.7135130" lon="-7.1280570">
        <ele>1327.8</ele>
        <time>2014-10-02T15:01:50Z</time>
      </trkpt>
      <trkpt lat="42.7134700" lon="-7.1279990">
        <ele>1327.9</ele>
        <time>2014-10-02T15:01:51Z</time>
      </trkpt>
      <trkpt lat="42.7134360" lon="-7.1279390">
        <ele>1328.0</ele>
        <time>2014-10-02T15:01:52Z</time>
      </trkpt>
      <trkpt lat="42.7134090" lon="-7.1278920">
        <ele>1328.0</ele>
        <time>2014-10-02T15:01:53Z</time>
      </trkpt>
      <trkpt lat="42.7133770" lon="-7.1278440">
        <ele>1328.1</ele>
        <time>2014-10-02T15:01:54Z</time>
      </trkpt>
      <trkpt lat="42.7133400" lon="-7.1277930">
        <ele>1328.1</ele>
        <time>2014-10-02T15:01:55Z</time>
      </trkpt>
      <trkpt lat="42.7133050" lon="-7.1277430">
        <ele>1328.2</ele>
        <time>2014-10-02T15:01:56Z</time>
      </trkpt>
      <trkpt lat="42.7132740" lon="-7.1277000">
        <ele>1328.3</ele>
        <time>2014-10-02T15:01:57Z</time>
      </trkpt>
      <trkpt lat="42.7132480" lon="-7.1276610">
        <ele>1328.3</ele>
        <time>2014-10-02T15:01:58Z</time>
      </trkpt>
      <trkpt lat="42.7132170" lon="-7.1276070">
        <ele>1328.4</ele>
        <time>2014-10-02T15:01:59Z</time>
      </trkpt>
      <trkpt lat="42.7131820" lon="-7.1275540">
        <ele>1328.5</ele>
        <time>2014-10-02T15:02:00Z</time>
      </trkpt>
      <trkpt lat="42.7131520" lon="-7.1274950">
        <ele>1328.6</ele>
        <time>2014-10-02T15:02:01Z</time>
      </trkpt>
      <trkpt lat="42.7131310" lon="-7.1274430">
        <ele>1328.7</ele>
        <time>2014-10-02T15:02:02Z</time>
      </trkpt>
      <trkpt lat="42.7131090" lon="-7.1273900">
        <ele>1328.8</ele>
        <time>2014-10-02T15:02:03Z</time>
      </trkpt>
      <trkpt lat="42.7130830" lon="-7.1273390">
        <ele>1328.8</ele>
        <time>2014-10-02T15:02:04Z</time>
      </trkpt>
      <trkpt lat="42.7130580" lon="-7.1272950">
        <ele>1328.9</ele>
        <time>2014-10-02T15:02:05Z</time>
      </trkpt>
      <trkpt lat="42.7130310" lon="-7.1272460">
        <ele>1329.0</ele>
        <time>2014-10-02T15:02:06Z</time>
      </trkpt>
      <trkpt lat="42.7129970" lon="-7.1271940">
        <ele>1329.0</ele>
        <time>2014-10-02T15:02:07Z</time>
      </trkpt>
      <trkpt lat="42.7129660" lon="-7.1271420">
        <ele>1329.1</ele>
        <time>2014-10-02T15:02:08Z</time>
      </trkpt>
      <trkpt lat="42.7129300" lon="-7.1270960">
        <ele>1329.2</ele>
        <time>2014-10-02T15:02:09Z</time>
      </trkpt>
      <trkpt lat="42.7128910" lon="-7.1270480">
        <ele>1329.2</ele>
        <time>2014-10-02T15:02:10Z</time>
      </trkpt>
      <trkpt lat="42.7128500" lon="-7.1269970">
        <ele>1329.3</ele>
        <time>2014-10-02T15:02:11Z</time>
      </trkpt>
      <trkpt lat="42.7128180" lon="-7.1269390">
        <ele>1329.4</ele>
        <time>2014-10-02T15:02:12Z</time>
      </trkpt>
      <trkpt lat="42.7127890" lon="-7.1268910">
        <ele>1329.4</ele>
        <time>2014-10-02T15:02:13Z</time>
      </trkpt>
      <trkpt lat="42.7127600" lon="-7.1268500">
        <ele>1329.4</ele>
        <time>2014-10-02T15:02:14Z</time>
      </trkpt>
      <trkpt lat="42.7127320" lon="-7.1268080">
        <ele>1329.5</ele>
        <time>2014-10-02T15:02:15Z</time>
      </trkpt>
      <trkpt lat="42.7127020" lon="-7.1267660">
        <ele>1329.5</ele>
        <time>2014-10-02T15:02:16Z</time>
      </trkpt>
      <trkpt lat="42.7126650" lon="-7.1267170">
        <ele>1329.6</ele>
        <time>2014-10-02T15:02:17Z</time>
      </trkpt>
      <trkpt lat="42.7126340" lon="-7.1266710">
        <ele>1329.6</ele>
        <time>2014-10-02T15:02:18Z</time>
      </trkpt>
      <trkpt lat="42.7126050" lon="-7.1266240">
        <ele>1329.7</ele>
        <time>2014-10-02T15:02:19Z</time>
      </trkpt>
      <trkpt lat="42.7125770" lon="-7.1265800">
        <ele>1329.8</ele>
        <time>2014-10-02T15:02:20Z</time>
      </trkpt>
      <trkpt lat="42.7125510" lon="-7.1265340">
        <ele>1329.8</ele>
        <time>2014-10-02T15:02:21Z</time>
      </trkpt>
      <trkpt lat="42.7125210" lon="-7.1264840">
        <ele>1329.9</ele>
        <time>2014-10-02T15:02:22Z</time>
      </trkpt>
      <trkpt lat="42.7124920" lon="-7.1264400">
        <ele>1329.9</ele>
        <time>2014-10-02T15:02:23Z</time>
      </trkpt>
      <trkpt lat="42.7124670" lon="-7.1263950">
        <ele>1330.0</ele>
        <time>2014-10-02T15:02:24Z</time>
      </trkpt>
      <trkpt lat="42.7124460" lon="-7.1263560">
        <ele>1330.1</ele>
        <time>2014-10-02T15:02:25Z</time>
      </trkpt>
      <trkpt lat="42.7124460" lon="-7.1263180">
        <ele>1330.1</ele>
        <time>2014-10-02T15:02:26Z</time>
      </trkpt>
      <trkpt lat="42.7124630" lon="-7.1262640">
        <ele>1330.2</ele>
        <time>2014-10-02T15:02:27Z</time>
      </trkpt>
      <trkpt lat="42.7125030" lon="-7.1262100">
        <ele>1330.3</ele>
        <time>2014-10-02T15:02:28Z</time>
      </trkpt>
      <trkpt lat="42.7125370" lon="-7.1261750">
        <ele>1330.3</ele>
        <time>2014-10-02T15:02:29Z</time>
      </trkpt>
      <trkpt lat="42.7125660" lon="-7.1261570">
        <ele>1330.4</ele>
        <time>2014-10-02T15:02:32Z</time>
      </trkpt>
      <trkpt lat="42.7126030" lon="-7.1261550">
        <ele>1330.4</ele>
        <time>2014-10-02T15:02:35Z</time>
      </trkpt>
      <trkpt lat="42.7126280" lon="-7.1261750">
        <ele>1330.4</ele>
        <time>2014-10-02T15:02:40Z</time>
      </trkpt>
      <trkpt lat="42.7126620" lon="-7.1262000">
        <ele>1330.5</ele>
        <time>2014-10-02T15:02:46Z</time>
      </trkpt>
      <trkpt lat="42.7126750" lon="-7.1262420">
        <ele>1330.5</ele>
        <time>2014-10-02T15:02:51Z</time>
      </trkpt>
      <trkpt lat="42.7126760" lon="-7.1262790">
        <ele>1330.6</ele>
        <time>2014-10-02T15:02:58Z</time>
      </trkpt>
      <trkpt lat="42.7126860" lon="-7.1263170">
        <ele>1330.6</ele>
        <time>2014-10-02T15:03:04Z</time>
      </trkpt>
      <trkpt lat="42.7126990" lon="-7.1263520">
        <ele>1330.6</ele>
        <time>2014-10-02T15:03:08Z</time>
      </trkpt>
      <trkpt lat="42.7125520" lon="-7.1262560">
        <ele>1330.7</ele>
        <time>2014-10-02T15:06:06Z</time>
      </trkpt>
      <trkpt lat="42.7126230" lon="-7.1262430">
        <ele>1330.8</ele>
        <time>2014-10-02T15:06:08Z</time>
      </trkpt>
      <trkpt lat="42.7126540" lon="-7.1262280">
        <ele>1330.8</ele>
        <time>2014-10-02T15:06:10Z</time>
      </trkpt>
      <trkpt lat="42.7126200" lon="-7.1262270">
        <ele>1330.8</ele>
        <time>2014-10-02T15:06:57Z</time>
      </trkpt>
      <trkpt lat="42.7125830" lon="-7.1262380">
        <ele>1330.9</ele>
        <time>2014-10-02T15:06:59Z</time>
      </trkpt>
      <trkpt lat="42.7125520" lon="-7.1262440">
        <ele>1330.9</ele>
        <time>2014-10-02T15:07:00Z</time>
      </trkpt>
      <trkpt lat="42.7125080" lon="-7.1262590">
        <ele>1330.9</ele>
        <time>2014-10-02T15:07:01Z</time>
      </trkpt>
      <trkpt lat="42.7124630" lon="-7.1262660">
        <ele>1331.0</ele>
        <time>2014-10-02T15:07:02Z</time>
      </trkpt>
      <trkpt lat="42.7124110" lon="-7.1262610">
        <ele>1331.0</ele>
        <time>2014-10-02T15:07:03Z</time>
      </trkpt>
      <trkpt lat="42.7123560" lon="-7.1262290">
        <ele>1331.0</ele>
        <time>2014-10-02T15:07:04Z</time>
      </trkpt>
      <trkpt lat="42.7123180" lon="-7.1261790">
        <ele>1330.9</ele>
        <time>2014-10-02T15:07:05Z</time>
      </trkpt>
      <trkpt lat="42.7122860" lon="-7.1261310">
        <ele>1330.8</ele>
        <time>2014-10-02T15:07:06Z</time>
      </trkpt>
      <trkpt lat="42.7122570" lon="-7.1260890">
        <ele>1330.8</ele>
        <time>2014-10-02T15:07:07Z</time>
      </trkpt>
      <trkpt lat="42.7122360" lon="-7.1260430">
        <ele>1330.8</ele>
        <time>2014-10-02T15:07:08Z</time>
      </trkpt>
      <trkpt lat="42.7122120" lon="-7.1260100">
        <ele>1330.7</ele>
        <time>2014-10-02T15:07:09Z</time>
      </trkpt>
      <trkpt lat="42.7121880" lon="-7.1259680">
        <ele>1330.7</ele>
        <time>2014-10-02T15:07:10Z</time>
      </trkpt>
      <trkpt lat="42.7121630" lon="-7.1259270">
        <ele>1330.6</ele>
        <time>2014-10-02T15:07:11Z</time>
      </trkpt>
      <trkpt lat="42.7121370" lon="-7.1258790">
        <ele>1330.4</ele>
        <time>2014-10-02T15:07:12Z</time>
      </trkpt>
      <trkpt lat="42.7121090" lon="-7.1258310">
        <ele>1330.3</ele>
        <time>2014-10-02T15:07:13Z</time>
      </trkpt>
      <trkpt lat="42.7120820" lon="-7.1257750">
        <ele>1330.0</ele>
        <time>2014-10-02T15:07:14Z</time>
      </trkpt>
      <trkpt lat="42.7120560" lon="-7.1257250">
        <ele>1329.8</ele>
        <time>2014-10-02T15:07:15Z</time>
      </trkpt>
      <trkpt lat="42.7120290" lon="-7.1256640">
        <ele>1329.5</ele>
        <time>2014-10-02T15:07:16Z</time>
      </trkpt>
      <trkpt lat="42.7120040" lon="-7.1256020">
        <ele>1329.1</ele>
        <time>2014-10-02T15:07:17Z</time>
      </trkpt>
      <trkpt lat="42.7119740" lon="-7.1255410">
        <ele>1328.7</ele>
        <time>2014-10-02T15:07:18Z</time>
      </trkpt>
      <trkpt lat="42.7119430" lon="-7.1254660">
        <ele>1328.2</ele>
        <time>2014-10-02T15:07:19Z</time>
      </trkpt>
      <trkpt lat="42.7119110" lon="-7.1254000">
        <ele>1327.8</ele>
        <time>2014-10-02T15:07:20Z</time>
      </trkpt>
      <trkpt lat="42.7118680" lon="-7.1253230">
        <ele>1327.2</ele>
        <time>2014-10-02T15:07:21Z</time>
      </trkpt>
      <trkpt lat="42.7118200" lon="-7.1252390">
        <ele>1326.6</ele>
        <time>2014-10-02T15:07:22Z</time>
      </trkpt>
      <trkpt lat="42.7117710" lon="-7.1251500">
        <ele>1326.0</ele>
        <time>2014-10-02T15:07:23Z</time>
      </trkpt>
      <trkpt lat="42.7117200" lon="-7.1250510">
        <ele>1325.3</ele>
        <time>2014-10-02T15:07:24Z</time>
      </trkpt>
      <trkpt lat="42.7116690" lon="-7.1249470">
        <ele>1324.6</ele>
        <time>2014-10-02T15:07:25Z</time>
      </trkpt>
      <trkpt lat="42.7116330" lon="-7.1248370">
        <ele>1324.0</ele>
        <time>2014-10-02T15:07:26Z</time>
      </trkpt>
      <trkpt lat="42.7115970" lon="-7.1247180">
        <ele>1323.3</ele>
        <time>2014-10-02T15:07:27Z</time>
      </trkpt>
      <trkpt lat="42.7115610" lon="-7.1246000">
        <ele>1322.5</ele>
        <time>2014-10-02T15:07:28Z</time>
      </trkpt>
      <trkpt lat="42.7115230" lon="-7.1244830">
        <ele>1321.9</ele>
        <time>2014-10-02T15:07:29Z</time>
      </trkpt>
      <trkpt lat="42.7114850" lon="-7.1243670">
        <ele>1321.2</ele>
        <time>2014-10-02T15:07:30Z</time>
      </trkpt>
      <trkpt lat="42.7114420" lon="-7.1242470">
        <ele>1320.4</ele>
        <time>2014-10-02T15:07:31Z</time>
      </trkpt>
      <trkpt lat="42.7113960" lon="-7.1241260">
        <ele>1319.7</ele>
        <time>2014-10-02T15:07:32Z</time>
      </trkpt>
      <trkpt lat="42.7113460" lon="-7.1239950">
        <ele>1318.9</ele>
        <time>2014-10-02T15:07:33Z</time>
      </trkpt>
      <trkpt lat="42.7112970" lon="-7.1238700">
        <ele>1318.2</ele>
        <time>2014-10-02T15:07:34Z</time>
      </trkpt>
      <trkpt lat="42.7112440" lon="-7.1237330">
        <ele>1317.3</ele>
        <time>2014-10-02T15:07:35Z</time>
      </trkpt>
      <trkpt lat="42.7111960" lon="-7.1236010">
        <ele>1316.5</ele>
        <time>2014-10-02T15:07:36Z</time>
      </trkpt>
      <trkpt lat="42.7111450" lon="-7.1234690">
        <ele>1315.7</ele>
        <time>2014-10-02T15:07:37Z</time>
      </trkpt>
      <trkpt lat="42.7110940" lon="-7.1233400">
        <ele>1315.0</ele>
        <time>2014-10-02T15:07:38Z</time>
      </trkpt>
      <trkpt lat="42.7110390" lon="-7.1232040">
        <ele>1314.3</ele>
        <time>2014-10-02T15:07:39Z</time>
      </trkpt>
      <trkpt lat="42.7109730" lon="-7.1230590">
        <ele>1313.6</ele>
        <time>2014-10-02T15:07:40Z</time>
      </trkpt>
      <trkpt lat="42.7109000" lon="-7.1229180">
        <ele>1312.9</ele>
        <time>2014-10-02T15:07:41Z</time>
      </trkpt>
      <trkpt lat="42.7108300" lon="-7.1227990">
        <ele>1312.3</ele>
        <time>2014-10-02T15:07:42Z</time>
      </trkpt>
      <trkpt lat="42.7107330" lon="-7.1227160">
        <ele>1311.7</ele>
        <time>2014-10-02T15:07:43Z</time>
      </trkpt>
      <trkpt lat="42.7106310" lon="-7.1226450">
        <ele>1311.0</ele>
        <time>2014-10-02T15:07:44Z</time>
      </trkpt>
      <trkpt lat="42.7105270" lon="-7.1225800">
        <ele>1310.4</ele>
        <time>2014-10-02T15:07:45Z</time>
      </trkpt>
      <trkpt lat="42.7104260" lon="-7.1225200">
        <ele>1309.8</ele>
        <time>2014-10-02T15:07:46Z</time>
      </trkpt>
      <trkpt lat="42.7103160" lon="-7.1224640">
        <ele>1309.3</ele>
        <time>2014-10-02T15:07:47Z</time>
      </trkpt>
      <trkpt lat="42.7101970" lon="-7.1224080">
        <ele>1308.9</ele>
        <time>2014-10-02T15:07:48Z</time>
      </trkpt>
      <trkpt lat="42.7100880" lon="-7.1223540">
        <ele>1308.5</ele>
        <time>2014-10-02T15:07:49Z</time>
      </trkpt>
      <trkpt lat="42.7099770" lon="-7.1222870">
        <ele>1307.9</ele>
        <time>2014-10-02T15:07:50Z</time>
      </trkpt>
      <trkpt lat="42.7098740" lon="-7.1222130">
        <ele>1307.4</ele>
        <time>2014-10-02T15:07:51Z</time>
      </trkpt>
      <trkpt lat="42.7097800" lon="-7.1221320">
        <ele>1306.9</ele>
        <time>2014-10-02T15:07:52Z</time>
      </trkpt>
      <trkpt lat="42.7096950" lon="-7.1220430">
        <ele>1306.5</ele>
        <time>2014-10-02T15:07:53Z</time>
      </trkpt>
      <trkpt lat="42.7096170" lon="-7.1219520">
        <ele>1306.0</ele>
        <time>2014-10-02T15:07:54Z</time>
      </trkpt>
      <trkpt lat="42.7095510" lon="-7.1218660">
        <ele>1305.6</ele>
        <time>2014-10-02T15:07:55Z</time>
      </trkpt>
      <trkpt lat="42.7094920" lon="-7.1217800">
        <ele>1305.3</ele>
        <time>2014-10-02T15:07:56Z</time>
      </trkpt>
      <trkpt lat="42.7094300" lon="-7.1216820">
        <ele>1304.9</ele>
        <time>2014-10-02T15:07:57Z</time>
      </trkpt>
      <trkpt lat="42.7093700" lon="-7.1215740">
        <ele>1304.4</ele>
        <time>2014-10-02T15:07:58Z</time>
      </trkpt>
      <trkpt lat="42.7093070" lon="-7.1214640">
        <ele>1303.9</ele>
        <time>2014-10-02T15:07:59Z</time>
      </trkpt>
      <trkpt lat="42.7092490" lon="-7.1213540">
        <ele>1303.4</ele>
        <time>2014-10-02T15:08:00Z</time>
      </trkpt>
      <trkpt lat="42.7091890" lon="-7.1212410">
        <ele>1302.9</ele>
        <time>2014-10-02T15:08:01Z</time>
      </trkpt>
      <trkpt lat="42.7091320" lon="-7.1211230">
        <ele>1302.3</ele>
        <time>2014-10-02T15:08:02Z</time>
      </trkpt>
      <trkpt lat="42.7090770" lon="-7.1210040">
        <ele>1301.7</ele>
        <time>2014-10-02T15:08:03Z</time>
      </trkpt>
      <trkpt lat="42.7090190" lon="-7.1208850">
        <ele>1301.1</ele>
        <time>2014-10-02T15:08:04Z</time>
      </trkpt>
      <trkpt lat="42.7089600" lon="-7.1207640">
        <ele>1300.5</ele>
        <time>2014-10-02T15:08:05Z</time>
      </trkpt>
      <trkpt lat="42.7088970" lon="-7.1206380">
        <ele>1299.9</ele>
        <time>2014-10-02T15:08:06Z</time>
      </trkpt>
      <trkpt lat="42.7088350" lon="-7.1205140">
        <ele>1299.2</ele>
        <time>2014-10-02T15:08:07Z</time>
      </trkpt>
      <trkpt lat="42.7087700" lon="-7.1203930">
        <ele>1298.6</ele>
        <time>2014-10-02T15:08:08Z</time>
      </trkpt>
      <trkpt lat="42.7087050" lon="-7.1202740">
        <ele>1298.1</ele>
        <time>2014-10-02T15:08:09Z</time>
      </trkpt>
      <trkpt lat="42.7086450" lon="-7.1201540">
        <ele>1297.6</ele>
        <time>2014-10-02T15:08:10Z</time>
      </trkpt>
      <trkpt lat="42.7085880" lon="-7.1200280">
        <ele>1297.1</ele>
        <time>2014-10-02T15:08:11Z</time>
      </trkpt>
      <trkpt lat="42.7085360" lon="-7.1198890">
        <ele>1296.5</ele>
        <time>2014-10-02T15:08:12Z</time>
      </trkpt>
      <trkpt lat="42.7085200" lon="-7.1197300">
        <ele>1295.8</ele>
        <time>2014-10-02T15:08:13Z</time>
      </trkpt>
      <trkpt lat="42.7085120" lon="-7.1195720">
        <ele>1295.1</ele>
        <time>2014-10-02T15:08:14Z</time>
      </trkpt>
      <trkpt lat="42.7085290" lon="-7.1194050">
        <ele>1294.3</ele>
        <time>2014-10-02T15:08:15Z</time>
      </trkpt>
      <trkpt lat="42.7085450" lon="-7.1192350">
        <ele>1293.5</ele>
        <time>2014-10-02T15:08:16Z</time>
      </trkpt>
      <trkpt lat="42.7085640" lon="-7.1190700">
        <ele>1292.8</ele>
        <time>2014-10-02T15:08:17Z</time>
      </trkpt>
      <trkpt lat="42.7085830" lon="-7.1189050">
        <ele>1292.0</ele>
        <time>2014-10-02T15:08:18Z</time>
      </trkpt>
      <trkpt lat="42.7086020" lon="-7.1187380">
        <ele>1291.3</ele>
        <time>2014-10-02T15:08:19Z</time>
      </trkpt>
      <trkpt lat="42.7086210" lon="-7.1185630">
        <ele>1290.4</ele>
        <time>2014-10-02T15:08:20Z</time>
      </trkpt>
      <trkpt lat="42.7086380" lon="-7.1183720">
        <ele>1289.4</ele>
        <time>2014-10-02T15:08:21Z</time>
      </trkpt>
      <trkpt lat="42.7086150" lon="-7.1181980">
        <ele>1288.5</ele>
        <time>2014-10-02T15:08:22Z</time>
      </trkpt>
      <trkpt lat="42.7085850" lon="-7.1180400">
        <ele>1287.6</ele>
        <time>2014-10-02T15:08:23Z</time>
      </trkpt>
      <trkpt lat="42.7085490" lon="-7.1178760">
        <ele>1286.7</ele>
        <time>2014-10-02T15:08:24Z</time>
      </trkpt>
      <trkpt lat="42.7085080" lon="-7.1177190">
        <ele>1285.9</ele>
        <time>2014-10-02T15:08:25Z</time>
      </trkpt>
      <trkpt lat="42.7084600" lon="-7.1175730">
        <ele>1285.0</ele>
        <time>2014-10-02T15:08:26Z</time>
      </trkpt>
      <trkpt lat="42.7084120" lon="-7.1174300">
        <ele>1284.3</ele>
        <time>2014-10-02T15:08:27Z</time>
      </trkpt>
      <trkpt lat="42.7083680" lon="-7.1172800">
        <ele>1283.5</ele>
        <time>2014-10-02T15:08:28Z</time>
      </trkpt>
      <trkpt lat="42.7083660" lon="-7.1171100">
        <ele>1282.5</ele>
        <time>2014-10-02T15:08:29Z</time>
      </trkpt>
      <trkpt lat="42.7083740" lon="-7.1169410">
        <ele>1281.4</ele>
        <time>2014-10-02T15:08:30Z</time>
      </trkpt>
      <trkpt lat="42.7084190" lon="-7.1167770">
        <ele>1280.2</ele>
        <time>2014-10-02T15:08:31Z</time>
      </trkpt>
      <trkpt lat="42.7084800" lon="-7.1166070">
        <ele>1278.6</ele>
        <time>2014-10-02T15:08:32Z</time>
      </trkpt>
      <trkpt lat="42.7085840" lon="-7.1164530">
        <ele>1277.0</ele>
        <time>2014-10-02T15:08:33Z</time>
      </trkpt>
      <trkpt lat="42.7087000" lon="-7.1162930">
        <ele>1275.4</ele>
        <time>2014-10-02T15:08:34Z</time>
      </trkpt>
      <trkpt lat="42.7088210" lon="-7.1161370">
        <ele>1274.0</ele>
        <time>2014-10-02T15:08:35Z</time>
      </trkpt>
      <trkpt lat="42.7089440" lon="-7.1159910">
        <ele>1272.7</ele>
        <time>2014-10-02T15:08:36Z</time>
      </trkpt>
      <trkpt lat="42.7090640" lon="-7.1158550">
        <ele>1271.5</ele>
        <time>2014-10-02T15:08:37Z</time>
      </trkpt>
      <trkpt lat="42.7091850" lon="-7.1157210">
        <ele>1270.4</ele>
        <time>2014-10-02T15:08:38Z</time>
      </trkpt>
      <trkpt lat="42.7092980" lon="-7.1155970">
        <ele>1269.3</ele>
        <time>2014-10-02T15:08:39Z</time>
      </trkpt>
      <trkpt lat="42.7094050" lon="-7.1154640">
        <ele>1268.3</ele>
        <time>2014-10-02T15:08:40Z</time>
      </trkpt>
      <trkpt lat="42.7095060" lon="-7.1153220">
        <ele>1267.3</ele>
        <time>2014-10-02T15:08:41Z</time>
      </trkpt>
      <trkpt lat="42.7096020" lon="-7.1151690">
        <ele>1266.4</ele>
        <time>2014-10-02T15:08:42Z</time>
      </trkpt>
      <trkpt lat="42.7096590" lon="-7.1150050">
        <ele>1265.6</ele>
        <time>2014-10-02T15:08:43Z</time>
      </trkpt>
      <trkpt lat="42.7097080" lon="-7.1148380">
        <ele>1264.8</ele>
        <time>2014-10-02T15:08:44Z</time>
      </trkpt>
      <trkpt lat="42.7097270" lon="-7.1146660">
        <ele>1264.1</ele>
        <time>2014-10-02T15:08:45Z</time>
      </trkpt>
      <trkpt lat="42.7097460" lon="-7.1144850">
        <ele>1263.2</ele>
        <time>2014-10-02T15:08:46Z</time>
      </trkpt>
      <trkpt lat="42.7097570" lon="-7.1143030">
        <ele>1262.5</ele>
        <time>2014-10-02T15:08:47Z</time>
      </trkpt>
      <trkpt lat="42.7097660" lon="-7.1141130">
        <ele>1261.7</ele>
        <time>2014-10-02T15:08:48Z</time>
      </trkpt>
      <trkpt lat="42.7097660" lon="-7.1139250">
        <ele>1260.9</ele>
        <time>2014-10-02T15:08:49Z</time>
      </trkpt>
      <trkpt lat="42.7097620" lon="-7.1137360">
        <ele>1260.1</ele>
        <time>2014-10-02T15:08:50Z</time>
      </trkpt>
      <trkpt lat="42.7097540" lon="-7.1135480">
        <ele>1259.3</ele>
        <time>2014-10-02T15:08:51Z</time>
      </trkpt>
      <trkpt lat="42.7097430" lon="-7.1133610">
        <ele>1258.5</ele>
        <time>2014-10-02T15:08:52Z</time>
      </trkpt>
      <trkpt lat="42.7097260" lon="-7.1131750">
        <ele>1257.7</ele>
        <time>2014-10-02T15:08:53Z</time>
      </trkpt>
      <trkpt lat="42.7097030" lon="-7.1129900">
        <ele>1256.8</ele>
        <time>2014-10-02T15:08:54Z</time>
      </trkpt>
      <trkpt lat="42.7096680" lon="-7.1128010">
        <ele>1255.9</ele>
        <time>2014-10-02T15:08:55Z</time>
      </trkpt>
      <trkpt lat="42.7096200" lon="-7.1126110">
        <ele>1255.0</ele>
        <time>2014-10-02T15:08:56Z</time>
      </trkpt>
      <trkpt lat="42.7095500" lon="-7.1124210">
        <ele>1254.0</ele>
        <time>2014-10-02T15:08:57Z</time>
      </trkpt>
      <trkpt lat="42.7094300" lon="-7.1122730">
        <ele>1252.9</ele>
        <time>2014-10-02T15:08:58Z</time>
      </trkpt>
      <trkpt lat="42.7093150" lon="-7.1121420">
        <ele>1251.8</ele>
        <time>2014-10-02T15:08:59Z</time>
      </trkpt>
      <trkpt lat="42.7091760" lon="-7.1120580">
        <ele>1250.6</ele>
        <time>2014-10-02T15:09:00Z</time>
      </trkpt>
      <trkpt lat="42.7090260" lon="-7.1119890">
        <ele>1249.2</ele>
        <time>2014-10-02T15:09:01Z</time>
      </trkpt>
      <trkpt lat="42.7088420" lon="-7.1119760">
        <ele>1247.6</ele>
        <time>2014-10-02T15:09:02Z</time>
      </trkpt>
      <trkpt lat="42.7086770" lon="-7.1119360">
        <ele>1246.2</ele>
        <time>2014-10-02T15:09:03Z</time>
      </trkpt>
      <trkpt lat="42.7085090" lon="-7.1119070">
        <ele>1245.0</ele>
        <time>2014-10-02T15:09:04Z</time>
      </trkpt>
      <trkpt lat="42.7083510" lon="-7.1118770">
        <ele>1243.7</ele>
        <time>2014-10-02T15:09:05Z</time>
      </trkpt>
      <trkpt lat="42.7081960" lon="-7.1118420">
        <ele>1242.5</ele>
        <time>2014-10-02T15:09:06Z</time>
      </trkpt>
      <trkpt lat="42.7080410" lon="-7.1118080">
        <ele>1241.5</ele>
        <time>2014-10-02T15:09:07Z</time>
      </trkpt>
      <trkpt lat="42.7078870" lon="-7.1117650">
        <ele>1240.7</ele>
        <time>2014-10-02T15:09:08Z</time>
      </trkpt>
      <trkpt lat="42.7077580" lon="-7.1116680">
        <ele>1240.0</ele>
        <time>2014-10-02T15:09:09Z</time>
      </trkpt>
      <trkpt lat="42.7076400" lon="-7.1115630">
        <ele>1239.6</ele>
        <time>2014-10-02T15:09:10Z</time>
      </trkpt>
      <trkpt lat="42.7075290" lon="-7.1114450">
        <ele>1239.2</ele>
        <time>2014-10-02T15:09:11Z</time>
      </trkpt>
      <trkpt lat="42.7074410" lon="-7.1112950">
        <ele>1238.8</ele>
        <time>2014-10-02T15:09:12Z</time>
      </trkpt>
      <trkpt lat="42.7073910" lon="-7.1111300">
        <ele>1238.4</ele>
        <time>2014-10-02T15:09:13Z</time>
      </trkpt>
      <trkpt lat="42.7073460" lon="-7.1109680">
        <ele>1238.0</ele>
        <time>2014-10-02T15:09:14Z</time>
      </trkpt>
      <trkpt lat="42.7073140" lon="-7.1108090">
        <ele>1237.7</ele>
        <time>2014-10-02T15:09:15Z</time>
      </trkpt>
      <trkpt lat="42.7073050" lon="-7.1106380">
        <ele>1237.3</ele>
        <time>2014-10-02T15:09:16Z</time>
      </trkpt>
      <trkpt lat="42.7073050" lon="-7.1104540">
        <ele>1237.2</ele>
        <time>2014-10-02T15:09:17Z</time>
      </trkpt>
      <trkpt lat="42.7073420" lon="-7.1102870">
        <ele>1237.1</ele>
        <time>2014-10-02T15:09:18Z</time>
      </trkpt>
      <trkpt lat="42.7073790" lon="-7.1101310">
        <ele>1237.2</ele>
        <time>2014-10-02T15:09:19Z</time>
      </trkpt>
      <trkpt lat="42.7074240" lon="-7.1099810">
        <ele>1237.4</ele>
        <time>2014-10-02T15:09:20Z</time>
      </trkpt>
      <trkpt lat="42.7074730" lon="-7.1098530">
        <ele>1237.7</ele>
        <time>2014-10-02T15:09:21Z</time>
      </trkpt>
      <trkpt lat="42.7075250" lon="-7.1097220">
        <ele>1238.0</ele>
        <time>2014-10-02T15:09:22Z</time>
      </trkpt>
      <trkpt lat="42.7075780" lon="-7.1096020">
        <ele>1238.3</ele>
        <time>2014-10-02T15:09:23Z</time>
      </trkpt>
      <trkpt lat="42.7076250" lon="-7.1094790">
        <ele>1238.6</ele>
        <time>2014-10-02T15:09:24Z</time>
      </trkpt>
      <trkpt lat="42.7076560" lon="-7.1093650">
        <ele>1238.9</ele>
        <time>2014-10-02T15:09:25Z</time>
      </trkpt>
      <trkpt lat="42.7076650" lon="-7.1092350">
        <ele>1239.2</ele>
        <time>2014-10-02T15:09:26Z</time>
      </trkpt>
      <trkpt lat="42.7076680" lon="-7.1091140">
        <ele>1239.5</ele>
        <time>2014-10-02T15:09:27Z</time>
      </trkpt>
      <trkpt lat="42.7076400" lon="-7.1090050">
        <ele>1239.8</ele>
        <time>2014-10-02T15:09:28Z</time>
      </trkpt>
      <trkpt lat="42.7076080" lon="-7.1088970">
        <ele>1240.1</ele>
        <time>2014-10-02T15:09:29Z</time>
      </trkpt>
      <trkpt lat="42.7075580" lon="-7.1088080">
        <ele>1240.3</ele>
        <time>2014-10-02T15:09:30Z</time>
      </trkpt>
      <trkpt lat="42.7075060" lon="-7.1087350">
        <ele>1240.5</ele>
        <time>2014-10-02T15:09:31Z</time>
      </trkpt>
      <trkpt lat="42.7074490" lon="-7.1086670">
        <ele>1240.7</ele>
        <time>2014-10-02T15:09:32Z</time>
      </trkpt>
      <trkpt lat="42.7073730" lon="-7.1086230">
        <ele>1240.8</ele>
        <time>2014-10-02T15:09:33Z</time>
      </trkpt>
      <trkpt lat="42.7072980" lon="-7.1085820">
        <ele>1240.8</ele>
        <time>2014-10-02T15:09:34Z</time>
      </trkpt>
      <trkpt lat="42.7072220" lon="-7.1085480">
        <ele>1240.8</ele>
        <time>2014-10-02T15:09:35Z</time>
      </trkpt>
      <trkpt lat="42.7071500" lon="-7.1085250">
        <ele>1240.6</ele>
        <time>2014-10-02T15:09:36Z</time>
      </trkpt>
      <trkpt lat="42.7070730" lon="-7.1085110">
        <ele>1240.5</ele>
        <time>2014-10-02T15:09:37Z</time>
      </trkpt>
      <trkpt lat="42.7069860" lon="-7.1085160">
        <ele>1240.2</ele>
        <time>2014-10-02T15:09:38Z</time>
      </trkpt>
      <trkpt lat="42.7068970" lon="-7.1085210">
        <ele>1239.9</ele>
        <time>2014-10-02T15:09:39Z</time>
      </trkpt>
      <trkpt lat="42.7068150" lon="-7.1085310">
        <ele>1239.5</ele>
        <time>2014-10-02T15:09:40Z</time>
      </trkpt>
      <trkpt lat="42.7067280" lon="-7.1085460">
        <ele>1239.2</ele>
        <time>2014-10-02T15:09:41Z</time>
      </trkpt>
      <trkpt lat="42.7066420" lon="-7.1085630">
        <ele>1238.9</ele>
        <time>2014-10-02T15:09:42Z</time>
      </trkpt>
      <trkpt lat="42.7065470" lon="-7.1085800">
        <ele>1238.5</ele>
        <time>2014-10-02T15:09:43Z</time>
      </trkpt>
      <trkpt lat="42.7064580" lon="-7.1085920">
        <ele>1238.2</ele>
        <time>2014-10-02T15:09:44Z</time>
      </trkpt>
      <trkpt lat="42.7063740" lon="-7.1085970">
        <ele>1238.0</ele>
        <time>2014-10-02T15:09:45Z</time>
      </trkpt>
      <trkpt lat="42.7062850" lon="-7.1085940">
        <ele>1237.8</ele>
        <time>2014-10-02T15:09:46Z</time>
      </trkpt>
      <trkpt lat="42.7062000" lon="-7.1085570">
        <ele>1237.7</ele>
        <time>2014-10-02T15:09:47Z</time>
      </trkpt>
      <trkpt lat="42.7061190" lon="-7.1085140">
        <ele>1237.7</ele>
        <time>2014-10-02T15:09:48Z</time>
      </trkpt>
      <trkpt lat="42.7060370" lon="-7.1084600">
        <ele>1237.7</ele>
        <time>2014-10-02T15:09:49Z</time>
      </trkpt>
      <trkpt lat="42.7059670" lon="-7.1083820">
        <ele>1237.8</ele>
        <time>2014-10-02T15:09:50Z</time>
      </trkpt>
      <trkpt lat="42.7058970" lon="-7.1082960">
        <ele>1237.9</ele>
        <time>2014-10-02T15:09:51Z</time>
      </trkpt>
      <trkpt lat="42.7058420" lon="-7.1081860">
        <ele>1238.1</ele>
        <time>2014-10-02T15:09:52Z</time>
      </trkpt>
      <trkpt lat="42.7057900" lon="-7.1080700">
        <ele>1238.3</ele>
        <time>2014-10-02T15:09:53Z</time>
      </trkpt>
      <trkpt lat="42.7057410" lon="-7.1079480">
        <ele>1238.5</ele>
        <time>2014-10-02T15:09:54Z</time>
      </trkpt>
      <trkpt lat="42.7056960" lon="-7.1078270">
        <ele>1238.7</ele>
        <time>2014-10-02T15:09:55Z</time>
      </trkpt>
      <trkpt lat="42.7056610" lon="-7.1077200">
        <ele>1238.9</ele>
        <time>2014-10-02T15:09:56Z</time>
      </trkpt>
      <trkpt lat="42.7056310" lon="-7.1076160">
        <ele>1239.1</ele>
        <time>2014-10-02T15:09:57Z</time>
      </trkpt>
      <trkpt lat="42.7056070" lon="-7.1075180">
        <ele>1239.3</ele>
        <time>2014-10-02T15:09:58Z</time>
      </trkpt>
      <trkpt lat="42.7055850" lon="-7.1074150">
        <ele>1239.5</ele>
        <time>2014-10-02T15:09:59Z</time>
      </trkpt>
      <trkpt lat="42.7055660" lon="-7.1073170">
        <ele>1239.7</ele>
        <time>2014-10-02T15:10:00Z</time>
      </trkpt>
      <trkpt lat="42.7055510" lon="-7.1072240">
        <ele>1239.9</ele>
        <time>2014-10-02T15:10:01Z</time>
      </trkpt>
      <trkpt lat="42.7055360" lon="-7.1071270">
        <ele>1240.0</ele>
        <time>2014-10-02T15:10:02Z</time>
      </trkpt>
      <trkpt lat="42.7055180" lon="-7.1070360">
        <ele>1240.0</ele>
        <time>2014-10-02T15:10:03Z</time>
      </trkpt>
      <trkpt lat="42.7054980" lon="-7.1069470">
        <ele>1240.0</ele>
        <time>2014-10-02T15:10:04Z</time>
      </trkpt>
      <trkpt lat="42.7054790" lon="-7.1068570">
        <ele>1239.9</ele>
        <time>2014-10-02T15:10:05Z</time>
      </trkpt>
      <trkpt lat="42.7054420" lon="-7.1067830">
        <ele>1239.8</ele>
        <time>2014-10-02T15:10:06Z</time>
      </trkpt>
      <trkpt lat="42.7054040" lon="-7.1066960">
        <ele>1239.6</ele>
        <time>2014-10-02T15:10:07Z</time>
      </trkpt>
      <trkpt lat="42.7053650" lon="-7.1066130">
        <ele>1239.4</ele>
        <time>2014-10-02T15:10:08Z</time>
      </trkpt>
      <trkpt lat="42.7053200" lon="-7.1065240">
        <ele>1239.2</ele>
        <time>2014-10-02T15:10:09Z</time>
      </trkpt>
      <trkpt lat="42.7052740" lon="-7.1064390">
        <ele>1238.9</ele>
        <time>2014-10-02T15:10:10Z</time>
      </trkpt>
      <trkpt lat="42.7052250" lon="-7.1063440">
        <ele>1238.6</ele>
        <time>2014-10-02T15:10:11Z</time>
      </trkpt>
      <trkpt lat="42.7051780" lon="-7.1062440">
        <ele>1238.4</ele>
        <time>2014-10-02T15:10:12Z</time>
      </trkpt>
      <trkpt lat="42.7051280" lon="-7.1061270">
        <ele>1238.1</ele>
        <time>2014-10-02T15:10:13Z</time>
      </trkpt>
      <trkpt lat="42.7050860" lon="-7.1060060">
        <ele>1237.9</ele>
        <time>2014-10-02T15:10:14Z</time>
      </trkpt>
      <trkpt lat="42.7050530" lon="-7.1058900">
        <ele>1237.7</ele>
        <time>2014-10-02T15:10:15Z</time>
      </trkpt>
      <trkpt lat="42.7050260" lon="-7.1057730">
        <ele>1237.5</ele>
        <time>2014-10-02T15:10:16Z</time>
      </trkpt>
      <trkpt lat="42.7050190" lon="-7.1056450">
        <ele>1237.3</ele>
        <time>2014-10-02T15:10:17Z</time>
      </trkpt>
      <trkpt lat="42.7050190" lon="-7.1055170">
        <ele>1237.1</ele>
        <time>2014-10-02T15:10:18Z</time>
      </trkpt>
      <trkpt lat="42.7050390" lon="-7.1053900">
        <ele>1237.0</ele>
        <time>2014-10-02T15:10:19Z</time>
      </trkpt>
      <trkpt lat="42.7050600" lon="-7.1052670">
        <ele>1236.8</ele>
        <time>2014-10-02T15:10:20Z</time>
      </trkpt>
      <trkpt lat="42.7051000" lon="-7.1051530">
        <ele>1236.7</ele>
        <time>2014-10-02T15:10:21Z</time>
      </trkpt>
      <trkpt lat="42.7051380" lon="-7.1050370">
        <ele>1236.7</ele>
        <time>2014-10-02T15:10:22Z</time>
      </trkpt>
      <trkpt lat="42.7051830" lon="-7.1049200">
        <ele>1236.7</ele>
        <time>2014-10-02T15:10:23Z</time>
      </trkpt>
      <trkpt lat="42.7052290" lon="-7.1048040">
        <ele>1236.7</ele>
        <time>2014-10-02T15:10:24Z</time>
      </trkpt>
      <trkpt lat="42.7052740" lon="-7.1046910">
        <ele>1236.8</ele>
        <time>2014-10-02T15:10:25Z</time>
      </trkpt>
      <trkpt lat="42.7053140" lon="-7.1045810">
        <ele>1236.9</ele>
        <time>2014-10-02T15:10:26Z</time>
      </trkpt>
      <trkpt lat="42.7053510" lon="-7.1044620">
        <ele>1237.0</ele>
        <time>2014-10-02T15:10:27Z</time>
      </trkpt>
      <trkpt lat="42.7053800" lon="-7.1043440">
        <ele>1237.2</ele>
        <time>2014-10-02T15:10:28Z</time>
      </trkpt>
      <trkpt lat="42.7053890" lon="-7.1042230">
        <ele>1237.4</ele>
        <time>2014-10-02T15:10:29Z</time>
      </trkpt>
      <trkpt lat="42.7053940" lon="-7.1041020">
        <ele>1237.7</ele>
        <time>2014-10-02T15:10:30Z</time>
      </trkpt>
      <trkpt lat="42.7053750" lon="-7.1040050">
        <ele>1237.9</ele>
        <time>2014-10-02T15:10:31Z</time>
      </trkpt>
      <trkpt lat="42.7053530" lon="-7.1039120">
        <ele>1238.2</ele>
        <time>2014-10-02T15:10:32Z</time>
      </trkpt>
      <trkpt lat="42.7053270" lon="-7.1038160">
        <ele>1238.5</ele>
        <time>2014-10-02T15:10:33Z</time>
      </trkpt>
      <trkpt lat="42.7052980" lon="-7.1037190">
        <ele>1238.8</ele>
        <time>2014-10-02T15:10:34Z</time>
      </trkpt>
      <trkpt lat="42.7052690" lon="-7.1036250">
        <ele>1239.1</ele>
        <time>2014-10-02T15:10:35Z</time>
      </trkpt>
      <trkpt lat="42.7052380" lon="-7.1035380">
        <ele>1239.4</ele>
        <time>2014-10-02T15:10:36Z</time>
      </trkpt>
      <trkpt lat="42.7052080" lon="-7.1034530">
        <ele>1239.6</ele>
        <time>2014-10-02T15:10:37Z</time>
      </trkpt>
      <trkpt lat="42.7051800" lon="-7.1033770">
        <ele>1239.8</ele>
        <time>2014-10-02T15:10:38Z</time>
      </trkpt>
      <trkpt lat="42.7051540" lon="-7.1032980">
        <ele>1240.0</ele>
        <time>2014-10-02T15:10:39Z</time>
      </trkpt>
      <trkpt lat="42.7051260" lon="-7.1032180">
        <ele>1240.2</ele>
        <time>2014-10-02T15:10:40Z</time>
      </trkpt>
      <trkpt lat="42.7050980" lon="-7.1031320">
        <ele>1240.4</ele>
        <time>2014-10-02T15:10:41Z</time>
      </trkpt>
      <trkpt lat="42.7050690" lon="-7.1030530">
        <ele>1240.9</ele>
        <time>2014-10-02T15:10:42Z</time>
      </trkpt>
      <trkpt lat="42.7050400" lon="-7.1029730">
        <ele>1241.3</ele>
        <time>2014-10-02T15:10:43Z</time>
      </trkpt>
      <trkpt lat="42.7050120" lon="-7.1028970">
        <ele>1241.6</ele>
        <time>2014-10-02T15:10:44Z</time>
      </trkpt>
      <trkpt lat="42.7050010" lon="-7.1028060">
        <ele>1242.0</ele>
        <time>2014-10-02T15:10:45Z</time>
      </trkpt>
      <trkpt lat="42.7049760" lon="-7.1027440">
        <ele>1242.3</ele>
        <time>2014-10-02T15:10:46Z</time>
      </trkpt>
      <trkpt lat="42.7049490" lon="-7.1026870">
        <ele>1242.5</ele>
        <time>2014-10-02T15:10:47Z</time>
      </trkpt>
      <trkpt lat="42.7049180" lon="-7.1026240">
        <ele>1242.8</ele>
        <time>2014-10-02T15:10:48Z</time>
      </trkpt>
      <trkpt lat="42.7048870" lon="-7.1025620">
        <ele>1243.0</ele>
        <time>2014-10-02T15:10:49Z</time>
      </trkpt>
      <trkpt lat="42.7048590" lon="-7.1024990">
        <ele>1243.3</ele>
        <time>2014-10-02T15:10:50Z</time>
      </trkpt>
      <trkpt lat="42.7048280" lon="-7.1024280">
        <ele>1243.5</ele>
        <time>2014-10-02T15:10:51Z</time>
      </trkpt>
      <trkpt lat="42.7047950" lon="-7.1023550">
        <ele>1243.7</ele>
        <time>2014-10-02T15:10:52Z</time>
      </trkpt>
      <trkpt lat="42.7047630" lon="-7.1022830">
        <ele>1243.9</ele>
        <time>2014-10-02T15:10:53Z</time>
      </trkpt>
      <trkpt lat="42.7047300" lon="-7.1022040">
        <ele>1244.1</ele>
        <time>2014-10-02T15:10:54Z</time>
      </trkpt>
      <trkpt lat="42.7046970" lon="-7.1021180">
        <ele>1244.2</ele>
        <time>2014-10-02T15:10:55Z</time>
      </trkpt>
      <trkpt lat="42.7046690" lon="-7.1020450">
        <ele>1244.2</ele>
        <time>2014-10-02T15:10:56Z</time>
      </trkpt>
      <trkpt lat="42.7046450" lon="-7.1019720">
        <ele>1244.2</ele>
        <time>2014-10-02T15:10:57Z</time>
      </trkpt>
      <trkpt lat="42.7046260" lon="-7.1018930">
        <ele>1244.1</ele>
        <time>2014-10-02T15:10:58Z</time>
      </trkpt>
      <trkpt lat="42.7046040" lon="-7.1017990">
        <ele>1243.8</ele>
        <time>2014-10-02T15:10:59Z</time>
      </trkpt>
      <trkpt lat="42.7045840" lon="-7.1016970">
        <ele>1243.6</ele>
        <time>2014-10-02T15:11:00Z</time>
      </trkpt>
      <trkpt lat="42.7045620" lon="-7.1015890">
        <ele>1242.7</ele>
        <time>2014-10-02T15:11:01Z</time>
      </trkpt>
      <trkpt lat="42.7045390" lon="-7.1014780">
        <ele>1241.8</ele>
        <time>2014-10-02T15:11:02Z</time>
      </trkpt>
      <trkpt lat="42.7045120" lon="-7.1013480">
        <ele>1240.6</ele>
        <time>2014-10-02T15:11:03Z</time>
      </trkpt>
      <trkpt lat="42.7044880" lon="-7.1012150">
        <ele>1239.5</ele>
        <time>2014-10-02T15:11:04Z</time>
      </trkpt>
      <trkpt lat="42.7044620" lon="-7.1010800">
        <ele>1238.5</ele>
        <time>2014-10-02T15:11:05Z</time>
      </trkpt>
      <trkpt lat="42.7044370" lon="-7.1009380">
        <ele>1237.6</ele>
        <time>2014-10-02T15:11:06Z</time>
      </trkpt>
      <trkpt lat="42.7044100" lon="-7.1007890">
        <ele>1236.8</ele>
        <time>2014-10-02T15:11:07Z</time>
      </trkpt>
      <trkpt lat="42.7043880" lon="-7.1006380">
        <ele>1236.0</ele>
        <time>2014-10-02T15:11:08Z</time>
      </trkpt>
      <trkpt lat="42.7043670" lon="-7.1004820">
        <ele>1235.2</ele>
        <time>2014-10-02T15:11:09Z</time>
      </trkpt>
      <trkpt lat="42.7043460" lon="-7.1003200">
        <ele>1234.4</ele>
        <time>2014-10-02T15:11:10Z</time>
      </trkpt>
      <trkpt lat="42.7043270" lon="-7.1001520">
        <ele>1233.7</ele>
        <time>2014-10-02T15:11:11Z</time>
      </trkpt>
      <trkpt lat="42.7043120" lon="-7.0999950">
        <ele>1233.1</ele>
        <time>2014-10-02T15:11:12Z</time>
      </trkpt>
      <trkpt lat="42.7043000" lon="-7.0998370">
        <ele>1232.5</ele>
        <time>2014-10-02T15:11:13Z</time>
      </trkpt>
      <trkpt lat="42.7042900" lon="-7.0996830">
        <ele>1232.0</ele>
        <time>2014-10-02T15:11:14Z</time>
      </trkpt>
      <trkpt lat="42.7042800" lon="-7.0995270">
        <ele>1231.5</ele>
        <time>2014-10-02T15:11:15Z</time>
      </trkpt>
      <trkpt lat="42.7042710" lon="-7.0993740">
        <ele>1231.0</ele>
        <time>2014-10-02T15:11:16Z</time>
      </trkpt>
      <trkpt lat="42.7042590" lon="-7.0992220">
        <ele>1230.5</ele>
        <time>2014-10-02T15:11:17Z</time>
      </trkpt>
      <trkpt lat="42.7042450" lon="-7.0990680">
        <ele>1229.9</ele>
        <time>2014-10-02T15:11:18Z</time>
      </trkpt>
      <trkpt lat="42.7042310" lon="-7.0989140">
        <ele>1229.6</ele>
        <time>2014-10-02T15:11:19Z</time>
      </trkpt>
      <trkpt lat="42.7042100" lon="-7.0987610">
        <ele>1229.3</ele>
        <time>2014-10-02T15:11:20Z</time>
      </trkpt>
      <trkpt lat="42.7041900" lon="-7.0986090">
        <ele>1228.9</ele>
        <time>2014-10-02T15:11:21Z</time>
      </trkpt>
      <trkpt lat="42.7041690" lon="-7.0984620">
        <ele>1228.2</ele>
        <time>2014-10-02T15:11:22Z</time>
      </trkpt>
      <trkpt lat="42.7041440" lon="-7.0983210">
        <ele>1227.6</ele>
        <time>2014-10-02T15:11:23Z</time>
      </trkpt>
      <trkpt lat="42.7041160" lon="-7.0981790">
        <ele>1227.1</ele>
        <time>2014-10-02T15:11:24Z</time>
      </trkpt>
      <trkpt lat="42.7040560" lon="-7.0980500">
        <ele>1226.6</ele>
        <time>2014-10-02T15:11:25Z</time>
      </trkpt>
      <trkpt lat="42.7039940" lon="-7.0979270">
        <ele>1226.2</ele>
        <time>2014-10-02T15:11:26Z</time>
      </trkpt>
      <trkpt lat="42.7039290" lon="-7.0978080">
        <ele>1225.7</ele>
        <time>2014-10-02T15:11:27Z</time>
      </trkpt>
      <trkpt lat="42.7038640" lon="-7.0977100">
        <ele>1225.2</ele>
        <time>2014-10-02T15:11:28Z</time>
      </trkpt>
      <trkpt lat="42.7037880" lon="-7.0976060">
        <ele>1224.7</ele>
        <time>2014-10-02T15:11:29Z</time>
      </trkpt>
      <trkpt lat="42.7037130" lon="-7.0975140">
        <ele>1224.3</ele>
        <time>2014-10-02T15:11:30Z</time>
      </trkpt>
      <trkpt lat="42.7036270" lon="-7.0974160">
        <ele>1223.8</ele>
        <time>2014-10-02T15:11:31Z</time>
      </trkpt>
      <trkpt lat="42.7035400" lon="-7.0973140">
        <ele>1223.3</ele>
        <time>2014-10-02T15:11:32Z</time>
      </trkpt>
      <trkpt lat="42.7034470" lon="-7.0972140">
        <ele>1222.6</ele>
        <time>2014-10-02T15:11:33Z</time>
      </trkpt>
      <trkpt lat="42.7033590" lon="-7.0971200">
        <ele>1222.0</ele>
        <time>2014-10-02T15:11:34Z</time>
      </trkpt>
      <trkpt lat="42.7032660" lon="-7.0970330">
        <ele>1221.3</ele>
        <time>2014-10-02T15:11:35Z</time>
      </trkpt>
      <trkpt lat="42.7031730" lon="-7.0969420">
        <ele>1220.7</ele>
        <time>2014-10-02T15:11:36Z</time>
      </trkpt>
      <trkpt lat="42.7030760" lon="-7.0968430">
        <ele>1220.0</ele>
        <time>2014-10-02T15:11:37Z</time>
      </trkpt>
      <trkpt lat="42.7029870" lon="-7.0967500">
        <ele>1219.4</ele>
        <time>2014-10-02T15:11:38Z</time>
      </trkpt>
      <trkpt lat="42.7028960" lon="-7.0966480">
        <ele>1218.6</ele>
        <time>2014-10-02T15:11:39Z</time>
      </trkpt>
      <trkpt lat="42.7028100" lon="-7.0965470">
        <ele>1217.9</ele>
        <time>2014-10-02T15:11:40Z</time>
      </trkpt>
      <trkpt lat="42.7027260" lon="-7.0964380">
        <ele>1217.0</ele>
        <time>2014-10-02T15:11:41Z</time>
      </trkpt>
      <trkpt lat="42.7026260" lon="-7.0963140">
        <ele>1216.1</ele>
        <time>2014-10-02T15:11:42Z</time>
      </trkpt>
      <trkpt lat="42.7025280" lon="-7.0961840">
        <ele>1214.9</ele>
        <time>2014-10-02T15:11:43Z</time>
      </trkpt>
      <trkpt lat="42.7024340" lon="-7.0960500">
        <ele>1213.7</ele>
        <time>2014-10-02T15:11:44Z</time>
      </trkpt>
      <trkpt lat="42.7023400" lon="-7.0959100">
        <ele>1212.4</ele>
        <time>2014-10-02T15:11:45Z</time>
      </trkpt>
      <trkpt lat="42.7022500" lon="-7.0957760">
        <ele>1211.1</ele>
        <time>2014-10-02T15:11:46Z</time>
      </trkpt>
      <trkpt lat="42.7021540" lon="-7.0956360">
        <ele>1209.8</ele>
        <time>2014-10-02T15:11:47Z</time>
      </trkpt>
      <trkpt lat="42.7020590" lon="-7.0954900">
        <ele>1208.7</ele>
        <time>2014-10-02T15:11:48Z</time>
      </trkpt>
      <trkpt lat="42.7019660" lon="-7.0953440">
        <ele>1207.9</ele>
        <time>2014-10-02T15:11:49Z</time>
      </trkpt>
      <trkpt lat="42.7018760" lon="-7.0952090">
        <ele>1207.3</ele>
        <time>2014-10-02T15:11:50Z</time>
      </trkpt>
      <trkpt lat="42.7017890" lon="-7.0950710">
        <ele>1206.8</ele>
        <time>2014-10-02T15:11:51Z</time>
      </trkpt>
      <trkpt lat="42.7017060" lon="-7.0949400">
        <ele>1206.6</ele>
        <time>2014-10-02T15:11:52Z</time>
      </trkpt>
      <trkpt lat="42.7016290" lon="-7.0948200">
        <ele>1206.5</ele>
        <time>2014-10-02T15:11:53Z</time>
      </trkpt>
      <trkpt lat="42.7015510" lon="-7.0947070">
        <ele>1206.4</ele>
        <time>2014-10-02T15:11:54Z</time>
      </trkpt>
      <trkpt lat="42.7014690" lon="-7.0945920">
        <ele>1206.5</ele>
        <time>2014-10-02T15:11:55Z</time>
      </trkpt>
      <trkpt lat="42.7013900" lon="-7.0944860">
        <ele>1206.8</ele>
        <time>2014-10-02T15:11:56Z</time>
      </trkpt>
      <trkpt lat="42.7013150" lon="-7.0943830">
        <ele>1207.3</ele>
        <time>2014-10-02T15:11:57Z</time>
      </trkpt>
      <trkpt lat="42.7012370" lon="-7.0942870">
        <ele>1207.9</ele>
        <time>2014-10-02T15:11:58Z</time>
      </trkpt>
      <trkpt lat="42.7011560" lon="-7.0941910">
        <ele>1207.0</ele>
        <time>2014-10-02T15:11:59Z</time>
      </trkpt>
      <trkpt lat="42.7010720" lon="-7.0940930">
        <ele>1207.3</ele>
        <time>2014-10-02T15:12:00Z</time>
      </trkpt>
      <trkpt lat="42.7009960" lon="-7.0940070">
        <ele>1207.8</ele>
        <time>2014-10-02T15:12:01Z</time>
      </trkpt>
      <trkpt lat="42.7009270" lon="-7.0939240">
        <ele>1208.3</ele>
        <time>2014-10-02T15:12:02Z</time>
      </trkpt>
      <trkpt lat="42.7008650" lon="-7.0938480">
        <ele>1208.7</ele>
        <time>2014-10-02T15:12:03Z</time>
      </trkpt>
      <trkpt lat="42.7008010" lon="-7.0937720">
        <ele>1209.2</ele>
        <time>2014-10-02T15:12:04Z</time>
      </trkpt>
      <trkpt lat="42.7007420" lon="-7.0937010">
        <ele>1209.7</ele>
        <time>2014-10-02T15:12:05Z</time>
      </trkpt>
      <trkpt lat="42.7006890" lon="-7.0936380">
        <ele>1210.2</ele>
        <time>2014-10-02T15:12:06Z</time>
      </trkpt>
      <trkpt lat="42.7006390" lon="-7.0935840">
        <ele>1210.6</ele>
        <time>2014-10-02T15:12:07Z</time>
      </trkpt>
      <trkpt lat="42.7005890" lon="-7.0935290">
        <ele>1211.0</ele>
        <time>2014-10-02T15:12:08Z</time>
      </trkpt>
      <trkpt lat="42.7005450" lon="-7.0934800">
        <ele>1211.3</ele>
        <time>2014-10-02T15:12:09Z</time>
      </trkpt>
      <trkpt lat="42.7004970" lon="-7.0934250">
        <ele>1211.7</ele>
        <time>2014-10-02T15:12:10Z</time>
      </trkpt>
      <trkpt lat="42.7004510" lon="-7.0933720">
        <ele>1212.1</ele>
        <time>2014-10-02T15:12:11Z</time>
      </trkpt>
      <trkpt lat="42.7004030" lon="-7.0933150">
        <ele>1212.5</ele>
        <time>2014-10-02T15:12:12Z</time>
      </trkpt>
      <trkpt lat="42.7003630" lon="-7.0932680">
        <ele>1212.8</ele>
        <time>2014-10-02T15:12:13Z</time>
      </trkpt>
      <trkpt lat="42.7003240" lon="-7.0932210">
        <ele>1213.1</ele>
        <time>2014-10-02T15:12:14Z</time>
      </trkpt>
      <trkpt lat="42.7002830" lon="-7.0931720">
        <ele>1213.5</ele>
        <time>2014-10-02T15:12:15Z</time>
      </trkpt>
      <trkpt lat="42.7002430" lon="-7.0931230">
        <ele>1213.8</ele>
        <time>2014-10-02T15:12:16Z</time>
      </trkpt>
      <trkpt lat="42.7002030" lon="-7.0930740">
        <ele>1214.1</ele>
        <time>2014-10-02T15:12:17Z</time>
      </trkpt>
      <trkpt lat="42.7001610" lon="-7.0930280">
        <ele>1214.5</ele>
        <time>2014-10-02T15:12:18Z</time>
      </trkpt>
      <trkpt lat="42.7001210" lon="-7.0929820">
        <ele>1214.8</ele>
        <time>2014-10-02T15:12:19Z</time>
      </trkpt>
      <trkpt lat="42.7000790" lon="-7.0929360">
        <ele>1215.1</ele>
        <time>2014-10-02T15:12:20Z</time>
      </trkpt>
      <trkpt lat="42.7000400" lon="-7.0928920">
        <ele>1215.4</ele>
        <time>2014-10-02T15:12:21Z</time>
      </trkpt>
      <trkpt lat="42.7000000" lon="-7.0928490">
        <ele>1215.7</ele>
        <time>2014-10-02T15:12:22Z</time>
      </trkpt>
      <trkpt lat="42.6999640" lon="-7.0928060">
        <ele>1216.0</ele>
        <time>2014-10-02T15:12:23Z</time>
      </trkpt>
      <trkpt lat="42.6999240" lon="-7.0927600">
        <ele>1216.4</ele>
        <time>2014-10-02T15:12:24Z</time>
      </trkpt>
      <trkpt lat="42.6998860" lon="-7.0927170">
        <ele>1216.7</ele>
        <time>2014-10-02T15:12:25Z</time>
      </trkpt>
      <trkpt lat="42.6998520" lon="-7.0926800">
        <ele>1216.9</ele>
        <time>2014-10-02T15:12:26Z</time>
      </trkpt>
      <trkpt lat="42.6998220" lon="-7.0926470">
        <ele>1217.1</ele>
        <time>2014-10-02T15:12:27Z</time>
      </trkpt>
      <trkpt lat="42.6997910" lon="-7.0926110">
        <ele>1217.4</ele>
        <time>2014-10-02T15:12:28Z</time>
      </trkpt>
      <trkpt lat="42.6997570" lon="-7.0925730">
        <ele>1217.6</ele>
        <time>2014-10-02T15:12:29Z</time>
      </trkpt>
      <trkpt lat="42.6997260" lon="-7.0925360">
        <ele>1217.8</ele>
        <time>2014-10-02T15:12:30Z</time>
      </trkpt>
      <trkpt lat="42.6996920" lon="-7.0924950">
        <ele>1218.1</ele>
        <time>2014-10-02T15:12:31Z</time>
      </trkpt>
      <trkpt lat="42.6996620" lon="-7.0924560">
        <ele>1218.3</ele>
        <time>2014-10-02T15:12:32Z</time>
      </trkpt>
      <trkpt lat="42.6996280" lon="-7.0924130">
        <ele>1218.5</ele>
        <time>2014-10-02T15:12:33Z</time>
      </trkpt>
      <trkpt lat="42.6995960" lon="-7.0923730">
        <ele>1218.7</ele>
        <time>2014-10-02T15:12:34Z</time>
      </trkpt>
      <trkpt lat="42.6995650" lon="-7.0923340">
        <ele>1218.9</ele>
        <time>2014-10-02T15:12:35Z</time>
      </trkpt>
      <trkpt lat="42.6995370" lon="-7.0923000">
        <ele>1219.1</ele>
        <time>2014-10-02T15:12:36Z</time>
      </trkpt>
      <trkpt lat="42.6995100" lon="-7.0922660">
        <ele>1219.3</ele>
        <time>2014-10-02T15:12:37Z</time>
      </trkpt>
      <trkpt lat="42.6994820" lon="-7.0922330">
        <ele>1219.5</ele>
        <time>2014-10-02T15:12:38Z</time>
      </trkpt>
      <trkpt lat="42.6994520" lon="-7.0921980">
        <ele>1219.7</ele>
        <time>2014-10-02T15:12:39Z</time>
      </trkpt>
      <trkpt lat="42.6994240" lon="-7.0921650">
        <ele>1219.9</ele>
        <time>2014-10-02T15:12:40Z</time>
      </trkpt>
      <trkpt lat="42.6994000" lon="-7.0921330">
        <ele>1220.1</ele>
        <time>2014-10-02T15:12:41Z</time>
      </trkpt>
      <trkpt lat="42.6993770" lon="-7.0921030">
        <ele>1220.3</ele>
        <time>2014-10-02T15:12:42Z</time>
      </trkpt>
      <trkpt lat="42.6993520" lon="-7.0920720">
        <ele>1220.5</ele>
        <time>2014-10-02T15:12:43Z</time>
      </trkpt>
      <trkpt lat="42.6993220" lon="-7.0920390">
        <ele>1220.8</ele>
        <time>2014-10-02T15:12:44Z</time>
      </trkpt>
      <trkpt lat="42.6992930" lon="-7.0920050">
        <ele>1221.0</ele>
        <time>2014-10-02T15:12:45Z</time>
      </trkpt>
      <trkpt lat="42.6992680" lon="-7.0919770">
        <ele>1221.3</ele>
        <time>2014-10-02T15:12:46Z</time>
      </trkpt>
      <trkpt lat="42.6992430" lon="-7.0919530">
        <ele>1221.5</ele>
        <time>2014-10-02T15:12:47Z</time>
      </trkpt>
      <trkpt lat="42.6992140" lon="-7.0919240">
        <ele>1221.7</ele>
        <time>2014-10-02T15:12:48Z</time>
      </trkpt>
      <trkpt lat="42.6991860" lon="-7.0918950">
        <ele>1222.0</ele>
        <time>2014-10-02T15:12:49Z</time>
      </trkpt>
      <trkpt lat="42.6991600" lon="-7.0918640">
        <ele>1222.2</ele>
        <time>2014-10-02T15:12:50Z</time>
      </trkpt>
      <trkpt lat="42.6991320" lon="-7.0918290">
        <ele>1222.5</ele>
        <time>2014-10-02T15:12:51Z</time>
      </trkpt>
      <trkpt lat="42.6991010" lon="-7.0917920">
        <ele>1222.7</ele>
        <time>2014-10-02T15:12:52Z</time>
      </trkpt>
      <trkpt lat="42.6990710" lon="-7.0917580">
        <ele>1223.0</ele>
        <time>2014-10-02T15:12:53Z</time>
      </trkpt>
      <trkpt lat="42.6990420" lon="-7.0917220">
        <ele>1223.3</ele>
        <time>2014-10-02T15:12:54Z</time>
      </trkpt>
      <trkpt lat="42.6990130" lon="-7.0916880">
        <ele>1223.6</ele>
        <time>2014-10-02T15:12:55Z</time>
      </trkpt>
      <trkpt lat="42.6989840" lon="-7.0916530">
        <ele>1223.9</ele>
        <time>2014-10-02T15:12:56Z</time>
      </trkpt>
      <trkpt lat="42.6989560" lon="-7.0916210">
        <ele>1224.1</ele>
        <time>2014-10-02T15:12:57Z</time>
      </trkpt>
      <trkpt lat="42.6989270" lon="-7.0915880">
        <ele>1224.4</ele>
        <time>2014-10-02T15:12:58Z</time>
      </trkpt>
      <trkpt lat="42.6988970" lon="-7.0915580">
        <ele>1224.7</ele>
        <time>2014-10-02T15:12:59Z</time>
      </trkpt>
      <trkpt lat="42.6988690" lon="-7.0915300">
        <ele>1224.9</ele>
        <time>2014-10-02T15:13:00Z</time>
      </trkpt>
      <trkpt lat="42.6988400" lon="-7.0915040">
        <ele>1225.2</ele>
        <time>2014-10-02T15:13:01Z</time>
      </trkpt>
      <trkpt lat="42.6988130" lon="-7.0914750">
        <ele>1225.4</ele>
        <time>2014-10-02T15:13:02Z</time>
      </trkpt>
      <trkpt lat="42.6987830" lon="-7.0914420">
        <ele>1225.7</ele>
        <time>2014-10-02T15:13:03Z</time>
      </trkpt>
      <trkpt lat="42.6987540" lon="-7.0914100">
        <ele>1225.9</ele>
        <time>2014-10-02T15:13:04Z</time>
      </trkpt>
      <trkpt lat="42.6987260" lon="-7.0913770">
        <ele>1226.2</ele>
        <time>2014-10-02T15:13:05Z</time>
      </trkpt>
      <trkpt lat="42.6986940" lon="-7.0913380">
        <ele>1226.5</ele>
        <time>2014-10-02T15:13:06Z</time>
      </trkpt>
      <trkpt lat="42.6986600" lon="-7.0912990">
        <ele>1226.8</ele>
        <time>2014-10-02T15:13:07Z</time>
      </trkpt>
      <trkpt lat="42.6986350" lon="-7.0912700">
        <ele>1227.0</ele>
        <time>2014-10-02T15:13:08Z</time>
      </trkpt>
      <trkpt lat="42.6986080" lon="-7.0912380">
        <ele>1227.3</ele>
        <time>2014-10-02T15:13:09Z</time>
      </trkpt>
      <trkpt lat="42.6985810" lon="-7.0912040">
        <ele>1227.6</ele>
        <time>2014-10-02T15:13:10Z</time>
      </trkpt>
      <trkpt lat="42.6985520" lon="-7.0911680">
        <ele>1227.9</ele>
        <time>2014-10-02T15:13:11Z</time>
      </trkpt>
      <trkpt lat="42.6985270" lon="-7.0911390">
        <ele>1228.1</ele>
        <time>2014-10-02T15:13:12Z</time>
      </trkpt>
      <trkpt lat="42.6985030" lon="-7.0911120">
        <ele>1228.4</ele>
        <time>2014-10-02T15:13:13Z</time>
      </trkpt>
      <trkpt lat="42.6984750" lon="-7.0910800">
        <ele>1228.7</ele>
        <time>2014-10-02T15:13:14Z</time>
      </trkpt>
      <trkpt lat="42.6984480" lon="-7.0910520">
        <ele>1228.9</ele>
        <time>2014-10-02T15:13:15Z</time>
      </trkpt>
      <trkpt lat="42.6984220" lon="-7.0910290">
        <ele>1229.2</ele>
        <time>2014-10-02T15:13:16Z</time>
      </trkpt>
      <trkpt lat="42.6983960" lon="-7.0910000">
        <ele>1229.4</ele>
        <time>2014-10-02T15:13:17Z</time>
      </trkpt>
      <trkpt lat="42.6983650" lon="-7.0909700">
        <ele>1229.7</ele>
        <time>2014-10-02T15:13:18Z</time>
      </trkpt>
      <trkpt lat="42.6983390" lon="-7.0909400">
        <ele>1230.0</ele>
        <time>2014-10-02T15:13:19Z</time>
      </trkpt>
      <trkpt lat="42.6983120" lon="-7.0909110">
        <ele>1230.3</ele>
        <time>2014-10-02T15:13:20Z</time>
      </trkpt>
      <trkpt lat="42.6982890" lon="-7.0908830">
        <ele>1230.5</ele>
        <time>2014-10-02T15:13:21Z</time>
      </trkpt>
      <trkpt lat="42.6982470" lon="-7.0908280">
        <ele>1231.0</ele>
        <time>2014-10-02T15:13:23Z</time>
      </trkpt>
      <trkpt lat="42.6982240" lon="-7.0907970">
        <ele>1231.3</ele>
        <time>2014-10-02T15:13:24Z</time>
      </trkpt>
      <trkpt lat="42.6982020" lon="-7.0907660">
        <ele>1231.5</ele>
        <time>2014-10-02T15:13:25Z</time>
      </trkpt>
      <trkpt lat="42.6981800" lon="-7.0907320">
        <ele>1231.8</ele>
        <time>2014-10-02T15:13:26Z</time>
      </trkpt>
      <trkpt lat="42.6981580" lon="-7.0906950">
        <ele>1232.1</ele>
        <time>2014-10-02T15:13:27Z</time>
      </trkpt>
      <trkpt lat="42.6981400" lon="-7.0906630">
        <ele>1232.4</ele>
        <time>2014-10-02T15:13:28Z</time>
      </trkpt>
      <trkpt lat="42.6981180" lon="-7.0906290">
        <ele>1232.7</ele>
        <time>2014-10-02T15:13:29Z</time>
      </trkpt>
      <trkpt lat="42.6980870" lon="-7.0905760">
        <ele>1233.1</ele>
        <time>2014-10-02T15:13:31Z</time>
      </trkpt>
      <trkpt lat="42.6980680" lon="-7.0905420">
        <ele>1233.3</ele>
        <time>2014-10-02T15:13:32Z</time>
      </trkpt>
      <trkpt lat="42.6980480" lon="-7.0905050">
        <ele>1233.6</ele>
        <time>2014-10-02T15:13:33Z</time>
      </trkpt>
      <trkpt lat="42.6980290" lon="-7.0904660">
        <ele>1233.9</ele>
        <time>2014-10-02T15:13:34Z</time>
      </trkpt>
      <trkpt lat="42.6980090" lon="-7.0904200">
        <ele>1234.3</ele>
        <time>2014-10-02T15:13:35Z</time>
      </trkpt>
      <trkpt lat="42.6979890" lon="-7.0903720">
        <ele>1234.6</ele>
        <time>2014-10-02T15:13:36Z</time>
      </trkpt>
      <trkpt lat="42.6979720" lon="-7.0903250">
        <ele>1234.9</ele>
        <time>2014-10-02T15:13:37Z</time>
      </trkpt>
      <trkpt lat="42.6979580" lon="-7.0902780">
        <ele>1235.3</ele>
        <time>2014-10-02T15:13:38Z</time>
      </trkpt>
      <trkpt lat="42.6979450" lon="-7.0902330">
        <ele>1235.6</ele>
        <time>2014-10-02T15:13:39Z</time>
      </trkpt>
      <trkpt lat="42.6979350" lon="-7.0901920">
        <ele>1235.9</ele>
        <time>2014-10-02T15:13:40Z</time>
      </trkpt>
      <trkpt lat="42.6979250" lon="-7.0901520">
        <ele>1236.2</ele>
        <time>2014-10-02T15:13:41Z</time>
      </trkpt>
      <trkpt lat="42.6979200" lon="-7.0901020">
        <ele>1236.5</ele>
        <time>2014-10-02T15:13:42Z</time>
      </trkpt>
      <trkpt lat="42.6979130" lon="-7.0900480">
        <ele>1236.9</ele>
        <time>2014-10-02T15:13:43Z</time>
      </trkpt>
      <trkpt lat="42.6979070" lon="-7.0899980">
        <ele>1237.2</ele>
        <time>2014-10-02T15:13:44Z</time>
      </trkpt>
      <trkpt lat="42.6979030" lon="-7.0899400">
        <ele>1237.5</ele>
        <time>2014-10-02T15:13:45Z</time>
      </trkpt>
      <trkpt lat="42.6978990" lon="-7.0898900">
        <ele>1237.9</ele>
        <time>2014-10-02T15:13:46Z</time>
      </trkpt>
      <trkpt lat="42.6978990" lon="-7.0898360">
        <ele>1238.2</ele>
        <time>2014-10-02T15:13:47Z</time>
      </trkpt>
      <trkpt lat="42.6979000" lon="-7.0897870">
        <ele>1238.5</ele>
        <time>2014-10-02T15:13:48Z</time>
      </trkpt>
      <trkpt lat="42.6979030" lon="-7.0897470">
        <ele>1238.7</ele>
        <time>2014-10-02T15:13:49Z</time>
      </trkpt>
      <trkpt lat="42.6979090" lon="-7.0897030">
        <ele>1239.0</ele>
        <time>2014-10-02T15:13:50Z</time>
      </trkpt>
      <trkpt lat="42.6979220" lon="-7.0896250">
        <ele>1239.6</ele>
        <time>2014-10-02T15:13:52Z</time>
      </trkpt>
      <trkpt lat="42.6979300" lon="-7.0895820">
        <ele>1239.9</ele>
        <time>2014-10-02T15:13:53Z</time>
      </trkpt>
      <trkpt lat="42.6979380" lon="-7.0895320">
        <ele>1240.2</ele>
        <time>2014-10-02T15:13:54Z</time>
      </trkpt>
      <trkpt lat="42.6979480" lon="-7.0894840">
        <ele>1240.5</ele>
        <time>2014-10-02T15:13:55Z</time>
      </trkpt>
      <trkpt lat="42.6979670" lon="-7.0894100">
        <ele>1241.1</ele>
        <time>2014-10-02T15:13:57Z</time>
      </trkpt>
      <trkpt lat="42.6979820" lon="-7.0893630">
        <ele>1241.5</ele>
        <time>2014-10-02T15:13:58Z</time>
      </trkpt>
      <trkpt lat="42.6979970" lon="-7.0893210">
        <ele>1241.8</ele>
        <time>2014-10-02T15:13:59Z</time>
      </trkpt>
      <trkpt lat="42.6980160" lon="-7.0892750">
        <ele>1242.2</ele>
        <time>2014-10-02T15:14:00Z</time>
      </trkpt>
      <trkpt lat="42.6980370" lon="-7.0892350">
        <ele>1242.5</ele>
        <time>2014-10-02T15:14:01Z</time>
      </trkpt>
      <trkpt lat="42.6980640" lon="-7.0891900">
        <ele>1242.9</ele>
        <time>2014-10-02T15:14:02Z</time>
      </trkpt>
      <trkpt lat="42.6980890" lon="-7.0891500">
        <ele>1243.2</ele>
        <time>2014-10-02T15:14:03Z</time>
      </trkpt>
      <trkpt lat="42.6981190" lon="-7.0891110">
        <ele>1243.6</ele>
        <time>2014-10-02T15:14:04Z</time>
      </trkpt>
      <trkpt lat="42.6981510" lon="-7.0890740">
        <ele>1244.0</ele>
        <time>2014-10-02T15:14:05Z</time>
      </trkpt>
      <trkpt lat="42.6981870" lon="-7.0890360">
        <ele>1244.4</ele>
        <time>2014-10-02T15:14:06Z</time>
      </trkpt>
      <trkpt lat="42.6982180" lon="-7.0890040">
        <ele>1244.7</ele>
        <time>2014-10-02T15:14:07Z</time>
      </trkpt>
      <trkpt lat="42.6982540" lon="-7.0889680">
        <ele>1245.1</ele>
        <time>2014-10-02T15:14:08Z</time>
      </trkpt>
      <trkpt lat="42.6982940" lon="-7.0889310">
        <ele>1245.5</ele>
        <time>2014-10-02T15:14:09Z</time>
      </trkpt>
      <trkpt lat="42.6983230" lon="-7.0889040">
        <ele>1245.8</ele>
        <time>2014-10-02T15:14:10Z</time>
      </trkpt>
      <trkpt lat="42.6983540" lon="-7.0888770">
        <ele>1246.1</ele>
        <time>2014-10-02T15:14:11Z</time>
      </trkpt>
      <trkpt lat="42.6983800" lon="-7.0888570">
        <ele>1246.4</ele>
        <time>2014-10-02T15:14:12Z</time>
      </trkpt>
      <trkpt lat="42.6984080" lon="-7.0888390">
        <ele>1246.7</ele>
        <time>2014-10-02T15:14:13Z</time>
      </trkpt>
      <trkpt lat="42.6984390" lon="-7.0888190">
        <ele>1246.9</ele>
        <time>2014-10-02T15:14:14Z</time>
      </trkpt>
      <trkpt lat="42.6984650" lon="-7.0888040">
        <ele>1247.2</ele>
        <time>2014-10-02T15:14:15Z</time>
      </trkpt>
      <trkpt lat="42.6984970" lon="-7.0887850">
        <ele>1247.5</ele>
        <time>2014-10-02T15:14:16Z</time>
      </trkpt>
      <trkpt lat="42.6985270" lon="-7.0887660">
        <ele>1247.7</ele>
        <time>2014-10-02T15:14:17Z</time>
      </trkpt>
      <trkpt lat="42.6985560" lon="-7.0887490">
        <ele>1248.0</ele>
        <time>2014-10-02T15:14:18Z</time>
      </trkpt>
      <trkpt lat="42.6985850" lon="-7.0887350">
        <ele>1248.2</ele>
        <time>2014-10-02T15:14:19Z</time>
      </trkpt>
      <trkpt lat="42.6986160" lon="-7.0887200">
        <ele>1248.3</ele>
        <time>2014-10-02T15:14:20Z</time>
      </trkpt>
      <trkpt lat="42.6986460" lon="-7.0887050">
        <ele>1248.5</ele>
        <time>2014-10-02T15:14:21Z</time>
      </trkpt>
      <trkpt lat="42.6986810" lon="-7.0886890">
        <ele>1248.6</ele>
        <time>2014-10-02T15:14:22Z</time>
      </trkpt>
      <trkpt lat="42.6987160" lon="-7.0886710">
        <ele>1248.8</ele>
        <time>2014-10-02T15:14:23Z</time>
      </trkpt>
      <trkpt lat="42.6987490" lon="-7.0886530">
        <ele>1249.0</ele>
        <time>2014-10-02T15:14:24Z</time>
      </trkpt>
      <trkpt lat="42.6987840" lon="-7.0886320">
        <ele>1249.2</ele>
        <time>2014-10-02T15:14:25Z</time>
      </trkpt>
      <trkpt lat="42.6988210" lon="-7.0886110">
        <ele>1249.5</ele>
        <time>2014-10-02T15:14:26Z</time>
      </trkpt>
      <trkpt lat="42.6988570" lon="-7.0885900">
        <ele>1249.9</ele>
        <time>2014-10-02T15:14:27Z</time>
      </trkpt>
      <trkpt lat="42.6988960" lon="-7.0885640">
        <ele>1250.2</ele>
        <time>2014-10-02T15:14:28Z</time>
      </trkpt>
      <trkpt lat="42.6989190" lon="-7.0885430">
        <ele>1250.5</ele>
        <time>2014-10-02T15:14:29Z</time>
      </trkpt>
      <trkpt lat="42.6989370" lon="-7.0885130">
        <ele>1250.7</ele>
        <time>2014-10-02T15:14:30Z</time>
      </trkpt>
      <trkpt lat="42.6989670" lon="-7.0884580">
        <ele>1251.1</ele>
        <time>2014-10-02T15:14:32Z</time>
      </trkpt>
      <trkpt lat="42.6989870" lon="-7.0884220">
        <ele>1251.3</ele>
        <time>2014-10-02T15:14:33Z</time>
      </trkpt>
      <trkpt lat="42.6990110" lon="-7.0883620">
        <ele>1251.7</ele>
        <time>2014-10-02T15:14:35Z</time>
      </trkpt>
      <trkpt lat="42.6990270" lon="-7.0882950">
        <ele>1252.1</ele>
        <time>2014-10-02T15:14:37Z</time>
      </trkpt>
      <trkpt lat="42.6990380" lon="-7.0882390">
        <ele>1252.4</ele>
        <time>2014-10-02T15:14:38Z</time>
      </trkpt>
      <trkpt lat="42.6990420" lon="-7.0881910">
        <ele>1252.6</ele>
        <time>2014-10-02T15:14:39Z</time>
      </trkpt>
      <trkpt lat="42.6990490" lon="-7.0881380">
        <ele>1252.9</ele>
        <time>2014-10-02T15:14:40Z</time>
      </trkpt>
      <trkpt lat="42.6990610" lon="-7.0880720">
        <ele>1253.2</ele>
        <time>2014-10-02T15:14:41Z</time>
      </trkpt>
      <trkpt lat="42.6990660" lon="-7.0880180">
        <ele>1253.5</ele>
        <time>2014-10-02T15:14:42Z</time>
      </trkpt>
      <trkpt lat="42.6990660" lon="-7.0879680">
        <ele>1253.7</ele>
        <time>2014-10-02T15:14:43Z</time>
      </trkpt>
      <trkpt lat="42.6990740" lon="-7.0879030">
        <ele>1254.0</ele>
        <time>2014-10-02T15:14:44Z</time>
      </trkpt>
      <trkpt lat="42.6990740" lon="-7.0878500">
        <ele>1254.2</ele>
        <time>2014-10-02T15:14:45Z</time>
      </trkpt>
      <trkpt lat="42.6990730" lon="-7.0877920">
        <ele>1254.4</ele>
        <time>2014-10-02T15:14:46Z</time>
      </trkpt>
      <trkpt lat="42.6990690" lon="-7.0877410">
        <ele>1254.6</ele>
        <time>2014-10-02T15:14:47Z</time>
      </trkpt>
      <trkpt lat="42.6990640" lon="-7.0876930">
        <ele>1254.7</ele>
        <time>2014-10-02T15:14:48Z</time>
      </trkpt>
      <trkpt lat="42.6990600" lon="-7.0876410">
        <ele>1254.9</ele>
        <time>2014-10-02T15:14:49Z</time>
      </trkpt>
      <trkpt lat="42.6990540" lon="-7.0875920">
        <ele>1255.1</ele>
        <time>2014-10-02T15:14:50Z</time>
      </trkpt>
      <trkpt lat="42.6990470" lon="-7.0875390">
        <ele>1255.3</ele>
        <time>2014-10-02T15:14:51Z</time>
      </trkpt>
      <trkpt lat="42.6990410" lon="-7.0874890">
        <ele>1255.5</ele>
        <time>2014-10-02T15:14:52Z</time>
      </trkpt>
      <trkpt lat="42.6990330" lon="-7.0874340">
        <ele>1255.7</ele>
        <time>2014-10-02T15:14:53Z</time>
      </trkpt>
      <trkpt lat="42.6990250" lon="-7.0873760">
        <ele>1255.9</ele>
        <time>2014-10-02T15:14:54Z</time>
      </trkpt>
      <trkpt lat="42.6990160" lon="-7.0873170">
        <ele>1256.1</ele>
        <time>2014-10-02T15:14:55Z</time>
      </trkpt>
      <trkpt lat="42.6990080" lon="-7.0872560">
        <ele>1256.4</ele>
        <time>2014-10-02T15:14:56Z</time>
      </trkpt>
      <trkpt lat="42.6989980" lon="-7.0872110">
        <ele>1256.5</ele>
        <time>2014-10-02T15:14:57Z</time>
      </trkpt>
      <trkpt lat="42.6989860" lon="-7.0871630">
        <ele>1256.7</ele>
        <time>2014-10-02T15:14:58Z</time>
      </trkpt>
      <trkpt lat="42.6989720" lon="-7.0871180">
        <ele>1256.9</ele>
        <time>2014-10-02T15:14:59Z</time>
      </trkpt>
      <trkpt lat="42.6989580" lon="-7.0870740">
        <ele>1257.1</ele>
        <time>2014-10-02T15:15:00Z</time>
      </trkpt>
      <trkpt lat="42.6989420" lon="-7.0870250">
        <ele>1257.3</ele>
        <time>2014-10-02T15:15:01Z</time>
      </trkpt>
      <trkpt lat="42.6989260" lon="-7.0869670">
        <ele>1257.5</ele>
        <time>2014-10-02T15:15:02Z</time>
      </trkpt>
      <trkpt lat="42.6989120" lon="-7.0869100">
        <ele>1257.7</ele>
        <time>2014-10-02T15:15:03Z</time>
      </trkpt>
      <trkpt lat="42.6988990" lon="-7.0868610">
        <ele>1257.9</ele>
        <time>2014-10-02T15:15:04Z</time>
      </trkpt>
      <trkpt lat="42.6988850" lon="-7.0868080">
        <ele>1258.1</ele>
        <time>2014-10-02T15:15:05Z</time>
      </trkpt>
      <trkpt lat="42.6988720" lon="-7.0867480">
        <ele>1258.3</ele>
        <time>2014-10-02T15:15:06Z</time>
      </trkpt>
      <trkpt lat="42.6988560" lon="-7.0866870">
        <ele>1258.6</ele>
        <time>2014-10-02T15:15:07Z</time>
      </trkpt>
      <trkpt lat="42.6988450" lon="-7.0866260">
        <ele>1258.8</ele>
        <time>2014-10-02T15:15:08Z</time>
      </trkpt>
      <trkpt lat="42.6988300" lon="-7.0865730">
        <ele>1259.1</ele>
        <time>2014-10-02T15:15:09Z</time>
      </trkpt>
      <trkpt lat="42.6988140" lon="-7.0865220">
        <ele>1259.3</ele>
        <time>2014-10-02T15:15:10Z</time>
      </trkpt>
      <trkpt lat="42.6987990" lon="-7.0864720">
        <ele>1259.5</ele>
        <time>2014-10-02T15:15:11Z</time>
      </trkpt>
      <trkpt lat="42.6987800" lon="-7.0864140">
        <ele>1259.8</ele>
        <time>2014-10-02T15:15:12Z</time>
      </trkpt>
      <trkpt lat="42.6987610" lon="-7.0863560">
        <ele>1260.1</ele>
        <time>2014-10-02T15:15:13Z</time>
      </trkpt>
      <trkpt lat="42.6987440" lon="-7.0863040">
        <ele>1260.3</ele>
        <time>2014-10-02T15:15:14Z</time>
      </trkpt>
      <trkpt lat="42.6987320" lon="-7.0862590">
        <ele>1260.5</ele>
        <time>2014-10-02T15:15:15Z</time>
      </trkpt>
      <trkpt lat="42.6987210" lon="-7.0862090">
        <ele>1260.8</ele>
        <time>2014-10-02T15:15:16Z</time>
      </trkpt>
      <trkpt lat="42.6987140" lon="-7.0861650">
        <ele>1261.0</ele>
        <time>2014-10-02T15:15:17Z</time>
      </trkpt>
      <trkpt lat="42.6987060" lon="-7.0861140">
        <ele>1261.2</ele>
        <time>2014-10-02T15:15:18Z</time>
      </trkpt>
      <trkpt lat="42.6987000" lon="-7.0860660">
        <ele>1261.5</ele>
        <time>2014-10-02T15:15:19Z</time>
      </trkpt>
      <trkpt lat="42.6986940" lon="-7.0860200">
        <ele>1261.7</ele>
        <time>2014-10-02T15:15:20Z</time>
      </trkpt>
      <trkpt lat="42.6986880" lon="-7.0859700">
        <ele>1262.0</ele>
        <time>2014-10-02T15:15:21Z</time>
      </trkpt>
      <trkpt lat="42.6986820" lon="-7.0859160">
        <ele>1262.3</ele>
        <time>2014-10-02T15:15:22Z</time>
      </trkpt>
      <trkpt lat="42.6986760" lon="-7.0858600">
        <ele>1262.5</ele>
        <time>2014-10-02T15:15:23Z</time>
      </trkpt>
      <trkpt lat="42.6986700" lon="-7.0858050">
        <ele>1262.8</ele>
        <time>2014-10-02T15:15:24Z</time>
      </trkpt>
      <trkpt lat="42.6986570" lon="-7.0857500">
        <ele>1263.0</ele>
        <time>2014-10-02T15:15:25Z</time>
      </trkpt>
      <trkpt lat="42.6986510" lon="-7.0856900">
        <ele>1263.3</ele>
        <time>2014-10-02T15:15:26Z</time>
      </trkpt>
      <trkpt lat="42.6986480" lon="-7.0856220">
        <ele>1263.6</ele>
        <time>2014-10-02T15:15:27Z</time>
      </trkpt>
      <trkpt lat="42.6986480" lon="-7.0855630">
        <ele>1263.9</ele>
        <time>2014-10-02T15:15:28Z</time>
      </trkpt>
      <trkpt lat="42.6986480" lon="-7.0855150">
        <ele>1264.1</ele>
        <time>2014-10-02T15:15:29Z</time>
      </trkpt>
      <trkpt lat="42.6986450" lon="-7.0854610">
        <ele>1264.4</ele>
        <time>2014-10-02T15:15:30Z</time>
      </trkpt>
      <trkpt lat="42.6986410" lon="-7.0854070">
        <ele>1264.6</ele>
        <time>2014-10-02T15:15:31Z</time>
      </trkpt>
      <trkpt lat="42.6986390" lon="-7.0853460">
        <ele>1264.9</ele>
        <time>2014-10-02T15:15:32Z</time>
      </trkpt>
      <trkpt lat="42.6986360" lon="-7.0852900">
        <ele>1265.1</ele>
        <time>2014-10-02T15:15:33Z</time>
      </trkpt>
      <trkpt lat="42.6986330" lon="-7.0852380">
        <ele>1265.4</ele>
        <time>2014-10-02T15:15:34Z</time>
      </trkpt>
      <trkpt lat="42.6986290" lon="-7.0851910">
        <ele>1265.6</ele>
        <time>2014-10-02T15:15:35Z</time>
      </trkpt>
      <trkpt lat="42.6986270" lon="-7.0851430">
        <ele>1265.8</ele>
        <time>2014-10-02T15:15:36Z</time>
      </trkpt>
      <trkpt lat="42.6986290" lon="-7.0850870">
        <ele>1266.0</ele>
        <time>2014-10-02T15:15:37Z</time>
      </trkpt>
      <trkpt lat="42.6986350" lon="-7.0850410">
        <ele>1266.2</ele>
        <time>2014-10-02T15:15:38Z</time>
      </trkpt>
      <trkpt lat="42.6986390" lon="-7.0849990">
        <ele>1266.3</ele>
        <time>2014-10-02T15:15:39Z</time>
      </trkpt>
      <trkpt lat="42.6986430" lon="-7.0849520">
        <ele>1266.5</ele>
        <time>2014-10-02T15:15:40Z</time>
      </trkpt>
      <trkpt lat="42.6986440" lon="-7.0849140">
        <ele>1266.6</ele>
        <time>2014-10-02T15:15:41Z</time>
      </trkpt>
      <trkpt lat="42.6986420" lon="-7.0848450">
        <ele>1266.9</ele>
        <time>2014-10-02T15:15:43Z</time>
      </trkpt>
      <trkpt lat="42.6986360" lon="-7.0847830">
        <ele>1267.0</ele>
        <time>2014-10-02T15:15:45Z</time>
      </trkpt>
      <trkpt lat="42.6986360" lon="-7.0847450">
        <ele>1267.2</ele>
        <time>2014-10-02T15:15:46Z</time>
      </trkpt>
      <trkpt lat="42.6986380" lon="-7.0847060">
        <ele>1267.2</ele>
        <time>2014-10-02T15:15:47Z</time>
      </trkpt>
      <trkpt lat="42.6986410" lon="-7.0846380">
        <ele>1267.4</ele>
        <time>2014-10-02T15:15:49Z</time>
      </trkpt>
      <trkpt lat="42.6986510" lon="-7.0845390">
        <ele>1267.7</ele>
        <time>2014-10-02T15:15:52Z</time>
      </trkpt>
      <trkpt lat="42.6986600" lon="-7.0844920">
        <ele>1267.8</ele>
        <time>2014-10-02T15:15:54Z</time>
      </trkpt>
      <trkpt lat="42.6986660" lon="-7.0844470">
        <ele>1267.9</ele>
        <time>2014-10-02T15:15:56Z</time>
      </trkpt>
      <trkpt lat="42.6986590" lon="-7.0843760">
        <ele>1268.1</ele>
        <time>2014-10-02T15:15:59Z</time>
      </trkpt>
      <trkpt lat="42.6986550" lon="-7.0843270">
        <ele>1268.1</ele>
        <time>2014-10-02T15:16:00Z</time>
      </trkpt>
      <trkpt lat="42.6986550" lon="-7.0842840">
        <ele>1268.1</ele>
        <time>2014-10-02T15:16:01Z</time>
      </trkpt>
      <trkpt lat="42.6986650" lon="-7.0842490">
        <ele>1268.1</ele>
        <time>2014-10-02T15:16:03Z</time>
      </trkpt>
      <trkpt lat="42.6986750" lon="-7.0841830">
        <ele>1268.1</ele>
        <time>2014-10-02T15:16:05Z</time>
      </trkpt>
      <trkpt lat="42.6986800" lon="-7.0841360">
        <ele>1268.1</ele>
        <time>2014-10-02T15:16:06Z</time>
      </trkpt>
      <trkpt lat="42.6986830" lon="-7.0840880">
        <ele>1268.1</ele>
        <time>2014-10-02T15:16:07Z</time>
      </trkpt>
      <trkpt lat="42.6986880" lon="-7.0840310">
        <ele>1268.1</ele>
        <time>2014-10-02T15:16:08Z</time>
      </trkpt>
      <trkpt lat="42.6986910" lon="-7.0839650">
        <ele>1268.1</ele>
        <time>2014-10-02T15:16:09Z</time>
      </trkpt>
      <trkpt lat="42.6986990" lon="-7.0838810">
        <ele>1268.0</ele>
        <time>2014-10-02T15:16:10Z</time>
      </trkpt>
      <trkpt lat="42.6987050" lon="-7.0838050">
        <ele>1268.0</ele>
        <time>2014-10-02T15:16:11Z</time>
      </trkpt>
      <trkpt lat="42.6987090" lon="-7.0837430">
        <ele>1268.0</ele>
        <time>2014-10-02T15:16:12Z</time>
      </trkpt>
      <trkpt lat="42.6987140" lon="-7.0836750">
        <ele>1267.8</ele>
        <time>2014-10-02T15:16:13Z</time>
      </trkpt>
      <trkpt lat="42.6987180" lon="-7.0836010">
        <ele>1267.6</ele>
        <time>2014-10-02T15:16:14Z</time>
      </trkpt>
      <trkpt lat="42.6987210" lon="-7.0835290">
        <ele>1267.3</ele>
        <time>2014-10-02T15:16:15Z</time>
      </trkpt>
      <trkpt lat="42.6987250" lon="-7.0834450">
        <ele>1267.0</ele>
        <time>2014-10-02T15:16:16Z</time>
      </trkpt>
      <trkpt lat="42.6987290" lon="-7.0833580">
        <ele>1266.6</ele>
        <time>2014-10-02T15:16:17Z</time>
      </trkpt>
      <trkpt lat="42.6987330" lon="-7.0832670">
        <ele>1266.1</ele>
        <time>2014-10-02T15:16:18Z</time>
      </trkpt>
      <trkpt lat="42.6987360" lon="-7.0831660">
        <ele>1265.6</ele>
        <time>2014-10-02T15:16:19Z</time>
      </trkpt>
      <trkpt lat="42.6987380" lon="-7.0830620">
        <ele>1265.1</ele>
        <time>2014-10-02T15:16:20Z</time>
      </trkpt>
      <trkpt lat="42.6987390" lon="-7.0829580">
        <ele>1264.6</ele>
        <time>2014-10-02T15:16:21Z</time>
      </trkpt>
      <trkpt lat="42.6987370" lon="-7.0828480">
        <ele>1264.0</ele>
        <time>2014-10-02T15:16:22Z</time>
      </trkpt>
      <trkpt lat="42.6987320" lon="-7.0827280">
        <ele>1263.3</ele>
        <time>2014-10-02T15:16:23Z</time>
      </trkpt>
      <trkpt lat="42.6987300" lon="-7.0826120">
        <ele>1262.7</ele>
        <time>2014-10-02T15:16:24Z</time>
      </trkpt>
      <trkpt lat="42.6987300" lon="-7.0824960">
        <ele>1262.0</ele>
        <time>2014-10-02T15:16:25Z</time>
      </trkpt>
      <trkpt lat="42.6987290" lon="-7.0823840">
        <ele>1261.4</ele>
        <time>2014-10-02T15:16:26Z</time>
      </trkpt>
      <trkpt lat="42.6987270" lon="-7.0822740">
        <ele>1260.8</ele>
        <time>2014-10-02T15:16:27Z</time>
      </trkpt>
      <trkpt lat="42.6987290" lon="-7.0821550">
        <ele>1260.1</ele>
        <time>2014-10-02T15:16:28Z</time>
      </trkpt>
      <trkpt lat="42.6987320" lon="-7.0820280">
        <ele>1259.5</ele>
        <time>2014-10-02T15:16:29Z</time>
      </trkpt>
      <trkpt lat="42.6987370" lon="-7.0818940">
        <ele>1258.8</ele>
        <time>2014-10-02T15:16:30Z</time>
      </trkpt>
      <trkpt lat="42.6987390" lon="-7.0817490">
        <ele>1258.0</ele>
        <time>2014-10-02T15:16:31Z</time>
      </trkpt>
      <trkpt lat="42.6987350" lon="-7.0816030">
        <ele>1257.2</ele>
        <time>2014-10-02T15:16:32Z</time>
      </trkpt>
      <trkpt lat="42.6987250" lon="-7.0814460">
        <ele>1256.4</ele>
        <time>2014-10-02T15:16:33Z</time>
      </trkpt>
      <trkpt lat="42.6986890" lon="-7.0812990">
        <ele>1255.6</ele>
        <time>2014-10-02T15:16:34Z</time>
      </trkpt>
      <trkpt lat="42.6986480" lon="-7.0811590">
        <ele>1254.8</ele>
        <time>2014-10-02T15:16:35Z</time>
      </trkpt>
      <trkpt lat="42.6986030" lon="-7.0810070">
        <ele>1254.0</ele>
        <time>2014-10-02T15:16:36Z</time>
      </trkpt>
      <trkpt lat="42.6985500" lon="-7.0808580">
        <ele>1253.4</ele>
        <time>2014-10-02T15:16:37Z</time>
      </trkpt>
      <trkpt lat="42.6984950" lon="-7.0807140">
        <ele>1252.8</ele>
        <time>2014-10-02T15:16:38Z</time>
      </trkpt>
      <trkpt lat="42.6984440" lon="-7.0805760">
        <ele>1252.4</ele>
        <time>2014-10-02T15:16:39Z</time>
      </trkpt>
      <trkpt lat="42.6983950" lon="-7.0804360">
        <ele>1251.9</ele>
        <time>2014-10-02T15:16:40Z</time>
      </trkpt>
      <trkpt lat="42.6983710" lon="-7.0802900">
        <ele>1251.3</ele>
        <time>2014-10-02T15:16:41Z</time>
      </trkpt>
      <trkpt lat="42.6983540" lon="-7.0801460">
        <ele>1250.6</ele>
        <time>2014-10-02T15:16:42Z</time>
      </trkpt>
      <trkpt lat="42.6983650" lon="-7.0799960">
        <ele>1249.7</ele>
        <time>2014-10-02T15:16:43Z</time>
      </trkpt>
      <trkpt lat="42.6983870" lon="-7.0798460">
        <ele>1248.8</ele>
        <time>2014-10-02T15:16:44Z</time>
      </trkpt>
      <trkpt lat="42.6984390" lon="-7.0796970">
        <ele>1247.7</ele>
        <time>2014-10-02T15:16:45Z</time>
      </trkpt>
      <trkpt lat="42.6984980" lon="-7.0795440">
        <ele>1246.6</ele>
        <time>2014-10-02T15:16:46Z</time>
      </trkpt>
      <trkpt lat="42.6985620" lon="-7.0793960">
        <ele>1245.5</ele>
        <time>2014-10-02T15:16:47Z</time>
      </trkpt>
      <trkpt lat="42.6986280" lon="-7.0792370">
        <ele>1244.3</ele>
        <time>2014-10-02T15:16:48Z</time>
      </trkpt>
      <trkpt lat="42.6986660" lon="-7.0790630">
        <ele>1243.2</ele>
        <time>2014-10-02T15:16:49Z</time>
      </trkpt>
      <trkpt lat="42.6986990" lon="-7.0788880">
        <ele>1242.1</ele>
        <time>2014-10-02T15:16:50Z</time>
      </trkpt>
      <trkpt lat="42.6987030" lon="-7.0787170">
        <ele>1241.1</ele>
        <time>2014-10-02T15:16:51Z</time>
      </trkpt>
      <trkpt lat="42.6987010" lon="-7.0785330">
        <ele>1240.0</ele>
        <time>2014-10-02T15:16:52Z</time>
      </trkpt>
      <trkpt lat="42.6986620" lon="-7.0783520">
        <ele>1238.8</ele>
        <time>2014-10-02T15:16:53Z</time>
      </trkpt>
      <trkpt lat="42.6986180" lon="-7.0781650">
        <ele>1237.6</ele>
        <time>2014-10-02T15:16:54Z</time>
      </trkpt>
      <trkpt lat="42.6985680" lon="-7.0779850">
        <ele>1236.5</ele>
        <time>2014-10-02T15:16:55Z</time>
      </trkpt>
      <trkpt lat="42.6985100" lon="-7.0778210">
        <ele>1235.5</ele>
        <time>2014-10-02T15:16:56Z</time>
      </trkpt>
      <trkpt lat="42.6984500" lon="-7.0776860">
        <ele>1234.6</ele>
        <time>2014-10-02T15:16:57Z</time>
      </trkpt>
      <trkpt lat="42.6983850" lon="-7.0775490">
        <ele>1233.7</ele>
        <time>2014-10-02T15:16:58Z</time>
      </trkpt>
      <trkpt lat="42.6983270" lon="-7.0774100">
        <ele>1232.8</ele>
        <time>2014-10-02T15:16:59Z</time>
      </trkpt>
      <trkpt lat="42.6982780" lon="-7.0772720">
        <ele>1232.1</ele>
        <time>2014-10-02T15:17:00Z</time>
      </trkpt>
      <trkpt lat="42.6982410" lon="-7.0771390">
        <ele>1231.4</ele>
        <time>2014-10-02T15:17:01Z</time>
      </trkpt>
      <trkpt lat="42.6982070" lon="-7.0770020">
        <ele>1230.7</ele>
        <time>2014-10-02T15:17:02Z</time>
      </trkpt>
      <trkpt lat="42.6981740" lon="-7.0768790">
        <ele>1230.0</ele>
        <time>2014-10-02T15:17:03Z</time>
      </trkpt>
      <trkpt lat="42.6981420" lon="-7.0767710">
        <ele>1229.3</ele>
        <time>2014-10-02T15:17:04Z</time>
      </trkpt>
      <trkpt lat="42.6981170" lon="-7.0766740">
        <ele>1228.7</ele>
        <time>2014-10-02T15:17:05Z</time>
      </trkpt>
      <trkpt lat="42.6980900" lon="-7.0765730">
        <ele>1228.0</ele>
        <time>2014-10-02T15:17:06Z</time>
      </trkpt>
      <trkpt lat="42.6980590" lon="-7.0764700">
        <ele>1227.3</ele>
        <time>2014-10-02T15:17:07Z</time>
      </trkpt>
      <trkpt lat="42.6980300" lon="-7.0763770">
        <ele>1226.7</ele>
        <time>2014-10-02T15:17:08Z</time>
      </trkpt>
      <trkpt lat="42.6980050" lon="-7.0762860">
        <ele>1226.2</ele>
        <time>2014-10-02T15:17:09Z</time>
      </trkpt>
      <trkpt lat="42.6979890" lon="-7.0762070">
        <ele>1225.9</ele>
        <time>2014-10-02T15:17:10Z</time>
      </trkpt>
      <trkpt lat="42.6979770" lon="-7.0761430">
        <ele>1225.6</ele>
        <time>2014-10-02T15:17:11Z</time>
      </trkpt>
      <trkpt lat="42.6979710" lon="-7.0761000">
        <ele>1225.4</ele>
        <time>2014-10-02T15:17:12Z</time>
      </trkpt>
      <trkpt lat="42.6979780" lon="-7.0760390">
        <ele>1225.2</ele>
        <time>2014-10-02T15:17:13Z</time>
      </trkpt>
      <trkpt lat="42.6979890" lon="-7.0759870">
        <ele>1225.1</ele>
        <time>2014-10-02T15:17:14Z</time>
      </trkpt>
      <trkpt lat="42.6980190" lon="-7.0759130">
        <ele>1224.9</ele>
        <time>2014-10-02T15:17:15Z</time>
      </trkpt>
      <trkpt lat="42.6980420" lon="-7.0758510">
        <ele>1224.7</ele>
        <time>2014-10-02T15:17:16Z</time>
      </trkpt>
      <trkpt lat="42.6980670" lon="-7.0757760">
        <ele>1224.7</ele>
        <time>2014-10-02T15:17:17Z</time>
      </trkpt>
      <trkpt lat="42.6980910" lon="-7.0757050">
        <ele>1224.6</ele>
        <time>2014-10-02T15:17:18Z</time>
      </trkpt>
      <trkpt lat="42.6981270" lon="-7.0756290">
        <ele>1224.6</ele>
        <time>2014-10-02T15:17:19Z</time>
      </trkpt>
      <trkpt lat="42.6981540" lon="-7.0755650">
        <ele>1224.6</ele>
        <time>2014-10-02T15:17:20Z</time>
      </trkpt>
      <trkpt lat="42.6981850" lon="-7.0754970">
        <ele>1224.6</ele>
        <time>2014-10-02T15:17:21Z</time>
      </trkpt>
      <trkpt lat="42.6982140" lon="-7.0754380">
        <ele>1224.6</ele>
        <time>2014-10-02T15:17:22Z</time>
      </trkpt>
      <trkpt lat="42.6982420" lon="-7.0753780">
        <ele>1224.6</ele>
        <time>2014-10-02T15:17:23Z</time>
      </trkpt>
      <trkpt lat="42.6982720" lon="-7.0753230">
        <ele>1224.5</ele>
        <time>2014-10-02T15:17:24Z</time>
      </trkpt>
      <trkpt lat="42.6982980" lon="-7.0752840">
        <ele>1224.5</ele>
        <time>2014-10-02T15:17:25Z</time>
      </trkpt>
      <trkpt lat="42.6983330" lon="-7.0752300">
        <ele>1224.5</ele>
        <time>2014-10-02T15:17:26Z</time>
      </trkpt>
      <trkpt lat="42.6983700" lon="-7.0751660">
        <ele>1224.4</ele>
        <time>2014-10-02T15:17:27Z</time>
      </trkpt>
      <trkpt lat="42.6984100" lon="-7.0751030">
        <ele>1224.3</ele>
        <time>2014-10-02T15:17:28Z</time>
      </trkpt>
      <trkpt lat="42.6984480" lon="-7.0750460">
        <ele>1224.3</ele>
        <time>2014-10-02T15:17:29Z</time>
      </trkpt>
      <trkpt lat="42.6984890" lon="-7.0749850">
        <ele>1224.2</ele>
        <time>2014-10-02T15:17:30Z</time>
      </trkpt>
      <trkpt lat="42.6985280" lon="-7.0749320">
        <ele>1224.2</ele>
        <time>2014-10-02T15:17:31Z</time>
      </trkpt>
      <trkpt lat="42.6985670" lon="-7.0748810">
        <ele>1224.2</ele>
        <time>2014-10-02T15:17:32Z</time>
      </trkpt>
      <trkpt lat="42.6986120" lon="-7.0748240">
        <ele>1224.1</ele>
        <time>2014-10-02T15:17:33Z</time>
      </trkpt>
      <trkpt lat="42.6986540" lon="-7.0747690">
        <ele>1224.1</ele>
        <time>2014-10-02T15:17:34Z</time>
      </trkpt>
      <trkpt lat="42.6986970" lon="-7.0747120">
        <ele>1224.0</ele>
        <time>2014-10-02T15:17:35Z</time>
      </trkpt>
      <trkpt lat="42.6987410" lon="-7.0746530">
        <ele>1223.9</ele>
        <time>2014-10-02T15:17:36Z</time>
      </trkpt>
      <trkpt lat="42.6987820" lon="-7.0745920">
        <ele>1223.8</ele>
        <time>2014-10-02T15:17:37Z</time>
      </trkpt>
      <trkpt lat="42.6988230" lon="-7.0745310">
        <ele>1223.6</ele>
        <time>2014-10-02T15:17:38Z</time>
      </trkpt>
      <trkpt lat="42.6988650" lon="-7.0744660">
        <ele>1223.5</ele>
        <time>2014-10-02T15:17:39Z</time>
      </trkpt>
      <trkpt lat="42.6989080" lon="-7.0743930">
        <ele>1223.3</ele>
        <time>2014-10-02T15:17:40Z</time>
      </trkpt>
      <trkpt lat="42.6989500" lon="-7.0743210">
        <ele>1223.1</ele>
        <time>2014-10-02T15:17:41Z</time>
      </trkpt>
      <trkpt lat="42.6989930" lon="-7.0742420">
        <ele>1222.9</ele>
        <time>2014-10-02T15:17:42Z</time>
      </trkpt>
      <trkpt lat="42.6990380" lon="-7.0741600">
        <ele>1222.7</ele>
        <time>2014-10-02T15:17:43Z</time>
      </trkpt>
      <trkpt lat="42.6990870" lon="-7.0740760">
        <ele>1222.5</ele>
        <time>2014-10-02T15:17:44Z</time>
      </trkpt>
      <trkpt lat="42.6991390" lon="-7.0739870">
        <ele>1222.4</ele>
        <time>2014-10-02T15:17:45Z</time>
      </trkpt>
      <trkpt lat="42.6991930" lon="-7.0739010">
        <ele>1222.3</ele>
        <time>2014-10-02T15:17:46Z</time>
      </trkpt>
      <trkpt lat="42.6992500" lon="-7.0738090">
        <ele>1222.2</ele>
        <time>2014-10-02T15:17:47Z</time>
      </trkpt>
      <trkpt lat="42.6993040" lon="-7.0737200">
        <ele>1222.1</ele>
        <time>2014-10-02T15:17:48Z</time>
      </trkpt>
      <trkpt lat="42.6993550" lon="-7.0736350">
        <ele>1222.0</ele>
        <time>2014-10-02T15:17:49Z</time>
      </trkpt>
      <trkpt lat="42.6994060" lon="-7.0735530">
        <ele>1221.9</ele>
        <time>2014-10-02T15:17:50Z</time>
      </trkpt>
      <trkpt lat="42.6994590" lon="-7.0734760">
        <ele>1221.8</ele>
        <time>2014-10-02T15:17:51Z</time>
      </trkpt>
      <trkpt lat="42.6995120" lon="-7.0734000">
        <ele>1221.7</ele>
        <time>2014-10-02T15:17:52Z</time>
      </trkpt>
      <trkpt lat="42.6995660" lon="-7.0733290">
        <ele>1221.7</ele>
        <time>2014-10-02T15:17:53Z</time>
      </trkpt>
      <trkpt lat="42.6996190" lon="-7.0732580">
        <ele>1221.7</ele>
        <time>2014-10-02T15:17:54Z</time>
      </trkpt>
      <trkpt lat="42.6996760" lon="-7.0731870">
        <ele>1221.7</ele>
        <time>2014-10-02T15:17:55Z</time>
      </trkpt>
      <trkpt lat="42.6997350" lon="-7.0731190">
        <ele>1221.7</ele>
        <time>2014-10-02T15:17:56Z</time>
      </trkpt>
      <trkpt lat="42.6997930" lon="-7.0730590">
        <ele>1221.8</ele>
        <time>2014-10-02T15:17:57Z</time>
      </trkpt>
      <trkpt lat="42.6998560" lon="-7.0730000">
        <ele>1221.9</ele>
        <time>2014-10-02T15:17:58Z</time>
      </trkpt>
      <trkpt lat="42.6999210" lon="-7.0729400">
        <ele>1222.0</ele>
        <time>2014-10-02T15:17:59Z</time>
      </trkpt>
      <trkpt lat="42.6999860" lon="-7.0728840">
        <ele>1222.1</ele>
        <time>2014-10-02T15:18:00Z</time>
      </trkpt>
      <trkpt lat="42.7000490" lon="-7.0728310">
        <ele>1222.2</ele>
        <time>2014-10-02T15:18:01Z</time>
      </trkpt>
      <trkpt lat="42.7001170" lon="-7.0727770">
        <ele>1222.3</ele>
        <time>2014-10-02T15:18:02Z</time>
      </trkpt>
      <trkpt lat="42.7001820" lon="-7.0727290">
        <ele>1222.5</ele>
        <time>2014-10-02T15:18:03Z</time>
      </trkpt>
      <trkpt lat="42.7002470" lon="-7.0726860">
        <ele>1222.7</ele>
        <time>2014-10-02T15:18:04Z</time>
      </trkpt>
      <trkpt lat="42.7003100" lon="-7.0726480">
        <ele>1222.9</ele>
        <time>2014-10-02T15:18:05Z</time>
      </trkpt>
      <trkpt lat="42.7003700" lon="-7.0726130">
        <ele>1223.2</ele>
        <time>2014-10-02T15:18:06Z</time>
      </trkpt>
      <trkpt lat="42.7004350" lon="-7.0725790">
        <ele>1223.4</ele>
        <time>2014-10-02T15:18:07Z</time>
      </trkpt>
      <trkpt lat="42.7004970" lon="-7.0725440">
        <ele>1223.6</ele>
        <time>2014-10-02T15:18:08Z</time>
      </trkpt>
      <trkpt lat="42.7005570" lon="-7.0725110">
        <ele>1223.8</ele>
        <time>2014-10-02T15:18:09Z</time>
      </trkpt>
      <trkpt lat="42.7006100" lon="-7.0724780">
        <ele>1224.0</ele>
        <time>2014-10-02T15:18:10Z</time>
      </trkpt>
      <trkpt lat="42.7006640" lon="-7.0724490">
        <ele>1224.2</ele>
        <time>2014-10-02T15:18:11Z</time>
      </trkpt>
      <trkpt lat="42.7007200" lon="-7.0724170">
        <ele>1224.4</ele>
        <time>2014-10-02T15:18:12Z</time>
      </trkpt>
      <trkpt lat="42.7007770" lon="-7.0723880">
        <ele>1224.7</ele>
        <time>2014-10-02T15:18:13Z</time>
      </trkpt>
      <trkpt lat="42.7008320" lon="-7.0723600">
        <ele>1224.9</ele>
        <time>2014-10-02T15:18:14Z</time>
      </trkpt>
      <trkpt lat="42.7008860" lon="-7.0723330">
        <ele>1225.0</ele>
        <time>2014-10-02T15:18:15Z</time>
      </trkpt>
      <trkpt lat="42.7009430" lon="-7.0723020">
        <ele>1225.2</ele>
        <time>2014-10-02T15:18:16Z</time>
      </trkpt>
      <trkpt lat="42.7009990" lon="-7.0722700">
        <ele>1225.4</ele>
        <time>2014-10-02T15:18:17Z</time>
      </trkpt>
      <trkpt lat="42.7010480" lon="-7.0722420">
        <ele>1225.5</ele>
        <time>2014-10-02T15:18:18Z</time>
      </trkpt>
      <trkpt lat="42.7010970" lon="-7.0722120">
        <ele>1225.7</ele>
        <time>2014-10-02T15:18:19Z</time>
      </trkpt>
      <trkpt lat="42.7011460" lon="-7.0721800">
        <ele>1225.9</ele>
        <time>2014-10-02T15:18:20Z</time>
      </trkpt>
      <trkpt lat="42.7011930" lon="-7.0721490">
        <ele>1226.1</ele>
        <time>2014-10-02T15:18:21Z</time>
      </trkpt>
      <trkpt lat="42.7012410" lon="-7.0721150">
        <ele>1226.2</ele>
        <time>2014-10-02T15:18:22Z</time>
      </trkpt>
      <trkpt lat="42.7012880" lon="-7.0720830">
        <ele>1226.4</ele>
        <time>2014-10-02T15:18:23Z</time>
      </trkpt>
      <trkpt lat="42.7013320" lon="-7.0720510">
        <ele>1226.6</ele>
        <time>2014-10-02T15:18:24Z</time>
      </trkpt>
      <trkpt lat="42.7013790" lon="-7.0720160">
        <ele>1226.8</ele>
        <time>2014-10-02T15:18:25Z</time>
      </trkpt>
      <trkpt lat="42.7014290" lon="-7.0719790">
        <ele>1226.9</ele>
        <time>2014-10-02T15:18:26Z</time>
      </trkpt>
      <trkpt lat="42.7014750" lon="-7.0719450">
        <ele>1227.1</ele>
        <time>2014-10-02T15:18:27Z</time>
      </trkpt>
      <trkpt lat="42.7015280" lon="-7.0719080">
        <ele>1227.3</ele>
        <time>2014-10-02T15:18:28Z</time>
      </trkpt>
      <trkpt lat="42.7015780" lon="-7.0718770">
        <ele>1227.4</ele>
        <time>2014-10-02T15:18:29Z</time>
      </trkpt>
      <trkpt lat="42.7016290" lon="-7.0718450">
        <ele>1227.6</ele>
        <time>2014-10-02T15:18:30Z</time>
      </trkpt>
      <trkpt lat="42.7016750" lon="-7.0718130">
        <ele>1227.7</ele>
        <time>2014-10-02T15:18:31Z</time>
      </trkpt>
      <trkpt lat="42.7017160" lon="-7.0717850">
        <ele>1227.9</ele>
        <time>2014-10-02T15:18:32Z</time>
      </trkpt>
      <trkpt lat="42.7017610" lon="-7.0717560">
        <ele>1228.0</ele>
        <time>2014-10-02T15:18:33Z</time>
      </trkpt>
      <trkpt lat="42.7018040" lon="-7.0717260">
        <ele>1228.1</ele>
        <time>2014-10-02T15:18:34Z</time>
      </trkpt>
      <trkpt lat="42.7018490" lon="-7.0716970">
        <ele>1228.3</ele>
        <time>2014-10-02T15:18:35Z</time>
      </trkpt>
      <trkpt lat="42.7018880" lon="-7.0716720">
        <ele>1228.4</ele>
        <time>2014-10-02T15:18:36Z</time>
      </trkpt>
      <trkpt lat="42.7019370" lon="-7.0716400">
        <ele>1228.6</ele>
        <time>2014-10-02T15:18:37Z</time>
      </trkpt>
      <trkpt lat="42.7019810" lon="-7.0716110">
        <ele>1228.8</ele>
        <time>2014-10-02T15:18:38Z</time>
      </trkpt>
      <trkpt lat="42.7020290" lon="-7.0715770">
        <ele>1228.9</ele>
        <time>2014-10-02T15:18:39Z</time>
      </trkpt>
      <trkpt lat="42.7020830" lon="-7.0715380">
        <ele>1229.1</ele>
        <time>2014-10-02T15:18:40Z</time>
      </trkpt>
      <trkpt lat="42.7021280" lon="-7.0715020">
        <ele>1229.3</ele>
        <time>2014-10-02T15:18:41Z</time>
      </trkpt>
      <trkpt lat="42.7021740" lon="-7.0714660">
        <ele>1229.4</ele>
        <time>2014-10-02T15:18:42Z</time>
      </trkpt>
      <trkpt lat="42.7022210" lon="-7.0714320">
        <ele>1229.5</ele>
        <time>2014-10-02T15:18:43Z</time>
      </trkpt>
      <trkpt lat="42.7022690" lon="-7.0713980">
        <ele>1229.6</ele>
        <time>2014-10-02T15:18:44Z</time>
      </trkpt>
      <trkpt lat="42.7023180" lon="-7.0713630">
        <ele>1229.7</ele>
        <time>2014-10-02T15:18:45Z</time>
      </trkpt>
      <trkpt lat="42.7023650" lon="-7.0713320">
        <ele>1229.8</ele>
        <time>2014-10-02T15:18:46Z</time>
      </trkpt>
      <trkpt lat="42.7024080" lon="-7.0713040">
        <ele>1229.9</ele>
        <time>2014-10-02T15:18:47Z</time>
      </trkpt>
      <trkpt lat="42.7024550" lon="-7.0712700">
        <ele>1230.0</ele>
        <time>2014-10-02T15:18:48Z</time>
      </trkpt>
      <trkpt lat="42.7025090" lon="-7.0712330">
        <ele>1230.2</ele>
        <time>2014-10-02T15:18:49Z</time>
      </trkpt>
      <trkpt lat="42.7025620" lon="-7.0711970">
        <ele>1230.3</ele>
        <time>2014-10-02T15:18:50Z</time>
      </trkpt>
      <trkpt lat="42.7026110" lon="-7.0711630">
        <ele>1230.4</ele>
        <time>2014-10-02T15:18:51Z</time>
      </trkpt>
      <trkpt lat="42.7026580" lon="-7.0711270">
        <ele>1230.5</ele>
        <time>2014-10-02T15:18:52Z</time>
      </trkpt>
      <trkpt lat="42.7027030" lon="-7.0710900">
        <ele>1230.6</ele>
        <time>2014-10-02T15:18:53Z</time>
      </trkpt>
      <trkpt lat="42.7027430" lon="-7.0710570">
        <ele>1230.7</ele>
        <time>2014-10-02T15:18:54Z</time>
      </trkpt>
      <trkpt lat="42.7027840" lon="-7.0710260">
        <ele>1230.8</ele>
        <time>2014-10-02T15:18:55Z</time>
      </trkpt>
      <trkpt lat="42.7028280" lon="-7.0709960">
        <ele>1230.9</ele>
        <time>2014-10-02T15:18:56Z</time>
      </trkpt>
      <trkpt lat="42.7028790" lon="-7.0709630">
        <ele>1231.1</ele>
        <time>2014-10-02T15:18:57Z</time>
      </trkpt>
      <trkpt lat="42.7029200" lon="-7.0709360">
        <ele>1231.2</ele>
        <time>2014-10-02T15:18:58Z</time>
      </trkpt>
      <trkpt lat="42.7029670" lon="-7.0709050">
        <ele>1231.4</ele>
        <time>2014-10-02T15:18:59Z</time>
      </trkpt>
      <trkpt lat="42.7030180" lon="-7.0708740">
        <ele>1231.6</ele>
        <time>2014-10-02T15:19:00Z</time>
      </trkpt>
      <trkpt lat="42.7030720" lon="-7.0708410">
        <ele>1231.7</ele>
        <time>2014-10-02T15:19:01Z</time>
      </trkpt>
      <trkpt lat="42.7031230" lon="-7.0708100">
        <ele>1231.9</ele>
        <time>2014-10-02T15:19:02Z</time>
      </trkpt>
      <trkpt lat="42.7031750" lon="-7.0707790">
        <ele>1232.0</ele>
        <time>2014-10-02T15:19:03Z</time>
      </trkpt>
      <trkpt lat="42.7032270" lon="-7.0707470">
        <ele>1232.1</ele>
        <time>2014-10-02T15:19:04Z</time>
      </trkpt>
      <trkpt lat="42.7032760" lon="-7.0707160">
        <ele>1232.2</ele>
        <time>2014-10-02T15:19:05Z</time>
      </trkpt>
      <trkpt lat="42.7033230" lon="-7.0706860">
        <ele>1232.3</ele>
        <time>2014-10-02T15:19:06Z</time>
      </trkpt>
      <trkpt lat="42.7033720" lon="-7.0706550">
        <ele>1232.4</ele>
        <time>2014-10-02T15:19:07Z</time>
      </trkpt>
      <trkpt lat="42.7034190" lon="-7.0706240">
        <ele>1232.5</ele>
        <time>2014-10-02T15:19:08Z</time>
      </trkpt>
      <trkpt lat="42.7034690" lon="-7.0705900">
        <ele>1232.6</ele>
        <time>2014-10-02T15:19:09Z</time>
      </trkpt>
      <trkpt lat="42.7035200" lon="-7.0705550">
        <ele>1232.7</ele>
        <time>2014-10-02T15:19:10Z</time>
      </trkpt>
      <trkpt lat="42.7035700" lon="-7.0705180">
        <ele>1232.9</ele>
        <time>2014-10-02T15:19:11Z</time>
      </trkpt>
      <trkpt lat="42.7036220" lon="-7.0704850">
        <ele>1233.0</ele>
        <time>2014-10-02T15:19:12Z</time>
      </trkpt>
      <trkpt lat="42.7036750" lon="-7.0704500">
        <ele>1233.2</ele>
        <time>2014-10-02T15:19:13Z</time>
      </trkpt>
      <trkpt lat="42.7037250" lon="-7.0704190">
        <ele>1233.3</ele>
        <time>2014-10-02T15:19:14Z</time>
      </trkpt>
      <trkpt lat="42.7037780" lon="-7.0703860">
        <ele>1233.4</ele>
        <time>2014-10-02T15:19:15Z</time>
      </trkpt>
      <trkpt lat="42.7038280" lon="-7.0703540">
        <ele>1233.5</ele>
        <time>2014-10-02T15:19:16Z</time>
      </trkpt>
      <trkpt lat="42.7038810" lon="-7.0703180">
        <ele>1233.7</ele>
        <time>2014-10-02T15:19:17Z</time>
      </trkpt>
      <trkpt lat="42.7039320" lon="-7.0702790">
        <ele>1233.8</ele>
        <time>2014-10-02T15:19:18Z</time>
      </trkpt>
      <trkpt lat="42.7039830" lon="-7.0702370">
        <ele>1233.9</ele>
        <time>2014-10-02T15:19:19Z</time>
      </trkpt>
      <trkpt lat="42.7040400" lon="-7.0701900">
        <ele>1234.0</ele>
        <time>2014-10-02T15:19:20Z</time>
      </trkpt>
      <trkpt lat="42.7040910" lon="-7.0701460">
        <ele>1234.1</ele>
        <time>2014-10-02T15:19:21Z</time>
      </trkpt>
      <trkpt lat="42.7041390" lon="-7.0701030">
        <ele>1234.3</ele>
        <time>2014-10-02T15:19:22Z</time>
      </trkpt>
      <trkpt lat="42.7041870" lon="-7.0700590">
        <ele>1234.4</ele>
        <time>2014-10-02T15:19:23Z</time>
      </trkpt>
      <trkpt lat="42.7042290" lon="-7.0700180">
        <ele>1234.5</ele>
        <time>2014-10-02T15:19:24Z</time>
      </trkpt>
      <trkpt lat="42.7042720" lon="-7.0699740">
        <ele>1234.6</ele>
        <time>2014-10-02T15:19:25Z</time>
      </trkpt>
      <trkpt lat="42.7043200" lon="-7.0699230">
        <ele>1234.7</ele>
        <time>2014-10-02T15:19:26Z</time>
      </trkpt>
      <trkpt lat="42.7043650" lon="-7.0698750">
        <ele>1234.8</ele>
        <time>2014-10-02T15:19:27Z</time>
      </trkpt>
      <trkpt lat="42.7044110" lon="-7.0698240">
        <ele>1234.9</ele>
        <time>2014-10-02T15:19:28Z</time>
      </trkpt>
      <trkpt lat="42.7044570" lon="-7.0697720">
        <ele>1235.0</ele>
        <time>2014-10-02T15:19:29Z</time>
      </trkpt>
      <trkpt lat="42.7045000" lon="-7.0697150">
        <ele>1235.1</ele>
        <time>2014-10-02T15:19:30Z</time>
      </trkpt>
      <trkpt lat="42.7045420" lon="-7.0696500">
        <ele>1235.2</ele>
        <time>2014-10-02T15:19:31Z</time>
      </trkpt>
      <trkpt lat="42.7045840" lon="-7.0695820">
        <ele>1235.4</ele>
        <time>2014-10-02T15:19:32Z</time>
      </trkpt>
      <trkpt lat="42.7046220" lon="-7.0695140">
        <ele>1235.5</ele>
        <time>2014-10-02T15:19:33Z</time>
      </trkpt>
      <trkpt lat="42.7046590" lon="-7.0694440">
        <ele>1235.7</ele>
        <time>2014-10-02T15:19:34Z</time>
      </trkpt>
      <trkpt lat="42.7046930" lon="-7.0693760">
        <ele>1235.9</ele>
        <time>2014-10-02T15:19:35Z</time>
      </trkpt>
      <trkpt lat="42.7047200" lon="-7.0693160">
        <ele>1236.0</ele>
        <time>2014-10-02T15:19:36Z</time>
      </trkpt>
      <trkpt lat="42.7047440" lon="-7.0692590">
        <ele>1236.1</ele>
        <time>2014-10-02T15:19:37Z</time>
      </trkpt>
      <trkpt lat="42.7047720" lon="-7.0691920">
        <ele>1236.3</ele>
        <time>2014-10-02T15:19:38Z</time>
      </trkpt>
      <trkpt lat="42.7047990" lon="-7.0691190">
        <ele>1236.4</ele>
        <time>2014-10-02T15:19:39Z</time>
      </trkpt>
      <trkpt lat="42.7048210" lon="-7.0690540">
        <ele>1236.5</ele>
        <time>2014-10-02T15:19:40Z</time>
      </trkpt>
      <trkpt lat="42.7048420" lon="-7.0689770">
        <ele>1236.6</ele>
        <time>2014-10-02T15:19:41Z</time>
      </trkpt>
      <trkpt lat="42.7048620" lon="-7.0688990">
        <ele>1236.7</ele>
        <time>2014-10-02T15:19:42Z</time>
      </trkpt>
      <trkpt lat="42.7048810" lon="-7.0688210">
        <ele>1236.8</ele>
        <time>2014-10-02T15:19:43Z</time>
      </trkpt>
      <trkpt lat="42.7048960" lon="-7.0687390">
        <ele>1236.9</ele>
        <time>2014-10-02T15:19:44Z</time>
      </trkpt>
      <trkpt lat="42.7048980" lon="-7.0686520">
        <ele>1237.0</ele>
        <time>2014-10-02T15:19:45Z</time>
      </trkpt>
      <trkpt lat="42.7048980" lon="-7.0685680">
        <ele>1237.1</ele>
        <time>2014-10-02T15:19:46Z</time>
      </trkpt>
      <trkpt lat="42.7048880" lon="-7.0684980">
        <ele>1237.2</ele>
        <time>2014-10-02T15:19:47Z</time>
      </trkpt>
      <trkpt lat="42.7048880" lon="-7.0684090">
        <ele>1237.3</ele>
        <time>2014-10-02T15:19:48Z</time>
      </trkpt>
      <trkpt lat="42.7048870" lon="-7.0683280">
        <ele>1237.4</ele>
        <time>2014-10-02T15:19:49Z</time>
      </trkpt>
      <trkpt lat="42.7048850" lon="-7.0682430">
        <ele>1237.5</ele>
        <time>2014-10-02T15:19:50Z</time>
      </trkpt>
      <trkpt lat="42.7048790" lon="-7.0681600">
        <ele>1237.7</ele>
        <time>2014-10-02T15:19:51Z</time>
      </trkpt>
      <trkpt lat="42.7048740" lon="-7.0680790">
        <ele>1237.8</ele>
        <time>2014-10-02T15:19:52Z</time>
      </trkpt>
      <trkpt lat="42.7048700" lon="-7.0679980">
        <ele>1237.9</ele>
        <time>2014-10-02T15:19:53Z</time>
      </trkpt>
      <trkpt lat="42.7048670" lon="-7.0679060">
        <ele>1238.0</ele>
        <time>2014-10-02T15:19:54Z</time>
      </trkpt>
      <trkpt lat="42.7048650" lon="-7.0678210">
        <ele>1238.1</ele>
        <time>2014-10-02T15:19:55Z</time>
      </trkpt>
      <trkpt lat="42.7048620" lon="-7.0677350">
        <ele>1238.2</ele>
        <time>2014-10-02T15:19:56Z</time>
      </trkpt>
      <trkpt lat="42.7048580" lon="-7.0676520">
        <ele>1238.2</ele>
        <time>2014-10-02T15:19:57Z</time>
      </trkpt>
      <trkpt lat="42.7048500" lon="-7.0675700">
        <ele>1238.3</ele>
        <time>2014-10-02T15:19:58Z</time>
      </trkpt>
      <trkpt lat="42.7048390" lon="-7.0674850">
        <ele>1238.3</ele>
        <time>2014-10-02T15:19:59Z</time>
      </trkpt>
      <trkpt lat="42.7048290" lon="-7.0674030">
        <ele>1238.4</ele>
        <time>2014-10-02T15:20:00Z</time>
      </trkpt>
      <trkpt lat="42.7048170" lon="-7.0673280">
        <ele>1238.5</ele>
        <time>2014-10-02T15:20:01Z</time>
      </trkpt>
      <trkpt lat="42.7048020" lon="-7.0672520">
        <ele>1238.6</ele>
        <time>2014-10-02T15:20:02Z</time>
      </trkpt>
      <trkpt lat="42.7047830" lon="-7.0671760">
        <ele>1238.7</ele>
        <time>2014-10-02T15:20:03Z</time>
      </trkpt>
      <trkpt lat="42.7047590" lon="-7.0670990">
        <ele>1238.8</ele>
        <time>2014-10-02T15:20:04Z</time>
      </trkpt>
      <trkpt lat="42.7047340" lon="-7.0670260">
        <ele>1238.9</ele>
        <time>2014-10-02T15:20:05Z</time>
      </trkpt>
      <trkpt lat="42.7047050" lon="-7.0669520">
        <ele>1239.0</ele>
        <time>2014-10-02T15:20:06Z</time>
      </trkpt>
      <trkpt lat="42.7046780" lon="-7.0668790">
        <ele>1239.1</ele>
        <time>2014-10-02T15:20:07Z</time>
      </trkpt>
      <trkpt lat="42.7046510" lon="-7.0667990">
        <ele>1239.3</ele>
        <time>2014-10-02T15:20:08Z</time>
      </trkpt>
      <trkpt lat="42.7046260" lon="-7.0667240">
        <ele>1239.4</ele>
        <time>2014-10-02T15:20:09Z</time>
      </trkpt>
      <trkpt lat="42.7045970" lon="-7.0666520">
        <ele>1239.6</ele>
        <time>2014-10-02T15:20:10Z</time>
      </trkpt>
      <trkpt lat="42.7045660" lon="-7.0665890">
        <ele>1239.7</ele>
        <time>2014-10-02T15:20:11Z</time>
      </trkpt>
      <trkpt lat="42.7045340" lon="-7.0665190">
        <ele>1239.9</ele>
        <time>2014-10-02T15:20:12Z</time>
      </trkpt>
      <trkpt lat="42.7045000" lon="-7.0664400">
        <ele>1240.1</ele>
        <time>2014-10-02T15:20:13Z</time>
      </trkpt>
      <trkpt lat="42.7044700" lon="-7.0663540">
        <ele>1240.3</ele>
        <time>2014-10-02T15:20:14Z</time>
      </trkpt>
      <trkpt lat="42.7044440" lon="-7.0662770">
        <ele>1240.5</ele>
        <time>2014-10-02T15:20:15Z</time>
      </trkpt>
      <trkpt lat="42.7044220" lon="-7.0661990">
        <ele>1240.7</ele>
        <time>2014-10-02T15:20:16Z</time>
      </trkpt>
      <trkpt lat="42.7044030" lon="-7.0661240">
        <ele>1240.9</ele>
        <time>2014-10-02T15:20:17Z</time>
      </trkpt>
      <trkpt lat="42.7043880" lon="-7.0660490">
        <ele>1241.1</ele>
        <time>2014-10-02T15:20:18Z</time>
      </trkpt>
      <trkpt lat="42.7043760" lon="-7.0659750">
        <ele>1241.4</ele>
        <time>2014-10-02T15:20:19Z</time>
      </trkpt>
      <trkpt lat="42.7043690" lon="-7.0659100">
        <ele>1241.6</ele>
        <time>2014-10-02T15:20:20Z</time>
      </trkpt>
      <trkpt lat="42.7043630" lon="-7.0658420">
        <ele>1241.9</ele>
        <time>2014-10-02T15:20:21Z</time>
      </trkpt>
      <trkpt lat="42.7043610" lon="-7.0657750">
        <ele>1242.2</ele>
        <time>2014-10-02T15:20:22Z</time>
      </trkpt>
      <trkpt lat="42.7043710" lon="-7.0657130">
        <ele>1242.5</ele>
        <time>2014-10-02T15:20:23Z</time>
      </trkpt>
      <trkpt lat="42.7043800" lon="-7.0656500">
        <ele>1242.8</ele>
        <time>2014-10-02T15:20:24Z</time>
      </trkpt>
      <trkpt lat="42.7043890" lon="-7.0655880">
        <ele>1243.1</ele>
        <time>2014-10-02T15:20:25Z</time>
      </trkpt>
      <trkpt lat="42.7043990" lon="-7.0655280">
        <ele>1243.4</ele>
        <time>2014-10-02T15:20:26Z</time>
      </trkpt>
      <trkpt lat="42.7044110" lon="-7.0654650">
        <ele>1243.7</ele>
        <time>2014-10-02T15:20:27Z</time>
      </trkpt>
      <trkpt lat="42.7044250" lon="-7.0654080">
        <ele>1244.0</ele>
        <time>2014-10-02T15:20:28Z</time>
      </trkpt>
      <trkpt lat="42.7044380" lon="-7.0653510">
        <ele>1244.2</ele>
        <time>2014-10-02T15:20:29Z</time>
      </trkpt>
      <trkpt lat="42.7044370" lon="-7.0652970">
        <ele>1244.5</ele>
        <time>2014-10-02T15:20:30Z</time>
      </trkpt>
      <trkpt lat="42.7044500" lon="-7.0652350">
        <ele>1244.8</ele>
        <time>2014-10-02T15:20:31Z</time>
      </trkpt>
      <trkpt lat="42.7044610" lon="-7.0651800">
        <ele>1245.1</ele>
        <time>2014-10-02T15:20:32Z</time>
      </trkpt>
      <trkpt lat="42.7044740" lon="-7.0651210">
        <ele>1245.4</ele>
        <time>2014-10-02T15:20:33Z</time>
      </trkpt>
      <trkpt lat="42.7044860" lon="-7.0650700">
        <ele>1245.6</ele>
        <time>2014-10-02T15:20:34Z</time>
      </trkpt>
      <trkpt lat="42.7045000" lon="-7.0650170">
        <ele>1245.9</ele>
        <time>2014-10-02T15:20:35Z</time>
      </trkpt>
      <trkpt lat="42.7045110" lon="-7.0649700">
        <ele>1246.1</ele>
        <time>2014-10-02T15:20:36Z</time>
      </trkpt>
      <trkpt lat="42.7045230" lon="-7.0649150">
        <ele>1246.4</ele>
        <time>2014-10-02T15:20:37Z</time>
      </trkpt>
      <trkpt lat="42.7045390" lon="-7.0648570">
        <ele>1246.6</ele>
        <time>2014-10-02T15:20:38Z</time>
      </trkpt>
      <trkpt lat="42.7045530" lon="-7.0647990">
        <ele>1246.9</ele>
        <time>2014-10-02T15:20:39Z</time>
      </trkpt>
      <trkpt lat="42.7045670" lon="-7.0647460">
        <ele>1247.1</ele>
        <time>2014-10-02T15:20:40Z</time>
      </trkpt>
      <trkpt lat="42.7045820" lon="-7.0646890">
        <ele>1247.4</ele>
        <time>2014-10-02T15:20:41Z</time>
      </trkpt>
      <trkpt lat="42.7045970" lon="-7.0646370">
        <ele>1247.6</ele>
        <time>2014-10-02T15:20:42Z</time>
      </trkpt>
      <trkpt lat="42.7046120" lon="-7.0645760">
        <ele>1247.9</ele>
        <time>2014-10-02T15:20:43Z</time>
      </trkpt>
      <trkpt lat="42.7046260" lon="-7.0645170">
        <ele>1248.1</ele>
        <time>2014-10-02T15:20:44Z</time>
      </trkpt>
      <trkpt lat="42.7046410" lon="-7.0644660">
        <ele>1248.3</ele>
        <time>2014-10-02T15:20:45Z</time>
      </trkpt>
      <trkpt lat="42.7046600" lon="-7.0644070">
        <ele>1248.6</ele>
        <time>2014-10-02T15:20:46Z</time>
      </trkpt>
      <trkpt lat="42.7046750" lon="-7.0643560">
        <ele>1248.8</ele>
        <time>2014-10-02T15:20:47Z</time>
      </trkpt>
      <trkpt lat="42.7046900" lon="-7.0643050">
        <ele>1249.0</ele>
        <time>2014-10-02T15:20:48Z</time>
      </trkpt>
      <trkpt lat="42.7047030" lon="-7.0642520">
        <ele>1249.3</ele>
        <time>2014-10-02T15:20:49Z</time>
      </trkpt>
      <trkpt lat="42.7047160" lon="-7.0641960">
        <ele>1249.5</ele>
        <time>2014-10-02T15:20:50Z</time>
      </trkpt>
      <trkpt lat="42.7047280" lon="-7.0641450">
        <ele>1249.7</ele>
        <time>2014-10-02T15:20:51Z</time>
      </trkpt>
      <trkpt lat="42.7047410" lon="-7.0640900">
        <ele>1249.9</ele>
        <time>2014-10-02T15:20:52Z</time>
      </trkpt>
      <trkpt lat="42.7047550" lon="-7.0640270">
        <ele>1250.1</ele>
        <time>2014-10-02T15:20:53Z</time>
      </trkpt>
      <trkpt lat="42.7047700" lon="-7.0639620">
        <ele>1250.3</ele>
        <time>2014-10-02T15:20:54Z</time>
      </trkpt>
      <trkpt lat="42.7047850" lon="-7.0639000">
        <ele>1250.4</ele>
        <time>2014-10-02T15:20:55Z</time>
      </trkpt>
      <trkpt lat="42.7048000" lon="-7.0638310">
        <ele>1250.6</ele>
        <time>2014-10-02T15:20:56Z</time>
      </trkpt>
      <trkpt lat="42.7048160" lon="-7.0637670">
        <ele>1250.7</ele>
        <time>2014-10-02T15:20:57Z</time>
      </trkpt>
      <trkpt lat="42.7048300" lon="-7.0637070">
        <ele>1250.8</ele>
        <time>2014-10-02T15:20:58Z</time>
      </trkpt>
      <trkpt lat="42.7048440" lon="-7.0636480">
        <ele>1250.9</ele>
        <time>2014-10-02T15:20:59Z</time>
      </trkpt>
      <trkpt lat="42.7048620" lon="-7.0635870">
        <ele>1250.9</ele>
        <time>2014-10-02T15:21:00Z</time>
      </trkpt>
      <trkpt lat="42.7048820" lon="-7.0635180">
        <ele>1250.9</ele>
        <time>2014-10-02T15:21:01Z</time>
      </trkpt>
      <trkpt lat="42.7049010" lon="-7.0634480">
        <ele>1251.0</ele>
        <time>2014-10-02T15:21:02Z</time>
      </trkpt>
      <trkpt lat="42.7049190" lon="-7.0633820">
        <ele>1251.0</ele>
        <time>2014-10-02T15:21:03Z</time>
      </trkpt>
      <trkpt lat="42.7049380" lon="-7.0633090">
        <ele>1251.1</ele>
        <time>2014-10-02T15:21:04Z</time>
      </trkpt>
      <trkpt lat="42.7049540" lon="-7.0632410">
        <ele>1251.1</ele>
        <time>2014-10-02T15:21:05Z</time>
      </trkpt>
      <trkpt lat="42.7049720" lon="-7.0631720">
        <ele>1251.2</ele>
        <time>2014-10-02T15:21:06Z</time>
      </trkpt>
      <trkpt lat="42.7049890" lon="-7.0631030">
        <ele>1251.2</ele>
        <time>2014-10-02T15:21:07Z</time>
      </trkpt>
      <trkpt lat="42.7050080" lon="-7.0630300">
        <ele>1251.3</ele>
        <time>2014-10-02T15:21:08Z</time>
      </trkpt>
      <trkpt lat="42.7050270" lon="-7.0629590">
        <ele>1251.3</ele>
        <time>2014-10-02T15:21:09Z</time>
      </trkpt>
      <trkpt lat="42.7050460" lon="-7.0628900">
        <ele>1251.4</ele>
        <time>2014-10-02T15:21:10Z</time>
      </trkpt>
      <trkpt lat="42.7050640" lon="-7.0628170">
        <ele>1251.4</ele>
        <time>2014-10-02T15:21:11Z</time>
      </trkpt>
      <trkpt lat="42.7050800" lon="-7.0627460">
        <ele>1251.4</ele>
        <time>2014-10-02T15:21:12Z</time>
      </trkpt>
      <trkpt lat="42.7050920" lon="-7.0626690">
        <ele>1251.4</ele>
        <time>2014-10-02T15:21:13Z</time>
      </trkpt>
      <trkpt lat="42.7051000" lon="-7.0625900">
        <ele>1251.4</ele>
        <time>2014-10-02T15:21:14Z</time>
      </trkpt>
      <trkpt lat="42.7051050" lon="-7.0624960">
        <ele>1251.4</ele>
        <time>2014-10-02T15:21:15Z</time>
      </trkpt>
      <trkpt lat="42.7051040" lon="-7.0624010">
        <ele>1251.4</ele>
        <time>2014-10-02T15:21:16Z</time>
      </trkpt>
      <trkpt lat="42.7050980" lon="-7.0623160">
        <ele>1251.4</ele>
        <time>2014-10-02T15:21:17Z</time>
      </trkpt>
      <trkpt lat="42.7050900" lon="-7.0622380">
        <ele>1251.4</ele>
        <time>2014-10-02T15:21:18Z</time>
      </trkpt>
      <trkpt lat="42.7050780" lon="-7.0621530">
        <ele>1251.4</ele>
        <time>2014-10-02T15:21:19Z</time>
      </trkpt>
      <trkpt lat="42.7050630" lon="-7.0620700">
        <ele>1251.4</ele>
        <time>2014-10-02T15:21:20Z</time>
      </trkpt>
      <trkpt lat="42.7050470" lon="-7.0619870">
        <ele>1251.4</ele>
        <time>2014-10-02T15:21:21Z</time>
      </trkpt>
      <trkpt lat="42.7050260" lon="-7.0619000">
        <ele>1251.3</ele>
        <time>2014-10-02T15:21:22Z</time>
      </trkpt>
      <trkpt lat="42.7050000" lon="-7.0618150">
        <ele>1251.2</ele>
        <time>2014-10-02T15:21:23Z</time>
      </trkpt>
      <trkpt lat="42.7049700" lon="-7.0617310">
        <ele>1251.1</ele>
        <time>2014-10-02T15:21:24Z</time>
      </trkpt>
      <trkpt lat="42.7049240" lon="-7.0616560">
        <ele>1251.0</ele>
        <time>2014-10-02T15:21:25Z</time>
      </trkpt>
      <trkpt lat="42.7048780" lon="-7.0615870">
        <ele>1250.8</ele>
        <time>2014-10-02T15:21:26Z</time>
      </trkpt>
      <trkpt lat="42.7048250" lon="-7.0615110">
        <ele>1250.6</ele>
        <time>2014-10-02T15:21:27Z</time>
      </trkpt>
      <trkpt lat="42.7047720" lon="-7.0614340">
        <ele>1250.4</ele>
        <time>2014-10-02T15:21:28Z</time>
      </trkpt>
      <trkpt lat="42.7047150" lon="-7.0613590">
        <ele>1250.2</ele>
        <time>2014-10-02T15:21:29Z</time>
      </trkpt>
      <trkpt lat="42.7046630" lon="-7.0612890">
        <ele>1250.0</ele>
        <time>2014-10-02T15:21:30Z</time>
      </trkpt>
      <trkpt lat="42.7046080" lon="-7.0612110">
        <ele>1249.8</ele>
        <time>2014-10-02T15:21:31Z</time>
      </trkpt>
      <trkpt lat="42.7045550" lon="-7.0611260">
        <ele>1249.5</ele>
        <time>2014-10-02T15:21:32Z</time>
      </trkpt>
      <trkpt lat="42.7045030" lon="-7.0610360">
        <ele>1249.3</ele>
        <time>2014-10-02T15:21:33Z</time>
      </trkpt>
      <trkpt lat="42.7044500" lon="-7.0609440">
        <ele>1249.0</ele>
        <time>2014-10-02T15:21:34Z</time>
      </trkpt>
      <trkpt lat="42.7043980" lon="-7.0608430">
        <ele>1248.6</ele>
        <time>2014-10-02T15:21:35Z</time>
      </trkpt>
      <trkpt lat="42.7043440" lon="-7.0607390">
        <ele>1248.1</ele>
        <time>2014-10-02T15:21:36Z</time>
      </trkpt>
      <trkpt lat="42.7042920" lon="-7.0606300">
        <ele>1247.6</ele>
        <time>2014-10-02T15:21:37Z</time>
      </trkpt>
      <trkpt lat="42.7042400" lon="-7.0605200">
        <ele>1247.1</ele>
        <time>2014-10-02T15:21:38Z</time>
      </trkpt>
      <trkpt lat="42.7041910" lon="-7.0604070">
        <ele>1246.5</ele>
        <time>2014-10-02T15:21:39Z</time>
      </trkpt>
      <trkpt lat="42.7041450" lon="-7.0602990">
        <ele>1246.0</ele>
        <time>2014-10-02T15:21:40Z</time>
      </trkpt>
      <trkpt lat="42.7040930" lon="-7.0601660">
        <ele>1245.3</ele>
        <time>2014-10-02T15:21:41Z</time>
      </trkpt>
      <trkpt lat="42.7040430" lon="-7.0600490">
        <ele>1244.8</ele>
        <time>2014-10-02T15:21:42Z</time>
      </trkpt>
      <trkpt lat="42.7039890" lon="-7.0599150">
        <ele>1244.2</ele>
        <time>2014-10-02T15:21:43Z</time>
      </trkpt>
      <trkpt lat="42.7039430" lon="-7.0597820">
        <ele>1243.7</ele>
        <time>2014-10-02T15:21:44Z</time>
      </trkpt>
      <trkpt lat="42.7038980" lon="-7.0596440">
        <ele>1243.1</ele>
        <time>2014-10-02T15:21:45Z</time>
      </trkpt>
      <trkpt lat="42.7038550" lon="-7.0595220">
        <ele>1242.6</ele>
        <time>2014-10-02T15:21:46Z</time>
      </trkpt>
      <trkpt lat="42.7038120" lon="-7.0593820">
        <ele>1242.0</ele>
        <time>2014-10-02T15:21:47Z</time>
      </trkpt>
      <trkpt lat="42.7037710" lon="-7.0592460">
        <ele>1241.3</ele>
        <time>2014-10-02T15:21:48Z</time>
      </trkpt>
      <trkpt lat="42.7037290" lon="-7.0591180">
        <ele>1240.7</ele>
        <time>2014-10-02T15:21:49Z</time>
      </trkpt>
      <trkpt lat="42.7036870" lon="-7.0589870">
        <ele>1240.1</ele>
        <time>2014-10-02T15:21:50Z</time>
      </trkpt>
      <trkpt lat="42.7036450" lon="-7.0588420">
        <ele>1239.5</ele>
        <time>2014-10-02T15:21:51Z</time>
      </trkpt>
      <trkpt lat="42.7036050" lon="-7.0586910">
        <ele>1239.0</ele>
        <time>2014-10-02T15:21:52Z</time>
      </trkpt>
      <trkpt lat="42.7035660" lon="-7.0585470">
        <ele>1238.7</ele>
        <time>2014-10-02T15:21:53Z</time>
      </trkpt>
      <trkpt lat="42.7035250" lon="-7.0583940">
        <ele>1238.4</ele>
        <time>2014-10-02T15:21:54Z</time>
      </trkpt>
      <trkpt lat="42.7034870" lon="-7.0582420">
        <ele>1238.1</ele>
        <time>2014-10-02T15:21:55Z</time>
      </trkpt>
      <trkpt lat="42.7034510" lon="-7.0580860">
        <ele>1237.8</ele>
        <time>2014-10-02T15:21:56Z</time>
      </trkpt>
      <trkpt lat="42.7034160" lon="-7.0579230">
        <ele>1237.7</ele>
        <time>2014-10-02T15:21:57Z</time>
      </trkpt>
      <trkpt lat="42.7033880" lon="-7.0577670">
        <ele>1237.7</ele>
        <time>2014-10-02T15:21:58Z</time>
      </trkpt>
      <trkpt lat="42.7033660" lon="-7.0576190">
        <ele>1237.8</ele>
        <time>2014-10-02T15:21:59Z</time>
      </trkpt>
      <trkpt lat="42.7033560" lon="-7.0574810">
        <ele>1238.0</ele>
        <time>2014-10-02T15:22:00Z</time>
      </trkpt>
      <trkpt lat="42.7033530" lon="-7.0573540">
        <ele>1238.2</ele>
        <time>2014-10-02T15:22:01Z</time>
      </trkpt>
      <trkpt lat="42.7033540" lon="-7.0572330">
        <ele>1238.5</ele>
        <time>2014-10-02T15:22:02Z</time>
      </trkpt>
      <trkpt lat="42.7033610" lon="-7.0571180">
        <ele>1238.9</ele>
        <time>2014-10-02T15:22:03Z</time>
      </trkpt>
      <trkpt lat="42.7033720" lon="-7.0569980">
        <ele>1239.3</ele>
        <time>2014-10-02T15:22:04Z</time>
      </trkpt>
      <trkpt lat="42.7033880" lon="-7.0568820">
        <ele>1239.6</ele>
        <time>2014-10-02T15:22:05Z</time>
      </trkpt>
      <trkpt lat="42.7034110" lon="-7.0567580">
        <ele>1240.0</ele>
        <time>2014-10-02T15:22:06Z</time>
      </trkpt>
      <trkpt lat="42.7034350" lon="-7.0566510">
        <ele>1240.4</ele>
        <time>2014-10-02T15:22:07Z</time>
      </trkpt>
      <trkpt lat="42.7034590" lon="-7.0565450">
        <ele>1240.8</ele>
        <time>2014-10-02T15:22:08Z</time>
      </trkpt>
      <trkpt lat="42.7034850" lon="-7.0564470">
        <ele>1241.2</ele>
        <time>2014-10-02T15:22:09Z</time>
      </trkpt>
      <trkpt lat="42.7035130" lon="-7.0563470">
        <ele>1241.6</ele>
        <time>2014-10-02T15:22:10Z</time>
      </trkpt>
      <trkpt lat="42.7035430" lon="-7.0562510">
        <ele>1241.9</ele>
        <time>2014-10-02T15:22:11Z</time>
      </trkpt>
      <trkpt lat="42.7035750" lon="-7.0561610">
        <ele>1242.2</ele>
        <time>2014-10-02T15:22:12Z</time>
      </trkpt>
      <trkpt lat="42.7036080" lon="-7.0560780">
        <ele>1242.6</ele>
        <time>2014-10-02T15:22:13Z</time>
      </trkpt>
      <trkpt lat="42.7036460" lon="-7.0559960">
        <ele>1243.0</ele>
        <time>2014-10-02T15:22:14Z</time>
      </trkpt>
      <trkpt lat="42.7036830" lon="-7.0559230">
        <ele>1243.3</ele>
        <time>2014-10-02T15:22:15Z</time>
      </trkpt>
      <trkpt lat="42.7037170" lon="-7.0558620">
        <ele>1243.7</ele>
        <time>2014-10-02T15:22:16Z</time>
      </trkpt>
      <trkpt lat="42.7037530" lon="-7.0557990">
        <ele>1244.1</ele>
        <time>2014-10-02T15:22:17Z</time>
      </trkpt>
      <trkpt lat="42.7037850" lon="-7.0557460">
        <ele>1244.4</ele>
        <time>2014-10-02T15:22:18Z</time>
      </trkpt>
      <trkpt lat="42.7038180" lon="-7.0556870">
        <ele>1244.7</ele>
        <time>2014-10-02T15:22:19Z</time>
      </trkpt>
      <trkpt lat="42.7038520" lon="-7.0556340">
        <ele>1245.1</ele>
        <time>2014-10-02T15:22:20Z</time>
      </trkpt>
      <trkpt lat="42.7038870" lon="-7.0555840">
        <ele>1245.4</ele>
        <time>2014-10-02T15:22:21Z</time>
      </trkpt>
      <trkpt lat="42.7039200" lon="-7.0555360">
        <ele>1245.7</ele>
        <time>2014-10-02T15:22:22Z</time>
      </trkpt>
      <trkpt lat="42.7039550" lon="-7.0554900">
        <ele>1246.0</ele>
        <time>2014-10-02T15:22:23Z</time>
      </trkpt>
      <trkpt lat="42.7039880" lon="-7.0554510">
        <ele>1246.3</ele>
        <time>2014-10-02T15:22:24Z</time>
      </trkpt>
      <trkpt lat="42.7040200" lon="-7.0554180">
        <ele>1246.5</ele>
        <time>2014-10-02T15:22:25Z</time>
      </trkpt>
      <trkpt lat="42.7040510" lon="-7.0553900">
        <ele>1246.7</ele>
        <time>2014-10-02T15:22:26Z</time>
      </trkpt>
      <trkpt lat="42.7040900" lon="-7.0553590">
        <ele>1247.0</ele>
        <time>2014-10-02T15:22:27Z</time>
      </trkpt>
      <trkpt lat="42.7041240" lon="-7.0553300">
        <ele>1247.3</ele>
        <time>2014-10-02T15:22:28Z</time>
      </trkpt>
      <trkpt lat="42.7041540" lon="-7.0553010">
        <ele>1247.5</ele>
        <time>2014-10-02T15:22:29Z</time>
      </trkpt>
      <trkpt lat="42.7041840" lon="-7.0552660">
        <ele>1247.8</ele>
        <time>2014-10-02T15:22:30Z</time>
      </trkpt>
      <trkpt lat="42.7042140" lon="-7.0552310">
        <ele>1248.1</ele>
        <time>2014-10-02T15:22:31Z</time>
      </trkpt>
      <trkpt lat="42.7042490" lon="-7.0551940">
        <ele>1248.4</ele>
        <time>2014-10-02T15:22:32Z</time>
      </trkpt>
      <trkpt lat="42.7042800" lon="-7.0551640">
        <ele>1248.7</ele>
        <time>2014-10-02T15:22:33Z</time>
      </trkpt>
      <trkpt lat="42.7043100" lon="-7.0551310">
        <ele>1248.9</ele>
        <time>2014-10-02T15:22:34Z</time>
      </trkpt>
      <trkpt lat="42.7043360" lon="-7.0550970">
        <ele>1249.1</ele>
        <time>2014-10-02T15:22:35Z</time>
      </trkpt>
      <trkpt lat="42.7043650" lon="-7.0550600">
        <ele>1249.4</ele>
        <time>2014-10-02T15:22:36Z</time>
      </trkpt>
      <trkpt lat="42.7043930" lon="-7.0550220">
        <ele>1249.6</ele>
        <time>2014-10-02T15:22:37Z</time>
      </trkpt>
      <trkpt lat="42.7044240" lon="-7.0549770">
        <ele>1249.9</ele>
        <time>2014-10-02T15:22:38Z</time>
      </trkpt>
      <trkpt lat="42.7044570" lon="-7.0549350">
        <ele>1250.1</ele>
        <time>2014-10-02T15:22:39Z</time>
      </trkpt>
      <trkpt lat="42.7044850" lon="-7.0549000">
        <ele>1250.3</ele>
        <time>2014-10-02T15:22:40Z</time>
      </trkpt>
      <trkpt lat="42.7045140" lon="-7.0548640">
        <ele>1250.5</ele>
        <time>2014-10-02T15:22:41Z</time>
      </trkpt>
      <trkpt lat="42.7045440" lon="-7.0548220">
        <ele>1250.8</ele>
        <time>2014-10-02T15:22:42Z</time>
      </trkpt>
      <trkpt lat="42.7045740" lon="-7.0547840">
        <ele>1251.0</ele>
        <time>2014-10-02T15:22:43Z</time>
      </trkpt>
      <trkpt lat="42.7046030" lon="-7.0547470">
        <ele>1251.2</ele>
        <time>2014-10-02T15:22:44Z</time>
      </trkpt>
      <trkpt lat="42.7046320" lon="-7.0547100">
        <ele>1251.4</ele>
        <time>2014-10-02T15:22:45Z</time>
      </trkpt>
      <trkpt lat="42.7046570" lon="-7.0546770">
        <ele>1251.7</ele>
        <time>2014-10-02T15:22:46Z</time>
      </trkpt>
      <trkpt lat="42.7046870" lon="-7.0546360">
        <ele>1251.9</ele>
        <time>2014-10-02T15:22:47Z</time>
      </trkpt>
      <trkpt lat="42.7047150" lon="-7.0545950">
        <ele>1252.2</ele>
        <time>2014-10-02T15:22:48Z</time>
      </trkpt>
      <trkpt lat="42.7047380" lon="-7.0545550">
        <ele>1252.4</ele>
        <time>2014-10-02T15:22:49Z</time>
      </trkpt>
      <trkpt lat="42.7047610" lon="-7.0545150">
        <ele>1252.6</ele>
        <time>2014-10-02T15:22:50Z</time>
      </trkpt>
      <trkpt lat="42.7047810" lon="-7.0544790">
        <ele>1252.8</ele>
        <time>2014-10-02T15:22:51Z</time>
      </trkpt>
      <trkpt lat="42.7048030" lon="-7.0544450">
        <ele>1253.0</ele>
        <time>2014-10-02T15:22:52Z</time>
      </trkpt>
      <trkpt lat="42.7048230" lon="-7.0544120">
        <ele>1253.2</ele>
        <time>2014-10-02T15:22:53Z</time>
      </trkpt>
      <trkpt lat="42.7048490" lon="-7.0543690">
        <ele>1253.5</ele>
        <time>2014-10-02T15:22:54Z</time>
      </trkpt>
      <trkpt lat="42.7048710" lon="-7.0543320">
        <ele>1253.7</ele>
        <time>2014-10-02T15:22:55Z</time>
      </trkpt>
      <trkpt lat="42.7048950" lon="-7.0542910">
        <ele>1254.0</ele>
        <time>2014-10-02T15:22:56Z</time>
      </trkpt>
      <trkpt lat="42.7049200" lon="-7.0542470">
        <ele>1254.2</ele>
        <time>2014-10-02T15:22:57Z</time>
      </trkpt>
      <trkpt lat="42.7049450" lon="-7.0542030">
        <ele>1254.5</ele>
        <time>2014-10-02T15:22:58Z</time>
      </trkpt>
      <trkpt lat="42.7049730" lon="-7.0541600">
        <ele>1254.7</ele>
        <time>2014-10-02T15:22:59Z</time>
      </trkpt>
      <trkpt lat="42.7050000" lon="-7.0541150">
        <ele>1255.0</ele>
        <time>2014-10-02T15:23:00Z</time>
      </trkpt>
      <trkpt lat="42.7050260" lon="-7.0540680">
        <ele>1255.2</ele>
        <time>2014-10-02T15:23:01Z</time>
      </trkpt>
      <trkpt lat="42.7050470" lon="-7.0540270">
        <ele>1255.5</ele>
        <time>2014-10-02T15:23:02Z</time>
      </trkpt>
      <trkpt lat="42.7050710" lon="-7.0539810">
        <ele>1255.7</ele>
        <time>2014-10-02T15:23:03Z</time>
      </trkpt>
      <trkpt lat="42.7050950" lon="-7.0539350">
        <ele>1256.0</ele>
        <time>2014-10-02T15:23:04Z</time>
      </trkpt>
      <trkpt lat="42.7051210" lon="-7.0538850">
        <ele>1256.3</ele>
        <time>2014-10-02T15:23:05Z</time>
      </trkpt>
      <trkpt lat="42.7051460" lon="-7.0538380">
        <ele>1256.6</ele>
        <time>2014-10-02T15:23:06Z</time>
      </trkpt>
      <trkpt lat="42.7051710" lon="-7.0537930">
        <ele>1256.8</ele>
        <time>2014-10-02T15:23:07Z</time>
      </trkpt>
      <trkpt lat="42.7051950" lon="-7.0537420">
        <ele>1257.1</ele>
        <time>2014-10-02T15:23:08Z</time>
      </trkpt>
      <trkpt lat="42.7052100" lon="-7.0536870">
        <ele>1257.4</ele>
        <time>2014-10-02T15:23:09Z</time>
      </trkpt>
      <trkpt lat="42.7052240" lon="-7.0536350">
        <ele>1257.7</ele>
        <time>2014-10-02T15:23:10Z</time>
      </trkpt>
      <trkpt lat="42.7052340" lon="-7.0535870">
        <ele>1257.9</ele>
        <time>2014-10-02T15:23:11Z</time>
      </trkpt>
      <trkpt lat="42.7052470" lon="-7.0535400">
        <ele>1258.1</ele>
        <time>2014-10-02T15:23:12Z</time>
      </trkpt>
      <trkpt lat="42.7052590" lon="-7.0534910">
        <ele>1258.4</ele>
        <time>2014-10-02T15:23:13Z</time>
      </trkpt>
      <trkpt lat="42.7052680" lon="-7.0534490">
        <ele>1258.6</ele>
        <time>2014-10-02T15:23:14Z</time>
      </trkpt>
      <trkpt lat="42.7052770" lon="-7.0534010">
        <ele>1258.8</ele>
        <time>2014-10-02T15:23:15Z</time>
      </trkpt>
      <trkpt lat="42.7052850" lon="-7.0533630">
        <ele>1259.0</ele>
        <time>2014-10-02T15:23:16Z</time>
      </trkpt>
      <trkpt lat="42.7052930" lon="-7.0533200">
        <ele>1259.2</ele>
        <time>2014-10-02T15:23:17Z</time>
      </trkpt>
      <trkpt lat="42.7053030" lon="-7.0532700">
        <ele>1259.4</ele>
        <time>2014-10-02T15:23:18Z</time>
      </trkpt>
      <trkpt lat="42.7053130" lon="-7.0532220">
        <ele>1259.7</ele>
        <time>2014-10-02T15:23:19Z</time>
      </trkpt>
      <trkpt lat="42.7053230" lon="-7.0531730">
        <ele>1259.9</ele>
        <time>2014-10-02T15:23:20Z</time>
      </trkpt>
      <trkpt lat="42.7053260" lon="-7.0531240">
        <ele>1260.1</ele>
        <time>2014-10-02T15:23:21Z</time>
      </trkpt>
      <trkpt lat="42.7053340" lon="-7.0530750">
        <ele>1260.3</ele>
        <time>2014-10-02T15:23:22Z</time>
      </trkpt>
      <trkpt lat="42.7053440" lon="-7.0530220">
        <ele>1260.6</ele>
        <time>2014-10-02T15:23:23Z</time>
      </trkpt>
      <trkpt lat="42.7053550" lon="-7.0529660">
        <ele>1260.8</ele>
        <time>2014-10-02T15:23:24Z</time>
      </trkpt>
      <trkpt lat="42.7053770" lon="-7.0529010">
        <ele>1261.1</ele>
        <time>2014-10-02T15:23:25Z</time>
      </trkpt>
      <trkpt lat="42.7053920" lon="-7.0528520">
        <ele>1261.4</ele>
        <time>2014-10-02T15:23:26Z</time>
      </trkpt>
      <trkpt lat="42.7054060" lon="-7.0528020">
        <ele>1261.6</ele>
        <time>2014-10-02T15:23:27Z</time>
      </trkpt>
      <trkpt lat="42.7054200" lon="-7.0527570">
        <ele>1261.8</ele>
        <time>2014-10-02T15:23:28Z</time>
      </trkpt>
      <trkpt lat="42.7054350" lon="-7.0527110">
        <ele>1262.1</ele>
        <time>2014-10-02T15:23:29Z</time>
      </trkpt>
      <trkpt lat="42.7054510" lon="-7.0526590">
        <ele>1262.3</ele>
        <time>2014-10-02T15:23:30Z</time>
      </trkpt>
      <trkpt lat="42.7054650" lon="-7.0526160">
        <ele>1262.5</ele>
        <time>2014-10-02T15:23:31Z</time>
      </trkpt>
      <trkpt lat="42.7054780" lon="-7.0525770">
        <ele>1262.7</ele>
        <time>2014-10-02T15:23:32Z</time>
      </trkpt>
      <trkpt lat="42.7054940" lon="-7.0525310">
        <ele>1262.9</ele>
        <time>2014-10-02T15:23:33Z</time>
      </trkpt>
      <trkpt lat="42.7055130" lon="-7.0524740">
        <ele>1263.2</ele>
        <time>2014-10-02T15:23:34Z</time>
      </trkpt>
      <trkpt lat="42.7055270" lon="-7.0524250">
        <ele>1263.4</ele>
        <time>2014-10-02T15:23:35Z</time>
      </trkpt>
      <trkpt lat="42.7055390" lon="-7.0523710">
        <ele>1263.6</ele>
        <time>2014-10-02T15:23:36Z</time>
      </trkpt>
      <trkpt lat="42.7055530" lon="-7.0523190">
        <ele>1263.8</ele>
        <time>2014-10-02T15:23:37Z</time>
      </trkpt>
      <trkpt lat="42.7055680" lon="-7.0522730">
        <ele>1263.9</ele>
        <time>2014-10-02T15:23:38Z</time>
      </trkpt>
      <trkpt lat="42.7055850" lon="-7.0522300">
        <ele>1264.1</ele>
        <time>2014-10-02T15:23:39Z</time>
      </trkpt>
      <trkpt lat="42.7056020" lon="-7.0521880">
        <ele>1264.3</ele>
        <time>2014-10-02T15:23:40Z</time>
      </trkpt>
      <trkpt lat="42.7056190" lon="-7.0521450">
        <ele>1264.4</ele>
        <time>2014-10-02T15:23:41Z</time>
      </trkpt>
      <trkpt lat="42.7056320" lon="-7.0521090">
        <ele>1264.6</ele>
        <time>2014-10-02T15:23:42Z</time>
      </trkpt>
      <trkpt lat="42.7056520" lon="-7.0520650">
        <ele>1264.7</ele>
        <time>2014-10-02T15:23:43Z</time>
      </trkpt>
      <trkpt lat="42.7056730" lon="-7.0520190">
        <ele>1264.9</ele>
        <time>2014-10-02T15:23:44Z</time>
      </trkpt>
      <trkpt lat="42.7056980" lon="-7.0519700">
        <ele>1265.1</ele>
        <time>2014-10-02T15:23:45Z</time>
      </trkpt>
      <trkpt lat="42.7057260" lon="-7.0519210">
        <ele>1265.2</ele>
        <time>2014-10-02T15:23:46Z</time>
      </trkpt>
      <trkpt lat="42.7057570" lon="-7.0518700">
        <ele>1265.4</ele>
        <time>2014-10-02T15:23:47Z</time>
      </trkpt>
      <trkpt lat="42.7057940" lon="-7.0518150">
        <ele>1265.7</ele>
        <time>2014-10-02T15:23:48Z</time>
      </trkpt>
      <trkpt lat="42.7058290" lon="-7.0517690">
        <ele>1265.8</ele>
        <time>2014-10-02T15:23:49Z</time>
      </trkpt>
      <trkpt lat="42.7058660" lon="-7.0517230">
        <ele>1266.0</ele>
        <time>2014-10-02T15:23:50Z</time>
      </trkpt>
      <trkpt lat="42.7059050" lon="-7.0516790">
        <ele>1266.2</ele>
        <time>2014-10-02T15:23:51Z</time>
      </trkpt>
      <trkpt lat="42.7059420" lon="-7.0516390">
        <ele>1266.4</ele>
        <time>2014-10-02T15:23:52Z</time>
      </trkpt>
      <trkpt lat="42.7059860" lon="-7.0515940">
        <ele>1266.5</ele>
        <time>2014-10-02T15:23:53Z</time>
      </trkpt>
      <trkpt lat="42.7060320" lon="-7.0515530">
        <ele>1266.7</ele>
        <time>2014-10-02T15:23:54Z</time>
      </trkpt>
      <trkpt lat="42.7060800" lon="-7.0515140">
        <ele>1266.9</ele>
        <time>2014-10-02T15:23:55Z</time>
      </trkpt>
      <trkpt lat="42.7061290" lon="-7.0514800">
        <ele>1267.0</ele>
        <time>2014-10-02T15:23:56Z</time>
      </trkpt>
      <trkpt lat="42.7061780" lon="-7.0514470">
        <ele>1267.2</ele>
        <time>2014-10-02T15:23:57Z</time>
      </trkpt>
      <trkpt lat="42.7062240" lon="-7.0514180">
        <ele>1267.3</ele>
        <time>2014-10-02T15:23:58Z</time>
      </trkpt>
      <trkpt lat="42.7062670" lon="-7.0513900">
        <ele>1267.4</ele>
        <time>2014-10-02T15:23:59Z</time>
      </trkpt>
      <trkpt lat="42.7063130" lon="-7.0513610">
        <ele>1267.6</ele>
        <time>2014-10-02T15:24:00Z</time>
      </trkpt>
      <trkpt lat="42.7063590" lon="-7.0513310">
        <ele>1267.7</ele>
        <time>2014-10-02T15:24:01Z</time>
      </trkpt>
      <trkpt lat="42.7064050" lon="-7.0513000">
        <ele>1267.8</ele>
        <time>2014-10-02T15:24:02Z</time>
      </trkpt>
      <trkpt lat="42.7064470" lon="-7.0512730">
        <ele>1267.9</ele>
        <time>2014-10-02T15:24:03Z</time>
      </trkpt>
      <trkpt lat="42.7064890" lon="-7.0512390">
        <ele>1268.0</ele>
        <time>2014-10-02T15:24:04Z</time>
      </trkpt>
      <trkpt lat="42.7065280" lon="-7.0512070">
        <ele>1268.1</ele>
        <time>2014-10-02T15:24:05Z</time>
      </trkpt>
      <trkpt lat="42.7065650" lon="-7.0511760">
        <ele>1268.2</ele>
        <time>2014-10-02T15:24:06Z</time>
      </trkpt>
      <trkpt lat="42.7066060" lon="-7.0511380">
        <ele>1268.3</ele>
        <time>2014-10-02T15:24:07Z</time>
      </trkpt>
      <trkpt lat="42.7066440" lon="-7.0510990">
        <ele>1268.4</ele>
        <time>2014-10-02T15:24:08Z</time>
      </trkpt>
      <trkpt lat="42.7066790" lon="-7.0510570">
        <ele>1268.6</ele>
        <time>2014-10-02T15:24:09Z</time>
      </trkpt>
      <trkpt lat="42.7067180" lon="-7.0510060">
        <ele>1268.7</ele>
        <time>2014-10-02T15:24:10Z</time>
      </trkpt>
      <trkpt lat="42.7067530" lon="-7.0509570">
        <ele>1268.8</ele>
        <time>2014-10-02T15:24:11Z</time>
      </trkpt>
      <trkpt lat="42.7067880" lon="-7.0509040">
        <ele>1268.9</ele>
        <time>2014-10-02T15:24:12Z</time>
      </trkpt>
      <trkpt lat="42.7068210" lon="-7.0508450">
        <ele>1269.0</ele>
        <time>2014-10-02T15:24:13Z</time>
      </trkpt>
      <trkpt lat="42.7068520" lon="-7.0507840">
        <ele>1269.1</ele>
        <time>2014-10-02T15:24:14Z</time>
      </trkpt>
      <trkpt lat="42.7068830" lon="-7.0507190">
        <ele>1269.2</ele>
        <time>2014-10-02T15:24:15Z</time>
      </trkpt>
      <trkpt lat="42.7069100" lon="-7.0506550">
        <ele>1269.2</ele>
        <time>2014-10-02T15:24:16Z</time>
      </trkpt>
      <trkpt lat="42.7069370" lon="-7.0505810">
        <ele>1269.3</ele>
        <time>2014-10-02T15:24:17Z</time>
      </trkpt>
      <trkpt lat="42.7069610" lon="-7.0505150">
        <ele>1269.4</ele>
        <time>2014-10-02T15:24:18Z</time>
      </trkpt>
      <trkpt lat="42.7069860" lon="-7.0504370">
        <ele>1269.5</ele>
        <time>2014-10-02T15:24:19Z</time>
      </trkpt>
      <trkpt lat="42.7070090" lon="-7.0503480">
        <ele>1269.6</ele>
        <time>2014-10-02T15:24:20Z</time>
      </trkpt>
      <trkpt lat="42.7070310" lon="-7.0502680">
        <ele>1269.6</ele>
        <time>2014-10-02T15:24:21Z</time>
      </trkpt>
      <trkpt lat="42.7070500" lon="-7.0501930">
        <ele>1269.7</ele>
        <time>2014-10-02T15:24:22Z</time>
      </trkpt>
      <trkpt lat="42.7070660" lon="-7.0501230">
        <ele>1269.8</ele>
        <time>2014-10-02T15:24:23Z</time>
      </trkpt>
      <trkpt lat="42.7070840" lon="-7.0500350">
        <ele>1270.0</ele>
        <time>2014-10-02T15:24:24Z</time>
      </trkpt>
      <trkpt lat="42.7071010" lon="-7.0499440">
        <ele>1270.1</ele>
        <time>2014-10-02T15:24:25Z</time>
      </trkpt>
      <trkpt lat="42.7071130" lon="-7.0498610">
        <ele>1270.2</ele>
        <time>2014-10-02T15:24:26Z</time>
      </trkpt>
      <trkpt lat="42.7071190" lon="-7.0497890">
        <ele>1270.3</ele>
        <time>2014-10-02T15:24:27Z</time>
      </trkpt>
      <trkpt lat="42.7071230" lon="-7.0497210">
        <ele>1270.4</ele>
        <time>2014-10-02T15:24:28Z</time>
      </trkpt>
      <trkpt lat="42.7071310" lon="-7.0496550">
        <ele>1270.5</ele>
        <time>2014-10-02T15:24:29Z</time>
      </trkpt>
      <trkpt lat="42.7071340" lon="-7.0496050">
        <ele>1270.6</ele>
        <time>2014-10-02T15:24:30Z</time>
      </trkpt>
      <trkpt lat="42.7071380" lon="-7.0495500">
        <ele>1270.7</ele>
        <time>2014-10-02T15:24:31Z</time>
      </trkpt>
      <trkpt lat="42.7071430" lon="-7.0495000">
        <ele>1270.8</ele>
        <time>2014-10-02T15:24:32Z</time>
      </trkpt>
      <trkpt lat="42.7071490" lon="-7.0494460">
        <ele>1270.8</ele>
        <time>2014-10-02T15:24:33Z</time>
      </trkpt>
      <trkpt lat="42.7071610" lon="-7.0493880">
        <ele>1271.0</ele>
        <time>2014-10-02T15:24:34Z</time>
      </trkpt>
      <trkpt lat="42.7071730" lon="-7.0493330">
        <ele>1271.1</ele>
        <time>2014-10-02T15:24:35Z</time>
      </trkpt>
      <trkpt lat="42.7071870" lon="-7.0492750">
        <ele>1271.2</ele>
        <time>2014-10-02T15:24:36Z</time>
      </trkpt>
      <trkpt lat="42.7072040" lon="-7.0492150">
        <ele>1271.3</ele>
        <time>2014-10-02T15:24:37Z</time>
      </trkpt>
      <trkpt lat="42.7072190" lon="-7.0491560">
        <ele>1271.4</ele>
        <time>2014-10-02T15:24:38Z</time>
      </trkpt>
      <trkpt lat="42.7072350" lon="-7.0490940">
        <ele>1271.5</ele>
        <time>2014-10-02T15:24:39Z</time>
      </trkpt>
      <trkpt lat="42.7072530" lon="-7.0490250">
        <ele>1271.7</ele>
        <time>2014-10-02T15:24:40Z</time>
      </trkpt>
      <trkpt lat="42.7072700" lon="-7.0489640">
        <ele>1271.8</ele>
        <time>2014-10-02T15:24:41Z</time>
      </trkpt>
      <trkpt lat="42.7072910" lon="-7.0488990">
        <ele>1272.0</ele>
        <time>2014-10-02T15:24:42Z</time>
      </trkpt>
      <trkpt lat="42.7073140" lon="-7.0488300">
        <ele>1272.1</ele>
        <time>2014-10-02T15:24:43Z</time>
      </trkpt>
      <trkpt lat="42.7073380" lon="-7.0487650">
        <ele>1272.3</ele>
        <time>2014-10-02T15:24:44Z</time>
      </trkpt>
      <trkpt lat="42.7073600" lon="-7.0487050">
        <ele>1272.5</ele>
        <time>2014-10-02T15:24:45Z</time>
      </trkpt>
      <trkpt lat="42.7073850" lon="-7.0486390">
        <ele>1272.7</ele>
        <time>2014-10-02T15:24:46Z</time>
      </trkpt>
      <trkpt lat="42.7074080" lon="-7.0485770">
        <ele>1272.9</ele>
        <time>2014-10-02T15:24:47Z</time>
      </trkpt>
      <trkpt lat="42.7074320" lon="-7.0485080">
        <ele>1273.2</ele>
        <time>2014-10-02T15:24:48Z</time>
      </trkpt>
      <trkpt lat="42.7074580" lon="-7.0484450">
        <ele>1273.5</ele>
        <time>2014-10-02T15:24:49Z</time>
      </trkpt>
      <trkpt lat="42.7074860" lon="-7.0483780">
        <ele>1273.8</ele>
        <time>2014-10-02T15:24:50Z</time>
      </trkpt>
      <trkpt lat="42.7075140" lon="-7.0483060">
        <ele>1274.1</ele>
        <time>2014-10-02T15:24:51Z</time>
      </trkpt>
      <trkpt lat="42.7075410" lon="-7.0482410">
        <ele>1274.4</ele>
        <time>2014-10-02T15:24:52Z</time>
      </trkpt>
      <trkpt lat="42.7075710" lon="-7.0481720">
        <ele>1274.7</ele>
        <time>2014-10-02T15:24:53Z</time>
      </trkpt>
      <trkpt lat="42.7075990" lon="-7.0481080">
        <ele>1275.0</ele>
        <time>2014-10-02T15:24:54Z</time>
      </trkpt>
      <trkpt lat="42.7076250" lon="-7.0480480">
        <ele>1275.3</ele>
        <time>2014-10-02T15:24:55Z</time>
      </trkpt>
      <trkpt lat="42.7076520" lon="-7.0479830">
        <ele>1275.6</ele>
        <time>2014-10-02T15:24:56Z</time>
      </trkpt>
      <trkpt lat="42.7076820" lon="-7.0479170">
        <ele>1275.9</ele>
        <time>2014-10-02T15:24:57Z</time>
      </trkpt>
      <trkpt lat="42.7077100" lon="-7.0478500">
        <ele>1276.2</ele>
        <time>2014-10-02T15:24:58Z</time>
      </trkpt>
      <trkpt lat="42.7077340" lon="-7.0477940">
        <ele>1276.4</ele>
        <time>2014-10-02T15:24:59Z</time>
      </trkpt>
      <trkpt lat="42.7077620" lon="-7.0477290">
        <ele>1276.8</ele>
        <time>2014-10-02T15:25:00Z</time>
      </trkpt>
      <trkpt lat="42.7077850" lon="-7.0476720">
        <ele>1277.0</ele>
        <time>2014-10-02T15:25:01Z</time>
      </trkpt>
      <trkpt lat="42.7078100" lon="-7.0476130">
        <ele>1277.3</ele>
        <time>2014-10-02T15:25:02Z</time>
      </trkpt>
      <trkpt lat="42.7078360" lon="-7.0475470">
        <ele>1277.6</ele>
        <time>2014-10-02T15:25:03Z</time>
      </trkpt>
      <trkpt lat="42.7078630" lon="-7.0474830">
        <ele>1278.0</ele>
        <time>2014-10-02T15:25:04Z</time>
      </trkpt>
      <trkpt lat="42.7078850" lon="-7.0474270">
        <ele>1278.2</ele>
        <time>2014-10-02T15:25:05Z</time>
      </trkpt>
      <trkpt lat="42.7079100" lon="-7.0473670">
        <ele>1278.5</ele>
        <time>2014-10-02T15:25:06Z</time>
      </trkpt>
      <trkpt lat="42.7079330" lon="-7.0473020">
        <ele>1278.8</ele>
        <time>2014-10-02T15:25:07Z</time>
      </trkpt>
      <trkpt lat="42.7079540" lon="-7.0472370">
        <ele>1279.1</ele>
        <time>2014-10-02T15:25:08Z</time>
      </trkpt>
      <trkpt lat="42.7079720" lon="-7.0471770">
        <ele>1279.4</ele>
        <time>2014-10-02T15:25:09Z</time>
      </trkpt>
      <trkpt lat="42.7079890" lon="-7.0471120">
        <ele>1279.7</ele>
        <time>2014-10-02T15:25:10Z</time>
      </trkpt>
      <trkpt lat="42.7080070" lon="-7.0470510">
        <ele>1280.0</ele>
        <time>2014-10-02T15:25:11Z</time>
      </trkpt>
      <trkpt lat="42.7080200" lon="-7.0469940">
        <ele>1280.2</ele>
        <time>2014-10-02T15:25:12Z</time>
      </trkpt>
      <trkpt lat="42.7080330" lon="-7.0469340">
        <ele>1280.4</ele>
        <time>2014-10-02T15:25:13Z</time>
      </trkpt>
      <trkpt lat="42.7080410" lon="-7.0468810">
        <ele>1280.6</ele>
        <time>2014-10-02T15:25:14Z</time>
      </trkpt>
      <trkpt lat="42.7080490" lon="-7.0468260">
        <ele>1280.8</ele>
        <time>2014-10-02T15:25:15Z</time>
      </trkpt>
      <trkpt lat="42.7080590" lon="-7.0467630">
        <ele>1281.1</ele>
        <time>2014-10-02T15:25:16Z</time>
      </trkpt>
      <trkpt lat="42.7080680" lon="-7.0467000">
        <ele>1281.3</ele>
        <time>2014-10-02T15:25:17Z</time>
      </trkpt>
      <trkpt lat="42.7080730" lon="-7.0466390">
        <ele>1281.5</ele>
        <time>2014-10-02T15:25:18Z</time>
      </trkpt>
      <trkpt lat="42.7080770" lon="-7.0465840">
        <ele>1281.7</ele>
        <time>2014-10-02T15:25:19Z</time>
      </trkpt>
      <trkpt lat="42.7080810" lon="-7.0465280">
        <ele>1281.8</ele>
        <time>2014-10-02T15:25:20Z</time>
      </trkpt>
      <trkpt lat="42.7080840" lon="-7.0464790">
        <ele>1281.9</ele>
        <time>2014-10-02T15:25:21Z</time>
      </trkpt>
      <trkpt lat="42.7080880" lon="-7.0464250">
        <ele>1282.0</ele>
        <time>2014-10-02T15:25:22Z</time>
      </trkpt>
      <trkpt lat="42.7080900" lon="-7.0463730">
        <ele>1282.2</ele>
        <time>2014-10-02T15:25:23Z</time>
      </trkpt>
      <trkpt lat="42.7080910" lon="-7.0463190">
        <ele>1282.4</ele>
        <time>2014-10-02T15:25:24Z</time>
      </trkpt>
      <trkpt lat="42.7080950" lon="-7.0462570">
        <ele>1282.6</ele>
        <time>2014-10-02T15:25:25Z</time>
      </trkpt>
      <trkpt lat="42.7080980" lon="-7.0462000">
        <ele>1282.8</ele>
        <time>2014-10-02T15:25:26Z</time>
      </trkpt>
      <trkpt lat="42.7080980" lon="-7.0461450">
        <ele>1282.9</ele>
        <time>2014-10-02T15:25:27Z</time>
      </trkpt>
      <trkpt lat="42.7081010" lon="-7.0460820">
        <ele>1282.9</ele>
        <time>2014-10-02T15:25:28Z</time>
      </trkpt>
      <trkpt lat="42.7080950" lon="-7.0460350">
        <ele>1282.9</ele>
        <time>2014-10-02T15:25:29Z</time>
      </trkpt>
      <trkpt lat="42.7080910" lon="-7.0459770">
        <ele>1283.0</ele>
        <time>2014-10-02T15:25:30Z</time>
      </trkpt>
      <trkpt lat="42.7080880" lon="-7.0459180">
        <ele>1283.0</ele>
        <time>2014-10-02T15:25:31Z</time>
      </trkpt>
      <trkpt lat="42.7080840" lon="-7.0458610">
        <ele>1283.0</ele>
        <time>2014-10-02T15:25:32Z</time>
      </trkpt>
      <trkpt lat="42.7080800" lon="-7.0458030">
        <ele>1283.1</ele>
        <time>2014-10-02T15:25:33Z</time>
      </trkpt>
      <trkpt lat="42.7080740" lon="-7.0457480">
        <ele>1283.2</ele>
        <time>2014-10-02T15:25:34Z</time>
      </trkpt>
      <trkpt lat="42.7080680" lon="-7.0456810">
        <ele>1283.3</ele>
        <time>2014-10-02T15:25:35Z</time>
      </trkpt>
      <trkpt lat="42.7080640" lon="-7.0456170">
        <ele>1283.3</ele>
        <time>2014-10-02T15:25:36Z</time>
      </trkpt>
      <trkpt lat="42.7080600" lon="-7.0455500">
        <ele>1283.3</ele>
        <time>2014-10-02T15:25:37Z</time>
      </trkpt>
      <trkpt lat="42.7080590" lon="-7.0454720">
        <ele>1283.4</ele>
        <time>2014-10-02T15:25:38Z</time>
      </trkpt>
      <trkpt lat="42.7080590" lon="-7.0453930">
        <ele>1283.4</ele>
        <time>2014-10-02T15:25:39Z</time>
      </trkpt>
      <trkpt lat="42.7080620" lon="-7.0453170">
        <ele>1283.5</ele>
        <time>2014-10-02T15:25:40Z</time>
      </trkpt>
      <trkpt lat="42.7080630" lon="-7.0452390">
        <ele>1283.5</ele>
        <time>2014-10-02T15:25:41Z</time>
      </trkpt>
      <trkpt lat="42.7080660" lon="-7.0451750">
        <ele>1283.5</ele>
        <time>2014-10-02T15:25:42Z</time>
      </trkpt>
      <trkpt lat="42.7080700" lon="-7.0451050">
        <ele>1283.5</ele>
        <time>2014-10-02T15:25:43Z</time>
      </trkpt>
      <trkpt lat="42.7080790" lon="-7.0450260">
        <ele>1283.4</ele>
        <time>2014-10-02T15:25:44Z</time>
      </trkpt>
      <trkpt lat="42.7080890" lon="-7.0449460">
        <ele>1283.4</ele>
        <time>2014-10-02T15:25:45Z</time>
      </trkpt>
      <trkpt lat="42.7081030" lon="-7.0448590">
        <ele>1283.3</ele>
        <time>2014-10-02T15:25:46Z</time>
      </trkpt>
      <trkpt lat="42.7081180" lon="-7.0447770">
        <ele>1283.3</ele>
        <time>2014-10-02T15:25:47Z</time>
      </trkpt>
      <trkpt lat="42.7081320" lon="-7.0447060">
        <ele>1283.3</ele>
        <time>2014-10-02T15:25:48Z</time>
      </trkpt>
      <trkpt lat="42.7081440" lon="-7.0446400">
        <ele>1283.4</ele>
        <time>2014-10-02T15:25:49Z</time>
      </trkpt>
      <trkpt lat="42.7081610" lon="-7.0445670">
        <ele>1283.5</ele>
        <time>2014-10-02T15:25:50Z</time>
      </trkpt>
      <trkpt lat="42.7081810" lon="-7.0444960">
        <ele>1283.6</ele>
        <time>2014-10-02T15:25:51Z</time>
      </trkpt>
      <trkpt lat="42.7081940" lon="-7.0444560">
        <ele>1283.7</ele>
        <time>2014-10-02T15:25:52Z</time>
      </trkpt>
      <trkpt lat="42.7082180" lon="-7.0443880">
        <ele>1283.8</ele>
        <time>2014-10-02T15:25:53Z</time>
      </trkpt>
      <trkpt lat="42.7082410" lon="-7.0443200">
        <ele>1283.9</ele>
        <time>2014-10-02T15:25:54Z</time>
      </trkpt>
      <trkpt lat="42.7082580" lon="-7.0442560">
        <ele>1283.9</ele>
        <time>2014-10-02T15:25:55Z</time>
      </trkpt>
      <trkpt lat="42.7082770" lon="-7.0441870">
        <ele>1284.0</ele>
        <time>2014-10-02T15:25:56Z</time>
      </trkpt>
      <trkpt lat="42.7082970" lon="-7.0441190">
        <ele>1284.0</ele>
        <time>2014-10-02T15:25:57Z</time>
      </trkpt>
      <trkpt lat="42.7083140" lon="-7.0440590">
        <ele>1284.2</ele>
        <time>2014-10-02T15:25:58Z</time>
      </trkpt>
      <trkpt lat="42.7083270" lon="-7.0440050">
        <ele>1284.3</ele>
        <time>2014-10-02T15:25:59Z</time>
      </trkpt>
      <trkpt lat="42.7083550" lon="-7.0439300">
        <ele>1284.5</ele>
        <time>2014-10-02T15:26:00Z</time>
      </trkpt>
      <trkpt lat="42.7083810" lon="-7.0438560">
        <ele>1284.7</ele>
        <time>2014-10-02T15:26:01Z</time>
      </trkpt>
      <trkpt lat="42.7084080" lon="-7.0437810">
        <ele>1284.9</ele>
        <time>2014-10-02T15:26:02Z</time>
      </trkpt>
      <trkpt lat="42.7084300" lon="-7.0437190">
        <ele>1285.1</ele>
        <time>2014-10-02T15:26:03Z</time>
      </trkpt>
      <trkpt lat="42.7084540" lon="-7.0436500">
        <ele>1285.3</ele>
        <time>2014-10-02T15:26:04Z</time>
      </trkpt>
      <trkpt lat="42.7084750" lon="-7.0435830">
        <ele>1285.6</ele>
        <time>2014-10-02T15:26:05Z</time>
      </trkpt>
      <trkpt lat="42.7084980" lon="-7.0435050">
        <ele>1285.9</ele>
        <time>2014-10-02T15:26:06Z</time>
      </trkpt>
      <trkpt lat="42.7085220" lon="-7.0434250">
        <ele>1286.2</ele>
        <time>2014-10-02T15:26:07Z</time>
      </trkpt>
      <trkpt lat="42.7085370" lon="-7.0433650">
        <ele>1286.5</ele>
        <time>2014-10-02T15:26:08Z</time>
      </trkpt>
      <trkpt lat="42.7085570" lon="-7.0432920">
        <ele>1286.8</ele>
        <time>2014-10-02T15:26:09Z</time>
      </trkpt>
      <trkpt lat="42.7085750" lon="-7.0432240">
        <ele>1287.2</ele>
        <time>2014-10-02T15:26:10Z</time>
      </trkpt>
      <trkpt lat="42.7085970" lon="-7.0431440">
        <ele>1287.6</ele>
        <time>2014-10-02T15:26:11Z</time>
      </trkpt>
      <trkpt lat="42.7086150" lon="-7.0430780">
        <ele>1287.9</ele>
        <time>2014-10-02T15:26:12Z</time>
      </trkpt>
      <trkpt lat="42.7086380" lon="-7.0430030">
        <ele>1288.3</ele>
        <time>2014-10-02T15:26:13Z</time>
      </trkpt>
      <trkpt lat="42.7086590" lon="-7.0429400">
        <ele>1288.7</ele>
        <time>2014-10-02T15:26:14Z</time>
      </trkpt>
      <trkpt lat="42.7086850" lon="-7.0428700">
        <ele>1289.1</ele>
        <time>2014-10-02T15:26:15Z</time>
      </trkpt>
      <trkpt lat="42.7087080" lon="-7.0428140">
        <ele>1289.4</ele>
        <time>2014-10-02T15:26:16Z</time>
      </trkpt>
      <trkpt lat="42.7087280" lon="-7.0427650">
        <ele>1289.7</ele>
        <time>2014-10-02T15:26:17Z</time>
      </trkpt>
      <trkpt lat="42.7087480" lon="-7.0427230">
        <ele>1290.0</ele>
        <time>2014-10-02T15:26:18Z</time>
      </trkpt>
      <trkpt lat="42.7087660" lon="-7.0426840">
        <ele>1290.2</ele>
        <time>2014-10-02T15:26:19Z</time>
      </trkpt>
      <trkpt lat="42.7087880" lon="-7.0426360">
        <ele>1290.5</ele>
        <time>2014-10-02T15:26:20Z</time>
      </trkpt>
      <trkpt lat="42.7088090" lon="-7.0425930">
        <ele>1290.8</ele>
        <time>2014-10-02T15:26:21Z</time>
      </trkpt>
      <trkpt lat="42.7088290" lon="-7.0425570">
        <ele>1291.0</ele>
        <time>2014-10-02T15:26:22Z</time>
      </trkpt>
      <trkpt lat="42.7088500" lon="-7.0425210">
        <ele>1291.3</ele>
        <time>2014-10-02T15:26:23Z</time>
      </trkpt>
      <trkpt lat="42.7088730" lon="-7.0424820">
        <ele>1291.5</ele>
        <time>2014-10-02T15:26:24Z</time>
      </trkpt>
      <trkpt lat="42.7088970" lon="-7.0424410">
        <ele>1291.8</ele>
        <time>2014-10-02T15:26:25Z</time>
      </trkpt>
      <trkpt lat="42.7089200" lon="-7.0424000">
        <ele>1292.0</ele>
        <time>2014-10-02T15:26:26Z</time>
      </trkpt>
      <trkpt lat="42.7089430" lon="-7.0423600">
        <ele>1292.3</ele>
        <time>2014-10-02T15:26:27Z</time>
      </trkpt>
      <trkpt lat="42.7089650" lon="-7.0423190">
        <ele>1292.5</ele>
        <time>2014-10-02T15:26:28Z</time>
      </trkpt>
      <trkpt lat="42.7089850" lon="-7.0422850">
        <ele>1292.7</ele>
        <time>2014-10-02T15:26:29Z</time>
      </trkpt>
      <trkpt lat="42.7090100" lon="-7.0422420">
        <ele>1292.9</ele>
        <time>2014-10-02T15:26:30Z</time>
      </trkpt>
      <trkpt lat="42.7090350" lon="-7.0421970">
        <ele>1293.2</ele>
        <time>2014-10-02T15:26:31Z</time>
      </trkpt>
      <trkpt lat="42.7090520" lon="-7.0421600">
        <ele>1293.3</ele>
        <time>2014-10-02T15:26:32Z</time>
      </trkpt>
      <trkpt lat="42.7090730" lon="-7.0421190">
        <ele>1293.5</ele>
        <time>2014-10-02T15:26:33Z</time>
      </trkpt>
      <trkpt lat="42.7090960" lon="-7.0420730">
        <ele>1293.7</ele>
        <time>2014-10-02T15:26:34Z</time>
      </trkpt>
      <trkpt lat="42.7091190" lon="-7.0420270">
        <ele>1293.9</ele>
        <time>2014-10-02T15:26:35Z</time>
      </trkpt>
      <trkpt lat="42.7091440" lon="-7.0419780">
        <ele>1294.1</ele>
        <time>2014-10-02T15:26:36Z</time>
      </trkpt>
      <trkpt lat="42.7091690" lon="-7.0419320">
        <ele>1294.3</ele>
        <time>2014-10-02T15:26:37Z</time>
      </trkpt>
      <trkpt lat="42.7091930" lon="-7.0418800">
        <ele>1294.4</ele>
        <time>2014-10-02T15:26:38Z</time>
      </trkpt>
      <trkpt lat="42.7092110" lon="-7.0418370">
        <ele>1294.6</ele>
        <time>2014-10-02T15:26:39Z</time>
      </trkpt>
      <trkpt lat="42.7092310" lon="-7.0417990">
        <ele>1294.7</ele>
        <time>2014-10-02T15:26:40Z</time>
      </trkpt>
      <trkpt lat="42.7092490" lon="-7.0417530">
        <ele>1294.8</ele>
        <time>2014-10-02T15:26:41Z</time>
      </trkpt>
      <trkpt lat="42.7092690" lon="-7.0417020">
        <ele>1294.9</ele>
        <time>2014-10-02T15:26:42Z</time>
      </trkpt>
      <trkpt lat="42.7092900" lon="-7.0416450">
        <ele>1295.1</ele>
        <time>2014-10-02T15:26:43Z</time>
      </trkpt>
      <trkpt lat="42.7093070" lon="-7.0415950">
        <ele>1295.2</ele>
        <time>2014-10-02T15:26:44Z</time>
      </trkpt>
      <trkpt lat="42.7093230" lon="-7.0415400">
        <ele>1295.2</ele>
        <time>2014-10-02T15:26:45Z</time>
      </trkpt>
      <trkpt lat="42.7093300" lon="-7.0414860">
        <ele>1295.4</ele>
        <time>2014-10-02T15:26:46Z</time>
      </trkpt>
      <trkpt lat="42.7093190" lon="-7.0414410">
        <ele>1295.5</ele>
        <time>2014-10-02T15:26:47Z</time>
      </trkpt>
      <trkpt lat="42.7092970" lon="-7.0414120">
        <ele>1295.6</ele>
        <time>2014-10-02T15:26:48Z</time>
      </trkpt>
      <trkpt lat="42.7092700" lon="-7.0414120">
        <ele>1295.6</ele>
        <time>2014-10-02T15:26:49Z</time>
      </trkpt>
      <trkpt lat="42.7092420" lon="-7.0414310">
        <ele>1295.7</ele>
        <time>2014-10-02T15:26:50Z</time>
      </trkpt>
      <trkpt lat="42.7091980" lon="-7.0414600">
        <ele>1296.4</ele>
        <time>2014-10-02T15:26:52Z</time>
      </trkpt>
      <trkpt lat="42.7091750" lon="-7.0414830">
        <ele>1296.5</ele>
        <time>2014-10-02T15:26:53Z</time>
      </trkpt>
      <trkpt lat="42.7091480" lon="-7.0415160">
        <ele>1296.6</ele>
        <time>2014-10-02T15:26:54Z</time>
      </trkpt>
      <trkpt lat="42.7091190" lon="-7.0415580">
        <ele>1296.8</ele>
        <time>2014-10-02T15:26:55Z</time>
      </trkpt>
      <trkpt lat="42.7090870" lon="-7.0416030">
        <ele>1297.0</ele>
        <time>2014-10-02T15:26:56Z</time>
      </trkpt>
      <trkpt lat="42.7090550" lon="-7.0416480">
        <ele>1297.2</ele>
        <time>2014-10-02T15:26:57Z</time>
      </trkpt>
      <trkpt lat="42.7090230" lon="-7.0416880">
        <ele>1297.3</ele>
        <time>2014-10-02T15:26:58Z</time>
      </trkpt>
      <trkpt lat="42.7089850" lon="-7.0417310">
        <ele>1297.5</ele>
        <time>2014-10-02T15:26:59Z</time>
      </trkpt>
      <trkpt lat="42.7089460" lon="-7.0417760">
        <ele>1297.7</ele>
        <time>2014-10-02T15:27:00Z</time>
      </trkpt>
      <trkpt lat="42.7089070" lon="-7.0418170">
        <ele>1297.8</ele>
        <time>2014-10-02T15:27:01Z</time>
      </trkpt>
      <trkpt lat="42.7088660" lon="-7.0418630">
        <ele>1297.9</ele>
        <time>2014-10-02T15:27:02Z</time>
      </trkpt>
      <trkpt lat="42.7088260" lon="-7.0419020">
        <ele>1298.0</ele>
        <time>2014-10-02T15:27:03Z</time>
      </trkpt>
      <trkpt lat="42.7087820" lon="-7.0419430">
        <ele>1298.0</ele>
        <time>2014-10-02T15:27:04Z</time>
      </trkpt>
      <trkpt lat="42.7087360" lon="-7.0419870">
        <ele>1298.1</ele>
        <time>2014-10-02T15:27:05Z</time>
      </trkpt>
      <trkpt lat="42.7086910" lon="-7.0420290">
        <ele>1298.1</ele>
        <time>2014-10-02T15:27:06Z</time>
      </trkpt>
      <trkpt lat="42.7086470" lon="-7.0420680">
        <ele>1298.2</ele>
        <time>2014-10-02T15:27:07Z</time>
      </trkpt>
      <trkpt lat="42.7086030" lon="-7.0421050">
        <ele>1298.3</ele>
        <time>2014-10-02T15:27:08Z</time>
      </trkpt>
      <trkpt lat="42.7085560" lon="-7.0421420">
        <ele>1298.3</ele>
        <time>2014-10-02T15:27:09Z</time>
      </trkpt>
      <trkpt lat="42.7085070" lon="-7.0421810">
        <ele>1298.3</ele>
        <time>2014-10-02T15:27:10Z</time>
      </trkpt>
      <trkpt lat="42.7084540" lon="-7.0422230">
        <ele>1298.2</ele>
        <time>2014-10-02T15:27:11Z</time>
      </trkpt>
      <trkpt lat="42.7083990" lon="-7.0422620">
        <ele>1298.1</ele>
        <time>2014-10-02T15:27:12Z</time>
      </trkpt>
      <trkpt lat="42.7083460" lon="-7.0422980">
        <ele>1298.1</ele>
        <time>2014-10-02T15:27:13Z</time>
      </trkpt>
      <trkpt lat="42.7082950" lon="-7.0423300">
        <ele>1298.0</ele>
        <time>2014-10-02T15:27:14Z</time>
      </trkpt>
      <trkpt lat="42.7082440" lon="-7.0423590">
        <ele>1298.0</ele>
        <time>2014-10-02T15:27:15Z</time>
      </trkpt>
      <trkpt lat="42.7081910" lon="-7.0423890">
        <ele>1298.0</ele>
        <time>2014-10-02T15:27:16Z</time>
      </trkpt>
      <trkpt lat="42.7081390" lon="-7.0424140">
        <ele>1298.0</ele>
        <time>2014-10-02T15:27:17Z</time>
      </trkpt>
      <trkpt lat="42.7080880" lon="-7.0424300">
        <ele>1298.1</ele>
        <time>2014-10-02T15:27:18Z</time>
      </trkpt>
      <trkpt lat="42.7080320" lon="-7.0424440">
        <ele>1298.1</ele>
        <time>2014-10-02T15:27:19Z</time>
      </trkpt>
      <trkpt lat="42.7079880" lon="-7.0424510">
        <ele>1298.2</ele>
        <time>2014-10-02T15:27:20Z</time>
      </trkpt>
      <trkpt lat="42.7079340" lon="-7.0424590">
        <ele>1298.2</ele>
        <time>2014-10-02T15:27:21Z</time>
      </trkpt>
      <trkpt lat="42.7078870" lon="-7.0424630">
        <ele>1298.1</ele>
        <time>2014-10-02T15:27:22Z</time>
      </trkpt>
      <trkpt lat="42.7078370" lon="-7.0424700">
        <ele>1298.0</ele>
        <time>2014-10-02T15:27:23Z</time>
      </trkpt>
      <trkpt lat="42.7077950" lon="-7.0424970">
        <ele>1297.9</ele>
        <time>2014-10-02T15:27:24Z</time>
      </trkpt>
      <trkpt lat="42.7077470" lon="-7.0425230">
        <ele>1297.7</ele>
        <time>2014-10-02T15:27:25Z</time>
      </trkpt>
      <trkpt lat="42.7077090" lon="-7.0425490">
        <ele>1297.0</ele>
        <time>2014-10-02T15:27:26Z</time>
      </trkpt>
      <trkpt lat="42.7076810" lon="-7.0425860">
        <ele>1296.9</ele>
        <time>2014-10-02T15:27:27Z</time>
      </trkpt>
      <trkpt lat="42.7076570" lon="-7.0426120">
        <ele>1296.9</ele>
        <time>2014-10-02T15:27:28Z</time>
      </trkpt>
      <trkpt lat="42.7076230" lon="-7.0426600">
        <ele>1296.5</ele>
        <time>2014-10-02T15:27:29Z</time>
      </trkpt>
      <trkpt lat="42.7075930" lon="-7.0427060">
        <ele>1296.5</ele>
        <time>2014-10-02T15:27:30Z</time>
      </trkpt>
      <trkpt lat="42.7075640" lon="-7.0427570">
        <ele>1295.9</ele>
        <time>2014-10-02T15:27:31Z</time>
      </trkpt>
      <trkpt lat="42.7075380" lon="-7.0428100">
        <ele>1295.8</ele>
        <time>2014-10-02T15:27:32Z</time>
      </trkpt>
      <trkpt lat="42.7075270" lon="-7.0428530">
        <ele>1295.6</ele>
        <time>2014-10-02T15:27:33Z</time>
      </trkpt>
      <trkpt lat="42.7075240" lon="-7.0429000">
        <ele>1295.6</ele>
        <time>2014-10-02T15:27:34Z</time>
      </trkpt>
      <trkpt lat="42.7075180" lon="-7.0429650">
        <ele>1295.6</ele>
        <time>2014-10-02T15:27:36Z</time>
      </trkpt>
      <trkpt lat="42.7074660" lon="-7.0430630">
        <ele>1295.6</ele>
        <time>2014-10-02T15:27:41Z</time>
      </trkpt>
      <trkpt lat="42.7074780" lon="-7.0430200">
        <ele>1295.6</ele>
        <time>2014-10-02T15:27:46Z</time>
      </trkpt>
      <trkpt lat="42.7075000" lon="-7.0429720">
        <ele>1295.6</ele>
        <time>2014-10-02T15:27:48Z</time>
      </trkpt>
      <trkpt lat="42.7075350" lon="-7.0429010">
        <ele>1295.6</ele>
        <time>2014-10-02T15:27:51Z</time>
      </trkpt>
      <trkpt lat="42.7075550" lon="-7.0428580">
        <ele>1295.6</ele>
        <time>2014-10-02T15:27:52Z</time>
      </trkpt>
      <trkpt lat="42.7075720" lon="-7.0428230">
        <ele>1295.7</ele>
        <time>2014-10-02T15:27:53Z</time>
      </trkpt>
      <trkpt lat="42.7076020" lon="-7.0427660">
        <ele>1296.0</ele>
        <time>2014-10-02T15:27:55Z</time>
      </trkpt>
      <trkpt lat="42.7076200" lon="-7.0427320">
        <ele>1296.1</ele>
        <time>2014-10-02T15:27:56Z</time>
      </trkpt>
      <trkpt lat="42.7076370" lon="-7.0427010">
        <ele>1296.3</ele>
        <time>2014-10-02T15:27:57Z</time>
      </trkpt>
      <trkpt lat="42.7076550" lon="-7.0426710">
        <ele>1296.4</ele>
        <time>2014-10-02T15:27:58Z</time>
      </trkpt>
      <trkpt lat="42.7076850" lon="-7.0426160">
        <ele>1296.7</ele>
        <time>2014-10-02T15:28:00Z</time>
      </trkpt>
      <trkpt lat="42.7077020" lon="-7.0425850">
        <ele>1296.8</ele>
        <time>2014-10-02T15:28:01Z</time>
      </trkpt>
      <trkpt lat="42.7077210" lon="-7.0425550">
        <ele>1297.0</ele>
        <time>2014-10-02T15:28:02Z</time>
      </trkpt>
      <trkpt lat="42.7077610" lon="-7.0425090">
        <ele>1297.2</ele>
        <time>2014-10-02T15:28:04Z</time>
      </trkpt>
      <trkpt lat="42.7078120" lon="-7.0424780">
        <ele>1297.5</ele>
        <time>2014-10-02T15:28:06Z</time>
      </trkpt>
      <trkpt lat="42.7078420" lon="-7.0424650">
        <ele>1297.7</ele>
        <time>2014-10-02T15:28:07Z</time>
      </trkpt>
      <trkpt lat="42.7078710" lon="-7.0424510">
        <ele>1298.0</ele>
        <time>2014-10-02T15:28:08Z</time>
      </trkpt>
      <trkpt lat="42.7079020" lon="-7.0424390">
        <ele>1298.3</ele>
        <time>2014-10-02T15:28:09Z</time>
      </trkpt>
      <trkpt lat="42.7079250" lon="-7.0424170">
        <ele>1298.7</ele>
        <time>2014-10-02T15:28:10Z</time>
      </trkpt>
      <trkpt lat="42.7079480" lon="-7.0423950">
        <ele>1299.0</ele>
        <time>2014-10-02T15:28:11Z</time>
      </trkpt>
      <trkpt lat="42.7079630" lon="-7.0423450">
        <ele>1299.5</ele>
        <time>2014-10-02T15:28:13Z</time>
      </trkpt>
      <trkpt lat="42.7079650" lon="-7.0422740">
        <ele>1300.0</ele>
        <time>2014-10-02T15:28:15Z</time>
      </trkpt>
      <trkpt lat="42.7079670" lon="-7.0422370">
        <ele>1300.3</ele>
        <time>2014-10-02T15:28:16Z</time>
      </trkpt>
      <trkpt lat="42.7079700" lon="-7.0421980">
        <ele>1300.4</ele>
        <time>2014-10-02T15:28:17Z</time>
      </trkpt>
      <trkpt lat="42.7079740" lon="-7.0421600">
        <ele>1300.7</ele>
        <time>2014-10-02T15:28:18Z</time>
      </trkpt>
      <trkpt lat="42.7079790" lon="-7.0421220">
        <ele>1301.0</ele>
        <time>2014-10-02T15:28:19Z</time>
      </trkpt>
      <trkpt lat="42.7079900" lon="-7.0420520">
        <ele>1301.5</ele>
        <time>2014-10-02T15:28:21Z</time>
      </trkpt>
      <trkpt lat="42.7079960" lon="-7.0420150">
        <ele>1301.7</ele>
        <time>2014-10-02T15:28:22Z</time>
      </trkpt>
      <trkpt lat="42.7080030" lon="-7.0419760">
        <ele>1301.9</ele>
        <time>2014-10-02T15:28:23Z</time>
      </trkpt>
      <trkpt lat="42.7080180" lon="-7.0418990">
        <ele>1302.4</ele>
        <time>2014-10-02T15:28:25Z</time>
      </trkpt>
      <trkpt lat="42.7080270" lon="-7.0418620">
        <ele>1302.6</ele>
        <time>2014-10-02T15:28:26Z</time>
      </trkpt>
      <trkpt lat="42.7080400" lon="-7.0418020">
        <ele>1303.0</ele>
        <time>2014-10-02T15:28:28Z</time>
      </trkpt>
      <trkpt lat="42.7080510" lon="-7.0417320">
        <ele>1303.4</ele>
        <time>2014-10-02T15:28:30Z</time>
      </trkpt>
      <trkpt lat="42.7080590" lon="-7.0416910">
        <ele>1303.6</ele>
        <time>2014-10-02T15:28:31Z</time>
      </trkpt>
      <trkpt lat="42.7080670" lon="-7.0416510">
        <ele>1303.8</ele>
        <time>2014-10-02T15:28:32Z</time>
      </trkpt>
      <trkpt lat="42.7080790" lon="-7.0416120">
        <ele>1304.0</ele>
        <time>2014-10-02T15:28:33Z</time>
      </trkpt>
      <trkpt lat="42.7080890" lon="-7.0415670">
        <ele>1304.2</ele>
        <time>2014-10-02T15:28:34Z</time>
      </trkpt>
      <trkpt lat="42.7080980" lon="-7.0415250">
        <ele>1304.5</ele>
        <time>2014-10-02T15:28:35Z</time>
      </trkpt>
      <trkpt lat="42.7081080" lon="-7.0414760">
        <ele>1304.7</ele>
        <time>2014-10-02T15:28:36Z</time>
      </trkpt>
      <trkpt lat="42.7081170" lon="-7.0414240">
        <ele>1305.0</ele>
        <time>2014-10-02T15:28:37Z</time>
      </trkpt>
      <trkpt lat="42.7081240" lon="-7.0413820">
        <ele>1305.2</ele>
        <time>2014-10-02T15:28:38Z</time>
      </trkpt>
      <trkpt lat="42.7081300" lon="-7.0413370">
        <ele>1305.5</ele>
        <time>2014-10-02T15:28:39Z</time>
      </trkpt>
      <trkpt lat="42.7081350" lon="-7.0412860">
        <ele>1305.8</ele>
        <time>2014-10-02T15:28:40Z</time>
      </trkpt>
      <trkpt lat="42.7081370" lon="-7.0412470">
        <ele>1306.0</ele>
        <time>2014-10-02T15:28:41Z</time>
      </trkpt>
      <trkpt lat="42.7081400" lon="-7.0411990">
        <ele>1306.2</ele>
        <time>2014-10-02T15:28:42Z</time>
      </trkpt>
      <trkpt lat="42.7081420" lon="-7.0411570">
        <ele>1306.5</ele>
        <time>2014-10-02T15:28:43Z</time>
      </trkpt>
      <trkpt lat="42.7081450" lon="-7.0411050">
        <ele>1306.8</ele>
        <time>2014-10-02T15:28:45Z</time>
      </trkpt>
      <trkpt lat="42.7081500" lon="-7.0410540">
        <ele>1307.0</ele>
        <time>2014-10-02T15:28:46Z</time>
      </trkpt>
      <trkpt lat="42.7081550" lon="-7.0410050">
        <ele>1307.3</ele>
        <time>2014-10-02T15:28:47Z</time>
      </trkpt>
      <trkpt lat="42.7081600" lon="-7.0409550">
        <ele>1307.6</ele>
        <time>2014-10-02T15:28:48Z</time>
      </trkpt>
      <trkpt lat="42.7081650" lon="-7.0409080">
        <ele>1307.9</ele>
        <time>2014-10-02T15:28:49Z</time>
      </trkpt>
      <trkpt lat="42.7081680" lon="-7.0408650">
        <ele>1308.1</ele>
        <time>2014-10-02T15:28:50Z</time>
      </trkpt>
      <trkpt lat="42.7081730" lon="-7.0407980">
        <ele>1308.4</ele>
        <time>2014-10-02T15:28:52Z</time>
      </trkpt>
      <trkpt lat="42.7081800" lon="-7.0407400">
        <ele>1308.7</ele>
        <time>2014-10-02T15:28:54Z</time>
      </trkpt>
      <trkpt lat="42.7081970" lon="-7.0406610">
        <ele>1308.9</ele>
        <time>2014-10-02T15:28:56Z</time>
      </trkpt>
      <trkpt lat="42.7082110" lon="-7.0406080">
        <ele>1309.0</ele>
        <time>2014-10-02T15:28:57Z</time>
      </trkpt>
      <trkpt lat="42.7082270" lon="-7.0405630">
        <ele>1309.1</ele>
        <time>2014-10-02T15:28:58Z</time>
      </trkpt>
      <trkpt lat="42.7082410" lon="-7.0405200">
        <ele>1309.2</ele>
        <time>2014-10-02T15:28:59Z</time>
      </trkpt>
      <trkpt lat="42.7082570" lon="-7.0404740">
        <ele>1309.3</ele>
        <time>2014-10-02T15:29:00Z</time>
      </trkpt>
      <trkpt lat="42.7082710" lon="-7.0404370">
        <ele>1309.3</ele>
        <time>2014-10-02T15:29:01Z</time>
      </trkpt>
      <trkpt lat="42.7082910" lon="-7.0403890">
        <ele>1309.4</ele>
        <time>2014-10-02T15:29:02Z</time>
      </trkpt>
      <trkpt lat="42.7083160" lon="-7.0403330">
        <ele>1309.4</ele>
        <time>2014-10-02T15:29:03Z</time>
      </trkpt>
      <trkpt lat="42.7083380" lon="-7.0402810">
        <ele>1309.4</ele>
        <time>2014-10-02T15:29:04Z</time>
      </trkpt>
      <trkpt lat="42.7083600" lon="-7.0402240">
        <ele>1309.5</ele>
        <time>2014-10-02T15:29:05Z</time>
      </trkpt>
      <trkpt lat="42.7083790" lon="-7.0401670">
        <ele>1309.5</ele>
        <time>2014-10-02T15:29:06Z</time>
      </trkpt>
      <trkpt lat="42.7083960" lon="-7.0401150">
        <ele>1309.5</ele>
        <time>2014-10-02T15:29:07Z</time>
      </trkpt>
      <trkpt lat="42.7084150" lon="-7.0400590">
        <ele>1309.5</ele>
        <time>2014-10-02T15:29:08Z</time>
      </trkpt>
      <trkpt lat="42.7084330" lon="-7.0400040">
        <ele>1309.5</ele>
        <time>2014-10-02T15:29:09Z</time>
      </trkpt>
      <trkpt lat="42.7084510" lon="-7.0399390">
        <ele>1309.6</ele>
        <time>2014-10-02T15:29:10Z</time>
      </trkpt>
      <trkpt lat="42.7084640" lon="-7.0398840">
        <ele>1309.6</ele>
        <time>2014-10-02T15:29:11Z</time>
      </trkpt>
      <trkpt lat="42.7084760" lon="-7.0398220">
        <ele>1309.6</ele>
        <time>2014-10-02T15:29:12Z</time>
      </trkpt>
      <trkpt lat="42.7084890" lon="-7.0397510">
        <ele>1309.7</ele>
        <time>2014-10-02T15:29:13Z</time>
      </trkpt>
      <trkpt lat="42.7085010" lon="-7.0396790">
        <ele>1309.7</ele>
        <time>2014-10-02T15:29:14Z</time>
      </trkpt>
      <trkpt lat="42.7085160" lon="-7.0396050">
        <ele>1309.7</ele>
        <time>2014-10-02T15:29:15Z</time>
      </trkpt>
      <trkpt lat="42.7085290" lon="-7.0395370">
        <ele>1309.7</ele>
        <time>2014-10-02T15:29:16Z</time>
      </trkpt>
      <trkpt lat="42.7085440" lon="-7.0394660">
        <ele>1309.7</ele>
        <time>2014-10-02T15:29:17Z</time>
      </trkpt>
      <trkpt lat="42.7085600" lon="-7.0393920">
        <ele>1309.7</ele>
        <time>2014-10-02T15:29:18Z</time>
      </trkpt>
      <trkpt lat="42.7085740" lon="-7.0393220">
        <ele>1309.7</ele>
        <time>2014-10-02T15:29:19Z</time>
      </trkpt>
      <trkpt lat="42.7085870" lon="-7.0392560">
        <ele>1309.7</ele>
        <time>2014-10-02T15:29:20Z</time>
      </trkpt>
      <trkpt lat="42.7086010" lon="-7.0391790">
        <ele>1309.7</ele>
        <time>2014-10-02T15:29:21Z</time>
      </trkpt>
      <trkpt lat="42.7086140" lon="-7.0391040">
        <ele>1309.7</ele>
        <time>2014-10-02T15:29:22Z</time>
      </trkpt>
      <trkpt lat="42.7086290" lon="-7.0390240">
        <ele>1309.7</ele>
        <time>2014-10-02T15:29:23Z</time>
      </trkpt>
      <trkpt lat="42.7086410" lon="-7.0389540">
        <ele>1309.7</ele>
        <time>2014-10-02T15:29:24Z</time>
      </trkpt>
      <trkpt lat="42.7086530" lon="-7.0388840">
        <ele>1309.7</ele>
        <time>2014-10-02T15:29:25Z</time>
      </trkpt>
      <trkpt lat="42.7086660" lon="-7.0388130">
        <ele>1309.7</ele>
        <time>2014-10-02T15:29:26Z</time>
      </trkpt>
      <trkpt lat="42.7086810" lon="-7.0387440">
        <ele>1309.7</ele>
        <time>2014-10-02T15:29:27Z</time>
      </trkpt>
      <trkpt lat="42.7086970" lon="-7.0386750">
        <ele>1309.7</ele>
        <time>2014-10-02T15:29:28Z</time>
      </trkpt>
      <trkpt lat="42.7087120" lon="-7.0386070">
        <ele>1309.7</ele>
        <time>2014-10-02T15:29:29Z</time>
      </trkpt>
      <trkpt lat="42.7087290" lon="-7.0385290">
        <ele>1309.8</ele>
        <time>2014-10-02T15:29:30Z</time>
      </trkpt>
      <trkpt lat="42.7087450" lon="-7.0384570">
        <ele>1309.8</ele>
        <time>2014-10-02T15:29:31Z</time>
      </trkpt>
      <trkpt lat="42.7087600" lon="-7.0383850">
        <ele>1309.8</ele>
        <time>2014-10-02T15:29:32Z</time>
      </trkpt>
      <trkpt lat="42.7087750" lon="-7.0383170">
        <ele>1309.8</ele>
        <time>2014-10-02T15:29:33Z</time>
      </trkpt>
      <trkpt lat="42.7087890" lon="-7.0382500">
        <ele>1309.8</ele>
        <time>2014-10-02T15:29:34Z</time>
      </trkpt>
      <trkpt lat="42.7088000" lon="-7.0381830">
        <ele>1309.8</ele>
        <time>2014-10-02T15:29:35Z</time>
      </trkpt>
      <trkpt lat="42.7088080" lon="-7.0381220">
        <ele>1309.7</ele>
        <time>2014-10-02T15:29:36Z</time>
      </trkpt>
      <trkpt lat="42.7088170" lon="-7.0380590">
        <ele>1309.6</ele>
        <time>2014-10-02T15:29:37Z</time>
      </trkpt>
      <trkpt lat="42.7088260" lon="-7.0379880">
        <ele>1309.4</ele>
        <time>2014-10-02T15:29:38Z</time>
      </trkpt>
      <trkpt lat="42.7088360" lon="-7.0379160">
        <ele>1309.2</ele>
        <time>2014-10-02T15:29:39Z</time>
      </trkpt>
      <trkpt lat="42.7088450" lon="-7.0378410">
        <ele>1309.1</ele>
        <time>2014-10-02T15:29:40Z</time>
      </trkpt>
      <trkpt lat="42.7088540" lon="-7.0377650">
        <ele>1308.9</ele>
        <time>2014-10-02T15:29:41Z</time>
      </trkpt>
      <trkpt lat="42.7088610" lon="-7.0376840">
        <ele>1308.7</ele>
        <time>2014-10-02T15:29:42Z</time>
      </trkpt>
      <trkpt lat="42.7088680" lon="-7.0375970">
        <ele>1308.5</ele>
        <time>2014-10-02T15:29:43Z</time>
      </trkpt>
      <trkpt lat="42.7088740" lon="-7.0375070">
        <ele>1308.3</ele>
        <time>2014-10-02T15:29:44Z</time>
      </trkpt>
      <trkpt lat="42.7088790" lon="-7.0374190">
        <ele>1308.1</ele>
        <time>2014-10-02T15:29:45Z</time>
      </trkpt>
      <trkpt lat="42.7088850" lon="-7.0373260">
        <ele>1307.8</ele>
        <time>2014-10-02T15:29:46Z</time>
      </trkpt>
      <trkpt lat="42.7088890" lon="-7.0372380">
        <ele>1307.6</ele>
        <time>2014-10-02T15:29:47Z</time>
      </trkpt>
      <trkpt lat="42.7088900" lon="-7.0371720">
        <ele>1307.4</ele>
        <time>2014-10-02T15:29:48Z</time>
      </trkpt>
      <trkpt lat="42.7088890" lon="-7.0371120">
        <ele>1307.3</ele>
        <time>2014-10-02T15:29:49Z</time>
      </trkpt>
      <trkpt lat="42.7088900" lon="-7.0370400">
        <ele>1307.1</ele>
        <time>2014-10-02T15:29:50Z</time>
      </trkpt>
      <trkpt lat="42.7088880" lon="-7.0369630">
        <ele>1306.8</ele>
        <time>2014-10-02T15:29:51Z</time>
      </trkpt>
      <trkpt lat="42.7088830" lon="-7.0368830">
        <ele>1306.5</ele>
        <time>2014-10-02T15:29:52Z</time>
      </trkpt>
      <trkpt lat="42.7088720" lon="-7.0368070">
        <ele>1306.3</ele>
        <time>2014-10-02T15:29:53Z</time>
      </trkpt>
      <trkpt lat="42.7088560" lon="-7.0367350">
        <ele>1306.0</ele>
        <time>2014-10-02T15:29:54Z</time>
      </trkpt>
      <trkpt lat="42.7088360" lon="-7.0366500">
        <ele>1305.6</ele>
        <time>2014-10-02T15:29:55Z</time>
      </trkpt>
      <trkpt lat="42.7088160" lon="-7.0365640">
        <ele>1305.1</ele>
        <time>2014-10-02T15:29:56Z</time>
      </trkpt>
      <trkpt lat="42.7087960" lon="-7.0364770">
        <ele>1304.6</ele>
        <time>2014-10-02T15:29:57Z</time>
      </trkpt>
      <trkpt lat="42.7087780" lon="-7.0363950">
        <ele>1304.1</ele>
        <time>2014-10-02T15:29:58Z</time>
      </trkpt>
      <trkpt lat="42.7087590" lon="-7.0363090">
        <ele>1303.5</ele>
        <time>2014-10-02T15:29:59Z</time>
      </trkpt>
      <trkpt lat="42.7087390" lon="-7.0362230">
        <ele>1302.8</ele>
        <time>2014-10-02T15:30:00Z</time>
      </trkpt>
      <trkpt lat="42.7087220" lon="-7.0361320">
        <ele>1302.0</ele>
        <time>2014-10-02T15:30:01Z</time>
      </trkpt>
      <trkpt lat="42.7087070" lon="-7.0360390">
        <ele>1301.1</ele>
        <time>2014-10-02T15:30:02Z</time>
      </trkpt>
      <trkpt lat="42.7086920" lon="-7.0359330">
        <ele>1300.1</ele>
        <time>2014-10-02T15:30:03Z</time>
      </trkpt>
      <trkpt lat="42.7086800" lon="-7.0358200">
        <ele>1299.0</ele>
        <time>2014-10-02T15:30:04Z</time>
      </trkpt>
      <trkpt lat="42.7086680" lon="-7.0356970">
        <ele>1297.8</ele>
        <time>2014-10-02T15:30:05Z</time>
      </trkpt>
      <trkpt lat="42.7086560" lon="-7.0355740">
        <ele>1296.7</ele>
        <time>2014-10-02T15:30:06Z</time>
      </trkpt>
      <trkpt lat="42.7086430" lon="-7.0354470">
        <ele>1295.7</ele>
        <time>2014-10-02T15:30:07Z</time>
      </trkpt>
      <trkpt lat="42.7086270" lon="-7.0353240">
        <ele>1294.8</ele>
        <time>2014-10-02T15:30:08Z</time>
      </trkpt>
      <trkpt lat="42.7086040" lon="-7.0351990">
        <ele>1294.0</ele>
        <time>2014-10-02T15:30:09Z</time>
      </trkpt>
      <trkpt lat="42.7085750" lon="-7.0350740">
        <ele>1293.1</ele>
        <time>2014-10-02T15:30:10Z</time>
      </trkpt>
      <trkpt lat="42.7085410" lon="-7.0349510">
        <ele>1292.2</ele>
        <time>2014-10-02T15:30:11Z</time>
      </trkpt>
      <trkpt lat="42.7085060" lon="-7.0348380">
        <ele>1291.2</ele>
        <time>2014-10-02T15:30:12Z</time>
      </trkpt>
      <trkpt lat="42.7084750" lon="-7.0347410">
        <ele>1290.2</ele>
        <time>2014-10-02T15:30:13Z</time>
      </trkpt>
      <trkpt lat="42.7084490" lon="-7.0346440">
        <ele>1289.2</ele>
        <time>2014-10-02T15:30:14Z</time>
      </trkpt>
      <trkpt lat="42.7084240" lon="-7.0345440">
        <ele>1288.1</ele>
        <time>2014-10-02T15:30:15Z</time>
      </trkpt>
      <trkpt lat="42.7083970" lon="-7.0344340">
        <ele>1287.0</ele>
        <time>2014-10-02T15:30:16Z</time>
      </trkpt>
      <trkpt lat="42.7083750" lon="-7.0343350">
        <ele>1286.0</ele>
        <time>2014-10-02T15:30:17Z</time>
      </trkpt>
      <trkpt lat="42.7083540" lon="-7.0342390">
        <ele>1285.1</ele>
        <time>2014-10-02T15:30:18Z</time>
      </trkpt>
      <trkpt lat="42.7083330" lon="-7.0341470">
        <ele>1284.3</ele>
        <time>2014-10-02T15:30:19Z</time>
      </trkpt>
      <trkpt lat="42.7083090" lon="-7.0340600">
        <ele>1283.5</ele>
        <time>2014-10-02T15:30:20Z</time>
      </trkpt>
      <trkpt lat="42.7082810" lon="-7.0339660">
        <ele>1282.7</ele>
        <time>2014-10-02T15:30:21Z</time>
      </trkpt>
      <trkpt lat="42.7082520" lon="-7.0338750">
        <ele>1281.9</ele>
        <time>2014-10-02T15:30:22Z</time>
      </trkpt>
      <trkpt lat="42.7082210" lon="-7.0337870">
        <ele>1281.2</ele>
        <time>2014-10-02T15:30:23Z</time>
      </trkpt>
      <trkpt lat="42.7081900" lon="-7.0337070">
        <ele>1280.5</ele>
        <time>2014-10-02T15:30:24Z</time>
      </trkpt>
      <trkpt lat="42.7081570" lon="-7.0336260">
        <ele>1279.7</ele>
        <time>2014-10-02T15:30:25Z</time>
      </trkpt>
      <trkpt lat="42.7081210" lon="-7.0335410">
        <ele>1278.9</ele>
        <time>2014-10-02T15:30:26Z</time>
      </trkpt>
      <trkpt lat="42.7080810" lon="-7.0334570">
        <ele>1278.0</ele>
        <time>2014-10-02T15:30:27Z</time>
      </trkpt>
      <trkpt lat="42.7080410" lon="-7.0333750">
        <ele>1277.1</ele>
        <time>2014-10-02T15:30:28Z</time>
      </trkpt>
      <trkpt lat="42.7079980" lon="-7.0332930">
        <ele>1276.2</ele>
        <time>2014-10-02T15:30:29Z</time>
      </trkpt>
      <trkpt lat="42.7079530" lon="-7.0332100">
        <ele>1275.2</ele>
        <time>2014-10-02T15:30:30Z</time>
      </trkpt>
      <trkpt lat="42.7079080" lon="-7.0331330">
        <ele>1274.2</ele>
        <time>2014-10-02T15:30:31Z</time>
      </trkpt>
      <trkpt lat="42.7078630" lon="-7.0330510">
        <ele>1273.2</ele>
        <time>2014-10-02T15:30:32Z</time>
      </trkpt>
      <trkpt lat="42.7078080" lon="-7.0329590">
        <ele>1272.2</ele>
        <time>2014-10-02T15:30:33Z</time>
      </trkpt>
      <trkpt lat="42.7077460" lon="-7.0328600">
        <ele>1271.2</ele>
        <time>2014-10-02T15:30:34Z</time>
      </trkpt>
      <trkpt lat="42.7076790" lon="-7.0327580">
        <ele>1270.2</ele>
        <time>2014-10-02T15:30:35Z</time>
      </trkpt>
      <trkpt lat="42.7076110" lon="-7.0326640">
        <ele>1269.4</ele>
        <time>2014-10-02T15:30:36Z</time>
      </trkpt>
      <trkpt lat="42.7075400" lon="-7.0325800">
        <ele>1268.5</ele>
        <time>2014-10-02T15:30:37Z</time>
      </trkpt>
      <trkpt lat="42.7074700" lon="-7.0325060">
        <ele>1267.7</ele>
        <time>2014-10-02T15:30:38Z</time>
      </trkpt>
      <trkpt lat="42.7074010" lon="-7.0324450">
        <ele>1267.0</ele>
        <time>2014-10-02T15:30:39Z</time>
      </trkpt>
      <trkpt lat="42.7073330" lon="-7.0323950">
        <ele>1266.4</ele>
        <time>2014-10-02T15:30:40Z</time>
      </trkpt>
      <trkpt lat="42.7072630" lon="-7.0323510">
        <ele>1265.8</ele>
        <time>2014-10-02T15:30:41Z</time>
      </trkpt>
      <trkpt lat="42.7071920" lon="-7.0323110">
        <ele>1265.2</ele>
        <time>2014-10-02T15:30:42Z</time>
      </trkpt>
      <trkpt lat="42.7071170" lon="-7.0322670">
        <ele>1264.5</ele>
        <time>2014-10-02T15:30:43Z</time>
      </trkpt>
      <trkpt lat="42.7070330" lon="-7.0322170">
        <ele>1263.8</ele>
        <time>2014-10-02T15:30:44Z</time>
      </trkpt>
      <trkpt lat="42.7069500" lon="-7.0321580">
        <ele>1263.2</ele>
        <time>2014-10-02T15:30:45Z</time>
      </trkpt>
      <trkpt lat="42.7068640" lon="-7.0320810">
        <ele>1262.5</ele>
        <time>2014-10-02T15:30:46Z</time>
      </trkpt>
      <trkpt lat="42.7067820" lon="-7.0320000">
        <ele>1262.1</ele>
        <time>2014-10-02T15:30:47Z</time>
      </trkpt>
      <trkpt lat="42.7067080" lon="-7.0319160">
        <ele>1261.7</ele>
        <time>2014-10-02T15:30:48Z</time>
      </trkpt>
      <trkpt lat="42.7066390" lon="-7.0318330">
        <ele>1261.2</ele>
        <time>2014-10-02T15:30:49Z</time>
      </trkpt>
      <trkpt lat="42.7065760" lon="-7.0317540">
        <ele>1260.7</ele>
        <time>2014-10-02T15:30:50Z</time>
      </trkpt>
      <trkpt lat="42.7065150" lon="-7.0316650">
        <ele>1260.0</ele>
        <time>2014-10-02T15:30:51Z</time>
      </trkpt>
      <trkpt lat="42.7064620" lon="-7.0315740">
        <ele>1259.3</ele>
        <time>2014-10-02T15:30:52Z</time>
      </trkpt>
      <trkpt lat="42.7064130" lon="-7.0314790">
        <ele>1258.6</ele>
        <time>2014-10-02T15:30:53Z</time>
      </trkpt>
      <trkpt lat="42.7063670" lon="-7.0313780">
        <ele>1257.9</ele>
        <time>2014-10-02T15:30:54Z</time>
      </trkpt>
      <trkpt lat="42.7063280" lon="-7.0312790">
        <ele>1257.3</ele>
        <time>2014-10-02T15:30:55Z</time>
      </trkpt>
      <trkpt lat="42.7063070" lon="-7.0311700">
        <ele>1256.7</ele>
        <time>2014-10-02T15:30:56Z</time>
      </trkpt>
      <trkpt lat="42.7062910" lon="-7.0310700">
        <ele>1256.1</ele>
        <time>2014-10-02T15:30:57Z</time>
      </trkpt>
      <trkpt lat="42.7062800" lon="-7.0309740">
        <ele>1255.6</ele>
        <time>2014-10-02T15:30:58Z</time>
      </trkpt>
      <trkpt lat="42.7062760" lon="-7.0308930">
        <ele>1255.3</ele>
        <time>2014-10-02T15:30:59Z</time>
      </trkpt>
      <trkpt lat="42.7062750" lon="-7.0308160">
        <ele>1254.9</ele>
        <time>2014-10-02T15:31:00Z</time>
      </trkpt>
      <trkpt lat="42.7062850" lon="-7.0307470">
        <ele>1254.6</ele>
        <time>2014-10-02T15:31:01Z</time>
      </trkpt>
      <trkpt lat="42.7063000" lon="-7.0306870">
        <ele>1254.3</ele>
        <time>2014-10-02T15:31:02Z</time>
      </trkpt>
      <trkpt lat="42.7063260" lon="-7.0306290">
        <ele>1254.0</ele>
        <time>2014-10-02T15:31:03Z</time>
      </trkpt>
      <trkpt lat="42.7063580" lon="-7.0305640">
        <ele>1253.5</ele>
        <time>2014-10-02T15:31:04Z</time>
      </trkpt>
      <trkpt lat="42.7064170" lon="-7.0304780">
        <ele>1252.7</ele>
        <time>2014-10-02T15:31:05Z</time>
      </trkpt>
      <trkpt lat="42.7064790" lon="-7.0304000">
        <ele>1251.9</ele>
        <time>2014-10-02T15:31:06Z</time>
      </trkpt>
      <trkpt lat="42.7065360" lon="-7.0303450">
        <ele>1251.2</ele>
        <time>2014-10-02T15:31:07Z</time>
      </trkpt>
      <trkpt lat="42.7065850" lon="-7.0303050">
        <ele>1250.6</ele>
        <time>2014-10-02T15:31:08Z</time>
      </trkpt>
      <trkpt lat="42.7066270" lon="-7.0302730">
        <ele>1250.1</ele>
        <time>2014-10-02T15:31:09Z</time>
      </trkpt>
      <trkpt lat="42.7066640" lon="-7.0302480">
        <ele>1249.6</ele>
        <time>2014-10-02T15:31:10Z</time>
      </trkpt>
      <trkpt lat="42.7066900" lon="-7.0302320">
        <ele>1249.3</ele>
        <time>2014-10-02T15:31:11Z</time>
      </trkpt>
      <trkpt lat="42.7067240" lon="-7.0302150">
        <ele>1248.9</ele>
        <time>2014-10-02T15:31:13Z</time>
      </trkpt>
      <trkpt lat="42.7067950" lon="-7.0303010">
        <ele>1247.7</ele>
        <time>2014-10-02T15:31:32Z</time>
      </trkpt>
      <trkpt lat="42.7068110" lon="-7.0302820">
        <ele>1247.4</ele>
        <time>2014-10-02T15:31:59Z</time>
      </trkpt>
      <trkpt lat="42.7068280" lon="-7.0302620">
        <ele>1247.1</ele>
        <time>2014-10-02T15:32:15Z</time>
      </trkpt>
      <trkpt lat="42.7068440" lon="-7.0302430">
        <ele>1246.9</ele>
        <time>2014-10-02T15:32:19Z</time>
      </trkpt>
      <trkpt lat="42.7068610" lon="-7.0302230">
        <ele>1246.6</ele>
        <time>2014-10-02T15:32:20Z</time>
      </trkpt>
      <trkpt lat="42.7069050" lon="-7.0301890">
        <ele>1245.9</ele>
        <time>2014-10-02T15:32:21Z</time>
      </trkpt>
      <trkpt lat="42.7069560" lon="-7.0301450">
        <ele>1245.1</ele>
        <time>2014-10-02T15:32:22Z</time>
      </trkpt>
      <trkpt lat="42.7070040" lon="-7.0300700">
        <ele>1244.1</ele>
        <time>2014-10-02T15:32:23Z</time>
      </trkpt>
      <trkpt lat="42.7070390" lon="-7.0299740">
        <ele>1243.1</ele>
        <time>2014-10-02T15:32:24Z</time>
      </trkpt>
      <trkpt lat="42.7070600" lon="-7.0298610">
        <ele>1242.2</ele>
        <time>2014-10-02T15:32:25Z</time>
      </trkpt>
      <trkpt lat="42.7070590" lon="-7.0297520">
        <ele>1241.4</ele>
        <time>2014-10-02T15:32:26Z</time>
      </trkpt>
      <trkpt lat="42.7070470" lon="-7.0296270">
        <ele>1240.6</ele>
        <time>2014-10-02T15:32:27Z</time>
      </trkpt>
      <trkpt lat="42.7070090" lon="-7.0295060">
        <ele>1239.7</ele>
        <time>2014-10-02T15:32:28Z</time>
      </trkpt>
      <trkpt lat="42.7069660" lon="-7.0293870">
        <ele>1238.8</ele>
        <time>2014-10-02T15:32:29Z</time>
      </trkpt>
      <trkpt lat="42.7069140" lon="-7.0292680">
        <ele>1237.7</ele>
        <time>2014-10-02T15:32:30Z</time>
      </trkpt>
      <trkpt lat="42.7068510" lon="-7.0291520">
        <ele>1236.7</ele>
        <time>2014-10-02T15:32:31Z</time>
      </trkpt>
      <trkpt lat="42.7067860" lon="-7.0290440">
        <ele>1235.6</ele>
        <time>2014-10-02T15:32:32Z</time>
      </trkpt>
      <trkpt lat="42.7067200" lon="-7.0289350">
        <ele>1234.7</ele>
        <time>2014-10-02T15:32:33Z</time>
      </trkpt>
      <trkpt lat="42.7066560" lon="-7.0288300">
        <ele>1233.8</ele>
        <time>2014-10-02T15:32:34Z</time>
      </trkpt>
      <trkpt lat="42.7065930" lon="-7.0287170">
        <ele>1233.0</ele>
        <time>2014-10-02T15:32:35Z</time>
      </trkpt>
      <trkpt lat="42.7065350" lon="-7.0286000">
        <ele>1232.2</ele>
        <time>2014-10-02T15:32:36Z</time>
      </trkpt>
      <trkpt lat="42.7064750" lon="-7.0284670">
        <ele>1231.3</ele>
        <time>2014-10-02T15:32:37Z</time>
      </trkpt>
      <trkpt lat="42.7064160" lon="-7.0283320">
        <ele>1230.4</ele>
        <time>2014-10-02T15:32:38Z</time>
      </trkpt>
      <trkpt lat="42.7063610" lon="-7.0281950">
        <ele>1229.6</ele>
        <time>2014-10-02T15:32:39Z</time>
      </trkpt>
      <trkpt lat="42.7063060" lon="-7.0280560">
        <ele>1228.8</ele>
        <time>2014-10-02T15:32:40Z</time>
      </trkpt>
      <trkpt lat="42.7062520" lon="-7.0279170">
        <ele>1228.0</ele>
        <time>2014-10-02T15:32:41Z</time>
      </trkpt>
      <trkpt lat="42.7062000" lon="-7.0277810">
        <ele>1227.0</ele>
        <time>2014-10-02T15:32:42Z</time>
      </trkpt>
      <trkpt lat="42.7061500" lon="-7.0276420">
        <ele>1225.9</ele>
        <time>2014-10-02T15:32:43Z</time>
      </trkpt>
      <trkpt lat="42.7061000" lon="-7.0275010">
        <ele>1224.7</ele>
        <time>2014-10-02T15:32:44Z</time>
      </trkpt>
      <trkpt lat="42.7060590" lon="-7.0273730">
        <ele>1223.5</ele>
        <time>2014-10-02T15:32:45Z</time>
      </trkpt>
      <trkpt lat="42.7060220" lon="-7.0272480">
        <ele>1222.3</ele>
        <time>2014-10-02T15:32:46Z</time>
      </trkpt>
      <trkpt lat="42.7059890" lon="-7.0271210">
        <ele>1221.1</ele>
        <time>2014-10-02T15:32:47Z</time>
      </trkpt>
      <trkpt lat="42.7059770" lon="-7.0269890">
        <ele>1219.9</ele>
        <time>2014-10-02T15:32:48Z</time>
      </trkpt>
      <trkpt lat="42.7059720" lon="-7.0268530">
        <ele>1218.6</ele>
        <time>2014-10-02T15:32:49Z</time>
      </trkpt>
      <trkpt lat="42.7059890" lon="-7.0267200">
        <ele>1217.3</ele>
        <time>2014-10-02T15:32:50Z</time>
      </trkpt>
      <trkpt lat="42.7060050" lon="-7.0265870">
        <ele>1216.2</ele>
        <time>2014-10-02T15:32:51Z</time>
      </trkpt>
      <trkpt lat="42.7059840" lon="-7.0264750">
        <ele>1215.3</ele>
        <time>2014-10-02T15:32:52Z</time>
      </trkpt>
      <trkpt lat="42.7059390" lon="-7.0263820">
        <ele>1214.5</ele>
        <time>2014-10-02T15:32:53Z</time>
      </trkpt>
      <trkpt lat="42.7058780" lon="-7.0263040">
        <ele>1213.5</ele>
        <time>2014-10-02T15:32:54Z</time>
      </trkpt>
      <trkpt lat="42.7057970" lon="-7.0262110">
        <ele>1212.2</ele>
        <time>2014-10-02T15:32:55Z</time>
      </trkpt>
      <trkpt lat="42.7057140" lon="-7.0261210">
        <ele>1210.7</ele>
        <time>2014-10-02T15:32:56Z</time>
      </trkpt>
      <trkpt lat="42.7056230" lon="-7.0260290">
        <ele>1209.0</ele>
        <time>2014-10-02T15:32:57Z</time>
      </trkpt>
      <trkpt lat="42.7055220" lon="-7.0259230">
        <ele>1207.0</ele>
        <time>2014-10-02T15:32:58Z</time>
      </trkpt>
      <trkpt lat="42.7054210" lon="-7.0258170">
        <ele>1205.1</ele>
        <time>2014-10-02T15:32:59Z</time>
      </trkpt>
      <trkpt lat="42.7053060" lon="-7.0257000">
        <ele>1203.0</ele>
        <time>2014-10-02T15:33:00Z</time>
      </trkpt>
      <trkpt lat="42.7051880" lon="-7.0255780">
        <ele>1201.1</ele>
        <time>2014-10-02T15:33:01Z</time>
      </trkpt>
      <trkpt lat="42.7050650" lon="-7.0254550">
        <ele>1199.2</ele>
        <time>2014-10-02T15:33:02Z</time>
      </trkpt>
      <trkpt lat="42.7049480" lon="-7.0253370">
        <ele>1197.4</ele>
        <time>2014-10-02T15:33:03Z</time>
      </trkpt>
      <trkpt lat="42.7048330" lon="-7.0252120">
        <ele>1195.5</ele>
        <time>2014-10-02T15:33:04Z</time>
      </trkpt>
      <trkpt lat="42.7047220" lon="-7.0250810">
        <ele>1193.4</ele>
        <time>2014-10-02T15:33:05Z</time>
      </trkpt>
      <trkpt lat="42.7046170" lon="-7.0249440">
        <ele>1191.4</ele>
        <time>2014-10-02T15:33:06Z</time>
      </trkpt>
      <trkpt lat="42.7045040" lon="-7.0248050">
        <ele>1189.4</ele>
        <time>2014-10-02T15:33:07Z</time>
      </trkpt>
      <trkpt lat="42.7043830" lon="-7.0246670">
        <ele>1187.7</ele>
        <time>2014-10-02T15:33:08Z</time>
      </trkpt>
      <trkpt lat="42.7042590" lon="-7.0245310">
        <ele>1186.2</ele>
        <time>2014-10-02T15:33:09Z</time>
      </trkpt>
      <trkpt lat="42.7041350" lon="-7.0244000">
        <ele>1184.7</ele>
        <time>2014-10-02T15:33:10Z</time>
      </trkpt>
      <trkpt lat="42.7040070" lon="-7.0242750">
        <ele>1183.1</ele>
        <time>2014-10-02T15:33:11Z</time>
      </trkpt>
      <trkpt lat="42.7038710" lon="-7.0241560">
        <ele>1181.5</ele>
        <time>2014-10-02T15:33:12Z</time>
      </trkpt>
      <trkpt lat="42.7037300" lon="-7.0240460">
        <ele>1179.9</ele>
        <time>2014-10-02T15:33:13Z</time>
      </trkpt>
      <trkpt lat="42.7035800" lon="-7.0239440">
        <ele>1178.2</ele>
        <time>2014-10-02T15:33:14Z</time>
      </trkpt>
      <trkpt lat="42.7034320" lon="-7.0238570">
        <ele>1176.5</ele>
        <time>2014-10-02T15:33:15Z</time>
      </trkpt>
      <trkpt lat="42.7032840" lon="-7.0237840">
        <ele>1174.6</ele>
        <time>2014-10-02T15:33:16Z</time>
      </trkpt>
      <trkpt lat="42.7031370" lon="-7.0237110">
        <ele>1173.3</ele>
        <time>2014-10-02T15:33:17Z</time>
      </trkpt>
      <trkpt lat="42.7030070" lon="-7.0236450">
        <ele>1171.3</ele>
        <time>2014-10-02T15:33:18Z</time>
      </trkpt>
      <trkpt lat="42.7028790" lon="-7.0235810">
        <ele>1169.2</ele>
        <time>2014-10-02T15:33:19Z</time>
      </trkpt>
      <trkpt lat="42.7027640" lon="-7.0235220">
        <ele>1167.6</ele>
        <time>2014-10-02T15:33:20Z</time>
      </trkpt>
      <trkpt lat="42.7026580" lon="-7.0234680">
        <ele>1166.7</ele>
        <time>2014-10-02T15:33:21Z</time>
      </trkpt>
      <trkpt lat="42.7025670" lon="-7.0234260">
        <ele>1166.3</ele>
        <time>2014-10-02T15:33:22Z</time>
      </trkpt>
      <trkpt lat="42.7024770" lon="-7.0233800">
        <ele>1166.0</ele>
        <time>2014-10-02T15:33:23Z</time>
      </trkpt>
      <trkpt lat="42.7023940" lon="-7.0233270">
        <ele>1165.9</ele>
        <time>2014-10-02T15:33:24Z</time>
      </trkpt>
      <trkpt lat="42.7023340" lon="-7.0232550">
        <ele>1165.8</ele>
        <time>2014-10-02T15:33:25Z</time>
      </trkpt>
      <trkpt lat="42.7022820" lon="-7.0231890">
        <ele>1165.7</ele>
        <time>2014-10-02T15:33:26Z</time>
      </trkpt>
      <trkpt lat="42.7022280" lon="-7.0231230">
        <ele>1165.4</ele>
        <time>2014-10-02T15:33:27Z</time>
      </trkpt>
      <trkpt lat="42.7021710" lon="-7.0230580">
        <ele>1165.1</ele>
        <time>2014-10-02T15:33:28Z</time>
      </trkpt>
      <trkpt lat="42.7021130" lon="-7.0229940">
        <ele>1164.7</ele>
        <time>2014-10-02T15:33:29Z</time>
      </trkpt>
      <trkpt lat="42.7020640" lon="-7.0229390">
        <ele>1164.3</ele>
        <time>2014-10-02T15:33:30Z</time>
      </trkpt>
      <trkpt lat="42.7020200" lon="-7.0228910">
        <ele>1163.9</ele>
        <time>2014-10-02T15:33:31Z</time>
      </trkpt>
      <trkpt lat="42.7019750" lon="-7.0228460">
        <ele>1163.5</ele>
        <time>2014-10-02T15:33:32Z</time>
      </trkpt>
      <trkpt lat="42.7019330" lon="-7.0228100">
        <ele>1163.0</ele>
        <time>2014-10-02T15:33:33Z</time>
      </trkpt>
      <trkpt lat="42.7018750" lon="-7.0227610">
        <ele>1162.5</ele>
        <time>2014-10-02T15:33:34Z</time>
      </trkpt>
      <trkpt lat="42.7018110" lon="-7.0227080">
        <ele>1162.0</ele>
        <time>2014-10-02T15:33:35Z</time>
      </trkpt>
      <trkpt lat="42.7017490" lon="-7.0226560">
        <ele>1161.4</ele>
        <time>2014-10-02T15:33:36Z</time>
      </trkpt>
      <trkpt lat="42.7016830" lon="-7.0226020">
        <ele>1160.9</ele>
        <time>2014-10-02T15:33:37Z</time>
      </trkpt>
      <trkpt lat="42.7016160" lon="-7.0225420">
        <ele>1160.4</ele>
        <time>2014-10-02T15:33:38Z</time>
      </trkpt>
      <trkpt lat="42.7015540" lon="-7.0224850">
        <ele>1159.9</ele>
        <time>2014-10-02T15:33:39Z</time>
      </trkpt>
      <trkpt lat="42.7014920" lon="-7.0224300">
        <ele>1159.5</ele>
        <time>2014-10-02T15:33:40Z</time>
      </trkpt>
      <trkpt lat="42.7014350" lon="-7.0223780">
        <ele>1159.1</ele>
        <time>2014-10-02T15:33:41Z</time>
      </trkpt>
      <trkpt lat="42.7013830" lon="-7.0223370">
        <ele>1158.8</ele>
        <time>2014-10-02T15:33:42Z</time>
      </trkpt>
      <trkpt lat="42.7013300" lon="-7.0222990">
        <ele>1158.6</ele>
        <time>2014-10-02T15:33:43Z</time>
      </trkpt>
      <trkpt lat="42.7012780" lon="-7.0222550">
        <ele>1158.4</ele>
        <time>2014-10-02T15:33:44Z</time>
      </trkpt>
      <trkpt lat="42.7012360" lon="-7.0221880">
        <ele>1158.1</ele>
        <time>2014-10-02T15:33:45Z</time>
      </trkpt>
      <trkpt lat="42.7012000" lon="-7.0221200">
        <ele>1157.9</ele>
        <time>2014-10-02T15:33:46Z</time>
      </trkpt>
      <trkpt lat="42.7011810" lon="-7.0220420">
        <ele>1157.7</ele>
        <time>2014-10-02T15:33:47Z</time>
      </trkpt>
      <trkpt lat="42.7011630" lon="-7.0219720">
        <ele>1157.6</ele>
        <time>2014-10-02T15:33:48Z</time>
      </trkpt>
      <trkpt lat="42.7011450" lon="-7.0219030">
        <ele>1157.4</ele>
        <time>2014-10-02T15:33:49Z</time>
      </trkpt>
      <trkpt lat="42.7011350" lon="-7.0218650">
        <ele>1157.3</ele>
        <time>2014-10-02T15:33:50Z</time>
      </trkpt>
      <trkpt lat="42.7011240" lon="-7.0218290">
        <ele>1157.2</ele>
        <time>2014-10-02T15:33:51Z</time>
      </trkpt>
      <trkpt lat="42.7011070" lon="-7.0217800">
        <ele>1157.2</ele>
        <time>2014-10-02T15:33:53Z</time>
      </trkpt>
      <trkpt lat="42.7010950" lon="-7.0217130">
        <ele>1157.1</ele>
        <time>2014-10-02T15:33:55Z</time>
      </trkpt>
      <trkpt lat="42.7010840" lon="-7.0216440">
        <ele>1157.0</ele>
        <time>2014-10-02T15:33:57Z</time>
      </trkpt>
      <trkpt lat="42.7010740" lon="-7.0216010">
        <ele>1157.0</ele>
        <time>2014-10-02T15:33:58Z</time>
      </trkpt>
      <trkpt lat="42.7010650" lon="-7.0215540">
        <ele>1156.9</ele>
        <time>2014-10-02T15:33:59Z</time>
      </trkpt>
      <trkpt lat="42.7010550" lon="-7.0215100">
        <ele>1156.7</ele>
        <time>2014-10-02T15:34:00Z</time>
      </trkpt>
      <trkpt lat="42.7010390" lon="-7.0214270">
        <ele>1156.5</ele>
        <time>2014-10-02T15:34:03Z</time>
      </trkpt>
      <trkpt lat="42.7010330" lon="-7.0213890">
        <ele>1156.3</ele>
        <time>2014-10-02T15:34:04Z</time>
      </trkpt>
      <trkpt lat="42.7010340" lon="-7.0213450">
        <ele>1156.2</ele>
        <time>2014-10-02T15:34:05Z</time>
      </trkpt>
      <trkpt lat="42.7010470" lon="-7.0213020">
        <ele>1156.0</ele>
        <time>2014-10-02T15:34:06Z</time>
      </trkpt>
      <trkpt lat="42.7010610" lon="-7.0212650">
        <ele>1155.8</ele>
        <time>2014-10-02T15:34:07Z</time>
      </trkpt>
      <trkpt lat="42.7010800" lon="-7.0212340">
        <ele>1155.6</ele>
        <time>2014-10-02T15:34:08Z</time>
      </trkpt>
      <trkpt lat="42.7011030" lon="-7.0211980">
        <ele>1155.4</ele>
        <time>2014-10-02T15:34:09Z</time>
      </trkpt>
      <trkpt lat="42.7011280" lon="-7.0211710">
        <ele>1155.3</ele>
        <time>2014-10-02T15:34:10Z</time>
      </trkpt>
      <trkpt lat="42.7011750" lon="-7.0211430">
        <ele>1155.0</ele>
        <time>2014-10-02T15:34:12Z</time>
      </trkpt>
      <trkpt lat="42.7012230" lon="-7.0211410">
        <ele>1154.8</ele>
        <time>2014-10-02T15:34:14Z</time>
      </trkpt>
      <trkpt lat="42.7012530" lon="-7.0211470">
        <ele>1154.7</ele>
        <time>2014-10-02T15:34:15Z</time>
      </trkpt>
      <trkpt lat="42.7012840" lon="-7.0211530">
        <ele>1154.6</ele>
        <time>2014-10-02T15:34:16Z</time>
      </trkpt>
      <trkpt lat="42.7013190" lon="-7.0211620">
        <ele>1154.3</ele>
        <time>2014-10-02T15:34:17Z</time>
      </trkpt>
      <trkpt lat="42.7013540" lon="-7.0211710">
        <ele>1154.2</ele>
        <time>2014-10-02T15:34:18Z</time>
      </trkpt>
      <trkpt lat="42.7014000" lon="-7.0211840">
        <ele>1154.0</ele>
        <time>2014-10-02T15:34:19Z</time>
      </trkpt>
      <trkpt lat="42.7014470" lon="-7.0211970">
        <ele>1153.7</ele>
        <time>2014-10-02T15:34:20Z</time>
      </trkpt>
      <trkpt lat="42.7015070" lon="-7.0212120">
        <ele>1153.4</ele>
        <time>2014-10-02T15:34:21Z</time>
      </trkpt>
      <trkpt lat="42.7015730" lon="-7.0212280">
        <ele>1153.0</ele>
        <time>2014-10-02T15:34:22Z</time>
      </trkpt>
      <trkpt lat="42.7016540" lon="-7.0212470">
        <ele>1152.6</ele>
        <time>2014-10-02T15:34:23Z</time>
      </trkpt>
      <trkpt lat="42.7017240" lon="-7.0212620">
        <ele>1152.1</ele>
        <time>2014-10-02T15:34:24Z</time>
      </trkpt>
      <trkpt lat="42.7017980" lon="-7.0212750">
        <ele>1151.7</ele>
        <time>2014-10-02T15:34:25Z</time>
      </trkpt>
      <trkpt lat="42.7018870" lon="-7.0212880">
        <ele>1151.1</ele>
        <time>2014-10-02T15:34:26Z</time>
      </trkpt>
      <trkpt lat="42.7019730" lon="-7.0212900">
        <ele>1150.6</ele>
        <time>2014-10-02T15:34:27Z</time>
      </trkpt>
      <trkpt lat="42.7020640" lon="-7.0212860">
        <ele>1150.0</ele>
        <time>2014-10-02T15:34:28Z</time>
      </trkpt>
      <trkpt lat="42.7021590" lon="-7.0212780">
        <ele>1149.5</ele>
        <time>2014-10-02T15:34:29Z</time>
      </trkpt>
      <trkpt lat="42.7022520" lon="-7.0212640">
        <ele>1148.9</ele>
        <time>2014-10-02T15:34:30Z</time>
      </trkpt>
      <trkpt lat="42.7023410" lon="-7.0212510">
        <ele>1148.3</ele>
        <time>2014-10-02T15:34:31Z</time>
      </trkpt>
      <trkpt lat="42.7024280" lon="-7.0212380">
        <ele>1147.7</ele>
        <time>2014-10-02T15:34:32Z</time>
      </trkpt>
      <trkpt lat="42.7025160" lon="-7.0212300">
        <ele>1147.2</ele>
        <time>2014-10-02T15:34:33Z</time>
      </trkpt>
      <trkpt lat="42.7026020" lon="-7.0212310">
        <ele>1146.6</ele>
        <time>2014-10-02T15:34:34Z</time>
      </trkpt>
      <trkpt lat="42.7026960" lon="-7.0212420">
        <ele>1145.9</ele>
        <time>2014-10-02T15:34:35Z</time>
      </trkpt>
      <trkpt lat="42.7027990" lon="-7.0212580">
        <ele>1145.3</ele>
        <time>2014-10-02T15:34:36Z</time>
      </trkpt>
      <trkpt lat="42.7028980" lon="-7.0212790">
        <ele>1144.7</ele>
        <time>2014-10-02T15:34:37Z</time>
      </trkpt>
      <trkpt lat="42.7029920" lon="-7.0213030">
        <ele>1144.1</ele>
        <time>2014-10-02T15:34:38Z</time>
      </trkpt>
      <trkpt lat="42.7030930" lon="-7.0213280">
        <ele>1143.4</ele>
        <time>2014-10-02T15:34:39Z</time>
      </trkpt>
      <trkpt lat="42.7031920" lon="-7.0213550">
        <ele>1142.7</ele>
        <time>2014-10-02T15:34:40Z</time>
      </trkpt>
      <trkpt lat="42.7033000" lon="-7.0213820">
        <ele>1141.9</ele>
        <time>2014-10-02T15:34:41Z</time>
      </trkpt>
      <trkpt lat="42.7034040" lon="-7.0214030">
        <ele>1141.2</ele>
        <time>2014-10-02T15:34:42Z</time>
      </trkpt>
      <trkpt lat="42.7035100" lon="-7.0214210">
        <ele>1140.7</ele>
        <time>2014-10-02T15:34:43Z</time>
      </trkpt>
      <trkpt lat="42.7036250" lon="-7.0214330">
        <ele>1140.1</ele>
        <time>2014-10-02T15:34:44Z</time>
      </trkpt>
      <trkpt lat="42.7037310" lon="-7.0214350">
        <ele>1139.6</ele>
        <time>2014-10-02T15:34:45Z</time>
      </trkpt>
      <trkpt lat="42.7038390" lon="-7.0214080">
        <ele>1139.0</ele>
        <time>2014-10-02T15:34:46Z</time>
      </trkpt>
      <trkpt lat="42.7039470" lon="-7.0213780">
        <ele>1138.3</ele>
        <time>2014-10-02T15:34:47Z</time>
      </trkpt>
      <trkpt lat="42.7040560" lon="-7.0213460">
        <ele>1137.7</ele>
        <time>2014-10-02T15:34:48Z</time>
      </trkpt>
      <trkpt lat="42.7041610" lon="-7.0213110">
        <ele>1137.2</ele>
        <time>2014-10-02T15:34:49Z</time>
      </trkpt>
      <trkpt lat="42.7042680" lon="-7.0212760">
        <ele>1136.8</ele>
        <time>2014-10-02T15:34:50Z</time>
      </trkpt>
      <trkpt lat="42.7043770" lon="-7.0212390">
        <ele>1136.4</ele>
        <time>2014-10-02T15:34:51Z</time>
      </trkpt>
      <trkpt lat="42.7044810" lon="-7.0212070">
        <ele>1136.1</ele>
        <time>2014-10-02T15:34:52Z</time>
      </trkpt>
      <trkpt lat="42.7045840" lon="-7.0211830">
        <ele>1135.7</ele>
        <time>2014-10-02T15:34:53Z</time>
      </trkpt>
      <trkpt lat="42.7046720" lon="-7.0211710">
        <ele>1135.3</ele>
        <time>2014-10-02T15:34:54Z</time>
      </trkpt>
      <trkpt lat="42.7047430" lon="-7.0211560">
        <ele>1135.0</ele>
        <time>2014-10-02T15:34:55Z</time>
      </trkpt>
      <trkpt lat="42.7047970" lon="-7.0211140">
        <ele>1134.6</ele>
        <time>2014-10-02T15:34:56Z</time>
      </trkpt>
      <trkpt lat="42.7048360" lon="-7.0210470">
        <ele>1134.3</ele>
        <time>2014-10-02T15:34:57Z</time>
      </trkpt>
      <trkpt lat="42.7048490" lon="-7.0209730">
        <ele>1134.0</ele>
        <time>2014-10-02T15:34:58Z</time>
      </trkpt>
      <trkpt lat="42.7048320" lon="-7.0209080">
        <ele>1133.7</ele>
        <time>2014-10-02T15:34:59Z</time>
      </trkpt>
      <trkpt lat="42.7047900" lon="-7.0208400">
        <ele>1133.4</ele>
        <time>2014-10-02T15:35:00Z</time>
      </trkpt>
      <trkpt lat="42.7047310" lon="-7.0207600">
        <ele>1133.0</ele>
        <time>2014-10-02T15:35:01Z</time>
      </trkpt>
      <trkpt lat="42.7046570" lon="-7.0206960">
        <ele>1132.7</ele>
        <time>2014-10-02T15:35:02Z</time>
      </trkpt>
      <trkpt lat="42.7045800" lon="-7.0206290">
        <ele>1132.4</ele>
        <time>2014-10-02T15:35:03Z</time>
      </trkpt>
      <trkpt lat="42.7045010" lon="-7.0205600">
        <ele>1132.2</ele>
        <time>2014-10-02T15:35:04Z</time>
      </trkpt>
      <trkpt lat="42.7044200" lon="-7.0204910">
        <ele>1132.0</ele>
        <time>2014-10-02T15:35:05Z</time>
      </trkpt>
      <trkpt lat="42.7043410" lon="-7.0204200">
        <ele>1131.7</ele>
        <time>2014-10-02T15:35:06Z</time>
      </trkpt>
      <trkpt lat="42.7042630" lon="-7.0203480">
        <ele>1131.5</ele>
        <time>2014-10-02T15:35:07Z</time>
      </trkpt>
      <trkpt lat="42.7041870" lon="-7.0202770">
        <ele>1131.2</ele>
        <time>2014-10-02T15:35:08Z</time>
      </trkpt>
      <trkpt lat="42.7041100" lon="-7.0202000">
        <ele>1131.0</ele>
        <time>2014-10-02T15:35:09Z</time>
      </trkpt>
      <trkpt lat="42.7040290" lon="-7.0201190">
        <ele>1130.7</ele>
        <time>2014-10-02T15:35:10Z</time>
      </trkpt>
      <trkpt lat="42.7039440" lon="-7.0200250">
        <ele>1130.5</ele>
        <time>2014-10-02T15:35:11Z</time>
      </trkpt>
      <trkpt lat="42.7038680" lon="-7.0199330">
        <ele>1130.3</ele>
        <time>2014-10-02T15:35:12Z</time>
      </trkpt>
      <trkpt lat="42.7037970" lon="-7.0198310">
        <ele>1130.0</ele>
        <time>2014-10-02T15:35:13Z</time>
      </trkpt>
      <trkpt lat="42.7037300" lon="-7.0197240">
        <ele>1129.7</ele>
        <time>2014-10-02T15:35:14Z</time>
      </trkpt>
      <trkpt lat="42.7036670" lon="-7.0196190">
        <ele>1129.4</ele>
        <time>2014-10-02T15:35:15Z</time>
      </trkpt>
      <trkpt lat="42.7036080" lon="-7.0195150">
        <ele>1129.0</ele>
        <time>2014-10-02T15:35:16Z</time>
      </trkpt>
      <trkpt lat="42.7035490" lon="-7.0194110">
        <ele>1128.7</ele>
        <time>2014-10-02T15:35:17Z</time>
      </trkpt>
      <trkpt lat="42.7034890" lon="-7.0193060">
        <ele>1128.3</ele>
        <time>2014-10-02T15:35:18Z</time>
      </trkpt>
      <trkpt lat="42.7034260" lon="-7.0191930">
        <ele>1127.7</ele>
        <time>2014-10-02T15:35:19Z</time>
      </trkpt>
      <trkpt lat="42.7033650" lon="-7.0190780">
        <ele>1127.0</ele>
        <time>2014-10-02T15:35:20Z</time>
      </trkpt>
      <trkpt lat="42.7033000" lon="-7.0189610">
        <ele>1126.2</ele>
        <time>2014-10-02T15:35:21Z</time>
      </trkpt>
      <trkpt lat="42.7032330" lon="-7.0188460">
        <ele>1125.4</ele>
        <time>2014-10-02T15:35:22Z</time>
      </trkpt>
      <trkpt lat="42.7031620" lon="-7.0187310">
        <ele>1124.6</ele>
        <time>2014-10-02T15:35:23Z</time>
      </trkpt>
      <trkpt lat="42.7030850" lon="-7.0186130">
        <ele>1123.9</ele>
        <time>2014-10-02T15:35:24Z</time>
      </trkpt>
      <trkpt lat="42.7030000" lon="-7.0184900">
        <ele>1123.2</ele>
        <time>2014-10-02T15:35:25Z</time>
      </trkpt>
      <trkpt lat="42.7029130" lon="-7.0183740">
        <ele>1122.5</ele>
        <time>2014-10-02T15:35:26Z</time>
      </trkpt>
      <trkpt lat="42.7028200" lon="-7.0182640">
        <ele>1121.8</ele>
        <time>2014-10-02T15:35:27Z</time>
      </trkpt>
      <trkpt lat="42.7027290" lon="-7.0181700">
        <ele>1121.0</ele>
        <time>2014-10-02T15:35:28Z</time>
      </trkpt>
      <trkpt lat="42.7026270" lon="-7.0180730">
        <ele>1120.0</ele>
        <time>2014-10-02T15:35:29Z</time>
      </trkpt>
      <trkpt lat="42.7025180" lon="-7.0179770">
        <ele>1118.8</ele>
        <time>2014-10-02T15:35:30Z</time>
      </trkpt>
      <trkpt lat="42.7024000" lon="-7.0178810">
        <ele>1117.4</ele>
        <time>2014-10-02T15:35:31Z</time>
      </trkpt>
      <trkpt lat="42.7022750" lon="-7.0177770">
        <ele>1115.8</ele>
        <time>2014-10-02T15:35:32Z</time>
      </trkpt>
      <trkpt lat="42.7021480" lon="-7.0176770">
        <ele>1114.1</ele>
        <time>2014-10-02T15:35:33Z</time>
      </trkpt>
      <trkpt lat="42.7020200" lon="-7.0175760">
        <ele>1112.6</ele>
        <time>2014-10-02T15:35:34Z</time>
      </trkpt>
      <trkpt lat="42.7019000" lon="-7.0174750">
        <ele>1111.2</ele>
        <time>2014-10-02T15:35:35Z</time>
      </trkpt>
      <trkpt lat="42.7017830" lon="-7.0173660">
        <ele>1109.9</ele>
        <time>2014-10-02T15:35:36Z</time>
      </trkpt>
      <trkpt lat="42.7016660" lon="-7.0172420">
        <ele>1108.5</ele>
        <time>2014-10-02T15:35:37Z</time>
      </trkpt>
      <trkpt lat="42.7015530" lon="-7.0171130">
        <ele>1107.1</ele>
        <time>2014-10-02T15:35:38Z</time>
      </trkpt>
      <trkpt lat="42.7014370" lon="-7.0169770">
        <ele>1105.6</ele>
        <time>2014-10-02T15:35:39Z</time>
      </trkpt>
      <trkpt lat="42.7013270" lon="-7.0168370">
        <ele>1104.1</ele>
        <time>2014-10-02T15:35:40Z</time>
      </trkpt>
      <trkpt lat="42.7012220" lon="-7.0166960">
        <ele>1102.5</ele>
        <time>2014-10-02T15:35:41Z</time>
      </trkpt>
      <trkpt lat="42.7011220" lon="-7.0165580">
        <ele>1100.8</ele>
        <time>2014-10-02T15:35:42Z</time>
      </trkpt>
      <trkpt lat="42.7010250" lon="-7.0164170">
        <ele>1099.0</ele>
        <time>2014-10-02T15:35:43Z</time>
      </trkpt>
      <trkpt lat="42.7009250" lon="-7.0162740">
        <ele>1097.2</ele>
        <time>2014-10-02T15:35:44Z</time>
      </trkpt>
      <trkpt lat="42.7008150" lon="-7.0161260">
        <ele>1095.2</ele>
        <time>2014-10-02T15:35:45Z</time>
      </trkpt>
      <trkpt lat="42.7007020" lon="-7.0159750">
        <ele>1093.3</ele>
        <time>2014-10-02T15:35:46Z</time>
      </trkpt>
      <trkpt lat="42.7005950" lon="-7.0158370">
        <ele>1091.4</ele>
        <time>2014-10-02T15:35:47Z</time>
      </trkpt>
      <trkpt lat="42.7004830" lon="-7.0156980">
        <ele>1089.5</ele>
        <time>2014-10-02T15:35:48Z</time>
      </trkpt>
      <trkpt lat="42.7003710" lon="-7.0155580">
        <ele>1087.4</ele>
        <time>2014-10-02T15:35:49Z</time>
      </trkpt>
      <trkpt lat="42.7002610" lon="-7.0154150">
        <ele>1085.4</ele>
        <time>2014-10-02T15:35:50Z</time>
      </trkpt>
      <trkpt lat="42.7001490" lon="-7.0152640">
        <ele>1083.4</ele>
        <time>2014-10-02T15:35:51Z</time>
      </trkpt>
      <trkpt lat="42.7000350" lon="-7.0151070">
        <ele>1081.4</ele>
        <time>2014-10-02T15:35:52Z</time>
      </trkpt>
      <trkpt lat="42.6999220" lon="-7.0149490">
        <ele>1079.5</ele>
        <time>2014-10-02T15:35:53Z</time>
      </trkpt>
      <trkpt lat="42.6998100" lon="-7.0147990">
        <ele>1077.6</ele>
        <time>2014-10-02T15:35:54Z</time>
      </trkpt>
      <trkpt lat="42.6996970" lon="-7.0146490">
        <ele>1075.8</ele>
        <time>2014-10-02T15:35:55Z</time>
      </trkpt>
      <trkpt lat="42.6995850" lon="-7.0144950">
        <ele>1074.0</ele>
        <time>2014-10-02T15:35:56Z</time>
      </trkpt>
      <trkpt lat="42.6994760" lon="-7.0143430">
        <ele>1072.3</ele>
        <time>2014-10-02T15:35:57Z</time>
      </trkpt>
      <trkpt lat="42.6993720" lon="-7.0141930">
        <ele>1070.6</ele>
        <time>2014-10-02T15:35:58Z</time>
      </trkpt>
      <trkpt lat="42.6992720" lon="-7.0140470">
        <ele>1069.0</ele>
        <time>2014-10-02T15:35:59Z</time>
      </trkpt>
      <trkpt lat="42.6991630" lon="-7.0139130">
        <ele>1067.2</ele>
        <time>2014-10-02T15:36:00Z</time>
      </trkpt>
      <trkpt lat="42.6990510" lon="-7.0137900">
        <ele>1065.4</ele>
        <time>2014-10-02T15:36:01Z</time>
      </trkpt>
      <trkpt lat="42.6989280" lon="-7.0136740">
        <ele>1063.5</ele>
        <time>2014-10-02T15:36:02Z</time>
      </trkpt>
      <trkpt lat="42.6987940" lon="-7.0135690">
        <ele>1061.6</ele>
        <time>2014-10-02T15:36:03Z</time>
      </trkpt>
      <trkpt lat="42.6986580" lon="-7.0134840">
        <ele>1060.0</ele>
        <time>2014-10-02T15:36:04Z</time>
      </trkpt>
      <trkpt lat="42.6985180" lon="-7.0134110">
        <ele>1058.3</ele>
        <time>2014-10-02T15:36:05Z</time>
      </trkpt>
      <trkpt lat="42.6983750" lon="-7.0133500">
        <ele>1056.7</ele>
        <time>2014-10-02T15:36:06Z</time>
      </trkpt>
      <trkpt lat="42.6982250" lon="-7.0133000">
        <ele>1055.0</ele>
        <time>2014-10-02T15:36:07Z</time>
      </trkpt>
      <trkpt lat="42.6980790" lon="-7.0132600">
        <ele>1053.3</ele>
        <time>2014-10-02T15:36:08Z</time>
      </trkpt>
      <trkpt lat="42.6979330" lon="-7.0132270">
        <ele>1051.5</ele>
        <time>2014-10-02T15:36:09Z</time>
      </trkpt>
      <trkpt lat="42.6977960" lon="-7.0131960">
        <ele>1049.8</ele>
        <time>2014-10-02T15:36:10Z</time>
      </trkpt>
      <trkpt lat="42.6976580" lon="-7.0131560">
        <ele>1048.0</ele>
        <time>2014-10-02T15:36:11Z</time>
      </trkpt>
      <trkpt lat="42.6975120" lon="-7.0131120">
        <ele>1046.0</ele>
        <time>2014-10-02T15:36:12Z</time>
      </trkpt>
      <trkpt lat="42.6973700" lon="-7.0130550">
        <ele>1044.1</ele>
        <time>2014-10-02T15:36:13Z</time>
      </trkpt>
      <trkpt lat="42.6972340" lon="-7.0129860">
        <ele>1042.2</ele>
        <time>2014-10-02T15:36:14Z</time>
      </trkpt>
      <trkpt lat="42.6971000" lon="-7.0129080">
        <ele>1040.1</ele>
        <time>2014-10-02T15:36:15Z</time>
      </trkpt>
      <trkpt lat="42.6969720" lon="-7.0128230">
        <ele>1038.1</ele>
        <time>2014-10-02T15:36:16Z</time>
      </trkpt>
      <trkpt lat="42.6968490" lon="-7.0127370">
        <ele>1036.2</ele>
        <time>2014-10-02T15:36:17Z</time>
      </trkpt>
      <trkpt lat="42.6967310" lon="-7.0126510">
        <ele>1034.5</ele>
        <time>2014-10-02T15:36:18Z</time>
      </trkpt>
      <trkpt lat="42.6966170" lon="-7.0125600">
        <ele>1032.7</ele>
        <time>2014-10-02T15:36:19Z</time>
      </trkpt>
      <trkpt lat="42.6964990" lon="-7.0124660">
        <ele>1030.8</ele>
        <time>2014-10-02T15:36:20Z</time>
      </trkpt>
      <trkpt lat="42.6963760" lon="-7.0123620">
        <ele>1029.0</ele>
        <time>2014-10-02T15:36:21Z</time>
      </trkpt>
      <trkpt lat="42.6962510" lon="-7.0122590">
        <ele>1027.2</ele>
        <time>2014-10-02T15:36:22Z</time>
      </trkpt>
      <trkpt lat="42.6961200" lon="-7.0121520">
        <ele>1025.5</ele>
        <time>2014-10-02T15:36:23Z</time>
      </trkpt>
      <trkpt lat="42.6959930" lon="-7.0120510">
        <ele>1023.8</ele>
        <time>2014-10-02T15:36:24Z</time>
      </trkpt>
      <trkpt lat="42.6958690" lon="-7.0119510">
        <ele>1022.2</ele>
        <time>2014-10-02T15:36:25Z</time>
      </trkpt>
      <trkpt lat="42.6957460" lon="-7.0118530">
        <ele>1020.8</ele>
        <time>2014-10-02T15:36:26Z</time>
      </trkpt>
      <trkpt lat="42.6956300" lon="-7.0117600">
        <ele>1019.2</ele>
        <time>2014-10-02T15:36:27Z</time>
      </trkpt>
      <trkpt lat="42.6955130" lon="-7.0116770">
        <ele>1017.6</ele>
        <time>2014-10-02T15:36:28Z</time>
      </trkpt>
      <trkpt lat="42.6953770" lon="-7.0115890">
        <ele>1015.7</ele>
        <time>2014-10-02T15:36:29Z</time>
      </trkpt>
      <trkpt lat="42.6952330" lon="-7.0115020">
        <ele>1013.8</ele>
        <time>2014-10-02T15:36:30Z</time>
      </trkpt>
      <trkpt lat="42.6950780" lon="-7.0114170">
        <ele>1011.9</ele>
        <time>2014-10-02T15:36:31Z</time>
      </trkpt>
      <trkpt lat="42.6949240" lon="-7.0113380">
        <ele>1010.0</ele>
        <time>2014-10-02T15:36:32Z</time>
      </trkpt>
      <trkpt lat="42.6947680" lon="-7.0112550">
        <ele>1008.0</ele>
        <time>2014-10-02T15:36:33Z</time>
      </trkpt>
      <trkpt lat="42.6946030" lon="-7.0111670">
        <ele>1006.0</ele>
        <time>2014-10-02T15:36:34Z</time>
      </trkpt>
      <trkpt lat="42.6944380" lon="-7.0110810">
        <ele>1004.1</ele>
        <time>2014-10-02T15:36:35Z</time>
      </trkpt>
      <trkpt lat="42.6942780" lon="-7.0109870">
        <ele>1002.3</ele>
        <time>2014-10-02T15:36:36Z</time>
      </trkpt>
      <trkpt lat="42.6941340" lon="-7.0108890">
        <ele>1000.6</ele>
        <time>2014-10-02T15:36:37Z</time>
      </trkpt>
      <trkpt lat="42.6939990" lon="-7.0107930">
        <ele>998.8</ele>
        <time>2014-10-02T15:36:38Z</time>
      </trkpt>
      <trkpt lat="42.6938620" lon="-7.0106960">
        <ele>997.1</ele>
        <time>2014-10-02T15:36:39Z</time>
      </trkpt>
      <trkpt lat="42.6937250" lon="-7.0105980">
        <ele>995.3</ele>
        <time>2014-10-02T15:36:40Z</time>
      </trkpt>
      <trkpt lat="42.6935890" lon="-7.0105020">
        <ele>993.5</ele>
        <time>2014-10-02T15:36:41Z</time>
      </trkpt>
      <trkpt lat="42.6934530" lon="-7.0104050">
        <ele>991.7</ele>
        <time>2014-10-02T15:36:42Z</time>
      </trkpt>
      <trkpt lat="42.6933120" lon="-7.0103160">
        <ele>989.8</ele>
        <time>2014-10-02T15:36:43Z</time>
      </trkpt>
      <trkpt lat="42.6931600" lon="-7.0102390">
        <ele>987.6</ele>
        <time>2014-10-02T15:36:44Z</time>
      </trkpt>
      <trkpt lat="42.6929880" lon="-7.0102200">
        <ele>985.2</ele>
        <time>2014-10-02T15:36:45Z</time>
      </trkpt>
      <trkpt lat="42.6928160" lon="-7.0102000">
        <ele>982.9</ele>
        <time>2014-10-02T15:36:46Z</time>
      </trkpt>
      <trkpt lat="42.6926520" lon="-7.0101960">
        <ele>980.7</ele>
        <time>2014-10-02T15:36:47Z</time>
      </trkpt>
      <trkpt lat="42.6924860" lon="-7.0101910">
        <ele>978.6</ele>
        <time>2014-10-02T15:36:48Z</time>
      </trkpt>
      <trkpt lat="42.6923220" lon="-7.0101800">
        <ele>976.7</ele>
        <time>2014-10-02T15:36:49Z</time>
      </trkpt>
      <trkpt lat="42.6921590" lon="-7.0101600">
        <ele>974.7</ele>
        <time>2014-10-02T15:36:50Z</time>
      </trkpt>
      <trkpt lat="42.6920030" lon="-7.0101310">
        <ele>972.8</ele>
        <time>2014-10-02T15:36:51Z</time>
      </trkpt>
      <trkpt lat="42.6918430" lon="-7.0100860">
        <ele>970.9</ele>
        <time>2014-10-02T15:36:52Z</time>
      </trkpt>
      <trkpt lat="42.6916880" lon="-7.0100250">
        <ele>968.8</ele>
        <time>2014-10-02T15:36:53Z</time>
      </trkpt>
      <trkpt lat="42.6915350" lon="-7.0099490">
        <ele>966.5</ele>
        <time>2014-10-02T15:36:54Z</time>
      </trkpt>
      <trkpt lat="42.6913780" lon="-7.0098520">
        <ele>964.1</ele>
        <time>2014-10-02T15:36:55Z</time>
      </trkpt>
      <trkpt lat="42.6912230" lon="-7.0097390">
        <ele>961.9</ele>
        <time>2014-10-02T15:36:56Z</time>
      </trkpt>
      <trkpt lat="42.6910710" lon="-7.0096090">
        <ele>959.7</ele>
        <time>2014-10-02T15:36:57Z</time>
      </trkpt>
      <trkpt lat="42.6909230" lon="-7.0094690">
        <ele>957.5</ele>
        <time>2014-10-02T15:36:58Z</time>
      </trkpt>
      <trkpt lat="42.6907910" lon="-7.0093020">
        <ele>955.3</ele>
        <time>2014-10-02T15:36:59Z</time>
      </trkpt>
      <trkpt lat="42.6906600" lon="-7.0091350">
        <ele>953.3</ele>
        <time>2014-10-02T15:37:00Z</time>
      </trkpt>
      <trkpt lat="42.6905500" lon="-7.0089720">
        <ele>951.6</ele>
        <time>2014-10-02T15:37:01Z</time>
      </trkpt>
      <trkpt lat="42.6904450" lon="-7.0088220">
        <ele>950.0</ele>
        <time>2014-10-02T15:37:02Z</time>
      </trkpt>
      <trkpt lat="42.6903390" lon="-7.0086770">
        <ele>948.5</ele>
        <time>2014-10-02T15:37:03Z</time>
      </trkpt>
      <trkpt lat="42.6902300" lon="-7.0085280">
        <ele>946.8</ele>
        <time>2014-10-02T15:37:04Z</time>
      </trkpt>
      <trkpt lat="42.6901190" lon="-7.0083820">
        <ele>945.2</ele>
        <time>2014-10-02T15:37:05Z</time>
      </trkpt>
      <trkpt lat="42.6900020" lon="-7.0082470">
        <ele>943.5</ele>
        <time>2014-10-02T15:37:06Z</time>
      </trkpt>
      <trkpt lat="42.6898740" lon="-7.0081160">
        <ele>941.7</ele>
        <time>2014-10-02T15:37:07Z</time>
      </trkpt>
      <trkpt lat="42.6897400" lon="-7.0079940">
        <ele>939.7</ele>
        <time>2014-10-02T15:37:08Z</time>
      </trkpt>
      <trkpt lat="42.6895990" lon="-7.0078780">
        <ele>937.5</ele>
        <time>2014-10-02T15:37:09Z</time>
      </trkpt>
      <trkpt lat="42.6894570" lon="-7.0077680">
        <ele>935.3</ele>
        <time>2014-10-02T15:37:10Z</time>
      </trkpt>
      <trkpt lat="42.6893050" lon="-7.0076630">
        <ele>933.2</ele>
        <time>2014-10-02T15:37:11Z</time>
      </trkpt>
      <trkpt lat="42.6891510" lon="-7.0075560">
        <ele>931.1</ele>
        <time>2014-10-02T15:37:12Z</time>
      </trkpt>
      <trkpt lat="42.6889980" lon="-7.0074520">
        <ele>929.3</ele>
        <time>2014-10-02T15:37:13Z</time>
      </trkpt>
      <trkpt lat="42.6888340" lon="-7.0073500">
        <ele>927.6</ele>
        <time>2014-10-02T15:37:14Z</time>
      </trkpt>
      <trkpt lat="42.6886650" lon="-7.0072650">
        <ele>926.2</ele>
        <time>2014-10-02T15:37:15Z</time>
      </trkpt>
      <trkpt lat="42.6885030" lon="-7.0071820">
        <ele>924.5</ele>
        <time>2014-10-02T15:37:16Z</time>
      </trkpt>
      <trkpt lat="42.6883400" lon="-7.0071020">
        <ele>922.7</ele>
        <time>2014-10-02T15:37:17Z</time>
      </trkpt>
      <trkpt lat="42.6881780" lon="-7.0070180">
        <ele>921.0</ele>
        <time>2014-10-02T15:37:18Z</time>
      </trkpt>
      <trkpt lat="42.6880200" lon="-7.0069280">
        <ele>919.3</ele>
        <time>2014-10-02T15:37:19Z</time>
      </trkpt>
      <trkpt lat="42.6878690" lon="-7.0068350">
        <ele>917.8</ele>
        <time>2014-10-02T15:37:20Z</time>
      </trkpt>
      <trkpt lat="42.6877240" lon="-7.0067340">
        <ele>916.2</ele>
        <time>2014-10-02T15:37:21Z</time>
      </trkpt>
      <trkpt lat="42.6875860" lon="-7.0066310">
        <ele>914.6</ele>
        <time>2014-10-02T15:37:22Z</time>
      </trkpt>
      <trkpt lat="42.6874610" lon="-7.0065350">
        <ele>912.8</ele>
        <time>2014-10-02T15:37:23Z</time>
      </trkpt>
      <trkpt lat="42.6873440" lon="-7.0064420">
        <ele>911.0</ele>
        <time>2014-10-02T15:37:24Z</time>
      </trkpt>
      <trkpt lat="42.6872330" lon="-7.0063580">
        <ele>909.1</ele>
        <time>2014-10-02T15:37:25Z</time>
      </trkpt>
      <trkpt lat="42.6871350" lon="-7.0062770">
        <ele>907.2</ele>
        <time>2014-10-02T15:37:26Z</time>
      </trkpt>
      <trkpt lat="42.6870540" lon="-7.0062090">
        <ele>905.6</ele>
        <time>2014-10-02T15:37:27Z</time>
      </trkpt>
      <trkpt lat="42.6869740" lon="-7.0061480">
        <ele>904.1</ele>
        <time>2014-10-02T15:37:28Z</time>
      </trkpt>
      <trkpt lat="42.6869100" lon="-7.0061380">
        <ele>903.1</ele>
        <time>2014-10-02T15:37:29Z</time>
      </trkpt>
      <trkpt lat="42.6868480" lon="-7.0061560">
        <ele>902.2</ele>
        <time>2014-10-02T15:37:30Z</time>
      </trkpt>
      <trkpt lat="42.6868150" lon="-7.0061980">
        <ele>900.8</ele>
        <time>2014-10-02T15:37:31Z</time>
      </trkpt>
      <trkpt lat="42.6868260" lon="-7.0062630">
        <ele>900.1</ele>
        <time>2014-10-02T15:37:32Z</time>
      </trkpt>
      <trkpt lat="42.6868640" lon="-7.0063460">
        <ele>899.2</ele>
        <time>2014-10-02T15:37:33Z</time>
      </trkpt>
      <trkpt lat="42.6869050" lon="-7.0064450">
        <ele>898.0</ele>
        <time>2014-10-02T15:37:34Z</time>
      </trkpt>
      <trkpt lat="42.6869510" lon="-7.0065630">
        <ele>896.6</ele>
        <time>2014-10-02T15:37:35Z</time>
      </trkpt>
      <trkpt lat="42.6869990" lon="-7.0066910">
        <ele>895.1</ele>
        <time>2014-10-02T15:37:36Z</time>
      </trkpt>
      <trkpt lat="42.6870520" lon="-7.0068400">
        <ele>893.5</ele>
        <time>2014-10-02T15:37:37Z</time>
      </trkpt>
      <trkpt lat="42.6871120" lon="-7.0069940">
        <ele>892.1</ele>
        <time>2014-10-02T15:37:38Z</time>
      </trkpt>
      <trkpt lat="42.6871740" lon="-7.0071490">
        <ele>890.7</ele>
        <time>2014-10-02T15:37:39Z</time>
      </trkpt>
      <trkpt lat="42.6872390" lon="-7.0072970">
        <ele>889.4</ele>
        <time>2014-10-02T15:37:40Z</time>
      </trkpt>
      <trkpt lat="42.6873180" lon="-7.0074520">
        <ele>888.0</ele>
        <time>2014-10-02T15:37:41Z</time>
      </trkpt>
      <trkpt lat="42.6874050" lon="-7.0076020">
        <ele>886.6</ele>
        <time>2014-10-02T15:37:42Z</time>
      </trkpt>
      <trkpt lat="42.6874890" lon="-7.0077480">
        <ele>885.3</ele>
        <time>2014-10-02T15:37:43Z</time>
      </trkpt>
      <trkpt lat="42.6875970" lon="-7.0078690">
        <ele>883.7</ele>
        <time>2014-10-02T15:37:44Z</time>
      </trkpt>
      <trkpt lat="42.6877090" lon="-7.0079940">
        <ele>882.0</ele>
        <time>2014-10-02T15:37:45Z</time>
      </trkpt>
      <trkpt lat="42.6878020" lon="-7.0081000">
        <ele>880.4</ele>
        <time>2014-10-02T15:37:46Z</time>
      </trkpt>
      <trkpt lat="42.6878780" lon="-7.0081960">
        <ele>878.7</ele>
        <time>2014-10-02T15:37:47Z</time>
      </trkpt>
      <trkpt lat="42.6879420" lon="-7.0082810">
        <ele>877.2</ele>
        <time>2014-10-02T15:37:48Z</time>
      </trkpt>
      <trkpt lat="42.6880030" lon="-7.0083590">
        <ele>875.8</ele>
        <time>2014-10-02T15:37:49Z</time>
      </trkpt>
      <trkpt lat="42.6880500" lon="-7.0084140">
        <ele>875.0</ele>
        <time>2014-10-02T15:37:50Z</time>
      </trkpt>
      <trkpt lat="42.6881090" lon="-7.0084750">
        <ele>874.2</ele>
        <time>2014-10-02T15:37:51Z</time>
      </trkpt>
      <trkpt lat="42.6881620" lon="-7.0085250">
        <ele>873.7</ele>
        <time>2014-10-02T15:37:52Z</time>
      </trkpt>
      <trkpt lat="42.6882020" lon="-7.0085530">
        <ele>873.4</ele>
        <time>2014-10-02T15:37:53Z</time>
      </trkpt>
      <trkpt lat="42.6881600" lon="-7.0085090">
        <ele>873.2</ele>
        <time>2014-10-02T15:37:58Z</time>
      </trkpt>
      <trkpt lat="42.6881230" lon="-7.0084760">
        <ele>873.1</ele>
        <time>2014-10-02T15:37:59Z</time>
      </trkpt>
      <trkpt lat="42.6880770" lon="-7.0084470">
        <ele>873.0</ele>
        <time>2014-10-02T15:38:00Z</time>
      </trkpt>
      <trkpt lat="42.6880280" lon="-7.0084140">
        <ele>872.9</ele>
        <time>2014-10-02T15:38:01Z</time>
      </trkpt>
      <trkpt lat="42.6879740" lon="-7.0083850">
        <ele>872.7</ele>
        <time>2014-10-02T15:38:02Z</time>
      </trkpt>
      <trkpt lat="42.6879190" lon="-7.0083530">
        <ele>872.5</ele>
        <time>2014-10-02T15:38:03Z</time>
      </trkpt>
      <trkpt lat="42.6878600" lon="-7.0083140">
        <ele>872.4</ele>
        <time>2014-10-02T15:38:04Z</time>
      </trkpt>
      <trkpt lat="42.6878020" lon="-7.0082730">
        <ele>872.2</ele>
        <time>2014-10-02T15:38:05Z</time>
      </trkpt>
      <trkpt lat="42.6877460" lon="-7.0082330">
        <ele>872.0</ele>
        <time>2014-10-02T15:38:06Z</time>
      </trkpt>
      <trkpt lat="42.6876870" lon="-7.0081960">
        <ele>871.8</ele>
        <time>2014-10-02T15:38:07Z</time>
      </trkpt>
      <trkpt lat="42.6876270" lon="-7.0081600">
        <ele>871.6</ele>
        <time>2014-10-02T15:38:08Z</time>
      </trkpt>
      <trkpt lat="42.6875640" lon="-7.0081210">
        <ele>871.3</ele>
        <time>2014-10-02T15:38:09Z</time>
      </trkpt>
      <trkpt lat="42.6875000" lon="-7.0080830">
        <ele>871.0</ele>
        <time>2014-10-02T15:38:10Z</time>
      </trkpt>
      <trkpt lat="42.6874350" lon="-7.0080440">
        <ele>870.7</ele>
        <time>2014-10-02T15:38:11Z</time>
      </trkpt>
      <trkpt lat="42.6873700" lon="-7.0080060">
        <ele>870.4</ele>
        <time>2014-10-02T15:38:12Z</time>
      </trkpt>
      <trkpt lat="42.6873000" lon="-7.0079620">
        <ele>870.0</ele>
        <time>2014-10-02T15:38:13Z</time>
      </trkpt>
      <trkpt lat="42.6872260" lon="-7.0079120">
        <ele>869.5</ele>
        <time>2014-10-02T15:38:14Z</time>
      </trkpt>
      <trkpt lat="42.6871480" lon="-7.0078580">
        <ele>868.9</ele>
        <time>2014-10-02T15:38:15Z</time>
      </trkpt>
      <trkpt lat="42.6870630" lon="-7.0077930">
        <ele>868.2</ele>
        <time>2014-10-02T15:38:16Z</time>
      </trkpt>
      <trkpt lat="42.6869810" lon="-7.0077280">
        <ele>867.5</ele>
        <time>2014-10-02T15:38:17Z</time>
      </trkpt>
      <trkpt lat="42.6868990" lon="-7.0076580">
        <ele>866.8</ele>
        <time>2014-10-02T15:38:18Z</time>
      </trkpt>
      <trkpt lat="42.6868200" lon="-7.0075860">
        <ele>866.2</ele>
        <time>2014-10-02T15:38:19Z</time>
      </trkpt>
      <trkpt lat="42.6867390" lon="-7.0075080">
        <ele>865.7</ele>
        <time>2014-10-02T15:38:20Z</time>
      </trkpt>
      <trkpt lat="42.6866550" lon="-7.0074220">
        <ele>865.1</ele>
        <time>2014-10-02T15:38:21Z</time>
      </trkpt>
      <trkpt lat="42.6865720" lon="-7.0073320">
        <ele>864.5</ele>
        <time>2014-10-02T15:38:22Z</time>
      </trkpt>
      <trkpt lat="42.6864870" lon="-7.0072390">
        <ele>863.9</ele>
        <time>2014-10-02T15:38:23Z</time>
      </trkpt>
      <trkpt lat="42.6864030" lon="-7.0071400">
        <ele>863.3</ele>
        <time>2014-10-02T15:38:24Z</time>
      </trkpt>
      <trkpt lat="42.6863240" lon="-7.0070440">
        <ele>862.7</ele>
        <time>2014-10-02T15:38:25Z</time>
      </trkpt>
      <trkpt lat="42.6862440" lon="-7.0069420">
        <ele>862.0</ele>
        <time>2014-10-02T15:38:26Z</time>
      </trkpt>
      <trkpt lat="42.6861680" lon="-7.0068380">
        <ele>861.3</ele>
        <time>2014-10-02T15:38:27Z</time>
      </trkpt>
      <trkpt lat="42.6860970" lon="-7.0067260">
        <ele>860.6</ele>
        <time>2014-10-02T15:38:28Z</time>
      </trkpt>
      <trkpt lat="42.6860300" lon="-7.0066180">
        <ele>859.9</ele>
        <time>2014-10-02T15:38:29Z</time>
      </trkpt>
      <trkpt lat="42.6859680" lon="-7.0065090">
        <ele>859.2</ele>
        <time>2014-10-02T15:38:30Z</time>
      </trkpt>
      <trkpt lat="42.6859030" lon="-7.0063940">
        <ele>858.5</ele>
        <time>2014-10-02T15:38:31Z</time>
      </trkpt>
      <trkpt lat="42.6858370" lon="-7.0062720">
        <ele>857.6</ele>
        <time>2014-10-02T15:38:32Z</time>
      </trkpt>
      <trkpt lat="42.6857730" lon="-7.0061530">
        <ele>856.5</ele>
        <time>2014-10-02T15:38:33Z</time>
      </trkpt>
      <trkpt lat="42.6857070" lon="-7.0060290">
        <ele>855.3</ele>
        <time>2014-10-02T15:38:34Z</time>
      </trkpt>
      <trkpt lat="42.6856350" lon="-7.0059010">
        <ele>853.9</ele>
        <time>2014-10-02T15:38:35Z</time>
      </trkpt>
      <trkpt lat="42.6855540" lon="-7.0057640">
        <ele>852.4</ele>
        <time>2014-10-02T15:38:36Z</time>
      </trkpt>
      <trkpt lat="42.6854720" lon="-7.0056290">
        <ele>851.0</ele>
        <time>2014-10-02T15:38:37Z</time>
      </trkpt>
      <trkpt lat="42.6853850" lon="-7.0054940">
        <ele>849.6</ele>
        <time>2014-10-02T15:38:38Z</time>
      </trkpt>
      <trkpt lat="42.6852990" lon="-7.0053620">
        <ele>848.1</ele>
        <time>2014-10-02T15:38:39Z</time>
      </trkpt>
      <trkpt lat="42.6852140" lon="-7.0052300">
        <ele>846.6</ele>
        <time>2014-10-02T15:38:40Z</time>
      </trkpt>
      <trkpt lat="42.6851330" lon="-7.0051000">
        <ele>845.2</ele>
        <time>2014-10-02T15:38:41Z</time>
      </trkpt>
      <trkpt lat="42.6850500" lon="-7.0049590">
        <ele>843.6</ele>
        <time>2014-10-02T15:38:42Z</time>
      </trkpt>
      <trkpt lat="42.6849740" lon="-7.0048160">
        <ele>842.1</ele>
        <time>2014-10-02T15:38:43Z</time>
      </trkpt>
      <trkpt lat="42.6848990" lon="-7.0046630">
        <ele>840.5</ele>
        <time>2014-10-02T15:38:44Z</time>
      </trkpt>
      <trkpt lat="42.6848250" lon="-7.0044850">
        <ele>838.9</ele>
        <time>2014-10-02T15:38:45Z</time>
      </trkpt>
      <trkpt lat="42.6847460" lon="-7.0043120">
        <ele>837.3</ele>
        <time>2014-10-02T15:38:46Z</time>
      </trkpt>
      <trkpt lat="42.6846690" lon="-7.0041420">
        <ele>835.8</ele>
        <time>2014-10-02T15:38:47Z</time>
      </trkpt>
      <trkpt lat="42.6845890" lon="-7.0039750">
        <ele>834.3</ele>
        <time>2014-10-02T15:38:48Z</time>
      </trkpt>
      <trkpt lat="42.6845090" lon="-7.0038140">
        <ele>832.7</ele>
        <time>2014-10-02T15:38:49Z</time>
      </trkpt>
      <trkpt lat="42.6844150" lon="-7.0036550">
        <ele>831.2</ele>
        <time>2014-10-02T15:38:50Z</time>
      </trkpt>
      <trkpt lat="42.6843170" lon="-7.0034780">
        <ele>829.7</ele>
        <time>2014-10-02T15:38:51Z</time>
      </trkpt>
      <trkpt lat="42.6842340" lon="-7.0033090">
        <ele>828.5</ele>
        <time>2014-10-02T15:38:52Z</time>
      </trkpt>
      <trkpt lat="42.6841580" lon="-7.0031480">
        <ele>827.5</ele>
        <time>2014-10-02T15:38:53Z</time>
      </trkpt>
      <trkpt lat="42.6840830" lon="-7.0029970">
        <ele>826.5</ele>
        <time>2014-10-02T15:38:54Z</time>
      </trkpt>
      <trkpt lat="42.6840100" lon="-7.0028510">
        <ele>825.7</ele>
        <time>2014-10-02T15:38:55Z</time>
      </trkpt>
      <trkpt lat="42.6839320" lon="-7.0027120">
        <ele>824.9</ele>
        <time>2014-10-02T15:38:56Z</time>
      </trkpt>
      <trkpt lat="42.6838440" lon="-7.0026200">
        <ele>824.0</ele>
        <time>2014-10-02T15:38:57Z</time>
      </trkpt>
      <trkpt lat="42.6837580" lon="-7.0025840">
        <ele>823.1</ele>
        <time>2014-10-02T15:38:58Z</time>
      </trkpt>
      <trkpt lat="42.6836680" lon="-7.0025580">
        <ele>822.2</ele>
        <time>2014-10-02T15:38:59Z</time>
      </trkpt>
      <trkpt lat="42.6835790" lon="-7.0024920">
        <ele>821.1</ele>
        <time>2014-10-02T15:39:00Z</time>
      </trkpt>
      <trkpt lat="42.6834980" lon="-7.0024170">
        <ele>820.1</ele>
        <time>2014-10-02T15:39:01Z</time>
      </trkpt>
      <trkpt lat="42.6834210" lon="-7.0023400">
        <ele>819.2</ele>
        <time>2014-10-02T15:39:02Z</time>
      </trkpt>
      <trkpt lat="42.6833530" lon="-7.0022660">
        <ele>818.3</ele>
        <time>2014-10-02T15:39:03Z</time>
      </trkpt>
      <trkpt lat="42.6832980" lon="-7.0021750">
        <ele>817.3</ele>
        <time>2014-10-02T15:39:04Z</time>
      </trkpt>
      <trkpt lat="42.6832440" lon="-7.0020780">
        <ele>816.2</ele>
        <time>2014-10-02T15:39:05Z</time>
      </trkpt>
      <trkpt lat="42.6832190" lon="-7.0019510">
        <ele>814.9</ele>
        <time>2014-10-02T15:39:06Z</time>
      </trkpt>
      <trkpt lat="42.6831990" lon="-7.0018410">
        <ele>813.8</ele>
        <time>2014-10-02T15:39:07Z</time>
      </trkpt>
      <trkpt lat="42.6831650" lon="-7.0017530">
        <ele>812.9</ele>
        <time>2014-10-02T15:39:08Z</time>
      </trkpt>
      <trkpt lat="42.6831310" lon="-7.0016730">
        <ele>812.1</ele>
        <time>2014-10-02T15:39:09Z</time>
      </trkpt>
      <trkpt lat="42.6830620" lon="-7.0016870">
        <ele>811.3</ele>
        <time>2014-10-02T15:39:10Z</time>
      </trkpt>
      <trkpt lat="42.6829970" lon="-7.0017080">
        <ele>810.6</ele>
        <time>2014-10-02T15:39:11Z</time>
      </trkpt>
      <trkpt lat="42.6829160" lon="-7.0017330">
        <ele>809.9</ele>
        <time>2014-10-02T15:39:12Z</time>
      </trkpt>
      <trkpt lat="42.6828280" lon="-7.0017670">
        <ele>809.4</ele>
        <time>2014-10-02T15:39:13Z</time>
      </trkpt>
      <trkpt lat="42.6827290" lon="-7.0017960">
        <ele>809.1</ele>
        <time>2014-10-02T15:39:14Z</time>
      </trkpt>
      <trkpt lat="42.6826280" lon="-7.0018120">
        <ele>808.8</ele>
        <time>2014-10-02T15:39:15Z</time>
      </trkpt>
      <trkpt lat="42.6825330" lon="-7.0017900">
        <ele>808.5</ele>
        <time>2014-10-02T15:39:16Z</time>
      </trkpt>
      <trkpt lat="42.6824450" lon="-7.0017710">
        <ele>808.3</ele>
        <time>2014-10-02T15:39:17Z</time>
      </trkpt>
      <trkpt lat="42.6823500" lon="-7.0017450">
        <ele>808.0</ele>
        <time>2014-10-02T15:39:18Z</time>
      </trkpt>
      <trkpt lat="42.6822620" lon="-7.0017170">
        <ele>807.8</ele>
        <time>2014-10-02T15:39:19Z</time>
      </trkpt>
      <trkpt lat="42.6821730" lon="-7.0016940">
        <ele>807.6</ele>
        <time>2014-10-02T15:39:20Z</time>
      </trkpt>
      <trkpt lat="42.6820780" lon="-7.0016810">
        <ele>807.3</ele>
        <time>2014-10-02T15:39:21Z</time>
      </trkpt>
      <trkpt lat="42.6819780" lon="-7.0016730">
        <ele>807.0</ele>
        <time>2014-10-02T15:39:22Z</time>
      </trkpt>
      <trkpt lat="42.6818880" lon="-7.0017150">
        <ele>806.6</ele>
        <time>2014-10-02T15:39:23Z</time>
      </trkpt>
      <trkpt lat="42.6817930" lon="-7.0017680">
        <ele>806.0</ele>
        <time>2014-10-02T15:39:24Z</time>
      </trkpt>
      <trkpt lat="42.6817040" lon="-7.0018310">
        <ele>805.5</ele>
        <time>2014-10-02T15:39:25Z</time>
      </trkpt>
      <trkpt lat="42.6816260" lon="-7.0019290">
        <ele>805.0</ele>
        <time>2014-10-02T15:39:26Z</time>
      </trkpt>
      <trkpt lat="42.6815540" lon="-7.0020300">
        <ele>804.6</ele>
        <time>2014-10-02T15:39:27Z</time>
      </trkpt>
      <trkpt lat="42.6814810" lon="-7.0021310">
        <ele>804.1</ele>
        <time>2014-10-02T15:39:28Z</time>
      </trkpt>
      <trkpt lat="42.6814090" lon="-7.0022270">
        <ele>803.6</ele>
        <time>2014-10-02T15:39:29Z</time>
      </trkpt>
      <trkpt lat="42.6813220" lon="-7.0022890">
        <ele>803.1</ele>
        <time>2014-10-02T15:39:30Z</time>
      </trkpt>
      <trkpt lat="42.6812340" lon="-7.0023470">
        <ele>802.7</ele>
        <time>2014-10-02T15:39:31Z</time>
      </trkpt>
      <trkpt lat="42.6811410" lon="-7.0023950">
        <ele>802.3</ele>
        <time>2014-10-02T15:39:32Z</time>
      </trkpt>
      <trkpt lat="42.6810470" lon="-7.0024060">
        <ele>801.9</ele>
        <time>2014-10-02T15:39:33Z</time>
      </trkpt>
      <trkpt lat="42.6809430" lon="-7.0024220">
        <ele>801.3</ele>
        <time>2014-10-02T15:39:34Z</time>
      </trkpt>
      <trkpt lat="42.6808460" lon="-7.0024420">
        <ele>800.7</ele>
        <time>2014-10-02T15:39:35Z</time>
      </trkpt>
      <trkpt lat="42.6807500" lon="-7.0024660">
        <ele>800.0</ele>
        <time>2014-10-02T15:39:36Z</time>
      </trkpt>
      <trkpt lat="42.6806470" lon="-7.0024890">
        <ele>799.2</ele>
        <time>2014-10-02T15:39:37Z</time>
      </trkpt>
      <trkpt lat="42.6805250" lon="-7.0025100">
        <ele>798.1</ele>
        <time>2014-10-02T15:39:38Z</time>
      </trkpt>
      <trkpt lat="42.6804110" lon="-7.0025160">
        <ele>796.9</ele>
        <time>2014-10-02T15:39:39Z</time>
      </trkpt>
      <trkpt lat="42.6802910" lon="-7.0025160">
        <ele>795.7</ele>
        <time>2014-10-02T15:39:40Z</time>
      </trkpt>
      <trkpt lat="42.6801650" lon="-7.0024770">
        <ele>794.2</ele>
        <time>2014-10-02T15:39:41Z</time>
      </trkpt>
      <trkpt lat="42.6800530" lon="-7.0024090">
        <ele>792.9</ele>
        <time>2014-10-02T15:39:42Z</time>
      </trkpt>
      <trkpt lat="42.6799270" lon="-7.0023210">
        <ele>791.5</ele>
        <time>2014-10-02T15:39:43Z</time>
      </trkpt>
      <trkpt lat="42.6798060" lon="-7.0022080">
        <ele>790.1</ele>
        <time>2014-10-02T15:39:44Z</time>
      </trkpt>
      <trkpt lat="42.6797000" lon="-7.0020850">
        <ele>788.8</ele>
        <time>2014-10-02T15:39:45Z</time>
      </trkpt>
      <trkpt lat="42.6795860" lon="-7.0019490">
        <ele>787.5</ele>
        <time>2014-10-02T15:39:46Z</time>
      </trkpt>
      <trkpt lat="42.6794790" lon="-7.0018240">
        <ele>786.0</ele>
        <time>2014-10-02T15:39:47Z</time>
      </trkpt>
      <trkpt lat="42.6793660" lon="-7.0016950">
        <ele>784.5</ele>
        <time>2014-10-02T15:39:48Z</time>
      </trkpt>
      <trkpt lat="42.6792540" lon="-7.0015740">
        <ele>783.1</ele>
        <time>2014-10-02T15:39:49Z</time>
      </trkpt>
      <trkpt lat="42.6791380" lon="-7.0014610">
        <ele>781.7</ele>
        <time>2014-10-02T15:39:50Z</time>
      </trkpt>
      <trkpt lat="42.6790160" lon="-7.0013510">
        <ele>780.4</ele>
        <time>2014-10-02T15:39:51Z</time>
      </trkpt>
      <trkpt lat="42.6788880" lon="-7.0012350">
        <ele>779.2</ele>
        <time>2014-10-02T15:39:52Z</time>
      </trkpt>
      <trkpt lat="42.6787650" lon="-7.0011270">
        <ele>778.0</ele>
        <time>2014-10-02T15:39:53Z</time>
      </trkpt>
      <trkpt lat="42.6786320" lon="-7.0010180">
        <ele>776.6</ele>
        <time>2014-10-02T15:39:54Z</time>
      </trkpt>
      <trkpt lat="42.6785010" lon="-7.0009120">
        <ele>775.2</ele>
        <time>2014-10-02T15:39:55Z</time>
      </trkpt>
      <trkpt lat="42.6783690" lon="-7.0008150">
        <ele>773.8</ele>
        <time>2014-10-02T15:39:56Z</time>
      </trkpt>
      <trkpt lat="42.6782370" lon="-7.0007260">
        <ele>772.6</ele>
        <time>2014-10-02T15:39:57Z</time>
      </trkpt>
      <trkpt lat="42.6781030" lon="-7.0006390">
        <ele>771.4</ele>
        <time>2014-10-02T15:39:58Z</time>
      </trkpt>
      <trkpt lat="42.6779690" lon="-7.0005520">
        <ele>770.4</ele>
        <time>2014-10-02T15:39:59Z</time>
      </trkpt>
      <trkpt lat="42.6778410" lon="-7.0004740">
        <ele>769.5</ele>
        <time>2014-10-02T15:40:00Z</time>
      </trkpt>
      <trkpt lat="42.6777130" lon="-7.0003960">
        <ele>768.7</ele>
        <time>2014-10-02T15:40:01Z</time>
      </trkpt>
      <trkpt lat="42.6776000" lon="-7.0003240">
        <ele>768.2</ele>
        <time>2014-10-02T15:40:02Z</time>
      </trkpt>
      <trkpt lat="42.6774770" lon="-7.0002550">
        <ele>767.6</ele>
        <time>2014-10-02T15:40:03Z</time>
      </trkpt>
      <trkpt lat="42.6773490" lon="-7.0002360">
        <ele>767.2</ele>
        <time>2014-10-02T15:40:04Z</time>
      </trkpt>
      <trkpt lat="42.6772310" lon="-7.0002300">
        <ele>766.9</ele>
        <time>2014-10-02T15:40:05Z</time>
      </trkpt>
      <trkpt lat="42.6771080" lon="-7.0002300">
        <ele>766.5</ele>
        <time>2014-10-02T15:40:06Z</time>
      </trkpt>
      <trkpt lat="42.6769900" lon="-7.0002390">
        <ele>766.1</ele>
        <time>2014-10-02T15:40:07Z</time>
      </trkpt>
      <trkpt lat="42.6768670" lon="-7.0002500">
        <ele>765.7</ele>
        <time>2014-10-02T15:40:08Z</time>
      </trkpt>
      <trkpt lat="42.6767610" lon="-7.0002610">
        <ele>765.2</ele>
        <time>2014-10-02T15:40:09Z</time>
      </trkpt>
      <trkpt lat="42.6766550" lon="-7.0002670">
        <ele>764.7</ele>
        <time>2014-10-02T15:40:10Z</time>
      </trkpt>
      <trkpt lat="42.6765570" lon="-7.0002360">
        <ele>764.1</ele>
        <time>2014-10-02T15:40:11Z</time>
      </trkpt>
      <trkpt lat="42.6764710" lon="-7.0001720">
        <ele>763.6</ele>
        <time>2014-10-02T15:40:12Z</time>
      </trkpt>
      <trkpt lat="42.6763890" lon="-7.0000990">
        <ele>763.1</ele>
        <time>2014-10-02T15:40:13Z</time>
      </trkpt>
      <trkpt lat="42.6763260" lon="-6.9999870">
        <ele>762.4</ele>
        <time>2014-10-02T15:40:14Z</time>
      </trkpt>
      <trkpt lat="42.6762650" lon="-6.9998680">
        <ele>761.7</ele>
        <time>2014-10-02T15:40:15Z</time>
      </trkpt>
      <trkpt lat="42.6762010" lon="-6.9997360">
        <ele>760.8</ele>
        <time>2014-10-02T15:40:16Z</time>
      </trkpt>
      <trkpt lat="42.6761380" lon="-6.9995940">
        <ele>759.8</ele>
        <time>2014-10-02T15:40:17Z</time>
      </trkpt>
      <trkpt lat="42.6760810" lon="-6.9994490">
        <ele>758.8</ele>
        <time>2014-10-02T15:40:18Z</time>
      </trkpt>
      <trkpt lat="42.6760260" lon="-6.9993000">
        <ele>757.6</ele>
        <time>2014-10-02T15:40:19Z</time>
      </trkpt>
      <trkpt lat="42.6759720" lon="-6.9991520">
        <ele>756.5</ele>
        <time>2014-10-02T15:40:20Z</time>
      </trkpt>
      <trkpt lat="42.6759110" lon="-6.9989970">
        <ele>755.3</ele>
        <time>2014-10-02T15:40:21Z</time>
      </trkpt>
      <trkpt lat="42.6758460" lon="-6.9988520">
        <ele>754.1</ele>
        <time>2014-10-02T15:40:22Z</time>
      </trkpt>
      <trkpt lat="42.6757760" lon="-6.9987140">
        <ele>752.9</ele>
        <time>2014-10-02T15:40:23Z</time>
      </trkpt>
      <trkpt lat="42.6757100" lon="-6.9985900">
        <ele>751.7</ele>
        <time>2014-10-02T15:40:24Z</time>
      </trkpt>
      <trkpt lat="42.6756470" lon="-6.9984690">
        <ele>750.4</ele>
        <time>2014-10-02T15:40:25Z</time>
      </trkpt>
      <trkpt lat="42.6755980" lon="-6.9983660">
        <ele>749.2</ele>
        <time>2014-10-02T15:40:26Z</time>
      </trkpt>
      <trkpt lat="42.6755770" lon="-6.9982570">
        <ele>748.1</ele>
        <time>2014-10-02T15:40:27Z</time>
      </trkpt>
      <trkpt lat="42.6755750" lon="-6.9981220">
        <ele>746.8</ele>
        <time>2014-10-02T15:40:28Z</time>
      </trkpt>
      <trkpt lat="42.6756030" lon="-6.9979990">
        <ele>745.6</ele>
        <time>2014-10-02T15:40:29Z</time>
      </trkpt>
      <trkpt lat="42.6756550" lon="-6.9978820">
        <ele>744.3</ele>
        <time>2014-10-02T15:40:30Z</time>
      </trkpt>
      <trkpt lat="42.6757180" lon="-6.9977670">
        <ele>743.0</ele>
        <time>2014-10-02T15:40:31Z</time>
      </trkpt>
      <trkpt lat="42.6757890" lon="-6.9976530">
        <ele>741.8</ele>
        <time>2014-10-02T15:40:32Z</time>
      </trkpt>
      <trkpt lat="42.6758550" lon="-6.9975470">
        <ele>740.7</ele>
        <time>2014-10-02T15:40:33Z</time>
      </trkpt>
      <trkpt lat="42.6758920" lon="-6.9974060">
        <ele>739.5</ele>
        <time>2014-10-02T15:40:34Z</time>
      </trkpt>
      <trkpt lat="42.6759280" lon="-6.9972620">
        <ele>738.2</ele>
        <time>2014-10-02T15:40:35Z</time>
      </trkpt>
      <trkpt lat="42.6759630" lon="-6.9971050">
        <ele>736.7</ele>
        <time>2014-10-02T15:40:36Z</time>
      </trkpt>
      <trkpt lat="42.6759690" lon="-6.9969490">
        <ele>735.2</ele>
        <time>2014-10-02T15:40:37Z</time>
      </trkpt>
      <trkpt lat="42.6759690" lon="-6.9967770">
        <ele>733.5</ele>
        <time>2014-10-02T15:40:38Z</time>
      </trkpt>
      <trkpt lat="42.6759370" lon="-6.9966190">
        <ele>731.9</ele>
        <time>2014-10-02T15:40:39Z</time>
      </trkpt>
      <trkpt lat="42.6759030" lon="-6.9964570">
        <ele>730.2</ele>
        <time>2014-10-02T15:40:40Z</time>
      </trkpt>
      <trkpt lat="42.6758650" lon="-6.9962950">
        <ele>728.6</ele>
        <time>2014-10-02T15:40:41Z</time>
      </trkpt>
      <trkpt lat="42.6758220" lon="-6.9961330">
        <ele>727.1</ele>
        <time>2014-10-02T15:40:42Z</time>
      </trkpt>
      <trkpt lat="42.6757700" lon="-6.9959750">
        <ele>725.7</ele>
        <time>2014-10-02T15:40:43Z</time>
      </trkpt>
      <trkpt lat="42.6756740" lon="-6.9958590">
        <ele>724.4</ele>
        <time>2014-10-02T15:40:44Z</time>
      </trkpt>
      <trkpt lat="42.6755750" lon="-6.9957410">
        <ele>723.2</ele>
        <time>2014-10-02T15:40:45Z</time>
      </trkpt>
      <trkpt lat="42.6754670" lon="-6.9956250">
        <ele>722.1</ele>
        <time>2014-10-02T15:40:46Z</time>
      </trkpt>
      <trkpt lat="42.6753560" lon="-6.9955140">
        <ele>721.0</ele>
        <time>2014-10-02T15:40:47Z</time>
      </trkpt>
      <trkpt lat="42.6752370" lon="-6.9954090">
        <ele>719.9</ele>
        <time>2014-10-02T15:40:48Z</time>
      </trkpt>
      <trkpt lat="42.6751230" lon="-6.9953240">
        <ele>718.9</ele>
        <time>2014-10-02T15:40:49Z</time>
      </trkpt>
      <trkpt lat="42.6750200" lon="-6.9952610">
        <ele>718.1</ele>
        <time>2014-10-02T15:40:50Z</time>
      </trkpt>
      <trkpt lat="42.6749190" lon="-6.9951970">
        <ele>717.1</ele>
        <time>2014-10-02T15:40:51Z</time>
      </trkpt>
      <trkpt lat="42.6748210" lon="-6.9951190">
        <ele>715.8</ele>
        <time>2014-10-02T15:40:52Z</time>
      </trkpt>
      <trkpt lat="42.6747250" lon="-6.9950330">
        <ele>714.4</ele>
        <time>2014-10-02T15:40:53Z</time>
      </trkpt>
      <trkpt lat="42.6746630" lon="-6.9949100">
        <ele>713.0</ele>
        <time>2014-10-02T15:40:54Z</time>
      </trkpt>
      <trkpt lat="42.6745980" lon="-6.9947700">
        <ele>711.4</ele>
        <time>2014-10-02T15:40:55Z</time>
      </trkpt>
      <trkpt lat="42.6745260" lon="-6.9946190">
        <ele>709.6</ele>
        <time>2014-10-02T15:40:56Z</time>
      </trkpt>
      <trkpt lat="42.6744420" lon="-6.9944670">
        <ele>707.7</ele>
        <time>2014-10-02T15:40:57Z</time>
      </trkpt>
      <trkpt lat="42.6743360" lon="-6.9943440">
        <ele>705.8</ele>
        <time>2014-10-02T15:40:58Z</time>
      </trkpt>
      <trkpt lat="42.6742320" lon="-6.9942200">
        <ele>703.9</ele>
        <time>2014-10-02T15:40:59Z</time>
      </trkpt>
      <trkpt lat="42.6741240" lon="-6.9940890">
        <ele>701.7</ele>
        <time>2014-10-02T15:41:00Z</time>
      </trkpt>
      <trkpt lat="42.6740120" lon="-6.9939650">
        <ele>699.9</ele>
        <time>2014-10-02T15:41:01Z</time>
      </trkpt>
      <trkpt lat="42.6739050" lon="-6.9938510">
        <ele>698.8</ele>
        <time>2014-10-02T15:41:02Z</time>
      </trkpt>
      <trkpt lat="42.6737870" lon="-6.9937830">
        <ele>698.4</ele>
        <time>2014-10-02T15:41:03Z</time>
      </trkpt>
      <trkpt lat="42.6736790" lon="-6.9937210">
        <ele>698.4</ele>
        <time>2014-10-02T15:41:04Z</time>
      </trkpt>
      <trkpt lat="42.6735760" lon="-6.9936680">
        <ele>698.6</ele>
        <time>2014-10-02T15:41:05Z</time>
      </trkpt>
      <trkpt lat="42.6734850" lon="-6.9936250">
        <ele>698.9</ele>
        <time>2014-10-02T15:41:06Z</time>
      </trkpt>
      <trkpt lat="42.6733950" lon="-6.9935670">
        <ele>699.2</ele>
        <time>2014-10-02T15:41:07Z</time>
      </trkpt>
      <trkpt lat="42.6733250" lon="-6.9934760">
        <ele>699.4</ele>
        <time>2014-10-02T15:41:08Z</time>
      </trkpt>
      <trkpt lat="42.6732590" lon="-6.9933840">
        <ele>699.7</ele>
        <time>2014-10-02T15:41:09Z</time>
      </trkpt>
      <trkpt lat="42.6731990" lon="-6.9932830">
        <ele>699.8</ele>
        <time>2014-10-02T15:41:10Z</time>
      </trkpt>
      <trkpt lat="42.6731580" lon="-6.9931640">
        <ele>699.7</ele>
        <time>2014-10-02T15:41:11Z</time>
      </trkpt>
      <trkpt lat="42.6731220" lon="-6.9930390">
        <ele>699.5</ele>
        <time>2014-10-02T15:41:12Z</time>
      </trkpt>
      <trkpt lat="42.6730870" lon="-6.9929150">
        <ele>699.2</ele>
        <time>2014-10-02T15:41:13Z</time>
      </trkpt>
      <trkpt lat="42.6730510" lon="-6.9927820">
        <ele>698.8</ele>
        <time>2014-10-02T15:41:14Z</time>
      </trkpt>
      <trkpt lat="42.6730190" lon="-6.9926490">
        <ele>698.4</ele>
        <time>2014-10-02T15:41:15Z</time>
      </trkpt>
      <trkpt lat="42.6729930" lon="-6.9925140">
        <ele>698.0</ele>
        <time>2014-10-02T15:41:16Z</time>
      </trkpt>
      <trkpt lat="42.6729920" lon="-6.9923650">
        <ele>697.7</ele>
        <time>2014-10-02T15:41:17Z</time>
      </trkpt>
      <trkpt lat="42.6729970" lon="-6.9922220">
        <ele>697.3</ele>
        <time>2014-10-02T15:41:18Z</time>
      </trkpt>
      <trkpt lat="42.6730100" lon="-6.9920780">
        <ele>696.8</ele>
        <time>2014-10-02T15:41:19Z</time>
      </trkpt>
      <trkpt lat="42.6730290" lon="-6.9919320">
        <ele>696.2</ele>
        <time>2014-10-02T15:41:20Z</time>
      </trkpt>
      <trkpt lat="42.6730500" lon="-6.9917960">
        <ele>695.4</ele>
        <time>2014-10-02T15:41:21Z</time>
      </trkpt>
      <trkpt lat="42.6730710" lon="-6.9916550">
        <ele>694.4</ele>
        <time>2014-10-02T15:41:22Z</time>
      </trkpt>
      <trkpt lat="42.6730880" lon="-6.9915220">
        <ele>693.4</ele>
        <time>2014-10-02T15:41:23Z</time>
      </trkpt>
      <trkpt lat="42.6730840" lon="-6.9913970">
        <ele>692.5</ele>
        <time>2014-10-02T15:41:24Z</time>
      </trkpt>
      <trkpt lat="42.6730810" lon="-6.9912810">
        <ele>691.8</ele>
        <time>2014-10-02T15:41:25Z</time>
      </trkpt>
      <trkpt lat="42.6730530" lon="-6.9912140">
        <ele>691.5</ele>
        <time>2014-10-02T15:41:26Z</time>
      </trkpt>
      <trkpt lat="42.6730270" lon="-6.9911550">
        <ele>691.1</ele>
        <time>2014-10-02T15:41:27Z</time>
      </trkpt>
      <trkpt lat="42.6729870" lon="-6.9911050">
        <ele>691.1</ele>
        <time>2014-10-02T15:41:28Z</time>
      </trkpt>
      <trkpt lat="42.6729550" lon="-6.9910520">
        <ele>690.6</ele>
        <time>2014-10-02T15:41:29Z</time>
      </trkpt>
      <trkpt lat="42.6729370" lon="-6.9909820">
        <ele>690.4</ele>
        <time>2014-10-02T15:41:30Z</time>
      </trkpt>
      <trkpt lat="42.6729200" lon="-6.9909090">
        <ele>690.2</ele>
        <time>2014-10-02T15:41:31Z</time>
      </trkpt>
      <trkpt lat="42.6729020" lon="-6.9908280">
        <ele>690.0</ele>
        <time>2014-10-02T15:41:32Z</time>
      </trkpt>
      <trkpt lat="42.6728730" lon="-6.9907650">
        <ele>689.9</ele>
        <time>2014-10-02T15:41:33Z</time>
      </trkpt>
      <trkpt lat="42.6728240" lon="-6.9907030">
        <ele>689.9</ele>
        <time>2014-10-02T15:41:34Z</time>
      </trkpt>
      <trkpt lat="42.6727730" lon="-6.9906430">
        <ele>689.8</ele>
        <time>2014-10-02T15:41:35Z</time>
      </trkpt>
      <trkpt lat="42.6727360" lon="-6.9905660">
        <ele>689.8</ele>
        <time>2014-10-02T15:41:36Z</time>
      </trkpt>
      <trkpt lat="42.6727230" lon="-6.9904890">
        <ele>689.7</ele>
        <time>2014-10-02T15:41:37Z</time>
      </trkpt>
      <trkpt lat="42.6727090" lon="-6.9904080">
        <ele>689.5</ele>
        <time>2014-10-02T15:41:38Z</time>
      </trkpt>
      <trkpt lat="42.6726970" lon="-6.9903200">
        <ele>689.4</ele>
        <time>2014-10-02T15:41:39Z</time>
      </trkpt>
      <trkpt lat="42.6726860" lon="-6.9902250">
        <ele>689.2</ele>
        <time>2014-10-02T15:41:40Z</time>
      </trkpt>
      <trkpt lat="42.6726810" lon="-6.9901270">
        <ele>688.9</ele>
        <time>2014-10-02T15:41:41Z</time>
      </trkpt>
      <trkpt lat="42.6726860" lon="-6.9900320">
        <ele>688.6</ele>
        <time>2014-10-02T15:41:42Z</time>
      </trkpt>
      <trkpt lat="42.6726970" lon="-6.9899300">
        <ele>688.3</ele>
        <time>2014-10-02T15:41:43Z</time>
      </trkpt>
      <trkpt lat="42.6727130" lon="-6.9898190">
        <ele>687.9</ele>
        <time>2014-10-02T15:41:44Z</time>
      </trkpt>
      <trkpt lat="42.6727300" lon="-6.9896980">
        <ele>687.5</ele>
        <time>2014-10-02T15:41:45Z</time>
      </trkpt>
      <trkpt lat="42.6727470" lon="-6.9895800">
        <ele>687.1</ele>
        <time>2014-10-02T15:41:46Z</time>
      </trkpt>
      <trkpt lat="42.6727690" lon="-6.9894580">
        <ele>686.7</ele>
        <time>2014-10-02T15:41:47Z</time>
      </trkpt>
      <trkpt lat="42.6727950" lon="-6.9893300">
        <ele>686.3</ele>
        <time>2014-10-02T15:41:48Z</time>
      </trkpt>
      <trkpt lat="42.6728240" lon="-6.9892030">
        <ele>686.0</ele>
        <time>2014-10-02T15:41:49Z</time>
      </trkpt>
      <trkpt lat="42.6728520" lon="-6.9890710">
        <ele>685.7</ele>
        <time>2014-10-02T15:41:50Z</time>
      </trkpt>
      <trkpt lat="42.6728730" lon="-6.9889450">
        <ele>685.6</ele>
        <time>2014-10-02T15:41:51Z</time>
      </trkpt>
      <trkpt lat="42.6728880" lon="-6.9888120">
        <ele>685.6</ele>
        <time>2014-10-02T15:41:52Z</time>
      </trkpt>
      <trkpt lat="42.6728950" lon="-6.9886900">
        <ele>685.5</ele>
        <time>2014-10-02T15:41:53Z</time>
      </trkpt>
      <trkpt lat="42.6728980" lon="-6.9885660">
        <ele>685.4</ele>
        <time>2014-10-02T15:41:54Z</time>
      </trkpt>
      <trkpt lat="42.6728990" lon="-6.9884370">
        <ele>685.3</ele>
        <time>2014-10-02T15:41:55Z</time>
      </trkpt>
      <trkpt lat="42.6728940" lon="-6.9883210">
        <ele>685.3</ele>
        <time>2014-10-02T15:41:56Z</time>
      </trkpt>
      <trkpt lat="42.6728830" lon="-6.9882110">
        <ele>685.3</ele>
        <time>2014-10-02T15:41:57Z</time>
      </trkpt>
      <trkpt lat="42.6728660" lon="-6.9881080">
        <ele>685.4</ele>
        <time>2014-10-02T15:41:58Z</time>
      </trkpt>
      <trkpt lat="42.6728300" lon="-6.9880070">
        <ele>685.4</ele>
        <time>2014-10-02T15:41:59Z</time>
      </trkpt>
      <trkpt lat="42.6727910" lon="-6.9879040">
        <ele>685.5</ele>
        <time>2014-10-02T15:42:00Z</time>
      </trkpt>
      <trkpt lat="42.6727530" lon="-6.9878120">
        <ele>685.5</ele>
        <time>2014-10-02T15:42:01Z</time>
      </trkpt>
      <trkpt lat="42.6727140" lon="-6.9877140">
        <ele>685.6</ele>
        <time>2014-10-02T15:42:02Z</time>
      </trkpt>
      <trkpt lat="42.6726750" lon="-6.9876160">
        <ele>685.6</ele>
        <time>2014-10-02T15:42:03Z</time>
      </trkpt>
      <trkpt lat="42.6726380" lon="-6.9875240">
        <ele>685.5</ele>
        <time>2014-10-02T15:42:04Z</time>
      </trkpt>
      <trkpt lat="42.6725990" lon="-6.9874310">
        <ele>685.4</ele>
        <time>2014-10-02T15:42:05Z</time>
      </trkpt>
      <trkpt lat="42.6725600" lon="-6.9873410">
        <ele>685.3</ele>
        <time>2014-10-02T15:42:06Z</time>
      </trkpt>
      <trkpt lat="42.6725140" lon="-6.9872460">
        <ele>685.2</ele>
        <time>2014-10-02T15:42:07Z</time>
      </trkpt>
      <trkpt lat="42.6724630" lon="-6.9871550">
        <ele>684.8</ele>
        <time>2014-10-02T15:42:08Z</time>
      </trkpt>
      <trkpt lat="42.6724070" lon="-6.9870690">
        <ele>684.4</ele>
        <time>2014-10-02T15:42:09Z</time>
      </trkpt>
      <trkpt lat="42.6723540" lon="-6.9869910">
        <ele>684.1</ele>
        <time>2014-10-02T15:42:10Z</time>
      </trkpt>
      <trkpt lat="42.6723050" lon="-6.9869100">
        <ele>683.7</ele>
        <time>2014-10-02T15:42:11Z</time>
      </trkpt>
      <trkpt lat="42.6722570" lon="-6.9868210">
        <ele>683.2</ele>
        <time>2014-10-02T15:42:12Z</time>
      </trkpt>
      <trkpt lat="42.6722130" lon="-6.9867310">
        <ele>682.8</ele>
        <time>2014-10-02T15:42:13Z</time>
      </trkpt>
      <trkpt lat="42.6721730" lon="-6.9866440">
        <ele>682.3</ele>
        <time>2014-10-02T15:42:14Z</time>
      </trkpt>
      <trkpt lat="42.6721210" lon="-6.9865460">
        <ele>681.9</ele>
        <time>2014-10-02T15:42:15Z</time>
      </trkpt>
      <trkpt lat="42.6720570" lon="-6.9864670">
        <ele>681.5</ele>
        <time>2014-10-02T15:42:16Z</time>
      </trkpt>
      <trkpt lat="42.6719940" lon="-6.9863860">
        <ele>681.3</ele>
        <time>2014-10-02T15:42:17Z</time>
      </trkpt>
      <trkpt lat="42.6719330" lon="-6.9863050">
        <ele>681.2</ele>
        <time>2014-10-02T15:42:18Z</time>
      </trkpt>
      <trkpt lat="42.6718680" lon="-6.9862110">
        <ele>681.1</ele>
        <time>2014-10-02T15:42:19Z</time>
      </trkpt>
      <trkpt lat="42.6718080" lon="-6.9861150">
        <ele>681.2</ele>
        <time>2014-10-02T15:42:20Z</time>
      </trkpt>
      <trkpt lat="42.6717540" lon="-6.9860140">
        <ele>681.3</ele>
        <time>2014-10-02T15:42:21Z</time>
      </trkpt>
      <trkpt lat="42.6717200" lon="-6.9859050">
        <ele>681.5</ele>
        <time>2014-10-02T15:42:22Z</time>
      </trkpt>
      <trkpt lat="42.6716890" lon="-6.9857950">
        <ele>681.8</ele>
        <time>2014-10-02T15:42:23Z</time>
      </trkpt>
      <trkpt lat="42.6716640" lon="-6.9856870">
        <ele>682.2</ele>
        <time>2014-10-02T15:42:24Z</time>
      </trkpt>
      <trkpt lat="42.6716420" lon="-6.9855780">
        <ele>682.6</ele>
        <time>2014-10-02T15:42:25Z</time>
      </trkpt>
      <trkpt lat="42.6716220" lon="-6.9854790">
        <ele>682.9</ele>
        <time>2014-10-02T15:42:26Z</time>
      </trkpt>
      <trkpt lat="42.6716060" lon="-6.9854020">
        <ele>683.1</ele>
        <time>2014-10-02T15:42:27Z</time>
      </trkpt>
      <trkpt lat="42.6715880" lon="-6.9853310">
        <ele>683.2</ele>
        <time>2014-10-02T15:42:28Z</time>
      </trkpt>
      <trkpt lat="42.6715680" lon="-6.9852610">
        <ele>683.3</ele>
        <time>2014-10-02T15:42:29Z</time>
      </trkpt>
      <trkpt lat="42.6715450" lon="-6.9851890">
        <ele>683.3</ele>
        <time>2014-10-02T15:42:30Z</time>
      </trkpt>
      <trkpt lat="42.6715200" lon="-6.9851150">
        <ele>683.2</ele>
        <time>2014-10-02T15:42:31Z</time>
      </trkpt>
      <trkpt lat="42.6714910" lon="-6.9850380">
        <ele>683.0</ele>
        <time>2014-10-02T15:42:32Z</time>
      </trkpt>
      <trkpt lat="42.6714600" lon="-6.9849560">
        <ele>682.6</ele>
        <time>2014-10-02T15:42:33Z</time>
      </trkpt>
      <trkpt lat="42.6714290" lon="-6.9848640">
        <ele>682.2</ele>
        <time>2014-10-02T15:42:34Z</time>
      </trkpt>
      <trkpt lat="42.6713990" lon="-6.9847730">
        <ele>681.6</ele>
        <time>2014-10-02T15:42:35Z</time>
      </trkpt>
      <trkpt lat="42.6713680" lon="-6.9846700">
        <ele>681.0</ele>
        <time>2014-10-02T15:42:36Z</time>
      </trkpt>
      <trkpt lat="42.6713330" lon="-6.9845550">
        <ele>680.2</ele>
        <time>2014-10-02T15:42:37Z</time>
      </trkpt>
      <trkpt lat="42.6712980" lon="-6.9844350">
        <ele>679.6</ele>
        <time>2014-10-02T15:42:38Z</time>
      </trkpt>
      <trkpt lat="42.6712640" lon="-6.9843050">
        <ele>679.2</ele>
        <time>2014-10-02T15:42:39Z</time>
      </trkpt>
      <trkpt lat="42.6712280" lon="-6.9841680">
        <ele>679.2</ele>
        <time>2014-10-02T15:42:40Z</time>
      </trkpt>
      <trkpt lat="42.6711910" lon="-6.9840420">
        <ele>679.1</ele>
        <time>2014-10-02T15:42:41Z</time>
      </trkpt>
      <trkpt lat="42.6711500" lon="-6.9839220">
        <ele>679.0</ele>
        <time>2014-10-02T15:42:42Z</time>
      </trkpt>
      <trkpt lat="42.6711070" lon="-6.9838040">
        <ele>678.9</ele>
        <time>2014-10-02T15:42:43Z</time>
      </trkpt>
      <trkpt lat="42.6710670" lon="-6.9836930">
        <ele>678.8</ele>
        <time>2014-10-02T15:42:44Z</time>
      </trkpt>
      <trkpt lat="42.6710250" lon="-6.9835840">
        <ele>678.6</ele>
        <time>2014-10-02T15:42:45Z</time>
      </trkpt>
      <trkpt lat="42.6709840" lon="-6.9834760">
        <ele>678.5</ele>
        <time>2014-10-02T15:42:46Z</time>
      </trkpt>
      <trkpt lat="42.6709450" lon="-6.9833720">
        <ele>678.3</ele>
        <time>2014-10-02T15:42:47Z</time>
      </trkpt>
      <trkpt lat="42.6709040" lon="-6.9832620">
        <ele>678.0</ele>
        <time>2014-10-02T15:42:48Z</time>
      </trkpt>
      <trkpt lat="42.6708620" lon="-6.9831560">
        <ele>677.8</ele>
        <time>2014-10-02T15:42:49Z</time>
      </trkpt>
      <trkpt lat="42.6708230" lon="-6.9830540">
        <ele>677.7</ele>
        <time>2014-10-02T15:42:50Z</time>
      </trkpt>
      <trkpt lat="42.6707790" lon="-6.9829530">
        <ele>677.5</ele>
        <time>2014-10-02T15:42:51Z</time>
      </trkpt>
      <trkpt lat="42.6707290" lon="-6.9828480">
        <ele>677.2</ele>
        <time>2014-10-02T15:42:52Z</time>
      </trkpt>
      <trkpt lat="42.6706790" lon="-6.9827440">
        <ele>677.1</ele>
        <time>2014-10-02T15:42:53Z</time>
      </trkpt>
      <trkpt lat="42.6706260" lon="-6.9826370">
        <ele>677.1</ele>
        <time>2014-10-02T15:42:54Z</time>
      </trkpt>
      <trkpt lat="42.6705770" lon="-6.9825290">
        <ele>677.0</ele>
        <time>2014-10-02T15:42:55Z</time>
      </trkpt>
      <trkpt lat="42.6705330" lon="-6.9824100">
        <ele>677.0</ele>
        <time>2014-10-02T15:42:56Z</time>
      </trkpt>
      <trkpt lat="42.6705110" lon="-6.9822810">
        <ele>677.0</ele>
        <time>2014-10-02T15:42:57Z</time>
      </trkpt>
      <trkpt lat="42.6704970" lon="-6.9821560">
        <ele>676.9</ele>
        <time>2014-10-02T15:42:58Z</time>
      </trkpt>
      <trkpt lat="42.6704900" lon="-6.9820310">
        <ele>676.8</ele>
        <time>2014-10-02T15:42:59Z</time>
      </trkpt>
      <trkpt lat="42.6704900" lon="-6.9819000">
        <ele>676.7</ele>
        <time>2014-10-02T15:43:00Z</time>
      </trkpt>
      <trkpt lat="42.6704970" lon="-6.9817780">
        <ele>676.6</ele>
        <time>2014-10-02T15:43:01Z</time>
      </trkpt>
      <trkpt lat="42.6705110" lon="-6.9816460">
        <ele>676.4</ele>
        <time>2014-10-02T15:43:02Z</time>
      </trkpt>
      <trkpt lat="42.6705310" lon="-6.9815250">
        <ele>676.4</ele>
        <time>2014-10-02T15:43:03Z</time>
      </trkpt>
      <trkpt lat="42.6705770" lon="-6.9814090">
        <ele>676.3</ele>
        <time>2014-10-02T15:43:04Z</time>
      </trkpt>
      <trkpt lat="42.6706270" lon="-6.9812900">
        <ele>676.3</ele>
        <time>2014-10-02T15:43:05Z</time>
      </trkpt>
      <trkpt lat="42.6706760" lon="-6.9811840">
        <ele>676.2</ele>
        <time>2014-10-02T15:43:06Z</time>
      </trkpt>
      <trkpt lat="42.6707270" lon="-6.9810810">
        <ele>675.8</ele>
        <time>2014-10-02T15:43:07Z</time>
      </trkpt>
      <trkpt lat="42.6707800" lon="-6.9809790">
        <ele>675.2</ele>
        <time>2014-10-02T15:43:08Z</time>
      </trkpt>
      <trkpt lat="42.6708280" lon="-6.9808710">
        <ele>674.7</ele>
        <time>2014-10-02T15:43:09Z</time>
      </trkpt>
      <trkpt lat="42.6708660" lon="-6.9807650">
        <ele>674.3</ele>
        <time>2014-10-02T15:43:10Z</time>
      </trkpt>
      <trkpt lat="42.6708840" lon="-6.9806510">
        <ele>674.0</ele>
        <time>2014-10-02T15:43:11Z</time>
      </trkpt>
      <trkpt lat="42.6709050" lon="-6.9805180">
        <ele>673.7</ele>
        <time>2014-10-02T15:43:12Z</time>
      </trkpt>
      <trkpt lat="42.6709180" lon="-6.9803860">
        <ele>673.4</ele>
        <time>2014-10-02T15:43:13Z</time>
      </trkpt>
      <trkpt lat="42.6709220" lon="-6.9802690">
        <ele>673.2</ele>
        <time>2014-10-02T15:43:14Z</time>
      </trkpt>
      <trkpt lat="42.6709210" lon="-6.9801540">
        <ele>673.0</ele>
        <time>2014-10-02T15:43:15Z</time>
      </trkpt>
      <trkpt lat="42.6709130" lon="-6.9800410">
        <ele>672.9</ele>
        <time>2014-10-02T15:43:16Z</time>
      </trkpt>
      <trkpt lat="42.6709090" lon="-6.9799270">
        <ele>672.7</ele>
        <time>2014-10-02T15:43:17Z</time>
      </trkpt>
      <trkpt lat="42.6709120" lon="-6.9798190">
        <ele>672.5</ele>
        <time>2014-10-02T15:43:18Z</time>
      </trkpt>
      <trkpt lat="42.6709240" lon="-6.9797010">
        <ele>672.4</ele>
        <time>2014-10-02T15:43:19Z</time>
      </trkpt>
      <trkpt lat="42.6709400" lon="-6.9795840">
        <ele>672.3</ele>
        <time>2014-10-02T15:43:20Z</time>
      </trkpt>
      <trkpt lat="42.6709570" lon="-6.9794800">
        <ele>672.3</ele>
        <time>2014-10-02T15:43:21Z</time>
      </trkpt>
      <trkpt lat="42.6709800" lon="-6.9793860">
        <ele>672.3</ele>
        <time>2014-10-02T15:43:22Z</time>
      </trkpt>
      <trkpt lat="42.6710080" lon="-6.9792820">
        <ele>672.6</ele>
        <time>2014-10-02T15:43:23Z</time>
      </trkpt>
      <trkpt lat="42.6710410" lon="-6.9791660">
        <ele>673.5</ele>
        <time>2014-10-02T15:43:24Z</time>
      </trkpt>
      <trkpt lat="42.6710730" lon="-6.9790730">
        <ele>674.5</ele>
        <time>2014-10-02T15:43:25Z</time>
      </trkpt>
      <trkpt lat="42.6711370" lon="-6.9789960">
        <ele>675.9</ele>
        <time>2014-10-02T15:43:26Z</time>
      </trkpt>
      <trkpt lat="42.6712030" lon="-6.9789510">
        <ele>675.8</ele>
        <time>2014-10-02T15:43:27Z</time>
      </trkpt>
      <trkpt lat="42.6712680" lon="-6.9789140">
        <ele>676.0</ele>
        <time>2014-10-02T15:43:28Z</time>
      </trkpt>
      <trkpt lat="42.6713150" lon="-6.9788930">
        <ele>676.2</ele>
        <time>2014-10-02T15:43:29Z</time>
      </trkpt>
      <trkpt lat="42.6713570" lon="-6.9788770">
        <ele>676.5</ele>
        <time>2014-10-02T15:43:30Z</time>
      </trkpt>
      <trkpt lat="42.6713990" lon="-6.9788600">
        <ele>677.1</ele>
        <time>2014-10-02T15:43:31Z</time>
      </trkpt>
      <trkpt lat="42.6714360" lon="-6.9788470">
        <ele>677.5</ele>
        <time>2014-10-02T15:43:32Z</time>
      </trkpt>
      <trkpt lat="42.6714800" lon="-6.9788300">
        <ele>678.1</ele>
        <time>2014-10-02T15:43:33Z</time>
      </trkpt>
      <trkpt lat="42.6715200" lon="-6.9788170">
        <ele>678.7</ele>
        <time>2014-10-02T15:43:34Z</time>
      </trkpt>
      <trkpt lat="42.6715630" lon="-6.9788060">
        <ele>679.2</ele>
        <time>2014-10-02T15:43:35Z</time>
      </trkpt>
      <trkpt lat="42.6716090" lon="-6.9787970">
        <ele>679.8</ele>
        <time>2014-10-02T15:43:36Z</time>
      </trkpt>
      <trkpt lat="42.6716460" lon="-6.9787940">
        <ele>680.3</ele>
        <time>2014-10-02T15:43:37Z</time>
      </trkpt>
      <trkpt lat="42.6716860" lon="-6.9787860">
        <ele>680.7</ele>
        <time>2014-10-02T15:43:38Z</time>
      </trkpt>
      <trkpt lat="42.6717240" lon="-6.9787810">
        <ele>681.2</ele>
        <time>2014-10-02T15:43:39Z</time>
      </trkpt>
      <trkpt lat="42.6717610" lon="-6.9787800">
        <ele>681.6</ele>
        <time>2014-10-02T15:43:40Z</time>
      </trkpt>
      <trkpt lat="42.6718120" lon="-6.9787700">
        <ele>682.2</ele>
        <time>2014-10-02T15:43:42Z</time>
      </trkpt>
      <trkpt lat="42.6718430" lon="-6.9787590">
        <ele>682.5</ele>
        <time>2014-10-02T15:43:43Z</time>
      </trkpt>
      <trkpt lat="42.6718910" lon="-6.9787380">
        <ele>682.9</ele>
        <time>2014-10-02T15:43:45Z</time>
      </trkpt>
      <trkpt lat="42.6719390" lon="-6.9787210">
        <ele>683.3</ele>
        <time>2014-10-02T15:43:47Z</time>
      </trkpt>
      <trkpt lat="42.6719700" lon="-6.9787110">
        <ele>683.5</ele>
        <time>2014-10-02T15:43:48Z</time>
      </trkpt>
      <trkpt lat="42.6719990" lon="-6.9787010">
        <ele>683.7</ele>
        <time>2014-10-02T15:43:49Z</time>
      </trkpt>
      <trkpt lat="42.6720350" lon="-6.9786890">
        <ele>683.9</ele>
        <time>2014-10-02T15:43:50Z</time>
      </trkpt>
      <trkpt lat="42.6720670" lon="-6.9786800">
        <ele>684.1</ele>
        <time>2014-10-02T15:43:51Z</time>
      </trkpt>
      <trkpt lat="42.6721010" lon="-6.9786730">
        <ele>684.3</ele>
        <time>2014-10-02T15:43:52Z</time>
      </trkpt>
      <trkpt lat="42.6721370" lon="-6.9786690">
        <ele>684.6</ele>
        <time>2014-10-02T15:43:53Z</time>
      </trkpt>
      <trkpt lat="42.6721720" lon="-6.9786740">
        <ele>684.8</ele>
        <time>2014-10-02T15:43:54Z</time>
      </trkpt>
      <trkpt lat="42.6722110" lon="-6.9786770">
        <ele>685.0</ele>
        <time>2014-10-02T15:43:55Z</time>
      </trkpt>
      <trkpt lat="42.6722420" lon="-6.9786790">
        <ele>685.2</ele>
        <time>2014-10-02T15:43:56Z</time>
      </trkpt>
      <trkpt lat="42.6722730" lon="-6.9786770">
        <ele>685.4</ele>
        <time>2014-10-02T15:43:57Z</time>
      </trkpt>
      <trkpt lat="42.6723020" lon="-6.9786660">
        <ele>685.7</ele>
        <time>2014-10-02T15:43:58Z</time>
      </trkpt>
      <trkpt lat="42.6723230" lon="-6.9786400">
        <ele>685.9</ele>
        <time>2014-10-02T15:43:59Z</time>
      </trkpt>
      <trkpt lat="42.6723540" lon="-6.9785840">
        <ele>686.2</ele>
        <time>2014-10-02T15:44:01Z</time>
      </trkpt>
      <trkpt lat="42.6723690" lon="-6.9785400">
        <ele>686.5</ele>
        <time>2014-10-02T15:44:02Z</time>
      </trkpt>
      <trkpt lat="42.6723800" lon="-6.9784910">
        <ele>686.8</ele>
        <time>2014-10-02T15:44:03Z</time>
      </trkpt>
      <trkpt lat="42.6723840" lon="-6.9784440">
        <ele>687.1</ele>
        <time>2014-10-02T15:44:04Z</time>
      </trkpt>
      <trkpt lat="42.6723890" lon="-6.9783920">
        <ele>687.4</ele>
        <time>2014-10-02T15:44:05Z</time>
      </trkpt>
      <trkpt lat="42.6723930" lon="-6.9783470">
        <ele>687.6</ele>
        <time>2014-10-02T15:44:06Z</time>
      </trkpt>
      <trkpt lat="42.6723980" lon="-6.9782980">
        <ele>687.9</ele>
        <time>2014-10-02T15:44:07Z</time>
      </trkpt>
      <trkpt lat="42.6724040" lon="-6.9782450">
        <ele>688.2</ele>
        <time>2014-10-02T15:44:08Z</time>
      </trkpt>
      <trkpt lat="42.6724090" lon="-6.9781950">
        <ele>688.5</ele>
        <time>2014-10-02T15:44:09Z</time>
      </trkpt>
      <trkpt lat="42.6724150" lon="-6.9781470">
        <ele>688.8</ele>
        <time>2014-10-02T15:44:10Z</time>
      </trkpt>
      <trkpt lat="42.6724190" lon="-6.9781020">
        <ele>689.1</ele>
        <time>2014-10-02T15:44:11Z</time>
      </trkpt>
      <trkpt lat="42.6724210" lon="-6.9780600">
        <ele>689.4</ele>
        <time>2014-10-02T15:44:12Z</time>
      </trkpt>
      <trkpt lat="42.6724230" lon="-6.9780170">
        <ele>689.6</ele>
        <time>2014-10-02T15:44:13Z</time>
      </trkpt>
      <trkpt lat="42.6724260" lon="-6.9779730">
        <ele>689.9</ele>
        <time>2014-10-02T15:44:14Z</time>
      </trkpt>
      <trkpt lat="42.6724290" lon="-6.9779250">
        <ele>690.2</ele>
        <time>2014-10-02T15:44:15Z</time>
      </trkpt>
      <trkpt lat="42.6724310" lon="-6.9778820">
        <ele>690.4</ele>
        <time>2014-10-02T15:44:16Z</time>
      </trkpt>
      <trkpt lat="42.6724320" lon="-6.9778440">
        <ele>690.6</ele>
        <time>2014-10-02T15:44:17Z</time>
      </trkpt>
      <trkpt lat="42.6724370" lon="-6.9777730">
        <ele>691.0</ele>
        <time>2014-10-02T15:44:19Z</time>
      </trkpt>
      <trkpt lat="42.6724410" lon="-6.9777300">
        <ele>691.2</ele>
        <time>2014-10-02T15:44:20Z</time>
      </trkpt>
      <trkpt lat="42.6724460" lon="-6.9776850">
        <ele>691.5</ele>
        <time>2014-10-02T15:44:21Z</time>
      </trkpt>
      <trkpt lat="42.6724560" lon="-6.9776140">
        <ele>691.7</ele>
        <time>2014-10-02T15:44:23Z</time>
      </trkpt>
      <trkpt lat="42.6724630" lon="-6.9775550">
        <ele>691.9</ele>
        <time>2014-10-02T15:44:25Z</time>
      </trkpt>
      <trkpt lat="42.6724670" lon="-6.9774910">
        <ele>691.9</ele>
        <time>2014-10-02T15:44:27Z</time>
      </trkpt>
      <trkpt lat="42.6724700" lon="-6.9774450">
        <ele>691.9</ele>
        <time>2014-10-02T15:44:28Z</time>
      </trkpt>
      <trkpt lat="42.6724640" lon="-6.9773930">
        <ele>691.8</ele>
        <time>2014-10-02T15:44:29Z</time>
      </trkpt>
      <trkpt lat="42.6724560" lon="-6.9773320">
        <ele>691.6</ele>
        <time>2014-10-02T15:44:30Z</time>
      </trkpt>
      <trkpt lat="42.6724530" lon="-6.9772680">
        <ele>691.4</ele>
        <time>2014-10-02T15:44:31Z</time>
      </trkpt>
      <trkpt lat="42.6724520" lon="-6.9771970">
        <ele>691.1</ele>
        <time>2014-10-02T15:44:32Z</time>
      </trkpt>
      <trkpt lat="42.6724530" lon="-6.9771260">
        <ele>690.8</ele>
        <time>2014-10-02T15:44:33Z</time>
      </trkpt>
      <trkpt lat="42.6724540" lon="-6.9770450">
        <ele>690.4</ele>
        <time>2014-10-02T15:44:34Z</time>
      </trkpt>
      <trkpt lat="42.6724590" lon="-6.9769520">
        <ele>690.1</ele>
        <time>2014-10-02T15:44:35Z</time>
      </trkpt>
      <trkpt lat="42.6724670" lon="-6.9768540">
        <ele>689.7</ele>
        <time>2014-10-02T15:44:36Z</time>
      </trkpt>
      <trkpt lat="42.6724760" lon="-6.9767510">
        <ele>689.3</ele>
        <time>2014-10-02T15:44:37Z</time>
      </trkpt>
      <trkpt lat="42.6724890" lon="-6.9766410">
        <ele>688.9</ele>
        <time>2014-10-02T15:44:38Z</time>
      </trkpt>
      <trkpt lat="42.6725020" lon="-6.9765220">
        <ele>688.5</ele>
        <time>2014-10-02T15:44:39Z</time>
      </trkpt>
      <trkpt lat="42.6725140" lon="-6.9764080">
        <ele>688.1</ele>
        <time>2014-10-02T15:44:40Z</time>
      </trkpt>
      <trkpt lat="42.6725270" lon="-6.9762870">
        <ele>687.7</ele>
        <time>2014-10-02T15:44:41Z</time>
      </trkpt>
      <trkpt lat="42.6725360" lon="-6.9761680">
        <ele>687.4</ele>
        <time>2014-10-02T15:44:42Z</time>
      </trkpt>
      <trkpt lat="42.6725420" lon="-6.9760380">
        <ele>686.9</ele>
        <time>2014-10-02T15:44:43Z</time>
      </trkpt>
      <trkpt lat="42.6725430" lon="-6.9759110">
        <ele>686.5</ele>
        <time>2014-10-02T15:44:44Z</time>
      </trkpt>
      <trkpt lat="42.6725390" lon="-6.9757780">
        <ele>686.0</ele>
        <time>2014-10-02T15:44:45Z</time>
      </trkpt>
      <trkpt lat="42.6725320" lon="-6.9756370">
        <ele>685.5</ele>
        <time>2014-10-02T15:44:46Z</time>
      </trkpt>
      <trkpt lat="42.6725220" lon="-6.9754950">
        <ele>684.9</ele>
        <time>2014-10-02T15:44:47Z</time>
      </trkpt>
      <trkpt lat="42.6725080" lon="-6.9753550">
        <ele>684.4</ele>
        <time>2014-10-02T15:44:48Z</time>
      </trkpt>
      <trkpt lat="42.6724930" lon="-6.9752220">
        <ele>683.9</ele>
        <time>2014-10-02T15:44:49Z</time>
      </trkpt>
      <trkpt lat="42.6724790" lon="-6.9750950">
        <ele>683.3</ele>
        <time>2014-10-02T15:44:50Z</time>
      </trkpt>
      <trkpt lat="42.6724670" lon="-6.9749570">
        <ele>682.9</ele>
        <time>2014-10-02T15:44:51Z</time>
      </trkpt>
      <trkpt lat="42.6724570" lon="-6.9748140">
        <ele>682.4</ele>
        <time>2014-10-02T15:44:52Z</time>
      </trkpt>
      <trkpt lat="42.6724460" lon="-6.9746650">
        <ele>681.9</ele>
        <time>2014-10-02T15:44:53Z</time>
      </trkpt>
      <trkpt lat="42.6724360" lon="-6.9745160">
        <ele>681.3</ele>
        <time>2014-10-02T15:44:54Z</time>
      </trkpt>
      <trkpt lat="42.6724240" lon="-6.9743650">
        <ele>680.8</ele>
        <time>2014-10-02T15:44:55Z</time>
      </trkpt>
      <trkpt lat="42.6724170" lon="-6.9742330">
        <ele>680.3</ele>
        <time>2014-10-02T15:44:56Z</time>
      </trkpt>
      <trkpt lat="42.6724130" lon="-6.9740910">
        <ele>679.8</ele>
        <time>2014-10-02T15:44:57Z</time>
      </trkpt>
      <trkpt lat="42.6724130" lon="-6.9739440">
        <ele>679.3</ele>
        <time>2014-10-02T15:44:58Z</time>
      </trkpt>
      <trkpt lat="42.6724170" lon="-6.9738000">
        <ele>678.8</ele>
        <time>2014-10-02T15:44:59Z</time>
      </trkpt>
      <trkpt lat="42.6724260" lon="-6.9736500">
        <ele>678.2</ele>
        <time>2014-10-02T15:45:00Z</time>
      </trkpt>
      <trkpt lat="42.6724390" lon="-6.9735020">
        <ele>677.7</ele>
        <time>2014-10-02T15:45:01Z</time>
      </trkpt>
      <trkpt lat="42.6724550" lon="-6.9733540">
        <ele>677.2</ele>
        <time>2014-10-02T15:45:02Z</time>
      </trkpt>
      <trkpt lat="42.6724700" lon="-6.9732110">
        <ele>676.7</ele>
        <time>2014-10-02T15:45:03Z</time>
      </trkpt>
      <trkpt lat="42.6724850" lon="-6.9730790">
        <ele>676.3</ele>
        <time>2014-10-02T15:45:04Z</time>
      </trkpt>
      <trkpt lat="42.6724950" lon="-6.9729340">
        <ele>675.9</ele>
        <time>2014-10-02T15:45:05Z</time>
      </trkpt>
      <trkpt lat="42.6725040" lon="-6.9727890">
        <ele>675.5</ele>
        <time>2014-10-02T15:45:06Z</time>
      </trkpt>
      <trkpt lat="42.6725090" lon="-6.9726520">
        <ele>675.1</ele>
        <time>2014-10-02T15:45:07Z</time>
      </trkpt>
      <trkpt lat="42.6725120" lon="-6.9725140">
        <ele>674.6</ele>
        <time>2014-10-02T15:45:08Z</time>
      </trkpt>
      <trkpt lat="42.6725090" lon="-6.9723740">
        <ele>674.0</ele>
        <time>2014-10-02T15:45:09Z</time>
      </trkpt>
      <trkpt lat="42.6725010" lon="-6.9722330">
        <ele>673.4</ele>
        <time>2014-10-02T15:45:10Z</time>
      </trkpt>
      <trkpt lat="42.6724910" lon="-6.9720840">
        <ele>672.7</ele>
        <time>2014-10-02T15:45:11Z</time>
      </trkpt>
      <trkpt lat="42.6724810" lon="-6.9719280">
        <ele>672.0</ele>
        <time>2014-10-02T15:45:12Z</time>
      </trkpt>
      <trkpt lat="42.6724730" lon="-6.9717770">
        <ele>671.4</ele>
        <time>2014-10-02T15:45:13Z</time>
      </trkpt>
      <trkpt lat="42.6724670" lon="-6.9716160">
        <ele>670.7</ele>
        <time>2014-10-02T15:45:14Z</time>
      </trkpt>
      <trkpt lat="42.6724700" lon="-6.9714600">
        <ele>670.0</ele>
        <time>2014-10-02T15:45:15Z</time>
      </trkpt>
      <trkpt lat="42.6724820" lon="-6.9713120">
        <ele>669.3</ele>
        <time>2014-10-02T15:45:16Z</time>
      </trkpt>
      <trkpt lat="42.6725010" lon="-6.9711600">
        <ele>668.7</ele>
        <time>2014-10-02T15:45:17Z</time>
      </trkpt>
      <trkpt lat="42.6725240" lon="-6.9710170">
        <ele>668.2</ele>
        <time>2014-10-02T15:45:18Z</time>
      </trkpt>
      <trkpt lat="42.6725470" lon="-6.9708630">
        <ele>667.6</ele>
        <time>2014-10-02T15:45:19Z</time>
      </trkpt>
      <trkpt lat="42.6725690" lon="-6.9707130">
        <ele>667.3</ele>
        <time>2014-10-02T15:45:20Z</time>
      </trkpt>
      <trkpt lat="42.6725610" lon="-6.9705650">
        <ele>667.1</ele>
        <time>2014-10-02T15:45:21Z</time>
      </trkpt>
      <trkpt lat="42.6725350" lon="-6.9704370">
        <ele>667.0</ele>
        <time>2014-10-02T15:45:22Z</time>
      </trkpt>
      <trkpt lat="42.6724810" lon="-6.9703170">
        <ele>666.8</ele>
        <time>2014-10-02T15:45:23Z</time>
      </trkpt>
      <trkpt lat="42.6724260" lon="-6.9702160">
        <ele>666.7</ele>
        <time>2014-10-02T15:45:24Z</time>
      </trkpt>
      <trkpt lat="42.6723640" lon="-6.9701190">
        <ele>666.5</ele>
        <time>2014-10-02T15:45:25Z</time>
      </trkpt>
      <trkpt lat="42.6723020" lon="-6.9700340">
        <ele>666.3</ele>
        <time>2014-10-02T15:45:26Z</time>
      </trkpt>
      <trkpt lat="42.6722420" lon="-6.9699620">
        <ele>666.1</ele>
        <time>2014-10-02T15:45:27Z</time>
      </trkpt>
      <trkpt lat="42.6721780" lon="-6.9698810">
        <ele>665.9</ele>
        <time>2014-10-02T15:45:28Z</time>
      </trkpt>
      <trkpt lat="42.6721150" lon="-6.9698030">
        <ele>665.8</ele>
        <time>2014-10-02T15:45:29Z</time>
      </trkpt>
      <trkpt lat="42.6720390" lon="-6.9697100">
        <ele>665.5</ele>
        <time>2014-10-02T15:45:30Z</time>
      </trkpt>
      <trkpt lat="42.6719700" lon="-6.9696310">
        <ele>665.3</ele>
        <time>2014-10-02T15:45:31Z</time>
      </trkpt>
      <trkpt lat="42.6719060" lon="-6.9695620">
        <ele>665.1</ele>
        <time>2014-10-02T15:45:32Z</time>
      </trkpt>
      <trkpt lat="42.6718360" lon="-6.9694880">
        <ele>664.9</ele>
        <time>2014-10-02T15:45:33Z</time>
      </trkpt>
      <trkpt lat="42.6717740" lon="-6.9694120">
        <ele>664.7</ele>
        <time>2014-10-02T15:45:34Z</time>
      </trkpt>
      <trkpt lat="42.6717230" lon="-6.9693070">
        <ele>664.4</ele>
        <time>2014-10-02T15:45:35Z</time>
      </trkpt>
      <trkpt lat="42.6716940" lon="-6.9691960">
        <ele>664.2</ele>
        <time>2014-10-02T15:45:36Z</time>
      </trkpt>
      <trkpt lat="42.6716920" lon="-6.9690750">
        <ele>664.0</ele>
        <time>2014-10-02T15:45:37Z</time>
      </trkpt>
      <trkpt lat="42.6717290" lon="-6.9689750">
        <ele>663.7</ele>
        <time>2014-10-02T15:45:38Z</time>
      </trkpt>
      <trkpt lat="42.6717860" lon="-6.9688930">
        <ele>663.5</ele>
        <time>2014-10-02T15:45:39Z</time>
      </trkpt>
      <trkpt lat="42.6718640" lon="-6.9688290">
        <ele>663.2</ele>
        <time>2014-10-02T15:45:40Z</time>
      </trkpt>
      <trkpt lat="42.6719450" lon="-6.9687630">
        <ele>662.9</ele>
        <time>2014-10-02T15:45:41Z</time>
      </trkpt>
      <trkpt lat="42.6720290" lon="-6.9687050">
        <ele>662.5</ele>
        <time>2014-10-02T15:45:42Z</time>
      </trkpt>
      <trkpt lat="42.6721170" lon="-6.9686450">
        <ele>662.2</ele>
        <time>2014-10-02T15:45:43Z</time>
      </trkpt>
      <trkpt lat="42.6722120" lon="-6.9685770">
        <ele>661.8</ele>
        <time>2014-10-02T15:45:44Z</time>
      </trkpt>
      <trkpt lat="42.6723060" lon="-6.9685020">
        <ele>661.6</ele>
        <time>2014-10-02T15:45:45Z</time>
      </trkpt>
      <trkpt lat="42.6724000" lon="-6.9684190">
        <ele>661.3</ele>
        <time>2014-10-02T15:45:46Z</time>
      </trkpt>
      <trkpt lat="42.6724760" lon="-6.9683410">
        <ele>661.1</ele>
        <time>2014-10-02T15:45:47Z</time>
      </trkpt>
      <trkpt lat="42.6725500" lon="-6.9682580">
        <ele>660.9</ele>
        <time>2014-10-02T15:45:48Z</time>
      </trkpt>
      <trkpt lat="42.6726190" lon="-6.9681750">
        <ele>660.7</ele>
        <time>2014-10-02T15:45:49Z</time>
      </trkpt>
      <trkpt lat="42.6726800" lon="-6.9680880">
        <ele>660.5</ele>
        <time>2014-10-02T15:45:50Z</time>
      </trkpt>
      <trkpt lat="42.6727440" lon="-6.9679910">
        <ele>660.3</ele>
        <time>2014-10-02T15:45:51Z</time>
      </trkpt>
      <trkpt lat="42.6728040" lon="-6.9678860">
        <ele>660.1</ele>
        <time>2014-10-02T15:45:52Z</time>
      </trkpt>
      <trkpt lat="42.6728640" lon="-6.9677760">
        <ele>659.7</ele>
        <time>2014-10-02T15:45:53Z</time>
      </trkpt>
      <trkpt lat="42.6729200" lon="-6.9676630">
        <ele>659.4</ele>
        <time>2014-10-02T15:45:54Z</time>
      </trkpt>
      <trkpt lat="42.6729710" lon="-6.9675480">
        <ele>658.9</ele>
        <time>2014-10-02T15:45:55Z</time>
      </trkpt>
      <trkpt lat="42.6729990" lon="-6.9674150">
        <ele>658.5</ele>
        <time>2014-10-02T15:45:56Z</time>
      </trkpt>
      <trkpt lat="42.6730040" lon="-6.9672840">
        <ele>658.0</ele>
        <time>2014-10-02T15:45:57Z</time>
      </trkpt>
      <trkpt lat="42.6730040" lon="-6.9671560">
        <ele>657.4</ele>
        <time>2014-10-02T15:45:58Z</time>
      </trkpt>
      <trkpt lat="42.6729940" lon="-6.9669900">
        <ele>657.1</ele>
        <time>2014-10-02T15:45:59Z</time>
      </trkpt>
      <trkpt lat="42.6729600" lon="-6.9668230">
        <ele>656.8</ele>
        <time>2014-10-02T15:46:00Z</time>
      </trkpt>
      <trkpt lat="42.6729210" lon="-6.9666730">
        <ele>656.5</ele>
        <time>2014-10-02T15:46:01Z</time>
      </trkpt>
      <trkpt lat="42.6728760" lon="-6.9665460">
        <ele>656.2</ele>
        <time>2014-10-02T15:46:02Z</time>
      </trkpt>
      <trkpt lat="42.6728130" lon="-6.9664390">
        <ele>655.8</ele>
        <time>2014-10-02T15:46:03Z</time>
      </trkpt>
      <trkpt lat="42.6727450" lon="-6.9663210">
        <ele>655.3</ele>
        <time>2014-10-02T15:46:04Z</time>
      </trkpt>
      <trkpt lat="42.6726730" lon="-6.9662000">
        <ele>655.0</ele>
        <time>2014-10-02T15:46:05Z</time>
      </trkpt>
      <trkpt lat="42.6726000" lon="-6.9660760">
        <ele>654.8</ele>
        <time>2014-10-02T15:46:06Z</time>
      </trkpt>
      <trkpt lat="42.6725320" lon="-6.9659610">
        <ele>654.7</ele>
        <time>2014-10-02T15:46:07Z</time>
      </trkpt>
      <trkpt lat="42.6724660" lon="-6.9658460">
        <ele>654.8</ele>
        <time>2014-10-02T15:46:08Z</time>
      </trkpt>
      <trkpt lat="42.6724030" lon="-6.9657420">
        <ele>654.9</ele>
        <time>2014-10-02T15:46:09Z</time>
      </trkpt>
      <trkpt lat="42.6723420" lon="-6.9656400">
        <ele>655.0</ele>
        <time>2014-10-02T15:46:10Z</time>
      </trkpt>
      <trkpt lat="42.6722840" lon="-6.9655390">
        <ele>655.1</ele>
        <time>2014-10-02T15:46:11Z</time>
      </trkpt>
      <trkpt lat="42.6722260" lon="-6.9654370">
        <ele>655.2</ele>
        <time>2014-10-02T15:46:12Z</time>
      </trkpt>
      <trkpt lat="42.6721690" lon="-6.9653360">
        <ele>655.3</ele>
        <time>2014-10-02T15:46:13Z</time>
      </trkpt>
      <trkpt lat="42.6721150" lon="-6.9652400">
        <ele>655.5</ele>
        <time>2014-10-02T15:46:14Z</time>
      </trkpt>
      <trkpt lat="42.6720620" lon="-6.9651430">
        <ele>655.6</ele>
        <time>2014-10-02T15:46:15Z</time>
      </trkpt>
      <trkpt lat="42.6720140" lon="-6.9650520">
        <ele>655.6</ele>
        <time>2014-10-02T15:46:16Z</time>
      </trkpt>
      <trkpt lat="42.6719690" lon="-6.9649640">
        <ele>655.6</ele>
        <time>2014-10-02T15:46:17Z</time>
      </trkpt>
      <trkpt lat="42.6719280" lon="-6.9648790">
        <ele>655.6</ele>
        <time>2014-10-02T15:46:18Z</time>
      </trkpt>
      <trkpt lat="42.6718880" lon="-6.9647930">
        <ele>655.5</ele>
        <time>2014-10-02T15:46:19Z</time>
      </trkpt>
      <trkpt lat="42.6718530" lon="-6.9647140">
        <ele>655.5</ele>
        <time>2014-10-02T15:46:20Z</time>
      </trkpt>
      <trkpt lat="42.6718070" lon="-6.9646250">
        <ele>655.5</ele>
        <time>2014-10-02T15:46:21Z</time>
      </trkpt>
      <trkpt lat="42.6717580" lon="-6.9645320">
        <ele>655.5</ele>
        <time>2014-10-02T15:46:22Z</time>
      </trkpt>
      <trkpt lat="42.6717130" lon="-6.9644460">
        <ele>655.5</ele>
        <time>2014-10-02T15:46:23Z</time>
      </trkpt>
      <trkpt lat="42.6716720" lon="-6.9643640">
        <ele>655.4</ele>
        <time>2014-10-02T15:46:24Z</time>
      </trkpt>
      <trkpt lat="42.6716310" lon="-6.9642790">
        <ele>655.4</ele>
        <time>2014-10-02T15:46:25Z</time>
      </trkpt>
      <trkpt lat="42.6715910" lon="-6.9641970">
        <ele>655.4</ele>
        <time>2014-10-02T15:46:26Z</time>
      </trkpt>
      <trkpt lat="42.6715500" lon="-6.9641140">
        <ele>655.3</ele>
        <time>2014-10-02T15:46:27Z</time>
      </trkpt>
      <trkpt lat="42.6715080" lon="-6.9640180">
        <ele>655.2</ele>
        <time>2014-10-02T15:46:28Z</time>
      </trkpt>
      <trkpt lat="42.6714680" lon="-6.9639200">
        <ele>655.4</ele>
        <time>2014-10-02T15:46:29Z</time>
      </trkpt>
      <trkpt lat="42.6714320" lon="-6.9638220">
        <ele>655.5</ele>
        <time>2014-10-02T15:46:30Z</time>
      </trkpt>
      <trkpt lat="42.6713960" lon="-6.9637260">
        <ele>655.6</ele>
        <time>2014-10-02T15:46:31Z</time>
      </trkpt>
      <trkpt lat="42.6713630" lon="-6.9636310">
        <ele>655.8</ele>
        <time>2014-10-02T15:46:32Z</time>
      </trkpt>
      <trkpt lat="42.6713310" lon="-6.9635400">
        <ele>655.9</ele>
        <time>2014-10-02T15:46:33Z</time>
      </trkpt>
      <trkpt lat="42.6713000" lon="-6.9634520">
        <ele>656.1</ele>
        <time>2014-10-02T15:46:34Z</time>
      </trkpt>
      <trkpt lat="42.6712620" lon="-6.9633560">
        <ele>656.2</ele>
        <time>2014-10-02T15:46:35Z</time>
      </trkpt>
      <trkpt lat="42.6712260" lon="-6.9632620">
        <ele>656.4</ele>
        <time>2014-10-02T15:46:36Z</time>
      </trkpt>
      <trkpt lat="42.6711900" lon="-6.9631640">
        <ele>656.0</ele>
        <time>2014-10-02T15:46:37Z</time>
      </trkpt>
      <trkpt lat="42.6711530" lon="-6.9630650">
        <ele>655.4</ele>
        <time>2014-10-02T15:46:38Z</time>
      </trkpt>
      <trkpt lat="42.6711180" lon="-6.9629650">
        <ele>654.9</ele>
        <time>2014-10-02T15:46:39Z</time>
      </trkpt>
      <trkpt lat="42.6710840" lon="-6.9628680">
        <ele>654.8</ele>
        <time>2014-10-02T15:46:40Z</time>
      </trkpt>
      <trkpt lat="42.6710510" lon="-6.9627670">
        <ele>654.6</ele>
        <time>2014-10-02T15:46:41Z</time>
      </trkpt>
      <trkpt lat="42.6710180" lon="-6.9626620">
        <ele>654.5</ele>
        <time>2014-10-02T15:46:42Z</time>
      </trkpt>
      <trkpt lat="42.6709850" lon="-6.9625540">
        <ele>654.4</ele>
        <time>2014-10-02T15:46:43Z</time>
      </trkpt>
      <trkpt lat="42.6709530" lon="-6.9624490">
        <ele>654.2</ele>
        <time>2014-10-02T15:46:44Z</time>
      </trkpt>
      <trkpt lat="42.6709220" lon="-6.9623500">
        <ele>654.0</ele>
        <time>2014-10-02T15:46:45Z</time>
      </trkpt>
      <trkpt lat="42.6708880" lon="-6.9622460">
        <ele>653.8</ele>
        <time>2014-10-02T15:46:46Z</time>
      </trkpt>
      <trkpt lat="42.6708530" lon="-6.9621410">
        <ele>653.6</ele>
        <time>2014-10-02T15:46:47Z</time>
      </trkpt>
      <trkpt lat="42.6708190" lon="-6.9620380">
        <ele>653.5</ele>
        <time>2014-10-02T15:46:48Z</time>
      </trkpt>
      <trkpt lat="42.6707840" lon="-6.9619370">
        <ele>653.3</ele>
        <time>2014-10-02T15:46:49Z</time>
      </trkpt>
      <trkpt lat="42.6707490" lon="-6.9618260">
        <ele>653.0</ele>
        <time>2014-10-02T15:46:50Z</time>
      </trkpt>
      <trkpt lat="42.6707100" lon="-6.9617230">
        <ele>652.8</ele>
        <time>2014-10-02T15:46:51Z</time>
      </trkpt>
      <trkpt lat="42.6706710" lon="-6.9616090">
        <ele>652.6</ele>
        <time>2014-10-02T15:46:52Z</time>
      </trkpt>
      <trkpt lat="42.6706310" lon="-6.9614970">
        <ele>652.3</ele>
        <time>2014-10-02T15:46:53Z</time>
      </trkpt>
      <trkpt lat="42.6705900" lon="-6.9613880">
        <ele>652.0</ele>
        <time>2014-10-02T15:46:54Z</time>
      </trkpt>
      <trkpt lat="42.6705470" lon="-6.9612800">
        <ele>651.8</ele>
        <time>2014-10-02T15:46:55Z</time>
      </trkpt>
      <trkpt lat="42.6705040" lon="-6.9611740">
        <ele>651.5</ele>
        <time>2014-10-02T15:46:56Z</time>
      </trkpt>
      <trkpt lat="42.6704600" lon="-6.9610790">
        <ele>651.3</ele>
        <time>2014-10-02T15:46:57Z</time>
      </trkpt>
      <trkpt lat="42.6704130" lon="-6.9609760">
        <ele>651.1</ele>
        <time>2014-10-02T15:46:58Z</time>
      </trkpt>
      <trkpt lat="42.6703670" lon="-6.9608730">
        <ele>651.0</ele>
        <time>2014-10-02T15:46:59Z</time>
      </trkpt>
      <trkpt lat="42.6703180" lon="-6.9607680">
        <ele>650.8</ele>
        <time>2014-10-02T15:47:00Z</time>
      </trkpt>
      <trkpt lat="42.6702680" lon="-6.9606650">
        <ele>650.7</ele>
        <time>2014-10-02T15:47:01Z</time>
      </trkpt>
      <trkpt lat="42.6702180" lon="-6.9605590">
        <ele>650.5</ele>
        <time>2014-10-02T15:47:02Z</time>
      </trkpt>
      <trkpt lat="42.6701670" lon="-6.9604480">
        <ele>650.5</ele>
        <time>2014-10-02T15:47:03Z</time>
      </trkpt>
      <trkpt lat="42.6701180" lon="-6.9603380">
        <ele>650.5</ele>
        <time>2014-10-02T15:47:04Z</time>
      </trkpt>
      <trkpt lat="42.6700710" lon="-6.9602300">
        <ele>650.4</ele>
        <time>2014-10-02T15:47:05Z</time>
      </trkpt>
      <trkpt lat="42.6700220" lon="-6.9601220">
        <ele>650.4</ele>
        <time>2014-10-02T15:47:06Z</time>
      </trkpt>
      <trkpt lat="42.6699740" lon="-6.9600180">
        <ele>650.4</ele>
        <time>2014-10-02T15:47:07Z</time>
      </trkpt>
      <trkpt lat="42.6699280" lon="-6.9599150">
        <ele>650.4</ele>
        <time>2014-10-02T15:47:08Z</time>
      </trkpt>
      <trkpt lat="42.6698840" lon="-6.9598120">
        <ele>650.3</ele>
        <time>2014-10-02T15:47:09Z</time>
      </trkpt>
      <trkpt lat="42.6698390" lon="-6.9597210">
        <ele>650.3</ele>
        <time>2014-10-02T15:47:10Z</time>
      </trkpt>
      <trkpt lat="42.6697850" lon="-6.9596270">
        <ele>650.2</ele>
        <time>2014-10-02T15:47:11Z</time>
      </trkpt>
      <trkpt lat="42.6697340" lon="-6.9595470">
        <ele>650.1</ele>
        <time>2014-10-02T15:47:12Z</time>
      </trkpt>
      <trkpt lat="42.6696860" lon="-6.9594740">
        <ele>650.1</ele>
        <time>2014-10-02T15:47:13Z</time>
      </trkpt>
      <trkpt lat="42.6696380" lon="-6.9594100">
        <ele>650.1</ele>
        <time>2014-10-02T15:47:14Z</time>
      </trkpt>
      <trkpt lat="42.6695780" lon="-6.9593310">
        <ele>650.0</ele>
        <time>2014-10-02T15:47:15Z</time>
      </trkpt>
      <trkpt lat="42.6695210" lon="-6.9592610">
        <ele>650.0</ele>
        <time>2014-10-02T15:47:16Z</time>
      </trkpt>
      <trkpt lat="42.6694650" lon="-6.9591920">
        <ele>650.0</ele>
        <time>2014-10-02T15:47:17Z</time>
      </trkpt>
      <trkpt lat="42.6693990" lon="-6.9591190">
        <ele>650.0</ele>
        <time>2014-10-02T15:47:18Z</time>
      </trkpt>
      <trkpt lat="42.6693300" lon="-6.9590440">
        <ele>650.0</ele>
        <time>2014-10-02T15:47:19Z</time>
      </trkpt>
      <trkpt lat="42.6692590" lon="-6.9589730">
        <ele>650.0</ele>
        <time>2014-10-02T15:47:20Z</time>
      </trkpt>
      <trkpt lat="42.6691850" lon="-6.9589020">
        <ele>650.1</ele>
        <time>2014-10-02T15:47:21Z</time>
      </trkpt>
      <trkpt lat="42.6691100" lon="-6.9588360">
        <ele>650.2</ele>
        <time>2014-10-02T15:47:22Z</time>
      </trkpt>
      <trkpt lat="42.6690310" lon="-6.9587690">
        <ele>650.2</ele>
        <time>2014-10-02T15:47:23Z</time>
      </trkpt>
      <trkpt lat="42.6689640" lon="-6.9587150">
        <ele>650.2</ele>
        <time>2014-10-02T15:47:24Z</time>
      </trkpt>
      <trkpt lat="42.6688950" lon="-6.9586620">
        <ele>650.2</ele>
        <time>2014-10-02T15:47:25Z</time>
      </trkpt>
      <trkpt lat="42.6688230" lon="-6.9586090">
        <ele>650.2</ele>
        <time>2014-10-02T15:47:26Z</time>
      </trkpt>
      <trkpt lat="42.6687490" lon="-6.9585540">
        <ele>650.2</ele>
        <time>2014-10-02T15:47:27Z</time>
      </trkpt>
      <trkpt lat="42.6686770" lon="-6.9584960">
        <ele>650.1</ele>
        <time>2014-10-02T15:47:28Z</time>
      </trkpt>
      <trkpt lat="42.6686090" lon="-6.9584430">
        <ele>650.0</ele>
        <time>2014-10-02T15:47:29Z</time>
      </trkpt>
      <trkpt lat="42.6685390" lon="-6.9583860">
        <ele>649.8</ele>
        <time>2014-10-02T15:47:30Z</time>
      </trkpt>
      <trkpt lat="42.6684680" lon="-6.9583290">
        <ele>649.5</ele>
        <time>2014-10-02T15:47:31Z</time>
      </trkpt>
      <trkpt lat="42.6683930" lon="-6.9582660">
        <ele>649.2</ele>
        <time>2014-10-02T15:47:32Z</time>
      </trkpt>
      <trkpt lat="42.6683210" lon="-6.9582040">
        <ele>648.9</ele>
        <time>2014-10-02T15:47:33Z</time>
      </trkpt>
      <trkpt lat="42.6682440" lon="-6.9581390">
        <ele>648.6</ele>
        <time>2014-10-02T15:47:34Z</time>
      </trkpt>
      <trkpt lat="42.6681670" lon="-6.9580720">
        <ele>648.3</ele>
        <time>2014-10-02T15:47:35Z</time>
      </trkpt>
      <trkpt lat="42.6680900" lon="-6.9580040">
        <ele>648.1</ele>
        <time>2014-10-02T15:47:36Z</time>
      </trkpt>
      <trkpt lat="42.6680120" lon="-6.9579350">
        <ele>647.8</ele>
        <time>2014-10-02T15:47:37Z</time>
      </trkpt>
      <trkpt lat="42.6679320" lon="-6.9578640">
        <ele>647.5</ele>
        <time>2014-10-02T15:47:38Z</time>
      </trkpt>
      <trkpt lat="42.6678540" lon="-6.9577960">
        <ele>647.3</ele>
        <time>2014-10-02T15:47:39Z</time>
      </trkpt>
      <trkpt lat="42.6677710" lon="-6.9577240">
        <ele>647.0</ele>
        <time>2014-10-02T15:47:40Z</time>
      </trkpt>
      <trkpt lat="42.6676890" lon="-6.9576490">
        <ele>646.7</ele>
        <time>2014-10-02T15:47:41Z</time>
      </trkpt>
      <trkpt lat="42.6676060" lon="-6.9575720">
        <ele>646.4</ele>
        <time>2014-10-02T15:47:42Z</time>
      </trkpt>
      <trkpt lat="42.6675310" lon="-6.9575030">
        <ele>646.2</ele>
        <time>2014-10-02T15:47:43Z</time>
      </trkpt>
      <trkpt lat="42.6674550" lon="-6.9574360">
        <ele>646.0</ele>
        <time>2014-10-02T15:47:44Z</time>
      </trkpt>
      <trkpt lat="42.6673740" lon="-6.9573650">
        <ele>645.8</ele>
        <time>2014-10-02T15:47:45Z</time>
      </trkpt>
      <trkpt lat="42.6672970" lon="-6.9572990">
        <ele>645.7</ele>
        <time>2014-10-02T15:47:46Z</time>
      </trkpt>
      <trkpt lat="42.6672200" lon="-6.9572310">
        <ele>645.5</ele>
        <time>2014-10-02T15:47:47Z</time>
      </trkpt>
      <trkpt lat="42.6671390" lon="-6.9571580">
        <ele>645.3</ele>
        <time>2014-10-02T15:47:48Z</time>
      </trkpt>
      <trkpt lat="42.6670580" lon="-6.9570860">
        <ele>645.1</ele>
        <time>2014-10-02T15:47:49Z</time>
      </trkpt>
      <trkpt lat="42.6669800" lon="-6.9570180">
        <ele>645.0</ele>
        <time>2014-10-02T15:47:50Z</time>
      </trkpt>
      <trkpt lat="42.6669030" lon="-6.9569520">
        <ele>644.9</ele>
        <time>2014-10-02T15:47:51Z</time>
      </trkpt>
      <trkpt lat="42.6668300" lon="-6.9568900">
        <ele>644.8</ele>
        <time>2014-10-02T15:47:52Z</time>
      </trkpt>
      <trkpt lat="42.6667550" lon="-6.9568260">
        <ele>644.7</ele>
        <time>2014-10-02T15:47:53Z</time>
      </trkpt>
      <trkpt lat="42.6666780" lon="-6.9567580">
        <ele>644.6</ele>
        <time>2014-10-02T15:47:54Z</time>
      </trkpt>
      <trkpt lat="42.6666030" lon="-6.9566920">
        <ele>644.5</ele>
        <time>2014-10-02T15:47:55Z</time>
      </trkpt>
      <trkpt lat="42.6665330" lon="-6.9566260">
        <ele>644.5</ele>
        <time>2014-10-02T15:47:56Z</time>
      </trkpt>
      <trkpt lat="42.6664650" lon="-6.9565600">
        <ele>644.5</ele>
        <time>2014-10-02T15:47:57Z</time>
      </trkpt>
      <trkpt lat="42.6663930" lon="-6.9564930">
        <ele>644.5</ele>
        <time>2014-10-02T15:47:58Z</time>
      </trkpt>
      <trkpt lat="42.6663240" lon="-6.9564340">
        <ele>644.5</ele>
        <time>2014-10-02T15:47:59Z</time>
      </trkpt>
      <trkpt lat="42.6662540" lon="-6.9563740">
        <ele>644.6</ele>
        <time>2014-10-02T15:48:00Z</time>
      </trkpt>
      <trkpt lat="42.6661840" lon="-6.9563130">
        <ele>644.7</ele>
        <time>2014-10-02T15:48:01Z</time>
      </trkpt>
      <trkpt lat="42.6661180" lon="-6.9562590">
        <ele>644.7</ele>
        <time>2014-10-02T15:48:02Z</time>
      </trkpt>
      <trkpt lat="42.6660560" lon="-6.9562040">
        <ele>644.8</ele>
        <time>2014-10-02T15:48:03Z</time>
      </trkpt>
      <trkpt lat="42.6659930" lon="-6.9561520">
        <ele>644.9</ele>
        <time>2014-10-02T15:48:04Z</time>
      </trkpt>
      <trkpt lat="42.6659300" lon="-6.9560990">
        <ele>645.1</ele>
        <time>2014-10-02T15:48:05Z</time>
      </trkpt>
      <trkpt lat="42.6658690" lon="-6.9560480">
        <ele>645.2</ele>
        <time>2014-10-02T15:48:06Z</time>
      </trkpt>
      <trkpt lat="42.6658010" lon="-6.9559890">
        <ele>645.3</ele>
        <time>2014-10-02T15:48:07Z</time>
      </trkpt>
      <trkpt lat="42.6657410" lon="-6.9559310">
        <ele>645.5</ele>
        <time>2014-10-02T15:48:08Z</time>
      </trkpt>
      <trkpt lat="42.6656790" lon="-6.9558690">
        <ele>645.7</ele>
        <time>2014-10-02T15:48:09Z</time>
      </trkpt>
      <trkpt lat="42.6656220" lon="-6.9558120">
        <ele>645.8</ele>
        <time>2014-10-02T15:48:10Z</time>
      </trkpt>
      <trkpt lat="42.6655600" lon="-6.9557540">
        <ele>646.0</ele>
        <time>2014-10-02T15:48:11Z</time>
      </trkpt>
      <trkpt lat="42.6654950" lon="-6.9556950">
        <ele>646.3</ele>
        <time>2014-10-02T15:48:12Z</time>
      </trkpt>
      <trkpt lat="42.6654340" lon="-6.9556410">
        <ele>646.5</ele>
        <time>2014-10-02T15:48:13Z</time>
      </trkpt>
      <trkpt lat="42.6653750" lon="-6.9555910">
        <ele>646.6</ele>
        <time>2014-10-02T15:48:14Z</time>
      </trkpt>
      <trkpt lat="42.6653200" lon="-6.9555450">
        <ele>646.8</ele>
        <time>2014-10-02T15:48:15Z</time>
      </trkpt>
      <trkpt lat="42.6652660" lon="-6.9554980">
        <ele>647.0</ele>
        <time>2014-10-02T15:48:16Z</time>
      </trkpt>
      <trkpt lat="42.6652070" lon="-6.9554520">
        <ele>647.1</ele>
        <time>2014-10-02T15:48:17Z</time>
      </trkpt>
      <trkpt lat="42.6651520" lon="-6.9554070">
        <ele>647.2</ele>
        <time>2014-10-02T15:48:18Z</time>
      </trkpt>
      <trkpt lat="42.6651000" lon="-6.9553630">
        <ele>647.3</ele>
        <time>2014-10-02T15:48:19Z</time>
      </trkpt>
      <trkpt lat="42.6650410" lon="-6.9553180">
        <ele>647.4</ele>
        <time>2014-10-02T15:48:20Z</time>
      </trkpt>
      <trkpt lat="42.6649860" lon="-6.9552740">
        <ele>647.4</ele>
        <time>2014-10-02T15:48:21Z</time>
      </trkpt>
      <trkpt lat="42.6649280" lon="-6.9552230">
        <ele>647.5</ele>
        <time>2014-10-02T15:48:22Z</time>
      </trkpt>
      <trkpt lat="42.6648730" lon="-6.9551720">
        <ele>647.6</ele>
        <time>2014-10-02T15:48:23Z</time>
      </trkpt>
      <trkpt lat="42.6648190" lon="-6.9551220">
        <ele>647.7</ele>
        <time>2014-10-02T15:48:24Z</time>
      </trkpt>
      <trkpt lat="42.6647600" lon="-6.9550680">
        <ele>647.8</ele>
        <time>2014-10-02T15:48:25Z</time>
      </trkpt>
      <trkpt lat="42.6647000" lon="-6.9550140">
        <ele>647.9</ele>
        <time>2014-10-02T15:48:26Z</time>
      </trkpt>
      <trkpt lat="42.6646430" lon="-6.9549570">
        <ele>648.0</ele>
        <time>2014-10-02T15:48:27Z</time>
      </trkpt>
      <trkpt lat="42.6645910" lon="-6.9548970">
        <ele>648.0</ele>
        <time>2014-10-02T15:48:28Z</time>
      </trkpt>
      <trkpt lat="42.6645460" lon="-6.9548190">
        <ele>648.1</ele>
        <time>2014-10-02T15:48:29Z</time>
      </trkpt>
      <trkpt lat="42.6644950" lon="-6.9547370">
        <ele>648.2</ele>
        <time>2014-10-02T15:48:30Z</time>
      </trkpt>
      <trkpt lat="42.6644500" lon="-6.9546570">
        <ele>648.3</ele>
        <time>2014-10-02T15:48:31Z</time>
      </trkpt>
      <trkpt lat="42.6644210" lon="-6.9545630">
        <ele>648.4</ele>
        <time>2014-10-02T15:48:32Z</time>
      </trkpt>
      <trkpt lat="42.6644000" lon="-6.9544750">
        <ele>648.5</ele>
        <time>2014-10-02T15:48:33Z</time>
      </trkpt>
      <trkpt lat="42.6643970" lon="-6.9543720">
        <ele>648.6</ele>
        <time>2014-10-02T15:48:34Z</time>
      </trkpt>
      <trkpt lat="42.6644000" lon="-6.9542760">
        <ele>648.6</ele>
        <time>2014-10-02T15:48:35Z</time>
      </trkpt>
      <trkpt lat="42.6644070" lon="-6.9541920">
        <ele>648.7</ele>
        <time>2014-10-02T15:48:36Z</time>
      </trkpt>
      <trkpt lat="42.6644150" lon="-6.9541260">
        <ele>648.8</ele>
        <time>2014-10-02T15:48:37Z</time>
      </trkpt>
      <trkpt lat="42.6644280" lon="-6.9540280">
        <ele>648.8</ele>
        <time>2014-10-02T15:48:38Z</time>
      </trkpt>
      <trkpt lat="42.6644390" lon="-6.9539420">
        <ele>648.9</ele>
        <time>2014-10-02T15:48:39Z</time>
      </trkpt>
      <trkpt lat="42.6644550" lon="-6.9538400">
        <ele>649.0</ele>
        <time>2014-10-02T15:48:40Z</time>
      </trkpt>
      <trkpt lat="42.6644720" lon="-6.9537410">
        <ele>649.1</ele>
        <time>2014-10-02T15:48:41Z</time>
      </trkpt>
      <trkpt lat="42.6644900" lon="-6.9536280">
        <ele>649.2</ele>
        <time>2014-10-02T15:48:42Z</time>
      </trkpt>
      <trkpt lat="42.6645020" lon="-6.9535280">
        <ele>649.3</ele>
        <time>2014-10-02T15:48:43Z</time>
      </trkpt>
      <trkpt lat="42.6645090" lon="-6.9534420">
        <ele>649.3</ele>
        <time>2014-10-02T15:48:44Z</time>
      </trkpt>
      <trkpt lat="42.6645130" lon="-6.9533580">
        <ele>649.3</ele>
        <time>2014-10-02T15:48:45Z</time>
      </trkpt>
      <trkpt lat="42.6645160" lon="-6.9532640">
        <ele>649.3</ele>
        <time>2014-10-02T15:48:46Z</time>
      </trkpt>
      <trkpt lat="42.6645190" lon="-6.9531660">
        <ele>649.2</ele>
        <time>2014-10-02T15:48:47Z</time>
      </trkpt>
      <trkpt lat="42.6645220" lon="-6.9530640">
        <ele>649.2</ele>
        <time>2014-10-02T15:48:48Z</time>
      </trkpt>
      <trkpt lat="42.6645220" lon="-6.9529660">
        <ele>649.0</ele>
        <time>2014-10-02T15:48:49Z</time>
      </trkpt>
      <trkpt lat="42.6645230" lon="-6.9528660">
        <ele>648.9</ele>
        <time>2014-10-02T15:48:50Z</time>
      </trkpt>
      <trkpt lat="42.6645280" lon="-6.9527550">
        <ele>648.6</ele>
        <time>2014-10-02T15:48:51Z</time>
      </trkpt>
      <trkpt lat="42.6645380" lon="-6.9526410">
        <ele>648.3</ele>
        <time>2014-10-02T15:48:52Z</time>
      </trkpt>
      <trkpt lat="42.6645480" lon="-6.9525270">
        <ele>647.9</ele>
        <time>2014-10-02T15:48:53Z</time>
      </trkpt>
      <trkpt lat="42.6645630" lon="-6.9523890">
        <ele>647.5</ele>
        <time>2014-10-02T15:48:54Z</time>
      </trkpt>
      <trkpt lat="42.6645770" lon="-6.9522530">
        <ele>647.0</ele>
        <time>2014-10-02T15:48:55Z</time>
      </trkpt>
      <trkpt lat="42.6645930" lon="-6.9521260">
        <ele>646.6</ele>
        <time>2014-10-02T15:48:56Z</time>
      </trkpt>
      <trkpt lat="42.6646100" lon="-6.9519990">
        <ele>646.3</ele>
        <time>2014-10-02T15:48:57Z</time>
      </trkpt>
      <trkpt lat="42.6646280" lon="-6.9518750">
        <ele>645.9</ele>
        <time>2014-10-02T15:48:58Z</time>
      </trkpt>
      <trkpt lat="42.6646470" lon="-6.9517490">
        <ele>645.5</ele>
        <time>2014-10-02T15:48:59Z</time>
      </trkpt>
      <trkpt lat="42.6646660" lon="-6.9516310">
        <ele>645.2</ele>
        <time>2014-10-02T15:49:00Z</time>
      </trkpt>
      <trkpt lat="42.6646830" lon="-6.9515250">
        <ele>645.0</ele>
        <time>2014-10-02T15:49:01Z</time>
      </trkpt>
      <trkpt lat="42.6647010" lon="-6.9514050">
        <ele>644.6</ele>
        <time>2014-10-02T15:49:02Z</time>
      </trkpt>
      <trkpt lat="42.6647210" lon="-6.9512850">
        <ele>644.2</ele>
        <time>2014-10-02T15:49:03Z</time>
      </trkpt>
      <trkpt lat="42.6647420" lon="-6.9511650">
        <ele>643.8</ele>
        <time>2014-10-02T15:49:04Z</time>
      </trkpt>
      <trkpt lat="42.6647580" lon="-6.9510460">
        <ele>643.4</ele>
        <time>2014-10-02T15:49:05Z</time>
      </trkpt>
      <trkpt lat="42.6647760" lon="-6.9509130">
        <ele>642.9</ele>
        <time>2014-10-02T15:49:06Z</time>
      </trkpt>
      <trkpt lat="42.6647890" lon="-6.9507850">
        <ele>642.4</ele>
        <time>2014-10-02T15:49:07Z</time>
      </trkpt>
      <trkpt lat="42.6648040" lon="-6.9506420">
        <ele>642.0</ele>
        <time>2014-10-02T15:49:08Z</time>
      </trkpt>
      <trkpt lat="42.6648160" lon="-6.9505010">
        <ele>641.5</ele>
        <time>2014-10-02T15:49:09Z</time>
      </trkpt>
      <trkpt lat="42.6648290" lon="-6.9503560">
        <ele>641.1</ele>
        <time>2014-10-02T15:49:10Z</time>
      </trkpt>
      <trkpt lat="42.6648430" lon="-6.9502080">
        <ele>640.7</ele>
        <time>2014-10-02T15:49:11Z</time>
      </trkpt>
      <trkpt lat="42.6648550" lon="-6.9500760">
        <ele>640.4</ele>
        <time>2014-10-02T15:49:12Z</time>
      </trkpt>
      <trkpt lat="42.6648690" lon="-6.9499290">
        <ele>640.1</ele>
        <time>2014-10-02T15:49:13Z</time>
      </trkpt>
      <trkpt lat="42.6648810" lon="-6.9497910">
        <ele>639.8</ele>
        <time>2014-10-02T15:49:14Z</time>
      </trkpt>
      <trkpt lat="42.6648950" lon="-6.9496590">
        <ele>639.5</ele>
        <time>2014-10-02T15:49:15Z</time>
      </trkpt>
      <trkpt lat="42.6649070" lon="-6.9495270">
        <ele>639.2</ele>
        <time>2014-10-02T15:49:16Z</time>
      </trkpt>
      <trkpt lat="42.6649180" lon="-6.9493960">
        <ele>638.9</ele>
        <time>2014-10-02T15:49:17Z</time>
      </trkpt>
      <trkpt lat="42.6649310" lon="-6.9492690">
        <ele>638.7</ele>
        <time>2014-10-02T15:49:18Z</time>
      </trkpt>
      <trkpt lat="42.6649470" lon="-6.9491380">
        <ele>638.4</ele>
        <time>2014-10-02T15:49:19Z</time>
      </trkpt>
      <trkpt lat="42.6649580" lon="-6.9490130">
        <ele>638.1</ele>
        <time>2014-10-02T15:49:20Z</time>
      </trkpt>
      <trkpt lat="42.6649700" lon="-6.9488760">
        <ele>637.8</ele>
        <time>2014-10-02T15:49:21Z</time>
      </trkpt>
      <trkpt lat="42.6649810" lon="-6.9487420">
        <ele>639.1</ele>
        <time>2014-10-02T15:49:22Z</time>
      </trkpt>
      <trkpt lat="42.6649910" lon="-6.9486200">
        <ele>638.8</ele>
        <time>2014-10-02T15:49:23Z</time>
      </trkpt>
      <trkpt lat="42.6650000" lon="-6.9485070">
        <ele>638.5</ele>
        <time>2014-10-02T15:49:24Z</time>
      </trkpt>
      <trkpt lat="42.6650130" lon="-6.9484010">
        <ele>638.4</ele>
        <time>2014-10-02T15:49:25Z</time>
      </trkpt>
      <trkpt lat="42.6650330" lon="-6.9482860">
        <ele>638.2</ele>
        <time>2014-10-02T15:49:26Z</time>
      </trkpt>
      <trkpt lat="42.6650560" lon="-6.9481760">
        <ele>638.0</ele>
        <time>2014-10-02T15:49:27Z</time>
      </trkpt>
      <trkpt lat="42.6650780" lon="-6.9480770">
        <ele>637.9</ele>
        <time>2014-10-02T15:49:28Z</time>
      </trkpt>
      <trkpt lat="42.6650990" lon="-6.9479800">
        <ele>637.7</ele>
        <time>2014-10-02T15:49:29Z</time>
      </trkpt>
      <trkpt lat="42.6651190" lon="-6.9478750">
        <ele>637.4</ele>
        <time>2014-10-02T15:49:30Z</time>
      </trkpt>
      <trkpt lat="42.6651420" lon="-6.9477510">
        <ele>637.1</ele>
        <time>2014-10-02T15:49:31Z</time>
      </trkpt>
      <trkpt lat="42.6651600" lon="-6.9476170">
        <ele>636.7</ele>
        <time>2014-10-02T15:49:32Z</time>
      </trkpt>
      <trkpt lat="42.6651700" lon="-6.9474840">
        <ele>636.3</ele>
        <time>2014-10-02T15:49:33Z</time>
      </trkpt>
      <trkpt lat="42.6651760" lon="-6.9473650">
        <ele>635.9</ele>
        <time>2014-10-02T15:49:34Z</time>
      </trkpt>
      <trkpt lat="42.6651820" lon="-6.9472440">
        <ele>635.7</ele>
        <time>2014-10-02T15:49:35Z</time>
      </trkpt>
      <trkpt lat="42.6651870" lon="-6.9471260">
        <ele>635.6</ele>
        <time>2014-10-02T15:49:36Z</time>
      </trkpt>
      <trkpt lat="42.6651920" lon="-6.9470130">
        <ele>635.6</ele>
        <time>2014-10-02T15:49:37Z</time>
      </trkpt>
      <trkpt lat="42.6651990" lon="-6.9468980">
        <ele>635.5</ele>
        <time>2014-10-02T15:49:38Z</time>
      </trkpt>
      <trkpt lat="42.6652060" lon="-6.9467700">
        <ele>635.4</ele>
        <time>2014-10-02T15:49:39Z</time>
      </trkpt>
      <trkpt lat="42.6651860" lon="-6.9466400">
        <ele>635.3</ele>
        <time>2014-10-02T15:49:40Z</time>
      </trkpt>
      <trkpt lat="42.6651650" lon="-6.9465140">
        <ele>635.2</ele>
        <time>2014-10-02T15:49:41Z</time>
      </trkpt>
      <trkpt lat="42.6651470" lon="-6.9464140">
        <ele>635.1</ele>
        <time>2014-10-02T15:49:42Z</time>
      </trkpt>
      <trkpt lat="42.6651190" lon="-6.9463380">
        <ele>635.0</ele>
        <time>2014-10-02T15:49:43Z</time>
      </trkpt>
      <trkpt lat="42.6650930" lon="-6.9462490">
        <ele>634.9</ele>
        <time>2014-10-02T15:49:44Z</time>
      </trkpt>
      <trkpt lat="42.6650640" lon="-6.9461440">
        <ele>634.6</ele>
        <time>2014-10-02T15:49:45Z</time>
      </trkpt>
      <trkpt lat="42.6650280" lon="-6.9460360">
        <ele>634.4</ele>
        <time>2014-10-02T15:49:46Z</time>
      </trkpt>
      <trkpt lat="42.6649930" lon="-6.9459330">
        <ele>634.1</ele>
        <time>2014-10-02T15:49:47Z</time>
      </trkpt>
      <trkpt lat="42.6649630" lon="-6.9458240">
        <ele>633.9</ele>
        <time>2014-10-02T15:49:48Z</time>
      </trkpt>
      <trkpt lat="42.6649400" lon="-6.9457160">
        <ele>633.7</ele>
        <time>2014-10-02T15:49:49Z</time>
      </trkpt>
      <trkpt lat="42.6649210" lon="-6.9456100">
        <ele>633.5</ele>
        <time>2014-10-02T15:49:50Z</time>
      </trkpt>
      <trkpt lat="42.6649030" lon="-6.9454960">
        <ele>633.3</ele>
        <time>2014-10-02T15:49:51Z</time>
      </trkpt>
      <trkpt lat="42.6648850" lon="-6.9453820">
        <ele>633.1</ele>
        <time>2014-10-02T15:49:52Z</time>
      </trkpt>
      <trkpt lat="42.6648630" lon="-6.9452640">
        <ele>632.9</ele>
        <time>2014-10-02T15:49:53Z</time>
      </trkpt>
      <trkpt lat="42.6648350" lon="-6.9451540">
        <ele>632.6</ele>
        <time>2014-10-02T15:49:54Z</time>
      </trkpt>
      <trkpt lat="42.6648000" lon="-6.9450450">
        <ele>632.2</ele>
        <time>2014-10-02T15:49:55Z</time>
      </trkpt>
      <trkpt lat="42.6647640" lon="-6.9449420">
        <ele>631.7</ele>
        <time>2014-10-02T15:49:56Z</time>
      </trkpt>
      <trkpt lat="42.6647170" lon="-6.9448260">
        <ele>631.2</ele>
        <time>2014-10-02T15:49:57Z</time>
      </trkpt>
      <trkpt lat="42.6646650" lon="-6.9447130">
        <ele>630.7</ele>
        <time>2014-10-02T15:49:58Z</time>
      </trkpt>
      <trkpt lat="42.6646080" lon="-6.9445940">
        <ele>630.0</ele>
        <time>2014-10-02T15:49:59Z</time>
      </trkpt>
      <trkpt lat="42.6645500" lon="-6.9444760">
        <ele>629.4</ele>
        <time>2014-10-02T15:50:00Z</time>
      </trkpt>
      <trkpt lat="42.6644890" lon="-6.9443440">
        <ele>628.8</ele>
        <time>2014-10-02T15:50:01Z</time>
      </trkpt>
      <trkpt lat="42.6644280" lon="-6.9442090">
        <ele>628.4</ele>
        <time>2014-10-02T15:50:02Z</time>
      </trkpt>
      <trkpt lat="42.6643770" lon="-6.9440830">
        <ele>628.1</ele>
        <time>2014-10-02T15:50:03Z</time>
      </trkpt>
      <trkpt lat="42.6643280" lon="-6.9439500">
        <ele>628.0</ele>
        <time>2014-10-02T15:50:04Z</time>
      </trkpt>
      <trkpt lat="42.6642930" lon="-6.9438190">
        <ele>627.9</ele>
        <time>2014-10-02T15:50:05Z</time>
      </trkpt>
      <trkpt lat="42.6642640" lon="-6.9436880">
        <ele>627.8</ele>
        <time>2014-10-02T15:50:06Z</time>
      </trkpt>
      <trkpt lat="42.6642380" lon="-6.9435430">
        <ele>627.6</ele>
        <time>2014-10-02T15:50:07Z</time>
      </trkpt>
      <trkpt lat="42.6642120" lon="-6.9433900">
        <ele>627.5</ele>
        <time>2014-10-02T15:50:08Z</time>
      </trkpt>
      <trkpt lat="42.6641890" lon="-6.9432350">
        <ele>627.5</ele>
        <time>2014-10-02T15:50:09Z</time>
      </trkpt>
      <trkpt lat="42.6641640" lon="-6.9430860">
        <ele>627.5</ele>
        <time>2014-10-02T15:50:10Z</time>
      </trkpt>
      <trkpt lat="42.6641360" lon="-6.9429590">
        <ele>627.5</ele>
        <time>2014-10-02T15:50:11Z</time>
      </trkpt>
      <trkpt lat="42.6641050" lon="-6.9428430">
        <ele>627.5</ele>
        <time>2014-10-02T15:50:12Z</time>
      </trkpt>
      <trkpt lat="42.6640780" lon="-6.9427390">
        <ele>627.5</ele>
        <time>2014-10-02T15:50:13Z</time>
      </trkpt>
      <trkpt lat="42.6640520" lon="-6.9426410">
        <ele>627.5</ele>
        <time>2014-10-02T15:50:14Z</time>
      </trkpt>
      <trkpt lat="42.6640260" lon="-6.9425400">
        <ele>627.4</ele>
        <time>2014-10-02T15:50:15Z</time>
      </trkpt>
      <trkpt lat="42.6640010" lon="-6.9424300">
        <ele>627.4</ele>
        <time>2014-10-02T15:50:16Z</time>
      </trkpt>
      <trkpt lat="42.6639800" lon="-6.9423200">
        <ele>627.4</ele>
        <time>2014-10-02T15:50:17Z</time>
      </trkpt>
      <trkpt lat="42.6639650" lon="-6.9422060">
        <ele>627.3</ele>
        <time>2014-10-02T15:50:18Z</time>
      </trkpt>
      <trkpt lat="42.6639540" lon="-6.9420850">
        <ele>627.1</ele>
        <time>2014-10-02T15:50:19Z</time>
      </trkpt>
      <trkpt lat="42.6639480" lon="-6.9419590">
        <ele>626.9</ele>
        <time>2014-10-02T15:50:20Z</time>
      </trkpt>
      <trkpt lat="42.6639470" lon="-6.9418360">
        <ele>626.7</ele>
        <time>2014-10-02T15:50:21Z</time>
      </trkpt>
      <trkpt lat="42.6639510" lon="-6.9417130">
        <ele>626.6</ele>
        <time>2014-10-02T15:50:22Z</time>
      </trkpt>
      <trkpt lat="42.6639550" lon="-6.9415820">
        <ele>626.5</ele>
        <time>2014-10-02T15:50:23Z</time>
      </trkpt>
      <trkpt lat="42.6639590" lon="-6.9414580">
        <ele>626.5</ele>
        <time>2014-10-02T15:50:24Z</time>
      </trkpt>
      <trkpt lat="42.6639700" lon="-6.9413330">
        <ele>626.5</ele>
        <time>2014-10-02T15:50:25Z</time>
      </trkpt>
      <trkpt lat="42.6640040" lon="-6.9412180">
        <ele>626.5</ele>
        <time>2014-10-02T15:50:26Z</time>
      </trkpt>
      <trkpt lat="42.6640440" lon="-6.9411030">
        <ele>626.5</ele>
        <time>2014-10-02T15:50:27Z</time>
      </trkpt>
      <trkpt lat="42.6641140" lon="-6.9409970">
        <ele>625.7</ele>
        <time>2014-10-02T15:50:28Z</time>
      </trkpt>
      <trkpt lat="42.6641850" lon="-6.9408980">
        <ele>625.8</ele>
        <time>2014-10-02T15:50:29Z</time>
      </trkpt>
      <trkpt lat="42.6642610" lon="-6.9408050">
        <ele>625.8</ele>
        <time>2014-10-02T15:50:30Z</time>
      </trkpt>
      <trkpt lat="42.6643450" lon="-6.9407210">
        <ele>625.8</ele>
        <time>2014-10-02T15:50:31Z</time>
      </trkpt>
      <trkpt lat="42.6644370" lon="-6.9406650">
        <ele>625.8</ele>
        <time>2014-10-02T15:50:32Z</time>
      </trkpt>
      <trkpt lat="42.6645250" lon="-6.9406110">
        <ele>625.9</ele>
        <time>2014-10-02T15:50:33Z</time>
      </trkpt>
      <trkpt lat="42.6646080" lon="-6.9405570">
        <ele>625.9</ele>
        <time>2014-10-02T15:50:34Z</time>
      </trkpt>
      <trkpt lat="42.6646860" lon="-6.9405050">
        <ele>626.0</ele>
        <time>2014-10-02T15:50:35Z</time>
      </trkpt>
      <trkpt lat="42.6647660" lon="-6.9404500">
        <ele>626.0</ele>
        <time>2014-10-02T15:50:36Z</time>
      </trkpt>
      <trkpt lat="42.6648450" lon="-6.9403950">
        <ele>626.1</ele>
        <time>2014-10-02T15:50:37Z</time>
      </trkpt>
      <trkpt lat="42.6649150" lon="-6.9403420">
        <ele>626.1</ele>
        <time>2014-10-02T15:50:38Z</time>
      </trkpt>
      <trkpt lat="42.6649880" lon="-6.9402870">
        <ele>626.1</ele>
        <time>2014-10-02T15:50:39Z</time>
      </trkpt>
      <trkpt lat="42.6650600" lon="-6.9402340">
        <ele>626.1</ele>
        <time>2014-10-02T15:50:40Z</time>
      </trkpt>
      <trkpt lat="42.6651310" lon="-6.9401820">
        <ele>626.1</ele>
        <time>2014-10-02T15:50:41Z</time>
      </trkpt>
      <trkpt lat="42.6652040" lon="-6.9401240">
        <ele>626.1</ele>
        <time>2014-10-02T15:50:42Z</time>
      </trkpt>
      <trkpt lat="42.6652690" lon="-6.9400670">
        <ele>626.1</ele>
        <time>2014-10-02T15:50:43Z</time>
      </trkpt>
      <trkpt lat="42.6653330" lon="-6.9400050">
        <ele>626.1</ele>
        <time>2014-10-02T15:50:44Z</time>
      </trkpt>
      <trkpt lat="42.6653970" lon="-6.9399370">
        <ele>626.1</ele>
        <time>2014-10-02T15:50:45Z</time>
      </trkpt>
      <trkpt lat="42.6654640" lon="-6.9398660">
        <ele>626.1</ele>
        <time>2014-10-02T15:50:46Z</time>
      </trkpt>
      <trkpt lat="42.6655310" lon="-6.9397880">
        <ele>626.0</ele>
        <time>2014-10-02T15:50:47Z</time>
      </trkpt>
      <trkpt lat="42.6655920" lon="-6.9397170">
        <ele>625.8</ele>
        <time>2014-10-02T15:50:48Z</time>
      </trkpt>
      <trkpt lat="42.6656550" lon="-6.9396450">
        <ele>625.7</ele>
        <time>2014-10-02T15:50:49Z</time>
      </trkpt>
      <trkpt lat="42.6657220" lon="-6.9395690">
        <ele>625.6</ele>
        <time>2014-10-02T15:50:50Z</time>
      </trkpt>
      <trkpt lat="42.6657890" lon="-6.9394960">
        <ele>625.4</ele>
        <time>2014-10-02T15:50:51Z</time>
      </trkpt>
      <trkpt lat="42.6658560" lon="-6.9394240">
        <ele>625.4</ele>
        <time>2014-10-02T15:50:52Z</time>
      </trkpt>
      <trkpt lat="42.6659250" lon="-6.9393520">
        <ele>625.3</ele>
        <time>2014-10-02T15:50:53Z</time>
      </trkpt>
      <trkpt lat="42.6659910" lon="-6.9392820">
        <ele>625.2</ele>
        <time>2014-10-02T15:50:54Z</time>
      </trkpt>
      <trkpt lat="42.6660570" lon="-6.9392120">
        <ele>625.2</ele>
        <time>2014-10-02T15:50:55Z</time>
      </trkpt>
      <trkpt lat="42.6661160" lon="-6.9391420">
        <ele>625.1</ele>
        <time>2014-10-02T15:50:56Z</time>
      </trkpt>
      <trkpt lat="42.6661620" lon="-6.9390570">
        <ele>625.1</ele>
        <time>2014-10-02T15:50:57Z</time>
      </trkpt>
      <trkpt lat="42.6662080" lon="-6.9389680">
        <ele>625.1</ele>
        <time>2014-10-02T15:50:58Z</time>
      </trkpt>
      <trkpt lat="42.6662540" lon="-6.9388690">
        <ele>625.1</ele>
        <time>2014-10-02T15:50:59Z</time>
      </trkpt>
      <trkpt lat="42.6662950" lon="-6.9387720">
        <ele>625.1</ele>
        <time>2014-10-02T15:51:00Z</time>
      </trkpt>
      <trkpt lat="42.6663310" lon="-6.9386780">
        <ele>625.1</ele>
        <time>2014-10-02T15:51:01Z</time>
      </trkpt>
      <trkpt lat="42.6663650" lon="-6.9385750">
        <ele>625.1</ele>
        <time>2014-10-02T15:51:02Z</time>
      </trkpt>
      <trkpt lat="42.6663960" lon="-6.9384760">
        <ele>625.0</ele>
        <time>2014-10-02T15:51:03Z</time>
      </trkpt>
      <trkpt lat="42.6664250" lon="-6.9383700">
        <ele>624.9</ele>
        <time>2014-10-02T15:51:04Z</time>
      </trkpt>
      <trkpt lat="42.6664510" lon="-6.9382550">
        <ele>624.7</ele>
        <time>2014-10-02T15:51:05Z</time>
      </trkpt>
      <trkpt lat="42.6664500" lon="-6.9381370">
        <ele>624.3</ele>
        <time>2014-10-02T15:51:06Z</time>
      </trkpt>
      <trkpt lat="42.6664420" lon="-6.9380040">
        <ele>623.9</ele>
        <time>2014-10-02T15:51:07Z</time>
      </trkpt>
      <trkpt lat="42.6664120" lon="-6.9378740">
        <ele>623.4</ele>
        <time>2014-10-02T15:51:08Z</time>
      </trkpt>
      <trkpt lat="42.6663830" lon="-6.9377480">
        <ele>623.0</ele>
        <time>2014-10-02T15:51:09Z</time>
      </trkpt>
      <trkpt lat="42.6663540" lon="-6.9376170">
        <ele>622.7</ele>
        <time>2014-10-02T15:51:10Z</time>
      </trkpt>
      <trkpt lat="42.6663450" lon="-6.9374730">
        <ele>622.6</ele>
        <time>2014-10-02T15:51:11Z</time>
      </trkpt>
      <trkpt lat="42.6663420" lon="-6.9373340">
        <ele>622.6</ele>
        <time>2014-10-02T15:51:12Z</time>
      </trkpt>
      <trkpt lat="42.6663440" lon="-6.9371990">
        <ele>622.7</ele>
        <time>2014-10-02T15:51:13Z</time>
      </trkpt>
      <trkpt lat="42.6663540" lon="-6.9370660">
        <ele>622.8</ele>
        <time>2014-10-02T15:51:14Z</time>
      </trkpt>
      <trkpt lat="42.6663720" lon="-6.9369420">
        <ele>622.9</ele>
        <time>2014-10-02T15:51:15Z</time>
      </trkpt>
      <trkpt lat="42.6663910" lon="-6.9368300">
        <ele>623.0</ele>
        <time>2014-10-02T15:51:16Z</time>
      </trkpt>
      <trkpt lat="42.6664100" lon="-6.9367140">
        <ele>623.1</ele>
        <time>2014-10-02T15:51:17Z</time>
      </trkpt>
      <trkpt lat="42.6664300" lon="-6.9366010">
        <ele>623.2</ele>
        <time>2014-10-02T15:51:18Z</time>
      </trkpt>
      <trkpt lat="42.6664450" lon="-6.9364870">
        <ele>623.3</ele>
        <time>2014-10-02T15:51:19Z</time>
      </trkpt>
      <trkpt lat="42.6664530" lon="-6.9363800">
        <ele>623.4</ele>
        <time>2014-10-02T15:51:20Z</time>
      </trkpt>
      <trkpt lat="42.6664550" lon="-6.9362690">
        <ele>623.4</ele>
        <time>2014-10-02T15:51:21Z</time>
      </trkpt>
      <trkpt lat="42.6664370" lon="-6.9361540">
        <ele>623.4</ele>
        <time>2014-10-02T15:51:22Z</time>
      </trkpt>
      <trkpt lat="42.6664200" lon="-6.9360430">
        <ele>623.3</ele>
        <time>2014-10-02T15:51:23Z</time>
      </trkpt>
      <trkpt lat="42.6664010" lon="-6.9359350">
        <ele>623.3</ele>
        <time>2014-10-02T15:51:24Z</time>
      </trkpt>
      <trkpt lat="42.6663810" lon="-6.9358260">
        <ele>623.2</ele>
        <time>2014-10-02T15:51:25Z</time>
      </trkpt>
      <trkpt lat="42.6663600" lon="-6.9357130">
        <ele>623.2</ele>
        <time>2014-10-02T15:51:26Z</time>
      </trkpt>
      <trkpt lat="42.6663380" lon="-6.9356000">
        <ele>623.1</ele>
        <time>2014-10-02T15:51:27Z</time>
      </trkpt>
      <trkpt lat="42.6663150" lon="-6.9354880">
        <ele>623.0</ele>
        <time>2014-10-02T15:51:28Z</time>
      </trkpt>
      <trkpt lat="42.6662900" lon="-6.9353730">
        <ele>623.0</ele>
        <time>2014-10-02T15:51:29Z</time>
      </trkpt>
      <trkpt lat="42.6662660" lon="-6.9352610">
        <ele>622.8</ele>
        <time>2014-10-02T15:51:30Z</time>
      </trkpt>
      <trkpt lat="42.6662420" lon="-6.9351510">
        <ele>622.6</ele>
        <time>2014-10-02T15:51:31Z</time>
      </trkpt>
      <trkpt lat="42.6662180" lon="-6.9350430">
        <ele>622.4</ele>
        <time>2014-10-02T15:51:32Z</time>
      </trkpt>
      <trkpt lat="42.6661890" lon="-6.9349330">
        <ele>622.3</ele>
        <time>2014-10-02T15:51:33Z</time>
      </trkpt>
      <trkpt lat="42.6661600" lon="-6.9348300">
        <ele>622.1</ele>
        <time>2014-10-02T15:51:34Z</time>
      </trkpt>
      <trkpt lat="42.6661300" lon="-6.9347250">
        <ele>621.9</ele>
        <time>2014-10-02T15:51:35Z</time>
      </trkpt>
      <trkpt lat="42.6660970" lon="-6.9346160">
        <ele>621.8</ele>
        <time>2014-10-02T15:51:36Z</time>
      </trkpt>
      <trkpt lat="42.6660670" lon="-6.9345160">
        <ele>621.7</ele>
        <time>2014-10-02T15:51:37Z</time>
      </trkpt>
      <trkpt lat="42.6660350" lon="-6.9344180">
        <ele>621.6</ele>
        <time>2014-10-02T15:51:38Z</time>
      </trkpt>
      <trkpt lat="42.6660110" lon="-6.9343040">
        <ele>621.4</ele>
        <time>2014-10-02T15:51:39Z</time>
      </trkpt>
      <trkpt lat="42.6659860" lon="-6.9341820">
        <ele>621.2</ele>
        <time>2014-10-02T15:51:40Z</time>
      </trkpt>
      <trkpt lat="42.6659630" lon="-6.9340610">
        <ele>621.0</ele>
        <time>2014-10-02T15:51:41Z</time>
      </trkpt>
      <trkpt lat="42.6659430" lon="-6.9339400">
        <ele>620.9</ele>
        <time>2014-10-02T15:51:42Z</time>
      </trkpt>
      <trkpt lat="42.6659260" lon="-6.9338170">
        <ele>620.7</ele>
        <time>2014-10-02T15:51:43Z</time>
      </trkpt>
      <trkpt lat="42.6659110" lon="-6.9336950">
        <ele>620.6</ele>
        <time>2014-10-02T15:51:44Z</time>
      </trkpt>
      <trkpt lat="42.6658970" lon="-6.9335760">
        <ele>620.5</ele>
        <time>2014-10-02T15:51:45Z</time>
      </trkpt>
      <trkpt lat="42.6658800" lon="-6.9334560">
        <ele>620.4</ele>
        <time>2014-10-02T15:51:46Z</time>
      </trkpt>
      <trkpt lat="42.6658590" lon="-6.9333310">
        <ele>620.2</ele>
        <time>2014-10-02T15:51:47Z</time>
      </trkpt>
      <trkpt lat="42.6658400" lon="-6.9332080">
        <ele>620.1</ele>
        <time>2014-10-02T15:51:48Z</time>
      </trkpt>
      <trkpt lat="42.6658210" lon="-6.9331000">
        <ele>620.0</ele>
        <time>2014-10-02T15:51:49Z</time>
      </trkpt>
      <trkpt lat="42.6658010" lon="-6.9329810">
        <ele>619.8</ele>
        <time>2014-10-02T15:51:50Z</time>
      </trkpt>
      <trkpt lat="42.6657830" lon="-6.9328590">
        <ele>619.7</ele>
        <time>2014-10-02T15:51:51Z</time>
      </trkpt>
      <trkpt lat="42.6657670" lon="-6.9327270">
        <ele>619.5</ele>
        <time>2014-10-02T15:51:52Z</time>
      </trkpt>
      <trkpt lat="42.6657530" lon="-6.9326010">
        <ele>619.3</ele>
        <time>2014-10-02T15:51:53Z</time>
      </trkpt>
      <trkpt lat="42.6657390" lon="-6.9324730">
        <ele>619.0</ele>
        <time>2014-10-02T15:51:54Z</time>
      </trkpt>
      <trkpt lat="42.6657240" lon="-6.9323500">
        <ele>618.7</ele>
        <time>2014-10-02T15:51:55Z</time>
      </trkpt>
      <trkpt lat="42.6657050" lon="-6.9322320">
        <ele>618.5</ele>
        <time>2014-10-02T15:51:56Z</time>
      </trkpt>
      <trkpt lat="42.6656850" lon="-6.9321130">
        <ele>618.1</ele>
        <time>2014-10-02T15:51:57Z</time>
      </trkpt>
      <trkpt lat="42.6656630" lon="-6.9319950">
        <ele>617.8</ele>
        <time>2014-10-02T15:51:58Z</time>
      </trkpt>
      <trkpt lat="42.6656380" lon="-6.9318680">
        <ele>617.4</ele>
        <time>2014-10-02T15:51:59Z</time>
      </trkpt>
      <trkpt lat="42.6656130" lon="-6.9317530">
        <ele>617.0</ele>
        <time>2014-10-02T15:52:00Z</time>
      </trkpt>
      <trkpt lat="42.6655850" lon="-6.9316360">
        <ele>616.7</ele>
        <time>2014-10-02T15:52:01Z</time>
      </trkpt>
      <trkpt lat="42.6655510" lon="-6.9315150">
        <ele>616.5</ele>
        <time>2014-10-02T15:52:02Z</time>
      </trkpt>
      <trkpt lat="42.6655170" lon="-6.9313960">
        <ele>616.2</ele>
        <time>2014-10-02T15:52:03Z</time>
      </trkpt>
      <trkpt lat="42.6654770" lon="-6.9312780">
        <ele>616.0</ele>
        <time>2014-10-02T15:52:04Z</time>
      </trkpt>
      <trkpt lat="42.6654350" lon="-6.9311590">
        <ele>615.8</ele>
        <time>2014-10-02T15:52:05Z</time>
      </trkpt>
      <trkpt lat="42.6653900" lon="-6.9310460">
        <ele>615.6</ele>
        <time>2014-10-02T15:52:06Z</time>
      </trkpt>
      <trkpt lat="42.6653420" lon="-6.9309350">
        <ele>615.6</ele>
        <time>2014-10-02T15:52:07Z</time>
      </trkpt>
      <trkpt lat="42.6652960" lon="-6.9308240">
        <ele>615.5</ele>
        <time>2014-10-02T15:52:08Z</time>
      </trkpt>
      <trkpt lat="42.6652760" lon="-6.9307060">
        <ele>615.5</ele>
        <time>2014-10-02T15:52:09Z</time>
      </trkpt>
      <trkpt lat="42.6652600" lon="-6.9305870">
        <ele>615.5</ele>
        <time>2014-10-02T15:52:10Z</time>
      </trkpt>
      <trkpt lat="42.6652740" lon="-6.9304700">
        <ele>615.4</ele>
        <time>2014-10-02T15:52:11Z</time>
      </trkpt>
      <trkpt lat="42.6652960" lon="-6.9303520">
        <ele>615.2</ele>
        <time>2014-10-02T15:52:12Z</time>
      </trkpt>
      <trkpt lat="42.6653250" lon="-6.9302320">
        <ele>615.0</ele>
        <time>2014-10-02T15:52:13Z</time>
      </trkpt>
      <trkpt lat="42.6653560" lon="-6.9301150">
        <ele>614.8</ele>
        <time>2014-10-02T15:52:14Z</time>
      </trkpt>
      <trkpt lat="42.6653900" lon="-6.9299960">
        <ele>614.6</ele>
        <time>2014-10-02T15:52:15Z</time>
      </trkpt>
      <trkpt lat="42.6654260" lon="-6.9298830">
        <ele>614.4</ele>
        <time>2014-10-02T15:52:16Z</time>
      </trkpt>
      <trkpt lat="42.6654620" lon="-6.9297620">
        <ele>614.1</ele>
        <time>2014-10-02T15:52:17Z</time>
      </trkpt>
      <trkpt lat="42.6654980" lon="-6.9296400">
        <ele>613.9</ele>
        <time>2014-10-02T15:52:18Z</time>
      </trkpt>
      <trkpt lat="42.6655370" lon="-6.9295090">
        <ele>613.6</ele>
        <time>2014-10-02T15:52:19Z</time>
      </trkpt>
      <trkpt lat="42.6655770" lon="-6.9293730">
        <ele>613.3</ele>
        <time>2014-10-02T15:52:20Z</time>
      </trkpt>
      <trkpt lat="42.6656140" lon="-6.9292350">
        <ele>613.0</ele>
        <time>2014-10-02T15:52:21Z</time>
      </trkpt>
      <trkpt lat="42.6656490" lon="-6.9291020">
        <ele>612.8</ele>
        <time>2014-10-02T15:52:22Z</time>
      </trkpt>
      <trkpt lat="42.6656790" lon="-6.9289690">
        <ele>612.6</ele>
        <time>2014-10-02T15:52:23Z</time>
      </trkpt>
      <trkpt lat="42.6657100" lon="-6.9288350">
        <ele>612.3</ele>
        <time>2014-10-02T15:52:24Z</time>
      </trkpt>
      <trkpt lat="42.6657430" lon="-6.9287010">
        <ele>612.1</ele>
        <time>2014-10-02T15:52:25Z</time>
      </trkpt>
      <trkpt lat="42.6657730" lon="-6.9285760">
        <ele>611.9</ele>
        <time>2014-10-02T15:52:26Z</time>
      </trkpt>
      <trkpt lat="42.6657990" lon="-6.9284490">
        <ele>611.7</ele>
        <time>2014-10-02T15:52:27Z</time>
      </trkpt>
      <trkpt lat="42.6658200" lon="-6.9283190">
        <ele>611.5</ele>
        <time>2014-10-02T15:52:28Z</time>
      </trkpt>
      <trkpt lat="42.6658430" lon="-6.9281830">
        <ele>611.4</ele>
        <time>2014-10-02T15:52:29Z</time>
      </trkpt>
      <trkpt lat="42.6658630" lon="-6.9280570">
        <ele>611.4</ele>
        <time>2014-10-02T15:52:30Z</time>
      </trkpt>
      <trkpt lat="42.6658800" lon="-6.9279280">
        <ele>611.4</ele>
        <time>2014-10-02T15:52:31Z</time>
      </trkpt>
      <trkpt lat="42.6658950" lon="-6.9277980">
        <ele>611.4</ele>
        <time>2014-10-02T15:52:32Z</time>
      </trkpt>
      <trkpt lat="42.6659010" lon="-6.9276790">
        <ele>611.7</ele>
        <time>2014-10-02T15:52:33Z</time>
      </trkpt>
      <trkpt lat="42.6658850" lon="-6.9275590">
        <ele>613.6</ele>
        <time>2014-10-02T15:52:34Z</time>
      </trkpt>
      <trkpt lat="42.6658470" lon="-6.9274330">
        <ele>614.0</ele>
        <time>2014-10-02T15:52:35Z</time>
      </trkpt>
      <trkpt lat="42.6658020" lon="-6.9273210">
        <ele>614.1</ele>
        <time>2014-10-02T15:52:36Z</time>
      </trkpt>
      <trkpt lat="42.6657340" lon="-6.9272290">
        <ele>614.2</ele>
        <time>2014-10-02T15:52:37Z</time>
      </trkpt>
      <trkpt lat="42.6656660" lon="-6.9271440">
        <ele>614.2</ele>
        <time>2014-10-02T15:52:38Z</time>
      </trkpt>
      <trkpt lat="42.6655960" lon="-6.9270620">
        <ele>614.2</ele>
        <time>2014-10-02T15:52:39Z</time>
      </trkpt>
      <trkpt lat="42.6655300" lon="-6.9269890">
        <ele>614.2</ele>
        <time>2014-10-02T15:52:40Z</time>
      </trkpt>
      <trkpt lat="42.6654660" lon="-6.9269270">
        <ele>614.2</ele>
        <time>2014-10-02T15:52:41Z</time>
      </trkpt>
      <trkpt lat="42.6653990" lon="-6.9268730">
        <ele>614.3</ele>
        <time>2014-10-02T15:52:42Z</time>
      </trkpt>
      <trkpt lat="42.6653290" lon="-6.9268220">
        <ele>614.4</ele>
        <time>2014-10-02T15:52:43Z</time>
      </trkpt>
      <trkpt lat="42.6652610" lon="-6.9267780">
        <ele>614.5</ele>
        <time>2014-10-02T15:52:44Z</time>
      </trkpt>
      <trkpt lat="42.6651910" lon="-6.9267390">
        <ele>614.6</ele>
        <time>2014-10-02T15:52:45Z</time>
      </trkpt>
      <trkpt lat="42.6651130" lon="-6.9267040">
        <ele>614.8</ele>
        <time>2014-10-02T15:52:46Z</time>
      </trkpt>
      <trkpt lat="42.6650300" lon="-6.9266960">
        <ele>615.0</ele>
        <time>2014-10-02T15:52:47Z</time>
      </trkpt>
      <trkpt lat="42.6649470" lon="-6.9266910">
        <ele>615.2</ele>
        <time>2014-10-02T15:52:48Z</time>
      </trkpt>
      <trkpt lat="42.6648680" lon="-6.9266910">
        <ele>615.4</ele>
        <time>2014-10-02T15:52:49Z</time>
      </trkpt>
      <trkpt lat="42.6648010" lon="-6.9266980">
        <ele>615.5</ele>
        <time>2014-10-02T15:52:50Z</time>
      </trkpt>
      <trkpt lat="42.6647420" lon="-6.9267080">
        <ele>615.7</ele>
        <time>2014-10-02T15:52:51Z</time>
      </trkpt>
      <trkpt lat="42.6646740" lon="-6.9267180">
        <ele>615.8</ele>
        <time>2014-10-02T15:52:52Z</time>
      </trkpt>
      <trkpt lat="42.6645980" lon="-6.9267330">
        <ele>616.0</ele>
        <time>2014-10-02T15:52:53Z</time>
      </trkpt>
      <trkpt lat="42.6645240" lon="-6.9267520">
        <ele>616.2</ele>
        <time>2014-10-02T15:52:54Z</time>
      </trkpt>
      <trkpt lat="42.6644460" lon="-6.9267710">
        <ele>616.4</ele>
        <time>2014-10-02T15:52:55Z</time>
      </trkpt>
      <trkpt lat="42.6643780" lon="-6.9267870">
        <ele>616.6</ele>
        <time>2014-10-02T15:52:56Z</time>
      </trkpt>
      <trkpt lat="42.6643050" lon="-6.9267960">
        <ele>616.8</ele>
        <time>2014-10-02T15:52:57Z</time>
      </trkpt>
      <trkpt lat="42.6642370" lon="-6.9268010">
        <ele>616.9</ele>
        <time>2014-10-02T15:52:58Z</time>
      </trkpt>
      <trkpt lat="42.6641690" lon="-6.9268010">
        <ele>616.9</ele>
        <time>2014-10-02T15:52:59Z</time>
      </trkpt>
      <trkpt lat="42.6640980" lon="-6.9267960">
        <ele>616.9</ele>
        <time>2014-10-02T15:53:00Z</time>
      </trkpt>
      <trkpt lat="42.6640200" lon="-6.9267870">
        <ele>616.9</ele>
        <time>2014-10-02T15:53:01Z</time>
      </trkpt>
      <trkpt lat="42.6639440" lon="-6.9267790">
        <ele>616.9</ele>
        <time>2014-10-02T15:53:02Z</time>
      </trkpt>
      <trkpt lat="42.6638710" lon="-6.9267700">
        <ele>616.9</ele>
        <time>2014-10-02T15:53:03Z</time>
      </trkpt>
      <trkpt lat="42.6637980" lon="-6.9267650">
        <ele>616.9</ele>
        <time>2014-10-02T15:53:04Z</time>
      </trkpt>
      <trkpt lat="42.6637290" lon="-6.9267620">
        <ele>617.0</ele>
        <time>2014-10-02T15:53:05Z</time>
      </trkpt>
      <trkpt lat="42.6636660" lon="-6.9267650">
        <ele>617.1</ele>
        <time>2014-10-02T15:53:06Z</time>
      </trkpt>
      <trkpt lat="42.6636020" lon="-6.9267730">
        <ele>617.1</ele>
        <time>2014-10-02T15:53:07Z</time>
      </trkpt>
      <trkpt lat="42.6635420" lon="-6.9267840">
        <ele>617.2</ele>
        <time>2014-10-02T15:53:08Z</time>
      </trkpt>
      <trkpt lat="42.6634850" lon="-6.9267920">
        <ele>617.2</ele>
        <time>2014-10-02T15:53:09Z</time>
      </trkpt>
      <trkpt lat="42.6634210" lon="-6.9267970">
        <ele>617.2</ele>
        <time>2014-10-02T15:53:10Z</time>
      </trkpt>
      <trkpt lat="42.6633540" lon="-6.9267990">
        <ele>617.3</ele>
        <time>2014-10-02T15:53:11Z</time>
      </trkpt>
      <trkpt lat="42.6632850" lon="-6.9267960">
        <ele>617.3</ele>
        <time>2014-10-02T15:53:12Z</time>
      </trkpt>
      <trkpt lat="42.6632160" lon="-6.9267910">
        <ele>617.4</ele>
        <time>2014-10-02T15:53:13Z</time>
      </trkpt>
      <trkpt lat="42.6631510" lon="-6.9267840">
        <ele>617.4</ele>
        <time>2014-10-02T15:53:14Z</time>
      </trkpt>
      <trkpt lat="42.6630840" lon="-6.9267760">
        <ele>617.4</ele>
        <time>2014-10-02T15:53:15Z</time>
      </trkpt>
      <trkpt lat="42.6630170" lon="-6.9267670">
        <ele>617.4</ele>
        <time>2014-10-02T15:53:16Z</time>
      </trkpt>
      <trkpt lat="42.6629410" lon="-6.9267580">
        <ele>617.4</ele>
        <time>2014-10-02T15:53:17Z</time>
      </trkpt>
      <trkpt lat="42.6628670" lon="-6.9267470">
        <ele>617.4</ele>
        <time>2014-10-02T15:53:18Z</time>
      </trkpt>
      <trkpt lat="42.6627970" lon="-6.9267360">
        <ele>615.3</ele>
        <time>2014-10-02T15:53:19Z</time>
      </trkpt>
      <trkpt lat="42.6627350" lon="-6.9267290">
        <ele>615.3</ele>
        <time>2014-10-02T15:53:20Z</time>
      </trkpt>
      <trkpt lat="42.6626700" lon="-6.9267250">
        <ele>615.3</ele>
        <time>2014-10-02T15:53:21Z</time>
      </trkpt>
      <trkpt lat="42.6626020" lon="-6.9267250">
        <ele>615.4</ele>
        <time>2014-10-02T15:53:22Z</time>
      </trkpt>
      <trkpt lat="42.6625370" lon="-6.9267240">
        <ele>615.4</ele>
        <time>2014-10-02T15:53:23Z</time>
      </trkpt>
      <trkpt lat="42.6624780" lon="-6.9267260">
        <ele>615.5</ele>
        <time>2014-10-02T15:53:24Z</time>
      </trkpt>
      <trkpt lat="42.6624170" lon="-6.9267280">
        <ele>615.5</ele>
        <time>2014-10-02T15:53:25Z</time>
      </trkpt>
      <trkpt lat="42.6623490" lon="-6.9267300">
        <ele>615.5</ele>
        <time>2014-10-02T15:53:26Z</time>
      </trkpt>
      <trkpt lat="42.6622850" lon="-6.9267300">
        <ele>615.6</ele>
        <time>2014-10-02T15:53:27Z</time>
      </trkpt>
      <trkpt lat="42.6622230" lon="-6.9267260">
        <ele>615.6</ele>
        <time>2014-10-02T15:53:28Z</time>
      </trkpt>
      <trkpt lat="42.6621610" lon="-6.9267180">
        <ele>615.5</ele>
        <time>2014-10-02T15:53:29Z</time>
      </trkpt>
      <trkpt lat="42.6620970" lon="-6.9267030">
        <ele>615.5</ele>
        <time>2014-10-02T15:53:30Z</time>
      </trkpt>
      <trkpt lat="42.6620390" lon="-6.9266670">
        <ele>615.5</ele>
        <time>2014-10-02T15:53:31Z</time>
      </trkpt>
      <trkpt lat="42.6619770" lon="-6.9266260">
        <ele>615.5</ele>
        <time>2014-10-02T15:53:32Z</time>
      </trkpt>
      <trkpt lat="42.6619220" lon="-6.9265800">
        <ele>615.5</ele>
        <time>2014-10-02T15:53:33Z</time>
      </trkpt>
      <trkpt lat="42.6618710" lon="-6.9265100">
        <ele>615.4</ele>
        <time>2014-10-02T15:53:34Z</time>
      </trkpt>
      <trkpt lat="42.6618290" lon="-6.9264440">
        <ele>615.4</ele>
        <time>2014-10-02T15:53:35Z</time>
      </trkpt>
      <trkpt lat="42.6617920" lon="-6.9263760">
        <ele>615.2</ele>
        <time>2014-10-02T15:53:36Z</time>
      </trkpt>
      <trkpt lat="42.6617520" lon="-6.9263010">
        <ele>615.0</ele>
        <time>2014-10-02T15:53:37Z</time>
      </trkpt>
      <trkpt lat="42.6617040" lon="-6.9262110">
        <ele>614.8</ele>
        <time>2014-10-02T15:53:38Z</time>
      </trkpt>
      <trkpt lat="42.6616630" lon="-6.9261310">
        <ele>614.6</ele>
        <time>2014-10-02T15:53:39Z</time>
      </trkpt>
      <trkpt lat="42.6616140" lon="-6.9260420">
        <ele>614.3</ele>
        <time>2014-10-02T15:53:40Z</time>
      </trkpt>
      <trkpt lat="42.6615660" lon="-6.9259560">
        <ele>614.1</ele>
        <time>2014-10-02T15:53:41Z</time>
      </trkpt>
      <trkpt lat="42.6615190" lon="-6.9258710">
        <ele>613.8</ele>
        <time>2014-10-02T15:53:42Z</time>
      </trkpt>
      <trkpt lat="42.6614700" lon="-6.9257830">
        <ele>613.6</ele>
        <time>2014-10-02T15:53:43Z</time>
      </trkpt>
      <trkpt lat="42.6614200" lon="-6.9256940">
        <ele>613.4</ele>
        <time>2014-10-02T15:53:44Z</time>
      </trkpt>
      <trkpt lat="42.6613670" lon="-6.9256030">
        <ele>613.1</ele>
        <time>2014-10-02T15:53:45Z</time>
      </trkpt>
      <trkpt lat="42.6613120" lon="-6.9255090">
        <ele>612.8</ele>
        <time>2014-10-02T15:53:46Z</time>
      </trkpt>
      <trkpt lat="42.6612570" lon="-6.9254120">
        <ele>612.6</ele>
        <time>2014-10-02T15:53:47Z</time>
      </trkpt>
      <trkpt lat="42.6612060" lon="-6.9253120">
        <ele>612.3</ele>
        <time>2014-10-02T15:53:48Z</time>
      </trkpt>
      <trkpt lat="42.6611560" lon="-6.9252080">
        <ele>612.1</ele>
        <time>2014-10-02T15:53:49Z</time>
      </trkpt>
      <trkpt lat="42.6611120" lon="-6.9251090">
        <ele>611.8</ele>
        <time>2014-10-02T15:53:50Z</time>
      </trkpt>
      <trkpt lat="42.6610650" lon="-6.9249920">
        <ele>611.4</ele>
        <time>2014-10-02T15:53:51Z</time>
      </trkpt>
      <trkpt lat="42.6610220" lon="-6.9248750">
        <ele>611.1</ele>
        <time>2014-10-02T15:53:52Z</time>
      </trkpt>
      <trkpt lat="42.6609780" lon="-6.9247510">
        <ele>610.7</ele>
        <time>2014-10-02T15:53:53Z</time>
      </trkpt>
      <trkpt lat="42.6609370" lon="-6.9246250">
        <ele>610.3</ele>
        <time>2014-10-02T15:53:54Z</time>
      </trkpt>
      <trkpt lat="42.6608940" lon="-6.9245040">
        <ele>609.9</ele>
        <time>2014-10-02T15:53:55Z</time>
      </trkpt>
      <trkpt lat="42.6608600" lon="-6.9243800">
        <ele>609.5</ele>
        <time>2014-10-02T15:53:56Z</time>
      </trkpt>
      <trkpt lat="42.6608290" lon="-6.9242600">
        <ele>609.2</ele>
        <time>2014-10-02T15:53:57Z</time>
      </trkpt>
      <trkpt lat="42.6607960" lon="-6.9241260">
        <ele>608.8</ele>
        <time>2014-10-02T15:53:58Z</time>
      </trkpt>
      <trkpt lat="42.6607640" lon="-6.9239940">
        <ele>608.4</ele>
        <time>2014-10-02T15:53:59Z</time>
      </trkpt>
      <trkpt lat="42.6607330" lon="-6.9238520">
        <ele>608.0</ele>
        <time>2014-10-02T15:54:00Z</time>
      </trkpt>
      <trkpt lat="42.6607040" lon="-6.9237260">
        <ele>607.7</ele>
        <time>2014-10-02T15:54:01Z</time>
      </trkpt>
      <trkpt lat="42.6606690" lon="-6.9235930">
        <ele>607.3</ele>
        <time>2014-10-02T15:54:02Z</time>
      </trkpt>
      <trkpt lat="42.6606350" lon="-6.9234580">
        <ele>607.0</ele>
        <time>2014-10-02T15:54:03Z</time>
      </trkpt>
      <trkpt lat="42.6606030" lon="-6.9233320">
        <ele>606.6</ele>
        <time>2014-10-02T15:54:04Z</time>
      </trkpt>
      <trkpt lat="42.6605700" lon="-6.9231860">
        <ele>606.3</ele>
        <time>2014-10-02T15:54:05Z</time>
      </trkpt>
      <trkpt lat="42.6605390" lon="-6.9230370">
        <ele>606.0</ele>
        <time>2014-10-02T15:54:06Z</time>
      </trkpt>
      <trkpt lat="42.6605100" lon="-6.9228870">
        <ele>605.7</ele>
        <time>2014-10-02T15:54:07Z</time>
      </trkpt>
      <trkpt lat="42.6604810" lon="-6.9227440">
        <ele>605.5</ele>
        <time>2014-10-02T15:54:08Z</time>
      </trkpt>
      <trkpt lat="42.6604560" lon="-6.9226040">
        <ele>605.2</ele>
        <time>2014-10-02T15:54:09Z</time>
      </trkpt>
      <trkpt lat="42.6604400" lon="-6.9224510">
        <ele>605.0</ele>
        <time>2014-10-02T15:54:10Z</time>
      </trkpt>
      <trkpt lat="42.6604200" lon="-6.9223040">
        <ele>604.7</ele>
        <time>2014-10-02T15:54:11Z</time>
      </trkpt>
      <trkpt lat="42.6604020" lon="-6.9221600">
        <ele>604.4</ele>
        <time>2014-10-02T15:54:12Z</time>
      </trkpt>
      <trkpt lat="42.6603810" lon="-6.9220250">
        <ele>603.8</ele>
        <time>2014-10-02T15:54:13Z</time>
      </trkpt>
      <trkpt lat="42.6603610" lon="-6.9218870">
        <ele>603.3</ele>
        <time>2014-10-02T15:54:14Z</time>
      </trkpt>
      <trkpt lat="42.6603430" lon="-6.9217480">
        <ele>603.1</ele>
        <time>2014-10-02T15:54:15Z</time>
      </trkpt>
      <trkpt lat="42.6603280" lon="-6.9216080">
        <ele>602.7</ele>
        <time>2014-10-02T15:54:16Z</time>
      </trkpt>
      <trkpt lat="42.6603130" lon="-6.9214720">
        <ele>602.4</ele>
        <time>2014-10-02T15:54:17Z</time>
      </trkpt>
      <trkpt lat="42.6603030" lon="-6.9213390">
        <ele>602.3</ele>
        <time>2014-10-02T15:54:18Z</time>
      </trkpt>
      <trkpt lat="42.6602970" lon="-6.9212060">
        <ele>602.2</ele>
        <time>2014-10-02T15:54:19Z</time>
      </trkpt>
      <trkpt lat="42.6602910" lon="-6.9210670">
        <ele>602.1</ele>
        <time>2014-10-02T15:54:20Z</time>
      </trkpt>
      <trkpt lat="42.6602890" lon="-6.9209160">
        <ele>602.1</ele>
        <time>2014-10-02T15:54:21Z</time>
      </trkpt>
      <trkpt lat="42.6602880" lon="-6.9207690">
        <ele>602.1</ele>
        <time>2014-10-02T15:54:22Z</time>
      </trkpt>
      <trkpt lat="42.6602900" lon="-6.9206350">
        <ele>602.2</ele>
        <time>2014-10-02T15:54:23Z</time>
      </trkpt>
      <trkpt lat="42.6602920" lon="-6.9204990">
        <ele>602.2</ele>
        <time>2014-10-02T15:54:24Z</time>
      </trkpt>
      <trkpt lat="42.6602990" lon="-6.9203490">
        <ele>602.2</ele>
        <time>2014-10-02T15:54:25Z</time>
      </trkpt>
      <trkpt lat="42.6603100" lon="-6.9202040">
        <ele>602.2</ele>
        <time>2014-10-02T15:54:26Z</time>
      </trkpt>
      <trkpt lat="42.6603210" lon="-6.9200630">
        <ele>602.2</ele>
        <time>2014-10-02T15:54:27Z</time>
      </trkpt>
      <trkpt lat="42.6603320" lon="-6.9199250">
        <ele>602.1</ele>
        <time>2014-10-02T15:54:28Z</time>
      </trkpt>
      <trkpt lat="42.6603440" lon="-6.9197870">
        <ele>602.1</ele>
        <time>2014-10-02T15:54:29Z</time>
      </trkpt>
      <trkpt lat="42.6603550" lon="-6.9196580">
        <ele>602.1</ele>
        <time>2014-10-02T15:54:30Z</time>
      </trkpt>
      <trkpt lat="42.6603680" lon="-6.9195260">
        <ele>602.0</ele>
        <time>2014-10-02T15:54:31Z</time>
      </trkpt>
      <trkpt lat="42.6603760" lon="-6.9193810">
        <ele>602.0</ele>
        <time>2014-10-02T15:54:32Z</time>
      </trkpt>
      <trkpt lat="42.6603820" lon="-6.9192520">
        <ele>602.0</ele>
        <time>2014-10-02T15:54:33Z</time>
      </trkpt>
      <trkpt lat="42.6603870" lon="-6.9191280">
        <ele>601.9</ele>
        <time>2014-10-02T15:54:34Z</time>
      </trkpt>
      <trkpt lat="42.6603910" lon="-6.9190020">
        <ele>602.1</ele>
        <time>2014-10-02T15:54:35Z</time>
      </trkpt>
      <trkpt lat="42.6603900" lon="-6.9188780">
        <ele>602.2</ele>
        <time>2014-10-02T15:54:36Z</time>
      </trkpt>
      <trkpt lat="42.6603870" lon="-6.9187560">
        <ele>602.2</ele>
        <time>2014-10-02T15:54:37Z</time>
      </trkpt>
      <trkpt lat="42.6603800" lon="-6.9186260">
        <ele>602.2</ele>
        <time>2014-10-02T15:54:38Z</time>
      </trkpt>
      <trkpt lat="42.6603730" lon="-6.9185030">
        <ele>602.2</ele>
        <time>2014-10-02T15:54:39Z</time>
      </trkpt>
      <trkpt lat="42.6603650" lon="-6.9183770">
        <ele>602.3</ele>
        <time>2014-10-02T15:54:40Z</time>
      </trkpt>
      <trkpt lat="42.6603570" lon="-6.9182490">
        <ele>602.3</ele>
        <time>2014-10-02T15:54:41Z</time>
      </trkpt>
      <trkpt lat="42.6603480" lon="-6.9181200">
        <ele>602.4</ele>
        <time>2014-10-02T15:54:42Z</time>
      </trkpt>
      <trkpt lat="42.6603330" lon="-6.9179960">
        <ele>602.4</ele>
        <time>2014-10-02T15:54:43Z</time>
      </trkpt>
      <trkpt lat="42.6603140" lon="-6.9178640">
        <ele>602.4</ele>
        <time>2014-10-02T15:54:44Z</time>
      </trkpt>
      <trkpt lat="42.6602950" lon="-6.9177370">
        <ele>602.4</ele>
        <time>2014-10-02T15:54:45Z</time>
      </trkpt>
      <trkpt lat="42.6602750" lon="-6.9176220">
        <ele>602.4</ele>
        <time>2014-10-02T15:54:46Z</time>
      </trkpt>
      <trkpt lat="42.6602520" lon="-6.9175080">
        <ele>602.4</ele>
        <time>2014-10-02T15:54:47Z</time>
      </trkpt>
      <trkpt lat="42.6602260" lon="-6.9173840">
        <ele>602.4</ele>
        <time>2014-10-02T15:54:48Z</time>
      </trkpt>
      <trkpt lat="42.6601990" lon="-6.9172790">
        <ele>602.5</ele>
        <time>2014-10-02T15:54:49Z</time>
      </trkpt>
      <trkpt lat="42.6601650" lon="-6.9171580">
        <ele>602.5</ele>
        <time>2014-10-02T15:54:50Z</time>
      </trkpt>
      <trkpt lat="42.6601300" lon="-6.9170340">
        <ele>602.7</ele>
        <time>2014-10-02T15:54:51Z</time>
      </trkpt>
      <trkpt lat="42.6600950" lon="-6.9169230">
        <ele>602.6</ele>
        <time>2014-10-02T15:54:52Z</time>
      </trkpt>
      <trkpt lat="42.6600560" lon="-6.9168190">
        <ele>602.5</ele>
        <time>2014-10-02T15:54:53Z</time>
      </trkpt>
      <trkpt lat="42.6600120" lon="-6.9167140">
        <ele>602.4</ele>
        <time>2014-10-02T15:54:54Z</time>
      </trkpt>
      <trkpt lat="42.6599670" lon="-6.9166010">
        <ele>602.3</ele>
        <time>2014-10-02T15:54:55Z</time>
      </trkpt>
      <trkpt lat="42.6599190" lon="-6.9164880">
        <ele>602.2</ele>
        <time>2014-10-02T15:54:56Z</time>
      </trkpt>
      <trkpt lat="42.6598690" lon="-6.9163720">
        <ele>602.1</ele>
        <time>2014-10-02T15:54:57Z</time>
      </trkpt>
      <trkpt lat="42.6598190" lon="-6.9162540">
        <ele>602.3</ele>
        <time>2014-10-02T15:54:58Z</time>
      </trkpt>
      <trkpt lat="42.6597600" lon="-6.9161340">
        <ele>602.5</ele>
        <time>2014-10-02T15:54:59Z</time>
      </trkpt>
      <trkpt lat="42.6597070" lon="-6.9160290">
        <ele>602.6</ele>
        <time>2014-10-02T15:55:00Z</time>
      </trkpt>
      <trkpt lat="42.6596490" lon="-6.9159230">
        <ele>602.8</ele>
        <time>2014-10-02T15:55:01Z</time>
      </trkpt>
      <trkpt lat="42.6595880" lon="-6.9158190">
        <ele>603.0</ele>
        <time>2014-10-02T15:55:02Z</time>
      </trkpt>
      <trkpt lat="42.6595260" lon="-6.9157120">
        <ele>603.2</ele>
        <time>2014-10-02T15:55:03Z</time>
      </trkpt>
      <trkpt lat="42.6594670" lon="-6.9156130">
        <ele>603.5</ele>
        <time>2014-10-02T15:55:04Z</time>
      </trkpt>
      <trkpt lat="42.6594110" lon="-6.9155230">
        <ele>603.7</ele>
        <time>2014-10-02T15:55:05Z</time>
      </trkpt>
      <trkpt lat="42.6593510" lon="-6.9154340">
        <ele>603.7</ele>
        <time>2014-10-02T15:55:06Z</time>
      </trkpt>
      <trkpt lat="42.6592900" lon="-6.9153500">
        <ele>603.7</ele>
        <time>2014-10-02T15:55:07Z</time>
      </trkpt>
      <trkpt lat="42.6592250" lon="-6.9152660">
        <ele>603.7</ele>
        <time>2014-10-02T15:55:08Z</time>
      </trkpt>
      <trkpt lat="42.6591580" lon="-6.9151810">
        <ele>603.7</ele>
        <time>2014-10-02T15:55:09Z</time>
      </trkpt>
      <trkpt lat="42.6590950" lon="-6.9151000">
        <ele>603.7</ele>
        <time>2014-10-02T15:55:10Z</time>
      </trkpt>
      <trkpt lat="42.6590310" lon="-6.9150200">
        <ele>603.7</ele>
        <time>2014-10-02T15:55:11Z</time>
      </trkpt>
      <trkpt lat="42.6589770" lon="-6.9149570">
        <ele>603.7</ele>
        <time>2014-10-02T15:55:12Z</time>
      </trkpt>
      <trkpt lat="42.6589200" lon="-6.9148960">
        <ele>603.7</ele>
        <time>2014-10-02T15:55:13Z</time>
      </trkpt>
      <trkpt lat="42.6588640" lon="-6.9148370">
        <ele>603.7</ele>
        <time>2014-10-02T15:55:14Z</time>
      </trkpt>
      <trkpt lat="42.6588070" lon="-6.9147810">
        <ele>603.7</ele>
        <time>2014-10-02T15:55:15Z</time>
      </trkpt>
      <trkpt lat="42.6587490" lon="-6.9147220">
        <ele>603.7</ele>
        <time>2014-10-02T15:55:16Z</time>
      </trkpt>
      <trkpt lat="42.6586880" lon="-6.9146630">
        <ele>603.6</ele>
        <time>2014-10-02T15:55:17Z</time>
      </trkpt>
      <trkpt lat="42.6586210" lon="-6.9145990">
        <ele>603.6</ele>
        <time>2014-10-02T15:55:18Z</time>
      </trkpt>
      <trkpt lat="42.6585590" lon="-6.9145480">
        <ele>603.6</ele>
        <time>2014-10-02T15:55:19Z</time>
      </trkpt>
      <trkpt lat="42.6584990" lon="-6.9144990">
        <ele>603.6</ele>
        <time>2014-10-02T15:55:20Z</time>
      </trkpt>
      <trkpt lat="42.6584400" lon="-6.9144510">
        <ele>603.6</ele>
        <time>2014-10-02T15:55:21Z</time>
      </trkpt>
      <trkpt lat="42.6583780" lon="-6.9144000">
        <ele>603.6</ele>
        <time>2014-10-02T15:55:22Z</time>
      </trkpt>
      <trkpt lat="42.6583240" lon="-6.9143550">
        <ele>603.6</ele>
        <time>2014-10-02T15:55:23Z</time>
      </trkpt>
      <trkpt lat="42.6582650" lon="-6.9143020">
        <ele>603.7</ele>
        <time>2014-10-02T15:55:24Z</time>
      </trkpt>
      <trkpt lat="42.6582030" lon="-6.9142500">
        <ele>603.7</ele>
        <time>2014-10-02T15:55:25Z</time>
      </trkpt>
      <trkpt lat="42.6581440" lon="-6.9141980">
        <ele>603.7</ele>
        <time>2014-10-02T15:55:26Z</time>
      </trkpt>
      <trkpt lat="42.6580820" lon="-6.9141430">
        <ele>603.8</ele>
        <time>2014-10-02T15:55:27Z</time>
      </trkpt>
      <trkpt lat="42.6580220" lon="-6.9140870">
        <ele>603.8</ele>
        <time>2014-10-02T15:55:28Z</time>
      </trkpt>
      <trkpt lat="42.6579620" lon="-6.9140280">
        <ele>603.9</ele>
        <time>2014-10-02T15:55:29Z</time>
      </trkpt>
      <trkpt lat="42.6578980" lon="-6.9139610">
        <ele>603.9</ele>
        <time>2014-10-02T15:55:30Z</time>
      </trkpt>
      <trkpt lat="42.6578350" lon="-6.9138900">
        <ele>603.9</ele>
        <time>2014-10-02T15:55:31Z</time>
      </trkpt>
      <trkpt lat="42.6577760" lon="-6.9138140">
        <ele>603.9</ele>
        <time>2014-10-02T15:55:32Z</time>
      </trkpt>
      <trkpt lat="42.6577190" lon="-6.9137270">
        <ele>603.8</ele>
        <time>2014-10-02T15:55:33Z</time>
      </trkpt>
      <trkpt lat="42.6576790" lon="-6.9136300">
        <ele>603.8</ele>
        <time>2014-10-02T15:55:34Z</time>
      </trkpt>
      <trkpt lat="42.6576400" lon="-6.9135220">
        <ele>603.8</ele>
        <time>2014-10-02T15:55:35Z</time>
      </trkpt>
      <trkpt lat="42.6576050" lon="-6.9134140">
        <ele>603.9</ele>
        <time>2014-10-02T15:55:36Z</time>
      </trkpt>
      <trkpt lat="42.6575770" lon="-6.9133080">
        <ele>603.8</ele>
        <time>2014-10-02T15:55:37Z</time>
      </trkpt>
      <trkpt lat="42.6575670" lon="-6.9131970">
        <ele>603.8</ele>
        <time>2014-10-02T15:55:38Z</time>
      </trkpt>
      <trkpt lat="42.6575540" lon="-6.9130700">
        <ele>603.7</ele>
        <time>2014-10-02T15:55:39Z</time>
      </trkpt>
      <trkpt lat="42.6575570" lon="-6.9129580">
        <ele>603.7</ele>
        <time>2014-10-02T15:55:40Z</time>
      </trkpt>
      <trkpt lat="42.6575650" lon="-6.9128430">
        <ele>603.6</ele>
        <time>2014-10-02T15:55:41Z</time>
      </trkpt>
      <trkpt lat="42.6575960" lon="-6.9127260">
        <ele>603.5</ele>
        <time>2014-10-02T15:55:42Z</time>
      </trkpt>
      <trkpt lat="42.6576260" lon="-6.9126160">
        <ele>603.3</ele>
        <time>2014-10-02T15:55:43Z</time>
      </trkpt>
      <trkpt lat="42.6576580" lon="-6.9125120">
        <ele>603.2</ele>
        <time>2014-10-02T15:55:44Z</time>
      </trkpt>
      <trkpt lat="42.6576950" lon="-6.9124060">
        <ele>603.0</ele>
        <time>2014-10-02T15:55:45Z</time>
      </trkpt>
      <trkpt lat="42.6577370" lon="-6.9123060">
        <ele>602.9</ele>
        <time>2014-10-02T15:55:46Z</time>
      </trkpt>
      <trkpt lat="42.6577840" lon="-6.9122120">
        <ele>602.7</ele>
        <time>2014-10-02T15:55:47Z</time>
      </trkpt>
      <trkpt lat="42.6578510" lon="-6.9121310">
        <ele>602.5</ele>
        <time>2014-10-02T15:55:48Z</time>
      </trkpt>
      <trkpt lat="42.6579140" lon="-6.9120530">
        <ele>602.2</ele>
        <time>2014-10-02T15:55:49Z</time>
      </trkpt>
      <trkpt lat="42.6579800" lon="-6.9119750">
        <ele>601.9</ele>
        <time>2014-10-02T15:55:50Z</time>
      </trkpt>
      <trkpt lat="42.6580500" lon="-6.9118960">
        <ele>601.6</ele>
        <time>2014-10-02T15:55:51Z</time>
      </trkpt>
      <trkpt lat="42.6581230" lon="-6.9118190">
        <ele>601.2</ele>
        <time>2014-10-02T15:55:52Z</time>
      </trkpt>
      <trkpt lat="42.6581940" lon="-6.9117450">
        <ele>600.9</ele>
        <time>2014-10-02T15:55:53Z</time>
      </trkpt>
      <trkpt lat="42.6582710" lon="-6.9116580">
        <ele>600.4</ele>
        <time>2014-10-02T15:55:54Z</time>
      </trkpt>
      <trkpt lat="42.6583430" lon="-6.9115780">
        <ele>600.1</ele>
        <time>2014-10-02T15:55:55Z</time>
      </trkpt>
      <trkpt lat="42.6584050" lon="-6.9114980">
        <ele>599.7</ele>
        <time>2014-10-02T15:55:56Z</time>
      </trkpt>
      <trkpt lat="42.6584760" lon="-6.9114020">
        <ele>599.3</ele>
        <time>2014-10-02T15:55:57Z</time>
      </trkpt>
      <trkpt lat="42.6585400" lon="-6.9113020">
        <ele>598.9</ele>
        <time>2014-10-02T15:55:58Z</time>
      </trkpt>
      <trkpt lat="42.6585980" lon="-6.9111990">
        <ele>598.6</ele>
        <time>2014-10-02T15:55:59Z</time>
      </trkpt>
      <trkpt lat="42.6586370" lon="-6.9110770">
        <ele>598.3</ele>
        <time>2014-10-02T15:56:00Z</time>
      </trkpt>
      <trkpt lat="42.6586740" lon="-6.9109470">
        <ele>597.9</ele>
        <time>2014-10-02T15:56:01Z</time>
      </trkpt>
      <trkpt lat="42.6587020" lon="-6.9108240">
        <ele>597.6</ele>
        <time>2014-10-02T15:56:02Z</time>
      </trkpt>
      <trkpt lat="42.6587260" lon="-6.9106940">
        <ele>597.2</ele>
        <time>2014-10-02T15:56:03Z</time>
      </trkpt>
      <trkpt lat="42.6587280" lon="-6.9105450">
        <ele>596.8</ele>
        <time>2014-10-02T15:56:04Z</time>
      </trkpt>
      <trkpt lat="42.6587330" lon="-6.9103690">
        <ele>596.3</ele>
        <time>2014-10-02T15:56:05Z</time>
      </trkpt>
      <trkpt lat="42.6587300" lon="-6.9102090">
        <ele>596.0</ele>
        <time>2014-10-02T15:56:06Z</time>
      </trkpt>
      <trkpt lat="42.6587200" lon="-6.9100540">
        <ele>595.8</ele>
        <time>2014-10-02T15:56:07Z</time>
      </trkpt>
      <trkpt lat="42.6587000" lon="-6.9099130">
        <ele>595.6</ele>
        <time>2014-10-02T15:56:08Z</time>
      </trkpt>
      <trkpt lat="42.6586750" lon="-6.9097970">
        <ele>595.4</ele>
        <time>2014-10-02T15:56:09Z</time>
      </trkpt>
      <trkpt lat="42.6586250" lon="-6.9096850">
        <ele>595.3</ele>
        <time>2014-10-02T15:56:10Z</time>
      </trkpt>
      <trkpt lat="42.6585760" lon="-6.9095710">
        <ele>595.2</ele>
        <time>2014-10-02T15:56:11Z</time>
      </trkpt>
      <trkpt lat="42.6585190" lon="-6.9094590">
        <ele>595.1</ele>
        <time>2014-10-02T15:56:12Z</time>
      </trkpt>
      <trkpt lat="42.6584580" lon="-6.9093570">
        <ele>595.1</ele>
        <time>2014-10-02T15:56:13Z</time>
      </trkpt>
      <trkpt lat="42.6583860" lon="-6.9092530">
        <ele>595.1</ele>
        <time>2014-10-02T15:56:14Z</time>
      </trkpt>
      <trkpt lat="42.6583040" lon="-6.9091760">
        <ele>595.0</ele>
        <time>2014-10-02T15:56:15Z</time>
      </trkpt>
      <trkpt lat="42.6582180" lon="-6.9091000">
        <ele>595.1</ele>
        <time>2014-10-02T15:56:16Z</time>
      </trkpt>
      <trkpt lat="42.6581340" lon="-6.9090300">
        <ele>595.1</ele>
        <time>2014-10-02T15:56:17Z</time>
      </trkpt>
      <trkpt lat="42.6580510" lon="-6.9089740">
        <ele>595.1</ele>
        <time>2014-10-02T15:56:18Z</time>
      </trkpt>
      <trkpt lat="42.6579740" lon="-6.9089200">
        <ele>595.1</ele>
        <time>2014-10-02T15:56:19Z</time>
      </trkpt>
      <trkpt lat="42.6578930" lon="-6.9088640">
        <ele>595.2</ele>
        <time>2014-10-02T15:56:20Z</time>
      </trkpt>
      <trkpt lat="42.6578130" lon="-6.9088090">
        <ele>595.2</ele>
        <time>2014-10-02T15:56:21Z</time>
      </trkpt>
      <trkpt lat="42.6577240" lon="-6.9087530">
        <ele>595.2</ele>
        <time>2014-10-02T15:56:22Z</time>
      </trkpt>
      <trkpt lat="42.6576370" lon="-6.9086980">
        <ele>595.2</ele>
        <time>2014-10-02T15:56:23Z</time>
      </trkpt>
      <trkpt lat="42.6575530" lon="-6.9086430">
        <ele>595.2</ele>
        <time>2014-10-02T15:56:24Z</time>
      </trkpt>
      <trkpt lat="42.6574710" lon="-6.9085890">
        <ele>595.2</ele>
        <time>2014-10-02T15:56:25Z</time>
      </trkpt>
      <trkpt lat="42.6573910" lon="-6.9085300">
        <ele>595.2</ele>
        <time>2014-10-02T15:56:26Z</time>
      </trkpt>
      <trkpt lat="42.6573080" lon="-6.9084580">
        <ele>595.2</ele>
        <time>2014-10-02T15:56:27Z</time>
      </trkpt>
      <trkpt lat="42.6572370" lon="-6.9083850">
        <ele>595.2</ele>
        <time>2014-10-02T15:56:28Z</time>
      </trkpt>
      <trkpt lat="42.6571700" lon="-6.9083080">
        <ele>595.2</ele>
        <time>2014-10-02T15:56:29Z</time>
      </trkpt>
      <trkpt lat="42.6571050" lon="-6.9082240">
        <ele>595.1</ele>
        <time>2014-10-02T15:56:30Z</time>
      </trkpt>
      <trkpt lat="42.6570460" lon="-6.9081330">
        <ele>595.0</ele>
        <time>2014-10-02T15:56:31Z</time>
      </trkpt>
      <trkpt lat="42.6569940" lon="-6.9080420">
        <ele>595.0</ele>
        <time>2014-10-02T15:56:32Z</time>
      </trkpt>
      <trkpt lat="42.6569510" lon="-6.9079510">
        <ele>594.9</ele>
        <time>2014-10-02T15:56:33Z</time>
      </trkpt>
      <trkpt lat="42.6569070" lon="-6.9078470">
        <ele>594.9</ele>
        <time>2014-10-02T15:56:34Z</time>
      </trkpt>
      <trkpt lat="42.6568690" lon="-6.9077400">
        <ele>594.8</ele>
        <time>2014-10-02T15:56:35Z</time>
      </trkpt>
      <trkpt lat="42.6568310" lon="-6.9076190">
        <ele>594.7</ele>
        <time>2014-10-02T15:56:36Z</time>
      </trkpt>
      <trkpt lat="42.6567970" lon="-6.9074950">
        <ele>594.5</ele>
        <time>2014-10-02T15:56:37Z</time>
      </trkpt>
      <trkpt lat="42.6567660" lon="-6.9073750">
        <ele>594.3</ele>
        <time>2014-10-02T15:56:38Z</time>
      </trkpt>
      <trkpt lat="42.6567390" lon="-6.9072560">
        <ele>594.2</ele>
        <time>2014-10-02T15:56:39Z</time>
      </trkpt>
      <trkpt lat="42.6567150" lon="-6.9071340">
        <ele>594.1</ele>
        <time>2014-10-02T15:56:40Z</time>
      </trkpt>
      <trkpt lat="42.6566940" lon="-6.9070190">
        <ele>594.0</ele>
        <time>2014-10-02T15:56:41Z</time>
      </trkpt>
      <trkpt lat="42.6566740" lon="-6.9068990">
        <ele>594.0</ele>
        <time>2014-10-02T15:56:42Z</time>
      </trkpt>
      <trkpt lat="42.6566510" lon="-6.9067710">
        <ele>593.9</ele>
        <time>2014-10-02T15:56:43Z</time>
      </trkpt>
      <trkpt lat="42.6566280" lon="-6.9066490">
        <ele>593.8</ele>
        <time>2014-10-02T15:56:44Z</time>
      </trkpt>
      <trkpt lat="42.6566010" lon="-6.9065270">
        <ele>593.6</ele>
        <time>2014-10-02T15:56:45Z</time>
      </trkpt>
      <trkpt lat="42.6565740" lon="-6.9064160">
        <ele>593.5</ele>
        <time>2014-10-02T15:56:46Z</time>
      </trkpt>
      <trkpt lat="42.6565430" lon="-6.9063130">
        <ele>593.3</ele>
        <time>2014-10-02T15:56:47Z</time>
      </trkpt>
      <trkpt lat="42.6565050" lon="-6.9062130">
        <ele>593.2</ele>
        <time>2014-10-02T15:56:48Z</time>
      </trkpt>
      <trkpt lat="42.6564600" lon="-6.9061150">
        <ele>593.2</ele>
        <time>2014-10-02T15:56:49Z</time>
      </trkpt>
      <trkpt lat="42.6563990" lon="-6.9060050">
        <ele>593.1</ele>
        <time>2014-10-02T15:56:50Z</time>
      </trkpt>
      <trkpt lat="42.6563370" lon="-6.9059020">
        <ele>593.0</ele>
        <time>2014-10-02T15:56:51Z</time>
      </trkpt>
      <trkpt lat="42.6562710" lon="-6.9058060">
        <ele>592.9</ele>
        <time>2014-10-02T15:56:52Z</time>
      </trkpt>
      <trkpt lat="42.6562090" lon="-6.9057260">
        <ele>592.9</ele>
        <time>2014-10-02T15:56:53Z</time>
      </trkpt>
      <trkpt lat="42.6561450" lon="-6.9056440">
        <ele>592.8</ele>
        <time>2014-10-02T15:56:54Z</time>
      </trkpt>
      <trkpt lat="42.6560820" lon="-6.9055710">
        <ele>592.8</ele>
        <time>2014-10-02T15:56:55Z</time>
      </trkpt>
      <trkpt lat="42.6560180" lon="-6.9054960">
        <ele>592.8</ele>
        <time>2014-10-02T15:56:56Z</time>
      </trkpt>
      <trkpt lat="42.6559520" lon="-6.9054230">
        <ele>592.8</ele>
        <time>2014-10-02T15:56:57Z</time>
      </trkpt>
      <trkpt lat="42.6558860" lon="-6.9053500">
        <ele>592.8</ele>
        <time>2014-10-02T15:56:58Z</time>
      </trkpt>
      <trkpt lat="42.6558190" lon="-6.9052780">
        <ele>592.8</ele>
        <time>2014-10-02T15:56:59Z</time>
      </trkpt>
      <trkpt lat="42.6557550" lon="-6.9052060">
        <ele>592.8</ele>
        <time>2014-10-02T15:57:00Z</time>
      </trkpt>
      <trkpt lat="42.6556950" lon="-6.9051350">
        <ele>592.8</ele>
        <time>2014-10-02T15:57:01Z</time>
      </trkpt>
      <trkpt lat="42.6556400" lon="-6.9050580">
        <ele>592.8</ele>
        <time>2014-10-02T15:57:02Z</time>
      </trkpt>
      <trkpt lat="42.6555870" lon="-6.9049710">
        <ele>592.7</ele>
        <time>2014-10-02T15:57:03Z</time>
      </trkpt>
      <trkpt lat="42.6555370" lon="-6.9048740">
        <ele>592.7</ele>
        <time>2014-10-02T15:57:04Z</time>
      </trkpt>
      <trkpt lat="42.6554930" lon="-6.9047740">
        <ele>592.6</ele>
        <time>2014-10-02T15:57:05Z</time>
      </trkpt>
      <trkpt lat="42.6554530" lon="-6.9046720">
        <ele>592.5</ele>
        <time>2014-10-02T15:57:06Z</time>
      </trkpt>
      <trkpt lat="42.6554170" lon="-6.9045650">
        <ele>592.5</ele>
        <time>2014-10-02T15:57:07Z</time>
      </trkpt>
      <trkpt lat="42.6553860" lon="-6.9044580">
        <ele>592.4</ele>
        <time>2014-10-02T15:57:08Z</time>
      </trkpt>
      <trkpt lat="42.6553580" lon="-6.9043450">
        <ele>592.4</ele>
        <time>2014-10-02T15:57:09Z</time>
      </trkpt>
      <trkpt lat="42.6553300" lon="-6.9042160">
        <ele>592.3</ele>
        <time>2014-10-02T15:57:10Z</time>
      </trkpt>
      <trkpt lat="42.6553030" lon="-6.9040830">
        <ele>592.2</ele>
        <time>2014-10-02T15:57:11Z</time>
      </trkpt>
      <trkpt lat="42.6552820" lon="-6.9039730">
        <ele>592.1</ele>
        <time>2014-10-02T15:57:12Z</time>
      </trkpt>
      <trkpt lat="42.6552620" lon="-6.9038540">
        <ele>591.9</ele>
        <time>2014-10-02T15:57:13Z</time>
      </trkpt>
      <trkpt lat="42.6552450" lon="-6.9037400">
        <ele>591.9</ele>
        <time>2014-10-02T15:57:14Z</time>
      </trkpt>
      <trkpt lat="42.6552280" lon="-6.9036290">
        <ele>591.8</ele>
        <time>2014-10-02T15:57:15Z</time>
      </trkpt>
      <trkpt lat="42.6552110" lon="-6.9035270">
        <ele>591.8</ele>
        <time>2014-10-02T15:57:16Z</time>
      </trkpt>
      <trkpt lat="42.6551940" lon="-6.9034340">
        <ele>591.8</ele>
        <time>2014-10-02T15:57:17Z</time>
      </trkpt>
      <trkpt lat="42.6551770" lon="-6.9033370">
        <ele>591.7</ele>
        <time>2014-10-02T15:57:18Z</time>
      </trkpt>
      <trkpt lat="42.6551590" lon="-6.9032320">
        <ele>591.7</ele>
        <time>2014-10-02T15:57:19Z</time>
      </trkpt>
      <trkpt lat="42.6551420" lon="-6.9031350">
        <ele>591.6</ele>
        <time>2014-10-02T15:57:20Z</time>
      </trkpt>
      <trkpt lat="42.6551250" lon="-6.9030310">
        <ele>591.5</ele>
        <time>2014-10-02T15:57:21Z</time>
      </trkpt>
      <trkpt lat="42.6551060" lon="-6.9029270">
        <ele>591.4</ele>
        <time>2014-10-02T15:57:22Z</time>
      </trkpt>
      <trkpt lat="42.6550820" lon="-6.9028140">
        <ele>591.2</ele>
        <time>2014-10-02T15:57:23Z</time>
      </trkpt>
      <trkpt lat="42.6550560" lon="-6.9027010">
        <ele>591.1</ele>
        <time>2014-10-02T15:57:24Z</time>
      </trkpt>
      <trkpt lat="42.6550320" lon="-6.9025950">
        <ele>591.0</ele>
        <time>2014-10-02T15:57:25Z</time>
      </trkpt>
      <trkpt lat="42.6550050" lon="-6.9024800">
        <ele>590.9</ele>
        <time>2014-10-02T15:57:26Z</time>
      </trkpt>
      <trkpt lat="42.6549790" lon="-6.9023760">
        <ele>590.8</ele>
        <time>2014-10-02T15:57:27Z</time>
      </trkpt>
      <trkpt lat="42.6549550" lon="-6.9022670">
        <ele>590.7</ele>
        <time>2014-10-02T15:57:28Z</time>
      </trkpt>
      <trkpt lat="42.6549280" lon="-6.9021600">
        <ele>590.7</ele>
        <time>2014-10-02T15:57:29Z</time>
      </trkpt>
      <trkpt lat="42.6549000" lon="-6.9020660">
        <ele>590.6</ele>
        <time>2014-10-02T15:57:30Z</time>
      </trkpt>
      <trkpt lat="42.6548720" lon="-6.9019760">
        <ele>590.6</ele>
        <time>2014-10-02T15:57:31Z</time>
      </trkpt>
      <trkpt lat="42.6548440" lon="-6.9018880">
        <ele>590.6</ele>
        <time>2014-10-02T15:57:32Z</time>
      </trkpt>
      <trkpt lat="42.6548160" lon="-6.9018060">
        <ele>590.6</ele>
        <time>2014-10-02T15:57:33Z</time>
      </trkpt>
      <trkpt lat="42.6547890" lon="-6.9017250">
        <ele>590.6</ele>
        <time>2014-10-02T15:57:34Z</time>
      </trkpt>
      <trkpt lat="42.6547620" lon="-6.9016350">
        <ele>590.5</ele>
        <time>2014-10-02T15:57:35Z</time>
      </trkpt>
      <trkpt lat="42.6547370" lon="-6.9015340">
        <ele>590.5</ele>
        <time>2014-10-02T15:57:36Z</time>
      </trkpt>
      <trkpt lat="42.6547110" lon="-6.9014220">
        <ele>590.5</ele>
        <time>2014-10-02T15:57:37Z</time>
      </trkpt>
      <trkpt lat="42.6546870" lon="-6.9013080">
        <ele>590.5</ele>
        <time>2014-10-02T15:57:38Z</time>
      </trkpt>
      <trkpt lat="42.6546640" lon="-6.9011950">
        <ele>590.5</ele>
        <time>2014-10-02T15:57:39Z</time>
      </trkpt>
      <trkpt lat="42.6546400" lon="-6.9010790">
        <ele>590.4</ele>
        <time>2014-10-02T15:57:40Z</time>
      </trkpt>
      <trkpt lat="42.6546170" lon="-6.9009620">
        <ele>590.4</ele>
        <time>2014-10-02T15:57:41Z</time>
      </trkpt>
      <trkpt lat="42.6545970" lon="-6.9008600">
        <ele>590.3</ele>
        <time>2014-10-02T15:57:42Z</time>
      </trkpt>
      <trkpt lat="42.6545780" lon="-6.9007600">
        <ele>590.3</ele>
        <time>2014-10-02T15:57:43Z</time>
      </trkpt>
      <trkpt lat="42.6545600" lon="-6.9006510">
        <ele>590.2</ele>
        <time>2014-10-02T15:57:44Z</time>
      </trkpt>
      <trkpt lat="42.6545440" lon="-6.9005400">
        <ele>590.1</ele>
        <time>2014-10-02T15:57:45Z</time>
      </trkpt>
      <trkpt lat="42.6545270" lon="-6.9004300">
        <ele>590.1</ele>
        <time>2014-10-02T15:57:46Z</time>
      </trkpt>
      <trkpt lat="42.6545090" lon="-6.9003230">
        <ele>590.0</ele>
        <time>2014-10-02T15:57:47Z</time>
      </trkpt>
      <trkpt lat="42.6544920" lon="-6.9002050">
        <ele>589.9</ele>
        <time>2014-10-02T15:57:48Z</time>
      </trkpt>
      <trkpt lat="42.6544790" lon="-6.9000930">
        <ele>589.9</ele>
        <time>2014-10-02T15:57:49Z</time>
      </trkpt>
      <trkpt lat="42.6544650" lon="-6.8999700">
        <ele>586.6</ele>
        <time>2014-10-02T15:57:50Z</time>
      </trkpt>
      <trkpt lat="42.6544520" lon="-6.8998560">
        <ele>586.5</ele>
        <time>2014-10-02T15:57:51Z</time>
      </trkpt>
      <trkpt lat="42.6544420" lon="-6.8997520">
        <ele>586.4</ele>
        <time>2014-10-02T15:57:52Z</time>
      </trkpt>
      <trkpt lat="42.6544360" lon="-6.8996460">
        <ele>586.3</ele>
        <time>2014-10-02T15:57:53Z</time>
      </trkpt>
      <trkpt lat="42.6544300" lon="-6.8995240">
        <ele>586.3</ele>
        <time>2014-10-02T15:57:54Z</time>
      </trkpt>
      <trkpt lat="42.6544280" lon="-6.8994010">
        <ele>586.2</ele>
        <time>2014-10-02T15:57:55Z</time>
      </trkpt>
      <trkpt lat="42.6544280" lon="-6.8992850">
        <ele>586.1</ele>
        <time>2014-10-02T15:57:56Z</time>
      </trkpt>
      <trkpt lat="42.6544320" lon="-6.8991780">
        <ele>586.0</ele>
        <time>2014-10-02T15:57:57Z</time>
      </trkpt>
      <trkpt lat="42.6544390" lon="-6.8990670">
        <ele>585.8</ele>
        <time>2014-10-02T15:57:58Z</time>
      </trkpt>
      <trkpt lat="42.6544480" lon="-6.8989480">
        <ele>585.7</ele>
        <time>2014-10-02T15:57:59Z</time>
      </trkpt>
      <trkpt lat="42.6544620" lon="-6.8988280">
        <ele>585.6</ele>
        <time>2014-10-02T15:58:00Z</time>
      </trkpt>
      <trkpt lat="42.6544970" lon="-6.8987220">
        <ele>585.5</ele>
        <time>2014-10-02T15:58:01Z</time>
      </trkpt>
      <trkpt lat="42.6545320" lon="-6.8986150">
        <ele>585.4</ele>
        <time>2014-10-02T15:58:02Z</time>
      </trkpt>
      <trkpt lat="42.6545670" lon="-6.8985090">
        <ele>585.2</ele>
        <time>2014-10-02T15:58:03Z</time>
      </trkpt>
      <trkpt lat="42.6546010" lon="-6.8983990">
        <ele>585.1</ele>
        <time>2014-10-02T15:58:04Z</time>
      </trkpt>
      <trkpt lat="42.6546410" lon="-6.8982820">
        <ele>584.9</ele>
        <time>2014-10-02T15:58:05Z</time>
      </trkpt>
      <trkpt lat="42.6546860" lon="-6.8981630">
        <ele>584.7</ele>
        <time>2014-10-02T15:58:06Z</time>
      </trkpt>
      <trkpt lat="42.6547280" lon="-6.8980520">
        <ele>584.4</ele>
        <time>2014-10-02T15:58:07Z</time>
      </trkpt>
      <trkpt lat="42.6547720" lon="-6.8979410">
        <ele>584.2</ele>
        <time>2014-10-02T15:58:08Z</time>
      </trkpt>
      <trkpt lat="42.6548180" lon="-6.8978230">
        <ele>583.9</ele>
        <time>2014-10-02T15:58:09Z</time>
      </trkpt>
      <trkpt lat="42.6548610" lon="-6.8977090">
        <ele>583.6</ele>
        <time>2014-10-02T15:58:10Z</time>
      </trkpt>
      <trkpt lat="42.6549030" lon="-6.8975970">
        <ele>583.3</ele>
        <time>2014-10-02T15:58:11Z</time>
      </trkpt>
      <trkpt lat="42.6549450" lon="-6.8974830">
        <ele>583.0</ele>
        <time>2014-10-02T15:58:12Z</time>
      </trkpt>
      <trkpt lat="42.6549860" lon="-6.8973740">
        <ele>582.7</ele>
        <time>2014-10-02T15:58:13Z</time>
      </trkpt>
      <trkpt lat="42.6550290" lon="-6.8972560">
        <ele>582.5</ele>
        <time>2014-10-02T15:58:14Z</time>
      </trkpt>
      <trkpt lat="42.6550670" lon="-6.8971500">
        <ele>582.4</ele>
        <time>2014-10-02T15:58:15Z</time>
      </trkpt>
      <trkpt lat="42.6551050" lon="-6.8970440">
        <ele>582.2</ele>
        <time>2014-10-02T15:58:16Z</time>
      </trkpt>
      <trkpt lat="42.6551420" lon="-6.8969390">
        <ele>582.1</ele>
        <time>2014-10-02T15:58:17Z</time>
      </trkpt>
      <trkpt lat="42.6551760" lon="-6.8968370">
        <ele>582.0</ele>
        <time>2014-10-02T15:58:18Z</time>
      </trkpt>
      <trkpt lat="42.6552090" lon="-6.8967310">
        <ele>581.9</ele>
        <time>2014-10-02T15:58:19Z</time>
      </trkpt>
      <trkpt lat="42.6552440" lon="-6.8966260">
        <ele>581.9</ele>
        <time>2014-10-02T15:58:20Z</time>
      </trkpt>
      <trkpt lat="42.6552730" lon="-6.8965240">
        <ele>581.9</ele>
        <time>2014-10-02T15:58:21Z</time>
      </trkpt>
      <trkpt lat="42.6553010" lon="-6.8964220">
        <ele>581.9</ele>
        <time>2014-10-02T15:58:22Z</time>
      </trkpt>
      <trkpt lat="42.6553270" lon="-6.8963130">
        <ele>581.8</ele>
        <time>2014-10-02T15:58:23Z</time>
      </trkpt>
      <trkpt lat="42.6553520" lon="-6.8962080">
        <ele>581.8</ele>
        <time>2014-10-02T15:58:24Z</time>
      </trkpt>
      <trkpt lat="42.6553780" lon="-6.8961000">
        <ele>581.8</ele>
        <time>2014-10-02T15:58:25Z</time>
      </trkpt>
      <trkpt lat="42.6554030" lon="-6.8959820">
        <ele>581.8</ele>
        <time>2014-10-02T15:58:26Z</time>
      </trkpt>
      <trkpt lat="42.6554240" lon="-6.8958630">
        <ele>581.8</ele>
        <time>2014-10-02T15:58:27Z</time>
      </trkpt>
      <trkpt lat="42.6554410" lon="-6.8957490">
        <ele>581.8</ele>
        <time>2014-10-02T15:58:28Z</time>
      </trkpt>
      <trkpt lat="42.6554570" lon="-6.8956390">
        <ele>581.3</ele>
        <time>2014-10-02T15:58:29Z</time>
      </trkpt>
      <trkpt lat="42.6554700" lon="-6.8955310">
        <ele>580.5</ele>
        <time>2014-10-02T15:58:30Z</time>
      </trkpt>
      <trkpt lat="42.6554840" lon="-6.8954110">
        <ele>580.1</ele>
        <time>2014-10-02T15:58:31Z</time>
      </trkpt>
      <trkpt lat="42.6555000" lon="-6.8952920">
        <ele>579.7</ele>
        <time>2014-10-02T15:58:32Z</time>
      </trkpt>
      <trkpt lat="42.6555120" lon="-6.8951750">
        <ele>579.4</ele>
        <time>2014-10-02T15:58:33Z</time>
      </trkpt>
      <trkpt lat="42.6555220" lon="-6.8950600">
        <ele>579.1</ele>
        <time>2014-10-02T15:58:34Z</time>
      </trkpt>
      <trkpt lat="42.6555220" lon="-6.8949490">
        <ele>578.9</ele>
        <time>2014-10-02T15:58:35Z</time>
      </trkpt>
      <trkpt lat="42.6555220" lon="-6.8948400">
        <ele>578.6</ele>
        <time>2014-10-02T15:58:36Z</time>
      </trkpt>
      <trkpt lat="42.6555190" lon="-6.8947310">
        <ele>578.3</ele>
        <time>2014-10-02T15:58:37Z</time>
      </trkpt>
      <trkpt lat="42.6555170" lon="-6.8946220">
        <ele>577.9</ele>
        <time>2014-10-02T15:58:38Z</time>
      </trkpt>
      <trkpt lat="42.6555200" lon="-6.8945160">
        <ele>577.6</ele>
        <time>2014-10-02T15:58:39Z</time>
      </trkpt>
      <trkpt lat="42.6555220" lon="-6.8944130">
        <ele>577.3</ele>
        <time>2014-10-02T15:58:40Z</time>
      </trkpt>
      <trkpt lat="42.6555200" lon="-6.8942990">
        <ele>577.0</ele>
        <time>2014-10-02T15:58:41Z</time>
      </trkpt>
      <trkpt lat="42.6555140" lon="-6.8941880">
        <ele>576.7</ele>
        <time>2014-10-02T15:58:42Z</time>
      </trkpt>
      <trkpt lat="42.6555020" lon="-6.8940810">
        <ele>576.6</ele>
        <time>2014-10-02T15:58:43Z</time>
      </trkpt>
      <trkpt lat="42.6554740" lon="-6.8939540">
        <ele>576.4</ele>
        <time>2014-10-02T15:58:44Z</time>
      </trkpt>
      <trkpt lat="42.6554510" lon="-6.8938310">
        <ele>576.2</ele>
        <time>2014-10-02T15:58:45Z</time>
      </trkpt>
      <trkpt lat="42.6554260" lon="-6.8937140">
        <ele>576.0</ele>
        <time>2014-10-02T15:58:46Z</time>
      </trkpt>
      <trkpt lat="42.6553980" lon="-6.8935980">
        <ele>575.8</ele>
        <time>2014-10-02T15:58:47Z</time>
      </trkpt>
      <trkpt lat="42.6553670" lon="-6.8934890">
        <ele>575.7</ele>
        <time>2014-10-02T15:58:48Z</time>
      </trkpt>
      <trkpt lat="42.6553360" lon="-6.8933730">
        <ele>575.5</ele>
        <time>2014-10-02T15:58:49Z</time>
      </trkpt>
      <trkpt lat="42.6553070" lon="-6.8932620">
        <ele>575.2</ele>
        <time>2014-10-02T15:58:50Z</time>
      </trkpt>
      <trkpt lat="42.6552790" lon="-6.8931480">
        <ele>574.9</ele>
        <time>2014-10-02T15:58:51Z</time>
      </trkpt>
      <trkpt lat="42.6552500" lon="-6.8930330">
        <ele>574.6</ele>
        <time>2014-10-02T15:58:52Z</time>
      </trkpt>
      <trkpt lat="42.6552230" lon="-6.8929230">
        <ele>574.3</ele>
        <time>2014-10-02T15:58:53Z</time>
      </trkpt>
      <trkpt lat="42.6551900" lon="-6.8928110">
        <ele>574.1</ele>
        <time>2014-10-02T15:58:54Z</time>
      </trkpt>
      <trkpt lat="42.6551550" lon="-6.8927010">
        <ele>573.9</ele>
        <time>2014-10-02T15:58:55Z</time>
      </trkpt>
      <trkpt lat="42.6551160" lon="-6.8925970">
        <ele>573.8</ele>
        <time>2014-10-02T15:58:56Z</time>
      </trkpt>
      <trkpt lat="42.6550740" lon="-6.8924900">
        <ele>573.6</ele>
        <time>2014-10-02T15:58:57Z</time>
      </trkpt>
      <trkpt lat="42.6550300" lon="-6.8923850">
        <ele>573.4</ele>
        <time>2014-10-02T15:58:58Z</time>
      </trkpt>
      <trkpt lat="42.6549860" lon="-6.8922850">
        <ele>573.2</ele>
        <time>2014-10-02T15:58:59Z</time>
      </trkpt>
      <trkpt lat="42.6549390" lon="-6.8921710">
        <ele>573.1</ele>
        <time>2014-10-02T15:59:00Z</time>
      </trkpt>
      <trkpt lat="42.6548890" lon="-6.8920590">
        <ele>572.9</ele>
        <time>2014-10-02T15:59:01Z</time>
      </trkpt>
      <trkpt lat="42.6548390" lon="-6.8919530">
        <ele>572.8</ele>
        <time>2014-10-02T15:59:02Z</time>
      </trkpt>
      <trkpt lat="42.6547870" lon="-6.8918460">
        <ele>572.6</ele>
        <time>2014-10-02T15:59:03Z</time>
      </trkpt>
      <trkpt lat="42.6547380" lon="-6.8917490">
        <ele>572.4</ele>
        <time>2014-10-02T15:59:04Z</time>
      </trkpt>
      <trkpt lat="42.6546870" lon="-6.8916530">
        <ele>572.4</ele>
        <time>2014-10-02T15:59:05Z</time>
      </trkpt>
      <trkpt lat="42.6546360" lon="-6.8915580">
        <ele>572.3</ele>
        <time>2014-10-02T15:59:06Z</time>
      </trkpt>
      <trkpt lat="42.6545790" lon="-6.8914620">
        <ele>572.3</ele>
        <time>2014-10-02T15:59:07Z</time>
      </trkpt>
      <trkpt lat="42.6545210" lon="-6.8913660">
        <ele>572.2</ele>
        <time>2014-10-02T15:59:08Z</time>
      </trkpt>
      <trkpt lat="42.6544640" lon="-6.8912850">
        <ele>572.1</ele>
        <time>2014-10-02T15:59:09Z</time>
      </trkpt>
      <trkpt lat="42.6544070" lon="-6.8911980">
        <ele>572.0</ele>
        <time>2014-10-02T15:59:10Z</time>
      </trkpt>
      <trkpt lat="42.6543430" lon="-6.8911100">
        <ele>571.9</ele>
        <time>2014-10-02T15:59:11Z</time>
      </trkpt>
      <trkpt lat="42.6542810" lon="-6.8910280">
        <ele>571.8</ele>
        <time>2014-10-02T15:59:12Z</time>
      </trkpt>
      <trkpt lat="42.6542230" lon="-6.8909500">
        <ele>571.7</ele>
        <time>2014-10-02T15:59:13Z</time>
      </trkpt>
      <trkpt lat="42.6541570" lon="-6.8908710">
        <ele>571.7</ele>
        <time>2014-10-02T15:59:14Z</time>
      </trkpt>
      <trkpt lat="42.6540900" lon="-6.8907940">
        <ele>571.6</ele>
        <time>2014-10-02T15:59:15Z</time>
      </trkpt>
      <trkpt lat="42.6540230" lon="-6.8907210">
        <ele>571.5</ele>
        <time>2014-10-02T15:59:16Z</time>
      </trkpt>
      <trkpt lat="42.6539550" lon="-6.8906500">
        <ele>571.3</ele>
        <time>2014-10-02T15:59:17Z</time>
      </trkpt>
      <trkpt lat="42.6538900" lon="-6.8905840">
        <ele>571.2</ele>
        <time>2014-10-02T15:59:18Z</time>
      </trkpt>
      <trkpt lat="42.6538240" lon="-6.8905180">
        <ele>571.2</ele>
        <time>2014-10-02T15:59:19Z</time>
      </trkpt>
      <trkpt lat="42.6537580" lon="-6.8904560">
        <ele>571.1</ele>
        <time>2014-10-02T15:59:20Z</time>
      </trkpt>
      <trkpt lat="42.6536920" lon="-6.8903930">
        <ele>571.0</ele>
        <time>2014-10-02T15:59:21Z</time>
      </trkpt>
      <trkpt lat="42.6536250" lon="-6.8903360">
        <ele>571.0</ele>
        <time>2014-10-02T15:59:22Z</time>
      </trkpt>
      <trkpt lat="42.6535560" lon="-6.8902790">
        <ele>570.9</ele>
        <time>2014-10-02T15:59:23Z</time>
      </trkpt>
      <trkpt lat="42.6534880" lon="-6.8902260">
        <ele>570.9</ele>
        <time>2014-10-02T15:59:24Z</time>
      </trkpt>
      <trkpt lat="42.6534130" lon="-6.8901730">
        <ele>570.9</ele>
        <time>2014-10-02T15:59:25Z</time>
      </trkpt>
      <trkpt lat="42.6533400" lon="-6.8901280">
        <ele>570.8</ele>
        <time>2014-10-02T15:59:26Z</time>
      </trkpt>
      <trkpt lat="42.6532700" lon="-6.8900890">
        <ele>570.7</ele>
        <time>2014-10-02T15:59:27Z</time>
      </trkpt>
      <trkpt lat="42.6532000" lon="-6.8900530">
        <ele>570.6</ele>
        <time>2014-10-02T15:59:28Z</time>
      </trkpt>
      <trkpt lat="42.6531290" lon="-6.8900170">
        <ele>570.6</ele>
        <time>2014-10-02T15:59:29Z</time>
      </trkpt>
      <trkpt lat="42.6530580" lon="-6.8899780">
        <ele>570.5</ele>
        <time>2014-10-02T15:59:30Z</time>
      </trkpt>
      <trkpt lat="42.6529870" lon="-6.8899430">
        <ele>570.4</ele>
        <time>2014-10-02T15:59:31Z</time>
      </trkpt>
      <trkpt lat="42.6529120" lon="-6.8899050">
        <ele>570.4</ele>
        <time>2014-10-02T15:59:32Z</time>
      </trkpt>
      <trkpt lat="42.6528420" lon="-6.8898690">
        <ele>570.3</ele>
        <time>2014-10-02T15:59:33Z</time>
      </trkpt>
      <trkpt lat="42.6527710" lon="-6.8898360">
        <ele>570.2</ele>
        <time>2014-10-02T15:59:34Z</time>
      </trkpt>
      <trkpt lat="42.6526940" lon="-6.8898020">
        <ele>570.1</ele>
        <time>2014-10-02T15:59:35Z</time>
      </trkpt>
      <trkpt lat="42.6526150" lon="-6.8897700">
        <ele>570.1</ele>
        <time>2014-10-02T15:59:36Z</time>
      </trkpt>
      <trkpt lat="42.6525330" lon="-6.8897370">
        <ele>569.9</ele>
        <time>2014-10-02T15:59:37Z</time>
      </trkpt>
      <trkpt lat="42.6524520" lon="-6.8897040">
        <ele>569.8</ele>
        <time>2014-10-02T15:59:38Z</time>
      </trkpt>
      <trkpt lat="42.6523710" lon="-6.8896710">
        <ele>569.7</ele>
        <time>2014-10-02T15:59:39Z</time>
      </trkpt>
      <trkpt lat="42.6522950" lon="-6.8896380">
        <ele>569.6</ele>
        <time>2014-10-02T15:59:40Z</time>
      </trkpt>
      <trkpt lat="42.6522140" lon="-6.8896060">
        <ele>569.5</ele>
        <time>2014-10-02T15:59:41Z</time>
      </trkpt>
      <trkpt lat="42.6521360" lon="-6.8895750">
        <ele>569.4</ele>
        <time>2014-10-02T15:59:42Z</time>
      </trkpt>
      <trkpt lat="42.6520610" lon="-6.8895450">
        <ele>569.4</ele>
        <time>2014-10-02T15:59:43Z</time>
      </trkpt>
      <trkpt lat="42.6519820" lon="-6.8895130">
        <ele>569.3</ele>
        <time>2014-10-02T15:59:44Z</time>
      </trkpt>
      <trkpt lat="42.6519080" lon="-6.8894830">
        <ele>569.2</ele>
        <time>2014-10-02T15:59:45Z</time>
      </trkpt>
      <trkpt lat="42.6518300" lon="-6.8894510">
        <ele>569.1</ele>
        <time>2014-10-02T15:59:46Z</time>
      </trkpt>
      <trkpt lat="42.6517550" lon="-6.8894190">
        <ele>569.0</ele>
        <time>2014-10-02T15:59:47Z</time>
      </trkpt>
      <trkpt lat="42.6516810" lon="-6.8893860">
        <ele>568.9</ele>
        <time>2014-10-02T15:59:48Z</time>
      </trkpt>
      <trkpt lat="42.6516030" lon="-6.8893540">
        <ele>568.9</ele>
        <time>2014-10-02T15:59:49Z</time>
      </trkpt>
      <trkpt lat="42.6515290" lon="-6.8893200">
        <ele>568.8</ele>
        <time>2014-10-02T15:59:50Z</time>
      </trkpt>
      <trkpt lat="42.6514500" lon="-6.8892820">
        <ele>568.7</ele>
        <time>2014-10-02T15:59:51Z</time>
      </trkpt>
      <trkpt lat="42.6513720" lon="-6.8892460">
        <ele>568.7</ele>
        <time>2014-10-02T15:59:52Z</time>
      </trkpt>
      <trkpt lat="42.6512900" lon="-6.8892080">
        <ele>568.6</ele>
        <time>2014-10-02T15:59:53Z</time>
      </trkpt>
      <trkpt lat="42.6512120" lon="-6.8891720">
        <ele>568.4</ele>
        <time>2014-10-02T15:59:54Z</time>
      </trkpt>
      <trkpt lat="42.6511330" lon="-6.8891340">
        <ele>568.3</ele>
        <time>2014-10-02T15:59:55Z</time>
      </trkpt>
      <trkpt lat="42.6510560" lon="-6.8890960">
        <ele>568.2</ele>
        <time>2014-10-02T15:59:56Z</time>
      </trkpt>
      <trkpt lat="42.6509790" lon="-6.8890560">
        <ele>568.1</ele>
        <time>2014-10-02T15:59:57Z</time>
      </trkpt>
      <trkpt lat="42.6509030" lon="-6.8890130">
        <ele>568.0</ele>
        <time>2014-10-02T15:59:58Z</time>
      </trkpt>
      <trkpt lat="42.6508270" lon="-6.8889700">
        <ele>567.9</ele>
        <time>2014-10-02T15:59:59Z</time>
      </trkpt>
      <trkpt lat="42.6507500" lon="-6.8889230">
        <ele>567.8</ele>
        <time>2014-10-02T16:00:00Z</time>
      </trkpt>
      <trkpt lat="42.6506810" lon="-6.8888780">
        <ele>567.7</ele>
        <time>2014-10-02T16:00:01Z</time>
      </trkpt>
      <trkpt lat="42.6506080" lon="-6.8888260">
        <ele>567.6</ele>
        <time>2014-10-02T16:00:02Z</time>
      </trkpt>
      <trkpt lat="42.6505380" lon="-6.8887700">
        <ele>567.6</ele>
        <time>2014-10-02T16:00:03Z</time>
      </trkpt>
      <trkpt lat="42.6504730" lon="-6.8887150">
        <ele>567.5</ele>
        <time>2014-10-02T16:00:04Z</time>
      </trkpt>
      <trkpt lat="42.6504070" lon="-6.8886560">
        <ele>567.4</ele>
        <time>2014-10-02T16:00:05Z</time>
      </trkpt>
      <trkpt lat="42.6503410" lon="-6.8885950">
        <ele>567.3</ele>
        <time>2014-10-02T16:00:06Z</time>
      </trkpt>
      <trkpt lat="42.6502740" lon="-6.8885270">
        <ele>567.1</ele>
        <time>2014-10-02T16:00:07Z</time>
      </trkpt>
      <trkpt lat="42.6502130" lon="-6.8884620">
        <ele>567.0</ele>
        <time>2014-10-02T16:00:08Z</time>
      </trkpt>
      <trkpt lat="42.6501510" lon="-6.8883930">
        <ele>566.9</ele>
        <time>2014-10-02T16:00:09Z</time>
      </trkpt>
      <trkpt lat="42.6500910" lon="-6.8883220">
        <ele>566.9</ele>
        <time>2014-10-02T16:00:10Z</time>
      </trkpt>
      <trkpt lat="42.6500330" lon="-6.8882490">
        <ele>566.9</ele>
        <time>2014-10-02T16:00:11Z</time>
      </trkpt>
      <trkpt lat="42.6499740" lon="-6.8881700">
        <ele>567.0</ele>
        <time>2014-10-02T16:00:12Z</time>
      </trkpt>
      <trkpt lat="42.6499160" lon="-6.8880860">
        <ele>567.0</ele>
        <time>2014-10-02T16:00:13Z</time>
      </trkpt>
      <trkpt lat="42.6498610" lon="-6.8880060">
        <ele>567.0</ele>
        <time>2014-10-02T16:00:14Z</time>
      </trkpt>
      <trkpt lat="42.6498050" lon="-6.8879230">
        <ele>566.9</ele>
        <time>2014-10-02T16:00:15Z</time>
      </trkpt>
      <trkpt lat="42.6497500" lon="-6.8878380">
        <ele>566.9</ele>
        <time>2014-10-02T16:00:16Z</time>
      </trkpt>
      <trkpt lat="42.6496950" lon="-6.8877500">
        <ele>566.8</ele>
        <time>2014-10-02T16:00:17Z</time>
      </trkpt>
      <trkpt lat="42.6496410" lon="-6.8876670">
        <ele>566.7</ele>
        <time>2014-10-02T16:00:18Z</time>
      </trkpt>
      <trkpt lat="42.6495870" lon="-6.8875750">
        <ele>566.6</ele>
        <time>2014-10-02T16:00:19Z</time>
      </trkpt>
      <trkpt lat="42.6495290" lon="-6.8874770">
        <ele>566.5</ele>
        <time>2014-10-02T16:00:20Z</time>
      </trkpt>
      <trkpt lat="42.6494790" lon="-6.8873830">
        <ele>566.5</ele>
        <time>2014-10-02T16:00:21Z</time>
      </trkpt>
      <trkpt lat="42.6494350" lon="-6.8872930">
        <ele>566.4</ele>
        <time>2014-10-02T16:00:22Z</time>
      </trkpt>
      <trkpt lat="42.6493930" lon="-6.8871920">
        <ele>566.3</ele>
        <time>2014-10-02T16:00:23Z</time>
      </trkpt>
      <trkpt lat="42.6493540" lon="-6.8870970">
        <ele>566.2</ele>
        <time>2014-10-02T16:00:24Z</time>
      </trkpt>
      <trkpt lat="42.6493170" lon="-6.8869960">
        <ele>566.1</ele>
        <time>2014-10-02T16:00:25Z</time>
      </trkpt>
      <trkpt lat="42.6492840" lon="-6.8868970">
        <ele>566.0</ele>
        <time>2014-10-02T16:00:26Z</time>
      </trkpt>
      <trkpt lat="42.6492480" lon="-6.8867920">
        <ele>565.9</ele>
        <time>2014-10-02T16:00:27Z</time>
      </trkpt>
      <trkpt lat="42.6492130" lon="-6.8866850">
        <ele>565.8</ele>
        <time>2014-10-02T16:00:28Z</time>
      </trkpt>
      <trkpt lat="42.6491790" lon="-6.8865780">
        <ele>565.7</ele>
        <time>2014-10-02T16:00:29Z</time>
      </trkpt>
      <trkpt lat="42.6491470" lon="-6.8864690">
        <ele>565.7</ele>
        <time>2014-10-02T16:00:30Z</time>
      </trkpt>
      <trkpt lat="42.6491190" lon="-6.8863650">
        <ele>565.5</ele>
        <time>2014-10-02T16:00:31Z</time>
      </trkpt>
      <trkpt lat="42.6490920" lon="-6.8862500">
        <ele>565.4</ele>
        <time>2014-10-02T16:00:32Z</time>
      </trkpt>
      <trkpt lat="42.6490660" lon="-6.8861300">
        <ele>565.3</ele>
        <time>2014-10-02T16:00:33Z</time>
      </trkpt>
      <trkpt lat="42.6490410" lon="-6.8860060">
        <ele>565.1</ele>
        <time>2014-10-02T16:00:34Z</time>
      </trkpt>
      <trkpt lat="42.6490170" lon="-6.8858870">
        <ele>565.0</ele>
        <time>2014-10-02T16:00:35Z</time>
      </trkpt>
      <trkpt lat="42.6489970" lon="-6.8857700">
        <ele>564.9</ele>
        <time>2014-10-02T16:00:36Z</time>
      </trkpt>
      <trkpt lat="42.6489760" lon="-6.8856440">
        <ele>564.8</ele>
        <time>2014-10-02T16:00:37Z</time>
      </trkpt>
      <trkpt lat="42.6489590" lon="-6.8855170">
        <ele>564.6</ele>
        <time>2014-10-02T16:00:38Z</time>
      </trkpt>
      <trkpt lat="42.6489420" lon="-6.8853830">
        <ele>564.5</ele>
        <time>2014-10-02T16:00:39Z</time>
      </trkpt>
      <trkpt lat="42.6489300" lon="-6.8852480">
        <ele>564.4</ele>
        <time>2014-10-02T16:00:40Z</time>
      </trkpt>
      <trkpt lat="42.6489190" lon="-6.8851210">
        <ele>564.2</ele>
        <time>2014-10-02T16:00:41Z</time>
      </trkpt>
      <trkpt lat="42.6489090" lon="-6.8849890">
        <ele>564.1</ele>
        <time>2014-10-02T16:00:42Z</time>
      </trkpt>
      <trkpt lat="42.6489000" lon="-6.8848580">
        <ele>564.0</ele>
        <time>2014-10-02T16:00:43Z</time>
      </trkpt>
      <trkpt lat="42.6488920" lon="-6.8847320">
        <ele>563.8</ele>
        <time>2014-10-02T16:00:44Z</time>
      </trkpt>
      <trkpt lat="42.6488840" lon="-6.8846170">
        <ele>563.7</ele>
        <time>2014-10-02T16:00:45Z</time>
      </trkpt>
      <trkpt lat="42.6488760" lon="-6.8845080">
        <ele>563.6</ele>
        <time>2014-10-02T16:00:46Z</time>
      </trkpt>
      <trkpt lat="42.6488700" lon="-6.8843870">
        <ele>563.5</ele>
        <time>2014-10-02T16:00:47Z</time>
      </trkpt>
      <trkpt lat="42.6488630" lon="-6.8842660">
        <ele>563.4</ele>
        <time>2014-10-02T16:00:48Z</time>
      </trkpt>
      <trkpt lat="42.6488560" lon="-6.8841500">
        <ele>563.3</ele>
        <time>2014-10-02T16:00:49Z</time>
      </trkpt>
      <trkpt lat="42.6488460" lon="-6.8840170">
        <ele>563.1</ele>
        <time>2014-10-02T16:00:50Z</time>
      </trkpt>
      <trkpt lat="42.6488360" lon="-6.8838820">
        <ele>562.9</ele>
        <time>2014-10-02T16:00:51Z</time>
      </trkpt>
      <trkpt lat="42.6488290" lon="-6.8837490">
        <ele>562.7</ele>
        <time>2014-10-02T16:00:52Z</time>
      </trkpt>
      <trkpt lat="42.6488220" lon="-6.8836140">
        <ele>562.6</ele>
        <time>2014-10-02T16:00:53Z</time>
      </trkpt>
      <trkpt lat="42.6488130" lon="-6.8834800">
        <ele>562.4</ele>
        <time>2014-10-02T16:00:54Z</time>
      </trkpt>
      <trkpt lat="42.6488060" lon="-6.8833580">
        <ele>562.3</ele>
        <time>2014-10-02T16:00:55Z</time>
      </trkpt>
      <trkpt lat="42.6487950" lon="-6.8832350">
        <ele>562.2</ele>
        <time>2014-10-02T16:00:56Z</time>
      </trkpt>
      <trkpt lat="42.6487850" lon="-6.8831120">
        <ele>562.1</ele>
        <time>2014-10-02T16:00:57Z</time>
      </trkpt>
      <trkpt lat="42.6487750" lon="-6.8829840">
        <ele>561.9</ele>
        <time>2014-10-02T16:00:58Z</time>
      </trkpt>
      <trkpt lat="42.6487640" lon="-6.8828560">
        <ele>561.8</ele>
        <time>2014-10-02T16:00:59Z</time>
      </trkpt>
      <trkpt lat="42.6487550" lon="-6.8827340">
        <ele>561.6</ele>
        <time>2014-10-02T16:01:00Z</time>
      </trkpt>
      <trkpt lat="42.6487460" lon="-6.8826160">
        <ele>561.5</ele>
        <time>2014-10-02T16:01:01Z</time>
      </trkpt>
      <trkpt lat="42.6487350" lon="-6.8825000">
        <ele>561.3</ele>
        <time>2014-10-02T16:01:02Z</time>
      </trkpt>
      <trkpt lat="42.6487230" lon="-6.8823810">
        <ele>561.2</ele>
        <time>2014-10-02T16:01:03Z</time>
      </trkpt>
      <trkpt lat="42.6487080" lon="-6.8822640">
        <ele>561.1</ele>
        <time>2014-10-02T16:01:04Z</time>
      </trkpt>
      <trkpt lat="42.6486950" lon="-6.8821490">
        <ele>561.0</ele>
        <time>2014-10-02T16:01:05Z</time>
      </trkpt>
      <trkpt lat="42.6486810" lon="-6.8820380">
        <ele>560.9</ele>
        <time>2014-10-02T16:01:06Z</time>
      </trkpt>
      <trkpt lat="42.6486660" lon="-6.8819310">
        <ele>560.9</ele>
        <time>2014-10-02T16:01:07Z</time>
      </trkpt>
      <trkpt lat="42.6486510" lon="-6.8818210">
        <ele>560.8</ele>
        <time>2014-10-02T16:01:08Z</time>
      </trkpt>
      <trkpt lat="42.6486340" lon="-6.8817080">
        <ele>560.8</ele>
        <time>2014-10-02T16:01:09Z</time>
      </trkpt>
      <trkpt lat="42.6486160" lon="-6.8815930">
        <ele>560.7</ele>
        <time>2014-10-02T16:01:10Z</time>
      </trkpt>
      <trkpt lat="42.6485990" lon="-6.8814720">
        <ele>560.5</ele>
        <time>2014-10-02T16:01:11Z</time>
      </trkpt>
      <trkpt lat="42.6485800" lon="-6.8813540">
        <ele>560.4</ele>
        <time>2014-10-02T16:01:12Z</time>
      </trkpt>
      <trkpt lat="42.6485590" lon="-6.8812350">
        <ele>560.2</ele>
        <time>2014-10-02T16:01:13Z</time>
      </trkpt>
      <trkpt lat="42.6485360" lon="-6.8811200">
        <ele>560.1</ele>
        <time>2014-10-02T16:01:14Z</time>
      </trkpt>
      <trkpt lat="42.6485130" lon="-6.8810010">
        <ele>560.0</ele>
        <time>2014-10-02T16:01:15Z</time>
      </trkpt>
      <trkpt lat="42.6484890" lon="-6.8808870">
        <ele>559.8</ele>
        <time>2014-10-02T16:01:16Z</time>
      </trkpt>
      <trkpt lat="42.6484660" lon="-6.8807770">
        <ele>559.6</ele>
        <time>2014-10-02T16:01:17Z</time>
      </trkpt>
      <trkpt lat="42.6484420" lon="-6.8806670">
        <ele>559.5</ele>
        <time>2014-10-02T16:01:18Z</time>
      </trkpt>
      <trkpt lat="42.6484180" lon="-6.8805550">
        <ele>559.3</ele>
        <time>2014-10-02T16:01:19Z</time>
      </trkpt>
      <trkpt lat="42.6483930" lon="-6.8804430">
        <ele>559.2</ele>
        <time>2014-10-02T16:01:20Z</time>
      </trkpt>
      <trkpt lat="42.6483660" lon="-6.8803290">
        <ele>559.2</ele>
        <time>2014-10-02T16:01:21Z</time>
      </trkpt>
      <trkpt lat="42.6483380" lon="-6.8802120">
        <ele>559.1</ele>
        <time>2014-10-02T16:01:22Z</time>
      </trkpt>
      <trkpt lat="42.6483100" lon="-6.8801030">
        <ele>559.1</ele>
        <time>2014-10-02T16:01:23Z</time>
      </trkpt>
      <trkpt lat="42.6482830" lon="-6.8800000">
        <ele>559.1</ele>
        <time>2014-10-02T16:01:24Z</time>
      </trkpt>
      <trkpt lat="42.6482600" lon="-6.8799040">
        <ele>559.0</ele>
        <time>2014-10-02T16:01:25Z</time>
      </trkpt>
      <trkpt lat="42.6482330" lon="-6.8798040">
        <ele>558.9</ele>
        <time>2014-10-02T16:01:26Z</time>
      </trkpt>
      <trkpt lat="42.6482060" lon="-6.8797060">
        <ele>558.8</ele>
        <time>2014-10-02T16:01:27Z</time>
      </trkpt>
      <trkpt lat="42.6481800" lon="-6.8796120">
        <ele>558.8</ele>
        <time>2014-10-02T16:01:28Z</time>
      </trkpt>
      <trkpt lat="42.6481530" lon="-6.8795160">
        <ele>558.7</ele>
        <time>2014-10-02T16:01:29Z</time>
      </trkpt>
      <trkpt lat="42.6481250" lon="-6.8794210">
        <ele>558.7</ele>
        <time>2014-10-02T16:01:30Z</time>
      </trkpt>
      <trkpt lat="42.6480990" lon="-6.8793260">
        <ele>558.6</ele>
        <time>2014-10-02T16:01:31Z</time>
      </trkpt>
      <trkpt lat="42.6480690" lon="-6.8792310">
        <ele>558.5</ele>
        <time>2014-10-02T16:01:32Z</time>
      </trkpt>
      <trkpt lat="42.6480390" lon="-6.8791340">
        <ele>558.4</ele>
        <time>2014-10-02T16:01:33Z</time>
      </trkpt>
      <trkpt lat="42.6480070" lon="-6.8790320">
        <ele>558.4</ele>
        <time>2014-10-02T16:01:34Z</time>
      </trkpt>
      <trkpt lat="42.6479760" lon="-6.8789350">
        <ele>558.3</ele>
        <time>2014-10-02T16:01:35Z</time>
      </trkpt>
      <trkpt lat="42.6479450" lon="-6.8788400">
        <ele>558.3</ele>
        <time>2014-10-02T16:01:36Z</time>
      </trkpt>
      <trkpt lat="42.6479140" lon="-6.8787460">
        <ele>558.3</ele>
        <time>2014-10-02T16:01:37Z</time>
      </trkpt>
      <trkpt lat="42.6478810" lon="-6.8786470">
        <ele>558.2</ele>
        <time>2014-10-02T16:01:38Z</time>
      </trkpt>
      <trkpt lat="42.6478470" lon="-6.8785490">
        <ele>558.2</ele>
        <time>2014-10-02T16:01:39Z</time>
      </trkpt>
      <trkpt lat="42.6478120" lon="-6.8784490">
        <ele>558.2</ele>
        <time>2014-10-02T16:01:40Z</time>
      </trkpt>
      <trkpt lat="42.6477780" lon="-6.8783520">
        <ele>558.1</ele>
        <time>2014-10-02T16:01:41Z</time>
      </trkpt>
      <trkpt lat="42.6477440" lon="-6.8782520">
        <ele>558.1</ele>
        <time>2014-10-02T16:01:42Z</time>
      </trkpt>
      <trkpt lat="42.6477090" lon="-6.8781540">
        <ele>558.0</ele>
        <time>2014-10-02T16:01:43Z</time>
      </trkpt>
      <trkpt lat="42.6476750" lon="-6.8780580">
        <ele>558.0</ele>
        <time>2014-10-02T16:01:44Z</time>
      </trkpt>
      <trkpt lat="42.6476330" lon="-6.8779510">
        <ele>558.0</ele>
        <time>2014-10-02T16:01:45Z</time>
      </trkpt>
      <trkpt lat="42.6475920" lon="-6.8778450">
        <ele>557.9</ele>
        <time>2014-10-02T16:01:46Z</time>
      </trkpt>
      <trkpt lat="42.6475520" lon="-6.8777460">
        <ele>558.0</ele>
        <time>2014-10-02T16:01:47Z</time>
      </trkpt>
      <trkpt lat="42.6475140" lon="-6.8776520">
        <ele>558.0</ele>
        <time>2014-10-02T16:01:48Z</time>
      </trkpt>
      <trkpt lat="42.6474790" lon="-6.8775630">
        <ele>558.0</ele>
        <time>2014-10-02T16:01:49Z</time>
      </trkpt>
      <trkpt lat="42.6474400" lon="-6.8774710">
        <ele>558.1</ele>
        <time>2014-10-02T16:01:50Z</time>
      </trkpt>
      <trkpt lat="42.6473990" lon="-6.8773720">
        <ele>558.1</ele>
        <time>2014-10-02T16:01:51Z</time>
      </trkpt>
      <trkpt lat="42.6473560" lon="-6.8772690">
        <ele>558.0</ele>
        <time>2014-10-02T16:01:52Z</time>
      </trkpt>
      <trkpt lat="42.6473110" lon="-6.8771620">
        <ele>558.1</ele>
        <time>2014-10-02T16:01:53Z</time>
      </trkpt>
      <trkpt lat="42.6472690" lon="-6.8770630">
        <ele>558.1</ele>
        <time>2014-10-02T16:01:54Z</time>
      </trkpt>
      <trkpt lat="42.6472250" lon="-6.8769610">
        <ele>558.2</ele>
        <time>2014-10-02T16:01:55Z</time>
      </trkpt>
      <trkpt lat="42.6471820" lon="-6.8768640">
        <ele>558.2</ele>
        <time>2014-10-02T16:01:56Z</time>
      </trkpt>
      <trkpt lat="42.6471380" lon="-6.8767750">
        <ele>558.2</ele>
        <time>2014-10-02T16:01:57Z</time>
      </trkpt>
      <trkpt lat="42.6470940" lon="-6.8766870">
        <ele>558.3</ele>
        <time>2014-10-02T16:01:58Z</time>
      </trkpt>
      <trkpt lat="42.6470490" lon="-6.8766010">
        <ele>558.3</ele>
        <time>2014-10-02T16:01:59Z</time>
      </trkpt>
      <trkpt lat="42.6470060" lon="-6.8765130">
        <ele>558.3</ele>
        <time>2014-10-02T16:02:00Z</time>
      </trkpt>
      <trkpt lat="42.6469600" lon="-6.8764230">
        <ele>558.3</ele>
        <time>2014-10-02T16:02:01Z</time>
      </trkpt>
      <trkpt lat="42.6469130" lon="-6.8763320">
        <ele>558.2</ele>
        <time>2014-10-02T16:02:02Z</time>
      </trkpt>
      <trkpt lat="42.6468650" lon="-6.8762410">
        <ele>558.2</ele>
        <time>2014-10-02T16:02:03Z</time>
      </trkpt>
      <trkpt lat="42.6467830" lon="-6.8761060">
        <ele>558.1</ele>
        <time>2014-10-02T16:02:04Z</time>
      </trkpt>
      <trkpt lat="42.6467080" lon="-6.8759800">
        <ele>558.1</ele>
        <time>2014-10-02T16:02:05Z</time>
      </trkpt>
      <trkpt lat="42.6466350" lon="-6.8758760">
        <ele>558.0</ele>
        <time>2014-10-02T16:02:06Z</time>
      </trkpt>
      <trkpt lat="42.6465470" lon="-6.8757960">
        <ele>558.0</ele>
        <time>2014-10-02T16:02:07Z</time>
      </trkpt>
      <trkpt lat="42.6464630" lon="-6.8757290">
        <ele>558.0</ele>
        <time>2014-10-02T16:02:08Z</time>
      </trkpt>
      <trkpt lat="42.6463890" lon="-6.8756830">
        <ele>558.3</ele>
        <time>2014-10-02T16:02:09Z</time>
      </trkpt>
      <trkpt lat="42.6463130" lon="-6.8756420">
        <ele>559.2</ele>
        <time>2014-10-02T16:02:10Z</time>
      </trkpt>
      <trkpt lat="42.6462390" lon="-6.8755970">
        <ele>558.8</ele>
        <time>2014-10-02T16:02:11Z</time>
      </trkpt>
      <trkpt lat="42.6461860" lon="-6.8755290">
        <ele>559.0</ele>
        <time>2014-10-02T16:02:12Z</time>
      </trkpt>
      <trkpt lat="42.6461550" lon="-6.8754510">
        <ele>558.4</ele>
        <time>2014-10-02T16:02:13Z</time>
      </trkpt>
      <trkpt lat="42.6461270" lon="-6.8753650">
        <ele>557.8</ele>
        <time>2014-10-02T16:02:14Z</time>
      </trkpt>
      <trkpt lat="42.6461060" lon="-6.8752800">
        <ele>559.2</ele>
        <time>2014-10-02T16:02:15Z</time>
      </trkpt>
      <trkpt lat="42.6460850" lon="-6.8751860">
        <ele>559.1</ele>
        <time>2014-10-02T16:02:16Z</time>
      </trkpt>
      <trkpt lat="42.6460500" lon="-6.8751020">
        <ele>559.1</ele>
        <time>2014-10-02T16:02:17Z</time>
      </trkpt>
      <trkpt lat="42.6460130" lon="-6.8750210">
        <ele>559.1</ele>
        <time>2014-10-02T16:02:18Z</time>
      </trkpt>
      <trkpt lat="42.6459710" lon="-6.8749450">
        <ele>559.1</ele>
        <time>2014-10-02T16:02:19Z</time>
      </trkpt>
      <trkpt lat="42.6459250" lon="-6.8748670">
        <ele>559.2</ele>
        <time>2014-10-02T16:02:20Z</time>
      </trkpt>
      <trkpt lat="42.6458710" lon="-6.8747870">
        <ele>559.2</ele>
        <time>2014-10-02T16:02:21Z</time>
      </trkpt>
      <trkpt lat="42.6458140" lon="-6.8747060">
        <ele>559.2</ele>
        <time>2014-10-02T16:02:22Z</time>
      </trkpt>
      <trkpt lat="42.6457560" lon="-6.8746260">
        <ele>559.2</ele>
        <time>2014-10-02T16:02:23Z</time>
      </trkpt>
      <trkpt lat="42.6456990" lon="-6.8745490">
        <ele>559.2</ele>
        <time>2014-10-02T16:02:24Z</time>
      </trkpt>
      <trkpt lat="42.6456410" lon="-6.8744700">
        <ele>559.2</ele>
        <time>2014-10-02T16:02:25Z</time>
      </trkpt>
      <trkpt lat="42.6455860" lon="-6.8743950">
        <ele>559.2</ele>
        <time>2014-10-02T16:02:26Z</time>
      </trkpt>
      <trkpt lat="42.6455370" lon="-6.8743270">
        <ele>559.2</ele>
        <time>2014-10-02T16:02:27Z</time>
      </trkpt>
      <trkpt lat="42.6454900" lon="-6.8742630">
        <ele>559.0</ele>
        <time>2014-10-02T16:02:28Z</time>
      </trkpt>
      <trkpt lat="42.6454360" lon="-6.8741950">
        <ele>558.9</ele>
        <time>2014-10-02T16:02:29Z</time>
      </trkpt>
      <trkpt lat="42.6453790" lon="-6.8741240">
        <ele>558.8</ele>
        <time>2014-10-02T16:02:30Z</time>
      </trkpt>
      <trkpt lat="42.6453200" lon="-6.8740530">
        <ele>558.8</ele>
        <time>2014-10-02T16:02:31Z</time>
      </trkpt>
      <trkpt lat="42.6452640" lon="-6.8739840">
        <ele>558.8</ele>
        <time>2014-10-02T16:02:32Z</time>
      </trkpt>
      <trkpt lat="42.6452090" lon="-6.8739150">
        <ele>558.8</ele>
        <time>2014-10-02T16:02:33Z</time>
      </trkpt>
      <trkpt lat="42.6451530" lon="-6.8738480">
        <ele>558.8</ele>
        <time>2014-10-02T16:02:34Z</time>
      </trkpt>
      <trkpt lat="42.6450980" lon="-6.8737830">
        <ele>558.9</ele>
        <time>2014-10-02T16:02:35Z</time>
      </trkpt>
      <trkpt lat="42.6450510" lon="-6.8737260">
        <ele>558.9</ele>
        <time>2014-10-02T16:02:36Z</time>
      </trkpt>
      <trkpt lat="42.6450000" lon="-6.8736640">
        <ele>558.9</ele>
        <time>2014-10-02T16:02:37Z</time>
      </trkpt>
      <trkpt lat="42.6449440" lon="-6.8736010">
        <ele>558.9</ele>
        <time>2014-10-02T16:02:38Z</time>
      </trkpt>
      <trkpt lat="42.6448850" lon="-6.8735330">
        <ele>558.9</ele>
        <time>2014-10-02T16:02:39Z</time>
      </trkpt>
      <trkpt lat="42.6448280" lon="-6.8734730">
        <ele>558.8</ele>
        <time>2014-10-02T16:02:40Z</time>
      </trkpt>
      <trkpt lat="42.6447680" lon="-6.8734090">
        <ele>558.8</ele>
        <time>2014-10-02T16:02:41Z</time>
      </trkpt>
      <trkpt lat="42.6447040" lon="-6.8733450">
        <ele>558.8</ele>
        <time>2014-10-02T16:02:42Z</time>
      </trkpt>
      <trkpt lat="42.6446380" lon="-6.8732780">
        <ele>558.8</ele>
        <time>2014-10-02T16:02:43Z</time>
      </trkpt>
      <trkpt lat="42.6445800" lon="-6.8732210">
        <ele>558.8</ele>
        <time>2014-10-02T16:02:44Z</time>
      </trkpt>
      <trkpt lat="42.6445250" lon="-6.8731660">
        <ele>558.7</ele>
        <time>2014-10-02T16:02:45Z</time>
      </trkpt>
      <trkpt lat="42.6444700" lon="-6.8731110">
        <ele>558.7</ele>
        <time>2014-10-02T16:02:46Z</time>
      </trkpt>
      <trkpt lat="42.6444120" lon="-6.8730530">
        <ele>558.7</ele>
        <time>2014-10-02T16:02:47Z</time>
      </trkpt>
      <trkpt lat="42.6443510" lon="-6.8729930">
        <ele>558.7</ele>
        <time>2014-10-02T16:02:48Z</time>
      </trkpt>
      <trkpt lat="42.6442860" lon="-6.8729270">
        <ele>558.7</ele>
        <time>2014-10-02T16:02:49Z</time>
      </trkpt>
      <trkpt lat="42.6442200" lon="-6.8728640">
        <ele>558.7</ele>
        <time>2014-10-02T16:02:50Z</time>
      </trkpt>
      <trkpt lat="42.6441550" lon="-6.8728040">
        <ele>558.6</ele>
        <time>2014-10-02T16:02:51Z</time>
      </trkpt>
      <trkpt lat="42.6440930" lon="-6.8727420">
        <ele>558.6</ele>
        <time>2014-10-02T16:02:52Z</time>
      </trkpt>
      <trkpt lat="42.6440260" lon="-6.8726810">
        <ele>558.5</ele>
        <time>2014-10-02T16:02:53Z</time>
      </trkpt>
      <trkpt lat="42.6439560" lon="-6.8726150">
        <ele>558.4</ele>
        <time>2014-10-02T16:02:54Z</time>
      </trkpt>
      <trkpt lat="42.6438920" lon="-6.8725550">
        <ele>558.4</ele>
        <time>2014-10-02T16:02:55Z</time>
      </trkpt>
      <trkpt lat="42.6438280" lon="-6.8724950">
        <ele>558.3</ele>
        <time>2014-10-02T16:02:56Z</time>
      </trkpt>
      <trkpt lat="42.6437640" lon="-6.8724330">
        <ele>558.2</ele>
        <time>2014-10-02T16:02:57Z</time>
      </trkpt>
      <trkpt lat="42.6436930" lon="-6.8723640">
        <ele>558.2</ele>
        <time>2014-10-02T16:02:58Z</time>
      </trkpt>
      <trkpt lat="42.6436260" lon="-6.8722980">
        <ele>558.1</ele>
        <time>2014-10-02T16:02:59Z</time>
      </trkpt>
      <trkpt lat="42.6435610" lon="-6.8722370">
        <ele>558.0</ele>
        <time>2014-10-02T16:03:00Z</time>
      </trkpt>
      <trkpt lat="42.6434960" lon="-6.8721740">
        <ele>557.9</ele>
        <time>2014-10-02T16:03:01Z</time>
      </trkpt>
      <trkpt lat="42.6434320" lon="-6.8721120">
        <ele>557.7</ele>
        <time>2014-10-02T16:03:02Z</time>
      </trkpt>
      <trkpt lat="42.6433580" lon="-6.8720420">
        <ele>557.6</ele>
        <time>2014-10-02T16:03:03Z</time>
      </trkpt>
      <trkpt lat="42.6432820" lon="-6.8719720">
        <ele>557.5</ele>
        <time>2014-10-02T16:03:04Z</time>
      </trkpt>
      <trkpt lat="42.6432040" lon="-6.8719000">
        <ele>557.3</ele>
        <time>2014-10-02T16:03:05Z</time>
      </trkpt>
      <trkpt lat="42.6431350" lon="-6.8718350">
        <ele>557.2</ele>
        <time>2014-10-02T16:03:06Z</time>
      </trkpt>
      <trkpt lat="42.6430630" lon="-6.8717670">
        <ele>557.1</ele>
        <time>2014-10-02T16:03:07Z</time>
      </trkpt>
      <trkpt lat="42.6429980" lon="-6.8717030">
        <ele>557.0</ele>
        <time>2014-10-02T16:03:08Z</time>
      </trkpt>
      <trkpt lat="42.6429300" lon="-6.8716360">
        <ele>556.9</ele>
        <time>2014-10-02T16:03:09Z</time>
      </trkpt>
      <trkpt lat="42.6428590" lon="-6.8715680">
        <ele>556.8</ele>
        <time>2014-10-02T16:03:10Z</time>
      </trkpt>
      <trkpt lat="42.6427870" lon="-6.8714990">
        <ele>556.6</ele>
        <time>2014-10-02T16:03:11Z</time>
      </trkpt>
      <trkpt lat="42.6427120" lon="-6.8714270">
        <ele>556.5</ele>
        <time>2014-10-02T16:03:12Z</time>
      </trkpt>
      <trkpt lat="42.6426400" lon="-6.8713560">
        <ele>556.4</ele>
        <time>2014-10-02T16:03:13Z</time>
      </trkpt>
      <trkpt lat="42.6425750" lon="-6.8712870">
        <ele>556.2</ele>
        <time>2014-10-02T16:03:14Z</time>
      </trkpt>
      <trkpt lat="42.6425050" lon="-6.8712120">
        <ele>556.1</ele>
        <time>2014-10-02T16:03:15Z</time>
      </trkpt>
      <trkpt lat="42.6424340" lon="-6.8711370">
        <ele>555.9</ele>
        <time>2014-10-02T16:03:16Z</time>
      </trkpt>
      <trkpt lat="42.6423610" lon="-6.8710580">
        <ele>555.7</ele>
        <time>2014-10-02T16:03:17Z</time>
      </trkpt>
      <trkpt lat="42.6422890" lon="-6.8709800">
        <ele>555.5</ele>
        <time>2014-10-02T16:03:18Z</time>
      </trkpt>
      <trkpt lat="42.6422180" lon="-6.8708970">
        <ele>555.3</ele>
        <time>2014-10-02T16:03:19Z</time>
      </trkpt>
      <trkpt lat="42.6421500" lon="-6.8708190">
        <ele>555.1</ele>
        <time>2014-10-02T16:03:20Z</time>
      </trkpt>
      <trkpt lat="42.6420810" lon="-6.8707380">
        <ele>554.9</ele>
        <time>2014-10-02T16:03:21Z</time>
      </trkpt>
      <trkpt lat="42.6420140" lon="-6.8706570">
        <ele>554.8</ele>
        <time>2014-10-02T16:03:22Z</time>
      </trkpt>
      <trkpt lat="42.6419510" lon="-6.8705760">
        <ele>554.6</ele>
        <time>2014-10-02T16:03:23Z</time>
      </trkpt>
      <trkpt lat="42.6418890" lon="-6.8704980">
        <ele>554.5</ele>
        <time>2014-10-02T16:03:24Z</time>
      </trkpt>
      <trkpt lat="42.6418260" lon="-6.8704190">
        <ele>554.3</ele>
        <time>2014-10-02T16:03:25Z</time>
      </trkpt>
      <trkpt lat="42.6417480" lon="-6.8703620">
        <ele>554.1</ele>
        <time>2014-10-02T16:03:26Z</time>
      </trkpt>
      <trkpt lat="42.6416930" lon="-6.8702820">
        <ele>554.0</ele>
        <time>2014-10-02T16:03:27Z</time>
      </trkpt>
      <trkpt lat="42.6416360" lon="-6.8701990">
        <ele>553.8</ele>
        <time>2014-10-02T16:03:28Z</time>
      </trkpt>
      <trkpt lat="42.6415760" lon="-6.8701090">
        <ele>553.6</ele>
        <time>2014-10-02T16:03:29Z</time>
      </trkpt>
      <trkpt lat="42.6415120" lon="-6.8700140">
        <ele>553.4</ele>
        <time>2014-10-02T16:03:30Z</time>
      </trkpt>
      <trkpt lat="42.6414470" lon="-6.8699180">
        <ele>553.2</ele>
        <time>2014-10-02T16:03:31Z</time>
      </trkpt>
      <trkpt lat="42.6413850" lon="-6.8698240">
        <ele>553.1</ele>
        <time>2014-10-02T16:03:32Z</time>
      </trkpt>
      <trkpt lat="42.6413200" lon="-6.8697260">
        <ele>552.9</ele>
        <time>2014-10-02T16:03:33Z</time>
      </trkpt>
      <trkpt lat="42.6412580" lon="-6.8696290">
        <ele>552.7</ele>
        <time>2014-10-02T16:03:34Z</time>
      </trkpt>
      <trkpt lat="42.6411940" lon="-6.8695320">
        <ele>552.4</ele>
        <time>2014-10-02T16:03:35Z</time>
      </trkpt>
      <trkpt lat="42.6411350" lon="-6.8694300">
        <ele>552.3</ele>
        <time>2014-10-02T16:03:36Z</time>
      </trkpt>
      <trkpt lat="42.6410750" lon="-6.8693300">
        <ele>552.1</ele>
        <time>2014-10-02T16:03:37Z</time>
      </trkpt>
      <trkpt lat="42.6410170" lon="-6.8692350">
        <ele>551.9</ele>
        <time>2014-10-02T16:03:38Z</time>
      </trkpt>
      <trkpt lat="42.6409570" lon="-6.8691400">
        <ele>551.8</ele>
        <time>2014-10-02T16:03:39Z</time>
      </trkpt>
      <trkpt lat="42.6409020" lon="-6.8690470">
        <ele>551.6</ele>
        <time>2014-10-02T16:03:40Z</time>
      </trkpt>
      <trkpt lat="42.6408500" lon="-6.8689550">
        <ele>551.4</ele>
        <time>2014-10-02T16:03:41Z</time>
      </trkpt>
      <trkpt lat="42.6407960" lon="-6.8688560">
        <ele>551.2</ele>
        <time>2014-10-02T16:03:42Z</time>
      </trkpt>
      <trkpt lat="42.6407420" lon="-6.8687560">
        <ele>551.1</ele>
        <time>2014-10-02T16:03:43Z</time>
      </trkpt>
      <trkpt lat="42.6406860" lon="-6.8686520">
        <ele>550.9</ele>
        <time>2014-10-02T16:03:44Z</time>
      </trkpt>
      <trkpt lat="42.6406320" lon="-6.8685530">
        <ele>550.8</ele>
        <time>2014-10-02T16:03:45Z</time>
      </trkpt>
      <trkpt lat="42.6405740" lon="-6.8684500">
        <ele>550.7</ele>
        <time>2014-10-02T16:03:46Z</time>
      </trkpt>
      <trkpt lat="42.6405210" lon="-6.8683490">
        <ele>550.6</ele>
        <time>2014-10-02T16:03:47Z</time>
      </trkpt>
      <trkpt lat="42.6404660" lon="-6.8682460">
        <ele>550.4</ele>
        <time>2014-10-02T16:03:48Z</time>
      </trkpt>
      <trkpt lat="42.6404160" lon="-6.8681420">
        <ele>550.3</ele>
        <time>2014-10-02T16:03:49Z</time>
      </trkpt>
      <trkpt lat="42.6403630" lon="-6.8680390">
        <ele>550.2</ele>
        <time>2014-10-02T16:03:50Z</time>
      </trkpt>
      <trkpt lat="42.6403120" lon="-6.8679320">
        <ele>550.1</ele>
        <time>2014-10-02T16:03:51Z</time>
      </trkpt>
      <trkpt lat="42.6402560" lon="-6.8678130">
        <ele>550.6</ele>
        <time>2014-10-02T16:03:52Z</time>
      </trkpt>
      <trkpt lat="42.6402020" lon="-6.8676960">
        <ele>551.4</ele>
        <time>2014-10-02T16:03:53Z</time>
      </trkpt>
      <trkpt lat="42.6401490" lon="-6.8675830">
        <ele>551.6</ele>
        <time>2014-10-02T16:03:54Z</time>
      </trkpt>
      <trkpt lat="42.6400950" lon="-6.8674700">
        <ele>551.5</ele>
        <time>2014-10-02T16:03:55Z</time>
      </trkpt>
      <trkpt lat="42.6400420" lon="-6.8673600">
        <ele>551.3</ele>
        <time>2014-10-02T16:03:56Z</time>
      </trkpt>
      <trkpt lat="42.6399900" lon="-6.8672550">
        <ele>551.1</ele>
        <time>2014-10-02T16:03:57Z</time>
      </trkpt>
      <trkpt lat="42.6399400" lon="-6.8671620">
        <ele>551.0</ele>
        <time>2014-10-02T16:03:58Z</time>
      </trkpt>
      <trkpt lat="42.6398880" lon="-6.8670730">
        <ele>550.9</ele>
        <time>2014-10-02T16:03:59Z</time>
      </trkpt>
      <trkpt lat="42.6398370" lon="-6.8669920">
        <ele>550.8</ele>
        <time>2014-10-02T16:04:00Z</time>
      </trkpt>
      <trkpt lat="42.6397850" lon="-6.8669060">
        <ele>550.6</ele>
        <time>2014-10-02T16:04:01Z</time>
      </trkpt>
      <trkpt lat="42.6397330" lon="-6.8668120">
        <ele>550.5</ele>
        <time>2014-10-02T16:04:02Z</time>
      </trkpt>
      <trkpt lat="42.6396800" lon="-6.8667210">
        <ele>550.4</ele>
        <time>2014-10-02T16:04:03Z</time>
      </trkpt>
      <trkpt lat="42.6396310" lon="-6.8666300">
        <ele>550.4</ele>
        <time>2014-10-02T16:04:04Z</time>
      </trkpt>
      <trkpt lat="42.6395800" lon="-6.8665360">
        <ele>550.3</ele>
        <time>2014-10-02T16:04:05Z</time>
      </trkpt>
      <trkpt lat="42.6395280" lon="-6.8664270">
        <ele>550.3</ele>
        <time>2014-10-02T16:04:06Z</time>
      </trkpt>
      <trkpt lat="42.6394800" lon="-6.8663130">
        <ele>550.3</ele>
        <time>2014-10-02T16:04:07Z</time>
      </trkpt>
      <trkpt lat="42.6394330" lon="-6.8661970">
        <ele>550.3</ele>
        <time>2014-10-02T16:04:08Z</time>
      </trkpt>
      <trkpt lat="42.6393870" lon="-6.8660800">
        <ele>550.4</ele>
        <time>2014-10-02T16:04:09Z</time>
      </trkpt>
      <trkpt lat="42.6393430" lon="-6.8659650">
        <ele>550.4</ele>
        <time>2014-10-02T16:04:10Z</time>
      </trkpt>
      <trkpt lat="42.6392970" lon="-6.8658530">
        <ele>550.6</ele>
        <time>2014-10-02T16:04:11Z</time>
      </trkpt>
      <trkpt lat="42.6392570" lon="-6.8657520">
        <ele>550.6</ele>
        <time>2014-10-02T16:04:12Z</time>
      </trkpt>
      <trkpt lat="42.6392170" lon="-6.8656500">
        <ele>550.7</ele>
        <time>2014-10-02T16:04:13Z</time>
      </trkpt>
      <trkpt lat="42.6391740" lon="-6.8655510">
        <ele>550.9</ele>
        <time>2014-10-02T16:04:14Z</time>
      </trkpt>
      <trkpt lat="42.6391330" lon="-6.8654580">
        <ele>551.0</ele>
        <time>2014-10-02T16:04:15Z</time>
      </trkpt>
      <trkpt lat="42.6390920" lon="-6.8653660">
        <ele>551.1</ele>
        <time>2014-10-02T16:04:16Z</time>
      </trkpt>
      <trkpt lat="42.6390490" lon="-6.8652760">
        <ele>551.3</ele>
        <time>2014-10-02T16:04:17Z</time>
      </trkpt>
      <trkpt lat="42.6390020" lon="-6.8651790">
        <ele>551.5</ele>
        <time>2014-10-02T16:04:18Z</time>
      </trkpt>
      <trkpt lat="42.6389590" lon="-6.8650870">
        <ele>551.7</ele>
        <time>2014-10-02T16:04:19Z</time>
      </trkpt>
      <trkpt lat="42.6389190" lon="-6.8650020">
        <ele>551.9</ele>
        <time>2014-10-02T16:04:20Z</time>
      </trkpt>
      <trkpt lat="42.6388830" lon="-6.8649260">
        <ele>552.0</ele>
        <time>2014-10-02T16:04:21Z</time>
      </trkpt>
      <trkpt lat="42.6388450" lon="-6.8648460">
        <ele>552.2</ele>
        <time>2014-10-02T16:04:22Z</time>
      </trkpt>
      <trkpt lat="42.6388060" lon="-6.8647650">
        <ele>552.4</ele>
        <time>2014-10-02T16:04:23Z</time>
      </trkpt>
      <trkpt lat="42.6387620" lon="-6.8646790">
        <ele>552.7</ele>
        <time>2014-10-02T16:04:24Z</time>
      </trkpt>
      <trkpt lat="42.6387210" lon="-6.8645990">
        <ele>552.9</ele>
        <time>2014-10-02T16:04:25Z</time>
      </trkpt>
      <trkpt lat="42.6386780" lon="-6.8645160">
        <ele>553.1</ele>
        <time>2014-10-02T16:04:26Z</time>
      </trkpt>
      <trkpt lat="42.6386390" lon="-6.8644360">
        <ele>553.3</ele>
        <time>2014-10-02T16:04:27Z</time>
      </trkpt>
      <trkpt lat="42.6385990" lon="-6.8643610">
        <ele>553.5</ele>
        <time>2014-10-02T16:04:28Z</time>
      </trkpt>
      <trkpt lat="42.6385630" lon="-6.8642890">
        <ele>553.7</ele>
        <time>2014-10-02T16:04:29Z</time>
      </trkpt>
      <trkpt lat="42.6385300" lon="-6.8642230">
        <ele>553.9</ele>
        <time>2014-10-02T16:04:30Z</time>
      </trkpt>
      <trkpt lat="42.6384940" lon="-6.8641550">
        <ele>554.0</ele>
        <time>2014-10-02T16:04:31Z</time>
      </trkpt>
      <trkpt lat="42.6384580" lon="-6.8640930">
        <ele>554.2</ele>
        <time>2014-10-02T16:04:32Z</time>
      </trkpt>
      <trkpt lat="42.6384190" lon="-6.8640280">
        <ele>554.3</ele>
        <time>2014-10-02T16:04:33Z</time>
      </trkpt>
      <trkpt lat="42.6383770" lon="-6.8639600">
        <ele>554.4</ele>
        <time>2014-10-02T16:04:34Z</time>
      </trkpt>
      <trkpt lat="42.6383370" lon="-6.8638930">
        <ele>554.5</ele>
        <time>2014-10-02T16:04:35Z</time>
      </trkpt>
      <trkpt lat="42.6383000" lon="-6.8638330">
        <ele>554.6</ele>
        <time>2014-10-02T16:04:36Z</time>
      </trkpt>
      <trkpt lat="42.6382660" lon="-6.8637770">
        <ele>554.7</ele>
        <time>2014-10-02T16:04:37Z</time>
      </trkpt>
      <trkpt lat="42.6382280" lon="-6.8637130">
        <ele>554.8</ele>
        <time>2014-10-02T16:04:38Z</time>
      </trkpt>
      <trkpt lat="42.6381910" lon="-6.8636480">
        <ele>554.9</ele>
        <time>2014-10-02T16:04:39Z</time>
      </trkpt>
      <trkpt lat="42.6381540" lon="-6.8635830">
        <ele>555.0</ele>
        <time>2014-10-02T16:04:40Z</time>
      </trkpt>
      <trkpt lat="42.6381210" lon="-6.8635210">
        <ele>555.1</ele>
        <time>2014-10-02T16:04:41Z</time>
      </trkpt>
      <trkpt lat="42.6380890" lon="-6.8634550">
        <ele>555.2</ele>
        <time>2014-10-02T16:04:42Z</time>
      </trkpt>
      <trkpt lat="42.6380590" lon="-6.8633840">
        <ele>555.3</ele>
        <time>2014-10-02T16:04:43Z</time>
      </trkpt>
      <trkpt lat="42.6380290" lon="-6.8633050">
        <ele>555.4</ele>
        <time>2014-10-02T16:04:44Z</time>
      </trkpt>
      <trkpt lat="42.6380160" lon="-6.8632160">
        <ele>555.4</ele>
        <time>2014-10-02T16:04:45Z</time>
      </trkpt>
      <trkpt lat="42.6379930" lon="-6.8631240">
        <ele>555.3</ele>
        <time>2014-10-02T16:04:46Z</time>
      </trkpt>
      <trkpt lat="42.6379680" lon="-6.8630270">
        <ele>555.3</ele>
        <time>2014-10-02T16:04:47Z</time>
      </trkpt>
      <trkpt lat="42.6379440" lon="-6.8629300">
        <ele>555.2</ele>
        <time>2014-10-02T16:04:48Z</time>
      </trkpt>
      <trkpt lat="42.6379290" lon="-6.8628360">
        <ele>555.2</ele>
        <time>2014-10-02T16:04:49Z</time>
      </trkpt>
      <trkpt lat="42.6379180" lon="-6.8627380">
        <ele>555.1</ele>
        <time>2014-10-02T16:04:50Z</time>
      </trkpt>
      <trkpt lat="42.6379110" lon="-6.8626370">
        <ele>555.1</ele>
        <time>2014-10-02T16:04:51Z</time>
      </trkpt>
      <trkpt lat="42.6379260" lon="-6.8625350">
        <ele>555.0</ele>
        <time>2014-10-02T16:04:52Z</time>
      </trkpt>
      <trkpt lat="42.6379410" lon="-6.8624270">
        <ele>554.9</ele>
        <time>2014-10-02T16:04:53Z</time>
      </trkpt>
      <trkpt lat="42.6379560" lon="-6.8623120">
        <ele>554.8</ele>
        <time>2014-10-02T16:04:54Z</time>
      </trkpt>
      <trkpt lat="42.6379770" lon="-6.8621970">
        <ele>554.6</ele>
        <time>2014-10-02T16:04:55Z</time>
      </trkpt>
      <trkpt lat="42.6380020" lon="-6.8620850">
        <ele>554.4</ele>
        <time>2014-10-02T16:04:56Z</time>
      </trkpt>
      <trkpt lat="42.6380320" lon="-6.8619750">
        <ele>554.3</ele>
        <time>2014-10-02T16:04:57Z</time>
      </trkpt>
      <trkpt lat="42.6380810" lon="-6.8618790">
        <ele>554.1</ele>
        <time>2014-10-02T16:04:58Z</time>
      </trkpt>
      <trkpt lat="42.6381310" lon="-6.8617820">
        <ele>554.0</ele>
        <time>2014-10-02T16:04:59Z</time>
      </trkpt>
      <trkpt lat="42.6381830" lon="-6.8616910">
        <ele>553.8</ele>
        <time>2014-10-02T16:05:00Z</time>
      </trkpt>
      <trkpt lat="42.6382380" lon="-6.8616070">
        <ele>553.6</ele>
        <time>2014-10-02T16:05:01Z</time>
      </trkpt>
      <trkpt lat="42.6382940" lon="-6.8615210">
        <ele>553.4</ele>
        <time>2014-10-02T16:05:02Z</time>
      </trkpt>
      <trkpt lat="42.6383540" lon="-6.8614400">
        <ele>553.1</ele>
        <time>2014-10-02T16:05:03Z</time>
      </trkpt>
      <trkpt lat="42.6384200" lon="-6.8613550">
        <ele>552.9</ele>
        <time>2014-10-02T16:05:04Z</time>
      </trkpt>
      <trkpt lat="42.6384850" lon="-6.8612720">
        <ele>552.6</ele>
        <time>2014-10-02T16:05:05Z</time>
      </trkpt>
      <trkpt lat="42.6385490" lon="-6.8611870">
        <ele>552.4</ele>
        <time>2014-10-02T16:05:06Z</time>
      </trkpt>
      <trkpt lat="42.6386150" lon="-6.8610980">
        <ele>552.1</ele>
        <time>2014-10-02T16:05:07Z</time>
      </trkpt>
      <trkpt lat="42.6386800" lon="-6.8610050">
        <ele>551.9</ele>
        <time>2014-10-02T16:05:08Z</time>
      </trkpt>
      <trkpt lat="42.6387380" lon="-6.8609090">
        <ele>551.7</ele>
        <time>2014-10-02T16:05:09Z</time>
      </trkpt>
      <trkpt lat="42.6387950" lon="-6.8608020">
        <ele>551.5</ele>
        <time>2014-10-02T16:05:10Z</time>
      </trkpt>
      <trkpt lat="42.6388300" lon="-6.8606790">
        <ele>551.3</ele>
        <time>2014-10-02T16:05:11Z</time>
      </trkpt>
      <trkpt lat="42.6388670" lon="-6.8605590">
        <ele>551.1</ele>
        <time>2014-10-02T16:05:12Z</time>
      </trkpt>
      <trkpt lat="42.6388980" lon="-6.8604400">
        <ele>551.0</ele>
        <time>2014-10-02T16:05:13Z</time>
      </trkpt>
      <trkpt lat="42.6389220" lon="-6.8603170">
        <ele>550.8</ele>
        <time>2014-10-02T16:05:14Z</time>
      </trkpt>
      <trkpt lat="42.6389390" lon="-6.8601960">
        <ele>550.7</ele>
        <time>2014-10-02T16:05:15Z</time>
      </trkpt>
      <trkpt lat="42.6389290" lon="-6.8600710">
        <ele>550.6</ele>
        <time>2014-10-02T16:05:16Z</time>
      </trkpt>
      <trkpt lat="42.6389160" lon="-6.8599420">
        <ele>550.5</ele>
        <time>2014-10-02T16:05:17Z</time>
      </trkpt>
      <trkpt lat="42.6388990" lon="-6.8598170">
        <ele>550.4</ele>
        <time>2014-10-02T16:05:18Z</time>
      </trkpt>
      <trkpt lat="42.6388840" lon="-6.8596990">
        <ele>550.3</ele>
        <time>2014-10-02T16:05:19Z</time>
      </trkpt>
      <trkpt lat="42.6388680" lon="-6.8595730">
        <ele>550.2</ele>
        <time>2014-10-02T16:05:20Z</time>
      </trkpt>
      <trkpt lat="42.6388540" lon="-6.8594520">
        <ele>550.2</ele>
        <time>2014-10-02T16:05:21Z</time>
      </trkpt>
      <trkpt lat="42.6388410" lon="-6.8593320">
        <ele>550.1</ele>
        <time>2014-10-02T16:05:22Z</time>
      </trkpt>
      <trkpt lat="42.6388280" lon="-6.8592140">
        <ele>549.9</ele>
        <time>2014-10-02T16:05:23Z</time>
      </trkpt>
      <trkpt lat="42.6388150" lon="-6.8590960">
        <ele>549.8</ele>
        <time>2014-10-02T16:05:24Z</time>
      </trkpt>
      <trkpt lat="42.6387990" lon="-6.8589700">
        <ele>549.6</ele>
        <time>2014-10-02T16:05:25Z</time>
      </trkpt>
      <trkpt lat="42.6387810" lon="-6.8588510">
        <ele>549.5</ele>
        <time>2014-10-02T16:05:26Z</time>
      </trkpt>
      <trkpt lat="42.6387640" lon="-6.8587290">
        <ele>549.4</ele>
        <time>2014-10-02T16:05:27Z</time>
      </trkpt>
      <trkpt lat="42.6387460" lon="-6.8586050">
        <ele>549.3</ele>
        <time>2014-10-02T16:05:28Z</time>
      </trkpt>
      <trkpt lat="42.6387300" lon="-6.8584820">
        <ele>549.2</ele>
        <time>2014-10-02T16:05:29Z</time>
      </trkpt>
      <trkpt lat="42.6387130" lon="-6.8583570">
        <ele>549.1</ele>
        <time>2014-10-02T16:05:30Z</time>
      </trkpt>
      <trkpt lat="42.6386960" lon="-6.8582270">
        <ele>549.0</ele>
        <time>2014-10-02T16:05:31Z</time>
      </trkpt>
      <trkpt lat="42.6386790" lon="-6.8581020">
        <ele>548.9</ele>
        <time>2014-10-02T16:05:32Z</time>
      </trkpt>
      <trkpt lat="42.6386640" lon="-6.8579820">
        <ele>548.8</ele>
        <time>2014-10-02T16:05:33Z</time>
      </trkpt>
      <trkpt lat="42.6386500" lon="-6.8578750">
        <ele>548.8</ele>
        <time>2014-10-02T16:05:34Z</time>
      </trkpt>
      <trkpt lat="42.6386350" lon="-6.8577600">
        <ele>548.8</ele>
        <time>2014-10-02T16:05:35Z</time>
      </trkpt>
      <trkpt lat="42.6386170" lon="-6.8576370">
        <ele>548.7</ele>
        <time>2014-10-02T16:05:36Z</time>
      </trkpt>
      <trkpt lat="42.6385970" lon="-6.8575170">
        <ele>548.6</ele>
        <time>2014-10-02T16:05:37Z</time>
      </trkpt>
      <trkpt lat="42.6385770" lon="-6.8574030">
        <ele>548.5</ele>
        <time>2014-10-02T16:05:38Z</time>
      </trkpt>
      <trkpt lat="42.6385500" lon="-6.8572810">
        <ele>548.4</ele>
        <time>2014-10-02T16:05:39Z</time>
      </trkpt>
      <trkpt lat="42.6385200" lon="-6.8571710">
        <ele>548.2</ele>
        <time>2014-10-02T16:05:40Z</time>
      </trkpt>
      <trkpt lat="42.6384860" lon="-6.8570690">
        <ele>548.1</ele>
        <time>2014-10-02T16:05:41Z</time>
      </trkpt>
      <trkpt lat="42.6384470" lon="-6.8569750">
        <ele>548.1</ele>
        <time>2014-10-02T16:05:42Z</time>
      </trkpt>
      <trkpt lat="42.6384040" lon="-6.8568730">
        <ele>548.0</ele>
        <time>2014-10-02T16:05:43Z</time>
      </trkpt>
      <trkpt lat="42.6383560" lon="-6.8567670">
        <ele>548.0</ele>
        <time>2014-10-02T16:05:44Z</time>
      </trkpt>
      <trkpt lat="42.6383030" lon="-6.8566600">
        <ele>547.9</ele>
        <time>2014-10-02T16:05:45Z</time>
      </trkpt>
      <trkpt lat="42.6382480" lon="-6.8565650">
        <ele>547.9</ele>
        <time>2014-10-02T16:05:46Z</time>
      </trkpt>
      <trkpt lat="42.6381890" lon="-6.8564650">
        <ele>547.9</ele>
        <time>2014-10-02T16:05:47Z</time>
      </trkpt>
      <trkpt lat="42.6381280" lon="-6.8563670">
        <ele>547.8</ele>
        <time>2014-10-02T16:05:48Z</time>
      </trkpt>
      <trkpt lat="42.6380670" lon="-6.8562660">
        <ele>547.7</ele>
        <time>2014-10-02T16:05:49Z</time>
      </trkpt>
      <trkpt lat="42.6380090" lon="-6.8561720">
        <ele>547.7</ele>
        <time>2014-10-02T16:05:50Z</time>
      </trkpt>
      <trkpt lat="42.6379520" lon="-6.8560800">
        <ele>547.6</ele>
        <time>2014-10-02T16:05:51Z</time>
      </trkpt>
      <trkpt lat="42.6378960" lon="-6.8559870">
        <ele>547.6</ele>
        <time>2014-10-02T16:05:52Z</time>
      </trkpt>
      <trkpt lat="42.6378460" lon="-6.8559050">
        <ele>547.5</ele>
        <time>2014-10-02T16:05:53Z</time>
      </trkpt>
      <trkpt lat="42.6377940" lon="-6.8558240">
        <ele>547.5</ele>
        <time>2014-10-02T16:05:54Z</time>
      </trkpt>
      <trkpt lat="42.6377420" lon="-6.8557390">
        <ele>547.4</ele>
        <time>2014-10-02T16:05:55Z</time>
      </trkpt>
      <trkpt lat="42.6376810" lon="-6.8556420">
        <ele>547.3</ele>
        <time>2014-10-02T16:05:56Z</time>
      </trkpt>
      <trkpt lat="42.6376250" lon="-6.8555560">
        <ele>547.2</ele>
        <time>2014-10-02T16:05:57Z</time>
      </trkpt>
      <trkpt lat="42.6375730" lon="-6.8554810">
        <ele>547.2</ele>
        <time>2014-10-02T16:05:58Z</time>
      </trkpt>
      <trkpt lat="42.6375240" lon="-6.8554050">
        <ele>547.1</ele>
        <time>2014-10-02T16:05:59Z</time>
      </trkpt>
      <trkpt lat="42.6374690" lon="-6.8553220">
        <ele>546.9</ele>
        <time>2014-10-02T16:06:00Z</time>
      </trkpt>
      <trkpt lat="42.6374080" lon="-6.8552330">
        <ele>546.9</ele>
        <time>2014-10-02T16:06:01Z</time>
      </trkpt>
      <trkpt lat="42.6373490" lon="-6.8551510">
        <ele>546.8</ele>
        <time>2014-10-02T16:06:02Z</time>
      </trkpt>
      <trkpt lat="42.6372970" lon="-6.8550770">
        <ele>546.8</ele>
        <time>2014-10-02T16:06:03Z</time>
      </trkpt>
      <trkpt lat="42.6372380" lon="-6.8549990">
        <ele>546.8</ele>
        <time>2014-10-02T16:06:04Z</time>
      </trkpt>
      <trkpt lat="42.6371770" lon="-6.8549230">
        <ele>546.7</ele>
        <time>2014-10-02T16:06:05Z</time>
      </trkpt>
      <trkpt lat="42.6371120" lon="-6.8548490">
        <ele>546.7</ele>
        <time>2014-10-02T16:06:06Z</time>
      </trkpt>
      <trkpt lat="42.6370450" lon="-6.8547770">
        <ele>546.6</ele>
        <time>2014-10-02T16:06:07Z</time>
      </trkpt>
      <trkpt lat="42.6369710" lon="-6.8547030">
        <ele>546.5</ele>
        <time>2014-10-02T16:06:08Z</time>
      </trkpt>
      <trkpt lat="42.6369000" lon="-6.8546320">
        <ele>546.5</ele>
        <time>2014-10-02T16:06:09Z</time>
      </trkpt>
      <trkpt lat="42.6368280" lon="-6.8545660">
        <ele>546.4</ele>
        <time>2014-10-02T16:06:10Z</time>
      </trkpt>
      <trkpt lat="42.6367580" lon="-6.8545020">
        <ele>546.3</ele>
        <time>2014-10-02T16:06:11Z</time>
      </trkpt>
      <trkpt lat="42.6366930" lon="-6.8544420">
        <ele>546.3</ele>
        <time>2014-10-02T16:06:12Z</time>
      </trkpt>
      <trkpt lat="42.6366230" lon="-6.8543830">
        <ele>546.2</ele>
        <time>2014-10-02T16:06:13Z</time>
      </trkpt>
      <trkpt lat="42.6365550" lon="-6.8543250">
        <ele>546.2</ele>
        <time>2014-10-02T16:06:14Z</time>
      </trkpt>
      <trkpt lat="42.6364810" lon="-6.8542630">
        <ele>546.1</ele>
        <time>2014-10-02T16:06:15Z</time>
      </trkpt>
      <trkpt lat="42.6364090" lon="-6.8542030">
        <ele>546.0</ele>
        <time>2014-10-02T16:06:16Z</time>
      </trkpt>
      <trkpt lat="42.6363360" lon="-6.8541440">
        <ele>546.0</ele>
        <time>2014-10-02T16:06:17Z</time>
      </trkpt>
      <trkpt lat="42.6362610" lon="-6.8540840">
        <ele>545.9</ele>
        <time>2014-10-02T16:06:18Z</time>
      </trkpt>
      <trkpt lat="42.6361840" lon="-6.8540210">
        <ele>545.8</ele>
        <time>2014-10-02T16:06:19Z</time>
      </trkpt>
      <trkpt lat="42.6361030" lon="-6.8539540">
        <ele>545.8</ele>
        <time>2014-10-02T16:06:20Z</time>
      </trkpt>
      <trkpt lat="42.6360200" lon="-6.8538860">
        <ele>545.7</ele>
        <time>2014-10-02T16:06:21Z</time>
      </trkpt>
      <trkpt lat="42.6359430" lon="-6.8538230">
        <ele>545.6</ele>
        <time>2014-10-02T16:06:22Z</time>
      </trkpt>
      <trkpt lat="42.6358760" lon="-6.8537710">
        <ele>545.6</ele>
        <time>2014-10-02T16:06:23Z</time>
      </trkpt>
      <trkpt lat="42.6358030" lon="-6.8537140">
        <ele>545.5</ele>
        <time>2014-10-02T16:06:24Z</time>
      </trkpt>
      <trkpt lat="42.6357330" lon="-6.8536580">
        <ele>545.5</ele>
        <time>2014-10-02T16:06:25Z</time>
      </trkpt>
      <trkpt lat="42.6356560" lon="-6.8535950">
        <ele>545.5</ele>
        <time>2014-10-02T16:06:26Z</time>
      </trkpt>
      <trkpt lat="42.6355820" lon="-6.8535370">
        <ele>545.4</ele>
        <time>2014-10-02T16:06:27Z</time>
      </trkpt>
      <trkpt lat="42.6355070" lon="-6.8534780">
        <ele>545.3</ele>
        <time>2014-10-02T16:06:28Z</time>
      </trkpt>
      <trkpt lat="42.6354320" lon="-6.8534210">
        <ele>545.3</ele>
        <time>2014-10-02T16:06:29Z</time>
      </trkpt>
      <trkpt lat="42.6353510" lon="-6.8533620">
        <ele>545.2</ele>
        <time>2014-10-02T16:06:30Z</time>
      </trkpt>
      <trkpt lat="42.6352710" lon="-6.8533050">
        <ele>545.2</ele>
        <time>2014-10-02T16:06:31Z</time>
      </trkpt>
      <trkpt lat="42.6351890" lon="-6.8532410">
        <ele>545.2</ele>
        <time>2014-10-02T16:06:32Z</time>
      </trkpt>
      <trkpt lat="42.6351090" lon="-6.8531830">
        <ele>545.2</ele>
        <time>2014-10-02T16:06:33Z</time>
      </trkpt>
      <trkpt lat="42.6350290" lon="-6.8531260">
        <ele>545.1</ele>
        <time>2014-10-02T16:06:34Z</time>
      </trkpt>
      <trkpt lat="42.6349510" lon="-6.8530770">
        <ele>545.1</ele>
        <time>2014-10-02T16:06:35Z</time>
      </trkpt>
      <trkpt lat="42.6348800" lon="-6.8530350">
        <ele>545.0</ele>
        <time>2014-10-02T16:06:36Z</time>
      </trkpt>
      <trkpt lat="42.6348030" lon="-6.8529910">
        <ele>545.0</ele>
        <time>2014-10-02T16:06:37Z</time>
      </trkpt>
      <trkpt lat="42.6347290" lon="-6.8529530">
        <ele>545.0</ele>
        <time>2014-10-02T16:06:38Z</time>
      </trkpt>
      <trkpt lat="42.6346510" lon="-6.8529130">
        <ele>544.9</ele>
        <time>2014-10-02T16:06:39Z</time>
      </trkpt>
      <trkpt lat="42.6345640" lon="-6.8528730">
        <ele>544.9</ele>
        <time>2014-10-02T16:06:40Z</time>
      </trkpt>
      <trkpt lat="42.6344740" lon="-6.8528310">
        <ele>544.9</ele>
        <time>2014-10-02T16:06:41Z</time>
      </trkpt>
      <trkpt lat="42.6343900" lon="-6.8527970">
        <ele>544.9</ele>
        <time>2014-10-02T16:06:42Z</time>
      </trkpt>
      <trkpt lat="42.6343040" lon="-6.8527600">
        <ele>544.9</ele>
        <time>2014-10-02T16:06:43Z</time>
      </trkpt>
      <trkpt lat="42.6342140" lon="-6.8527250">
        <ele>544.9</ele>
        <time>2014-10-02T16:06:44Z</time>
      </trkpt>
      <trkpt lat="42.6341350" lon="-6.8526990">
        <ele>544.9</ele>
        <time>2014-10-02T16:06:45Z</time>
      </trkpt>
      <trkpt lat="42.6340590" lon="-6.8526740">
        <ele>544.9</ele>
        <time>2014-10-02T16:06:46Z</time>
      </trkpt>
      <trkpt lat="42.6339790" lon="-6.8526460">
        <ele>544.9</ele>
        <time>2014-10-02T16:06:47Z</time>
      </trkpt>
      <trkpt lat="42.6338980" lon="-6.8526180">
        <ele>544.9</ele>
        <time>2014-10-02T16:06:48Z</time>
      </trkpt>
      <trkpt lat="42.6338170" lon="-6.8525930">
        <ele>544.8</ele>
        <time>2014-10-02T16:06:49Z</time>
      </trkpt>
      <trkpt lat="42.6337380" lon="-6.8525630">
        <ele>544.8</ele>
        <time>2014-10-02T16:06:50Z</time>
      </trkpt>
      <trkpt lat="42.6336660" lon="-6.8525290">
        <ele>544.7</ele>
        <time>2014-10-02T16:06:51Z</time>
      </trkpt>
      <trkpt lat="42.6335960" lon="-6.8524890">
        <ele>544.7</ele>
        <time>2014-10-02T16:06:52Z</time>
      </trkpt>
      <trkpt lat="42.6335270" lon="-6.8524430">
        <ele>544.6</ele>
        <time>2014-10-02T16:06:53Z</time>
      </trkpt>
      <trkpt lat="42.6334580" lon="-6.8523880">
        <ele>544.5</ele>
        <time>2014-10-02T16:06:54Z</time>
      </trkpt>
      <trkpt lat="42.6333940" lon="-6.8523280">
        <ele>544.4</ele>
        <time>2014-10-02T16:06:55Z</time>
      </trkpt>
      <trkpt lat="42.6333270" lon="-6.8522590">
        <ele>544.4</ele>
        <time>2014-10-02T16:06:56Z</time>
      </trkpt>
      <trkpt lat="42.6332610" lon="-6.8521870">
        <ele>544.3</ele>
        <time>2014-10-02T16:06:57Z</time>
      </trkpt>
      <trkpt lat="42.6332040" lon="-6.8521210">
        <ele>544.3</ele>
        <time>2014-10-02T16:06:58Z</time>
      </trkpt>
      <trkpt lat="42.6331520" lon="-6.8520390">
        <ele>544.2</ele>
        <time>2014-10-02T16:06:59Z</time>
      </trkpt>
      <trkpt lat="42.6330990" lon="-6.8519600">
        <ele>544.2</ele>
        <time>2014-10-02T16:07:00Z</time>
      </trkpt>
      <trkpt lat="42.6330330" lon="-6.8518740">
        <ele>544.1</ele>
        <time>2014-10-02T16:07:01Z</time>
      </trkpt>
      <trkpt lat="42.6329730" lon="-6.8517960">
        <ele>544.0</ele>
        <time>2014-10-02T16:07:02Z</time>
      </trkpt>
      <trkpt lat="42.6329220" lon="-6.8517120">
        <ele>543.9</ele>
        <time>2014-10-02T16:07:03Z</time>
      </trkpt>
      <trkpt lat="42.6328710" lon="-6.8516350">
        <ele>543.8</ele>
        <time>2014-10-02T16:07:04Z</time>
      </trkpt>
      <trkpt lat="42.6328100" lon="-6.8515530">
        <ele>543.7</ele>
        <time>2014-10-02T16:07:05Z</time>
      </trkpt>
      <trkpt lat="42.6327470" lon="-6.8514750">
        <ele>543.7</ele>
        <time>2014-10-02T16:07:06Z</time>
      </trkpt>
      <trkpt lat="42.6326810" lon="-6.8513900">
        <ele>543.6</ele>
        <time>2014-10-02T16:07:07Z</time>
      </trkpt>
      <trkpt lat="42.6326140" lon="-6.8513060">
        <ele>543.6</ele>
        <time>2014-10-02T16:07:08Z</time>
      </trkpt>
      <trkpt lat="42.6325560" lon="-6.8512290">
        <ele>543.5</ele>
        <time>2014-10-02T16:07:09Z</time>
      </trkpt>
      <trkpt lat="42.6325000" lon="-6.8511530">
        <ele>543.5</ele>
        <time>2014-10-02T16:07:10Z</time>
      </trkpt>
      <trkpt lat="42.6324400" lon="-6.8510730">
        <ele>543.4</ele>
        <time>2014-10-02T16:07:11Z</time>
      </trkpt>
      <trkpt lat="42.6323820" lon="-6.8509980">
        <ele>543.4</ele>
        <time>2014-10-02T16:07:12Z</time>
      </trkpt>
      <trkpt lat="42.6323220" lon="-6.8509190">
        <ele>543.4</ele>
        <time>2014-10-02T16:07:13Z</time>
      </trkpt>
      <trkpt lat="42.6322700" lon="-6.8508460">
        <ele>543.3</ele>
        <time>2014-10-02T16:07:14Z</time>
      </trkpt>
      <trkpt lat="42.6322160" lon="-6.8507710">
        <ele>543.3</ele>
        <time>2014-10-02T16:07:15Z</time>
      </trkpt>
      <trkpt lat="42.6321560" lon="-6.8506920">
        <ele>543.3</ele>
        <time>2014-10-02T16:07:16Z</time>
      </trkpt>
      <trkpt lat="42.6320970" lon="-6.8506140">
        <ele>543.2</ele>
        <time>2014-10-02T16:07:17Z</time>
      </trkpt>
      <trkpt lat="42.6320410" lon="-6.8505400">
        <ele>543.2</ele>
        <time>2014-10-02T16:07:18Z</time>
      </trkpt>
      <trkpt lat="42.6319850" lon="-6.8504680">
        <ele>543.2</ele>
        <time>2014-10-02T16:07:19Z</time>
      </trkpt>
      <trkpt lat="42.6319310" lon="-6.8503950">
        <ele>543.1</ele>
        <time>2014-10-02T16:07:20Z</time>
      </trkpt>
      <trkpt lat="42.6318810" lon="-6.8503260">
        <ele>543.1</ele>
        <time>2014-10-02T16:07:21Z</time>
      </trkpt>
      <trkpt lat="42.6318310" lon="-6.8502550">
        <ele>543.0</ele>
        <time>2014-10-02T16:07:22Z</time>
      </trkpt>
      <trkpt lat="42.6317770" lon="-6.8501810">
        <ele>542.9</ele>
        <time>2014-10-02T16:07:23Z</time>
      </trkpt>
      <trkpt lat="42.6317200" lon="-6.8501010">
        <ele>542.8</ele>
        <time>2014-10-02T16:07:24Z</time>
      </trkpt>
      <trkpt lat="42.6316580" lon="-6.8500150">
        <ele>542.8</ele>
        <time>2014-10-02T16:07:25Z</time>
      </trkpt>
      <trkpt lat="42.6315900" lon="-6.8499300">
        <ele>542.8</ele>
        <time>2014-10-02T16:07:26Z</time>
      </trkpt>
      <trkpt lat="42.6315220" lon="-6.8498450">
        <ele>542.7</ele>
        <time>2014-10-02T16:07:27Z</time>
      </trkpt>
      <trkpt lat="42.6314570" lon="-6.8497640">
        <ele>542.7</ele>
        <time>2014-10-02T16:07:28Z</time>
      </trkpt>
      <trkpt lat="42.6313940" lon="-6.8496850">
        <ele>542.7</ele>
        <time>2014-10-02T16:07:29Z</time>
      </trkpt>
      <trkpt lat="42.6313350" lon="-6.8496120">
        <ele>542.7</ele>
        <time>2014-10-02T16:07:30Z</time>
      </trkpt>
      <trkpt lat="42.6312720" lon="-6.8495350">
        <ele>542.6</ele>
        <time>2014-10-02T16:07:31Z</time>
      </trkpt>
      <trkpt lat="42.6312130" lon="-6.8494610">
        <ele>542.5</ele>
        <time>2014-10-02T16:07:32Z</time>
      </trkpt>
      <trkpt lat="42.6311530" lon="-6.8493840">
        <ele>542.4</ele>
        <time>2014-10-02T16:07:33Z</time>
      </trkpt>
      <trkpt lat="42.6310910" lon="-6.8493090">
        <ele>542.3</ele>
        <time>2014-10-02T16:07:34Z</time>
      </trkpt>
      <trkpt lat="42.6310280" lon="-6.8492320">
        <ele>542.2</ele>
        <time>2014-10-02T16:07:35Z</time>
      </trkpt>
      <trkpt lat="42.6309700" lon="-6.8491610">
        <ele>542.1</ele>
        <time>2014-10-02T16:07:36Z</time>
      </trkpt>
      <trkpt lat="42.6309110" lon="-6.8490890">
        <ele>541.9</ele>
        <time>2014-10-02T16:07:37Z</time>
      </trkpt>
      <trkpt lat="42.6308510" lon="-6.8490130">
        <ele>541.8</ele>
        <time>2014-10-02T16:07:38Z</time>
      </trkpt>
      <trkpt lat="42.6307870" lon="-6.8489340">
        <ele>541.7</ele>
        <time>2014-10-02T16:07:39Z</time>
      </trkpt>
      <trkpt lat="42.6307240" lon="-6.8488570">
        <ele>541.6</ele>
        <time>2014-10-02T16:07:40Z</time>
      </trkpt>
      <trkpt lat="42.6306630" lon="-6.8487850">
        <ele>541.5</ele>
        <time>2014-10-02T16:07:41Z</time>
      </trkpt>
      <trkpt lat="42.6305990" lon="-6.8487110">
        <ele>541.4</ele>
        <time>2014-10-02T16:07:42Z</time>
      </trkpt>
      <trkpt lat="42.6305360" lon="-6.8486370">
        <ele>541.3</ele>
        <time>2014-10-02T16:07:43Z</time>
      </trkpt>
      <trkpt lat="42.6304720" lon="-6.8485630">
        <ele>541.2</ele>
        <time>2014-10-02T16:07:44Z</time>
      </trkpt>
      <trkpt lat="42.6304040" lon="-6.8484870">
        <ele>541.2</ele>
        <time>2014-10-02T16:07:45Z</time>
      </trkpt>
      <trkpt lat="42.6303370" lon="-6.8484090">
        <ele>541.1</ele>
        <time>2014-10-02T16:07:46Z</time>
      </trkpt>
      <trkpt lat="42.6302750" lon="-6.8483380">
        <ele>541.0</ele>
        <time>2014-10-02T16:07:47Z</time>
      </trkpt>
      <trkpt lat="42.6302080" lon="-6.8482620">
        <ele>541.0</ele>
        <time>2014-10-02T16:07:48Z</time>
      </trkpt>
      <trkpt lat="42.6301450" lon="-6.8481900">
        <ele>540.9</ele>
        <time>2014-10-02T16:07:49Z</time>
      </trkpt>
      <trkpt lat="42.6300880" lon="-6.8481250">
        <ele>540.8</ele>
        <time>2014-10-02T16:07:50Z</time>
      </trkpt>
      <trkpt lat="42.6300330" lon="-6.8480610">
        <ele>540.7</ele>
        <time>2014-10-02T16:07:51Z</time>
      </trkpt>
      <trkpt lat="42.6299750" lon="-6.8479970">
        <ele>540.7</ele>
        <time>2014-10-02T16:07:52Z</time>
      </trkpt>
      <trkpt lat="42.6299120" lon="-6.8479290">
        <ele>540.6</ele>
        <time>2014-10-02T16:07:53Z</time>
      </trkpt>
      <trkpt lat="42.6298480" lon="-6.8478630">
        <ele>540.5</ele>
        <time>2014-10-02T16:07:54Z</time>
      </trkpt>
      <trkpt lat="42.6297820" lon="-6.8477970">
        <ele>540.4</ele>
        <time>2014-10-02T16:07:55Z</time>
      </trkpt>
      <trkpt lat="42.6297100" lon="-6.8477250">
        <ele>540.3</ele>
        <time>2014-10-02T16:07:56Z</time>
      </trkpt>
      <trkpt lat="42.6296410" lon="-6.8476590">
        <ele>540.2</ele>
        <time>2014-10-02T16:07:57Z</time>
      </trkpt>
      <trkpt lat="42.6295760" lon="-6.8475990">
        <ele>540.2</ele>
        <time>2014-10-02T16:07:58Z</time>
      </trkpt>
      <trkpt lat="42.6295100" lon="-6.8475390">
        <ele>540.1</ele>
        <time>2014-10-02T16:07:59Z</time>
      </trkpt>
      <trkpt lat="42.6294370" lon="-6.8474770">
        <ele>540.0</ele>
        <time>2014-10-02T16:08:00Z</time>
      </trkpt>
      <trkpt lat="42.6293660" lon="-6.8474190">
        <ele>539.9</ele>
        <time>2014-10-02T16:08:01Z</time>
      </trkpt>
      <trkpt lat="42.6292870" lon="-6.8473580">
        <ele>539.8</ele>
        <time>2014-10-02T16:08:02Z</time>
      </trkpt>
      <trkpt lat="42.6292110" lon="-6.8473020">
        <ele>539.6</ele>
        <time>2014-10-02T16:08:03Z</time>
      </trkpt>
      <trkpt lat="42.6291380" lon="-6.8472480">
        <ele>539.6</ele>
        <time>2014-10-02T16:08:04Z</time>
      </trkpt>
      <trkpt lat="42.6290680" lon="-6.8472010">
        <ele>539.5</ele>
        <time>2014-10-02T16:08:05Z</time>
      </trkpt>
      <trkpt lat="42.6289950" lon="-6.8471520">
        <ele>539.4</ele>
        <time>2014-10-02T16:08:06Z</time>
      </trkpt>
      <trkpt lat="42.6289220" lon="-6.8471060">
        <ele>539.4</ele>
        <time>2014-10-02T16:08:07Z</time>
      </trkpt>
      <trkpt lat="42.6288470" lon="-6.8470610">
        <ele>539.3</ele>
        <time>2014-10-02T16:08:08Z</time>
      </trkpt>
      <trkpt lat="42.6287660" lon="-6.8470160">
        <ele>539.1</ele>
        <time>2014-10-02T16:08:09Z</time>
      </trkpt>
      <trkpt lat="42.6286830" lon="-6.8469750">
        <ele>539.1</ele>
        <time>2014-10-02T16:08:10Z</time>
      </trkpt>
      <trkpt lat="42.6286030" lon="-6.8469350">
        <ele>539.0</ele>
        <time>2014-10-02T16:08:11Z</time>
      </trkpt>
      <trkpt lat="42.6285220" lon="-6.8468960">
        <ele>539.0</ele>
        <time>2014-10-02T16:08:12Z</time>
      </trkpt>
      <trkpt lat="42.6284400" lon="-6.8468570">
        <ele>538.9</ele>
        <time>2014-10-02T16:08:13Z</time>
      </trkpt>
      <trkpt lat="42.6283560" lon="-6.8468230">
        <ele>538.8</ele>
        <time>2014-10-02T16:08:14Z</time>
      </trkpt>
      <trkpt lat="42.6282670" lon="-6.8467890">
        <ele>538.7</ele>
        <time>2014-10-02T16:08:15Z</time>
      </trkpt>
      <trkpt lat="42.6281830" lon="-6.8467600">
        <ele>538.6</ele>
        <time>2014-10-02T16:08:16Z</time>
      </trkpt>
      <trkpt lat="42.6281010" lon="-6.8467340">
        <ele>538.5</ele>
        <time>2014-10-02T16:08:17Z</time>
      </trkpt>
      <trkpt lat="42.6280150" lon="-6.8467090">
        <ele>538.5</ele>
        <time>2014-10-02T16:08:18Z</time>
      </trkpt>
      <trkpt lat="42.6279310" lon="-6.8466850">
        <ele>538.5</ele>
        <time>2014-10-02T16:08:19Z</time>
      </trkpt>
      <trkpt lat="42.6278430" lon="-6.8466620">
        <ele>538.5</ele>
        <time>2014-10-02T16:08:20Z</time>
      </trkpt>
      <trkpt lat="42.6277610" lon="-6.8466440">
        <ele>538.6</ele>
        <time>2014-10-02T16:08:21Z</time>
      </trkpt>
      <trkpt lat="42.6276820" lon="-6.8466250">
        <ele>538.6</ele>
        <time>2014-10-02T16:08:22Z</time>
      </trkpt>
      <trkpt lat="42.6276060" lon="-6.8466050">
        <ele>538.6</ele>
        <time>2014-10-02T16:08:23Z</time>
      </trkpt>
      <trkpt lat="42.6275300" lon="-6.8465890">
        <ele>538.7</ele>
        <time>2014-10-02T16:08:24Z</time>
      </trkpt>
      <trkpt lat="42.6274580" lon="-6.8465740">
        <ele>538.7</ele>
        <time>2014-10-02T16:08:25Z</time>
      </trkpt>
      <trkpt lat="42.6273900" lon="-6.8465610">
        <ele>538.7</ele>
        <time>2014-10-02T16:08:26Z</time>
      </trkpt>
      <trkpt lat="42.6273190" lon="-6.8465460">
        <ele>538.7</ele>
        <time>2014-10-02T16:08:27Z</time>
      </trkpt>
      <trkpt lat="42.6272410" lon="-6.8465260">
        <ele>538.7</ele>
        <time>2014-10-02T16:08:28Z</time>
      </trkpt>
      <trkpt lat="42.6271600" lon="-6.8465020">
        <ele>538.8</ele>
        <time>2014-10-02T16:08:29Z</time>
      </trkpt>
      <trkpt lat="42.6270780" lon="-6.8464800">
        <ele>538.8</ele>
        <time>2014-10-02T16:08:30Z</time>
      </trkpt>
      <trkpt lat="42.6269970" lon="-6.8464560">
        <ele>538.9</ele>
        <time>2014-10-02T16:08:31Z</time>
      </trkpt>
      <trkpt lat="42.6269210" lon="-6.8464320">
        <ele>538.9</ele>
        <time>2014-10-02T16:08:32Z</time>
      </trkpt>
      <trkpt lat="42.6268480" lon="-6.8464030">
        <ele>539.0</ele>
        <time>2014-10-02T16:08:33Z</time>
      </trkpt>
      <trkpt lat="42.6267740" lon="-6.8463700">
        <ele>538.6</ele>
        <time>2014-10-02T16:08:34Z</time>
      </trkpt>
      <trkpt lat="42.6267030" lon="-6.8463340">
        <ele>538.0</ele>
        <time>2014-10-02T16:08:35Z</time>
      </trkpt>
      <trkpt lat="42.6266330" lon="-6.8462970">
        <ele>537.5</ele>
        <time>2014-10-02T16:08:36Z</time>
      </trkpt>
      <trkpt lat="42.6265710" lon="-6.8462600">
        <ele>537.0</ele>
        <time>2014-10-02T16:08:37Z</time>
      </trkpt>
      <trkpt lat="42.6265050" lon="-6.8462170">
        <ele>536.5</ele>
        <time>2014-10-02T16:08:38Z</time>
      </trkpt>
      <trkpt lat="42.6264430" lon="-6.8461720">
        <ele>535.5</ele>
        <time>2014-10-02T16:08:39Z</time>
      </trkpt>
      <trkpt lat="42.6263810" lon="-6.8461260">
        <ele>535.4</ele>
        <time>2014-10-02T16:08:40Z</time>
      </trkpt>
      <trkpt lat="42.6263210" lon="-6.8460790">
        <ele>535.3</ele>
        <time>2014-10-02T16:08:41Z</time>
      </trkpt>
      <trkpt lat="42.6262600" lon="-6.8460320">
        <ele>535.3</ele>
        <time>2014-10-02T16:08:42Z</time>
      </trkpt>
      <trkpt lat="42.6261980" lon="-6.8459780">
        <ele>535.3</ele>
        <time>2014-10-02T16:08:43Z</time>
      </trkpt>
      <trkpt lat="42.6261350" lon="-6.8459210">
        <ele>535.3</ele>
        <time>2014-10-02T16:08:44Z</time>
      </trkpt>
      <trkpt lat="42.6260790" lon="-6.8458620">
        <ele>535.2</ele>
        <time>2014-10-02T16:08:45Z</time>
      </trkpt>
      <trkpt lat="42.6260250" lon="-6.8458000">
        <ele>535.2</ele>
        <time>2014-10-02T16:08:46Z</time>
      </trkpt>
      <trkpt lat="42.6259720" lon="-6.8457350">
        <ele>535.2</ele>
        <time>2014-10-02T16:08:47Z</time>
      </trkpt>
      <trkpt lat="42.6259170" lon="-6.8456660">
        <ele>535.2</ele>
        <time>2014-10-02T16:08:48Z</time>
      </trkpt>
      <trkpt lat="42.6258680" lon="-6.8456000">
        <ele>535.1</ele>
        <time>2014-10-02T16:08:49Z</time>
      </trkpt>
      <trkpt lat="42.6258170" lon="-6.8455320">
        <ele>535.1</ele>
        <time>2014-10-02T16:08:50Z</time>
      </trkpt>
      <trkpt lat="42.6257730" lon="-6.8454690">
        <ele>535.1</ele>
        <time>2014-10-02T16:08:51Z</time>
      </trkpt>
      <trkpt lat="42.6257240" lon="-6.8453980">
        <ele>535.2</ele>
        <time>2014-10-02T16:08:52Z</time>
      </trkpt>
      <trkpt lat="42.6256750" lon="-6.8453220">
        <ele>535.2</ele>
        <time>2014-10-02T16:08:53Z</time>
      </trkpt>
      <trkpt lat="42.6256230" lon="-6.8452430">
        <ele>535.2</ele>
        <time>2014-10-02T16:08:54Z</time>
      </trkpt>
      <trkpt lat="42.6255770" lon="-6.8451680">
        <ele>535.2</ele>
        <time>2014-10-02T16:08:55Z</time>
      </trkpt>
      <trkpt lat="42.6255310" lon="-6.8450870">
        <ele>535.2</ele>
        <time>2014-10-02T16:08:56Z</time>
      </trkpt>
      <trkpt lat="42.6254900" lon="-6.8450110">
        <ele>535.1</ele>
        <time>2014-10-02T16:08:57Z</time>
      </trkpt>
      <trkpt lat="42.6254470" lon="-6.8449310">
        <ele>535.1</ele>
        <time>2014-10-02T16:08:58Z</time>
      </trkpt>
      <trkpt lat="42.6254070" lon="-6.8448570">
        <ele>535.1</ele>
        <time>2014-10-02T16:08:59Z</time>
      </trkpt>
      <trkpt lat="42.6253680" lon="-6.8447790">
        <ele>535.0</ele>
        <time>2014-10-02T16:09:00Z</time>
      </trkpt>
      <trkpt lat="42.6253310" lon="-6.8447020">
        <ele>534.9</ele>
        <time>2014-10-02T16:09:01Z</time>
      </trkpt>
      <trkpt lat="42.6252910" lon="-6.8446140">
        <ele>534.8</ele>
        <time>2014-10-02T16:09:02Z</time>
      </trkpt>
      <trkpt lat="42.6252480" lon="-6.8445170">
        <ele>534.7</ele>
        <time>2014-10-02T16:09:03Z</time>
      </trkpt>
      <trkpt lat="42.6252090" lon="-6.8444200">
        <ele>534.6</ele>
        <time>2014-10-02T16:09:04Z</time>
      </trkpt>
      <trkpt lat="42.6251730" lon="-6.8443240">
        <ele>534.5</ele>
        <time>2014-10-02T16:09:05Z</time>
      </trkpt>
      <trkpt lat="42.6251370" lon="-6.8442260">
        <ele>534.5</ele>
        <time>2014-10-02T16:09:06Z</time>
      </trkpt>
      <trkpt lat="42.6250980" lon="-6.8441250">
        <ele>534.4</ele>
        <time>2014-10-02T16:09:07Z</time>
      </trkpt>
      <trkpt lat="42.6250580" lon="-6.8440280">
        <ele>534.3</ele>
        <time>2014-10-02T16:09:08Z</time>
      </trkpt>
      <trkpt lat="42.6250190" lon="-6.8439370">
        <ele>534.2</ele>
        <time>2014-10-02T16:09:09Z</time>
      </trkpt>
      <trkpt lat="42.6249800" lon="-6.8438480">
        <ele>534.1</ele>
        <time>2014-10-02T16:09:10Z</time>
      </trkpt>
      <trkpt lat="42.6249390" lon="-6.8437500">
        <ele>534.1</ele>
        <time>2014-10-02T16:09:11Z</time>
      </trkpt>
      <trkpt lat="42.6249000" lon="-6.8436570">
        <ele>534.0</ele>
        <time>2014-10-02T16:09:12Z</time>
      </trkpt>
      <trkpt lat="42.6248620" lon="-6.8435690">
        <ele>533.9</ele>
        <time>2014-10-02T16:09:13Z</time>
      </trkpt>
      <trkpt lat="42.6248190" lon="-6.8434700">
        <ele>533.8</ele>
        <time>2014-10-02T16:09:14Z</time>
      </trkpt>
      <trkpt lat="42.6247770" lon="-6.8433710">
        <ele>533.7</ele>
        <time>2014-10-02T16:09:15Z</time>
      </trkpt>
      <trkpt lat="42.6247370" lon="-6.8432770">
        <ele>533.5</ele>
        <time>2014-10-02T16:09:16Z</time>
      </trkpt>
      <trkpt lat="42.6246970" lon="-6.8431820">
        <ele>533.3</ele>
        <time>2014-10-02T16:09:17Z</time>
      </trkpt>
      <trkpt lat="42.6246570" lon="-6.8430850">
        <ele>533.1</ele>
        <time>2014-10-02T16:09:18Z</time>
      </trkpt>
      <trkpt lat="42.6246150" lon="-6.8429830">
        <ele>532.9</ele>
        <time>2014-10-02T16:09:19Z</time>
      </trkpt>
      <trkpt lat="42.6245710" lon="-6.8428760">
        <ele>532.6</ele>
        <time>2014-10-02T16:09:20Z</time>
      </trkpt>
      <trkpt lat="42.6245280" lon="-6.8427720">
        <ele>532.4</ele>
        <time>2014-10-02T16:09:21Z</time>
      </trkpt>
      <trkpt lat="42.6244870" lon="-6.8426720">
        <ele>532.3</ele>
        <time>2014-10-02T16:09:22Z</time>
      </trkpt>
      <trkpt lat="42.6244430" lon="-6.8425680">
        <ele>532.1</ele>
        <time>2014-10-02T16:09:23Z</time>
      </trkpt>
      <trkpt lat="42.6243980" lon="-6.8424610">
        <ele>532.0</ele>
        <time>2014-10-02T16:09:24Z</time>
      </trkpt>
      <trkpt lat="42.6243550" lon="-6.8423580">
        <ele>531.8</ele>
        <time>2014-10-02T16:09:25Z</time>
      </trkpt>
      <trkpt lat="42.6243110" lon="-6.8422510">
        <ele>531.7</ele>
        <time>2014-10-02T16:09:26Z</time>
      </trkpt>
      <trkpt lat="42.6242640" lon="-6.8421410">
        <ele>531.6</ele>
        <time>2014-10-02T16:09:27Z</time>
      </trkpt>
      <trkpt lat="42.6242200" lon="-6.8420370">
        <ele>531.5</ele>
        <time>2014-10-02T16:09:28Z</time>
      </trkpt>
      <trkpt lat="42.6241760" lon="-6.8419340">
        <ele>531.5</ele>
        <time>2014-10-02T16:09:29Z</time>
      </trkpt>
      <trkpt lat="42.6241330" lon="-6.8418320">
        <ele>531.5</ele>
        <time>2014-10-02T16:09:30Z</time>
      </trkpt>
      <trkpt lat="42.6240900" lon="-6.8417290">
        <ele>531.5</ele>
        <time>2014-10-02T16:09:31Z</time>
      </trkpt>
      <trkpt lat="42.6240450" lon="-6.8416260">
        <ele>531.5</ele>
        <time>2014-10-02T16:09:32Z</time>
      </trkpt>
      <trkpt lat="42.6239980" lon="-6.8415240">
        <ele>531.5</ele>
        <time>2014-10-02T16:09:33Z</time>
      </trkpt>
      <trkpt lat="42.6239500" lon="-6.8414170">
        <ele>531.5</ele>
        <time>2014-10-02T16:09:34Z</time>
      </trkpt>
      <trkpt lat="42.6239010" lon="-6.8413100">
        <ele>531.4</ele>
        <time>2014-10-02T16:09:35Z</time>
      </trkpt>
      <trkpt lat="42.6238540" lon="-6.8412030">
        <ele>531.4</ele>
        <time>2014-10-02T16:09:36Z</time>
      </trkpt>
      <trkpt lat="42.6238070" lon="-6.8410990">
        <ele>531.3</ele>
        <time>2014-10-02T16:09:37Z</time>
      </trkpt>
      <trkpt lat="42.6237600" lon="-6.8409950">
        <ele>531.3</ele>
        <time>2014-10-02T16:09:38Z</time>
      </trkpt>
      <trkpt lat="42.6237130" lon="-6.8408940">
        <ele>531.3</ele>
        <time>2014-10-02T16:09:39Z</time>
      </trkpt>
      <trkpt lat="42.6236670" lon="-6.8407960">
        <ele>531.3</ele>
        <time>2014-10-02T16:09:40Z</time>
      </trkpt>
      <trkpt lat="42.6236190" lon="-6.8406930">
        <ele>531.3</ele>
        <time>2014-10-02T16:09:41Z</time>
      </trkpt>
      <trkpt lat="42.6235710" lon="-6.8405920">
        <ele>531.3</ele>
        <time>2014-10-02T16:09:42Z</time>
      </trkpt>
      <trkpt lat="42.6235240" lon="-6.8404930">
        <ele>531.3</ele>
        <time>2014-10-02T16:09:43Z</time>
      </trkpt>
      <trkpt lat="42.6234740" lon="-6.8403870">
        <ele>531.3</ele>
        <time>2014-10-02T16:09:44Z</time>
      </trkpt>
      <trkpt lat="42.6234290" lon="-6.8402910">
        <ele>531.2</ele>
        <time>2014-10-02T16:09:45Z</time>
      </trkpt>
      <trkpt lat="42.6233810" lon="-6.8401870">
        <ele>531.2</ele>
        <time>2014-10-02T16:09:46Z</time>
      </trkpt>
      <trkpt lat="42.6233340" lon="-6.8400810">
        <ele>531.2</ele>
        <time>2014-10-02T16:09:47Z</time>
      </trkpt>
      <trkpt lat="42.6232890" lon="-6.8399770">
        <ele>531.1</ele>
        <time>2014-10-02T16:09:48Z</time>
      </trkpt>
      <trkpt lat="42.6232420" lon="-6.8398700">
        <ele>531.1</ele>
        <time>2014-10-02T16:09:49Z</time>
      </trkpt>
      <trkpt lat="42.6231970" lon="-6.8397670">
        <ele>531.0</ele>
        <time>2014-10-02T16:09:50Z</time>
      </trkpt>
      <trkpt lat="42.6231540" lon="-6.8396650">
        <ele>531.0</ele>
        <time>2014-10-02T16:09:51Z</time>
      </trkpt>
      <trkpt lat="42.6231120" lon="-6.8395650">
        <ele>530.9</ele>
        <time>2014-10-02T16:09:52Z</time>
      </trkpt>
      <trkpt lat="42.6230670" lon="-6.8394570">
        <ele>530.9</ele>
        <time>2014-10-02T16:09:53Z</time>
      </trkpt>
      <trkpt lat="42.6230240" lon="-6.8393550">
        <ele>530.9</ele>
        <time>2014-10-02T16:09:54Z</time>
      </trkpt>
      <trkpt lat="42.6229850" lon="-6.8392610">
        <ele>530.9</ele>
        <time>2014-10-02T16:09:55Z</time>
      </trkpt>
      <trkpt lat="42.6229420" lon="-6.8391560">
        <ele>530.9</ele>
        <time>2014-10-02T16:09:56Z</time>
      </trkpt>
      <trkpt lat="42.6229020" lon="-6.8390570">
        <ele>531.0</ele>
        <time>2014-10-02T16:09:57Z</time>
      </trkpt>
      <trkpt lat="42.6228600" lon="-6.8389550">
        <ele>531.2</ele>
        <time>2014-10-02T16:09:58Z</time>
      </trkpt>
      <trkpt lat="42.6228180" lon="-6.8388530">
        <ele>531.4</ele>
        <time>2014-10-02T16:09:59Z</time>
      </trkpt>
      <trkpt lat="42.6227770" lon="-6.8387560">
        <ele>531.5</ele>
        <time>2014-10-02T16:10:00Z</time>
      </trkpt>
      <trkpt lat="42.6227380" lon="-6.8386630">
        <ele>531.5</ele>
        <time>2014-10-02T16:10:01Z</time>
      </trkpt>
      <trkpt lat="42.6226920" lon="-6.8385590">
        <ele>531.6</ele>
        <time>2014-10-02T16:10:02Z</time>
      </trkpt>
      <trkpt lat="42.6226470" lon="-6.8384590">
        <ele>531.6</ele>
        <time>2014-10-02T16:10:03Z</time>
      </trkpt>
      <trkpt lat="42.6226020" lon="-6.8383660">
        <ele>531.6</ele>
        <time>2014-10-02T16:10:04Z</time>
      </trkpt>
      <trkpt lat="42.6225470" lon="-6.8382710">
        <ele>531.6</ele>
        <time>2014-10-02T16:10:05Z</time>
      </trkpt>
      <trkpt lat="42.6224800" lon="-6.8381690">
        <ele>531.7</ele>
        <time>2014-10-02T16:10:06Z</time>
      </trkpt>
      <trkpt lat="42.6224070" lon="-6.8380750">
        <ele>531.8</ele>
        <time>2014-10-02T16:10:07Z</time>
      </trkpt>
      <trkpt lat="42.6223370" lon="-6.8380010">
        <ele>531.8</ele>
        <time>2014-10-02T16:10:08Z</time>
      </trkpt>
      <trkpt lat="42.6222580" lon="-6.8379340">
        <ele>531.8</ele>
        <time>2014-10-02T16:10:09Z</time>
      </trkpt>
      <trkpt lat="42.6221690" lon="-6.8378460">
        <ele>531.6</ele>
        <time>2014-10-02T16:10:10Z</time>
      </trkpt>
      <trkpt lat="42.6220830" lon="-6.8377620">
        <ele>531.5</ele>
        <time>2014-10-02T16:10:11Z</time>
      </trkpt>
      <trkpt lat="42.6220040" lon="-6.8376860">
        <ele>531.4</ele>
        <time>2014-10-02T16:10:12Z</time>
      </trkpt>
      <trkpt lat="42.6219270" lon="-6.8376230">
        <ele>531.4</ele>
        <time>2014-10-02T16:10:13Z</time>
      </trkpt>
      <trkpt lat="42.6218560" lon="-6.8375650">
        <ele>531.3</ele>
        <time>2014-10-02T16:10:14Z</time>
      </trkpt>
      <trkpt lat="42.6217810" lon="-6.8375120">
        <ele>531.2</ele>
        <time>2014-10-02T16:10:15Z</time>
      </trkpt>
      <trkpt lat="42.6217020" lon="-6.8374600">
        <ele>531.2</ele>
        <time>2014-10-02T16:10:16Z</time>
      </trkpt>
      <trkpt lat="42.6216240" lon="-6.8374150">
        <ele>531.1</ele>
        <time>2014-10-02T16:10:17Z</time>
      </trkpt>
      <trkpt lat="42.6215440" lon="-6.8373680">
        <ele>531.1</ele>
        <time>2014-10-02T16:10:18Z</time>
      </trkpt>
      <trkpt lat="42.6214690" lon="-6.8373230">
        <ele>531.1</ele>
        <time>2014-10-02T16:10:19Z</time>
      </trkpt>
      <trkpt lat="42.6213980" lon="-6.8372740">
        <ele>531.1</ele>
        <time>2014-10-02T16:10:20Z</time>
      </trkpt>
      <trkpt lat="42.6213290" lon="-6.8372190">
        <ele>531.0</ele>
        <time>2014-10-02T16:10:21Z</time>
      </trkpt>
      <trkpt lat="42.6212590" lon="-6.8371550">
        <ele>530.9</ele>
        <time>2014-10-02T16:10:22Z</time>
      </trkpt>
      <trkpt lat="42.6212020" lon="-6.8370680">
        <ele>530.9</ele>
        <time>2014-10-02T16:10:23Z</time>
      </trkpt>
      <trkpt lat="42.6211430" lon="-6.8369740">
        <ele>530.8</ele>
        <time>2014-10-02T16:10:24Z</time>
      </trkpt>
      <trkpt lat="42.6210940" lon="-6.8368830">
        <ele>530.7</ele>
        <time>2014-10-02T16:10:25Z</time>
      </trkpt>
      <trkpt lat="42.6210480" lon="-6.8367840">
        <ele>530.6</ele>
        <time>2014-10-02T16:10:26Z</time>
      </trkpt>
      <trkpt lat="42.6210190" lon="-6.8366680">
        <ele>530.6</ele>
        <time>2014-10-02T16:10:27Z</time>
      </trkpt>
      <trkpt lat="42.6209970" lon="-6.8365530">
        <ele>530.5</ele>
        <time>2014-10-02T16:10:28Z</time>
      </trkpt>
      <trkpt lat="42.6209830" lon="-6.8364320">
        <ele>530.4</ele>
        <time>2014-10-02T16:10:29Z</time>
      </trkpt>
      <trkpt lat="42.6209890" lon="-6.8363060">
        <ele>530.2</ele>
        <time>2014-10-02T16:10:30Z</time>
      </trkpt>
      <trkpt lat="42.6209960" lon="-6.8361810">
        <ele>530.1</ele>
        <time>2014-10-02T16:10:31Z</time>
      </trkpt>
      <trkpt lat="42.6210070" lon="-6.8360510">
        <ele>530.0</ele>
        <time>2014-10-02T16:10:32Z</time>
      </trkpt>
      <trkpt lat="42.6210230" lon="-6.8359290">
        <ele>529.9</ele>
        <time>2014-10-02T16:10:33Z</time>
      </trkpt>
      <trkpt lat="42.6210450" lon="-6.8358020">
        <ele>529.8</ele>
        <time>2014-10-02T16:10:34Z</time>
      </trkpt>
      <trkpt lat="42.6210940" lon="-6.8356880">
        <ele>529.6</ele>
        <time>2014-10-02T16:10:35Z</time>
      </trkpt>
      <trkpt lat="42.6211440" lon="-6.8355760">
        <ele>529.4</ele>
        <time>2014-10-02T16:10:36Z</time>
      </trkpt>
      <trkpt lat="42.6211950" lon="-6.8354730">
        <ele>529.2</ele>
        <time>2014-10-02T16:10:37Z</time>
      </trkpt>
      <trkpt lat="42.6212660" lon="-6.8353840">
        <ele>528.9</ele>
        <time>2014-10-02T16:10:38Z</time>
      </trkpt>
      <trkpt lat="42.6213330" lon="-6.8353030">
        <ele>528.7</ele>
        <time>2014-10-02T16:10:39Z</time>
      </trkpt>
      <trkpt lat="42.6214070" lon="-6.8352140">
        <ele>528.4</ele>
        <time>2014-10-02T16:10:40Z</time>
      </trkpt>
      <trkpt lat="42.6214810" lon="-6.8351340">
        <ele>528.2</ele>
        <time>2014-10-02T16:10:41Z</time>
      </trkpt>
      <trkpt lat="42.6215580" lon="-6.8350600">
        <ele>527.9</ele>
        <time>2014-10-02T16:10:42Z</time>
      </trkpt>
      <trkpt lat="42.6216250" lon="-6.8349950">
        <ele>527.7</ele>
        <time>2014-10-02T16:10:43Z</time>
      </trkpt>
      <trkpt lat="42.6216990" lon="-6.8349290">
        <ele>527.4</ele>
        <time>2014-10-02T16:10:44Z</time>
      </trkpt>
      <trkpt lat="42.6217810" lon="-6.8348510">
        <ele>527.2</ele>
        <time>2014-10-02T16:10:45Z</time>
      </trkpt>
      <trkpt lat="42.6218710" lon="-6.8347600">
        <ele>526.9</ele>
        <time>2014-10-02T16:10:46Z</time>
      </trkpt>
      <trkpt lat="42.6219530" lon="-6.8346720">
        <ele>526.5</ele>
        <time>2014-10-02T16:10:47Z</time>
      </trkpt>
      <trkpt lat="42.6220350" lon="-6.8345850">
        <ele>526.2</ele>
        <time>2014-10-02T16:10:48Z</time>
      </trkpt>
      <trkpt lat="42.6221150" lon="-6.8345000">
        <ele>526.1</ele>
        <time>2014-10-02T16:10:49Z</time>
      </trkpt>
      <trkpt lat="42.6221950" lon="-6.8344130">
        <ele>525.9</ele>
        <time>2014-10-02T16:10:50Z</time>
      </trkpt>
      <trkpt lat="42.6222740" lon="-6.8343270">
        <ele>525.7</ele>
        <time>2014-10-02T16:10:51Z</time>
      </trkpt>
      <trkpt lat="42.6223510" lon="-6.8342440">
        <ele>525.5</ele>
        <time>2014-10-02T16:10:52Z</time>
      </trkpt>
      <trkpt lat="42.6224250" lon="-6.8341620">
        <ele>525.3</ele>
        <time>2014-10-02T16:10:53Z</time>
      </trkpt>
      <trkpt lat="42.6224990" lon="-6.8340770">
        <ele>525.2</ele>
        <time>2014-10-02T16:10:54Z</time>
      </trkpt>
      <trkpt lat="42.6225720" lon="-6.8339840">
        <ele>525.1</ele>
        <time>2014-10-02T16:10:55Z</time>
      </trkpt>
      <trkpt lat="42.6226440" lon="-6.8338880">
        <ele>524.9</ele>
        <time>2014-10-02T16:10:56Z</time>
      </trkpt>
      <trkpt lat="42.6227100" lon="-6.8337900">
        <ele>524.8</ele>
        <time>2014-10-02T16:10:57Z</time>
      </trkpt>
      <trkpt lat="42.6227730" lon="-6.8336910">
        <ele>524.7</ele>
        <time>2014-10-02T16:10:58Z</time>
      </trkpt>
      <trkpt lat="42.6228270" lon="-6.8335950">
        <ele>524.6</ele>
        <time>2014-10-02T16:10:59Z</time>
      </trkpt>
      <trkpt lat="42.6228820" lon="-6.8334940">
        <ele>524.5</ele>
        <time>2014-10-02T16:11:00Z</time>
      </trkpt>
      <trkpt lat="42.6229370" lon="-6.8333860">
        <ele>524.5</ele>
        <time>2014-10-02T16:11:01Z</time>
      </trkpt>
      <trkpt lat="42.6229850" lon="-6.8332820">
        <ele>524.4</ele>
        <time>2014-10-02T16:11:02Z</time>
      </trkpt>
      <trkpt lat="42.6230320" lon="-6.8331660">
        <ele>524.3</ele>
        <time>2014-10-02T16:11:03Z</time>
      </trkpt>
      <trkpt lat="42.6230740" lon="-6.8330520">
        <ele>524.3</ele>
        <time>2014-10-02T16:11:04Z</time>
      </trkpt>
      <trkpt lat="42.6231120" lon="-6.8329380">
        <ele>524.2</ele>
        <time>2014-10-02T16:11:05Z</time>
      </trkpt>
      <trkpt lat="42.6231470" lon="-6.8328230">
        <ele>524.1</ele>
        <time>2014-10-02T16:11:06Z</time>
      </trkpt>
      <trkpt lat="42.6231760" lon="-6.8327040">
        <ele>524.1</ele>
        <time>2014-10-02T16:11:07Z</time>
      </trkpt>
      <trkpt lat="42.6232050" lon="-6.8325810">
        <ele>524.1</ele>
        <time>2014-10-02T16:11:08Z</time>
      </trkpt>
      <trkpt lat="42.6232280" lon="-6.8324650">
        <ele>524.1</ele>
        <time>2014-10-02T16:11:09Z</time>
      </trkpt>
      <trkpt lat="42.6232510" lon="-6.8323490">
        <ele>524.1</ele>
        <time>2014-10-02T16:11:10Z</time>
      </trkpt>
      <trkpt lat="42.6232680" lon="-6.8322400">
        <ele>524.1</ele>
        <time>2014-10-02T16:11:11Z</time>
      </trkpt>
      <trkpt lat="42.6232850" lon="-6.8321270">
        <ele>524.2</ele>
        <time>2014-10-02T16:11:12Z</time>
      </trkpt>
      <trkpt lat="42.6233050" lon="-6.8319990">
        <ele>524.2</ele>
        <time>2014-10-02T16:11:13Z</time>
      </trkpt>
      <trkpt lat="42.6233210" lon="-6.8318810">
        <ele>524.2</ele>
        <time>2014-10-02T16:11:14Z</time>
      </trkpt>
      <trkpt lat="42.6233350" lon="-6.8317620">
        <ele>524.2</ele>
        <time>2014-10-02T16:11:15Z</time>
      </trkpt>
      <trkpt lat="42.6233460" lon="-6.8316490">
        <ele>524.2</ele>
        <time>2014-10-02T16:11:16Z</time>
      </trkpt>
      <trkpt lat="42.6233550" lon="-6.8315420">
        <ele>524.2</ele>
        <time>2014-10-02T16:11:17Z</time>
      </trkpt>
      <trkpt lat="42.6233660" lon="-6.8314260">
        <ele>524.2</ele>
        <time>2014-10-02T16:11:18Z</time>
      </trkpt>
      <trkpt lat="42.6233740" lon="-6.8312980">
        <ele>524.3</ele>
        <time>2014-10-02T16:11:19Z</time>
      </trkpt>
      <trkpt lat="42.6233790" lon="-6.8311740">
        <ele>524.2</ele>
        <time>2014-10-02T16:11:20Z</time>
      </trkpt>
      <trkpt lat="42.6233790" lon="-6.8310620">
        <ele>524.2</ele>
        <time>2014-10-02T16:11:21Z</time>
      </trkpt>
      <trkpt lat="42.6233750" lon="-6.8309460">
        <ele>524.2</ele>
        <time>2014-10-02T16:11:22Z</time>
      </trkpt>
      <trkpt lat="42.6233600" lon="-6.8308280">
        <ele>524.3</ele>
        <time>2014-10-02T16:11:23Z</time>
      </trkpt>
      <trkpt lat="42.6233380" lon="-6.8307090">
        <ele>524.3</ele>
        <time>2014-10-02T16:11:24Z</time>
      </trkpt>
      <trkpt lat="42.6232980" lon="-6.8305880">
        <ele>524.4</ele>
        <time>2014-10-02T16:11:25Z</time>
      </trkpt>
      <trkpt lat="42.6232560" lon="-6.8304690">
        <ele>524.5</ele>
        <time>2014-10-02T16:11:26Z</time>
      </trkpt>
      <trkpt lat="42.6232140" lon="-6.8303610">
        <ele>524.6</ele>
        <time>2014-10-02T16:11:27Z</time>
      </trkpt>
      <trkpt lat="42.6231650" lon="-6.8302580">
        <ele>524.6</ele>
        <time>2014-10-02T16:11:28Z</time>
      </trkpt>
      <trkpt lat="42.6231170" lon="-6.8301720">
        <ele>524.7</ele>
        <time>2014-10-02T16:11:29Z</time>
      </trkpt>
      <trkpt lat="42.6230660" lon="-6.8300900">
        <ele>524.7</ele>
        <time>2014-10-02T16:11:30Z</time>
      </trkpt>
      <trkpt lat="42.6230110" lon="-6.8300080">
        <ele>524.7</ele>
        <time>2014-10-02T16:11:31Z</time>
      </trkpt>
      <trkpt lat="42.6229520" lon="-6.8299300">
        <ele>524.6</ele>
        <time>2014-10-02T16:11:32Z</time>
      </trkpt>
      <trkpt lat="42.6228840" lon="-6.8298700">
        <ele>524.6</ele>
        <time>2014-10-02T16:11:33Z</time>
      </trkpt>
      <trkpt lat="42.6228070" lon="-6.8298030">
        <ele>524.5</ele>
        <time>2014-10-02T16:11:34Z</time>
      </trkpt>
      <trkpt lat="42.6227360" lon="-6.8297510">
        <ele>524.4</ele>
        <time>2014-10-02T16:11:35Z</time>
      </trkpt>
      <trkpt lat="42.6226620" lon="-6.8297060">
        <ele>524.3</ele>
        <time>2014-10-02T16:11:36Z</time>
      </trkpt>
      <trkpt lat="42.6225930" lon="-6.8296750">
        <ele>524.2</ele>
        <time>2014-10-02T16:11:37Z</time>
      </trkpt>
      <trkpt lat="42.6225150" lon="-6.8296460">
        <ele>524.1</ele>
        <time>2014-10-02T16:11:38Z</time>
      </trkpt>
      <trkpt lat="42.6224440" lon="-6.8296410">
        <ele>523.9</ele>
        <time>2014-10-02T16:11:39Z</time>
      </trkpt>
      <trkpt lat="42.6223630" lon="-6.8296370">
        <ele>523.8</ele>
        <time>2014-10-02T16:11:40Z</time>
      </trkpt>
      <trkpt lat="42.6222850" lon="-6.8296590">
        <ele>523.6</ele>
        <time>2014-10-02T16:11:41Z</time>
      </trkpt>
      <trkpt lat="42.6221920" lon="-6.8296820">
        <ele>523.5</ele>
        <time>2014-10-02T16:11:42Z</time>
      </trkpt>
      <trkpt lat="42.6221150" lon="-6.8297030">
        <ele>523.4</ele>
        <time>2014-10-02T16:11:43Z</time>
      </trkpt>
      <trkpt lat="42.6220300" lon="-6.8297390">
        <ele>523.3</ele>
        <time>2014-10-02T16:11:44Z</time>
      </trkpt>
      <trkpt lat="42.6219440" lon="-6.8297790">
        <ele>523.2</ele>
        <time>2014-10-02T16:11:45Z</time>
      </trkpt>
      <trkpt lat="42.6218650" lon="-6.8298270">
        <ele>523.2</ele>
        <time>2014-10-02T16:11:46Z</time>
      </trkpt>
      <trkpt lat="42.6217840" lon="-6.8298790">
        <ele>523.1</ele>
        <time>2014-10-02T16:11:47Z</time>
      </trkpt>
      <trkpt lat="42.6217120" lon="-6.8299330">
        <ele>523.2</ele>
        <time>2014-10-02T16:11:48Z</time>
      </trkpt>
      <trkpt lat="42.6216460" lon="-6.8299910">
        <ele>523.2</ele>
        <time>2014-10-02T16:11:49Z</time>
      </trkpt>
      <trkpt lat="42.6215790" lon="-6.8300530">
        <ele>523.2</ele>
        <time>2014-10-02T16:11:50Z</time>
      </trkpt>
      <trkpt lat="42.6215090" lon="-6.8301170">
        <ele>523.3</ele>
        <time>2014-10-02T16:11:51Z</time>
      </trkpt>
      <trkpt lat="42.6214410" lon="-6.8301800">
        <ele>523.4</ele>
        <time>2014-10-02T16:11:52Z</time>
      </trkpt>
      <trkpt lat="42.6213730" lon="-6.8302420">
        <ele>523.5</ele>
        <time>2014-10-02T16:11:53Z</time>
      </trkpt>
      <trkpt lat="42.6213130" lon="-6.8303040">
        <ele>523.6</ele>
        <time>2014-10-02T16:11:54Z</time>
      </trkpt>
      <trkpt lat="42.6212500" lon="-6.8303690">
        <ele>523.7</ele>
        <time>2014-10-02T16:11:55Z</time>
      </trkpt>
      <trkpt lat="42.6211840" lon="-6.8304290">
        <ele>523.9</ele>
        <time>2014-10-02T16:11:56Z</time>
      </trkpt>
      <trkpt lat="42.6211170" lon="-6.8304880">
        <ele>524.2</ele>
        <time>2014-10-02T16:11:57Z</time>
      </trkpt>
      <trkpt lat="42.6210520" lon="-6.8305390">
        <ele>524.5</ele>
        <time>2014-10-02T16:11:58Z</time>
      </trkpt>
      <trkpt lat="42.6209760" lon="-6.8305830">
        <ele>524.8</ele>
        <time>2014-10-02T16:11:59Z</time>
      </trkpt>
      <trkpt lat="42.6208930" lon="-6.8306190">
        <ele>525.1</ele>
        <time>2014-10-02T16:12:00Z</time>
      </trkpt>
      <trkpt lat="42.6208020" lon="-6.8306490">
        <ele>525.4</ele>
        <time>2014-10-02T16:12:01Z</time>
      </trkpt>
      <trkpt lat="42.6207100" lon="-6.8306640">
        <ele>525.8</ele>
        <time>2014-10-02T16:12:02Z</time>
      </trkpt>
      <trkpt lat="42.6206230" lon="-6.8306710">
        <ele>526.1</ele>
        <time>2014-10-02T16:12:03Z</time>
      </trkpt>
      <trkpt lat="42.6205380" lon="-6.8306760">
        <ele>526.4</ele>
        <time>2014-10-02T16:12:04Z</time>
      </trkpt>
      <trkpt lat="42.6204610" lon="-6.8306780">
        <ele>526.6</ele>
        <time>2014-10-02T16:12:05Z</time>
      </trkpt>
      <trkpt lat="42.6203880" lon="-6.8306590">
        <ele>526.9</ele>
        <time>2014-10-02T16:12:06Z</time>
      </trkpt>
      <trkpt lat="42.6203220" lon="-6.8306400">
        <ele>527.1</ele>
        <time>2014-10-02T16:12:07Z</time>
      </trkpt>
      <trkpt lat="42.6202590" lon="-6.8306180">
        <ele>527.3</ele>
        <time>2014-10-02T16:12:08Z</time>
      </trkpt>
      <trkpt lat="42.6202060" lon="-6.8305960">
        <ele>527.5</ele>
        <time>2014-10-02T16:12:09Z</time>
      </trkpt>
      <trkpt lat="42.6201450" lon="-6.8305710">
        <ele>527.7</ele>
        <time>2014-10-02T16:12:10Z</time>
      </trkpt>
      <trkpt lat="42.6200800" lon="-6.8305420">
        <ele>527.9</ele>
        <time>2014-10-02T16:12:11Z</time>
      </trkpt>
      <trkpt lat="42.6200230" lon="-6.8305130">
        <ele>528.0</ele>
        <time>2014-10-02T16:12:12Z</time>
      </trkpt>
      <trkpt lat="42.6199710" lon="-6.8304840">
        <ele>528.2</ele>
        <time>2014-10-02T16:12:13Z</time>
      </trkpt>
      <trkpt lat="42.6199160" lon="-6.8304520">
        <ele>528.4</ele>
        <time>2014-10-02T16:12:14Z</time>
      </trkpt>
      <trkpt lat="42.6198590" lon="-6.8304190">
        <ele>528.5</ele>
        <time>2014-10-02T16:12:15Z</time>
      </trkpt>
      <trkpt lat="42.6198040" lon="-6.8303880">
        <ele>528.7</ele>
        <time>2014-10-02T16:12:16Z</time>
      </trkpt>
      <trkpt lat="42.6197490" lon="-6.8303600">
        <ele>528.8</ele>
        <time>2014-10-02T16:12:17Z</time>
      </trkpt>
      <trkpt lat="42.6196950" lon="-6.8303310">
        <ele>529.0</ele>
        <time>2014-10-02T16:12:18Z</time>
      </trkpt>
      <trkpt lat="42.6196400" lon="-6.8303020">
        <ele>529.1</ele>
        <time>2014-10-02T16:12:19Z</time>
      </trkpt>
      <trkpt lat="42.6195850" lon="-6.8302720">
        <ele>529.2</ele>
        <time>2014-10-02T16:12:20Z</time>
      </trkpt>
      <trkpt lat="42.6195340" lon="-6.8302420">
        <ele>529.3</ele>
        <time>2014-10-02T16:12:21Z</time>
      </trkpt>
      <trkpt lat="42.6194860" lon="-6.8302140">
        <ele>529.4</ele>
        <time>2014-10-02T16:12:22Z</time>
      </trkpt>
      <trkpt lat="42.6194360" lon="-6.8301870">
        <ele>529.5</ele>
        <time>2014-10-02T16:12:23Z</time>
      </trkpt>
      <trkpt lat="42.6193770" lon="-6.8301580">
        <ele>529.6</ele>
        <time>2014-10-02T16:12:24Z</time>
      </trkpt>
      <trkpt lat="42.6193230" lon="-6.8301310">
        <ele>529.7</ele>
        <time>2014-10-02T16:12:25Z</time>
      </trkpt>
      <trkpt lat="42.6192710" lon="-6.8301060">
        <ele>529.8</ele>
        <time>2014-10-02T16:12:26Z</time>
      </trkpt>
      <trkpt lat="42.6192170" lon="-6.8300800">
        <ele>529.9</ele>
        <time>2014-10-02T16:12:27Z</time>
      </trkpt>
      <trkpt lat="42.6191640" lon="-6.8300540">
        <ele>529.9</ele>
        <time>2014-10-02T16:12:28Z</time>
      </trkpt>
      <trkpt lat="42.6191090" lon="-6.8300280">
        <ele>530.0</ele>
        <time>2014-10-02T16:12:29Z</time>
      </trkpt>
      <trkpt lat="42.6190500" lon="-6.8300010">
        <ele>530.1</ele>
        <time>2014-10-02T16:12:30Z</time>
      </trkpt>
      <trkpt lat="42.6189940" lon="-6.8299730">
        <ele>530.2</ele>
        <time>2014-10-02T16:12:31Z</time>
      </trkpt>
      <trkpt lat="42.6189380" lon="-6.8299460">
        <ele>530.2</ele>
        <time>2014-10-02T16:12:32Z</time>
      </trkpt>
      <trkpt lat="42.6188800" lon="-6.8299160">
        <ele>530.3</ele>
        <time>2014-10-02T16:12:33Z</time>
      </trkpt>
      <trkpt lat="42.6188190" lon="-6.8298850">
        <ele>530.3</ele>
        <time>2014-10-02T16:12:34Z</time>
      </trkpt>
      <trkpt lat="42.6187590" lon="-6.8298530">
        <ele>530.4</ele>
        <time>2014-10-02T16:12:35Z</time>
      </trkpt>
      <trkpt lat="42.6186950" lon="-6.8298180">
        <ele>530.5</ele>
        <time>2014-10-02T16:12:36Z</time>
      </trkpt>
      <trkpt lat="42.6186380" lon="-6.8297820">
        <ele>530.5</ele>
        <time>2014-10-02T16:12:37Z</time>
      </trkpt>
      <trkpt lat="42.6185850" lon="-6.8297480">
        <ele>530.6</ele>
        <time>2014-10-02T16:12:38Z</time>
      </trkpt>
      <trkpt lat="42.6185270" lon="-6.8297080">
        <ele>530.6</ele>
        <time>2014-10-02T16:12:39Z</time>
      </trkpt>
      <trkpt lat="42.6184660" lon="-6.8296670">
        <ele>530.6</ele>
        <time>2014-10-02T16:12:40Z</time>
      </trkpt>
      <trkpt lat="42.6184140" lon="-6.8296270">
        <ele>530.6</ele>
        <time>2014-10-02T16:12:41Z</time>
      </trkpt>
      <trkpt lat="42.6183600" lon="-6.8295850">
        <ele>530.6</ele>
        <time>2014-10-02T16:12:42Z</time>
      </trkpt>
      <trkpt lat="42.6183040" lon="-6.8295330">
        <ele>530.6</ele>
        <time>2014-10-02T16:12:43Z</time>
      </trkpt>
      <trkpt lat="42.6182500" lon="-6.8294730">
        <ele>530.5</ele>
        <time>2014-10-02T16:12:44Z</time>
      </trkpt>
      <trkpt lat="42.6182000" lon="-6.8294110">
        <ele>530.4</ele>
        <time>2014-10-02T16:12:45Z</time>
      </trkpt>
      <trkpt lat="42.6181500" lon="-6.8293410">
        <ele>530.3</ele>
        <time>2014-10-02T16:12:46Z</time>
      </trkpt>
      <trkpt lat="42.6181000" lon="-6.8292660">
        <ele>530.2</ele>
        <time>2014-10-02T16:12:47Z</time>
      </trkpt>
      <trkpt lat="42.6180510" lon="-6.8291840">
        <ele>530.0</ele>
        <time>2014-10-02T16:12:48Z</time>
      </trkpt>
      <trkpt lat="42.6180100" lon="-6.8291050">
        <ele>529.9</ele>
        <time>2014-10-02T16:12:49Z</time>
      </trkpt>
      <trkpt lat="42.6179730" lon="-6.8290250">
        <ele>529.8</ele>
        <time>2014-10-02T16:12:50Z</time>
      </trkpt>
      <trkpt lat="42.6179380" lon="-6.8289420">
        <ele>529.6</ele>
        <time>2014-10-02T16:12:51Z</time>
      </trkpt>
      <trkpt lat="42.6179010" lon="-6.8288460">
        <ele>529.4</ele>
        <time>2014-10-02T16:12:52Z</time>
      </trkpt>
      <trkpt lat="42.6178610" lon="-6.8287410">
        <ele>529.3</ele>
        <time>2014-10-02T16:12:53Z</time>
      </trkpt>
      <trkpt lat="42.6178270" lon="-6.8286400">
        <ele>529.1</ele>
        <time>2014-10-02T16:12:54Z</time>
      </trkpt>
      <trkpt lat="42.6177950" lon="-6.8285470">
        <ele>529.0</ele>
        <time>2014-10-02T16:12:55Z</time>
      </trkpt>
      <trkpt lat="42.6177590" lon="-6.8284460">
        <ele>528.9</ele>
        <time>2014-10-02T16:12:56Z</time>
      </trkpt>
      <trkpt lat="42.6177260" lon="-6.8283460">
        <ele>528.7</ele>
        <time>2014-10-02T16:12:57Z</time>
      </trkpt>
      <trkpt lat="42.6176900" lon="-6.8282380">
        <ele>528.5</ele>
        <time>2014-10-02T16:12:58Z</time>
      </trkpt>
      <trkpt lat="42.6176570" lon="-6.8281280">
        <ele>528.3</ele>
        <time>2014-10-02T16:12:59Z</time>
      </trkpt>
      <trkpt lat="42.6176240" lon="-6.8280240">
        <ele>528.1</ele>
        <time>2014-10-02T16:13:00Z</time>
      </trkpt>
      <trkpt lat="42.6175920" lon="-6.8279250">
        <ele>527.9</ele>
        <time>2014-10-02T16:13:01Z</time>
      </trkpt>
      <trkpt lat="42.6175590" lon="-6.8278230">
        <ele>527.6</ele>
        <time>2014-10-02T16:13:02Z</time>
      </trkpt>
      <trkpt lat="42.6175250" lon="-6.8277220">
        <ele>527.3</ele>
        <time>2014-10-02T16:13:03Z</time>
      </trkpt>
      <trkpt lat="42.6174890" lon="-6.8276220">
        <ele>527.0</ele>
        <time>2014-10-02T16:13:04Z</time>
      </trkpt>
      <trkpt lat="42.6174500" lon="-6.8275180">
        <ele>526.7</ele>
        <time>2014-10-02T16:13:05Z</time>
      </trkpt>
      <trkpt lat="42.6174090" lon="-6.8274140">
        <ele>526.3</ele>
        <time>2014-10-02T16:13:06Z</time>
      </trkpt>
      <trkpt lat="42.6173640" lon="-6.8273010">
        <ele>526.0</ele>
        <time>2014-10-02T16:13:07Z</time>
      </trkpt>
      <trkpt lat="42.6173150" lon="-6.8271930">
        <ele>525.6</ele>
        <time>2014-10-02T16:13:08Z</time>
      </trkpt>
      <trkpt lat="42.6172670" lon="-6.8270870">
        <ele>525.1</ele>
        <time>2014-10-02T16:13:09Z</time>
      </trkpt>
      <trkpt lat="42.6172180" lon="-6.8269880">
        <ele>524.7</ele>
        <time>2014-10-02T16:13:10Z</time>
      </trkpt>
      <trkpt lat="42.6171620" lon="-6.8268800">
        <ele>524.3</ele>
        <time>2014-10-02T16:13:11Z</time>
      </trkpt>
      <trkpt lat="42.6170990" lon="-6.8267620">
        <ele>523.8</ele>
        <time>2014-10-02T16:13:12Z</time>
      </trkpt>
      <trkpt lat="42.6170340" lon="-6.8266440">
        <ele>523.3</ele>
        <time>2014-10-02T16:13:13Z</time>
      </trkpt>
      <trkpt lat="42.6169670" lon="-6.8265280">
        <ele>522.9</ele>
        <time>2014-10-02T16:13:14Z</time>
      </trkpt>
      <trkpt lat="42.6168990" lon="-6.8264150">
        <ele>522.5</ele>
        <time>2014-10-02T16:13:15Z</time>
      </trkpt>
      <trkpt lat="42.6168320" lon="-6.8263060">
        <ele>522.2</ele>
        <time>2014-10-02T16:13:16Z</time>
      </trkpt>
      <trkpt lat="42.6167650" lon="-6.8262030">
        <ele>521.8</ele>
        <time>2014-10-02T16:13:17Z</time>
      </trkpt>
      <trkpt lat="42.6166930" lon="-6.8261000">
        <ele>521.4</ele>
        <time>2014-10-02T16:13:18Z</time>
      </trkpt>
      <trkpt lat="42.6166160" lon="-6.8259970">
        <ele>521.1</ele>
        <time>2014-10-02T16:13:19Z</time>
      </trkpt>
      <trkpt lat="42.6165330" lon="-6.8258930">
        <ele>520.9</ele>
        <time>2014-10-02T16:13:20Z</time>
      </trkpt>
      <trkpt lat="42.6164510" lon="-6.8257950">
        <ele>520.6</ele>
        <time>2014-10-02T16:13:21Z</time>
      </trkpt>
      <trkpt lat="42.6163650" lon="-6.8257000">
        <ele>520.3</ele>
        <time>2014-10-02T16:13:22Z</time>
      </trkpt>
      <trkpt lat="42.6162820" lon="-6.8256140">
        <ele>520.0</ele>
        <time>2014-10-02T16:13:23Z</time>
      </trkpt>
      <trkpt lat="42.6162000" lon="-6.8255260">
        <ele>519.8</ele>
        <time>2014-10-02T16:13:24Z</time>
      </trkpt>
      <trkpt lat="42.6161110" lon="-6.8254420">
        <ele>519.6</ele>
        <time>2014-10-02T16:13:25Z</time>
      </trkpt>
      <trkpt lat="42.6160210" lon="-6.8253600">
        <ele>519.5</ele>
        <time>2014-10-02T16:13:26Z</time>
      </trkpt>
      <trkpt lat="42.6159320" lon="-6.8252800">
        <ele>519.3</ele>
        <time>2014-10-02T16:13:27Z</time>
      </trkpt>
      <trkpt lat="42.6158430" lon="-6.8252080">
        <ele>519.1</ele>
        <time>2014-10-02T16:13:28Z</time>
      </trkpt>
      <trkpt lat="42.6157590" lon="-6.8251470">
        <ele>519.0</ele>
        <time>2014-10-02T16:13:29Z</time>
      </trkpt>
      <trkpt lat="42.6156770" lon="-6.8250900">
        <ele>518.8</ele>
        <time>2014-10-02T16:13:30Z</time>
      </trkpt>
      <trkpt lat="42.6155870" lon="-6.8250230">
        <ele>518.6</ele>
        <time>2014-10-02T16:13:31Z</time>
      </trkpt>
      <trkpt lat="42.6154920" lon="-6.8249520">
        <ele>518.4</ele>
        <time>2014-10-02T16:13:32Z</time>
      </trkpt>
      <trkpt lat="42.6154000" lon="-6.8248800">
        <ele>518.1</ele>
        <time>2014-10-02T16:13:33Z</time>
      </trkpt>
      <trkpt lat="42.6153120" lon="-6.8248050">
        <ele>517.9</ele>
        <time>2014-10-02T16:13:34Z</time>
      </trkpt>
      <trkpt lat="42.6152360" lon="-6.8247270">
        <ele>517.7</ele>
        <time>2014-10-02T16:13:35Z</time>
      </trkpt>
      <trkpt lat="42.6151720" lon="-6.8246180">
        <ele>517.5</ele>
        <time>2014-10-02T16:13:36Z</time>
      </trkpt>
      <trkpt lat="42.6151090" lon="-6.8245020">
        <ele>517.3</ele>
        <time>2014-10-02T16:13:37Z</time>
      </trkpt>
      <trkpt lat="42.6150510" lon="-6.8243840">
        <ele>517.0</ele>
        <time>2014-10-02T16:13:38Z</time>
      </trkpt>
      <trkpt lat="42.6149980" lon="-6.8242610">
        <ele>516.8</ele>
        <time>2014-10-02T16:13:39Z</time>
      </trkpt>
      <trkpt lat="42.6149570" lon="-6.8241420">
        <ele>516.6</ele>
        <time>2014-10-02T16:13:40Z</time>
      </trkpt>
      <trkpt lat="42.6149260" lon="-6.8239940">
        <ele>516.3</ele>
        <time>2014-10-02T16:13:41Z</time>
      </trkpt>
      <trkpt lat="42.6148930" lon="-6.8238310">
        <ele>516.0</ele>
        <time>2014-10-02T16:13:42Z</time>
      </trkpt>
      <trkpt lat="42.6148720" lon="-6.8236730">
        <ele>515.8</ele>
        <time>2014-10-02T16:13:43Z</time>
      </trkpt>
      <trkpt lat="42.6148580" lon="-6.8235130">
        <ele>515.5</ele>
        <time>2014-10-02T16:13:44Z</time>
      </trkpt>
      <trkpt lat="42.6148540" lon="-6.8233750">
        <ele>515.4</ele>
        <time>2014-10-02T16:13:45Z</time>
      </trkpt>
      <trkpt lat="42.6148760" lon="-6.8232440">
        <ele>515.2</ele>
        <time>2014-10-02T16:13:46Z</time>
      </trkpt>
      <trkpt lat="42.6148970" lon="-6.8231080">
        <ele>514.8</ele>
        <time>2014-10-02T16:13:47Z</time>
      </trkpt>
      <trkpt lat="42.6149210" lon="-6.8229670">
        <ele>514.4</ele>
        <time>2014-10-02T16:13:48Z</time>
      </trkpt>
      <trkpt lat="42.6149440" lon="-6.8228340">
        <ele>514.2</ele>
        <time>2014-10-02T16:13:49Z</time>
      </trkpt>
      <trkpt lat="42.6149680" lon="-6.8226950">
        <ele>513.9</ele>
        <time>2014-10-02T16:13:50Z</time>
      </trkpt>
      <trkpt lat="42.6149920" lon="-6.8225590">
        <ele>513.6</ele>
        <time>2014-10-02T16:13:51Z</time>
      </trkpt>
      <trkpt lat="42.6150160" lon="-6.8224150">
        <ele>513.4</ele>
        <time>2014-10-02T16:13:52Z</time>
      </trkpt>
      <trkpt lat="42.6150300" lon="-6.8222700">
        <ele>513.2</ele>
        <time>2014-10-02T16:13:53Z</time>
      </trkpt>
      <trkpt lat="42.6150360" lon="-6.8221270">
        <ele>513.0</ele>
        <time>2014-10-02T16:13:54Z</time>
      </trkpt>
      <trkpt lat="42.6150350" lon="-6.8219760">
        <ele>512.7</ele>
        <time>2014-10-02T16:13:55Z</time>
      </trkpt>
      <trkpt lat="42.6150060" lon="-6.8218230">
        <ele>512.5</ele>
        <time>2014-10-02T16:13:56Z</time>
      </trkpt>
      <trkpt lat="42.6149790" lon="-6.8216920">
        <ele>512.3</ele>
        <time>2014-10-02T16:13:57Z</time>
      </trkpt>
      <trkpt lat="42.6149410" lon="-6.8215760">
        <ele>512.1</ele>
        <time>2014-10-02T16:13:58Z</time>
      </trkpt>
      <trkpt lat="42.6148750" lon="-6.8214680">
        <ele>511.9</ele>
        <time>2014-10-02T16:13:59Z</time>
      </trkpt>
      <trkpt lat="42.6148050" lon="-6.8213660">
        <ele>511.8</ele>
        <time>2014-10-02T16:14:00Z</time>
      </trkpt>
      <trkpt lat="42.6147190" lon="-6.8212820">
        <ele>511.6</ele>
        <time>2014-10-02T16:14:01Z</time>
      </trkpt>
      <trkpt lat="42.6146310" lon="-6.8212000">
        <ele>511.4</ele>
        <time>2014-10-02T16:14:02Z</time>
      </trkpt>
      <trkpt lat="42.6145420" lon="-6.8211340">
        <ele>511.2</ele>
        <time>2014-10-02T16:14:03Z</time>
      </trkpt>
      <trkpt lat="42.6144420" lon="-6.8210920">
        <ele>511.0</ele>
        <time>2014-10-02T16:14:04Z</time>
      </trkpt>
      <trkpt lat="42.6143400" lon="-6.8210550">
        <ele>510.9</ele>
        <time>2014-10-02T16:14:05Z</time>
      </trkpt>
      <trkpt lat="42.6142340" lon="-6.8210570">
        <ele>510.8</ele>
        <time>2014-10-02T16:14:06Z</time>
      </trkpt>
      <trkpt lat="42.6141410" lon="-6.8210640">
        <ele>510.7</ele>
        <time>2014-10-02T16:14:07Z</time>
      </trkpt>
      <trkpt lat="42.6140490" lon="-6.8210810">
        <ele>510.7</ele>
        <time>2014-10-02T16:14:08Z</time>
      </trkpt>
      <trkpt lat="42.6139620" lon="-6.8211050">
        <ele>510.7</ele>
        <time>2014-10-02T16:14:09Z</time>
      </trkpt>
      <trkpt lat="42.6138720" lon="-6.8211380">
        <ele>510.7</ele>
        <time>2014-10-02T16:14:10Z</time>
      </trkpt>
      <trkpt lat="42.6137890" lon="-6.8211750">
        <ele>510.7</ele>
        <time>2014-10-02T16:14:11Z</time>
      </trkpt>
      <trkpt lat="42.6137090" lon="-6.8212220">
        <ele>510.7</ele>
        <time>2014-10-02T16:14:12Z</time>
      </trkpt>
      <trkpt lat="42.6136260" lon="-6.8212730">
        <ele>510.8</ele>
        <time>2014-10-02T16:14:13Z</time>
      </trkpt>
      <trkpt lat="42.6135300" lon="-6.8213260">
        <ele>510.9</ele>
        <time>2014-10-02T16:14:14Z</time>
      </trkpt>
      <trkpt lat="42.6134280" lon="-6.8213750">
        <ele>510.9</ele>
        <time>2014-10-02T16:14:15Z</time>
      </trkpt>
      <trkpt lat="42.6133260" lon="-6.8214150">
        <ele>511.0</ele>
        <time>2014-10-02T16:14:16Z</time>
      </trkpt>
      <trkpt lat="42.6132250" lon="-6.8214430">
        <ele>511.2</ele>
        <time>2014-10-02T16:14:17Z</time>
      </trkpt>
      <trkpt lat="42.6131270" lon="-6.8214390">
        <ele>511.2</ele>
        <time>2014-10-02T16:14:18Z</time>
      </trkpt>
      <trkpt lat="42.6130260" lon="-6.8214300">
        <ele>511.2</ele>
        <time>2014-10-02T16:14:19Z</time>
      </trkpt>
      <trkpt lat="42.6129360" lon="-6.8214130">
        <ele>511.2</ele>
        <time>2014-10-02T16:14:20Z</time>
      </trkpt>
      <trkpt lat="42.6128480" lon="-6.8213860">
        <ele>511.3</ele>
        <time>2014-10-02T16:14:21Z</time>
      </trkpt>
      <trkpt lat="42.6127630" lon="-6.8213510">
        <ele>511.3</ele>
        <time>2014-10-02T16:14:22Z</time>
      </trkpt>
      <trkpt lat="42.6126780" lon="-6.8213120">
        <ele>511.4</ele>
        <time>2014-10-02T16:14:23Z</time>
      </trkpt>
      <trkpt lat="42.6126000" lon="-6.8212700">
        <ele>511.5</ele>
        <time>2014-10-02T16:14:24Z</time>
      </trkpt>
      <trkpt lat="42.6125270" lon="-6.8212260">
        <ele>511.5</ele>
        <time>2014-10-02T16:14:25Z</time>
      </trkpt>
      <trkpt lat="42.6124540" lon="-6.8211800">
        <ele>511.6</ele>
        <time>2014-10-02T16:14:26Z</time>
      </trkpt>
      <trkpt lat="42.6123820" lon="-6.8211340">
        <ele>511.7</ele>
        <time>2014-10-02T16:14:27Z</time>
      </trkpt>
      <trkpt lat="42.6123060" lon="-6.8210900">
        <ele>511.8</ele>
        <time>2014-10-02T16:14:28Z</time>
      </trkpt>
      <trkpt lat="42.6122320" lon="-6.8210450">
        <ele>511.8</ele>
        <time>2014-10-02T16:14:29Z</time>
      </trkpt>
      <trkpt lat="42.6121660" lon="-6.8210010">
        <ele>511.9</ele>
        <time>2014-10-02T16:14:30Z</time>
      </trkpt>
      <trkpt lat="42.6121010" lon="-6.8209570">
        <ele>512.0</ele>
        <time>2014-10-02T16:14:31Z</time>
      </trkpt>
      <trkpt lat="42.6120370" lon="-6.8209110">
        <ele>512.0</ele>
        <time>2014-10-02T16:14:32Z</time>
      </trkpt>
      <trkpt lat="42.6119720" lon="-6.8208660">
        <ele>512.0</ele>
        <time>2014-10-02T16:14:33Z</time>
      </trkpt>
      <trkpt lat="42.6119060" lon="-6.8208200">
        <ele>512.1</ele>
        <time>2014-10-02T16:14:34Z</time>
      </trkpt>
      <trkpt lat="42.6118380" lon="-6.8207750">
        <ele>512.1</ele>
        <time>2014-10-02T16:14:35Z</time>
      </trkpt>
      <trkpt lat="42.6117710" lon="-6.8207310">
        <ele>512.1</ele>
        <time>2014-10-02T16:14:36Z</time>
      </trkpt>
      <trkpt lat="42.6116990" lon="-6.8206790">
        <ele>512.2</ele>
        <time>2014-10-02T16:14:37Z</time>
      </trkpt>
      <trkpt lat="42.6116260" lon="-6.8206270">
        <ele>512.2</ele>
        <time>2014-10-02T16:14:38Z</time>
      </trkpt>
      <trkpt lat="42.6115550" lon="-6.8205740">
        <ele>511.5</ele>
        <time>2014-10-02T16:14:39Z</time>
      </trkpt>
      <trkpt lat="42.6114830" lon="-6.8205180">
        <ele>511.0</ele>
        <time>2014-10-02T16:14:40Z</time>
      </trkpt>
      <trkpt lat="42.6114150" lon="-6.8204630">
        <ele>510.4</ele>
        <time>2014-10-02T16:14:41Z</time>
      </trkpt>
      <trkpt lat="42.6113460" lon="-6.8204060">
        <ele>510.1</ele>
        <time>2014-10-02T16:14:42Z</time>
      </trkpt>
      <trkpt lat="42.6112740" lon="-6.8203440">
        <ele>510.0</ele>
        <time>2014-10-02T16:14:43Z</time>
      </trkpt>
      <trkpt lat="42.6112010" lon="-6.8202760">
        <ele>510.0</ele>
        <time>2014-10-02T16:14:44Z</time>
      </trkpt>
      <trkpt lat="42.6111350" lon="-6.8202060">
        <ele>510.0</ele>
        <time>2014-10-02T16:14:45Z</time>
      </trkpt>
      <trkpt lat="42.6110700" lon="-6.8201340">
        <ele>510.0</ele>
        <time>2014-10-02T16:14:46Z</time>
      </trkpt>
      <trkpt lat="42.6110070" lon="-6.8200670">
        <ele>510.0</ele>
        <time>2014-10-02T16:14:47Z</time>
      </trkpt>
      <trkpt lat="42.6109440" lon="-6.8200010">
        <ele>510.1</ele>
        <time>2014-10-02T16:14:48Z</time>
      </trkpt>
      <trkpt lat="42.6108860" lon="-6.8199400">
        <ele>510.4</ele>
        <time>2014-10-02T16:14:49Z</time>
      </trkpt>
      <trkpt lat="42.6078460" lon="-6.8174100">
        <ele>499.7</ele>
        <time>2014-10-02T16:15:28Z</time>
      </trkpt>
      <trkpt lat="42.6075940" lon="-6.8168680">
        <ele>499.2</ele>
        <time>2014-10-02T16:15:30Z</time>
      </trkpt>
      <trkpt lat="42.6075020" lon="-6.8168080">
        <ele>498.7</ele>
        <time>2014-10-02T16:15:31Z</time>
      </trkpt>
      <trkpt lat="42.6074190" lon="-6.8167470">
        <ele>498.3</ele>
        <time>2014-10-02T16:15:32Z</time>
      </trkpt>
      <trkpt lat="42.6073380" lon="-6.8166860">
        <ele>498.0</ele>
        <time>2014-10-02T16:15:33Z</time>
      </trkpt>
      <trkpt lat="42.6072570" lon="-6.8166120">
        <ele>497.7</ele>
        <time>2014-10-02T16:15:34Z</time>
      </trkpt>
      <trkpt lat="42.6071740" lon="-6.8165640">
        <ele>497.7</ele>
        <time>2014-10-02T16:15:35Z</time>
      </trkpt>
      <trkpt lat="42.6070910" lon="-6.8165230">
        <ele>497.6</ele>
        <time>2014-10-02T16:15:36Z</time>
      </trkpt>
      <trkpt lat="42.6070090" lon="-6.8164780">
        <ele>497.5</ele>
        <time>2014-10-02T16:15:37Z</time>
      </trkpt>
      <trkpt lat="42.6069320" lon="-6.8164360">
        <ele>497.4</ele>
        <time>2014-10-02T16:15:38Z</time>
      </trkpt>
      <trkpt lat="42.6068480" lon="-6.8163950">
        <ele>497.2</ele>
        <time>2014-10-02T16:15:39Z</time>
      </trkpt>
      <trkpt lat="42.6067650" lon="-6.8163610">
        <ele>497.1</ele>
        <time>2014-10-02T16:15:40Z</time>
      </trkpt>
      <trkpt lat="42.6066780" lon="-6.8163220">
        <ele>497.0</ele>
        <time>2014-10-02T16:15:41Z</time>
      </trkpt>
      <trkpt lat="42.6065890" lon="-6.8162830">
        <ele>496.9</ele>
        <time>2014-10-02T16:15:42Z</time>
      </trkpt>
      <trkpt lat="42.6065000" lon="-6.8162410">
        <ele>496.9</ele>
        <time>2014-10-02T16:15:43Z</time>
      </trkpt>
      <trkpt lat="42.6064180" lon="-6.8162050">
        <ele>496.8</ele>
        <time>2014-10-02T16:15:44Z</time>
      </trkpt>
      <trkpt lat="42.6063310" lon="-6.8161690">
        <ele>496.8</ele>
        <time>2014-10-02T16:15:45Z</time>
      </trkpt>
      <trkpt lat="42.6062410" lon="-6.8161380">
        <ele>496.9</ele>
        <time>2014-10-02T16:15:46Z</time>
      </trkpt>
      <trkpt lat="42.6061540" lon="-6.8161060">
        <ele>496.7</ele>
        <time>2014-10-02T16:15:47Z</time>
      </trkpt>
      <trkpt lat="42.6060680" lon="-6.8160750">
        <ele>496.4</ele>
        <time>2014-10-02T16:15:48Z</time>
      </trkpt>
      <trkpt lat="42.6059790" lon="-6.8160390">
        <ele>496.2</ele>
        <time>2014-10-02T16:15:49Z</time>
      </trkpt>
      <trkpt lat="42.6058940" lon="-6.8160060">
        <ele>496.0</ele>
        <time>2014-10-02T16:15:50Z</time>
      </trkpt>
      <trkpt lat="42.6058090" lon="-6.8159710">
        <ele>495.8</ele>
        <time>2014-10-02T16:15:51Z</time>
      </trkpt>
      <trkpt lat="42.6057170" lon="-6.8159320">
        <ele>495.5</ele>
        <time>2014-10-02T16:15:52Z</time>
      </trkpt>
      <trkpt lat="42.6056300" lon="-6.8158970">
        <ele>495.4</ele>
        <time>2014-10-02T16:15:53Z</time>
      </trkpt>
      <trkpt lat="42.6055390" lon="-6.8158610">
        <ele>495.2</ele>
        <time>2014-10-02T16:15:54Z</time>
      </trkpt>
      <trkpt lat="42.6054520" lon="-6.8158270">
        <ele>495.0</ele>
        <time>2014-10-02T16:15:55Z</time>
      </trkpt>
      <trkpt lat="42.6053690" lon="-6.8157920">
        <ele>494.8</ele>
        <time>2014-10-02T16:15:56Z</time>
      </trkpt>
      <trkpt lat="42.6052840" lon="-6.8157570">
        <ele>494.6</ele>
        <time>2014-10-02T16:15:57Z</time>
      </trkpt>
      <trkpt lat="42.6051960" lon="-6.8157200">
        <ele>494.5</ele>
        <time>2014-10-02T16:15:58Z</time>
      </trkpt>
      <trkpt lat="42.6051080" lon="-6.8156840">
        <ele>494.3</ele>
        <time>2014-10-02T16:15:59Z</time>
      </trkpt>
      <trkpt lat="42.6050190" lon="-6.8156440">
        <ele>494.2</ele>
        <time>2014-10-02T16:16:00Z</time>
      </trkpt>
      <trkpt lat="42.6049310" lon="-6.8156050">
        <ele>494.1</ele>
        <time>2014-10-02T16:16:01Z</time>
      </trkpt>
      <trkpt lat="42.6048460" lon="-6.8155680">
        <ele>494.0</ele>
        <time>2014-10-02T16:16:02Z</time>
      </trkpt>
      <trkpt lat="42.6047570" lon="-6.8155300">
        <ele>493.8</ele>
        <time>2014-10-02T16:16:03Z</time>
      </trkpt>
      <trkpt lat="42.6046780" lon="-6.8154970">
        <ele>493.7</ele>
        <time>2014-10-02T16:16:04Z</time>
      </trkpt>
      <trkpt lat="42.6045930" lon="-6.8154640">
        <ele>493.5</ele>
        <time>2014-10-02T16:16:05Z</time>
      </trkpt>
      <trkpt lat="42.6045050" lon="-6.8154260">
        <ele>493.3</ele>
        <time>2014-10-02T16:16:06Z</time>
      </trkpt>
      <trkpt lat="42.6044140" lon="-6.8153850">
        <ele>493.2</ele>
        <time>2014-10-02T16:16:07Z</time>
      </trkpt>
      <trkpt lat="42.6043220" lon="-6.8153470">
        <ele>493.1</ele>
        <time>2014-10-02T16:16:08Z</time>
      </trkpt>
      <trkpt lat="42.6042380" lon="-6.8153120">
        <ele>493.0</ele>
        <time>2014-10-02T16:16:09Z</time>
      </trkpt>
      <trkpt lat="42.6041560" lon="-6.8152720">
        <ele>493.0</ele>
        <time>2014-10-02T16:16:10Z</time>
      </trkpt>
      <trkpt lat="42.6040650" lon="-6.8152290">
        <ele>492.9</ele>
        <time>2014-10-02T16:16:11Z</time>
      </trkpt>
      <trkpt lat="42.6039890" lon="-6.8151900">
        <ele>492.9</ele>
        <time>2014-10-02T16:16:12Z</time>
      </trkpt>
      <trkpt lat="42.6039080" lon="-6.8151460">
        <ele>492.9</ele>
        <time>2014-10-02T16:16:13Z</time>
      </trkpt>
      <trkpt lat="42.6038230" lon="-6.8150950">
        <ele>492.9</ele>
        <time>2014-10-02T16:16:14Z</time>
      </trkpt>
      <trkpt lat="42.6037440" lon="-6.8150420">
        <ele>493.0</ele>
        <time>2014-10-02T16:16:15Z</time>
      </trkpt>
      <trkpt lat="42.6036700" lon="-6.8149860">
        <ele>493.2</ele>
        <time>2014-10-02T16:16:16Z</time>
      </trkpt>
      <trkpt lat="42.6035980" lon="-6.8149290">
        <ele>493.5</ele>
        <time>2014-10-02T16:16:17Z</time>
      </trkpt>
      <trkpt lat="42.6035340" lon="-6.8148720">
        <ele>493.7</ele>
        <time>2014-10-02T16:16:18Z</time>
      </trkpt>
      <trkpt lat="42.6034750" lon="-6.8148120">
        <ele>493.9</ele>
        <time>2014-10-02T16:16:19Z</time>
      </trkpt>
      <trkpt lat="42.6034230" lon="-6.8147530">
        <ele>494.1</ele>
        <time>2014-10-02T16:16:20Z</time>
      </trkpt>
      <trkpt lat="42.6033710" lon="-6.8146890">
        <ele>494.4</ele>
        <time>2014-10-02T16:16:21Z</time>
      </trkpt>
      <trkpt lat="42.6033250" lon="-6.8146270">
        <ele>494.7</ele>
        <time>2014-10-02T16:16:22Z</time>
      </trkpt>
      <trkpt lat="42.6032810" lon="-6.8145660">
        <ele>494.9</ele>
        <time>2014-10-02T16:16:23Z</time>
      </trkpt>
      <trkpt lat="42.6032390" lon="-6.8144990">
        <ele>495.2</ele>
        <time>2014-10-02T16:16:24Z</time>
      </trkpt>
      <trkpt lat="42.6031990" lon="-6.8144310">
        <ele>495.5</ele>
        <time>2014-10-02T16:16:25Z</time>
      </trkpt>
      <trkpt lat="42.6031620" lon="-6.8143630">
        <ele>495.8</ele>
        <time>2014-10-02T16:16:26Z</time>
      </trkpt>
      <trkpt lat="42.6031250" lon="-6.8142940">
        <ele>496.1</ele>
        <time>2014-10-02T16:16:27Z</time>
      </trkpt>
      <trkpt lat="42.6030900" lon="-6.8142270">
        <ele>496.5</ele>
        <time>2014-10-02T16:16:28Z</time>
      </trkpt>
      <trkpt lat="42.6030580" lon="-6.8141630">
        <ele>496.8</ele>
        <time>2014-10-02T16:16:29Z</time>
      </trkpt>
      <trkpt lat="42.6030240" lon="-6.8140980">
        <ele>497.1</ele>
        <time>2014-10-02T16:16:30Z</time>
      </trkpt>
      <trkpt lat="42.6029930" lon="-6.8140370">
        <ele>497.3</ele>
        <time>2014-10-02T16:16:31Z</time>
      </trkpt>
      <trkpt lat="42.6029620" lon="-6.8139780">
        <ele>497.6</ele>
        <time>2014-10-02T16:16:32Z</time>
      </trkpt>
      <trkpt lat="42.6029320" lon="-6.8139180">
        <ele>497.8</ele>
        <time>2014-10-02T16:16:33Z</time>
      </trkpt>
      <trkpt lat="42.6029010" lon="-6.8138570">
        <ele>498.1</ele>
        <time>2014-10-02T16:16:34Z</time>
      </trkpt>
      <trkpt lat="42.6028670" lon="-6.8137930">
        <ele>498.3</ele>
        <time>2014-10-02T16:16:35Z</time>
      </trkpt>
      <trkpt lat="42.6028340" lon="-6.8137320">
        <ele>498.5</ele>
        <time>2014-10-02T16:16:36Z</time>
      </trkpt>
      <trkpt lat="42.6027990" lon="-6.8136680">
        <ele>498.8</ele>
        <time>2014-10-02T16:16:37Z</time>
      </trkpt>
      <trkpt lat="42.6027660" lon="-6.8136060">
        <ele>499.0</ele>
        <time>2014-10-02T16:16:38Z</time>
      </trkpt>
      <trkpt lat="42.6027360" lon="-6.8135440">
        <ele>499.2</ele>
        <time>2014-10-02T16:16:39Z</time>
      </trkpt>
      <trkpt lat="42.6027050" lon="-6.8134810">
        <ele>499.5</ele>
        <time>2014-10-02T16:16:40Z</time>
      </trkpt>
      <trkpt lat="42.6026790" lon="-6.8134280">
        <ele>499.7</ele>
        <time>2014-10-02T16:16:41Z</time>
      </trkpt>
      <trkpt lat="42.6026520" lon="-6.8133770">
        <ele>499.9</ele>
        <time>2014-10-02T16:16:42Z</time>
      </trkpt>
      <trkpt lat="42.6026210" lon="-6.8133200">
        <ele>500.1</ele>
        <time>2014-10-02T16:16:43Z</time>
      </trkpt>
      <trkpt lat="42.6025900" lon="-6.8132630">
        <ele>500.3</ele>
        <time>2014-10-02T16:16:44Z</time>
      </trkpt>
      <trkpt lat="42.6025600" lon="-6.8132080">
        <ele>500.6</ele>
        <time>2014-10-02T16:16:45Z</time>
      </trkpt>
      <trkpt lat="42.6025330" lon="-6.8131590">
        <ele>500.7</ele>
        <time>2014-10-02T16:16:46Z</time>
      </trkpt>
      <trkpt lat="42.6025050" lon="-6.8131080">
        <ele>500.9</ele>
        <time>2014-10-02T16:16:47Z</time>
      </trkpt>
      <trkpt lat="42.6024770" lon="-6.8130550">
        <ele>501.2</ele>
        <time>2014-10-02T16:16:48Z</time>
      </trkpt>
      <trkpt lat="42.6024490" lon="-6.8130030">
        <ele>501.4</ele>
        <time>2014-10-02T16:16:49Z</time>
      </trkpt>
      <trkpt lat="42.6024200" lon="-6.8129530">
        <ele>501.6</ele>
        <time>2014-10-02T16:16:50Z</time>
      </trkpt>
      <trkpt lat="42.6023910" lon="-6.8129030">
        <ele>501.8</ele>
        <time>2014-10-02T16:16:51Z</time>
      </trkpt>
      <trkpt lat="42.6023620" lon="-6.8128540">
        <ele>502.0</ele>
        <time>2014-10-02T16:16:52Z</time>
      </trkpt>
      <trkpt lat="42.6023360" lon="-6.8128070">
        <ele>502.3</ele>
        <time>2014-10-02T16:16:53Z</time>
      </trkpt>
      <trkpt lat="42.6023070" lon="-6.8127560">
        <ele>502.5</ele>
        <time>2014-10-02T16:16:54Z</time>
      </trkpt>
      <trkpt lat="42.6022780" lon="-6.8127080">
        <ele>502.8</ele>
        <time>2014-10-02T16:16:55Z</time>
      </trkpt>
      <trkpt lat="42.6022500" lon="-6.8126590">
        <ele>503.0</ele>
        <time>2014-10-02T16:16:56Z</time>
      </trkpt>
      <trkpt lat="42.6022200" lon="-6.8126050">
        <ele>503.2</ele>
        <time>2014-10-02T16:16:57Z</time>
      </trkpt>
      <trkpt lat="42.6021890" lon="-6.8125510">
        <ele>503.4</ele>
        <time>2014-10-02T16:16:58Z</time>
      </trkpt>
      <trkpt lat="42.6021580" lon="-6.8124970">
        <ele>503.6</ele>
        <time>2014-10-02T16:16:59Z</time>
      </trkpt>
      <trkpt lat="42.6021250" lon="-6.8124370">
        <ele>503.8</ele>
        <time>2014-10-02T16:17:00Z</time>
      </trkpt>
      <trkpt lat="42.6020960" lon="-6.8123850">
        <ele>504.0</ele>
        <time>2014-10-02T16:17:01Z</time>
      </trkpt>
      <trkpt lat="42.6020680" lon="-6.8123360">
        <ele>504.0</ele>
        <time>2014-10-02T16:17:02Z</time>
      </trkpt>
      <trkpt lat="42.6020340" lon="-6.8122770">
        <ele>504.0</ele>
        <time>2014-10-02T16:17:03Z</time>
      </trkpt>
      <trkpt lat="42.6020010" lon="-6.8122160">
        <ele>504.0</ele>
        <time>2014-10-02T16:17:04Z</time>
      </trkpt>
      <trkpt lat="42.6019660" lon="-6.8121560">
        <ele>503.9</ele>
        <time>2014-10-02T16:17:05Z</time>
      </trkpt>
      <trkpt lat="42.6019300" lon="-6.8120910">
        <ele>503.9</ele>
        <time>2014-10-02T16:17:06Z</time>
      </trkpt>
      <trkpt lat="42.6018960" lon="-6.8120350">
        <ele>503.8</ele>
        <time>2014-10-02T16:17:07Z</time>
      </trkpt>
      <trkpt lat="42.6018600" lon="-6.8119760">
        <ele>503.7</ele>
        <time>2014-10-02T16:17:08Z</time>
      </trkpt>
      <trkpt lat="42.6018220" lon="-6.8119120">
        <ele>503.6</ele>
        <time>2014-10-02T16:17:09Z</time>
      </trkpt>
      <trkpt lat="42.6017850" lon="-6.8118490">
        <ele>503.5</ele>
        <time>2014-10-02T16:17:10Z</time>
      </trkpt>
      <trkpt lat="42.6017460" lon="-6.8117830">
        <ele>503.4</ele>
        <time>2014-10-02T16:17:11Z</time>
      </trkpt>
      <trkpt lat="42.6017020" lon="-6.8117070">
        <ele>503.2</ele>
        <time>2014-10-02T16:17:12Z</time>
      </trkpt>
      <trkpt lat="42.6016570" lon="-6.8116260">
        <ele>503.1</ele>
        <time>2014-10-02T16:17:13Z</time>
      </trkpt>
      <trkpt lat="42.6016120" lon="-6.8115440">
        <ele>502.9</ele>
        <time>2014-10-02T16:17:14Z</time>
      </trkpt>
      <trkpt lat="42.6015680" lon="-6.8114680">
        <ele>502.7</ele>
        <time>2014-10-02T16:17:15Z</time>
      </trkpt>
      <trkpt lat="42.6015240" lon="-6.8113920">
        <ele>502.5</ele>
        <time>2014-10-02T16:17:16Z</time>
      </trkpt>
      <trkpt lat="42.6014770" lon="-6.8113190">
        <ele>502.4</ele>
        <time>2014-10-02T16:17:17Z</time>
      </trkpt>
      <trkpt lat="42.6014290" lon="-6.8112400">
        <ele>502.2</ele>
        <time>2014-10-02T16:17:18Z</time>
      </trkpt>
      <trkpt lat="42.6013810" lon="-6.8111600">
        <ele>502.0</ele>
        <time>2014-10-02T16:17:19Z</time>
      </trkpt>
      <trkpt lat="42.6013320" lon="-6.8110790">
        <ele>501.8</ele>
        <time>2014-10-02T16:17:20Z</time>
      </trkpt>
      <trkpt lat="42.6012810" lon="-6.8109960">
        <ele>501.6</ele>
        <time>2014-10-02T16:17:21Z</time>
      </trkpt>
      <trkpt lat="42.6012330" lon="-6.8109100">
        <ele>501.5</ele>
        <time>2014-10-02T16:17:22Z</time>
      </trkpt>
      <trkpt lat="42.6011850" lon="-6.8108190">
        <ele>501.3</ele>
        <time>2014-10-02T16:17:23Z</time>
      </trkpt>
      <trkpt lat="42.6011380" lon="-6.8107270">
        <ele>501.2</ele>
        <time>2014-10-02T16:17:24Z</time>
      </trkpt>
      <trkpt lat="42.6010890" lon="-6.8106350">
        <ele>501.2</ele>
        <time>2014-10-02T16:17:25Z</time>
      </trkpt>
      <trkpt lat="42.6010430" lon="-6.8105430">
        <ele>501.2</ele>
        <time>2014-10-02T16:17:26Z</time>
      </trkpt>
      <trkpt lat="42.6009950" lon="-6.8104460">
        <ele>501.2</ele>
        <time>2014-10-02T16:17:27Z</time>
      </trkpt>
      <trkpt lat="42.6009500" lon="-6.8103530">
        <ele>501.3</ele>
        <time>2014-10-02T16:17:28Z</time>
      </trkpt>
      <trkpt lat="42.6009050" lon="-6.8102600">
        <ele>501.4</ele>
        <time>2014-10-02T16:17:29Z</time>
      </trkpt>
      <trkpt lat="42.6008650" lon="-6.8101760">
        <ele>501.5</ele>
        <time>2014-10-02T16:17:30Z</time>
      </trkpt>
      <trkpt lat="42.6008260" lon="-6.8100900">
        <ele>501.7</ele>
        <time>2014-10-02T16:17:31Z</time>
      </trkpt>
      <trkpt lat="42.6007860" lon="-6.8100050">
        <ele>501.8</ele>
        <time>2014-10-02T16:17:32Z</time>
      </trkpt>
      <trkpt lat="42.6007470" lon="-6.8099290">
        <ele>502.0</ele>
        <time>2014-10-02T16:17:33Z</time>
      </trkpt>
      <trkpt lat="42.6007070" lon="-6.8098520">
        <ele>502.1</ele>
        <time>2014-10-02T16:17:34Z</time>
      </trkpt>
      <trkpt lat="42.6006690" lon="-6.8097840">
        <ele>502.3</ele>
        <time>2014-10-02T16:17:35Z</time>
      </trkpt>
      <trkpt lat="42.6006290" lon="-6.8097090">
        <ele>502.4</ele>
        <time>2014-10-02T16:17:36Z</time>
      </trkpt>
      <trkpt lat="42.6005830" lon="-6.8096270">
        <ele>502.6</ele>
        <time>2014-10-02T16:17:37Z</time>
      </trkpt>
      <trkpt lat="42.6005420" lon="-6.8095550">
        <ele>502.7</ele>
        <time>2014-10-02T16:17:38Z</time>
      </trkpt>
      <trkpt lat="42.6005000" lon="-6.8094800">
        <ele>502.9</ele>
        <time>2014-10-02T16:17:39Z</time>
      </trkpt>
      <trkpt lat="42.6004570" lon="-6.8094090">
        <ele>503.1</ele>
        <time>2014-10-02T16:17:40Z</time>
      </trkpt>
      <trkpt lat="42.6004170" lon="-6.8093430">
        <ele>503.3</ele>
        <time>2014-10-02T16:17:41Z</time>
      </trkpt>
      <trkpt lat="42.6003710" lon="-6.8092720">
        <ele>503.5</ele>
        <time>2014-10-02T16:17:42Z</time>
      </trkpt>
      <trkpt lat="42.6003290" lon="-6.8092080">
        <ele>503.6</ele>
        <time>2014-10-02T16:17:43Z</time>
      </trkpt>
      <trkpt lat="42.6002900" lon="-6.8091530">
        <ele>503.8</ele>
        <time>2014-10-02T16:17:44Z</time>
      </trkpt>
      <trkpt lat="42.6002510" lon="-6.8090990">
        <ele>504.0</ele>
        <time>2014-10-02T16:17:45Z</time>
      </trkpt>
      <trkpt lat="42.6002030" lon="-6.8090340">
        <ele>504.2</ele>
        <time>2014-10-02T16:17:46Z</time>
      </trkpt>
      <trkpt lat="42.6001550" lon="-6.8089700">
        <ele>504.3</ele>
        <time>2014-10-02T16:17:47Z</time>
      </trkpt>
      <trkpt lat="42.6001100" lon="-6.8089080">
        <ele>504.5</ele>
        <time>2014-10-02T16:17:48Z</time>
      </trkpt>
      <trkpt lat="42.6000690" lon="-6.8088560">
        <ele>504.6</ele>
        <time>2014-10-02T16:17:49Z</time>
      </trkpt>
      <trkpt lat="42.6000250" lon="-6.8088000">
        <ele>504.7</ele>
        <time>2014-10-02T16:17:50Z</time>
      </trkpt>
      <trkpt lat="42.5999840" lon="-6.8087480">
        <ele>504.8</ele>
        <time>2014-10-02T16:17:51Z</time>
      </trkpt>
      <trkpt lat="42.5999410" lon="-6.8086920">
        <ele>504.9</ele>
        <time>2014-10-02T16:17:52Z</time>
      </trkpt>
      <trkpt lat="42.5998980" lon="-6.8086360">
        <ele>505.0</ele>
        <time>2014-10-02T16:17:53Z</time>
      </trkpt>
      <trkpt lat="42.5998520" lon="-6.8085770">
        <ele>505.1</ele>
        <time>2014-10-02T16:17:54Z</time>
      </trkpt>
      <trkpt lat="42.5998070" lon="-6.8085210">
        <ele>505.3</ele>
        <time>2014-10-02T16:17:55Z</time>
      </trkpt>
      <trkpt lat="42.5997640" lon="-6.8084730">
        <ele>505.5</ele>
        <time>2014-10-02T16:17:56Z</time>
      </trkpt>
      <trkpt lat="42.5997200" lon="-6.8084220">
        <ele>505.8</ele>
        <time>2014-10-02T16:17:57Z</time>
      </trkpt>
      <trkpt lat="42.5996750" lon="-6.8083700">
        <ele>506.0</ele>
        <time>2014-10-02T16:17:58Z</time>
      </trkpt>
      <trkpt lat="42.5996270" lon="-6.8083170">
        <ele>506.2</ele>
        <time>2014-10-02T16:17:59Z</time>
      </trkpt>
      <trkpt lat="42.5995790" lon="-6.8082660">
        <ele>506.4</ele>
        <time>2014-10-02T16:18:00Z</time>
      </trkpt>
      <trkpt lat="42.5995330" lon="-6.8082160">
        <ele>506.6</ele>
        <time>2014-10-02T16:18:01Z</time>
      </trkpt>
      <trkpt lat="42.5994870" lon="-6.8081630">
        <ele>506.9</ele>
        <time>2014-10-02T16:18:02Z</time>
      </trkpt>
      <trkpt lat="42.5994450" lon="-6.8081150">
        <ele>507.1</ele>
        <time>2014-10-02T16:18:03Z</time>
      </trkpt>
      <trkpt lat="42.5994010" lon="-6.8080620">
        <ele>507.3</ele>
        <time>2014-10-02T16:18:04Z</time>
      </trkpt>
      <trkpt lat="42.5993550" lon="-6.8080060">
        <ele>507.6</ele>
        <time>2014-10-02T16:18:05Z</time>
      </trkpt>
      <trkpt lat="42.5993100" lon="-6.8079490">
        <ele>507.8</ele>
        <time>2014-10-02T16:18:06Z</time>
      </trkpt>
      <trkpt lat="42.5992680" lon="-6.8078920">
        <ele>507.9</ele>
        <time>2014-10-02T16:18:07Z</time>
      </trkpt>
      <trkpt lat="42.5992260" lon="-6.8078380">
        <ele>508.1</ele>
        <time>2014-10-02T16:18:08Z</time>
      </trkpt>
      <trkpt lat="42.5991870" lon="-6.8077820">
        <ele>508.2</ele>
        <time>2014-10-02T16:18:09Z</time>
      </trkpt>
      <trkpt lat="42.5991480" lon="-6.8077220">
        <ele>508.3</ele>
        <time>2014-10-02T16:18:10Z</time>
      </trkpt>
      <trkpt lat="42.5991100" lon="-6.8076600">
        <ele>508.4</ele>
        <time>2014-10-02T16:18:11Z</time>
      </trkpt>
      <trkpt lat="42.5990770" lon="-6.8076050">
        <ele>508.6</ele>
        <time>2014-10-02T16:18:12Z</time>
      </trkpt>
      <trkpt lat="42.5990430" lon="-6.8075510">
        <ele>508.7</ele>
        <time>2014-10-02T16:18:13Z</time>
      </trkpt>
      <trkpt lat="42.5990110" lon="-6.8075010">
        <ele>508.9</ele>
        <time>2014-10-02T16:18:14Z</time>
      </trkpt>
      <trkpt lat="42.5989720" lon="-6.8074400">
        <ele>509.1</ele>
        <time>2014-10-02T16:18:15Z</time>
      </trkpt>
      <trkpt lat="42.5989310" lon="-6.8073790">
        <ele>509.3</ele>
        <time>2014-10-02T16:18:16Z</time>
      </trkpt>
      <trkpt lat="42.5988890" lon="-6.8073210">
        <ele>509.4</ele>
        <time>2014-10-02T16:18:17Z</time>
      </trkpt>
      <trkpt lat="42.5988430" lon="-6.8072640">
        <ele>509.6</ele>
        <time>2014-10-02T16:18:18Z</time>
      </trkpt>
      <trkpt lat="42.5987960" lon="-6.8072130">
        <ele>509.7</ele>
        <time>2014-10-02T16:18:19Z</time>
      </trkpt>
      <trkpt lat="42.5987540" lon="-6.8071680">
        <ele>509.8</ele>
        <time>2014-10-02T16:18:20Z</time>
      </trkpt>
      <trkpt lat="42.5987210" lon="-6.8071130">
        <ele>510.4</ele>
        <time>2014-10-02T16:18:21Z</time>
      </trkpt>
      <trkpt lat="42.5986980" lon="-6.8070390">
        <ele>510.3</ele>
        <time>2014-10-02T16:18:22Z</time>
      </trkpt>
      <trkpt lat="42.5986900" lon="-6.8069560">
        <ele>510.1</ele>
        <time>2014-10-02T16:18:23Z</time>
      </trkpt>
      <trkpt lat="42.5986970" lon="-6.8068730">
        <ele>510.0</ele>
        <time>2014-10-02T16:18:24Z</time>
      </trkpt>
      <trkpt lat="42.5987050" lon="-6.8067880">
        <ele>509.9</ele>
        <time>2014-10-02T16:18:25Z</time>
      </trkpt>
      <trkpt lat="42.5987170" lon="-6.8067180">
        <ele>510.9</ele>
        <time>2014-10-02T16:18:26Z</time>
      </trkpt>
      <trkpt lat="42.5987250" lon="-6.8066420">
        <ele>510.7</ele>
        <time>2014-10-02T16:18:27Z</time>
      </trkpt>
      <trkpt lat="42.5987180" lon="-6.8065550">
        <ele>510.5</ele>
        <time>2014-10-02T16:18:28Z</time>
      </trkpt>
      <trkpt lat="42.5987110" lon="-6.8064700">
        <ele>510.3</ele>
        <time>2014-10-02T16:18:29Z</time>
      </trkpt>
      <trkpt lat="42.5987000" lon="-6.8063820">
        <ele>510.1</ele>
        <time>2014-10-02T16:18:30Z</time>
      </trkpt>
      <trkpt lat="42.5986870" lon="-6.8062960">
        <ele>510.3</ele>
        <time>2014-10-02T16:18:31Z</time>
      </trkpt>
      <trkpt lat="42.5986730" lon="-6.8062100">
        <ele>510.4</ele>
        <time>2014-10-02T16:18:32Z</time>
      </trkpt>
      <trkpt lat="42.5986590" lon="-6.8061310">
        <ele>510.5</ele>
        <time>2014-10-02T16:18:33Z</time>
      </trkpt>
      <trkpt lat="42.5986440" lon="-6.8060510">
        <ele>510.5</ele>
        <time>2014-10-02T16:18:34Z</time>
      </trkpt>
      <trkpt lat="42.5986280" lon="-6.8059610">
        <ele>510.6</ele>
        <time>2014-10-02T16:18:35Z</time>
      </trkpt>
      <trkpt lat="42.5986120" lon="-6.8058720">
        <ele>510.7</ele>
        <time>2014-10-02T16:18:36Z</time>
      </trkpt>
      <trkpt lat="42.5985950" lon="-6.8057820">
        <ele>510.8</ele>
        <time>2014-10-02T16:18:37Z</time>
      </trkpt>
      <trkpt lat="42.5985790" lon="-6.8056960">
        <ele>510.8</ele>
        <time>2014-10-02T16:18:38Z</time>
      </trkpt>
      <trkpt lat="42.5985620" lon="-6.8056090">
        <ele>510.9</ele>
        <time>2014-10-02T16:18:39Z</time>
      </trkpt>
      <trkpt lat="42.5985460" lon="-6.8055210">
        <ele>510.9</ele>
        <time>2014-10-02T16:18:40Z</time>
      </trkpt>
      <trkpt lat="42.5985300" lon="-6.8054310">
        <ele>511.0</ele>
        <time>2014-10-02T16:18:41Z</time>
      </trkpt>
      <trkpt lat="42.5985150" lon="-6.8053450">
        <ele>511.0</ele>
        <time>2014-10-02T16:18:42Z</time>
      </trkpt>
      <trkpt lat="42.5984990" lon="-6.8052570">
        <ele>511.1</ele>
        <time>2014-10-02T16:18:43Z</time>
      </trkpt>
      <trkpt lat="42.5984840" lon="-6.8051730">
        <ele>511.1</ele>
        <time>2014-10-02T16:18:44Z</time>
      </trkpt>
      <trkpt lat="42.5984690" lon="-6.8050910">
        <ele>511.2</ele>
        <time>2014-10-02T16:18:45Z</time>
      </trkpt>
      <trkpt lat="42.5984540" lon="-6.8050080">
        <ele>511.3</ele>
        <time>2014-10-02T16:18:46Z</time>
      </trkpt>
      <trkpt lat="42.5984400" lon="-6.8049210">
        <ele>511.4</ele>
        <time>2014-10-02T16:18:47Z</time>
      </trkpt>
      <trkpt lat="42.5984260" lon="-6.8048340">
        <ele>511.5</ele>
        <time>2014-10-02T16:18:48Z</time>
      </trkpt>
      <trkpt lat="42.5984140" lon="-6.8047500">
        <ele>511.5</ele>
        <time>2014-10-02T16:18:49Z</time>
      </trkpt>
      <trkpt lat="42.5984000" lon="-6.8046570">
        <ele>511.6</ele>
        <time>2014-10-02T16:18:50Z</time>
      </trkpt>
      <trkpt lat="42.5983860" lon="-6.8045630">
        <ele>511.7</ele>
        <time>2014-10-02T16:18:51Z</time>
      </trkpt>
      <trkpt lat="42.5983720" lon="-6.8044690">
        <ele>511.7</ele>
        <time>2014-10-02T16:18:52Z</time>
      </trkpt>
      <trkpt lat="42.5983570" lon="-6.8043780">
        <ele>511.8</ele>
        <time>2014-10-02T16:18:53Z</time>
      </trkpt>
      <trkpt lat="42.5983420" lon="-6.8042850">
        <ele>511.8</ele>
        <time>2014-10-02T16:18:54Z</time>
      </trkpt>
      <trkpt lat="42.5983260" lon="-6.8041910">
        <ele>511.9</ele>
        <time>2014-10-02T16:18:55Z</time>
      </trkpt>
      <trkpt lat="42.5983120" lon="-6.8041010">
        <ele>512.0</ele>
        <time>2014-10-02T16:18:56Z</time>
      </trkpt>
      <trkpt lat="42.5982980" lon="-6.8040100">
        <ele>512.1</ele>
        <time>2014-10-02T16:18:57Z</time>
      </trkpt>
      <trkpt lat="42.5982840" lon="-6.8039170">
        <ele>512.1</ele>
        <time>2014-10-02T16:18:58Z</time>
      </trkpt>
      <trkpt lat="42.5982710" lon="-6.8038220">
        <ele>512.2</ele>
        <time>2014-10-02T16:18:59Z</time>
      </trkpt>
      <trkpt lat="42.5982560" lon="-6.8037340">
        <ele>512.3</ele>
        <time>2014-10-02T16:19:00Z</time>
      </trkpt>
      <trkpt lat="42.5982410" lon="-6.8036500">
        <ele>512.4</ele>
        <time>2014-10-02T16:19:01Z</time>
      </trkpt>
      <trkpt lat="42.5982250" lon="-6.8035710">
        <ele>512.5</ele>
        <time>2014-10-02T16:19:02Z</time>
      </trkpt>
      <trkpt lat="42.5982040" lon="-6.8034900">
        <ele>512.6</ele>
        <time>2014-10-02T16:19:03Z</time>
      </trkpt>
      <trkpt lat="42.5981830" lon="-6.8034140">
        <ele>512.6</ele>
        <time>2014-10-02T16:19:04Z</time>
      </trkpt>
      <trkpt lat="42.5981610" lon="-6.8033430">
        <ele>512.6</ele>
        <time>2014-10-02T16:19:05Z</time>
      </trkpt>
      <trkpt lat="42.5981360" lon="-6.8032580">
        <ele>512.7</ele>
        <time>2014-10-02T16:19:06Z</time>
      </trkpt>
      <trkpt lat="42.5981120" lon="-6.8031720">
        <ele>512.7</ele>
        <time>2014-10-02T16:19:07Z</time>
      </trkpt>
      <trkpt lat="42.5980860" lon="-6.8030810">
        <ele>512.7</ele>
        <time>2014-10-02T16:19:08Z</time>
      </trkpt>
      <trkpt lat="42.5980590" lon="-6.8029890">
        <ele>512.8</ele>
        <time>2014-10-02T16:19:09Z</time>
      </trkpt>
      <trkpt lat="42.5980300" lon="-6.8028920">
        <ele>512.8</ele>
        <time>2014-10-02T16:19:10Z</time>
      </trkpt>
      <trkpt lat="42.5979990" lon="-6.8027960">
        <ele>512.8</ele>
        <time>2014-10-02T16:19:11Z</time>
      </trkpt>
      <trkpt lat="42.5979700" lon="-6.8027030">
        <ele>512.9</ele>
        <time>2014-10-02T16:19:12Z</time>
      </trkpt>
      <trkpt lat="42.5979380" lon="-6.8026150">
        <ele>512.8</ele>
        <time>2014-10-02T16:19:13Z</time>
      </trkpt>
      <trkpt lat="42.5979050" lon="-6.8025270">
        <ele>512.7</ele>
        <time>2014-10-02T16:19:14Z</time>
      </trkpt>
      <trkpt lat="42.5978690" lon="-6.8024410">
        <ele>512.7</ele>
        <time>2014-10-02T16:19:15Z</time>
      </trkpt>
      <trkpt lat="42.5978300" lon="-6.8023530">
        <ele>512.6</ele>
        <time>2014-10-02T16:19:16Z</time>
      </trkpt>
      <trkpt lat="42.5977900" lon="-6.8022670">
        <ele>512.5</ele>
        <time>2014-10-02T16:19:17Z</time>
      </trkpt>
      <trkpt lat="42.5977490" lon="-6.8021780">
        <ele>512.5</ele>
        <time>2014-10-02T16:19:18Z</time>
      </trkpt>
      <trkpt lat="42.5977060" lon="-6.8020870">
        <ele>512.4</ele>
        <time>2014-10-02T16:19:19Z</time>
      </trkpt>
      <trkpt lat="42.5976600" lon="-6.8019950">
        <ele>512.3</ele>
        <time>2014-10-02T16:19:20Z</time>
      </trkpt>
      <trkpt lat="42.5976140" lon="-6.8019010">
        <ele>512.2</ele>
        <time>2014-10-02T16:19:21Z</time>
      </trkpt>
      <trkpt lat="42.5975680" lon="-6.8018140">
        <ele>512.1</ele>
        <time>2014-10-02T16:19:22Z</time>
      </trkpt>
      <trkpt lat="42.5975170" lon="-6.8017220">
        <ele>512.0</ele>
        <time>2014-10-02T16:19:23Z</time>
      </trkpt>
      <trkpt lat="42.5974660" lon="-6.8016300">
        <ele>512.0</ele>
        <time>2014-10-02T16:19:24Z</time>
      </trkpt>
      <trkpt lat="42.5974120" lon="-6.8015390">
        <ele>512.0</ele>
        <time>2014-10-02T16:19:25Z</time>
      </trkpt>
      <trkpt lat="42.5973610" lon="-6.8014500">
        <ele>511.8</ele>
        <time>2014-10-02T16:19:26Z</time>
      </trkpt>
      <trkpt lat="42.5973100" lon="-6.8013650">
        <ele>511.7</ele>
        <time>2014-10-02T16:19:27Z</time>
      </trkpt>
      <trkpt lat="42.5972480" lon="-6.8012550">
        <ele>511.4</ele>
        <time>2014-10-02T16:19:28Z</time>
      </trkpt>
      <trkpt lat="42.5971870" lon="-6.8011410">
        <ele>511.1</ele>
        <time>2014-10-02T16:19:29Z</time>
      </trkpt>
      <trkpt lat="42.5971250" lon="-6.8010330">
        <ele>510.8</ele>
        <time>2014-10-02T16:19:30Z</time>
      </trkpt>
      <trkpt lat="42.5970650" lon="-6.8009320">
        <ele>510.5</ele>
        <time>2014-10-02T16:19:31Z</time>
      </trkpt>
      <trkpt lat="42.5970010" lon="-6.8008250">
        <ele>510.1</ele>
        <time>2014-10-02T16:19:32Z</time>
      </trkpt>
      <trkpt lat="42.5969380" lon="-6.8007250">
        <ele>509.8</ele>
        <time>2014-10-02T16:19:33Z</time>
      </trkpt>
      <trkpt lat="42.5968790" lon="-6.8006320">
        <ele>509.4</ele>
        <time>2014-10-02T16:19:34Z</time>
      </trkpt>
      <trkpt lat="42.5968160" lon="-6.8005360">
        <ele>509.1</ele>
        <time>2014-10-02T16:19:35Z</time>
      </trkpt>
      <trkpt lat="42.5967510" lon="-6.8004370">
        <ele>508.7</ele>
        <time>2014-10-02T16:19:36Z</time>
      </trkpt>
      <trkpt lat="42.5966860" lon="-6.8003400">
        <ele>508.3</ele>
        <time>2014-10-02T16:19:37Z</time>
      </trkpt>
      <trkpt lat="42.5966200" lon="-6.8002440">
        <ele>507.9</ele>
        <time>2014-10-02T16:19:38Z</time>
      </trkpt>
      <trkpt lat="42.5965560" lon="-6.8001510">
        <ele>507.5</ele>
        <time>2014-10-02T16:19:39Z</time>
      </trkpt>
      <trkpt lat="42.5964920" lon="-6.8000540">
        <ele>507.1</ele>
        <time>2014-10-02T16:19:40Z</time>
      </trkpt>
      <trkpt lat="42.5964290" lon="-6.7999650">
        <ele>506.8</ele>
        <time>2014-10-02T16:19:41Z</time>
      </trkpt>
      <trkpt lat="42.5963700" lon="-6.7998850">
        <ele>506.5</ele>
        <time>2014-10-02T16:19:42Z</time>
      </trkpt>
      <trkpt lat="42.5963080" lon="-6.7998050">
        <ele>506.1</ele>
        <time>2014-10-02T16:19:43Z</time>
      </trkpt>
      <trkpt lat="42.5962450" lon="-6.7997250">
        <ele>505.7</ele>
        <time>2014-10-02T16:19:44Z</time>
      </trkpt>
      <trkpt lat="42.5961760" lon="-6.7996410">
        <ele>505.4</ele>
        <time>2014-10-02T16:19:45Z</time>
      </trkpt>
      <trkpt lat="42.5961090" lon="-6.7995600">
        <ele>505.1</ele>
        <time>2014-10-02T16:19:46Z</time>
      </trkpt>
      <trkpt lat="42.5960400" lon="-6.7994760">
        <ele>504.8</ele>
        <time>2014-10-02T16:19:47Z</time>
      </trkpt>
      <trkpt lat="42.5959690" lon="-6.7993870">
        <ele>504.5</ele>
        <time>2014-10-02T16:19:48Z</time>
      </trkpt>
      <trkpt lat="42.5958930" lon="-6.7992920">
        <ele>504.1</ele>
        <time>2014-10-02T16:19:49Z</time>
      </trkpt>
      <trkpt lat="42.5958210" lon="-6.7991970">
        <ele>503.6</ele>
        <time>2014-10-02T16:19:50Z</time>
      </trkpt>
      <trkpt lat="42.5957490" lon="-6.7991030">
        <ele>503.2</ele>
        <time>2014-10-02T16:19:51Z</time>
      </trkpt>
      <trkpt lat="42.5956750" lon="-6.7990110">
        <ele>502.8</ele>
        <time>2014-10-02T16:19:52Z</time>
      </trkpt>
      <trkpt lat="42.5956020" lon="-6.7989190">
        <ele>502.5</ele>
        <time>2014-10-02T16:19:53Z</time>
      </trkpt>
      <trkpt lat="42.5955290" lon="-6.7988270">
        <ele>502.2</ele>
        <time>2014-10-02T16:19:54Z</time>
      </trkpt>
      <trkpt lat="42.5954570" lon="-6.7987360">
        <ele>501.9</ele>
        <time>2014-10-02T16:19:55Z</time>
      </trkpt>
      <trkpt lat="42.5953830" lon="-6.7986470">
        <ele>501.6</ele>
        <time>2014-10-02T16:19:56Z</time>
      </trkpt>
      <trkpt lat="42.5953060" lon="-6.7985520">
        <ele>501.3</ele>
        <time>2014-10-02T16:19:57Z</time>
      </trkpt>
      <trkpt lat="42.5952340" lon="-6.7984590">
        <ele>501.1</ele>
        <time>2014-10-02T16:19:58Z</time>
      </trkpt>
      <trkpt lat="42.5951640" lon="-6.7983700">
        <ele>500.9</ele>
        <time>2014-10-02T16:19:59Z</time>
      </trkpt>
      <trkpt lat="42.5950970" lon="-6.7982850">
        <ele>500.7</ele>
        <time>2014-10-02T16:20:00Z</time>
      </trkpt>
      <trkpt lat="42.5950240" lon="-6.7981890">
        <ele>500.4</ele>
        <time>2014-10-02T16:20:01Z</time>
      </trkpt>
      <trkpt lat="42.5949500" lon="-6.7980900">
        <ele>500.2</ele>
        <time>2014-10-02T16:20:02Z</time>
      </trkpt>
      <trkpt lat="42.5948800" lon="-6.7979990">
        <ele>500.0</ele>
        <time>2014-10-02T16:20:03Z</time>
      </trkpt>
      <trkpt lat="42.5948130" lon="-6.7979180">
        <ele>499.9</ele>
        <time>2014-10-02T16:20:04Z</time>
      </trkpt>
      <trkpt lat="42.5947440" lon="-6.7978320">
        <ele>499.7</ele>
        <time>2014-10-02T16:20:05Z</time>
      </trkpt>
      <trkpt lat="42.5946720" lon="-6.7977380">
        <ele>499.6</ele>
        <time>2014-10-02T16:20:06Z</time>
      </trkpt>
      <trkpt lat="42.5946030" lon="-6.7976510">
        <ele>499.4</ele>
        <time>2014-10-02T16:20:07Z</time>
      </trkpt>
      <trkpt lat="42.5945300" lon="-6.7975560">
        <ele>499.3</ele>
        <time>2014-10-02T16:20:08Z</time>
      </trkpt>
      <trkpt lat="42.5944580" lon="-6.7974680">
        <ele>499.1</ele>
        <time>2014-10-02T16:20:09Z</time>
      </trkpt>
      <trkpt lat="42.5943800" lon="-6.7973730">
        <ele>499.0</ele>
        <time>2014-10-02T16:20:10Z</time>
      </trkpt>
      <trkpt lat="42.5943060" lon="-6.7972780">
        <ele>498.8</ele>
        <time>2014-10-02T16:20:11Z</time>
      </trkpt>
      <trkpt lat="42.5942360" lon="-6.7971880">
        <ele>498.8</ele>
        <time>2014-10-02T16:20:12Z</time>
      </trkpt>
      <trkpt lat="42.5941690" lon="-6.7971030">
        <ele>498.7</ele>
        <time>2014-10-02T16:20:13Z</time>
      </trkpt>
      <trkpt lat="42.5940950" lon="-6.7970090">
        <ele>498.6</ele>
        <time>2014-10-02T16:20:14Z</time>
      </trkpt>
      <trkpt lat="42.5940220" lon="-6.7969240">
        <ele>498.5</ele>
        <time>2014-10-02T16:20:15Z</time>
      </trkpt>
      <trkpt lat="42.5939530" lon="-6.7968450">
        <ele>498.4</ele>
        <time>2014-10-02T16:20:16Z</time>
      </trkpt>
      <trkpt lat="42.5938810" lon="-6.7967660">
        <ele>498.4</ele>
        <time>2014-10-02T16:20:17Z</time>
      </trkpt>
      <trkpt lat="42.5938080" lon="-6.7966890">
        <ele>498.3</ele>
        <time>2014-10-02T16:20:18Z</time>
      </trkpt>
      <trkpt lat="42.5937380" lon="-6.7966160">
        <ele>498.3</ele>
        <time>2014-10-02T16:20:19Z</time>
      </trkpt>
      <trkpt lat="42.5936600" lon="-6.7965380">
        <ele>498.2</ele>
        <time>2014-10-02T16:20:20Z</time>
      </trkpt>
      <trkpt lat="42.5935870" lon="-6.7964690">
        <ele>498.1</ele>
        <time>2014-10-02T16:20:21Z</time>
      </trkpt>
      <trkpt lat="42.5935170" lon="-6.7964100">
        <ele>498.1</ele>
        <time>2014-10-02T16:20:22Z</time>
      </trkpt>
      <trkpt lat="42.5934460" lon="-6.7963500">
        <ele>498.0</ele>
        <time>2014-10-02T16:20:23Z</time>
      </trkpt>
      <trkpt lat="42.5933720" lon="-6.7962940">
        <ele>498.0</ele>
        <time>2014-10-02T16:20:24Z</time>
      </trkpt>
      <trkpt lat="42.5932950" lon="-6.7962390">
        <ele>497.9</ele>
        <time>2014-10-02T16:20:25Z</time>
      </trkpt>
      <trkpt lat="42.5932200" lon="-6.7961830">
        <ele>497.9</ele>
        <time>2014-10-02T16:20:26Z</time>
      </trkpt>
      <trkpt lat="42.5931470" lon="-6.7961290">
        <ele>497.9</ele>
        <time>2014-10-02T16:20:27Z</time>
      </trkpt>
      <trkpt lat="42.5930760" lon="-6.7960780">
        <ele>497.8</ele>
        <time>2014-10-02T16:20:28Z</time>
      </trkpt>
      <trkpt lat="42.5929960" lon="-6.7960220">
        <ele>497.8</ele>
        <time>2014-10-02T16:20:29Z</time>
      </trkpt>
      <trkpt lat="42.5929170" lon="-6.7959650">
        <ele>497.8</ele>
        <time>2014-10-02T16:20:30Z</time>
      </trkpt>
      <trkpt lat="42.5928450" lon="-6.7959100">
        <ele>497.8</ele>
        <time>2014-10-02T16:20:31Z</time>
      </trkpt>
      <trkpt lat="42.5927710" lon="-6.7958540">
        <ele>497.7</ele>
        <time>2014-10-02T16:20:32Z</time>
      </trkpt>
      <trkpt lat="42.5926980" lon="-6.7957980">
        <ele>497.7</ele>
        <time>2014-10-02T16:20:33Z</time>
      </trkpt>
      <trkpt lat="42.5926290" lon="-6.7957450">
        <ele>497.7</ele>
        <time>2014-10-02T16:20:34Z</time>
      </trkpt>
      <trkpt lat="42.5925580" lon="-6.7956900">
        <ele>497.7</ele>
        <time>2014-10-02T16:20:35Z</time>
      </trkpt>
      <trkpt lat="42.5924860" lon="-6.7956350">
        <ele>497.7</ele>
        <time>2014-10-02T16:20:36Z</time>
      </trkpt>
      <trkpt lat="42.5924120" lon="-6.7955770">
        <ele>497.7</ele>
        <time>2014-10-02T16:20:37Z</time>
      </trkpt>
      <trkpt lat="42.5923420" lon="-6.7955230">
        <ele>497.6</ele>
        <time>2014-10-02T16:20:38Z</time>
      </trkpt>
      <trkpt lat="42.5922700" lon="-6.7954660">
        <ele>497.6</ele>
        <time>2014-10-02T16:20:39Z</time>
      </trkpt>
      <trkpt lat="42.5921970" lon="-6.7954110">
        <ele>497.6</ele>
        <time>2014-10-02T16:20:40Z</time>
      </trkpt>
      <trkpt lat="42.5921260" lon="-6.7953570">
        <ele>497.6</ele>
        <time>2014-10-02T16:20:41Z</time>
      </trkpt>
      <trkpt lat="42.5920540" lon="-6.7953030">
        <ele>497.6</ele>
        <time>2014-10-02T16:20:42Z</time>
      </trkpt>
      <trkpt lat="42.5919860" lon="-6.7952510">
        <ele>497.6</ele>
        <time>2014-10-02T16:20:43Z</time>
      </trkpt>
      <trkpt lat="42.5919180" lon="-6.7952000">
        <ele>497.6</ele>
        <time>2014-10-02T16:20:44Z</time>
      </trkpt>
      <trkpt lat="42.5918490" lon="-6.7951480">
        <ele>497.6</ele>
        <time>2014-10-02T16:20:45Z</time>
      </trkpt>
      <trkpt lat="42.5917790" lon="-6.7950950">
        <ele>497.6</ele>
        <time>2014-10-02T16:20:46Z</time>
      </trkpt>
      <trkpt lat="42.5917110" lon="-6.7950450">
        <ele>497.6</ele>
        <time>2014-10-02T16:20:47Z</time>
      </trkpt>
      <trkpt lat="42.5916460" lon="-6.7949970">
        <ele>497.6</ele>
        <time>2014-10-02T16:20:48Z</time>
      </trkpt>
      <trkpt lat="42.5915800" lon="-6.7949480">
        <ele>497.6</ele>
        <time>2014-10-02T16:20:49Z</time>
      </trkpt>
      <trkpt lat="42.5915150" lon="-6.7949000">
        <ele>497.6</ele>
        <time>2014-10-02T16:20:50Z</time>
      </trkpt>
      <trkpt lat="42.5914470" lon="-6.7948490">
        <ele>497.6</ele>
        <time>2014-10-02T16:20:51Z</time>
      </trkpt>
      <trkpt lat="42.5913760" lon="-6.7947970">
        <ele>497.6</ele>
        <time>2014-10-02T16:20:52Z</time>
      </trkpt>
      <trkpt lat="42.5913050" lon="-6.7947410">
        <ele>497.6</ele>
        <time>2014-10-02T16:20:53Z</time>
      </trkpt>
      <trkpt lat="42.5912340" lon="-6.7946850">
        <ele>497.7</ele>
        <time>2014-10-02T16:20:54Z</time>
      </trkpt>
      <trkpt lat="42.5911670" lon="-6.7946330">
        <ele>497.7</ele>
        <time>2014-10-02T16:20:55Z</time>
      </trkpt>
      <trkpt lat="42.5911000" lon="-6.7945820">
        <ele>497.8</ele>
        <time>2014-10-02T16:20:56Z</time>
      </trkpt>
      <trkpt lat="42.5910330" lon="-6.7945310">
        <ele>497.9</ele>
        <time>2014-10-02T16:20:57Z</time>
      </trkpt>
      <trkpt lat="42.5909640" lon="-6.7944790">
        <ele>497.8</ele>
        <time>2014-10-02T16:20:58Z</time>
      </trkpt>
      <trkpt lat="42.5908920" lon="-6.7944250">
        <ele>497.5</ele>
        <time>2014-10-02T16:20:59Z</time>
      </trkpt>
      <trkpt lat="42.5908210" lon="-6.7943700">
        <ele>497.3</ele>
        <time>2014-10-02T16:21:00Z</time>
      </trkpt>
      <trkpt lat="42.5907520" lon="-6.7943160">
        <ele>497.2</ele>
        <time>2014-10-02T16:21:01Z</time>
      </trkpt>
      <trkpt lat="42.5906870" lon="-6.7942660">
        <ele>497.2</ele>
        <time>2014-10-02T16:21:02Z</time>
      </trkpt>
      <trkpt lat="42.5906150" lon="-6.7942140">
        <ele>497.2</ele>
        <time>2014-10-02T16:21:03Z</time>
      </trkpt>
      <trkpt lat="42.5905410" lon="-6.7941600">
        <ele>497.1</ele>
        <time>2014-10-02T16:21:04Z</time>
      </trkpt>
      <trkpt lat="42.5904680" lon="-6.7941060">
        <ele>497.1</ele>
        <time>2014-10-02T16:21:05Z</time>
      </trkpt>
      <trkpt lat="42.5904000" lon="-6.7940570">
        <ele>497.1</ele>
        <time>2014-10-02T16:21:06Z</time>
      </trkpt>
      <trkpt lat="42.5903290" lon="-6.7940060">
        <ele>497.1</ele>
        <time>2014-10-02T16:21:07Z</time>
      </trkpt>
      <trkpt lat="42.5902620" lon="-6.7939580">
        <ele>497.1</ele>
        <time>2014-10-02T16:21:08Z</time>
      </trkpt>
      <trkpt lat="42.5901910" lon="-6.7939080">
        <ele>497.0</ele>
        <time>2014-10-02T16:21:09Z</time>
      </trkpt>
      <trkpt lat="42.5901240" lon="-6.7938610">
        <ele>497.0</ele>
        <time>2014-10-02T16:21:10Z</time>
      </trkpt>
      <trkpt lat="42.5900530" lon="-6.7938100">
        <ele>497.0</ele>
        <time>2014-10-02T16:21:11Z</time>
      </trkpt>
      <trkpt lat="42.5899860" lon="-6.7937600">
        <ele>496.9</ele>
        <time>2014-10-02T16:21:12Z</time>
      </trkpt>
      <trkpt lat="42.5899150" lon="-6.7937080">
        <ele>496.8</ele>
        <time>2014-10-02T16:21:13Z</time>
      </trkpt>
      <trkpt lat="42.5898490" lon="-6.7936580">
        <ele>496.8</ele>
        <time>2014-10-02T16:21:14Z</time>
      </trkpt>
      <trkpt lat="42.5897820" lon="-6.7936080">
        <ele>496.7</ele>
        <time>2014-10-02T16:21:15Z</time>
      </trkpt>
      <trkpt lat="42.5897140" lon="-6.7935550">
        <ele>496.7</ele>
        <time>2014-10-02T16:21:16Z</time>
      </trkpt>
      <trkpt lat="42.5896500" lon="-6.7935060">
        <ele>496.7</ele>
        <time>2014-10-02T16:21:17Z</time>
      </trkpt>
      <trkpt lat="42.5895840" lon="-6.7934550">
        <ele>496.7</ele>
        <time>2014-10-02T16:21:18Z</time>
      </trkpt>
      <trkpt lat="42.5895210" lon="-6.7934060">
        <ele>496.7</ele>
        <time>2014-10-02T16:21:19Z</time>
      </trkpt>
      <trkpt lat="42.5894520" lon="-6.7933540">
        <ele>496.7</ele>
        <time>2014-10-02T16:21:20Z</time>
      </trkpt>
      <trkpt lat="42.5893870" lon="-6.7933030">
        <ele>496.7</ele>
        <time>2014-10-02T16:21:21Z</time>
      </trkpt>
      <trkpt lat="42.5893170" lon="-6.7932490">
        <ele>496.7</ele>
        <time>2014-10-02T16:21:22Z</time>
      </trkpt>
      <trkpt lat="42.5892480" lon="-6.7931920">
        <ele>496.7</ele>
        <time>2014-10-02T16:21:23Z</time>
      </trkpt>
      <trkpt lat="42.5891790" lon="-6.7931360">
        <ele>496.7</ele>
        <time>2014-10-02T16:21:24Z</time>
      </trkpt>
      <trkpt lat="42.5891160" lon="-6.7930870">
        <ele>496.7</ele>
        <time>2014-10-02T16:21:25Z</time>
      </trkpt>
      <trkpt lat="42.5890500" lon="-6.7930390">
        <ele>496.6</ele>
        <time>2014-10-02T16:21:26Z</time>
      </trkpt>
      <trkpt lat="42.5889840" lon="-6.7929900">
        <ele>496.6</ele>
        <time>2014-10-02T16:21:27Z</time>
      </trkpt>
      <trkpt lat="42.5889180" lon="-6.7929350">
        <ele>496.6</ele>
        <time>2014-10-02T16:21:28Z</time>
      </trkpt>
      <trkpt lat="42.5888550" lon="-6.7928820">
        <ele>496.6</ele>
        <time>2014-10-02T16:21:29Z</time>
      </trkpt>
      <trkpt lat="42.5887930" lon="-6.7928230">
        <ele>496.5</ele>
        <time>2014-10-02T16:21:30Z</time>
      </trkpt>
      <trkpt lat="42.5887310" lon="-6.7927570">
        <ele>496.5</ele>
        <time>2014-10-02T16:21:31Z</time>
      </trkpt>
      <trkpt lat="42.5886720" lon="-6.7926910">
        <ele>496.5</ele>
        <time>2014-10-02T16:21:32Z</time>
      </trkpt>
      <trkpt lat="42.5886090" lon="-6.7926170">
        <ele>496.5</ele>
        <time>2014-10-02T16:21:33Z</time>
      </trkpt>
      <trkpt lat="42.5885510" lon="-6.7925450">
        <ele>496.5</ele>
        <time>2014-10-02T16:21:34Z</time>
      </trkpt>
      <trkpt lat="42.5884920" lon="-6.7924710">
        <ele>496.5</ele>
        <time>2014-10-02T16:21:35Z</time>
      </trkpt>
      <trkpt lat="42.5884340" lon="-6.7923920">
        <ele>496.5</ele>
        <time>2014-10-02T16:21:36Z</time>
      </trkpt>
      <trkpt lat="42.5883800" lon="-6.7923180">
        <ele>496.5</ele>
        <time>2014-10-02T16:21:37Z</time>
      </trkpt>
      <trkpt lat="42.5883290" lon="-6.7922420">
        <ele>496.4</ele>
        <time>2014-10-02T16:21:38Z</time>
      </trkpt>
      <trkpt lat="42.5882810" lon="-6.7921660">
        <ele>496.4</ele>
        <time>2014-10-02T16:21:39Z</time>
      </trkpt>
      <trkpt lat="42.5882350" lon="-6.7920920">
        <ele>496.3</ele>
        <time>2014-10-02T16:21:40Z</time>
      </trkpt>
      <trkpt lat="42.5881910" lon="-6.7920140">
        <ele>496.3</ele>
        <time>2014-10-02T16:21:41Z</time>
      </trkpt>
      <trkpt lat="42.5881480" lon="-6.7919350">
        <ele>496.3</ele>
        <time>2014-10-02T16:21:42Z</time>
      </trkpt>
      <trkpt lat="42.5880990" lon="-6.7918430">
        <ele>496.2</ele>
        <time>2014-10-02T16:21:43Z</time>
      </trkpt>
      <trkpt lat="42.5880540" lon="-6.7917540">
        <ele>496.1</ele>
        <time>2014-10-02T16:21:44Z</time>
      </trkpt>
      <trkpt lat="42.5880130" lon="-6.7916660">
        <ele>496.0</ele>
        <time>2014-10-02T16:21:45Z</time>
      </trkpt>
      <trkpt lat="42.5879740" lon="-6.7915740">
        <ele>496.0</ele>
        <time>2014-10-02T16:21:46Z</time>
      </trkpt>
      <trkpt lat="42.5879360" lon="-6.7914820">
        <ele>495.9</ele>
        <time>2014-10-02T16:21:47Z</time>
      </trkpt>
      <trkpt lat="42.5879000" lon="-6.7913890">
        <ele>495.9</ele>
        <time>2014-10-02T16:21:48Z</time>
      </trkpt>
      <trkpt lat="42.5878680" lon="-6.7913010">
        <ele>495.8</ele>
        <time>2014-10-02T16:21:49Z</time>
      </trkpt>
      <trkpt lat="42.5878300" lon="-6.7912010">
        <ele>495.8</ele>
        <time>2014-10-02T16:21:50Z</time>
      </trkpt>
      <trkpt lat="42.5877930" lon="-6.7910990">
        <ele>495.7</ele>
        <time>2014-10-02T16:21:51Z</time>
      </trkpt>
      <trkpt lat="42.5877590" lon="-6.7910050">
        <ele>495.6</ele>
        <time>2014-10-02T16:21:52Z</time>
      </trkpt>
      <trkpt lat="42.5877250" lon="-6.7909100">
        <ele>495.5</ele>
        <time>2014-10-02T16:21:53Z</time>
      </trkpt>
      <trkpt lat="42.5876890" lon="-6.7908090">
        <ele>495.4</ele>
        <time>2014-10-02T16:21:54Z</time>
      </trkpt>
      <trkpt lat="42.5876540" lon="-6.7907120">
        <ele>495.3</ele>
        <time>2014-10-02T16:21:55Z</time>
      </trkpt>
      <trkpt lat="42.5876180" lon="-6.7906130">
        <ele>495.2</ele>
        <time>2014-10-02T16:21:56Z</time>
      </trkpt>
      <trkpt lat="42.5875840" lon="-6.7905170">
        <ele>495.1</ele>
        <time>2014-10-02T16:21:57Z</time>
      </trkpt>
      <trkpt lat="42.5875480" lon="-6.7904190">
        <ele>495.0</ele>
        <time>2014-10-02T16:21:58Z</time>
      </trkpt>
      <trkpt lat="42.5875100" lon="-6.7903180">
        <ele>494.9</ele>
        <time>2014-10-02T16:21:59Z</time>
      </trkpt>
      <trkpt lat="42.5874700" lon="-6.7902140">
        <ele>494.8</ele>
        <time>2014-10-02T16:22:00Z</time>
      </trkpt>
      <trkpt lat="42.5874300" lon="-6.7901110">
        <ele>494.6</ele>
        <time>2014-10-02T16:22:01Z</time>
      </trkpt>
      <trkpt lat="42.5873910" lon="-6.7900060">
        <ele>494.4</ele>
        <time>2014-10-02T16:22:02Z</time>
      </trkpt>
      <trkpt lat="42.5873530" lon="-6.7899050">
        <ele>494.2</ele>
        <time>2014-10-02T16:22:03Z</time>
      </trkpt>
      <trkpt lat="42.5873120" lon="-6.7897990">
        <ele>494.1</ele>
        <time>2014-10-02T16:22:04Z</time>
      </trkpt>
      <trkpt lat="42.5872680" lon="-6.7896960">
        <ele>493.9</ele>
        <time>2014-10-02T16:22:05Z</time>
      </trkpt>
      <trkpt lat="42.5872220" lon="-6.7895850">
        <ele>493.8</ele>
        <time>2014-10-02T16:22:06Z</time>
      </trkpt>
      <trkpt lat="42.5871790" lon="-6.7894870">
        <ele>493.7</ele>
        <time>2014-10-02T16:22:07Z</time>
      </trkpt>
      <trkpt lat="42.5871380" lon="-6.7894000">
        <ele>493.6</ele>
        <time>2014-10-02T16:22:08Z</time>
      </trkpt>
      <trkpt lat="42.5870920" lon="-6.7893120">
        <ele>493.4</ele>
        <time>2014-10-02T16:22:09Z</time>
      </trkpt>
      <trkpt lat="42.5870420" lon="-6.7892250">
        <ele>493.2</ele>
        <time>2014-10-02T16:22:10Z</time>
      </trkpt>
      <trkpt lat="42.5869860" lon="-6.7891300">
        <ele>493.0</ele>
        <time>2014-10-02T16:22:11Z</time>
      </trkpt>
      <trkpt lat="42.5869300" lon="-6.7890400">
        <ele>492.8</ele>
        <time>2014-10-02T16:22:12Z</time>
      </trkpt>
      <trkpt lat="42.5868740" lon="-6.7889530">
        <ele>492.7</ele>
        <time>2014-10-02T16:22:13Z</time>
      </trkpt>
      <trkpt lat="42.5868180" lon="-6.7888720">
        <ele>492.6</ele>
        <time>2014-10-02T16:22:14Z</time>
      </trkpt>
      <trkpt lat="42.5867600" lon="-6.7887970">
        <ele>492.5</ele>
        <time>2014-10-02T16:22:15Z</time>
      </trkpt>
      <trkpt lat="42.5867050" lon="-6.7887310">
        <ele>492.4</ele>
        <time>2014-10-02T16:22:16Z</time>
      </trkpt>
      <trkpt lat="42.5866470" lon="-6.7886670">
        <ele>492.3</ele>
        <time>2014-10-02T16:22:17Z</time>
      </trkpt>
      <trkpt lat="42.5865870" lon="-6.7886000">
        <ele>492.2</ele>
        <time>2014-10-02T16:22:18Z</time>
      </trkpt>
      <trkpt lat="42.5865270" lon="-6.7885360">
        <ele>492.1</ele>
        <time>2014-10-02T16:22:19Z</time>
      </trkpt>
      <trkpt lat="42.5864650" lon="-6.7884770">
        <ele>492.0</ele>
        <time>2014-10-02T16:22:20Z</time>
      </trkpt>
      <trkpt lat="42.5864030" lon="-6.7884190">
        <ele>491.9</ele>
        <time>2014-10-02T16:22:21Z</time>
      </trkpt>
      <trkpt lat="42.5863360" lon="-6.7883590">
        <ele>491.7</ele>
        <time>2014-10-02T16:22:22Z</time>
      </trkpt>
      <trkpt lat="42.5862720" lon="-6.7883050">
        <ele>491.7</ele>
        <time>2014-10-02T16:22:23Z</time>
      </trkpt>
      <trkpt lat="42.5862040" lon="-6.7882530">
        <ele>491.7</ele>
        <time>2014-10-02T16:22:24Z</time>
      </trkpt>
      <trkpt lat="42.5861310" lon="-6.7882010">
        <ele>491.7</ele>
        <time>2014-10-02T16:22:25Z</time>
      </trkpt>
      <trkpt lat="42.5860560" lon="-6.7881490">
        <ele>491.8</ele>
        <time>2014-10-02T16:22:26Z</time>
      </trkpt>
      <trkpt lat="42.5859820" lon="-6.7880980">
        <ele>491.9</ele>
        <time>2014-10-02T16:22:27Z</time>
      </trkpt>
      <trkpt lat="42.5859100" lon="-6.7880540">
        <ele>492.1</ele>
        <time>2014-10-02T16:22:28Z</time>
      </trkpt>
      <trkpt lat="42.5858390" lon="-6.7880130">
        <ele>492.2</ele>
        <time>2014-10-02T16:22:29Z</time>
      </trkpt>
      <trkpt lat="42.5857730" lon="-6.7879740">
        <ele>492.4</ele>
        <time>2014-10-02T16:22:30Z</time>
      </trkpt>
      <trkpt lat="42.5857090" lon="-6.7879360">
        <ele>492.5</ele>
        <time>2014-10-02T16:22:31Z</time>
      </trkpt>
      <trkpt lat="42.5856460" lon="-6.7879040">
        <ele>492.7</ele>
        <time>2014-10-02T16:22:32Z</time>
      </trkpt>
      <trkpt lat="42.5855840" lon="-6.7878780">
        <ele>492.9</ele>
        <time>2014-10-02T16:22:33Z</time>
      </trkpt>
      <trkpt lat="42.5855290" lon="-6.7878580">
        <ele>493.1</ele>
        <time>2014-10-02T16:22:34Z</time>
      </trkpt>
      <trkpt lat="42.5854710" lon="-6.7878380">
        <ele>493.3</ele>
        <time>2014-10-02T16:22:35Z</time>
      </trkpt>
      <trkpt lat="42.5854010" lon="-6.7878150">
        <ele>493.6</ele>
        <time>2014-10-02T16:22:36Z</time>
      </trkpt>
      <trkpt lat="42.5853370" lon="-6.7877950">
        <ele>493.8</ele>
        <time>2014-10-02T16:22:37Z</time>
      </trkpt>
      <trkpt lat="42.5852760" lon="-6.7877740">
        <ele>494.0</ele>
        <time>2014-10-02T16:22:38Z</time>
      </trkpt>
      <trkpt lat="42.5852150" lon="-6.7877530">
        <ele>494.2</ele>
        <time>2014-10-02T16:22:39Z</time>
      </trkpt>
      <trkpt lat="42.5851560" lon="-6.7877340">
        <ele>494.4</ele>
        <time>2014-10-02T16:22:40Z</time>
      </trkpt>
      <trkpt lat="42.5851000" lon="-6.7877150">
        <ele>494.6</ele>
        <time>2014-10-02T16:22:41Z</time>
      </trkpt>
      <trkpt lat="42.5850490" lon="-6.7876990">
        <ele>494.8</ele>
        <time>2014-10-02T16:22:42Z</time>
      </trkpt>
      <trkpt lat="42.5849960" lon="-6.7876810">
        <ele>495.0</ele>
        <time>2014-10-02T16:22:43Z</time>
      </trkpt>
      <trkpt lat="42.5849470" lon="-6.7876660">
        <ele>495.1</ele>
        <time>2014-10-02T16:22:44Z</time>
      </trkpt>
      <trkpt lat="42.5848950" lon="-6.7876460">
        <ele>495.3</ele>
        <time>2014-10-02T16:22:45Z</time>
      </trkpt>
      <trkpt lat="42.5848460" lon="-6.7876280">
        <ele>495.5</ele>
        <time>2014-10-02T16:22:46Z</time>
      </trkpt>
      <trkpt lat="42.5847980" lon="-6.7876090">
        <ele>495.6</ele>
        <time>2014-10-02T16:22:47Z</time>
      </trkpt>
      <trkpt lat="42.5847480" lon="-6.7875900">
        <ele>495.7</ele>
        <time>2014-10-02T16:22:48Z</time>
      </trkpt>
      <trkpt lat="42.5847050" lon="-6.7875780">
        <ele>495.8</ele>
        <time>2014-10-02T16:22:49Z</time>
      </trkpt>
      <trkpt lat="42.5846550" lon="-6.7875650">
        <ele>495.9</ele>
        <time>2014-10-02T16:22:50Z</time>
      </trkpt>
      <trkpt lat="42.5846100" lon="-6.7875510">
        <ele>496.0</ele>
        <time>2014-10-02T16:22:51Z</time>
      </trkpt>
      <trkpt lat="42.5845640" lon="-6.7875370">
        <ele>496.1</ele>
        <time>2014-10-02T16:22:52Z</time>
      </trkpt>
      <trkpt lat="42.5845110" lon="-6.7875210">
        <ele>496.2</ele>
        <time>2014-10-02T16:22:53Z</time>
      </trkpt>
      <trkpt lat="42.5844570" lon="-6.7875030">
        <ele>496.2</ele>
        <time>2014-10-02T16:22:54Z</time>
      </trkpt>
      <trkpt lat="42.5843990" lon="-6.7874830">
        <ele>496.3</ele>
        <time>2014-10-02T16:22:55Z</time>
      </trkpt>
      <trkpt lat="42.5843440" lon="-6.7874640">
        <ele>496.2</ele>
        <time>2014-10-02T16:22:56Z</time>
      </trkpt>
      <trkpt lat="42.5842840" lon="-6.7874420">
        <ele>496.2</ele>
        <time>2014-10-02T16:22:57Z</time>
      </trkpt>
      <trkpt lat="42.5842220" lon="-6.7874180">
        <ele>496.1</ele>
        <time>2014-10-02T16:22:58Z</time>
      </trkpt>
      <trkpt lat="42.5841590" lon="-6.7873930">
        <ele>496.0</ele>
        <time>2014-10-02T16:22:59Z</time>
      </trkpt>
      <trkpt lat="42.5840940" lon="-6.7873650">
        <ele>495.8</ele>
        <time>2014-10-02T16:23:00Z</time>
      </trkpt>
      <trkpt lat="42.5840290" lon="-6.7873330">
        <ele>495.7</ele>
        <time>2014-10-02T16:23:01Z</time>
      </trkpt>
      <trkpt lat="42.5839670" lon="-6.7872960">
        <ele>495.5</ele>
        <time>2014-10-02T16:23:02Z</time>
      </trkpt>
      <trkpt lat="42.5839060" lon="-6.7872540">
        <ele>495.3</ele>
        <time>2014-10-02T16:23:03Z</time>
      </trkpt>
      <trkpt lat="42.5838370" lon="-6.7872030">
        <ele>495.0</ele>
        <time>2014-10-02T16:23:04Z</time>
      </trkpt>
      <trkpt lat="42.5837640" lon="-6.7871450">
        <ele>494.5</ele>
        <time>2014-10-02T16:23:05Z</time>
      </trkpt>
      <trkpt lat="42.5836880" lon="-6.7870840">
        <ele>494.0</ele>
        <time>2014-10-02T16:23:06Z</time>
      </trkpt>
      <trkpt lat="42.5836160" lon="-6.7870220">
        <ele>493.4</ele>
        <time>2014-10-02T16:23:07Z</time>
      </trkpt>
      <trkpt lat="42.5835470" lon="-6.7869560">
        <ele>492.9</ele>
        <time>2014-10-02T16:23:08Z</time>
      </trkpt>
      <trkpt lat="42.5834790" lon="-6.7868840">
        <ele>492.4</ele>
        <time>2014-10-02T16:23:09Z</time>
      </trkpt>
      <trkpt lat="42.5834060" lon="-6.7868020">
        <ele>491.7</ele>
        <time>2014-10-02T16:23:10Z</time>
      </trkpt>
      <trkpt lat="42.5833320" lon="-6.7867140">
        <ele>491.0</ele>
        <time>2014-10-02T16:23:11Z</time>
      </trkpt>
      <trkpt lat="42.5832630" lon="-6.7866270">
        <ele>490.3</ele>
        <time>2014-10-02T16:23:12Z</time>
      </trkpt>
      <trkpt lat="42.5831970" lon="-6.7865360">
        <ele>489.6</ele>
        <time>2014-10-02T16:23:13Z</time>
      </trkpt>
      <trkpt lat="42.5831250" lon="-6.7864340">
        <ele>488.8</ele>
        <time>2014-10-02T16:23:14Z</time>
      </trkpt>
      <trkpt lat="42.5830550" lon="-6.7863320">
        <ele>487.9</ele>
        <time>2014-10-02T16:23:15Z</time>
      </trkpt>
      <trkpt lat="42.5829850" lon="-6.7862290">
        <ele>487.1</ele>
        <time>2014-10-02T16:23:16Z</time>
      </trkpt>
      <trkpt lat="42.5829160" lon="-6.7861220">
        <ele>486.3</ele>
        <time>2014-10-02T16:23:17Z</time>
      </trkpt>
      <trkpt lat="42.5828400" lon="-6.7860060">
        <ele>485.4</ele>
        <time>2014-10-02T16:23:18Z</time>
      </trkpt>
      <trkpt lat="42.5827720" lon="-6.7858960">
        <ele>484.7</ele>
        <time>2014-10-02T16:23:19Z</time>
      </trkpt>
      <trkpt lat="42.5827040" lon="-6.7857880">
        <ele>484.0</ele>
        <time>2014-10-02T16:23:20Z</time>
      </trkpt>
      <trkpt lat="42.5826350" lon="-6.7856760">
        <ele>483.3</ele>
        <time>2014-10-02T16:23:21Z</time>
      </trkpt>
      <trkpt lat="42.5825640" lon="-6.7855710">
        <ele>482.8</ele>
        <time>2014-10-02T16:23:22Z</time>
      </trkpt>
      <trkpt lat="42.5824970" lon="-6.7854710">
        <ele>482.3</ele>
        <time>2014-10-02T16:23:23Z</time>
      </trkpt>
      <trkpt lat="42.5824260" lon="-6.7853630">
        <ele>481.9</ele>
        <time>2014-10-02T16:23:24Z</time>
      </trkpt>
      <trkpt lat="42.5823580" lon="-6.7852570">
        <ele>481.5</ele>
        <time>2014-10-02T16:23:25Z</time>
      </trkpt>
      <trkpt lat="42.5822940" lon="-6.7851540">
        <ele>481.1</ele>
        <time>2014-10-02T16:23:26Z</time>
      </trkpt>
      <trkpt lat="42.5822320" lon="-6.7850520">
        <ele>480.8</ele>
        <time>2014-10-02T16:23:27Z</time>
      </trkpt>
      <trkpt lat="42.5821680" lon="-6.7849500">
        <ele>480.5</ele>
        <time>2014-10-02T16:23:28Z</time>
      </trkpt>
      <trkpt lat="42.5821010" lon="-6.7848420">
        <ele>480.2</ele>
        <time>2014-10-02T16:23:29Z</time>
      </trkpt>
      <trkpt lat="42.5820360" lon="-6.7847410">
        <ele>480.1</ele>
        <time>2014-10-02T16:23:30Z</time>
      </trkpt>
      <trkpt lat="42.5819750" lon="-6.7846510">
        <ele>479.8</ele>
        <time>2014-10-02T16:23:31Z</time>
      </trkpt>
      <trkpt lat="42.5819130" lon="-6.7845690">
        <ele>479.5</ele>
        <time>2014-10-02T16:23:32Z</time>
      </trkpt>
      <trkpt lat="42.5818490" lon="-6.7844930">
        <ele>479.3</ele>
        <time>2014-10-02T16:23:33Z</time>
      </trkpt>
      <trkpt lat="42.5817840" lon="-6.7844230">
        <ele>479.0</ele>
        <time>2014-10-02T16:23:34Z</time>
      </trkpt>
      <trkpt lat="42.5817160" lon="-6.7843540">
        <ele>478.9</ele>
        <time>2014-10-02T16:23:35Z</time>
      </trkpt>
      <trkpt lat="42.5816510" lon="-6.7842930">
        <ele>478.7</ele>
        <time>2014-10-02T16:23:36Z</time>
      </trkpt>
      <trkpt lat="42.5815820" lon="-6.7842310">
        <ele>478.6</ele>
        <time>2014-10-02T16:23:37Z</time>
      </trkpt>
      <trkpt lat="42.5815100" lon="-6.7841680">
        <ele>478.5</ele>
        <time>2014-10-02T16:23:38Z</time>
      </trkpt>
      <trkpt lat="42.5814440" lon="-6.7841110">
        <ele>478.4</ele>
        <time>2014-10-02T16:23:39Z</time>
      </trkpt>
      <trkpt lat="42.5813830" lon="-6.7840580">
        <ele>478.3</ele>
        <time>2014-10-02T16:23:40Z</time>
      </trkpt>
      <trkpt lat="42.5813210" lon="-6.7840020">
        <ele>478.2</ele>
        <time>2014-10-02T16:23:41Z</time>
      </trkpt>
      <trkpt lat="42.5812570" lon="-6.7839450">
        <ele>478.1</ele>
        <time>2014-10-02T16:23:42Z</time>
      </trkpt>
      <trkpt lat="42.5811950" lon="-6.7838900">
        <ele>478.0</ele>
        <time>2014-10-02T16:23:43Z</time>
      </trkpt>
      <trkpt lat="42.5811340" lon="-6.7838370">
        <ele>478.0</ele>
        <time>2014-10-02T16:23:44Z</time>
      </trkpt>
      <trkpt lat="42.5810710" lon="-6.7837820">
        <ele>477.9</ele>
        <time>2014-10-02T16:23:45Z</time>
      </trkpt>
      <trkpt lat="42.5810080" lon="-6.7837280">
        <ele>477.9</ele>
        <time>2014-10-02T16:23:46Z</time>
      </trkpt>
      <trkpt lat="42.5809410" lon="-6.7836710">
        <ele>477.9</ele>
        <time>2014-10-02T16:23:47Z</time>
      </trkpt>
      <trkpt lat="42.5808740" lon="-6.7836130">
        <ele>477.9</ele>
        <time>2014-10-02T16:23:48Z</time>
      </trkpt>
      <trkpt lat="42.5808080" lon="-6.7835540">
        <ele>477.9</ele>
        <time>2014-10-02T16:23:49Z</time>
      </trkpt>
      <trkpt lat="42.5807420" lon="-6.7834930">
        <ele>477.9</ele>
        <time>2014-10-02T16:23:50Z</time>
      </trkpt>
      <trkpt lat="42.5806730" lon="-6.7834300">
        <ele>477.9</ele>
        <time>2014-10-02T16:23:51Z</time>
      </trkpt>
      <trkpt lat="42.5806070" lon="-6.7833660">
        <ele>477.9</ele>
        <time>2014-10-02T16:23:52Z</time>
      </trkpt>
      <trkpt lat="42.5805420" lon="-6.7833050">
        <ele>478.0</ele>
        <time>2014-10-02T16:23:53Z</time>
      </trkpt>
      <trkpt lat="42.5804790" lon="-6.7832490">
        <ele>478.1</ele>
        <time>2014-10-02T16:23:54Z</time>
      </trkpt>
      <trkpt lat="42.5804140" lon="-6.7831940">
        <ele>478.2</ele>
        <time>2014-10-02T16:23:55Z</time>
      </trkpt>
      <trkpt lat="42.5803440" lon="-6.7831360">
        <ele>478.1</ele>
        <time>2014-10-02T16:23:56Z</time>
      </trkpt>
      <trkpt lat="42.5802780" lon="-6.7830780">
        <ele>478.0</ele>
        <time>2014-10-02T16:23:57Z</time>
      </trkpt>
      <trkpt lat="42.5802100" lon="-6.7830200">
        <ele>477.9</ele>
        <time>2014-10-02T16:23:58Z</time>
      </trkpt>
      <trkpt lat="42.5801420" lon="-6.7829600">
        <ele>477.8</ele>
        <time>2014-10-02T16:23:59Z</time>
      </trkpt>
      <trkpt lat="42.5800740" lon="-6.7829020">
        <ele>477.8</ele>
        <time>2014-10-02T16:24:00Z</time>
      </trkpt>
      <trkpt lat="42.5800090" lon="-6.7828440">
        <ele>477.8</ele>
        <time>2014-10-02T16:24:01Z</time>
      </trkpt>
      <trkpt lat="42.5799460" lon="-6.7827880">
        <ele>477.8</ele>
        <time>2014-10-02T16:24:02Z</time>
      </trkpt>
      <trkpt lat="42.5798800" lon="-6.7827310">
        <ele>477.8</ele>
        <time>2014-10-02T16:24:03Z</time>
      </trkpt>
      <trkpt lat="42.5798160" lon="-6.7826760">
        <ele>477.9</ele>
        <time>2014-10-02T16:24:04Z</time>
      </trkpt>
      <trkpt lat="42.5797490" lon="-6.7826190">
        <ele>477.9</ele>
        <time>2014-10-02T16:24:05Z</time>
      </trkpt>
      <trkpt lat="42.5796860" lon="-6.7825650">
        <ele>478.0</ele>
        <time>2014-10-02T16:24:06Z</time>
      </trkpt>
      <trkpt lat="42.5796200" lon="-6.7825140">
        <ele>478.1</ele>
        <time>2014-10-02T16:24:07Z</time>
      </trkpt>
      <trkpt lat="42.5795550" lon="-6.7824620">
        <ele>478.2</ele>
        <time>2014-10-02T16:24:08Z</time>
      </trkpt>
      <trkpt lat="42.5794910" lon="-6.7824120">
        <ele>478.3</ele>
        <time>2014-10-02T16:24:09Z</time>
      </trkpt>
      <trkpt lat="42.5794270" lon="-6.7823620">
        <ele>478.4</ele>
        <time>2014-10-02T16:24:10Z</time>
      </trkpt>
      <trkpt lat="42.5793630" lon="-6.7823090">
        <ele>478.4</ele>
        <time>2014-10-02T16:24:11Z</time>
      </trkpt>
      <trkpt lat="42.5793010" lon="-6.7822560">
        <ele>478.5</ele>
        <time>2014-10-02T16:24:12Z</time>
      </trkpt>
      <trkpt lat="42.5792370" lon="-6.7821970">
        <ele>478.5</ele>
        <time>2014-10-02T16:24:13Z</time>
      </trkpt>
      <trkpt lat="42.5791820" lon="-6.7821450">
        <ele>478.6</ele>
        <time>2014-10-02T16:24:14Z</time>
      </trkpt>
      <trkpt lat="42.5791250" lon="-6.7820910">
        <ele>478.7</ele>
        <time>2014-10-02T16:24:15Z</time>
      </trkpt>
      <trkpt lat="42.5790670" lon="-6.7820340">
        <ele>478.8</ele>
        <time>2014-10-02T16:24:16Z</time>
      </trkpt>
      <trkpt lat="42.5790090" lon="-6.7819770">
        <ele>478.9</ele>
        <time>2014-10-02T16:24:17Z</time>
      </trkpt>
      <trkpt lat="42.5789520" lon="-6.7819220">
        <ele>478.9</ele>
        <time>2014-10-02T16:24:18Z</time>
      </trkpt>
      <trkpt lat="42.5788950" lon="-6.7818680">
        <ele>479.0</ele>
        <time>2014-10-02T16:24:19Z</time>
      </trkpt>
      <trkpt lat="42.5788380" lon="-6.7818150">
        <ele>479.1</ele>
        <time>2014-10-02T16:24:20Z</time>
      </trkpt>
      <trkpt lat="42.5787810" lon="-6.7817610">
        <ele>479.2</ele>
        <time>2014-10-02T16:24:21Z</time>
      </trkpt>
      <trkpt lat="42.5787230" lon="-6.7817080">
        <ele>479.4</ele>
        <time>2014-10-02T16:24:22Z</time>
      </trkpt>
      <trkpt lat="42.5786690" lon="-6.7816550">
        <ele>479.5</ele>
        <time>2014-10-02T16:24:23Z</time>
      </trkpt>
      <trkpt lat="42.5786140" lon="-6.7816040">
        <ele>479.6</ele>
        <time>2014-10-02T16:24:24Z</time>
      </trkpt>
      <trkpt lat="42.5785590" lon="-6.7815510">
        <ele>479.7</ele>
        <time>2014-10-02T16:24:25Z</time>
      </trkpt>
      <trkpt lat="42.5785050" lon="-6.7814990">
        <ele>479.8</ele>
        <time>2014-10-02T16:24:26Z</time>
      </trkpt>
      <trkpt lat="42.5784510" lon="-6.7814440">
        <ele>479.9</ele>
        <time>2014-10-02T16:24:27Z</time>
      </trkpt>
      <trkpt lat="42.5784000" lon="-6.7813910">
        <ele>479.9</ele>
        <time>2014-10-02T16:24:28Z</time>
      </trkpt>
      <trkpt lat="42.5783470" lon="-6.7813370">
        <ele>480.0</ele>
        <time>2014-10-02T16:24:29Z</time>
      </trkpt>
      <trkpt lat="42.5782930" lon="-6.7812790">
        <ele>480.1</ele>
        <time>2014-10-02T16:24:30Z</time>
      </trkpt>
      <trkpt lat="42.5782420" lon="-6.7812240">
        <ele>480.1</ele>
        <time>2014-10-02T16:24:31Z</time>
      </trkpt>
      <trkpt lat="42.5781940" lon="-6.7811750">
        <ele>480.1</ele>
        <time>2014-10-02T16:24:32Z</time>
      </trkpt>
      <trkpt lat="42.5781460" lon="-6.7811270">
        <ele>480.2</ele>
        <time>2014-10-02T16:24:33Z</time>
      </trkpt>
      <trkpt lat="42.5780930" lon="-6.7810700">
        <ele>480.2</ele>
        <time>2014-10-02T16:24:34Z</time>
      </trkpt>
      <trkpt lat="42.5780460" lon="-6.7810170">
        <ele>480.2</ele>
        <time>2014-10-02T16:24:35Z</time>
      </trkpt>
      <trkpt lat="42.5779960" lon="-6.7809590">
        <ele>480.3</ele>
        <time>2014-10-02T16:24:36Z</time>
      </trkpt>
      <trkpt lat="42.5779450" lon="-6.7809000">
        <ele>480.3</ele>
        <time>2014-10-02T16:24:37Z</time>
      </trkpt>
      <trkpt lat="42.5778950" lon="-6.7808370">
        <ele>480.4</ele>
        <time>2014-10-02T16:24:38Z</time>
      </trkpt>
      <trkpt lat="42.5778490" lon="-6.7807790">
        <ele>480.5</ele>
        <time>2014-10-02T16:24:39Z</time>
      </trkpt>
      <trkpt lat="42.5778030" lon="-6.7807180">
        <ele>480.5</ele>
        <time>2014-10-02T16:24:40Z</time>
      </trkpt>
      <trkpt lat="42.5777600" lon="-6.7806560">
        <ele>480.6</ele>
        <time>2014-10-02T16:24:41Z</time>
      </trkpt>
      <trkpt lat="42.5777140" lon="-6.7805900">
        <ele>480.6</ele>
        <time>2014-10-02T16:24:42Z</time>
      </trkpt>
      <trkpt lat="42.5776680" lon="-6.7805200">
        <ele>480.6</ele>
        <time>2014-10-02T16:24:43Z</time>
      </trkpt>
      <trkpt lat="42.5776220" lon="-6.7804490">
        <ele>480.6</ele>
        <time>2014-10-02T16:24:44Z</time>
      </trkpt>
      <trkpt lat="42.5775790" lon="-6.7803850">
        <ele>480.7</ele>
        <time>2014-10-02T16:24:45Z</time>
      </trkpt>
      <trkpt lat="42.5775370" lon="-6.7803200">
        <ele>480.7</ele>
        <time>2014-10-02T16:24:46Z</time>
      </trkpt>
      <trkpt lat="42.5774960" lon="-6.7802550">
        <ele>480.7</ele>
        <time>2014-10-02T16:24:47Z</time>
      </trkpt>
      <trkpt lat="42.5774520" lon="-6.7801830">
        <ele>480.7</ele>
        <time>2014-10-02T16:24:48Z</time>
      </trkpt>
      <trkpt lat="42.5774070" lon="-6.7801080">
        <ele>480.7</ele>
        <time>2014-10-02T16:24:49Z</time>
      </trkpt>
      <trkpt lat="42.5773680" lon="-6.7800390">
        <ele>480.7</ele>
        <time>2014-10-02T16:24:50Z</time>
      </trkpt>
      <trkpt lat="42.5773280" lon="-6.7799670">
        <ele>480.8</ele>
        <time>2014-10-02T16:24:51Z</time>
      </trkpt>
      <trkpt lat="42.5772880" lon="-6.7798900">
        <ele>480.8</ele>
        <time>2014-10-02T16:24:52Z</time>
      </trkpt>
      <trkpt lat="42.5772490" lon="-6.7798160">
        <ele>480.8</ele>
        <time>2014-10-02T16:24:53Z</time>
      </trkpt>
      <trkpt lat="42.5772080" lon="-6.7797390">
        <ele>480.7</ele>
        <time>2014-10-02T16:24:54Z</time>
      </trkpt>
      <trkpt lat="42.5771690" lon="-6.7796580">
        <ele>480.7</ele>
        <time>2014-10-02T16:24:55Z</time>
      </trkpt>
      <trkpt lat="42.5771300" lon="-6.7795750">
        <ele>480.7</ele>
        <time>2014-10-02T16:24:56Z</time>
      </trkpt>
      <trkpt lat="42.5770930" lon="-6.7794870">
        <ele>480.7</ele>
        <time>2014-10-02T16:24:57Z</time>
      </trkpt>
      <trkpt lat="42.5770550" lon="-6.7793990">
        <ele>480.8</ele>
        <time>2014-10-02T16:24:58Z</time>
      </trkpt>
      <trkpt lat="42.5770190" lon="-6.7793130">
        <ele>480.7</ele>
        <time>2014-10-02T16:24:59Z</time>
      </trkpt>
      <trkpt lat="42.5769830" lon="-6.7792280">
        <ele>480.7</ele>
        <time>2014-10-02T16:25:00Z</time>
      </trkpt>
      <trkpt lat="42.5769510" lon="-6.7791500">
        <ele>480.6</ele>
        <time>2014-10-02T16:25:01Z</time>
      </trkpt>
      <trkpt lat="42.5769190" lon="-6.7790720">
        <ele>480.6</ele>
        <time>2014-10-02T16:25:02Z</time>
      </trkpt>
      <trkpt lat="42.5768870" lon="-6.7789950">
        <ele>480.6</ele>
        <time>2014-10-02T16:25:03Z</time>
      </trkpt>
      <trkpt lat="42.5768540" lon="-6.7789120">
        <ele>480.5</ele>
        <time>2014-10-02T16:25:04Z</time>
      </trkpt>
      <trkpt lat="42.5768190" lon="-6.7788270">
        <ele>480.5</ele>
        <time>2014-10-02T16:25:05Z</time>
      </trkpt>
      <trkpt lat="42.5767860" lon="-6.7787380">
        <ele>480.5</ele>
        <time>2014-10-02T16:25:06Z</time>
      </trkpt>
      <trkpt lat="42.5767540" lon="-6.7786540">
        <ele>480.5</ele>
        <time>2014-10-02T16:25:07Z</time>
      </trkpt>
      <trkpt lat="42.5767210" lon="-6.7785650">
        <ele>480.5</ele>
        <time>2014-10-02T16:25:08Z</time>
      </trkpt>
      <trkpt lat="42.5766900" lon="-6.7784800">
        <ele>480.4</ele>
        <time>2014-10-02T16:25:09Z</time>
      </trkpt>
      <trkpt lat="42.5766570" lon="-6.7783910">
        <ele>480.3</ele>
        <time>2014-10-02T16:25:10Z</time>
      </trkpt>
      <trkpt lat="42.5766220" lon="-6.7782970">
        <ele>480.2</ele>
        <time>2014-10-02T16:25:11Z</time>
      </trkpt>
      <trkpt lat="42.5765860" lon="-6.7782000">
        <ele>480.1</ele>
        <time>2014-10-02T16:25:12Z</time>
      </trkpt>
      <trkpt lat="42.5765540" lon="-6.7781150">
        <ele>480.1</ele>
        <time>2014-10-02T16:25:13Z</time>
      </trkpt>
      <trkpt lat="42.5765210" lon="-6.7780280">
        <ele>480.0</ele>
        <time>2014-10-02T16:25:14Z</time>
      </trkpt>
      <trkpt lat="42.5764860" lon="-6.7779360">
        <ele>480.0</ele>
        <time>2014-10-02T16:25:15Z</time>
      </trkpt>
      <trkpt lat="42.5764540" lon="-6.7778510">
        <ele>479.9</ele>
        <time>2014-10-02T16:25:16Z</time>
      </trkpt>
      <trkpt lat="42.5764210" lon="-6.7777620">
        <ele>479.8</ele>
        <time>2014-10-02T16:25:17Z</time>
      </trkpt>
      <trkpt lat="42.5763870" lon="-6.7776660">
        <ele>479.7</ele>
        <time>2014-10-02T16:25:18Z</time>
      </trkpt>
      <trkpt lat="42.5763530" lon="-6.7775730">
        <ele>479.6</ele>
        <time>2014-10-02T16:25:19Z</time>
      </trkpt>
      <trkpt lat="42.5763180" lon="-6.7774700">
        <ele>479.5</ele>
        <time>2014-10-02T16:25:20Z</time>
      </trkpt>
      <trkpt lat="42.5762820" lon="-6.7773640">
        <ele>479.4</ele>
        <time>2014-10-02T16:25:21Z</time>
      </trkpt>
      <trkpt lat="42.5762450" lon="-6.7772570">
        <ele>479.3</ele>
        <time>2014-10-02T16:25:22Z</time>
      </trkpt>
      <trkpt lat="42.5762100" lon="-6.7771540">
        <ele>479.2</ele>
        <time>2014-10-02T16:25:23Z</time>
      </trkpt>
      <trkpt lat="42.5761750" lon="-6.7770520">
        <ele>479.0</ele>
        <time>2014-10-02T16:25:24Z</time>
      </trkpt>
      <trkpt lat="42.5761380" lon="-6.7769410">
        <ele>478.8</ele>
        <time>2014-10-02T16:25:25Z</time>
      </trkpt>
      <trkpt lat="42.5761030" lon="-6.7768330">
        <ele>478.7</ele>
        <time>2014-10-02T16:25:26Z</time>
      </trkpt>
      <trkpt lat="42.5760710" lon="-6.7767320">
        <ele>478.5</ele>
        <time>2014-10-02T16:25:27Z</time>
      </trkpt>
      <trkpt lat="42.5760400" lon="-6.7766380">
        <ele>478.4</ele>
        <time>2014-10-02T16:25:28Z</time>
      </trkpt>
      <trkpt lat="42.5760090" lon="-6.7765470">
        <ele>478.3</ele>
        <time>2014-10-02T16:25:29Z</time>
      </trkpt>
      <trkpt lat="42.5759800" lon="-6.7764560">
        <ele>478.1</ele>
        <time>2014-10-02T16:25:30Z</time>
      </trkpt>
      <trkpt lat="42.5759460" lon="-6.7763640">
        <ele>478.0</ele>
        <time>2014-10-02T16:25:31Z</time>
      </trkpt>
      <trkpt lat="42.5759090" lon="-6.7762630">
        <ele>477.8</ele>
        <time>2014-10-02T16:25:32Z</time>
      </trkpt>
      <trkpt lat="42.5758710" lon="-6.7761630">
        <ele>477.6</ele>
        <time>2014-10-02T16:25:33Z</time>
      </trkpt>
      <trkpt lat="42.5758310" lon="-6.7760580">
        <ele>477.4</ele>
        <time>2014-10-02T16:25:34Z</time>
      </trkpt>
      <trkpt lat="42.5757900" lon="-6.7759520">
        <ele>477.2</ele>
        <time>2014-10-02T16:25:35Z</time>
      </trkpt>
      <trkpt lat="42.5757470" lon="-6.7758450">
        <ele>477.0</ele>
        <time>2014-10-02T16:25:36Z</time>
      </trkpt>
      <trkpt lat="42.5757030" lon="-6.7757350">
        <ele>476.8</ele>
        <time>2014-10-02T16:25:37Z</time>
      </trkpt>
      <trkpt lat="42.5756620" lon="-6.7756300">
        <ele>476.6</ele>
        <time>2014-10-02T16:25:38Z</time>
      </trkpt>
      <trkpt lat="42.5756200" lon="-6.7755240">
        <ele>476.3</ele>
        <time>2014-10-02T16:25:39Z</time>
      </trkpt>
      <trkpt lat="42.5755790" lon="-6.7754210">
        <ele>476.1</ele>
        <time>2014-10-02T16:25:40Z</time>
      </trkpt>
      <trkpt lat="42.5755330" lon="-6.7753140">
        <ele>475.8</ele>
        <time>2014-10-02T16:25:41Z</time>
      </trkpt>
      <trkpt lat="42.5754870" lon="-6.7752130">
        <ele>475.5</ele>
        <time>2014-10-02T16:25:42Z</time>
      </trkpt>
      <trkpt lat="42.5754450" lon="-6.7751210">
        <ele>475.3</ele>
        <time>2014-10-02T16:25:43Z</time>
      </trkpt>
      <trkpt lat="42.5754030" lon="-6.7750300">
        <ele>475.1</ele>
        <time>2014-10-02T16:25:44Z</time>
      </trkpt>
      <trkpt lat="42.5753590" lon="-6.7749330">
        <ele>474.8</ele>
        <time>2014-10-02T16:25:45Z</time>
      </trkpt>
      <trkpt lat="42.5753130" lon="-6.7748340">
        <ele>474.6</ele>
        <time>2014-10-02T16:25:46Z</time>
      </trkpt>
      <trkpt lat="42.5752700" lon="-6.7747380">
        <ele>474.4</ele>
        <time>2014-10-02T16:25:47Z</time>
      </trkpt>
      <trkpt lat="42.5752260" lon="-6.7746390">
        <ele>474.2</ele>
        <time>2014-10-02T16:25:48Z</time>
      </trkpt>
      <trkpt lat="42.5751790" lon="-6.7745340">
        <ele>473.9</ele>
        <time>2014-10-02T16:25:49Z</time>
      </trkpt>
      <trkpt lat="42.5751320" lon="-6.7744340">
        <ele>473.7</ele>
        <time>2014-10-02T16:25:50Z</time>
      </trkpt>
      <trkpt lat="42.5750880" lon="-6.7743410">
        <ele>473.4</ele>
        <time>2014-10-02T16:25:51Z</time>
      </trkpt>
      <trkpt lat="42.5750420" lon="-6.7742420">
        <ele>473.2</ele>
        <time>2014-10-02T16:25:52Z</time>
      </trkpt>
      <trkpt lat="42.5750010" lon="-6.7741550">
        <ele>473.0</ele>
        <time>2014-10-02T16:25:53Z</time>
      </trkpt>
      <trkpt lat="42.5749580" lon="-6.7740660">
        <ele>472.9</ele>
        <time>2014-10-02T16:25:54Z</time>
      </trkpt>
      <trkpt lat="42.5749090" lon="-6.7739840">
        <ele>472.7</ele>
        <time>2014-10-02T16:25:55Z</time>
      </trkpt>
      <trkpt lat="42.5748330" lon="-6.7739360">
        <ele>474.1</ele>
        <time>2014-10-02T16:25:56Z</time>
      </trkpt>
      <trkpt lat="42.5747520" lon="-6.7739310">
        <ele>474.1</ele>
        <time>2014-10-02T16:25:57Z</time>
      </trkpt>
      <trkpt lat="42.5746790" lon="-6.7739300">
        <ele>474.1</ele>
        <time>2014-10-02T16:25:58Z</time>
      </trkpt>
      <trkpt lat="42.5746050" lon="-6.7739080">
        <ele>474.1</ele>
        <time>2014-10-02T16:25:59Z</time>
      </trkpt>
      <trkpt lat="42.5745410" lon="-6.7738620">
        <ele>473.2</ele>
        <time>2014-10-02T16:26:00Z</time>
      </trkpt>
      <trkpt lat="42.5744930" lon="-6.7737950">
        <ele>472.9</ele>
        <time>2014-10-02T16:26:01Z</time>
      </trkpt>
      <trkpt lat="42.5744740" lon="-6.7736990">
        <ele>472.7</ele>
        <time>2014-10-02T16:26:02Z</time>
      </trkpt>
      <trkpt lat="42.5744790" lon="-6.7736130">
        <ele>472.3</ele>
        <time>2014-10-02T16:26:03Z</time>
      </trkpt>
      <trkpt lat="42.5744910" lon="-6.7735310">
        <ele>472.2</ele>
        <time>2014-10-02T16:26:04Z</time>
      </trkpt>
      <trkpt lat="42.5745050" lon="-6.7734450">
        <ele>472.1</ele>
        <time>2014-10-02T16:26:05Z</time>
      </trkpt>
      <trkpt lat="42.5745170" lon="-6.7733510">
        <ele>472.0</ele>
        <time>2014-10-02T16:26:06Z</time>
      </trkpt>
      <trkpt lat="42.5744930" lon="-6.7732670">
        <ele>471.8</ele>
        <time>2014-10-02T16:26:07Z</time>
      </trkpt>
      <trkpt lat="42.5744650" lon="-6.7731820">
        <ele>471.2</ele>
        <time>2014-10-02T16:26:08Z</time>
      </trkpt>
      <trkpt lat="42.5744300" lon="-6.7730900">
        <ele>470.7</ele>
        <time>2014-10-02T16:26:09Z</time>
      </trkpt>
      <trkpt lat="42.5743880" lon="-6.7729960">
        <ele>470.6</ele>
        <time>2014-10-02T16:26:10Z</time>
      </trkpt>
      <trkpt lat="42.5743450" lon="-6.7728960">
        <ele>470.4</ele>
        <time>2014-10-02T16:26:11Z</time>
      </trkpt>
      <trkpt lat="42.5742960" lon="-6.7727930">
        <ele>470.2</ele>
        <time>2014-10-02T16:26:12Z</time>
      </trkpt>
      <trkpt lat="42.5742490" lon="-6.7726980">
        <ele>470.0</ele>
        <time>2014-10-02T16:26:13Z</time>
      </trkpt>
      <trkpt lat="42.5742010" lon="-6.7726050">
        <ele>469.9</ele>
        <time>2014-10-02T16:26:14Z</time>
      </trkpt>
      <trkpt lat="42.5741520" lon="-6.7725100">
        <ele>469.8</ele>
        <time>2014-10-02T16:26:15Z</time>
      </trkpt>
      <trkpt lat="42.5740980" lon="-6.7724140">
        <ele>469.6</ele>
        <time>2014-10-02T16:26:16Z</time>
      </trkpt>
      <trkpt lat="42.5740440" lon="-6.7723210">
        <ele>469.5</ele>
        <time>2014-10-02T16:26:17Z</time>
      </trkpt>
      <trkpt lat="42.5739880" lon="-6.7722240">
        <ele>469.3</ele>
        <time>2014-10-02T16:26:18Z</time>
      </trkpt>
      <trkpt lat="42.5739360" lon="-6.7721360">
        <ele>469.2</ele>
        <time>2014-10-02T16:26:19Z</time>
      </trkpt>
      <trkpt lat="42.5738830" lon="-6.7720530">
        <ele>469.1</ele>
        <time>2014-10-02T16:26:20Z</time>
      </trkpt>
      <trkpt lat="42.5738210" lon="-6.7719500">
        <ele>468.9</ele>
        <time>2014-10-02T16:26:21Z</time>
      </trkpt>
      <trkpt lat="42.5737610" lon="-6.7718560">
        <ele>468.7</ele>
        <time>2014-10-02T16:26:22Z</time>
      </trkpt>
      <trkpt lat="42.5737050" lon="-6.7717720">
        <ele>468.7</ele>
        <time>2014-10-02T16:26:23Z</time>
      </trkpt>
      <trkpt lat="42.5736460" lon="-6.7716790">
        <ele>468.6</ele>
        <time>2014-10-02T16:26:24Z</time>
      </trkpt>
      <trkpt lat="42.5735910" lon="-6.7715900">
        <ele>468.6</ele>
        <time>2014-10-02T16:26:25Z</time>
      </trkpt>
      <trkpt lat="42.5735370" lon="-6.7715020">
        <ele>468.5</ele>
        <time>2014-10-02T16:26:26Z</time>
      </trkpt>
      <trkpt lat="42.5734840" lon="-6.7714160">
        <ele>468.4</ele>
        <time>2014-10-02T16:26:27Z</time>
      </trkpt>
      <trkpt lat="42.5734290" lon="-6.7713270">
        <ele>468.3</ele>
        <time>2014-10-02T16:26:28Z</time>
      </trkpt>
      <trkpt lat="42.5733810" lon="-6.7712480">
        <ele>468.2</ele>
        <time>2014-10-02T16:26:29Z</time>
      </trkpt>
      <trkpt lat="42.5733300" lon="-6.7711650">
        <ele>468.0</ele>
        <time>2014-10-02T16:26:30Z</time>
      </trkpt>
      <trkpt lat="42.5732770" lon="-6.7710800">
        <ele>467.9</ele>
        <time>2014-10-02T16:26:31Z</time>
      </trkpt>
      <trkpt lat="42.5732230" lon="-6.7710000">
        <ele>467.9</ele>
        <time>2014-10-02T16:26:32Z</time>
      </trkpt>
      <trkpt lat="42.5731640" lon="-6.7709160">
        <ele>467.8</ele>
        <time>2014-10-02T16:26:33Z</time>
      </trkpt>
      <trkpt lat="42.5731050" lon="-6.7708390">
        <ele>467.8</ele>
        <time>2014-10-02T16:26:34Z</time>
      </trkpt>
      <trkpt lat="42.5730370" lon="-6.7707440">
        <ele>467.6</ele>
        <time>2014-10-02T16:26:35Z</time>
      </trkpt>
      <trkpt lat="42.5729800" lon="-6.7706680">
        <ele>467.6</ele>
        <time>2014-10-02T16:26:36Z</time>
      </trkpt>
      <trkpt lat="42.5729210" lon="-6.7705900">
        <ele>467.5</ele>
        <time>2014-10-02T16:26:37Z</time>
      </trkpt>
      <trkpt lat="42.5728600" lon="-6.7705080">
        <ele>467.4</ele>
        <time>2014-10-02T16:26:38Z</time>
      </trkpt>
      <trkpt lat="42.5727990" lon="-6.7704260">
        <ele>467.4</ele>
        <time>2014-10-02T16:26:39Z</time>
      </trkpt>
      <trkpt lat="42.5727380" lon="-6.7703450">
        <ele>467.3</ele>
        <time>2014-10-02T16:26:40Z</time>
      </trkpt>
      <trkpt lat="42.5726770" lon="-6.7702650">
        <ele>467.3</ele>
        <time>2014-10-02T16:26:41Z</time>
      </trkpt>
      <trkpt lat="42.5726160" lon="-6.7701870">
        <ele>467.2</ele>
        <time>2014-10-02T16:26:42Z</time>
      </trkpt>
      <trkpt lat="42.5725570" lon="-6.7701090">
        <ele>467.1</ele>
        <time>2014-10-02T16:26:43Z</time>
      </trkpt>
      <trkpt lat="42.5724990" lon="-6.7700330">
        <ele>467.0</ele>
        <time>2014-10-02T16:26:44Z</time>
      </trkpt>
      <trkpt lat="42.5724440" lon="-6.7699620">
        <ele>466.9</ele>
        <time>2014-10-02T16:26:45Z</time>
      </trkpt>
      <trkpt lat="42.5723830" lon="-6.7698800">
        <ele>466.8</ele>
        <time>2014-10-02T16:26:46Z</time>
      </trkpt>
      <trkpt lat="42.5723250" lon="-6.7698040">
        <ele>466.8</ele>
        <time>2014-10-02T16:26:47Z</time>
      </trkpt>
      <trkpt lat="42.5722680" lon="-6.7697290">
        <ele>466.7</ele>
        <time>2014-10-02T16:26:48Z</time>
      </trkpt>
      <trkpt lat="42.5722160" lon="-6.7696630">
        <ele>466.7</ele>
        <time>2014-10-02T16:26:49Z</time>
      </trkpt>
      <trkpt lat="42.5721590" lon="-6.7695880">
        <ele>466.6</ele>
        <time>2014-10-02T16:26:50Z</time>
      </trkpt>
      <trkpt lat="42.5721050" lon="-6.7695100">
        <ele>466.6</ele>
        <time>2014-10-02T16:26:51Z</time>
      </trkpt>
      <trkpt lat="42.5720530" lon="-6.7694340">
        <ele>466.5</ele>
        <time>2014-10-02T16:26:52Z</time>
      </trkpt>
      <trkpt lat="42.5720010" lon="-6.7693600">
        <ele>466.5</ele>
        <time>2014-10-02T16:26:53Z</time>
      </trkpt>
      <trkpt lat="42.5719540" lon="-6.7692920">
        <ele>466.4</ele>
        <time>2014-10-02T16:26:54Z</time>
      </trkpt>
      <trkpt lat="42.5719050" lon="-6.7692210">
        <ele>466.3</ele>
        <time>2014-10-02T16:26:55Z</time>
      </trkpt>
      <trkpt lat="42.5718460" lon="-6.7691440">
        <ele>466.2</ele>
        <time>2014-10-02T16:26:56Z</time>
      </trkpt>
      <trkpt lat="42.5717910" lon="-6.7690730">
        <ele>466.1</ele>
        <time>2014-10-02T16:26:57Z</time>
      </trkpt>
      <trkpt lat="42.5717320" lon="-6.7689990">
        <ele>466.0</ele>
        <time>2014-10-02T16:26:58Z</time>
      </trkpt>
      <trkpt lat="42.5716760" lon="-6.7689270">
        <ele>465.9</ele>
        <time>2014-10-02T16:26:59Z</time>
      </trkpt>
      <trkpt lat="42.5716160" lon="-6.7688490">
        <ele>465.8</ele>
        <time>2014-10-02T16:27:00Z</time>
      </trkpt>
      <trkpt lat="42.5715490" lon="-6.7687700">
        <ele>465.7</ele>
        <time>2014-10-02T16:27:01Z</time>
      </trkpt>
      <trkpt lat="42.5714780" lon="-6.7686890">
        <ele>465.5</ele>
        <time>2014-10-02T16:27:02Z</time>
      </trkpt>
      <trkpt lat="42.5714100" lon="-6.7686170">
        <ele>465.4</ele>
        <time>2014-10-02T16:27:03Z</time>
      </trkpt>
      <trkpt lat="42.5713440" lon="-6.7685470">
        <ele>465.2</ele>
        <time>2014-10-02T16:27:04Z</time>
      </trkpt>
      <trkpt lat="42.5712800" lon="-6.7684820">
        <ele>465.1</ele>
        <time>2014-10-02T16:27:05Z</time>
      </trkpt>
      <trkpt lat="42.5712160" lon="-6.7684160">
        <ele>465.1</ele>
        <time>2014-10-02T16:27:06Z</time>
      </trkpt>
      <trkpt lat="42.5711520" lon="-6.7683520">
        <ele>465.0</ele>
        <time>2014-10-02T16:27:07Z</time>
      </trkpt>
      <trkpt lat="42.5710870" lon="-6.7682840">
        <ele>465.0</ele>
        <time>2014-10-02T16:27:08Z</time>
      </trkpt>
      <trkpt lat="42.5710290" lon="-6.7682290">
        <ele>465.0</ele>
        <time>2014-10-02T16:27:09Z</time>
      </trkpt>
      <trkpt lat="42.5709730" lon="-6.7681740">
        <ele>464.9</ele>
        <time>2014-10-02T16:27:10Z</time>
      </trkpt>
      <trkpt lat="42.5709190" lon="-6.7681210">
        <ele>464.9</ele>
        <time>2014-10-02T16:27:11Z</time>
      </trkpt>
      <trkpt lat="42.5708620" lon="-6.7680630">
        <ele>464.8</ele>
        <time>2014-10-02T16:27:12Z</time>
      </trkpt>
      <trkpt lat="42.5708060" lon="-6.7680070">
        <ele>464.7</ele>
        <time>2014-10-02T16:27:13Z</time>
      </trkpt>
      <trkpt lat="42.5707520" lon="-6.7679540">
        <ele>464.6</ele>
        <time>2014-10-02T16:27:14Z</time>
      </trkpt>
      <trkpt lat="42.5706920" lon="-6.7678880">
        <ele>464.5</ele>
        <time>2014-10-02T16:27:15Z</time>
      </trkpt>
      <trkpt lat="42.5706400" lon="-6.7678270">
        <ele>464.5</ele>
        <time>2014-10-02T16:27:16Z</time>
      </trkpt>
      <trkpt lat="42.5705830" lon="-6.7677610">
        <ele>464.4</ele>
        <time>2014-10-02T16:27:17Z</time>
      </trkpt>
      <trkpt lat="42.5705270" lon="-6.7676960">
        <ele>464.4</ele>
        <time>2014-10-02T16:27:18Z</time>
      </trkpt>
      <trkpt lat="42.5704750" lon="-6.7676350">
        <ele>464.3</ele>
        <time>2014-10-02T16:27:19Z</time>
      </trkpt>
      <trkpt lat="42.5704210" lon="-6.7675760">
        <ele>464.2</ele>
        <time>2014-10-02T16:27:20Z</time>
      </trkpt>
      <trkpt lat="42.5703690" lon="-6.7675210">
        <ele>464.2</ele>
        <time>2014-10-02T16:27:21Z</time>
      </trkpt>
      <trkpt lat="42.5703100" lon="-6.7674600">
        <ele>464.1</ele>
        <time>2014-10-02T16:27:22Z</time>
      </trkpt>
      <trkpt lat="42.5702550" lon="-6.7674030">
        <ele>464.0</ele>
        <time>2014-10-02T16:27:23Z</time>
      </trkpt>
      <trkpt lat="42.5701930" lon="-6.7673380">
        <ele>463.9</ele>
        <time>2014-10-02T16:27:24Z</time>
      </trkpt>
      <trkpt lat="42.5701250" lon="-6.7672660">
        <ele>463.9</ele>
        <time>2014-10-02T16:27:25Z</time>
      </trkpt>
      <trkpt lat="42.5700630" lon="-6.7672020">
        <ele>463.8</ele>
        <time>2014-10-02T16:27:26Z</time>
      </trkpt>
      <trkpt lat="42.5700000" lon="-6.7671390">
        <ele>463.7</ele>
        <time>2014-10-02T16:27:27Z</time>
      </trkpt>
      <trkpt lat="42.5699330" lon="-6.7670730">
        <ele>463.7</ele>
        <time>2014-10-02T16:27:28Z</time>
      </trkpt>
      <trkpt lat="42.5698640" lon="-6.7670040">
        <ele>463.6</ele>
        <time>2014-10-02T16:27:29Z</time>
      </trkpt>
      <trkpt lat="42.5697980" lon="-6.7669380">
        <ele>463.5</ele>
        <time>2014-10-02T16:27:30Z</time>
      </trkpt>
      <trkpt lat="42.5697300" lon="-6.7668730">
        <ele>463.4</ele>
        <time>2014-10-02T16:27:31Z</time>
      </trkpt>
      <trkpt lat="42.5696560" lon="-6.7668030">
        <ele>463.3</ele>
        <time>2014-10-02T16:27:32Z</time>
      </trkpt>
      <trkpt lat="42.5695870" lon="-6.7667370">
        <ele>463.3</ele>
        <time>2014-10-02T16:27:33Z</time>
      </trkpt>
      <trkpt lat="42.5695170" lon="-6.7666670">
        <ele>463.2</ele>
        <time>2014-10-02T16:27:34Z</time>
      </trkpt>
      <trkpt lat="42.5694510" lon="-6.7666000">
        <ele>463.1</ele>
        <time>2014-10-02T16:27:35Z</time>
      </trkpt>
      <trkpt lat="42.5693920" lon="-6.7665380">
        <ele>463.1</ele>
        <time>2014-10-02T16:27:36Z</time>
      </trkpt>
      <trkpt lat="42.5693350" lon="-6.7664790">
        <ele>463.0</ele>
        <time>2014-10-02T16:27:37Z</time>
      </trkpt>
      <trkpt lat="42.5692800" lon="-6.7664180">
        <ele>462.9</ele>
        <time>2014-10-02T16:27:38Z</time>
      </trkpt>
      <trkpt lat="42.5692210" lon="-6.7663540">
        <ele>462.8</ele>
        <time>2014-10-02T16:27:39Z</time>
      </trkpt>
      <trkpt lat="42.5691570" lon="-6.7662920">
        <ele>462.7</ele>
        <time>2014-10-02T16:27:40Z</time>
      </trkpt>
      <trkpt lat="42.5691010" lon="-6.7662380">
        <ele>462.6</ele>
        <time>2014-10-02T16:27:41Z</time>
      </trkpt>
      <trkpt lat="42.5690410" lon="-6.7661750">
        <ele>462.5</ele>
        <time>2014-10-02T16:27:42Z</time>
      </trkpt>
      <trkpt lat="42.5689750" lon="-6.7661080">
        <ele>462.4</ele>
        <time>2014-10-02T16:27:43Z</time>
      </trkpt>
      <trkpt lat="42.5689100" lon="-6.7660450">
        <ele>462.3</ele>
        <time>2014-10-02T16:27:44Z</time>
      </trkpt>
      <trkpt lat="42.5688360" lon="-6.7659770">
        <ele>462.3</ele>
        <time>2014-10-02T16:27:45Z</time>
      </trkpt>
      <trkpt lat="42.5687630" lon="-6.7659120">
        <ele>462.2</ele>
        <time>2014-10-02T16:27:46Z</time>
      </trkpt>
      <trkpt lat="42.5686920" lon="-6.7658450">
        <ele>462.1</ele>
        <time>2014-10-02T16:27:47Z</time>
      </trkpt>
      <trkpt lat="42.5686250" lon="-6.7657790">
        <ele>462.0</ele>
        <time>2014-10-02T16:27:48Z</time>
      </trkpt>
      <trkpt lat="42.5685580" lon="-6.7657100">
        <ele>461.9</ele>
        <time>2014-10-02T16:27:49Z</time>
      </trkpt>
      <trkpt lat="42.5684980" lon="-6.7656470">
        <ele>461.9</ele>
        <time>2014-10-02T16:27:50Z</time>
      </trkpt>
      <trkpt lat="42.5684310" lon="-6.7655770">
        <ele>461.8</ele>
        <time>2014-10-02T16:27:51Z</time>
      </trkpt>
      <trkpt lat="42.5683700" lon="-6.7655150">
        <ele>461.7</ele>
        <time>2014-10-02T16:27:52Z</time>
      </trkpt>
      <trkpt lat="42.5683040" lon="-6.7654470">
        <ele>461.7</ele>
        <time>2014-10-02T16:27:53Z</time>
      </trkpt>
      <trkpt lat="42.5682380" lon="-6.7653800">
        <ele>461.6</ele>
        <time>2014-10-02T16:27:54Z</time>
      </trkpt>
      <trkpt lat="42.5681800" lon="-6.7653230">
        <ele>461.6</ele>
        <time>2014-10-02T16:27:55Z</time>
      </trkpt>
      <trkpt lat="42.5681220" lon="-6.7652670">
        <ele>461.6</ele>
        <time>2014-10-02T16:27:56Z</time>
      </trkpt>
      <trkpt lat="42.5680550" lon="-6.7652020">
        <ele>461.5</ele>
        <time>2014-10-02T16:27:57Z</time>
      </trkpt>
      <trkpt lat="42.5679870" lon="-6.7651390">
        <ele>461.4</ele>
        <time>2014-10-02T16:27:58Z</time>
      </trkpt>
      <trkpt lat="42.5679230" lon="-6.7650790">
        <ele>461.3</ele>
        <time>2014-10-02T16:27:59Z</time>
      </trkpt>
      <trkpt lat="42.5678570" lon="-6.7650220">
        <ele>461.1</ele>
        <time>2014-10-02T16:28:00Z</time>
      </trkpt>
      <trkpt lat="42.5677810" lon="-6.7649500">
        <ele>461.0</ele>
        <time>2014-10-02T16:28:01Z</time>
      </trkpt>
      <trkpt lat="42.5677020" lon="-6.7648790">
        <ele>460.9</ele>
        <time>2014-10-02T16:28:02Z</time>
      </trkpt>
      <trkpt lat="42.5676260" lon="-6.7648140">
        <ele>460.8</ele>
        <time>2014-10-02T16:28:03Z</time>
      </trkpt>
      <trkpt lat="42.5675510" lon="-6.7647530">
        <ele>460.8</ele>
        <time>2014-10-02T16:28:04Z</time>
      </trkpt>
      <trkpt lat="42.5674750" lon="-6.7646920">
        <ele>460.8</ele>
        <time>2014-10-02T16:28:05Z</time>
      </trkpt>
      <trkpt lat="42.5674060" lon="-6.7646420">
        <ele>460.7</ele>
        <time>2014-10-02T16:28:06Z</time>
      </trkpt>
      <trkpt lat="42.5673370" lon="-6.7645990">
        <ele>460.7</ele>
        <time>2014-10-02T16:28:07Z</time>
      </trkpt>
      <trkpt lat="42.5672640" lon="-6.7645580">
        <ele>460.6</ele>
        <time>2014-10-02T16:28:08Z</time>
      </trkpt>
      <trkpt lat="42.5671820" lon="-6.7645170">
        <ele>460.6</ele>
        <time>2014-10-02T16:28:09Z</time>
      </trkpt>
      <trkpt lat="42.5670980" lon="-6.7644760">
        <ele>460.6</ele>
        <time>2014-10-02T16:28:10Z</time>
      </trkpt>
      <trkpt lat="42.5670210" lon="-6.7644410">
        <ele>460.6</ele>
        <time>2014-10-02T16:28:11Z</time>
      </trkpt>
      <trkpt lat="42.5669470" lon="-6.7644090">
        <ele>460.6</ele>
        <time>2014-10-02T16:28:12Z</time>
      </trkpt>
      <trkpt lat="42.5668770" lon="-6.7643790">
        <ele>460.6</ele>
        <time>2014-10-02T16:28:13Z</time>
      </trkpt>
      <trkpt lat="42.5668090" lon="-6.7643450">
        <ele>460.6</ele>
        <time>2014-10-02T16:28:14Z</time>
      </trkpt>
      <trkpt lat="42.5667360" lon="-6.7643100">
        <ele>460.7</ele>
        <time>2014-10-02T16:28:15Z</time>
      </trkpt>
      <trkpt lat="42.5666590" lon="-6.7642750">
        <ele>460.8</ele>
        <time>2014-10-02T16:28:16Z</time>
      </trkpt>
      <trkpt lat="42.5665830" lon="-6.7642400">
        <ele>460.6</ele>
        <time>2014-10-02T16:28:17Z</time>
      </trkpt>
      <trkpt lat="42.5665000" lon="-6.7641950">
        <ele>460.4</ele>
        <time>2014-10-02T16:28:18Z</time>
      </trkpt>
      <trkpt lat="42.5664180" lon="-6.7641460">
        <ele>460.3</ele>
        <time>2014-10-02T16:28:19Z</time>
      </trkpt>
      <trkpt lat="42.5663450" lon="-6.7640990">
        <ele>460.2</ele>
        <time>2014-10-02T16:28:20Z</time>
      </trkpt>
      <trkpt lat="42.5662760" lon="-6.7640530">
        <ele>460.1</ele>
        <time>2014-10-02T16:28:21Z</time>
      </trkpt>
      <trkpt lat="42.5662000" lon="-6.7640010">
        <ele>460.0</ele>
        <time>2014-10-02T16:28:22Z</time>
      </trkpt>
      <trkpt lat="42.5661270" lon="-6.7639480">
        <ele>459.9</ele>
        <time>2014-10-02T16:28:23Z</time>
      </trkpt>
      <trkpt lat="42.5660560" lon="-6.7638920">
        <ele>459.9</ele>
        <time>2014-10-02T16:28:24Z</time>
      </trkpt>
      <trkpt lat="42.5659870" lon="-6.7638320">
        <ele>459.8</ele>
        <time>2014-10-02T16:28:25Z</time>
      </trkpt>
      <trkpt lat="42.5659200" lon="-6.7637670">
        <ele>459.6</ele>
        <time>2014-10-02T16:28:26Z</time>
      </trkpt>
      <trkpt lat="42.5658590" lon="-6.7637020">
        <ele>459.5</ele>
        <time>2014-10-02T16:28:27Z</time>
      </trkpt>
      <trkpt lat="42.5657990" lon="-6.7636360">
        <ele>459.4</ele>
        <time>2014-10-02T16:28:28Z</time>
      </trkpt>
      <trkpt lat="42.5657410" lon="-6.7635660">
        <ele>459.3</ele>
        <time>2014-10-02T16:28:29Z</time>
      </trkpt>
      <trkpt lat="42.5656800" lon="-6.7634860">
        <ele>459.2</ele>
        <time>2014-10-02T16:28:30Z</time>
      </trkpt>
      <trkpt lat="42.5656200" lon="-6.7634040">
        <ele>459.0</ele>
        <time>2014-10-02T16:28:31Z</time>
      </trkpt>
      <trkpt lat="42.5655620" lon="-6.7633200">
        <ele>458.8</ele>
        <time>2014-10-02T16:28:32Z</time>
      </trkpt>
      <trkpt lat="42.5655090" lon="-6.7632390">
        <ele>458.6</ele>
        <time>2014-10-02T16:28:33Z</time>
      </trkpt>
      <trkpt lat="42.5654580" lon="-6.7631590">
        <ele>458.4</ele>
        <time>2014-10-02T16:28:34Z</time>
      </trkpt>
      <trkpt lat="42.5654030" lon="-6.7630650">
        <ele>458.2</ele>
        <time>2014-10-02T16:28:35Z</time>
      </trkpt>
      <trkpt lat="42.5653520" lon="-6.7629750">
        <ele>458.0</ele>
        <time>2014-10-02T16:28:36Z</time>
      </trkpt>
      <trkpt lat="42.5653050" lon="-6.7628820">
        <ele>457.8</ele>
        <time>2014-10-02T16:28:37Z</time>
      </trkpt>
      <trkpt lat="42.5652590" lon="-6.7627860">
        <ele>457.7</ele>
        <time>2014-10-02T16:28:38Z</time>
      </trkpt>
      <trkpt lat="42.5652150" lon="-6.7626890">
        <ele>457.5</ele>
        <time>2014-10-02T16:28:39Z</time>
      </trkpt>
      <trkpt lat="42.5651730" lon="-6.7625900">
        <ele>457.4</ele>
        <time>2014-10-02T16:28:40Z</time>
      </trkpt>
      <trkpt lat="42.5651340" lon="-6.7624890">
        <ele>457.2</ele>
        <time>2014-10-02T16:28:41Z</time>
      </trkpt>
      <trkpt lat="42.5650980" lon="-6.7623870">
        <ele>457.1</ele>
        <time>2014-10-02T16:28:42Z</time>
      </trkpt>
      <trkpt lat="42.5650630" lon="-6.7622830">
        <ele>456.9</ele>
        <time>2014-10-02T16:28:43Z</time>
      </trkpt>
      <trkpt lat="42.5650290" lon="-6.7621750">
        <ele>456.7</ele>
        <time>2014-10-02T16:28:44Z</time>
      </trkpt>
      <trkpt lat="42.5650000" lon="-6.7620700">
        <ele>456.5</ele>
        <time>2014-10-02T16:28:45Z</time>
      </trkpt>
      <trkpt lat="42.5649770" lon="-6.7619660">
        <ele>456.4</ele>
        <time>2014-10-02T16:28:46Z</time>
      </trkpt>
      <trkpt lat="42.5649550" lon="-6.7618540">
        <ele>456.3</ele>
        <time>2014-10-02T16:28:47Z</time>
      </trkpt>
      <trkpt lat="42.5649380" lon="-6.7617440">
        <ele>456.1</ele>
        <time>2014-10-02T16:28:48Z</time>
      </trkpt>
      <trkpt lat="42.5649290" lon="-6.7616380">
        <ele>456.0</ele>
        <time>2014-10-02T16:28:49Z</time>
      </trkpt>
      <trkpt lat="42.5649210" lon="-6.7615330">
        <ele>455.9</ele>
        <time>2014-10-02T16:28:50Z</time>
      </trkpt>
      <trkpt lat="42.5649080" lon="-6.7614190">
        <ele>455.9</ele>
        <time>2014-10-02T16:28:51Z</time>
      </trkpt>
      <trkpt lat="42.5648980" lon="-6.7613060">
        <ele>455.9</ele>
        <time>2014-10-02T16:28:52Z</time>
      </trkpt>
      <trkpt lat="42.5648940" lon="-6.7612050">
        <ele>455.9</ele>
        <time>2014-10-02T16:28:53Z</time>
      </trkpt>
      <trkpt lat="42.5648930" lon="-6.7611060">
        <ele>455.9</ele>
        <time>2014-10-02T16:28:54Z</time>
      </trkpt>
      <trkpt lat="42.5648910" lon="-6.7610060">
        <ele>455.9</ele>
        <time>2014-10-02T16:28:55Z</time>
      </trkpt>
      <trkpt lat="42.5648920" lon="-6.7609080">
        <ele>455.9</ele>
        <time>2014-10-02T16:28:56Z</time>
      </trkpt>
      <trkpt lat="42.5648940" lon="-6.7608160">
        <ele>455.9</ele>
        <time>2014-10-02T16:28:57Z</time>
      </trkpt>
      <trkpt lat="42.5648970" lon="-6.7607140">
        <ele>456.0</ele>
        <time>2014-10-02T16:28:58Z</time>
      </trkpt>
      <trkpt lat="42.5649010" lon="-6.7606070">
        <ele>456.1</ele>
        <time>2014-10-02T16:28:59Z</time>
      </trkpt>
      <trkpt lat="42.5649050" lon="-6.7605020">
        <ele>456.2</ele>
        <time>2014-10-02T16:29:00Z</time>
      </trkpt>
      <trkpt lat="42.5649130" lon="-6.7604000">
        <ele>456.2</ele>
        <time>2014-10-02T16:29:01Z</time>
      </trkpt>
      <trkpt lat="42.5649230" lon="-6.7602930">
        <ele>456.3</ele>
        <time>2014-10-02T16:29:02Z</time>
      </trkpt>
      <trkpt lat="42.5649350" lon="-6.7601860">
        <ele>456.4</ele>
        <time>2014-10-02T16:29:03Z</time>
      </trkpt>
      <trkpt lat="42.5649490" lon="-6.7600880">
        <ele>456.4</ele>
        <time>2014-10-02T16:29:04Z</time>
      </trkpt>
      <trkpt lat="42.5649660" lon="-6.7599920">
        <ele>456.5</ele>
        <time>2014-10-02T16:29:05Z</time>
      </trkpt>
      <trkpt lat="42.5649830" lon="-6.7599130">
        <ele>456.5</ele>
        <time>2014-10-02T16:29:06Z</time>
      </trkpt>
      <trkpt lat="42.5650050" lon="-6.7598170">
        <ele>456.6</ele>
        <time>2014-10-02T16:29:07Z</time>
      </trkpt>
      <trkpt lat="42.5650290" lon="-6.7597350">
        <ele>456.7</ele>
        <time>2014-10-02T16:29:08Z</time>
      </trkpt>
      <trkpt lat="42.5650570" lon="-6.7596460">
        <ele>456.7</ele>
        <time>2014-10-02T16:29:09Z</time>
      </trkpt>
      <trkpt lat="42.5650880" lon="-6.7595550">
        <ele>456.8</ele>
        <time>2014-10-02T16:29:10Z</time>
      </trkpt>
      <trkpt lat="42.5651210" lon="-6.7594630">
        <ele>456.9</ele>
        <time>2014-10-02T16:29:11Z</time>
      </trkpt>
      <trkpt lat="42.5651550" lon="-6.7593730">
        <ele>457.0</ele>
        <time>2014-10-02T16:29:12Z</time>
      </trkpt>
      <trkpt lat="42.5651880" lon="-6.7592890">
        <ele>457.0</ele>
        <time>2014-10-02T16:29:13Z</time>
      </trkpt>
      <trkpt lat="42.5652270" lon="-6.7592020">
        <ele>457.1</ele>
        <time>2014-10-02T16:29:14Z</time>
      </trkpt>
      <trkpt lat="42.5652650" lon="-6.7591210">
        <ele>457.2</ele>
        <time>2014-10-02T16:29:15Z</time>
      </trkpt>
      <trkpt lat="42.5653060" lon="-6.7590350">
        <ele>457.3</ele>
        <time>2014-10-02T16:29:16Z</time>
      </trkpt>
      <trkpt lat="42.5653470" lon="-6.7589590">
        <ele>457.3</ele>
        <time>2014-10-02T16:29:17Z</time>
      </trkpt>
      <trkpt lat="42.5653870" lon="-6.7588840">
        <ele>457.4</ele>
        <time>2014-10-02T16:29:18Z</time>
      </trkpt>
      <trkpt lat="42.5654290" lon="-6.7588120">
        <ele>457.4</ele>
        <time>2014-10-02T16:29:19Z</time>
      </trkpt>
      <trkpt lat="42.5654740" lon="-6.7587380">
        <ele>457.5</ele>
        <time>2014-10-02T16:29:20Z</time>
      </trkpt>
      <trkpt lat="42.5655200" lon="-6.7586650">
        <ele>457.6</ele>
        <time>2014-10-02T16:29:21Z</time>
      </trkpt>
      <trkpt lat="42.5655680" lon="-6.7585910">
        <ele>457.8</ele>
        <time>2014-10-02T16:29:22Z</time>
      </trkpt>
      <trkpt lat="42.5656190" lon="-6.7585140">
        <ele>458.0</ele>
        <time>2014-10-02T16:29:23Z</time>
      </trkpt>
      <trkpt lat="42.5656700" lon="-6.7584410">
        <ele>458.2</ele>
        <time>2014-10-02T16:29:24Z</time>
      </trkpt>
      <trkpt lat="42.5657250" lon="-6.7583670">
        <ele>458.3</ele>
        <time>2014-10-02T16:29:25Z</time>
      </trkpt>
      <trkpt lat="42.5657790" lon="-6.7582940">
        <ele>458.3</ele>
        <time>2014-10-02T16:29:26Z</time>
      </trkpt>
      <trkpt lat="42.5658330" lon="-6.7582220">
        <ele>458.4</ele>
        <time>2014-10-02T16:29:27Z</time>
      </trkpt>
      <trkpt lat="42.5658920" lon="-6.7581480">
        <ele>458.4</ele>
        <time>2014-10-02T16:29:28Z</time>
      </trkpt>
      <trkpt lat="42.5659440" lon="-6.7580790">
        <ele>458.4</ele>
        <time>2014-10-02T16:29:29Z</time>
      </trkpt>
      <trkpt lat="42.5659920" lon="-6.7580150">
        <ele>458.4</ele>
        <time>2014-10-02T16:29:30Z</time>
      </trkpt>
      <trkpt lat="42.5660430" lon="-6.7579460">
        <ele>458.5</ele>
        <time>2014-10-02T16:29:31Z</time>
      </trkpt>
      <trkpt lat="42.5660950" lon="-6.7578800">
        <ele>458.5</ele>
        <time>2014-10-02T16:29:32Z</time>
      </trkpt>
      <trkpt lat="42.5661430" lon="-6.7578190">
        <ele>458.5</ele>
        <time>2014-10-02T16:29:33Z</time>
      </trkpt>
      <trkpt lat="42.5661920" lon="-6.7577590">
        <ele>458.5</ele>
        <time>2014-10-02T16:29:34Z</time>
      </trkpt>
      <trkpt lat="42.5662400" lon="-6.7577010">
        <ele>458.5</ele>
        <time>2014-10-02T16:29:35Z</time>
      </trkpt>
      <trkpt lat="42.5662890" lon="-6.7576470">
        <ele>458.5</ele>
        <time>2014-10-02T16:29:36Z</time>
      </trkpt>
      <trkpt lat="42.5663410" lon="-6.7575900">
        <ele>458.6</ele>
        <time>2014-10-02T16:29:37Z</time>
      </trkpt>
      <trkpt lat="42.5663930" lon="-6.7575360">
        <ele>458.6</ele>
        <time>2014-10-02T16:29:38Z</time>
      </trkpt>
      <trkpt lat="42.5664470" lon="-6.7574760">
        <ele>458.6</ele>
        <time>2014-10-02T16:29:39Z</time>
      </trkpt>
      <trkpt lat="42.5664970" lon="-6.7574170">
        <ele>458.6</ele>
        <time>2014-10-02T16:29:40Z</time>
      </trkpt>
      <trkpt lat="42.5665490" lon="-6.7573570">
        <ele>458.6</ele>
        <time>2014-10-02T16:29:41Z</time>
      </trkpt>
      <trkpt lat="42.5666020" lon="-6.7572950">
        <ele>458.6</ele>
        <time>2014-10-02T16:29:42Z</time>
      </trkpt>
      <trkpt lat="42.5666520" lon="-6.7572360">
        <ele>458.6</ele>
        <time>2014-10-02T16:29:43Z</time>
      </trkpt>
      <trkpt lat="42.5667060" lon="-6.7571690">
        <ele>458.5</ele>
        <time>2014-10-02T16:29:44Z</time>
      </trkpt>
      <trkpt lat="42.5667520" lon="-6.7571040">
        <ele>458.5</ele>
        <time>2014-10-02T16:29:45Z</time>
      </trkpt>
      <trkpt lat="42.5668010" lon="-6.7570370">
        <ele>458.5</ele>
        <time>2014-10-02T16:29:46Z</time>
      </trkpt>
      <trkpt lat="42.5668500" lon="-6.7569670">
        <ele>458.5</ele>
        <time>2014-10-02T16:29:47Z</time>
      </trkpt>
      <trkpt lat="42.5668940" lon="-6.7568970">
        <ele>458.5</ele>
        <time>2014-10-02T16:29:48Z</time>
      </trkpt>
      <trkpt lat="42.5669400" lon="-6.7568220">
        <ele>458.4</ele>
        <time>2014-10-02T16:29:49Z</time>
      </trkpt>
      <trkpt lat="42.5669840" lon="-6.7567460">
        <ele>458.4</ele>
        <time>2014-10-02T16:29:50Z</time>
      </trkpt>
      <trkpt lat="42.5670240" lon="-6.7566680">
        <ele>458.4</ele>
        <time>2014-10-02T16:29:51Z</time>
      </trkpt>
      <trkpt lat="42.5670620" lon="-6.7565890">
        <ele>458.4</ele>
        <time>2014-10-02T16:29:52Z</time>
      </trkpt>
      <trkpt lat="42.5670970" lon="-6.7565110">
        <ele>458.3</ele>
        <time>2014-10-02T16:29:53Z</time>
      </trkpt>
      <trkpt lat="42.5671340" lon="-6.7564280">
        <ele>458.3</ele>
        <time>2014-10-02T16:29:54Z</time>
      </trkpt>
      <trkpt lat="42.5671690" lon="-6.7563450">
        <ele>458.3</ele>
        <time>2014-10-02T16:29:55Z</time>
      </trkpt>
      <trkpt lat="42.5672000" lon="-6.7562630">
        <ele>458.3</ele>
        <time>2014-10-02T16:29:56Z</time>
      </trkpt>
      <trkpt lat="42.5672290" lon="-6.7561750">
        <ele>458.3</ele>
        <time>2014-10-02T16:29:57Z</time>
      </trkpt>
      <trkpt lat="42.5672600" lon="-6.7560810">
        <ele>458.3</ele>
        <time>2014-10-02T16:29:58Z</time>
      </trkpt>
      <trkpt lat="42.5672860" lon="-6.7559890">
        <ele>458.2</ele>
        <time>2014-10-02T16:29:59Z</time>
      </trkpt>
      <trkpt lat="42.5673120" lon="-6.7558980">
        <ele>458.2</ele>
        <time>2014-10-02T16:30:00Z</time>
      </trkpt>
      <trkpt lat="42.5673350" lon="-6.7558090">
        <ele>458.2</ele>
        <time>2014-10-02T16:30:01Z</time>
      </trkpt>
      <trkpt lat="42.5673590" lon="-6.7557120">
        <ele>458.1</ele>
        <time>2014-10-02T16:30:02Z</time>
      </trkpt>
      <trkpt lat="42.5673780" lon="-6.7556270">
        <ele>458.0</ele>
        <time>2014-10-02T16:30:03Z</time>
      </trkpt>
      <trkpt lat="42.5674010" lon="-6.7555310">
        <ele>458.0</ele>
        <time>2014-10-02T16:30:04Z</time>
      </trkpt>
      <trkpt lat="42.5674250" lon="-6.7554330">
        <ele>457.9</ele>
        <time>2014-10-02T16:30:05Z</time>
      </trkpt>
      <trkpt lat="42.5674470" lon="-6.7553310">
        <ele>457.8</ele>
        <time>2014-10-02T16:30:06Z</time>
      </trkpt>
      <trkpt lat="42.5674670" lon="-6.7552280">
        <ele>457.7</ele>
        <time>2014-10-02T16:30:07Z</time>
      </trkpt>
      <trkpt lat="42.5674870" lon="-6.7551290">
        <ele>457.7</ele>
        <time>2014-10-02T16:30:08Z</time>
      </trkpt>
      <trkpt lat="42.5675090" lon="-6.7550270">
        <ele>457.7</ele>
        <time>2014-10-02T16:30:09Z</time>
      </trkpt>
      <trkpt lat="42.5675320" lon="-6.7549290">
        <ele>457.7</ele>
        <time>2014-10-02T16:30:10Z</time>
      </trkpt>
      <trkpt lat="42.5675550" lon="-6.7548300">
        <ele>457.7</ele>
        <time>2014-10-02T16:30:11Z</time>
      </trkpt>
      <trkpt lat="42.5675790" lon="-6.7547310">
        <ele>457.7</ele>
        <time>2014-10-02T16:30:12Z</time>
      </trkpt>
      <trkpt lat="42.5676020" lon="-6.7546360">
        <ele>457.7</ele>
        <time>2014-10-02T16:30:13Z</time>
      </trkpt>
      <trkpt lat="42.5676250" lon="-6.7545340">
        <ele>457.7</ele>
        <time>2014-10-02T16:30:14Z</time>
      </trkpt>
      <trkpt lat="42.5676490" lon="-6.7544320">
        <ele>457.7</ele>
        <time>2014-10-02T16:30:15Z</time>
      </trkpt>
      <trkpt lat="42.5676720" lon="-6.7543300">
        <ele>457.7</ele>
        <time>2014-10-02T16:30:16Z</time>
      </trkpt>
      <trkpt lat="42.5676980" lon="-6.7542320">
        <ele>457.6</ele>
        <time>2014-10-02T16:30:17Z</time>
      </trkpt>
      <trkpt lat="42.5677220" lon="-6.7541330">
        <ele>457.5</ele>
        <time>2014-10-02T16:30:18Z</time>
      </trkpt>
      <trkpt lat="42.5677450" lon="-6.7540330">
        <ele>457.5</ele>
        <time>2014-10-02T16:30:19Z</time>
      </trkpt>
      <trkpt lat="42.5677670" lon="-6.7539330">
        <ele>457.5</ele>
        <time>2014-10-02T16:30:20Z</time>
      </trkpt>
      <trkpt lat="42.5677870" lon="-6.7538330">
        <ele>457.5</ele>
        <time>2014-10-02T16:30:21Z</time>
      </trkpt>
      <trkpt lat="42.5678090" lon="-6.7537330">
        <ele>457.5</ele>
        <time>2014-10-02T16:30:22Z</time>
      </trkpt>
      <trkpt lat="42.5678310" lon="-6.7536340">
        <ele>457.6</ele>
        <time>2014-10-02T16:30:23Z</time>
      </trkpt>
      <trkpt lat="42.5678520" lon="-6.7535410">
        <ele>457.6</ele>
        <time>2014-10-02T16:30:24Z</time>
      </trkpt>
      <trkpt lat="42.5678730" lon="-6.7534470">
        <ele>457.6</ele>
        <time>2014-10-02T16:30:25Z</time>
      </trkpt>
      <trkpt lat="42.5678930" lon="-6.7533550">
        <ele>457.6</ele>
        <time>2014-10-02T16:30:26Z</time>
      </trkpt>
      <trkpt lat="42.5679120" lon="-6.7532630">
        <ele>457.7</ele>
        <time>2014-10-02T16:30:27Z</time>
      </trkpt>
      <trkpt lat="42.5679320" lon="-6.7531640">
        <ele>457.7</ele>
        <time>2014-10-02T16:30:28Z</time>
      </trkpt>
      <trkpt lat="42.5679500" lon="-6.7530600">
        <ele>457.7</ele>
        <time>2014-10-02T16:30:29Z</time>
      </trkpt>
      <trkpt lat="42.5679710" lon="-6.7529530">
        <ele>457.8</ele>
        <time>2014-10-02T16:30:30Z</time>
      </trkpt>
      <trkpt lat="42.5679920" lon="-6.7528480">
        <ele>457.8</ele>
        <time>2014-10-02T16:30:31Z</time>
      </trkpt>
      <trkpt lat="42.5680110" lon="-6.7527480">
        <ele>457.8</ele>
        <time>2014-10-02T16:30:32Z</time>
      </trkpt>
      <trkpt lat="42.5680290" lon="-6.7526510">
        <ele>457.8</ele>
        <time>2014-10-02T16:30:33Z</time>
      </trkpt>
      <trkpt lat="42.5680460" lon="-6.7525590">
        <ele>457.8</ele>
        <time>2014-10-02T16:30:34Z</time>
      </trkpt>
      <trkpt lat="42.5680670" lon="-6.7524530">
        <ele>457.8</ele>
        <time>2014-10-02T16:30:35Z</time>
      </trkpt>
      <trkpt lat="42.5680850" lon="-6.7523640">
        <ele>457.9</ele>
        <time>2014-10-02T16:30:36Z</time>
      </trkpt>
      <trkpt lat="42.5681000" lon="-6.7522840">
        <ele>457.9</ele>
        <time>2014-10-02T16:30:37Z</time>
      </trkpt>
      <trkpt lat="42.5681130" lon="-6.7521990">
        <ele>457.9</ele>
        <time>2014-10-02T16:30:38Z</time>
      </trkpt>
      <trkpt lat="42.5681300" lon="-6.7521080">
        <ele>457.9</ele>
        <time>2014-10-02T16:30:39Z</time>
      </trkpt>
      <trkpt lat="42.5681490" lon="-6.7520190">
        <ele>457.9</ele>
        <time>2014-10-02T16:30:40Z</time>
      </trkpt>
      <trkpt lat="42.5681660" lon="-6.7519310">
        <ele>458.0</ele>
        <time>2014-10-02T16:30:41Z</time>
      </trkpt>
      <trkpt lat="42.5681860" lon="-6.7518340">
        <ele>458.1</ele>
        <time>2014-10-02T16:30:42Z</time>
      </trkpt>
      <trkpt lat="42.5682050" lon="-6.7517440">
        <ele>458.2</ele>
        <time>2014-10-02T16:30:43Z</time>
      </trkpt>
      <trkpt lat="42.5682240" lon="-6.7516550">
        <ele>458.3</ele>
        <time>2014-10-02T16:30:44Z</time>
      </trkpt>
      <trkpt lat="42.5682440" lon="-6.7515660">
        <ele>458.3</ele>
        <time>2014-10-02T16:30:45Z</time>
      </trkpt>
      <trkpt lat="42.5682620" lon="-6.7514760">
        <ele>458.3</ele>
        <time>2014-10-02T16:30:46Z</time>
      </trkpt>
      <trkpt lat="42.5682800" lon="-6.7513830">
        <ele>458.3</ele>
        <time>2014-10-02T16:30:47Z</time>
      </trkpt>
      <trkpt lat="42.5682990" lon="-6.7512890">
        <ele>458.3</ele>
        <time>2014-10-02T16:30:48Z</time>
      </trkpt>
      <trkpt lat="42.5683160" lon="-6.7511970">
        <ele>458.3</ele>
        <time>2014-10-02T16:30:49Z</time>
      </trkpt>
      <trkpt lat="42.5683320" lon="-6.7511020">
        <ele>458.3</ele>
        <time>2014-10-02T16:30:50Z</time>
      </trkpt>
      <trkpt lat="42.5683460" lon="-6.7510090">
        <ele>458.4</ele>
        <time>2014-10-02T16:30:51Z</time>
      </trkpt>
      <trkpt lat="42.5683580" lon="-6.7509230">
        <ele>458.4</ele>
        <time>2014-10-02T16:30:52Z</time>
      </trkpt>
      <trkpt lat="42.5683700" lon="-6.7508300">
        <ele>458.4</ele>
        <time>2014-10-02T16:30:53Z</time>
      </trkpt>
      <trkpt lat="42.5683800" lon="-6.7507420">
        <ele>458.5</ele>
        <time>2014-10-02T16:30:54Z</time>
      </trkpt>
      <trkpt lat="42.5683900" lon="-6.7506530">
        <ele>458.5</ele>
        <time>2014-10-02T16:30:55Z</time>
      </trkpt>
      <trkpt lat="42.5683980" lon="-6.7505680">
        <ele>458.5</ele>
        <time>2014-10-02T16:30:56Z</time>
      </trkpt>
      <trkpt lat="42.5684060" lon="-6.7504780">
        <ele>458.5</ele>
        <time>2014-10-02T16:30:57Z</time>
      </trkpt>
      <trkpt lat="42.5684140" lon="-6.7503900">
        <ele>458.5</ele>
        <time>2014-10-02T16:30:58Z</time>
      </trkpt>
      <trkpt lat="42.5684220" lon="-6.7502970">
        <ele>458.5</ele>
        <time>2014-10-02T16:30:59Z</time>
      </trkpt>
      <trkpt lat="42.5684290" lon="-6.7502070">
        <ele>458.4</ele>
        <time>2014-10-02T16:31:00Z</time>
      </trkpt>
      <trkpt lat="42.5684380" lon="-6.7501120">
        <ele>458.4</ele>
        <time>2014-10-02T16:31:01Z</time>
      </trkpt>
      <trkpt lat="42.5684460" lon="-6.7500210">
        <ele>458.3</ele>
        <time>2014-10-02T16:31:02Z</time>
      </trkpt>
      <trkpt lat="42.5684550" lon="-6.7499230">
        <ele>458.3</ele>
        <time>2014-10-02T16:31:03Z</time>
      </trkpt>
      <trkpt lat="42.5684640" lon="-6.7498220">
        <ele>458.2</ele>
        <time>2014-10-02T16:31:04Z</time>
      </trkpt>
      <trkpt lat="42.5684730" lon="-6.7497270">
        <ele>458.1</ele>
        <time>2014-10-02T16:31:05Z</time>
      </trkpt>
      <trkpt lat="42.5684830" lon="-6.7496290">
        <ele>458.0</ele>
        <time>2014-10-02T16:31:06Z</time>
      </trkpt>
      <trkpt lat="42.5684910" lon="-6.7495340">
        <ele>458.0</ele>
        <time>2014-10-02T16:31:07Z</time>
      </trkpt>
      <trkpt lat="42.5685000" lon="-6.7494350">
        <ele>458.0</ele>
        <time>2014-10-02T16:31:08Z</time>
      </trkpt>
      <trkpt lat="42.5685070" lon="-6.7493360">
        <ele>458.0</ele>
        <time>2014-10-02T16:31:09Z</time>
      </trkpt>
      <trkpt lat="42.5685150" lon="-6.7492340">
        <ele>458.0</ele>
        <time>2014-10-02T16:31:10Z</time>
      </trkpt>
      <trkpt lat="42.5685230" lon="-6.7491340">
        <ele>458.0</ele>
        <time>2014-10-02T16:31:11Z</time>
      </trkpt>
      <trkpt lat="42.5685310" lon="-6.7490430">
        <ele>458.0</ele>
        <time>2014-10-02T16:31:12Z</time>
      </trkpt>
      <trkpt lat="42.5685400" lon="-6.7489390">
        <ele>458.1</ele>
        <time>2014-10-02T16:31:13Z</time>
      </trkpt>
      <trkpt lat="42.5685470" lon="-6.7488380">
        <ele>458.1</ele>
        <time>2014-10-02T16:31:14Z</time>
      </trkpt>
      <trkpt lat="42.5685530" lon="-6.7487350">
        <ele>458.2</ele>
        <time>2014-10-02T16:31:15Z</time>
      </trkpt>
      <trkpt lat="42.5685600" lon="-6.7486230">
        <ele>458.2</ele>
        <time>2014-10-02T16:31:16Z</time>
      </trkpt>
      <trkpt lat="42.5685660" lon="-6.7485160">
        <ele>458.1</ele>
        <time>2014-10-02T16:31:17Z</time>
      </trkpt>
      <trkpt lat="42.5685720" lon="-6.7484100">
        <ele>458.1</ele>
        <time>2014-10-02T16:31:18Z</time>
      </trkpt>
      <trkpt lat="42.5685760" lon="-6.7482980">
        <ele>458.1</ele>
        <time>2014-10-02T16:31:19Z</time>
      </trkpt>
      <trkpt lat="42.5685800" lon="-6.7481880">
        <ele>458.1</ele>
        <time>2014-10-02T16:31:20Z</time>
      </trkpt>
      <trkpt lat="42.5685840" lon="-6.7480830">
        <ele>458.1</ele>
        <time>2014-10-02T16:31:21Z</time>
      </trkpt>
      <trkpt lat="42.5685860" lon="-6.7479760">
        <ele>458.0</ele>
        <time>2014-10-02T16:31:22Z</time>
      </trkpt>
      <trkpt lat="42.5685880" lon="-6.7478630">
        <ele>458.0</ele>
        <time>2014-10-02T16:31:23Z</time>
      </trkpt>
      <trkpt lat="42.5685910" lon="-6.7477500">
        <ele>458.0</ele>
        <time>2014-10-02T16:31:24Z</time>
      </trkpt>
      <trkpt lat="42.5685940" lon="-6.7476390">
        <ele>458.0</ele>
        <time>2014-10-02T16:31:25Z</time>
      </trkpt>
      <trkpt lat="42.5685960" lon="-6.7475250">
        <ele>457.9</ele>
        <time>2014-10-02T16:31:26Z</time>
      </trkpt>
      <trkpt lat="42.5685970" lon="-6.7474180">
        <ele>457.9</ele>
        <time>2014-10-02T16:31:27Z</time>
      </trkpt>
      <trkpt lat="42.5685970" lon="-6.7473100">
        <ele>457.9</ele>
        <time>2014-10-02T16:31:28Z</time>
      </trkpt>
      <trkpt lat="42.5685930" lon="-6.7472050">
        <ele>457.8</ele>
        <time>2014-10-02T16:31:29Z</time>
      </trkpt>
      <trkpt lat="42.5685880" lon="-6.7471020">
        <ele>457.8</ele>
        <time>2014-10-02T16:31:30Z</time>
      </trkpt>
      <trkpt lat="42.5685830" lon="-6.7469900">
        <ele>457.6</ele>
        <time>2014-10-02T16:31:31Z</time>
      </trkpt>
      <trkpt lat="42.5685780" lon="-6.7468850">
        <ele>457.6</ele>
        <time>2014-10-02T16:31:32Z</time>
      </trkpt>
      <trkpt lat="42.5685740" lon="-6.7467840">
        <ele>457.5</ele>
        <time>2014-10-02T16:31:33Z</time>
      </trkpt>
      <trkpt lat="42.5685710" lon="-6.7466880">
        <ele>457.4</ele>
        <time>2014-10-02T16:31:34Z</time>
      </trkpt>
      <trkpt lat="42.5685710" lon="-6.7465970">
        <ele>457.4</ele>
        <time>2014-10-02T16:31:35Z</time>
      </trkpt>
      <trkpt lat="42.5685730" lon="-6.7465030">
        <ele>457.4</ele>
        <time>2014-10-02T16:31:36Z</time>
      </trkpt>
      <trkpt lat="42.5685750" lon="-6.7463980">
        <ele>457.3</ele>
        <time>2014-10-02T16:31:37Z</time>
      </trkpt>
      <trkpt lat="42.5685760" lon="-6.7462840">
        <ele>457.3</ele>
        <time>2014-10-02T16:31:38Z</time>
      </trkpt>
      <trkpt lat="42.5685770" lon="-6.7461690">
        <ele>457.2</ele>
        <time>2014-10-02T16:31:39Z</time>
      </trkpt>
      <trkpt lat="42.5685780" lon="-6.7460500">
        <ele>457.1</ele>
        <time>2014-10-02T16:31:40Z</time>
      </trkpt>
      <trkpt lat="42.5685770" lon="-6.7459290">
        <ele>457.1</ele>
        <time>2014-10-02T16:31:41Z</time>
      </trkpt>
      <trkpt lat="42.5685770" lon="-6.7458100">
        <ele>457.0</ele>
        <time>2014-10-02T16:31:42Z</time>
      </trkpt>
      <trkpt lat="42.5685760" lon="-6.7456930">
        <ele>457.0</ele>
        <time>2014-10-02T16:31:43Z</time>
      </trkpt>
      <trkpt lat="42.5685720" lon="-6.7455730">
        <ele>457.0</ele>
        <time>2014-10-02T16:31:44Z</time>
      </trkpt>
      <trkpt lat="42.5685670" lon="-6.7454610">
        <ele>457.0</ele>
        <time>2014-10-02T16:31:45Z</time>
      </trkpt>
      <trkpt lat="42.5685590" lon="-6.7453420">
        <ele>456.9</ele>
        <time>2014-10-02T16:31:46Z</time>
      </trkpt>
      <trkpt lat="42.5685510" lon="-6.7452250">
        <ele>456.9</ele>
        <time>2014-10-02T16:31:47Z</time>
      </trkpt>
      <trkpt lat="42.5685410" lon="-6.7451120">
        <ele>456.8</ele>
        <time>2014-10-02T16:31:48Z</time>
      </trkpt>
      <trkpt lat="42.5685310" lon="-6.7449990">
        <ele>456.8</ele>
        <time>2014-10-02T16:31:49Z</time>
      </trkpt>
      <trkpt lat="42.5685210" lon="-6.7448850">
        <ele>456.8</ele>
        <time>2014-10-02T16:31:50Z</time>
      </trkpt>
      <trkpt lat="42.5685090" lon="-6.7447690">
        <ele>456.7</ele>
        <time>2014-10-02T16:31:51Z</time>
      </trkpt>
      <trkpt lat="42.5684980" lon="-6.7446580">
        <ele>456.7</ele>
        <time>2014-10-02T16:31:52Z</time>
      </trkpt>
      <trkpt lat="42.5684860" lon="-6.7445460">
        <ele>456.6</ele>
        <time>2014-10-02T16:31:53Z</time>
      </trkpt>
      <trkpt lat="42.5684740" lon="-6.7444370">
        <ele>456.6</ele>
        <time>2014-10-02T16:31:54Z</time>
      </trkpt>
      <trkpt lat="42.5684620" lon="-6.7443340">
        <ele>456.5</ele>
        <time>2014-10-02T16:31:55Z</time>
      </trkpt>
      <trkpt lat="42.5684490" lon="-6.7442260">
        <ele>456.5</ele>
        <time>2014-10-02T16:31:56Z</time>
      </trkpt>
      <trkpt lat="42.5684360" lon="-6.7441240">
        <ele>456.4</ele>
        <time>2014-10-02T16:31:57Z</time>
      </trkpt>
      <trkpt lat="42.5684220" lon="-6.7440150">
        <ele>456.4</ele>
        <time>2014-10-02T16:31:58Z</time>
      </trkpt>
      <trkpt lat="42.5684080" lon="-6.7438990">
        <ele>456.4</ele>
        <time>2014-10-02T16:31:59Z</time>
      </trkpt>
      <trkpt lat="42.5683920" lon="-6.7437820">
        <ele>456.3</ele>
        <time>2014-10-02T16:32:00Z</time>
      </trkpt>
      <trkpt lat="42.5683760" lon="-6.7436710">
        <ele>456.3</ele>
        <time>2014-10-02T16:32:01Z</time>
      </trkpt>
      <trkpt lat="42.5683570" lon="-6.7435590">
        <ele>456.3</ele>
        <time>2014-10-02T16:32:02Z</time>
      </trkpt>
      <trkpt lat="42.5683390" lon="-6.7434420">
        <ele>456.2</ele>
        <time>2014-10-02T16:32:03Z</time>
      </trkpt>
      <trkpt lat="42.5683190" lon="-6.7433240">
        <ele>456.1</ele>
        <time>2014-10-02T16:32:04Z</time>
      </trkpt>
      <trkpt lat="42.5683000" lon="-6.7432130">
        <ele>456.1</ele>
        <time>2014-10-02T16:32:05Z</time>
      </trkpt>
      <trkpt lat="42.5682810" lon="-6.7431040">
        <ele>456.0</ele>
        <time>2014-10-02T16:32:06Z</time>
      </trkpt>
      <trkpt lat="42.5682590" lon="-6.7429910">
        <ele>456.0</ele>
        <time>2014-10-02T16:32:07Z</time>
      </trkpt>
      <trkpt lat="42.5682390" lon="-6.7428760">
        <ele>455.9</ele>
        <time>2014-10-02T16:32:08Z</time>
      </trkpt>
      <trkpt lat="42.5682210" lon="-6.7427740">
        <ele>455.8</ele>
        <time>2014-10-02T16:32:09Z</time>
      </trkpt>
      <trkpt lat="42.5682030" lon="-6.7426700">
        <ele>455.8</ele>
        <time>2014-10-02T16:32:10Z</time>
      </trkpt>
      <trkpt lat="42.5681840" lon="-6.7425620">
        <ele>455.8</ele>
        <time>2014-10-02T16:32:11Z</time>
      </trkpt>
      <trkpt lat="42.5681630" lon="-6.7424460">
        <ele>455.7</ele>
        <time>2014-10-02T16:32:12Z</time>
      </trkpt>
      <trkpt lat="42.5681420" lon="-6.7423290">
        <ele>455.6</ele>
        <time>2014-10-02T16:32:13Z</time>
      </trkpt>
      <trkpt lat="42.5681190" lon="-6.7422110">
        <ele>455.6</ele>
        <time>2014-10-02T16:32:14Z</time>
      </trkpt>
      <trkpt lat="42.5680980" lon="-6.7421010">
        <ele>455.6</ele>
        <time>2014-10-02T16:32:15Z</time>
      </trkpt>
      <trkpt lat="42.5680740" lon="-6.7419880">
        <ele>455.6</ele>
        <time>2014-10-02T16:32:16Z</time>
      </trkpt>
      <trkpt lat="42.5680480" lon="-6.7418710">
        <ele>455.5</ele>
        <time>2014-10-02T16:32:17Z</time>
      </trkpt>
      <trkpt lat="42.5680200" lon="-6.7417500">
        <ele>455.5</ele>
        <time>2014-10-02T16:32:18Z</time>
      </trkpt>
      <trkpt lat="42.5679910" lon="-6.7416320">
        <ele>455.4</ele>
        <time>2014-10-02T16:32:19Z</time>
      </trkpt>
      <trkpt lat="42.5679600" lon="-6.7415130">
        <ele>455.3</ele>
        <time>2014-10-02T16:32:20Z</time>
      </trkpt>
      <trkpt lat="42.5679280" lon="-6.7413930">
        <ele>455.2</ele>
        <time>2014-10-02T16:32:21Z</time>
      </trkpt>
      <trkpt lat="42.5678990" lon="-6.7412870">
        <ele>455.2</ele>
        <time>2014-10-02T16:32:22Z</time>
      </trkpt>
      <trkpt lat="42.5678700" lon="-6.7411800">
        <ele>455.1</ele>
        <time>2014-10-02T16:32:23Z</time>
      </trkpt>
      <trkpt lat="42.5678430" lon="-6.7410720">
        <ele>455.1</ele>
        <time>2014-10-02T16:32:24Z</time>
      </trkpt>
      <trkpt lat="42.5678140" lon="-6.7409560">
        <ele>455.1</ele>
        <time>2014-10-02T16:32:25Z</time>
      </trkpt>
      <trkpt lat="42.5677850" lon="-6.7408450">
        <ele>455.1</ele>
        <time>2014-10-02T16:32:26Z</time>
      </trkpt>
      <trkpt lat="42.5677550" lon="-6.7407300">
        <ele>454.9</ele>
        <time>2014-10-02T16:32:27Z</time>
      </trkpt>
      <trkpt lat="42.5677270" lon="-6.7406190">
        <ele>454.7</ele>
        <time>2014-10-02T16:32:28Z</time>
      </trkpt>
      <trkpt lat="42.5676990" lon="-6.7405110">
        <ele>454.7</ele>
        <time>2014-10-02T16:32:29Z</time>
      </trkpt>
      <trkpt lat="42.5676710" lon="-6.7404010">
        <ele>454.6</ele>
        <time>2014-10-02T16:32:30Z</time>
      </trkpt>
      <trkpt lat="42.5676440" lon="-6.7402950">
        <ele>454.6</ele>
        <time>2014-10-02T16:32:31Z</time>
      </trkpt>
      <trkpt lat="42.5676170" lon="-6.7401900">
        <ele>454.5</ele>
        <time>2014-10-02T16:32:32Z</time>
      </trkpt>
      <trkpt lat="42.5675870" lon="-6.7400780">
        <ele>454.5</ele>
        <time>2014-10-02T16:32:33Z</time>
      </trkpt>
      <trkpt lat="42.5675560" lon="-6.7399640">
        <ele>454.4</ele>
        <time>2014-10-02T16:32:34Z</time>
      </trkpt>
      <trkpt lat="42.5675250" lon="-6.7398490">
        <ele>454.4</ele>
        <time>2014-10-02T16:32:35Z</time>
      </trkpt>
      <trkpt lat="42.5674990" lon="-6.7397430">
        <ele>454.3</ele>
        <time>2014-10-02T16:32:36Z</time>
      </trkpt>
      <trkpt lat="42.5674720" lon="-6.7396370">
        <ele>454.3</ele>
        <time>2014-10-02T16:32:37Z</time>
      </trkpt>
      <trkpt lat="42.5674440" lon="-6.7395230">
        <ele>454.2</ele>
        <time>2014-10-02T16:32:38Z</time>
      </trkpt>
      <trkpt lat="42.5674170" lon="-6.7394170">
        <ele>454.2</ele>
        <time>2014-10-02T16:32:39Z</time>
      </trkpt>
      <trkpt lat="42.5673910" lon="-6.7393110">
        <ele>454.1</ele>
        <time>2014-10-02T16:32:40Z</time>
      </trkpt>
      <trkpt lat="42.5673610" lon="-6.7391910">
        <ele>454.1</ele>
        <time>2014-10-02T16:32:41Z</time>
      </trkpt>
      <trkpt lat="42.5673330" lon="-6.7390790">
        <ele>454.0</ele>
        <time>2014-10-02T16:32:42Z</time>
      </trkpt>
      <trkpt lat="42.5673070" lon="-6.7389730">
        <ele>453.9</ele>
        <time>2014-10-02T16:32:43Z</time>
      </trkpt>
      <trkpt lat="42.5672800" lon="-6.7388720">
        <ele>453.9</ele>
        <time>2014-10-02T16:32:44Z</time>
      </trkpt>
      <trkpt lat="42.5672520" lon="-6.7387670">
        <ele>453.9</ele>
        <time>2014-10-02T16:32:45Z</time>
      </trkpt>
      <trkpt lat="42.5672250" lon="-6.7386560">
        <ele>453.9</ele>
        <time>2014-10-02T16:32:46Z</time>
      </trkpt>
      <trkpt lat="42.5671990" lon="-6.7385480">
        <ele>453.9</ele>
        <time>2014-10-02T16:32:47Z</time>
      </trkpt>
      <trkpt lat="42.5671760" lon="-6.7384440">
        <ele>453.9</ele>
        <time>2014-10-02T16:32:48Z</time>
      </trkpt>
      <trkpt lat="42.5671520" lon="-6.7383400">
        <ele>454.0</ele>
        <time>2014-10-02T16:32:49Z</time>
      </trkpt>
      <trkpt lat="42.5671250" lon="-6.7382300">
        <ele>454.1</ele>
        <time>2014-10-02T16:32:50Z</time>
      </trkpt>
      <trkpt lat="42.5670970" lon="-6.7381230">
        <ele>454.1</ele>
        <time>2014-10-02T16:32:51Z</time>
      </trkpt>
      <trkpt lat="42.5670690" lon="-6.7380130">
        <ele>453.9</ele>
        <time>2014-10-02T16:32:52Z</time>
      </trkpt>
      <trkpt lat="42.5670410" lon="-6.7379070">
        <ele>453.8</ele>
        <time>2014-10-02T16:32:53Z</time>
      </trkpt>
      <trkpt lat="42.5670180" lon="-6.7378080">
        <ele>453.7</ele>
        <time>2014-10-02T16:32:54Z</time>
      </trkpt>
      <trkpt lat="42.5669910" lon="-6.7377000">
        <ele>453.7</ele>
        <time>2014-10-02T16:32:55Z</time>
      </trkpt>
      <trkpt lat="42.5669650" lon="-6.7376040">
        <ele>453.7</ele>
        <time>2014-10-02T16:32:56Z</time>
      </trkpt>
      <trkpt lat="42.5669360" lon="-6.7374960">
        <ele>453.7</ele>
        <time>2014-10-02T16:32:57Z</time>
      </trkpt>
      <trkpt lat="42.5669090" lon="-6.7373920">
        <ele>453.6</ele>
        <time>2014-10-02T16:32:58Z</time>
      </trkpt>
      <trkpt lat="42.5668790" lon="-6.7372780">
        <ele>453.6</ele>
        <time>2014-10-02T16:32:59Z</time>
      </trkpt>
      <trkpt lat="42.5668500" lon="-6.7371680">
        <ele>453.5</ele>
        <time>2014-10-02T16:33:00Z</time>
      </trkpt>
      <trkpt lat="42.5668230" lon="-6.7370620">
        <ele>453.5</ele>
        <time>2014-10-02T16:33:01Z</time>
      </trkpt>
      <trkpt lat="42.5667960" lon="-6.7369600">
        <ele>453.4</ele>
        <time>2014-10-02T16:33:02Z</time>
      </trkpt>
      <trkpt lat="42.5667690" lon="-6.7368520">
        <ele>453.3</ele>
        <time>2014-10-02T16:33:03Z</time>
      </trkpt>
      <trkpt lat="42.5667440" lon="-6.7367460">
        <ele>453.3</ele>
        <time>2014-10-02T16:33:04Z</time>
      </trkpt>
      <trkpt lat="42.5667150" lon="-6.7366300">
        <ele>453.2</ele>
        <time>2014-10-02T16:33:05Z</time>
      </trkpt>
      <trkpt lat="42.5666890" lon="-6.7365310">
        <ele>453.2</ele>
        <time>2014-10-02T16:33:06Z</time>
      </trkpt>
      <trkpt lat="42.5666580" lon="-6.7364230">
        <ele>453.2</ele>
        <time>2014-10-02T16:33:07Z</time>
      </trkpt>
      <trkpt lat="42.5666270" lon="-6.7363150">
        <ele>453.2</ele>
        <time>2014-10-02T16:33:08Z</time>
      </trkpt>
      <trkpt lat="42.5665980" lon="-6.7362110">
        <ele>453.2</ele>
        <time>2014-10-02T16:33:09Z</time>
      </trkpt>
      <trkpt lat="42.5665670" lon="-6.7361020">
        <ele>453.2</ele>
        <time>2014-10-02T16:33:10Z</time>
      </trkpt>
      <trkpt lat="42.5665360" lon="-6.7359900">
        <ele>453.1</ele>
        <time>2014-10-02T16:33:11Z</time>
      </trkpt>
      <trkpt lat="42.5665080" lon="-6.7358860">
        <ele>453.0</ele>
        <time>2014-10-02T16:33:12Z</time>
      </trkpt>
      <trkpt lat="42.5664800" lon="-6.7357830">
        <ele>453.0</ele>
        <time>2014-10-02T16:33:13Z</time>
      </trkpt>
      <trkpt lat="42.5664560" lon="-6.7356760">
        <ele>453.0</ele>
        <time>2014-10-02T16:33:14Z</time>
      </trkpt>
      <trkpt lat="42.5664320" lon="-6.7355670">
        <ele>452.9</ele>
        <time>2014-10-02T16:33:15Z</time>
      </trkpt>
      <trkpt lat="42.5664070" lon="-6.7354600">
        <ele>452.9</ele>
        <time>2014-10-02T16:33:16Z</time>
      </trkpt>
      <trkpt lat="42.5663790" lon="-6.7353540">
        <ele>452.9</ele>
        <time>2014-10-02T16:33:17Z</time>
      </trkpt>
      <trkpt lat="42.5663500" lon="-6.7352440">
        <ele>452.9</ele>
        <time>2014-10-02T16:33:18Z</time>
      </trkpt>
      <trkpt lat="42.5663210" lon="-6.7351420">
        <ele>452.9</ele>
        <time>2014-10-02T16:33:19Z</time>
      </trkpt>
      <trkpt lat="42.5662910" lon="-6.7350400">
        <ele>453.0</ele>
        <time>2014-10-02T16:33:20Z</time>
      </trkpt>
      <trkpt lat="42.5662640" lon="-6.7349480">
        <ele>453.0</ele>
        <time>2014-10-02T16:33:21Z</time>
      </trkpt>
      <trkpt lat="42.5662350" lon="-6.7348520">
        <ele>453.1</ele>
        <time>2014-10-02T16:33:22Z</time>
      </trkpt>
      <trkpt lat="42.5662060" lon="-6.7347500">
        <ele>453.2</ele>
        <time>2014-10-02T16:33:23Z</time>
      </trkpt>
      <trkpt lat="42.5661750" lon="-6.7346450">
        <ele>453.3</ele>
        <time>2014-10-02T16:33:24Z</time>
      </trkpt>
      <trkpt lat="42.5661450" lon="-6.7345440">
        <ele>453.4</ele>
        <time>2014-10-02T16:33:25Z</time>
      </trkpt>
      <trkpt lat="42.5661210" lon="-6.7344590">
        <ele>453.4</ele>
        <time>2014-10-02T16:33:26Z</time>
      </trkpt>
      <trkpt lat="42.5660960" lon="-6.7343740">
        <ele>453.5</ele>
        <time>2014-10-02T16:33:27Z</time>
      </trkpt>
      <trkpt lat="42.5660720" lon="-6.7342930">
        <ele>453.6</ele>
        <time>2014-10-02T16:33:28Z</time>
      </trkpt>
      <trkpt lat="42.5660450" lon="-6.7342080">
        <ele>453.8</ele>
        <time>2014-10-02T16:33:29Z</time>
      </trkpt>
      <trkpt lat="42.5660170" lon="-6.7341210">
        <ele>454.0</ele>
        <time>2014-10-02T16:33:30Z</time>
      </trkpt>
      <trkpt lat="42.5659880" lon="-6.7340310">
        <ele>454.0</ele>
        <time>2014-10-02T16:33:31Z</time>
      </trkpt>
      <trkpt lat="42.5659560" lon="-6.7339360">
        <ele>454.0</ele>
        <time>2014-10-02T16:33:32Z</time>
      </trkpt>
      <trkpt lat="42.5659260" lon="-6.7338470">
        <ele>454.1</ele>
        <time>2014-10-02T16:33:33Z</time>
      </trkpt>
      <trkpt lat="42.5658940" lon="-6.7337560">
        <ele>454.1</ele>
        <time>2014-10-02T16:33:34Z</time>
      </trkpt>
      <trkpt lat="42.5658630" lon="-6.7336670">
        <ele>454.2</ele>
        <time>2014-10-02T16:33:35Z</time>
      </trkpt>
      <trkpt lat="42.5658320" lon="-6.7335750">
        <ele>454.3</ele>
        <time>2014-10-02T16:33:36Z</time>
      </trkpt>
      <trkpt lat="42.5658010" lon="-6.7334880">
        <ele>454.4</ele>
        <time>2014-10-02T16:33:37Z</time>
      </trkpt>
      <trkpt lat="42.5657670" lon="-6.7333880">
        <ele>454.5</ele>
        <time>2014-10-02T16:33:38Z</time>
      </trkpt>
      <trkpt lat="42.5657340" lon="-6.7332980">
        <ele>454.6</ele>
        <time>2014-10-02T16:33:39Z</time>
      </trkpt>
      <trkpt lat="42.5657030" lon="-6.7332130">
        <ele>454.7</ele>
        <time>2014-10-02T16:33:40Z</time>
      </trkpt>
      <trkpt lat="42.5656710" lon="-6.7331230">
        <ele>454.8</ele>
        <time>2014-10-02T16:33:41Z</time>
      </trkpt>
      <trkpt lat="42.5656430" lon="-6.7330340">
        <ele>454.9</ele>
        <time>2014-10-02T16:33:42Z</time>
      </trkpt>
      <trkpt lat="42.5656130" lon="-6.7329480">
        <ele>455.0</ele>
        <time>2014-10-02T16:33:43Z</time>
      </trkpt>
      <trkpt lat="42.5655800" lon="-6.7328550">
        <ele>455.1</ele>
        <time>2014-10-02T16:33:44Z</time>
      </trkpt>
      <trkpt lat="42.5655460" lon="-6.7327690">
        <ele>455.2</ele>
        <time>2014-10-02T16:33:45Z</time>
      </trkpt>
      <trkpt lat="42.5655110" lon="-6.7326810">
        <ele>455.3</ele>
        <time>2014-10-02T16:33:46Z</time>
      </trkpt>
      <trkpt lat="42.5654750" lon="-6.7325980">
        <ele>455.4</ele>
        <time>2014-10-02T16:33:47Z</time>
      </trkpt>
      <trkpt lat="42.5654390" lon="-6.7325160">
        <ele>455.5</ele>
        <time>2014-10-02T16:33:48Z</time>
      </trkpt>
      <trkpt lat="42.5654020" lon="-6.7324420">
        <ele>455.6</ele>
        <time>2014-10-02T16:33:49Z</time>
      </trkpt>
      <trkpt lat="42.5653670" lon="-6.7323720">
        <ele>455.7</ele>
        <time>2014-10-02T16:33:50Z</time>
      </trkpt>
      <trkpt lat="42.5653370" lon="-6.7323060">
        <ele>455.9</ele>
        <time>2014-10-02T16:33:51Z</time>
      </trkpt>
      <trkpt lat="42.5653050" lon="-6.7322340">
        <ele>456.0</ele>
        <time>2014-10-02T16:33:52Z</time>
      </trkpt>
      <trkpt lat="42.5652700" lon="-6.7321570">
        <ele>456.0</ele>
        <time>2014-10-02T16:33:53Z</time>
      </trkpt>
      <trkpt lat="42.5652360" lon="-6.7320780">
        <ele>456.0</ele>
        <time>2014-10-02T16:33:54Z</time>
      </trkpt>
      <trkpt lat="42.5652010" lon="-6.7319950">
        <ele>456.1</ele>
        <time>2014-10-02T16:33:55Z</time>
      </trkpt>
      <trkpt lat="42.5651680" lon="-6.7319170">
        <ele>456.1</ele>
        <time>2014-10-02T16:33:56Z</time>
      </trkpt>
      <trkpt lat="42.5651340" lon="-6.7318390">
        <ele>456.2</ele>
        <time>2014-10-02T16:33:57Z</time>
      </trkpt>
      <trkpt lat="42.5650950" lon="-6.7317480">
        <ele>456.4</ele>
        <time>2014-10-02T16:33:58Z</time>
      </trkpt>
      <trkpt lat="42.5650580" lon="-6.7316630">
        <ele>456.5</ele>
        <time>2014-10-02T16:33:59Z</time>
      </trkpt>
      <trkpt lat="42.5650220" lon="-6.7315820">
        <ele>456.6</ele>
        <time>2014-10-02T16:34:00Z</time>
      </trkpt>
      <trkpt lat="42.5649850" lon="-6.7315050">
        <ele>456.7</ele>
        <time>2014-10-02T16:34:01Z</time>
      </trkpt>
      <trkpt lat="42.5649440" lon="-6.7314170">
        <ele>456.9</ele>
        <time>2014-10-02T16:34:02Z</time>
      </trkpt>
      <trkpt lat="42.5649090" lon="-6.7313360">
        <ele>457.0</ele>
        <time>2014-10-02T16:34:03Z</time>
      </trkpt>
      <trkpt lat="42.5648730" lon="-6.7312510">
        <ele>457.2</ele>
        <time>2014-10-02T16:34:04Z</time>
      </trkpt>
      <trkpt lat="42.5648380" lon="-6.7311680">
        <ele>457.3</ele>
        <time>2014-10-02T16:34:05Z</time>
      </trkpt>
      <trkpt lat="42.5648030" lon="-6.7310830">
        <ele>457.5</ele>
        <time>2014-10-02T16:34:06Z</time>
      </trkpt>
      <trkpt lat="42.5647690" lon="-6.7310020">
        <ele>457.6</ele>
        <time>2014-10-02T16:34:07Z</time>
      </trkpt>
      <trkpt lat="42.5647380" lon="-6.7309300">
        <ele>457.7</ele>
        <time>2014-10-02T16:34:08Z</time>
      </trkpt>
      <trkpt lat="42.5647050" lon="-6.7308530">
        <ele>457.8</ele>
        <time>2014-10-02T16:34:09Z</time>
      </trkpt>
      <trkpt lat="42.5646740" lon="-6.7307810">
        <ele>457.9</ele>
        <time>2014-10-02T16:34:10Z</time>
      </trkpt>
      <trkpt lat="42.5646440" lon="-6.7307080">
        <ele>457.9</ele>
        <time>2014-10-02T16:34:11Z</time>
      </trkpt>
      <trkpt lat="42.5646160" lon="-6.7306360">
        <ele>458.0</ele>
        <time>2014-10-02T16:34:12Z</time>
      </trkpt>
      <trkpt lat="42.5645940" lon="-6.7305730">
        <ele>458.0</ele>
        <time>2014-10-02T16:34:13Z</time>
      </trkpt>
      <trkpt lat="42.5645720" lon="-6.7305070">
        <ele>458.1</ele>
        <time>2014-10-02T16:34:14Z</time>
      </trkpt>
      <trkpt lat="42.5645510" lon="-6.7304440">
        <ele>458.2</ele>
        <time>2014-10-02T16:34:15Z</time>
      </trkpt>
      <trkpt lat="42.5645310" lon="-6.7303740">
        <ele>458.2</ele>
        <time>2014-10-02T16:34:16Z</time>
      </trkpt>
      <trkpt lat="42.5645120" lon="-6.7303000">
        <ele>458.3</ele>
        <time>2014-10-02T16:34:17Z</time>
      </trkpt>
      <trkpt lat="42.5644920" lon="-6.7302180">
        <ele>458.4</ele>
        <time>2014-10-02T16:34:18Z</time>
      </trkpt>
      <trkpt lat="42.5644720" lon="-6.7301340">
        <ele>458.5</ele>
        <time>2014-10-02T16:34:19Z</time>
      </trkpt>
      <trkpt lat="42.5644510" lon="-6.7300490">
        <ele>458.6</ele>
        <time>2014-10-02T16:34:20Z</time>
      </trkpt>
      <trkpt lat="42.5644320" lon="-6.7299690">
        <ele>458.7</ele>
        <time>2014-10-02T16:34:21Z</time>
      </trkpt>
      <trkpt lat="42.5644120" lon="-6.7298870">
        <ele>458.8</ele>
        <time>2014-10-02T16:34:22Z</time>
      </trkpt>
      <trkpt lat="42.5643920" lon="-6.7298080">
        <ele>458.9</ele>
        <time>2014-10-02T16:34:23Z</time>
      </trkpt>
      <trkpt lat="42.5643700" lon="-6.7297280">
        <ele>458.9</ele>
        <time>2014-10-02T16:34:24Z</time>
      </trkpt>
      <trkpt lat="42.5643480" lon="-6.7296470">
        <ele>459.0</ele>
        <time>2014-10-02T16:34:25Z</time>
      </trkpt>
      <trkpt lat="42.5643270" lon="-6.7295710">
        <ele>459.1</ele>
        <time>2014-10-02T16:34:26Z</time>
      </trkpt>
      <trkpt lat="42.5643030" lon="-6.7294850">
        <ele>459.3</ele>
        <time>2014-10-02T16:34:27Z</time>
      </trkpt>
      <trkpt lat="42.5642790" lon="-6.7293940">
        <ele>459.4</ele>
        <time>2014-10-02T16:34:28Z</time>
      </trkpt>
      <trkpt lat="42.5642580" lon="-6.7293070">
        <ele>459.5</ele>
        <time>2014-10-02T16:34:29Z</time>
      </trkpt>
      <trkpt lat="42.5642350" lon="-6.7292190">
        <ele>459.7</ele>
        <time>2014-10-02T16:34:30Z</time>
      </trkpt>
      <trkpt lat="42.5642140" lon="-6.7291290">
        <ele>459.8</ele>
        <time>2014-10-02T16:34:31Z</time>
      </trkpt>
      <trkpt lat="42.5641950" lon="-6.7290370">
        <ele>459.9</ele>
        <time>2014-10-02T16:34:32Z</time>
      </trkpt>
      <trkpt lat="42.5641770" lon="-6.7289500">
        <ele>460.1</ele>
        <time>2014-10-02T16:34:33Z</time>
      </trkpt>
      <trkpt lat="42.5641630" lon="-6.7288620">
        <ele>460.2</ele>
        <time>2014-10-02T16:34:34Z</time>
      </trkpt>
      <trkpt lat="42.5641480" lon="-6.7287610">
        <ele>460.3</ele>
        <time>2014-10-02T16:34:35Z</time>
      </trkpt>
      <trkpt lat="42.5641300" lon="-6.7286600">
        <ele>460.4</ele>
        <time>2014-10-02T16:34:36Z</time>
      </trkpt>
      <trkpt lat="42.5641100" lon="-6.7285550">
        <ele>460.5</ele>
        <time>2014-10-02T16:34:37Z</time>
      </trkpt>
      <trkpt lat="42.5640940" lon="-6.7284650">
        <ele>460.7</ele>
        <time>2014-10-02T16:34:38Z</time>
      </trkpt>
      <trkpt lat="42.5640750" lon="-6.7283710">
        <ele>460.8</ele>
        <time>2014-10-02T16:34:39Z</time>
      </trkpt>
      <trkpt lat="42.5640580" lon="-6.7282760">
        <ele>460.9</ele>
        <time>2014-10-02T16:34:40Z</time>
      </trkpt>
      <trkpt lat="42.5640370" lon="-6.7281830">
        <ele>461.1</ele>
        <time>2014-10-02T16:34:41Z</time>
      </trkpt>
      <trkpt lat="42.5640190" lon="-6.7280940">
        <ele>461.2</ele>
        <time>2014-10-02T16:34:42Z</time>
      </trkpt>
      <trkpt lat="42.5639970" lon="-6.7280070">
        <ele>461.3</ele>
        <time>2014-10-02T16:34:43Z</time>
      </trkpt>
      <trkpt lat="42.5639740" lon="-6.7279140">
        <ele>461.4</ele>
        <time>2014-10-02T16:34:44Z</time>
      </trkpt>
      <trkpt lat="42.5639510" lon="-6.7278280">
        <ele>461.5</ele>
        <time>2014-10-02T16:34:45Z</time>
      </trkpt>
      <trkpt lat="42.5639260" lon="-6.7277390">
        <ele>461.6</ele>
        <time>2014-10-02T16:34:46Z</time>
      </trkpt>
      <trkpt lat="42.5639010" lon="-6.7276560">
        <ele>461.7</ele>
        <time>2014-10-02T16:34:47Z</time>
      </trkpt>
      <trkpt lat="42.5638780" lon="-6.7275720">
        <ele>461.8</ele>
        <time>2014-10-02T16:34:48Z</time>
      </trkpt>
      <trkpt lat="42.5638540" lon="-6.7274890">
        <ele>461.8</ele>
        <time>2014-10-02T16:34:49Z</time>
      </trkpt>
      <trkpt lat="42.5638300" lon="-6.7274040">
        <ele>461.9</ele>
        <time>2014-10-02T16:34:50Z</time>
      </trkpt>
      <trkpt lat="42.5638080" lon="-6.7273250">
        <ele>461.9</ele>
        <time>2014-10-02T16:34:51Z</time>
      </trkpt>
      <trkpt lat="42.5637860" lon="-6.7272410">
        <ele>461.9</ele>
        <time>2014-10-02T16:34:52Z</time>
      </trkpt>
      <trkpt lat="42.5637620" lon="-6.7271470">
        <ele>461.9</ele>
        <time>2014-10-02T16:34:53Z</time>
      </trkpt>
      <trkpt lat="42.5637400" lon="-6.7270570">
        <ele>462.0</ele>
        <time>2014-10-02T16:34:54Z</time>
      </trkpt>
      <trkpt lat="42.5637160" lon="-6.7269640">
        <ele>462.1</ele>
        <time>2014-10-02T16:34:55Z</time>
      </trkpt>
      <trkpt lat="42.5636950" lon="-6.7268790">
        <ele>462.2</ele>
        <time>2014-10-02T16:34:56Z</time>
      </trkpt>
      <trkpt lat="42.5636760" lon="-6.7267990">
        <ele>462.3</ele>
        <time>2014-10-02T16:34:57Z</time>
      </trkpt>
      <trkpt lat="42.5636550" lon="-6.7267150">
        <ele>462.4</ele>
        <time>2014-10-02T16:34:58Z</time>
      </trkpt>
      <trkpt lat="42.5636380" lon="-6.7266320">
        <ele>462.5</ele>
        <time>2014-10-02T16:34:59Z</time>
      </trkpt>
      <trkpt lat="42.5636190" lon="-6.7265400">
        <ele>462.7</ele>
        <time>2014-10-02T16:35:00Z</time>
      </trkpt>
      <trkpt lat="42.5636030" lon="-6.7264600">
        <ele>462.8</ele>
        <time>2014-10-02T16:35:01Z</time>
      </trkpt>
      <trkpt lat="42.5635880" lon="-6.7263810">
        <ele>462.9</ele>
        <time>2014-10-02T16:35:02Z</time>
      </trkpt>
      <trkpt lat="42.5635720" lon="-6.7262950">
        <ele>463.0</ele>
        <time>2014-10-02T16:35:03Z</time>
      </trkpt>
      <trkpt lat="42.5635550" lon="-6.7262050">
        <ele>463.2</ele>
        <time>2014-10-02T16:35:04Z</time>
      </trkpt>
      <trkpt lat="42.5635390" lon="-6.7261160">
        <ele>463.3</ele>
        <time>2014-10-02T16:35:05Z</time>
      </trkpt>
      <trkpt lat="42.5635210" lon="-6.7260210">
        <ele>463.3</ele>
        <time>2014-10-02T16:35:06Z</time>
      </trkpt>
      <trkpt lat="42.5635040" lon="-6.7259240">
        <ele>463.4</ele>
        <time>2014-10-02T16:35:07Z</time>
      </trkpt>
      <trkpt lat="42.5634880" lon="-6.7258370">
        <ele>463.5</ele>
        <time>2014-10-02T16:35:08Z</time>
      </trkpt>
      <trkpt lat="42.5634730" lon="-6.7257560">
        <ele>463.6</ele>
        <time>2014-10-02T16:35:09Z</time>
      </trkpt>
      <trkpt lat="42.5634590" lon="-6.7256710">
        <ele>463.7</ele>
        <time>2014-10-02T16:35:10Z</time>
      </trkpt>
      <trkpt lat="42.5634450" lon="-6.7255880">
        <ele>463.8</ele>
        <time>2014-10-02T16:35:11Z</time>
      </trkpt>
      <trkpt lat="42.5634300" lon="-6.7254980">
        <ele>463.9</ele>
        <time>2014-10-02T16:35:12Z</time>
      </trkpt>
      <trkpt lat="42.5634150" lon="-6.7254020">
        <ele>464.1</ele>
        <time>2014-10-02T16:35:13Z</time>
      </trkpt>
      <trkpt lat="42.5634010" lon="-6.7253090">
        <ele>464.2</ele>
        <time>2014-10-02T16:35:14Z</time>
      </trkpt>
      <trkpt lat="42.5633870" lon="-6.7252170">
        <ele>464.2</ele>
        <time>2014-10-02T16:35:15Z</time>
      </trkpt>
      <trkpt lat="42.5633720" lon="-6.7251230">
        <ele>464.3</ele>
        <time>2014-10-02T16:35:16Z</time>
      </trkpt>
      <trkpt lat="42.5633570" lon="-6.7250360">
        <ele>464.4</ele>
        <time>2014-10-02T16:35:17Z</time>
      </trkpt>
      <trkpt lat="42.5633440" lon="-6.7249460">
        <ele>464.5</ele>
        <time>2014-10-02T16:35:18Z</time>
      </trkpt>
      <trkpt lat="42.5633320" lon="-6.7248570">
        <ele>464.6</ele>
        <time>2014-10-02T16:35:19Z</time>
      </trkpt>
      <trkpt lat="42.5633190" lon="-6.7247670">
        <ele>464.7</ele>
        <time>2014-10-02T16:35:20Z</time>
      </trkpt>
      <trkpt lat="42.5633060" lon="-6.7246690">
        <ele>464.8</ele>
        <time>2014-10-02T16:35:21Z</time>
      </trkpt>
      <trkpt lat="42.5632920" lon="-6.7245770">
        <ele>464.9</ele>
        <time>2014-10-02T16:35:22Z</time>
      </trkpt>
      <trkpt lat="42.5632810" lon="-6.7244870">
        <ele>465.0</ele>
        <time>2014-10-02T16:35:23Z</time>
      </trkpt>
      <trkpt lat="42.5632690" lon="-6.7243980">
        <ele>465.1</ele>
        <time>2014-10-02T16:35:24Z</time>
      </trkpt>
      <trkpt lat="42.5632570" lon="-6.7243120">
        <ele>465.2</ele>
        <time>2014-10-02T16:35:25Z</time>
      </trkpt>
      <trkpt lat="42.5632440" lon="-6.7242220">
        <ele>465.2</ele>
        <time>2014-10-02T16:35:26Z</time>
      </trkpt>
      <trkpt lat="42.5632320" lon="-6.7241350">
        <ele>465.3</ele>
        <time>2014-10-02T16:35:27Z</time>
      </trkpt>
      <trkpt lat="42.5632200" lon="-6.7240530">
        <ele>465.3</ele>
        <time>2014-10-02T16:35:28Z</time>
      </trkpt>
      <trkpt lat="42.5632090" lon="-6.7239720">
        <ele>465.4</ele>
        <time>2014-10-02T16:35:29Z</time>
      </trkpt>
      <trkpt lat="42.5631980" lon="-6.7238890">
        <ele>465.5</ele>
        <time>2014-10-02T16:35:30Z</time>
      </trkpt>
      <trkpt lat="42.5631870" lon="-6.7238040">
        <ele>465.5</ele>
        <time>2014-10-02T16:35:31Z</time>
      </trkpt>
      <trkpt lat="42.5631760" lon="-6.7237130">
        <ele>465.6</ele>
        <time>2014-10-02T16:35:32Z</time>
      </trkpt>
      <trkpt lat="42.5631640" lon="-6.7236160">
        <ele>465.7</ele>
        <time>2014-10-02T16:35:33Z</time>
      </trkpt>
      <trkpt lat="42.5631520" lon="-6.7235210">
        <ele>465.8</ele>
        <time>2014-10-02T16:35:34Z</time>
      </trkpt>
      <trkpt lat="42.5631420" lon="-6.7234250">
        <ele>465.9</ele>
        <time>2014-10-02T16:35:35Z</time>
      </trkpt>
      <trkpt lat="42.5631330" lon="-6.7233320">
        <ele>465.9</ele>
        <time>2014-10-02T16:35:36Z</time>
      </trkpt>
      <trkpt lat="42.5631240" lon="-6.7232430">
        <ele>466.0</ele>
        <time>2014-10-02T16:35:37Z</time>
      </trkpt>
      <trkpt lat="42.5631160" lon="-6.7231610">
        <ele>466.1</ele>
        <time>2014-10-02T16:35:38Z</time>
      </trkpt>
      <trkpt lat="42.5631080" lon="-6.7230780">
        <ele>466.2</ele>
        <time>2014-10-02T16:35:39Z</time>
      </trkpt>
      <trkpt lat="42.5631000" lon="-6.7229950">
        <ele>466.3</ele>
        <time>2014-10-02T16:35:40Z</time>
      </trkpt>
      <trkpt lat="42.5630930" lon="-6.7229020">
        <ele>466.3</ele>
        <time>2014-10-02T16:35:41Z</time>
      </trkpt>
      <trkpt lat="42.5630850" lon="-6.7228090">
        <ele>466.4</ele>
        <time>2014-10-02T16:35:42Z</time>
      </trkpt>
      <trkpt lat="42.5630800" lon="-6.7227220">
        <ele>466.5</ele>
        <time>2014-10-02T16:35:43Z</time>
      </trkpt>
      <trkpt lat="42.5630730" lon="-6.7226270">
        <ele>466.5</ele>
        <time>2014-10-02T16:35:44Z</time>
      </trkpt>
      <trkpt lat="42.5630690" lon="-6.7225440">
        <ele>466.6</ele>
        <time>2014-10-02T16:35:45Z</time>
      </trkpt>
      <trkpt lat="42.5630640" lon="-6.7224530">
        <ele>466.6</ele>
        <time>2014-10-02T16:35:46Z</time>
      </trkpt>
      <trkpt lat="42.5630610" lon="-6.7223670">
        <ele>466.7</ele>
        <time>2014-10-02T16:35:47Z</time>
      </trkpt>
      <trkpt lat="42.5630590" lon="-6.7222680">
        <ele>466.8</ele>
        <time>2014-10-02T16:35:48Z</time>
      </trkpt>
      <trkpt lat="42.5630570" lon="-6.7221820">
        <ele>466.9</ele>
        <time>2014-10-02T16:35:49Z</time>
      </trkpt>
      <trkpt lat="42.5630550" lon="-6.7220880">
        <ele>466.9</ele>
        <time>2014-10-02T16:35:50Z</time>
      </trkpt>
      <trkpt lat="42.5630530" lon="-6.7219870">
        <ele>467.0</ele>
        <time>2014-10-02T16:35:51Z</time>
      </trkpt>
      <trkpt lat="42.5630510" lon="-6.7218870">
        <ele>467.1</ele>
        <time>2014-10-02T16:35:52Z</time>
      </trkpt>
      <trkpt lat="42.5630490" lon="-6.7217880">
        <ele>467.2</ele>
        <time>2014-10-02T16:35:53Z</time>
      </trkpt>
      <trkpt lat="42.5630470" lon="-6.7216890">
        <ele>467.3</ele>
        <time>2014-10-02T16:35:54Z</time>
      </trkpt>
      <trkpt lat="42.5630460" lon="-6.7215900">
        <ele>467.4</ele>
        <time>2014-10-02T16:35:55Z</time>
      </trkpt>
      <trkpt lat="42.5630450" lon="-6.7214910">
        <ele>467.4</ele>
        <time>2014-10-02T16:35:56Z</time>
      </trkpt>
      <trkpt lat="42.5630420" lon="-6.7213890">
        <ele>467.5</ele>
        <time>2014-10-02T16:35:57Z</time>
      </trkpt>
      <trkpt lat="42.5630400" lon="-6.7212930">
        <ele>467.5</ele>
        <time>2014-10-02T16:35:58Z</time>
      </trkpt>
      <trkpt lat="42.5630380" lon="-6.7211970">
        <ele>467.5</ele>
        <time>2014-10-02T16:35:59Z</time>
      </trkpt>
      <trkpt lat="42.5630360" lon="-6.7211020">
        <ele>467.6</ele>
        <time>2014-10-02T16:36:00Z</time>
      </trkpt>
      <trkpt lat="42.5630320" lon="-6.7210100">
        <ele>467.6</ele>
        <time>2014-10-02T16:36:01Z</time>
      </trkpt>
      <trkpt lat="42.5630290" lon="-6.7209250">
        <ele>467.7</ele>
        <time>2014-10-02T16:36:02Z</time>
      </trkpt>
      <trkpt lat="42.5630300" lon="-6.7208410">
        <ele>467.7</ele>
        <time>2014-10-02T16:36:03Z</time>
      </trkpt>
      <trkpt lat="42.5630310" lon="-6.7207560">
        <ele>467.8</ele>
        <time>2014-10-02T16:36:04Z</time>
      </trkpt>
      <trkpt lat="42.5630320" lon="-6.7206660">
        <ele>467.8</ele>
        <time>2014-10-02T16:36:05Z</time>
      </trkpt>
      <trkpt lat="42.5630330" lon="-6.7205660">
        <ele>467.9</ele>
        <time>2014-10-02T16:36:06Z</time>
      </trkpt>
      <trkpt lat="42.5630350" lon="-6.7204650">
        <ele>467.9</ele>
        <time>2014-10-02T16:36:07Z</time>
      </trkpt>
      <trkpt lat="42.5630360" lon="-6.7203610">
        <ele>467.9</ele>
        <time>2014-10-02T16:36:08Z</time>
      </trkpt>
      <trkpt lat="42.5630370" lon="-6.7202640">
        <ele>468.0</ele>
        <time>2014-10-02T16:36:09Z</time>
      </trkpt>
      <trkpt lat="42.5630350" lon="-6.7201740">
        <ele>468.0</ele>
        <time>2014-10-02T16:36:10Z</time>
      </trkpt>
      <trkpt lat="42.5630350" lon="-6.7200890">
        <ele>468.1</ele>
        <time>2014-10-02T16:36:11Z</time>
      </trkpt>
      <trkpt lat="42.5630360" lon="-6.7200050">
        <ele>468.2</ele>
        <time>2014-10-02T16:36:12Z</time>
      </trkpt>
      <trkpt lat="42.5630370" lon="-6.7199190">
        <ele>468.2</ele>
        <time>2014-10-02T16:36:13Z</time>
      </trkpt>
      <trkpt lat="42.5630380" lon="-6.7198280">
        <ele>468.2</ele>
        <time>2014-10-02T16:36:14Z</time>
      </trkpt>
      <trkpt lat="42.5630390" lon="-6.7197410">
        <ele>468.3</ele>
        <time>2014-10-02T16:36:15Z</time>
      </trkpt>
      <trkpt lat="42.5630390" lon="-6.7196480">
        <ele>468.3</ele>
        <time>2014-10-02T16:36:16Z</time>
      </trkpt>
      <trkpt lat="42.5630400" lon="-6.7195520">
        <ele>468.3</ele>
        <time>2014-10-02T16:36:17Z</time>
      </trkpt>
      <trkpt lat="42.5630430" lon="-6.7194580">
        <ele>468.4</ele>
        <time>2014-10-02T16:36:18Z</time>
      </trkpt>
      <trkpt lat="42.5630460" lon="-6.7193600">
        <ele>468.4</ele>
        <time>2014-10-02T16:36:19Z</time>
      </trkpt>
      <trkpt lat="42.5630500" lon="-6.7192630">
        <ele>468.5</ele>
        <time>2014-10-02T16:36:20Z</time>
      </trkpt>
      <trkpt lat="42.5630550" lon="-6.7191630">
        <ele>468.5</ele>
        <time>2014-10-02T16:36:21Z</time>
      </trkpt>
      <trkpt lat="42.5630600" lon="-6.7190660">
        <ele>468.6</ele>
        <time>2014-10-02T16:36:22Z</time>
      </trkpt>
      <trkpt lat="42.5630640" lon="-6.7189600">
        <ele>468.7</ele>
        <time>2014-10-02T16:36:23Z</time>
      </trkpt>
      <trkpt lat="42.5630680" lon="-6.7188540">
        <ele>468.9</ele>
        <time>2014-10-02T16:36:24Z</time>
      </trkpt>
      <trkpt lat="42.5630730" lon="-6.7187470">
        <ele>468.9</ele>
        <time>2014-10-02T16:36:25Z</time>
      </trkpt>
      <trkpt lat="42.5630800" lon="-6.7186440">
        <ele>469.0</ele>
        <time>2014-10-02T16:36:26Z</time>
      </trkpt>
      <trkpt lat="42.5630860" lon="-6.7185370">
        <ele>469.0</ele>
        <time>2014-10-02T16:36:27Z</time>
      </trkpt>
      <trkpt lat="42.5630940" lon="-6.7184380">
        <ele>469.0</ele>
        <time>2014-10-02T16:36:28Z</time>
      </trkpt>
      <trkpt lat="42.5631020" lon="-6.7183380">
        <ele>469.1</ele>
        <time>2014-10-02T16:36:29Z</time>
      </trkpt>
      <trkpt lat="42.5631120" lon="-6.7182350">
        <ele>469.1</ele>
        <time>2014-10-02T16:36:30Z</time>
      </trkpt>
      <trkpt lat="42.5631230" lon="-6.7181410">
        <ele>469.1</ele>
        <time>2014-10-02T16:36:31Z</time>
      </trkpt>
      <trkpt lat="42.5631340" lon="-6.7180500">
        <ele>469.1</ele>
        <time>2014-10-02T16:36:32Z</time>
      </trkpt>
      <trkpt lat="42.5631450" lon="-6.7179520">
        <ele>469.2</ele>
        <time>2014-10-02T16:36:33Z</time>
      </trkpt>
      <trkpt lat="42.5631550" lon="-6.7178560">
        <ele>469.2</ele>
        <time>2014-10-02T16:36:34Z</time>
      </trkpt>
      <trkpt lat="42.5631650" lon="-6.7177530">
        <ele>469.2</ele>
        <time>2014-10-02T16:36:35Z</time>
      </trkpt>
      <trkpt lat="42.5631740" lon="-6.7176590">
        <ele>469.3</ele>
        <time>2014-10-02T16:36:36Z</time>
      </trkpt>
      <trkpt lat="42.5631830" lon="-6.7175540">
        <ele>469.3</ele>
        <time>2014-10-02T16:36:37Z</time>
      </trkpt>
      <trkpt lat="42.5631920" lon="-6.7174530">
        <ele>469.3</ele>
        <time>2014-10-02T16:36:38Z</time>
      </trkpt>
      <trkpt lat="42.5632000" lon="-6.7173550">
        <ele>469.3</ele>
        <time>2014-10-02T16:36:39Z</time>
      </trkpt>
      <trkpt lat="42.5632080" lon="-6.7172530">
        <ele>469.4</ele>
        <time>2014-10-02T16:36:40Z</time>
      </trkpt>
      <trkpt lat="42.5632180" lon="-6.7171540">
        <ele>469.4</ele>
        <time>2014-10-02T16:36:41Z</time>
      </trkpt>
      <trkpt lat="42.5632280" lon="-6.7170580">
        <ele>469.4</ele>
        <time>2014-10-02T16:36:42Z</time>
      </trkpt>
      <trkpt lat="42.5632380" lon="-6.7169490">
        <ele>469.5</ele>
        <time>2014-10-02T16:36:43Z</time>
      </trkpt>
      <trkpt lat="42.5632460" lon="-6.7168370">
        <ele>469.5</ele>
        <time>2014-10-02T16:36:44Z</time>
      </trkpt>
      <trkpt lat="42.5632570" lon="-6.7167250">
        <ele>469.5</ele>
        <time>2014-10-02T16:36:45Z</time>
      </trkpt>
      <trkpt lat="42.5632670" lon="-6.7166150">
        <ele>469.6</ele>
        <time>2014-10-02T16:36:46Z</time>
      </trkpt>
      <trkpt lat="42.5632770" lon="-6.7165140">
        <ele>469.6</ele>
        <time>2014-10-02T16:36:47Z</time>
      </trkpt>
      <trkpt lat="42.5632870" lon="-6.7164070">
        <ele>469.6</ele>
        <time>2014-10-02T16:36:48Z</time>
      </trkpt>
      <trkpt lat="42.5632980" lon="-6.7162920">
        <ele>469.7</ele>
        <time>2014-10-02T16:36:49Z</time>
      </trkpt>
      <trkpt lat="42.5633110" lon="-6.7161850">
        <ele>469.7</ele>
        <time>2014-10-02T16:36:50Z</time>
      </trkpt>
      <trkpt lat="42.5633240" lon="-6.7160840">
        <ele>469.7</ele>
        <time>2014-10-02T16:36:51Z</time>
      </trkpt>
      <trkpt lat="42.5633360" lon="-6.7159840">
        <ele>469.7</ele>
        <time>2014-10-02T16:36:52Z</time>
      </trkpt>
      <trkpt lat="42.5633470" lon="-6.7158830">
        <ele>469.8</ele>
        <time>2014-10-02T16:36:53Z</time>
      </trkpt>
      <trkpt lat="42.5633560" lon="-6.7157880">
        <ele>469.8</ele>
        <time>2014-10-02T16:36:54Z</time>
      </trkpt>
      <trkpt lat="42.5633670" lon="-6.7156940">
        <ele>469.8</ele>
        <time>2014-10-02T16:36:55Z</time>
      </trkpt>
      <trkpt lat="42.5633790" lon="-6.7155970">
        <ele>469.9</ele>
        <time>2014-10-02T16:36:56Z</time>
      </trkpt>
      <trkpt lat="42.5633910" lon="-6.7155110">
        <ele>469.9</ele>
        <time>2014-10-02T16:36:57Z</time>
      </trkpt>
      <trkpt lat="42.5634030" lon="-6.7154250">
        <ele>469.9</ele>
        <time>2014-10-02T16:36:58Z</time>
      </trkpt>
      <trkpt lat="42.5634160" lon="-6.7153350">
        <ele>469.9</ele>
        <time>2014-10-02T16:36:59Z</time>
      </trkpt>
      <trkpt lat="42.5634310" lon="-6.7152410">
        <ele>470.0</ele>
        <time>2014-10-02T16:37:00Z</time>
      </trkpt>
      <trkpt lat="42.5634470" lon="-6.7151410">
        <ele>470.0</ele>
        <time>2014-10-02T16:37:01Z</time>
      </trkpt>
      <trkpt lat="42.5634640" lon="-6.7150490">
        <ele>470.0</ele>
        <time>2014-10-02T16:37:02Z</time>
      </trkpt>
      <trkpt lat="42.5634820" lon="-6.7149610">
        <ele>470.0</ele>
        <time>2014-10-02T16:37:03Z</time>
      </trkpt>
      <trkpt lat="42.5635010" lon="-6.7148680">
        <ele>470.1</ele>
        <time>2014-10-02T16:37:04Z</time>
      </trkpt>
      <trkpt lat="42.5635210" lon="-6.7147720">
        <ele>470.1</ele>
        <time>2014-10-02T16:37:05Z</time>
      </trkpt>
      <trkpt lat="42.5635410" lon="-6.7146770">
        <ele>470.1</ele>
        <time>2014-10-02T16:37:06Z</time>
      </trkpt>
      <trkpt lat="42.5635600" lon="-6.7145830">
        <ele>470.2</ele>
        <time>2014-10-02T16:37:07Z</time>
      </trkpt>
      <trkpt lat="42.5635790" lon="-6.7144850">
        <ele>470.2</ele>
        <time>2014-10-02T16:37:08Z</time>
      </trkpt>
      <trkpt lat="42.5635990" lon="-6.7143840">
        <ele>470.2</ele>
        <time>2014-10-02T16:37:09Z</time>
      </trkpt>
      <trkpt lat="42.5636220" lon="-6.7142790">
        <ele>470.3</ele>
        <time>2014-10-02T16:37:10Z</time>
      </trkpt>
      <trkpt lat="42.5636440" lon="-6.7141750">
        <ele>470.3</ele>
        <time>2014-10-02T16:37:11Z</time>
      </trkpt>
      <trkpt lat="42.5636660" lon="-6.7140790">
        <ele>470.3</ele>
        <time>2014-10-02T16:37:12Z</time>
      </trkpt>
      <trkpt lat="42.5636890" lon="-6.7139760">
        <ele>470.3</ele>
        <time>2014-10-02T16:37:13Z</time>
      </trkpt>
      <trkpt lat="42.5637120" lon="-6.7138760">
        <ele>470.4</ele>
        <time>2014-10-02T16:37:14Z</time>
      </trkpt>
      <trkpt lat="42.5637340" lon="-6.7137790">
        <ele>470.4</ele>
        <time>2014-10-02T16:37:15Z</time>
      </trkpt>
      <trkpt lat="42.5637560" lon="-6.7136790">
        <ele>470.4</ele>
        <time>2014-10-02T16:37:16Z</time>
      </trkpt>
      <trkpt lat="42.5637770" lon="-6.7135880">
        <ele>470.5</ele>
        <time>2014-10-02T16:37:17Z</time>
      </trkpt>
      <trkpt lat="42.5637960" lon="-6.7134960">
        <ele>470.5</ele>
        <time>2014-10-02T16:37:18Z</time>
      </trkpt>
      <trkpt lat="42.5638150" lon="-6.7133960">
        <ele>470.5</ele>
        <time>2014-10-02T16:37:19Z</time>
      </trkpt>
      <trkpt lat="42.5638360" lon="-6.7132950">
        <ele>470.6</ele>
        <time>2014-10-02T16:37:20Z</time>
      </trkpt>
      <trkpt lat="42.5638570" lon="-6.7131910">
        <ele>470.6</ele>
        <time>2014-10-02T16:37:21Z</time>
      </trkpt>
      <trkpt lat="42.5638770" lon="-6.7130960">
        <ele>470.6</ele>
        <time>2014-10-02T16:37:22Z</time>
      </trkpt>
      <trkpt lat="42.5638970" lon="-6.7129930">
        <ele>470.6</ele>
        <time>2014-10-02T16:37:23Z</time>
      </trkpt>
      <trkpt lat="42.5639180" lon="-6.7128880">
        <ele>470.7</ele>
        <time>2014-10-02T16:37:24Z</time>
      </trkpt>
      <trkpt lat="42.5639370" lon="-6.7127810">
        <ele>470.7</ele>
        <time>2014-10-02T16:37:25Z</time>
      </trkpt>
      <trkpt lat="42.5639570" lon="-6.7126830">
        <ele>470.7</ele>
        <time>2014-10-02T16:37:26Z</time>
      </trkpt>
      <trkpt lat="42.5639770" lon="-6.7125830">
        <ele>470.8</ele>
        <time>2014-10-02T16:37:27Z</time>
      </trkpt>
      <trkpt lat="42.5639970" lon="-6.7124870">
        <ele>470.8</ele>
        <time>2014-10-02T16:37:28Z</time>
      </trkpt>
      <trkpt lat="42.5640180" lon="-6.7123920">
        <ele>470.8</ele>
        <time>2014-10-02T16:37:29Z</time>
      </trkpt>
      <trkpt lat="42.5640390" lon="-6.7122960">
        <ele>470.9</ele>
        <time>2014-10-02T16:37:30Z</time>
      </trkpt>
      <trkpt lat="42.5640610" lon="-6.7121950">
        <ele>470.9</ele>
        <time>2014-10-02T16:37:31Z</time>
      </trkpt>
      <trkpt lat="42.5640820" lon="-6.7120960">
        <ele>470.9</ele>
        <time>2014-10-02T16:37:32Z</time>
      </trkpt>
      <trkpt lat="42.5641040" lon="-6.7119970">
        <ele>470.9</ele>
        <time>2014-10-02T16:37:33Z</time>
      </trkpt>
      <trkpt lat="42.5641290" lon="-6.7118960">
        <ele>471.0</ele>
        <time>2014-10-02T16:37:34Z</time>
      </trkpt>
      <trkpt lat="42.5641540" lon="-6.7117960">
        <ele>471.0</ele>
        <time>2014-10-02T16:37:35Z</time>
      </trkpt>
      <trkpt lat="42.5641770" lon="-6.7116970">
        <ele>471.0</ele>
        <time>2014-10-02T16:37:36Z</time>
      </trkpt>
      <trkpt lat="42.5641970" lon="-6.7115990">
        <ele>471.1</ele>
        <time>2014-10-02T16:37:37Z</time>
      </trkpt>
      <trkpt lat="42.5642160" lon="-6.7115050">
        <ele>471.1</ele>
        <time>2014-10-02T16:37:38Z</time>
      </trkpt>
      <trkpt lat="42.5642360" lon="-6.7114080">
        <ele>471.1</ele>
        <time>2014-10-02T16:37:39Z</time>
      </trkpt>
      <trkpt lat="42.5642540" lon="-6.7113190">
        <ele>471.2</ele>
        <time>2014-10-02T16:37:40Z</time>
      </trkpt>
      <trkpt lat="42.5642740" lon="-6.7112230">
        <ele>471.2</ele>
        <time>2014-10-02T16:37:41Z</time>
      </trkpt>
      <trkpt lat="42.5642930" lon="-6.7111210">
        <ele>471.2</ele>
        <time>2014-10-02T16:37:42Z</time>
      </trkpt>
      <trkpt lat="42.5643110" lon="-6.7110130">
        <ele>471.2</ele>
        <time>2014-10-02T16:37:43Z</time>
      </trkpt>
      <trkpt lat="42.5643290" lon="-6.7108940">
        <ele>471.3</ele>
        <time>2014-10-02T16:37:44Z</time>
      </trkpt>
      <trkpt lat="42.5643460" lon="-6.7107800">
        <ele>471.3</ele>
        <time>2014-10-02T16:37:45Z</time>
      </trkpt>
      <trkpt lat="42.5643610" lon="-6.7106700">
        <ele>471.3</ele>
        <time>2014-10-02T16:37:46Z</time>
      </trkpt>
      <trkpt lat="42.5643760" lon="-6.7105610">
        <ele>471.4</ele>
        <time>2014-10-02T16:37:47Z</time>
      </trkpt>
      <trkpt lat="42.5643890" lon="-6.7104610">
        <ele>471.4</ele>
        <time>2014-10-02T16:37:48Z</time>
      </trkpt>
      <trkpt lat="42.5644040" lon="-6.7103530">
        <ele>471.4</ele>
        <time>2014-10-02T16:37:49Z</time>
      </trkpt>
      <trkpt lat="42.5644200" lon="-6.7102450">
        <ele>471.5</ele>
        <time>2014-10-02T16:37:50Z</time>
      </trkpt>
      <trkpt lat="42.5644330" lon="-6.7101470">
        <ele>471.5</ele>
        <time>2014-10-02T16:37:51Z</time>
      </trkpt>
      <trkpt lat="42.5644450" lon="-6.7100490">
        <ele>471.6</ele>
        <time>2014-10-02T16:37:52Z</time>
      </trkpt>
      <trkpt lat="42.5644620" lon="-6.7099410">
        <ele>471.8</ele>
        <time>2014-10-02T16:37:53Z</time>
      </trkpt>
      <trkpt lat="42.5644770" lon="-6.7098430">
        <ele>472.1</ele>
        <time>2014-10-02T16:37:54Z</time>
      </trkpt>
      <trkpt lat="42.5644930" lon="-6.7097480">
        <ele>472.4</ele>
        <time>2014-10-02T16:37:55Z</time>
      </trkpt>
      <trkpt lat="42.5645090" lon="-6.7096480">
        <ele>472.6</ele>
        <time>2014-10-02T16:37:56Z</time>
      </trkpt>
      <trkpt lat="42.5645210" lon="-6.7095480">
        <ele>473.0</ele>
        <time>2014-10-02T16:37:57Z</time>
      </trkpt>
      <trkpt lat="42.5645370" lon="-6.7094400">
        <ele>473.1</ele>
        <time>2014-10-02T16:37:58Z</time>
      </trkpt>
      <trkpt lat="42.5645500" lon="-6.7093350">
        <ele>473.2</ele>
        <time>2014-10-02T16:37:59Z</time>
      </trkpt>
      <trkpt lat="42.5645640" lon="-6.7092330">
        <ele>473.3</ele>
        <time>2014-10-02T16:38:00Z</time>
      </trkpt>
      <trkpt lat="42.5645750" lon="-6.7091420">
        <ele>473.4</ele>
        <time>2014-10-02T16:38:01Z</time>
      </trkpt>
      <trkpt lat="42.5645870" lon="-6.7090450">
        <ele>473.5</ele>
        <time>2014-10-02T16:38:02Z</time>
      </trkpt>
      <trkpt lat="42.5646000" lon="-6.7089460">
        <ele>473.5</ele>
        <time>2014-10-02T16:38:03Z</time>
      </trkpt>
      <trkpt lat="42.5646120" lon="-6.7088490">
        <ele>473.6</ele>
        <time>2014-10-02T16:38:04Z</time>
      </trkpt>
      <trkpt lat="42.5646260" lon="-6.7087540">
        <ele>473.5</ele>
        <time>2014-10-02T16:38:05Z</time>
      </trkpt>
      <trkpt lat="42.5646410" lon="-6.7086600">
        <ele>473.5</ele>
        <time>2014-10-02T16:38:06Z</time>
      </trkpt>
      <trkpt lat="42.5646550" lon="-6.7085710">
        <ele>473.5</ele>
        <time>2014-10-02T16:38:07Z</time>
      </trkpt>
      <trkpt lat="42.5646690" lon="-6.7084810">
        <ele>473.6</ele>
        <time>2014-10-02T16:38:08Z</time>
      </trkpt>
      <trkpt lat="42.5646830" lon="-6.7083840">
        <ele>473.6</ele>
        <time>2014-10-02T16:38:09Z</time>
      </trkpt>
      <trkpt lat="42.5646950" lon="-6.7082950">
        <ele>473.7</ele>
        <time>2014-10-02T16:38:10Z</time>
      </trkpt>
      <trkpt lat="42.5647070" lon="-6.7082080">
        <ele>473.7</ele>
        <time>2014-10-02T16:38:11Z</time>
      </trkpt>
      <trkpt lat="42.5647200" lon="-6.7081160">
        <ele>473.8</ele>
        <time>2014-10-02T16:38:12Z</time>
      </trkpt>
      <trkpt lat="42.5647340" lon="-6.7080250">
        <ele>473.8</ele>
        <time>2014-10-02T16:38:13Z</time>
      </trkpt>
      <trkpt lat="42.5647500" lon="-6.7079320">
        <ele>473.9</ele>
        <time>2014-10-02T16:38:14Z</time>
      </trkpt>
      <trkpt lat="42.5647670" lon="-6.7078380">
        <ele>474.0</ele>
        <time>2014-10-02T16:38:15Z</time>
      </trkpt>
      <trkpt lat="42.5647830" lon="-6.7077450">
        <ele>474.0</ele>
        <time>2014-10-02T16:38:16Z</time>
      </trkpt>
      <trkpt lat="42.5647970" lon="-6.7076450">
        <ele>474.1</ele>
        <time>2014-10-02T16:38:17Z</time>
      </trkpt>
      <trkpt lat="42.5648100" lon="-6.7075510">
        <ele>474.2</ele>
        <time>2014-10-02T16:38:18Z</time>
      </trkpt>
      <trkpt lat="42.5648240" lon="-6.7074590">
        <ele>474.2</ele>
        <time>2014-10-02T16:38:19Z</time>
      </trkpt>
      <trkpt lat="42.5648370" lon="-6.7073660">
        <ele>474.2</ele>
        <time>2014-10-02T16:38:20Z</time>
      </trkpt>
      <trkpt lat="42.5648510" lon="-6.7072710">
        <ele>474.2</ele>
        <time>2014-10-02T16:38:21Z</time>
      </trkpt>
      <trkpt lat="42.5648650" lon="-6.7071730">
        <ele>474.3</ele>
        <time>2014-10-02T16:38:22Z</time>
      </trkpt>
      <trkpt lat="42.5648780" lon="-6.7070780">
        <ele>474.3</ele>
        <time>2014-10-02T16:38:23Z</time>
      </trkpt>
      <trkpt lat="42.5648910" lon="-6.7069860">
        <ele>474.3</ele>
        <time>2014-10-02T16:38:24Z</time>
      </trkpt>
      <trkpt lat="42.5649050" lon="-6.7068870">
        <ele>474.3</ele>
        <time>2014-10-02T16:38:25Z</time>
      </trkpt>
      <trkpt lat="42.5649180" lon="-6.7067940">
        <ele>474.4</ele>
        <time>2014-10-02T16:38:26Z</time>
      </trkpt>
      <trkpt lat="42.5649300" lon="-6.7066990">
        <ele>474.4</ele>
        <time>2014-10-02T16:38:27Z</time>
      </trkpt>
      <trkpt lat="42.5649420" lon="-6.7066020">
        <ele>474.5</ele>
        <time>2014-10-02T16:38:28Z</time>
      </trkpt>
      <trkpt lat="42.5649560" lon="-6.7065030">
        <ele>474.5</ele>
        <time>2014-10-02T16:38:29Z</time>
      </trkpt>
      <trkpt lat="42.5649710" lon="-6.7064120">
        <ele>474.6</ele>
        <time>2014-10-02T16:38:30Z</time>
      </trkpt>
      <trkpt lat="42.5649840" lon="-6.7063170">
        <ele>474.6</ele>
        <time>2014-10-02T16:38:31Z</time>
      </trkpt>
      <trkpt lat="42.5649960" lon="-6.7062240">
        <ele>474.7</ele>
        <time>2014-10-02T16:38:32Z</time>
      </trkpt>
      <trkpt lat="42.5650080" lon="-6.7061240">
        <ele>474.7</ele>
        <time>2014-10-02T16:38:33Z</time>
      </trkpt>
      <trkpt lat="42.5650200" lon="-6.7060160">
        <ele>474.8</ele>
        <time>2014-10-02T16:38:34Z</time>
      </trkpt>
      <trkpt lat="42.5650320" lon="-6.7059050">
        <ele>474.9</ele>
        <time>2014-10-02T16:38:35Z</time>
      </trkpt>
      <trkpt lat="42.5650450" lon="-6.7058020">
        <ele>474.9</ele>
        <time>2014-10-02T16:38:36Z</time>
      </trkpt>
      <trkpt lat="42.5650570" lon="-6.7057000">
        <ele>474.9</ele>
        <time>2014-10-02T16:38:37Z</time>
      </trkpt>
      <trkpt lat="42.5650680" lon="-6.7055980">
        <ele>474.9</ele>
        <time>2014-10-02T16:38:38Z</time>
      </trkpt>
      <trkpt lat="42.5650810" lon="-6.7055010">
        <ele>474.9</ele>
        <time>2014-10-02T16:38:39Z</time>
      </trkpt>
      <trkpt lat="42.5650950" lon="-6.7053990">
        <ele>475.0</ele>
        <time>2014-10-02T16:38:40Z</time>
      </trkpt>
      <trkpt lat="42.5651050" lon="-6.7053000">
        <ele>475.1</ele>
        <time>2014-10-02T16:38:41Z</time>
      </trkpt>
      <trkpt lat="42.5651160" lon="-6.7051970">
        <ele>475.2</ele>
        <time>2014-10-02T16:38:42Z</time>
      </trkpt>
      <trkpt lat="42.5651280" lon="-6.7050920">
        <ele>475.3</ele>
        <time>2014-10-02T16:38:43Z</time>
      </trkpt>
      <trkpt lat="42.5651400" lon="-6.7049890">
        <ele>475.4</ele>
        <time>2014-10-02T16:38:44Z</time>
      </trkpt>
      <trkpt lat="42.5651530" lon="-6.7048820">
        <ele>475.5</ele>
        <time>2014-10-02T16:38:45Z</time>
      </trkpt>
      <trkpt lat="42.5651630" lon="-6.7047840">
        <ele>475.6</ele>
        <time>2014-10-02T16:38:46Z</time>
      </trkpt>
      <trkpt lat="42.5651730" lon="-6.7046820">
        <ele>475.6</ele>
        <time>2014-10-02T16:38:47Z</time>
      </trkpt>
      <trkpt lat="42.5651830" lon="-6.7045810">
        <ele>475.6</ele>
        <time>2014-10-02T16:38:48Z</time>
      </trkpt>
      <trkpt lat="42.5651930" lon="-6.7044800">
        <ele>475.7</ele>
        <time>2014-10-02T16:38:49Z</time>
      </trkpt>
      <trkpt lat="42.5652060" lon="-6.7043810">
        <ele>475.7</ele>
        <time>2014-10-02T16:38:50Z</time>
      </trkpt>
      <trkpt lat="42.5652180" lon="-6.7042860">
        <ele>475.8</ele>
        <time>2014-10-02T16:38:51Z</time>
      </trkpt>
      <trkpt lat="42.5652310" lon="-6.7041870">
        <ele>475.8</ele>
        <time>2014-10-02T16:38:52Z</time>
      </trkpt>
      <trkpt lat="42.5652420" lon="-6.7040900">
        <ele>475.9</ele>
        <time>2014-10-02T16:38:53Z</time>
      </trkpt>
      <trkpt lat="42.5652530" lon="-6.7040010">
        <ele>476.0</ele>
        <time>2014-10-02T16:38:54Z</time>
      </trkpt>
      <trkpt lat="42.5652640" lon="-6.7039100">
        <ele>476.0</ele>
        <time>2014-10-02T16:38:55Z</time>
      </trkpt>
      <trkpt lat="42.5652740" lon="-6.7038110">
        <ele>476.1</ele>
        <time>2014-10-02T16:38:56Z</time>
      </trkpt>
      <trkpt lat="42.5652840" lon="-6.7037130">
        <ele>476.2</ele>
        <time>2014-10-02T16:38:57Z</time>
      </trkpt>
      <trkpt lat="42.5652960" lon="-6.7036100">
        <ele>476.2</ele>
        <time>2014-10-02T16:38:58Z</time>
      </trkpt>
      <trkpt lat="42.5653080" lon="-6.7035110">
        <ele>476.3</ele>
        <time>2014-10-02T16:38:59Z</time>
      </trkpt>
      <trkpt lat="42.5653200" lon="-6.7034080">
        <ele>476.3</ele>
        <time>2014-10-02T16:39:00Z</time>
      </trkpt>
      <trkpt lat="42.5653310" lon="-6.7033130">
        <ele>476.3</ele>
        <time>2014-10-02T16:39:01Z</time>
      </trkpt>
      <trkpt lat="42.5653420" lon="-6.7032120">
        <ele>476.3</ele>
        <time>2014-10-02T16:39:02Z</time>
      </trkpt>
      <trkpt lat="42.5653530" lon="-6.7031060">
        <ele>476.3</ele>
        <time>2014-10-02T16:39:03Z</time>
      </trkpt>
      <trkpt lat="42.5653660" lon="-6.7030010">
        <ele>476.3</ele>
        <time>2014-10-02T16:39:04Z</time>
      </trkpt>
      <trkpt lat="42.5653790" lon="-6.7028930">
        <ele>476.4</ele>
        <time>2014-10-02T16:39:05Z</time>
      </trkpt>
      <trkpt lat="42.5653900" lon="-6.7027940">
        <ele>476.4</ele>
        <time>2014-10-02T16:39:06Z</time>
      </trkpt>
      <trkpt lat="42.5654010" lon="-6.7026910">
        <ele>476.4</ele>
        <time>2014-10-02T16:39:07Z</time>
      </trkpt>
      <trkpt lat="42.5654110" lon="-6.7025970">
        <ele>476.5</ele>
        <time>2014-10-02T16:39:08Z</time>
      </trkpt>
      <trkpt lat="42.5654190" lon="-6.7025040">
        <ele>476.6</ele>
        <time>2014-10-02T16:39:09Z</time>
      </trkpt>
      <trkpt lat="42.5654280" lon="-6.7024130">
        <ele>476.6</ele>
        <time>2014-10-02T16:39:10Z</time>
      </trkpt>
      <trkpt lat="42.5654360" lon="-6.7023230">
        <ele>476.7</ele>
        <time>2014-10-02T16:39:11Z</time>
      </trkpt>
      <trkpt lat="42.5654450" lon="-6.7022190">
        <ele>476.8</ele>
        <time>2014-10-02T16:39:12Z</time>
      </trkpt>
      <trkpt lat="42.5654530" lon="-6.7021100">
        <ele>476.8</ele>
        <time>2014-10-02T16:39:13Z</time>
      </trkpt>
      <trkpt lat="42.5654610" lon="-6.7020050">
        <ele>476.9</ele>
        <time>2014-10-02T16:39:14Z</time>
      </trkpt>
      <trkpt lat="42.5654660" lon="-6.7019080">
        <ele>476.9</ele>
        <time>2014-10-02T16:39:15Z</time>
      </trkpt>
      <trkpt lat="42.5654730" lon="-6.7018100">
        <ele>476.9</ele>
        <time>2014-10-02T16:39:16Z</time>
      </trkpt>
      <trkpt lat="42.5654800" lon="-6.7017060">
        <ele>477.0</ele>
        <time>2014-10-02T16:39:17Z</time>
      </trkpt>
      <trkpt lat="42.5654850" lon="-6.7016090">
        <ele>477.0</ele>
        <time>2014-10-02T16:39:18Z</time>
      </trkpt>
      <trkpt lat="42.5654910" lon="-6.7015010">
        <ele>477.1</ele>
        <time>2014-10-02T16:39:19Z</time>
      </trkpt>
      <trkpt lat="42.5654980" lon="-6.7013920">
        <ele>477.1</ele>
        <time>2014-10-02T16:39:20Z</time>
      </trkpt>
      <trkpt lat="42.5655040" lon="-6.7012920">
        <ele>477.1</ele>
        <time>2014-10-02T16:39:21Z</time>
      </trkpt>
      <trkpt lat="42.5655090" lon="-6.7011930">
        <ele>477.2</ele>
        <time>2014-10-02T16:39:22Z</time>
      </trkpt>
      <trkpt lat="42.5655130" lon="-6.7010950">
        <ele>477.2</ele>
        <time>2014-10-02T16:39:23Z</time>
      </trkpt>
      <trkpt lat="42.5655190" lon="-6.7009950">
        <ele>477.2</ele>
        <time>2014-10-02T16:39:24Z</time>
      </trkpt>
      <trkpt lat="42.5655250" lon="-6.7008960">
        <ele>477.3</ele>
        <time>2014-10-02T16:39:25Z</time>
      </trkpt>
      <trkpt lat="42.5655290" lon="-6.7008020">
        <ele>477.3</ele>
        <time>2014-10-02T16:39:26Z</time>
      </trkpt>
      <trkpt lat="42.5655340" lon="-6.7007070">
        <ele>477.4</ele>
        <time>2014-10-02T16:39:27Z</time>
      </trkpt>
      <trkpt lat="42.5655390" lon="-6.7006140">
        <ele>477.4</ele>
        <time>2014-10-02T16:39:28Z</time>
      </trkpt>
      <trkpt lat="42.5655450" lon="-6.7005160">
        <ele>477.5</ele>
        <time>2014-10-02T16:39:29Z</time>
      </trkpt>
      <trkpt lat="42.5655510" lon="-6.7004140">
        <ele>477.5</ele>
        <time>2014-10-02T16:39:30Z</time>
      </trkpt>
      <trkpt lat="42.5655580" lon="-6.7003100">
        <ele>477.6</ele>
        <time>2014-10-02T16:39:31Z</time>
      </trkpt>
      <trkpt lat="42.5655650" lon="-6.7002060">
        <ele>477.7</ele>
        <time>2014-10-02T16:39:32Z</time>
      </trkpt>
      <trkpt lat="42.5655720" lon="-6.7001140">
        <ele>477.8</ele>
        <time>2014-10-02T16:39:33Z</time>
      </trkpt>
      <trkpt lat="42.5655770" lon="-6.7000170">
        <ele>477.8</ele>
        <time>2014-10-02T16:39:34Z</time>
      </trkpt>
      <trkpt lat="42.5655820" lon="-6.6999220">
        <ele>477.9</ele>
        <time>2014-10-02T16:39:35Z</time>
      </trkpt>
      <trkpt lat="42.5655850" lon="-6.6998320">
        <ele>478.0</ele>
        <time>2014-10-02T16:39:36Z</time>
      </trkpt>
      <trkpt lat="42.5655880" lon="-6.6997410">
        <ele>478.1</ele>
        <time>2014-10-02T16:39:37Z</time>
      </trkpt>
      <trkpt lat="42.5655910" lon="-6.6996540">
        <ele>478.1</ele>
        <time>2014-10-02T16:39:38Z</time>
      </trkpt>
      <trkpt lat="42.5655960" lon="-6.6995620">
        <ele>478.1</ele>
        <time>2014-10-02T16:39:39Z</time>
      </trkpt>
      <trkpt lat="42.5656030" lon="-6.6994660">
        <ele>478.2</ele>
        <time>2014-10-02T16:39:40Z</time>
      </trkpt>
      <trkpt lat="42.5656100" lon="-6.6993670">
        <ele>478.2</ele>
        <time>2014-10-02T16:39:41Z</time>
      </trkpt>
      <trkpt lat="42.5656180" lon="-6.6992670">
        <ele>478.2</ele>
        <time>2014-10-02T16:39:42Z</time>
      </trkpt>
      <trkpt lat="42.5656230" lon="-6.6991740">
        <ele>478.2</ele>
        <time>2014-10-02T16:39:43Z</time>
      </trkpt>
      <trkpt lat="42.5656270" lon="-6.6990900">
        <ele>478.2</ele>
        <time>2014-10-02T16:39:44Z</time>
      </trkpt>
      <trkpt lat="42.5656320" lon="-6.6990070">
        <ele>478.2</ele>
        <time>2014-10-02T16:39:45Z</time>
      </trkpt>
      <trkpt lat="42.5656360" lon="-6.6989140">
        <ele>478.3</ele>
        <time>2014-10-02T16:39:46Z</time>
      </trkpt>
      <trkpt lat="42.5656400" lon="-6.6988190">
        <ele>478.3</ele>
        <time>2014-10-02T16:39:47Z</time>
      </trkpt>
      <trkpt lat="42.5656440" lon="-6.6987200">
        <ele>478.4</ele>
        <time>2014-10-02T16:39:48Z</time>
      </trkpt>
      <trkpt lat="42.5656490" lon="-6.6986230">
        <ele>478.4</ele>
        <time>2014-10-02T16:39:49Z</time>
      </trkpt>
      <trkpt lat="42.5656520" lon="-6.6985340">
        <ele>478.5</ele>
        <time>2014-10-02T16:39:50Z</time>
      </trkpt>
      <trkpt lat="42.5656560" lon="-6.6984400">
        <ele>478.5</ele>
        <time>2014-10-02T16:39:51Z</time>
      </trkpt>
      <trkpt lat="42.5656590" lon="-6.6983480">
        <ele>478.6</ele>
        <time>2014-10-02T16:39:52Z</time>
      </trkpt>
      <trkpt lat="42.5656610" lon="-6.6982590">
        <ele>478.7</ele>
        <time>2014-10-02T16:39:53Z</time>
      </trkpt>
      <trkpt lat="42.5656650" lon="-6.6981680">
        <ele>478.7</ele>
        <time>2014-10-02T16:39:54Z</time>
      </trkpt>
      <trkpt lat="42.5656690" lon="-6.6980780">
        <ele>478.8</ele>
        <time>2014-10-02T16:39:55Z</time>
      </trkpt>
      <trkpt lat="42.5656730" lon="-6.6979850">
        <ele>478.8</ele>
        <time>2014-10-02T16:39:56Z</time>
      </trkpt>
      <trkpt lat="42.5656770" lon="-6.6978930">
        <ele>478.9</ele>
        <time>2014-10-02T16:39:57Z</time>
      </trkpt>
      <trkpt lat="42.5656800" lon="-6.6978010">
        <ele>478.9</ele>
        <time>2014-10-02T16:39:58Z</time>
      </trkpt>
      <trkpt lat="42.5656820" lon="-6.6977070">
        <ele>479.0</ele>
        <time>2014-10-02T16:39:59Z</time>
      </trkpt>
      <trkpt lat="42.5656840" lon="-6.6976120">
        <ele>479.1</ele>
        <time>2014-10-02T16:40:00Z</time>
      </trkpt>
      <trkpt lat="42.5656880" lon="-6.6975110">
        <ele>479.1</ele>
        <time>2014-10-02T16:40:01Z</time>
      </trkpt>
      <trkpt lat="42.5656910" lon="-6.6974090">
        <ele>479.2</ele>
        <time>2014-10-02T16:40:02Z</time>
      </trkpt>
      <trkpt lat="42.5656940" lon="-6.6973080">
        <ele>479.3</ele>
        <time>2014-10-02T16:40:03Z</time>
      </trkpt>
      <trkpt lat="42.5656940" lon="-6.6972100">
        <ele>479.3</ele>
        <time>2014-10-02T16:40:04Z</time>
      </trkpt>
      <trkpt lat="42.5656990" lon="-6.6971140">
        <ele>479.3</ele>
        <time>2014-10-02T16:40:05Z</time>
      </trkpt>
      <trkpt lat="42.5657030" lon="-6.6970180">
        <ele>479.3</ele>
        <time>2014-10-02T16:40:06Z</time>
      </trkpt>
      <trkpt lat="42.5657070" lon="-6.6969220">
        <ele>479.4</ele>
        <time>2014-10-02T16:40:07Z</time>
      </trkpt>
      <trkpt lat="42.5657110" lon="-6.6968270">
        <ele>479.4</ele>
        <time>2014-10-02T16:40:08Z</time>
      </trkpt>
      <trkpt lat="42.5657150" lon="-6.6967300">
        <ele>479.4</ele>
        <time>2014-10-02T16:40:09Z</time>
      </trkpt>
      <trkpt lat="42.5657170" lon="-6.6966290">
        <ele>479.5</ele>
        <time>2014-10-02T16:40:10Z</time>
      </trkpt>
      <trkpt lat="42.5657200" lon="-6.6965250">
        <ele>479.5</ele>
        <time>2014-10-02T16:40:11Z</time>
      </trkpt>
      <trkpt lat="42.5657230" lon="-6.6964220">
        <ele>479.5</ele>
        <time>2014-10-02T16:40:12Z</time>
      </trkpt>
      <trkpt lat="42.5657250" lon="-6.6963180">
        <ele>479.5</ele>
        <time>2014-10-02T16:40:13Z</time>
      </trkpt>
      <trkpt lat="42.5657250" lon="-6.6962150">
        <ele>479.6</ele>
        <time>2014-10-02T16:40:14Z</time>
      </trkpt>
      <trkpt lat="42.5657270" lon="-6.6961130">
        <ele>479.6</ele>
        <time>2014-10-02T16:40:15Z</time>
      </trkpt>
      <trkpt lat="42.5657280" lon="-6.6960180">
        <ele>479.7</ele>
        <time>2014-10-02T16:40:16Z</time>
      </trkpt>
      <trkpt lat="42.5657290" lon="-6.6959220">
        <ele>479.7</ele>
        <time>2014-10-02T16:40:17Z</time>
      </trkpt>
      <trkpt lat="42.5657290" lon="-6.6958280">
        <ele>479.8</ele>
        <time>2014-10-02T16:40:18Z</time>
      </trkpt>
      <trkpt lat="42.5657310" lon="-6.6957270">
        <ele>479.8</ele>
        <time>2014-10-02T16:40:19Z</time>
      </trkpt>
      <trkpt lat="42.5657340" lon="-6.6956270">
        <ele>479.9</ele>
        <time>2014-10-02T16:40:20Z</time>
      </trkpt>
      <trkpt lat="42.5657380" lon="-6.6955290">
        <ele>479.9</ele>
        <time>2014-10-02T16:40:21Z</time>
      </trkpt>
      <trkpt lat="42.5657430" lon="-6.6954270">
        <ele>480.0</ele>
        <time>2014-10-02T16:40:22Z</time>
      </trkpt>
      <trkpt lat="42.5657460" lon="-6.6953280">
        <ele>480.0</ele>
        <time>2014-10-02T16:40:23Z</time>
      </trkpt>
      <trkpt lat="42.5657480" lon="-6.6952290">
        <ele>480.1</ele>
        <time>2014-10-02T16:40:24Z</time>
      </trkpt>
      <trkpt lat="42.5657480" lon="-6.6951320">
        <ele>480.2</ele>
        <time>2014-10-02T16:40:25Z</time>
      </trkpt>
      <trkpt lat="42.5657470" lon="-6.6950390">
        <ele>480.2</ele>
        <time>2014-10-02T16:40:26Z</time>
      </trkpt>
      <trkpt lat="42.5657460" lon="-6.6949420">
        <ele>480.3</ele>
        <time>2014-10-02T16:40:27Z</time>
      </trkpt>
      <trkpt lat="42.5657460" lon="-6.6948560">
        <ele>480.4</ele>
        <time>2014-10-02T16:40:28Z</time>
      </trkpt>
      <trkpt lat="42.5657490" lon="-6.6947610">
        <ele>480.4</ele>
        <time>2014-10-02T16:40:29Z</time>
      </trkpt>
      <trkpt lat="42.5657500" lon="-6.6946620">
        <ele>480.5</ele>
        <time>2014-10-02T16:40:30Z</time>
      </trkpt>
      <trkpt lat="42.5657520" lon="-6.6945640">
        <ele>480.6</ele>
        <time>2014-10-02T16:40:31Z</time>
      </trkpt>
      <trkpt lat="42.5657540" lon="-6.6944690">
        <ele>480.6</ele>
        <time>2014-10-02T16:40:32Z</time>
      </trkpt>
      <trkpt lat="42.5657560" lon="-6.6943740">
        <ele>480.7</ele>
        <time>2014-10-02T16:40:33Z</time>
      </trkpt>
      <trkpt lat="42.5657580" lon="-6.6942730">
        <ele>480.7</ele>
        <time>2014-10-02T16:40:34Z</time>
      </trkpt>
      <trkpt lat="42.5657600" lon="-6.6941760">
        <ele>480.7</ele>
        <time>2014-10-02T16:40:35Z</time>
      </trkpt>
      <trkpt lat="42.5657600" lon="-6.6940820">
        <ele>480.7</ele>
        <time>2014-10-02T16:40:36Z</time>
      </trkpt>
      <trkpt lat="42.5657580" lon="-6.6939900">
        <ele>480.8</ele>
        <time>2014-10-02T16:40:37Z</time>
      </trkpt>
      <trkpt lat="42.5657540" lon="-6.6938900">
        <ele>480.8</ele>
        <time>2014-10-02T16:40:38Z</time>
      </trkpt>
      <trkpt lat="42.5657500" lon="-6.6937930">
        <ele>480.9</ele>
        <time>2014-10-02T16:40:39Z</time>
      </trkpt>
      <trkpt lat="42.5657450" lon="-6.6936920">
        <ele>480.9</ele>
        <time>2014-10-02T16:40:40Z</time>
      </trkpt>
      <trkpt lat="42.5657430" lon="-6.6936010">
        <ele>481.0</ele>
        <time>2014-10-02T16:40:41Z</time>
      </trkpt>
      <trkpt lat="42.5657400" lon="-6.6935030">
        <ele>481.1</ele>
        <time>2014-10-02T16:40:42Z</time>
      </trkpt>
      <trkpt lat="42.5657390" lon="-6.6934090">
        <ele>481.1</ele>
        <time>2014-10-02T16:40:43Z</time>
      </trkpt>
      <trkpt lat="42.5657380" lon="-6.6933150">
        <ele>481.1</ele>
        <time>2014-10-02T16:40:44Z</time>
      </trkpt>
      <trkpt lat="42.5657390" lon="-6.6932150">
        <ele>481.1</ele>
        <time>2014-10-02T16:40:45Z</time>
      </trkpt>
      <trkpt lat="42.5657410" lon="-6.6931090">
        <ele>481.1</ele>
        <time>2014-10-02T16:40:46Z</time>
      </trkpt>
      <trkpt lat="42.5657410" lon="-6.6930110">
        <ele>481.2</ele>
        <time>2014-10-02T16:40:47Z</time>
      </trkpt>
      <trkpt lat="42.5657410" lon="-6.6929130">
        <ele>481.2</ele>
        <time>2014-10-02T16:40:48Z</time>
      </trkpt>
      <trkpt lat="42.5657400" lon="-6.6928050">
        <ele>481.3</ele>
        <time>2014-10-02T16:40:49Z</time>
      </trkpt>
      <trkpt lat="42.5657390" lon="-6.6927090">
        <ele>481.4</ele>
        <time>2014-10-02T16:40:50Z</time>
      </trkpt>
      <trkpt lat="42.5657380" lon="-6.6926070">
        <ele>481.5</ele>
        <time>2014-10-02T16:40:51Z</time>
      </trkpt>
      <trkpt lat="42.5657360" lon="-6.6925030">
        <ele>481.6</ele>
        <time>2014-10-02T16:40:52Z</time>
      </trkpt>
      <trkpt lat="42.5657340" lon="-6.6923980">
        <ele>481.8</ele>
        <time>2014-10-02T16:40:53Z</time>
      </trkpt>
      <trkpt lat="42.5657310" lon="-6.6922990">
        <ele>481.8</ele>
        <time>2014-10-02T16:40:54Z</time>
      </trkpt>
      <trkpt lat="42.5657290" lon="-6.6922010">
        <ele>481.8</ele>
        <time>2014-10-02T16:40:55Z</time>
      </trkpt>
      <trkpt lat="42.5657260" lon="-6.6921020">
        <ele>481.8</ele>
        <time>2014-10-02T16:40:56Z</time>
      </trkpt>
      <trkpt lat="42.5657230" lon="-6.6920020">
        <ele>481.8</ele>
        <time>2014-10-02T16:40:57Z</time>
      </trkpt>
      <trkpt lat="42.5657180" lon="-6.6919020">
        <ele>481.9</ele>
        <time>2014-10-02T16:40:58Z</time>
      </trkpt>
      <trkpt lat="42.5657140" lon="-6.6918020">
        <ele>481.9</ele>
        <time>2014-10-02T16:40:59Z</time>
      </trkpt>
      <trkpt lat="42.5657100" lon="-6.6917010">
        <ele>481.9</ele>
        <time>2014-10-02T16:41:00Z</time>
      </trkpt>
      <trkpt lat="42.5657070" lon="-6.6916000">
        <ele>481.9</ele>
        <time>2014-10-02T16:41:01Z</time>
      </trkpt>
      <trkpt lat="42.5657040" lon="-6.6915020">
        <ele>481.9</ele>
        <time>2014-10-02T16:41:02Z</time>
      </trkpt>
      <trkpt lat="42.5657030" lon="-6.6914000">
        <ele>481.7</ele>
        <time>2014-10-02T16:41:03Z</time>
      </trkpt>
      <trkpt lat="42.5657020" lon="-6.6912980">
        <ele>481.5</ele>
        <time>2014-10-02T16:41:04Z</time>
      </trkpt>
      <trkpt lat="42.5656990" lon="-6.6911970">
        <ele>481.5</ele>
        <time>2014-10-02T16:41:05Z</time>
      </trkpt>
      <trkpt lat="42.5656970" lon="-6.6911020">
        <ele>481.4</ele>
        <time>2014-10-02T16:41:06Z</time>
      </trkpt>
      <trkpt lat="42.5656960" lon="-6.6910030">
        <ele>481.5</ele>
        <time>2014-10-02T16:41:07Z</time>
      </trkpt>
      <trkpt lat="42.5656960" lon="-6.6909070">
        <ele>481.6</ele>
        <time>2014-10-02T16:41:08Z</time>
      </trkpt>
      <trkpt lat="42.5656940" lon="-6.6908180">
        <ele>481.6</ele>
        <time>2014-10-02T16:41:09Z</time>
      </trkpt>
      <trkpt lat="42.5656930" lon="-6.6907220">
        <ele>481.7</ele>
        <time>2014-10-02T16:41:10Z</time>
      </trkpt>
      <trkpt lat="42.5656930" lon="-6.6906160">
        <ele>481.7</ele>
        <time>2014-10-02T16:41:11Z</time>
      </trkpt>
      <trkpt lat="42.5656910" lon="-6.6905100">
        <ele>481.8</ele>
        <time>2014-10-02T16:41:12Z</time>
      </trkpt>
      <trkpt lat="42.5656890" lon="-6.6904070">
        <ele>481.8</ele>
        <time>2014-10-02T16:41:13Z</time>
      </trkpt>
      <trkpt lat="42.5656860" lon="-6.6903100">
        <ele>481.8</ele>
        <time>2014-10-02T16:41:14Z</time>
      </trkpt>
      <trkpt lat="42.5656820" lon="-6.6902140">
        <ele>481.9</ele>
        <time>2014-10-02T16:41:15Z</time>
      </trkpt>
      <trkpt lat="42.5656770" lon="-6.6901240">
        <ele>481.9</ele>
        <time>2014-10-02T16:41:16Z</time>
      </trkpt>
      <trkpt lat="42.5656740" lon="-6.6900300">
        <ele>481.9</ele>
        <time>2014-10-02T16:41:17Z</time>
      </trkpt>
      <trkpt lat="42.5656720" lon="-6.6899360">
        <ele>482.0</ele>
        <time>2014-10-02T16:41:18Z</time>
      </trkpt>
      <trkpt lat="42.5656700" lon="-6.6898340">
        <ele>482.1</ele>
        <time>2014-10-02T16:41:19Z</time>
      </trkpt>
      <trkpt lat="42.5656670" lon="-6.6897360">
        <ele>482.1</ele>
        <time>2014-10-02T16:41:20Z</time>
      </trkpt>
      <trkpt lat="42.5656660" lon="-6.6896300">
        <ele>482.2</ele>
        <time>2014-10-02T16:41:21Z</time>
      </trkpt>
      <trkpt lat="42.5656650" lon="-6.6895270">
        <ele>482.3</ele>
        <time>2014-10-02T16:41:22Z</time>
      </trkpt>
      <trkpt lat="42.5656640" lon="-6.6894300">
        <ele>482.3</ele>
        <time>2014-10-02T16:41:23Z</time>
      </trkpt>
      <trkpt lat="42.5656630" lon="-6.6893430">
        <ele>482.3</ele>
        <time>2014-10-02T16:41:24Z</time>
      </trkpt>
      <trkpt lat="42.5656620" lon="-6.6892550">
        <ele>482.4</ele>
        <time>2014-10-02T16:41:25Z</time>
      </trkpt>
      <trkpt lat="42.5656620" lon="-6.6891600">
        <ele>482.4</ele>
        <time>2014-10-02T16:41:26Z</time>
      </trkpt>
      <trkpt lat="42.5656610" lon="-6.6890610">
        <ele>482.4</ele>
        <time>2014-10-02T16:41:27Z</time>
      </trkpt>
      <trkpt lat="42.5656600" lon="-6.6889630">
        <ele>482.4</ele>
        <time>2014-10-02T16:41:28Z</time>
      </trkpt>
      <trkpt lat="42.5656600" lon="-6.6888640">
        <ele>482.5</ele>
        <time>2014-10-02T16:41:29Z</time>
      </trkpt>
      <trkpt lat="42.5656590" lon="-6.6887690">
        <ele>482.5</ele>
        <time>2014-10-02T16:41:30Z</time>
      </trkpt>
      <trkpt lat="42.5656590" lon="-6.6886640">
        <ele>482.6</ele>
        <time>2014-10-02T16:41:31Z</time>
      </trkpt>
      <trkpt lat="42.5656590" lon="-6.6885650">
        <ele>482.6</ele>
        <time>2014-10-02T16:41:32Z</time>
      </trkpt>
      <trkpt lat="42.5656590" lon="-6.6884690">
        <ele>482.7</ele>
        <time>2014-10-02T16:41:33Z</time>
      </trkpt>
      <trkpt lat="42.5656600" lon="-6.6883690">
        <ele>482.7</ele>
        <time>2014-10-02T16:41:34Z</time>
      </trkpt>
      <trkpt lat="42.5656600" lon="-6.6882700">
        <ele>482.7</ele>
        <time>2014-10-02T16:41:35Z</time>
      </trkpt>
      <trkpt lat="42.5656590" lon="-6.6881720">
        <ele>482.8</ele>
        <time>2014-10-02T16:41:36Z</time>
      </trkpt>
      <trkpt lat="42.5656600" lon="-6.6880790">
        <ele>482.8</ele>
        <time>2014-10-02T16:41:37Z</time>
      </trkpt>
      <trkpt lat="42.5656610" lon="-6.6879830">
        <ele>482.8</ele>
        <time>2014-10-02T16:41:38Z</time>
      </trkpt>
      <trkpt lat="42.5656630" lon="-6.6878950">
        <ele>482.8</ele>
        <time>2014-10-02T16:41:39Z</time>
      </trkpt>
      <trkpt lat="42.5656650" lon="-6.6878020">
        <ele>482.9</ele>
        <time>2014-10-02T16:41:40Z</time>
      </trkpt>
      <trkpt lat="42.5656670" lon="-6.6876980">
        <ele>483.0</ele>
        <time>2014-10-02T16:41:41Z</time>
      </trkpt>
      <trkpt lat="42.5656690" lon="-6.6876010">
        <ele>483.0</ele>
        <time>2014-10-02T16:41:42Z</time>
      </trkpt>
      <trkpt lat="42.5656700" lon="-6.6875070">
        <ele>483.1</ele>
        <time>2014-10-02T16:41:43Z</time>
      </trkpt>
      <trkpt lat="42.5656690" lon="-6.6874130">
        <ele>483.2</ele>
        <time>2014-10-02T16:41:44Z</time>
      </trkpt>
      <trkpt lat="42.5656700" lon="-6.6873170">
        <ele>483.3</ele>
        <time>2014-10-02T16:41:45Z</time>
      </trkpt>
      <trkpt lat="42.5656710" lon="-6.6872180">
        <ele>483.3</ele>
        <time>2014-10-02T16:41:46Z</time>
      </trkpt>
      <trkpt lat="42.5656690" lon="-6.6871170">
        <ele>483.4</ele>
        <time>2014-10-02T16:41:47Z</time>
      </trkpt>
      <trkpt lat="42.5656670" lon="-6.6870150">
        <ele>483.4</ele>
        <time>2014-10-02T16:41:48Z</time>
      </trkpt>
      <trkpt lat="42.5656630" lon="-6.6869220">
        <ele>483.4</ele>
        <time>2014-10-02T16:41:49Z</time>
      </trkpt>
      <trkpt lat="42.5656600" lon="-6.6868310">
        <ele>483.5</ele>
        <time>2014-10-02T16:41:50Z</time>
      </trkpt>
      <trkpt lat="42.5656570" lon="-6.6867400">
        <ele>483.5</ele>
        <time>2014-10-02T16:41:51Z</time>
      </trkpt>
      <trkpt lat="42.5656540" lon="-6.6866420">
        <ele>483.5</ele>
        <time>2014-10-02T16:41:52Z</time>
      </trkpt>
      <trkpt lat="42.5656520" lon="-6.6865510">
        <ele>483.6</ele>
        <time>2014-10-02T16:41:53Z</time>
      </trkpt>
      <trkpt lat="42.5656490" lon="-6.6864530">
        <ele>483.6</ele>
        <time>2014-10-02T16:41:54Z</time>
      </trkpt>
      <trkpt lat="42.5656470" lon="-6.6863550">
        <ele>483.7</ele>
        <time>2014-10-02T16:41:55Z</time>
      </trkpt>
      <trkpt lat="42.5656450" lon="-6.6862530">
        <ele>483.7</ele>
        <time>2014-10-02T16:41:56Z</time>
      </trkpt>
      <trkpt lat="42.5656440" lon="-6.6861530">
        <ele>483.8</ele>
        <time>2014-10-02T16:41:57Z</time>
      </trkpt>
      <trkpt lat="42.5656420" lon="-6.6860530">
        <ele>483.8</ele>
        <time>2014-10-02T16:41:58Z</time>
      </trkpt>
      <trkpt lat="42.5656410" lon="-6.6859520">
        <ele>483.8</ele>
        <time>2014-10-02T16:41:59Z</time>
      </trkpt>
      <trkpt lat="42.5656390" lon="-6.6858580">
        <ele>483.9</ele>
        <time>2014-10-02T16:42:00Z</time>
      </trkpt>
      <trkpt lat="42.5656360" lon="-6.6857620">
        <ele>484.0</ele>
        <time>2014-10-02T16:42:01Z</time>
      </trkpt>
      <trkpt lat="42.5656340" lon="-6.6856600">
        <ele>484.1</ele>
        <time>2014-10-02T16:42:02Z</time>
      </trkpt>
      <trkpt lat="42.5656310" lon="-6.6855660">
        <ele>484.1</ele>
        <time>2014-10-02T16:42:03Z</time>
      </trkpt>
      <trkpt lat="42.5656290" lon="-6.6854680">
        <ele>484.2</ele>
        <time>2014-10-02T16:42:04Z</time>
      </trkpt>
      <trkpt lat="42.5656270" lon="-6.6853680">
        <ele>484.3</ele>
        <time>2014-10-02T16:42:05Z</time>
      </trkpt>
      <trkpt lat="42.5656250" lon="-6.6852720">
        <ele>484.4</ele>
        <time>2014-10-02T16:42:06Z</time>
      </trkpt>
      <trkpt lat="42.5656210" lon="-6.6851790">
        <ele>484.5</ele>
        <time>2014-10-02T16:42:07Z</time>
      </trkpt>
      <trkpt lat="42.5656180" lon="-6.6850820">
        <ele>484.6</ele>
        <time>2014-10-02T16:42:08Z</time>
      </trkpt>
      <trkpt lat="42.5656150" lon="-6.6849860">
        <ele>484.6</ele>
        <time>2014-10-02T16:42:09Z</time>
      </trkpt>
      <trkpt lat="42.5656130" lon="-6.6848930">
        <ele>484.7</ele>
        <time>2014-10-02T16:42:10Z</time>
      </trkpt>
      <trkpt lat="42.5656120" lon="-6.6847950">
        <ele>484.7</ele>
        <time>2014-10-02T16:42:11Z</time>
      </trkpt>
      <trkpt lat="42.5656110" lon="-6.6847010">
        <ele>484.8</ele>
        <time>2014-10-02T16:42:12Z</time>
      </trkpt>
      <trkpt lat="42.5656090" lon="-6.6846120">
        <ele>484.8</ele>
        <time>2014-10-02T16:42:13Z</time>
      </trkpt>
      <trkpt lat="42.5656060" lon="-6.6845180">
        <ele>484.9</ele>
        <time>2014-10-02T16:42:14Z</time>
      </trkpt>
      <trkpt lat="42.5656030" lon="-6.6844240">
        <ele>484.9</ele>
        <time>2014-10-02T16:42:15Z</time>
      </trkpt>
      <trkpt lat="42.5655990" lon="-6.6843250">
        <ele>485.0</ele>
        <time>2014-10-02T16:42:16Z</time>
      </trkpt>
      <trkpt lat="42.5655940" lon="-6.6842240">
        <ele>485.0</ele>
        <time>2014-10-02T16:42:17Z</time>
      </trkpt>
      <trkpt lat="42.5655900" lon="-6.6841240">
        <ele>485.1</ele>
        <time>2014-10-02T16:42:18Z</time>
      </trkpt>
      <trkpt lat="42.5655870" lon="-6.6840270">
        <ele>485.2</ele>
        <time>2014-10-02T16:42:19Z</time>
      </trkpt>
      <trkpt lat="42.5655850" lon="-6.6839320">
        <ele>485.3</ele>
        <time>2014-10-02T16:42:20Z</time>
      </trkpt>
      <trkpt lat="42.5655800" lon="-6.6838310">
        <ele>485.4</ele>
        <time>2014-10-02T16:42:21Z</time>
      </trkpt>
      <trkpt lat="42.5655740" lon="-6.6837310">
        <ele>485.4</ele>
        <time>2014-10-02T16:42:22Z</time>
      </trkpt>
      <trkpt lat="42.5655700" lon="-6.6836400">
        <ele>485.5</ele>
        <time>2014-10-02T16:42:23Z</time>
      </trkpt>
      <trkpt lat="42.5655660" lon="-6.6835490">
        <ele>485.5</ele>
        <time>2014-10-02T16:42:24Z</time>
      </trkpt>
      <trkpt lat="42.5655610" lon="-6.6834510">
        <ele>485.5</ele>
        <time>2014-10-02T16:42:25Z</time>
      </trkpt>
      <trkpt lat="42.5655560" lon="-6.6833670">
        <ele>485.6</ele>
        <time>2014-10-02T16:42:26Z</time>
      </trkpt>
      <trkpt lat="42.5655470" lon="-6.6832650">
        <ele>485.6</ele>
        <time>2014-10-02T16:42:27Z</time>
      </trkpt>
      <trkpt lat="42.5655390" lon="-6.6831660">
        <ele>485.6</ele>
        <time>2014-10-02T16:42:28Z</time>
      </trkpt>
      <trkpt lat="42.5655310" lon="-6.6830760">
        <ele>485.6</ele>
        <time>2014-10-02T16:42:29Z</time>
      </trkpt>
      <trkpt lat="42.5655250" lon="-6.6829820">
        <ele>485.7</ele>
        <time>2014-10-02T16:42:30Z</time>
      </trkpt>
      <trkpt lat="42.5655210" lon="-6.6828870">
        <ele>485.7</ele>
        <time>2014-10-02T16:42:31Z</time>
      </trkpt>
      <trkpt lat="42.5655140" lon="-6.6827890">
        <ele>485.8</ele>
        <time>2014-10-02T16:42:32Z</time>
      </trkpt>
      <trkpt lat="42.5655070" lon="-6.6826840">
        <ele>485.9</ele>
        <time>2014-10-02T16:42:33Z</time>
      </trkpt>
      <trkpt lat="42.5655000" lon="-6.6825910">
        <ele>486.0</ele>
        <time>2014-10-02T16:42:34Z</time>
      </trkpt>
      <trkpt lat="42.5654920" lon="-6.6824970">
        <ele>486.0</ele>
        <time>2014-10-02T16:42:35Z</time>
      </trkpt>
      <trkpt lat="42.5654850" lon="-6.6824120">
        <ele>486.1</ele>
        <time>2014-10-02T16:42:36Z</time>
      </trkpt>
      <trkpt lat="42.5654780" lon="-6.6823160">
        <ele>486.1</ele>
        <time>2014-10-02T16:42:37Z</time>
      </trkpt>
      <trkpt lat="42.5654710" lon="-6.6822220">
        <ele>486.2</ele>
        <time>2014-10-02T16:42:38Z</time>
      </trkpt>
      <trkpt lat="42.5654630" lon="-6.6821270">
        <ele>486.2</ele>
        <time>2014-10-02T16:42:39Z</time>
      </trkpt>
      <trkpt lat="42.5654550" lon="-6.6820340">
        <ele>486.2</ele>
        <time>2014-10-02T16:42:40Z</time>
      </trkpt>
      <trkpt lat="42.5654450" lon="-6.6819420">
        <ele>486.3</ele>
        <time>2014-10-02T16:42:41Z</time>
      </trkpt>
      <trkpt lat="42.5654370" lon="-6.6818500">
        <ele>486.3</ele>
        <time>2014-10-02T16:42:42Z</time>
      </trkpt>
      <trkpt lat="42.5654300" lon="-6.6817580">
        <ele>486.4</ele>
        <time>2014-10-02T16:42:43Z</time>
      </trkpt>
      <trkpt lat="42.5654230" lon="-6.6816620">
        <ele>486.5</ele>
        <time>2014-10-02T16:42:44Z</time>
      </trkpt>
      <trkpt lat="42.5654170" lon="-6.6815830">
        <ele>486.5</ele>
        <time>2014-10-02T16:42:45Z</time>
      </trkpt>
      <trkpt lat="42.5654100" lon="-6.6814990">
        <ele>486.6</ele>
        <time>2014-10-02T16:42:46Z</time>
      </trkpt>
      <trkpt lat="42.5654020" lon="-6.6814140">
        <ele>486.6</ele>
        <time>2014-10-02T16:42:47Z</time>
      </trkpt>
      <trkpt lat="42.5653950" lon="-6.6813220">
        <ele>486.7</ele>
        <time>2014-10-02T16:42:48Z</time>
      </trkpt>
      <trkpt lat="42.5653870" lon="-6.6812280">
        <ele>486.7</ele>
        <time>2014-10-02T16:42:49Z</time>
      </trkpt>
      <trkpt lat="42.5653790" lon="-6.6811340">
        <ele>486.7</ele>
        <time>2014-10-02T16:42:50Z</time>
      </trkpt>
      <trkpt lat="42.5653720" lon="-6.6810460">
        <ele>486.8</ele>
        <time>2014-10-02T16:42:51Z</time>
      </trkpt>
      <trkpt lat="42.5653650" lon="-6.6809550">
        <ele>486.8</ele>
        <time>2014-10-02T16:42:52Z</time>
      </trkpt>
      <trkpt lat="42.5653570" lon="-6.6808540">
        <ele>486.8</ele>
        <time>2014-10-02T16:42:53Z</time>
      </trkpt>
      <trkpt lat="42.5653500" lon="-6.6807620">
        <ele>486.8</ele>
        <time>2014-10-02T16:42:54Z</time>
      </trkpt>
      <trkpt lat="42.5653430" lon="-6.6806630">
        <ele>486.9</ele>
        <time>2014-10-02T16:42:55Z</time>
      </trkpt>
      <trkpt lat="42.5653370" lon="-6.6805680">
        <ele>486.9</ele>
        <time>2014-10-02T16:42:56Z</time>
      </trkpt>
      <trkpt lat="42.5653310" lon="-6.6804750">
        <ele>487.0</ele>
        <time>2014-10-02T16:42:57Z</time>
      </trkpt>
      <trkpt lat="42.5653250" lon="-6.6803850">
        <ele>487.1</ele>
        <time>2014-10-02T16:42:58Z</time>
      </trkpt>
      <trkpt lat="42.5653180" lon="-6.6803040">
        <ele>487.1</ele>
        <time>2014-10-02T16:42:59Z</time>
      </trkpt>
      <trkpt lat="42.5653120" lon="-6.6802190">
        <ele>487.2</ele>
        <time>2014-10-02T16:43:00Z</time>
      </trkpt>
      <trkpt lat="42.5653060" lon="-6.6801290">
        <ele>487.3</ele>
        <time>2014-10-02T16:43:01Z</time>
      </trkpt>
      <trkpt lat="42.5653010" lon="-6.6800330">
        <ele>487.4</ele>
        <time>2014-10-02T16:43:02Z</time>
      </trkpt>
      <trkpt lat="42.5652970" lon="-6.6799380">
        <ele>487.5</ele>
        <time>2014-10-02T16:43:03Z</time>
      </trkpt>
      <trkpt lat="42.5652930" lon="-6.6798460">
        <ele>487.6</ele>
        <time>2014-10-02T16:43:04Z</time>
      </trkpt>
      <trkpt lat="42.5652880" lon="-6.6797430">
        <ele>487.5</ele>
        <time>2014-10-02T16:43:05Z</time>
      </trkpt>
      <trkpt lat="42.5652830" lon="-6.6796420">
        <ele>487.5</ele>
        <time>2014-10-02T16:43:06Z</time>
      </trkpt>
      <trkpt lat="42.5652780" lon="-6.6795460">
        <ele>487.5</ele>
        <time>2014-10-02T16:43:07Z</time>
      </trkpt>
      <trkpt lat="42.5652730" lon="-6.6794520">
        <ele>487.5</ele>
        <time>2014-10-02T16:43:08Z</time>
      </trkpt>
      <trkpt lat="42.5652680" lon="-6.6793540">
        <ele>487.5</ele>
        <time>2014-10-02T16:43:09Z</time>
      </trkpt>
      <trkpt lat="42.5652630" lon="-6.6792630">
        <ele>487.5</ele>
        <time>2014-10-02T16:43:10Z</time>
      </trkpt>
      <trkpt lat="42.5652580" lon="-6.6791740">
        <ele>487.6</ele>
        <time>2014-10-02T16:43:11Z</time>
      </trkpt>
      <trkpt lat="42.5652520" lon="-6.6790870">
        <ele>487.6</ele>
        <time>2014-10-02T16:43:12Z</time>
      </trkpt>
      <trkpt lat="42.5652460" lon="-6.6789980">
        <ele>487.7</ele>
        <time>2014-10-02T16:43:13Z</time>
      </trkpt>
      <trkpt lat="42.5652400" lon="-6.6788980">
        <ele>487.7</ele>
        <time>2014-10-02T16:43:14Z</time>
      </trkpt>
      <trkpt lat="42.5652340" lon="-6.6788030">
        <ele>487.8</ele>
        <time>2014-10-02T16:43:15Z</time>
      </trkpt>
      <trkpt lat="42.5652280" lon="-6.6787120">
        <ele>487.9</ele>
        <time>2014-10-02T16:43:16Z</time>
      </trkpt>
      <trkpt lat="42.5652230" lon="-6.6786130">
        <ele>488.0</ele>
        <time>2014-10-02T16:43:17Z</time>
      </trkpt>
      <trkpt lat="42.5652170" lon="-6.6785210">
        <ele>488.0</ele>
        <time>2014-10-02T16:43:18Z</time>
      </trkpt>
      <trkpt lat="42.5652100" lon="-6.6784260">
        <ele>488.0</ele>
        <time>2014-10-02T16:43:19Z</time>
      </trkpt>
      <trkpt lat="42.5652060" lon="-6.6783300">
        <ele>488.0</ele>
        <time>2014-10-02T16:43:20Z</time>
      </trkpt>
      <trkpt lat="42.5652030" lon="-6.6782300">
        <ele>488.0</ele>
        <time>2014-10-02T16:43:21Z</time>
      </trkpt>
      <trkpt lat="42.5652000" lon="-6.6781380">
        <ele>488.1</ele>
        <time>2014-10-02T16:43:22Z</time>
      </trkpt>
      <trkpt lat="42.5651990" lon="-6.6780500">
        <ele>488.1</ele>
        <time>2014-10-02T16:43:23Z</time>
      </trkpt>
      <trkpt lat="42.5651980" lon="-6.6779570">
        <ele>488.1</ele>
        <time>2014-10-02T16:43:24Z</time>
      </trkpt>
      <trkpt lat="42.5651960" lon="-6.6778600">
        <ele>488.2</ele>
        <time>2014-10-02T16:43:25Z</time>
      </trkpt>
      <trkpt lat="42.5651940" lon="-6.6777690">
        <ele>488.2</ele>
        <time>2014-10-02T16:43:26Z</time>
      </trkpt>
      <trkpt lat="42.5651910" lon="-6.6776770">
        <ele>488.3</ele>
        <time>2014-10-02T16:43:27Z</time>
      </trkpt>
      <trkpt lat="42.5651890" lon="-6.6775850">
        <ele>488.3</ele>
        <time>2014-10-02T16:43:28Z</time>
      </trkpt>
      <trkpt lat="42.5651860" lon="-6.6774890">
        <ele>488.4</ele>
        <time>2014-10-02T16:43:29Z</time>
      </trkpt>
      <trkpt lat="42.5651830" lon="-6.6773950">
        <ele>488.4</ele>
        <time>2014-10-02T16:43:30Z</time>
      </trkpt>
      <trkpt lat="42.5651790" lon="-6.6773020">
        <ele>488.4</ele>
        <time>2014-10-02T16:43:31Z</time>
      </trkpt>
      <trkpt lat="42.5651750" lon="-6.6772030">
        <ele>488.5</ele>
        <time>2014-10-02T16:43:32Z</time>
      </trkpt>
      <trkpt lat="42.5651710" lon="-6.6771100">
        <ele>488.5</ele>
        <time>2014-10-02T16:43:33Z</time>
      </trkpt>
      <trkpt lat="42.5651660" lon="-6.6770130">
        <ele>488.6</ele>
        <time>2014-10-02T16:43:34Z</time>
      </trkpt>
      <trkpt lat="42.5651650" lon="-6.6769220">
        <ele>488.7</ele>
        <time>2014-10-02T16:43:35Z</time>
      </trkpt>
      <trkpt lat="42.5651650" lon="-6.6768360">
        <ele>488.7</ele>
        <time>2014-10-02T16:43:36Z</time>
      </trkpt>
      <trkpt lat="42.5651630" lon="-6.6767370">
        <ele>488.8</ele>
        <time>2014-10-02T16:43:37Z</time>
      </trkpt>
      <trkpt lat="42.5651610" lon="-6.6766480">
        <ele>488.8</ele>
        <time>2014-10-02T16:43:38Z</time>
      </trkpt>
      <trkpt lat="42.5651610" lon="-6.6765560">
        <ele>488.9</ele>
        <time>2014-10-02T16:43:39Z</time>
      </trkpt>
      <trkpt lat="42.5651610" lon="-6.6764630">
        <ele>488.9</ele>
        <time>2014-10-02T16:43:40Z</time>
      </trkpt>
      <trkpt lat="42.5651620" lon="-6.6763660">
        <ele>488.9</ele>
        <time>2014-10-02T16:43:41Z</time>
      </trkpt>
      <trkpt lat="42.5651620" lon="-6.6762690">
        <ele>488.9</ele>
        <time>2014-10-02T16:43:42Z</time>
      </trkpt>
      <trkpt lat="42.5651600" lon="-6.6761700">
        <ele>489.0</ele>
        <time>2014-10-02T16:43:43Z</time>
      </trkpt>
      <trkpt lat="42.5651590" lon="-6.6760740">
        <ele>489.0</ele>
        <time>2014-10-02T16:43:44Z</time>
      </trkpt>
      <trkpt lat="42.5651580" lon="-6.6759730">
        <ele>489.0</ele>
        <time>2014-10-02T16:43:45Z</time>
      </trkpt>
      <trkpt lat="42.5651560" lon="-6.6758670">
        <ele>489.1</ele>
        <time>2014-10-02T16:43:46Z</time>
      </trkpt>
      <trkpt lat="42.5651540" lon="-6.6757650">
        <ele>489.1</ele>
        <time>2014-10-02T16:43:47Z</time>
      </trkpt>
      <trkpt lat="42.5651520" lon="-6.6756750">
        <ele>489.2</ele>
        <time>2014-10-02T16:43:48Z</time>
      </trkpt>
      <trkpt lat="42.5651510" lon="-6.6755830">
        <ele>489.2</ele>
        <time>2014-10-02T16:43:49Z</time>
      </trkpt>
      <trkpt lat="42.5651520" lon="-6.6754930">
        <ele>489.2</ele>
        <time>2014-10-02T16:43:50Z</time>
      </trkpt>
      <trkpt lat="42.5651550" lon="-6.6753940">
        <ele>489.2</ele>
        <time>2014-10-02T16:43:51Z</time>
      </trkpt>
      <trkpt lat="42.5651550" lon="-6.6753040">
        <ele>489.3</ele>
        <time>2014-10-02T16:43:52Z</time>
      </trkpt>
      <trkpt lat="42.5651540" lon="-6.6752160">
        <ele>489.3</ele>
        <time>2014-10-02T16:43:53Z</time>
      </trkpt>
      <trkpt lat="42.5651540" lon="-6.6751240">
        <ele>489.3</ele>
        <time>2014-10-02T16:43:54Z</time>
      </trkpt>
      <trkpt lat="42.5651530" lon="-6.6750300">
        <ele>489.4</ele>
        <time>2014-10-02T16:43:55Z</time>
      </trkpt>
      <trkpt lat="42.5651520" lon="-6.6749300">
        <ele>489.4</ele>
        <time>2014-10-02T16:43:56Z</time>
      </trkpt>
      <trkpt lat="42.5651520" lon="-6.6748380">
        <ele>489.4</ele>
        <time>2014-10-02T16:43:57Z</time>
      </trkpt>
      <trkpt lat="42.5651520" lon="-6.6747400">
        <ele>489.4</ele>
        <time>2014-10-02T16:43:58Z</time>
      </trkpt>
      <trkpt lat="42.5651520" lon="-6.6746500">
        <ele>489.5</ele>
        <time>2014-10-02T16:43:59Z</time>
      </trkpt>
      <trkpt lat="42.5651520" lon="-6.6745570">
        <ele>489.4</ele>
        <time>2014-10-02T16:44:00Z</time>
      </trkpt>
      <trkpt lat="42.5651490" lon="-6.6744570">
        <ele>489.4</ele>
        <time>2014-10-02T16:44:01Z</time>
      </trkpt>
      <trkpt lat="42.5651470" lon="-6.6743640">
        <ele>489.5</ele>
        <time>2014-10-02T16:44:02Z</time>
      </trkpt>
      <trkpt lat="42.5651450" lon="-6.6742640">
        <ele>489.5</ele>
        <time>2014-10-02T16:44:03Z</time>
      </trkpt>
      <trkpt lat="42.5651440" lon="-6.6741670">
        <ele>489.5</ele>
        <time>2014-10-02T16:44:04Z</time>
      </trkpt>
      <trkpt lat="42.5651450" lon="-6.6740680">
        <ele>489.6</ele>
        <time>2014-10-02T16:44:05Z</time>
      </trkpt>
      <trkpt lat="42.5651460" lon="-6.6739690">
        <ele>489.6</ele>
        <time>2014-10-02T16:44:06Z</time>
      </trkpt>
      <trkpt lat="42.5651460" lon="-6.6738760">
        <ele>489.6</ele>
        <time>2014-10-02T16:44:07Z</time>
      </trkpt>
      <trkpt lat="42.5651470" lon="-6.6737820">
        <ele>489.7</ele>
        <time>2014-10-02T16:44:08Z</time>
      </trkpt>
      <trkpt lat="42.5651480" lon="-6.6736910">
        <ele>489.7</ele>
        <time>2014-10-02T16:44:09Z</time>
      </trkpt>
      <trkpt lat="42.5651470" lon="-6.6735880">
        <ele>489.8</ele>
        <time>2014-10-02T16:44:10Z</time>
      </trkpt>
      <trkpt lat="42.5651460" lon="-6.6734890">
        <ele>489.8</ele>
        <time>2014-10-02T16:44:11Z</time>
      </trkpt>
      <trkpt lat="42.5651440" lon="-6.6733910">
        <ele>489.8</ele>
        <time>2014-10-02T16:44:12Z</time>
      </trkpt>
      <trkpt lat="42.5651450" lon="-6.6733030">
        <ele>489.8</ele>
        <time>2014-10-02T16:44:13Z</time>
      </trkpt>
      <trkpt lat="42.5651450" lon="-6.6732030">
        <ele>489.9</ele>
        <time>2014-10-02T16:44:14Z</time>
      </trkpt>
      <trkpt lat="42.5651470" lon="-6.6731010">
        <ele>489.9</ele>
        <time>2014-10-02T16:44:15Z</time>
      </trkpt>
      <trkpt lat="42.5651480" lon="-6.6729990">
        <ele>489.9</ele>
        <time>2014-10-02T16:44:16Z</time>
      </trkpt>
      <trkpt lat="42.5651490" lon="-6.6728990">
        <ele>490.0</ele>
        <time>2014-10-02T16:44:17Z</time>
      </trkpt>
      <trkpt lat="42.5651500" lon="-6.6727930">
        <ele>490.0</ele>
        <time>2014-10-02T16:44:18Z</time>
      </trkpt>
      <trkpt lat="42.5651530" lon="-6.6726970">
        <ele>490.0</ele>
        <time>2014-10-02T16:44:19Z</time>
      </trkpt>
      <trkpt lat="42.5651540" lon="-6.6725970">
        <ele>490.1</ele>
        <time>2014-10-02T16:44:20Z</time>
      </trkpt>
      <trkpt lat="42.5651580" lon="-6.6725070">
        <ele>490.1</ele>
        <time>2014-10-02T16:44:21Z</time>
      </trkpt>
      <trkpt lat="42.5651620" lon="-6.6724150">
        <ele>490.2</ele>
        <time>2014-10-02T16:44:22Z</time>
      </trkpt>
      <trkpt lat="42.5651660" lon="-6.6723130">
        <ele>490.2</ele>
        <time>2014-10-02T16:44:23Z</time>
      </trkpt>
      <trkpt lat="42.5651690" lon="-6.6722090">
        <ele>490.2</ele>
        <time>2014-10-02T16:44:24Z</time>
      </trkpt>
      <trkpt lat="42.5651720" lon="-6.6721070">
        <ele>490.3</ele>
        <time>2014-10-02T16:44:25Z</time>
      </trkpt>
      <trkpt lat="42.5651750" lon="-6.6720060">
        <ele>490.4</ele>
        <time>2014-10-02T16:44:26Z</time>
      </trkpt>
      <trkpt lat="42.5651790" lon="-6.6719050">
        <ele>490.4</ele>
        <time>2014-10-02T16:44:27Z</time>
      </trkpt>
      <trkpt lat="42.5651830" lon="-6.6718070">
        <ele>490.5</ele>
        <time>2014-10-02T16:44:28Z</time>
      </trkpt>
      <trkpt lat="42.5651890" lon="-6.6717080">
        <ele>490.6</ele>
        <time>2014-10-02T16:44:29Z</time>
      </trkpt>
      <trkpt lat="42.5651950" lon="-6.6716130">
        <ele>490.7</ele>
        <time>2014-10-02T16:44:30Z</time>
      </trkpt>
      <trkpt lat="42.5652000" lon="-6.6715250">
        <ele>490.8</ele>
        <time>2014-10-02T16:44:31Z</time>
      </trkpt>
      <trkpt lat="42.5652060" lon="-6.6714310">
        <ele>490.8</ele>
        <time>2014-10-02T16:44:32Z</time>
      </trkpt>
      <trkpt lat="42.5652110" lon="-6.6713360">
        <ele>490.9</ele>
        <time>2014-10-02T16:44:33Z</time>
      </trkpt>
      <trkpt lat="42.5652180" lon="-6.6712300">
        <ele>490.9</ele>
        <time>2014-10-02T16:44:34Z</time>
      </trkpt>
      <trkpt lat="42.5652230" lon="-6.6711360">
        <ele>490.9</ele>
        <time>2014-10-02T16:44:35Z</time>
      </trkpt>
      <trkpt lat="42.5652280" lon="-6.6710320">
        <ele>491.0</ele>
        <time>2014-10-02T16:44:36Z</time>
      </trkpt>
      <trkpt lat="42.5652310" lon="-6.6709300">
        <ele>491.0</ele>
        <time>2014-10-02T16:44:37Z</time>
      </trkpt>
      <trkpt lat="42.5652350" lon="-6.6708300">
        <ele>491.0</ele>
        <time>2014-10-02T16:44:38Z</time>
      </trkpt>
      <trkpt lat="42.5652370" lon="-6.6707390">
        <ele>491.1</ele>
        <time>2014-10-02T16:44:39Z</time>
      </trkpt>
      <trkpt lat="42.5652390" lon="-6.6706480">
        <ele>491.1</ele>
        <time>2014-10-02T16:44:40Z</time>
      </trkpt>
      <trkpt lat="42.5652430" lon="-6.6705570">
        <ele>491.2</ele>
        <time>2014-10-02T16:44:41Z</time>
      </trkpt>
      <trkpt lat="42.5652460" lon="-6.6704640">
        <ele>491.2</ele>
        <time>2014-10-02T16:44:42Z</time>
      </trkpt>
      <trkpt lat="42.5652500" lon="-6.6703670">
        <ele>491.3</ele>
        <time>2014-10-02T16:44:43Z</time>
      </trkpt>
      <trkpt lat="42.5652540" lon="-6.6702700">
        <ele>491.3</ele>
        <time>2014-10-02T16:44:44Z</time>
      </trkpt>
      <trkpt lat="42.5652590" lon="-6.6701730">
        <ele>491.3</ele>
        <time>2014-10-02T16:44:45Z</time>
      </trkpt>
      <trkpt lat="42.5652630" lon="-6.6700730">
        <ele>491.3</ele>
        <time>2014-10-02T16:44:46Z</time>
      </trkpt>
      <trkpt lat="42.5652680" lon="-6.6699800">
        <ele>491.3</ele>
        <time>2014-10-02T16:44:47Z</time>
      </trkpt>
      <trkpt lat="42.5652730" lon="-6.6698910">
        <ele>491.3</ele>
        <time>2014-10-02T16:44:48Z</time>
      </trkpt>
      <trkpt lat="42.5652770" lon="-6.6697990">
        <ele>491.4</ele>
        <time>2014-10-02T16:44:49Z</time>
      </trkpt>
      <trkpt lat="42.5652820" lon="-6.6697000">
        <ele>491.4</ele>
        <time>2014-10-02T16:44:50Z</time>
      </trkpt>
      <trkpt lat="42.5652860" lon="-6.6696050">
        <ele>491.5</ele>
        <time>2014-10-02T16:44:51Z</time>
      </trkpt>
      <trkpt lat="42.5652900" lon="-6.6695100">
        <ele>491.5</ele>
        <time>2014-10-02T16:44:52Z</time>
      </trkpt>
      <trkpt lat="42.5652930" lon="-6.6694120">
        <ele>491.6</ele>
        <time>2014-10-02T16:44:53Z</time>
      </trkpt>
      <trkpt lat="42.5652970" lon="-6.6693250">
        <ele>491.6</ele>
        <time>2014-10-02T16:44:54Z</time>
      </trkpt>
      <trkpt lat="42.5653020" lon="-6.6692390">
        <ele>491.6</ele>
        <time>2014-10-02T16:44:55Z</time>
      </trkpt>
      <trkpt lat="42.5653070" lon="-6.6691490">
        <ele>491.7</ele>
        <time>2014-10-02T16:44:56Z</time>
      </trkpt>
      <trkpt lat="42.5653100" lon="-6.6690520">
        <ele>491.7</ele>
        <time>2014-10-02T16:44:57Z</time>
      </trkpt>
      <trkpt lat="42.5653140" lon="-6.6689540">
        <ele>491.8</ele>
        <time>2014-10-02T16:44:58Z</time>
      </trkpt>
      <trkpt lat="42.5653190" lon="-6.6688570">
        <ele>491.8</ele>
        <time>2014-10-02T16:44:59Z</time>
      </trkpt>
      <trkpt lat="42.5653240" lon="-6.6687540">
        <ele>491.8</ele>
        <time>2014-10-02T16:45:00Z</time>
      </trkpt>
      <trkpt lat="42.5653290" lon="-6.6686580">
        <ele>491.9</ele>
        <time>2014-10-02T16:45:01Z</time>
      </trkpt>
      <trkpt lat="42.5653330" lon="-6.6685610">
        <ele>491.9</ele>
        <time>2014-10-02T16:45:02Z</time>
      </trkpt>
      <trkpt lat="42.5653370" lon="-6.6684620">
        <ele>492.0</ele>
        <time>2014-10-02T16:45:03Z</time>
      </trkpt>
      <trkpt lat="42.5653420" lon="-6.6683610">
        <ele>492.1</ele>
        <time>2014-10-02T16:45:04Z</time>
      </trkpt>
      <trkpt lat="42.5653490" lon="-6.6682590">
        <ele>492.2</ele>
        <time>2014-10-02T16:45:05Z</time>
      </trkpt>
      <trkpt lat="42.5653570" lon="-6.6681660">
        <ele>492.4</ele>
        <time>2014-10-02T16:45:06Z</time>
      </trkpt>
      <trkpt lat="42.5653650" lon="-6.6680710">
        <ele>492.5</ele>
        <time>2014-10-02T16:45:07Z</time>
      </trkpt>
      <trkpt lat="42.5653710" lon="-6.6679720">
        <ele>492.6</ele>
        <time>2014-10-02T16:45:08Z</time>
      </trkpt>
      <trkpt lat="42.5653810" lon="-6.6678780">
        <ele>492.7</ele>
        <time>2014-10-02T16:45:09Z</time>
      </trkpt>
      <trkpt lat="42.5653900" lon="-6.6677770">
        <ele>492.8</ele>
        <time>2014-10-02T16:45:10Z</time>
      </trkpt>
      <trkpt lat="42.5653980" lon="-6.6676800">
        <ele>492.9</ele>
        <time>2014-10-02T16:45:11Z</time>
      </trkpt>
      <trkpt lat="42.5654050" lon="-6.6675830">
        <ele>493.0</ele>
        <time>2014-10-02T16:45:12Z</time>
      </trkpt>
      <trkpt lat="42.5654110" lon="-6.6674840">
        <ele>493.0</ele>
        <time>2014-10-02T16:45:13Z</time>
      </trkpt>
      <trkpt lat="42.5654190" lon="-6.6673780">
        <ele>493.2</ele>
        <time>2014-10-02T16:45:14Z</time>
      </trkpt>
      <trkpt lat="42.5654270" lon="-6.6672800">
        <ele>493.2</ele>
        <time>2014-10-02T16:45:15Z</time>
      </trkpt>
      <trkpt lat="42.5654340" lon="-6.6671850">
        <ele>493.3</ele>
        <time>2014-10-02T16:45:16Z</time>
      </trkpt>
      <trkpt lat="42.5654410" lon="-6.6670890">
        <ele>493.4</ele>
        <time>2014-10-02T16:45:17Z</time>
      </trkpt>
      <trkpt lat="42.5654490" lon="-6.6669910">
        <ele>493.5</ele>
        <time>2014-10-02T16:45:18Z</time>
      </trkpt>
      <trkpt lat="42.5654590" lon="-6.6668930">
        <ele>493.6</ele>
        <time>2014-10-02T16:45:19Z</time>
      </trkpt>
      <trkpt lat="42.5654670" lon="-6.6667900">
        <ele>493.7</ele>
        <time>2014-10-02T16:45:20Z</time>
      </trkpt>
      <trkpt lat="42.5654730" lon="-6.6666870">
        <ele>493.8</ele>
        <time>2014-10-02T16:45:21Z</time>
      </trkpt>
      <trkpt lat="42.5654800" lon="-6.6665900">
        <ele>493.9</ele>
        <time>2014-10-02T16:45:22Z</time>
      </trkpt>
      <trkpt lat="42.5654860" lon="-6.6665020">
        <ele>494.0</ele>
        <time>2014-10-02T16:45:23Z</time>
      </trkpt>
      <trkpt lat="42.5654910" lon="-6.6664060">
        <ele>493.9</ele>
        <time>2014-10-02T16:45:24Z</time>
      </trkpt>
      <trkpt lat="42.5654960" lon="-6.6663120">
        <ele>493.9</ele>
        <time>2014-10-02T16:45:25Z</time>
      </trkpt>
      <trkpt lat="42.5655020" lon="-6.6662210">
        <ele>493.9</ele>
        <time>2014-10-02T16:45:26Z</time>
      </trkpt>
      <trkpt lat="42.5655080" lon="-6.6661270">
        <ele>493.9</ele>
        <time>2014-10-02T16:45:27Z</time>
      </trkpt>
      <trkpt lat="42.5655140" lon="-6.6660360">
        <ele>493.9</ele>
        <time>2014-10-02T16:45:28Z</time>
      </trkpt>
      <trkpt lat="42.5655230" lon="-6.6659420">
        <ele>493.9</ele>
        <time>2014-10-02T16:45:29Z</time>
      </trkpt>
      <trkpt lat="42.5655320" lon="-6.6658500">
        <ele>494.0</ele>
        <time>2014-10-02T16:45:30Z</time>
      </trkpt>
      <trkpt lat="42.5655400" lon="-6.6657550">
        <ele>494.0</ele>
        <time>2014-10-02T16:45:31Z</time>
      </trkpt>
      <trkpt lat="42.5655480" lon="-6.6656560">
        <ele>494.0</ele>
        <time>2014-10-02T16:45:32Z</time>
      </trkpt>
      <trkpt lat="42.5655550" lon="-6.6655650">
        <ele>494.0</ele>
        <time>2014-10-02T16:45:33Z</time>
      </trkpt>
      <trkpt lat="42.5655610" lon="-6.6654700">
        <ele>494.0</ele>
        <time>2014-10-02T16:45:34Z</time>
      </trkpt>
      <trkpt lat="42.5655660" lon="-6.6653770">
        <ele>494.0</ele>
        <time>2014-10-02T16:45:35Z</time>
      </trkpt>
      <trkpt lat="42.5655710" lon="-6.6652830">
        <ele>494.0</ele>
        <time>2014-10-02T16:45:36Z</time>
      </trkpt>
      <trkpt lat="42.5655780" lon="-6.6651900">
        <ele>494.0</ele>
        <time>2014-10-02T16:45:37Z</time>
      </trkpt>
      <trkpt lat="42.5655860" lon="-6.6650920">
        <ele>494.0</ele>
        <time>2014-10-02T16:45:38Z</time>
      </trkpt>
      <trkpt lat="42.5655940" lon="-6.6649960">
        <ele>494.0</ele>
        <time>2014-10-02T16:45:39Z</time>
      </trkpt>
      <trkpt lat="42.5656030" lon="-6.6648950">
        <ele>494.0</ele>
        <time>2014-10-02T16:45:40Z</time>
      </trkpt>
      <trkpt lat="42.5656120" lon="-6.6647960">
        <ele>494.0</ele>
        <time>2014-10-02T16:45:41Z</time>
      </trkpt>
      <trkpt lat="42.5656210" lon="-6.6646980">
        <ele>494.0</ele>
        <time>2014-10-02T16:45:42Z</time>
      </trkpt>
      <trkpt lat="42.5656300" lon="-6.6646010">
        <ele>494.0</ele>
        <time>2014-10-02T16:45:43Z</time>
      </trkpt>
      <trkpt lat="42.5656370" lon="-6.6645040">
        <ele>494.0</ele>
        <time>2014-10-02T16:45:44Z</time>
      </trkpt>
      <trkpt lat="42.5656460" lon="-6.6644010">
        <ele>494.0</ele>
        <time>2014-10-02T16:45:45Z</time>
      </trkpt>
      <trkpt lat="42.5656560" lon="-6.6642960">
        <ele>494.0</ele>
        <time>2014-10-02T16:45:46Z</time>
      </trkpt>
      <trkpt lat="42.5656650" lon="-6.6642020">
        <ele>494.0</ele>
        <time>2014-10-02T16:45:47Z</time>
      </trkpt>
      <trkpt lat="42.5656730" lon="-6.6641070">
        <ele>494.0</ele>
        <time>2014-10-02T16:45:48Z</time>
      </trkpt>
      <trkpt lat="42.5656820" lon="-6.6640060">
        <ele>494.0</ele>
        <time>2014-10-02T16:45:49Z</time>
      </trkpt>
      <trkpt lat="42.5656910" lon="-6.6639070">
        <ele>494.1</ele>
        <time>2014-10-02T16:45:50Z</time>
      </trkpt>
      <trkpt lat="42.5657000" lon="-6.6638020">
        <ele>494.1</ele>
        <time>2014-10-02T16:45:51Z</time>
      </trkpt>
      <trkpt lat="42.5657080" lon="-6.6637000">
        <ele>494.1</ele>
        <time>2014-10-02T16:45:52Z</time>
      </trkpt>
      <trkpt lat="42.5657160" lon="-6.6635990">
        <ele>494.1</ele>
        <time>2014-10-02T16:45:53Z</time>
      </trkpt>
      <trkpt lat="42.5657240" lon="-6.6634990">
        <ele>494.1</ele>
        <time>2014-10-02T16:45:54Z</time>
      </trkpt>
      <trkpt lat="42.5657320" lon="-6.6634060">
        <ele>494.1</ele>
        <time>2014-10-02T16:45:55Z</time>
      </trkpt>
      <trkpt lat="42.5657380" lon="-6.6633080">
        <ele>494.1</ele>
        <time>2014-10-02T16:45:56Z</time>
      </trkpt>
      <trkpt lat="42.5657460" lon="-6.6632110">
        <ele>494.1</ele>
        <time>2014-10-02T16:45:57Z</time>
      </trkpt>
      <trkpt lat="42.5657530" lon="-6.6631170">
        <ele>494.1</ele>
        <time>2014-10-02T16:45:58Z</time>
      </trkpt>
      <trkpt lat="42.5657610" lon="-6.6630260">
        <ele>494.1</ele>
        <time>2014-10-02T16:45:59Z</time>
      </trkpt>
      <trkpt lat="42.5657680" lon="-6.6629310">
        <ele>494.1</ele>
        <time>2014-10-02T16:46:00Z</time>
      </trkpt>
      <trkpt lat="42.5657760" lon="-6.6628310">
        <ele>494.1</ele>
        <time>2014-10-02T16:46:01Z</time>
      </trkpt>
      <trkpt lat="42.5657810" lon="-6.6627320">
        <ele>494.1</ele>
        <time>2014-10-02T16:46:02Z</time>
      </trkpt>
      <trkpt lat="42.5657870" lon="-6.6626300">
        <ele>494.1</ele>
        <time>2014-10-02T16:46:03Z</time>
      </trkpt>
      <trkpt lat="42.5657930" lon="-6.6625360">
        <ele>494.1</ele>
        <time>2014-10-02T16:46:04Z</time>
      </trkpt>
      <trkpt lat="42.5657990" lon="-6.6624360">
        <ele>494.1</ele>
        <time>2014-10-02T16:46:05Z</time>
      </trkpt>
      <trkpt lat="42.5658070" lon="-6.6623390">
        <ele>494.1</ele>
        <time>2014-10-02T16:46:06Z</time>
      </trkpt>
      <trkpt lat="42.5658140" lon="-6.6622490">
        <ele>494.1</ele>
        <time>2014-10-02T16:46:07Z</time>
      </trkpt>
      <trkpt lat="42.5658210" lon="-6.6621500">
        <ele>494.1</ele>
        <time>2014-10-02T16:46:08Z</time>
      </trkpt>
      <trkpt lat="42.5658280" lon="-6.6620470">
        <ele>494.1</ele>
        <time>2014-10-02T16:46:09Z</time>
      </trkpt>
      <trkpt lat="42.5658340" lon="-6.6619490">
        <ele>494.1</ele>
        <time>2014-10-02T16:46:10Z</time>
      </trkpt>
      <trkpt lat="42.5658400" lon="-6.6618460">
        <ele>494.1</ele>
        <time>2014-10-02T16:46:11Z</time>
      </trkpt>
      <trkpt lat="42.5658460" lon="-6.6617410">
        <ele>494.1</ele>
        <time>2014-10-02T16:46:12Z</time>
      </trkpt>
      <trkpt lat="42.5658510" lon="-6.6616450">
        <ele>494.1</ele>
        <time>2014-10-02T16:46:13Z</time>
      </trkpt>
      <trkpt lat="42.5658570" lon="-6.6615430">
        <ele>494.4</ele>
        <time>2014-10-02T16:46:14Z</time>
      </trkpt>
      <trkpt lat="42.5658630" lon="-6.6614360">
        <ele>494.9</ele>
        <time>2014-10-02T16:46:15Z</time>
      </trkpt>
      <trkpt lat="42.5658680" lon="-6.6613350">
        <ele>495.3</ele>
        <time>2014-10-02T16:46:16Z</time>
      </trkpt>
      <trkpt lat="42.5658740" lon="-6.6612330">
        <ele>495.8</ele>
        <time>2014-10-02T16:46:17Z</time>
      </trkpt>
      <trkpt lat="42.5658800" lon="-6.6611270">
        <ele>496.3</ele>
        <time>2014-10-02T16:46:18Z</time>
      </trkpt>
      <trkpt lat="42.5658850" lon="-6.6610260">
        <ele>496.6</ele>
        <time>2014-10-02T16:46:19Z</time>
      </trkpt>
      <trkpt lat="42.5658900" lon="-6.6609310">
        <ele>496.8</ele>
        <time>2014-10-02T16:46:20Z</time>
      </trkpt>
      <trkpt lat="42.5658930" lon="-6.6608360">
        <ele>497.0</ele>
        <time>2014-10-02T16:46:21Z</time>
      </trkpt>
      <trkpt lat="42.5658970" lon="-6.6607380">
        <ele>497.2</ele>
        <time>2014-10-02T16:46:22Z</time>
      </trkpt>
      <trkpt lat="42.5659000" lon="-6.6606410">
        <ele>497.0</ele>
        <time>2014-10-02T16:46:23Z</time>
      </trkpt>
      <trkpt lat="42.5659030" lon="-6.6605420">
        <ele>495.0</ele>
        <time>2014-10-02T16:46:24Z</time>
      </trkpt>
      <trkpt lat="42.5659040" lon="-6.6604420">
        <ele>495.0</ele>
        <time>2014-10-02T16:46:25Z</time>
      </trkpt>
      <trkpt lat="42.5659050" lon="-6.6603500">
        <ele>495.0</ele>
        <time>2014-10-02T16:46:26Z</time>
      </trkpt>
      <trkpt lat="42.5659070" lon="-6.6602520">
        <ele>495.1</ele>
        <time>2014-10-02T16:46:27Z</time>
      </trkpt>
      <trkpt lat="42.5659100" lon="-6.6601540">
        <ele>495.1</ele>
        <time>2014-10-02T16:46:28Z</time>
      </trkpt>
      <trkpt lat="42.5659150" lon="-6.6600570">
        <ele>495.2</ele>
        <time>2014-10-02T16:46:29Z</time>
      </trkpt>
      <trkpt lat="42.5659180" lon="-6.6599700">
        <ele>495.3</ele>
        <time>2014-10-02T16:46:30Z</time>
      </trkpt>
      <trkpt lat="42.5659220" lon="-6.6598740">
        <ele>495.3</ele>
        <time>2014-10-02T16:46:31Z</time>
      </trkpt>
      <trkpt lat="42.5659250" lon="-6.6597820">
        <ele>495.4</ele>
        <time>2014-10-02T16:46:32Z</time>
      </trkpt>
      <trkpt lat="42.5659280" lon="-6.6596810">
        <ele>495.4</ele>
        <time>2014-10-02T16:46:33Z</time>
      </trkpt>
      <trkpt lat="42.5659330" lon="-6.6595850">
        <ele>495.4</ele>
        <time>2014-10-02T16:46:34Z</time>
      </trkpt>
      <trkpt lat="42.5659380" lon="-6.6594880">
        <ele>495.4</ele>
        <time>2014-10-02T16:46:35Z</time>
      </trkpt>
      <trkpt lat="42.5659410" lon="-6.6593930">
        <ele>495.4</ele>
        <time>2014-10-02T16:46:36Z</time>
      </trkpt>
      <trkpt lat="42.5659430" lon="-6.6592990">
        <ele>495.5</ele>
        <time>2014-10-02T16:46:37Z</time>
      </trkpt>
      <trkpt lat="42.5659390" lon="-6.6592050">
        <ele>495.6</ele>
        <time>2014-10-02T16:46:38Z</time>
      </trkpt>
      <trkpt lat="42.5659140" lon="-6.6591110">
        <ele>495.8</ele>
        <time>2014-10-02T16:46:39Z</time>
      </trkpt>
      <trkpt lat="42.5658840" lon="-6.6590150">
        <ele>496.1</ele>
        <time>2014-10-02T16:46:40Z</time>
      </trkpt>
      <trkpt lat="42.5658510" lon="-6.6589220">
        <ele>496.3</ele>
        <time>2014-10-02T16:46:41Z</time>
      </trkpt>
      <trkpt lat="42.5658160" lon="-6.6588310">
        <ele>496.3</ele>
        <time>2014-10-02T16:46:42Z</time>
      </trkpt>
      <trkpt lat="42.5657860" lon="-6.6587460">
        <ele>496.5</ele>
        <time>2014-10-02T16:46:43Z</time>
      </trkpt>
      <trkpt lat="42.5657810" lon="-6.6586660">
        <ele>496.5</ele>
        <time>2014-10-02T16:46:44Z</time>
      </trkpt>
      <trkpt lat="42.5657930" lon="-6.6585840">
        <ele>496.6</ele>
        <time>2014-10-02T16:46:45Z</time>
      </trkpt>
      <trkpt lat="42.5658200" lon="-6.6584990">
        <ele>496.7</ele>
        <time>2014-10-02T16:46:46Z</time>
      </trkpt>
      <trkpt lat="42.5658520" lon="-6.6584140">
        <ele>496.8</ele>
        <time>2014-10-02T16:46:47Z</time>
      </trkpt>
      <trkpt lat="42.5659000" lon="-6.6583350">
        <ele>497.0</ele>
        <time>2014-10-02T16:46:48Z</time>
      </trkpt>
      <trkpt lat="42.5659440" lon="-6.6582590">
        <ele>497.2</ele>
        <time>2014-10-02T16:46:49Z</time>
      </trkpt>
      <trkpt lat="42.5659710" lon="-6.6581670">
        <ele>497.4</ele>
        <time>2014-10-02T16:46:50Z</time>
      </trkpt>
      <trkpt lat="42.5659930" lon="-6.6580810">
        <ele>497.2</ele>
        <time>2014-10-02T16:46:51Z</time>
      </trkpt>
      <trkpt lat="42.5660090" lon="-6.6579880">
        <ele>497.1</ele>
        <time>2014-10-02T16:46:52Z</time>
      </trkpt>
      <trkpt lat="42.5660190" lon="-6.6578910">
        <ele>496.9</ele>
        <time>2014-10-02T16:46:53Z</time>
      </trkpt>
      <trkpt lat="42.5660250" lon="-6.6577940">
        <ele>496.9</ele>
        <time>2014-10-02T16:46:54Z</time>
      </trkpt>
      <trkpt lat="42.5660270" lon="-6.6576940">
        <ele>496.9</ele>
        <time>2014-10-02T16:46:55Z</time>
      </trkpt>
      <trkpt lat="42.5660260" lon="-6.6575970">
        <ele>497.0</ele>
        <time>2014-10-02T16:46:56Z</time>
      </trkpt>
      <trkpt lat="42.5660260" lon="-6.6574950">
        <ele>497.0</ele>
        <time>2014-10-02T16:46:57Z</time>
      </trkpt>
      <trkpt lat="42.5660240" lon="-6.6574010">
        <ele>497.1</ele>
        <time>2014-10-02T16:46:58Z</time>
      </trkpt>
      <trkpt lat="42.5660210" lon="-6.6572990">
        <ele>497.1</ele>
        <time>2014-10-02T16:46:59Z</time>
      </trkpt>
      <trkpt lat="42.5660180" lon="-6.6571960">
        <ele>497.1</ele>
        <time>2014-10-02T16:47:00Z</time>
      </trkpt>
      <trkpt lat="42.5660170" lon="-6.6570980">
        <ele>497.2</ele>
        <time>2014-10-02T16:47:01Z</time>
      </trkpt>
      <trkpt lat="42.5660160" lon="-6.6570010">
        <ele>497.2</ele>
        <time>2014-10-02T16:47:02Z</time>
      </trkpt>
      <trkpt lat="42.5660160" lon="-6.6569050">
        <ele>497.3</ele>
        <time>2014-10-02T16:47:03Z</time>
      </trkpt>
      <trkpt lat="42.5660150" lon="-6.6568100">
        <ele>497.4</ele>
        <time>2014-10-02T16:47:04Z</time>
      </trkpt>
      <trkpt lat="42.5660130" lon="-6.6567150">
        <ele>497.5</ele>
        <time>2014-10-02T16:47:05Z</time>
      </trkpt>
      <trkpt lat="42.5660120" lon="-6.6566140">
        <ele>497.5</ele>
        <time>2014-10-02T16:47:06Z</time>
      </trkpt>
      <trkpt lat="42.5660090" lon="-6.6565180">
        <ele>497.6</ele>
        <time>2014-10-02T16:47:07Z</time>
      </trkpt>
      <trkpt lat="42.5660050" lon="-6.6564180">
        <ele>497.6</ele>
        <time>2014-10-02T16:47:08Z</time>
      </trkpt>
      <trkpt lat="42.5660010" lon="-6.6563170">
        <ele>497.7</ele>
        <time>2014-10-02T16:47:09Z</time>
      </trkpt>
      <trkpt lat="42.5659990" lon="-6.6562190">
        <ele>497.7</ele>
        <time>2014-10-02T16:47:10Z</time>
      </trkpt>
      <trkpt lat="42.5659980" lon="-6.6561240">
        <ele>497.8</ele>
        <time>2014-10-02T16:47:11Z</time>
      </trkpt>
      <trkpt lat="42.5659970" lon="-6.6560280">
        <ele>497.9</ele>
        <time>2014-10-02T16:47:12Z</time>
      </trkpt>
      <trkpt lat="42.5659960" lon="-6.6559330">
        <ele>498.0</ele>
        <time>2014-10-02T16:47:13Z</time>
      </trkpt>
      <trkpt lat="42.5659940" lon="-6.6558280">
        <ele>498.1</ele>
        <time>2014-10-02T16:47:14Z</time>
      </trkpt>
      <trkpt lat="42.5659920" lon="-6.6557290">
        <ele>498.2</ele>
        <time>2014-10-02T16:47:15Z</time>
      </trkpt>
      <trkpt lat="42.5659910" lon="-6.6556310">
        <ele>498.3</ele>
        <time>2014-10-02T16:47:16Z</time>
      </trkpt>
      <trkpt lat="42.5659910" lon="-6.6555400">
        <ele>498.4</ele>
        <time>2014-10-02T16:47:17Z</time>
      </trkpt>
      <trkpt lat="42.5659890" lon="-6.6554450">
        <ele>498.5</ele>
        <time>2014-10-02T16:47:18Z</time>
      </trkpt>
      <trkpt lat="42.5659880" lon="-6.6553500">
        <ele>498.5</ele>
        <time>2014-10-02T16:47:19Z</time>
      </trkpt>
      <trkpt lat="42.5659860" lon="-6.6552520">
        <ele>498.5</ele>
        <time>2014-10-02T16:47:20Z</time>
      </trkpt>
      <trkpt lat="42.5659820" lon="-6.6551570">
        <ele>498.5</ele>
        <time>2014-10-02T16:47:21Z</time>
      </trkpt>
      <trkpt lat="42.5659780" lon="-6.6550660">
        <ele>498.5</ele>
        <time>2014-10-02T16:47:22Z</time>
      </trkpt>
      <trkpt lat="42.5659750" lon="-6.6549740">
        <ele>498.5</ele>
        <time>2014-10-02T16:47:23Z</time>
      </trkpt>
      <trkpt lat="42.5659700" lon="-6.6548750">
        <ele>498.6</ele>
        <time>2014-10-02T16:47:24Z</time>
      </trkpt>
      <trkpt lat="42.5659680" lon="-6.6547840">
        <ele>498.7</ele>
        <time>2014-10-02T16:47:25Z</time>
      </trkpt>
      <trkpt lat="42.5659640" lon="-6.6546870">
        <ele>498.8</ele>
        <time>2014-10-02T16:47:26Z</time>
      </trkpt>
      <trkpt lat="42.5659590" lon="-6.6545870">
        <ele>498.9</ele>
        <time>2014-10-02T16:47:27Z</time>
      </trkpt>
      <trkpt lat="42.5659560" lon="-6.6544970">
        <ele>499.0</ele>
        <time>2014-10-02T16:47:28Z</time>
      </trkpt>
      <trkpt lat="42.5659520" lon="-6.6544000">
        <ele>499.1</ele>
        <time>2014-10-02T16:47:29Z</time>
      </trkpt>
      <trkpt lat="42.5659450" lon="-6.6542990">
        <ele>499.2</ele>
        <time>2014-10-02T16:47:30Z</time>
      </trkpt>
      <trkpt lat="42.5659380" lon="-6.6542030">
        <ele>499.4</ele>
        <time>2014-10-02T16:47:31Z</time>
      </trkpt>
      <trkpt lat="42.5659320" lon="-6.6541080">
        <ele>499.5</ele>
        <time>2014-10-02T16:47:32Z</time>
      </trkpt>
      <trkpt lat="42.5659260" lon="-6.6540150">
        <ele>499.5</ele>
        <time>2014-10-02T16:47:33Z</time>
      </trkpt>
      <trkpt lat="42.5659210" lon="-6.6539220">
        <ele>499.6</ele>
        <time>2014-10-02T16:47:34Z</time>
      </trkpt>
      <trkpt lat="42.5659170" lon="-6.6538250">
        <ele>499.7</ele>
        <time>2014-10-02T16:47:35Z</time>
      </trkpt>
      <trkpt lat="42.5659130" lon="-6.6537340">
        <ele>499.7</ele>
        <time>2014-10-02T16:47:36Z</time>
      </trkpt>
      <trkpt lat="42.5659080" lon="-6.6536370">
        <ele>499.8</ele>
        <time>2014-10-02T16:47:37Z</time>
      </trkpt>
      <trkpt lat="42.5659030" lon="-6.6535470">
        <ele>499.9</ele>
        <time>2014-10-02T16:47:38Z</time>
      </trkpt>
      <trkpt lat="42.5658980" lon="-6.6534610">
        <ele>500.0</ele>
        <time>2014-10-02T16:47:39Z</time>
      </trkpt>
      <trkpt lat="42.5658920" lon="-6.6533720">
        <ele>500.1</ele>
        <time>2014-10-02T16:47:40Z</time>
      </trkpt>
      <trkpt lat="42.5658880" lon="-6.6532840">
        <ele>500.1</ele>
        <time>2014-10-02T16:47:41Z</time>
      </trkpt>
      <trkpt lat="42.5658820" lon="-6.6531900">
        <ele>500.2</ele>
        <time>2014-10-02T16:47:42Z</time>
      </trkpt>
      <trkpt lat="42.5658770" lon="-6.6531020">
        <ele>500.3</ele>
        <time>2014-10-02T16:47:43Z</time>
      </trkpt>
      <trkpt lat="42.5658750" lon="-6.6530110">
        <ele>500.3</ele>
        <time>2014-10-02T16:47:44Z</time>
      </trkpt>
      <trkpt lat="42.5658700" lon="-6.6529130">
        <ele>500.4</ele>
        <time>2014-10-02T16:47:45Z</time>
      </trkpt>
      <trkpt lat="42.5658670" lon="-6.6528170">
        <ele>500.5</ele>
        <time>2014-10-02T16:47:46Z</time>
      </trkpt>
      <trkpt lat="42.5658640" lon="-6.6527290">
        <ele>500.6</ele>
        <time>2014-10-02T16:47:47Z</time>
      </trkpt>
      <trkpt lat="42.5658590" lon="-6.6526320">
        <ele>500.6</ele>
        <time>2014-10-02T16:47:48Z</time>
      </trkpt>
      <trkpt lat="42.5658500" lon="-6.6525260">
        <ele>500.8</ele>
        <time>2014-10-02T16:47:49Z</time>
      </trkpt>
      <trkpt lat="42.5658410" lon="-6.6524280">
        <ele>500.9</ele>
        <time>2014-10-02T16:47:50Z</time>
      </trkpt>
      <trkpt lat="42.5658310" lon="-6.6523260">
        <ele>501.0</ele>
        <time>2014-10-02T16:47:51Z</time>
      </trkpt>
      <trkpt lat="42.5658240" lon="-6.6522330">
        <ele>501.1</ele>
        <time>2014-10-02T16:47:52Z</time>
      </trkpt>
      <trkpt lat="42.5658160" lon="-6.6521440">
        <ele>501.2</ele>
        <time>2014-10-02T16:47:53Z</time>
      </trkpt>
      <trkpt lat="42.5658080" lon="-6.6520480">
        <ele>501.3</ele>
        <time>2014-10-02T16:47:54Z</time>
      </trkpt>
      <trkpt lat="42.5658000" lon="-6.6519590">
        <ele>501.5</ele>
        <time>2014-10-02T16:47:55Z</time>
      </trkpt>
      <trkpt lat="42.5657920" lon="-6.6518660">
        <ele>501.6</ele>
        <time>2014-10-02T16:47:56Z</time>
      </trkpt>
      <trkpt lat="42.5657840" lon="-6.6517710">
        <ele>501.8</ele>
        <time>2014-10-02T16:47:57Z</time>
      </trkpt>
      <trkpt lat="42.5657730" lon="-6.6516700">
        <ele>501.8</ele>
        <time>2014-10-02T16:47:58Z</time>
      </trkpt>
      <trkpt lat="42.5657650" lon="-6.6515820">
        <ele>501.8</ele>
        <time>2014-10-02T16:47:59Z</time>
      </trkpt>
      <trkpt lat="42.5657580" lon="-6.6514870">
        <ele>501.8</ele>
        <time>2014-10-02T16:48:00Z</time>
      </trkpt>
      <trkpt lat="42.5657510" lon="-6.6513970">
        <ele>501.9</ele>
        <time>2014-10-02T16:48:01Z</time>
      </trkpt>
      <trkpt lat="42.5657430" lon="-6.6513010">
        <ele>501.9</ele>
        <time>2014-10-02T16:48:02Z</time>
      </trkpt>
      <trkpt lat="42.5657380" lon="-6.6512100">
        <ele>501.9</ele>
        <time>2014-10-02T16:48:03Z</time>
      </trkpt>
      <trkpt lat="42.5657280" lon="-6.6511170">
        <ele>501.9</ele>
        <time>2014-10-02T16:48:04Z</time>
      </trkpt>
      <trkpt lat="42.5657160" lon="-6.6510290">
        <ele>502.0</ele>
        <time>2014-10-02T16:48:05Z</time>
      </trkpt>
      <trkpt lat="42.5656900" lon="-6.6509540">
        <ele>502.0</ele>
        <time>2014-10-02T16:48:06Z</time>
      </trkpt>
      <trkpt lat="42.5656640" lon="-6.6508750">
        <ele>502.1</ele>
        <time>2014-10-02T16:48:07Z</time>
      </trkpt>
      <trkpt lat="42.5656200" lon="-6.6507960">
        <ele>502.3</ele>
        <time>2014-10-02T16:48:08Z</time>
      </trkpt>
      <trkpt lat="42.5655750" lon="-6.6507170">
        <ele>502.4</ele>
        <time>2014-10-02T16:48:09Z</time>
      </trkpt>
      <trkpt lat="42.5655270" lon="-6.6506400">
        <ele>502.5</ele>
        <time>2014-10-02T16:48:10Z</time>
      </trkpt>
      <trkpt lat="42.5654810" lon="-6.6505730">
        <ele>502.8</ele>
        <time>2014-10-02T16:48:11Z</time>
      </trkpt>
      <trkpt lat="42.5654320" lon="-6.6505000">
        <ele>502.8</ele>
        <time>2014-10-02T16:48:12Z</time>
      </trkpt>
      <trkpt lat="42.5653900" lon="-6.6504340">
        <ele>502.8</ele>
        <time>2014-10-02T16:48:13Z</time>
      </trkpt>
      <trkpt lat="42.5653700" lon="-6.6503540">
        <ele>502.8</ele>
        <time>2014-10-02T16:48:14Z</time>
      </trkpt>
      <trkpt lat="42.5653640" lon="-6.6502700">
        <ele>502.8</ele>
        <time>2014-10-02T16:48:15Z</time>
      </trkpt>
      <trkpt lat="42.5653730" lon="-6.6501810">
        <ele>502.7</ele>
        <time>2014-10-02T16:48:16Z</time>
      </trkpt>
      <trkpt lat="42.5653830" lon="-6.6500940">
        <ele>502.7</ele>
        <time>2014-10-02T16:48:17Z</time>
      </trkpt>
      <trkpt lat="42.5654000" lon="-6.6500010">
        <ele>502.7</ele>
        <time>2014-10-02T16:48:18Z</time>
      </trkpt>
      <trkpt lat="42.5654210" lon="-6.6499110">
        <ele>502.8</ele>
        <time>2014-10-02T16:48:19Z</time>
      </trkpt>
      <trkpt lat="42.5654420" lon="-6.6498240">
        <ele>503.0</ele>
        <time>2014-10-02T16:48:20Z</time>
      </trkpt>
      <trkpt lat="42.5654620" lon="-6.6497350">
        <ele>503.0</ele>
        <time>2014-10-02T16:48:21Z</time>
      </trkpt>
      <trkpt lat="42.5654840" lon="-6.6496360">
        <ele>503.0</ele>
        <time>2014-10-02T16:48:22Z</time>
      </trkpt>
      <trkpt lat="42.5655010" lon="-6.6495370">
        <ele>503.0</ele>
        <time>2014-10-02T16:48:23Z</time>
      </trkpt>
      <trkpt lat="42.5655130" lon="-6.6494450">
        <ele>503.0</ele>
        <time>2014-10-02T16:48:24Z</time>
      </trkpt>
      <trkpt lat="42.5655190" lon="-6.6493550">
        <ele>503.0</ele>
        <time>2014-10-02T16:48:25Z</time>
      </trkpt>
      <trkpt lat="42.5655200" lon="-6.6492580">
        <ele>503.0</ele>
        <time>2014-10-02T16:48:26Z</time>
      </trkpt>
      <trkpt lat="42.5655160" lon="-6.6491550">
        <ele>503.1</ele>
        <time>2014-10-02T16:48:27Z</time>
      </trkpt>
      <trkpt lat="42.5655090" lon="-6.6490560">
        <ele>503.2</ele>
        <time>2014-10-02T16:48:28Z</time>
      </trkpt>
      <trkpt lat="42.5654990" lon="-6.6489490">
        <ele>503.2</ele>
        <time>2014-10-02T16:48:29Z</time>
      </trkpt>
      <trkpt lat="42.5654870" lon="-6.6488520">
        <ele>503.2</ele>
        <time>2014-10-02T16:48:30Z</time>
      </trkpt>
      <trkpt lat="42.5654750" lon="-6.6487640">
        <ele>503.3</ele>
        <time>2014-10-02T16:48:31Z</time>
      </trkpt>
      <trkpt lat="42.5654610" lon="-6.6486750">
        <ele>503.3</ele>
        <time>2014-10-02T16:48:32Z</time>
      </trkpt>
      <trkpt lat="42.5654470" lon="-6.6485860">
        <ele>503.4</ele>
        <time>2014-10-02T16:48:33Z</time>
      </trkpt>
      <trkpt lat="42.5654290" lon="-6.6484950">
        <ele>503.4</ele>
        <time>2014-10-02T16:48:34Z</time>
      </trkpt>
      <trkpt lat="42.5654120" lon="-6.6484050">
        <ele>503.5</ele>
        <time>2014-10-02T16:48:35Z</time>
      </trkpt>
      <trkpt lat="42.5653950" lon="-6.6483140">
        <ele>503.6</ele>
        <time>2014-10-02T16:48:36Z</time>
      </trkpt>
      <trkpt lat="42.5653780" lon="-6.6482240">
        <ele>503.6</ele>
        <time>2014-10-02T16:48:37Z</time>
      </trkpt>
      <trkpt lat="42.5653620" lon="-6.6481370">
        <ele>503.7</ele>
        <time>2014-10-02T16:48:38Z</time>
      </trkpt>
      <trkpt lat="42.5653450" lon="-6.6480530">
        <ele>503.8</ele>
        <time>2014-10-02T16:48:39Z</time>
      </trkpt>
      <trkpt lat="42.5653280" lon="-6.6479650">
        <ele>503.9</ele>
        <time>2014-10-02T16:48:40Z</time>
      </trkpt>
      <trkpt lat="42.5653120" lon="-6.6478760">
        <ele>504.0</ele>
        <time>2014-10-02T16:48:41Z</time>
      </trkpt>
      <trkpt lat="42.5652940" lon="-6.6477830">
        <ele>504.1</ele>
        <time>2014-10-02T16:48:42Z</time>
      </trkpt>
      <trkpt lat="42.5652780" lon="-6.6476980">
        <ele>504.2</ele>
        <time>2014-10-02T16:48:43Z</time>
      </trkpt>
      <trkpt lat="42.5652620" lon="-6.6476170">
        <ele>504.2</ele>
        <time>2014-10-02T16:48:44Z</time>
      </trkpt>
      <trkpt lat="42.5652460" lon="-6.6475360">
        <ele>504.3</ele>
        <time>2014-10-02T16:48:45Z</time>
      </trkpt>
      <trkpt lat="42.5652290" lon="-6.6474500">
        <ele>504.4</ele>
        <time>2014-10-02T16:48:46Z</time>
      </trkpt>
      <trkpt lat="42.5652110" lon="-6.6473670">
        <ele>504.4</ele>
        <time>2014-10-02T16:48:47Z</time>
      </trkpt>
      <trkpt lat="42.5651920" lon="-6.6472790">
        <ele>504.5</ele>
        <time>2014-10-02T16:48:48Z</time>
      </trkpt>
      <trkpt lat="42.5651710" lon="-6.6471870">
        <ele>504.7</ele>
        <time>2014-10-02T16:48:49Z</time>
      </trkpt>
      <trkpt lat="42.5651520" lon="-6.6470920">
        <ele>504.8</ele>
        <time>2014-10-02T16:48:50Z</time>
      </trkpt>
      <trkpt lat="42.5651350" lon="-6.6470030">
        <ele>504.9</ele>
        <time>2014-10-02T16:48:51Z</time>
      </trkpt>
      <trkpt lat="42.5651170" lon="-6.6469110">
        <ele>505.0</ele>
        <time>2014-10-02T16:48:52Z</time>
      </trkpt>
      <trkpt lat="42.5650990" lon="-6.6468200">
        <ele>505.0</ele>
        <time>2014-10-02T16:48:53Z</time>
      </trkpt>
      <trkpt lat="42.5650800" lon="-6.6467270">
        <ele>505.1</ele>
        <time>2014-10-02T16:48:54Z</time>
      </trkpt>
      <trkpt lat="42.5650620" lon="-6.6466380">
        <ele>505.2</ele>
        <time>2014-10-02T16:48:55Z</time>
      </trkpt>
      <trkpt lat="42.5650420" lon="-6.6465470">
        <ele>505.3</ele>
        <time>2014-10-02T16:48:56Z</time>
      </trkpt>
      <trkpt lat="42.5650230" lon="-6.6464580">
        <ele>505.4</ele>
        <time>2014-10-02T16:48:57Z</time>
      </trkpt>
      <trkpt lat="42.5650040" lon="-6.6463710">
        <ele>505.5</ele>
        <time>2014-10-02T16:48:58Z</time>
      </trkpt>
      <trkpt lat="42.5649860" lon="-6.6462820">
        <ele>505.6</ele>
        <time>2014-10-02T16:48:59Z</time>
      </trkpt>
      <trkpt lat="42.5649660" lon="-6.6461870">
        <ele>505.7</ele>
        <time>2014-10-02T16:49:00Z</time>
      </trkpt>
      <trkpt lat="42.5649470" lon="-6.6460920">
        <ele>505.8</ele>
        <time>2014-10-02T16:49:01Z</time>
      </trkpt>
      <trkpt lat="42.5649290" lon="-6.6460030">
        <ele>505.8</ele>
        <time>2014-10-02T16:49:02Z</time>
      </trkpt>
      <trkpt lat="42.5649090" lon="-6.6459190">
        <ele>505.9</ele>
        <time>2014-10-02T16:49:03Z</time>
      </trkpt>
      <trkpt lat="42.5648900" lon="-6.6458300">
        <ele>506.0</ele>
        <time>2014-10-02T16:49:04Z</time>
      </trkpt>
      <trkpt lat="42.5648720" lon="-6.6457480">
        <ele>506.1</ele>
        <time>2014-10-02T16:49:05Z</time>
      </trkpt>
      <trkpt lat="42.5648540" lon="-6.6456510">
        <ele>506.2</ele>
        <time>2014-10-02T16:49:06Z</time>
      </trkpt>
      <trkpt lat="42.5648340" lon="-6.6455650">
        <ele>506.3</ele>
        <time>2014-10-02T16:49:07Z</time>
      </trkpt>
      <trkpt lat="42.5648130" lon="-6.6454790">
        <ele>506.4</ele>
        <time>2014-10-02T16:49:08Z</time>
      </trkpt>
      <trkpt lat="42.5647950" lon="-6.6453970">
        <ele>506.5</ele>
        <time>2014-10-02T16:49:09Z</time>
      </trkpt>
      <trkpt lat="42.5647760" lon="-6.6453120">
        <ele>506.6</ele>
        <time>2014-10-02T16:49:10Z</time>
      </trkpt>
      <trkpt lat="42.5647590" lon="-6.6452260">
        <ele>506.7</ele>
        <time>2014-10-02T16:49:11Z</time>
      </trkpt>
      <trkpt lat="42.5647400" lon="-6.6451380">
        <ele>506.8</ele>
        <time>2014-10-02T16:49:12Z</time>
      </trkpt>
      <trkpt lat="42.5647210" lon="-6.6450530">
        <ele>506.9</ele>
        <time>2014-10-02T16:49:13Z</time>
      </trkpt>
      <trkpt lat="42.5646990" lon="-6.6449600">
        <ele>507.0</ele>
        <time>2014-10-02T16:49:14Z</time>
      </trkpt>
      <trkpt lat="42.5646760" lon="-6.6448640">
        <ele>507.0</ele>
        <time>2014-10-02T16:49:15Z</time>
      </trkpt>
      <trkpt lat="42.5646530" lon="-6.6447690">
        <ele>507.2</ele>
        <time>2014-10-02T16:49:16Z</time>
      </trkpt>
      <trkpt lat="42.5646320" lon="-6.6446770">
        <ele>507.3</ele>
        <time>2014-10-02T16:49:17Z</time>
      </trkpt>
      <trkpt lat="42.5646120" lon="-6.6445830">
        <ele>507.4</ele>
        <time>2014-10-02T16:49:18Z</time>
      </trkpt>
      <trkpt lat="42.5645910" lon="-6.6444900">
        <ele>507.4</ele>
        <time>2014-10-02T16:49:19Z</time>
      </trkpt>
      <trkpt lat="42.5645730" lon="-6.6444030">
        <ele>507.5</ele>
        <time>2014-10-02T16:49:20Z</time>
      </trkpt>
      <trkpt lat="42.5645540" lon="-6.6443110">
        <ele>507.5</ele>
        <time>2014-10-02T16:49:21Z</time>
      </trkpt>
      <trkpt lat="42.5645350" lon="-6.6442180">
        <ele>507.5</ele>
        <time>2014-10-02T16:49:22Z</time>
      </trkpt>
      <trkpt lat="42.5645150" lon="-6.6441280">
        <ele>507.6</ele>
        <time>2014-10-02T16:49:23Z</time>
      </trkpt>
      <trkpt lat="42.5644970" lon="-6.6440460">
        <ele>507.7</ele>
        <time>2014-10-02T16:49:24Z</time>
      </trkpt>
      <trkpt lat="42.5644780" lon="-6.6439600">
        <ele>507.8</ele>
        <time>2014-10-02T16:49:25Z</time>
      </trkpt>
      <trkpt lat="42.5644590" lon="-6.6438700">
        <ele>507.8</ele>
        <time>2014-10-02T16:49:26Z</time>
      </trkpt>
      <trkpt lat="42.5644400" lon="-6.6437790">
        <ele>507.9</ele>
        <time>2014-10-02T16:49:27Z</time>
      </trkpt>
      <trkpt lat="42.5644220" lon="-6.6436950">
        <ele>508.0</ele>
        <time>2014-10-02T16:49:28Z</time>
      </trkpt>
      <trkpt lat="42.5644050" lon="-6.6436090">
        <ele>508.1</ele>
        <time>2014-10-02T16:49:29Z</time>
      </trkpt>
      <trkpt lat="42.5643860" lon="-6.6435210">
        <ele>508.2</ele>
        <time>2014-10-02T16:49:30Z</time>
      </trkpt>
      <trkpt lat="42.5643650" lon="-6.6434320">
        <ele>508.3</ele>
        <time>2014-10-02T16:49:31Z</time>
      </trkpt>
      <trkpt lat="42.5643460" lon="-6.6433500">
        <ele>508.3</ele>
        <time>2014-10-02T16:49:32Z</time>
      </trkpt>
      <trkpt lat="42.5643280" lon="-6.6432710">
        <ele>508.4</ele>
        <time>2014-10-02T16:49:33Z</time>
      </trkpt>
      <trkpt lat="42.5643080" lon="-6.6431890">
        <ele>508.5</ele>
        <time>2014-10-02T16:49:34Z</time>
      </trkpt>
      <trkpt lat="42.5642910" lon="-6.6431100">
        <ele>508.5</ele>
        <time>2014-10-02T16:49:35Z</time>
      </trkpt>
      <trkpt lat="42.5642730" lon="-6.6430310">
        <ele>508.6</ele>
        <time>2014-10-02T16:49:36Z</time>
      </trkpt>
      <trkpt lat="42.5642540" lon="-6.6429480">
        <ele>508.6</ele>
        <time>2014-10-02T16:49:37Z</time>
      </trkpt>
      <trkpt lat="42.5642360" lon="-6.6428680">
        <ele>508.7</ele>
        <time>2014-10-02T16:49:38Z</time>
      </trkpt>
      <trkpt lat="42.5642200" lon="-6.6427900">
        <ele>508.7</ele>
        <time>2014-10-02T16:49:39Z</time>
      </trkpt>
      <trkpt lat="42.5642030" lon="-6.6427090">
        <ele>508.8</ele>
        <time>2014-10-02T16:49:40Z</time>
      </trkpt>
      <trkpt lat="42.5641840" lon="-6.6426250">
        <ele>508.8</ele>
        <time>2014-10-02T16:49:41Z</time>
      </trkpt>
      <trkpt lat="42.5641660" lon="-6.6425380">
        <ele>508.9</ele>
        <time>2014-10-02T16:49:42Z</time>
      </trkpt>
      <trkpt lat="42.5641450" lon="-6.6424440">
        <ele>509.0</ele>
        <time>2014-10-02T16:49:43Z</time>
      </trkpt>
      <trkpt lat="42.5641240" lon="-6.6423470">
        <ele>509.1</ele>
        <time>2014-10-02T16:49:44Z</time>
      </trkpt>
      <trkpt lat="42.5641050" lon="-6.6422590">
        <ele>509.2</ele>
        <time>2014-10-02T16:49:45Z</time>
      </trkpt>
      <trkpt lat="42.5640870" lon="-6.6421680">
        <ele>509.3</ele>
        <time>2014-10-02T16:49:46Z</time>
      </trkpt>
      <trkpt lat="42.5640690" lon="-6.6420680">
        <ele>509.5</ele>
        <time>2014-10-02T16:49:47Z</time>
      </trkpt>
      <trkpt lat="42.5640530" lon="-6.6419720">
        <ele>509.7</ele>
        <time>2014-10-02T16:49:48Z</time>
      </trkpt>
      <trkpt lat="42.5640380" lon="-6.6418770">
        <ele>509.9</ele>
        <time>2014-10-02T16:49:49Z</time>
      </trkpt>
      <trkpt lat="42.5640250" lon="-6.6417890">
        <ele>510.0</ele>
        <time>2014-10-02T16:49:50Z</time>
      </trkpt>
      <trkpt lat="42.5640130" lon="-6.6417050">
        <ele>510.2</ele>
        <time>2014-10-02T16:49:51Z</time>
      </trkpt>
      <trkpt lat="42.5640020" lon="-6.6416210">
        <ele>510.3</ele>
        <time>2014-10-02T16:49:52Z</time>
      </trkpt>
      <trkpt lat="42.5639910" lon="-6.6415380">
        <ele>510.4</ele>
        <time>2014-10-02T16:49:53Z</time>
      </trkpt>
      <trkpt lat="42.5639800" lon="-6.6414570">
        <ele>510.5</ele>
        <time>2014-10-02T16:49:54Z</time>
      </trkpt>
      <trkpt lat="42.5639700" lon="-6.6413760">
        <ele>510.7</ele>
        <time>2014-10-02T16:49:55Z</time>
      </trkpt>
      <trkpt lat="42.5639610" lon="-6.6412980">
        <ele>510.8</ele>
        <time>2014-10-02T16:49:56Z</time>
      </trkpt>
      <trkpt lat="42.5639520" lon="-6.6412180">
        <ele>511.0</ele>
        <time>2014-10-02T16:49:57Z</time>
      </trkpt>
      <trkpt lat="42.5639430" lon="-6.6411420">
        <ele>511.1</ele>
        <time>2014-10-02T16:49:58Z</time>
      </trkpt>
      <trkpt lat="42.5639340" lon="-6.6410660">
        <ele>511.2</ele>
        <time>2014-10-02T16:49:59Z</time>
      </trkpt>
      <trkpt lat="42.5639270" lon="-6.6409880">
        <ele>511.4</ele>
        <time>2014-10-02T16:50:00Z</time>
      </trkpt>
      <trkpt lat="42.5639230" lon="-6.6409120">
        <ele>511.5</ele>
        <time>2014-10-02T16:50:01Z</time>
      </trkpt>
      <trkpt lat="42.5639190" lon="-6.6408300">
        <ele>511.6</ele>
        <time>2014-10-02T16:50:02Z</time>
      </trkpt>
      <trkpt lat="42.5639160" lon="-6.6407480">
        <ele>511.8</ele>
        <time>2014-10-02T16:50:03Z</time>
      </trkpt>
      <trkpt lat="42.5639130" lon="-6.6406720">
        <ele>511.9</ele>
        <time>2014-10-02T16:50:04Z</time>
      </trkpt>
      <trkpt lat="42.5639090" lon="-6.6405930">
        <ele>512.1</ele>
        <time>2014-10-02T16:50:05Z</time>
      </trkpt>
      <trkpt lat="42.5639050" lon="-6.6405110">
        <ele>512.2</ele>
        <time>2014-10-02T16:50:06Z</time>
      </trkpt>
      <trkpt lat="42.5639050" lon="-6.6404290">
        <ele>512.4</ele>
        <time>2014-10-02T16:50:07Z</time>
      </trkpt>
      <trkpt lat="42.5639040" lon="-6.6403490">
        <ele>512.5</ele>
        <time>2014-10-02T16:50:08Z</time>
      </trkpt>
      <trkpt lat="42.5639080" lon="-6.6402650">
        <ele>512.7</ele>
        <time>2014-10-02T16:50:09Z</time>
      </trkpt>
      <trkpt lat="42.5639110" lon="-6.6401840">
        <ele>512.9</ele>
        <time>2014-10-02T16:50:10Z</time>
      </trkpt>
      <trkpt lat="42.5639150" lon="-6.6400940">
        <ele>513.0</ele>
        <time>2014-10-02T16:50:11Z</time>
      </trkpt>
      <trkpt lat="42.5639190" lon="-6.6400020">
        <ele>513.2</ele>
        <time>2014-10-02T16:50:12Z</time>
      </trkpt>
      <trkpt lat="42.5639220" lon="-6.6399110">
        <ele>513.4</ele>
        <time>2014-10-02T16:50:13Z</time>
      </trkpt>
      <trkpt lat="42.5639260" lon="-6.6398180">
        <ele>513.5</ele>
        <time>2014-10-02T16:50:14Z</time>
      </trkpt>
      <trkpt lat="42.5639320" lon="-6.6397330">
        <ele>513.6</ele>
        <time>2014-10-02T16:50:15Z</time>
      </trkpt>
      <trkpt lat="42.5639390" lon="-6.6396480">
        <ele>513.7</ele>
        <time>2014-10-02T16:50:16Z</time>
      </trkpt>
      <trkpt lat="42.5639470" lon="-6.6395660">
        <ele>513.8</ele>
        <time>2014-10-02T16:50:17Z</time>
      </trkpt>
      <trkpt lat="42.5639560" lon="-6.6394780">
        <ele>514.0</ele>
        <time>2014-10-02T16:50:18Z</time>
      </trkpt>
      <trkpt lat="42.5639640" lon="-6.6393950">
        <ele>514.1</ele>
        <time>2014-10-02T16:50:19Z</time>
      </trkpt>
      <trkpt lat="42.5639740" lon="-6.6393190">
        <ele>514.2</ele>
        <time>2014-10-02T16:50:20Z</time>
      </trkpt>
      <trkpt lat="42.5639860" lon="-6.6392430">
        <ele>514.3</ele>
        <time>2014-10-02T16:50:21Z</time>
      </trkpt>
      <trkpt lat="42.5639970" lon="-6.6391600">
        <ele>514.4</ele>
        <time>2014-10-02T16:50:22Z</time>
      </trkpt>
      <trkpt lat="42.5640090" lon="-6.6390740">
        <ele>514.5</ele>
        <time>2014-10-02T16:50:23Z</time>
      </trkpt>
      <trkpt lat="42.5640200" lon="-6.6389860">
        <ele>514.6</ele>
        <time>2014-10-02T16:50:24Z</time>
      </trkpt>
      <trkpt lat="42.5640340" lon="-6.6389020">
        <ele>514.7</ele>
        <time>2014-10-02T16:50:25Z</time>
      </trkpt>
      <trkpt lat="42.5640460" lon="-6.6388170">
        <ele>514.8</ele>
        <time>2014-10-02T16:50:26Z</time>
      </trkpt>
      <trkpt lat="42.5640600" lon="-6.6387330">
        <ele>514.9</ele>
        <time>2014-10-02T16:50:27Z</time>
      </trkpt>
      <trkpt lat="42.5640720" lon="-6.6386560">
        <ele>515.0</ele>
        <time>2014-10-02T16:50:28Z</time>
      </trkpt>
      <trkpt lat="42.5640840" lon="-6.6385770">
        <ele>515.1</ele>
        <time>2014-10-02T16:50:29Z</time>
      </trkpt>
      <trkpt lat="42.5640950" lon="-6.6385050">
        <ele>515.2</ele>
        <time>2014-10-02T16:50:30Z</time>
      </trkpt>
      <trkpt lat="42.5641060" lon="-6.6384290">
        <ele>515.3</ele>
        <time>2014-10-02T16:50:31Z</time>
      </trkpt>
      <trkpt lat="42.5641200" lon="-6.6383490">
        <ele>515.4</ele>
        <time>2014-10-02T16:50:32Z</time>
      </trkpt>
      <trkpt lat="42.5641350" lon="-6.6382650">
        <ele>515.5</ele>
        <time>2014-10-02T16:50:33Z</time>
      </trkpt>
      <trkpt lat="42.5641500" lon="-6.6381760">
        <ele>515.7</ele>
        <time>2014-10-02T16:50:34Z</time>
      </trkpt>
      <trkpt lat="42.5641630" lon="-6.6380820">
        <ele>515.8</ele>
        <time>2014-10-02T16:50:35Z</time>
      </trkpt>
      <trkpt lat="42.5641730" lon="-6.6379820">
        <ele>515.9</ele>
        <time>2014-10-02T16:50:36Z</time>
      </trkpt>
      <trkpt lat="42.5641760" lon="-6.6378870">
        <ele>516.1</ele>
        <time>2014-10-02T16:50:37Z</time>
      </trkpt>
      <trkpt lat="42.5641610" lon="-6.6378040">
        <ele>516.0</ele>
        <time>2014-10-02T16:50:38Z</time>
      </trkpt>
      <trkpt lat="42.5641400" lon="-6.6377140">
        <ele>516.0</ele>
        <time>2014-10-02T16:50:39Z</time>
      </trkpt>
      <trkpt lat="42.5641120" lon="-6.6376270">
        <ele>516.0</ele>
        <time>2014-10-02T16:50:40Z</time>
      </trkpt>
      <trkpt lat="42.5640660" lon="-6.6375420">
        <ele>515.9</ele>
        <time>2014-10-02T16:50:41Z</time>
      </trkpt>
      <trkpt lat="42.5640190" lon="-6.6374550">
        <ele>515.9</ele>
        <time>2014-10-02T16:50:42Z</time>
      </trkpt>
      <trkpt lat="42.5639740" lon="-6.6373730">
        <ele>515.8</ele>
        <time>2014-10-02T16:50:43Z</time>
      </trkpt>
      <trkpt lat="42.5639260" lon="-6.6372860">
        <ele>515.8</ele>
        <time>2014-10-02T16:50:44Z</time>
      </trkpt>
      <trkpt lat="42.5638840" lon="-6.6372010">
        <ele>515.8</ele>
        <time>2014-10-02T16:50:45Z</time>
      </trkpt>
      <trkpt lat="42.5638510" lon="-6.6371210">
        <ele>515.7</ele>
        <time>2014-10-02T16:50:46Z</time>
      </trkpt>
      <trkpt lat="42.5638340" lon="-6.6370370">
        <ele>515.6</ele>
        <time>2014-10-02T16:50:47Z</time>
      </trkpt>
      <trkpt lat="42.5638190" lon="-6.6369490">
        <ele>515.5</ele>
        <time>2014-10-02T16:50:48Z</time>
      </trkpt>
      <trkpt lat="42.5638280" lon="-6.6368490">
        <ele>515.4</ele>
        <time>2014-10-02T16:50:49Z</time>
      </trkpt>
      <trkpt lat="42.5638400" lon="-6.6367500">
        <ele>515.2</ele>
        <time>2014-10-02T16:50:50Z</time>
      </trkpt>
      <trkpt lat="42.5638740" lon="-6.6366420">
        <ele>514.9</ele>
        <time>2014-10-02T16:50:51Z</time>
      </trkpt>
      <trkpt lat="42.5639110" lon="-6.6365260">
        <ele>514.6</ele>
        <time>2014-10-02T16:50:52Z</time>
      </trkpt>
      <trkpt lat="42.5639510" lon="-6.6364150">
        <ele>514.3</ele>
        <time>2014-10-02T16:50:53Z</time>
      </trkpt>
      <trkpt lat="42.5639950" lon="-6.6363040">
        <ele>514.1</ele>
        <time>2014-10-02T16:50:54Z</time>
      </trkpt>
      <trkpt lat="42.5640400" lon="-6.6361880">
        <ele>513.8</ele>
        <time>2014-10-02T16:50:55Z</time>
      </trkpt>
      <trkpt lat="42.5640880" lon="-6.6360700">
        <ele>513.4</ele>
        <time>2014-10-02T16:50:56Z</time>
      </trkpt>
      <trkpt lat="42.5641350" lon="-6.6359610">
        <ele>513.1</ele>
        <time>2014-10-02T16:50:57Z</time>
      </trkpt>
      <trkpt lat="42.5641880" lon="-6.6358470">
        <ele>512.8</ele>
        <time>2014-10-02T16:50:58Z</time>
      </trkpt>
      <trkpt lat="42.5642390" lon="-6.6357320">
        <ele>512.5</ele>
        <time>2014-10-02T16:50:59Z</time>
      </trkpt>
      <trkpt lat="42.5642900" lon="-6.6356240">
        <ele>512.3</ele>
        <time>2014-10-02T16:51:00Z</time>
      </trkpt>
      <trkpt lat="42.5643450" lon="-6.6355190">
        <ele>512.1</ele>
        <time>2014-10-02T16:51:01Z</time>
      </trkpt>
      <trkpt lat="42.5643970" lon="-6.6354180">
        <ele>511.9</ele>
        <time>2014-10-02T16:51:02Z</time>
      </trkpt>
      <trkpt lat="42.5644480" lon="-6.6353200">
        <ele>512.0</ele>
        <time>2014-10-02T16:51:03Z</time>
      </trkpt>
      <trkpt lat="42.5644760" lon="-6.6352140">
        <ele>512.1</ele>
        <time>2014-10-02T16:51:04Z</time>
      </trkpt>
      <trkpt lat="42.5644930" lon="-6.6351230">
        <ele>512.2</ele>
        <time>2014-10-02T16:51:05Z</time>
      </trkpt>
      <trkpt lat="42.5644860" lon="-6.6350350">
        <ele>512.3</ele>
        <time>2014-10-02T16:51:06Z</time>
      </trkpt>
      <trkpt lat="42.5644610" lon="-6.6349600">
        <ele>512.3</ele>
        <time>2014-10-02T16:51:07Z</time>
      </trkpt>
      <trkpt lat="42.5644330" lon="-6.6348870">
        <ele>512.5</ele>
        <time>2014-10-02T16:51:08Z</time>
      </trkpt>
      <trkpt lat="42.5644000" lon="-6.6348070">
        <ele>512.6</ele>
        <time>2014-10-02T16:51:09Z</time>
      </trkpt>
      <trkpt lat="42.5643610" lon="-6.6347290">
        <ele>512.7</ele>
        <time>2014-10-02T16:51:10Z</time>
      </trkpt>
      <trkpt lat="42.5643190" lon="-6.6346420">
        <ele>512.7</ele>
        <time>2014-10-02T16:51:11Z</time>
      </trkpt>
      <trkpt lat="42.5642730" lon="-6.6345530">
        <ele>512.8</ele>
        <time>2014-10-02T16:51:12Z</time>
      </trkpt>
      <trkpt lat="42.5642280" lon="-6.6344630">
        <ele>512.9</ele>
        <time>2014-10-02T16:51:13Z</time>
      </trkpt>
      <trkpt lat="42.5641840" lon="-6.6343730">
        <ele>513.1</ele>
        <time>2014-10-02T16:51:14Z</time>
      </trkpt>
      <trkpt lat="42.5641380" lon="-6.6342830">
        <ele>513.2</ele>
        <time>2014-10-02T16:51:15Z</time>
      </trkpt>
      <trkpt lat="42.5640880" lon="-6.6341880">
        <ele>513.2</ele>
        <time>2014-10-02T16:51:16Z</time>
      </trkpt>
      <trkpt lat="42.5640420" lon="-6.6340990">
        <ele>513.3</ele>
        <time>2014-10-02T16:51:17Z</time>
      </trkpt>
      <trkpt lat="42.5639990" lon="-6.6340120">
        <ele>513.4</ele>
        <time>2014-10-02T16:51:18Z</time>
      </trkpt>
      <trkpt lat="42.5639580" lon="-6.6339260">
        <ele>513.5</ele>
        <time>2014-10-02T16:51:19Z</time>
      </trkpt>
      <trkpt lat="42.5639190" lon="-6.6338410">
        <ele>513.5</ele>
        <time>2014-10-02T16:51:20Z</time>
      </trkpt>
      <trkpt lat="42.5638790" lon="-6.6337530">
        <ele>513.5</ele>
        <time>2014-10-02T16:51:21Z</time>
      </trkpt>
      <trkpt lat="42.5638370" lon="-6.6336660">
        <ele>513.5</ele>
        <time>2014-10-02T16:51:22Z</time>
      </trkpt>
      <trkpt lat="42.5637970" lon="-6.6335800">
        <ele>513.5</ele>
        <time>2014-10-02T16:51:23Z</time>
      </trkpt>
      <trkpt lat="42.5637580" lon="-6.6334960">
        <ele>513.5</ele>
        <time>2014-10-02T16:51:24Z</time>
      </trkpt>
      <trkpt lat="42.5637210" lon="-6.6334110">
        <ele>513.6</ele>
        <time>2014-10-02T16:51:25Z</time>
      </trkpt>
      <trkpt lat="42.5636820" lon="-6.6333240">
        <ele>513.6</ele>
        <time>2014-10-02T16:51:26Z</time>
      </trkpt>
      <trkpt lat="42.5636420" lon="-6.6332390">
        <ele>513.7</ele>
        <time>2014-10-02T16:51:27Z</time>
      </trkpt>
      <trkpt lat="42.5636060" lon="-6.6331600">
        <ele>513.8</ele>
        <time>2014-10-02T16:51:28Z</time>
      </trkpt>
      <trkpt lat="42.5635680" lon="-6.6330780">
        <ele>513.8</ele>
        <time>2014-10-02T16:51:29Z</time>
      </trkpt>
      <trkpt lat="42.5635310" lon="-6.6330000">
        <ele>513.9</ele>
        <time>2014-10-02T16:51:30Z</time>
      </trkpt>
      <trkpt lat="42.5634930" lon="-6.6329180">
        <ele>514.0</ele>
        <time>2014-10-02T16:51:31Z</time>
      </trkpt>
      <trkpt lat="42.5634580" lon="-6.6328490">
        <ele>514.0</ele>
        <time>2014-10-02T16:51:32Z</time>
      </trkpt>
      <trkpt lat="42.5634200" lon="-6.6327720">
        <ele>514.1</ele>
        <time>2014-10-02T16:51:33Z</time>
      </trkpt>
      <trkpt lat="42.5633810" lon="-6.6326880">
        <ele>514.1</ele>
        <time>2014-10-02T16:51:34Z</time>
      </trkpt>
      <trkpt lat="42.5633440" lon="-6.6326060">
        <ele>514.2</ele>
        <time>2014-10-02T16:51:35Z</time>
      </trkpt>
      <trkpt lat="42.5633070" lon="-6.6325200">
        <ele>514.3</ele>
        <time>2014-10-02T16:51:36Z</time>
      </trkpt>
      <trkpt lat="42.5632710" lon="-6.6324300">
        <ele>514.4</ele>
        <time>2014-10-02T16:51:37Z</time>
      </trkpt>
      <trkpt lat="42.5632340" lon="-6.6323420">
        <ele>514.5</ele>
        <time>2014-10-02T16:51:38Z</time>
      </trkpt>
      <trkpt lat="42.5631970" lon="-6.6322590">
        <ele>514.5</ele>
        <time>2014-10-02T16:51:39Z</time>
      </trkpt>
      <trkpt lat="42.5631620" lon="-6.6321860">
        <ele>514.5</ele>
        <time>2014-10-02T16:51:40Z</time>
      </trkpt>
      <trkpt lat="42.5631280" lon="-6.6321060">
        <ele>514.6</ele>
        <time>2014-10-02T16:51:41Z</time>
      </trkpt>
      <trkpt lat="42.5630950" lon="-6.6320250">
        <ele>514.6</ele>
        <time>2014-10-02T16:51:42Z</time>
      </trkpt>
      <trkpt lat="42.5630600" lon="-6.6319400">
        <ele>514.6</ele>
        <time>2014-10-02T16:51:43Z</time>
      </trkpt>
      <trkpt lat="42.5630270" lon="-6.6318560">
        <ele>514.6</ele>
        <time>2014-10-02T16:51:44Z</time>
      </trkpt>
      <trkpt lat="42.5629950" lon="-6.6317740">
        <ele>514.7</ele>
        <time>2014-10-02T16:51:45Z</time>
      </trkpt>
      <trkpt lat="42.5629640" lon="-6.6316970">
        <ele>514.7</ele>
        <time>2014-10-02T16:51:46Z</time>
      </trkpt>
      <trkpt lat="42.5629320" lon="-6.6316220">
        <ele>514.7</ele>
        <time>2014-10-02T16:51:47Z</time>
      </trkpt>
      <trkpt lat="42.5629000" lon="-6.6315470">
        <ele>514.7</ele>
        <time>2014-10-02T16:51:48Z</time>
      </trkpt>
      <trkpt lat="42.5628690" lon="-6.6314710">
        <ele>514.8</ele>
        <time>2014-10-02T16:51:49Z</time>
      </trkpt>
      <trkpt lat="42.5628400" lon="-6.6313990">
        <ele>514.8</ele>
        <time>2014-10-02T16:51:50Z</time>
      </trkpt>
      <trkpt lat="42.5628100" lon="-6.6313230">
        <ele>514.9</ele>
        <time>2014-10-02T16:51:51Z</time>
      </trkpt>
      <trkpt lat="42.5627790" lon="-6.6312460">
        <ele>514.9</ele>
        <time>2014-10-02T16:51:52Z</time>
      </trkpt>
      <trkpt lat="42.5627440" lon="-6.6311680">
        <ele>515.0</ele>
        <time>2014-10-02T16:51:53Z</time>
      </trkpt>
      <trkpt lat="42.5627110" lon="-6.6310950">
        <ele>515.1</ele>
        <time>2014-10-02T16:51:54Z</time>
      </trkpt>
      <trkpt lat="42.5626720" lon="-6.6310100">
        <ele>515.1</ele>
        <time>2014-10-02T16:51:55Z</time>
      </trkpt>
      <trkpt lat="42.5626350" lon="-6.6309320">
        <ele>515.2</ele>
        <time>2014-10-02T16:51:56Z</time>
      </trkpt>
      <trkpt lat="42.5626000" lon="-6.6308530">
        <ele>515.3</ele>
        <time>2014-10-02T16:51:57Z</time>
      </trkpt>
      <trkpt lat="42.5625650" lon="-6.6307750">
        <ele>515.4</ele>
        <time>2014-10-02T16:51:58Z</time>
      </trkpt>
      <trkpt lat="42.5625300" lon="-6.6306950">
        <ele>515.6</ele>
        <time>2014-10-02T16:51:59Z</time>
      </trkpt>
      <trkpt lat="42.5624990" lon="-6.6306180">
        <ele>515.6</ele>
        <time>2014-10-02T16:52:00Z</time>
      </trkpt>
      <trkpt lat="42.5624680" lon="-6.6305420">
        <ele>515.7</ele>
        <time>2014-10-02T16:52:01Z</time>
      </trkpt>
      <trkpt lat="42.5624360" lon="-6.6304660">
        <ele>515.8</ele>
        <time>2014-10-02T16:52:02Z</time>
      </trkpt>
      <trkpt lat="42.5624000" lon="-6.6303870">
        <ele>515.9</ele>
        <time>2014-10-02T16:52:03Z</time>
      </trkpt>
      <trkpt lat="42.5623610" lon="-6.6303050">
        <ele>515.9</ele>
        <time>2014-10-02T16:52:04Z</time>
      </trkpt>
      <trkpt lat="42.5623250" lon="-6.6302250">
        <ele>516.0</ele>
        <time>2014-10-02T16:52:05Z</time>
      </trkpt>
      <trkpt lat="42.5622900" lon="-6.6301490">
        <ele>516.2</ele>
        <time>2014-10-02T16:52:06Z</time>
      </trkpt>
      <trkpt lat="42.5622540" lon="-6.6300740">
        <ele>516.4</ele>
        <time>2014-10-02T16:52:07Z</time>
      </trkpt>
      <trkpt lat="42.5622210" lon="-6.6300010">
        <ele>516.5</ele>
        <time>2014-10-02T16:52:08Z</time>
      </trkpt>
      <trkpt lat="42.5621880" lon="-6.6299290">
        <ele>516.6</ele>
        <time>2014-10-02T16:52:09Z</time>
      </trkpt>
      <trkpt lat="42.5621520" lon="-6.6298490">
        <ele>516.6</ele>
        <time>2014-10-02T16:52:10Z</time>
      </trkpt>
      <trkpt lat="42.5621200" lon="-6.6297770">
        <ele>516.5</ele>
        <time>2014-10-02T16:52:11Z</time>
      </trkpt>
      <trkpt lat="42.5620850" lon="-6.6297020">
        <ele>516.5</ele>
        <time>2014-10-02T16:52:12Z</time>
      </trkpt>
      <trkpt lat="42.5620530" lon="-6.6296300">
        <ele>516.4</ele>
        <time>2014-10-02T16:52:13Z</time>
      </trkpt>
      <trkpt lat="42.5620170" lon="-6.6295480">
        <ele>516.4</ele>
        <time>2014-10-02T16:52:14Z</time>
      </trkpt>
      <trkpt lat="42.5619830" lon="-6.6294720">
        <ele>516.4</ele>
        <time>2014-10-02T16:52:15Z</time>
      </trkpt>
      <trkpt lat="42.5619500" lon="-6.6293950">
        <ele>516.3</ele>
        <time>2014-10-02T16:52:16Z</time>
      </trkpt>
      <trkpt lat="42.5619170" lon="-6.6293160">
        <ele>516.3</ele>
        <time>2014-10-02T16:52:17Z</time>
      </trkpt>
      <trkpt lat="42.5618820" lon="-6.6292350">
        <ele>516.4</ele>
        <time>2014-10-02T16:52:18Z</time>
      </trkpt>
      <trkpt lat="42.5618480" lon="-6.6291510">
        <ele>516.4</ele>
        <time>2014-10-02T16:52:19Z</time>
      </trkpt>
      <trkpt lat="42.5618140" lon="-6.6290710">
        <ele>516.5</ele>
        <time>2014-10-02T16:52:20Z</time>
      </trkpt>
      <trkpt lat="42.5617790" lon="-6.6289920">
        <ele>516.5</ele>
        <time>2014-10-02T16:52:21Z</time>
      </trkpt>
      <trkpt lat="42.5617430" lon="-6.6289100">
        <ele>516.6</ele>
        <time>2014-10-02T16:52:22Z</time>
      </trkpt>
      <trkpt lat="42.5617090" lon="-6.6288320">
        <ele>516.6</ele>
        <time>2014-10-02T16:52:23Z</time>
      </trkpt>
      <trkpt lat="42.5616750" lon="-6.6287500">
        <ele>516.6</ele>
        <time>2014-10-02T16:52:24Z</time>
      </trkpt>
      <trkpt lat="42.5616400" lon="-6.6286690">
        <ele>516.6</ele>
        <time>2014-10-02T16:52:25Z</time>
      </trkpt>
      <trkpt lat="42.5616060" lon="-6.6285930">
        <ele>516.6</ele>
        <time>2014-10-02T16:52:26Z</time>
      </trkpt>
      <trkpt lat="42.5615700" lon="-6.6285140">
        <ele>516.6</ele>
        <time>2014-10-02T16:52:27Z</time>
      </trkpt>
      <trkpt lat="42.5615300" lon="-6.6284300">
        <ele>516.6</ele>
        <time>2014-10-02T16:52:28Z</time>
      </trkpt>
      <trkpt lat="42.5614920" lon="-6.6283480">
        <ele>516.7</ele>
        <time>2014-10-02T16:52:29Z</time>
      </trkpt>
      <trkpt lat="42.5614540" lon="-6.6282730">
        <ele>516.7</ele>
        <time>2014-10-02T16:52:30Z</time>
      </trkpt>
      <trkpt lat="42.5614170" lon="-6.6282000">
        <ele>516.7</ele>
        <time>2014-10-02T16:52:31Z</time>
      </trkpt>
      <trkpt lat="42.5613800" lon="-6.6281240">
        <ele>516.8</ele>
        <time>2014-10-02T16:52:32Z</time>
      </trkpt>
      <trkpt lat="42.5613450" lon="-6.6280470">
        <ele>516.9</ele>
        <time>2014-10-02T16:52:33Z</time>
      </trkpt>
      <trkpt lat="42.5613090" lon="-6.6279660">
        <ele>516.9</ele>
        <time>2014-10-02T16:52:34Z</time>
      </trkpt>
      <trkpt lat="42.5612750" lon="-6.6278920">
        <ele>517.0</ele>
        <time>2014-10-02T16:52:35Z</time>
      </trkpt>
      <trkpt lat="42.5612430" lon="-6.6278210">
        <ele>517.1</ele>
        <time>2014-10-02T16:52:36Z</time>
      </trkpt>
      <trkpt lat="42.5612090" lon="-6.6277450">
        <ele>517.1</ele>
        <time>2014-10-02T16:52:37Z</time>
      </trkpt>
      <trkpt lat="42.5611750" lon="-6.6276670">
        <ele>517.2</ele>
        <time>2014-10-02T16:52:38Z</time>
      </trkpt>
      <trkpt lat="42.5611390" lon="-6.6275850">
        <ele>517.3</ele>
        <time>2014-10-02T16:52:39Z</time>
      </trkpt>
      <trkpt lat="42.5611030" lon="-6.6275030">
        <ele>517.3</ele>
        <time>2014-10-02T16:52:40Z</time>
      </trkpt>
      <trkpt lat="42.5610680" lon="-6.6274220">
        <ele>517.3</ele>
        <time>2014-10-02T16:52:41Z</time>
      </trkpt>
      <trkpt lat="42.5610340" lon="-6.6273440">
        <ele>517.4</ele>
        <time>2014-10-02T16:52:42Z</time>
      </trkpt>
      <trkpt lat="42.5610010" lon="-6.6272710">
        <ele>517.4</ele>
        <time>2014-10-02T16:52:43Z</time>
      </trkpt>
      <trkpt lat="42.5609700" lon="-6.6271980">
        <ele>517.5</ele>
        <time>2014-10-02T16:52:44Z</time>
      </trkpt>
      <trkpt lat="42.5609370" lon="-6.6271210">
        <ele>517.5</ele>
        <time>2014-10-02T16:52:45Z</time>
      </trkpt>
      <trkpt lat="42.5609050" lon="-6.6270430">
        <ele>517.6</ele>
        <time>2014-10-02T16:52:46Z</time>
      </trkpt>
      <trkpt lat="42.5608750" lon="-6.6269710">
        <ele>517.6</ele>
        <time>2014-10-02T16:52:47Z</time>
      </trkpt>
      <trkpt lat="42.5608390" lon="-6.6268920">
        <ele>517.7</ele>
        <time>2014-10-02T16:52:48Z</time>
      </trkpt>
      <trkpt lat="42.5608050" lon="-6.6268100">
        <ele>517.7</ele>
        <time>2014-10-02T16:52:49Z</time>
      </trkpt>
      <trkpt lat="42.5607680" lon="-6.6267210">
        <ele>517.7</ele>
        <time>2014-10-02T16:52:50Z</time>
      </trkpt>
      <trkpt lat="42.5607320" lon="-6.6266390">
        <ele>517.8</ele>
        <time>2014-10-02T16:52:51Z</time>
      </trkpt>
      <trkpt lat="42.5606970" lon="-6.6265590">
        <ele>517.8</ele>
        <time>2014-10-02T16:52:52Z</time>
      </trkpt>
      <trkpt lat="42.5606640" lon="-6.6264820">
        <ele>517.8</ele>
        <time>2014-10-02T16:52:53Z</time>
      </trkpt>
      <trkpt lat="42.5606280" lon="-6.6264030">
        <ele>517.8</ele>
        <time>2014-10-02T16:52:54Z</time>
      </trkpt>
      <trkpt lat="42.5605920" lon="-6.6263240">
        <ele>517.8</ele>
        <time>2014-10-02T16:52:55Z</time>
      </trkpt>
      <trkpt lat="42.5605610" lon="-6.6262530">
        <ele>517.8</ele>
        <time>2014-10-02T16:52:56Z</time>
      </trkpt>
      <trkpt lat="42.5605300" lon="-6.6261810">
        <ele>517.8</ele>
        <time>2014-10-02T16:52:57Z</time>
      </trkpt>
      <trkpt lat="42.5604990" lon="-6.6261110">
        <ele>517.8</ele>
        <time>2014-10-02T16:52:58Z</time>
      </trkpt>
      <trkpt lat="42.5604700" lon="-6.6260440">
        <ele>517.9</ele>
        <time>2014-10-02T16:52:59Z</time>
      </trkpt>
      <trkpt lat="42.5604380" lon="-6.6259700">
        <ele>517.9</ele>
        <time>2014-10-02T16:53:00Z</time>
      </trkpt>
      <trkpt lat="42.5604070" lon="-6.6258990">
        <ele>518.0</ele>
        <time>2014-10-02T16:53:01Z</time>
      </trkpt>
      <trkpt lat="42.5603800" lon="-6.6258350">
        <ele>518.0</ele>
        <time>2014-10-02T16:53:02Z</time>
      </trkpt>
      <trkpt lat="42.5603510" lon="-6.6257760">
        <ele>518.1</ele>
        <time>2014-10-02T16:53:03Z</time>
      </trkpt>
      <trkpt lat="42.5603200" lon="-6.6257190">
        <ele>518.1</ele>
        <time>2014-10-02T16:53:04Z</time>
      </trkpt>
      <trkpt lat="42.5602870" lon="-6.6256650">
        <ele>518.2</ele>
        <time>2014-10-02T16:53:05Z</time>
      </trkpt>
      <trkpt lat="42.5602570" lon="-6.6256110">
        <ele>518.3</ele>
        <time>2014-10-02T16:53:06Z</time>
      </trkpt>
      <trkpt lat="42.5602300" lon="-6.6255610">
        <ele>518.3</ele>
        <time>2014-10-02T16:53:07Z</time>
      </trkpt>
      <trkpt lat="42.5602090" lon="-6.6255100">
        <ele>518.4</ele>
        <time>2014-10-02T16:53:08Z</time>
      </trkpt>
      <trkpt lat="42.5601890" lon="-6.6254580">
        <ele>518.4</ele>
        <time>2014-10-02T16:53:09Z</time>
      </trkpt>
      <trkpt lat="42.5601710" lon="-6.6254080">
        <ele>518.4</ele>
        <time>2014-10-02T16:53:10Z</time>
      </trkpt>
      <trkpt lat="42.5601510" lon="-6.6253640">
        <ele>518.4</ele>
        <time>2014-10-02T16:53:11Z</time>
      </trkpt>
      <trkpt lat="42.5601270" lon="-6.6253100">
        <ele>518.5</ele>
        <time>2014-10-02T16:53:12Z</time>
      </trkpt>
      <trkpt lat="42.5601010" lon="-6.6252550">
        <ele>518.5</ele>
        <time>2014-10-02T16:53:13Z</time>
      </trkpt>
      <trkpt lat="42.5600760" lon="-6.6252020">
        <ele>518.5</ele>
        <time>2014-10-02T16:53:14Z</time>
      </trkpt>
      <trkpt lat="42.5600520" lon="-6.6251460">
        <ele>518.5</ele>
        <time>2014-10-02T16:53:15Z</time>
      </trkpt>
      <trkpt lat="42.5600260" lon="-6.6250850">
        <ele>518.5</ele>
        <time>2014-10-02T16:53:16Z</time>
      </trkpt>
      <trkpt lat="42.5600000" lon="-6.6250200">
        <ele>518.5</ele>
        <time>2014-10-02T16:53:17Z</time>
      </trkpt>
      <trkpt lat="42.5599700" lon="-6.6249520">
        <ele>518.6</ele>
        <time>2014-10-02T16:53:18Z</time>
      </trkpt>
      <trkpt lat="42.5599390" lon="-6.6248810">
        <ele>518.6</ele>
        <time>2014-10-02T16:53:19Z</time>
      </trkpt>
      <trkpt lat="42.5599040" lon="-6.6248040">
        <ele>518.6</ele>
        <time>2014-10-02T16:53:20Z</time>
      </trkpt>
      <trkpt lat="42.5598680" lon="-6.6247230">
        <ele>518.7</ele>
        <time>2014-10-02T16:53:21Z</time>
      </trkpt>
      <trkpt lat="42.5598310" lon="-6.6246400">
        <ele>518.7</ele>
        <time>2014-10-02T16:53:22Z</time>
      </trkpt>
      <trkpt lat="42.5597940" lon="-6.6245550">
        <ele>518.8</ele>
        <time>2014-10-02T16:53:23Z</time>
      </trkpt>
      <trkpt lat="42.5597580" lon="-6.6244710">
        <ele>518.8</ele>
        <time>2014-10-02T16:53:24Z</time>
      </trkpt>
      <trkpt lat="42.5597220" lon="-6.6243950">
        <ele>518.9</ele>
        <time>2014-10-02T16:53:25Z</time>
      </trkpt>
      <trkpt lat="42.5596860" lon="-6.6243170">
        <ele>518.9</ele>
        <time>2014-10-02T16:53:26Z</time>
      </trkpt>
      <trkpt lat="42.5596520" lon="-6.6242390">
        <ele>518.9</ele>
        <time>2014-10-02T16:53:27Z</time>
      </trkpt>
      <trkpt lat="42.5596150" lon="-6.6241640">
        <ele>519.0</ele>
        <time>2014-10-02T16:53:28Z</time>
      </trkpt>
      <trkpt lat="42.5595780" lon="-6.6240850">
        <ele>519.0</ele>
        <time>2014-10-02T16:53:29Z</time>
      </trkpt>
      <trkpt lat="42.5595450" lon="-6.6240080">
        <ele>519.1</ele>
        <time>2014-10-02T16:53:30Z</time>
      </trkpt>
      <trkpt lat="42.5595100" lon="-6.6239290">
        <ele>519.1</ele>
        <time>2014-10-02T16:53:31Z</time>
      </trkpt>
      <trkpt lat="42.5594730" lon="-6.6238500">
        <ele>519.1</ele>
        <time>2014-10-02T16:53:32Z</time>
      </trkpt>
      <trkpt lat="42.5594380" lon="-6.6237720">
        <ele>519.1</ele>
        <time>2014-10-02T16:53:33Z</time>
      </trkpt>
      <trkpt lat="42.5594040" lon="-6.6236930">
        <ele>519.2</ele>
        <time>2014-10-02T16:53:34Z</time>
      </trkpt>
      <trkpt lat="42.5593700" lon="-6.6236130">
        <ele>519.2</ele>
        <time>2014-10-02T16:53:35Z</time>
      </trkpt>
      <trkpt lat="42.5593360" lon="-6.6235330">
        <ele>519.3</ele>
        <time>2014-10-02T16:53:36Z</time>
      </trkpt>
      <trkpt lat="42.5593050" lon="-6.6234510">
        <ele>519.3</ele>
        <time>2014-10-02T16:53:37Z</time>
      </trkpt>
      <trkpt lat="42.5592740" lon="-6.6233680">
        <ele>519.3</ele>
        <time>2014-10-02T16:53:38Z</time>
      </trkpt>
      <trkpt lat="42.5592420" lon="-6.6232900">
        <ele>519.4</ele>
        <time>2014-10-02T16:53:39Z</time>
      </trkpt>
      <trkpt lat="42.5592090" lon="-6.6232180">
        <ele>519.5</ele>
        <time>2014-10-02T16:53:40Z</time>
      </trkpt>
      <trkpt lat="42.5591730" lon="-6.6231550">
        <ele>519.5</ele>
        <time>2014-10-02T16:53:41Z</time>
      </trkpt>
      <trkpt lat="42.5591350" lon="-6.6230880">
        <ele>519.6</ele>
        <time>2014-10-02T16:53:42Z</time>
      </trkpt>
      <trkpt lat="42.5590950" lon="-6.6230130">
        <ele>519.7</ele>
        <time>2014-10-02T16:53:43Z</time>
      </trkpt>
      <trkpt lat="42.5590680" lon="-6.6229340">
        <ele>519.7</ele>
        <time>2014-10-02T16:53:44Z</time>
      </trkpt>
      <trkpt lat="42.5590410" lon="-6.6228570">
        <ele>519.7</ele>
        <time>2014-10-02T16:53:45Z</time>
      </trkpt>
      <trkpt lat="42.5590130" lon="-6.6227790">
        <ele>519.6</ele>
        <time>2014-10-02T16:53:46Z</time>
      </trkpt>
      <trkpt lat="42.5589830" lon="-6.6226970">
        <ele>519.5</ele>
        <time>2014-10-02T16:53:47Z</time>
      </trkpt>
      <trkpt lat="42.5589510" lon="-6.6226110">
        <ele>519.5</ele>
        <time>2014-10-02T16:53:48Z</time>
      </trkpt>
      <trkpt lat="42.5589160" lon="-6.6225310">
        <ele>519.4</ele>
        <time>2014-10-02T16:53:49Z</time>
      </trkpt>
      <trkpt lat="42.5588840" lon="-6.6224560">
        <ele>519.4</ele>
        <time>2014-10-02T16:53:50Z</time>
      </trkpt>
      <trkpt lat="42.5588510" lon="-6.6223810">
        <ele>519.4</ele>
        <time>2014-10-02T16:53:51Z</time>
      </trkpt>
      <trkpt lat="42.5588180" lon="-6.6223030">
        <ele>519.4</ele>
        <time>2014-10-02T16:53:52Z</time>
      </trkpt>
      <trkpt lat="42.5587870" lon="-6.6222310">
        <ele>519.4</ele>
        <time>2014-10-02T16:53:53Z</time>
      </trkpt>
      <trkpt lat="42.5587550" lon="-6.6221560">
        <ele>519.4</ele>
        <time>2014-10-02T16:53:54Z</time>
      </trkpt>
      <trkpt lat="42.5587210" lon="-6.6220760">
        <ele>519.5</ele>
        <time>2014-10-02T16:53:55Z</time>
      </trkpt>
      <trkpt lat="42.5586840" lon="-6.6219910">
        <ele>519.5</ele>
        <time>2014-10-02T16:53:56Z</time>
      </trkpt>
      <trkpt lat="42.5586470" lon="-6.6219040">
        <ele>519.5</ele>
        <time>2014-10-02T16:53:57Z</time>
      </trkpt>
      <trkpt lat="42.5586130" lon="-6.6218190">
        <ele>519.5</ele>
        <time>2014-10-02T16:53:58Z</time>
      </trkpt>
      <trkpt lat="42.5585820" lon="-6.6217410">
        <ele>519.5</ele>
        <time>2014-10-02T16:53:59Z</time>
      </trkpt>
      <trkpt lat="42.5585490" lon="-6.6216640">
        <ele>519.5</ele>
        <time>2014-10-02T16:54:00Z</time>
      </trkpt>
      <trkpt lat="42.5585130" lon="-6.6215840">
        <ele>519.5</ele>
        <time>2014-10-02T16:54:01Z</time>
      </trkpt>
      <trkpt lat="42.5584780" lon="-6.6215040">
        <ele>519.5</ele>
        <time>2014-10-02T16:54:02Z</time>
      </trkpt>
      <trkpt lat="42.5584430" lon="-6.6214250">
        <ele>519.6</ele>
        <time>2014-10-02T16:54:03Z</time>
      </trkpt>
      <trkpt lat="42.5584060" lon="-6.6213450">
        <ele>519.6</ele>
        <time>2014-10-02T16:54:04Z</time>
      </trkpt>
      <trkpt lat="42.5583690" lon="-6.6212630">
        <ele>519.6</ele>
        <time>2014-10-02T16:54:05Z</time>
      </trkpt>
      <trkpt lat="42.5583320" lon="-6.6211810">
        <ele>519.7</ele>
        <time>2014-10-02T16:54:06Z</time>
      </trkpt>
      <trkpt lat="42.5582930" lon="-6.6211000">
        <ele>519.7</ele>
        <time>2014-10-02T16:54:07Z</time>
      </trkpt>
      <trkpt lat="42.5582560" lon="-6.6210230">
        <ele>519.8</ele>
        <time>2014-10-02T16:54:08Z</time>
      </trkpt>
      <trkpt lat="42.5582180" lon="-6.6209470">
        <ele>519.8</ele>
        <time>2014-10-02T16:54:09Z</time>
      </trkpt>
      <trkpt lat="42.5581820" lon="-6.6208700">
        <ele>519.8</ele>
        <time>2014-10-02T16:54:10Z</time>
      </trkpt>
      <trkpt lat="42.5581480" lon="-6.6207960">
        <ele>519.8</ele>
        <time>2014-10-02T16:54:11Z</time>
      </trkpt>
      <trkpt lat="42.5581140" lon="-6.6207250">
        <ele>519.8</ele>
        <time>2014-10-02T16:54:12Z</time>
      </trkpt>
      <trkpt lat="42.5580780" lon="-6.6206560">
        <ele>519.8</ele>
        <time>2014-10-02T16:54:13Z</time>
      </trkpt>
      <trkpt lat="42.5580360" lon="-6.6205750">
        <ele>519.9</ele>
        <time>2014-10-02T16:54:14Z</time>
      </trkpt>
      <trkpt lat="42.5580000" lon="-6.6205020">
        <ele>519.9</ele>
        <time>2014-10-02T16:54:15Z</time>
      </trkpt>
      <trkpt lat="42.5579660" lon="-6.6204220">
        <ele>520.0</ele>
        <time>2014-10-02T16:54:16Z</time>
      </trkpt>
      <trkpt lat="42.5579350" lon="-6.6203480">
        <ele>520.0</ele>
        <time>2014-10-02T16:54:17Z</time>
      </trkpt>
      <trkpt lat="42.5579050" lon="-6.6202700">
        <ele>520.0</ele>
        <time>2014-10-02T16:54:18Z</time>
      </trkpt>
      <trkpt lat="42.5578720" lon="-6.6201880">
        <ele>520.0</ele>
        <time>2014-10-02T16:54:19Z</time>
      </trkpt>
      <trkpt lat="42.5578380" lon="-6.6201070">
        <ele>520.1</ele>
        <time>2014-10-02T16:54:20Z</time>
      </trkpt>
      <trkpt lat="42.5578030" lon="-6.6200260">
        <ele>520.1</ele>
        <time>2014-10-02T16:54:21Z</time>
      </trkpt>
      <trkpt lat="42.5577680" lon="-6.6199440">
        <ele>520.2</ele>
        <time>2014-10-02T16:54:22Z</time>
      </trkpt>
      <trkpt lat="42.5577340" lon="-6.6198660">
        <ele>520.2</ele>
        <time>2014-10-02T16:54:23Z</time>
      </trkpt>
      <trkpt lat="42.5577000" lon="-6.6197840">
        <ele>520.2</ele>
        <time>2014-10-02T16:54:24Z</time>
      </trkpt>
      <trkpt lat="42.5576660" lon="-6.6197000">
        <ele>520.2</ele>
        <time>2014-10-02T16:54:25Z</time>
      </trkpt>
      <trkpt lat="42.5576350" lon="-6.6196210">
        <ele>520.2</ele>
        <time>2014-10-02T16:54:26Z</time>
      </trkpt>
      <trkpt lat="42.5576030" lon="-6.6195420">
        <ele>520.2</ele>
        <time>2014-10-02T16:54:27Z</time>
      </trkpt>
      <trkpt lat="42.5575710" lon="-6.6194690">
        <ele>520.2</ele>
        <time>2014-10-02T16:54:28Z</time>
      </trkpt>
      <trkpt lat="42.5575350" lon="-6.6193910">
        <ele>520.2</ele>
        <time>2014-10-02T16:54:29Z</time>
      </trkpt>
      <trkpt lat="42.5575000" lon="-6.6193130">
        <ele>520.2</ele>
        <time>2014-10-02T16:54:30Z</time>
      </trkpt>
      <trkpt lat="42.5574630" lon="-6.6192300">
        <ele>520.2</ele>
        <time>2014-10-02T16:54:31Z</time>
      </trkpt>
      <trkpt lat="42.5574300" lon="-6.6191500">
        <ele>520.2</ele>
        <time>2014-10-02T16:54:32Z</time>
      </trkpt>
      <trkpt lat="42.5573980" lon="-6.6190760">
        <ele>520.2</ele>
        <time>2014-10-02T16:54:33Z</time>
      </trkpt>
      <trkpt lat="42.5573620" lon="-6.6189950">
        <ele>520.3</ele>
        <time>2014-10-02T16:54:34Z</time>
      </trkpt>
      <trkpt lat="42.5573280" lon="-6.6189170">
        <ele>520.3</ele>
        <time>2014-10-02T16:54:35Z</time>
      </trkpt>
      <trkpt lat="42.5572970" lon="-6.6188410">
        <ele>520.3</ele>
        <time>2014-10-02T16:54:36Z</time>
      </trkpt>
      <trkpt lat="42.5572610" lon="-6.6187560">
        <ele>520.3</ele>
        <time>2014-10-02T16:54:37Z</time>
      </trkpt>
      <trkpt lat="42.5572280" lon="-6.6186800">
        <ele>520.3</ele>
        <time>2014-10-02T16:54:38Z</time>
      </trkpt>
      <trkpt lat="42.5571940" lon="-6.6186010">
        <ele>520.4</ele>
        <time>2014-10-02T16:54:39Z</time>
      </trkpt>
      <trkpt lat="42.5571590" lon="-6.6185210">
        <ele>520.4</ele>
        <time>2014-10-02T16:54:40Z</time>
      </trkpt>
      <trkpt lat="42.5571230" lon="-6.6184370">
        <ele>520.4</ele>
        <time>2014-10-02T16:54:41Z</time>
      </trkpt>
      <trkpt lat="42.5570880" lon="-6.6183540">
        <ele>520.4</ele>
        <time>2014-10-02T16:54:42Z</time>
      </trkpt>
      <trkpt lat="42.5570540" lon="-6.6182730">
        <ele>520.4</ele>
        <time>2014-10-02T16:54:43Z</time>
      </trkpt>
      <trkpt lat="42.5570160" lon="-6.6181890">
        <ele>520.5</ele>
        <time>2014-10-02T16:54:44Z</time>
      </trkpt>
      <trkpt lat="42.5569790" lon="-6.6181110">
        <ele>520.5</ele>
        <time>2014-10-02T16:54:45Z</time>
      </trkpt>
      <trkpt lat="42.5569410" lon="-6.6180330">
        <ele>520.5</ele>
        <time>2014-10-02T16:54:46Z</time>
      </trkpt>
      <trkpt lat="42.5568990" lon="-6.6179460">
        <ele>520.6</ele>
        <time>2014-10-02T16:54:47Z</time>
      </trkpt>
      <trkpt lat="42.5568610" lon="-6.6178700">
        <ele>520.6</ele>
        <time>2014-10-02T16:54:48Z</time>
      </trkpt>
      <trkpt lat="42.5568260" lon="-6.6177920">
        <ele>520.7</ele>
        <time>2014-10-02T16:54:49Z</time>
      </trkpt>
      <trkpt lat="42.5567870" lon="-6.6177090">
        <ele>520.7</ele>
        <time>2014-10-02T16:54:50Z</time>
      </trkpt>
      <trkpt lat="42.5567510" lon="-6.6176270">
        <ele>520.6</ele>
        <time>2014-10-02T16:54:51Z</time>
      </trkpt>
      <trkpt lat="42.5567150" lon="-6.6175460">
        <ele>520.5</ele>
        <time>2014-10-02T16:54:52Z</time>
      </trkpt>
      <trkpt lat="42.5566810" lon="-6.6174680">
        <ele>520.4</ele>
        <time>2014-10-02T16:54:53Z</time>
      </trkpt>
      <trkpt lat="42.5566480" lon="-6.6173930">
        <ele>520.4</ele>
        <time>2014-10-02T16:54:54Z</time>
      </trkpt>
      <trkpt lat="42.5566130" lon="-6.6173110">
        <ele>520.3</ele>
        <time>2014-10-02T16:54:55Z</time>
      </trkpt>
      <trkpt lat="42.5565780" lon="-6.6172300">
        <ele>520.3</ele>
        <time>2014-10-02T16:54:56Z</time>
      </trkpt>
      <trkpt lat="42.5565430" lon="-6.6171470">
        <ele>520.3</ele>
        <time>2014-10-02T16:54:57Z</time>
      </trkpt>
      <trkpt lat="42.5565070" lon="-6.6170620">
        <ele>520.2</ele>
        <time>2014-10-02T16:54:58Z</time>
      </trkpt>
      <trkpt lat="42.5564700" lon="-6.6169760">
        <ele>520.2</ele>
        <time>2014-10-02T16:54:59Z</time>
      </trkpt>
      <trkpt lat="42.5564330" lon="-6.6168950">
        <ele>520.2</ele>
        <time>2014-10-02T16:55:00Z</time>
      </trkpt>
      <trkpt lat="42.5563990" lon="-6.6168210">
        <ele>520.2</ele>
        <time>2014-10-02T16:55:01Z</time>
      </trkpt>
      <trkpt lat="42.5563610" lon="-6.6167400">
        <ele>520.2</ele>
        <time>2014-10-02T16:55:02Z</time>
      </trkpt>
      <trkpt lat="42.5563250" lon="-6.6166620">
        <ele>520.2</ele>
        <time>2014-10-02T16:55:03Z</time>
      </trkpt>
      <trkpt lat="42.5562900" lon="-6.6165860">
        <ele>520.2</ele>
        <time>2014-10-02T16:55:04Z</time>
      </trkpt>
      <trkpt lat="42.5562540" lon="-6.6165110">
        <ele>520.3</ele>
        <time>2014-10-02T16:55:05Z</time>
      </trkpt>
      <trkpt lat="42.5562130" lon="-6.6164330">
        <ele>520.3</ele>
        <time>2014-10-02T16:55:06Z</time>
      </trkpt>
      <trkpt lat="42.5561660" lon="-6.6163580">
        <ele>520.4</ele>
        <time>2014-10-02T16:55:07Z</time>
      </trkpt>
      <trkpt lat="42.5561190" lon="-6.6162900">
        <ele>520.5</ele>
        <time>2014-10-02T16:55:08Z</time>
      </trkpt>
      <trkpt lat="42.5560720" lon="-6.6162240">
        <ele>520.9</ele>
        <time>2014-10-02T16:55:09Z</time>
      </trkpt>
      <trkpt lat="42.5560280" lon="-6.6161550">
        <ele>520.9</ele>
        <time>2014-10-02T16:55:10Z</time>
      </trkpt>
      <trkpt lat="42.5560060" lon="-6.6160760">
        <ele>520.8</ele>
        <time>2014-10-02T16:55:11Z</time>
      </trkpt>
      <trkpt lat="42.5559860" lon="-6.6160010">
        <ele>520.7</ele>
        <time>2014-10-02T16:55:12Z</time>
      </trkpt>
      <trkpt lat="42.5559660" lon="-6.6159190">
        <ele>520.6</ele>
        <time>2014-10-02T16:55:13Z</time>
      </trkpt>
      <trkpt lat="42.5559450" lon="-6.6158360">
        <ele>520.6</ele>
        <time>2014-10-02T16:55:14Z</time>
      </trkpt>
      <trkpt lat="42.5559200" lon="-6.6157530">
        <ele>520.5</ele>
        <time>2014-10-02T16:55:15Z</time>
      </trkpt>
      <trkpt lat="42.5558900" lon="-6.6156680">
        <ele>520.5</ele>
        <time>2014-10-02T16:55:16Z</time>
      </trkpt>
      <trkpt lat="42.5558570" lon="-6.6155830">
        <ele>520.5</ele>
        <time>2014-10-02T16:55:17Z</time>
      </trkpt>
      <trkpt lat="42.5558200" lon="-6.6154970">
        <ele>520.4</ele>
        <time>2014-10-02T16:55:18Z</time>
      </trkpt>
      <trkpt lat="42.5557800" lon="-6.6154110">
        <ele>520.4</ele>
        <time>2014-10-02T16:55:19Z</time>
      </trkpt>
      <trkpt lat="42.5557400" lon="-6.6153280">
        <ele>520.4</ele>
        <time>2014-10-02T16:55:20Z</time>
      </trkpt>
      <trkpt lat="42.5557000" lon="-6.6152510">
        <ele>520.4</ele>
        <time>2014-10-02T16:55:21Z</time>
      </trkpt>
      <trkpt lat="42.5556600" lon="-6.6151740">
        <ele>520.4</ele>
        <time>2014-10-02T16:55:22Z</time>
      </trkpt>
      <trkpt lat="42.5556200" lon="-6.6150940">
        <ele>520.4</ele>
        <time>2014-10-02T16:55:23Z</time>
      </trkpt>
      <trkpt lat="42.5555810" lon="-6.6150170">
        <ele>520.4</ele>
        <time>2014-10-02T16:55:24Z</time>
      </trkpt>
      <trkpt lat="42.5555410" lon="-6.6149370">
        <ele>520.4</ele>
        <time>2014-10-02T16:55:25Z</time>
      </trkpt>
      <trkpt lat="42.5555010" lon="-6.6148550">
        <ele>520.5</ele>
        <time>2014-10-02T16:55:26Z</time>
      </trkpt>
      <trkpt lat="42.5554590" lon="-6.6147700">
        <ele>520.5</ele>
        <time>2014-10-02T16:55:27Z</time>
      </trkpt>
      <trkpt lat="42.5554190" lon="-6.6146850">
        <ele>520.5</ele>
        <time>2014-10-02T16:55:28Z</time>
      </trkpt>
      <trkpt lat="42.5553790" lon="-6.6146020">
        <ele>520.5</ele>
        <time>2014-10-02T16:55:29Z</time>
      </trkpt>
      <trkpt lat="42.5553410" lon="-6.6145180">
        <ele>520.5</ele>
        <time>2014-10-02T16:55:30Z</time>
      </trkpt>
      <trkpt lat="42.5553030" lon="-6.6144290">
        <ele>520.5</ele>
        <time>2014-10-02T16:55:31Z</time>
      </trkpt>
      <trkpt lat="42.5552640" lon="-6.6143380">
        <ele>520.6</ele>
        <time>2014-10-02T16:55:32Z</time>
      </trkpt>
      <trkpt lat="42.5552270" lon="-6.6142520">
        <ele>520.6</ele>
        <time>2014-10-02T16:55:33Z</time>
      </trkpt>
      <trkpt lat="42.5551900" lon="-6.6141680">
        <ele>520.7</ele>
        <time>2014-10-02T16:55:34Z</time>
      </trkpt>
      <trkpt lat="42.5551520" lon="-6.6140800">
        <ele>520.7</ele>
        <time>2014-10-02T16:55:35Z</time>
      </trkpt>
      <trkpt lat="42.5551130" lon="-6.6139930">
        <ele>520.8</ele>
        <time>2014-10-02T16:55:36Z</time>
      </trkpt>
      <trkpt lat="42.5550760" lon="-6.6139080">
        <ele>520.8</ele>
        <time>2014-10-02T16:55:37Z</time>
      </trkpt>
      <trkpt lat="42.5550390" lon="-6.6138250">
        <ele>521.0</ele>
        <time>2014-10-02T16:55:38Z</time>
      </trkpt>
      <trkpt lat="42.5549990" lon="-6.6137370">
        <ele>521.0</ele>
        <time>2014-10-02T16:55:39Z</time>
      </trkpt>
      <trkpt lat="42.5549610" lon="-6.6136520">
        <ele>521.0</ele>
        <time>2014-10-02T16:55:40Z</time>
      </trkpt>
      <trkpt lat="42.5549210" lon="-6.6135620">
        <ele>521.0</ele>
        <time>2014-10-02T16:55:41Z</time>
      </trkpt>
      <trkpt lat="42.5548820" lon="-6.6134740">
        <ele>521.0</ele>
        <time>2014-10-02T16:55:42Z</time>
      </trkpt>
      <trkpt lat="42.5548460" lon="-6.6133910">
        <ele>521.1</ele>
        <time>2014-10-02T16:55:43Z</time>
      </trkpt>
      <trkpt lat="42.5548080" lon="-6.6133040">
        <ele>521.1</ele>
        <time>2014-10-02T16:55:44Z</time>
      </trkpt>
      <trkpt lat="42.5547680" lon="-6.6132170">
        <ele>521.1</ele>
        <time>2014-10-02T16:55:45Z</time>
      </trkpt>
      <trkpt lat="42.5547300" lon="-6.6131310">
        <ele>521.2</ele>
        <time>2014-10-02T16:55:46Z</time>
      </trkpt>
      <trkpt lat="42.5546900" lon="-6.6130410">
        <ele>521.2</ele>
        <time>2014-10-02T16:55:47Z</time>
      </trkpt>
      <trkpt lat="42.5546480" lon="-6.6129500">
        <ele>521.2</ele>
        <time>2014-10-02T16:55:48Z</time>
      </trkpt>
      <trkpt lat="42.5546050" lon="-6.6128550">
        <ele>521.2</ele>
        <time>2014-10-02T16:55:49Z</time>
      </trkpt>
      <trkpt lat="42.5545640" lon="-6.6127620">
        <ele>521.2</ele>
        <time>2014-10-02T16:55:50Z</time>
      </trkpt>
      <trkpt lat="42.5545240" lon="-6.6126710">
        <ele>521.1</ele>
        <time>2014-10-02T16:55:51Z</time>
      </trkpt>
      <trkpt lat="42.5544860" lon="-6.6125850">
        <ele>521.1</ele>
        <time>2014-10-02T16:55:52Z</time>
      </trkpt>
      <trkpt lat="42.5544500" lon="-6.6125010">
        <ele>521.1</ele>
        <time>2014-10-02T16:55:53Z</time>
      </trkpt>
      <trkpt lat="42.5544110" lon="-6.6124150">
        <ele>521.1</ele>
        <time>2014-10-02T16:55:54Z</time>
      </trkpt>
      <trkpt lat="42.5543690" lon="-6.6123280">
        <ele>521.1</ele>
        <time>2014-10-02T16:55:55Z</time>
      </trkpt>
      <trkpt lat="42.5543300" lon="-6.6122450">
        <ele>521.1</ele>
        <time>2014-10-02T16:55:56Z</time>
      </trkpt>
      <trkpt lat="42.5542940" lon="-6.6121680">
        <ele>521.0</ele>
        <time>2014-10-02T16:55:57Z</time>
      </trkpt>
      <trkpt lat="42.5542570" lon="-6.6120900">
        <ele>521.0</ele>
        <time>2014-10-02T16:55:58Z</time>
      </trkpt>
      <trkpt lat="42.5542220" lon="-6.6120150">
        <ele>520.9</ele>
        <time>2014-10-02T16:55:59Z</time>
      </trkpt>
      <trkpt lat="42.5541840" lon="-6.6119350">
        <ele>520.8</ele>
        <time>2014-10-02T16:56:00Z</time>
      </trkpt>
      <trkpt lat="42.5541450" lon="-6.6118590">
        <ele>520.8</ele>
        <time>2014-10-02T16:56:01Z</time>
      </trkpt>
      <trkpt lat="42.5541020" lon="-6.6117780">
        <ele>520.6</ele>
        <time>2014-10-02T16:56:02Z</time>
      </trkpt>
      <trkpt lat="42.5540650" lon="-6.6117060">
        <ele>520.5</ele>
        <time>2014-10-02T16:56:03Z</time>
      </trkpt>
      <trkpt lat="42.5540280" lon="-6.6116270">
        <ele>520.4</ele>
        <time>2014-10-02T16:56:04Z</time>
      </trkpt>
      <trkpt lat="42.5539950" lon="-6.6115580">
        <ele>520.2</ele>
        <time>2014-10-02T16:56:05Z</time>
      </trkpt>
      <trkpt lat="42.5539640" lon="-6.6114900">
        <ele>520.2</ele>
        <time>2014-10-02T16:56:06Z</time>
      </trkpt>
      <trkpt lat="42.5539350" lon="-6.6114160">
        <ele>520.1</ele>
        <time>2014-10-02T16:56:07Z</time>
      </trkpt>
      <trkpt lat="42.5539040" lon="-6.6113390">
        <ele>519.9</ele>
        <time>2014-10-02T16:56:08Z</time>
      </trkpt>
      <trkpt lat="42.5538720" lon="-6.6112620">
        <ele>519.7</ele>
        <time>2014-10-02T16:56:09Z</time>
      </trkpt>
      <trkpt lat="42.5538400" lon="-6.6111870">
        <ele>519.5</ele>
        <time>2014-10-02T16:56:10Z</time>
      </trkpt>
      <trkpt lat="42.5538020" lon="-6.6111120">
        <ele>519.3</ele>
        <time>2014-10-02T16:56:11Z</time>
      </trkpt>
      <trkpt lat="42.5537450" lon="-6.6110510">
        <ele>519.0</ele>
        <time>2014-10-02T16:56:12Z</time>
      </trkpt>
      <trkpt lat="42.5536830" lon="-6.6109880">
        <ele>518.7</ele>
        <time>2014-10-02T16:56:13Z</time>
      </trkpt>
      <trkpt lat="42.5536250" lon="-6.6109250">
        <ele>518.6</ele>
        <time>2014-10-02T16:56:14Z</time>
      </trkpt>
      <trkpt lat="42.5535850" lon="-6.6108400">
        <ele>518.6</ele>
        <time>2014-10-02T16:56:15Z</time>
      </trkpt>
      <trkpt lat="42.5535510" lon="-6.6107540">
        <ele>518.5</ele>
        <time>2014-10-02T16:56:16Z</time>
      </trkpt>
      <trkpt lat="42.5535240" lon="-6.6106680">
        <ele>518.6</ele>
        <time>2014-10-02T16:56:17Z</time>
      </trkpt>
      <trkpt lat="42.5534960" lon="-6.6105780">
        <ele>518.8</ele>
        <time>2014-10-02T16:56:18Z</time>
      </trkpt>
      <trkpt lat="42.5534650" lon="-6.6104910">
        <ele>518.7</ele>
        <time>2014-10-02T16:56:19Z</time>
      </trkpt>
      <trkpt lat="42.5534260" lon="-6.6103920">
        <ele>518.5</ele>
        <time>2014-10-02T16:56:20Z</time>
      </trkpt>
      <trkpt lat="42.5533830" lon="-6.6103010">
        <ele>518.3</ele>
        <time>2014-10-02T16:56:21Z</time>
      </trkpt>
      <trkpt lat="42.5533350" lon="-6.6102080">
        <ele>518.1</ele>
        <time>2014-10-02T16:56:22Z</time>
      </trkpt>
      <trkpt lat="42.5532880" lon="-6.6101160">
        <ele>517.8</ele>
        <time>2014-10-02T16:56:23Z</time>
      </trkpt>
      <trkpt lat="42.5532400" lon="-6.6100250">
        <ele>517.6</ele>
        <time>2014-10-02T16:56:24Z</time>
      </trkpt>
      <trkpt lat="42.5531890" lon="-6.6099260">
        <ele>517.4</ele>
        <time>2014-10-02T16:56:25Z</time>
      </trkpt>
      <trkpt lat="42.5531340" lon="-6.6098220">
        <ele>517.2</ele>
        <time>2014-10-02T16:56:26Z</time>
      </trkpt>
      <trkpt lat="42.5530760" lon="-6.6097140">
        <ele>517.0</ele>
        <time>2014-10-02T16:56:27Z</time>
      </trkpt>
      <trkpt lat="42.5530180" lon="-6.6096070">
        <ele>516.8</ele>
        <time>2014-10-02T16:56:28Z</time>
      </trkpt>
      <trkpt lat="42.5529610" lon="-6.6095040">
        <ele>516.5</ele>
        <time>2014-10-02T16:56:29Z</time>
      </trkpt>
      <trkpt lat="42.5529080" lon="-6.6093990">
        <ele>516.2</ele>
        <time>2014-10-02T16:56:30Z</time>
      </trkpt>
      <trkpt lat="42.5528520" lon="-6.6092900">
        <ele>516.0</ele>
        <time>2014-10-02T16:56:31Z</time>
      </trkpt>
      <trkpt lat="42.5527930" lon="-6.6091780">
        <ele>515.8</ele>
        <time>2014-10-02T16:56:32Z</time>
      </trkpt>
      <trkpt lat="42.5527420" lon="-6.6090750">
        <ele>515.6</ele>
        <time>2014-10-02T16:56:33Z</time>
      </trkpt>
      <trkpt lat="42.5526860" lon="-6.6089660">
        <ele>515.4</ele>
        <time>2014-10-02T16:56:34Z</time>
      </trkpt>
      <trkpt lat="42.5526310" lon="-6.6088560">
        <ele>515.2</ele>
        <time>2014-10-02T16:56:35Z</time>
      </trkpt>
      <trkpt lat="42.5525770" lon="-6.6087520">
        <ele>515.1</ele>
        <time>2014-10-02T16:56:36Z</time>
      </trkpt>
      <trkpt lat="42.5525170" lon="-6.6086380">
        <ele>514.9</ele>
        <time>2014-10-02T16:56:37Z</time>
      </trkpt>
      <trkpt lat="42.5524580" lon="-6.6085250">
        <ele>514.7</ele>
        <time>2014-10-02T16:56:38Z</time>
      </trkpt>
      <trkpt lat="42.5523990" lon="-6.6084140">
        <ele>514.6</ele>
        <time>2014-10-02T16:56:39Z</time>
      </trkpt>
      <trkpt lat="42.5523420" lon="-6.6083070">
        <ele>514.5</ele>
        <time>2014-10-02T16:56:40Z</time>
      </trkpt>
      <trkpt lat="42.5522850" lon="-6.6082010">
        <ele>514.4</ele>
        <time>2014-10-02T16:56:41Z</time>
      </trkpt>
      <trkpt lat="42.5522300" lon="-6.6080990">
        <ele>514.4</ele>
        <time>2014-10-02T16:56:42Z</time>
      </trkpt>
      <trkpt lat="42.5521740" lon="-6.6079950">
        <ele>514.4</ele>
        <time>2014-10-02T16:56:43Z</time>
      </trkpt>
      <trkpt lat="42.5521190" lon="-6.6078950">
        <ele>514.5</ele>
        <time>2014-10-02T16:56:44Z</time>
      </trkpt>
      <trkpt lat="42.5520670" lon="-6.6077980">
        <ele>514.5</ele>
        <time>2014-10-02T16:56:45Z</time>
      </trkpt>
      <trkpt lat="42.5520130" lon="-6.6076970">
        <ele>514.7</ele>
        <time>2014-10-02T16:56:46Z</time>
      </trkpt>
      <trkpt lat="42.5519580" lon="-6.6075910">
        <ele>514.7</ele>
        <time>2014-10-02T16:56:47Z</time>
      </trkpt>
      <trkpt lat="42.5519020" lon="-6.6074900">
        <ele>514.8</ele>
        <time>2014-10-02T16:56:48Z</time>
      </trkpt>
      <trkpt lat="42.5518460" lon="-6.6073890">
        <ele>514.8</ele>
        <time>2014-10-02T16:56:49Z</time>
      </trkpt>
      <trkpt lat="42.5517960" lon="-6.6072980">
        <ele>514.9</ele>
        <time>2014-10-02T16:56:50Z</time>
      </trkpt>
      <trkpt lat="42.5517460" lon="-6.6072040">
        <ele>514.9</ele>
        <time>2014-10-02T16:56:51Z</time>
      </trkpt>
      <trkpt lat="42.5516970" lon="-6.6071110">
        <ele>515.0</ele>
        <time>2014-10-02T16:56:52Z</time>
      </trkpt>
      <trkpt lat="42.5516520" lon="-6.6070220">
        <ele>515.1</ele>
        <time>2014-10-02T16:56:53Z</time>
      </trkpt>
      <trkpt lat="42.5516060" lon="-6.6069350">
        <ele>515.1</ele>
        <time>2014-10-02T16:56:54Z</time>
      </trkpt>
      <trkpt lat="42.5515660" lon="-6.6068550">
        <ele>515.2</ele>
        <time>2014-10-02T16:56:55Z</time>
      </trkpt>
      <trkpt lat="42.5515200" lon="-6.6067650">
        <ele>515.3</ele>
        <time>2014-10-02T16:56:56Z</time>
      </trkpt>
      <trkpt lat="42.5514710" lon="-6.6066670">
        <ele>515.4</ele>
        <time>2014-10-02T16:56:57Z</time>
      </trkpt>
      <trkpt lat="42.5514240" lon="-6.6065730">
        <ele>515.5</ele>
        <time>2014-10-02T16:56:58Z</time>
      </trkpt>
      <trkpt lat="42.5513810" lon="-6.6064880">
        <ele>515.6</ele>
        <time>2014-10-02T16:56:59Z</time>
      </trkpt>
      <trkpt lat="42.5513360" lon="-6.6063960">
        <ele>515.7</ele>
        <time>2014-10-02T16:57:00Z</time>
      </trkpt>
      <trkpt lat="42.5512890" lon="-6.6062980">
        <ele>515.7</ele>
        <time>2014-10-02T16:57:01Z</time>
      </trkpt>
      <trkpt lat="42.5512460" lon="-6.6062040">
        <ele>515.8</ele>
        <time>2014-10-02T16:57:02Z</time>
      </trkpt>
      <trkpt lat="42.5512000" lon="-6.6061110">
        <ele>515.8</ele>
        <time>2014-10-02T16:57:03Z</time>
      </trkpt>
      <trkpt lat="42.5511550" lon="-6.6060220">
        <ele>515.9</ele>
        <time>2014-10-02T16:57:04Z</time>
      </trkpt>
      <trkpt lat="42.5511110" lon="-6.6059390">
        <ele>516.0</ele>
        <time>2014-10-02T16:57:05Z</time>
      </trkpt>
      <trkpt lat="42.5510640" lon="-6.6058530">
        <ele>516.1</ele>
        <time>2014-10-02T16:57:06Z</time>
      </trkpt>
      <trkpt lat="42.5510170" lon="-6.6057700">
        <ele>516.2</ele>
        <time>2014-10-02T16:57:07Z</time>
      </trkpt>
      <trkpt lat="42.5509750" lon="-6.6056870">
        <ele>516.2</ele>
        <time>2014-10-02T16:57:08Z</time>
      </trkpt>
      <trkpt lat="42.5509320" lon="-6.6056040">
        <ele>516.3</ele>
        <time>2014-10-02T16:57:09Z</time>
      </trkpt>
      <trkpt lat="42.5508860" lon="-6.6055180">
        <ele>516.3</ele>
        <time>2014-10-02T16:57:10Z</time>
      </trkpt>
      <trkpt lat="42.5508410" lon="-6.6054360">
        <ele>516.4</ele>
        <time>2014-10-02T16:57:11Z</time>
      </trkpt>
      <trkpt lat="42.5507930" lon="-6.6053460">
        <ele>516.5</ele>
        <time>2014-10-02T16:57:12Z</time>
      </trkpt>
      <trkpt lat="42.5507450" lon="-6.6052540">
        <ele>516.6</ele>
        <time>2014-10-02T16:57:13Z</time>
      </trkpt>
      <trkpt lat="42.5506960" lon="-6.6051520">
        <ele>516.6</ele>
        <time>2014-10-02T16:57:14Z</time>
      </trkpt>
      <trkpt lat="42.5506470" lon="-6.6050570">
        <ele>516.7</ele>
        <time>2014-10-02T16:57:15Z</time>
      </trkpt>
      <trkpt lat="42.5506040" lon="-6.6049740">
        <ele>516.8</ele>
        <time>2014-10-02T16:57:16Z</time>
      </trkpt>
      <trkpt lat="42.5505610" lon="-6.6048890">
        <ele>516.9</ele>
        <time>2014-10-02T16:57:17Z</time>
      </trkpt>
      <trkpt lat="42.5505180" lon="-6.6048070">
        <ele>517.0</ele>
        <time>2014-10-02T16:57:18Z</time>
      </trkpt>
      <trkpt lat="42.5504770" lon="-6.6047290">
        <ele>517.1</ele>
        <time>2014-10-02T16:57:19Z</time>
      </trkpt>
      <trkpt lat="42.5504330" lon="-6.6046470">
        <ele>517.2</ele>
        <time>2014-10-02T16:57:20Z</time>
      </trkpt>
      <trkpt lat="42.5503920" lon="-6.6045750">
        <ele>517.3</ele>
        <time>2014-10-02T16:57:21Z</time>
      </trkpt>
      <trkpt lat="42.5503560" lon="-6.6045030">
        <ele>517.4</ele>
        <time>2014-10-02T16:57:22Z</time>
      </trkpt>
      <trkpt lat="42.5503270" lon="-6.6044400">
        <ele>517.6</ele>
        <time>2014-10-02T16:57:23Z</time>
      </trkpt>
      <trkpt lat="42.5502950" lon="-6.6043760">
        <ele>517.7</ele>
        <time>2014-10-02T16:57:24Z</time>
      </trkpt>
      <trkpt lat="42.5502620" lon="-6.6043130">
        <ele>517.8</ele>
        <time>2014-10-02T16:57:25Z</time>
      </trkpt>
      <trkpt lat="42.5502250" lon="-6.6042490">
        <ele>517.9</ele>
        <time>2014-10-02T16:57:26Z</time>
      </trkpt>
      <trkpt lat="42.5501850" lon="-6.6041850">
        <ele>518.0</ele>
        <time>2014-10-02T16:57:27Z</time>
      </trkpt>
      <trkpt lat="42.5501480" lon="-6.6041270">
        <ele>518.0</ele>
        <time>2014-10-02T16:57:28Z</time>
      </trkpt>
      <trkpt lat="42.5501160" lon="-6.6040700">
        <ele>518.0</ele>
        <time>2014-10-02T16:57:29Z</time>
      </trkpt>
      <trkpt lat="42.5500820" lon="-6.6040040">
        <ele>517.9</ele>
        <time>2014-10-02T16:57:30Z</time>
      </trkpt>
      <trkpt lat="42.5500450" lon="-6.6039330">
        <ele>518.0</ele>
        <time>2014-10-02T16:57:31Z</time>
      </trkpt>
      <trkpt lat="42.5500120" lon="-6.6038680">
        <ele>518.0</ele>
        <time>2014-10-02T16:57:32Z</time>
      </trkpt>
      <trkpt lat="42.5499770" lon="-6.6038040">
        <ele>517.9</ele>
        <time>2014-10-02T16:57:33Z</time>
      </trkpt>
      <trkpt lat="42.5499340" lon="-6.6037280">
        <ele>517.9</ele>
        <time>2014-10-02T16:57:34Z</time>
      </trkpt>
      <trkpt lat="42.5498920" lon="-6.6036490">
        <ele>517.9</ele>
        <time>2014-10-02T16:57:35Z</time>
      </trkpt>
      <trkpt lat="42.5498520" lon="-6.6035790">
        <ele>517.9</ele>
        <time>2014-10-02T16:57:36Z</time>
      </trkpt>
      <trkpt lat="42.5498090" lon="-6.6035020">
        <ele>517.9</ele>
        <time>2014-10-02T16:57:37Z</time>
      </trkpt>
      <trkpt lat="42.5497660" lon="-6.6034260">
        <ele>518.0</ele>
        <time>2014-10-02T16:57:38Z</time>
      </trkpt>
      <trkpt lat="42.5497220" lon="-6.6033510">
        <ele>518.0</ele>
        <time>2014-10-02T16:57:39Z</time>
      </trkpt>
      <trkpt lat="42.5496840" lon="-6.6032790">
        <ele>518.1</ele>
        <time>2014-10-02T16:57:40Z</time>
      </trkpt>
      <trkpt lat="42.5496460" lon="-6.6032050">
        <ele>518.1</ele>
        <time>2014-10-02T16:57:41Z</time>
      </trkpt>
      <trkpt lat="42.5496080" lon="-6.6031330">
        <ele>518.2</ele>
        <time>2014-10-02T16:57:42Z</time>
      </trkpt>
      <trkpt lat="42.5495750" lon="-6.6030670">
        <ele>518.2</ele>
        <time>2014-10-02T16:57:43Z</time>
      </trkpt>
      <trkpt lat="42.5495410" lon="-6.6029960">
        <ele>518.3</ele>
        <time>2014-10-02T16:57:44Z</time>
      </trkpt>
      <trkpt lat="42.5495050" lon="-6.6029270">
        <ele>518.3</ele>
        <time>2014-10-02T16:57:45Z</time>
      </trkpt>
      <trkpt lat="42.5494640" lon="-6.6028560">
        <ele>518.4</ele>
        <time>2014-10-02T16:57:46Z</time>
      </trkpt>
      <trkpt lat="42.5494280" lon="-6.6027840">
        <ele>518.4</ele>
        <time>2014-10-02T16:57:47Z</time>
      </trkpt>
      <trkpt lat="42.5493920" lon="-6.6027190">
        <ele>518.5</ele>
        <time>2014-10-02T16:57:48Z</time>
      </trkpt>
      <trkpt lat="42.5493590" lon="-6.6026550">
        <ele>518.5</ele>
        <time>2014-10-02T16:57:49Z</time>
      </trkpt>
      <trkpt lat="42.5493280" lon="-6.6025890">
        <ele>518.5</ele>
        <time>2014-10-02T16:57:50Z</time>
      </trkpt>
      <trkpt lat="42.5492950" lon="-6.6025230">
        <ele>518.5</ele>
        <time>2014-10-02T16:57:51Z</time>
      </trkpt>
      <trkpt lat="42.5492630" lon="-6.6024600">
        <ele>518.6</ele>
        <time>2014-10-02T16:57:52Z</time>
      </trkpt>
      <trkpt lat="42.5492350" lon="-6.6023960">
        <ele>518.6</ele>
        <time>2014-10-02T16:57:53Z</time>
      </trkpt>
      <trkpt lat="42.5492060" lon="-6.6023370">
        <ele>518.6</ele>
        <time>2014-10-02T16:57:54Z</time>
      </trkpt>
      <trkpt lat="42.5491770" lon="-6.6022820">
        <ele>518.6</ele>
        <time>2014-10-02T16:57:55Z</time>
      </trkpt>
      <trkpt lat="42.5491450" lon="-6.6022180">
        <ele>518.7</ele>
        <time>2014-10-02T16:57:56Z</time>
      </trkpt>
      <trkpt lat="42.5491180" lon="-6.6021640">
        <ele>518.7</ele>
        <time>2014-10-02T16:57:57Z</time>
      </trkpt>
      <trkpt lat="42.5491030" lon="-6.6021160">
        <ele>518.7</ele>
        <time>2014-10-02T16:57:58Z</time>
      </trkpt>
      <trkpt lat="42.5490910" lon="-6.6020820">
        <ele>518.7</ele>
        <time>2014-10-02T16:57:59Z</time>
      </trkpt>
      <trkpt lat="42.5490800" lon="-6.6020460">
        <ele>518.8</ele>
        <time>2014-10-02T16:58:00Z</time>
      </trkpt>
      <trkpt lat="42.5490890" lon="-6.6019800">
        <ele>518.8</ele>
        <time>2014-10-02T16:58:08Z</time>
      </trkpt>
      <trkpt lat="42.5491110" lon="-6.6019370">
        <ele>518.8</ele>
        <time>2014-10-02T16:58:14Z</time>
      </trkpt>
      <trkpt lat="42.5491500" lon="-6.6018490">
        <ele>518.9</ele>
        <time>2014-10-02T16:58:22Z</time>
      </trkpt>
      <trkpt lat="42.5491230" lon="-6.6018010">
        <ele>518.9</ele>
        <time>2014-10-02T16:58:24Z</time>
      </trkpt>
      <trkpt lat="42.5490900" lon="-6.6017550">
        <ele>519.0</ele>
        <time>2014-10-02T16:58:26Z</time>
      </trkpt>
      <trkpt lat="42.5490680" lon="-6.6017190">
        <ele>519.0</ele>
        <time>2014-10-02T16:58:27Z</time>
      </trkpt>
      <trkpt lat="42.5490460" lon="-6.6016820">
        <ele>519.1</ele>
        <time>2014-10-02T16:58:28Z</time>
      </trkpt>
      <trkpt lat="42.5490210" lon="-6.6016440">
        <ele>519.1</ele>
        <time>2014-10-02T16:58:29Z</time>
      </trkpt>
      <trkpt lat="42.5489980" lon="-6.6016110">
        <ele>519.1</ele>
        <time>2014-10-02T16:58:30Z</time>
      </trkpt>
      <trkpt lat="42.5489770" lon="-6.6015640">
        <ele>519.1</ele>
        <time>2014-10-02T16:58:31Z</time>
      </trkpt>
      <trkpt lat="42.5489540" lon="-6.6015000">
        <ele>519.1</ele>
        <time>2014-10-02T16:58:32Z</time>
      </trkpt>
      <trkpt lat="42.5489320" lon="-6.6014350">
        <ele>519.1</ele>
        <time>2014-10-02T16:58:33Z</time>
      </trkpt>
      <trkpt lat="42.5489020" lon="-6.6013620">
        <ele>519.1</ele>
        <time>2014-10-02T16:58:34Z</time>
      </trkpt>
      <trkpt lat="42.5488770" lon="-6.6012990">
        <ele>519.1</ele>
        <time>2014-10-02T16:58:35Z</time>
      </trkpt>
      <trkpt lat="42.5488500" lon="-6.6012270">
        <ele>519.1</ele>
        <time>2014-10-02T16:58:36Z</time>
      </trkpt>
      <trkpt lat="42.5488240" lon="-6.6011540">
        <ele>519.1</ele>
        <time>2014-10-02T16:58:37Z</time>
      </trkpt>
      <trkpt lat="42.5487970" lon="-6.6010790">
        <ele>519.1</ele>
        <time>2014-10-02T16:58:38Z</time>
      </trkpt>
      <trkpt lat="42.5487610" lon="-6.6010120">
        <ele>519.1</ele>
        <time>2014-10-02T16:58:39Z</time>
      </trkpt>
      <trkpt lat="42.5487140" lon="-6.6009650">
        <ele>519.1</ele>
        <time>2014-10-02T16:58:40Z</time>
      </trkpt>
      <trkpt lat="42.5486590" lon="-6.6009330">
        <ele>519.1</ele>
        <time>2014-10-02T16:58:41Z</time>
      </trkpt>
      <trkpt lat="42.5486040" lon="-6.6009070">
        <ele>519.1</ele>
        <time>2014-10-02T16:58:42Z</time>
      </trkpt>
      <trkpt lat="42.5485350" lon="-6.6008670">
        <ele>519.4</ele>
        <time>2014-10-02T16:58:43Z</time>
      </trkpt>
      <trkpt lat="42.5484800" lon="-6.6008020">
        <ele>519.4</ele>
        <time>2014-10-02T16:58:44Z</time>
      </trkpt>
      <trkpt lat="42.5484310" lon="-6.6007400">
        <ele>519.4</ele>
        <time>2014-10-02T16:58:45Z</time>
      </trkpt>
      <trkpt lat="42.5483910" lon="-6.6006860">
        <ele>519.3</ele>
        <time>2014-10-02T16:58:46Z</time>
      </trkpt>
      <trkpt lat="42.5483450" lon="-6.6006440">
        <ele>519.2</ele>
        <time>2014-10-02T16:58:47Z</time>
      </trkpt>
      <trkpt lat="42.5483110" lon="-6.6005870">
        <ele>519.2</ele>
        <time>2014-10-02T16:58:49Z</time>
      </trkpt>
      <trkpt lat="42.5482920" lon="-6.6004580">
        <ele>519.1</ele>
        <time>2014-10-02T16:58:52Z</time>
      </trkpt>
      <trkpt lat="42.5482990" lon="-6.6003910">
        <ele>519.1</ele>
        <time>2014-10-02T16:58:53Z</time>
      </trkpt>
      <trkpt lat="42.5482980" lon="-6.6003230">
        <ele>519.1</ele>
        <time>2014-10-02T16:58:54Z</time>
      </trkpt>
      <trkpt lat="42.5482860" lon="-6.6002690">
        <ele>519.1</ele>
        <time>2014-10-02T16:58:55Z</time>
      </trkpt>
      <trkpt lat="42.5482720" lon="-6.6002170">
        <ele>519.1</ele>
        <time>2014-10-02T16:58:56Z</time>
      </trkpt>
      <trkpt lat="42.5482570" lon="-6.6001640">
        <ele>519.1</ele>
        <time>2014-10-02T16:58:57Z</time>
      </trkpt>
      <trkpt lat="42.5482510" lon="-6.6001160">
        <ele>519.1</ele>
        <time>2014-10-02T16:58:58Z</time>
      </trkpt>
      <trkpt lat="42.5482530" lon="-6.6000600">
        <ele>519.1</ele>
        <time>2014-10-02T16:58:59Z</time>
      </trkpt>
      <trkpt lat="42.5482510" lon="-6.6000000">
        <ele>519.1</ele>
        <time>2014-10-02T16:59:00Z</time>
      </trkpt>
      <trkpt lat="42.5482430" lon="-6.5999440">
        <ele>519.1</ele>
        <time>2014-10-02T16:59:01Z</time>
      </trkpt>
      <trkpt lat="42.5482380" lon="-6.5998910">
        <ele>519.2</ele>
        <time>2014-10-02T16:59:02Z</time>
      </trkpt>
      <trkpt lat="42.5482320" lon="-6.5998380">
        <ele>519.2</ele>
        <time>2014-10-02T16:59:03Z</time>
      </trkpt>
      <trkpt lat="42.5482260" lon="-6.5997880">
        <ele>519.2</ele>
        <time>2014-10-02T16:59:04Z</time>
      </trkpt>
      <trkpt lat="42.5482190" lon="-6.5997310">
        <ele>519.2</ele>
        <time>2014-10-02T16:59:05Z</time>
      </trkpt>
      <trkpt lat="42.5482060" lon="-6.5996790">
        <ele>519.2</ele>
        <time>2014-10-02T16:59:06Z</time>
      </trkpt>
      <trkpt lat="42.5481930" lon="-6.5996220">
        <ele>519.2</ele>
        <time>2014-10-02T16:59:07Z</time>
      </trkpt>
      <trkpt lat="42.5481770" lon="-6.5995580">
        <ele>519.1</ele>
        <time>2014-10-02T16:59:08Z</time>
      </trkpt>
      <trkpt lat="42.5481620" lon="-6.5994970">
        <ele>519.1</ele>
        <time>2014-10-02T16:59:09Z</time>
      </trkpt>
      <trkpt lat="42.5481520" lon="-6.5994510">
        <ele>519.1</ele>
        <time>2014-10-02T16:59:10Z</time>
      </trkpt>
      <trkpt lat="42.5481490" lon="-6.5993980">
        <ele>519.1</ele>
        <time>2014-10-02T16:59:11Z</time>
      </trkpt>
      <trkpt lat="42.5481460" lon="-6.5993520">
        <ele>519.0</ele>
        <time>2014-10-02T16:59:12Z</time>
      </trkpt>
      <trkpt lat="42.5481390" lon="-6.5993100">
        <ele>519.0</ele>
        <time>2014-10-02T16:59:13Z</time>
      </trkpt>
      <trkpt lat="42.5481330" lon="-6.5992520">
        <ele>519.0</ele>
        <time>2014-10-02T16:59:15Z</time>
      </trkpt>
      <trkpt lat="42.5481260" lon="-6.5991740">
        <ele>519.0</ele>
        <time>2014-10-02T16:59:17Z</time>
      </trkpt>
      <trkpt lat="42.5481220" lon="-6.5991340">
        <ele>519.0</ele>
        <time>2014-10-02T16:59:18Z</time>
      </trkpt>
      <trkpt lat="42.5481170" lon="-6.5990910">
        <ele>518.9</ele>
        <time>2014-10-02T16:59:19Z</time>
      </trkpt>
      <trkpt lat="42.5481100" lon="-6.5990450">
        <ele>518.9</ele>
        <time>2014-10-02T16:59:20Z</time>
      </trkpt>
      <trkpt lat="42.5481030" lon="-6.5989960">
        <ele>518.9</ele>
        <time>2014-10-02T16:59:21Z</time>
      </trkpt>
      <trkpt lat="42.5480950" lon="-6.5989530">
        <ele>518.9</ele>
        <time>2014-10-02T16:59:22Z</time>
      </trkpt>
      <trkpt lat="42.5480870" lon="-6.5989030">
        <ele>518.9</ele>
        <time>2014-10-02T16:59:23Z</time>
      </trkpt>
      <trkpt lat="42.5480690" lon="-6.5988600">
        <ele>518.9</ele>
        <time>2014-10-02T16:59:24Z</time>
      </trkpt>
      <trkpt lat="42.5480580" lon="-6.5988120">
        <ele>518.8</ele>
        <time>2014-10-02T16:59:25Z</time>
      </trkpt>
      <trkpt lat="42.5480460" lon="-6.5987630">
        <ele>518.8</ele>
        <time>2014-10-02T16:59:26Z</time>
      </trkpt>
      <trkpt lat="42.5480280" lon="-6.5987240">
        <ele>518.8</ele>
        <time>2014-10-02T16:59:27Z</time>
      </trkpt>
      <trkpt lat="42.5479970" lon="-6.5986870">
        <ele>518.7</ele>
        <time>2014-10-02T16:59:28Z</time>
      </trkpt>
      <trkpt lat="42.5479780" lon="-6.5986400">
        <ele>518.7</ele>
        <time>2014-10-02T16:59:29Z</time>
      </trkpt>
      <trkpt lat="42.5479630" lon="-6.5986050">
        <ele>518.6</ele>
        <time>2014-10-02T16:59:30Z</time>
      </trkpt>
      <trkpt lat="42.5479520" lon="-6.5985530">
        <ele>518.6</ele>
        <time>2014-10-02T16:59:32Z</time>
      </trkpt>
      <trkpt lat="42.5479110" lon="-6.5985080">
        <ele>518.6</ele>
        <time>2014-10-02T16:59:34Z</time>
      </trkpt>
      <trkpt lat="42.5478770" lon="-6.5984800">
        <ele>518.6</ele>
        <time>2014-10-02T16:59:35Z</time>
      </trkpt>
      <trkpt lat="42.5478450" lon="-6.5984540">
        <ele>518.5</ele>
        <time>2014-10-02T16:59:36Z</time>
      </trkpt>
      <trkpt lat="42.5478150" lon="-6.5984280">
        <ele>518.5</ele>
        <time>2014-10-02T16:59:37Z</time>
      </trkpt>
      <trkpt lat="42.5477900" lon="-6.5983840">
        <ele>518.5</ele>
        <time>2014-10-02T16:59:38Z</time>
      </trkpt>
      <trkpt lat="42.5477690" lon="-6.5983510">
        <ele>518.5</ele>
        <time>2014-10-02T16:59:39Z</time>
      </trkpt>
      <trkpt lat="42.5477470" lon="-6.5983130">
        <ele>518.5</ele>
        <time>2014-10-02T16:59:40Z</time>
      </trkpt>
      <trkpt lat="42.5477240" lon="-6.5982910">
        <ele>518.3</ele>
        <time>2014-10-02T16:59:41Z</time>
      </trkpt>
      <trkpt lat="42.5477020" lon="-6.5982680">
        <ele>518.3</ele>
        <time>2014-10-02T16:59:42Z</time>
      </trkpt>
      <trkpt lat="42.5476750" lon="-6.5982510">
        <ele>518.3</ele>
        <time>2014-10-02T16:59:44Z</time>
      </trkpt>
      <trkpt lat="42.5476390" lon="-6.5982510">
        <ele>518.2</ele>
        <time>2014-10-02T16:59:46Z</time>
      </trkpt>
      <trkpt lat="42.5475970" lon="-6.5982780">
        <ele>518.2</ele>
        <time>2014-10-02T16:59:58Z</time>
      </trkpt>
      <trkpt lat="42.5475580" lon="-6.5983010">
        <ele>518.1</ele>
        <time>2014-10-02T17:00:02Z</time>
      </trkpt>
      <trkpt lat="42.5475240" lon="-6.5982970">
        <ele>518.1</ele>
        <time>2014-10-02T17:00:05Z</time>
      </trkpt>
      <trkpt lat="42.5474860" lon="-6.5982800">
        <ele>518.0</ele>
        <time>2014-10-02T17:00:08Z</time>
      </trkpt>
      <trkpt lat="42.5474500" lon="-6.5982640">
        <ele>518.0</ele>
        <time>2014-10-02T17:00:10Z</time>
      </trkpt>
      <trkpt lat="42.5474160" lon="-6.5982510">
        <ele>517.9</ele>
        <time>2014-10-02T17:00:12Z</time>
      </trkpt>
      <trkpt lat="42.5473360" lon="-6.5981420">
        <ele>517.8</ele>
        <time>2014-10-02T17:00:43Z</time>
      </trkpt>
      <trkpt lat="42.5474060" lon="-6.5982040">
        <ele>517.7</ele>
        <time>2014-10-02T17:01:32Z</time>
      </trkpt>
      <trkpt lat="42.5473700" lon="-6.5981820">
        <ele>517.7</ele>
        <time>2014-10-02T17:01:44Z</time>
      </trkpt>
      <trkpt lat="42.5473380" lon="-6.5981630">
        <ele>517.6</ele>
        <time>2014-10-02T17:01:45Z</time>
      </trkpt>
      <trkpt lat="42.5473000" lon="-6.5981430">
        <ele>517.5</ele>
        <time>2014-10-02T17:01:46Z</time>
      </trkpt>
      <trkpt lat="42.5472640" lon="-6.5981270">
        <ele>517.5</ele>
        <time>2014-10-02T17:01:47Z</time>
      </trkpt>
      <trkpt lat="42.5472230" lon="-6.5981140">
        <ele>517.4</ele>
        <time>2014-10-02T17:01:48Z</time>
      </trkpt>
      <trkpt lat="42.5471760" lon="-6.5980980">
        <ele>517.4</ele>
        <time>2014-10-02T17:01:49Z</time>
      </trkpt>
      <trkpt lat="42.5471280" lon="-6.5980920">
        <ele>517.3</ele>
        <time>2014-10-02T17:01:50Z</time>
      </trkpt>
      <trkpt lat="42.5470770" lon="-6.5980860">
        <ele>517.2</ele>
        <time>2014-10-02T17:01:51Z</time>
      </trkpt>
      <trkpt lat="42.5470270" lon="-6.5980840">
        <ele>517.1</ele>
        <time>2014-10-02T17:01:52Z</time>
      </trkpt>
      <trkpt lat="42.5469780" lon="-6.5980750">
        <ele>517.1</ele>
        <time>2014-10-02T17:01:53Z</time>
      </trkpt>
      <trkpt lat="42.5469260" lon="-6.5980630">
        <ele>517.0</ele>
        <time>2014-10-02T17:01:54Z</time>
      </trkpt>
      <trkpt lat="42.5468720" lon="-6.5980410">
        <ele>517.0</ele>
        <time>2014-10-02T17:01:55Z</time>
      </trkpt>
      <trkpt lat="42.5468190" lon="-6.5980150">
        <ele>516.9</ele>
        <time>2014-10-02T17:01:56Z</time>
      </trkpt>
      <trkpt lat="42.5467660" lon="-6.5979830">
        <ele>516.8</ele>
        <time>2014-10-02T17:01:57Z</time>
      </trkpt>
      <trkpt lat="42.5467190" lon="-6.5979560">
        <ele>516.7</ele>
        <time>2014-10-02T17:01:58Z</time>
      </trkpt>
      <trkpt lat="42.5466670" lon="-6.5979280">
        <ele>516.6</ele>
        <time>2014-10-02T17:01:59Z</time>
      </trkpt>
      <trkpt lat="42.5466130" lon="-6.5978980">
        <ele>516.5</ele>
        <time>2014-10-02T17:02:00Z</time>
      </trkpt>
      <trkpt lat="42.5465620" lon="-6.5978750">
        <ele>516.4</ele>
        <time>2014-10-02T17:02:01Z</time>
      </trkpt>
      <trkpt lat="42.5465050" lon="-6.5978510">
        <ele>516.3</ele>
        <time>2014-10-02T17:02:02Z</time>
      </trkpt>
      <trkpt lat="42.5464500" lon="-6.5978270">
        <ele>516.2</ele>
        <time>2014-10-02T17:02:03Z</time>
      </trkpt>
      <trkpt lat="42.5463950" lon="-6.5978020">
        <ele>516.1</ele>
        <time>2014-10-02T17:02:04Z</time>
      </trkpt>
      <trkpt lat="42.5463410" lon="-6.5977780">
        <ele>516.0</ele>
        <time>2014-10-02T17:02:05Z</time>
      </trkpt>
      <trkpt lat="42.5462900" lon="-6.5977550">
        <ele>515.9</ele>
        <time>2014-10-02T17:02:06Z</time>
      </trkpt>
      <trkpt lat="42.5462430" lon="-6.5977300">
        <ele>515.8</ele>
        <time>2014-10-02T17:02:07Z</time>
      </trkpt>
      <trkpt lat="42.5461930" lon="-6.5977070">
        <ele>515.7</ele>
        <time>2014-10-02T17:02:08Z</time>
      </trkpt>
      <trkpt lat="42.5461370" lon="-6.5976830">
        <ele>515.6</ele>
        <time>2014-10-02T17:02:09Z</time>
      </trkpt>
      <trkpt lat="42.5460880" lon="-6.5976650">
        <ele>515.5</ele>
        <time>2014-10-02T17:02:10Z</time>
      </trkpt>
      <trkpt lat="42.5460310" lon="-6.5976400">
        <ele>515.5</ele>
        <time>2014-10-02T17:02:11Z</time>
      </trkpt>
      <trkpt lat="42.5459750" lon="-6.5976140">
        <ele>515.4</ele>
        <time>2014-10-02T17:02:12Z</time>
      </trkpt>
      <trkpt lat="42.5459290" lon="-6.5975960">
        <ele>515.3</ele>
        <time>2014-10-02T17:02:13Z</time>
      </trkpt>
      <trkpt lat="42.5458750" lon="-6.5975710">
        <ele>515.3</ele>
        <time>2014-10-02T17:02:14Z</time>
      </trkpt>
      <trkpt lat="42.5458180" lon="-6.5975440">
        <ele>515.3</ele>
        <time>2014-10-02T17:02:15Z</time>
      </trkpt>
      <trkpt lat="42.5457620" lon="-6.5975160">
        <ele>515.2</ele>
        <time>2014-10-02T17:02:16Z</time>
      </trkpt>
      <trkpt lat="42.5457090" lon="-6.5974900">
        <ele>515.2</ele>
        <time>2014-10-02T17:02:17Z</time>
      </trkpt>
      <trkpt lat="42.5456610" lon="-6.5974690">
        <ele>515.2</ele>
        <time>2014-10-02T17:02:18Z</time>
      </trkpt>
      <trkpt lat="42.5456130" lon="-6.5974460">
        <ele>515.2</ele>
        <time>2014-10-02T17:02:19Z</time>
      </trkpt>
      <trkpt lat="42.5455620" lon="-6.5974200">
        <ele>515.1</ele>
        <time>2014-10-02T17:02:20Z</time>
      </trkpt>
      <trkpt lat="42.5455070" lon="-6.5973960">
        <ele>515.1</ele>
        <time>2014-10-02T17:02:21Z</time>
      </trkpt>
      <trkpt lat="42.5454570" lon="-6.5973750">
        <ele>515.1</ele>
        <time>2014-10-02T17:02:22Z</time>
      </trkpt>
      <trkpt lat="42.5454090" lon="-6.5973580">
        <ele>515.1</ele>
        <time>2014-10-02T17:02:23Z</time>
      </trkpt>
      <trkpt lat="42.5453610" lon="-6.5973410">
        <ele>515.1</ele>
        <time>2014-10-02T17:02:24Z</time>
      </trkpt>
      <trkpt lat="42.5453060" lon="-6.5973190">
        <ele>515.0</ele>
        <time>2014-10-02T17:02:25Z</time>
      </trkpt>
      <trkpt lat="42.5452600" lon="-6.5973000">
        <ele>515.0</ele>
        <time>2014-10-02T17:02:26Z</time>
      </trkpt>
      <trkpt lat="42.5452180" lon="-6.5972840">
        <ele>515.0</ele>
        <time>2014-10-02T17:02:27Z</time>
      </trkpt>
      <trkpt lat="42.5451770" lon="-6.5972680">
        <ele>515.0</ele>
        <time>2014-10-02T17:02:28Z</time>
      </trkpt>
      <trkpt lat="42.5451380" lon="-6.5972540">
        <ele>515.0</ele>
        <time>2014-10-02T17:02:29Z</time>
      </trkpt>
      <trkpt lat="42.5450970" lon="-6.5972400">
        <ele>514.9</ele>
        <time>2014-10-02T17:02:30Z</time>
      </trkpt>
      <trkpt lat="42.5450660" lon="-6.5972290">
        <ele>514.9</ele>
        <time>2014-10-02T17:02:31Z</time>
      </trkpt>
      <trkpt lat="42.5450340" lon="-6.5972170">
        <ele>514.9</ele>
        <time>2014-10-02T17:02:32Z</time>
      </trkpt>
      <trkpt lat="42.5450070" lon="-6.5972040">
        <ele>514.8</ele>
        <time>2014-10-02T17:02:33Z</time>
      </trkpt>
      <trkpt lat="42.5449750" lon="-6.5972000">
        <ele>514.8</ele>
        <time>2014-10-02T17:02:35Z</time>
      </trkpt>
      <trkpt lat="42.5449360" lon="-6.5972240">
        <ele>514.8</ele>
        <time>2014-10-02T17:02:38Z</time>
      </trkpt>
      <trkpt lat="42.5448960" lon="-6.5972680">
        <ele>514.6</ele>
        <time>2014-10-02T17:02:40Z</time>
      </trkpt>
      <trkpt lat="42.5448660" lon="-6.5972760">
        <ele>514.6</ele>
        <time>2014-10-02T17:02:41Z</time>
      </trkpt>
      <trkpt lat="42.5448230" lon="-6.5972760">
        <ele>514.6</ele>
        <time>2014-10-02T17:02:42Z</time>
      </trkpt>
      <trkpt lat="42.5447690" lon="-6.5972690">
        <ele>514.5</ele>
        <time>2014-10-02T17:02:43Z</time>
      </trkpt>
      <trkpt lat="42.5447190" lon="-6.5972430">
        <ele>514.4</ele>
        <time>2014-10-02T17:02:44Z</time>
      </trkpt>
      <trkpt lat="42.5446730" lon="-6.5972130">
        <ele>514.4</ele>
        <time>2014-10-02T17:02:45Z</time>
      </trkpt>
      <trkpt lat="42.5446380" lon="-6.5971630">
        <ele>514.3</ele>
        <time>2014-10-02T17:02:46Z</time>
      </trkpt>
      <trkpt lat="42.5446080" lon="-6.5970970">
        <ele>514.3</ele>
        <time>2014-10-02T17:02:47Z</time>
      </trkpt>
      <trkpt lat="42.5445560" lon="-6.5970370">
        <ele>514.3</ele>
        <time>2014-10-02T17:02:48Z</time>
      </trkpt>
      <trkpt lat="42.5445210" lon="-6.5969720">
        <ele>514.3</ele>
        <time>2014-10-02T17:02:49Z</time>
      </trkpt>
      <trkpt lat="42.5445200" lon="-6.5968870">
        <ele>514.3</ele>
        <time>2014-10-02T17:02:50Z</time>
      </trkpt>
      <trkpt lat="42.5445120" lon="-6.5968400">
        <ele>514.2</ele>
        <time>2014-10-02T17:02:51Z</time>
      </trkpt>
      <trkpt lat="42.5444970" lon="-6.5968080">
        <ele>514.2</ele>
        <time>2014-10-02T17:02:52Z</time>
      </trkpt>
      <trkpt lat="42.5444890" lon="-6.5967570">
        <ele>514.2</ele>
        <time>2014-10-02T17:02:53Z</time>
      </trkpt>
      <trkpt lat="42.5444750" lon="-6.5967000">
        <ele>514.1</ele>
        <time>2014-10-02T17:02:54Z</time>
      </trkpt>
      <trkpt lat="42.5444560" lon="-6.5966390">
        <ele>514.1</ele>
        <time>2014-10-02T17:02:55Z</time>
      </trkpt>
      <trkpt lat="42.5444310" lon="-6.5965850">
        <ele>514.0</ele>
        <time>2014-10-02T17:02:56Z</time>
      </trkpt>
      <trkpt lat="42.5444030" lon="-6.5965340">
        <ele>514.0</ele>
        <time>2014-10-02T17:02:57Z</time>
      </trkpt>
      <trkpt lat="42.5443760" lon="-6.5964880">
        <ele>514.0</ele>
        <time>2014-10-02T17:02:58Z</time>
      </trkpt>
      <trkpt lat="42.5443450" lon="-6.5964440">
        <ele>513.9</ele>
        <time>2014-10-02T17:02:59Z</time>
      </trkpt>
      <trkpt lat="42.5443100" lon="-6.5963930">
        <ele>513.9</ele>
        <time>2014-10-02T17:03:00Z</time>
      </trkpt>
      <trkpt lat="42.5442750" lon="-6.5963420">
        <ele>514.0</ele>
        <time>2014-10-02T17:03:01Z</time>
      </trkpt>
      <trkpt lat="42.5442480" lon="-6.5962950">
        <ele>514.0</ele>
        <time>2014-10-02T17:03:02Z</time>
      </trkpt>
      <trkpt lat="42.5442150" lon="-6.5962430">
        <ele>514.1</ele>
        <time>2014-10-02T17:03:03Z</time>
      </trkpt>
      <trkpt lat="42.5441820" lon="-6.5961910">
        <ele>514.2</ele>
        <time>2014-10-02T17:03:04Z</time>
      </trkpt>
      <trkpt lat="42.5441470" lon="-6.5961440">
        <ele>514.2</ele>
        <time>2014-10-02T17:03:05Z</time>
      </trkpt>
      <trkpt lat="42.5441080" lon="-6.5960910">
        <ele>514.3</ele>
        <time>2014-10-02T17:03:06Z</time>
      </trkpt>
      <trkpt lat="42.5440740" lon="-6.5960360">
        <ele>514.4</ele>
        <time>2014-10-02T17:03:07Z</time>
      </trkpt>
      <trkpt lat="42.5440380" lon="-6.5959800">
        <ele>514.5</ele>
        <time>2014-10-02T17:03:08Z</time>
      </trkpt>
      <trkpt lat="42.5440030" lon="-6.5959220">
        <ele>514.7</ele>
        <time>2014-10-02T17:03:09Z</time>
      </trkpt>
      <trkpt lat="42.5439680" lon="-6.5958640">
        <ele>514.9</ele>
        <time>2014-10-02T17:03:10Z</time>
      </trkpt>
      <trkpt lat="42.5439400" lon="-6.5958110">
        <ele>515.1</ele>
        <time>2014-10-02T17:03:11Z</time>
      </trkpt>
      <trkpt lat="42.5439100" lon="-6.5957600">
        <ele>515.4</ele>
        <time>2014-10-02T17:03:12Z</time>
      </trkpt>
      <trkpt lat="42.5438800" lon="-6.5957140">
        <ele>515.7</ele>
        <time>2014-10-02T17:03:13Z</time>
      </trkpt>
      <trkpt lat="42.5438480" lon="-6.5956670">
        <ele>516.0</ele>
        <time>2014-10-02T17:03:14Z</time>
      </trkpt>
      <trkpt lat="42.5438150" lon="-6.5956170">
        <ele>516.4</ele>
        <time>2014-10-02T17:03:15Z</time>
      </trkpt>
      <trkpt lat="42.5437850" lon="-6.5955750">
        <ele>516.7</ele>
        <time>2014-10-02T17:03:16Z</time>
      </trkpt>
      <trkpt lat="42.5437580" lon="-6.5955360">
        <ele>517.0</ele>
        <time>2014-10-02T17:03:17Z</time>
      </trkpt>
      <trkpt lat="42.5437320" lon="-6.5954980">
        <ele>517.2</ele>
        <time>2014-10-02T17:03:18Z</time>
      </trkpt>
      <trkpt lat="42.5437140" lon="-6.5954680">
        <ele>517.5</ele>
        <time>2014-10-02T17:03:19Z</time>
      </trkpt>
      <trkpt lat="42.5436950" lon="-6.5954380">
        <ele>517.7</ele>
        <time>2014-10-02T17:03:20Z</time>
      </trkpt>
      <trkpt lat="42.5436630" lon="-6.5953920">
        <ele>518.0</ele>
        <time>2014-10-02T17:03:21Z</time>
      </trkpt>
      <trkpt lat="42.5434970" lon="-6.5950370">
        <ele>520.1</ele>
        <time>2014-10-02T17:03:23Z</time>
      </trkpt>
      <trkpt lat="42.5434690" lon="-6.5950050">
        <ele>520.3</ele>
        <time>2014-10-02T17:03:24Z</time>
      </trkpt>
      <trkpt lat="42.5434360" lon="-6.5950040">
        <ele>520.5</ele>
        <time>2014-10-02T17:03:26Z</time>
      </trkpt>
      <trkpt lat="42.5434060" lon="-6.5950100">
        <ele>520.8</ele>
        <time>2014-10-02T17:03:27Z</time>
      </trkpt>
      <trkpt lat="42.5433990" lon="-6.5950610">
        <ele>521.1</ele>
        <time>2014-10-02T17:03:29Z</time>
      </trkpt>
      <trkpt lat="42.5433540" lon="-6.5950290">
        <ele>521.5</ele>
        <time>2014-10-02T17:03:34Z</time>
      </trkpt>
      <trkpt lat="42.5433310" lon="-6.5950050">
        <ele>521.8</ele>
        <time>2014-10-02T17:03:35Z</time>
      </trkpt>
      <trkpt lat="42.5433050" lon="-6.5949740">
        <ele>522.1</ele>
        <time>2014-10-02T17:03:36Z</time>
      </trkpt>
      <trkpt lat="42.5432660" lon="-6.5949240">
        <ele>522.6</ele>
        <time>2014-10-02T17:03:38Z</time>
      </trkpt>
      <trkpt lat="42.5432430" lon="-6.5948940">
        <ele>522.9</ele>
        <time>2014-10-02T17:03:39Z</time>
      </trkpt>
      <trkpt lat="42.5432220" lon="-6.5948630">
        <ele>523.2</ele>
        <time>2014-10-02T17:03:40Z</time>
      </trkpt>
      <trkpt lat="42.5432010" lon="-6.5948310">
        <ele>523.5</ele>
        <time>2014-10-02T17:03:41Z</time>
      </trkpt>
      <trkpt lat="42.5431630" lon="-6.5947870">
        <ele>524.0</ele>
        <time>2014-10-02T17:03:43Z</time>
      </trkpt>
      <trkpt lat="42.5431330" lon="-6.5947590">
        <ele>524.3</ele>
        <time>2014-10-02T17:03:44Z</time>
      </trkpt>
      <trkpt lat="42.5431030" lon="-6.5947290">
        <ele>524.7</ele>
        <time>2014-10-02T17:03:45Z</time>
      </trkpt>
      <trkpt lat="42.5430790" lon="-6.5947010">
        <ele>525.0</ele>
        <time>2014-10-02T17:03:46Z</time>
      </trkpt>
      <trkpt lat="42.5430500" lon="-6.5946650">
        <ele>525.4</ele>
        <time>2014-10-02T17:03:47Z</time>
      </trkpt>
      <trkpt lat="42.5430250" lon="-6.5946350">
        <ele>525.7</ele>
        <time>2014-10-02T17:03:48Z</time>
      </trkpt>
      <trkpt lat="42.5430070" lon="-6.5946030">
        <ele>526.0</ele>
        <time>2014-10-02T17:03:49Z</time>
      </trkpt>
      <trkpt lat="42.5429910" lon="-6.5945700">
        <ele>526.2</ele>
        <time>2014-10-02T17:03:50Z</time>
      </trkpt>
      <trkpt lat="42.5429740" lon="-6.5945080">
        <ele>526.7</ele>
        <time>2014-10-02T17:03:52Z</time>
      </trkpt>
      <trkpt lat="42.5429650" lon="-6.5944690">
        <ele>526.9</ele>
        <time>2014-10-02T17:03:53Z</time>
      </trkpt>
      <trkpt lat="42.5429580" lon="-6.5944330">
        <ele>527.2</ele>
        <time>2014-10-02T17:03:54Z</time>
      </trkpt>
      <trkpt lat="42.5429500" lon="-6.5943960">
        <ele>527.4</ele>
        <time>2014-10-02T17:03:55Z</time>
      </trkpt>
      <trkpt lat="42.5429410" lon="-6.5943570">
        <ele>527.7</ele>
        <time>2014-10-02T17:03:56Z</time>
      </trkpt>
      <trkpt lat="42.5429310" lon="-6.5943140">
        <ele>528.0</ele>
        <time>2014-10-02T17:03:57Z</time>
      </trkpt>
      <trkpt lat="42.5429260" lon="-6.5942600">
        <ele>528.3</ele>
        <time>2014-10-02T17:03:58Z</time>
      </trkpt>
      <trkpt lat="42.5429150" lon="-6.5941840">
        <ele>528.7</ele>
        <time>2014-10-02T17:04:00Z</time>
      </trkpt>
      <trkpt lat="42.5429210" lon="-6.5941310">
        <ele>529.0</ele>
        <time>2014-10-02T17:04:01Z</time>
      </trkpt>
      <trkpt lat="42.5429250" lon="-6.5940770">
        <ele>529.3</ele>
        <time>2014-10-02T17:04:02Z</time>
      </trkpt>
      <trkpt lat="42.5429290" lon="-6.5940160">
        <ele>529.6</ele>
        <time>2014-10-02T17:04:03Z</time>
      </trkpt>
      <trkpt lat="42.5429250" lon="-6.5939090">
        <ele>530.0</ele>
        <time>2014-10-02T17:04:06Z</time>
      </trkpt>
      <trkpt lat="42.5429160" lon="-6.5938690">
        <ele>530.1</ele>
        <time>2014-10-02T17:04:07Z</time>
      </trkpt>
      <trkpt lat="42.5429090" lon="-6.5938190">
        <ele>530.4</ele>
        <time>2014-10-02T17:04:08Z</time>
      </trkpt>
      <trkpt lat="42.5429090" lon="-6.5937710">
        <ele>530.6</ele>
        <time>2014-10-02T17:04:09Z</time>
      </trkpt>
      <trkpt lat="42.5429060" lon="-6.5937280">
        <ele>530.8</ele>
        <time>2014-10-02T17:04:10Z</time>
      </trkpt>
      <trkpt lat="42.5429090" lon="-6.5936880">
        <ele>530.9</ele>
        <time>2014-10-02T17:04:11Z</time>
      </trkpt>
      <trkpt lat="42.5429010" lon="-6.5936390">
        <ele>531.1</ele>
        <time>2014-10-02T17:04:12Z</time>
      </trkpt>
      <trkpt lat="42.5428930" lon="-6.5935920">
        <ele>531.3</ele>
        <time>2014-10-02T17:04:13Z</time>
      </trkpt>
      <trkpt lat="42.5428870" lon="-6.5935480">
        <ele>531.4</ele>
        <time>2014-10-02T17:04:14Z</time>
      </trkpt>
      <trkpt lat="42.5428910" lon="-6.5934790">
        <ele>531.6</ele>
        <time>2014-10-02T17:04:16Z</time>
      </trkpt>
      <trkpt lat="42.5429110" lon="-6.5934170">
        <ele>531.8</ele>
        <time>2014-10-02T17:04:18Z</time>
      </trkpt>
      <trkpt lat="42.5429210" lon="-6.5933650">
        <ele>531.7</ele>
        <time>2014-10-02T17:04:19Z</time>
      </trkpt>
      <trkpt lat="42.5429310" lon="-6.5933040">
        <ele>531.6</ele>
        <time>2014-10-02T17:04:20Z</time>
      </trkpt>
      <trkpt lat="42.5429400" lon="-6.5932390">
        <ele>531.6</ele>
        <time>2014-10-02T17:04:21Z</time>
      </trkpt>
      <trkpt lat="42.5429500" lon="-6.5931560">
        <ele>531.5</ele>
        <time>2014-10-02T17:04:22Z</time>
      </trkpt>
      <trkpt lat="42.5429580" lon="-6.5930850">
        <ele>531.5</ele>
        <time>2014-10-02T17:04:23Z</time>
      </trkpt>
      <trkpt lat="42.5429640" lon="-6.5930030">
        <ele>531.4</ele>
        <time>2014-10-02T17:04:24Z</time>
      </trkpt>
      <trkpt lat="42.5429670" lon="-6.5929230">
        <ele>531.3</ele>
        <time>2014-10-02T17:04:25Z</time>
      </trkpt>
      <trkpt lat="42.5429630" lon="-6.5928410">
        <ele>531.3</ele>
        <time>2014-10-02T17:04:26Z</time>
      </trkpt>
      <trkpt lat="42.5429570" lon="-6.5927750">
        <ele>531.3</ele>
        <time>2014-10-02T17:04:27Z</time>
      </trkpt>
      <trkpt lat="42.5429450" lon="-6.5927140">
        <ele>531.3</ele>
        <time>2014-10-02T17:04:28Z</time>
      </trkpt>
      <trkpt lat="42.5429340" lon="-6.5926700">
        <ele>531.3</ele>
        <time>2014-10-02T17:04:29Z</time>
      </trkpt>
      <trkpt lat="42.5429320" lon="-6.5926210">
        <ele>531.3</ele>
        <time>2014-10-02T17:04:30Z</time>
      </trkpt>
      <trkpt lat="42.5429320" lon="-6.5925610">
        <ele>531.3</ele>
        <time>2014-10-02T17:04:31Z</time>
      </trkpt>
      <trkpt lat="42.5428870" lon="-6.5924500">
        <ele>531.3</ele>
        <time>2014-10-02T17:04:37Z</time>
      </trkpt>
      <trkpt lat="42.5428460" lon="-6.5924090">
        <ele>531.3</ele>
        <time>2014-10-02T17:04:39Z</time>
      </trkpt>
      <trkpt lat="42.5428390" lon="-6.5923480">
        <ele>531.4</ele>
        <time>2014-10-02T17:04:40Z</time>
      </trkpt>
      <trkpt lat="42.5428320" lon="-6.5922780">
        <ele>531.4</ele>
        <time>2014-10-02T17:04:41Z</time>
      </trkpt>
      <trkpt lat="42.5428310" lon="-6.5922090">
        <ele>531.4</ele>
        <time>2014-10-02T17:04:42Z</time>
      </trkpt>
      <trkpt lat="42.5428290" lon="-6.5921420">
        <ele>531.5</ele>
        <time>2014-10-02T17:04:43Z</time>
      </trkpt>
      <trkpt lat="42.5428300" lon="-6.5920610">
        <ele>531.5</ele>
        <time>2014-10-02T17:04:44Z</time>
      </trkpt>
      <trkpt lat="42.5428350" lon="-6.5919870">
        <ele>531.6</ele>
        <time>2014-10-02T17:04:45Z</time>
      </trkpt>
      <trkpt lat="42.5428410" lon="-6.5919060">
        <ele>531.6</ele>
        <time>2014-10-02T17:04:46Z</time>
      </trkpt>
      <trkpt lat="42.5428540" lon="-6.5918460">
        <ele>531.6</ele>
        <time>2014-10-02T17:04:47Z</time>
      </trkpt>
      <trkpt lat="42.5428550" lon="-6.5917580">
        <ele>531.7</ele>
        <time>2014-10-02T17:04:48Z</time>
      </trkpt>
      <trkpt lat="42.5428530" lon="-6.5916740">
        <ele>531.7</ele>
        <time>2014-10-02T17:04:49Z</time>
      </trkpt>
      <trkpt lat="42.5428510" lon="-6.5916000">
        <ele>531.8</ele>
        <time>2014-10-02T17:04:50Z</time>
      </trkpt>
      <trkpt lat="42.5428500" lon="-6.5915310">
        <ele>531.8</ele>
        <time>2014-10-02T17:04:51Z</time>
      </trkpt>
      <trkpt lat="42.5428470" lon="-6.5914630">
        <ele>531.8</ele>
        <time>2014-10-02T17:04:52Z</time>
      </trkpt>
      <trkpt lat="42.5428450" lon="-6.5913970">
        <ele>531.8</ele>
        <time>2014-10-02T17:04:53Z</time>
      </trkpt>
      <trkpt lat="42.5428430" lon="-6.5913310">
        <ele>531.8</ele>
        <time>2014-10-02T17:04:54Z</time>
      </trkpt>
      <trkpt lat="42.5428410" lon="-6.5912620">
        <ele>531.9</ele>
        <time>2014-10-02T17:04:55Z</time>
      </trkpt>
      <trkpt lat="42.5428350" lon="-6.5911650">
        <ele>531.9</ele>
        <time>2014-10-02T17:04:56Z</time>
      </trkpt>
      <trkpt lat="42.5428130" lon="-6.5910670">
        <ele>531.9</ele>
        <time>2014-10-02T17:04:57Z</time>
      </trkpt>
      <trkpt lat="42.5428000" lon="-6.5909750">
        <ele>532.0</ele>
        <time>2014-10-02T17:04:58Z</time>
      </trkpt>
      <trkpt lat="42.5427900" lon="-6.5908770">
        <ele>532.0</ele>
        <time>2014-10-02T17:04:59Z</time>
      </trkpt>
      <trkpt lat="42.5427810" lon="-6.5907830">
        <ele>532.1</ele>
        <time>2014-10-02T17:05:00Z</time>
      </trkpt>
      <trkpt lat="42.5427710" lon="-6.5907070">
        <ele>532.1</ele>
        <time>2014-10-02T17:05:01Z</time>
      </trkpt>
      <trkpt lat="42.5427580" lon="-6.5906420">
        <ele>532.2</ele>
        <time>2014-10-02T17:05:02Z</time>
      </trkpt>
      <trkpt lat="42.5427430" lon="-6.5905850">
        <ele>532.2</ele>
        <time>2014-10-02T17:05:03Z</time>
      </trkpt>
      <trkpt lat="42.5427300" lon="-6.5905260">
        <ele>532.3</ele>
        <time>2014-10-02T17:05:04Z</time>
      </trkpt>
      <trkpt lat="42.5427230" lon="-6.5904580">
        <ele>532.3</ele>
        <time>2014-10-02T17:05:05Z</time>
      </trkpt>
      <trkpt lat="42.5427100" lon="-6.5903860">
        <ele>532.3</ele>
        <time>2014-10-02T17:05:06Z</time>
      </trkpt>
      <trkpt lat="42.5427000" lon="-6.5903130">
        <ele>532.4</ele>
        <time>2014-10-02T17:05:07Z</time>
      </trkpt>
      <trkpt lat="42.5426900" lon="-6.5902400">
        <ele>532.4</ele>
        <time>2014-10-02T17:05:08Z</time>
      </trkpt>
      <trkpt lat="42.5426820" lon="-6.5901680">
        <ele>532.5</ele>
        <time>2014-10-02T17:05:09Z</time>
      </trkpt>
      <trkpt lat="42.5426790" lon="-6.5901000">
        <ele>532.6</ele>
        <time>2014-10-02T17:05:10Z</time>
      </trkpt>
      <trkpt lat="42.5426790" lon="-6.5900250">
        <ele>532.7</ele>
        <time>2014-10-02T17:05:11Z</time>
      </trkpt>
      <trkpt lat="42.5426830" lon="-6.5899540">
        <ele>532.8</ele>
        <time>2014-10-02T17:05:12Z</time>
      </trkpt>
      <trkpt lat="42.5426850" lon="-6.5898920">
        <ele>532.8</ele>
        <time>2014-10-02T17:05:13Z</time>
      </trkpt>
      <trkpt lat="42.5426920" lon="-6.5898230">
        <ele>532.9</ele>
        <time>2014-10-02T17:05:14Z</time>
      </trkpt>
      <trkpt lat="42.5427010" lon="-6.5897550">
        <ele>533.0</ele>
        <time>2014-10-02T17:05:15Z</time>
      </trkpt>
      <trkpt lat="42.5427100" lon="-6.5896730">
        <ele>533.1</ele>
        <time>2014-10-02T17:05:16Z</time>
      </trkpt>
      <trkpt lat="42.5427190" lon="-6.5896050">
        <ele>533.2</ele>
        <time>2014-10-02T17:05:17Z</time>
      </trkpt>
      <trkpt lat="42.5427260" lon="-6.5895350">
        <ele>533.2</ele>
        <time>2014-10-02T17:05:18Z</time>
      </trkpt>
      <trkpt lat="42.5427220" lon="-6.5894710">
        <ele>533.3</ele>
        <time>2014-10-02T17:05:19Z</time>
      </trkpt>
      <trkpt lat="42.5427050" lon="-6.5894180">
        <ele>533.4</ele>
        <time>2014-10-02T17:05:20Z</time>
      </trkpt>
      <trkpt lat="42.5426700" lon="-6.5893850">
        <ele>532.6</ele>
        <time>2014-10-02T17:05:21Z</time>
      </trkpt>
      <trkpt lat="42.5426280" lon="-6.5893470">
        <ele>532.3</ele>
        <time>2014-10-02T17:05:22Z</time>
      </trkpt>
      <trkpt lat="42.5425830" lon="-6.5893140">
        <ele>531.9</ele>
        <time>2014-10-02T17:05:23Z</time>
      </trkpt>
      <trkpt lat="42.5425270" lon="-6.5892950">
        <ele>531.5</ele>
        <time>2014-10-02T17:05:24Z</time>
      </trkpt>
      <trkpt lat="42.5424660" lon="-6.5892730">
        <ele>531.1</ele>
        <time>2014-10-02T17:05:25Z</time>
      </trkpt>
      <trkpt lat="42.5424050" lon="-6.5892520">
        <ele>530.7</ele>
        <time>2014-10-02T17:05:26Z</time>
      </trkpt>
      <trkpt lat="42.5423370" lon="-6.5892300">
        <ele>530.3</ele>
        <time>2014-10-02T17:05:27Z</time>
      </trkpt>
      <trkpt lat="42.5422720" lon="-6.5892080">
        <ele>529.9</ele>
        <time>2014-10-02T17:05:28Z</time>
      </trkpt>
      <trkpt lat="42.5422080" lon="-6.5891870">
        <ele>529.5</ele>
        <time>2014-10-02T17:05:29Z</time>
      </trkpt>
      <trkpt lat="42.5421470" lon="-6.5891670">
        <ele>529.5</ele>
        <time>2014-10-02T17:05:30Z</time>
      </trkpt>
      <trkpt lat="42.5420790" lon="-6.5891450">
        <ele>529.4</ele>
        <time>2014-10-02T17:05:31Z</time>
      </trkpt>
      <trkpt lat="42.5420080" lon="-6.5891190">
        <ele>529.2</ele>
        <time>2014-10-02T17:05:32Z</time>
      </trkpt>
      <trkpt lat="42.5419450" lon="-6.5890990">
        <ele>529.1</ele>
        <time>2014-10-02T17:05:33Z</time>
      </trkpt>
      <trkpt lat="42.5418810" lon="-6.5890760">
        <ele>529.0</ele>
        <time>2014-10-02T17:05:34Z</time>
      </trkpt>
      <trkpt lat="42.5418160" lon="-6.5890500">
        <ele>528.9</ele>
        <time>2014-10-02T17:05:35Z</time>
      </trkpt>
      <trkpt lat="42.5417490" lon="-6.5890260">
        <ele>528.7</ele>
        <time>2014-10-02T17:05:36Z</time>
      </trkpt>
      <trkpt lat="42.5416840" lon="-6.5890020">
        <ele>528.6</ele>
        <time>2014-10-02T17:05:37Z</time>
      </trkpt>
      <trkpt lat="42.5416150" lon="-6.5889780">
        <ele>528.5</ele>
        <time>2014-10-02T17:05:38Z</time>
      </trkpt>
      <trkpt lat="42.5415440" lon="-6.5889520">
        <ele>528.3</ele>
        <time>2014-10-02T17:05:39Z</time>
      </trkpt>
      <trkpt lat="42.5414740" lon="-6.5889280">
        <ele>528.1</ele>
        <time>2014-10-02T17:05:40Z</time>
      </trkpt>
      <trkpt lat="42.5414070" lon="-6.5889030">
        <ele>527.9</ele>
        <time>2014-10-02T17:05:41Z</time>
      </trkpt>
      <trkpt lat="42.5413340" lon="-6.5888780">
        <ele>527.6</ele>
        <time>2014-10-02T17:05:42Z</time>
      </trkpt>
      <trkpt lat="42.5412650" lon="-6.5888510">
        <ele>527.2</ele>
        <time>2014-10-02T17:05:43Z</time>
      </trkpt>
      <trkpt lat="42.5411940" lon="-6.5888250">
        <ele>526.8</ele>
        <time>2014-10-02T17:05:44Z</time>
      </trkpt>
      <trkpt lat="42.5411210" lon="-6.5888020">
        <ele>526.2</ele>
        <time>2014-10-02T17:05:45Z</time>
      </trkpt>
      <trkpt lat="42.5410430" lon="-6.5887820">
        <ele>525.6</ele>
        <time>2014-10-02T17:05:46Z</time>
      </trkpt>
      <trkpt lat="42.5409600" lon="-6.5887610">
        <ele>524.8</ele>
        <time>2014-10-02T17:05:47Z</time>
      </trkpt>
      <trkpt lat="42.5408710" lon="-6.5887430">
        <ele>523.9</ele>
        <time>2014-10-02T17:05:48Z</time>
      </trkpt>
      <trkpt lat="42.5407760" lon="-6.5887320">
        <ele>522.9</ele>
        <time>2014-10-02T17:05:49Z</time>
      </trkpt>
      <trkpt lat="42.5406740" lon="-6.5887240">
        <ele>521.8</ele>
        <time>2014-10-02T17:05:50Z</time>
      </trkpt>
      <trkpt lat="42.5405630" lon="-6.5887230">
        <ele>520.5</ele>
        <time>2014-10-02T17:05:51Z</time>
      </trkpt>
      <trkpt lat="42.5404490" lon="-6.5887310">
        <ele>519.2</ele>
        <time>2014-10-02T17:05:52Z</time>
      </trkpt>
      <trkpt lat="42.5403360" lon="-6.5887460">
        <ele>517.9</ele>
        <time>2014-10-02T17:05:53Z</time>
      </trkpt>
      <trkpt lat="42.5402160" lon="-6.5887680">
        <ele>516.6</ele>
        <time>2014-10-02T17:05:54Z</time>
      </trkpt>
      <trkpt lat="42.5400960" lon="-6.5887940">
        <ele>515.2</ele>
        <time>2014-10-02T17:05:55Z</time>
      </trkpt>
      <trkpt lat="42.5399830" lon="-6.5888260">
        <ele>513.9</ele>
        <time>2014-10-02T17:05:56Z</time>
      </trkpt>
      <trkpt lat="42.5398720" lon="-6.5888660">
        <ele>512.6</ele>
        <time>2014-10-02T17:05:57Z</time>
      </trkpt>
      <trkpt lat="42.5397720" lon="-6.5889060">
        <ele>511.7</ele>
        <time>2014-10-02T17:05:58Z</time>
      </trkpt>
      <trkpt lat="42.5396770" lon="-6.5889460">
        <ele>511.2</ele>
        <time>2014-10-02T17:05:59Z</time>
      </trkpt>
      <trkpt lat="42.5395880" lon="-6.5889850">
        <ele>510.9</ele>
        <time>2014-10-02T17:06:00Z</time>
      </trkpt>
      <trkpt lat="42.5395090" lon="-6.5890280">
        <ele>510.7</ele>
        <time>2014-10-02T17:06:01Z</time>
      </trkpt>
      <trkpt lat="42.5394310" lon="-6.5890730">
        <ele>510.3</ele>
        <time>2014-10-02T17:06:02Z</time>
      </trkpt>
      <trkpt lat="42.5393470" lon="-6.5891200">
        <ele>510.1</ele>
        <time>2014-10-02T17:06:03Z</time>
      </trkpt>
      <trkpt lat="42.5392630" lon="-6.5891360">
        <ele>509.9</ele>
        <time>2014-10-02T17:06:04Z</time>
      </trkpt>
      <trkpt lat="42.5391800" lon="-6.5891420">
        <ele>509.8</ele>
        <time>2014-10-02T17:06:05Z</time>
      </trkpt>
      <trkpt lat="42.5391020" lon="-6.5891170">
        <ele>509.6</ele>
        <time>2014-10-02T17:06:06Z</time>
      </trkpt>
      <trkpt lat="42.5390250" lon="-6.5890980">
        <ele>509.5</ele>
        <time>2014-10-02T17:06:07Z</time>
      </trkpt>
      <trkpt lat="42.5389480" lon="-6.5891040">
        <ele>509.5</ele>
        <time>2014-10-02T17:06:08Z</time>
      </trkpt>
      <trkpt lat="42.5388650" lon="-6.5891110">
        <ele>509.6</ele>
        <time>2014-10-02T17:06:09Z</time>
      </trkpt>
      <trkpt lat="42.5387830" lon="-6.5891200">
        <ele>509.9</ele>
        <time>2014-10-02T17:06:10Z</time>
      </trkpt>
      <trkpt lat="42.5387110" lon="-6.5891320">
        <ele>510.3</ele>
        <time>2014-10-02T17:06:11Z</time>
      </trkpt>
      <trkpt lat="42.5386470" lon="-6.5891480">
        <ele>510.8</ele>
        <time>2014-10-02T17:06:12Z</time>
      </trkpt>
      <trkpt lat="42.5385910" lon="-6.5891680">
        <ele>511.1</ele>
        <time>2014-10-02T17:06:13Z</time>
      </trkpt>
      <trkpt lat="42.5385400" lon="-6.5891920">
        <ele>511.5</ele>
        <time>2014-10-02T17:06:14Z</time>
      </trkpt>
      <trkpt lat="42.5384870" lon="-6.5892200">
        <ele>511.8</ele>
        <time>2014-10-02T17:06:15Z</time>
      </trkpt>
      <trkpt lat="42.5384380" lon="-6.5892540">
        <ele>512.0</ele>
        <time>2014-10-02T17:06:16Z</time>
      </trkpt>
      <trkpt lat="42.5384010" lon="-6.5892820">
        <ele>512.2</ele>
        <time>2014-10-02T17:06:17Z</time>
      </trkpt>
      <trkpt lat="42.5383590" lon="-6.5893160">
        <ele>512.3</ele>
        <time>2014-10-02T17:06:18Z</time>
      </trkpt>
      <trkpt lat="42.5383130" lon="-6.5893550">
        <ele>512.4</ele>
        <time>2014-10-02T17:06:19Z</time>
      </trkpt>
      <trkpt lat="42.5382680" lon="-6.5893880">
        <ele>512.5</ele>
        <time>2014-10-02T17:06:20Z</time>
      </trkpt>
      <trkpt lat="42.5382230" lon="-6.5894210">
        <ele>512.6</ele>
        <time>2014-10-02T17:06:21Z</time>
      </trkpt>
      <trkpt lat="42.5381720" lon="-6.5894580">
        <ele>512.8</ele>
        <time>2014-10-02T17:06:22Z</time>
      </trkpt>
      <trkpt lat="42.5381190" lon="-6.5894970">
        <ele>512.6</ele>
        <time>2014-10-02T17:06:23Z</time>
      </trkpt>
      <trkpt lat="42.5380670" lon="-6.5895360">
        <ele>512.6</ele>
        <time>2014-10-02T17:06:24Z</time>
      </trkpt>
      <trkpt lat="42.5380150" lon="-6.5895810">
        <ele>512.6</ele>
        <time>2014-10-02T17:06:25Z</time>
      </trkpt>
      <trkpt lat="42.5379880" lon="-6.5896380">
        <ele>512.5</ele>
        <time>2014-10-02T17:06:26Z</time>
      </trkpt>
      <trkpt lat="42.5379790" lon="-6.5896980">
        <ele>512.4</ele>
        <time>2014-10-02T17:06:27Z</time>
      </trkpt>
      <trkpt lat="42.5380130" lon="-6.5897580">
        <ele>512.4</ele>
        <time>2014-10-02T17:06:29Z</time>
      </trkpt>
      <trkpt lat="42.5380320" lon="-6.5897860">
        <ele>512.3</ele>
        <time>2014-10-02T17:06:30Z</time>
      </trkpt>
      <trkpt lat="42.5380630" lon="-6.5898270">
        <ele>512.2</ele>
        <time>2014-10-02T17:06:32Z</time>
      </trkpt>
      <trkpt lat="42.5380960" lon="-6.5898610">
        <ele>512.2</ele>
        <time>2014-10-02T17:06:34Z</time>
      </trkpt>
      <trkpt lat="42.5381380" lon="-6.5899080">
        <ele>512.2</ele>
        <time>2014-10-02T17:06:36Z</time>
      </trkpt>
      <trkpt lat="42.5379240" lon="-6.5898510">
        <ele>512.1</ele>
        <time>2014-10-02T17:10:23Z</time>
      </trkpt>
      <trkpt lat="42.5380690" lon="-6.5899340">
        <ele>512.0</ele>
        <time>2014-10-02T17:14:06Z</time>
      </trkpt>
      <trkpt lat="42.5382130" lon="-6.5900170">
        <ele>511.5</ele>
        <time>2014-10-02T17:14:07Z</time>
      </trkpt>
      <trkpt lat="42.5381930" lon="-6.5899920">
        <ele>511.6</ele>
        <time>2014-10-02T17:14:21Z</time>
      </trkpt>
      <trkpt lat="42.5381430" lon="-6.5899740">
        <ele>511.8</ele>
        <time>2014-10-02T17:14:24Z</time>
      </trkpt>
      <trkpt lat="42.5381230" lon="-6.5899490">
        <ele>511.9</ele>
        <time>2014-10-02T17:14:25Z</time>
      </trkpt>
      <trkpt lat="42.5381060" lon="-6.5899100">
        <ele>512.0</ele>
        <time>2014-10-02T17:14:26Z</time>
      </trkpt>
      <trkpt lat="42.5380810" lon="-6.5898530">
        <ele>512.1</ele>
        <time>2014-10-02T17:14:27Z</time>
      </trkpt>
      <trkpt lat="42.5380550" lon="-6.5897980">
        <ele>512.2</ele>
        <time>2014-10-02T17:14:28Z</time>
      </trkpt>
      <trkpt lat="42.5380220" lon="-6.5897470">
        <ele>510.7</ele>
        <time>2014-10-02T17:14:29Z</time>
      </trkpt>
      <trkpt lat="42.5379940" lon="-6.5897130">
        <ele>510.8</ele>
        <time>2014-10-02T17:14:30Z</time>
      </trkpt>
      <trkpt lat="42.5379570" lon="-6.5896820">
        <ele>510.8</ele>
        <time>2014-10-02T17:14:31Z</time>
      </trkpt>
      <trkpt lat="42.5379300" lon="-6.5896600">
        <ele>511.0</ele>
        <time>2014-10-02T17:14:32Z</time>
      </trkpt>
      <trkpt lat="42.5379040" lon="-6.5896410">
        <ele>511.0</ele>
        <time>2014-10-02T17:14:33Z</time>
      </trkpt>
      <trkpt lat="42.5378790" lon="-6.5896200">
        <ele>511.0</ele>
        <time>2014-10-02T17:14:34Z</time>
      </trkpt>
      <trkpt lat="42.5378520" lon="-6.5895900">
        <ele>511.1</ele>
        <time>2014-10-02T17:14:35Z</time>
      </trkpt>
      <trkpt lat="42.5378200" lon="-6.5895490">
        <ele>511.2</ele>
        <time>2014-10-02T17:14:36Z</time>
      </trkpt>
      <trkpt lat="42.5377900" lon="-6.5895120">
        <ele>511.3</ele>
        <time>2014-10-02T17:14:37Z</time>
      </trkpt>
      <trkpt lat="42.5377630" lon="-6.5894790">
        <ele>511.5</ele>
        <time>2014-10-02T17:14:38Z</time>
      </trkpt>
      <trkpt lat="42.5377310" lon="-6.5894430">
        <ele>511.7</ele>
        <time>2014-10-02T17:14:39Z</time>
      </trkpt>
      <trkpt lat="42.5377060" lon="-6.5894070">
        <ele>511.8</ele>
        <time>2014-10-02T17:14:40Z</time>
      </trkpt>
      <trkpt lat="42.5376750" lon="-6.5893730">
        <ele>511.8</ele>
        <time>2014-10-02T17:14:41Z</time>
      </trkpt>
      <trkpt lat="42.5376420" lon="-6.5893410">
        <ele>511.9</ele>
        <time>2014-10-02T17:14:42Z</time>
      </trkpt>
      <trkpt lat="42.5376140" lon="-6.5893140">
        <ele>511.9</ele>
        <time>2014-10-02T17:14:43Z</time>
      </trkpt>
      <trkpt lat="42.5375850" lon="-6.5892860">
        <ele>511.9</ele>
        <time>2014-10-02T17:14:44Z</time>
      </trkpt>
      <trkpt lat="42.5375590" lon="-6.5892590">
        <ele>512.0</ele>
        <time>2014-10-02T17:14:45Z</time>
      </trkpt>
      <trkpt lat="42.5375280" lon="-6.5892280">
        <ele>512.0</ele>
        <time>2014-10-02T17:14:46Z</time>
      </trkpt>
      <trkpt lat="42.5374950" lon="-6.5891940">
        <ele>512.0</ele>
        <time>2014-10-02T17:14:47Z</time>
      </trkpt>
      <trkpt lat="42.5374660" lon="-6.5891610">
        <ele>512.0</ele>
        <time>2014-10-02T17:14:48Z</time>
      </trkpt>
      <trkpt lat="42.5374390" lon="-6.5891270">
        <ele>512.0</ele>
        <time>2014-10-02T17:14:49Z</time>
      </trkpt>
      <trkpt lat="42.5374120" lon="-6.5890910">
        <ele>511.9</ele>
        <time>2014-10-02T17:14:50Z</time>
      </trkpt>
      <trkpt lat="42.5373860" lon="-6.5890620">
        <ele>511.9</ele>
        <time>2014-10-02T17:14:51Z</time>
      </trkpt>
      <trkpt lat="42.5373570" lon="-6.5890280">
        <ele>511.9</ele>
        <time>2014-10-02T17:14:52Z</time>
      </trkpt>
      <trkpt lat="42.5373330" lon="-6.5889950">
        <ele>511.9</ele>
        <time>2014-10-02T17:14:53Z</time>
      </trkpt>
      <trkpt lat="42.5373090" lon="-6.5889670">
        <ele>511.9</ele>
        <time>2014-10-02T17:14:54Z</time>
      </trkpt>
      <trkpt lat="42.5372750" lon="-6.5889290">
        <ele>511.9</ele>
        <time>2014-10-02T17:14:56Z</time>
      </trkpt>
      <trkpt lat="42.5372440" lon="-6.5888870">
        <ele>511.9</ele>
        <time>2014-10-02T17:14:58Z</time>
      </trkpt>
      <trkpt lat="42.5372560" lon="-6.5889290">
        <ele>511.9</ele>
        <time>2014-10-02T17:15:05Z</time>
      </trkpt>
      <trkpt lat="42.5372870" lon="-6.5889620">
        <ele>511.8</ele>
        <time>2014-10-02T17:15:07Z</time>
      </trkpt>
      <trkpt lat="42.5373160" lon="-6.5889850">
        <ele>511.8</ele>
        <time>2014-10-02T17:15:09Z</time>
      </trkpt>
      <trkpt lat="42.5373440" lon="-6.5889940">
        <ele>511.8</ele>
        <time>2014-10-02T17:15:19Z</time>
      </trkpt>
      <trkpt lat="42.5373710" lon="-6.5890060">
        <ele>511.8</ele>
        <time>2014-10-02T17:15:54Z</time>
      </trkpt>
      <trkpt lat="42.5374000" lon="-6.5889880">
        <ele>511.8</ele>
        <time>2014-10-02T17:16:25Z</time>
      </trkpt>
      <trkpt lat="42.5374280" lon="-6.5889890">
        <ele>511.8</ele>
        <time>2014-10-02T17:16:30Z</time>
      </trkpt>
      <trkpt lat="42.5374460" lon="-6.5888800">
        <ele>515.4</ele>
        <time>2014-10-01T06:03:30Z</time>
      </trkpt>
      <trkpt lat="42.5374270" lon="-6.5888310">
        <ele>515.5</ele>
        <time>2014-10-01T06:04:30Z</time>
      </trkpt>
      <trkpt lat="42.5374040" lon="-6.5888020">
        <ele>515.6</ele>
        <time>2014-10-01T06:04:31Z</time>
      </trkpt>
      <trkpt lat="42.5373670" lon="-6.5887540">
        <ele>515.8</ele>
        <time>2014-10-01T06:04:33Z</time>
      </trkpt>
      <trkpt lat="42.5373430" lon="-6.5887290">
        <ele>515.9</ele>
        <time>2014-10-01T06:04:34Z</time>
      </trkpt>
      <trkpt lat="42.5373200" lon="-6.5887060">
        <ele>516.0</ele>
        <time>2014-10-01T06:04:35Z</time>
      </trkpt>
      <trkpt lat="42.5372980" lon="-6.5886810">
        <ele>516.1</ele>
        <time>2014-10-01T06:04:36Z</time>
      </trkpt>
      <trkpt lat="42.5372680" lon="-6.5886460">
        <ele>516.2</ele>
        <time>2014-10-01T06:04:37Z</time>
      </trkpt>
      <trkpt lat="42.5372430" lon="-6.5886200">
        <ele>516.3</ele>
        <time>2014-10-01T06:04:38Z</time>
      </trkpt>
      <trkpt lat="42.5372210" lon="-6.5885950">
        <ele>516.4</ele>
        <time>2014-10-01T06:04:39Z</time>
      </trkpt>
      <trkpt lat="42.5371970" lon="-6.5885630">
        <ele>516.5</ele>
        <time>2014-10-01T06:04:40Z</time>
      </trkpt>
      <trkpt lat="42.5371720" lon="-6.5885320">
        <ele>516.6</ele>
        <time>2014-10-01T06:04:41Z</time>
      </trkpt>
      <trkpt lat="42.5371430" lon="-6.5884960">
        <ele>516.7</ele>
        <time>2014-10-01T06:04:42Z</time>
      </trkpt>
      <trkpt lat="42.5371100" lon="-6.5884550">
        <ele>516.9</ele>
        <time>2014-10-01T06:04:43Z</time>
      </trkpt>
      <trkpt lat="42.5370790" lon="-6.5884190">
        <ele>517.0</ele>
        <time>2014-10-01T06:04:44Z</time>
      </trkpt>
      <trkpt lat="42.5370510" lon="-6.5883860">
        <ele>517.1</ele>
        <time>2014-10-01T06:04:45Z</time>
      </trkpt>
      <trkpt lat="42.5370240" lon="-6.5883550">
        <ele>517.2</ele>
        <time>2014-10-01T06:04:46Z</time>
      </trkpt>
      <trkpt lat="42.5369890" lon="-6.5883220">
        <ele>517.3</ele>
        <time>2014-10-01T06:04:47Z</time>
      </trkpt>
      <trkpt lat="42.5369530" lon="-6.5882850">
        <ele>517.4</ele>
        <time>2014-10-01T06:04:48Z</time>
      </trkpt>
      <trkpt lat="42.5369190" lon="-6.5882470">
        <ele>517.5</ele>
        <time>2014-10-01T06:04:49Z</time>
      </trkpt>
      <trkpt lat="42.5368860" lon="-6.5882110">
        <ele>517.6</ele>
        <time>2014-10-01T06:04:50Z</time>
      </trkpt>
      <trkpt lat="42.5368520" lon="-6.5881750">
        <ele>517.7</ele>
        <time>2014-10-01T06:04:51Z</time>
      </trkpt>
      <trkpt lat="42.5368170" lon="-6.5881370">
        <ele>517.8</ele>
        <time>2014-10-01T06:04:52Z</time>
      </trkpt>
      <trkpt lat="42.5367830" lon="-6.5881000">
        <ele>517.8</ele>
        <time>2014-10-01T06:04:53Z</time>
      </trkpt>
      <trkpt lat="42.5367500" lon="-6.5880600">
        <ele>517.9</ele>
        <time>2014-10-01T06:04:54Z</time>
      </trkpt>
      <trkpt lat="42.5367200" lon="-6.5880200">
        <ele>518.0</ele>
        <time>2014-10-01T06:04:55Z</time>
      </trkpt>
      <trkpt lat="42.5366920" lon="-6.5879790">
        <ele>518.0</ele>
        <time>2014-10-01T06:04:56Z</time>
      </trkpt>
      <trkpt lat="42.5366600" lon="-6.5879370">
        <ele>518.1</ele>
        <time>2014-10-01T06:04:57Z</time>
      </trkpt>
      <trkpt lat="42.5366280" lon="-6.5878950">
        <ele>518.2</ele>
        <time>2014-10-01T06:04:58Z</time>
      </trkpt>
      <trkpt lat="42.5365940" lon="-6.5878560">
        <ele>518.3</ele>
        <time>2014-10-01T06:04:59Z</time>
      </trkpt>
      <trkpt lat="42.5365590" lon="-6.5878160">
        <ele>518.3</ele>
        <time>2014-10-01T06:05:00Z</time>
      </trkpt>
      <trkpt lat="42.5365230" lon="-6.5877790">
        <ele>518.4</ele>
        <time>2014-10-01T06:05:01Z</time>
      </trkpt>
      <trkpt lat="42.5364880" lon="-6.5877430">
        <ele>518.4</ele>
        <time>2014-10-01T06:05:02Z</time>
      </trkpt>
      <trkpt lat="42.5364640" lon="-6.5877120">
        <ele>518.4</ele>
        <time>2014-10-01T06:05:03Z</time>
      </trkpt>
      <trkpt lat="42.5364760" lon="-6.5876600">
        <ele>518.4</ele>
        <time>2014-10-01T06:05:05Z</time>
      </trkpt>
      <trkpt lat="42.5365010" lon="-6.5876340">
        <ele>518.4</ele>
        <time>2014-10-01T06:05:06Z</time>
      </trkpt>
      <trkpt lat="42.5365260" lon="-6.5875950">
        <ele>518.4</ele>
        <time>2014-10-01T06:05:07Z</time>
      </trkpt>
      <trkpt lat="42.5365310" lon="-6.5875450">
        <ele>518.4</ele>
        <time>2014-10-01T06:05:08Z</time>
      </trkpt>
      <trkpt lat="42.5365170" lon="-6.5874970">
        <ele>518.4</ele>
        <time>2014-10-01T06:05:09Z</time>
      </trkpt>
      <trkpt lat="42.5364930" lon="-6.5874530">
        <ele>518.4</ele>
        <time>2014-10-01T06:05:10Z</time>
      </trkpt>
      <trkpt lat="42.5364670" lon="-6.5874090">
        <ele>518.4</ele>
        <time>2014-10-01T06:05:11Z</time>
      </trkpt>
      <trkpt lat="42.5364380" lon="-6.5873630">
        <ele>518.4</ele>
        <time>2014-10-01T06:05:12Z</time>
      </trkpt>
      <trkpt lat="42.5364050" lon="-6.5873120">
        <ele>518.4</ele>
        <time>2014-10-01T06:05:13Z</time>
      </trkpt>
      <trkpt lat="42.5363720" lon="-6.5872630">
        <ele>518.4</ele>
        <time>2014-10-01T06:05:14Z</time>
      </trkpt>
      <trkpt lat="42.5363370" lon="-6.5872140">
        <ele>518.4</ele>
        <time>2014-10-01T06:05:15Z</time>
      </trkpt>
      <trkpt lat="42.5363060" lon="-6.5871640">
        <ele>518.5</ele>
        <time>2014-10-01T06:05:16Z</time>
      </trkpt>
      <trkpt lat="42.5362720" lon="-6.5871170">
        <ele>518.5</ele>
        <time>2014-10-01T06:05:17Z</time>
      </trkpt>
      <trkpt lat="42.5362410" lon="-6.5870690">
        <ele>518.6</ele>
        <time>2014-10-01T06:05:18Z</time>
      </trkpt>
      <trkpt lat="42.5362100" lon="-6.5870210">
        <ele>518.6</ele>
        <time>2014-10-01T06:05:19Z</time>
      </trkpt>
      <trkpt lat="42.5361790" lon="-6.5869760">
        <ele>518.7</ele>
        <time>2014-10-01T06:05:20Z</time>
      </trkpt>
      <trkpt lat="42.5361470" lon="-6.5869310">
        <ele>518.7</ele>
        <time>2014-10-01T06:05:21Z</time>
      </trkpt>
      <trkpt lat="42.5361130" lon="-6.5868820">
        <ele>518.8</ele>
        <time>2014-10-01T06:05:22Z</time>
      </trkpt>
      <trkpt lat="42.5360810" lon="-6.5868340">
        <ele>518.8</ele>
        <time>2014-10-01T06:05:23Z</time>
      </trkpt>
      <trkpt lat="42.5360500" lon="-6.5867820">
        <ele>518.8</ele>
        <time>2014-10-01T06:05:24Z</time>
      </trkpt>
      <trkpt lat="42.5360200" lon="-6.5867300">
        <ele>518.9</ele>
        <time>2014-10-01T06:05:25Z</time>
      </trkpt>
      <trkpt lat="42.5359910" lon="-6.5866810">
        <ele>518.9</ele>
        <time>2014-10-01T06:05:26Z</time>
      </trkpt>
      <trkpt lat="42.5359590" lon="-6.5866320">
        <ele>518.9</ele>
        <time>2014-10-01T06:05:27Z</time>
      </trkpt>
      <trkpt lat="42.5359270" lon="-6.5865850">
        <ele>519.0</ele>
        <time>2014-10-01T06:05:28Z</time>
      </trkpt>
      <trkpt lat="42.5358970" lon="-6.5865360">
        <ele>519.0</ele>
        <time>2014-10-01T06:05:29Z</time>
      </trkpt>
      <trkpt lat="42.5358670" lon="-6.5864880">
        <ele>519.0</ele>
        <time>2014-10-01T06:05:30Z</time>
      </trkpt>
      <trkpt lat="42.5358350" lon="-6.5864410">
        <ele>519.0</ele>
        <time>2014-10-01T06:05:31Z</time>
      </trkpt>
      <trkpt lat="42.5358000" lon="-6.5864000">
        <ele>519.0</ele>
        <time>2014-10-01T06:05:32Z</time>
      </trkpt>
      <trkpt lat="42.5357640" lon="-6.5863570">
        <ele>519.0</ele>
        <time>2014-10-01T06:05:33Z</time>
      </trkpt>
      <trkpt lat="42.5357240" lon="-6.5863140">
        <ele>519.1</ele>
        <time>2014-10-01T06:05:34Z</time>
      </trkpt>
      <trkpt lat="42.5356820" lon="-6.5862730">
        <ele>519.1</ele>
        <time>2014-10-01T06:05:35Z</time>
      </trkpt>
      <trkpt lat="42.5356390" lon="-6.5862300">
        <ele>519.1</ele>
        <time>2014-10-01T06:05:36Z</time>
      </trkpt>
      <trkpt lat="42.5355950" lon="-6.5861900">
        <ele>519.1</ele>
        <time>2014-10-01T06:05:37Z</time>
      </trkpt>
      <trkpt lat="42.5355520" lon="-6.5861480">
        <ele>519.1</ele>
        <time>2014-10-01T06:05:38Z</time>
      </trkpt>
      <trkpt lat="42.5355090" lon="-6.5861030">
        <ele>519.0</ele>
        <time>2014-10-01T06:05:39Z</time>
      </trkpt>
      <trkpt lat="42.5354730" lon="-6.5860600">
        <ele>519.0</ele>
        <time>2014-10-01T06:05:40Z</time>
      </trkpt>
      <trkpt lat="42.5354440" lon="-6.5860160">
        <ele>519.0</ele>
        <time>2014-10-01T06:05:41Z</time>
      </trkpt>
      <trkpt lat="42.5354110" lon="-6.5859670">
        <ele>519.0</ele>
        <time>2014-10-01T06:05:42Z</time>
      </trkpt>
      <trkpt lat="42.5353740" lon="-6.5859090">
        <ele>519.0</ele>
        <time>2014-10-01T06:05:43Z</time>
      </trkpt>
      <trkpt lat="42.5353390" lon="-6.5858560">
        <ele>519.0</ele>
        <time>2014-10-01T06:05:44Z</time>
      </trkpt>
      <trkpt lat="42.5353070" lon="-6.5857970">
        <ele>518.9</ele>
        <time>2014-10-01T06:05:45Z</time>
      </trkpt>
      <trkpt lat="42.5352730" lon="-6.5857340">
        <ele>518.9</ele>
        <time>2014-10-01T06:05:46Z</time>
      </trkpt>
      <trkpt lat="42.5352450" lon="-6.5856710">
        <ele>518.9</ele>
        <time>2014-10-01T06:05:47Z</time>
      </trkpt>
      <trkpt lat="42.5352170" lon="-6.5856050">
        <ele>518.9</ele>
        <time>2014-10-01T06:05:48Z</time>
      </trkpt>
      <trkpt lat="42.5351940" lon="-6.5855400">
        <ele>518.8</ele>
        <time>2014-10-01T06:05:49Z</time>
      </trkpt>
      <trkpt lat="42.5351750" lon="-6.5854680">
        <ele>518.8</ele>
        <time>2014-10-01T06:05:50Z</time>
      </trkpt>
      <trkpt lat="42.5351560" lon="-6.5854010">
        <ele>518.8</ele>
        <time>2014-10-01T06:05:51Z</time>
      </trkpt>
      <trkpt lat="42.5351390" lon="-6.5853310">
        <ele>518.8</ele>
        <time>2014-10-01T06:05:52Z</time>
      </trkpt>
      <trkpt lat="42.5351250" lon="-6.5852650">
        <ele>518.8</ele>
        <time>2014-10-01T06:05:53Z</time>
      </trkpt>
      <trkpt lat="42.5351110" lon="-6.5852010">
        <ele>518.8</ele>
        <time>2014-10-01T06:05:54Z</time>
      </trkpt>
      <trkpt lat="42.5350990" lon="-6.5851350">
        <ele>518.8</ele>
        <time>2014-10-01T06:05:55Z</time>
      </trkpt>
      <trkpt lat="42.5350900" lon="-6.5850660">
        <ele>518.8</ele>
        <time>2014-10-01T06:05:56Z</time>
      </trkpt>
      <trkpt lat="42.5350800" lon="-6.5849950">
        <ele>518.8</ele>
        <time>2014-10-01T06:05:57Z</time>
      </trkpt>
      <trkpt lat="42.5350650" lon="-6.5849190">
        <ele>518.7</ele>
        <time>2014-10-01T06:05:58Z</time>
      </trkpt>
      <trkpt lat="42.5350640" lon="-6.5848520">
        <ele>518.7</ele>
        <time>2014-10-01T06:05:59Z</time>
      </trkpt>
      <trkpt lat="42.5350520" lon="-6.5847840">
        <ele>518.7</ele>
        <time>2014-10-01T06:06:00Z</time>
      </trkpt>
      <trkpt lat="42.5350380" lon="-6.5847160">
        <ele>518.6</ele>
        <time>2014-10-01T06:06:01Z</time>
      </trkpt>
      <trkpt lat="42.5350240" lon="-6.5846440">
        <ele>518.6</ele>
        <time>2014-10-01T06:06:02Z</time>
      </trkpt>
      <trkpt lat="42.5350100" lon="-6.5845710">
        <ele>518.5</ele>
        <time>2014-10-01T06:06:03Z</time>
      </trkpt>
      <trkpt lat="42.5349930" lon="-6.5844960">
        <ele>518.4</ele>
        <time>2014-10-01T06:06:04Z</time>
      </trkpt>
      <trkpt lat="42.5349770" lon="-6.5844210">
        <ele>518.3</ele>
        <time>2014-10-01T06:06:05Z</time>
      </trkpt>
      <trkpt lat="42.5349610" lon="-6.5843450">
        <ele>518.2</ele>
        <time>2014-10-01T06:06:06Z</time>
      </trkpt>
      <trkpt lat="42.5349470" lon="-6.5842700">
        <ele>518.1</ele>
        <time>2014-10-01T06:06:07Z</time>
      </trkpt>
      <trkpt lat="42.5349340" lon="-6.5841940">
        <ele>517.9</ele>
        <time>2014-10-01T06:06:08Z</time>
      </trkpt>
      <trkpt lat="42.5349200" lon="-6.5841190">
        <ele>517.7</ele>
        <time>2014-10-01T06:06:09Z</time>
      </trkpt>
      <trkpt lat="42.5349000" lon="-6.5840450">
        <ele>517.4</ele>
        <time>2014-10-01T06:06:10Z</time>
      </trkpt>
      <trkpt lat="42.5348750" lon="-6.5839700">
        <ele>517.1</ele>
        <time>2014-10-01T06:06:11Z</time>
      </trkpt>
      <trkpt lat="42.5348430" lon="-6.5838910">
        <ele>516.8</ele>
        <time>2014-10-01T06:06:12Z</time>
      </trkpt>
      <trkpt lat="42.5348030" lon="-6.5838120">
        <ele>516.3</ele>
        <time>2014-10-01T06:06:13Z</time>
      </trkpt>
      <trkpt lat="42.5347580" lon="-6.5837330">
        <ele>515.9</ele>
        <time>2014-10-01T06:06:14Z</time>
      </trkpt>
      <trkpt lat="42.5347100" lon="-6.5836500">
        <ele>515.3</ele>
        <time>2014-10-01T06:06:15Z</time>
      </trkpt>
      <trkpt lat="42.5346630" lon="-6.5835610">
        <ele>514.8</ele>
        <time>2014-10-01T06:06:16Z</time>
      </trkpt>
      <trkpt lat="42.5346330" lon="-6.5834560">
        <ele>515.0</ele>
        <time>2014-10-01T06:06:17Z</time>
      </trkpt>
      <trkpt lat="42.5346090" lon="-6.5833470">
        <ele>514.8</ele>
        <time>2014-10-01T06:06:18Z</time>
      </trkpt>
      <trkpt lat="42.5346030" lon="-6.5832290">
        <ele>514.7</ele>
        <time>2014-10-01T06:06:19Z</time>
      </trkpt>
      <trkpt lat="42.5346040" lon="-6.5831110">
        <ele>514.5</ele>
        <time>2014-10-01T06:06:20Z</time>
      </trkpt>
      <trkpt lat="42.5346300" lon="-6.5829990">
        <ele>514.4</ele>
        <time>2014-10-01T06:06:21Z</time>
      </trkpt>
      <trkpt lat="42.5346610" lon="-6.5828920">
        <ele>514.3</ele>
        <time>2014-10-01T06:06:22Z</time>
      </trkpt>
      <trkpt lat="42.5346930" lon="-6.5827940">
        <ele>514.2</ele>
        <time>2014-10-01T06:06:23Z</time>
      </trkpt>
      <trkpt lat="42.5347270" lon="-6.5827000">
        <ele>514.2</ele>
        <time>2014-10-01T06:06:24Z</time>
      </trkpt>
      <trkpt lat="42.5347580" lon="-6.5826100">
        <ele>514.2</ele>
        <time>2014-10-01T06:06:25Z</time>
      </trkpt>
      <trkpt lat="42.5347890" lon="-6.5825250">
        <ele>514.3</ele>
        <time>2014-10-01T06:06:26Z</time>
      </trkpt>
      <trkpt lat="42.5348160" lon="-6.5824380">
        <ele>514.4</ele>
        <time>2014-10-01T06:06:27Z</time>
      </trkpt>
      <trkpt lat="42.5348420" lon="-6.5823520">
        <ele>514.5</ele>
        <time>2014-10-01T06:06:28Z</time>
      </trkpt>
      <trkpt lat="42.5348690" lon="-6.5822640">
        <ele>514.6</ele>
        <time>2014-10-01T06:06:29Z</time>
      </trkpt>
      <trkpt lat="42.5348990" lon="-6.5821780">
        <ele>514.7</ele>
        <time>2014-10-01T06:06:30Z</time>
      </trkpt>
      <trkpt lat="42.5349300" lon="-6.5820990">
        <ele>514.9</ele>
        <time>2014-10-01T06:06:31Z</time>
      </trkpt>
      <trkpt lat="42.5349650" lon="-6.5820270">
        <ele>515.1</ele>
        <time>2014-10-01T06:06:32Z</time>
      </trkpt>
      <trkpt lat="42.5350020" lon="-6.5819560">
        <ele>515.3</ele>
        <time>2014-10-01T06:06:33Z</time>
      </trkpt>
      <trkpt lat="42.5350410" lon="-6.5818900">
        <ele>515.5</ele>
        <time>2014-10-01T06:06:34Z</time>
      </trkpt>
      <trkpt lat="42.5350820" lon="-6.5818290">
        <ele>515.6</ele>
        <time>2014-10-01T06:06:35Z</time>
      </trkpt>
      <trkpt lat="42.5351250" lon="-6.5817730">
        <ele>515.8</ele>
        <time>2014-10-01T06:06:36Z</time>
      </trkpt>
      <trkpt lat="42.5351690" lon="-6.5817190">
        <ele>516.0</ele>
        <time>2014-10-01T06:06:37Z</time>
      </trkpt>
      <trkpt lat="42.5352140" lon="-6.5816650">
        <ele>516.1</ele>
        <time>2014-10-01T06:06:38Z</time>
      </trkpt>
      <trkpt lat="42.5352560" lon="-6.5816130">
        <ele>516.3</ele>
        <time>2014-10-01T06:06:39Z</time>
      </trkpt>
      <trkpt lat="42.5352970" lon="-6.5815610">
        <ele>516.5</ele>
        <time>2014-10-01T06:06:40Z</time>
      </trkpt>
      <trkpt lat="42.5353390" lon="-6.5815060">
        <ele>516.6</ele>
        <time>2014-10-01T06:06:41Z</time>
      </trkpt>
      <trkpt lat="42.5353800" lon="-6.5814470">
        <ele>516.6</ele>
        <time>2014-10-01T06:06:42Z</time>
      </trkpt>
      <trkpt lat="42.5354170" lon="-6.5813810">
        <ele>516.7</ele>
        <time>2014-10-01T06:06:43Z</time>
      </trkpt>
      <trkpt lat="42.5354510" lon="-6.5813110">
        <ele>517.0</ele>
        <time>2014-10-01T06:06:44Z</time>
      </trkpt>
      <trkpt lat="42.5354710" lon="-6.5812360">
        <ele>517.3</ele>
        <time>2014-10-01T06:06:45Z</time>
      </trkpt>
      <trkpt lat="42.5354880" lon="-6.5811640">
        <ele>517.6</ele>
        <time>2014-10-01T06:06:46Z</time>
      </trkpt>
      <trkpt lat="42.5354990" lon="-6.5810970">
        <ele>518.0</ele>
        <time>2014-10-01T06:06:47Z</time>
      </trkpt>
      <trkpt lat="42.5355000" lon="-6.5810350">
        <ele>518.3</ele>
        <time>2014-10-01T06:06:48Z</time>
      </trkpt>
      <trkpt lat="42.5355000" lon="-6.5809740">
        <ele>518.6</ele>
        <time>2014-10-01T06:06:49Z</time>
      </trkpt>
      <trkpt lat="42.5354980" lon="-6.5809160">
        <ele>518.9</ele>
        <time>2014-10-01T06:06:50Z</time>
      </trkpt>
      <trkpt lat="42.5354940" lon="-6.5808610">
        <ele>519.2</ele>
        <time>2014-10-01T06:06:51Z</time>
      </trkpt>
      <trkpt lat="42.5354890" lon="-6.5808090">
        <ele>519.5</ele>
        <time>2014-10-01T06:06:52Z</time>
      </trkpt>
      <trkpt lat="42.5354860" lon="-6.5807590">
        <ele>519.8</ele>
        <time>2014-10-01T06:06:53Z</time>
      </trkpt>
      <trkpt lat="42.5354830" lon="-6.5807080">
        <ele>520.1</ele>
        <time>2014-10-01T06:06:54Z</time>
      </trkpt>
      <trkpt lat="42.5354800" lon="-6.5806590">
        <ele>520.3</ele>
        <time>2014-10-01T06:06:55Z</time>
      </trkpt>
      <trkpt lat="42.5354780" lon="-6.5806100">
        <ele>520.5</ele>
        <time>2014-10-01T06:06:56Z</time>
      </trkpt>
      <trkpt lat="42.5354760" lon="-6.5805580">
        <ele>520.7</ele>
        <time>2014-10-01T06:06:57Z</time>
      </trkpt>
      <trkpt lat="42.5354760" lon="-6.5805100">
        <ele>520.9</ele>
        <time>2014-10-01T06:06:58Z</time>
      </trkpt>
      <trkpt lat="42.5354760" lon="-6.5804590">
        <ele>521.1</ele>
        <time>2014-10-01T06:06:59Z</time>
      </trkpt>
      <trkpt lat="42.5354760" lon="-6.5804080">
        <ele>521.2</ele>
        <time>2014-10-01T06:07:00Z</time>
      </trkpt>
      <trkpt lat="42.5354760" lon="-6.5803560">
        <ele>521.4</ele>
        <time>2014-10-01T06:07:01Z</time>
      </trkpt>
      <trkpt lat="42.5354760" lon="-6.5802990">
        <ele>521.5</ele>
        <time>2014-10-01T06:07:02Z</time>
      </trkpt>
      <trkpt lat="42.5354770" lon="-6.5802400">
        <ele>521.6</ele>
        <time>2014-10-01T06:07:03Z</time>
      </trkpt>
      <trkpt lat="42.5354770" lon="-6.5801780">
        <ele>521.7</ele>
        <time>2014-10-01T06:07:04Z</time>
      </trkpt>
      <trkpt lat="42.5354740" lon="-6.5801130">
        <ele>521.7</ele>
        <time>2014-10-01T06:07:05Z</time>
      </trkpt>
      <trkpt lat="42.5354700" lon="-6.5800470">
        <ele>521.8</ele>
        <time>2014-10-01T06:07:06Z</time>
      </trkpt>
      <trkpt lat="42.5354650" lon="-6.5799780">
        <ele>521.9</ele>
        <time>2014-10-01T06:07:07Z</time>
      </trkpt>
      <trkpt lat="42.5354590" lon="-6.5799080">
        <ele>521.9</ele>
        <time>2014-10-01T06:07:08Z</time>
      </trkpt>
      <trkpt lat="42.5354530" lon="-6.5798370">
        <ele>521.9</ele>
        <time>2014-10-01T06:07:09Z</time>
      </trkpt>
      <trkpt lat="42.5354470" lon="-6.5797630">
        <ele>522.0</ele>
        <time>2014-10-01T06:07:10Z</time>
      </trkpt>
      <trkpt lat="42.5354410" lon="-6.5796870">
        <ele>522.0</ele>
        <time>2014-10-01T06:07:11Z</time>
      </trkpt>
      <trkpt lat="42.5354350" lon="-6.5796100">
        <ele>522.0</ele>
        <time>2014-10-01T06:07:12Z</time>
      </trkpt>
      <trkpt lat="42.5354320" lon="-6.5795330">
        <ele>522.0</ele>
        <time>2014-10-01T06:07:13Z</time>
      </trkpt>
      <trkpt lat="42.5354300" lon="-6.5794550">
        <ele>522.0</ele>
        <time>2014-10-01T06:07:14Z</time>
      </trkpt>
      <trkpt lat="42.5354270" lon="-6.5793770">
        <ele>522.1</ele>
        <time>2014-10-01T06:07:15Z</time>
      </trkpt>
      <trkpt lat="42.5354240" lon="-6.5792980">
        <ele>522.1</ele>
        <time>2014-10-01T06:07:16Z</time>
      </trkpt>
      <trkpt lat="42.5354230" lon="-6.5792190">
        <ele>522.1</ele>
        <time>2014-10-01T06:07:17Z</time>
      </trkpt>
      <trkpt lat="42.5354230" lon="-6.5791410">
        <ele>522.1</ele>
        <time>2014-10-01T06:07:18Z</time>
      </trkpt>
      <trkpt lat="42.5354230" lon="-6.5790620">
        <ele>522.1</ele>
        <time>2014-10-01T06:07:19Z</time>
      </trkpt>
      <trkpt lat="42.5354230" lon="-6.5789830">
        <ele>522.2</ele>
        <time>2014-10-01T06:07:20Z</time>
      </trkpt>
      <trkpt lat="42.5354220" lon="-6.5789070">
        <ele>522.2</ele>
        <time>2014-10-01T06:07:21Z</time>
      </trkpt>
      <trkpt lat="42.5354200" lon="-6.5788340">
        <ele>522.2</ele>
        <time>2014-10-01T06:07:22Z</time>
      </trkpt>
      <trkpt lat="42.5354170" lon="-6.5787620">
        <ele>522.2</ele>
        <time>2014-10-01T06:07:23Z</time>
      </trkpt>
      <trkpt lat="42.5354120" lon="-6.5786900">
        <ele>522.3</ele>
        <time>2014-10-01T06:07:24Z</time>
      </trkpt>
      <trkpt lat="42.5354080" lon="-6.5786180">
        <ele>522.3</ele>
        <time>2014-10-01T06:07:25Z</time>
      </trkpt>
      <trkpt lat="42.5354040" lon="-6.5785440">
        <ele>522.3</ele>
        <time>2014-10-01T06:07:26Z</time>
      </trkpt>
      <trkpt lat="42.5354000" lon="-6.5784700">
        <ele>522.4</ele>
        <time>2014-10-01T06:07:27Z</time>
      </trkpt>
      <trkpt lat="42.5353960" lon="-6.5783940">
        <ele>522.4</ele>
        <time>2014-10-01T06:07:28Z</time>
      </trkpt>
      <trkpt lat="42.5353920" lon="-6.5783170">
        <ele>522.4</ele>
        <time>2014-10-01T06:07:29Z</time>
      </trkpt>
      <trkpt lat="42.5353890" lon="-6.5782400">
        <ele>522.4</ele>
        <time>2014-10-01T06:07:30Z</time>
      </trkpt>
      <trkpt lat="42.5353870" lon="-6.5781620">
        <ele>522.4</ele>
        <time>2014-10-01T06:07:31Z</time>
      </trkpt>
      <trkpt lat="42.5353860" lon="-6.5780840">
        <ele>522.4</ele>
        <time>2014-10-01T06:07:32Z</time>
      </trkpt>
      <trkpt lat="42.5353840" lon="-6.5780050">
        <ele>522.4</ele>
        <time>2014-10-01T06:07:33Z</time>
      </trkpt>
      <trkpt lat="42.5353830" lon="-6.5779260">
        <ele>522.4</ele>
        <time>2014-10-01T06:07:34Z</time>
      </trkpt>
      <trkpt lat="42.5353810" lon="-6.5778450">
        <ele>522.5</ele>
        <time>2014-10-01T06:07:35Z</time>
      </trkpt>
      <trkpt lat="42.5353780" lon="-6.5777650">
        <ele>522.5</ele>
        <time>2014-10-01T06:07:36Z</time>
      </trkpt>
      <trkpt lat="42.5353750" lon="-6.5776840">
        <ele>522.5</ele>
        <time>2014-10-01T06:07:37Z</time>
      </trkpt>
      <trkpt lat="42.5353720" lon="-6.5776030">
        <ele>522.6</ele>
        <time>2014-10-01T06:07:38Z</time>
      </trkpt>
      <trkpt lat="42.5353700" lon="-6.5775220">
        <ele>522.6</ele>
        <time>2014-10-01T06:07:39Z</time>
      </trkpt>
      <trkpt lat="42.5353670" lon="-6.5774400">
        <ele>522.6</ele>
        <time>2014-10-01T06:07:40Z</time>
      </trkpt>
      <trkpt lat="42.5353640" lon="-6.5773580">
        <ele>522.7</ele>
        <time>2014-10-01T06:07:41Z</time>
      </trkpt>
      <trkpt lat="42.5353610" lon="-6.5772750">
        <ele>522.7</ele>
        <time>2014-10-01T06:07:42Z</time>
      </trkpt>
      <trkpt lat="42.5353580" lon="-6.5771920">
        <ele>522.7</ele>
        <time>2014-10-01T06:07:43Z</time>
      </trkpt>
      <trkpt lat="42.5353550" lon="-6.5771080">
        <ele>522.7</ele>
        <time>2014-10-01T06:07:44Z</time>
      </trkpt>
      <trkpt lat="42.5353500" lon="-6.5770230">
        <ele>522.8</ele>
        <time>2014-10-01T06:07:45Z</time>
      </trkpt>
      <trkpt lat="42.5353450" lon="-6.5769380">
        <ele>522.8</ele>
        <time>2014-10-01T06:07:46Z</time>
      </trkpt>
      <trkpt lat="42.5353410" lon="-6.5768530">
        <ele>522.8</ele>
        <time>2014-10-01T06:07:47Z</time>
      </trkpt>
      <trkpt lat="42.5353380" lon="-6.5767680">
        <ele>522.8</ele>
        <time>2014-10-01T06:07:48Z</time>
      </trkpt>
      <trkpt lat="42.5353350" lon="-6.5766830">
        <ele>522.9</ele>
        <time>2014-10-01T06:07:49Z</time>
      </trkpt>
      <trkpt lat="42.5353320" lon="-6.5765980">
        <ele>522.9</ele>
        <time>2014-10-01T06:07:50Z</time>
      </trkpt>
      <trkpt lat="42.5353310" lon="-6.5765130">
        <ele>522.9</ele>
        <time>2014-10-01T06:07:51Z</time>
      </trkpt>
      <trkpt lat="42.5353300" lon="-6.5764290">
        <ele>523.0</ele>
        <time>2014-10-01T06:07:52Z</time>
      </trkpt>
      <trkpt lat="42.5353290" lon="-6.5763440">
        <ele>523.0</ele>
        <time>2014-10-01T06:07:53Z</time>
      </trkpt>
      <trkpt lat="42.5353280" lon="-6.5762580">
        <ele>523.0</ele>
        <time>2014-10-01T06:07:54Z</time>
      </trkpt>
      <trkpt lat="42.5353260" lon="-6.5761720">
        <ele>523.1</ele>
        <time>2014-10-01T06:07:55Z</time>
      </trkpt>
      <trkpt lat="42.5353240" lon="-6.5760850">
        <ele>523.1</ele>
        <time>2014-10-01T06:07:56Z</time>
      </trkpt>
      <trkpt lat="42.5353200" lon="-6.5760010">
        <ele>523.1</ele>
        <time>2014-10-01T06:07:57Z</time>
      </trkpt>
      <trkpt lat="42.5353170" lon="-6.5759190">
        <ele>523.2</ele>
        <time>2014-10-01T06:07:58Z</time>
      </trkpt>
      <trkpt lat="42.5353150" lon="-6.5758350">
        <ele>523.2</ele>
        <time>2014-10-01T06:07:59Z</time>
      </trkpt>
      <trkpt lat="42.5353140" lon="-6.5757510">
        <ele>523.2</ele>
        <time>2014-10-01T06:08:00Z</time>
      </trkpt>
      <trkpt lat="42.5353130" lon="-6.5756660">
        <ele>523.2</ele>
        <time>2014-10-01T06:08:01Z</time>
      </trkpt>
      <trkpt lat="42.5353130" lon="-6.5755820">
        <ele>523.3</ele>
        <time>2014-10-01T06:08:02Z</time>
      </trkpt>
      <trkpt lat="42.5353130" lon="-6.5754980">
        <ele>523.3</ele>
        <time>2014-10-01T06:08:03Z</time>
      </trkpt>
      <trkpt lat="42.5353130" lon="-6.5754150">
        <ele>523.3</ele>
        <time>2014-10-01T06:08:04Z</time>
      </trkpt>
      <trkpt lat="42.5353130" lon="-6.5753290">
        <ele>523.4</ele>
        <time>2014-10-01T06:08:05Z</time>
      </trkpt>
      <trkpt lat="42.5353130" lon="-6.5752440">
        <ele>523.4</ele>
        <time>2014-10-01T06:08:06Z</time>
      </trkpt>
      <trkpt lat="42.5353130" lon="-6.5751600">
        <ele>523.4</ele>
        <time>2014-10-01T06:08:07Z</time>
      </trkpt>
      <trkpt lat="42.5353130" lon="-6.5750740">
        <ele>523.5</ele>
        <time>2014-10-01T06:08:08Z</time>
      </trkpt>
      <trkpt lat="42.5353130" lon="-6.5749890">
        <ele>523.5</ele>
        <time>2014-10-01T06:08:09Z</time>
      </trkpt>
      <trkpt lat="42.5353130" lon="-6.5749040">
        <ele>523.6</ele>
        <time>2014-10-01T06:08:10Z</time>
      </trkpt>
      <trkpt lat="42.5353130" lon="-6.5748190">
        <ele>523.7</ele>
        <time>2014-10-01T06:08:11Z</time>
      </trkpt>
      <trkpt lat="42.5353130" lon="-6.5747340">
        <ele>523.7</ele>
        <time>2014-10-01T06:08:12Z</time>
      </trkpt>
      <trkpt lat="42.5353140" lon="-6.5746500">
        <ele>523.8</ele>
        <time>2014-10-01T06:08:13Z</time>
      </trkpt>
      <trkpt lat="42.5353160" lon="-6.5745660">
        <ele>523.9</ele>
        <time>2014-10-01T06:08:14Z</time>
      </trkpt>
      <trkpt lat="42.5353180" lon="-6.5744820">
        <ele>523.9</ele>
        <time>2014-10-01T06:08:15Z</time>
      </trkpt>
      <trkpt lat="42.5353200" lon="-6.5743980">
        <ele>524.0</ele>
        <time>2014-10-01T06:08:16Z</time>
      </trkpt>
      <trkpt lat="42.5353220" lon="-6.5743140">
        <ele>524.0</ele>
        <time>2014-10-01T06:08:17Z</time>
      </trkpt>
      <trkpt lat="42.5353250" lon="-6.5742300">
        <ele>524.0</ele>
        <time>2014-10-01T06:08:18Z</time>
      </trkpt>
      <trkpt lat="42.5353300" lon="-6.5741450">
        <ele>524.1</ele>
        <time>2014-10-01T06:08:19Z</time>
      </trkpt>
      <trkpt lat="42.5353350" lon="-6.5740600">
        <ele>524.2</ele>
        <time>2014-10-01T06:08:20Z</time>
      </trkpt>
      <trkpt lat="42.5353410" lon="-6.5739750">
        <ele>524.3</ele>
        <time>2014-10-01T06:08:21Z</time>
      </trkpt>
      <trkpt lat="42.5353480" lon="-6.5738910">
        <ele>524.3</ele>
        <time>2014-10-01T06:08:22Z</time>
      </trkpt>
      <trkpt lat="42.5353540" lon="-6.5738080">
        <ele>524.4</ele>
        <time>2014-10-01T06:08:23Z</time>
      </trkpt>
      <trkpt lat="42.5353590" lon="-6.5737250">
        <ele>524.5</ele>
        <time>2014-10-01T06:08:24Z</time>
      </trkpt>
      <trkpt lat="42.5353650" lon="-6.5736400">
        <ele>524.6</ele>
        <time>2014-10-01T06:08:25Z</time>
      </trkpt>
      <trkpt lat="42.5353710" lon="-6.5735550">
        <ele>524.7</ele>
        <time>2014-10-01T06:08:26Z</time>
      </trkpt>
      <trkpt lat="42.5353760" lon="-6.5734710">
        <ele>524.8</ele>
        <time>2014-10-01T06:08:27Z</time>
      </trkpt>
      <trkpt lat="42.5353820" lon="-6.5733860">
        <ele>524.8</ele>
        <time>2014-10-01T06:08:28Z</time>
      </trkpt>
      <trkpt lat="42.5353870" lon="-6.5733020">
        <ele>524.9</ele>
        <time>2014-10-01T06:08:29Z</time>
      </trkpt>
      <trkpt lat="42.5353930" lon="-6.5732180">
        <ele>524.9</ele>
        <time>2014-10-01T06:08:30Z</time>
      </trkpt>
      <trkpt lat="42.5353990" lon="-6.5731350">
        <ele>525.0</ele>
        <time>2014-10-01T06:08:31Z</time>
      </trkpt>
      <trkpt lat="42.5354060" lon="-6.5730520">
        <ele>525.0</ele>
        <time>2014-10-01T06:08:32Z</time>
      </trkpt>
      <trkpt lat="42.5354130" lon="-6.5729700">
        <ele>525.0</ele>
        <time>2014-10-01T06:08:33Z</time>
      </trkpt>
      <trkpt lat="42.5354200" lon="-6.5728870">
        <ele>525.1</ele>
        <time>2014-10-01T06:08:34Z</time>
      </trkpt>
      <trkpt lat="42.5354260" lon="-6.5728050">
        <ele>525.1</ele>
        <time>2014-10-01T06:08:35Z</time>
      </trkpt>
      <trkpt lat="42.5354320" lon="-6.5727210">
        <ele>525.2</ele>
        <time>2014-10-01T06:08:36Z</time>
      </trkpt>
      <trkpt lat="42.5354380" lon="-6.5726380">
        <ele>525.3</ele>
        <time>2014-10-01T06:08:37Z</time>
      </trkpt>
      <trkpt lat="42.5354430" lon="-6.5725540">
        <ele>525.4</ele>
        <time>2014-10-01T06:08:38Z</time>
      </trkpt>
      <trkpt lat="42.5354470" lon="-6.5724700">
        <ele>525.5</ele>
        <time>2014-10-01T06:08:39Z</time>
      </trkpt>
      <trkpt lat="42.5354520" lon="-6.5723860">
        <ele>525.6</ele>
        <time>2014-10-01T06:08:40Z</time>
      </trkpt>
      <trkpt lat="42.5354570" lon="-6.5723010">
        <ele>525.7</ele>
        <time>2014-10-01T06:08:41Z</time>
      </trkpt>
      <trkpt lat="42.5354620" lon="-6.5722180">
        <ele>525.8</ele>
        <time>2014-10-01T06:08:42Z</time>
      </trkpt>
      <trkpt lat="42.5354680" lon="-6.5721340">
        <ele>525.9</ele>
        <time>2014-10-01T06:08:43Z</time>
      </trkpt>
      <trkpt lat="42.5354720" lon="-6.5720500">
        <ele>525.9</ele>
        <time>2014-10-01T06:08:44Z</time>
      </trkpt>
      <trkpt lat="42.5354760" lon="-6.5719660">
        <ele>526.0</ele>
        <time>2014-10-01T06:08:45Z</time>
      </trkpt>
      <trkpt lat="42.5354780" lon="-6.5718820">
        <ele>526.1</ele>
        <time>2014-10-01T06:08:46Z</time>
      </trkpt>
      <trkpt lat="42.5354810" lon="-6.5717970">
        <ele>526.1</ele>
        <time>2014-10-01T06:08:47Z</time>
      </trkpt>
      <trkpt lat="42.5354840" lon="-6.5717130">
        <ele>526.1</ele>
        <time>2014-10-01T06:08:48Z</time>
      </trkpt>
      <trkpt lat="42.5354880" lon="-6.5716290">
        <ele>526.2</ele>
        <time>2014-10-01T06:08:49Z</time>
      </trkpt>
      <trkpt lat="42.5354910" lon="-6.5715430">
        <ele>526.2</ele>
        <time>2014-10-01T06:08:50Z</time>
      </trkpt>
      <trkpt lat="42.5354940" lon="-6.5714570">
        <ele>526.3</ele>
        <time>2014-10-01T06:08:51Z</time>
      </trkpt>
      <trkpt lat="42.5354940" lon="-6.5713700">
        <ele>526.4</ele>
        <time>2014-10-01T06:08:52Z</time>
      </trkpt>
      <trkpt lat="42.5354920" lon="-6.5712860">
        <ele>526.4</ele>
        <time>2014-10-01T06:08:53Z</time>
      </trkpt>
      <trkpt lat="42.5354870" lon="-6.5712020">
        <ele>526.5</ele>
        <time>2014-10-01T06:08:54Z</time>
      </trkpt>
      <trkpt lat="42.5354800" lon="-6.5711180">
        <ele>526.6</ele>
        <time>2014-10-01T06:08:55Z</time>
      </trkpt>
      <trkpt lat="42.5354700" lon="-6.5710320">
        <ele>526.6</ele>
        <time>2014-10-01T06:08:56Z</time>
      </trkpt>
      <trkpt lat="42.5354580" lon="-6.5709460">
        <ele>526.7</ele>
        <time>2014-10-01T06:08:57Z</time>
      </trkpt>
      <trkpt lat="42.5354450" lon="-6.5708620">
        <ele>526.8</ele>
        <time>2014-10-01T06:08:58Z</time>
      </trkpt>
      <trkpt lat="42.5354320" lon="-6.5707790">
        <ele>526.9</ele>
        <time>2014-10-01T06:08:59Z</time>
      </trkpt>
      <trkpt lat="42.5354200" lon="-6.5706950">
        <ele>526.9</ele>
        <time>2014-10-01T06:09:00Z</time>
      </trkpt>
      <trkpt lat="42.5354070" lon="-6.5706110">
        <ele>527.0</ele>
        <time>2014-10-01T06:09:01Z</time>
      </trkpt>
      <trkpt lat="42.5353950" lon="-6.5705260">
        <ele>527.1</ele>
        <time>2014-10-01T06:09:02Z</time>
      </trkpt>
      <trkpt lat="42.5353840" lon="-6.5704420">
        <ele>527.2</ele>
        <time>2014-10-01T06:09:03Z</time>
      </trkpt>
      <trkpt lat="42.5353730" lon="-6.5703590">
        <ele>527.3</ele>
        <time>2014-10-01T06:09:04Z</time>
      </trkpt>
      <trkpt lat="42.5353630" lon="-6.5702750">
        <ele>527.4</ele>
        <time>2014-10-01T06:09:05Z</time>
      </trkpt>
      <trkpt lat="42.5353520" lon="-6.5701920">
        <ele>527.5</ele>
        <time>2014-10-01T06:09:06Z</time>
      </trkpt>
      <trkpt lat="42.5353400" lon="-6.5701080">
        <ele>527.6</ele>
        <time>2014-10-01T06:09:07Z</time>
      </trkpt>
      <trkpt lat="42.5353280" lon="-6.5700250">
        <ele>527.6</ele>
        <time>2014-10-01T06:09:08Z</time>
      </trkpt>
      <trkpt lat="42.5353170" lon="-6.5699410">
        <ele>527.7</ele>
        <time>2014-10-01T06:09:09Z</time>
      </trkpt>
      <trkpt lat="42.5353050" lon="-6.5698580">
        <ele>527.8</ele>
        <time>2014-10-01T06:09:10Z</time>
      </trkpt>
      <trkpt lat="42.5352920" lon="-6.5697760">
        <ele>527.9</ele>
        <time>2014-10-01T06:09:11Z</time>
      </trkpt>
      <trkpt lat="42.5352790" lon="-6.5696940">
        <ele>528.0</ele>
        <time>2014-10-01T06:09:12Z</time>
      </trkpt>
      <trkpt lat="42.5352670" lon="-6.5696100">
        <ele>528.2</ele>
        <time>2014-10-01T06:09:13Z</time>
      </trkpt>
      <trkpt lat="42.5352540" lon="-6.5695270">
        <ele>528.3</ele>
        <time>2014-10-01T06:09:14Z</time>
      </trkpt>
      <trkpt lat="42.5352420" lon="-6.5694440">
        <ele>528.4</ele>
        <time>2014-10-01T06:09:15Z</time>
      </trkpt>
      <trkpt lat="42.5352300" lon="-6.5693610">
        <ele>528.4</ele>
        <time>2014-10-01T06:09:16Z</time>
      </trkpt>
      <trkpt lat="42.5352190" lon="-6.5692780">
        <ele>528.4</ele>
        <time>2014-10-01T06:09:17Z</time>
      </trkpt>
      <trkpt lat="42.5352090" lon="-6.5691950">
        <ele>528.5</ele>
        <time>2014-10-01T06:09:18Z</time>
      </trkpt>
      <trkpt lat="42.5351960" lon="-6.5691120">
        <ele>528.6</ele>
        <time>2014-10-01T06:09:19Z</time>
      </trkpt>
      <trkpt lat="42.5351830" lon="-6.5690290">
        <ele>528.6</ele>
        <time>2014-10-01T06:09:20Z</time>
      </trkpt>
      <trkpt lat="42.5351700" lon="-6.5689460">
        <ele>528.7</ele>
        <time>2014-10-01T06:09:21Z</time>
      </trkpt>
      <trkpt lat="42.5351580" lon="-6.5688630">
        <ele>528.8</ele>
        <time>2014-10-01T06:09:22Z</time>
      </trkpt>
      <trkpt lat="42.5351470" lon="-6.5687800">
        <ele>528.9</ele>
        <time>2014-10-01T06:09:23Z</time>
      </trkpt>
      <trkpt lat="42.5351360" lon="-6.5686970">
        <ele>529.0</ele>
        <time>2014-10-01T06:09:24Z</time>
      </trkpt>
      <trkpt lat="42.5351250" lon="-6.5686140">
        <ele>529.1</ele>
        <time>2014-10-01T06:09:25Z</time>
      </trkpt>
      <trkpt lat="42.5351140" lon="-6.5685300">
        <ele>529.2</ele>
        <time>2014-10-01T06:09:26Z</time>
      </trkpt>
      <trkpt lat="42.5351030" lon="-6.5684470">
        <ele>529.3</ele>
        <time>2014-10-01T06:09:27Z</time>
      </trkpt>
      <trkpt lat="42.5350910" lon="-6.5683640">
        <ele>529.4</ele>
        <time>2014-10-01T06:09:28Z</time>
      </trkpt>
      <trkpt lat="42.5350800" lon="-6.5682810">
        <ele>529.5</ele>
        <time>2014-10-01T06:09:29Z</time>
      </trkpt>
      <trkpt lat="42.5350680" lon="-6.5681970">
        <ele>529.6</ele>
        <time>2014-10-01T06:09:30Z</time>
      </trkpt>
      <trkpt lat="42.5350570" lon="-6.5681130">
        <ele>529.6</ele>
        <time>2014-10-01T06:09:31Z</time>
      </trkpt>
      <trkpt lat="42.5350430" lon="-6.5680300">
        <ele>529.7</ele>
        <time>2014-10-01T06:09:32Z</time>
      </trkpt>
      <trkpt lat="42.5350310" lon="-6.5679480">
        <ele>529.8</ele>
        <time>2014-10-01T06:09:33Z</time>
      </trkpt>
      <trkpt lat="42.5350180" lon="-6.5678660">
        <ele>529.9</ele>
        <time>2014-10-01T06:09:34Z</time>
      </trkpt>
      <trkpt lat="42.5350060" lon="-6.5677830">
        <ele>530.0</ele>
        <time>2014-10-01T06:09:35Z</time>
      </trkpt>
      <trkpt lat="42.5349930" lon="-6.5677010">
        <ele>530.1</ele>
        <time>2014-10-01T06:09:36Z</time>
      </trkpt>
      <trkpt lat="42.5349790" lon="-6.5676200">
        <ele>530.2</ele>
        <time>2014-10-01T06:09:37Z</time>
      </trkpt>
      <trkpt lat="42.5349620" lon="-6.5675400">
        <ele>530.3</ele>
        <time>2014-10-01T06:09:38Z</time>
      </trkpt>
      <trkpt lat="42.5349430" lon="-6.5674610">
        <ele>530.4</ele>
        <time>2014-10-01T06:09:39Z</time>
      </trkpt>
      <trkpt lat="42.5349220" lon="-6.5673820">
        <ele>530.5</ele>
        <time>2014-10-01T06:09:40Z</time>
      </trkpt>
      <trkpt lat="42.5348980" lon="-6.5673040">
        <ele>530.6</ele>
        <time>2014-10-01T06:09:41Z</time>
      </trkpt>
      <trkpt lat="42.5348710" lon="-6.5672270">
        <ele>530.8</ele>
        <time>2014-10-01T06:09:42Z</time>
      </trkpt>
      <trkpt lat="42.5348410" lon="-6.5671510">
        <ele>530.9</ele>
        <time>2014-10-01T06:09:43Z</time>
      </trkpt>
      <trkpt lat="42.5348090" lon="-6.5670760">
        <ele>531.1</ele>
        <time>2014-10-01T06:09:44Z</time>
      </trkpt>
      <trkpt lat="42.5347760" lon="-6.5670080">
        <ele>531.4</ele>
        <time>2014-10-01T06:09:45Z</time>
      </trkpt>
      <trkpt lat="42.5347410" lon="-6.5669360">
        <ele>531.6</ele>
        <time>2014-10-01T06:09:46Z</time>
      </trkpt>
      <trkpt lat="42.5347070" lon="-6.5668680">
        <ele>531.8</ele>
        <time>2014-10-01T06:09:47Z</time>
      </trkpt>
      <trkpt lat="42.5346730" lon="-6.5668050">
        <ele>532.0</ele>
        <time>2014-10-01T06:09:48Z</time>
      </trkpt>
      <trkpt lat="42.5346400" lon="-6.5667430">
        <ele>532.1</ele>
        <time>2014-10-01T06:09:49Z</time>
      </trkpt>
      <trkpt lat="42.5346070" lon="-6.5666860">
        <ele>532.3</ele>
        <time>2014-10-01T06:09:50Z</time>
      </trkpt>
      <trkpt lat="42.5345710" lon="-6.5666240">
        <ele>532.4</ele>
        <time>2014-10-01T06:09:51Z</time>
      </trkpt>
      <trkpt lat="42.5345320" lon="-6.5665650">
        <ele>532.6</ele>
        <time>2014-10-01T06:09:52Z</time>
      </trkpt>
      <trkpt lat="42.5344940" lon="-6.5665060">
        <ele>532.8</ele>
        <time>2014-10-01T06:09:53Z</time>
      </trkpt>
      <trkpt lat="42.5344560" lon="-6.5664510">
        <ele>532.9</ele>
        <time>2014-10-01T06:09:54Z</time>
      </trkpt>
      <trkpt lat="42.5344180" lon="-6.5663930">
        <ele>533.0</ele>
        <time>2014-10-01T06:09:55Z</time>
      </trkpt>
      <trkpt lat="42.5343790" lon="-6.5663340">
        <ele>533.2</ele>
        <time>2014-10-01T06:09:56Z</time>
      </trkpt>
      <trkpt lat="42.5343450" lon="-6.5662840">
        <ele>533.3</ele>
        <time>2014-10-01T06:09:57Z</time>
      </trkpt>
      <trkpt lat="42.5343060" lon="-6.5662240">
        <ele>533.5</ele>
        <time>2014-10-01T06:09:58Z</time>
      </trkpt>
      <trkpt lat="42.5342730" lon="-6.5661680">
        <ele>533.6</ele>
        <time>2014-10-01T06:09:59Z</time>
      </trkpt>
      <trkpt lat="42.5342390" lon="-6.5661110">
        <ele>533.8</ele>
        <time>2014-10-01T06:10:00Z</time>
      </trkpt>
      <trkpt lat="42.5342110" lon="-6.5660570">
        <ele>533.9</ele>
        <time>2014-10-01T06:10:01Z</time>
      </trkpt>
      <trkpt lat="42.5341790" lon="-6.5659930">
        <ele>534.0</ele>
        <time>2014-10-01T06:10:02Z</time>
      </trkpt>
      <trkpt lat="42.5341460" lon="-6.5659320">
        <ele>534.1</ele>
        <time>2014-10-01T06:10:03Z</time>
      </trkpt>
      <trkpt lat="42.5341140" lon="-6.5658730">
        <ele>534.2</ele>
        <time>2014-10-01T06:10:04Z</time>
      </trkpt>
      <trkpt lat="42.5340780" lon="-6.5658110">
        <ele>534.3</ele>
        <time>2014-10-01T06:10:05Z</time>
      </trkpt>
      <trkpt lat="42.5340360" lon="-6.5657460">
        <ele>534.3</ele>
        <time>2014-10-01T06:10:06Z</time>
      </trkpt>
      <trkpt lat="42.5339860" lon="-6.5656950">
        <ele>534.4</ele>
        <time>2014-10-01T06:10:07Z</time>
      </trkpt>
      <trkpt lat="42.5339290" lon="-6.5656420">
        <ele>534.5</ele>
        <time>2014-10-01T06:10:08Z</time>
      </trkpt>
      <trkpt lat="42.5338660" lon="-6.5656090">
        <ele>534.5</ele>
        <time>2014-10-01T06:10:09Z</time>
      </trkpt>
      <trkpt lat="42.5338060" lon="-6.5655790">
        <ele>534.5</ele>
        <time>2014-10-01T06:10:10Z</time>
      </trkpt>
      <trkpt lat="42.5337420" lon="-6.5655520">
        <ele>534.6</ele>
        <time>2014-10-01T06:10:11Z</time>
      </trkpt>
      <trkpt lat="42.5336780" lon="-6.5655270">
        <ele>534.6</ele>
        <time>2014-10-01T06:10:12Z</time>
      </trkpt>
      <trkpt lat="42.5336200" lon="-6.5655050">
        <ele>534.7</ele>
        <time>2014-10-01T06:10:13Z</time>
      </trkpt>
      <trkpt lat="42.5335630" lon="-6.5654840">
        <ele>534.8</ele>
        <time>2014-10-01T06:10:14Z</time>
      </trkpt>
      <trkpt lat="42.5335090" lon="-6.5654600">
        <ele>534.9</ele>
        <time>2014-10-01T06:10:15Z</time>
      </trkpt>
      <trkpt lat="42.5334560" lon="-6.5654320">
        <ele>535.0</ele>
        <time>2014-10-01T06:10:16Z</time>
      </trkpt>
      <trkpt lat="42.5334020" lon="-6.5653980">
        <ele>535.0</ele>
        <time>2014-10-01T06:10:17Z</time>
      </trkpt>
      <trkpt lat="42.5333480" lon="-6.5653560">
        <ele>535.1</ele>
        <time>2014-10-01T06:10:18Z</time>
      </trkpt>
      <trkpt lat="42.5332960" lon="-6.5653100">
        <ele>535.2</ele>
        <time>2014-10-01T06:10:19Z</time>
      </trkpt>
      <trkpt lat="42.5332460" lon="-6.5652600">
        <ele>535.3</ele>
        <time>2014-10-01T06:10:20Z</time>
      </trkpt>
      <trkpt lat="42.5331980" lon="-6.5652060">
        <ele>535.4</ele>
        <time>2014-10-01T06:10:21Z</time>
      </trkpt>
      <trkpt lat="42.5331510" lon="-6.5651480">
        <ele>535.5</ele>
        <time>2014-10-01T06:10:22Z</time>
      </trkpt>
      <trkpt lat="42.5331050" lon="-6.5650870">
        <ele>535.5</ele>
        <time>2014-10-01T06:10:23Z</time>
      </trkpt>
      <trkpt lat="42.5330610" lon="-6.5650240">
        <ele>535.6</ele>
        <time>2014-10-01T06:10:24Z</time>
      </trkpt>
      <trkpt lat="42.5330160" lon="-6.5649630">
        <ele>535.7</ele>
        <time>2014-10-01T06:10:25Z</time>
      </trkpt>
      <trkpt lat="42.5329720" lon="-6.5649000">
        <ele>535.8</ele>
        <time>2014-10-01T06:10:26Z</time>
      </trkpt>
      <trkpt lat="42.5329280" lon="-6.5648400">
        <ele>535.9</ele>
        <time>2014-10-01T06:10:27Z</time>
      </trkpt>
      <trkpt lat="42.5328820" lon="-6.5647790">
        <ele>536.0</ele>
        <time>2014-10-01T06:10:28Z</time>
      </trkpt>
      <trkpt lat="42.5328360" lon="-6.5647190">
        <ele>536.1</ele>
        <time>2014-10-01T06:10:29Z</time>
      </trkpt>
      <trkpt lat="42.5327900" lon="-6.5646600">
        <ele>536.2</ele>
        <time>2014-10-01T06:10:30Z</time>
      </trkpt>
      <trkpt lat="42.5327440" lon="-6.5646010">
        <ele>536.3</ele>
        <time>2014-10-01T06:10:31Z</time>
      </trkpt>
      <trkpt lat="42.5326970" lon="-6.5645410">
        <ele>536.4</ele>
        <time>2014-10-01T06:10:32Z</time>
      </trkpt>
      <trkpt lat="42.5326510" lon="-6.5644810">
        <ele>536.5</ele>
        <time>2014-10-01T06:10:33Z</time>
      </trkpt>
      <trkpt lat="42.5326050" lon="-6.5644190">
        <ele>536.5</ele>
        <time>2014-10-01T06:10:34Z</time>
      </trkpt>
      <trkpt lat="42.5325580" lon="-6.5643570">
        <ele>536.6</ele>
        <time>2014-10-01T06:10:35Z</time>
      </trkpt>
      <trkpt lat="42.5325130" lon="-6.5642940">
        <ele>536.7</ele>
        <time>2014-10-01T06:10:36Z</time>
      </trkpt>
      <trkpt lat="42.5324670" lon="-6.5642300">
        <ele>536.8</ele>
        <time>2014-10-01T06:10:37Z</time>
      </trkpt>
      <trkpt lat="42.5324220" lon="-6.5641640">
        <ele>536.9</ele>
        <time>2014-10-01T06:10:38Z</time>
      </trkpt>
      <trkpt lat="42.5323780" lon="-6.5640980">
        <ele>537.0</ele>
        <time>2014-10-01T06:10:39Z</time>
      </trkpt>
      <trkpt lat="42.5323360" lon="-6.5640330">
        <ele>537.1</ele>
        <time>2014-10-01T06:10:40Z</time>
      </trkpt>
      <trkpt lat="42.5322940" lon="-6.5639670">
        <ele>537.2</ele>
        <time>2014-10-01T06:10:41Z</time>
      </trkpt>
      <trkpt lat="42.5322530" lon="-6.5639010">
        <ele>537.3</ele>
        <time>2014-10-01T06:10:42Z</time>
      </trkpt>
      <trkpt lat="42.5322130" lon="-6.5638370">
        <ele>537.4</ele>
        <time>2014-10-01T06:10:43Z</time>
      </trkpt>
      <trkpt lat="42.5321720" lon="-6.5637740">
        <ele>537.5</ele>
        <time>2014-10-01T06:10:44Z</time>
      </trkpt>
      <trkpt lat="42.5321300" lon="-6.5637150">
        <ele>537.6</ele>
        <time>2014-10-01T06:10:45Z</time>
      </trkpt>
      <trkpt lat="42.5320850" lon="-6.5636560">
        <ele>537.7</ele>
        <time>2014-10-01T06:10:46Z</time>
      </trkpt>
      <trkpt lat="42.5320360" lon="-6.5635990">
        <ele>537.8</ele>
        <time>2014-10-01T06:10:47Z</time>
      </trkpt>
      <trkpt lat="42.5319860" lon="-6.5635450">
        <ele>537.9</ele>
        <time>2014-10-01T06:10:48Z</time>
      </trkpt>
      <trkpt lat="42.5319340" lon="-6.5634950">
        <ele>538.0</ele>
        <time>2014-10-01T06:10:49Z</time>
      </trkpt>
      <trkpt lat="42.5318820" lon="-6.5634490">
        <ele>538.1</ele>
        <time>2014-10-01T06:10:50Z</time>
      </trkpt>
      <trkpt lat="42.5318270" lon="-6.5634000">
        <ele>538.2</ele>
        <time>2014-10-01T06:10:51Z</time>
      </trkpt>
      <trkpt lat="42.5317700" lon="-6.5633520">
        <ele>538.3</ele>
        <time>2014-10-01T06:10:52Z</time>
      </trkpt>
      <trkpt lat="42.5317140" lon="-6.5633040">
        <ele>538.4</ele>
        <time>2014-10-01T06:10:53Z</time>
      </trkpt>
      <trkpt lat="42.5316570" lon="-6.5632580">
        <ele>538.5</ele>
        <time>2014-10-01T06:10:54Z</time>
      </trkpt>
      <trkpt lat="42.5316010" lon="-6.5632120">
        <ele>538.5</ele>
        <time>2014-10-01T06:10:55Z</time>
      </trkpt>
      <trkpt lat="42.5315480" lon="-6.5631720">
        <ele>538.6</ele>
        <time>2014-10-01T06:10:56Z</time>
      </trkpt>
      <trkpt lat="42.5314930" lon="-6.5631310">
        <ele>538.7</ele>
        <time>2014-10-01T06:10:57Z</time>
      </trkpt>
      <trkpt lat="42.5314380" lon="-6.5630880">
        <ele>538.7</ele>
        <time>2014-10-01T06:10:58Z</time>
      </trkpt>
      <trkpt lat="42.5313830" lon="-6.5630460">
        <ele>538.8</ele>
        <time>2014-10-01T06:10:59Z</time>
      </trkpt>
      <trkpt lat="42.5313280" lon="-6.5630040">
        <ele>538.9</ele>
        <time>2014-10-01T06:11:00Z</time>
      </trkpt>
      <trkpt lat="42.5312720" lon="-6.5629610">
        <ele>539.1</ele>
        <time>2014-10-01T06:11:01Z</time>
      </trkpt>
      <trkpt lat="42.5312160" lon="-6.5629190">
        <ele>539.2</ele>
        <time>2014-10-01T06:11:02Z</time>
      </trkpt>
      <trkpt lat="42.5311620" lon="-6.5628790">
        <ele>539.3</ele>
        <time>2014-10-01T06:11:03Z</time>
      </trkpt>
      <trkpt lat="42.5311070" lon="-6.5628380">
        <ele>539.5</ele>
        <time>2014-10-01T06:11:04Z</time>
      </trkpt>
      <trkpt lat="42.5310550" lon="-6.5627980">
        <ele>539.6</ele>
        <time>2014-10-01T06:11:05Z</time>
      </trkpt>
      <trkpt lat="42.5310030" lon="-6.5627570">
        <ele>539.7</ele>
        <time>2014-10-01T06:11:06Z</time>
      </trkpt>
      <trkpt lat="42.5309520" lon="-6.5627140">
        <ele>539.8</ele>
        <time>2014-10-01T06:11:07Z</time>
      </trkpt>
      <trkpt lat="42.5309000" lon="-6.5626720">
        <ele>539.9</ele>
        <time>2014-10-01T06:11:08Z</time>
      </trkpt>
      <trkpt lat="42.5308410" lon="-6.5626260">
        <ele>540.0</ele>
        <time>2014-10-01T06:11:09Z</time>
      </trkpt>
      <trkpt lat="42.5307840" lon="-6.5625820">
        <ele>540.2</ele>
        <time>2014-10-01T06:11:10Z</time>
      </trkpt>
      <trkpt lat="42.5307280" lon="-6.5625400">
        <ele>540.3</ele>
        <time>2014-10-01T06:11:11Z</time>
      </trkpt>
      <trkpt lat="42.5306750" lon="-6.5624980">
        <ele>540.4</ele>
        <time>2014-10-01T06:11:12Z</time>
      </trkpt>
      <trkpt lat="42.5306200" lon="-6.5624540">
        <ele>540.4</ele>
        <time>2014-10-01T06:11:13Z</time>
      </trkpt>
      <trkpt lat="42.5305670" lon="-6.5624130">
        <ele>540.5</ele>
        <time>2014-10-01T06:11:14Z</time>
      </trkpt>
      <trkpt lat="42.5305090" lon="-6.5623660">
        <ele>540.6</ele>
        <time>2014-10-01T06:11:15Z</time>
      </trkpt>
      <trkpt lat="42.5304520" lon="-6.5623170">
        <ele>540.7</ele>
        <time>2014-10-01T06:11:16Z</time>
      </trkpt>
      <trkpt lat="42.5303970" lon="-6.5622640">
        <ele>540.8</ele>
        <time>2014-10-01T06:11:17Z</time>
      </trkpt>
      <trkpt lat="42.5303440" lon="-6.5622130">
        <ele>540.8</ele>
        <time>2014-10-01T06:11:18Z</time>
      </trkpt>
      <trkpt lat="42.5302930" lon="-6.5621580">
        <ele>540.9</ele>
        <time>2014-10-01T06:11:19Z</time>
      </trkpt>
      <trkpt lat="42.5302450" lon="-6.5621070">
        <ele>541.0</ele>
        <time>2014-10-01T06:11:20Z</time>
      </trkpt>
      <trkpt lat="42.5301970" lon="-6.5620510">
        <ele>541.2</ele>
        <time>2014-10-01T06:11:21Z</time>
      </trkpt>
      <trkpt lat="42.5301530" lon="-6.5619980">
        <ele>541.2</ele>
        <time>2014-10-01T06:11:22Z</time>
      </trkpt>
      <trkpt lat="42.5301080" lon="-6.5619430">
        <ele>541.3</ele>
        <time>2014-10-01T06:11:23Z</time>
      </trkpt>
      <trkpt lat="42.5300600" lon="-6.5618840">
        <ele>541.5</ele>
        <time>2014-10-01T06:11:24Z</time>
      </trkpt>
      <trkpt lat="42.5300160" lon="-6.5618270">
        <ele>541.5</ele>
        <time>2014-10-01T06:11:25Z</time>
      </trkpt>
      <trkpt lat="42.5299730" lon="-6.5617730">
        <ele>541.5</ele>
        <time>2014-10-01T06:11:26Z</time>
      </trkpt>
      <trkpt lat="42.5299340" lon="-6.5617210">
        <ele>541.6</ele>
        <time>2014-10-01T06:11:27Z</time>
      </trkpt>
      <trkpt lat="42.5298930" lon="-6.5616670">
        <ele>541.6</ele>
        <time>2014-10-01T06:11:28Z</time>
      </trkpt>
      <trkpt lat="42.5298470" lon="-6.5616040">
        <ele>541.6</ele>
        <time>2014-10-01T06:11:29Z</time>
      </trkpt>
      <trkpt lat="42.5298000" lon="-6.5615400">
        <ele>541.7</ele>
        <time>2014-10-01T06:11:30Z</time>
      </trkpt>
      <trkpt lat="42.5297520" lon="-6.5614770">
        <ele>541.7</ele>
        <time>2014-10-01T06:11:31Z</time>
      </trkpt>
      <trkpt lat="42.5297050" lon="-6.5614160">
        <ele>541.8</ele>
        <time>2014-10-01T06:11:32Z</time>
      </trkpt>
      <trkpt lat="42.5296570" lon="-6.5613550">
        <ele>541.9</ele>
        <time>2014-10-01T06:11:33Z</time>
      </trkpt>
      <trkpt lat="42.5296050" lon="-6.5612950">
        <ele>542.0</ele>
        <time>2014-10-01T06:11:34Z</time>
      </trkpt>
      <trkpt lat="42.5295490" lon="-6.5612330">
        <ele>542.1</ele>
        <time>2014-10-01T06:11:35Z</time>
      </trkpt>
      <trkpt lat="42.5294950" lon="-6.5611780">
        <ele>542.2</ele>
        <time>2014-10-01T06:11:36Z</time>
      </trkpt>
      <trkpt lat="42.5294370" lon="-6.5611250">
        <ele>542.3</ele>
        <time>2014-10-01T06:11:37Z</time>
      </trkpt>
      <trkpt lat="42.5293780" lon="-6.5610760">
        <ele>542.4</ele>
        <time>2014-10-01T06:11:38Z</time>
      </trkpt>
      <trkpt lat="42.5293180" lon="-6.5610310">
        <ele>542.5</ele>
        <time>2014-10-01T06:11:39Z</time>
      </trkpt>
      <trkpt lat="42.5292610" lon="-6.5609910">
        <ele>542.6</ele>
        <time>2014-10-01T06:11:40Z</time>
      </trkpt>
      <trkpt lat="42.5292030" lon="-6.5609550">
        <ele>542.8</ele>
        <time>2014-10-01T06:11:41Z</time>
      </trkpt>
      <trkpt lat="42.5291450" lon="-6.5609220">
        <ele>542.9</ele>
        <time>2014-10-01T06:11:42Z</time>
      </trkpt>
      <trkpt lat="42.5290860" lon="-6.5608920">
        <ele>543.1</ele>
        <time>2014-10-01T06:11:43Z</time>
      </trkpt>
      <trkpt lat="42.5290270" lon="-6.5608640">
        <ele>543.2</ele>
        <time>2014-10-01T06:11:44Z</time>
      </trkpt>
      <trkpt lat="42.5289690" lon="-6.5608370">
        <ele>543.4</ele>
        <time>2014-10-01T06:11:45Z</time>
      </trkpt>
      <trkpt lat="42.5289120" lon="-6.5608090">
        <ele>543.5</ele>
        <time>2014-10-01T06:11:46Z</time>
      </trkpt>
      <trkpt lat="42.5288540" lon="-6.5607800">
        <ele>543.7</ele>
        <time>2014-10-01T06:11:47Z</time>
      </trkpt>
      <trkpt lat="42.5287970" lon="-6.5607510">
        <ele>543.8</ele>
        <time>2014-10-01T06:11:48Z</time>
      </trkpt>
      <trkpt lat="42.5287400" lon="-6.5607250">
        <ele>544.0</ele>
        <time>2014-10-01T06:11:49Z</time>
      </trkpt>
      <trkpt lat="42.5286840" lon="-6.5606970">
        <ele>544.2</ele>
        <time>2014-10-01T06:11:50Z</time>
      </trkpt>
      <trkpt lat="42.5286290" lon="-6.5606700">
        <ele>544.3</ele>
        <time>2014-10-01T06:11:51Z</time>
      </trkpt>
      <trkpt lat="42.5285730" lon="-6.5606410">
        <ele>544.5</ele>
        <time>2014-10-01T06:11:52Z</time>
      </trkpt>
      <trkpt lat="42.5285180" lon="-6.5606120">
        <ele>544.7</ele>
        <time>2014-10-01T06:11:53Z</time>
      </trkpt>
      <trkpt lat="42.5284640" lon="-6.5605850">
        <ele>544.9</ele>
        <time>2014-10-01T06:11:54Z</time>
      </trkpt>
      <trkpt lat="42.5284090" lon="-6.5605570">
        <ele>545.1</ele>
        <time>2014-10-01T06:11:55Z</time>
      </trkpt>
      <trkpt lat="42.5283540" lon="-6.5605270">
        <ele>545.3</ele>
        <time>2014-10-01T06:11:56Z</time>
      </trkpt>
      <trkpt lat="42.5283020" lon="-6.5605000">
        <ele>545.5</ele>
        <time>2014-10-01T06:11:57Z</time>
      </trkpt>
      <trkpt lat="42.5282480" lon="-6.5604710">
        <ele>545.7</ele>
        <time>2014-10-01T06:11:58Z</time>
      </trkpt>
      <trkpt lat="42.5281930" lon="-6.5604400">
        <ele>545.9</ele>
        <time>2014-10-01T06:11:59Z</time>
      </trkpt>
      <trkpt lat="42.5281390" lon="-6.5604100">
        <ele>546.1</ele>
        <time>2014-10-01T06:12:00Z</time>
      </trkpt>
      <trkpt lat="42.5280830" lon="-6.5603780">
        <ele>546.3</ele>
        <time>2014-10-01T06:12:01Z</time>
      </trkpt>
      <trkpt lat="42.5280300" lon="-6.5603450">
        <ele>546.5</ele>
        <time>2014-10-01T06:12:02Z</time>
      </trkpt>
      <trkpt lat="42.5279810" lon="-6.5603160">
        <ele>546.8</ele>
        <time>2014-10-01T06:12:03Z</time>
      </trkpt>
      <trkpt lat="42.5279320" lon="-6.5602900">
        <ele>547.0</ele>
        <time>2014-10-01T06:12:04Z</time>
      </trkpt>
      <trkpt lat="42.5278820" lon="-6.5602620">
        <ele>547.2</ele>
        <time>2014-10-01T06:12:05Z</time>
      </trkpt>
      <trkpt lat="42.5278300" lon="-6.5602340">
        <ele>547.4</ele>
        <time>2014-10-01T06:12:06Z</time>
      </trkpt>
      <trkpt lat="42.5277780" lon="-6.5602050">
        <ele>547.6</ele>
        <time>2014-10-01T06:12:07Z</time>
      </trkpt>
      <trkpt lat="42.5277260" lon="-6.5601770">
        <ele>547.8</ele>
        <time>2014-10-01T06:12:08Z</time>
      </trkpt>
      <trkpt lat="42.5276800" lon="-6.5601540">
        <ele>548.0</ele>
        <time>2014-10-01T06:12:09Z</time>
      </trkpt>
      <trkpt lat="42.5276310" lon="-6.5601290">
        <ele>548.2</ele>
        <time>2014-10-01T06:12:10Z</time>
      </trkpt>
      <trkpt lat="42.5275800" lon="-6.5601030">
        <ele>548.4</ele>
        <time>2014-10-01T06:12:11Z</time>
      </trkpt>
      <trkpt lat="42.5275280" lon="-6.5600770">
        <ele>548.6</ele>
        <time>2014-10-01T06:12:12Z</time>
      </trkpt>
      <trkpt lat="42.5274790" lon="-6.5600530">
        <ele>548.8</ele>
        <time>2014-10-01T06:12:13Z</time>
      </trkpt>
      <trkpt lat="42.5274280" lon="-6.5600270">
        <ele>549.0</ele>
        <time>2014-10-01T06:12:14Z</time>
      </trkpt>
      <trkpt lat="42.5273780" lon="-6.5600040">
        <ele>549.2</ele>
        <time>2014-10-01T06:12:15Z</time>
      </trkpt>
      <trkpt lat="42.5273290" lon="-6.5599790">
        <ele>549.4</ele>
        <time>2014-10-01T06:12:16Z</time>
      </trkpt>
      <trkpt lat="42.5272800" lon="-6.5599570">
        <ele>549.6</ele>
        <time>2014-10-01T06:12:17Z</time>
      </trkpt>
      <trkpt lat="42.5272340" lon="-6.5599320">
        <ele>549.8</ele>
        <time>2014-10-01T06:12:18Z</time>
      </trkpt>
      <trkpt lat="42.5271830" lon="-6.5599060">
        <ele>550.0</ele>
        <time>2014-10-01T06:12:19Z</time>
      </trkpt>
      <trkpt lat="42.5271310" lon="-6.5598810">
        <ele>550.2</ele>
        <time>2014-10-01T06:12:20Z</time>
      </trkpt>
      <trkpt lat="42.5270800" lon="-6.5598550">
        <ele>550.4</ele>
        <time>2014-10-01T06:12:21Z</time>
      </trkpt>
      <trkpt lat="42.5270280" lon="-6.5598250">
        <ele>550.7</ele>
        <time>2014-10-01T06:12:22Z</time>
      </trkpt>
      <trkpt lat="42.5269830" lon="-6.5597950">
        <ele>550.9</ele>
        <time>2014-10-01T06:12:23Z</time>
      </trkpt>
      <trkpt lat="42.5269350" lon="-6.5597660">
        <ele>551.1</ele>
        <time>2014-10-01T06:12:24Z</time>
      </trkpt>
      <trkpt lat="42.5268910" lon="-6.5597400">
        <ele>551.3</ele>
        <time>2014-10-01T06:12:25Z</time>
      </trkpt>
      <trkpt lat="42.5268460" lon="-6.5597160">
        <ele>551.5</ele>
        <time>2014-10-01T06:12:26Z</time>
      </trkpt>
      <trkpt lat="42.5267980" lon="-6.5596870">
        <ele>551.8</ele>
        <time>2014-10-01T06:12:27Z</time>
      </trkpt>
      <trkpt lat="42.5267530" lon="-6.5596580">
        <ele>552.0</ele>
        <time>2014-10-01T06:12:28Z</time>
      </trkpt>
      <trkpt lat="42.5267080" lon="-6.5596270">
        <ele>552.3</ele>
        <time>2014-10-01T06:12:29Z</time>
      </trkpt>
      <trkpt lat="42.5266620" lon="-6.5595940">
        <ele>552.5</ele>
        <time>2014-10-01T06:12:30Z</time>
      </trkpt>
      <trkpt lat="42.5266200" lon="-6.5595640">
        <ele>552.7</ele>
        <time>2014-10-01T06:12:31Z</time>
      </trkpt>
      <trkpt lat="42.5265780" lon="-6.5595360">
        <ele>552.9</ele>
        <time>2014-10-01T06:12:32Z</time>
      </trkpt>
      <trkpt lat="42.5265360" lon="-6.5595070">
        <ele>553.1</ele>
        <time>2014-10-01T06:12:33Z</time>
      </trkpt>
      <trkpt lat="42.5264920" lon="-6.5594800">
        <ele>553.3</ele>
        <time>2014-10-01T06:12:34Z</time>
      </trkpt>
      <trkpt lat="42.5264450" lon="-6.5594540">
        <ele>553.6</ele>
        <time>2014-10-01T06:12:35Z</time>
      </trkpt>
      <trkpt lat="42.5264020" lon="-6.5594290">
        <ele>553.8</ele>
        <time>2014-10-01T06:12:36Z</time>
      </trkpt>
      <trkpt lat="42.5263560" lon="-6.5594040">
        <ele>554.0</ele>
        <time>2014-10-01T06:12:37Z</time>
      </trkpt>
      <trkpt lat="42.5263130" lon="-6.5593780">
        <ele>554.2</ele>
        <time>2014-10-01T06:12:38Z</time>
      </trkpt>
      <trkpt lat="42.5262700" lon="-6.5593510">
        <ele>554.3</ele>
        <time>2014-10-01T06:12:39Z</time>
      </trkpt>
      <trkpt lat="42.5262300" lon="-6.5593250">
        <ele>554.5</ele>
        <time>2014-10-01T06:12:40Z</time>
      </trkpt>
      <trkpt lat="42.5261890" lon="-6.5592960">
        <ele>554.7</ele>
        <time>2014-10-01T06:12:41Z</time>
      </trkpt>
      <trkpt lat="42.5261450" lon="-6.5592680">
        <ele>554.8</ele>
        <time>2014-10-01T06:12:42Z</time>
      </trkpt>
      <trkpt lat="42.5261010" lon="-6.5592400">
        <ele>554.9</ele>
        <time>2014-10-01T06:12:43Z</time>
      </trkpt>
      <trkpt lat="42.5260560" lon="-6.5592130">
        <ele>555.1</ele>
        <time>2014-10-01T06:12:44Z</time>
      </trkpt>
      <trkpt lat="42.5260100" lon="-6.5591870">
        <ele>555.2</ele>
        <time>2014-10-01T06:12:45Z</time>
      </trkpt>
      <trkpt lat="42.5259630" lon="-6.5591600">
        <ele>555.2</ele>
        <time>2014-10-01T06:12:46Z</time>
      </trkpt>
      <trkpt lat="42.5259120" lon="-6.5591310">
        <ele>555.3</ele>
        <time>2014-10-01T06:12:47Z</time>
      </trkpt>
      <trkpt lat="42.5258610" lon="-6.5590990">
        <ele>555.3</ele>
        <time>2014-10-01T06:12:48Z</time>
      </trkpt>
      <trkpt lat="42.5258090" lon="-6.5590640">
        <ele>555.3</ele>
        <time>2014-10-01T06:12:49Z</time>
      </trkpt>
      <trkpt lat="42.5257540" lon="-6.5590310">
        <ele>555.3</ele>
        <time>2014-10-01T06:12:50Z</time>
      </trkpt>
      <trkpt lat="42.5256970" lon="-6.5589980">
        <ele>555.3</ele>
        <time>2014-10-01T06:12:51Z</time>
      </trkpt>
      <trkpt lat="42.5256380" lon="-6.5589680">
        <ele>555.4</ele>
        <time>2014-10-01T06:12:52Z</time>
      </trkpt>
      <trkpt lat="42.5255800" lon="-6.5589400">
        <ele>555.4</ele>
        <time>2014-10-01T06:12:53Z</time>
      </trkpt>
      <trkpt lat="42.5255220" lon="-6.5589160">
        <ele>555.4</ele>
        <time>2014-10-01T06:12:54Z</time>
      </trkpt>
      <trkpt lat="42.5254610" lon="-6.5588930">
        <ele>555.5</ele>
        <time>2014-10-01T06:12:55Z</time>
      </trkpt>
      <trkpt lat="42.5254010" lon="-6.5588740">
        <ele>555.5</ele>
        <time>2014-10-01T06:12:56Z</time>
      </trkpt>
      <trkpt lat="42.5253430" lon="-6.5588560">
        <ele>555.5</ele>
        <time>2014-10-01T06:12:57Z</time>
      </trkpt>
      <trkpt lat="42.5252820" lon="-6.5588410">
        <ele>555.5</ele>
        <time>2014-10-01T06:12:58Z</time>
      </trkpt>
      <trkpt lat="42.5252200" lon="-6.5588250">
        <ele>555.5</ele>
        <time>2014-10-01T06:12:59Z</time>
      </trkpt>
      <trkpt lat="42.5251580" lon="-6.5588090">
        <ele>555.6</ele>
        <time>2014-10-01T06:13:00Z</time>
      </trkpt>
      <trkpt lat="42.5250950" lon="-6.5587930">
        <ele>555.6</ele>
        <time>2014-10-01T06:13:01Z</time>
      </trkpt>
      <trkpt lat="42.5250310" lon="-6.5587770">
        <ele>555.7</ele>
        <time>2014-10-01T06:13:02Z</time>
      </trkpt>
      <trkpt lat="42.5249670" lon="-6.5587620">
        <ele>555.8</ele>
        <time>2014-10-01T06:13:03Z</time>
      </trkpt>
      <trkpt lat="42.5249030" lon="-6.5587470">
        <ele>555.9</ele>
        <time>2014-10-01T06:13:04Z</time>
      </trkpt>
      <trkpt lat="42.5248380" lon="-6.5587350">
        <ele>556.0</ele>
        <time>2014-10-01T06:13:05Z</time>
      </trkpt>
      <trkpt lat="42.5247750" lon="-6.5587240">
        <ele>556.1</ele>
        <time>2014-10-01T06:13:06Z</time>
      </trkpt>
      <trkpt lat="42.5247120" lon="-6.5587160">
        <ele>556.2</ele>
        <time>2014-10-01T06:13:07Z</time>
      </trkpt>
      <trkpt lat="42.5246540" lon="-6.5587100">
        <ele>556.3</ele>
        <time>2014-10-01T06:13:08Z</time>
      </trkpt>
      <trkpt lat="42.5245980" lon="-6.5587060">
        <ele>556.4</ele>
        <time>2014-10-01T06:13:09Z</time>
      </trkpt>
      <trkpt lat="42.5245400" lon="-6.5587010">
        <ele>556.6</ele>
        <time>2014-10-01T06:13:10Z</time>
      </trkpt>
      <trkpt lat="42.5244770" lon="-6.5586930">
        <ele>556.7</ele>
        <time>2014-10-01T06:13:11Z</time>
      </trkpt>
      <trkpt lat="42.5244170" lon="-6.5586880">
        <ele>556.9</ele>
        <time>2014-10-01T06:13:12Z</time>
      </trkpt>
      <trkpt lat="42.5243580" lon="-6.5586840">
        <ele>557.1</ele>
        <time>2014-10-01T06:13:13Z</time>
      </trkpt>
      <trkpt lat="42.5242960" lon="-6.5586790">
        <ele>557.2</ele>
        <time>2014-10-01T06:13:14Z</time>
      </trkpt>
      <trkpt lat="42.5242350" lon="-6.5586750">
        <ele>557.4</ele>
        <time>2014-10-01T06:13:15Z</time>
      </trkpt>
      <trkpt lat="42.5241760" lon="-6.5586720">
        <ele>557.6</ele>
        <time>2014-10-01T06:13:16Z</time>
      </trkpt>
      <trkpt lat="42.5241180" lon="-6.5586680">
        <ele>557.8</ele>
        <time>2014-10-01T06:13:17Z</time>
      </trkpt>
      <trkpt lat="42.5240620" lon="-6.5586620">
        <ele>558.1</ele>
        <time>2014-10-01T06:13:18Z</time>
      </trkpt>
      <trkpt lat="42.5240070" lon="-6.5586550">
        <ele>558.3</ele>
        <time>2014-10-01T06:13:19Z</time>
      </trkpt>
      <trkpt lat="42.5239500" lon="-6.5586490">
        <ele>558.6</ele>
        <time>2014-10-01T06:13:20Z</time>
      </trkpt>
      <trkpt lat="42.5238960" lon="-6.5586420">
        <ele>558.9</ele>
        <time>2014-10-01T06:13:21Z</time>
      </trkpt>
      <trkpt lat="42.5238410" lon="-6.5586330">
        <ele>559.1</ele>
        <time>2014-10-01T06:13:22Z</time>
      </trkpt>
      <trkpt lat="42.5237860" lon="-6.5586240">
        <ele>559.4</ele>
        <time>2014-10-01T06:13:23Z</time>
      </trkpt>
      <trkpt lat="42.5237330" lon="-6.5586150">
        <ele>559.6</ele>
        <time>2014-10-01T06:13:24Z</time>
      </trkpt>
      <trkpt lat="42.5236800" lon="-6.5586040">
        <ele>559.9</ele>
        <time>2014-10-01T06:13:25Z</time>
      </trkpt>
      <trkpt lat="42.5236290" lon="-6.5585940">
        <ele>560.2</ele>
        <time>2014-10-01T06:13:26Z</time>
      </trkpt>
      <trkpt lat="42.5235780" lon="-6.5585840">
        <ele>560.4</ele>
        <time>2014-10-01T06:13:27Z</time>
      </trkpt>
      <trkpt lat="42.5235250" lon="-6.5585720">
        <ele>560.7</ele>
        <time>2014-10-01T06:13:28Z</time>
      </trkpt>
      <trkpt lat="42.5234730" lon="-6.5585590">
        <ele>561.0</ele>
        <time>2014-10-01T06:13:29Z</time>
      </trkpt>
      <trkpt lat="42.5234210" lon="-6.5585440">
        <ele>561.3</ele>
        <time>2014-10-01T06:13:30Z</time>
      </trkpt>
      <trkpt lat="42.5233720" lon="-6.5585310">
        <ele>561.6</ele>
        <time>2014-10-01T06:13:31Z</time>
      </trkpt>
      <trkpt lat="42.5233220" lon="-6.5585160">
        <ele>561.8</ele>
        <time>2014-10-01T06:13:32Z</time>
      </trkpt>
      <trkpt lat="42.5232730" lon="-6.5584970">
        <ele>562.1</ele>
        <time>2014-10-01T06:13:33Z</time>
      </trkpt>
      <trkpt lat="42.5232250" lon="-6.5584760">
        <ele>562.4</ele>
        <time>2014-10-01T06:13:34Z</time>
      </trkpt>
      <trkpt lat="42.5231760" lon="-6.5584550">
        <ele>562.8</ele>
        <time>2014-10-01T06:13:35Z</time>
      </trkpt>
      <trkpt lat="42.5231280" lon="-6.5584340">
        <ele>563.1</ele>
        <time>2014-10-01T06:13:36Z</time>
      </trkpt>
      <trkpt lat="42.5230820" lon="-6.5584120">
        <ele>563.5</ele>
        <time>2014-10-01T06:13:37Z</time>
      </trkpt>
      <trkpt lat="42.5230360" lon="-6.5583900">
        <ele>563.8</ele>
        <time>2014-10-01T06:13:38Z</time>
      </trkpt>
      <trkpt lat="42.5229870" lon="-6.5583650">
        <ele>564.2</ele>
        <time>2014-10-01T06:13:39Z</time>
      </trkpt>
      <trkpt lat="42.5229470" lon="-6.5583380">
        <ele>564.6</ele>
        <time>2014-10-01T06:13:40Z</time>
      </trkpt>
      <trkpt lat="42.5229090" lon="-6.5583110">
        <ele>564.9</ele>
        <time>2014-10-01T06:13:41Z</time>
      </trkpt>
      <trkpt lat="42.5228750" lon="-6.5582840">
        <ele>565.3</ele>
        <time>2014-10-01T06:13:42Z</time>
      </trkpt>
      <trkpt lat="42.5228390" lon="-6.5582560">
        <ele>565.6</ele>
        <time>2014-10-01T06:13:43Z</time>
      </trkpt>
      <trkpt lat="42.5228030" lon="-6.5582300">
        <ele>565.9</ele>
        <time>2014-10-01T06:13:44Z</time>
      </trkpt>
      <trkpt lat="42.5227720" lon="-6.5582070">
        <ele>566.2</ele>
        <time>2014-10-01T06:13:45Z</time>
      </trkpt>
      <trkpt lat="42.5227390" lon="-6.5581830">
        <ele>566.6</ele>
        <time>2014-10-01T06:13:46Z</time>
      </trkpt>
      <trkpt lat="42.5227110" lon="-6.5581620">
        <ele>566.8</ele>
        <time>2014-10-01T06:13:47Z</time>
      </trkpt>
      <trkpt lat="42.5226770" lon="-6.5581390">
        <ele>567.2</ele>
        <time>2014-10-01T06:13:48Z</time>
      </trkpt>
      <trkpt lat="42.5226460" lon="-6.5581180">
        <ele>567.5</ele>
        <time>2014-10-01T06:13:49Z</time>
      </trkpt>
      <trkpt lat="42.5226150" lon="-6.5580990">
        <ele>567.8</ele>
        <time>2014-10-01T06:13:50Z</time>
      </trkpt>
      <trkpt lat="42.5225760" lon="-6.5580750">
        <ele>568.2</ele>
        <time>2014-10-01T06:13:51Z</time>
      </trkpt>
      <trkpt lat="42.5225330" lon="-6.5580500">
        <ele>568.6</ele>
        <time>2014-10-01T06:13:52Z</time>
      </trkpt>
      <trkpt lat="42.5224900" lon="-6.5580260">
        <ele>569.0</ele>
        <time>2014-10-01T06:13:53Z</time>
      </trkpt>
      <trkpt lat="42.5224590" lon="-6.5580070">
        <ele>569.3</ele>
        <time>2014-10-01T06:13:54Z</time>
      </trkpt>
      <trkpt lat="42.5224290" lon="-6.5579900">
        <ele>569.6</ele>
        <time>2014-10-01T06:13:55Z</time>
      </trkpt>
      <trkpt lat="42.5223970" lon="-6.5579730">
        <ele>569.9</ele>
        <time>2014-10-01T06:13:56Z</time>
      </trkpt>
      <trkpt lat="42.5223680" lon="-6.5579580">
        <ele>570.2</ele>
        <time>2014-10-01T06:13:57Z</time>
      </trkpt>
      <trkpt lat="42.5223370" lon="-6.5579480">
        <ele>570.5</ele>
        <time>2014-10-01T06:13:58Z</time>
      </trkpt>
      <trkpt lat="42.5223060" lon="-6.5579370">
        <ele>570.8</ele>
        <time>2014-10-01T06:13:59Z</time>
      </trkpt>
      <trkpt lat="42.5222730" lon="-6.5579280">
        <ele>571.1</ele>
        <time>2014-10-01T06:14:00Z</time>
      </trkpt>
      <trkpt lat="42.5222460" lon="-6.5579220">
        <ele>571.3</ele>
        <time>2014-10-01T06:14:01Z</time>
      </trkpt>
      <trkpt lat="42.5222140" lon="-6.5579180">
        <ele>571.6</ele>
        <time>2014-10-01T06:14:02Z</time>
      </trkpt>
      <trkpt lat="42.5221820" lon="-6.5579140">
        <ele>571.9</ele>
        <time>2014-10-01T06:14:03Z</time>
      </trkpt>
      <trkpt lat="42.5221480" lon="-6.5579110">
        <ele>572.2</ele>
        <time>2014-10-01T06:14:04Z</time>
      </trkpt>
      <trkpt lat="42.5221090" lon="-6.5579090">
        <ele>572.6</ele>
        <time>2014-10-01T06:14:05Z</time>
      </trkpt>
      <trkpt lat="42.5220790" lon="-6.5579080">
        <ele>572.8</ele>
        <time>2014-10-01T06:14:06Z</time>
      </trkpt>
      <trkpt lat="42.5220420" lon="-6.5579060">
        <ele>573.1</ele>
        <time>2014-10-01T06:14:07Z</time>
      </trkpt>
      <trkpt lat="42.5220080" lon="-6.5579030">
        <ele>573.4</ele>
        <time>2014-10-01T06:14:08Z</time>
      </trkpt>
      <trkpt lat="42.5219730" lon="-6.5578970">
        <ele>573.7</ele>
        <time>2014-10-01T06:14:09Z</time>
      </trkpt>
      <trkpt lat="42.5219370" lon="-6.5578910">
        <ele>574.0</ele>
        <time>2014-10-01T06:14:10Z</time>
      </trkpt>
      <trkpt lat="42.5218990" lon="-6.5578820">
        <ele>574.3</ele>
        <time>2014-10-01T06:14:11Z</time>
      </trkpt>
      <trkpt lat="42.5218650" lon="-6.5578710">
        <ele>574.5</ele>
        <time>2014-10-01T06:14:12Z</time>
      </trkpt>
      <trkpt lat="42.5218350" lon="-6.5578570">
        <ele>574.8</ele>
        <time>2014-10-01T06:14:13Z</time>
      </trkpt>
      <trkpt lat="42.5218000" lon="-6.5578410">
        <ele>575.1</ele>
        <time>2014-10-01T06:14:14Z</time>
      </trkpt>
      <trkpt lat="42.5217670" lon="-6.5578220">
        <ele>575.3</ele>
        <time>2014-10-01T06:14:15Z</time>
      </trkpt>
      <trkpt lat="42.5217330" lon="-6.5578010">
        <ele>575.6</ele>
        <time>2014-10-01T06:14:16Z</time>
      </trkpt>
      <trkpt lat="42.5217010" lon="-6.5577760">
        <ele>575.9</ele>
        <time>2014-10-01T06:14:17Z</time>
      </trkpt>
      <trkpt lat="42.5216720" lon="-6.5577520">
        <ele>576.1</ele>
        <time>2014-10-01T06:14:18Z</time>
      </trkpt>
      <trkpt lat="42.5216460" lon="-6.5577280">
        <ele>576.3</ele>
        <time>2014-10-01T06:14:19Z</time>
      </trkpt>
      <trkpt lat="42.5216160" lon="-6.5577040">
        <ele>576.5</ele>
        <time>2014-10-01T06:14:20Z</time>
      </trkpt>
      <trkpt lat="42.5215780" lon="-6.5576720">
        <ele>576.8</ele>
        <time>2014-10-01T06:14:21Z</time>
      </trkpt>
      <trkpt lat="42.5215360" lon="-6.5576380">
        <ele>577.2</ele>
        <time>2014-10-01T06:14:22Z</time>
      </trkpt>
      <trkpt lat="42.5215000" lon="-6.5576080">
        <ele>577.4</ele>
        <time>2014-10-01T06:14:23Z</time>
      </trkpt>
      <trkpt lat="42.5214670" lon="-6.5575800">
        <ele>577.7</ele>
        <time>2014-10-01T06:14:24Z</time>
      </trkpt>
      <trkpt lat="42.5214360" lon="-6.5575530">
        <ele>577.9</ele>
        <time>2014-10-01T06:14:25Z</time>
      </trkpt>
      <trkpt lat="42.5214030" lon="-6.5575230">
        <ele>578.1</ele>
        <time>2014-10-01T06:14:26Z</time>
      </trkpt>
      <trkpt lat="42.5213700" lon="-6.5574930">
        <ele>578.4</ele>
        <time>2014-10-01T06:14:27Z</time>
      </trkpt>
      <trkpt lat="42.5213360" lon="-6.5574620">
        <ele>578.6</ele>
        <time>2014-10-01T06:14:28Z</time>
      </trkpt>
      <trkpt lat="42.5213050" lon="-6.5574290">
        <ele>578.8</ele>
        <time>2014-10-01T06:14:29Z</time>
      </trkpt>
      <trkpt lat="42.5212730" lon="-6.5573940">
        <ele>579.0</ele>
        <time>2014-10-01T06:14:30Z</time>
      </trkpt>
      <trkpt lat="42.5212410" lon="-6.5573570">
        <ele>579.2</ele>
        <time>2014-10-01T06:14:31Z</time>
      </trkpt>
      <trkpt lat="42.5212110" lon="-6.5573200">
        <ele>579.4</ele>
        <time>2014-10-01T06:14:32Z</time>
      </trkpt>
      <trkpt lat="42.5211810" lon="-6.5572830">
        <ele>579.7</ele>
        <time>2014-10-01T06:14:33Z</time>
      </trkpt>
      <trkpt lat="42.5211540" lon="-6.5572430">
        <ele>579.9</ele>
        <time>2014-10-01T06:14:34Z</time>
      </trkpt>
      <trkpt lat="42.5211260" lon="-6.5572030">
        <ele>580.1</ele>
        <time>2014-10-01T06:14:35Z</time>
      </trkpt>
      <trkpt lat="42.5211000" lon="-6.5571650">
        <ele>580.2</ele>
        <time>2014-10-01T06:14:36Z</time>
      </trkpt>
      <trkpt lat="42.5210700" lon="-6.5571260">
        <ele>580.4</ele>
        <time>2014-10-01T06:14:37Z</time>
      </trkpt>
      <trkpt lat="42.5210390" lon="-6.5570890">
        <ele>580.6</ele>
        <time>2014-10-01T06:14:38Z</time>
      </trkpt>
      <trkpt lat="42.5210070" lon="-6.5570560">
        <ele>580.8</ele>
        <time>2014-10-01T06:14:39Z</time>
      </trkpt>
      <trkpt lat="42.5209700" lon="-6.5570340">
        <ele>581.0</ele>
        <time>2014-10-01T06:14:40Z</time>
      </trkpt>
      <trkpt lat="42.5209290" lon="-6.5570120">
        <ele>581.3</ele>
        <time>2014-10-01T06:14:41Z</time>
      </trkpt>
      <trkpt lat="42.5208880" lon="-6.5569940">
        <ele>581.5</ele>
        <time>2014-10-01T06:14:42Z</time>
      </trkpt>
      <trkpt lat="42.5208460" lon="-6.5569810">
        <ele>581.7</ele>
        <time>2014-10-01T06:14:43Z</time>
      </trkpt>
      <trkpt lat="42.5208050" lon="-6.5569720">
        <ele>582.0</ele>
        <time>2014-10-01T06:14:44Z</time>
      </trkpt>
      <trkpt lat="42.5207650" lon="-6.5569670">
        <ele>582.2</ele>
        <time>2014-10-01T06:14:45Z</time>
      </trkpt>
      <trkpt lat="42.5207250" lon="-6.5569630">
        <ele>582.4</ele>
        <time>2014-10-01T06:14:46Z</time>
      </trkpt>
      <trkpt lat="42.5206830" lon="-6.5569620">
        <ele>582.6</ele>
        <time>2014-10-01T06:14:47Z</time>
      </trkpt>
      <trkpt lat="42.5206390" lon="-6.5569570">
        <ele>582.8</ele>
        <time>2014-10-01T06:14:48Z</time>
      </trkpt>
      <trkpt lat="42.5205960" lon="-6.5569560">
        <ele>583.1</ele>
        <time>2014-10-01T06:14:49Z</time>
      </trkpt>
      <trkpt lat="42.5205520" lon="-6.5569530">
        <ele>583.3</ele>
        <time>2014-10-01T06:14:50Z</time>
      </trkpt>
      <trkpt lat="42.5205080" lon="-6.5569520">
        <ele>583.5</ele>
        <time>2014-10-01T06:14:51Z</time>
      </trkpt>
      <trkpt lat="42.5204640" lon="-6.5569510">
        <ele>583.7</ele>
        <time>2014-10-01T06:14:52Z</time>
      </trkpt>
      <trkpt lat="42.5204210" lon="-6.5569520">
        <ele>583.9</ele>
        <time>2014-10-01T06:14:53Z</time>
      </trkpt>
      <trkpt lat="42.5203750" lon="-6.5569520">
        <ele>584.1</ele>
        <time>2014-10-01T06:14:54Z</time>
      </trkpt>
      <trkpt lat="42.5203310" lon="-6.5569540">
        <ele>584.3</ele>
        <time>2014-10-01T06:14:55Z</time>
      </trkpt>
      <trkpt lat="42.5202870" lon="-6.5569580">
        <ele>584.5</ele>
        <time>2014-10-01T06:14:56Z</time>
      </trkpt>
      <trkpt lat="42.5202440" lon="-6.5569610">
        <ele>584.7</ele>
        <time>2014-10-01T06:14:57Z</time>
      </trkpt>
      <trkpt lat="42.5202000" lon="-6.5569640">
        <ele>584.9</ele>
        <time>2014-10-01T06:14:58Z</time>
      </trkpt>
      <trkpt lat="42.5201560" lon="-6.5569660">
        <ele>585.1</ele>
        <time>2014-10-01T06:14:59Z</time>
      </trkpt>
      <trkpt lat="42.5201130" lon="-6.5569680">
        <ele>585.3</ele>
        <time>2014-10-01T06:15:00Z</time>
      </trkpt>
      <trkpt lat="42.5200660" lon="-6.5569640">
        <ele>585.5</ele>
        <time>2014-10-01T06:15:01Z</time>
      </trkpt>
      <trkpt lat="42.5200220" lon="-6.5569600">
        <ele>585.6</ele>
        <time>2014-10-01T06:15:02Z</time>
      </trkpt>
      <trkpt lat="42.5199790" lon="-6.5569510">
        <ele>585.8</ele>
        <time>2014-10-01T06:15:03Z</time>
      </trkpt>
      <trkpt lat="42.5199320" lon="-6.5569410">
        <ele>585.9</ele>
        <time>2014-10-01T06:15:04Z</time>
      </trkpt>
      <trkpt lat="42.5198850" lon="-6.5569300">
        <ele>586.0</ele>
        <time>2014-10-01T06:15:05Z</time>
      </trkpt>
      <trkpt lat="42.5198320" lon="-6.5569150">
        <ele>586.2</ele>
        <time>2014-10-01T06:15:06Z</time>
      </trkpt>
      <trkpt lat="42.5197800" lon="-6.5568990">
        <ele>586.3</ele>
        <time>2014-10-01T06:15:07Z</time>
      </trkpt>
      <trkpt lat="42.5197280" lon="-6.5568780">
        <ele>586.4</ele>
        <time>2014-10-01T06:15:08Z</time>
      </trkpt>
      <trkpt lat="42.5196790" lon="-6.5568530">
        <ele>586.4</ele>
        <time>2014-10-01T06:15:09Z</time>
      </trkpt>
      <trkpt lat="42.5196320" lon="-6.5568230">
        <ele>586.5</ele>
        <time>2014-10-01T06:15:10Z</time>
      </trkpt>
      <trkpt lat="42.5195840" lon="-6.5567850">
        <ele>586.6</ele>
        <time>2014-10-01T06:15:11Z</time>
      </trkpt>
      <trkpt lat="42.5195380" lon="-6.5567470">
        <ele>586.6</ele>
        <time>2014-10-01T06:15:12Z</time>
      </trkpt>
      <trkpt lat="42.5194930" lon="-6.5567010">
        <ele>586.6</ele>
        <time>2014-10-01T06:15:13Z</time>
      </trkpt>
      <trkpt lat="42.5194490" lon="-6.5566510">
        <ele>586.6</ele>
        <time>2014-10-01T06:15:14Z</time>
      </trkpt>
      <trkpt lat="42.5194070" lon="-6.5565980">
        <ele>586.6</ele>
        <time>2014-10-01T06:15:15Z</time>
      </trkpt>
      <trkpt lat="42.5193650" lon="-6.5565390">
        <ele>586.6</ele>
        <time>2014-10-01T06:15:16Z</time>
      </trkpt>
      <trkpt lat="42.5193230" lon="-6.5564740">
        <ele>586.6</ele>
        <time>2014-10-01T06:15:17Z</time>
      </trkpt>
      <trkpt lat="42.5192780" lon="-6.5564050">
        <ele>586.5</ele>
        <time>2014-10-01T06:15:18Z</time>
      </trkpt>
      <trkpt lat="42.5192340" lon="-6.5563410">
        <ele>586.5</ele>
        <time>2014-10-01T06:15:19Z</time>
      </trkpt>
      <trkpt lat="42.5191860" lon="-6.5562730">
        <ele>586.4</ele>
        <time>2014-10-01T06:15:20Z</time>
      </trkpt>
      <trkpt lat="42.5191360" lon="-6.5562080">
        <ele>586.4</ele>
        <time>2014-10-01T06:15:21Z</time>
      </trkpt>
      <trkpt lat="42.5190840" lon="-6.5561540">
        <ele>586.4</ele>
        <time>2014-10-01T06:15:22Z</time>
      </trkpt>
      <trkpt lat="42.5190220" lon="-6.5561200">
        <ele>586.5</ele>
        <time>2014-10-01T06:15:23Z</time>
      </trkpt>
      <trkpt lat="42.5189610" lon="-6.5560950">
        <ele>586.5</ele>
        <time>2014-10-01T06:15:24Z</time>
      </trkpt>
      <trkpt lat="42.5188940" lon="-6.5560880">
        <ele>586.6</ele>
        <time>2014-10-01T06:15:25Z</time>
      </trkpt>
      <trkpt lat="42.5188270" lon="-6.5560870">
        <ele>586.6</ele>
        <time>2014-10-01T06:15:26Z</time>
      </trkpt>
      <trkpt lat="42.5187590" lon="-6.5560920">
        <ele>586.7</ele>
        <time>2014-10-01T06:15:27Z</time>
      </trkpt>
      <trkpt lat="42.5186890" lon="-6.5561030">
        <ele>586.8</ele>
        <time>2014-10-01T06:15:28Z</time>
      </trkpt>
      <trkpt lat="42.5186190" lon="-6.5561150">
        <ele>587.1</ele>
        <time>2014-10-01T06:15:29Z</time>
      </trkpt>
      <trkpt lat="42.5185520" lon="-6.5561300">
        <ele>587.4</ele>
        <time>2014-10-01T06:15:30Z</time>
      </trkpt>
      <trkpt lat="42.5184890" lon="-6.5561500">
        <ele>587.7</ele>
        <time>2014-10-01T06:15:31Z</time>
      </trkpt>
      <trkpt lat="42.5184280" lon="-6.5561700">
        <ele>588.0</ele>
        <time>2014-10-01T06:15:32Z</time>
      </trkpt>
      <trkpt lat="42.5183650" lon="-6.5561890">
        <ele>588.4</ele>
        <time>2014-10-01T06:15:33Z</time>
      </trkpt>
      <trkpt lat="42.5183060" lon="-6.5562070">
        <ele>588.6</ele>
        <time>2014-10-01T06:15:34Z</time>
      </trkpt>
      <trkpt lat="42.5182470" lon="-6.5562260">
        <ele>588.9</ele>
        <time>2014-10-01T06:15:35Z</time>
      </trkpt>
      <trkpt lat="42.5181940" lon="-6.5562430">
        <ele>589.1</ele>
        <time>2014-10-01T06:15:36Z</time>
      </trkpt>
      <trkpt lat="42.5181410" lon="-6.5562560">
        <ele>589.3</ele>
        <time>2014-10-01T06:15:37Z</time>
      </trkpt>
      <trkpt lat="42.5180910" lon="-6.5562630">
        <ele>589.5</ele>
        <time>2014-10-01T06:15:38Z</time>
      </trkpt>
      <trkpt lat="42.5180460" lon="-6.5562690">
        <ele>589.7</ele>
        <time>2014-10-01T06:15:39Z</time>
      </trkpt>
      <trkpt lat="42.5180000" lon="-6.5562700">
        <ele>589.9</ele>
        <time>2014-10-01T06:15:40Z</time>
      </trkpt>
      <trkpt lat="42.5179570" lon="-6.5562690">
        <ele>590.0</ele>
        <time>2014-10-01T06:15:41Z</time>
      </trkpt>
      <trkpt lat="42.5179120" lon="-6.5562690">
        <ele>590.2</ele>
        <time>2014-10-01T06:15:42Z</time>
      </trkpt>
      <trkpt lat="42.5178650" lon="-6.5562700">
        <ele>590.4</ele>
        <time>2014-10-01T06:15:43Z</time>
      </trkpt>
      <trkpt lat="42.5178160" lon="-6.5562700">
        <ele>590.6</ele>
        <time>2014-10-01T06:15:44Z</time>
      </trkpt>
      <trkpt lat="42.5177630" lon="-6.5562680">
        <ele>590.7</ele>
        <time>2014-10-01T06:15:45Z</time>
      </trkpt>
      <trkpt lat="42.5177060" lon="-6.5562670">
        <ele>590.9</ele>
        <time>2014-10-01T06:15:46Z</time>
      </trkpt>
      <trkpt lat="42.5176480" lon="-6.5562640">
        <ele>591.0</ele>
        <time>2014-10-01T06:15:47Z</time>
      </trkpt>
      <trkpt lat="42.5175890" lon="-6.5562580">
        <ele>591.1</ele>
        <time>2014-10-01T06:15:48Z</time>
      </trkpt>
      <trkpt lat="42.5175290" lon="-6.5562490">
        <ele>591.1</ele>
        <time>2014-10-01T06:15:49Z</time>
      </trkpt>
      <trkpt lat="42.5174700" lon="-6.5562340">
        <ele>591.2</ele>
        <time>2014-10-01T06:15:50Z</time>
      </trkpt>
      <trkpt lat="42.5174130" lon="-6.5562150">
        <ele>591.3</ele>
        <time>2014-10-01T06:15:51Z</time>
      </trkpt>
      <trkpt lat="42.5173580" lon="-6.5561930">
        <ele>591.3</ele>
        <time>2014-10-01T06:15:52Z</time>
      </trkpt>
      <trkpt lat="42.5173030" lon="-6.5561680">
        <ele>591.4</ele>
        <time>2014-10-01T06:15:53Z</time>
      </trkpt>
      <trkpt lat="42.5172430" lon="-6.5561400">
        <ele>591.5</ele>
        <time>2014-10-01T06:15:54Z</time>
      </trkpt>
      <trkpt lat="42.5171840" lon="-6.5561100">
        <ele>591.6</ele>
        <time>2014-10-01T06:15:55Z</time>
      </trkpt>
      <trkpt lat="42.5171280" lon="-6.5560810">
        <ele>591.7</ele>
        <time>2014-10-01T06:15:56Z</time>
      </trkpt>
      <trkpt lat="42.5170730" lon="-6.5560520">
        <ele>591.8</ele>
        <time>2014-10-01T06:15:57Z</time>
      </trkpt>
      <trkpt lat="42.5170140" lon="-6.5560200">
        <ele>591.9</ele>
        <time>2014-10-01T06:15:58Z</time>
      </trkpt>
      <trkpt lat="42.5169580" lon="-6.5559890">
        <ele>592.0</ele>
        <time>2014-10-01T06:15:59Z</time>
      </trkpt>
      <trkpt lat="42.5168980" lon="-6.5559570">
        <ele>592.1</ele>
        <time>2014-10-01T06:16:00Z</time>
      </trkpt>
      <trkpt lat="42.5168380" lon="-6.5559250">
        <ele>592.2</ele>
        <time>2014-10-01T06:16:01Z</time>
      </trkpt>
      <trkpt lat="42.5167790" lon="-6.5558940">
        <ele>592.2</ele>
        <time>2014-10-01T06:16:02Z</time>
      </trkpt>
      <trkpt lat="42.5167190" lon="-6.5558620">
        <ele>592.3</ele>
        <time>2014-10-01T06:16:03Z</time>
      </trkpt>
      <trkpt lat="42.5166600" lon="-6.5558310">
        <ele>592.4</ele>
        <time>2014-10-01T06:16:04Z</time>
      </trkpt>
      <trkpt lat="42.5166010" lon="-6.5558000">
        <ele>592.5</ele>
        <time>2014-10-01T06:16:05Z</time>
      </trkpt>
      <trkpt lat="42.5165420" lon="-6.5557700">
        <ele>592.7</ele>
        <time>2014-10-01T06:16:06Z</time>
      </trkpt>
      <trkpt lat="42.5164840" lon="-6.5557400">
        <ele>592.8</ele>
        <time>2014-10-01T06:16:07Z</time>
      </trkpt>
      <trkpt lat="42.5164270" lon="-6.5557100">
        <ele>592.8</ele>
        <time>2014-10-01T06:16:08Z</time>
      </trkpt>
      <trkpt lat="42.5163690" lon="-6.5556810">
        <ele>592.9</ele>
        <time>2014-10-01T06:16:09Z</time>
      </trkpt>
      <trkpt lat="42.5163130" lon="-6.5556520">
        <ele>593.0</ele>
        <time>2014-10-01T06:16:10Z</time>
      </trkpt>
      <trkpt lat="42.5162560" lon="-6.5556240">
        <ele>593.1</ele>
        <time>2014-10-01T06:16:11Z</time>
      </trkpt>
      <trkpt lat="42.5161970" lon="-6.5555950">
        <ele>593.2</ele>
        <time>2014-10-01T06:16:12Z</time>
      </trkpt>
      <trkpt lat="42.5161380" lon="-6.5555660">
        <ele>593.3</ele>
        <time>2014-10-01T06:16:13Z</time>
      </trkpt>
      <trkpt lat="42.5160820" lon="-6.5555400">
        <ele>593.4</ele>
        <time>2014-10-01T06:16:14Z</time>
      </trkpt>
      <trkpt lat="42.5160250" lon="-6.5555130">
        <ele>593.5</ele>
        <time>2014-10-01T06:16:15Z</time>
      </trkpt>
      <trkpt lat="42.5159660" lon="-6.5554850">
        <ele>593.6</ele>
        <time>2014-10-01T06:16:16Z</time>
      </trkpt>
      <trkpt lat="42.5159060" lon="-6.5554550">
        <ele>593.8</ele>
        <time>2014-10-01T06:16:17Z</time>
      </trkpt>
      <trkpt lat="42.5158470" lon="-6.5554240">
        <ele>593.9</ele>
        <time>2014-10-01T06:16:18Z</time>
      </trkpt>
      <trkpt lat="42.5157880" lon="-6.5553930">
        <ele>594.0</ele>
        <time>2014-10-01T06:16:19Z</time>
      </trkpt>
      <trkpt lat="42.5157290" lon="-6.5553630">
        <ele>594.1</ele>
        <time>2014-10-01T06:16:20Z</time>
      </trkpt>
      <trkpt lat="42.5156710" lon="-6.5553330">
        <ele>594.3</ele>
        <time>2014-10-01T06:16:21Z</time>
      </trkpt>
      <trkpt lat="42.5156120" lon="-6.5553040">
        <ele>594.4</ele>
        <time>2014-10-01T06:16:22Z</time>
      </trkpt>
      <trkpt lat="42.5155530" lon="-6.5552770">
        <ele>594.5</ele>
        <time>2014-10-01T06:16:23Z</time>
      </trkpt>
      <trkpt lat="42.5154910" lon="-6.5552480">
        <ele>594.7</ele>
        <time>2014-10-01T06:16:24Z</time>
      </trkpt>
      <trkpt lat="42.5154360" lon="-6.5552250">
        <ele>594.9</ele>
        <time>2014-10-01T06:16:25Z</time>
      </trkpt>
      <trkpt lat="42.5153800" lon="-6.5552000">
        <ele>595.0</ele>
        <time>2014-10-01T06:16:26Z</time>
      </trkpt>
      <trkpt lat="42.5153250" lon="-6.5551730">
        <ele>595.2</ele>
        <time>2014-10-01T06:16:27Z</time>
      </trkpt>
      <trkpt lat="42.5152680" lon="-6.5551460">
        <ele>595.4</ele>
        <time>2014-10-01T06:16:28Z</time>
      </trkpt>
      <trkpt lat="42.5152090" lon="-6.5551170">
        <ele>595.6</ele>
        <time>2014-10-01T06:16:29Z</time>
      </trkpt>
      <trkpt lat="42.5151520" lon="-6.5550870">
        <ele>595.8</ele>
        <time>2014-10-01T06:16:30Z</time>
      </trkpt>
      <trkpt lat="42.5150990" lon="-6.5550590">
        <ele>595.9</ele>
        <time>2014-10-01T06:16:31Z</time>
      </trkpt>
      <trkpt lat="42.5150490" lon="-6.5550340">
        <ele>596.1</ele>
        <time>2014-10-01T06:16:32Z</time>
      </trkpt>
      <trkpt lat="42.5150010" lon="-6.5550090">
        <ele>596.3</ele>
        <time>2014-10-01T06:16:33Z</time>
      </trkpt>
      <trkpt lat="42.5149510" lon="-6.5549830">
        <ele>596.4</ele>
        <time>2014-10-01T06:16:34Z</time>
      </trkpt>
      <trkpt lat="42.5149000" lon="-6.5549560">
        <ele>596.5</ele>
        <time>2014-10-01T06:16:35Z</time>
      </trkpt>
      <trkpt lat="42.5148490" lon="-6.5549290">
        <ele>596.7</ele>
        <time>2014-10-01T06:16:36Z</time>
      </trkpt>
      <trkpt lat="42.5148000" lon="-6.5549030">
        <ele>596.9</ele>
        <time>2014-10-01T06:16:37Z</time>
      </trkpt>
      <trkpt lat="42.5147500" lon="-6.5548780">
        <ele>597.1</ele>
        <time>2014-10-01T06:16:38Z</time>
      </trkpt>
      <trkpt lat="42.5146990" lon="-6.5548530">
        <ele>597.3</ele>
        <time>2014-10-01T06:16:39Z</time>
      </trkpt>
      <trkpt lat="42.5146510" lon="-6.5548280">
        <ele>597.6</ele>
        <time>2014-10-01T06:16:40Z</time>
      </trkpt>
      <trkpt lat="42.5146000" lon="-6.5548010">
        <ele>597.8</ele>
        <time>2014-10-01T06:16:41Z</time>
      </trkpt>
      <trkpt lat="42.5145510" lon="-6.5547740">
        <ele>598.0</ele>
        <time>2014-10-01T06:16:42Z</time>
      </trkpt>
      <trkpt lat="42.5145020" lon="-6.5547490">
        <ele>598.2</ele>
        <time>2014-10-01T06:16:43Z</time>
      </trkpt>
      <trkpt lat="42.5144530" lon="-6.5547240">
        <ele>598.4</ele>
        <time>2014-10-01T06:16:44Z</time>
      </trkpt>
      <trkpt lat="42.5144050" lon="-6.5547020">
        <ele>598.6</ele>
        <time>2014-10-01T06:16:45Z</time>
      </trkpt>
      <trkpt lat="42.5143560" lon="-6.5546800">
        <ele>598.9</ele>
        <time>2014-10-01T06:16:46Z</time>
      </trkpt>
      <trkpt lat="42.5143070" lon="-6.5546580">
        <ele>599.1</ele>
        <time>2014-10-01T06:16:47Z</time>
      </trkpt>
      <trkpt lat="42.5142580" lon="-6.5546370">
        <ele>599.3</ele>
        <time>2014-10-01T06:16:48Z</time>
      </trkpt>
      <trkpt lat="42.5142090" lon="-6.5546160">
        <ele>599.5</ele>
        <time>2014-10-01T06:16:49Z</time>
      </trkpt>
      <trkpt lat="42.5141610" lon="-6.5545950">
        <ele>599.7</ele>
        <time>2014-10-01T06:16:50Z</time>
      </trkpt>
      <trkpt lat="42.5141120" lon="-6.5545730">
        <ele>599.9</ele>
        <time>2014-10-01T06:16:51Z</time>
      </trkpt>
      <trkpt lat="42.5140650" lon="-6.5545490">
        <ele>600.1</ele>
        <time>2014-10-01T06:16:52Z</time>
      </trkpt>
      <trkpt lat="42.5140180" lon="-6.5545260">
        <ele>600.3</ele>
        <time>2014-10-01T06:16:53Z</time>
      </trkpt>
      <trkpt lat="42.5139710" lon="-6.5545030">
        <ele>600.5</ele>
        <time>2014-10-01T06:16:54Z</time>
      </trkpt>
      <trkpt lat="42.5139250" lon="-6.5544800">
        <ele>600.7</ele>
        <time>2014-10-01T06:16:55Z</time>
      </trkpt>
      <trkpt lat="42.5138780" lon="-6.5544570">
        <ele>600.9</ele>
        <time>2014-10-01T06:16:56Z</time>
      </trkpt>
      <trkpt lat="42.5138310" lon="-6.5544340">
        <ele>601.1</ele>
        <time>2014-10-01T06:16:57Z</time>
      </trkpt>
      <trkpt lat="42.5137890" lon="-6.5544130">
        <ele>601.3</ele>
        <time>2014-10-01T06:16:58Z</time>
      </trkpt>
      <trkpt lat="42.5137460" lon="-6.5543900">
        <ele>601.5</ele>
        <time>2014-10-01T06:16:59Z</time>
      </trkpt>
      <trkpt lat="42.5137000" lon="-6.5543640">
        <ele>601.7</ele>
        <time>2014-10-01T06:17:00Z</time>
      </trkpt>
      <trkpt lat="42.5136560" lon="-6.5543390">
        <ele>602.0</ele>
        <time>2014-10-01T06:17:01Z</time>
      </trkpt>
      <trkpt lat="42.5136130" lon="-6.5543140">
        <ele>602.2</ele>
        <time>2014-10-01T06:17:02Z</time>
      </trkpt>
      <trkpt lat="42.5135690" lon="-6.5542850">
        <ele>602.4</ele>
        <time>2014-10-01T06:17:03Z</time>
      </trkpt>
      <trkpt lat="42.5135220" lon="-6.5542530">
        <ele>602.6</ele>
        <time>2014-10-01T06:17:04Z</time>
      </trkpt>
      <trkpt lat="42.5134770" lon="-6.5542220">
        <ele>602.7</ele>
        <time>2014-10-01T06:17:05Z</time>
      </trkpt>
      <trkpt lat="42.5134350" lon="-6.5541960">
        <ele>602.9</ele>
        <time>2014-10-01T06:17:06Z</time>
      </trkpt>
      <trkpt lat="42.5133930" lon="-6.5541700">
        <ele>603.1</ele>
        <time>2014-10-01T06:17:07Z</time>
      </trkpt>
      <trkpt lat="42.5133520" lon="-6.5541470">
        <ele>603.2</ele>
        <time>2014-10-01T06:17:08Z</time>
      </trkpt>
      <trkpt lat="42.5133090" lon="-6.5541220">
        <ele>603.4</ele>
        <time>2014-10-01T06:17:09Z</time>
      </trkpt>
      <trkpt lat="42.5132660" lon="-6.5540940">
        <ele>603.6</ele>
        <time>2014-10-01T06:17:10Z</time>
      </trkpt>
      <trkpt lat="42.5132220" lon="-6.5540670">
        <ele>603.8</ele>
        <time>2014-10-01T06:17:11Z</time>
      </trkpt>
      <trkpt lat="42.5131770" lon="-6.5540400">
        <ele>604.1</ele>
        <time>2014-10-01T06:17:12Z</time>
      </trkpt>
      <trkpt lat="42.5131360" lon="-6.5540130">
        <ele>604.3</ele>
        <time>2014-10-01T06:17:13Z</time>
      </trkpt>
      <trkpt lat="42.5130930" lon="-6.5539830">
        <ele>604.5</ele>
        <time>2014-10-01T06:17:14Z</time>
      </trkpt>
      <trkpt lat="42.5130500" lon="-6.5539550">
        <ele>604.7</ele>
        <time>2014-10-01T06:17:15Z</time>
      </trkpt>
      <trkpt lat="42.5130090" lon="-6.5539280">
        <ele>604.9</ele>
        <time>2014-10-01T06:17:16Z</time>
      </trkpt>
      <trkpt lat="42.5129650" lon="-6.5539050">
        <ele>605.2</ele>
        <time>2014-10-01T06:17:17Z</time>
      </trkpt>
      <trkpt lat="42.5129230" lon="-6.5538810">
        <ele>605.4</ele>
        <time>2014-10-01T06:17:18Z</time>
      </trkpt>
      <trkpt lat="42.5128780" lon="-6.5538540">
        <ele>605.6</ele>
        <time>2014-10-01T06:17:19Z</time>
      </trkpt>
      <trkpt lat="42.5128370" lon="-6.5538310">
        <ele>605.8</ele>
        <time>2014-10-01T06:17:20Z</time>
      </trkpt>
      <trkpt lat="42.5127940" lon="-6.5538100">
        <ele>606.0</ele>
        <time>2014-10-01T06:17:21Z</time>
      </trkpt>
      <trkpt lat="42.5127510" lon="-6.5537900">
        <ele>606.2</ele>
        <time>2014-10-01T06:17:22Z</time>
      </trkpt>
      <trkpt lat="42.5127050" lon="-6.5537740">
        <ele>606.4</ele>
        <time>2014-10-01T06:17:23Z</time>
      </trkpt>
      <trkpt lat="42.5126570" lon="-6.5537610">
        <ele>606.7</ele>
        <time>2014-10-01T06:17:24Z</time>
      </trkpt>
      <trkpt lat="42.5126070" lon="-6.5537510">
        <ele>606.9</ele>
        <time>2014-10-01T06:17:25Z</time>
      </trkpt>
      <trkpt lat="42.5125580" lon="-6.5537400">
        <ele>607.1</ele>
        <time>2014-10-01T06:17:26Z</time>
      </trkpt>
      <trkpt lat="42.5125070" lon="-6.5537300">
        <ele>607.3</ele>
        <time>2014-10-01T06:17:27Z</time>
      </trkpt>
      <trkpt lat="42.5124630" lon="-6.5537200">
        <ele>607.5</ele>
        <time>2014-10-01T06:17:28Z</time>
      </trkpt>
      <trkpt lat="42.5124230" lon="-6.5537120">
        <ele>607.7</ele>
        <time>2014-10-01T06:17:29Z</time>
      </trkpt>
      <trkpt lat="42.5123800" lon="-6.5537050">
        <ele>607.9</ele>
        <time>2014-10-01T06:17:30Z</time>
      </trkpt>
      <trkpt lat="42.5123310" lon="-6.5536990">
        <ele>608.2</ele>
        <time>2014-10-01T06:17:31Z</time>
      </trkpt>
      <trkpt lat="42.5122770" lon="-6.5536940">
        <ele>608.5</ele>
        <time>2014-10-01T06:17:32Z</time>
      </trkpt>
      <trkpt lat="42.5122220" lon="-6.5536890">
        <ele>608.7</ele>
        <time>2014-10-01T06:17:33Z</time>
      </trkpt>
      <trkpt lat="42.5121710" lon="-6.5536820">
        <ele>609.0</ele>
        <time>2014-10-01T06:17:34Z</time>
      </trkpt>
      <trkpt lat="42.5121290" lon="-6.5536760">
        <ele>609.1</ele>
        <time>2014-10-01T06:17:35Z</time>
      </trkpt>
      <trkpt lat="42.5120840" lon="-6.5536710">
        <ele>609.4</ele>
        <time>2014-10-01T06:17:36Z</time>
      </trkpt>
      <trkpt lat="42.5120400" lon="-6.5536640">
        <ele>609.5</ele>
        <time>2014-10-01T06:17:37Z</time>
      </trkpt>
      <trkpt lat="42.5120000" lon="-6.5536570">
        <ele>609.7</ele>
        <time>2014-10-01T06:17:38Z</time>
      </trkpt>
      <trkpt lat="42.5119600" lon="-6.5536490">
        <ele>609.7</ele>
        <time>2014-10-01T06:17:39Z</time>
      </trkpt>
      <trkpt lat="42.5119160" lon="-6.5536390">
        <ele>609.8</ele>
        <time>2014-10-01T06:17:40Z</time>
      </trkpt>
      <trkpt lat="42.5118660" lon="-6.5536310">
        <ele>609.7</ele>
        <time>2014-10-01T06:17:41Z</time>
      </trkpt>
      <trkpt lat="42.5118160" lon="-6.5536220">
        <ele>609.8</ele>
        <time>2014-10-01T06:17:42Z</time>
      </trkpt>
      <trkpt lat="42.5117690" lon="-6.5536120">
        <ele>610.0</ele>
        <time>2014-10-01T06:17:43Z</time>
      </trkpt>
      <trkpt lat="42.5117260" lon="-6.5536020">
        <ele>610.0</ele>
        <time>2014-10-01T06:17:44Z</time>
      </trkpt>
      <trkpt lat="42.5116850" lon="-6.5535890">
        <ele>610.0</ele>
        <time>2014-10-01T06:17:45Z</time>
      </trkpt>
      <trkpt lat="42.5116400" lon="-6.5535750">
        <ele>610.0</ele>
        <time>2014-10-01T06:17:46Z</time>
      </trkpt>
      <trkpt lat="42.5115960" lon="-6.5535610">
        <ele>609.9</ele>
        <time>2014-10-01T06:17:47Z</time>
      </trkpt>
      <trkpt lat="42.5115520" lon="-6.5535470">
        <ele>609.9</ele>
        <time>2014-10-01T06:17:48Z</time>
      </trkpt>
      <trkpt lat="42.5115100" lon="-6.5535370">
        <ele>609.9</ele>
        <time>2014-10-01T06:17:49Z</time>
      </trkpt>
      <trkpt lat="42.5114720" lon="-6.5535250">
        <ele>609.9</ele>
        <time>2014-10-01T06:17:50Z</time>
      </trkpt>
      <trkpt lat="42.5114360" lon="-6.5535120">
        <ele>609.9</ele>
        <time>2014-10-01T06:17:51Z</time>
      </trkpt>
      <trkpt lat="42.5114010" lon="-6.5534950">
        <ele>609.9</ele>
        <time>2014-10-01T06:17:52Z</time>
      </trkpt>
      <trkpt lat="42.5113740" lon="-6.5534800">
        <ele>609.9</ele>
        <time>2014-10-01T06:17:53Z</time>
      </trkpt>
      <trkpt lat="42.5113410" lon="-6.5534550">
        <ele>609.9</ele>
        <time>2014-10-01T06:17:55Z</time>
      </trkpt>
      <trkpt lat="42.5113420" lon="-6.5534150">
        <ele>609.8</ele>
        <time>2014-10-01T06:17:57Z</time>
      </trkpt>
      <trkpt lat="42.5113770" lon="-6.5534080">
        <ele>609.8</ele>
        <time>2014-10-01T06:17:59Z</time>
      </trkpt>
      <trkpt lat="42.5114040" lon="-6.5534200">
        <ele>609.8</ele>
        <time>2014-10-01T06:18:00Z</time>
      </trkpt>
      <trkpt lat="42.5114340" lon="-6.5534370">
        <ele>609.7</ele>
        <time>2014-10-01T06:18:01Z</time>
      </trkpt>
      <trkpt lat="42.5114730" lon="-6.5534600">
        <ele>609.8</ele>
        <time>2014-10-01T06:18:02Z</time>
      </trkpt>
      <trkpt lat="42.5115080" lon="-6.5534760">
        <ele>609.9</ele>
        <time>2014-10-01T06:18:03Z</time>
      </trkpt>
      <trkpt lat="42.5115460" lon="-6.5534920">
        <ele>609.9</ele>
        <time>2014-10-01T06:18:04Z</time>
      </trkpt>
      <trkpt lat="42.5115860" lon="-6.5535050">
        <ele>609.9</ele>
        <time>2014-10-01T06:18:05Z</time>
      </trkpt>
      <trkpt lat="42.5116280" lon="-6.5535140">
        <ele>609.9</ele>
        <time>2014-10-01T06:18:06Z</time>
      </trkpt>
      <trkpt lat="42.5116690" lon="-6.5534950">
        <ele>609.9</ele>
        <time>2014-10-01T06:18:07Z</time>
      </trkpt>
      <trkpt lat="42.5116970" lon="-6.5534580">
        <ele>610.0</ele>
        <time>2014-10-01T06:18:08Z</time>
      </trkpt>
      <trkpt lat="42.5117140" lon="-6.5534100">
        <ele>611.8</ele>
        <time>2014-10-01T06:18:09Z</time>
      </trkpt>
      <trkpt lat="42.5117210" lon="-6.5533670">
        <ele>612.2</ele>
        <time>2014-10-01T06:18:10Z</time>
      </trkpt>
      <trkpt lat="42.5117270" lon="-6.5533280">
        <ele>612.6</ele>
        <time>2014-10-01T06:18:11Z</time>
      </trkpt>
      <trkpt lat="42.5117250" lon="-6.5532870">
        <ele>613.0</ele>
        <time>2014-10-01T06:18:12Z</time>
      </trkpt>
      <trkpt lat="42.5117210" lon="-6.5532470">
        <ele>613.4</ele>
        <time>2014-10-01T06:18:13Z</time>
      </trkpt>
      <trkpt lat="42.5117160" lon="-6.5532030">
        <ele>613.8</ele>
        <time>2014-10-01T06:18:14Z</time>
      </trkpt>
      <trkpt lat="42.5117040" lon="-6.5531630">
        <ele>614.3</ele>
        <time>2014-10-01T06:18:15Z</time>
      </trkpt>
      <trkpt lat="42.5117030" lon="-6.5531200">
        <ele>614.8</ele>
        <time>2014-10-01T06:18:16Z</time>
      </trkpt>
      <trkpt lat="42.5117040" lon="-6.5530800">
        <ele>615.3</ele>
        <time>2014-10-01T06:18:17Z</time>
      </trkpt>
      <trkpt lat="42.5117300" lon="-6.5530190">
        <ele>616.1</ele>
        <time>2014-10-01T06:18:19Z</time>
      </trkpt>
      <trkpt lat="42.5117490" lon="-6.5529880">
        <ele>616.5</ele>
        <time>2014-10-01T06:18:20Z</time>
      </trkpt>
      <trkpt lat="42.5117750" lon="-6.5529650">
        <ele>616.9</ele>
        <time>2014-10-01T06:18:21Z</time>
      </trkpt>
      <trkpt lat="42.5118020" lon="-6.5529460">
        <ele>617.3</ele>
        <time>2014-10-01T06:18:22Z</time>
      </trkpt>
      <trkpt lat="42.5118290" lon="-6.5529260">
        <ele>617.6</ele>
        <time>2014-10-01T06:18:23Z</time>
      </trkpt>
      <trkpt lat="42.5118570" lon="-6.5529060">
        <ele>618.0</ele>
        <time>2014-10-01T06:18:24Z</time>
      </trkpt>
      <trkpt lat="42.5118870" lon="-6.5528840">
        <ele>618.3</ele>
        <time>2014-10-01T06:18:25Z</time>
      </trkpt>
      <trkpt lat="42.5119150" lon="-6.5528600">
        <ele>618.6</ele>
        <time>2014-10-01T06:18:26Z</time>
      </trkpt>
      <trkpt lat="42.5119420" lon="-6.5528360">
        <ele>619.0</ele>
        <time>2014-10-01T06:18:27Z</time>
      </trkpt>
      <trkpt lat="42.5119680" lon="-6.5528160">
        <ele>619.2</ele>
        <time>2014-10-01T06:18:28Z</time>
      </trkpt>
      <trkpt lat="42.5120090" lon="-6.5527790">
        <ele>619.7</ele>
        <time>2014-10-01T06:18:30Z</time>
      </trkpt>
      <trkpt lat="42.5120490" lon="-6.5527420">
        <ele>620.2</ele>
        <time>2014-10-01T06:18:32Z</time>
      </trkpt>
      <trkpt lat="42.5120870" lon="-6.5527020">
        <ele>620.8</ele>
        <time>2014-10-01T06:18:34Z</time>
      </trkpt>
      <trkpt lat="42.5121260" lon="-6.5526610">
        <ele>621.3</ele>
        <time>2014-10-01T06:18:36Z</time>
      </trkpt>
      <trkpt lat="42.5121680" lon="-6.5526190">
        <ele>621.9</ele>
        <time>2014-10-01T06:18:38Z</time>
      </trkpt>
      <trkpt lat="42.5122070" lon="-6.5525850">
        <ele>622.4</ele>
        <time>2014-10-01T06:18:40Z</time>
      </trkpt>
      <trkpt lat="42.5122530" lon="-6.5525570">
        <ele>623.0</ele>
        <time>2014-10-01T06:18:42Z</time>
      </trkpt>
      <trkpt lat="42.5123030" lon="-6.5525370">
        <ele>623.6</ele>
        <time>2014-10-01T06:18:44Z</time>
      </trkpt>
      <trkpt lat="42.5123530" lon="-6.5525170">
        <ele>624.1</ele>
        <time>2014-10-01T06:18:46Z</time>
      </trkpt>
      <trkpt lat="42.5124030" lon="-6.5524960">
        <ele>624.7</ele>
        <time>2014-10-01T06:18:48Z</time>
      </trkpt>
      <trkpt lat="42.5124440" lon="-6.5524890">
        <ele>625.2</ele>
        <time>2014-10-01T06:18:50Z</time>
      </trkpt>
      <trkpt lat="42.5124930" lon="-6.5524720">
        <ele>625.8</ele>
        <time>2014-10-01T06:18:52Z</time>
      </trkpt>
      <trkpt lat="42.5125400" lon="-6.5524530">
        <ele>626.3</ele>
        <time>2014-10-01T06:18:54Z</time>
      </trkpt>
      <trkpt lat="42.5125910" lon="-6.5524330">
        <ele>627.0</ele>
        <time>2014-10-01T06:18:56Z</time>
      </trkpt>
      <trkpt lat="42.5126170" lon="-6.5524220">
        <ele>627.3</ele>
        <time>2014-10-01T06:18:57Z</time>
      </trkpt>
      <trkpt lat="42.5126680" lon="-6.5523980">
        <ele>628.0</ele>
        <time>2014-10-01T06:18:59Z</time>
      </trkpt>
      <trkpt lat="42.5126950" lon="-6.5523870">
        <ele>628.3</ele>
        <time>2014-10-01T06:19:00Z</time>
      </trkpt>
      <trkpt lat="42.5127210" lon="-6.5523770">
        <ele>628.6</ele>
        <time>2014-10-01T06:19:01Z</time>
      </trkpt>
      <trkpt lat="42.5127670" lon="-6.5523640">
        <ele>629.2</ele>
        <time>2014-10-01T06:19:03Z</time>
      </trkpt>
      <trkpt lat="42.5128170" lon="-6.5523470">
        <ele>629.9</ele>
        <time>2014-10-01T06:19:05Z</time>
      </trkpt>
      <trkpt lat="42.5128660" lon="-6.5523270">
        <ele>630.6</ele>
        <time>2014-10-01T06:19:07Z</time>
      </trkpt>
      <trkpt lat="42.5129160" lon="-6.5523020">
        <ele>631.3</ele>
        <time>2014-10-01T06:19:09Z</time>
      </trkpt>
      <trkpt lat="42.5129630" lon="-6.5522800">
        <ele>631.9</ele>
        <time>2014-10-01T06:19:11Z</time>
      </trkpt>
      <trkpt lat="42.5130100" lon="-6.5522580">
        <ele>632.5</ele>
        <time>2014-10-01T06:19:13Z</time>
      </trkpt>
      <trkpt lat="42.5130560" lon="-6.5522290">
        <ele>633.2</ele>
        <time>2014-10-01T06:19:15Z</time>
      </trkpt>
      <trkpt lat="42.5130800" lon="-6.5522120">
        <ele>633.5</ele>
        <time>2014-10-01T06:19:16Z</time>
      </trkpt>
      <trkpt lat="42.5131280" lon="-6.5521780">
        <ele>634.2</ele>
        <time>2014-10-01T06:19:18Z</time>
      </trkpt>
      <trkpt lat="42.5131740" lon="-6.5521410">
        <ele>634.8</ele>
        <time>2014-10-01T06:19:20Z</time>
      </trkpt>
      <trkpt lat="42.5131980" lon="-6.5521210">
        <ele>635.1</ele>
        <time>2014-10-01T06:19:21Z</time>
      </trkpt>
      <trkpt lat="42.5132420" lon="-6.5520820">
        <ele>635.7</ele>
        <time>2014-10-01T06:19:23Z</time>
      </trkpt>
      <trkpt lat="42.5132650" lon="-6.5520600">
        <ele>636.0</ele>
        <time>2014-10-01T06:19:24Z</time>
      </trkpt>
      <trkpt lat="42.5133040" lon="-6.5520230">
        <ele>636.5</ele>
        <time>2014-10-01T06:19:26Z</time>
      </trkpt>
      <trkpt lat="42.5133450" lon="-6.5519910">
        <ele>637.0</ele>
        <time>2014-10-01T06:19:28Z</time>
      </trkpt>
      <trkpt lat="42.5133700" lon="-6.5519740">
        <ele>637.3</ele>
        <time>2014-10-01T06:19:29Z</time>
      </trkpt>
      <trkpt lat="42.5133940" lon="-6.5519570">
        <ele>637.6</ele>
        <time>2014-10-01T06:19:30Z</time>
      </trkpt>
      <trkpt lat="42.5134220" lon="-6.5519400">
        <ele>637.9</ele>
        <time>2014-10-01T06:19:31Z</time>
      </trkpt>
      <trkpt lat="42.5134490" lon="-6.5519250">
        <ele>638.2</ele>
        <time>2014-10-01T06:19:32Z</time>
      </trkpt>
      <trkpt lat="42.5134910" lon="-6.5519030">
        <ele>638.6</ele>
        <time>2014-10-01T06:19:34Z</time>
      </trkpt>
      <trkpt lat="42.5135350" lon="-6.5518770">
        <ele>639.1</ele>
        <time>2014-10-01T06:19:36Z</time>
      </trkpt>
      <trkpt lat="42.5135720" lon="-6.5518570">
        <ele>639.5</ele>
        <time>2014-10-01T06:19:38Z</time>
      </trkpt>
      <trkpt lat="42.5136150" lon="-6.5518270">
        <ele>640.0</ele>
        <time>2014-10-01T06:19:40Z</time>
      </trkpt>
      <trkpt lat="42.5136400" lon="-6.5518100">
        <ele>640.3</ele>
        <time>2014-10-01T06:19:41Z</time>
      </trkpt>
      <trkpt lat="42.5136670" lon="-6.5517930">
        <ele>640.6</ele>
        <time>2014-10-01T06:19:42Z</time>
      </trkpt>
      <trkpt lat="42.5136910" lon="-6.5517770">
        <ele>640.8</ele>
        <time>2014-10-01T06:19:43Z</time>
      </trkpt>
      <trkpt lat="42.5137160" lon="-6.5517600">
        <ele>641.1</ele>
        <time>2014-10-01T06:19:44Z</time>
      </trkpt>
      <trkpt lat="42.5137410" lon="-6.5517440">
        <ele>641.4</ele>
        <time>2014-10-01T06:19:45Z</time>
      </trkpt>
      <trkpt lat="42.5137890" lon="-6.5517180">
        <ele>641.9</ele>
        <time>2014-10-01T06:19:47Z</time>
      </trkpt>
      <trkpt lat="42.5138340" lon="-6.5516930">
        <ele>642.3</ele>
        <time>2014-10-01T06:19:49Z</time>
      </trkpt>
      <trkpt lat="42.5138770" lon="-6.5516610">
        <ele>642.8</ele>
        <time>2014-10-01T06:19:51Z</time>
      </trkpt>
      <trkpt lat="42.5139110" lon="-6.5516180">
        <ele>643.1</ele>
        <time>2014-10-01T06:19:53Z</time>
      </trkpt>
      <trkpt lat="42.5139470" lon="-6.5515650">
        <ele>643.5</ele>
        <time>2014-10-01T06:19:55Z</time>
      </trkpt>
      <trkpt lat="42.5139690" lon="-6.5514960">
        <ele>643.7</ele>
        <time>2014-10-01T06:19:57Z</time>
      </trkpt>
      <trkpt lat="42.5139770" lon="-6.5514550">
        <ele>643.8</ele>
        <time>2014-10-01T06:19:58Z</time>
      </trkpt>
      <trkpt lat="42.5139780" lon="-6.5514020">
        <ele>643.9</ele>
        <time>2014-10-01T06:19:59Z</time>
      </trkpt>
      <trkpt lat="42.5139680" lon="-6.5513390">
        <ele>644.2</ele>
        <time>2014-10-01T06:20:00Z</time>
      </trkpt>
      <trkpt lat="42.5139580" lon="-6.5512820">
        <ele>644.6</ele>
        <time>2014-10-01T06:20:01Z</time>
      </trkpt>
      <trkpt lat="42.5139360" lon="-6.5512310">
        <ele>645.1</ele>
        <time>2014-10-01T06:20:02Z</time>
      </trkpt>
      <trkpt lat="42.5139160" lon="-6.5511860">
        <ele>645.4</ele>
        <time>2014-10-01T06:20:03Z</time>
      </trkpt>
      <trkpt lat="42.5139000" lon="-6.5511480">
        <ele>645.7</ele>
        <time>2014-10-01T06:20:04Z</time>
      </trkpt>
      <trkpt lat="42.5138920" lon="-6.5511060">
        <ele>646.0</ele>
        <time>2014-10-01T06:20:05Z</time>
      </trkpt>
      <trkpt lat="42.5138820" lon="-6.5510620">
        <ele>646.3</ele>
        <time>2014-10-01T06:20:06Z</time>
      </trkpt>
      <trkpt lat="42.5138610" lon="-6.5510240">
        <ele>646.5</ele>
        <time>2014-10-01T06:20:07Z</time>
      </trkpt>
      <trkpt lat="42.5138400" lon="-6.5509830">
        <ele>646.8</ele>
        <time>2014-10-01T06:20:08Z</time>
      </trkpt>
      <trkpt lat="42.5138180" lon="-6.5509380">
        <ele>647.1</ele>
        <time>2014-10-01T06:20:09Z</time>
      </trkpt>
      <trkpt lat="42.5138000" lon="-6.5508970">
        <ele>647.4</ele>
        <time>2014-10-01T06:20:10Z</time>
      </trkpt>
      <trkpt lat="42.5137860" lon="-6.5508580">
        <ele>647.7</ele>
        <time>2014-10-01T06:20:11Z</time>
      </trkpt>
      <trkpt lat="42.5137720" lon="-6.5508190">
        <ele>647.9</ele>
        <time>2014-10-01T06:20:12Z</time>
      </trkpt>
      <trkpt lat="42.5137570" lon="-6.5507850">
        <ele>648.1</ele>
        <time>2014-10-01T06:20:13Z</time>
      </trkpt>
      <trkpt lat="42.5137410" lon="-6.5507490">
        <ele>648.4</ele>
        <time>2014-10-01T06:20:14Z</time>
      </trkpt>
      <trkpt lat="42.5137260" lon="-6.5507120">
        <ele>648.6</ele>
        <time>2014-10-01T06:20:15Z</time>
      </trkpt>
      <trkpt lat="42.5137090" lon="-6.5506710">
        <ele>648.9</ele>
        <time>2014-10-01T06:20:16Z</time>
      </trkpt>
      <trkpt lat="42.5136930" lon="-6.5506360">
        <ele>649.1</ele>
        <time>2014-10-01T06:20:17Z</time>
      </trkpt>
      <trkpt lat="42.5136780" lon="-6.5506020">
        <ele>649.3</ele>
        <time>2014-10-01T06:20:18Z</time>
      </trkpt>
      <trkpt lat="42.5136600" lon="-6.5505660">
        <ele>649.6</ele>
        <time>2014-10-01T06:20:19Z</time>
      </trkpt>
      <trkpt lat="42.5136260" lon="-6.5505030">
        <ele>650.1</ele>
        <time>2014-10-01T06:20:21Z</time>
      </trkpt>
      <trkpt lat="42.5135950" lon="-6.5504450">
        <ele>650.5</ele>
        <time>2014-10-01T06:20:23Z</time>
      </trkpt>
      <trkpt lat="42.5135780" lon="-6.5504110">
        <ele>650.8</ele>
        <time>2014-10-01T06:20:24Z</time>
      </trkpt>
      <trkpt lat="42.5135600" lon="-6.5503770">
        <ele>651.1</ele>
        <time>2014-10-01T06:20:25Z</time>
      </trkpt>
      <trkpt lat="42.5135430" lon="-6.5503470">
        <ele>651.3</ele>
        <time>2014-10-01T06:20:26Z</time>
      </trkpt>
      <trkpt lat="42.5135260" lon="-6.5503170">
        <ele>651.6</ele>
        <time>2014-10-01T06:20:27Z</time>
      </trkpt>
      <trkpt lat="42.5135080" lon="-6.5502850">
        <ele>651.9</ele>
        <time>2014-10-01T06:20:28Z</time>
      </trkpt>
      <trkpt lat="42.5134870" lon="-6.5502510">
        <ele>652.2</ele>
        <time>2014-10-01T06:20:29Z</time>
      </trkpt>
      <trkpt lat="42.5134690" lon="-6.5502190">
        <ele>652.4</ele>
        <time>2014-10-01T06:20:30Z</time>
      </trkpt>
      <trkpt lat="42.5134470" lon="-6.5501850">
        <ele>652.7</ele>
        <time>2014-10-01T06:20:31Z</time>
      </trkpt>
      <trkpt lat="42.5134260" lon="-6.5501500">
        <ele>653.0</ele>
        <time>2014-10-01T06:20:32Z</time>
      </trkpt>
      <trkpt lat="42.5134080" lon="-6.5501190">
        <ele>653.3</ele>
        <time>2014-10-01T06:20:33Z</time>
      </trkpt>
      <trkpt lat="42.5133760" lon="-6.5500600">
        <ele>653.8</ele>
        <time>2014-10-01T06:20:35Z</time>
      </trkpt>
      <trkpt lat="42.5133580" lon="-6.5500310">
        <ele>654.1</ele>
        <time>2014-10-01T06:20:36Z</time>
      </trkpt>
      <trkpt lat="42.5133410" lon="-6.5500000">
        <ele>654.3</ele>
        <time>2014-10-01T06:20:37Z</time>
      </trkpt>
      <trkpt lat="42.5133240" lon="-6.5499700">
        <ele>654.5</ele>
        <time>2014-10-01T06:20:38Z</time>
      </trkpt>
      <trkpt lat="42.5133050" lon="-6.5499350">
        <ele>654.8</ele>
        <time>2014-10-01T06:20:39Z</time>
      </trkpt>
      <trkpt lat="42.5132860" lon="-6.5498980">
        <ele>655.0</ele>
        <time>2014-10-01T06:20:40Z</time>
      </trkpt>
      <trkpt lat="42.5132690" lon="-6.5498660">
        <ele>655.3</ele>
        <time>2014-10-01T06:20:41Z</time>
      </trkpt>
      <trkpt lat="42.5132530" lon="-6.5498270">
        <ele>655.5</ele>
        <time>2014-10-01T06:20:42Z</time>
      </trkpt>
      <trkpt lat="42.5132360" lon="-6.5497860">
        <ele>655.8</ele>
        <time>2014-10-01T06:20:43Z</time>
      </trkpt>
      <trkpt lat="42.5132240" lon="-6.5497490">
        <ele>656.0</ele>
        <time>2014-10-01T06:20:44Z</time>
      </trkpt>
      <trkpt lat="42.5132110" lon="-6.5497090">
        <ele>656.3</ele>
        <time>2014-10-01T06:20:45Z</time>
      </trkpt>
      <trkpt lat="42.5131980" lon="-6.5496670">
        <ele>656.6</ele>
        <time>2014-10-01T06:20:46Z</time>
      </trkpt>
      <trkpt lat="42.5131810" lon="-6.5496240">
        <ele>656.9</ele>
        <time>2014-10-01T06:20:47Z</time>
      </trkpt>
      <trkpt lat="42.5131660" lon="-6.5495860">
        <ele>657.2</ele>
        <time>2014-10-01T06:20:48Z</time>
      </trkpt>
      <trkpt lat="42.5131560" lon="-6.5495510">
        <ele>657.4</ele>
        <time>2014-10-01T06:20:49Z</time>
      </trkpt>
      <trkpt lat="42.5131440" lon="-6.5495160">
        <ele>657.7</ele>
        <time>2014-10-01T06:20:50Z</time>
      </trkpt>
      <trkpt lat="42.5131300" lon="-6.5494750">
        <ele>657.9</ele>
        <time>2014-10-01T06:20:51Z</time>
      </trkpt>
      <trkpt lat="42.5131170" lon="-6.5494350">
        <ele>658.2</ele>
        <time>2014-10-01T06:20:52Z</time>
      </trkpt>
      <trkpt lat="42.5131060" lon="-6.5493970">
        <ele>658.4</ele>
        <time>2014-10-01T06:20:53Z</time>
      </trkpt>
      <trkpt lat="42.5130930" lon="-6.5493580">
        <ele>658.7</ele>
        <time>2014-10-01T06:20:54Z</time>
      </trkpt>
      <trkpt lat="42.5130810" lon="-6.5493230">
        <ele>658.9</ele>
        <time>2014-10-01T06:20:55Z</time>
      </trkpt>
      <trkpt lat="42.5130580" lon="-6.5492570">
        <ele>659.3</ele>
        <time>2014-10-01T06:20:57Z</time>
      </trkpt>
      <trkpt lat="42.5130430" lon="-6.5492230">
        <ele>659.6</ele>
        <time>2014-10-01T06:20:58Z</time>
      </trkpt>
      <trkpt lat="42.5130110" lon="-6.5491610">
        <ele>660.0</ele>
        <time>2014-10-01T06:21:00Z</time>
      </trkpt>
      <trkpt lat="42.5129900" lon="-6.5491250">
        <ele>660.3</ele>
        <time>2014-10-01T06:21:01Z</time>
      </trkpt>
      <trkpt lat="42.5129710" lon="-6.5490920">
        <ele>660.5</ele>
        <time>2014-10-01T06:21:02Z</time>
      </trkpt>
      <trkpt lat="42.5129490" lon="-6.5490620">
        <ele>660.8</ele>
        <time>2014-10-01T06:21:03Z</time>
      </trkpt>
      <trkpt lat="42.5129250" lon="-6.5490300">
        <ele>661.0</ele>
        <time>2014-10-01T06:21:04Z</time>
      </trkpt>
      <trkpt lat="42.5128860" lon="-6.5489770">
        <ele>661.5</ele>
        <time>2014-10-01T06:21:06Z</time>
      </trkpt>
      <trkpt lat="42.5128660" lon="-6.5489490">
        <ele>661.7</ele>
        <time>2014-10-01T06:21:07Z</time>
      </trkpt>
      <trkpt lat="42.5128450" lon="-6.5489160">
        <ele>662.0</ele>
        <time>2014-10-01T06:21:08Z</time>
      </trkpt>
      <trkpt lat="42.5128280" lon="-6.5488880">
        <ele>662.2</ele>
        <time>2014-10-01T06:21:09Z</time>
      </trkpt>
      <trkpt lat="42.5128150" lon="-6.5488530">
        <ele>662.4</ele>
        <time>2014-10-01T06:21:10Z</time>
      </trkpt>
      <trkpt lat="42.5127960" lon="-6.5488120">
        <ele>662.7</ele>
        <time>2014-10-01T06:21:11Z</time>
      </trkpt>
      <trkpt lat="42.5127780" lon="-6.5487800">
        <ele>662.9</ele>
        <time>2014-10-01T06:21:12Z</time>
      </trkpt>
      <trkpt lat="42.5127550" lon="-6.5487440">
        <ele>663.2</ele>
        <time>2014-10-01T06:21:13Z</time>
      </trkpt>
      <trkpt lat="42.5127340" lon="-6.5487120">
        <ele>663.4</ele>
        <time>2014-10-01T06:21:14Z</time>
      </trkpt>
      <trkpt lat="42.5127120" lon="-6.5486800">
        <ele>663.7</ele>
        <time>2014-10-01T06:21:15Z</time>
      </trkpt>
      <trkpt lat="42.5126890" lon="-6.5486440">
        <ele>663.9</ele>
        <time>2014-10-01T06:21:16Z</time>
      </trkpt>
      <trkpt lat="42.5126710" lon="-6.5486150">
        <ele>664.2</ele>
        <time>2014-10-01T06:21:17Z</time>
      </trkpt>
      <trkpt lat="42.5126360" lon="-6.5485590">
        <ele>664.6</ele>
        <time>2014-10-01T06:21:19Z</time>
      </trkpt>
      <trkpt lat="42.5126150" lon="-6.5485250">
        <ele>664.9</ele>
        <time>2014-10-01T06:21:20Z</time>
      </trkpt>
      <trkpt lat="42.5125770" lon="-6.5484640">
        <ele>665.3</ele>
        <time>2014-10-01T06:21:22Z</time>
      </trkpt>
      <trkpt lat="42.5125560" lon="-6.5484330">
        <ele>665.6</ele>
        <time>2014-10-01T06:21:23Z</time>
      </trkpt>
      <trkpt lat="42.5125340" lon="-6.5484010">
        <ele>665.8</ele>
        <time>2014-10-01T06:21:24Z</time>
      </trkpt>
      <trkpt lat="42.5125120" lon="-6.5483680">
        <ele>666.1</ele>
        <time>2014-10-01T06:21:25Z</time>
      </trkpt>
      <trkpt lat="42.5124940" lon="-6.5483380">
        <ele>666.3</ele>
        <time>2014-10-01T06:21:26Z</time>
      </trkpt>
      <trkpt lat="42.5124750" lon="-6.5483040">
        <ele>666.6</ele>
        <time>2014-10-01T06:21:27Z</time>
      </trkpt>
      <trkpt lat="42.5124550" lon="-6.5482580">
        <ele>666.9</ele>
        <time>2014-10-01T06:21:28Z</time>
      </trkpt>
      <trkpt lat="42.5124390" lon="-6.5482210">
        <ele>667.2</ele>
        <time>2014-10-01T06:21:29Z</time>
      </trkpt>
      <trkpt lat="42.5124240" lon="-6.5481860">
        <ele>667.4</ele>
        <time>2014-10-01T06:21:30Z</time>
      </trkpt>
      <trkpt lat="42.5124120" lon="-6.5481480">
        <ele>667.6</ele>
        <time>2014-10-01T06:21:31Z</time>
      </trkpt>
      <trkpt lat="42.5123960" lon="-6.5481070">
        <ele>667.9</ele>
        <time>2014-10-01T06:21:32Z</time>
      </trkpt>
      <trkpt lat="42.5123830" lon="-6.5480720">
        <ele>668.1</ele>
        <time>2014-10-01T06:21:33Z</time>
      </trkpt>
      <trkpt lat="42.5123680" lon="-6.5480350">
        <ele>668.4</ele>
        <time>2014-10-01T06:21:34Z</time>
      </trkpt>
      <trkpt lat="42.5123550" lon="-6.5479970">
        <ele>668.6</ele>
        <time>2014-10-01T06:21:35Z</time>
      </trkpt>
      <trkpt lat="42.5123390" lon="-6.5479640">
        <ele>668.8</ele>
        <time>2014-10-01T06:21:36Z</time>
      </trkpt>
      <trkpt lat="42.5123220" lon="-6.5479310">
        <ele>669.0</ele>
        <time>2014-10-01T06:21:37Z</time>
      </trkpt>
      <trkpt lat="42.5123060" lon="-6.5478940">
        <ele>669.2</ele>
        <time>2014-10-01T06:21:38Z</time>
      </trkpt>
      <trkpt lat="42.5122910" lon="-6.5478550">
        <ele>669.5</ele>
        <time>2014-10-01T06:21:39Z</time>
      </trkpt>
      <trkpt lat="42.5122760" lon="-6.5478150">
        <ele>669.7</ele>
        <time>2014-10-01T06:21:40Z</time>
      </trkpt>
      <trkpt lat="42.5122580" lon="-6.5477770">
        <ele>669.9</ele>
        <time>2014-10-01T06:21:41Z</time>
      </trkpt>
      <trkpt lat="42.5122430" lon="-6.5477430">
        <ele>670.1</ele>
        <time>2014-10-01T06:21:42Z</time>
      </trkpt>
      <trkpt lat="42.5122250" lon="-6.5477110">
        <ele>670.3</ele>
        <time>2014-10-01T06:21:43Z</time>
      </trkpt>
      <trkpt lat="42.5122070" lon="-6.5476780">
        <ele>670.5</ele>
        <time>2014-10-01T06:21:44Z</time>
      </trkpt>
      <trkpt lat="42.5121820" lon="-6.5476440">
        <ele>670.7</ele>
        <time>2014-10-01T06:21:45Z</time>
      </trkpt>
      <trkpt lat="42.5121560" lon="-6.5476150">
        <ele>671.0</ele>
        <time>2014-10-01T06:21:46Z</time>
      </trkpt>
      <trkpt lat="42.5121250" lon="-6.5475870">
        <ele>671.3</ele>
        <time>2014-10-01T06:21:47Z</time>
      </trkpt>
      <trkpt lat="42.5120910" lon="-6.5475590">
        <ele>671.7</ele>
        <time>2014-10-01T06:21:48Z</time>
      </trkpt>
      <trkpt lat="42.5120580" lon="-6.5475360">
        <ele>672.0</ele>
        <time>2014-10-01T06:21:49Z</time>
      </trkpt>
      <trkpt lat="42.5120240" lon="-6.5475120">
        <ele>672.3</ele>
        <time>2014-10-01T06:21:50Z</time>
      </trkpt>
      <trkpt lat="42.5119910" lon="-6.5474910">
        <ele>672.5</ele>
        <time>2014-10-01T06:21:51Z</time>
      </trkpt>
      <trkpt lat="42.5119590" lon="-6.5474730">
        <ele>672.8</ele>
        <time>2014-10-01T06:21:52Z</time>
      </trkpt>
      <trkpt lat="42.5119260" lon="-6.5474530">
        <ele>673.1</ele>
        <time>2014-10-01T06:21:53Z</time>
      </trkpt>
      <trkpt lat="42.5118890" lon="-6.5474360">
        <ele>673.4</ele>
        <time>2014-10-01T06:21:54Z</time>
      </trkpt>
      <trkpt lat="42.5118550" lon="-6.5474160">
        <ele>673.7</ele>
        <time>2014-10-01T06:21:55Z</time>
      </trkpt>
      <trkpt lat="42.5118230" lon="-6.5474000">
        <ele>673.9</ele>
        <time>2014-10-01T06:21:56Z</time>
      </trkpt>
      <trkpt lat="42.5117910" lon="-6.5473860">
        <ele>674.2</ele>
        <time>2014-10-01T06:21:57Z</time>
      </trkpt>
      <trkpt lat="42.5117580" lon="-6.5473750">
        <ele>674.5</ele>
        <time>2014-10-01T06:21:58Z</time>
      </trkpt>
      <trkpt lat="42.5117230" lon="-6.5473620">
        <ele>674.8</ele>
        <time>2014-10-01T06:21:59Z</time>
      </trkpt>
      <trkpt lat="42.5116930" lon="-6.5473530">
        <ele>675.0</ele>
        <time>2014-10-01T06:22:00Z</time>
      </trkpt>
      <trkpt lat="42.5116620" lon="-6.5473430">
        <ele>675.3</ele>
        <time>2014-10-01T06:22:01Z</time>
      </trkpt>
      <trkpt lat="42.5116320" lon="-6.5473330">
        <ele>675.6</ele>
        <time>2014-10-01T06:22:02Z</time>
      </trkpt>
      <trkpt lat="42.5116040" lon="-6.5473210">
        <ele>675.9</ele>
        <time>2014-10-01T06:22:03Z</time>
      </trkpt>
      <trkpt lat="42.5115740" lon="-6.5473070">
        <ele>676.2</ele>
        <time>2014-10-01T06:22:04Z</time>
      </trkpt>
      <trkpt lat="42.5115210" lon="-6.5472900">
        <ele>676.8</ele>
        <time>2014-10-01T06:22:06Z</time>
      </trkpt>
      <trkpt lat="42.5114910" lon="-6.5472830">
        <ele>677.2</ele>
        <time>2014-10-01T06:22:07Z</time>
      </trkpt>
      <trkpt lat="42.5114610" lon="-6.5472730">
        <ele>677.5</ele>
        <time>2014-10-01T06:22:08Z</time>
      </trkpt>
      <trkpt lat="42.5114320" lon="-6.5472620">
        <ele>677.9</ele>
        <time>2014-10-01T06:22:09Z</time>
      </trkpt>
      <trkpt lat="42.5114050" lon="-6.5472530">
        <ele>678.3</ele>
        <time>2014-10-01T06:22:10Z</time>
      </trkpt>
      <trkpt lat="42.5113720" lon="-6.5472390">
        <ele>678.7</ele>
        <time>2014-10-01T06:22:11Z</time>
      </trkpt>
      <trkpt lat="42.5113440" lon="-6.5472260">
        <ele>679.1</ele>
        <time>2014-10-01T06:22:12Z</time>
      </trkpt>
      <trkpt lat="42.5113010" lon="-6.5472080">
        <ele>679.8</ele>
        <time>2014-10-01T06:22:14Z</time>
      </trkpt>
      <trkpt lat="42.5112480" lon="-6.5471810">
        <ele>680.6</ele>
        <time>2014-10-01T06:22:16Z</time>
      </trkpt>
      <trkpt lat="42.5112000" lon="-6.5471530">
        <ele>681.4</ele>
        <time>2014-10-01T06:22:18Z</time>
      </trkpt>
      <trkpt lat="42.5111590" lon="-6.5471210">
        <ele>682.1</ele>
        <time>2014-10-01T06:22:20Z</time>
      </trkpt>
      <trkpt lat="42.5111280" lon="-6.5470830">
        <ele>682.8</ele>
        <time>2014-10-01T06:22:22Z</time>
      </trkpt>
      <trkpt lat="42.5110960" lon="-6.5470470">
        <ele>683.4</ele>
        <time>2014-10-01T06:22:24Z</time>
      </trkpt>
      <trkpt lat="42.5110600" lon="-6.5470070">
        <ele>684.1</ele>
        <time>2014-10-01T06:22:26Z</time>
      </trkpt>
      <trkpt lat="42.5110310" lon="-6.5469680">
        <ele>684.8</ele>
        <time>2014-10-01T06:22:28Z</time>
      </trkpt>
      <trkpt lat="42.5110010" lon="-6.5469240">
        <ele>685.5</ele>
        <time>2014-10-01T06:22:30Z</time>
      </trkpt>
      <trkpt lat="42.5109720" lon="-6.5468830">
        <ele>686.2</ele>
        <time>2014-10-01T06:22:32Z</time>
      </trkpt>
      <trkpt lat="42.5109400" lon="-6.5468350">
        <ele>687.0</ele>
        <time>2014-10-01T06:22:34Z</time>
      </trkpt>
      <trkpt lat="42.5109130" lon="-6.5467900">
        <ele>687.7</ele>
        <time>2014-10-01T06:22:36Z</time>
      </trkpt>
      <trkpt lat="42.5108880" lon="-6.5467420">
        <ele>688.5</ele>
        <time>2014-10-01T06:22:38Z</time>
      </trkpt>
      <trkpt lat="42.5108610" lon="-6.5467050">
        <ele>689.2</ele>
        <time>2014-10-01T06:22:40Z</time>
      </trkpt>
      <trkpt lat="42.5108290" lon="-6.5466750">
        <ele>690.0</ele>
        <time>2014-10-01T06:22:42Z</time>
      </trkpt>
      <trkpt lat="42.5108010" lon="-6.5466420">
        <ele>690.7</ele>
        <time>2014-10-01T06:22:44Z</time>
      </trkpt>
      <trkpt lat="42.5107690" lon="-6.5466140">
        <ele>691.5</ele>
        <time>2014-10-01T06:22:46Z</time>
      </trkpt>
      <trkpt lat="42.5107390" lon="-6.5465880">
        <ele>692.1</ele>
        <time>2014-10-01T06:22:48Z</time>
      </trkpt>
      <trkpt lat="42.5107060" lon="-6.5465610">
        <ele>692.9</ele>
        <time>2014-10-01T06:22:50Z</time>
      </trkpt>
      <trkpt lat="42.5106710" lon="-6.5465380">
        <ele>693.7</ele>
        <time>2014-10-01T06:22:52Z</time>
      </trkpt>
      <trkpt lat="42.5106380" lon="-6.5465190">
        <ele>694.4</ele>
        <time>2014-10-01T06:22:54Z</time>
      </trkpt>
      <trkpt lat="42.5106040" lon="-6.5465060">
        <ele>695.2</ele>
        <time>2014-10-01T06:22:56Z</time>
      </trkpt>
      <trkpt lat="42.5105770" lon="-6.5465000">
        <ele>695.5</ele>
        <time>2014-10-01T06:22:58Z</time>
      </trkpt>
      <trkpt lat="42.5105410" lon="-6.5464950">
        <ele>696.0</ele>
        <time>2014-10-01T06:23:01Z</time>
      </trkpt>
      <trkpt lat="42.5105120" lon="-6.5464890">
        <ele>696.3</ele>
        <time>2014-10-01T06:23:03Z</time>
      </trkpt>
      <trkpt lat="42.5104710" lon="-6.5464830">
        <ele>696.9</ele>
        <time>2014-10-01T06:23:05Z</time>
      </trkpt>
      <trkpt lat="42.5104260" lon="-6.5464760">
        <ele>697.4</ele>
        <time>2014-10-01T06:23:07Z</time>
      </trkpt>
      <trkpt lat="42.5103870" lon="-6.5464690">
        <ele>698.0</ele>
        <time>2014-10-01T06:23:09Z</time>
      </trkpt>
      <trkpt lat="42.5103540" lon="-6.5464630">
        <ele>698.4</ele>
        <time>2014-10-01T06:23:11Z</time>
      </trkpt>
      <trkpt lat="42.5103130" lon="-6.5464570">
        <ele>699.0</ele>
        <time>2014-10-01T06:23:13Z</time>
      </trkpt>
      <trkpt lat="42.5102750" lon="-6.5464540">
        <ele>699.5</ele>
        <time>2014-10-01T06:23:15Z</time>
      </trkpt>
      <trkpt lat="42.5102370" lon="-6.5464470">
        <ele>700.0</ele>
        <time>2014-10-01T06:23:17Z</time>
      </trkpt>
      <trkpt lat="42.5101980" lon="-6.5464420">
        <ele>700.5</ele>
        <time>2014-10-01T06:23:19Z</time>
      </trkpt>
      <trkpt lat="42.5101650" lon="-6.5464390">
        <ele>700.9</ele>
        <time>2014-10-01T06:23:21Z</time>
      </trkpt>
      <trkpt lat="42.5101270" lon="-6.5464290">
        <ele>701.4</ele>
        <time>2014-10-01T06:23:23Z</time>
      </trkpt>
      <trkpt lat="42.5100920" lon="-6.5464180">
        <ele>701.9</ele>
        <time>2014-10-01T06:23:25Z</time>
      </trkpt>
      <trkpt lat="42.5100510" lon="-6.5464060">
        <ele>702.4</ele>
        <time>2014-10-01T06:23:27Z</time>
      </trkpt>
      <trkpt lat="42.5100080" lon="-6.5463910">
        <ele>703.0</ele>
        <time>2014-10-01T06:23:29Z</time>
      </trkpt>
      <trkpt lat="42.5099640" lon="-6.5463730">
        <ele>703.5</ele>
        <time>2014-10-01T06:23:31Z</time>
      </trkpt>
      <trkpt lat="42.5099250" lon="-6.5463560">
        <ele>704.0</ele>
        <time>2014-10-01T06:23:33Z</time>
      </trkpt>
      <trkpt lat="42.5098860" lon="-6.5463390">
        <ele>704.5</ele>
        <time>2014-10-01T06:23:35Z</time>
      </trkpt>
      <trkpt lat="42.5098420" lon="-6.5463140">
        <ele>705.1</ele>
        <time>2014-10-01T06:23:37Z</time>
      </trkpt>
      <trkpt lat="42.5098000" lon="-6.5462880">
        <ele>705.6</ele>
        <time>2014-10-01T06:23:39Z</time>
      </trkpt>
      <trkpt lat="42.5097610" lon="-6.5462670">
        <ele>706.2</ele>
        <time>2014-10-01T06:23:41Z</time>
      </trkpt>
      <trkpt lat="42.5097170" lon="-6.5462390">
        <ele>706.7</ele>
        <time>2014-10-01T06:23:43Z</time>
      </trkpt>
      <trkpt lat="42.5096730" lon="-6.5462160">
        <ele>707.3</ele>
        <time>2014-10-01T06:23:45Z</time>
      </trkpt>
      <trkpt lat="42.5096320" lon="-6.5461990">
        <ele>707.8</ele>
        <time>2014-10-01T06:23:47Z</time>
      </trkpt>
      <trkpt lat="42.5095910" lon="-6.5461800">
        <ele>708.3</ele>
        <time>2014-10-01T06:23:49Z</time>
      </trkpt>
      <trkpt lat="42.5095520" lon="-6.5461640">
        <ele>708.8</ele>
        <time>2014-10-01T06:23:51Z</time>
      </trkpt>
      <trkpt lat="42.5095120" lon="-6.5461500">
        <ele>709.4</ele>
        <time>2014-10-01T06:23:53Z</time>
      </trkpt>
      <trkpt lat="42.5094700" lon="-6.5461330">
        <ele>710.0</ele>
        <time>2014-10-01T06:23:55Z</time>
      </trkpt>
      <trkpt lat="42.5094220" lon="-6.5461210">
        <ele>710.7</ele>
        <time>2014-10-01T06:23:57Z</time>
      </trkpt>
      <trkpt lat="42.5093750" lon="-6.5461050">
        <ele>711.4</ele>
        <time>2014-10-01T06:23:59Z</time>
      </trkpt>
      <trkpt lat="42.5093340" lon="-6.5460880">
        <ele>712.0</ele>
        <time>2014-10-01T06:24:01Z</time>
      </trkpt>
      <trkpt lat="42.5092940" lon="-6.5460760">
        <ele>712.6</ele>
        <time>2014-10-01T06:24:03Z</time>
      </trkpt>
      <trkpt lat="42.5092530" lon="-6.5460700">
        <ele>713.3</ele>
        <time>2014-10-01T06:24:05Z</time>
      </trkpt>
      <trkpt lat="42.5092100" lon="-6.5460620">
        <ele>713.9</ele>
        <time>2014-10-01T06:24:07Z</time>
      </trkpt>
      <trkpt lat="42.5091700" lon="-6.5460570">
        <ele>714.5</ele>
        <time>2014-10-01T06:24:09Z</time>
      </trkpt>
      <trkpt lat="42.5091260" lon="-6.5460430">
        <ele>715.2</ele>
        <time>2014-10-01T06:24:11Z</time>
      </trkpt>
      <trkpt lat="42.5090880" lon="-6.5460350">
        <ele>715.8</ele>
        <time>2014-10-01T06:24:13Z</time>
      </trkpt>
      <trkpt lat="42.5090470" lon="-6.5460190">
        <ele>716.4</ele>
        <time>2014-10-01T06:24:15Z</time>
      </trkpt>
      <trkpt lat="42.5090210" lon="-6.5460050">
        <ele>716.8</ele>
        <time>2014-10-01T06:24:16Z</time>
      </trkpt>
      <trkpt lat="42.5089800" lon="-6.5459840">
        <ele>717.5</ele>
        <time>2014-10-01T06:24:18Z</time>
      </trkpt>
      <trkpt lat="42.5089500" lon="-6.5459630">
        <ele>718.0</ele>
        <time>2014-10-01T06:24:20Z</time>
      </trkpt>
      <trkpt lat="42.5089230" lon="-6.5459450">
        <ele>718.4</ele>
        <time>2014-10-01T06:24:22Z</time>
      </trkpt>
      <trkpt lat="42.5088960" lon="-6.5459250">
        <ele>718.8</ele>
        <time>2014-10-01T06:24:24Z</time>
      </trkpt>
      <trkpt lat="42.5088650" lon="-6.5458940">
        <ele>719.3</ele>
        <time>2014-10-01T06:24:26Z</time>
      </trkpt>
      <trkpt lat="42.5088300" lon="-6.5458570">
        <ele>719.8</ele>
        <time>2014-10-01T06:24:28Z</time>
      </trkpt>
      <trkpt lat="42.5087920" lon="-6.5458110">
        <ele>720.4</ele>
        <time>2014-10-01T06:24:30Z</time>
      </trkpt>
      <trkpt lat="42.5087610" lon="-6.5457650">
        <ele>720.9</ele>
        <time>2014-10-01T06:24:32Z</time>
      </trkpt>
      <trkpt lat="42.5087270" lon="-6.5457130">
        <ele>721.5</ele>
        <time>2014-10-01T06:24:34Z</time>
      </trkpt>
      <trkpt lat="42.5086890" lon="-6.5456640">
        <ele>722.0</ele>
        <time>2014-10-01T06:24:36Z</time>
      </trkpt>
      <trkpt lat="42.5086720" lon="-6.5456360">
        <ele>722.3</ele>
        <time>2014-10-01T06:24:37Z</time>
      </trkpt>
      <trkpt lat="42.5086550" lon="-6.5456070">
        <ele>722.6</ele>
        <time>2014-10-01T06:24:38Z</time>
      </trkpt>
      <trkpt lat="42.5086220" lon="-6.5455540">
        <ele>723.2</ele>
        <time>2014-10-01T06:24:40Z</time>
      </trkpt>
      <trkpt lat="42.5085900" lon="-6.5455050">
        <ele>723.7</ele>
        <time>2014-10-01T06:24:42Z</time>
      </trkpt>
      <trkpt lat="42.5085600" lon="-6.5454570">
        <ele>724.2</ele>
        <time>2014-10-01T06:24:44Z</time>
      </trkpt>
      <trkpt lat="42.5085330" lon="-6.5454170">
        <ele>724.7</ele>
        <time>2014-10-01T06:24:46Z</time>
      </trkpt>
      <trkpt lat="42.5085050" lon="-6.5453730">
        <ele>725.2</ele>
        <time>2014-10-01T06:24:48Z</time>
      </trkpt>
      <trkpt lat="42.5084760" lon="-6.5453310">
        <ele>725.7</ele>
        <time>2014-10-01T06:24:50Z</time>
      </trkpt>
      <trkpt lat="42.5084440" lon="-6.5452900">
        <ele>726.3</ele>
        <time>2014-10-01T06:24:52Z</time>
      </trkpt>
      <trkpt lat="42.5084080" lon="-6.5452500">
        <ele>726.9</ele>
        <time>2014-10-01T06:24:54Z</time>
      </trkpt>
      <trkpt lat="42.5083760" lon="-6.5452050">
        <ele>727.5</ele>
        <time>2014-10-01T06:24:56Z</time>
      </trkpt>
      <trkpt lat="42.5083470" lon="-6.5451640">
        <ele>728.1</ele>
        <time>2014-10-01T06:24:58Z</time>
      </trkpt>
      <trkpt lat="42.5083220" lon="-6.5451270">
        <ele>728.6</ele>
        <time>2014-10-01T06:25:00Z</time>
      </trkpt>
      <trkpt lat="42.5082940" lon="-6.5450810">
        <ele>729.2</ele>
        <time>2014-10-01T06:25:02Z</time>
      </trkpt>
      <trkpt lat="42.5082630" lon="-6.5450360">
        <ele>729.8</ele>
        <time>2014-10-01T06:25:04Z</time>
      </trkpt>
      <trkpt lat="42.5082320" lon="-6.5449890">
        <ele>730.5</ele>
        <time>2014-10-01T06:25:06Z</time>
      </trkpt>
      <trkpt lat="42.5082020" lon="-6.5449440">
        <ele>731.1</ele>
        <time>2014-10-01T06:25:08Z</time>
      </trkpt>
      <trkpt lat="42.5081770" lon="-6.5448980">
        <ele>731.7</ele>
        <time>2014-10-01T06:25:10Z</time>
      </trkpt>
      <trkpt lat="42.5081520" lon="-6.5448490">
        <ele>732.3</ele>
        <time>2014-10-01T06:25:12Z</time>
      </trkpt>
      <trkpt lat="42.5081320" lon="-6.5447990">
        <ele>732.9</ele>
        <time>2014-10-01T06:25:14Z</time>
      </trkpt>
      <trkpt lat="42.5081110" lon="-6.5447470">
        <ele>733.4</ele>
        <time>2014-10-01T06:25:16Z</time>
      </trkpt>
      <trkpt lat="42.5080910" lon="-6.5446900">
        <ele>734.0</ele>
        <time>2014-10-01T06:25:18Z</time>
      </trkpt>
      <trkpt lat="42.5080760" lon="-6.5446340">
        <ele>734.6</ele>
        <time>2014-10-01T06:25:20Z</time>
      </trkpt>
      <trkpt lat="42.5080670" lon="-6.5445790">
        <ele>735.2</ele>
        <time>2014-10-01T06:25:22Z</time>
      </trkpt>
      <trkpt lat="42.5080510" lon="-6.5445260">
        <ele>735.8</ele>
        <time>2014-10-01T06:25:24Z</time>
      </trkpt>
      <trkpt lat="42.5080390" lon="-6.5444710">
        <ele>736.3</ele>
        <time>2014-10-01T06:25:26Z</time>
      </trkpt>
      <trkpt lat="42.5080230" lon="-6.5444180">
        <ele>737.0</ele>
        <time>2014-10-01T06:25:28Z</time>
      </trkpt>
      <trkpt lat="42.5080100" lon="-6.5443660">
        <ele>737.5</ele>
        <time>2014-10-01T06:25:30Z</time>
      </trkpt>
      <trkpt lat="42.5079980" lon="-6.5443130">
        <ele>738.1</ele>
        <time>2014-10-01T06:25:32Z</time>
      </trkpt>
      <trkpt lat="42.5079790" lon="-6.5442640">
        <ele>738.7</ele>
        <time>2014-10-01T06:25:34Z</time>
      </trkpt>
      <trkpt lat="42.5079550" lon="-6.5442180">
        <ele>739.3</ele>
        <time>2014-10-01T06:25:36Z</time>
      </trkpt>
      <trkpt lat="42.5079250" lon="-6.5441770">
        <ele>739.9</ele>
        <time>2014-10-01T06:25:38Z</time>
      </trkpt>
      <trkpt lat="42.5078890" lon="-6.5441420">
        <ele>740.5</ele>
        <time>2014-10-01T06:25:40Z</time>
      </trkpt>
      <trkpt lat="42.5078480" lon="-6.5441110">
        <ele>741.1</ele>
        <time>2014-10-01T06:25:42Z</time>
      </trkpt>
      <trkpt lat="42.5078010" lon="-6.5440850">
        <ele>741.8</ele>
        <time>2014-10-01T06:25:44Z</time>
      </trkpt>
      <trkpt lat="42.5077530" lon="-6.5440670">
        <ele>742.5</ele>
        <time>2014-10-01T06:25:46Z</time>
      </trkpt>
      <trkpt lat="42.5077070" lon="-6.5440720">
        <ele>743.1</ele>
        <time>2014-10-01T06:25:48Z</time>
      </trkpt>
      <trkpt lat="42.5076800" lon="-6.5440770">
        <ele>743.5</ele>
        <time>2014-10-01T06:25:49Z</time>
      </trkpt>
      <trkpt lat="42.5076320" lon="-6.5440890">
        <ele>744.2</ele>
        <time>2014-10-01T06:25:51Z</time>
      </trkpt>
      <trkpt lat="42.5075840" lon="-6.5441110">
        <ele>744.8</ele>
        <time>2014-10-01T06:25:53Z</time>
      </trkpt>
      <trkpt lat="42.5075400" lon="-6.5441320">
        <ele>745.4</ele>
        <time>2014-10-01T06:25:55Z</time>
      </trkpt>
      <trkpt lat="42.5074950" lon="-6.5441520">
        <ele>746.0</ele>
        <time>2014-10-01T06:25:57Z</time>
      </trkpt>
      <trkpt lat="42.5074490" lon="-6.5441640">
        <ele>746.6</ele>
        <time>2014-10-01T06:25:59Z</time>
      </trkpt>
      <trkpt lat="42.5074080" lon="-6.5441720">
        <ele>747.1</ele>
        <time>2014-10-01T06:26:01Z</time>
      </trkpt>
      <trkpt lat="42.5073640" lon="-6.5441750">
        <ele>747.6</ele>
        <time>2014-10-01T06:26:03Z</time>
      </trkpt>
      <trkpt lat="42.5073160" lon="-6.5441670">
        <ele>748.1</ele>
        <time>2014-10-01T06:26:05Z</time>
      </trkpt>
      <trkpt lat="42.5072710" lon="-6.5441550">
        <ele>748.6</ele>
        <time>2014-10-01T06:26:07Z</time>
      </trkpt>
      <trkpt lat="42.5072230" lon="-6.5441390">
        <ele>749.1</ele>
        <time>2014-10-01T06:26:09Z</time>
      </trkpt>
      <trkpt lat="42.5071760" lon="-6.5441280">
        <ele>749.6</ele>
        <time>2014-10-01T06:26:11Z</time>
      </trkpt>
      <trkpt lat="42.5071320" lon="-6.5441160">
        <ele>750.0</ele>
        <time>2014-10-01T06:26:13Z</time>
      </trkpt>
      <trkpt lat="42.5070880" lon="-6.5440990">
        <ele>750.5</ele>
        <time>2014-10-01T06:26:15Z</time>
      </trkpt>
      <trkpt lat="42.5070490" lon="-6.5440880">
        <ele>750.9</ele>
        <time>2014-10-01T06:26:17Z</time>
      </trkpt>
      <trkpt lat="42.5070060" lon="-6.5440770">
        <ele>751.3</ele>
        <time>2014-10-01T06:26:19Z</time>
      </trkpt>
      <trkpt lat="42.5069600" lon="-6.5440640">
        <ele>751.8</ele>
        <time>2014-10-01T06:26:21Z</time>
      </trkpt>
      <trkpt lat="42.5069140" lon="-6.5440500">
        <ele>752.2</ele>
        <time>2014-10-01T06:26:23Z</time>
      </trkpt>
      <trkpt lat="42.5068660" lon="-6.5440350">
        <ele>752.8</ele>
        <time>2014-10-01T06:26:25Z</time>
      </trkpt>
      <trkpt lat="42.5068180" lon="-6.5440190">
        <ele>753.3</ele>
        <time>2014-10-01T06:26:27Z</time>
      </trkpt>
      <trkpt lat="42.5067730" lon="-6.5440090">
        <ele>753.9</ele>
        <time>2014-10-01T06:26:29Z</time>
      </trkpt>
      <trkpt lat="42.5067300" lon="-6.5439970">
        <ele>754.4</ele>
        <time>2014-10-01T06:26:31Z</time>
      </trkpt>
      <trkpt lat="42.5066870" lon="-6.5439860">
        <ele>755.0</ele>
        <time>2014-10-01T06:26:33Z</time>
      </trkpt>
      <trkpt lat="42.5066490" lon="-6.5439770">
        <ele>755.6</ele>
        <time>2014-10-01T06:26:35Z</time>
      </trkpt>
      <trkpt lat="42.5066130" lon="-6.5439660">
        <ele>756.1</ele>
        <time>2014-10-01T06:26:37Z</time>
      </trkpt>
      <trkpt lat="42.5065680" lon="-6.5439510">
        <ele>756.8</ele>
        <time>2014-10-01T06:26:39Z</time>
      </trkpt>
      <trkpt lat="42.5065410" lon="-6.5439450">
        <ele>757.3</ele>
        <time>2014-10-01T06:26:40Z</time>
      </trkpt>
      <trkpt lat="42.5064930" lon="-6.5439310">
        <ele>758.1</ele>
        <time>2014-10-01T06:26:42Z</time>
      </trkpt>
      <trkpt lat="42.5064460" lon="-6.5439140">
        <ele>758.9</ele>
        <time>2014-10-01T06:26:44Z</time>
      </trkpt>
      <trkpt lat="42.5064000" lon="-6.5438940">
        <ele>759.8</ele>
        <time>2014-10-01T06:26:46Z</time>
      </trkpt>
      <trkpt lat="42.5063740" lon="-6.5438810">
        <ele>760.3</ele>
        <time>2014-10-01T06:26:47Z</time>
      </trkpt>
      <trkpt lat="42.5063290" lon="-6.5438560">
        <ele>761.1</ele>
        <time>2014-10-01T06:26:49Z</time>
      </trkpt>
      <trkpt lat="42.5062940" lon="-6.5438270">
        <ele>761.8</ele>
        <time>2014-10-01T06:26:51Z</time>
      </trkpt>
      <trkpt lat="42.5062550" lon="-6.5437900">
        <ele>762.6</ele>
        <time>2014-10-01T06:26:53Z</time>
      </trkpt>
      <trkpt lat="42.5062160" lon="-6.5437460">
        <ele>763.4</ele>
        <time>2014-10-01T06:26:55Z</time>
      </trkpt>
      <trkpt lat="42.5061830" lon="-6.5437030">
        <ele>764.1</ele>
        <time>2014-10-01T06:26:57Z</time>
      </trkpt>
      <trkpt lat="42.5061550" lon="-6.5436620">
        <ele>764.7</ele>
        <time>2014-10-01T06:26:59Z</time>
      </trkpt>
      <trkpt lat="42.5061270" lon="-6.5436130">
        <ele>765.3</ele>
        <time>2014-10-01T06:27:01Z</time>
      </trkpt>
      <trkpt lat="42.5060980" lon="-6.5435690">
        <ele>765.9</ele>
        <time>2014-10-01T06:27:03Z</time>
      </trkpt>
      <trkpt lat="42.5060680" lon="-6.5435300">
        <ele>766.4</ele>
        <time>2014-10-01T06:27:05Z</time>
      </trkpt>
      <trkpt lat="42.5060380" lon="-6.5434810">
        <ele>767.0</ele>
        <time>2014-10-01T06:27:07Z</time>
      </trkpt>
      <trkpt lat="42.5060110" lon="-6.5434330">
        <ele>767.6</ele>
        <time>2014-10-01T06:27:09Z</time>
      </trkpt>
      <trkpt lat="42.5059860" lon="-6.5433890">
        <ele>768.1</ele>
        <time>2014-10-01T06:27:11Z</time>
      </trkpt>
      <trkpt lat="42.5059580" lon="-6.5433400">
        <ele>768.7</ele>
        <time>2014-10-01T06:27:13Z</time>
      </trkpt>
      <trkpt lat="42.5059350" lon="-6.5432930">
        <ele>769.3</ele>
        <time>2014-10-01T06:27:15Z</time>
      </trkpt>
      <trkpt lat="42.5059110" lon="-6.5432470">
        <ele>769.9</ele>
        <time>2014-10-01T06:27:17Z</time>
      </trkpt>
      <trkpt lat="42.5058850" lon="-6.5431980">
        <ele>770.5</ele>
        <time>2014-10-01T06:27:19Z</time>
      </trkpt>
      <trkpt lat="42.5058590" lon="-6.5431540">
        <ele>771.1</ele>
        <time>2014-10-01T06:27:21Z</time>
      </trkpt>
      <trkpt lat="42.5058340" lon="-6.5431070">
        <ele>771.7</ele>
        <time>2014-10-01T06:27:23Z</time>
      </trkpt>
      <trkpt lat="42.5058120" lon="-6.5430620">
        <ele>772.2</ele>
        <time>2014-10-01T06:27:25Z</time>
      </trkpt>
      <trkpt lat="42.5057900" lon="-6.5430220">
        <ele>772.8</ele>
        <time>2014-10-01T06:27:27Z</time>
      </trkpt>
      <trkpt lat="42.5057700" lon="-6.5429920">
        <ele>773.2</ele>
        <time>2014-10-01T06:27:29Z</time>
      </trkpt>
      <trkpt lat="42.5057430" lon="-6.5429530">
        <ele>773.8</ele>
        <time>2014-10-01T06:27:31Z</time>
      </trkpt>
      <trkpt lat="42.5057140" lon="-6.5429110">
        <ele>774.4</ele>
        <time>2014-10-01T06:27:33Z</time>
      </trkpt>
      <trkpt lat="42.5056930" lon="-6.5428740">
        <ele>775.0</ele>
        <time>2014-10-01T06:27:35Z</time>
      </trkpt>
      <trkpt lat="42.5056690" lon="-6.5428310">
        <ele>775.6</ele>
        <time>2014-10-01T06:27:37Z</time>
      </trkpt>
      <trkpt lat="42.5056490" lon="-6.5427930">
        <ele>776.1</ele>
        <time>2014-10-01T06:27:39Z</time>
      </trkpt>
      <trkpt lat="42.5056240" lon="-6.5427580">
        <ele>776.7</ele>
        <time>2014-10-01T06:27:41Z</time>
      </trkpt>
      <trkpt lat="42.5055970" lon="-6.5427200">
        <ele>777.3</ele>
        <time>2014-10-01T06:27:43Z</time>
      </trkpt>
      <trkpt lat="42.5055670" lon="-6.5426790">
        <ele>777.9</ele>
        <time>2014-10-01T06:27:45Z</time>
      </trkpt>
      <trkpt lat="42.5055370" lon="-6.5426400">
        <ele>778.5</ele>
        <time>2014-10-01T06:27:47Z</time>
      </trkpt>
      <trkpt lat="42.5055120" lon="-6.5426150">
        <ele>779.0</ele>
        <time>2014-10-01T06:27:49Z</time>
      </trkpt>
      <trkpt lat="42.5054800" lon="-6.5425840">
        <ele>779.6</ele>
        <time>2014-10-01T06:27:51Z</time>
      </trkpt>
      <trkpt lat="42.5054480" lon="-6.5425520">
        <ele>780.2</ele>
        <time>2014-10-01T06:27:53Z</time>
      </trkpt>
      <trkpt lat="42.5054160" lon="-6.5425190">
        <ele>780.8</ele>
        <time>2014-10-01T06:27:55Z</time>
      </trkpt>
      <trkpt lat="42.5053860" lon="-6.5424900">
        <ele>781.3</ele>
        <time>2014-10-01T06:27:57Z</time>
      </trkpt>
      <trkpt lat="42.5053530" lon="-6.5424600">
        <ele>781.8</ele>
        <time>2014-10-01T06:27:59Z</time>
      </trkpt>
      <trkpt lat="42.5053200" lon="-6.5424190">
        <ele>782.5</ele>
        <time>2014-10-01T06:28:01Z</time>
      </trkpt>
      <trkpt lat="42.5052870" lon="-6.5423780">
        <ele>783.1</ele>
        <time>2014-10-01T06:28:03Z</time>
      </trkpt>
      <trkpt lat="42.5052540" lon="-6.5423350">
        <ele>783.8</ele>
        <time>2014-10-01T06:28:05Z</time>
      </trkpt>
      <trkpt lat="42.5052200" lon="-6.5422980">
        <ele>784.4</ele>
        <time>2014-10-01T06:28:07Z</time>
      </trkpt>
      <trkpt lat="42.5051920" lon="-6.5422710">
        <ele>785.0</ele>
        <time>2014-10-01T06:28:09Z</time>
      </trkpt>
      <trkpt lat="42.5051600" lon="-6.5422440">
        <ele>785.6</ele>
        <time>2014-10-01T06:28:11Z</time>
      </trkpt>
      <trkpt lat="42.5051250" lon="-6.5422190">
        <ele>786.2</ele>
        <time>2014-10-01T06:28:13Z</time>
      </trkpt>
      <trkpt lat="42.5050910" lon="-6.5421890">
        <ele>786.8</ele>
        <time>2014-10-01T06:28:15Z</time>
      </trkpt>
      <trkpt lat="42.5050560" lon="-6.5421540">
        <ele>787.5</ele>
        <time>2014-10-01T06:28:17Z</time>
      </trkpt>
      <trkpt lat="42.5050240" lon="-6.5421180">
        <ele>788.2</ele>
        <time>2014-10-01T06:28:19Z</time>
      </trkpt>
      <trkpt lat="42.5049920" lon="-6.5420860">
        <ele>788.8</ele>
        <time>2014-10-01T06:28:21Z</time>
      </trkpt>
      <trkpt lat="42.5049610" lon="-6.5420600">
        <ele>789.4</ele>
        <time>2014-10-01T06:28:23Z</time>
      </trkpt>
      <trkpt lat="42.5049270" lon="-6.5420260">
        <ele>790.1</ele>
        <time>2014-10-01T06:28:25Z</time>
      </trkpt>
      <trkpt lat="42.5048950" lon="-6.5419900">
        <ele>790.8</ele>
        <time>2014-10-01T06:28:27Z</time>
      </trkpt>
      <trkpt lat="42.5048610" lon="-6.5419580">
        <ele>791.4</ele>
        <time>2014-10-01T06:28:29Z</time>
      </trkpt>
      <trkpt lat="42.5048230" lon="-6.5419200">
        <ele>792.2</ele>
        <time>2014-10-01T06:28:31Z</time>
      </trkpt>
      <trkpt lat="42.5047880" lon="-6.5418830">
        <ele>792.9</ele>
        <time>2014-10-01T06:28:33Z</time>
      </trkpt>
      <trkpt lat="42.5047520" lon="-6.5418380">
        <ele>793.6</ele>
        <time>2014-10-01T06:28:35Z</time>
      </trkpt>
      <trkpt lat="42.5047220" lon="-6.5417860">
        <ele>794.4</ele>
        <time>2014-10-01T06:28:37Z</time>
      </trkpt>
      <trkpt lat="42.5046950" lon="-6.5417300">
        <ele>795.1</ele>
        <time>2014-10-01T06:28:39Z</time>
      </trkpt>
      <trkpt lat="42.5046740" lon="-6.5416740">
        <ele>795.8</ele>
        <time>2014-10-01T06:28:41Z</time>
      </trkpt>
      <trkpt lat="42.5046580" lon="-6.5416170">
        <ele>796.5</ele>
        <time>2014-10-01T06:28:43Z</time>
      </trkpt>
      <trkpt lat="42.5046420" lon="-6.5415610">
        <ele>797.1</ele>
        <time>2014-10-01T06:28:45Z</time>
      </trkpt>
      <trkpt lat="42.5046270" lon="-6.5415080">
        <ele>797.6</ele>
        <time>2014-10-01T06:28:47Z</time>
      </trkpt>
      <trkpt lat="42.5046120" lon="-6.5414520">
        <ele>798.1</ele>
        <time>2014-10-01T06:28:49Z</time>
      </trkpt>
      <trkpt lat="42.5045970" lon="-6.5413930">
        <ele>798.7</ele>
        <time>2014-10-01T06:28:51Z</time>
      </trkpt>
      <trkpt lat="42.5045870" lon="-6.5413360">
        <ele>799.2</ele>
        <time>2014-10-01T06:28:53Z</time>
      </trkpt>
      <trkpt lat="42.5045760" lon="-6.5412820">
        <ele>799.7</ele>
        <time>2014-10-01T06:28:55Z</time>
      </trkpt>
      <trkpt lat="42.5045630" lon="-6.5412300">
        <ele>800.2</ele>
        <time>2014-10-01T06:28:57Z</time>
      </trkpt>
      <trkpt lat="42.5045520" lon="-6.5411790">
        <ele>800.7</ele>
        <time>2014-10-01T06:28:59Z</time>
      </trkpt>
      <trkpt lat="42.5045410" lon="-6.5411260">
        <ele>801.2</ele>
        <time>2014-10-01T06:29:01Z</time>
      </trkpt>
      <trkpt lat="42.5045280" lon="-6.5410740">
        <ele>801.7</ele>
        <time>2014-10-01T06:29:03Z</time>
      </trkpt>
      <trkpt lat="42.5045140" lon="-6.5410220">
        <ele>802.3</ele>
        <time>2014-10-01T06:29:05Z</time>
      </trkpt>
      <trkpt lat="42.5044980" lon="-6.5409720">
        <ele>802.8</ele>
        <time>2014-10-01T06:29:07Z</time>
      </trkpt>
      <trkpt lat="42.5044810" lon="-6.5409230">
        <ele>803.3</ele>
        <time>2014-10-01T06:29:09Z</time>
      </trkpt>
      <trkpt lat="42.5044610" lon="-6.5408770">
        <ele>803.8</ele>
        <time>2014-10-01T06:29:11Z</time>
      </trkpt>
      <trkpt lat="42.5044430" lon="-6.5408290">
        <ele>804.3</ele>
        <time>2014-10-01T06:29:13Z</time>
      </trkpt>
      <trkpt lat="42.5044220" lon="-6.5407810">
        <ele>804.9</ele>
        <time>2014-10-01T06:29:15Z</time>
      </trkpt>
      <trkpt lat="42.5044000" lon="-6.5407360">
        <ele>805.4</ele>
        <time>2014-10-01T06:29:17Z</time>
      </trkpt>
      <trkpt lat="42.5043770" lon="-6.5406870">
        <ele>806.0</ele>
        <time>2014-10-01T06:29:19Z</time>
      </trkpt>
      <trkpt lat="42.5043560" lon="-6.5406400">
        <ele>806.5</ele>
        <time>2014-10-01T06:29:21Z</time>
      </trkpt>
      <trkpt lat="42.5043370" lon="-6.5405990">
        <ele>807.0</ele>
        <time>2014-10-01T06:29:23Z</time>
      </trkpt>
      <trkpt lat="42.5043160" lon="-6.5405540">
        <ele>807.5</ele>
        <time>2014-10-01T06:29:25Z</time>
      </trkpt>
      <trkpt lat="42.5042930" lon="-6.5405000">
        <ele>808.1</ele>
        <time>2014-10-01T06:29:27Z</time>
      </trkpt>
      <trkpt lat="42.5042710" lon="-6.5404460">
        <ele>808.7</ele>
        <time>2014-10-01T06:29:29Z</time>
      </trkpt>
      <trkpt lat="42.5042510" lon="-6.5403940">
        <ele>809.3</ele>
        <time>2014-10-01T06:29:31Z</time>
      </trkpt>
      <trkpt lat="42.5042280" lon="-6.5403480">
        <ele>809.9</ele>
        <time>2014-10-01T06:29:33Z</time>
      </trkpt>
      <trkpt lat="42.5042070" lon="-6.5403010">
        <ele>810.4</ele>
        <time>2014-10-01T06:29:35Z</time>
      </trkpt>
      <trkpt lat="42.5041850" lon="-6.5402540">
        <ele>811.0</ele>
        <time>2014-10-01T06:29:37Z</time>
      </trkpt>
      <trkpt lat="42.5041660" lon="-6.5402050">
        <ele>811.6</ele>
        <time>2014-10-01T06:29:39Z</time>
      </trkpt>
      <trkpt lat="42.5041470" lon="-6.5401520">
        <ele>812.2</ele>
        <time>2014-10-01T06:29:41Z</time>
      </trkpt>
      <trkpt lat="42.5041290" lon="-6.5401010">
        <ele>812.7</ele>
        <time>2014-10-01T06:29:43Z</time>
      </trkpt>
      <trkpt lat="42.5041090" lon="-6.5400500">
        <ele>813.2</ele>
        <time>2014-10-01T06:29:45Z</time>
      </trkpt>
      <trkpt lat="42.5040930" lon="-6.5399970">
        <ele>813.6</ele>
        <time>2014-10-01T06:29:47Z</time>
      </trkpt>
      <trkpt lat="42.5040770" lon="-6.5399440">
        <ele>814.0</ele>
        <time>2014-10-01T06:29:49Z</time>
      </trkpt>
      <trkpt lat="42.5040590" lon="-6.5398920">
        <ele>814.3</ele>
        <time>2014-10-01T06:29:51Z</time>
      </trkpt>
      <trkpt lat="42.5040390" lon="-6.5398400">
        <ele>814.7</ele>
        <time>2014-10-01T06:29:53Z</time>
      </trkpt>
      <trkpt lat="42.5040190" lon="-6.5397890">
        <ele>815.1</ele>
        <time>2014-10-01T06:29:55Z</time>
      </trkpt>
      <trkpt lat="42.5039990" lon="-6.5397400">
        <ele>815.5</ele>
        <time>2014-10-01T06:29:57Z</time>
      </trkpt>
      <trkpt lat="42.5039820" lon="-6.5396890">
        <ele>815.9</ele>
        <time>2014-10-01T06:29:59Z</time>
      </trkpt>
      <trkpt lat="42.5039630" lon="-6.5396380">
        <ele>816.3</ele>
        <time>2014-10-01T06:30:01Z</time>
      </trkpt>
      <trkpt lat="42.5039420" lon="-6.5395880">
        <ele>816.7</ele>
        <time>2014-10-01T06:30:03Z</time>
      </trkpt>
      <trkpt lat="42.5039230" lon="-6.5395360">
        <ele>817.2</ele>
        <time>2014-10-01T06:30:05Z</time>
      </trkpt>
      <trkpt lat="42.5039010" lon="-6.5394830">
        <ele>817.7</ele>
        <time>2014-10-01T06:30:07Z</time>
      </trkpt>
      <trkpt lat="42.5038800" lon="-6.5394320">
        <ele>818.2</ele>
        <time>2014-10-01T06:30:09Z</time>
      </trkpt>
      <trkpt lat="42.5038590" lon="-6.5393810">
        <ele>818.7</ele>
        <time>2014-10-01T06:30:11Z</time>
      </trkpt>
      <trkpt lat="42.5038390" lon="-6.5393300">
        <ele>819.2</ele>
        <time>2014-10-01T06:30:13Z</time>
      </trkpt>
      <trkpt lat="42.5038210" lon="-6.5392760">
        <ele>819.8</ele>
        <time>2014-10-01T06:30:15Z</time>
      </trkpt>
      <trkpt lat="42.5038070" lon="-6.5392220">
        <ele>820.3</ele>
        <time>2014-10-01T06:30:17Z</time>
      </trkpt>
      <trkpt lat="42.5037910" lon="-6.5391700">
        <ele>820.9</ele>
        <time>2014-10-01T06:30:19Z</time>
      </trkpt>
      <trkpt lat="42.5037750" lon="-6.5391170">
        <ele>821.5</ele>
        <time>2014-10-01T06:30:21Z</time>
      </trkpt>
      <trkpt lat="42.5037560" lon="-6.5390630">
        <ele>822.0</ele>
        <time>2014-10-01T06:30:23Z</time>
      </trkpt>
      <trkpt lat="42.5037380" lon="-6.5390090">
        <ele>822.6</ele>
        <time>2014-10-01T06:30:25Z</time>
      </trkpt>
      <trkpt lat="42.5037180" lon="-6.5389590">
        <ele>823.2</ele>
        <time>2014-10-01T06:30:27Z</time>
      </trkpt>
      <trkpt lat="42.5037000" lon="-6.5389050">
        <ele>823.8</ele>
        <time>2014-10-01T06:30:29Z</time>
      </trkpt>
      <trkpt lat="42.5036810" lon="-6.5388540">
        <ele>824.4</ele>
        <time>2014-10-01T06:30:31Z</time>
      </trkpt>
      <trkpt lat="42.5036590" lon="-6.5388070">
        <ele>825.0</ele>
        <time>2014-10-01T06:30:33Z</time>
      </trkpt>
      <trkpt lat="42.5036360" lon="-6.5387570">
        <ele>825.6</ele>
        <time>2014-10-01T06:30:35Z</time>
      </trkpt>
      <trkpt lat="42.5036150" lon="-6.5387060">
        <ele>826.3</ele>
        <time>2014-10-01T06:30:37Z</time>
      </trkpt>
      <trkpt lat="42.5035950" lon="-6.5386550">
        <ele>826.9</ele>
        <time>2014-10-01T06:30:39Z</time>
      </trkpt>
      <trkpt lat="42.5035720" lon="-6.5386070">
        <ele>827.6</ele>
        <time>2014-10-01T06:30:41Z</time>
      </trkpt>
      <trkpt lat="42.5035530" lon="-6.5385590">
        <ele>828.2</ele>
        <time>2014-10-01T06:30:43Z</time>
      </trkpt>
      <trkpt lat="42.5035360" lon="-6.5385070">
        <ele>828.9</ele>
        <time>2014-10-01T06:30:45Z</time>
      </trkpt>
      <trkpt lat="42.5035180" lon="-6.5384560">
        <ele>829.6</ele>
        <time>2014-10-01T06:30:47Z</time>
      </trkpt>
      <trkpt lat="42.5035020" lon="-6.5384080">
        <ele>830.2</ele>
        <time>2014-10-01T06:30:49Z</time>
      </trkpt>
      <trkpt lat="42.5034870" lon="-6.5383570">
        <ele>830.8</ele>
        <time>2014-10-01T06:30:51Z</time>
      </trkpt>
      <trkpt lat="42.5034720" lon="-6.5383070">
        <ele>831.4</ele>
        <time>2014-10-01T06:30:53Z</time>
      </trkpt>
      <trkpt lat="42.5034580" lon="-6.5382550">
        <ele>831.9</ele>
        <time>2014-10-01T06:30:55Z</time>
      </trkpt>
      <trkpt lat="42.5034430" lon="-6.5382040">
        <ele>832.5</ele>
        <time>2014-10-01T06:30:57Z</time>
      </trkpt>
      <trkpt lat="42.5034240" lon="-6.5381520">
        <ele>833.0</ele>
        <time>2014-10-01T06:30:59Z</time>
      </trkpt>
      <trkpt lat="42.5034040" lon="-6.5381010">
        <ele>833.6</ele>
        <time>2014-10-01T06:31:01Z</time>
      </trkpt>
      <trkpt lat="42.5033910" lon="-6.5380470">
        <ele>834.2</ele>
        <time>2014-10-01T06:31:03Z</time>
      </trkpt>
      <trkpt lat="42.5033780" lon="-6.5379920">
        <ele>834.7</ele>
        <time>2014-10-01T06:31:05Z</time>
      </trkpt>
      <trkpt lat="42.5033650" lon="-6.5379390">
        <ele>835.2</ele>
        <time>2014-10-01T06:31:07Z</time>
      </trkpt>
      <trkpt lat="42.5033520" lon="-6.5378840">
        <ele>835.7</ele>
        <time>2014-10-01T06:31:09Z</time>
      </trkpt>
      <trkpt lat="42.5033400" lon="-6.5378310">
        <ele>836.3</ele>
        <time>2014-10-01T06:31:11Z</time>
      </trkpt>
      <trkpt lat="42.5033240" lon="-6.5377790">
        <ele>836.8</ele>
        <time>2014-10-01T06:31:13Z</time>
      </trkpt>
      <trkpt lat="42.5033090" lon="-6.5377230">
        <ele>837.3</ele>
        <time>2014-10-01T06:31:15Z</time>
      </trkpt>
      <trkpt lat="42.5032930" lon="-6.5376650">
        <ele>837.9</ele>
        <time>2014-10-01T06:31:17Z</time>
      </trkpt>
      <trkpt lat="42.5032820" lon="-6.5376050">
        <ele>838.5</ele>
        <time>2014-10-01T06:31:19Z</time>
      </trkpt>
      <trkpt lat="42.5032730" lon="-6.5375450">
        <ele>839.1</ele>
        <time>2014-10-01T06:31:21Z</time>
      </trkpt>
      <trkpt lat="42.5032670" lon="-6.5374850">
        <ele>839.7</ele>
        <time>2014-10-01T06:31:23Z</time>
      </trkpt>
      <trkpt lat="42.5032600" lon="-6.5374250">
        <ele>840.3</ele>
        <time>2014-10-01T06:31:25Z</time>
      </trkpt>
      <trkpt lat="42.5032510" lon="-6.5373670">
        <ele>841.0</ele>
        <time>2014-10-01T06:31:27Z</time>
      </trkpt>
      <trkpt lat="42.5032440" lon="-6.5373080">
        <ele>841.6</ele>
        <time>2014-10-01T06:31:29Z</time>
      </trkpt>
      <trkpt lat="42.5032370" lon="-6.5372510">
        <ele>842.3</ele>
        <time>2014-10-01T06:31:31Z</time>
      </trkpt>
      <trkpt lat="42.5032360" lon="-6.5371930">
        <ele>843.1</ele>
        <time>2014-10-01T06:31:33Z</time>
      </trkpt>
      <trkpt lat="42.5032380" lon="-6.5371400">
        <ele>843.7</ele>
        <time>2014-10-01T06:31:35Z</time>
      </trkpt>
      <trkpt lat="42.5032400" lon="-6.5370840">
        <ele>844.4</ele>
        <time>2014-10-01T06:31:37Z</time>
      </trkpt>
      <trkpt lat="42.5032430" lon="-6.5370250">
        <ele>845.1</ele>
        <time>2014-10-01T06:31:39Z</time>
      </trkpt>
      <trkpt lat="42.5032500" lon="-6.5369680">
        <ele>845.8</ele>
        <time>2014-10-01T06:31:41Z</time>
      </trkpt>
      <trkpt lat="42.5032580" lon="-6.5369150">
        <ele>846.5</ele>
        <time>2014-10-01T06:31:43Z</time>
      </trkpt>
      <trkpt lat="42.5032690" lon="-6.5368620">
        <ele>847.1</ele>
        <time>2014-10-01T06:31:45Z</time>
      </trkpt>
      <trkpt lat="42.5032840" lon="-6.5368120">
        <ele>847.7</ele>
        <time>2014-10-01T06:31:47Z</time>
      </trkpt>
      <trkpt lat="42.5033040" lon="-6.5367640">
        <ele>848.4</ele>
        <time>2014-10-01T06:31:49Z</time>
      </trkpt>
      <trkpt lat="42.5033280" lon="-6.5367150">
        <ele>849.0</ele>
        <time>2014-10-01T06:31:51Z</time>
      </trkpt>
      <trkpt lat="42.5033490" lon="-6.5366620">
        <ele>849.5</ele>
        <time>2014-10-01T06:31:53Z</time>
      </trkpt>
      <trkpt lat="42.5033720" lon="-6.5366060">
        <ele>850.1</ele>
        <time>2014-10-01T06:31:55Z</time>
      </trkpt>
      <trkpt lat="42.5033920" lon="-6.5365540">
        <ele>850.6</ele>
        <time>2014-10-01T06:31:57Z</time>
      </trkpt>
      <trkpt lat="42.5034050" lon="-6.5365040">
        <ele>851.0</ele>
        <time>2014-10-01T06:31:59Z</time>
      </trkpt>
      <trkpt lat="42.5034130" lon="-6.5364450">
        <ele>851.5</ele>
        <time>2014-10-01T06:32:01Z</time>
      </trkpt>
      <trkpt lat="42.5034190" lon="-6.5363740">
        <ele>851.9</ele>
        <time>2014-10-01T06:32:03Z</time>
      </trkpt>
      <trkpt lat="42.5034180" lon="-6.5363090">
        <ele>852.4</ele>
        <time>2014-10-01T06:32:05Z</time>
      </trkpt>
      <trkpt lat="42.5034160" lon="-6.5362500">
        <ele>852.8</ele>
        <time>2014-10-01T06:32:07Z</time>
      </trkpt>
      <trkpt lat="42.5034140" lon="-6.5361920">
        <ele>853.2</ele>
        <time>2014-10-01T06:32:09Z</time>
      </trkpt>
      <trkpt lat="42.5034120" lon="-6.5361320">
        <ele>853.6</ele>
        <time>2014-10-01T06:32:11Z</time>
      </trkpt>
      <trkpt lat="42.5034110" lon="-6.5360710">
        <ele>854.1</ele>
        <time>2014-10-01T06:32:13Z</time>
      </trkpt>
      <trkpt lat="42.5034080" lon="-6.5360120">
        <ele>854.5</ele>
        <time>2014-10-01T06:32:15Z</time>
      </trkpt>
      <trkpt lat="42.5034060" lon="-6.5359560">
        <ele>855.0</ele>
        <time>2014-10-01T06:32:17Z</time>
      </trkpt>
      <trkpt lat="42.5034030" lon="-6.5359020">
        <ele>855.5</ele>
        <time>2014-10-01T06:32:19Z</time>
      </trkpt>
      <trkpt lat="42.5034020" lon="-6.5358450">
        <ele>856.0</ele>
        <time>2014-10-01T06:32:21Z</time>
      </trkpt>
      <trkpt lat="42.5034010" lon="-6.5357890">
        <ele>856.5</ele>
        <time>2014-10-01T06:32:23Z</time>
      </trkpt>
      <trkpt lat="42.5034010" lon="-6.5357370">
        <ele>857.0</ele>
        <time>2014-10-01T06:32:25Z</time>
      </trkpt>
      <trkpt lat="42.5033990" lon="-6.5356810">
        <ele>857.6</ele>
        <time>2014-10-01T06:32:27Z</time>
      </trkpt>
      <trkpt lat="42.5033980" lon="-6.5356250">
        <ele>858.2</ele>
        <time>2014-10-01T06:32:29Z</time>
      </trkpt>
      <trkpt lat="42.5033970" lon="-6.5355690">
        <ele>858.8</ele>
        <time>2014-10-01T06:32:31Z</time>
      </trkpt>
      <trkpt lat="42.5033950" lon="-6.5355100">
        <ele>859.4</ele>
        <time>2014-10-01T06:32:33Z</time>
      </trkpt>
      <trkpt lat="42.5033950" lon="-6.5354540">
        <ele>860.0</ele>
        <time>2014-10-01T06:32:35Z</time>
      </trkpt>
      <trkpt lat="42.5033930" lon="-6.5354000">
        <ele>860.6</ele>
        <time>2014-10-01T06:32:37Z</time>
      </trkpt>
      <trkpt lat="42.5033910" lon="-6.5353440">
        <ele>861.3</ele>
        <time>2014-10-01T06:32:39Z</time>
      </trkpt>
      <trkpt lat="42.5033920" lon="-6.5352910">
        <ele>861.8</ele>
        <time>2014-10-01T06:32:41Z</time>
      </trkpt>
      <trkpt lat="42.5033920" lon="-6.5352390">
        <ele>862.4</ele>
        <time>2014-10-01T06:32:43Z</time>
      </trkpt>
      <trkpt lat="42.5033930" lon="-6.5351850">
        <ele>863.0</ele>
        <time>2014-10-01T06:32:45Z</time>
      </trkpt>
      <trkpt lat="42.5033950" lon="-6.5351290">
        <ele>863.6</ele>
        <time>2014-10-01T06:32:47Z</time>
      </trkpt>
      <trkpt lat="42.5033940" lon="-6.5350740">
        <ele>864.2</ele>
        <time>2014-10-01T06:32:49Z</time>
      </trkpt>
      <trkpt lat="42.5033970" lon="-6.5350190">
        <ele>864.8</ele>
        <time>2014-10-01T06:32:51Z</time>
      </trkpt>
      <trkpt lat="42.5033960" lon="-6.5349680">
        <ele>865.3</ele>
        <time>2014-10-01T06:32:53Z</time>
      </trkpt>
      <trkpt lat="42.5033930" lon="-6.5349130">
        <ele>865.9</ele>
        <time>2014-10-01T06:32:55Z</time>
      </trkpt>
      <trkpt lat="42.5033890" lon="-6.5348580">
        <ele>866.5</ele>
        <time>2014-10-01T06:32:57Z</time>
      </trkpt>
      <trkpt lat="42.5033860" lon="-6.5348060">
        <ele>867.1</ele>
        <time>2014-10-01T06:32:59Z</time>
      </trkpt>
      <trkpt lat="42.5033800" lon="-6.5347520">
        <ele>867.6</ele>
        <time>2014-10-01T06:33:01Z</time>
      </trkpt>
      <trkpt lat="42.5033750" lon="-6.5346950">
        <ele>868.3</ele>
        <time>2014-10-01T06:33:03Z</time>
      </trkpt>
      <trkpt lat="42.5033730" lon="-6.5346380">
        <ele>868.9</ele>
        <time>2014-10-01T06:33:05Z</time>
      </trkpt>
      <trkpt lat="42.5033700" lon="-6.5345840">
        <ele>869.5</ele>
        <time>2014-10-01T06:33:07Z</time>
      </trkpt>
      <trkpt lat="42.5033640" lon="-6.5345310">
        <ele>870.1</ele>
        <time>2014-10-01T06:33:09Z</time>
      </trkpt>
      <trkpt lat="42.5033590" lon="-6.5344750">
        <ele>870.8</ele>
        <time>2014-10-01T06:33:11Z</time>
      </trkpt>
      <trkpt lat="42.5033540" lon="-6.5344180">
        <ele>871.5</ele>
        <time>2014-10-01T06:33:13Z</time>
      </trkpt>
      <trkpt lat="42.5033520" lon="-6.5343570">
        <ele>872.2</ele>
        <time>2014-10-01T06:33:15Z</time>
      </trkpt>
      <trkpt lat="42.5033530" lon="-6.5342940">
        <ele>873.0</ele>
        <time>2014-10-01T06:33:17Z</time>
      </trkpt>
      <trkpt lat="42.5033580" lon="-6.5342270">
        <ele>873.8</ele>
        <time>2014-10-01T06:33:19Z</time>
      </trkpt>
      <trkpt lat="42.5033660" lon="-6.5341650">
        <ele>874.5</ele>
        <time>2014-10-01T06:33:21Z</time>
      </trkpt>
      <trkpt lat="42.5033830" lon="-6.5341100">
        <ele>875.2</ele>
        <time>2014-10-01T06:33:23Z</time>
      </trkpt>
      <trkpt lat="42.5034140" lon="-6.5340590">
        <ele>875.8</ele>
        <time>2014-10-01T06:33:25Z</time>
      </trkpt>
      <trkpt lat="42.5034510" lon="-6.5340240">
        <ele>876.4</ele>
        <time>2014-10-01T06:33:27Z</time>
      </trkpt>
      <trkpt lat="42.5034920" lon="-6.5340080">
        <ele>876.9</ele>
        <time>2014-10-01T06:33:29Z</time>
      </trkpt>
      <trkpt lat="42.5035400" lon="-6.5340070">
        <ele>877.3</ele>
        <time>2014-10-01T06:33:31Z</time>
      </trkpt>
      <trkpt lat="42.5035910" lon="-6.5340180">
        <ele>877.8</ele>
        <time>2014-10-01T06:33:33Z</time>
      </trkpt>
      <trkpt lat="42.5036170" lon="-6.5340260">
        <ele>878.0</ele>
        <time>2014-10-01T06:33:34Z</time>
      </trkpt>
      <trkpt lat="42.5036440" lon="-6.5340370">
        <ele>878.2</ele>
        <time>2014-10-01T06:33:35Z</time>
      </trkpt>
      <trkpt lat="42.5036710" lon="-6.5340500">
        <ele>878.5</ele>
        <time>2014-10-01T06:33:36Z</time>
      </trkpt>
      <trkpt lat="42.5036980" lon="-6.5340650">
        <ele>878.7</ele>
        <time>2014-10-01T06:33:37Z</time>
      </trkpt>
      <trkpt lat="42.5037230" lon="-6.5340800">
        <ele>879.0</ele>
        <time>2014-10-01T06:33:38Z</time>
      </trkpt>
      <trkpt lat="42.5037500" lon="-6.5340950">
        <ele>879.3</ele>
        <time>2014-10-01T06:33:39Z</time>
      </trkpt>
      <trkpt lat="42.5037760" lon="-6.5341080">
        <ele>879.5</ele>
        <time>2014-10-01T06:33:40Z</time>
      </trkpt>
      <trkpt lat="42.5038060" lon="-6.5341220">
        <ele>879.9</ele>
        <time>2014-10-01T06:33:41Z</time>
      </trkpt>
      <trkpt lat="42.5038340" lon="-6.5341310">
        <ele>880.2</ele>
        <time>2014-10-01T06:33:42Z</time>
      </trkpt>
      <trkpt lat="42.5038610" lon="-6.5341370">
        <ele>880.5</ele>
        <time>2014-10-01T06:33:43Z</time>
      </trkpt>
      <trkpt lat="42.5038880" lon="-6.5341430">
        <ele>880.9</ele>
        <time>2014-10-01T06:33:44Z</time>
      </trkpt>
      <trkpt lat="42.5039140" lon="-6.5341470">
        <ele>881.2</ele>
        <time>2014-10-01T06:33:45Z</time>
      </trkpt>
      <trkpt lat="42.5039670" lon="-6.5341450">
        <ele>881.9</ele>
        <time>2014-10-01T06:33:47Z</time>
      </trkpt>
      <trkpt lat="42.5039940" lon="-6.5341380">
        <ele>882.2</ele>
        <time>2014-10-01T06:33:48Z</time>
      </trkpt>
      <trkpt lat="42.5040210" lon="-6.5341290">
        <ele>882.6</ele>
        <time>2014-10-01T06:33:49Z</time>
      </trkpt>
      <trkpt lat="42.5040710" lon="-6.5340990">
        <ele>883.4</ele>
        <time>2014-10-01T06:33:51Z</time>
      </trkpt>
      <trkpt lat="42.5040940" lon="-6.5340790">
        <ele>883.7</ele>
        <time>2014-10-01T06:33:52Z</time>
      </trkpt>
      <trkpt lat="42.5041320" lon="-6.5340320">
        <ele>884.5</ele>
        <time>2014-10-01T06:33:54Z</time>
      </trkpt>
      <trkpt lat="42.5041520" lon="-6.5339860">
        <ele>885.0</ele>
        <time>2014-10-01T06:33:56Z</time>
      </trkpt>
      <trkpt lat="42.5041570" lon="-6.5339330">
        <ele>885.4</ele>
        <time>2014-10-01T06:33:59Z</time>
      </trkpt>
      <trkpt lat="42.5041540" lon="-6.5338880">
        <ele>885.9</ele>
        <time>2014-10-01T06:34:01Z</time>
      </trkpt>
      <trkpt lat="42.5041500" lon="-6.5338290">
        <ele>886.4</ele>
        <time>2014-10-01T06:34:03Z</time>
      </trkpt>
      <trkpt lat="42.5041420" lon="-6.5337740">
        <ele>886.8</ele>
        <time>2014-10-01T06:34:05Z</time>
      </trkpt>
      <trkpt lat="42.5041290" lon="-6.5337180">
        <ele>887.2</ele>
        <time>2014-10-01T06:34:07Z</time>
      </trkpt>
      <trkpt lat="42.5041120" lon="-6.5336560">
        <ele>887.6</ele>
        <time>2014-10-01T06:34:09Z</time>
      </trkpt>
      <trkpt lat="42.5040950" lon="-6.5335910">
        <ele>888.0</ele>
        <time>2014-10-01T06:34:11Z</time>
      </trkpt>
      <trkpt lat="42.5040840" lon="-6.5335280">
        <ele>888.3</ele>
        <time>2014-10-01T06:34:13Z</time>
      </trkpt>
      <trkpt lat="42.5040740" lon="-6.5334690">
        <ele>888.5</ele>
        <time>2014-10-01T06:34:15Z</time>
      </trkpt>
      <trkpt lat="42.5040640" lon="-6.5334100">
        <ele>888.8</ele>
        <time>2014-10-01T06:34:17Z</time>
      </trkpt>
      <trkpt lat="42.5040500" lon="-6.5333520">
        <ele>889.1</ele>
        <time>2014-10-01T06:34:19Z</time>
      </trkpt>
      <trkpt lat="42.5040410" lon="-6.5332880">
        <ele>889.4</ele>
        <time>2014-10-01T06:34:21Z</time>
      </trkpt>
      <trkpt lat="42.5040350" lon="-6.5332250">
        <ele>889.7</ele>
        <time>2014-10-01T06:34:23Z</time>
      </trkpt>
      <trkpt lat="42.5040290" lon="-6.5331640">
        <ele>890.0</ele>
        <time>2014-10-01T06:34:25Z</time>
      </trkpt>
      <trkpt lat="42.5040230" lon="-6.5331050">
        <ele>890.3</ele>
        <time>2014-10-01T06:34:27Z</time>
      </trkpt>
      <trkpt lat="42.5040150" lon="-6.5330300">
        <ele>890.6</ele>
        <time>2014-10-01T06:34:29Z</time>
      </trkpt>
      <trkpt lat="42.5040110" lon="-6.5329910">
        <ele>890.8</ele>
        <time>2014-10-01T06:34:30Z</time>
      </trkpt>
      <trkpt lat="42.5040060" lon="-6.5329520">
        <ele>891.0</ele>
        <time>2014-10-01T06:34:31Z</time>
      </trkpt>
      <trkpt lat="42.5040040" lon="-6.5329140">
        <ele>891.2</ele>
        <time>2014-10-01T06:34:32Z</time>
      </trkpt>
      <trkpt lat="42.5040050" lon="-6.5328700">
        <ele>891.4</ele>
        <time>2014-10-01T06:34:33Z</time>
      </trkpt>
      <trkpt lat="42.5040070" lon="-6.5328240">
        <ele>891.6</ele>
        <time>2014-10-01T06:34:34Z</time>
      </trkpt>
      <trkpt lat="42.5040080" lon="-6.5327790">
        <ele>891.9</ele>
        <time>2014-10-01T06:34:35Z</time>
      </trkpt>
      <trkpt lat="42.5040050" lon="-6.5327350">
        <ele>892.2</ele>
        <time>2014-10-01T06:34:36Z</time>
      </trkpt>
      <trkpt lat="42.5040010" lon="-6.5326870">
        <ele>892.4</ele>
        <time>2014-10-01T06:34:37Z</time>
      </trkpt>
      <trkpt lat="42.5039940" lon="-6.5326430">
        <ele>892.7</ele>
        <time>2014-10-01T06:34:38Z</time>
      </trkpt>
      <trkpt lat="42.5039900" lon="-6.5325900">
        <ele>893.1</ele>
        <time>2014-10-01T06:34:39Z</time>
      </trkpt>
      <trkpt lat="42.5039910" lon="-6.5325530">
        <ele>893.3</ele>
        <time>2014-10-01T06:34:40Z</time>
      </trkpt>
      <trkpt lat="42.5039800" lon="-6.5324730">
        <ele>893.9</ele>
        <time>2014-10-01T06:34:42Z</time>
      </trkpt>
      <trkpt lat="42.5039700" lon="-6.5324220">
        <ele>894.3</ele>
        <time>2014-10-01T06:34:43Z</time>
      </trkpt>
      <trkpt lat="42.5039590" lon="-6.5323720">
        <ele>894.6</ele>
        <time>2014-10-01T06:34:44Z</time>
      </trkpt>
      <trkpt lat="42.5039500" lon="-6.5323150">
        <ele>895.1</ele>
        <time>2014-10-01T06:34:45Z</time>
      </trkpt>
      <trkpt lat="42.5039450" lon="-6.5322620">
        <ele>895.5</ele>
        <time>2014-10-01T06:34:46Z</time>
      </trkpt>
      <trkpt lat="42.5039400" lon="-6.5322160">
        <ele>895.9</ele>
        <time>2014-10-01T06:34:47Z</time>
      </trkpt>
      <trkpt lat="42.5039340" lon="-6.5321700">
        <ele>896.2</ele>
        <time>2014-10-01T06:34:48Z</time>
      </trkpt>
      <trkpt lat="42.5039310" lon="-6.5321320">
        <ele>896.5</ele>
        <time>2014-10-01T06:34:49Z</time>
      </trkpt>
      <trkpt lat="42.5039310" lon="-6.5320940">
        <ele>896.9</ele>
        <time>2014-10-01T06:34:50Z</time>
      </trkpt>
      <trkpt lat="42.5039240" lon="-6.5320540">
        <ele>897.2</ele>
        <time>2014-10-01T06:34:51Z</time>
      </trkpt>
      <trkpt lat="42.5039190" lon="-6.5320090">
        <ele>897.6</ele>
        <time>2014-10-01T06:34:52Z</time>
      </trkpt>
      <trkpt lat="42.5039130" lon="-6.5319700">
        <ele>897.9</ele>
        <time>2014-10-01T06:34:53Z</time>
      </trkpt>
      <trkpt lat="42.5039120" lon="-6.5319230">
        <ele>898.3</ele>
        <time>2014-10-01T06:34:54Z</time>
      </trkpt>
      <trkpt lat="42.5039130" lon="-6.5318810">
        <ele>898.7</ele>
        <time>2014-10-01T06:34:55Z</time>
      </trkpt>
      <trkpt lat="42.5039090" lon="-6.5318410">
        <ele>899.0</ele>
        <time>2014-10-01T06:34:56Z</time>
      </trkpt>
      <trkpt lat="42.5039030" lon="-6.5318020">
        <ele>899.4</ele>
        <time>2014-10-01T06:34:57Z</time>
      </trkpt>
      <trkpt lat="42.5038960" lon="-6.5317660">
        <ele>899.7</ele>
        <time>2014-10-01T06:34:58Z</time>
      </trkpt>
      <trkpt lat="42.5038900" lon="-6.5317260">
        <ele>900.0</ele>
        <time>2014-10-01T06:34:59Z</time>
      </trkpt>
      <trkpt lat="42.5038820" lon="-6.5316830">
        <ele>900.4</ele>
        <time>2014-10-01T06:35:00Z</time>
      </trkpt>
      <trkpt lat="42.5038710" lon="-6.5316400">
        <ele>900.8</ele>
        <time>2014-10-01T06:35:01Z</time>
      </trkpt>
      <trkpt lat="42.5038610" lon="-6.5315980">
        <ele>901.2</ele>
        <time>2014-10-01T06:35:02Z</time>
      </trkpt>
      <trkpt lat="42.5038550" lon="-6.5315600">
        <ele>901.6</ele>
        <time>2014-10-01T06:35:03Z</time>
      </trkpt>
      <trkpt lat="42.5038420" lon="-6.5314950">
        <ele>902.1</ele>
        <time>2014-10-01T06:35:05Z</time>
      </trkpt>
      <trkpt lat="42.5038310" lon="-6.5314540">
        <ele>902.5</ele>
        <time>2014-10-01T06:35:06Z</time>
      </trkpt>
      <trkpt lat="42.5038290" lon="-6.5314170">
        <ele>902.9</ele>
        <time>2014-10-01T06:35:07Z</time>
      </trkpt>
      <trkpt lat="42.5038240" lon="-6.5313760">
        <ele>903.2</ele>
        <time>2014-10-01T06:35:08Z</time>
      </trkpt>
      <trkpt lat="42.5038170" lon="-6.5313360">
        <ele>903.6</ele>
        <time>2014-10-01T06:35:09Z</time>
      </trkpt>
      <trkpt lat="42.5038060" lon="-6.5313000">
        <ele>903.9</ele>
        <time>2014-10-01T06:35:10Z</time>
      </trkpt>
      <trkpt lat="42.5037940" lon="-6.5312660">
        <ele>904.3</ele>
        <time>2014-10-01T06:35:11Z</time>
      </trkpt>
      <trkpt lat="42.5037720" lon="-6.5311970">
        <ele>904.9</ele>
        <time>2014-10-01T06:35:13Z</time>
      </trkpt>
      <trkpt lat="42.5037440" lon="-6.5311360">
        <ele>905.5</ele>
        <time>2014-10-01T06:35:15Z</time>
      </trkpt>
      <trkpt lat="42.5037150" lon="-6.5310760">
        <ele>906.1</ele>
        <time>2014-10-01T06:35:17Z</time>
      </trkpt>
      <trkpt lat="42.5036980" lon="-6.5310470">
        <ele>906.4</ele>
        <time>2014-10-01T06:35:18Z</time>
      </trkpt>
      <trkpt lat="42.5036700" lon="-6.5309840">
        <ele>907.0</ele>
        <time>2014-10-01T06:35:20Z</time>
      </trkpt>
      <trkpt lat="42.5036540" lon="-6.5309520">
        <ele>907.4</ele>
        <time>2014-10-01T06:35:21Z</time>
      </trkpt>
      <trkpt lat="42.5036360" lon="-6.5309240">
        <ele>907.7</ele>
        <time>2014-10-01T06:35:22Z</time>
      </trkpt>
      <trkpt lat="42.5036110" lon="-6.5308700">
        <ele>908.2</ele>
        <time>2014-10-01T06:35:24Z</time>
      </trkpt>
      <trkpt lat="42.5035840" lon="-6.5308200">
        <ele>908.8</ele>
        <time>2014-10-01T06:35:26Z</time>
      </trkpt>
      <trkpt lat="42.5035510" lon="-6.5307710">
        <ele>909.3</ele>
        <time>2014-10-01T06:35:28Z</time>
      </trkpt>
      <trkpt lat="42.5035150" lon="-6.5307200">
        <ele>909.9</ele>
        <time>2014-10-01T06:35:30Z</time>
      </trkpt>
      <trkpt lat="42.5034820" lon="-6.5306790">
        <ele>910.4</ele>
        <time>2014-10-01T06:35:32Z</time>
      </trkpt>
      <trkpt lat="42.5034460" lon="-6.5306350">
        <ele>910.9</ele>
        <time>2014-10-01T06:35:34Z</time>
      </trkpt>
      <trkpt lat="42.5034060" lon="-6.5305890">
        <ele>911.5</ele>
        <time>2014-10-01T06:35:36Z</time>
      </trkpt>
      <trkpt lat="42.5033740" lon="-6.5305490">
        <ele>912.0</ele>
        <time>2014-10-01T06:35:38Z</time>
      </trkpt>
      <trkpt lat="42.5033410" lon="-6.5305020">
        <ele>912.5</ele>
        <time>2014-10-01T06:35:40Z</time>
      </trkpt>
      <trkpt lat="42.5033070" lon="-6.5304500">
        <ele>913.1</ele>
        <time>2014-10-01T06:35:42Z</time>
      </trkpt>
      <trkpt lat="42.5032760" lon="-6.5304040">
        <ele>913.6</ele>
        <time>2014-10-01T06:35:44Z</time>
      </trkpt>
      <trkpt lat="42.5032460" lon="-6.5303590">
        <ele>914.1</ele>
        <time>2014-10-01T06:35:46Z</time>
      </trkpt>
      <trkpt lat="42.5032140" lon="-6.5303110">
        <ele>914.7</ele>
        <time>2014-10-01T06:35:48Z</time>
      </trkpt>
      <trkpt lat="42.5031800" lon="-6.5302640">
        <ele>915.2</ele>
        <time>2014-10-01T06:35:50Z</time>
      </trkpt>
      <trkpt lat="42.5031460" lon="-6.5302090">
        <ele>915.8</ele>
        <time>2014-10-01T06:35:52Z</time>
      </trkpt>
      <trkpt lat="42.5031110" lon="-6.5301570">
        <ele>916.5</ele>
        <time>2014-10-01T06:35:54Z</time>
      </trkpt>
      <trkpt lat="42.5030750" lon="-6.5301090">
        <ele>917.1</ele>
        <time>2014-10-01T06:35:56Z</time>
      </trkpt>
      <trkpt lat="42.5030400" lon="-6.5300650">
        <ele>917.7</ele>
        <time>2014-10-01T06:35:58Z</time>
      </trkpt>
      <trkpt lat="42.5030030" lon="-6.5300240">
        <ele>918.3</ele>
        <time>2014-10-01T06:36:00Z</time>
      </trkpt>
      <trkpt lat="42.5029640" lon="-6.5299820">
        <ele>919.0</ele>
        <time>2014-10-01T06:36:02Z</time>
      </trkpt>
      <trkpt lat="42.5029300" lon="-6.5299340">
        <ele>919.6</ele>
        <time>2014-10-01T06:36:04Z</time>
      </trkpt>
      <trkpt lat="42.5028990" lon="-6.5298880">
        <ele>920.2</ele>
        <time>2014-10-01T06:36:06Z</time>
      </trkpt>
      <trkpt lat="42.5028640" lon="-6.5298360">
        <ele>920.9</ele>
        <time>2014-10-01T06:36:08Z</time>
      </trkpt>
      <trkpt lat="42.5028440" lon="-6.5298090">
        <ele>921.3</ele>
        <time>2014-10-01T06:36:09Z</time>
      </trkpt>
      <trkpt lat="42.5028250" lon="-6.5297830">
        <ele>921.4</ele>
        <time>2014-10-01T06:36:10Z</time>
      </trkpt>
      <trkpt lat="42.5027920" lon="-6.5297300">
        <ele>921.7</ele>
        <time>2014-10-01T06:36:12Z</time>
      </trkpt>
      <trkpt lat="42.5027740" lon="-6.5296990">
        <ele>921.8</ele>
        <time>2014-10-01T06:36:13Z</time>
      </trkpt>
      <trkpt lat="42.5027580" lon="-6.5296620">
        <ele>922.0</ele>
        <time>2014-10-01T06:36:14Z</time>
      </trkpt>
      <trkpt lat="42.5027400" lon="-6.5296270">
        <ele>922.1</ele>
        <time>2014-10-01T06:36:15Z</time>
      </trkpt>
      <trkpt lat="42.5027160" lon="-6.5296000">
        <ele>922.3</ele>
        <time>2014-10-01T06:36:16Z</time>
      </trkpt>
      <trkpt lat="42.5026890" lon="-6.5295700">
        <ele>922.5</ele>
        <time>2014-10-01T06:36:17Z</time>
      </trkpt>
      <trkpt lat="42.5026670" lon="-6.5295380">
        <ele>922.7</ele>
        <time>2014-10-01T06:36:18Z</time>
      </trkpt>
      <trkpt lat="42.5026440" lon="-6.5295050">
        <ele>922.9</ele>
        <time>2014-10-01T06:36:19Z</time>
      </trkpt>
      <trkpt lat="42.5026230" lon="-6.5294750">
        <ele>923.1</ele>
        <time>2014-10-01T06:36:20Z</time>
      </trkpt>
      <trkpt lat="42.5026070" lon="-6.5294420">
        <ele>923.3</ele>
        <time>2014-10-01T06:36:21Z</time>
      </trkpt>
      <trkpt lat="42.5025860" lon="-6.5294100">
        <ele>923.5</ele>
        <time>2014-10-01T06:36:22Z</time>
      </trkpt>
      <trkpt lat="42.5025660" lon="-6.5293790">
        <ele>923.7</ele>
        <time>2014-10-01T06:36:23Z</time>
      </trkpt>
      <trkpt lat="42.5025480" lon="-6.5293500">
        <ele>923.9</ele>
        <time>2014-10-01T06:36:24Z</time>
      </trkpt>
      <trkpt lat="42.5025250" lon="-6.5293150">
        <ele>924.1</ele>
        <time>2014-10-01T06:36:25Z</time>
      </trkpt>
      <trkpt lat="42.5025020" lon="-6.5292870">
        <ele>924.3</ele>
        <time>2014-10-01T06:36:26Z</time>
      </trkpt>
      <trkpt lat="42.5024660" lon="-6.5292340">
        <ele>924.7</ele>
        <time>2014-10-01T06:36:28Z</time>
      </trkpt>
      <trkpt lat="42.5024530" lon="-6.5291950">
        <ele>924.9</ele>
        <time>2014-10-01T06:36:29Z</time>
      </trkpt>
      <trkpt lat="42.5024420" lon="-6.5291580">
        <ele>925.0</ele>
        <time>2014-10-01T06:36:30Z</time>
      </trkpt>
      <trkpt lat="42.5024300" lon="-6.5291220">
        <ele>925.2</ele>
        <time>2014-10-01T06:36:31Z</time>
      </trkpt>
      <trkpt lat="42.5024160" lon="-6.5290850">
        <ele>925.4</ele>
        <time>2014-10-01T06:36:32Z</time>
      </trkpt>
      <trkpt lat="42.5024030" lon="-6.5290490">
        <ele>925.6</ele>
        <time>2014-10-01T06:36:33Z</time>
      </trkpt>
      <trkpt lat="42.5023820" lon="-6.5290130">
        <ele>925.9</ele>
        <time>2014-10-01T06:36:34Z</time>
      </trkpt>
      <trkpt lat="42.5023610" lon="-6.5289710">
        <ele>926.1</ele>
        <time>2014-10-01T06:36:35Z</time>
      </trkpt>
      <trkpt lat="42.5023450" lon="-6.5289280">
        <ele>926.3</ele>
        <time>2014-10-01T06:36:36Z</time>
      </trkpt>
      <trkpt lat="42.5023340" lon="-6.5288820">
        <ele>926.6</ele>
        <time>2014-10-01T06:36:37Z</time>
      </trkpt>
      <trkpt lat="42.5023290" lon="-6.5288350">
        <ele>926.8</ele>
        <time>2014-10-01T06:36:38Z</time>
      </trkpt>
      <trkpt lat="42.5023250" lon="-6.5287740">
        <ele>927.0</ele>
        <time>2014-10-01T06:36:39Z</time>
      </trkpt>
      <trkpt lat="42.5023180" lon="-6.5287170">
        <ele>927.3</ele>
        <time>2014-10-01T06:36:40Z</time>
      </trkpt>
      <trkpt lat="42.5023040" lon="-6.5286690">
        <ele>927.5</ele>
        <time>2014-10-01T06:36:41Z</time>
      </trkpt>
      <trkpt lat="42.5022890" lon="-6.5286230">
        <ele>927.7</ele>
        <time>2014-10-01T06:36:42Z</time>
      </trkpt>
      <trkpt lat="42.5022760" lon="-6.5285790">
        <ele>927.9</ele>
        <time>2014-10-01T06:36:43Z</time>
      </trkpt>
      <trkpt lat="42.5022560" lon="-6.5285030">
        <ele>928.3</ele>
        <time>2014-10-01T06:36:45Z</time>
      </trkpt>
      <trkpt lat="42.5022410" lon="-6.5284580">
        <ele>928.5</ele>
        <time>2014-10-01T06:36:46Z</time>
      </trkpt>
      <trkpt lat="42.5022330" lon="-6.5284140">
        <ele>928.8</ele>
        <time>2014-10-01T06:36:47Z</time>
      </trkpt>
      <trkpt lat="42.5022230" lon="-6.5283460">
        <ele>929.1</ele>
        <time>2014-10-01T06:36:49Z</time>
      </trkpt>
      <trkpt lat="42.5022090" lon="-6.5282770">
        <ele>929.4</ele>
        <time>2014-10-01T06:36:51Z</time>
      </trkpt>
      <trkpt lat="42.5021880" lon="-6.5282440">
        <ele>929.6</ele>
        <time>2014-10-01T06:36:52Z</time>
      </trkpt>
      <trkpt lat="42.5021760" lon="-6.5282050">
        <ele>929.7</ele>
        <time>2014-10-01T06:36:53Z</time>
      </trkpt>
      <trkpt lat="42.5021690" lon="-6.5281640">
        <ele>929.9</ele>
        <time>2014-10-01T06:36:54Z</time>
      </trkpt>
      <trkpt lat="42.5021670" lon="-6.5281220">
        <ele>930.1</ele>
        <time>2014-10-01T06:36:55Z</time>
      </trkpt>
      <trkpt lat="42.5021580" lon="-6.5280720">
        <ele>930.2</ele>
        <time>2014-10-01T06:36:56Z</time>
      </trkpt>
      <trkpt lat="42.5021460" lon="-6.5280160">
        <ele>930.4</ele>
        <time>2014-10-01T06:36:57Z</time>
      </trkpt>
      <trkpt lat="42.5021330" lon="-6.5279670">
        <ele>930.6</ele>
        <time>2014-10-01T06:36:58Z</time>
      </trkpt>
      <trkpt lat="42.5021250" lon="-6.5279190">
        <ele>930.8</ele>
        <time>2014-10-01T06:36:59Z</time>
      </trkpt>
      <trkpt lat="42.5021120" lon="-6.5278690">
        <ele>931.0</ele>
        <time>2014-10-01T06:37:00Z</time>
      </trkpt>
      <trkpt lat="42.5021070" lon="-6.5278210">
        <ele>931.1</ele>
        <time>2014-10-01T06:37:01Z</time>
      </trkpt>
      <trkpt lat="42.5021020" lon="-6.5277770">
        <ele>931.3</ele>
        <time>2014-10-01T06:37:02Z</time>
      </trkpt>
      <trkpt lat="42.5020910" lon="-6.5277370">
        <ele>931.5</ele>
        <time>2014-10-01T06:37:03Z</time>
      </trkpt>
      <trkpt lat="42.5020800" lon="-6.5276990">
        <ele>931.6</ele>
        <time>2014-10-01T06:37:04Z</time>
      </trkpt>
      <trkpt lat="42.5020620" lon="-6.5276480">
        <ele>931.8</ele>
        <time>2014-10-01T06:37:05Z</time>
      </trkpt>
      <trkpt lat="42.5020480" lon="-6.5276100">
        <ele>932.0</ele>
        <time>2014-10-01T06:37:06Z</time>
      </trkpt>
      <trkpt lat="42.5020360" lon="-6.5275660">
        <ele>932.1</ele>
        <time>2014-10-01T06:37:07Z</time>
      </trkpt>
      <trkpt lat="42.5020210" lon="-6.5275170">
        <ele>932.3</ele>
        <time>2014-10-01T06:37:08Z</time>
      </trkpt>
      <trkpt lat="42.5020050" lon="-6.5274640">
        <ele>932.5</ele>
        <time>2014-10-01T06:37:09Z</time>
      </trkpt>
      <trkpt lat="42.5019880" lon="-6.5274130">
        <ele>932.8</ele>
        <time>2014-10-01T06:37:10Z</time>
      </trkpt>
      <trkpt lat="42.5019710" lon="-6.5273590">
        <ele>933.0</ele>
        <time>2014-10-01T06:37:11Z</time>
      </trkpt>
      <trkpt lat="42.5019570" lon="-6.5273120">
        <ele>933.2</ele>
        <time>2014-10-01T06:37:12Z</time>
      </trkpt>
      <trkpt lat="42.5019390" lon="-6.5272640">
        <ele>933.4</ele>
        <time>2014-10-01T06:37:13Z</time>
      </trkpt>
      <trkpt lat="42.5019250" lon="-6.5272110">
        <ele>933.7</ele>
        <time>2014-10-01T06:37:14Z</time>
      </trkpt>
      <trkpt lat="42.5019060" lon="-6.5271620">
        <ele>933.9</ele>
        <time>2014-10-01T06:37:15Z</time>
      </trkpt>
      <trkpt lat="42.5018770" lon="-6.5271230">
        <ele>934.1</ele>
        <time>2014-10-01T06:37:16Z</time>
      </trkpt>
      <trkpt lat="42.5018500" lon="-6.5270780">
        <ele>934.4</ele>
        <time>2014-10-01T06:37:17Z</time>
      </trkpt>
      <trkpt lat="42.5018290" lon="-6.5270330">
        <ele>934.6</ele>
        <time>2014-10-01T06:37:18Z</time>
      </trkpt>
      <trkpt lat="42.5018050" lon="-6.5269900">
        <ele>934.9</ele>
        <time>2014-10-01T06:37:19Z</time>
      </trkpt>
      <trkpt lat="42.5017810" lon="-6.5269390">
        <ele>935.2</ele>
        <time>2014-10-01T06:37:20Z</time>
      </trkpt>
      <trkpt lat="42.5017620" lon="-6.5268920">
        <ele>935.4</ele>
        <time>2014-10-01T06:37:21Z</time>
      </trkpt>
      <trkpt lat="42.5017410" lon="-6.5268440">
        <ele>935.7</ele>
        <time>2014-10-01T06:37:22Z</time>
      </trkpt>
      <trkpt lat="42.5017190" lon="-6.5268010">
        <ele>936.0</ele>
        <time>2014-10-01T06:37:23Z</time>
      </trkpt>
      <trkpt lat="42.5016960" lon="-6.5267600">
        <ele>936.2</ele>
        <time>2014-10-01T06:37:24Z</time>
      </trkpt>
      <trkpt lat="42.5016760" lon="-6.5267220">
        <ele>936.5</ele>
        <time>2014-10-01T06:37:25Z</time>
      </trkpt>
      <trkpt lat="42.5016550" lon="-6.5266780">
        <ele>936.7</ele>
        <time>2014-10-01T06:37:26Z</time>
      </trkpt>
      <trkpt lat="42.5016320" lon="-6.5266300">
        <ele>937.0</ele>
        <time>2014-10-01T06:37:27Z</time>
      </trkpt>
      <trkpt lat="42.5016110" lon="-6.5265870">
        <ele>937.2</ele>
        <time>2014-10-01T06:37:28Z</time>
      </trkpt>
      <trkpt lat="42.5015880" lon="-6.5265470">
        <ele>937.5</ele>
        <time>2014-10-01T06:37:29Z</time>
      </trkpt>
      <trkpt lat="42.5015640" lon="-6.5265200">
        <ele>937.7</ele>
        <time>2014-10-01T06:37:30Z</time>
      </trkpt>
      <trkpt lat="42.5015400" lon="-6.5264830">
        <ele>937.9</ele>
        <time>2014-10-01T06:37:31Z</time>
      </trkpt>
      <trkpt lat="42.5015060" lon="-6.5264400">
        <ele>938.3</ele>
        <time>2014-10-01T06:37:32Z</time>
      </trkpt>
      <trkpt lat="42.5014660" lon="-6.5264080">
        <ele>938.6</ele>
        <time>2014-10-01T06:37:33Z</time>
      </trkpt>
      <trkpt lat="42.5014380" lon="-6.5263810">
        <ele>938.9</ele>
        <time>2014-10-01T06:37:34Z</time>
      </trkpt>
      <trkpt lat="42.5014100" lon="-6.5263530">
        <ele>939.2</ele>
        <time>2014-10-01T06:37:35Z</time>
      </trkpt>
      <trkpt lat="42.5013780" lon="-6.5263250">
        <ele>939.5</ele>
        <time>2014-10-01T06:37:36Z</time>
      </trkpt>
      <trkpt lat="42.5013490" lon="-6.5263000">
        <ele>939.7</ele>
        <time>2014-10-01T06:37:37Z</time>
      </trkpt>
      <trkpt lat="42.5013220" lon="-6.5262880">
        <ele>940.0</ele>
        <time>2014-10-01T06:37:38Z</time>
      </trkpt>
      <trkpt lat="42.5012890" lon="-6.5262730">
        <ele>940.2</ele>
        <time>2014-10-01T06:37:39Z</time>
      </trkpt>
      <trkpt lat="42.5012540" lon="-6.5262600">
        <ele>940.5</ele>
        <time>2014-10-01T06:37:40Z</time>
      </trkpt>
      <trkpt lat="42.5012130" lon="-6.5262560">
        <ele>940.8</ele>
        <time>2014-10-01T06:37:41Z</time>
      </trkpt>
      <trkpt lat="42.5011760" lon="-6.5262540">
        <ele>941.1</ele>
        <time>2014-10-01T06:37:42Z</time>
      </trkpt>
      <trkpt lat="42.5011360" lon="-6.5262500">
        <ele>941.5</ele>
        <time>2014-10-01T06:37:43Z</time>
      </trkpt>
      <trkpt lat="42.5011040" lon="-6.5262470">
        <ele>941.8</ele>
        <time>2014-10-01T06:37:44Z</time>
      </trkpt>
      <trkpt lat="42.5010730" lon="-6.5262360">
        <ele>942.0</ele>
        <time>2014-10-01T06:37:45Z</time>
      </trkpt>
      <trkpt lat="42.5010420" lon="-6.5262310">
        <ele>942.3</ele>
        <time>2014-10-01T06:37:46Z</time>
      </trkpt>
      <trkpt lat="42.5010100" lon="-6.5262240">
        <ele>942.7</ele>
        <time>2014-10-01T06:37:47Z</time>
      </trkpt>
      <trkpt lat="42.5009750" lon="-6.5262190">
        <ele>943.0</ele>
        <time>2014-10-01T06:37:48Z</time>
      </trkpt>
      <trkpt lat="42.5009440" lon="-6.5262130">
        <ele>943.3</ele>
        <time>2014-10-01T06:37:49Z</time>
      </trkpt>
      <trkpt lat="42.5009080" lon="-6.5262030">
        <ele>943.7</ele>
        <time>2014-10-01T06:37:50Z</time>
      </trkpt>
      <trkpt lat="42.5008690" lon="-6.5261940">
        <ele>944.2</ele>
        <time>2014-10-01T06:37:51Z</time>
      </trkpt>
      <trkpt lat="42.5008340" lon="-6.5261930">
        <ele>944.6</ele>
        <time>2014-10-01T06:37:52Z</time>
      </trkpt>
      <trkpt lat="42.5007970" lon="-6.5261970">
        <ele>945.0</ele>
        <time>2014-10-01T06:37:53Z</time>
      </trkpt>
      <trkpt lat="42.5007650" lon="-6.5261960">
        <ele>945.3</ele>
        <time>2014-10-01T06:37:54Z</time>
      </trkpt>
      <trkpt lat="42.5007380" lon="-6.5261980">
        <ele>945.6</ele>
        <time>2014-10-01T06:37:55Z</time>
      </trkpt>
      <trkpt lat="42.5006880" lon="-6.5261940">
        <ele>946.2</ele>
        <time>2014-10-01T06:37:57Z</time>
      </trkpt>
      <trkpt lat="42.5006360" lon="-6.5261940">
        <ele>946.7</ele>
        <time>2014-10-01T06:37:59Z</time>
      </trkpt>
      <trkpt lat="42.5006050" lon="-6.5261910">
        <ele>947.1</ele>
        <time>2014-10-01T06:38:00Z</time>
      </trkpt>
      <trkpt lat="42.5005750" lon="-6.5261790">
        <ele>947.4</ele>
        <time>2014-10-01T06:38:01Z</time>
      </trkpt>
      <trkpt lat="42.5005470" lon="-6.5261700">
        <ele>947.7</ele>
        <time>2014-10-01T06:38:02Z</time>
      </trkpt>
      <trkpt lat="42.5004940" lon="-6.5261580">
        <ele>948.2</ele>
        <time>2014-10-01T06:38:04Z</time>
      </trkpt>
      <trkpt lat="42.5004420" lon="-6.5261370">
        <ele>948.7</ele>
        <time>2014-10-01T06:38:06Z</time>
      </trkpt>
      <trkpt lat="42.5004140" lon="-6.5261220">
        <ele>949.0</ele>
        <time>2014-10-01T06:38:07Z</time>
      </trkpt>
      <trkpt lat="42.5003820" lon="-6.5261080">
        <ele>949.3</ele>
        <time>2014-10-01T06:38:08Z</time>
      </trkpt>
      <trkpt lat="42.5003510" lon="-6.5260920">
        <ele>949.6</ele>
        <time>2014-10-01T06:38:09Z</time>
      </trkpt>
      <trkpt lat="42.5003050" lon="-6.5260570">
        <ele>950.1</ele>
        <time>2014-10-01T06:38:11Z</time>
      </trkpt>
      <trkpt lat="42.5002780" lon="-6.5260360">
        <ele>950.3</ele>
        <time>2014-10-01T06:38:12Z</time>
      </trkpt>
      <trkpt lat="42.5002510" lon="-6.5260170">
        <ele>950.6</ele>
        <time>2014-10-01T06:38:13Z</time>
      </trkpt>
      <trkpt lat="42.5002240" lon="-6.5259970">
        <ele>950.8</ele>
        <time>2014-10-01T06:38:14Z</time>
      </trkpt>
      <trkpt lat="42.5001940" lon="-6.5259740">
        <ele>951.1</ele>
        <time>2014-10-01T06:38:15Z</time>
      </trkpt>
      <trkpt lat="42.5001680" lon="-6.5259510">
        <ele>951.4</ele>
        <time>2014-10-01T06:38:16Z</time>
      </trkpt>
      <trkpt lat="42.5001220" lon="-6.5259070">
        <ele>951.8</ele>
        <time>2014-10-01T06:38:18Z</time>
      </trkpt>
      <trkpt lat="42.5000980" lon="-6.5258880">
        <ele>952.0</ele>
        <time>2014-10-01T06:38:19Z</time>
      </trkpt>
      <trkpt lat="42.5000720" lon="-6.5258710">
        <ele>952.2</ele>
        <time>2014-10-01T06:38:20Z</time>
      </trkpt>
      <trkpt lat="42.5000440" lon="-6.5258520">
        <ele>952.4</ele>
        <time>2014-10-01T06:38:21Z</time>
      </trkpt>
      <trkpt lat="42.5000200" lon="-6.5258320">
        <ele>952.6</ele>
        <time>2014-10-01T06:38:22Z</time>
      </trkpt>
      <trkpt lat="42.4999930" lon="-6.5258120">
        <ele>952.8</ele>
        <time>2014-10-01T06:38:23Z</time>
      </trkpt>
      <trkpt lat="42.4999680" lon="-6.5257880">
        <ele>953.1</ele>
        <time>2014-10-01T06:38:24Z</time>
      </trkpt>
      <trkpt lat="42.4999350" lon="-6.5257590">
        <ele>953.3</ele>
        <time>2014-10-01T06:38:25Z</time>
      </trkpt>
      <trkpt lat="42.4999040" lon="-6.5257330">
        <ele>953.6</ele>
        <time>2014-10-01T06:38:26Z</time>
      </trkpt>
      <trkpt lat="42.4998720" lon="-6.5257040">
        <ele>953.8</ele>
        <time>2014-10-01T06:38:27Z</time>
      </trkpt>
      <trkpt lat="42.4998460" lon="-6.5256780">
        <ele>954.0</ele>
        <time>2014-10-01T06:38:28Z</time>
      </trkpt>
      <trkpt lat="42.4998180" lon="-6.5256460">
        <ele>954.3</ele>
        <time>2014-10-01T06:38:29Z</time>
      </trkpt>
      <trkpt lat="42.4997900" lon="-6.5256160">
        <ele>954.5</ele>
        <time>2014-10-01T06:38:30Z</time>
      </trkpt>
      <trkpt lat="42.4997670" lon="-6.5255900">
        <ele>954.7</ele>
        <time>2014-10-01T06:38:31Z</time>
      </trkpt>
      <trkpt lat="42.4997390" lon="-6.5255670">
        <ele>954.9</ele>
        <time>2014-10-01T06:38:32Z</time>
      </trkpt>
      <trkpt lat="42.4997110" lon="-6.5255360">
        <ele>955.1</ele>
        <time>2014-10-01T06:38:33Z</time>
      </trkpt>
      <trkpt lat="42.4996790" lon="-6.5255060">
        <ele>955.3</ele>
        <time>2014-10-01T06:38:34Z</time>
      </trkpt>
      <trkpt lat="42.4996550" lon="-6.5254810">
        <ele>955.5</ele>
        <time>2014-10-01T06:38:35Z</time>
      </trkpt>
      <trkpt lat="42.4996350" lon="-6.5254520">
        <ele>955.6</ele>
        <time>2014-10-01T06:38:36Z</time>
      </trkpt>
      <trkpt lat="42.4995870" lon="-6.5253920">
        <ele>956.0</ele>
        <time>2014-10-01T06:38:38Z</time>
      </trkpt>
      <trkpt lat="42.4995540" lon="-6.5253590">
        <ele>956.3</ele>
        <time>2014-10-01T06:38:39Z</time>
      </trkpt>
      <trkpt lat="42.4995230" lon="-6.5253300">
        <ele>956.5</ele>
        <time>2014-10-01T06:38:40Z</time>
      </trkpt>
      <trkpt lat="42.4994890" lon="-6.5253010">
        <ele>956.7</ele>
        <time>2014-10-01T06:38:41Z</time>
      </trkpt>
      <trkpt lat="42.4994550" lon="-6.5252800">
        <ele>957.0</ele>
        <time>2014-10-01T06:38:42Z</time>
      </trkpt>
      <trkpt lat="42.4994210" lon="-6.5252570">
        <ele>957.2</ele>
        <time>2014-10-01T06:38:43Z</time>
      </trkpt>
      <trkpt lat="42.4993860" lon="-6.5252360">
        <ele>957.5</ele>
        <time>2014-10-01T06:38:44Z</time>
      </trkpt>
      <trkpt lat="42.4993520" lon="-6.5252140">
        <ele>957.7</ele>
        <time>2014-10-01T06:38:45Z</time>
      </trkpt>
      <trkpt lat="42.4993210" lon="-6.5251910">
        <ele>957.9</ele>
        <time>2014-10-01T06:38:46Z</time>
      </trkpt>
      <trkpt lat="42.4992890" lon="-6.5251660">
        <ele>958.2</ele>
        <time>2014-10-01T06:38:47Z</time>
      </trkpt>
      <trkpt lat="42.4992570" lon="-6.5251410">
        <ele>958.5</ele>
        <time>2014-10-01T06:38:48Z</time>
      </trkpt>
      <trkpt lat="42.4992230" lon="-6.5251140">
        <ele>958.8</ele>
        <time>2014-10-01T06:38:49Z</time>
      </trkpt>
      <trkpt lat="42.4991940" lon="-6.5250930">
        <ele>959.0</ele>
        <time>2014-10-01T06:38:50Z</time>
      </trkpt>
      <trkpt lat="42.4991630" lon="-6.5250690">
        <ele>959.3</ele>
        <time>2014-10-01T06:38:51Z</time>
      </trkpt>
      <trkpt lat="42.4991350" lon="-6.5250520">
        <ele>959.5</ele>
        <time>2014-10-01T06:38:52Z</time>
      </trkpt>
      <trkpt lat="42.4991010" lon="-6.5250320">
        <ele>959.8</ele>
        <time>2014-10-01T06:38:53Z</time>
      </trkpt>
      <trkpt lat="42.4990650" lon="-6.5250140">
        <ele>960.1</ele>
        <time>2014-10-01T06:38:54Z</time>
      </trkpt>
      <trkpt lat="42.4990250" lon="-6.5249940">
        <ele>960.4</ele>
        <time>2014-10-01T06:38:55Z</time>
      </trkpt>
      <trkpt lat="42.4989900" lon="-6.5249790">
        <ele>960.6</ele>
        <time>2014-10-01T06:38:56Z</time>
      </trkpt>
      <trkpt lat="42.4989540" lon="-6.5249690">
        <ele>960.8</ele>
        <time>2014-10-01T06:38:57Z</time>
      </trkpt>
      <trkpt lat="42.4989210" lon="-6.5249570">
        <ele>961.0</ele>
        <time>2014-10-01T06:38:58Z</time>
      </trkpt>
      <trkpt lat="42.4988850" lon="-6.5249470">
        <ele>961.2</ele>
        <time>2014-10-01T06:38:59Z</time>
      </trkpt>
      <trkpt lat="42.4988490" lon="-6.5249360">
        <ele>961.4</ele>
        <time>2014-10-01T06:39:00Z</time>
      </trkpt>
      <trkpt lat="42.4988160" lon="-6.5249320">
        <ele>961.5</ele>
        <time>2014-10-01T06:39:01Z</time>
      </trkpt>
      <trkpt lat="42.4987770" lon="-6.5249210">
        <ele>961.7</ele>
        <time>2014-10-01T06:39:02Z</time>
      </trkpt>
      <trkpt lat="42.4987390" lon="-6.5249160">
        <ele>961.9</ele>
        <time>2014-10-01T06:39:03Z</time>
      </trkpt>
      <trkpt lat="42.4986950" lon="-6.5249170">
        <ele>962.1</ele>
        <time>2014-10-01T06:39:04Z</time>
      </trkpt>
      <trkpt lat="42.4986500" lon="-6.5249180">
        <ele>962.3</ele>
        <time>2014-10-01T06:39:05Z</time>
      </trkpt>
      <trkpt lat="42.4986050" lon="-6.5249190">
        <ele>962.5</ele>
        <time>2014-10-01T06:39:06Z</time>
      </trkpt>
      <trkpt lat="42.4985650" lon="-6.5249220">
        <ele>962.8</ele>
        <time>2014-10-01T06:39:07Z</time>
      </trkpt>
      <trkpt lat="42.4985230" lon="-6.5249250">
        <ele>963.0</ele>
        <time>2014-10-01T06:39:08Z</time>
      </trkpt>
      <trkpt lat="42.4984800" lon="-6.5249330">
        <ele>963.2</ele>
        <time>2014-10-01T06:39:09Z</time>
      </trkpt>
      <trkpt lat="42.4984440" lon="-6.5249500">
        <ele>963.4</ele>
        <time>2014-10-01T06:39:10Z</time>
      </trkpt>
      <trkpt lat="42.4984010" lon="-6.5249650">
        <ele>963.7</ele>
        <time>2014-10-01T06:39:11Z</time>
      </trkpt>
      <trkpt lat="42.4983620" lon="-6.5249690">
        <ele>963.9</ele>
        <time>2014-10-01T06:39:12Z</time>
      </trkpt>
      <trkpt lat="42.4983230" lon="-6.5249700">
        <ele>964.2</ele>
        <time>2014-10-01T06:39:13Z</time>
      </trkpt>
      <trkpt lat="42.4982870" lon="-6.5249690">
        <ele>964.4</ele>
        <time>2014-10-01T06:39:14Z</time>
      </trkpt>
      <trkpt lat="42.4982450" lon="-6.5249640">
        <ele>964.7</ele>
        <time>2014-10-01T06:39:15Z</time>
      </trkpt>
      <trkpt lat="42.4982030" lon="-6.5249610">
        <ele>965.0</ele>
        <time>2014-10-01T06:39:16Z</time>
      </trkpt>
      <trkpt lat="42.4981640" lon="-6.5249640">
        <ele>965.3</ele>
        <time>2014-10-01T06:39:17Z</time>
      </trkpt>
      <trkpt lat="42.4981260" lon="-6.5249740">
        <ele>965.6</ele>
        <time>2014-10-01T06:39:18Z</time>
      </trkpt>
      <trkpt lat="42.4980890" lon="-6.5249740">
        <ele>965.9</ele>
        <time>2014-10-01T06:39:19Z</time>
      </trkpt>
      <trkpt lat="42.4980520" lon="-6.5249750">
        <ele>966.1</ele>
        <time>2014-10-01T06:39:20Z</time>
      </trkpt>
      <trkpt lat="42.4980180" lon="-6.5249830">
        <ele>966.3</ele>
        <time>2014-10-01T06:39:21Z</time>
      </trkpt>
      <trkpt lat="42.4979850" lon="-6.5249870">
        <ele>966.6</ele>
        <time>2014-10-01T06:39:22Z</time>
      </trkpt>
      <trkpt lat="42.4979500" lon="-6.5249830">
        <ele>966.8</ele>
        <time>2014-10-01T06:39:23Z</time>
      </trkpt>
      <trkpt lat="42.4979130" lon="-6.5249800">
        <ele>967.0</ele>
        <time>2014-10-01T06:39:24Z</time>
      </trkpt>
      <trkpt lat="42.4978740" lon="-6.5249790">
        <ele>967.3</ele>
        <time>2014-10-01T06:39:25Z</time>
      </trkpt>
      <trkpt lat="42.4978400" lon="-6.5249780">
        <ele>967.5</ele>
        <time>2014-10-01T06:39:26Z</time>
      </trkpt>
      <trkpt lat="42.4978070" lon="-6.5249780">
        <ele>967.7</ele>
        <time>2014-10-01T06:39:27Z</time>
      </trkpt>
      <trkpt lat="42.4977730" lon="-6.5249850">
        <ele>967.8</ele>
        <time>2014-10-01T06:39:28Z</time>
      </trkpt>
      <trkpt lat="42.4977370" lon="-6.5249830">
        <ele>968.0</ele>
        <time>2014-10-01T06:39:29Z</time>
      </trkpt>
      <trkpt lat="42.4976970" lon="-6.5249750">
        <ele>968.2</ele>
        <time>2014-10-01T06:39:30Z</time>
      </trkpt>
      <trkpt lat="42.4976570" lon="-6.5249670">
        <ele>968.3</ele>
        <time>2014-10-01T06:39:31Z</time>
      </trkpt>
      <trkpt lat="42.4976170" lon="-6.5249650">
        <ele>968.5</ele>
        <time>2014-10-01T06:39:32Z</time>
      </trkpt>
      <trkpt lat="42.4975800" lon="-6.5249630">
        <ele>968.6</ele>
        <time>2014-10-01T06:39:33Z</time>
      </trkpt>
      <trkpt lat="42.4975410" lon="-6.5249660">
        <ele>968.7</ele>
        <time>2014-10-01T06:39:34Z</time>
      </trkpt>
      <trkpt lat="42.4975000" lon="-6.5249700">
        <ele>968.8</ele>
        <time>2014-10-01T06:39:35Z</time>
      </trkpt>
      <trkpt lat="42.4974550" lon="-6.5249760">
        <ele>968.9</ele>
        <time>2014-10-01T06:39:36Z</time>
      </trkpt>
      <trkpt lat="42.4974080" lon="-6.5249790">
        <ele>969.0</ele>
        <time>2014-10-01T06:39:37Z</time>
      </trkpt>
      <trkpt lat="42.4973580" lon="-6.5249790">
        <ele>969.0</ele>
        <time>2014-10-01T06:39:38Z</time>
      </trkpt>
      <trkpt lat="42.4973110" lon="-6.5249800">
        <ele>969.1</ele>
        <time>2014-10-01T06:39:39Z</time>
      </trkpt>
      <trkpt lat="42.4972650" lon="-6.5249770">
        <ele>969.1</ele>
        <time>2014-10-01T06:39:40Z</time>
      </trkpt>
      <trkpt lat="42.4972230" lon="-6.5249710">
        <ele>969.1</ele>
        <time>2014-10-01T06:39:41Z</time>
      </trkpt>
      <trkpt lat="42.4971820" lon="-6.5249700">
        <ele>969.1</ele>
        <time>2014-10-01T06:39:42Z</time>
      </trkpt>
      <trkpt lat="42.4971370" lon="-6.5249570">
        <ele>969.0</ele>
        <time>2014-10-01T06:39:43Z</time>
      </trkpt>
      <trkpt lat="42.4970920" lon="-6.5249470">
        <ele>969.0</ele>
        <time>2014-10-01T06:39:44Z</time>
      </trkpt>
      <trkpt lat="42.4970420" lon="-6.5249430">
        <ele>969.0</ele>
        <time>2014-10-01T06:39:45Z</time>
      </trkpt>
      <trkpt lat="42.4969970" lon="-6.5249430">
        <ele>968.9</ele>
        <time>2014-10-01T06:39:46Z</time>
      </trkpt>
      <trkpt lat="42.4969580" lon="-6.5249400">
        <ele>968.9</ele>
        <time>2014-10-01T06:39:47Z</time>
      </trkpt>
      <trkpt lat="42.4969140" lon="-6.5249330">
        <ele>968.8</ele>
        <time>2014-10-01T06:39:48Z</time>
      </trkpt>
      <trkpt lat="42.4968640" lon="-6.5249260">
        <ele>968.8</ele>
        <time>2014-10-01T06:39:49Z</time>
      </trkpt>
      <trkpt lat="42.4968100" lon="-6.5249250">
        <ele>968.8</ele>
        <time>2014-10-01T06:39:50Z</time>
      </trkpt>
      <trkpt lat="42.4967550" lon="-6.5249230">
        <ele>968.8</ele>
        <time>2014-10-01T06:39:51Z</time>
      </trkpt>
      <trkpt lat="42.4967020" lon="-6.5249170">
        <ele>968.8</ele>
        <time>2014-10-01T06:39:52Z</time>
      </trkpt>
      <trkpt lat="42.4966520" lon="-6.5249110">
        <ele>968.8</ele>
        <time>2014-10-01T06:39:53Z</time>
      </trkpt>
      <trkpt lat="42.4966040" lon="-6.5249080">
        <ele>968.8</ele>
        <time>2014-10-01T06:39:54Z</time>
      </trkpt>
      <trkpt lat="42.4965580" lon="-6.5249000">
        <ele>968.7</ele>
        <time>2014-10-01T06:39:55Z</time>
      </trkpt>
      <trkpt lat="42.4965110" lon="-6.5248920">
        <ele>968.7</ele>
        <time>2014-10-01T06:39:56Z</time>
      </trkpt>
      <trkpt lat="42.4964640" lon="-6.5248860">
        <ele>968.7</ele>
        <time>2014-10-01T06:39:57Z</time>
      </trkpt>
      <trkpt lat="42.4964150" lon="-6.5248800">
        <ele>968.7</ele>
        <time>2014-10-01T06:39:58Z</time>
      </trkpt>
      <trkpt lat="42.4963650" lon="-6.5248740">
        <ele>968.7</ele>
        <time>2014-10-01T06:39:59Z</time>
      </trkpt>
      <trkpt lat="42.4963170" lon="-6.5248720">
        <ele>968.7</ele>
        <time>2014-10-01T06:40:00Z</time>
      </trkpt>
      <trkpt lat="42.4962710" lon="-6.5248680">
        <ele>968.8</ele>
        <time>2014-10-01T06:40:01Z</time>
      </trkpt>
      <trkpt lat="42.4962220" lon="-6.5248640">
        <ele>968.8</ele>
        <time>2014-10-01T06:40:02Z</time>
      </trkpt>
      <trkpt lat="42.4961720" lon="-6.5248620">
        <ele>968.8</ele>
        <time>2014-10-01T06:40:03Z</time>
      </trkpt>
      <trkpt lat="42.4961210" lon="-6.5248600">
        <ele>968.8</ele>
        <time>2014-10-01T06:40:04Z</time>
      </trkpt>
      <trkpt lat="42.4960690" lon="-6.5248590">
        <ele>968.9</ele>
        <time>2014-10-01T06:40:05Z</time>
      </trkpt>
      <trkpt lat="42.4960120" lon="-6.5248580">
        <ele>968.8</ele>
        <time>2014-10-01T06:40:06Z</time>
      </trkpt>
      <trkpt lat="42.4959560" lon="-6.5248560">
        <ele>968.8</ele>
        <time>2014-10-01T06:40:07Z</time>
      </trkpt>
      <trkpt lat="42.4958990" lon="-6.5248570">
        <ele>968.8</ele>
        <time>2014-10-01T06:40:08Z</time>
      </trkpt>
      <trkpt lat="42.4958420" lon="-6.5248570">
        <ele>968.8</ele>
        <time>2014-10-01T06:40:09Z</time>
      </trkpt>
      <trkpt lat="42.4957840" lon="-6.5248570">
        <ele>968.8</ele>
        <time>2014-10-01T06:40:10Z</time>
      </trkpt>
      <trkpt lat="42.4957270" lon="-6.5248590">
        <ele>968.8</ele>
        <time>2014-10-01T06:40:11Z</time>
      </trkpt>
      <trkpt lat="42.4956660" lon="-6.5248610">
        <ele>968.9</ele>
        <time>2014-10-01T06:40:12Z</time>
      </trkpt>
      <trkpt lat="42.4956070" lon="-6.5248650">
        <ele>968.9</ele>
        <time>2014-10-01T06:40:13Z</time>
      </trkpt>
      <trkpt lat="42.4955470" lon="-6.5248740">
        <ele>968.8</ele>
        <time>2014-10-01T06:40:14Z</time>
      </trkpt>
      <trkpt lat="42.4954880" lon="-6.5248780">
        <ele>968.8</ele>
        <time>2014-10-01T06:40:15Z</time>
      </trkpt>
      <trkpt lat="42.4954290" lon="-6.5248770">
        <ele>968.8</ele>
        <time>2014-10-01T06:40:16Z</time>
      </trkpt>
      <trkpt lat="42.4953640" lon="-6.5248750">
        <ele>968.8</ele>
        <time>2014-10-01T06:40:17Z</time>
      </trkpt>
      <trkpt lat="42.4953020" lon="-6.5248720">
        <ele>968.8</ele>
        <time>2014-10-01T06:40:18Z</time>
      </trkpt>
      <trkpt lat="42.4952390" lon="-6.5248720">
        <ele>968.8</ele>
        <time>2014-10-01T06:40:19Z</time>
      </trkpt>
      <trkpt lat="42.4951750" lon="-6.5248740">
        <ele>968.9</ele>
        <time>2014-10-01T06:40:20Z</time>
      </trkpt>
      <trkpt lat="42.4951130" lon="-6.5248780">
        <ele>968.9</ele>
        <time>2014-10-01T06:40:21Z</time>
      </trkpt>
      <trkpt lat="42.4950530" lon="-6.5248860">
        <ele>968.9</ele>
        <time>2014-10-01T06:40:22Z</time>
      </trkpt>
      <trkpt lat="42.4949940" lon="-6.5248930">
        <ele>969.0</ele>
        <time>2014-10-01T06:40:23Z</time>
      </trkpt>
      <trkpt lat="42.4949370" lon="-6.5249000">
        <ele>969.0</ele>
        <time>2014-10-01T06:40:24Z</time>
      </trkpt>
      <trkpt lat="42.4948780" lon="-6.5249070">
        <ele>969.1</ele>
        <time>2014-10-01T06:40:25Z</time>
      </trkpt>
      <trkpt lat="42.4948160" lon="-6.5249200">
        <ele>969.2</ele>
        <time>2014-10-01T06:40:26Z</time>
      </trkpt>
      <trkpt lat="42.4947550" lon="-6.5249370">
        <ele>969.3</ele>
        <time>2014-10-01T06:40:27Z</time>
      </trkpt>
      <trkpt lat="42.4946960" lon="-6.5249550">
        <ele>969.4</ele>
        <time>2014-10-01T06:40:28Z</time>
      </trkpt>
      <trkpt lat="42.4946390" lon="-6.5249760">
        <ele>969.5</ele>
        <time>2014-10-01T06:40:29Z</time>
      </trkpt>
      <trkpt lat="42.4945800" lon="-6.5249990">
        <ele>969.6</ele>
        <time>2014-10-01T06:40:30Z</time>
      </trkpt>
      <trkpt lat="42.4945210" lon="-6.5250220">
        <ele>969.7</ele>
        <time>2014-10-01T06:40:31Z</time>
      </trkpt>
      <trkpt lat="42.4944620" lon="-6.5250480">
        <ele>969.8</ele>
        <time>2014-10-01T06:40:32Z</time>
      </trkpt>
      <trkpt lat="42.4944040" lon="-6.5250740">
        <ele>969.9</ele>
        <time>2014-10-01T06:40:33Z</time>
      </trkpt>
      <trkpt lat="42.4943480" lon="-6.5251000">
        <ele>970.1</ele>
        <time>2014-10-01T06:40:34Z</time>
      </trkpt>
      <trkpt lat="42.4942910" lon="-6.5251250">
        <ele>970.2</ele>
        <time>2014-10-01T06:40:35Z</time>
      </trkpt>
      <trkpt lat="42.4942300" lon="-6.5251530">
        <ele>970.4</ele>
        <time>2014-10-01T06:40:36Z</time>
      </trkpt>
      <trkpt lat="42.4941790" lon="-6.5251760">
        <ele>970.6</ele>
        <time>2014-10-01T06:40:37Z</time>
      </trkpt>
      <trkpt lat="42.4941320" lon="-6.5251980">
        <ele>970.8</ele>
        <time>2014-10-01T06:40:38Z</time>
      </trkpt>
      <trkpt lat="42.4940790" lon="-6.5252220">
        <ele>970.9</ele>
        <time>2014-10-01T06:40:39Z</time>
      </trkpt>
      <trkpt lat="42.4940250" lon="-6.5252490">
        <ele>971.1</ele>
        <time>2014-10-01T06:40:40Z</time>
      </trkpt>
      <trkpt lat="42.4939720" lon="-6.5252770">
        <ele>971.3</ele>
        <time>2014-10-01T06:40:41Z</time>
      </trkpt>
      <trkpt lat="42.4939240" lon="-6.5253050">
        <ele>971.5</ele>
        <time>2014-10-01T06:40:42Z</time>
      </trkpt>
      <trkpt lat="42.4938760" lon="-6.5253310">
        <ele>971.7</ele>
        <time>2014-10-01T06:40:43Z</time>
      </trkpt>
      <trkpt lat="42.4938290" lon="-6.5253540">
        <ele>971.8</ele>
        <time>2014-10-01T06:40:44Z</time>
      </trkpt>
      <trkpt lat="42.4937840" lon="-6.5253760">
        <ele>972.0</ele>
        <time>2014-10-01T06:40:45Z</time>
      </trkpt>
      <trkpt lat="42.4937370" lon="-6.5253990">
        <ele>972.2</ele>
        <time>2014-10-01T06:40:46Z</time>
      </trkpt>
      <trkpt lat="42.4936910" lon="-6.5254210">
        <ele>972.3</ele>
        <time>2014-10-01T06:40:47Z</time>
      </trkpt>
      <trkpt lat="42.4936440" lon="-6.5254450">
        <ele>972.5</ele>
        <time>2014-10-01T06:40:48Z</time>
      </trkpt>
      <trkpt lat="42.4935960" lon="-6.5254700">
        <ele>972.6</ele>
        <time>2014-10-01T06:40:49Z</time>
      </trkpt>
      <trkpt lat="42.4935430" lon="-6.5254970">
        <ele>972.7</ele>
        <time>2014-10-01T06:40:50Z</time>
      </trkpt>
      <trkpt lat="42.4934900" lon="-6.5255220">
        <ele>972.7</ele>
        <time>2014-10-01T06:40:51Z</time>
      </trkpt>
      <trkpt lat="42.4934400" lon="-6.5255450">
        <ele>972.8</ele>
        <time>2014-10-01T06:40:52Z</time>
      </trkpt>
      <trkpt lat="42.4933820" lon="-6.5255700">
        <ele>972.8</ele>
        <time>2014-10-01T06:40:53Z</time>
      </trkpt>
      <trkpt lat="42.4933270" lon="-6.5255950">
        <ele>972.8</ele>
        <time>2014-10-01T06:40:54Z</time>
      </trkpt>
      <trkpt lat="42.4932750" lon="-6.5256190">
        <ele>972.9</ele>
        <time>2014-10-01T06:40:55Z</time>
      </trkpt>
      <trkpt lat="42.4932190" lon="-6.5256440">
        <ele>972.9</ele>
        <time>2014-10-01T06:40:56Z</time>
      </trkpt>
      <trkpt lat="42.4931650" lon="-6.5256720">
        <ele>972.9</ele>
        <time>2014-10-01T06:40:57Z</time>
      </trkpt>
      <trkpt lat="42.4931170" lon="-6.5256960">
        <ele>972.9</ele>
        <time>2014-10-01T06:40:58Z</time>
      </trkpt>
      <trkpt lat="42.4930630" lon="-6.5257240">
        <ele>973.0</ele>
        <time>2014-10-01T06:40:59Z</time>
      </trkpt>
      <trkpt lat="42.4930100" lon="-6.5257500">
        <ele>973.0</ele>
        <time>2014-10-01T06:41:00Z</time>
      </trkpt>
      <trkpt lat="42.4929540" lon="-6.5257760">
        <ele>973.0</ele>
        <time>2014-10-01T06:41:01Z</time>
      </trkpt>
      <trkpt lat="42.4928980" lon="-6.5258020">
        <ele>973.0</ele>
        <time>2014-10-01T06:41:02Z</time>
      </trkpt>
      <trkpt lat="42.4928410" lon="-6.5258290">
        <ele>973.1</ele>
        <time>2014-10-01T06:41:03Z</time>
      </trkpt>
      <trkpt lat="42.4927850" lon="-6.5258560">
        <ele>973.1</ele>
        <time>2014-10-01T06:41:04Z</time>
      </trkpt>
      <trkpt lat="42.4927340" lon="-6.5258830">
        <ele>973.2</ele>
        <time>2014-10-01T06:41:05Z</time>
      </trkpt>
      <trkpt lat="42.4926790" lon="-6.5259100">
        <ele>973.3</ele>
        <time>2014-10-01T06:41:06Z</time>
      </trkpt>
      <trkpt lat="42.4926280" lon="-6.5259310">
        <ele>973.3</ele>
        <time>2014-10-01T06:41:07Z</time>
      </trkpt>
      <trkpt lat="42.4925720" lon="-6.5259540">
        <ele>973.4</ele>
        <time>2014-10-01T06:41:08Z</time>
      </trkpt>
      <trkpt lat="42.4925150" lon="-6.5259760">
        <ele>973.5</ele>
        <time>2014-10-01T06:41:09Z</time>
      </trkpt>
      <trkpt lat="42.4924580" lon="-6.5259980">
        <ele>973.6</ele>
        <time>2014-10-01T06:41:10Z</time>
      </trkpt>
      <trkpt lat="42.4924060" lon="-6.5260220">
        <ele>973.7</ele>
        <time>2014-10-01T06:41:11Z</time>
      </trkpt>
      <trkpt lat="42.4923530" lon="-6.5260530">
        <ele>973.8</ele>
        <time>2014-10-01T06:41:12Z</time>
      </trkpt>
      <trkpt lat="42.4923080" lon="-6.5260810">
        <ele>973.9</ele>
        <time>2014-10-01T06:41:13Z</time>
      </trkpt>
      <trkpt lat="42.4922610" lon="-6.5261120">
        <ele>974.0</ele>
        <time>2014-10-01T06:41:14Z</time>
      </trkpt>
      <trkpt lat="42.4922200" lon="-6.5261380">
        <ele>974.0</ele>
        <time>2014-10-01T06:41:15Z</time>
      </trkpt>
      <trkpt lat="42.4921830" lon="-6.5261610">
        <ele>974.1</ele>
        <time>2014-10-01T06:41:16Z</time>
      </trkpt>
      <trkpt lat="42.4921480" lon="-6.5261830">
        <ele>974.1</ele>
        <time>2014-10-01T06:41:17Z</time>
      </trkpt>
      <trkpt lat="42.4921130" lon="-6.5262020">
        <ele>974.2</ele>
        <time>2014-10-01T06:41:18Z</time>
      </trkpt>
      <trkpt lat="42.4920760" lon="-6.5262160">
        <ele>974.2</ele>
        <time>2014-10-01T06:41:19Z</time>
      </trkpt>
      <trkpt lat="42.4920400" lon="-6.5262290">
        <ele>974.3</ele>
        <time>2014-10-01T06:41:20Z</time>
      </trkpt>
      <trkpt lat="42.4919900" lon="-6.5262580">
        <ele>974.4</ele>
        <time>2014-10-01T06:41:21Z</time>
      </trkpt>
      <trkpt lat="42.4919370" lon="-6.5262900">
        <ele>974.4</ele>
        <time>2014-10-01T06:41:22Z</time>
      </trkpt>
      <trkpt lat="42.4918830" lon="-6.5263210">
        <ele>974.5</ele>
        <time>2014-10-01T06:41:23Z</time>
      </trkpt>
      <trkpt lat="42.4918370" lon="-6.5263520">
        <ele>974.6</ele>
        <time>2014-10-01T06:41:24Z</time>
      </trkpt>
      <trkpt lat="42.4917880" lon="-6.5263890">
        <ele>974.6</ele>
        <time>2014-10-01T06:41:25Z</time>
      </trkpt>
      <trkpt lat="42.4917440" lon="-6.5264210">
        <ele>974.7</ele>
        <time>2014-10-01T06:41:26Z</time>
      </trkpt>
      <trkpt lat="42.4916910" lon="-6.5264540">
        <ele>974.8</ele>
        <time>2014-10-01T06:41:27Z</time>
      </trkpt>
      <trkpt lat="42.4916360" lon="-6.5264820">
        <ele>974.8</ele>
        <time>2014-10-01T06:41:28Z</time>
      </trkpt>
      <trkpt lat="42.4915900" lon="-6.5265020">
        <ele>974.9</ele>
        <time>2014-10-01T06:41:29Z</time>
      </trkpt>
      <trkpt lat="42.4915350" lon="-6.5265090">
        <ele>975.0</ele>
        <time>2014-10-01T06:41:30Z</time>
      </trkpt>
      <trkpt lat="42.4914850" lon="-6.5265190">
        <ele>975.2</ele>
        <time>2014-10-01T06:41:31Z</time>
      </trkpt>
      <trkpt lat="42.4914430" lon="-6.5265420">
        <ele>975.3</ele>
        <time>2014-10-01T06:41:32Z</time>
      </trkpt>
      <trkpt lat="42.4913930" lon="-6.5265700">
        <ele>975.4</ele>
        <time>2014-10-01T06:41:33Z</time>
      </trkpt>
      <trkpt lat="42.4913420" lon="-6.5265970">
        <ele>975.5</ele>
        <time>2014-10-01T06:41:34Z</time>
      </trkpt>
      <trkpt lat="42.4912960" lon="-6.5266230">
        <ele>975.6</ele>
        <time>2014-10-01T06:41:35Z</time>
      </trkpt>
      <trkpt lat="42.4912460" lon="-6.5266530">
        <ele>975.7</ele>
        <time>2014-10-01T06:41:36Z</time>
      </trkpt>
      <trkpt lat="42.4911990" lon="-6.5266800">
        <ele>975.7</ele>
        <time>2014-10-01T06:41:37Z</time>
      </trkpt>
      <trkpt lat="42.4911530" lon="-6.5267060">
        <ele>975.8</ele>
        <time>2014-10-01T06:41:38Z</time>
      </trkpt>
      <trkpt lat="42.4911090" lon="-6.5267300">
        <ele>975.8</ele>
        <time>2014-10-01T06:41:39Z</time>
      </trkpt>
      <trkpt lat="42.4910650" lon="-6.5267550">
        <ele>975.8</ele>
        <time>2014-10-01T06:41:40Z</time>
      </trkpt>
      <trkpt lat="42.4910230" lon="-6.5267810">
        <ele>975.8</ele>
        <time>2014-10-01T06:41:41Z</time>
      </trkpt>
      <trkpt lat="42.4909780" lon="-6.5268110">
        <ele>975.8</ele>
        <time>2014-10-01T06:41:42Z</time>
      </trkpt>
      <trkpt lat="42.4909350" lon="-6.5268320">
        <ele>975.9</ele>
        <time>2014-10-01T06:41:43Z</time>
      </trkpt>
      <trkpt lat="42.4908980" lon="-6.5268500">
        <ele>975.9</ele>
        <time>2014-10-01T06:41:44Z</time>
      </trkpt>
      <trkpt lat="42.4908570" lon="-6.5268720">
        <ele>976.0</ele>
        <time>2014-10-01T06:41:45Z</time>
      </trkpt>
      <trkpt lat="42.4908180" lon="-6.5268920">
        <ele>976.1</ele>
        <time>2014-10-01T06:41:46Z</time>
      </trkpt>
      <trkpt lat="42.4907720" lon="-6.5269200">
        <ele>976.2</ele>
        <time>2014-10-01T06:41:47Z</time>
      </trkpt>
      <trkpt lat="42.4907220" lon="-6.5269530">
        <ele>976.4</ele>
        <time>2014-10-01T06:41:48Z</time>
      </trkpt>
      <trkpt lat="42.4906730" lon="-6.5269840">
        <ele>976.5</ele>
        <time>2014-10-01T06:41:49Z</time>
      </trkpt>
      <trkpt lat="42.4906250" lon="-6.5270140">
        <ele>976.7</ele>
        <time>2014-10-01T06:41:50Z</time>
      </trkpt>
      <trkpt lat="42.4905760" lon="-6.5270450">
        <ele>976.9</ele>
        <time>2014-10-01T06:41:51Z</time>
      </trkpt>
      <trkpt lat="42.4905250" lon="-6.5270760">
        <ele>977.0</ele>
        <time>2014-10-01T06:41:52Z</time>
      </trkpt>
      <trkpt lat="42.4904770" lon="-6.5271060">
        <ele>977.2</ele>
        <time>2014-10-01T06:41:53Z</time>
      </trkpt>
      <trkpt lat="42.4904300" lon="-6.5271340">
        <ele>977.4</ele>
        <time>2014-10-01T06:41:54Z</time>
      </trkpt>
      <trkpt lat="42.4903820" lon="-6.5271580">
        <ele>977.6</ele>
        <time>2014-10-01T06:41:55Z</time>
      </trkpt>
      <trkpt lat="42.4903330" lon="-6.5271810">
        <ele>977.7</ele>
        <time>2014-10-01T06:41:56Z</time>
      </trkpt>
      <trkpt lat="42.4902830" lon="-6.5272030">
        <ele>977.9</ele>
        <time>2014-10-01T06:41:57Z</time>
      </trkpt>
      <trkpt lat="42.4902390" lon="-6.5272260">
        <ele>978.1</ele>
        <time>2014-10-01T06:41:58Z</time>
      </trkpt>
      <trkpt lat="42.4901940" lon="-6.5272480">
        <ele>978.3</ele>
        <time>2014-10-01T06:41:59Z</time>
      </trkpt>
      <trkpt lat="42.4901460" lon="-6.5272740">
        <ele>978.5</ele>
        <time>2014-10-01T06:42:00Z</time>
      </trkpt>
      <trkpt lat="42.4900980" lon="-6.5273010">
        <ele>978.8</ele>
        <time>2014-10-01T06:42:01Z</time>
      </trkpt>
      <trkpt lat="42.4900520" lon="-6.5273270">
        <ele>979.0</ele>
        <time>2014-10-01T06:42:02Z</time>
      </trkpt>
      <trkpt lat="42.4900070" lon="-6.5273480">
        <ele>979.2</ele>
        <time>2014-10-01T06:42:03Z</time>
      </trkpt>
      <trkpt lat="42.4899560" lon="-6.5273710">
        <ele>979.5</ele>
        <time>2014-10-01T06:42:04Z</time>
      </trkpt>
      <trkpt lat="42.4899050" lon="-6.5273900">
        <ele>979.7</ele>
        <time>2014-10-01T06:42:05Z</time>
      </trkpt>
      <trkpt lat="42.4898500" lon="-6.5274110">
        <ele>979.9</ele>
        <time>2014-10-01T06:42:06Z</time>
      </trkpt>
      <trkpt lat="42.4897950" lon="-6.5274310">
        <ele>980.1</ele>
        <time>2014-10-01T06:42:07Z</time>
      </trkpt>
      <trkpt lat="42.4897450" lon="-6.5274520">
        <ele>980.3</ele>
        <time>2014-10-01T06:42:08Z</time>
      </trkpt>
      <trkpt lat="42.4896960" lon="-6.5274700">
        <ele>980.5</ele>
        <time>2014-10-01T06:42:09Z</time>
      </trkpt>
      <trkpt lat="42.4896500" lon="-6.5274850">
        <ele>980.7</ele>
        <time>2014-10-01T06:42:10Z</time>
      </trkpt>
      <trkpt lat="42.4896120" lon="-6.5274980">
        <ele>980.9</ele>
        <time>2014-10-01T06:42:11Z</time>
      </trkpt>
      <trkpt lat="42.4895650" lon="-6.5275150">
        <ele>981.1</ele>
        <time>2014-10-01T06:42:12Z</time>
      </trkpt>
      <trkpt lat="42.4895190" lon="-6.5275300">
        <ele>981.4</ele>
        <time>2014-10-01T06:42:13Z</time>
      </trkpt>
      <trkpt lat="42.4894710" lon="-6.5275490">
        <ele>981.7</ele>
        <time>2014-10-01T06:42:14Z</time>
      </trkpt>
      <trkpt lat="42.4894200" lon="-6.5275690">
        <ele>981.9</ele>
        <time>2014-10-01T06:42:15Z</time>
      </trkpt>
      <trkpt lat="42.4893720" lon="-6.5275930">
        <ele>982.2</ele>
        <time>2014-10-01T06:42:16Z</time>
      </trkpt>
      <trkpt lat="42.4893270" lon="-6.5276160">
        <ele>982.5</ele>
        <time>2014-10-01T06:42:17Z</time>
      </trkpt>
      <trkpt lat="42.4892820" lon="-6.5276380">
        <ele>982.7</ele>
        <time>2014-10-01T06:42:18Z</time>
      </trkpt>
      <trkpt lat="42.4892350" lon="-6.5276610">
        <ele>982.9</ele>
        <time>2014-10-01T06:42:19Z</time>
      </trkpt>
      <trkpt lat="42.4891870" lon="-6.5276860">
        <ele>983.2</ele>
        <time>2014-10-01T06:42:20Z</time>
      </trkpt>
      <trkpt lat="42.4891410" lon="-6.5277130">
        <ele>983.4</ele>
        <time>2014-10-01T06:42:21Z</time>
      </trkpt>
      <trkpt lat="42.4890970" lon="-6.5277390">
        <ele>983.6</ele>
        <time>2014-10-01T06:42:22Z</time>
      </trkpt>
      <trkpt lat="42.4890540" lon="-6.5277670">
        <ele>983.9</ele>
        <time>2014-10-01T06:42:23Z</time>
      </trkpt>
      <trkpt lat="42.4890070" lon="-6.5277980">
        <ele>984.1</ele>
        <time>2014-10-01T06:42:24Z</time>
      </trkpt>
      <trkpt lat="42.4889590" lon="-6.5278280">
        <ele>984.4</ele>
        <time>2014-10-01T06:42:25Z</time>
      </trkpt>
      <trkpt lat="42.4889130" lon="-6.5278570">
        <ele>984.7</ele>
        <time>2014-10-01T06:42:26Z</time>
      </trkpt>
      <trkpt lat="42.4888670" lon="-6.5278840">
        <ele>984.9</ele>
        <time>2014-10-01T06:42:27Z</time>
      </trkpt>
      <trkpt lat="42.4888230" lon="-6.5279110">
        <ele>985.2</ele>
        <time>2014-10-01T06:42:28Z</time>
      </trkpt>
      <trkpt lat="42.4887790" lon="-6.5279430">
        <ele>985.5</ele>
        <time>2014-10-01T06:42:29Z</time>
      </trkpt>
      <trkpt lat="42.4887350" lon="-6.5279800">
        <ele>985.8</ele>
        <time>2014-10-01T06:42:30Z</time>
      </trkpt>
      <trkpt lat="42.4886990" lon="-6.5280110">
        <ele>986.0</ele>
        <time>2014-10-01T06:42:31Z</time>
      </trkpt>
      <trkpt lat="42.4886620" lon="-6.5280390">
        <ele>986.3</ele>
        <time>2014-10-01T06:42:32Z</time>
      </trkpt>
      <trkpt lat="42.4886260" lon="-6.5280670">
        <ele>986.6</ele>
        <time>2014-10-01T06:42:33Z</time>
      </trkpt>
      <trkpt lat="42.4885940" lon="-6.5280940">
        <ele>986.8</ele>
        <time>2014-10-01T06:42:34Z</time>
      </trkpt>
      <trkpt lat="42.4885620" lon="-6.5281200">
        <ele>987.1</ele>
        <time>2014-10-01T06:42:35Z</time>
      </trkpt>
      <trkpt lat="42.4885300" lon="-6.5281490">
        <ele>987.4</ele>
        <time>2014-10-01T06:42:36Z</time>
      </trkpt>
      <trkpt lat="42.4884970" lon="-6.5281800">
        <ele>987.7</ele>
        <time>2014-10-01T06:42:37Z</time>
      </trkpt>
      <trkpt lat="42.4884630" lon="-6.5282100">
        <ele>988.0</ele>
        <time>2014-10-01T06:42:38Z</time>
      </trkpt>
      <trkpt lat="42.4884280" lon="-6.5282410">
        <ele>988.4</ele>
        <time>2014-10-01T06:42:39Z</time>
      </trkpt>
      <trkpt lat="42.4883980" lon="-6.5282680">
        <ele>988.7</ele>
        <time>2014-10-01T06:42:40Z</time>
      </trkpt>
      <trkpt lat="42.4883700" lon="-6.5282940">
        <ele>988.9</ele>
        <time>2014-10-01T06:42:41Z</time>
      </trkpt>
      <trkpt lat="42.4883370" lon="-6.5283220">
        <ele>989.2</ele>
        <time>2014-10-01T06:42:42Z</time>
      </trkpt>
      <trkpt lat="42.4883110" lon="-6.5283450">
        <ele>989.5</ele>
        <time>2014-10-01T06:42:43Z</time>
      </trkpt>
      <trkpt lat="42.4882820" lon="-6.5283720">
        <ele>989.7</ele>
        <time>2014-10-01T06:42:44Z</time>
      </trkpt>
      <trkpt lat="42.4882480" lon="-6.5284000">
        <ele>990.0</ele>
        <time>2014-10-01T06:42:45Z</time>
      </trkpt>
      <trkpt lat="42.4882140" lon="-6.5284250">
        <ele>990.3</ele>
        <time>2014-10-01T06:42:46Z</time>
      </trkpt>
      <trkpt lat="42.4881790" lon="-6.5284500">
        <ele>990.6</ele>
        <time>2014-10-01T06:42:47Z</time>
      </trkpt>
      <trkpt lat="42.4881480" lon="-6.5284700">
        <ele>990.8</ele>
        <time>2014-10-01T06:42:48Z</time>
      </trkpt>
      <trkpt lat="42.4881160" lon="-6.5284840">
        <ele>991.0</ele>
        <time>2014-10-01T06:42:49Z</time>
      </trkpt>
      <trkpt lat="42.4880730" lon="-6.5285070">
        <ele>991.3</ele>
        <time>2014-10-01T06:42:50Z</time>
      </trkpt>
      <trkpt lat="42.4880320" lon="-6.5285330">
        <ele>991.6</ele>
        <time>2014-10-01T06:42:51Z</time>
      </trkpt>
      <trkpt lat="42.4879940" lon="-6.5285570">
        <ele>991.8</ele>
        <time>2014-10-01T06:42:52Z</time>
      </trkpt>
      <trkpt lat="42.4879640" lon="-6.5285770">
        <ele>992.0</ele>
        <time>2014-10-01T06:42:53Z</time>
      </trkpt>
      <trkpt lat="42.4879280" lon="-6.5285970">
        <ele>992.3</ele>
        <time>2014-10-01T06:42:54Z</time>
      </trkpt>
      <trkpt lat="42.4878950" lon="-6.5286160">
        <ele>992.5</ele>
        <time>2014-10-01T06:42:55Z</time>
      </trkpt>
      <trkpt lat="42.4878590" lon="-6.5286300">
        <ele>992.7</ele>
        <time>2014-10-01T06:42:56Z</time>
      </trkpt>
      <trkpt lat="42.4878220" lon="-6.5286450">
        <ele>993.0</ele>
        <time>2014-10-01T06:42:57Z</time>
      </trkpt>
      <trkpt lat="42.4877850" lon="-6.5286610">
        <ele>993.2</ele>
        <time>2014-10-01T06:42:58Z</time>
      </trkpt>
      <trkpt lat="42.4877480" lon="-6.5286790">
        <ele>993.5</ele>
        <time>2014-10-01T06:42:59Z</time>
      </trkpt>
      <trkpt lat="42.4877130" lon="-6.5286990">
        <ele>993.7</ele>
        <time>2014-10-01T06:43:00Z</time>
      </trkpt>
      <trkpt lat="42.4876700" lon="-6.5287230">
        <ele>994.0</ele>
        <time>2014-10-01T06:43:01Z</time>
      </trkpt>
      <trkpt lat="42.4876250" lon="-6.5287550">
        <ele>994.3</ele>
        <time>2014-10-01T06:43:02Z</time>
      </trkpt>
      <trkpt lat="42.4875900" lon="-6.5287780">
        <ele>994.5</ele>
        <time>2014-10-01T06:43:03Z</time>
      </trkpt>
      <trkpt lat="42.4875590" lon="-6.5287970">
        <ele>994.7</ele>
        <time>2014-10-01T06:43:04Z</time>
      </trkpt>
      <trkpt lat="42.4875240" lon="-6.5288180">
        <ele>994.9</ele>
        <time>2014-10-01T06:43:05Z</time>
      </trkpt>
      <trkpt lat="42.4874860" lon="-6.5288430">
        <ele>995.1</ele>
        <time>2014-10-01T06:43:06Z</time>
      </trkpt>
      <trkpt lat="42.4874480" lon="-6.5288690">
        <ele>995.4</ele>
        <time>2014-10-01T06:43:07Z</time>
      </trkpt>
      <trkpt lat="42.4874050" lon="-6.5288950">
        <ele>995.7</ele>
        <time>2014-10-01T06:43:08Z</time>
      </trkpt>
      <trkpt lat="42.4873670" lon="-6.5289180">
        <ele>996.0</ele>
        <time>2014-10-01T06:43:09Z</time>
      </trkpt>
      <trkpt lat="42.4873330" lon="-6.5289400">
        <ele>996.2</ele>
        <time>2014-10-01T06:43:10Z</time>
      </trkpt>
      <trkpt lat="42.4872990" lon="-6.5289620">
        <ele>996.5</ele>
        <time>2014-10-01T06:43:11Z</time>
      </trkpt>
      <trkpt lat="42.4872640" lon="-6.5289840">
        <ele>996.7</ele>
        <time>2014-10-01T06:43:12Z</time>
      </trkpt>
      <trkpt lat="42.4872290" lon="-6.5290050">
        <ele>997.0</ele>
        <time>2014-10-01T06:43:13Z</time>
      </trkpt>
      <trkpt lat="42.4871980" lon="-6.5290250">
        <ele>997.2</ele>
        <time>2014-10-01T06:43:14Z</time>
      </trkpt>
      <trkpt lat="42.4871630" lon="-6.5290460">
        <ele>997.4</ele>
        <time>2014-10-01T06:43:15Z</time>
      </trkpt>
      <trkpt lat="42.4871300" lon="-6.5290660">
        <ele>997.7</ele>
        <time>2014-10-01T06:43:16Z</time>
      </trkpt>
      <trkpt lat="42.4870920" lon="-6.5290880">
        <ele>998.0</ele>
        <time>2014-10-01T06:43:17Z</time>
      </trkpt>
      <trkpt lat="42.4870540" lon="-6.5291090">
        <ele>998.2</ele>
        <time>2014-10-01T06:43:18Z</time>
      </trkpt>
      <trkpt lat="42.4870190" lon="-6.5291260">
        <ele>998.5</ele>
        <time>2014-10-01T06:43:19Z</time>
      </trkpt>
      <trkpt lat="42.4869840" lon="-6.5291450">
        <ele>998.7</ele>
        <time>2014-10-01T06:43:20Z</time>
      </trkpt>
      <trkpt lat="42.4869480" lon="-6.5291610">
        <ele>999.0</ele>
        <time>2014-10-01T06:43:21Z</time>
      </trkpt>
      <trkpt lat="42.4869100" lon="-6.5291760">
        <ele>999.3</ele>
        <time>2014-10-01T06:43:22Z</time>
      </trkpt>
      <trkpt lat="42.4868720" lon="-6.5291920">
        <ele>999.5</ele>
        <time>2014-10-01T06:43:23Z</time>
      </trkpt>
      <trkpt lat="42.4868360" lon="-6.5292060">
        <ele>999.8</ele>
        <time>2014-10-01T06:43:24Z</time>
      </trkpt>
      <trkpt lat="42.4868030" lon="-6.5292220">
        <ele>1000.0</ele>
        <time>2014-10-01T06:43:25Z</time>
      </trkpt>
      <trkpt lat="42.4867710" lon="-6.5292360">
        <ele>1000.2</ele>
        <time>2014-10-01T06:43:26Z</time>
      </trkpt>
      <trkpt lat="42.4867370" lon="-6.5292530">
        <ele>1000.4</ele>
        <time>2014-10-01T06:43:27Z</time>
      </trkpt>
      <trkpt lat="42.4867000" lon="-6.5292700">
        <ele>1000.7</ele>
        <time>2014-10-01T06:43:28Z</time>
      </trkpt>
      <trkpt lat="42.4866650" lon="-6.5292880">
        <ele>1000.9</ele>
        <time>2014-10-01T06:43:29Z</time>
      </trkpt>
      <trkpt lat="42.4866290" lon="-6.5293070">
        <ele>1001.2</ele>
        <time>2014-10-01T06:43:30Z</time>
      </trkpt>
      <trkpt lat="42.4865930" lon="-6.5293270">
        <ele>1001.4</ele>
        <time>2014-10-01T06:43:31Z</time>
      </trkpt>
      <trkpt lat="42.4865560" lon="-6.5293470">
        <ele>1001.6</ele>
        <time>2014-10-01T06:43:32Z</time>
      </trkpt>
      <trkpt lat="42.4865200" lon="-6.5293660">
        <ele>1001.8</ele>
        <time>2014-10-01T06:43:33Z</time>
      </trkpt>
      <trkpt lat="42.4864830" lon="-6.5293840">
        <ele>1002.0</ele>
        <time>2014-10-01T06:43:34Z</time>
      </trkpt>
      <trkpt lat="42.4864450" lon="-6.5294020">
        <ele>1002.2</ele>
        <time>2014-10-01T06:43:35Z</time>
      </trkpt>
      <trkpt lat="42.4864100" lon="-6.5294170">
        <ele>1002.4</ele>
        <time>2014-10-01T06:43:36Z</time>
      </trkpt>
      <trkpt lat="42.4863730" lon="-6.5294340">
        <ele>1002.6</ele>
        <time>2014-10-01T06:43:37Z</time>
      </trkpt>
      <trkpt lat="42.4863360" lon="-6.5294500">
        <ele>1002.8</ele>
        <time>2014-10-01T06:43:38Z</time>
      </trkpt>
      <trkpt lat="42.4862980" lon="-6.5294680">
        <ele>1003.0</ele>
        <time>2014-10-01T06:43:39Z</time>
      </trkpt>
      <trkpt lat="42.4862600" lon="-6.5294860">
        <ele>1003.2</ele>
        <time>2014-10-01T06:43:40Z</time>
      </trkpt>
      <trkpt lat="42.4862200" lon="-6.5295070">
        <ele>1003.5</ele>
        <time>2014-10-01T06:43:41Z</time>
      </trkpt>
      <trkpt lat="42.4861810" lon="-6.5295280">
        <ele>1003.7</ele>
        <time>2014-10-01T06:43:42Z</time>
      </trkpt>
      <trkpt lat="42.4861440" lon="-6.5295490">
        <ele>1003.9</ele>
        <time>2014-10-01T06:43:43Z</time>
      </trkpt>
      <trkpt lat="42.4861080" lon="-6.5295680">
        <ele>1004.1</ele>
        <time>2014-10-01T06:43:44Z</time>
      </trkpt>
      <trkpt lat="42.4860690" lon="-6.5295920">
        <ele>1004.4</ele>
        <time>2014-10-01T06:43:45Z</time>
      </trkpt>
      <trkpt lat="42.4860290" lon="-6.5296160">
        <ele>1004.6</ele>
        <time>2014-10-01T06:43:46Z</time>
      </trkpt>
      <trkpt lat="42.4859920" lon="-6.5296390">
        <ele>1004.9</ele>
        <time>2014-10-01T06:43:47Z</time>
      </trkpt>
      <trkpt lat="42.4859550" lon="-6.5296620">
        <ele>1005.1</ele>
        <time>2014-10-01T06:43:48Z</time>
      </trkpt>
      <trkpt lat="42.4859180" lon="-6.5296820">
        <ele>1005.3</ele>
        <time>2014-10-01T06:43:49Z</time>
      </trkpt>
      <trkpt lat="42.4858810" lon="-6.5297010">
        <ele>1005.5</ele>
        <time>2014-10-01T06:43:50Z</time>
      </trkpt>
      <trkpt lat="42.4858440" lon="-6.5297180">
        <ele>1005.7</ele>
        <time>2014-10-01T06:43:51Z</time>
      </trkpt>
      <trkpt lat="42.4858030" lon="-6.5297370">
        <ele>1005.9</ele>
        <time>2014-10-01T06:43:52Z</time>
      </trkpt>
      <trkpt lat="42.4857620" lon="-6.5297570">
        <ele>1006.2</ele>
        <time>2014-10-01T06:43:53Z</time>
      </trkpt>
      <trkpt lat="42.4857250" lon="-6.5297740">
        <ele>1006.4</ele>
        <time>2014-10-01T06:43:54Z</time>
      </trkpt>
      <trkpt lat="42.4856830" lon="-6.5297950">
        <ele>1006.7</ele>
        <time>2014-10-01T06:43:55Z</time>
      </trkpt>
      <trkpt lat="42.4856470" lon="-6.5298120">
        <ele>1006.9</ele>
        <time>2014-10-01T06:43:56Z</time>
      </trkpt>
      <trkpt lat="42.4856120" lon="-6.5298280">
        <ele>1007.2</ele>
        <time>2014-10-01T06:43:57Z</time>
      </trkpt>
      <trkpt lat="42.4855740" lon="-6.5298460">
        <ele>1007.4</ele>
        <time>2014-10-01T06:43:58Z</time>
      </trkpt>
      <trkpt lat="42.4855370" lon="-6.5298630">
        <ele>1007.6</ele>
        <time>2014-10-01T06:43:59Z</time>
      </trkpt>
      <trkpt lat="42.4855000" lon="-6.5298790">
        <ele>1007.8</ele>
        <time>2014-10-01T06:44:00Z</time>
      </trkpt>
      <trkpt lat="42.4854640" lon="-6.5298940">
        <ele>1008.0</ele>
        <time>2014-10-01T06:44:01Z</time>
      </trkpt>
      <trkpt lat="42.4854260" lon="-6.5299110">
        <ele>1008.2</ele>
        <time>2014-10-01T06:44:02Z</time>
      </trkpt>
      <trkpt lat="42.4853870" lon="-6.5299290">
        <ele>1008.4</ele>
        <time>2014-10-01T06:44:03Z</time>
      </trkpt>
      <trkpt lat="42.4853470" lon="-6.5299470">
        <ele>1008.7</ele>
        <time>2014-10-01T06:44:04Z</time>
      </trkpt>
      <trkpt lat="42.4853060" lon="-6.5299670">
        <ele>1008.9</ele>
        <time>2014-10-01T06:44:05Z</time>
      </trkpt>
      <trkpt lat="42.4852660" lon="-6.5299850">
        <ele>1009.1</ele>
        <time>2014-10-01T06:44:06Z</time>
      </trkpt>
      <trkpt lat="42.4852260" lon="-6.5300040">
        <ele>1009.3</ele>
        <time>2014-10-01T06:44:07Z</time>
      </trkpt>
      <trkpt lat="42.4851860" lon="-6.5300250">
        <ele>1009.6</ele>
        <time>2014-10-01T06:44:08Z</time>
      </trkpt>
      <trkpt lat="42.4851460" lon="-6.5300450">
        <ele>1009.8</ele>
        <time>2014-10-01T06:44:09Z</time>
      </trkpt>
      <trkpt lat="42.4851060" lon="-6.5300630">
        <ele>1010.1</ele>
        <time>2014-10-01T06:44:10Z</time>
      </trkpt>
      <trkpt lat="42.4850650" lon="-6.5300810">
        <ele>1010.3</ele>
        <time>2014-10-01T06:44:11Z</time>
      </trkpt>
      <trkpt lat="42.4850260" lon="-6.5300990">
        <ele>1010.6</ele>
        <time>2014-10-01T06:44:12Z</time>
      </trkpt>
      <trkpt lat="42.4849880" lon="-6.5301170">
        <ele>1010.8</ele>
        <time>2014-10-01T06:44:13Z</time>
      </trkpt>
      <trkpt lat="42.4849490" lon="-6.5301360">
        <ele>1011.0</ele>
        <time>2014-10-01T06:44:14Z</time>
      </trkpt>
      <trkpt lat="42.4849090" lon="-6.5301540">
        <ele>1011.3</ele>
        <time>2014-10-01T06:44:15Z</time>
      </trkpt>
      <trkpt lat="42.4848710" lon="-6.5301690">
        <ele>1011.5</ele>
        <time>2014-10-01T06:44:16Z</time>
      </trkpt>
      <trkpt lat="42.4848330" lon="-6.5301830">
        <ele>1011.8</ele>
        <time>2014-10-01T06:44:17Z</time>
      </trkpt>
      <trkpt lat="42.4847910" lon="-6.5301980">
        <ele>1012.0</ele>
        <time>2014-10-01T06:44:18Z</time>
      </trkpt>
      <trkpt lat="42.4847520" lon="-6.5302120">
        <ele>1012.3</ele>
        <time>2014-10-01T06:44:19Z</time>
      </trkpt>
      <trkpt lat="42.4847120" lon="-6.5302250">
        <ele>1012.5</ele>
        <time>2014-10-01T06:44:20Z</time>
      </trkpt>
      <trkpt lat="42.4846720" lon="-6.5302380">
        <ele>1012.7</ele>
        <time>2014-10-01T06:44:21Z</time>
      </trkpt>
      <trkpt lat="42.4846310" lon="-6.5302530">
        <ele>1013.0</ele>
        <time>2014-10-01T06:44:22Z</time>
      </trkpt>
      <trkpt lat="42.4845870" lon="-6.5302710">
        <ele>1013.2</ele>
        <time>2014-10-01T06:44:23Z</time>
      </trkpt>
      <trkpt lat="42.4845400" lon="-6.5302930">
        <ele>1013.5</ele>
        <time>2014-10-01T06:44:24Z</time>
      </trkpt>
      <trkpt lat="42.4844970" lon="-6.5303150">
        <ele>1013.7</ele>
        <time>2014-10-01T06:44:25Z</time>
      </trkpt>
      <trkpt lat="42.4844580" lon="-6.5303320">
        <ele>1014.0</ele>
        <time>2014-10-01T06:44:26Z</time>
      </trkpt>
      <trkpt lat="42.4844210" lon="-6.5303460">
        <ele>1014.2</ele>
        <time>2014-10-01T06:44:27Z</time>
      </trkpt>
      <trkpt lat="42.4843820" lon="-6.5303580">
        <ele>1014.5</ele>
        <time>2014-10-01T06:44:28Z</time>
      </trkpt>
      <trkpt lat="42.4843470" lon="-6.5303670">
        <ele>1014.7</ele>
        <time>2014-10-01T06:44:29Z</time>
      </trkpt>
      <trkpt lat="42.4843110" lon="-6.5303740">
        <ele>1014.9</ele>
        <time>2014-10-01T06:44:30Z</time>
      </trkpt>
      <trkpt lat="42.4842740" lon="-6.5303810">
        <ele>1015.1</ele>
        <time>2014-10-01T06:44:31Z</time>
      </trkpt>
      <trkpt lat="42.4842360" lon="-6.5303900">
        <ele>1015.4</ele>
        <time>2014-10-01T06:44:32Z</time>
      </trkpt>
      <trkpt lat="42.4841980" lon="-6.5303980">
        <ele>1015.6</ele>
        <time>2014-10-01T06:44:33Z</time>
      </trkpt>
      <trkpt lat="42.4841570" lon="-6.5304050">
        <ele>1015.8</ele>
        <time>2014-10-01T06:44:34Z</time>
      </trkpt>
      <trkpt lat="42.4841170" lon="-6.5304130">
        <ele>1016.1</ele>
        <time>2014-10-01T06:44:35Z</time>
      </trkpt>
      <trkpt lat="42.4840750" lon="-6.5304220">
        <ele>1016.3</ele>
        <time>2014-10-01T06:44:36Z</time>
      </trkpt>
      <trkpt lat="42.4840330" lon="-6.5304320">
        <ele>1016.5</ele>
        <time>2014-10-01T06:44:37Z</time>
      </trkpt>
      <trkpt lat="42.4839950" lon="-6.5304420">
        <ele>1016.7</ele>
        <time>2014-10-01T06:44:38Z</time>
      </trkpt>
      <trkpt lat="42.4839600" lon="-6.5304500">
        <ele>1016.8</ele>
        <time>2014-10-01T06:44:39Z</time>
      </trkpt>
      <trkpt lat="42.4839280" lon="-6.5304580">
        <ele>1017.0</ele>
        <time>2014-10-01T06:44:40Z</time>
      </trkpt>
      <trkpt lat="42.4838900" lon="-6.5304670">
        <ele>1017.2</ele>
        <time>2014-10-01T06:44:41Z</time>
      </trkpt>
      <trkpt lat="42.4838500" lon="-6.5304780">
        <ele>1017.4</ele>
        <time>2014-10-01T06:44:42Z</time>
      </trkpt>
      <trkpt lat="42.4838110" lon="-6.5304880">
        <ele>1017.5</ele>
        <time>2014-10-01T06:44:43Z</time>
      </trkpt>
      <trkpt lat="42.4837740" lon="-6.5304970">
        <ele>1017.7</ele>
        <time>2014-10-01T06:44:44Z</time>
      </trkpt>
      <trkpt lat="42.4837350" lon="-6.5305060">
        <ele>1017.8</ele>
        <time>2014-10-01T06:44:45Z</time>
      </trkpt>
      <trkpt lat="42.4836950" lon="-6.5305170">
        <ele>1018.0</ele>
        <time>2014-10-01T06:44:46Z</time>
      </trkpt>
      <trkpt lat="42.4836530" lon="-6.5305290">
        <ele>1018.1</ele>
        <time>2014-10-01T06:44:47Z</time>
      </trkpt>
      <trkpt lat="42.4836110" lon="-6.5305420">
        <ele>1018.3</ele>
        <time>2014-10-01T06:44:48Z</time>
      </trkpt>
      <trkpt lat="42.4835700" lon="-6.5305540">
        <ele>1018.4</ele>
        <time>2014-10-01T06:44:49Z</time>
      </trkpt>
      <trkpt lat="42.4835290" lon="-6.5305640">
        <ele>1018.5</ele>
        <time>2014-10-01T06:44:50Z</time>
      </trkpt>
      <trkpt lat="42.4834870" lon="-6.5305740">
        <ele>1018.6</ele>
        <time>2014-10-01T06:44:51Z</time>
      </trkpt>
      <trkpt lat="42.4834440" lon="-6.5305840">
        <ele>1018.7</ele>
        <time>2014-10-01T06:44:52Z</time>
      </trkpt>
      <trkpt lat="42.4833980" lon="-6.5305950">
        <ele>1018.8</ele>
        <time>2014-10-01T06:44:53Z</time>
      </trkpt>
      <trkpt lat="42.4833510" lon="-6.5306070">
        <ele>1018.8</ele>
        <time>2014-10-01T06:44:54Z</time>
      </trkpt>
      <trkpt lat="42.4833030" lon="-6.5306190">
        <ele>1018.9</ele>
        <time>2014-10-01T06:44:55Z</time>
      </trkpt>
      <trkpt lat="42.4832570" lon="-6.5306310">
        <ele>1019.0</ele>
        <time>2014-10-01T06:44:56Z</time>
      </trkpt>
      <trkpt lat="42.4832120" lon="-6.5306420">
        <ele>1019.1</ele>
        <time>2014-10-01T06:44:57Z</time>
      </trkpt>
      <trkpt lat="42.4831650" lon="-6.5306540">
        <ele>1019.2</ele>
        <time>2014-10-01T06:44:58Z</time>
      </trkpt>
      <trkpt lat="42.4831190" lon="-6.5306660">
        <ele>1019.2</ele>
        <time>2014-10-01T06:44:59Z</time>
      </trkpt>
      <trkpt lat="42.4830710" lon="-6.5306780">
        <ele>1019.3</ele>
        <time>2014-10-01T06:45:00Z</time>
      </trkpt>
      <trkpt lat="42.4830240" lon="-6.5306880">
        <ele>1019.4</ele>
        <time>2014-10-01T06:45:01Z</time>
      </trkpt>
      <trkpt lat="42.4829770" lon="-6.5306980">
        <ele>1019.4</ele>
        <time>2014-10-01T06:45:02Z</time>
      </trkpt>
      <trkpt lat="42.4829290" lon="-6.5307070">
        <ele>1019.4</ele>
        <time>2014-10-01T06:45:03Z</time>
      </trkpt>
      <trkpt lat="42.4828820" lon="-6.5307160">
        <ele>1019.4</ele>
        <time>2014-10-01T06:45:04Z</time>
      </trkpt>
      <trkpt lat="42.4828310" lon="-6.5307240">
        <ele>1019.3</ele>
        <time>2014-10-01T06:45:05Z</time>
      </trkpt>
      <trkpt lat="42.4827790" lon="-6.5307310">
        <ele>1019.1</ele>
        <time>2014-10-01T06:45:06Z</time>
      </trkpt>
      <trkpt lat="42.4827270" lon="-6.5307370">
        <ele>1019.1</ele>
        <time>2014-10-01T06:45:07Z</time>
      </trkpt>
      <trkpt lat="42.4826720" lon="-6.5307430">
        <ele>1019.0</ele>
        <time>2014-10-01T06:45:08Z</time>
      </trkpt>
      <trkpt lat="42.4826160" lon="-6.5307500">
        <ele>1019.0</ele>
        <time>2014-10-01T06:45:09Z</time>
      </trkpt>
      <trkpt lat="42.4825600" lon="-6.5307570">
        <ele>1019.0</ele>
        <time>2014-10-01T06:45:10Z</time>
      </trkpt>
      <trkpt lat="42.4825000" lon="-6.5307650">
        <ele>1018.9</ele>
        <time>2014-10-01T06:45:11Z</time>
      </trkpt>
      <trkpt lat="42.4824390" lon="-6.5307730">
        <ele>1018.9</ele>
        <time>2014-10-01T06:45:12Z</time>
      </trkpt>
      <trkpt lat="42.4823780" lon="-6.5307770">
        <ele>1018.9</ele>
        <time>2014-10-01T06:45:13Z</time>
      </trkpt>
      <trkpt lat="42.4823180" lon="-6.5307810">
        <ele>1018.9</ele>
        <time>2014-10-01T06:45:14Z</time>
      </trkpt>
      <trkpt lat="42.4822590" lon="-6.5307830">
        <ele>1018.8</ele>
        <time>2014-10-01T06:45:15Z</time>
      </trkpt>
      <trkpt lat="42.4821990" lon="-6.5307850">
        <ele>1018.8</ele>
        <time>2014-10-01T06:45:16Z</time>
      </trkpt>
      <trkpt lat="42.4821360" lon="-6.5307900">
        <ele>1018.7</ele>
        <time>2014-10-01T06:45:17Z</time>
      </trkpt>
      <trkpt lat="42.4820720" lon="-6.5307940">
        <ele>1018.7</ele>
        <time>2014-10-01T06:45:18Z</time>
      </trkpt>
      <trkpt lat="42.4820100" lon="-6.5307990">
        <ele>1018.6</ele>
        <time>2014-10-01T06:45:19Z</time>
      </trkpt>
      <trkpt lat="42.4819480" lon="-6.5308010">
        <ele>1018.6</ele>
        <time>2014-10-01T06:45:20Z</time>
      </trkpt>
      <trkpt lat="42.4818840" lon="-6.5308040">
        <ele>1018.5</ele>
        <time>2014-10-01T06:45:21Z</time>
      </trkpt>
      <trkpt lat="42.4818190" lon="-6.5308070">
        <ele>1018.5</ele>
        <time>2014-10-01T06:45:22Z</time>
      </trkpt>
      <trkpt lat="42.4817530" lon="-6.5308110">
        <ele>1018.4</ele>
        <time>2014-10-01T06:45:23Z</time>
      </trkpt>
      <trkpt lat="42.4816870" lon="-6.5308150">
        <ele>1018.4</ele>
        <time>2014-10-01T06:45:24Z</time>
      </trkpt>
      <trkpt lat="42.4816210" lon="-6.5308180">
        <ele>1018.3</ele>
        <time>2014-10-01T06:45:25Z</time>
      </trkpt>
      <trkpt lat="42.4815550" lon="-6.5308190">
        <ele>1018.3</ele>
        <time>2014-10-01T06:45:26Z</time>
      </trkpt>
      <trkpt lat="42.4814890" lon="-6.5308200">
        <ele>1018.3</ele>
        <time>2014-10-01T06:45:27Z</time>
      </trkpt>
      <trkpt lat="42.4814230" lon="-6.5308220">
        <ele>1018.2</ele>
        <time>2014-10-01T06:45:28Z</time>
      </trkpt>
      <trkpt lat="42.4813570" lon="-6.5308230">
        <ele>1018.2</ele>
        <time>2014-10-01T06:45:29Z</time>
      </trkpt>
      <trkpt lat="42.4812910" lon="-6.5308250">
        <ele>1018.2</ele>
        <time>2014-10-01T06:45:30Z</time>
      </trkpt>
      <trkpt lat="42.4812260" lon="-6.5308240">
        <ele>1018.3</ele>
        <time>2014-10-01T06:45:31Z</time>
      </trkpt>
      <trkpt lat="42.4811600" lon="-6.5308240">
        <ele>1018.4</ele>
        <time>2014-10-01T06:45:32Z</time>
      </trkpt>
      <trkpt lat="42.4810940" lon="-6.5308240">
        <ele>1018.5</ele>
        <time>2014-10-01T06:45:33Z</time>
      </trkpt>
      <trkpt lat="42.4810280" lon="-6.5308240">
        <ele>1018.6</ele>
        <time>2014-10-01T06:45:34Z</time>
      </trkpt>
      <trkpt lat="42.4809620" lon="-6.5308240">
        <ele>1018.7</ele>
        <time>2014-10-01T06:45:35Z</time>
      </trkpt>
      <trkpt lat="42.4808950" lon="-6.5308210">
        <ele>1018.7</ele>
        <time>2014-10-01T06:45:36Z</time>
      </trkpt>
      <trkpt lat="42.4808300" lon="-6.5308190">
        <ele>1018.8</ele>
        <time>2014-10-01T06:45:37Z</time>
      </trkpt>
      <trkpt lat="42.4807650" lon="-6.5308150">
        <ele>1018.9</ele>
        <time>2014-10-01T06:45:38Z</time>
      </trkpt>
      <trkpt lat="42.4807020" lon="-6.5308080">
        <ele>1019.0</ele>
        <time>2014-10-01T06:45:39Z</time>
      </trkpt>
      <trkpt lat="42.4806390" lon="-6.5308010">
        <ele>1019.2</ele>
        <time>2014-10-01T06:45:40Z</time>
      </trkpt>
      <trkpt lat="42.4805770" lon="-6.5307930">
        <ele>1019.5</ele>
        <time>2014-10-01T06:45:41Z</time>
      </trkpt>
      <trkpt lat="42.4805150" lon="-6.5307850">
        <ele>1019.7</ele>
        <time>2014-10-01T06:45:42Z</time>
      </trkpt>
      <trkpt lat="42.4804520" lon="-6.5307770">
        <ele>1020.0</ele>
        <time>2014-10-01T06:45:43Z</time>
      </trkpt>
      <trkpt lat="42.4803910" lon="-6.5307700">
        <ele>1020.3</ele>
        <time>2014-10-01T06:45:44Z</time>
      </trkpt>
      <trkpt lat="42.4803290" lon="-6.5307620">
        <ele>1020.6</ele>
        <time>2014-10-01T06:45:45Z</time>
      </trkpt>
      <trkpt lat="42.4802690" lon="-6.5307540">
        <ele>1020.9</ele>
        <time>2014-10-01T06:45:46Z</time>
      </trkpt>
      <trkpt lat="42.4802090" lon="-6.5307450">
        <ele>1021.2</ele>
        <time>2014-10-01T06:45:47Z</time>
      </trkpt>
      <trkpt lat="42.4801480" lon="-6.5307350">
        <ele>1021.5</ele>
        <time>2014-10-01T06:45:48Z</time>
      </trkpt>
      <trkpt lat="42.4800870" lon="-6.5307250">
        <ele>1021.9</ele>
        <time>2014-10-01T06:45:49Z</time>
      </trkpt>
      <trkpt lat="42.4800250" lon="-6.5307160">
        <ele>1022.2</ele>
        <time>2014-10-01T06:45:50Z</time>
      </trkpt>
      <trkpt lat="42.4799630" lon="-6.5307050">
        <ele>1022.6</ele>
        <time>2014-10-01T06:45:51Z</time>
      </trkpt>
      <trkpt lat="42.4799040" lon="-6.5306940">
        <ele>1022.9</ele>
        <time>2014-10-01T06:45:52Z</time>
      </trkpt>
      <trkpt lat="42.4798460" lon="-6.5306830">
        <ele>1023.2</ele>
        <time>2014-10-01T06:45:53Z</time>
      </trkpt>
      <trkpt lat="42.4797890" lon="-6.5306740">
        <ele>1023.6</ele>
        <time>2014-10-01T06:45:54Z</time>
      </trkpt>
      <trkpt lat="42.4797330" lon="-6.5306670">
        <ele>1023.9</ele>
        <time>2014-10-01T06:45:55Z</time>
      </trkpt>
      <trkpt lat="42.4796780" lon="-6.5306590">
        <ele>1024.3</ele>
        <time>2014-10-01T06:45:56Z</time>
      </trkpt>
      <trkpt lat="42.4796220" lon="-6.5306530">
        <ele>1024.7</ele>
        <time>2014-10-01T06:45:57Z</time>
      </trkpt>
      <trkpt lat="42.4795660" lon="-6.5306500">
        <ele>1025.1</ele>
        <time>2014-10-01T06:45:58Z</time>
      </trkpt>
      <trkpt lat="42.4795100" lon="-6.5306490">
        <ele>1025.6</ele>
        <time>2014-10-01T06:45:59Z</time>
      </trkpt>
      <trkpt lat="42.4794580" lon="-6.5306480">
        <ele>1026.0</ele>
        <time>2014-10-01T06:46:00Z</time>
      </trkpt>
      <trkpt lat="42.4794080" lon="-6.5306470">
        <ele>1026.4</ele>
        <time>2014-10-01T06:46:01Z</time>
      </trkpt>
      <trkpt lat="42.4793590" lon="-6.5306430">
        <ele>1026.9</ele>
        <time>2014-10-01T06:46:02Z</time>
      </trkpt>
      <trkpt lat="42.4793140" lon="-6.5306410">
        <ele>1027.3</ele>
        <time>2014-10-01T06:46:03Z</time>
      </trkpt>
      <trkpt lat="42.4792690" lon="-6.5306370">
        <ele>1027.8</ele>
        <time>2014-10-01T06:46:04Z</time>
      </trkpt>
      <trkpt lat="42.4792290" lon="-6.5306330">
        <ele>1028.2</ele>
        <time>2014-10-01T06:46:05Z</time>
      </trkpt>
      <trkpt lat="42.4791890" lon="-6.5306280">
        <ele>1028.7</ele>
        <time>2014-10-01T06:46:06Z</time>
      </trkpt>
      <trkpt lat="42.4791520" lon="-6.5306240">
        <ele>1029.1</ele>
        <time>2014-10-01T06:46:07Z</time>
      </trkpt>
      <trkpt lat="42.4791190" lon="-6.5306190">
        <ele>1029.4</ele>
        <time>2014-10-01T06:46:08Z</time>
      </trkpt>
      <trkpt lat="42.4790860" lon="-6.5306160">
        <ele>1029.8</ele>
        <time>2014-10-01T06:46:09Z</time>
      </trkpt>
      <trkpt lat="42.4790530" lon="-6.5306090">
        <ele>1030.1</ele>
        <time>2014-10-01T06:46:10Z</time>
      </trkpt>
      <trkpt lat="42.4790180" lon="-6.5306030">
        <ele>1030.6</ele>
        <time>2014-10-01T06:46:11Z</time>
      </trkpt>
      <trkpt lat="42.4789890" lon="-6.5305960">
        <ele>1031.0</ele>
        <time>2014-10-01T06:46:12Z</time>
      </trkpt>
      <trkpt lat="42.4789600" lon="-6.5305900">
        <ele>1031.4</ele>
        <time>2014-10-01T06:46:13Z</time>
      </trkpt>
      <trkpt lat="42.4789300" lon="-6.5305870">
        <ele>1031.8</ele>
        <time>2014-10-01T06:46:14Z</time>
      </trkpt>
      <trkpt lat="42.4789000" lon="-6.5305840">
        <ele>1032.3</ele>
        <time>2014-10-01T06:46:15Z</time>
      </trkpt>
      <trkpt lat="42.4788540" lon="-6.5305850">
        <ele>1033.0</ele>
        <time>2014-10-01T06:46:17Z</time>
      </trkpt>
      <trkpt lat="42.4788180" lon="-6.5305930">
        <ele>1033.6</ele>
        <time>2014-10-01T06:46:19Z</time>
      </trkpt>
      <trkpt lat="42.4787720" lon="-6.5305990">
        <ele>1034.3</ele>
        <time>2014-10-01T06:46:21Z</time>
      </trkpt>
      <trkpt lat="42.4787200" lon="-6.5305970">
        <ele>1035.1</ele>
        <time>2014-10-01T06:46:23Z</time>
      </trkpt>
      <trkpt lat="42.4786700" lon="-6.5305930">
        <ele>1035.9</ele>
        <time>2014-10-01T06:46:25Z</time>
      </trkpt>
      <trkpt lat="42.4786220" lon="-6.5305940">
        <ele>1036.7</ele>
        <time>2014-10-01T06:46:27Z</time>
      </trkpt>
      <trkpt lat="42.4785780" lon="-6.5305940">
        <ele>1037.3</ele>
        <time>2014-10-01T06:46:29Z</time>
      </trkpt>
      <trkpt lat="42.4785330" lon="-6.5305920">
        <ele>1038.0</ele>
        <time>2014-10-01T06:46:31Z</time>
      </trkpt>
      <trkpt lat="42.4784870" lon="-6.5305920">
        <ele>1038.8</ele>
        <time>2014-10-01T06:46:33Z</time>
      </trkpt>
      <trkpt lat="42.4784400" lon="-6.5305870">
        <ele>1039.5</ele>
        <time>2014-10-01T06:46:35Z</time>
      </trkpt>
      <trkpt lat="42.4783940" lon="-6.5305790">
        <ele>1040.2</ele>
        <time>2014-10-01T06:46:37Z</time>
      </trkpt>
      <trkpt lat="42.4783480" lon="-6.5305690">
        <ele>1040.8</ele>
        <time>2014-10-01T06:46:39Z</time>
      </trkpt>
      <trkpt lat="42.4783080" lon="-6.5305630">
        <ele>1041.4</ele>
        <time>2014-10-01T06:46:41Z</time>
      </trkpt>
      <trkpt lat="42.4782640" lon="-6.5305580">
        <ele>1042.0</ele>
        <time>2014-10-01T06:46:43Z</time>
      </trkpt>
      <trkpt lat="42.4782230" lon="-6.5305570">
        <ele>1042.6</ele>
        <time>2014-10-01T06:46:45Z</time>
      </trkpt>
      <trkpt lat="42.4781790" lon="-6.5305560">
        <ele>1043.3</ele>
        <time>2014-10-01T06:46:47Z</time>
      </trkpt>
      <trkpt lat="42.4781350" lon="-6.5305490">
        <ele>1044.0</ele>
        <time>2014-10-01T06:46:49Z</time>
      </trkpt>
      <trkpt lat="42.4780870" lon="-6.5305420">
        <ele>1044.8</ele>
        <time>2014-10-01T06:46:51Z</time>
      </trkpt>
      <trkpt lat="42.4780390" lon="-6.5305350">
        <ele>1045.6</ele>
        <time>2014-10-01T06:46:53Z</time>
      </trkpt>
      <trkpt lat="42.4779970" lon="-6.5305290">
        <ele>1046.3</ele>
        <time>2014-10-01T06:46:55Z</time>
      </trkpt>
      <trkpt lat="42.4779540" lon="-6.5305240">
        <ele>1047.1</ele>
        <time>2014-10-01T06:46:57Z</time>
      </trkpt>
      <trkpt lat="42.4779120" lon="-6.5305190">
        <ele>1047.7</ele>
        <time>2014-10-01T06:46:59Z</time>
      </trkpt>
      <trkpt lat="42.4778690" lon="-6.5305150">
        <ele>1048.4</ele>
        <time>2014-10-01T06:47:01Z</time>
      </trkpt>
      <trkpt lat="42.4778190" lon="-6.5305090">
        <ele>1049.1</ele>
        <time>2014-10-01T06:47:03Z</time>
      </trkpt>
      <trkpt lat="42.4777750" lon="-6.5305020">
        <ele>1049.8</ele>
        <time>2014-10-01T06:47:05Z</time>
      </trkpt>
      <trkpt lat="42.4777350" lon="-6.5304940">
        <ele>1050.4</ele>
        <time>2014-10-01T06:47:07Z</time>
      </trkpt>
      <trkpt lat="42.4776890" lon="-6.5304800">
        <ele>1051.1</ele>
        <time>2014-10-01T06:47:09Z</time>
      </trkpt>
      <trkpt lat="42.4776510" lon="-6.5304640">
        <ele>1051.6</ele>
        <time>2014-10-01T06:47:11Z</time>
      </trkpt>
      <trkpt lat="42.4776150" lon="-6.5304490">
        <ele>1052.2</ele>
        <time>2014-10-01T06:47:13Z</time>
      </trkpt>
      <trkpt lat="42.4775790" lon="-6.5304340">
        <ele>1052.7</ele>
        <time>2014-10-01T06:47:15Z</time>
      </trkpt>
      <trkpt lat="42.4775350" lon="-6.5304150">
        <ele>1053.4</ele>
        <time>2014-10-01T06:47:17Z</time>
      </trkpt>
      <trkpt lat="42.4774940" lon="-6.5303950">
        <ele>1053.9</ele>
        <time>2014-10-01T06:47:19Z</time>
      </trkpt>
      <trkpt lat="42.4774540" lon="-6.5303740">
        <ele>1054.4</ele>
        <time>2014-10-01T06:47:21Z</time>
      </trkpt>
      <trkpt lat="42.4774150" lon="-6.5303490">
        <ele>1054.9</ele>
        <time>2014-10-01T06:47:23Z</time>
      </trkpt>
      <trkpt lat="42.4773750" lon="-6.5303280">
        <ele>1055.5</ele>
        <time>2014-10-01T06:47:25Z</time>
      </trkpt>
      <trkpt lat="42.4773370" lon="-6.5303080">
        <ele>1055.9</ele>
        <time>2014-10-01T06:47:27Z</time>
      </trkpt>
      <trkpt lat="42.4772900" lon="-6.5302810">
        <ele>1056.5</ele>
        <time>2014-10-01T06:47:29Z</time>
      </trkpt>
      <trkpt lat="42.4772450" lon="-6.5302550">
        <ele>1057.0</ele>
        <time>2014-10-01T06:47:31Z</time>
      </trkpt>
      <trkpt lat="42.4772190" lon="-6.5302400">
        <ele>1057.3</ele>
        <time>2014-10-01T06:47:32Z</time>
      </trkpt>
      <trkpt lat="42.4771720" lon="-6.5302190">
        <ele>1057.8</ele>
        <time>2014-10-01T06:47:34Z</time>
      </trkpt>
      <trkpt lat="42.4771470" lon="-6.5302070">
        <ele>1058.0</ele>
        <time>2014-10-01T06:47:35Z</time>
      </trkpt>
      <trkpt lat="42.4771200" lon="-6.5301940">
        <ele>1058.3</ele>
        <time>2014-10-01T06:47:36Z</time>
      </trkpt>
      <trkpt lat="42.4770760" lon="-6.5301720">
        <ele>1058.7</ele>
        <time>2014-10-01T06:47:38Z</time>
      </trkpt>
      <trkpt lat="42.4770290" lon="-6.5301430">
        <ele>1059.1</ele>
        <time>2014-10-01T06:47:40Z</time>
      </trkpt>
      <trkpt lat="42.4770020" lon="-6.5301270">
        <ele>1059.3</ele>
        <time>2014-10-01T06:47:41Z</time>
      </trkpt>
      <trkpt lat="42.4769770" lon="-6.5301130">
        <ele>1059.6</ele>
        <time>2014-10-01T06:47:42Z</time>
      </trkpt>
      <trkpt lat="42.4769490" lon="-6.5301000">
        <ele>1059.8</ele>
        <time>2014-10-01T06:47:43Z</time>
      </trkpt>
      <trkpt lat="42.4769210" lon="-6.5300870">
        <ele>1060.0</ele>
        <time>2014-10-01T06:47:44Z</time>
      </trkpt>
      <trkpt lat="42.4768910" lon="-6.5300730">
        <ele>1060.3</ele>
        <time>2014-10-01T06:47:45Z</time>
      </trkpt>
      <trkpt lat="42.4768630" lon="-6.5300610">
        <ele>1060.5</ele>
        <time>2014-10-01T06:47:46Z</time>
      </trkpt>
      <trkpt lat="42.4768350" lon="-6.5300490">
        <ele>1060.8</ele>
        <time>2014-10-01T06:47:47Z</time>
      </trkpt>
      <trkpt lat="42.4767850" lon="-6.5300320">
        <ele>1061.2</ele>
        <time>2014-10-01T06:47:49Z</time>
      </trkpt>
      <trkpt lat="42.4767320" lon="-6.5300140">
        <ele>1061.7</ele>
        <time>2014-10-01T06:47:51Z</time>
      </trkpt>
      <trkpt lat="42.4767050" lon="-6.5300040">
        <ele>1062.0</ele>
        <time>2014-10-01T06:47:52Z</time>
      </trkpt>
      <trkpt lat="42.4766750" lon="-6.5299920">
        <ele>1062.2</ele>
        <time>2014-10-01T06:47:53Z</time>
      </trkpt>
      <trkpt lat="42.4766440" lon="-6.5299780">
        <ele>1062.6</ele>
        <time>2014-10-01T06:47:54Z</time>
      </trkpt>
      <trkpt lat="42.4765990" lon="-6.5299590">
        <ele>1063.0</ele>
        <time>2014-10-01T06:47:56Z</time>
      </trkpt>
      <trkpt lat="42.4765560" lon="-6.5299430">
        <ele>1063.6</ele>
        <time>2014-10-01T06:47:58Z</time>
      </trkpt>
      <trkpt lat="42.4765300" lon="-6.5299330">
        <ele>1063.9</ele>
        <time>2014-10-01T06:47:59Z</time>
      </trkpt>
      <trkpt lat="42.4765020" lon="-6.5299220">
        <ele>1064.2</ele>
        <time>2014-10-01T06:48:00Z</time>
      </trkpt>
      <trkpt lat="42.4764510" lon="-6.5298950">
        <ele>1064.9</ele>
        <time>2014-10-01T06:48:02Z</time>
      </trkpt>
      <trkpt lat="42.4764260" lon="-6.5298810">
        <ele>1065.3</ele>
        <time>2014-10-01T06:48:03Z</time>
      </trkpt>
      <trkpt lat="42.4763760" lon="-6.5298550">
        <ele>1066.0</ele>
        <time>2014-10-01T06:48:05Z</time>
      </trkpt>
      <trkpt lat="42.4763500" lon="-6.5298440">
        <ele>1066.3</ele>
        <time>2014-10-01T06:48:06Z</time>
      </trkpt>
      <trkpt lat="42.4763020" lon="-6.5298250">
        <ele>1067.0</ele>
        <time>2014-10-01T06:48:08Z</time>
      </trkpt>
      <trkpt lat="42.4762580" lon="-6.5298050">
        <ele>1067.6</ele>
        <time>2014-10-01T06:48:10Z</time>
      </trkpt>
      <trkpt lat="42.4762130" lon="-6.5297820">
        <ele>1068.2</ele>
        <time>2014-10-01T06:48:12Z</time>
      </trkpt>
      <trkpt lat="42.4761700" lon="-6.5297580">
        <ele>1068.9</ele>
        <time>2014-10-01T06:48:14Z</time>
      </trkpt>
      <trkpt lat="42.4761250" lon="-6.5297310">
        <ele>1069.6</ele>
        <time>2014-10-01T06:48:16Z</time>
      </trkpt>
      <trkpt lat="42.4760810" lon="-6.5297070">
        <ele>1070.2</ele>
        <time>2014-10-01T06:48:18Z</time>
      </trkpt>
      <trkpt lat="42.4760390" lon="-6.5296850">
        <ele>1070.9</ele>
        <time>2014-10-01T06:48:20Z</time>
      </trkpt>
      <trkpt lat="42.4759950" lon="-6.5296550">
        <ele>1071.6</ele>
        <time>2014-10-01T06:48:22Z</time>
      </trkpt>
      <trkpt lat="42.4759540" lon="-6.5296260">
        <ele>1072.2</ele>
        <time>2014-10-01T06:48:24Z</time>
      </trkpt>
      <trkpt lat="42.4759170" lon="-6.5296020">
        <ele>1072.8</ele>
        <time>2014-10-01T06:48:26Z</time>
      </trkpt>
      <trkpt lat="42.4757970" lon="-6.5295240">
        <ele>1074.8</ele>
        <time>2014-10-01T06:48:32Z</time>
      </trkpt>
      <trkpt lat="42.4757140" lon="-6.5294740">
        <ele>1075.9</ele>
        <time>2014-10-01T06:48:36Z</time>
      </trkpt>
      <trkpt lat="42.4756700" lon="-6.5294500">
        <ele>1076.4</ele>
        <time>2014-10-01T06:48:38Z</time>
      </trkpt>
      <trkpt lat="42.4756240" lon="-6.5294250">
        <ele>1077.0</ele>
        <time>2014-10-01T06:48:40Z</time>
      </trkpt>
      <trkpt lat="42.4755780" lon="-6.5293990">
        <ele>1077.5</ele>
        <time>2014-10-01T06:48:42Z</time>
      </trkpt>
      <trkpt lat="42.4754900" lon="-6.5293470">
        <ele>1078.4</ele>
        <time>2014-10-01T06:48:46Z</time>
      </trkpt>
      <trkpt lat="42.4754480" lon="-6.5293200">
        <ele>1078.9</ele>
        <time>2014-10-01T06:48:48Z</time>
      </trkpt>
      <trkpt lat="42.4754050" lon="-6.5292990">
        <ele>1079.3</ele>
        <time>2014-10-01T06:48:50Z</time>
      </trkpt>
      <trkpt lat="42.4753560" lon="-6.5292760">
        <ele>1079.9</ele>
        <time>2014-10-01T06:48:52Z</time>
      </trkpt>
      <trkpt lat="42.4753100" lon="-6.5292540">
        <ele>1080.4</ele>
        <time>2014-10-01T06:48:54Z</time>
      </trkpt>
      <trkpt lat="42.4752680" lon="-6.5292360">
        <ele>1080.8</ele>
        <time>2014-10-01T06:48:56Z</time>
      </trkpt>
      <trkpt lat="42.4752200" lon="-6.5292130">
        <ele>1081.4</ele>
        <time>2014-10-01T06:48:58Z</time>
      </trkpt>
      <trkpt lat="42.4751560" lon="-6.5291820">
        <ele>1082.1</ele>
        <time>2014-10-01T06:49:01Z</time>
      </trkpt>
      <trkpt lat="42.4750920" lon="-6.5291560">
        <ele>1082.8</ele>
        <time>2014-10-01T06:49:04Z</time>
      </trkpt>
      <trkpt lat="42.4750420" lon="-6.5291370">
        <ele>1083.4</ele>
        <time>2014-10-01T06:49:06Z</time>
      </trkpt>
      <trkpt lat="42.4749920" lon="-6.5291150">
        <ele>1083.9</ele>
        <time>2014-10-01T06:49:08Z</time>
      </trkpt>
      <trkpt lat="42.4749660" lon="-6.5291010">
        <ele>1084.2</ele>
        <time>2014-10-01T06:49:09Z</time>
      </trkpt>
      <trkpt lat="42.4749380" lon="-6.5290860">
        <ele>1084.6</ele>
        <time>2014-10-01T06:49:10Z</time>
      </trkpt>
      <trkpt lat="42.4749070" lon="-6.5290700">
        <ele>1084.9</ele>
        <time>2014-10-01T06:49:11Z</time>
      </trkpt>
      <trkpt lat="42.4748780" lon="-6.5290550">
        <ele>1085.2</ele>
        <time>2014-10-01T06:49:12Z</time>
      </trkpt>
      <trkpt lat="42.4748520" lon="-6.5290410">
        <ele>1085.6</ele>
        <time>2014-10-01T06:49:13Z</time>
      </trkpt>
      <trkpt lat="42.4748090" lon="-6.5290190">
        <ele>1086.1</ele>
        <time>2014-10-01T06:49:15Z</time>
      </trkpt>
      <trkpt lat="42.4747650" lon="-6.5289960">
        <ele>1086.7</ele>
        <time>2014-10-01T06:49:17Z</time>
      </trkpt>
      <trkpt lat="42.4746970" lon="-6.5289630">
        <ele>1087.6</ele>
        <time>2014-10-01T06:49:20Z</time>
      </trkpt>
      <trkpt lat="42.4746340" lon="-6.5289290">
        <ele>1088.5</ele>
        <time>2014-10-01T06:49:23Z</time>
      </trkpt>
      <trkpt lat="42.4745860" lon="-6.5289030">
        <ele>1089.1</ele>
        <time>2014-10-01T06:49:25Z</time>
      </trkpt>
      <trkpt lat="42.4745410" lon="-6.5288820">
        <ele>1089.8</ele>
        <time>2014-10-01T06:49:27Z</time>
      </trkpt>
      <trkpt lat="42.4745020" lon="-6.5288660">
        <ele>1090.3</ele>
        <time>2014-10-01T06:49:29Z</time>
      </trkpt>
      <trkpt lat="42.4744510" lon="-6.5288440">
        <ele>1090.9</ele>
        <time>2014-10-01T06:49:31Z</time>
      </trkpt>
      <trkpt lat="42.4744000" lon="-6.5288220">
        <ele>1091.6</ele>
        <time>2014-10-01T06:49:33Z</time>
      </trkpt>
      <trkpt lat="42.4743540" lon="-6.5288000">
        <ele>1092.1</ele>
        <time>2014-10-01T06:49:35Z</time>
      </trkpt>
      <trkpt lat="42.4743100" lon="-6.5287800">
        <ele>1092.6</ele>
        <time>2014-10-01T06:49:37Z</time>
      </trkpt>
      <trkpt lat="42.4742200" lon="-6.5287450">
        <ele>1093.6</ele>
        <time>2014-10-01T06:49:41Z</time>
      </trkpt>
      <trkpt lat="42.4741730" lon="-6.5287240">
        <ele>1094.1</ele>
        <time>2014-10-01T06:49:43Z</time>
      </trkpt>
      <trkpt lat="42.4741250" lon="-6.5287040">
        <ele>1094.7</ele>
        <time>2014-10-01T06:49:45Z</time>
      </trkpt>
      <trkpt lat="42.4740800" lon="-6.5286840">
        <ele>1095.2</ele>
        <time>2014-10-01T06:49:47Z</time>
      </trkpt>
      <trkpt lat="42.4740350" lon="-6.5286650">
        <ele>1095.6</ele>
        <time>2014-10-01T06:49:49Z</time>
      </trkpt>
      <trkpt lat="42.4739880" lon="-6.5286450">
        <ele>1096.1</ele>
        <time>2014-10-01T06:49:51Z</time>
      </trkpt>
      <trkpt lat="42.4739450" lon="-6.5286300">
        <ele>1096.6</ele>
        <time>2014-10-01T06:49:53Z</time>
      </trkpt>
      <trkpt lat="42.4738960" lon="-6.5286140">
        <ele>1097.1</ele>
        <time>2014-10-01T06:49:55Z</time>
      </trkpt>
      <trkpt lat="42.4738490" lon="-6.5285920">
        <ele>1097.5</ele>
        <time>2014-10-01T06:49:57Z</time>
      </trkpt>
      <trkpt lat="42.4738100" lon="-6.5285750">
        <ele>1097.9</ele>
        <time>2014-10-01T06:49:59Z</time>
      </trkpt>
      <trkpt lat="42.4737830" lon="-6.5285640">
        <ele>1098.1</ele>
        <time>2014-10-01T06:50:00Z</time>
      </trkpt>
      <trkpt lat="42.4737290" lon="-6.5285470">
        <ele>1098.6</ele>
        <time>2014-10-01T06:50:02Z</time>
      </trkpt>
      <trkpt lat="42.4736900" lon="-6.5285330">
        <ele>1098.9</ele>
        <time>2014-10-01T06:50:04Z</time>
      </trkpt>
      <trkpt lat="42.4736620" lon="-6.5285220">
        <ele>1099.1</ele>
        <time>2014-10-01T06:50:05Z</time>
      </trkpt>
      <trkpt lat="42.4736150" lon="-6.5285070">
        <ele>1099.5</ele>
        <time>2014-10-01T06:50:07Z</time>
      </trkpt>
      <trkpt lat="42.4735650" lon="-6.5284890">
        <ele>1099.8</ele>
        <time>2014-10-01T06:50:09Z</time>
      </trkpt>
      <trkpt lat="42.4735100" lon="-6.5284730">
        <ele>1100.1</ele>
        <time>2014-10-01T06:50:11Z</time>
      </trkpt>
      <trkpt lat="42.4734770" lon="-6.5284630">
        <ele>1100.3</ele>
        <time>2014-10-01T06:50:12Z</time>
      </trkpt>
      <trkpt lat="42.4734470" lon="-6.5284550">
        <ele>1100.4</ele>
        <time>2014-10-01T06:50:13Z</time>
      </trkpt>
      <trkpt lat="42.4734200" lon="-6.5284480">
        <ele>1100.5</ele>
        <time>2014-10-01T06:50:14Z</time>
      </trkpt>
      <trkpt lat="42.4733850" lon="-6.5284390">
        <ele>1100.7</ele>
        <time>2014-10-01T06:50:15Z</time>
      </trkpt>
      <trkpt lat="42.4733480" lon="-6.5284270">
        <ele>1100.8</ele>
        <time>2014-10-01T06:50:16Z</time>
      </trkpt>
      <trkpt lat="42.4733110" lon="-6.5284160">
        <ele>1100.9</ele>
        <time>2014-10-01T06:50:17Z</time>
      </trkpt>
      <trkpt lat="42.4732730" lon="-6.5284040">
        <ele>1101.0</ele>
        <time>2014-10-01T06:50:18Z</time>
      </trkpt>
      <trkpt lat="42.4732370" lon="-6.5283940">
        <ele>1101.1</ele>
        <time>2014-10-01T06:50:19Z</time>
      </trkpt>
      <trkpt lat="42.4731990" lon="-6.5283840">
        <ele>1101.1</ele>
        <time>2014-10-01T06:50:20Z</time>
      </trkpt>
      <trkpt lat="42.4731640" lon="-6.5283760">
        <ele>1101.1</ele>
        <time>2014-10-01T06:50:21Z</time>
      </trkpt>
      <trkpt lat="42.4731260" lon="-6.5283680">
        <ele>1101.1</ele>
        <time>2014-10-01T06:50:22Z</time>
      </trkpt>
      <trkpt lat="42.4730830" lon="-6.5283570">
        <ele>1101.1</ele>
        <time>2014-10-01T06:50:23Z</time>
      </trkpt>
      <trkpt lat="42.4730360" lon="-6.5283420">
        <ele>1101.1</ele>
        <time>2014-10-01T06:50:24Z</time>
      </trkpt>
      <trkpt lat="42.4729880" lon="-6.5283260">
        <ele>1101.1</ele>
        <time>2014-10-01T06:50:25Z</time>
      </trkpt>
      <trkpt lat="42.4729390" lon="-6.5283090">
        <ele>1101.1</ele>
        <time>2014-10-01T06:50:26Z</time>
      </trkpt>
      <trkpt lat="42.4728880" lon="-6.5282910">
        <ele>1101.1</ele>
        <time>2014-10-01T06:50:27Z</time>
      </trkpt>
      <trkpt lat="42.4728340" lon="-6.5282700">
        <ele>1101.1</ele>
        <time>2014-10-01T06:50:28Z</time>
      </trkpt>
      <trkpt lat="42.4727830" lon="-6.5282510">
        <ele>1101.1</ele>
        <time>2014-10-01T06:50:29Z</time>
      </trkpt>
      <trkpt lat="42.4727310" lon="-6.5282350">
        <ele>1101.1</ele>
        <time>2014-10-01T06:50:30Z</time>
      </trkpt>
      <trkpt lat="42.4726770" lon="-6.5282190">
        <ele>1101.1</ele>
        <time>2014-10-01T06:50:31Z</time>
      </trkpt>
      <trkpt lat="42.4726230" lon="-6.5282040">
        <ele>1101.0</ele>
        <time>2014-10-01T06:50:32Z</time>
      </trkpt>
      <trkpt lat="42.4725700" lon="-6.5281910">
        <ele>1100.9</ele>
        <time>2014-10-01T06:50:33Z</time>
      </trkpt>
      <trkpt lat="42.4725160" lon="-6.5281760">
        <ele>1100.9</ele>
        <time>2014-10-01T06:50:34Z</time>
      </trkpt>
      <trkpt lat="42.4724620" lon="-6.5281610">
        <ele>1100.9</ele>
        <time>2014-10-01T06:50:35Z</time>
      </trkpt>
      <trkpt lat="42.4724100" lon="-6.5281460">
        <ele>1100.9</ele>
        <time>2014-10-01T06:50:36Z</time>
      </trkpt>
      <trkpt lat="42.4723600" lon="-6.5281320">
        <ele>1100.8</ele>
        <time>2014-10-01T06:50:37Z</time>
      </trkpt>
      <trkpt lat="42.4723070" lon="-6.5281180">
        <ele>1100.8</ele>
        <time>2014-10-01T06:50:38Z</time>
      </trkpt>
      <trkpt lat="42.4722520" lon="-6.5281040">
        <ele>1100.8</ele>
        <time>2014-10-01T06:50:39Z</time>
      </trkpt>
      <trkpt lat="42.4721970" lon="-6.5280930">
        <ele>1100.8</ele>
        <time>2014-10-01T06:50:40Z</time>
      </trkpt>
      <trkpt lat="42.4721400" lon="-6.5280810">
        <ele>1100.8</ele>
        <time>2014-10-01T06:50:41Z</time>
      </trkpt>
      <trkpt lat="42.4720800" lon="-6.5280680">
        <ele>1100.8</ele>
        <time>2014-10-01T06:50:42Z</time>
      </trkpt>
      <trkpt lat="42.4720220" lon="-6.5280530">
        <ele>1100.9</ele>
        <time>2014-10-01T06:50:43Z</time>
      </trkpt>
      <trkpt lat="42.4719620" lon="-6.5280380">
        <ele>1100.9</ele>
        <time>2014-10-01T06:50:44Z</time>
      </trkpt>
      <trkpt lat="42.4719060" lon="-6.5280240">
        <ele>1101.0</ele>
        <time>2014-10-01T06:50:45Z</time>
      </trkpt>
      <trkpt lat="42.4718490" lon="-6.5280100">
        <ele>1101.0</ele>
        <time>2014-10-01T06:50:46Z</time>
      </trkpt>
      <trkpt lat="42.4717930" lon="-6.5279950">
        <ele>1101.1</ele>
        <time>2014-10-01T06:50:47Z</time>
      </trkpt>
      <trkpt lat="42.4717370" lon="-6.5279820">
        <ele>1101.2</ele>
        <time>2014-10-01T06:50:48Z</time>
      </trkpt>
      <trkpt lat="42.4716820" lon="-6.5279700">
        <ele>1101.2</ele>
        <time>2014-10-01T06:50:49Z</time>
      </trkpt>
      <trkpt lat="42.4716220" lon="-6.5279540">
        <ele>1101.3</ele>
        <time>2014-10-01T06:50:50Z</time>
      </trkpt>
      <trkpt lat="42.4715630" lon="-6.5279390">
        <ele>1101.3</ele>
        <time>2014-10-01T06:50:51Z</time>
      </trkpt>
      <trkpt lat="42.4715060" lon="-6.5279250">
        <ele>1101.4</ele>
        <time>2014-10-01T06:50:52Z</time>
      </trkpt>
      <trkpt lat="42.4714460" lon="-6.5279100">
        <ele>1101.4</ele>
        <time>2014-10-01T06:50:53Z</time>
      </trkpt>
      <trkpt lat="42.4713830" lon="-6.5278920">
        <ele>1101.5</ele>
        <time>2014-10-01T06:50:54Z</time>
      </trkpt>
      <trkpt lat="42.4713200" lon="-6.5278740">
        <ele>1101.5</ele>
        <time>2014-10-01T06:50:55Z</time>
      </trkpt>
      <trkpt lat="42.4712580" lon="-6.5278580">
        <ele>1101.5</ele>
        <time>2014-10-01T06:50:56Z</time>
      </trkpt>
      <trkpt lat="42.4711960" lon="-6.5278420">
        <ele>1101.5</ele>
        <time>2014-10-01T06:50:57Z</time>
      </trkpt>
      <trkpt lat="42.4711370" lon="-6.5278280">
        <ele>1101.6</ele>
        <time>2014-10-01T06:50:58Z</time>
      </trkpt>
      <trkpt lat="42.4710810" lon="-6.5278150">
        <ele>1101.6</ele>
        <time>2014-10-01T06:50:59Z</time>
      </trkpt>
      <trkpt lat="42.4710240" lon="-6.5278020">
        <ele>1101.7</ele>
        <time>2014-10-01T06:51:00Z</time>
      </trkpt>
      <trkpt lat="42.4709700" lon="-6.5277870">
        <ele>1101.8</ele>
        <time>2014-10-01T06:51:01Z</time>
      </trkpt>
      <trkpt lat="42.4709210" lon="-6.5277730">
        <ele>1101.9</ele>
        <time>2014-10-01T06:51:02Z</time>
      </trkpt>
      <trkpt lat="42.4708690" lon="-6.5277550">
        <ele>1102.0</ele>
        <time>2014-10-01T06:51:03Z</time>
      </trkpt>
      <trkpt lat="42.4708150" lon="-6.5277330">
        <ele>1102.0</ele>
        <time>2014-10-01T06:51:04Z</time>
      </trkpt>
      <trkpt lat="42.4707620" lon="-6.5277070">
        <ele>1102.1</ele>
        <time>2014-10-01T06:51:05Z</time>
      </trkpt>
      <trkpt lat="42.4707080" lon="-6.5276750">
        <ele>1102.1</ele>
        <time>2014-10-01T06:51:06Z</time>
      </trkpt>
      <trkpt lat="42.4706560" lon="-6.5276400">
        <ele>1102.2</ele>
        <time>2014-10-01T06:51:07Z</time>
      </trkpt>
      <trkpt lat="42.4706070" lon="-6.5276020">
        <ele>1102.3</ele>
        <time>2014-10-01T06:51:08Z</time>
      </trkpt>
      <trkpt lat="42.4705550" lon="-6.5275590">
        <ele>1102.4</ele>
        <time>2014-10-01T06:51:09Z</time>
      </trkpt>
      <trkpt lat="42.4705050" lon="-6.5275120">
        <ele>1102.5</ele>
        <time>2014-10-01T06:51:10Z</time>
      </trkpt>
      <trkpt lat="42.4704570" lon="-6.5274640">
        <ele>1102.6</ele>
        <time>2014-10-01T06:51:11Z</time>
      </trkpt>
      <trkpt lat="42.4704060" lon="-6.5274120">
        <ele>1102.8</ele>
        <time>2014-10-01T06:51:12Z</time>
      </trkpt>
      <trkpt lat="42.4703540" lon="-6.5273590">
        <ele>1102.9</ele>
        <time>2014-10-01T06:51:13Z</time>
      </trkpt>
      <trkpt lat="42.4703060" lon="-6.5273110">
        <ele>1103.0</ele>
        <time>2014-10-01T06:51:14Z</time>
      </trkpt>
      <trkpt lat="42.4702610" lon="-6.5272660">
        <ele>1103.1</ele>
        <time>2014-10-01T06:51:15Z</time>
      </trkpt>
      <trkpt lat="42.4702130" lon="-6.5272160">
        <ele>1103.3</ele>
        <time>2014-10-01T06:51:16Z</time>
      </trkpt>
      <trkpt lat="42.4701660" lon="-6.5271680">
        <ele>1103.4</ele>
        <time>2014-10-01T06:51:17Z</time>
      </trkpt>
      <trkpt lat="42.4701200" lon="-6.5271210">
        <ele>1103.5</ele>
        <time>2014-10-01T06:51:18Z</time>
      </trkpt>
      <trkpt lat="42.4700710" lon="-6.5270700">
        <ele>1103.7</ele>
        <time>2014-10-01T06:51:19Z</time>
      </trkpt>
      <trkpt lat="42.4700230" lon="-6.5270200">
        <ele>1103.9</ele>
        <time>2014-10-01T06:51:20Z</time>
      </trkpt>
      <trkpt lat="42.4699790" lon="-6.5269750">
        <ele>1104.1</ele>
        <time>2014-10-01T06:51:21Z</time>
      </trkpt>
      <trkpt lat="42.4699300" lon="-6.5269270">
        <ele>1104.2</ele>
        <time>2014-10-01T06:51:22Z</time>
      </trkpt>
      <trkpt lat="42.4698790" lon="-6.5268780">
        <ele>1104.4</ele>
        <time>2014-10-01T06:51:23Z</time>
      </trkpt>
      <trkpt lat="42.4698340" lon="-6.5268360">
        <ele>1104.6</ele>
        <time>2014-10-01T06:51:24Z</time>
      </trkpt>
      <trkpt lat="42.4697940" lon="-6.5267980">
        <ele>1104.7</ele>
        <time>2014-10-01T06:51:25Z</time>
      </trkpt>
      <trkpt lat="42.4697470" lon="-6.5267540">
        <ele>1104.9</ele>
        <time>2014-10-01T06:51:26Z</time>
      </trkpt>
      <trkpt lat="42.4697050" lon="-6.5267130">
        <ele>1105.0</ele>
        <time>2014-10-01T06:51:27Z</time>
      </trkpt>
      <trkpt lat="42.4696620" lon="-6.5266720">
        <ele>1105.2</ele>
        <time>2014-10-01T06:51:28Z</time>
      </trkpt>
      <trkpt lat="42.4696180" lon="-6.5266280">
        <ele>1105.3</ele>
        <time>2014-10-01T06:51:29Z</time>
      </trkpt>
      <trkpt lat="42.4695730" lon="-6.5265840">
        <ele>1105.4</ele>
        <time>2014-10-01T06:51:30Z</time>
      </trkpt>
      <trkpt lat="42.4695250" lon="-6.5265370">
        <ele>1105.6</ele>
        <time>2014-10-01T06:51:31Z</time>
      </trkpt>
      <trkpt lat="42.4694830" lon="-6.5264950">
        <ele>1105.7</ele>
        <time>2014-10-01T06:51:32Z</time>
      </trkpt>
      <trkpt lat="42.4694390" lon="-6.5264530">
        <ele>1105.8</ele>
        <time>2014-10-01T06:51:33Z</time>
      </trkpt>
      <trkpt lat="42.4693930" lon="-6.5264080">
        <ele>1105.9</ele>
        <time>2014-10-01T06:51:34Z</time>
      </trkpt>
      <trkpt lat="42.4693460" lon="-6.5263620">
        <ele>1106.0</ele>
        <time>2014-10-01T06:51:35Z</time>
      </trkpt>
      <trkpt lat="42.4692980" lon="-6.5263140">
        <ele>1106.1</ele>
        <time>2014-10-01T06:51:36Z</time>
      </trkpt>
      <trkpt lat="42.4692540" lon="-6.5262690">
        <ele>1106.2</ele>
        <time>2014-10-01T06:51:37Z</time>
      </trkpt>
      <trkpt lat="42.4692060" lon="-6.5262200">
        <ele>1106.4</ele>
        <time>2014-10-01T06:51:38Z</time>
      </trkpt>
      <trkpt lat="42.4691670" lon="-6.5261840">
        <ele>1106.5</ele>
        <time>2014-10-01T06:51:39Z</time>
      </trkpt>
      <trkpt lat="42.4691270" lon="-6.5261460">
        <ele>1106.6</ele>
        <time>2014-10-01T06:51:40Z</time>
      </trkpt>
      <trkpt lat="42.4690850" lon="-6.5261080">
        <ele>1106.7</ele>
        <time>2014-10-01T06:51:41Z</time>
      </trkpt>
      <trkpt lat="42.4690440" lon="-6.5260680">
        <ele>1106.8</ele>
        <time>2014-10-01T06:51:42Z</time>
      </trkpt>
      <trkpt lat="42.4690010" lon="-6.5260290">
        <ele>1106.9</ele>
        <time>2014-10-01T06:51:43Z</time>
      </trkpt>
      <trkpt lat="42.4689580" lon="-6.5259890">
        <ele>1106.9</ele>
        <time>2014-10-01T06:51:44Z</time>
      </trkpt>
      <trkpt lat="42.4689170" lon="-6.5259520">
        <ele>1106.9</ele>
        <time>2014-10-01T06:51:45Z</time>
      </trkpt>
      <trkpt lat="42.4688720" lon="-6.5259110">
        <ele>1106.9</ele>
        <time>2014-10-01T06:51:46Z</time>
      </trkpt>
      <trkpt lat="42.4688270" lon="-6.5258680">
        <ele>1106.9</ele>
        <time>2014-10-01T06:51:47Z</time>
      </trkpt>
      <trkpt lat="42.4687790" lon="-6.5258210">
        <ele>1106.8</ele>
        <time>2014-10-01T06:51:48Z</time>
      </trkpt>
      <trkpt lat="42.4687260" lon="-6.5257660">
        <ele>1106.6</ele>
        <time>2014-10-01T06:51:49Z</time>
      </trkpt>
      <trkpt lat="42.4686710" lon="-6.5257100">
        <ele>1106.4</ele>
        <time>2014-10-01T06:51:50Z</time>
      </trkpt>
      <trkpt lat="42.4686140" lon="-6.5256560">
        <ele>1106.2</ele>
        <time>2014-10-01T06:51:51Z</time>
      </trkpt>
      <trkpt lat="42.4685560" lon="-6.5256000">
        <ele>1105.9</ele>
        <time>2014-10-01T06:51:52Z</time>
      </trkpt>
      <trkpt lat="42.4684960" lon="-6.5255410">
        <ele>1105.6</ele>
        <time>2014-10-01T06:51:53Z</time>
      </trkpt>
      <trkpt lat="42.4684350" lon="-6.5254820">
        <ele>1105.2</ele>
        <time>2014-10-01T06:51:54Z</time>
      </trkpt>
      <trkpt lat="42.4683730" lon="-6.5254220">
        <ele>1104.9</ele>
        <time>2014-10-01T06:51:55Z</time>
      </trkpt>
      <trkpt lat="42.4683120" lon="-6.5253590">
        <ele>1104.7</ele>
        <time>2014-10-01T06:51:56Z</time>
      </trkpt>
      <trkpt lat="42.4682470" lon="-6.5252900">
        <ele>1104.5</ele>
        <time>2014-10-01T06:51:57Z</time>
      </trkpt>
      <trkpt lat="42.4681830" lon="-6.5252240">
        <ele>1104.3</ele>
        <time>2014-10-01T06:51:58Z</time>
      </trkpt>
      <trkpt lat="42.4681190" lon="-6.5251590">
        <ele>1104.0</ele>
        <time>2014-10-01T06:51:59Z</time>
      </trkpt>
      <trkpt lat="42.4680550" lon="-6.5250960">
        <ele>1103.8</ele>
        <time>2014-10-01T06:52:00Z</time>
      </trkpt>
      <trkpt lat="42.4679980" lon="-6.5250380">
        <ele>1103.7</ele>
        <time>2014-10-01T06:52:01Z</time>
      </trkpt>
      <trkpt lat="42.4679510" lon="-6.5249880">
        <ele>1103.6</ele>
        <time>2014-10-01T06:52:02Z</time>
      </trkpt>
      <trkpt lat="42.4678920" lon="-6.5249230">
        <ele>1103.6</ele>
        <time>2014-10-01T06:52:03Z</time>
      </trkpt>
      <trkpt lat="42.4678410" lon="-6.5248680">
        <ele>1103.5</ele>
        <time>2014-10-01T06:52:04Z</time>
      </trkpt>
      <trkpt lat="42.4677950" lon="-6.5248140">
        <ele>1103.5</ele>
        <time>2014-10-01T06:52:05Z</time>
      </trkpt>
      <trkpt lat="42.4677410" lon="-6.5247510">
        <ele>1103.6</ele>
        <time>2014-10-01T06:52:06Z</time>
      </trkpt>
      <trkpt lat="42.4676920" lon="-6.5246950">
        <ele>1103.6</ele>
        <time>2014-10-01T06:52:07Z</time>
      </trkpt>
      <trkpt lat="42.4676450" lon="-6.5246410">
        <ele>1103.7</ele>
        <time>2014-10-01T06:52:08Z</time>
      </trkpt>
      <trkpt lat="42.4675890" lon="-6.5245770">
        <ele>1103.8</ele>
        <time>2014-10-01T06:52:09Z</time>
      </trkpt>
      <trkpt lat="42.4675330" lon="-6.5245130">
        <ele>1104.0</ele>
        <time>2014-10-01T06:52:10Z</time>
      </trkpt>
      <trkpt lat="42.4674750" lon="-6.5244410">
        <ele>1104.2</ele>
        <time>2014-10-01T06:52:11Z</time>
      </trkpt>
      <trkpt lat="42.4674140" lon="-6.5243720">
        <ele>1104.4</ele>
        <time>2014-10-01T06:52:12Z</time>
      </trkpt>
      <trkpt lat="42.4673500" lon="-6.5243020">
        <ele>1104.7</ele>
        <time>2014-10-01T06:52:13Z</time>
      </trkpt>
      <trkpt lat="42.4672860" lon="-6.5242330">
        <ele>1105.1</ele>
        <time>2014-10-01T06:52:14Z</time>
      </trkpt>
      <trkpt lat="42.4672280" lon="-6.5241730">
        <ele>1105.4</ele>
        <time>2014-10-01T06:52:15Z</time>
      </trkpt>
      <trkpt lat="42.4671740" lon="-6.5241190">
        <ele>1105.7</ele>
        <time>2014-10-01T06:52:16Z</time>
      </trkpt>
      <trkpt lat="42.4671210" lon="-6.5240680">
        <ele>1106.0</ele>
        <time>2014-10-01T06:52:17Z</time>
      </trkpt>
      <trkpt lat="42.4670640" lon="-6.5240110">
        <ele>1106.4</ele>
        <time>2014-10-01T06:52:18Z</time>
      </trkpt>
      <trkpt lat="42.4670060" lon="-6.5239550">
        <ele>1106.8</ele>
        <time>2014-10-01T06:52:19Z</time>
      </trkpt>
      <trkpt lat="42.4669560" lon="-6.5239060">
        <ele>1107.2</ele>
        <time>2014-10-01T06:52:20Z</time>
      </trkpt>
      <trkpt lat="42.4669100" lon="-6.5238610">
        <ele>1107.5</ele>
        <time>2014-10-01T06:52:21Z</time>
      </trkpt>
      <trkpt lat="42.4668700" lon="-6.5238220">
        <ele>1107.8</ele>
        <time>2014-10-01T06:52:22Z</time>
      </trkpt>
      <trkpt lat="42.4668260" lon="-6.5237770">
        <ele>1108.2</ele>
        <time>2014-10-01T06:52:23Z</time>
      </trkpt>
      <trkpt lat="42.4667840" lon="-6.5237320">
        <ele>1108.6</ele>
        <time>2014-10-01T06:52:24Z</time>
      </trkpt>
      <trkpt lat="42.4667410" lon="-6.5236870">
        <ele>1108.9</ele>
        <time>2014-10-01T06:52:25Z</time>
      </trkpt>
      <trkpt lat="42.4666980" lon="-6.5236430">
        <ele>1109.3</ele>
        <time>2014-10-01T06:52:26Z</time>
      </trkpt>
      <trkpt lat="42.4666580" lon="-6.5236020">
        <ele>1109.7</ele>
        <time>2014-10-01T06:52:27Z</time>
      </trkpt>
      <trkpt lat="42.4666220" lon="-6.5235640">
        <ele>1110.1</ele>
        <time>2014-10-01T06:52:28Z</time>
      </trkpt>
      <trkpt lat="42.4665840" lon="-6.5235230">
        <ele>1110.6</ele>
        <time>2014-10-01T06:52:29Z</time>
      </trkpt>
      <trkpt lat="42.4665510" lon="-6.5234870">
        <ele>1111.0</ele>
        <time>2014-10-01T06:52:30Z</time>
      </trkpt>
      <trkpt lat="42.4665190" lon="-6.5234540">
        <ele>1111.4</ele>
        <time>2014-10-01T06:52:31Z</time>
      </trkpt>
      <trkpt lat="42.4664900" lon="-6.5234230">
        <ele>1111.7</ele>
        <time>2014-10-01T06:52:32Z</time>
      </trkpt>
      <trkpt lat="42.4664630" lon="-6.5233920">
        <ele>1112.1</ele>
        <time>2014-10-01T06:52:33Z</time>
      </trkpt>
      <trkpt lat="42.4664400" lon="-6.5233630">
        <ele>1112.4</ele>
        <time>2014-10-01T06:52:34Z</time>
      </trkpt>
      <trkpt lat="42.4664140" lon="-6.5233310">
        <ele>1112.8</ele>
        <time>2014-10-01T06:52:35Z</time>
      </trkpt>
      <trkpt lat="42.4663890" lon="-6.5232970">
        <ele>1113.2</ele>
        <time>2014-10-01T06:52:36Z</time>
      </trkpt>
      <trkpt lat="42.4663670" lon="-6.5232670">
        <ele>1113.5</ele>
        <time>2014-10-01T06:52:37Z</time>
      </trkpt>
      <trkpt lat="42.4663470" lon="-6.5232400">
        <ele>1113.8</ele>
        <time>2014-10-01T06:52:38Z</time>
      </trkpt>
      <trkpt lat="42.4663120" lon="-6.5231890">
        <ele>1114.4</ele>
        <time>2014-10-01T06:52:40Z</time>
      </trkpt>
      <trkpt lat="42.4662940" lon="-6.5231620">
        <ele>1114.7</ele>
        <time>2014-10-01T06:52:41Z</time>
      </trkpt>
      <trkpt lat="42.4662720" lon="-6.5231320">
        <ele>1115.1</ele>
        <time>2014-10-01T06:52:42Z</time>
      </trkpt>
      <trkpt lat="42.4662500" lon="-6.5231030">
        <ele>1115.4</ele>
        <time>2014-10-01T06:52:43Z</time>
      </trkpt>
      <trkpt lat="42.4662140" lon="-6.5230610">
        <ele>1116.0</ele>
        <time>2014-10-01T06:52:45Z</time>
      </trkpt>
      <trkpt lat="42.4661720" lon="-6.5230120">
        <ele>1116.6</ele>
        <time>2014-10-01T06:52:47Z</time>
      </trkpt>
      <trkpt lat="42.4661510" lon="-6.5229860">
        <ele>1116.9</ele>
        <time>2014-10-01T06:52:48Z</time>
      </trkpt>
      <trkpt lat="42.4661270" lon="-6.5229590">
        <ele>1117.2</ele>
        <time>2014-10-01T06:52:49Z</time>
      </trkpt>
      <trkpt lat="42.4660850" lon="-6.5229180">
        <ele>1117.8</ele>
        <time>2014-10-01T06:52:51Z</time>
      </trkpt>
      <trkpt lat="42.4660600" lon="-6.5228950">
        <ele>1118.1</ele>
        <time>2014-10-01T06:52:52Z</time>
      </trkpt>
      <trkpt lat="42.4660370" lon="-6.5228750">
        <ele>1118.4</ele>
        <time>2014-10-01T06:52:53Z</time>
      </trkpt>
      <trkpt lat="42.4660090" lon="-6.5228520">
        <ele>1118.7</ele>
        <time>2014-10-01T06:52:54Z</time>
      </trkpt>
      <trkpt lat="42.4659810" lon="-6.5228310">
        <ele>1119.0</ele>
        <time>2014-10-01T06:52:55Z</time>
      </trkpt>
      <trkpt lat="42.4659510" lon="-6.5228050">
        <ele>1119.3</ele>
        <time>2014-10-01T06:52:56Z</time>
      </trkpt>
      <trkpt lat="42.4659240" lon="-6.5227840">
        <ele>1119.6</ele>
        <time>2014-10-01T06:52:57Z</time>
      </trkpt>
      <trkpt lat="42.4658970" lon="-6.5227680">
        <ele>1119.8</ele>
        <time>2014-10-01T06:52:58Z</time>
      </trkpt>
      <trkpt lat="42.4658680" lon="-6.5227510">
        <ele>1120.1</ele>
        <time>2014-10-01T06:52:59Z</time>
      </trkpt>
      <trkpt lat="42.4658400" lon="-6.5227370">
        <ele>1120.3</ele>
        <time>2014-10-01T06:53:00Z</time>
      </trkpt>
      <trkpt lat="42.4658140" lon="-6.5227240">
        <ele>1120.5</ele>
        <time>2014-10-01T06:53:01Z</time>
      </trkpt>
      <trkpt lat="42.4657820" lon="-6.5227070">
        <ele>1120.7</ele>
        <time>2014-10-01T06:53:02Z</time>
      </trkpt>
      <trkpt lat="42.4657500" lon="-6.5226890">
        <ele>1121.0</ele>
        <time>2014-10-01T06:53:03Z</time>
      </trkpt>
      <trkpt lat="42.4657210" lon="-6.5226710">
        <ele>1121.2</ele>
        <time>2014-10-01T06:53:04Z</time>
      </trkpt>
      <trkpt lat="42.4656920" lon="-6.5226520">
        <ele>1121.3</ele>
        <time>2014-10-01T06:53:05Z</time>
      </trkpt>
      <trkpt lat="42.4656610" lon="-6.5226290">
        <ele>1121.5</ele>
        <time>2014-10-01T06:53:06Z</time>
      </trkpt>
      <trkpt lat="42.4656300" lon="-6.5226080">
        <ele>1121.7</ele>
        <time>2014-10-01T06:53:07Z</time>
      </trkpt>
      <trkpt lat="42.4655960" lon="-6.5225840">
        <ele>1121.8</ele>
        <time>2014-10-01T06:53:08Z</time>
      </trkpt>
      <trkpt lat="42.4655630" lon="-6.5225640">
        <ele>1122.0</ele>
        <time>2014-10-01T06:53:09Z</time>
      </trkpt>
      <trkpt lat="42.4655280" lon="-6.5225440">
        <ele>1122.1</ele>
        <time>2014-10-01T06:53:10Z</time>
      </trkpt>
      <trkpt lat="42.4654930" lon="-6.5225240">
        <ele>1122.2</ele>
        <time>2014-10-01T06:53:11Z</time>
      </trkpt>
      <trkpt lat="42.4654560" lon="-6.5225040">
        <ele>1122.3</ele>
        <time>2014-10-01T06:53:12Z</time>
      </trkpt>
      <trkpt lat="42.4654200" lon="-6.5224830">
        <ele>1122.4</ele>
        <time>2014-10-01T06:53:13Z</time>
      </trkpt>
      <trkpt lat="42.4653870" lon="-6.5224640">
        <ele>1122.4</ele>
        <time>2014-10-01T06:53:14Z</time>
      </trkpt>
      <trkpt lat="42.4653490" lon="-6.5224420">
        <ele>1122.5</ele>
        <time>2014-10-01T06:53:15Z</time>
      </trkpt>
      <trkpt lat="42.4653100" lon="-6.5224200">
        <ele>1122.5</ele>
        <time>2014-10-01T06:53:16Z</time>
      </trkpt>
      <trkpt lat="42.4652750" lon="-6.5223990">
        <ele>1122.6</ele>
        <time>2014-10-01T06:53:17Z</time>
      </trkpt>
      <trkpt lat="42.4652330" lon="-6.5223740">
        <ele>1122.6</ele>
        <time>2014-10-01T06:53:18Z</time>
      </trkpt>
      <trkpt lat="42.4651910" lon="-6.5223440">
        <ele>1122.6</ele>
        <time>2014-10-01T06:53:19Z</time>
      </trkpt>
      <trkpt lat="42.4651530" lon="-6.5223130">
        <ele>1122.5</ele>
        <time>2014-10-01T06:53:20Z</time>
      </trkpt>
      <trkpt lat="42.4651180" lon="-6.5222640">
        <ele>1122.5</ele>
        <time>2014-10-01T06:53:21Z</time>
      </trkpt>
      <trkpt lat="42.4650870" lon="-6.5222220">
        <ele>1122.4</ele>
        <time>2014-10-01T06:53:22Z</time>
      </trkpt>
      <trkpt lat="42.4650620" lon="-6.5221800">
        <ele>1122.4</ele>
        <time>2014-10-01T06:53:23Z</time>
      </trkpt>
      <trkpt lat="42.4650380" lon="-6.5221310">
        <ele>1122.3</ele>
        <time>2014-10-01T06:53:24Z</time>
      </trkpt>
      <trkpt lat="42.4650130" lon="-6.5220760">
        <ele>1122.2</ele>
        <time>2014-10-01T06:53:25Z</time>
      </trkpt>
      <trkpt lat="42.4649780" lon="-6.5220060">
        <ele>1122.1</ele>
        <time>2014-10-01T06:53:26Z</time>
      </trkpt>
      <trkpt lat="42.4649480" lon="-6.5219530">
        <ele>1122.1</ele>
        <time>2014-10-01T06:53:27Z</time>
      </trkpt>
      <trkpt lat="42.4649110" lon="-6.5218910">
        <ele>1122.0</ele>
        <time>2014-10-01T06:53:28Z</time>
      </trkpt>
      <trkpt lat="42.4648720" lon="-6.5218310">
        <ele>1122.0</ele>
        <time>2014-10-01T06:53:29Z</time>
      </trkpt>
      <trkpt lat="42.4648260" lon="-6.5217660">
        <ele>1122.0</ele>
        <time>2014-10-01T06:53:30Z</time>
      </trkpt>
      <trkpt lat="42.4647780" lon="-6.5217050">
        <ele>1122.0</ele>
        <time>2014-10-01T06:53:31Z</time>
      </trkpt>
      <trkpt lat="42.4647330" lon="-6.5216510">
        <ele>1122.0</ele>
        <time>2014-10-01T06:53:32Z</time>
      </trkpt>
      <trkpt lat="42.4646830" lon="-6.5215910">
        <ele>1122.0</ele>
        <time>2014-10-01T06:53:33Z</time>
      </trkpt>
      <trkpt lat="42.4646330" lon="-6.5215370">
        <ele>1122.0</ele>
        <time>2014-10-01T06:53:34Z</time>
      </trkpt>
      <trkpt lat="42.4645750" lon="-6.5214850">
        <ele>1122.1</ele>
        <time>2014-10-01T06:53:35Z</time>
      </trkpt>
      <trkpt lat="42.4645110" lon="-6.5214380">
        <ele>1122.2</ele>
        <time>2014-10-01T06:53:36Z</time>
      </trkpt>
      <trkpt lat="42.4644580" lon="-6.5214050">
        <ele>1122.3</ele>
        <time>2014-10-01T06:53:37Z</time>
      </trkpt>
      <trkpt lat="42.4643860" lon="-6.5213530">
        <ele>1122.5</ele>
        <time>2014-10-01T06:53:38Z</time>
      </trkpt>
      <trkpt lat="42.4643130" lon="-6.5212970">
        <ele>1122.7</ele>
        <time>2014-10-01T06:53:39Z</time>
      </trkpt>
      <trkpt lat="42.4642480" lon="-6.5212770">
        <ele>1122.9</ele>
        <time>2014-10-01T06:53:40Z</time>
      </trkpt>
      <trkpt lat="42.4641860" lon="-6.5212620">
        <ele>1123.1</ele>
        <time>2014-10-01T06:53:41Z</time>
      </trkpt>
      <trkpt lat="42.4641210" lon="-6.5212450">
        <ele>1123.3</ele>
        <time>2014-10-01T06:53:42Z</time>
      </trkpt>
      <trkpt lat="42.4640630" lon="-6.5211990">
        <ele>1123.5</ele>
        <time>2014-10-01T06:53:43Z</time>
      </trkpt>
      <trkpt lat="42.4640120" lon="-6.5211660">
        <ele>1123.7</ele>
        <time>2014-10-01T06:53:44Z</time>
      </trkpt>
      <trkpt lat="42.4639610" lon="-6.5211570">
        <ele>1123.8</ele>
        <time>2014-10-01T06:53:45Z</time>
      </trkpt>
      <trkpt lat="42.4639060" lon="-6.5211490">
        <ele>1124.1</ele>
        <time>2014-10-01T06:53:46Z</time>
      </trkpt>
      <trkpt lat="42.4638500" lon="-6.5211390">
        <ele>1124.4</ele>
        <time>2014-10-01T06:53:47Z</time>
      </trkpt>
      <trkpt lat="42.4637920" lon="-6.5211290">
        <ele>1124.7</ele>
        <time>2014-10-01T06:53:48Z</time>
      </trkpt>
      <trkpt lat="42.4637370" lon="-6.5211260">
        <ele>1125.0</ele>
        <time>2014-10-01T06:53:49Z</time>
      </trkpt>
      <trkpt lat="42.4636860" lon="-6.5211210">
        <ele>1125.3</ele>
        <time>2014-10-01T06:53:50Z</time>
      </trkpt>
      <trkpt lat="42.4636420" lon="-6.5211020">
        <ele>1125.7</ele>
        <time>2014-10-01T06:53:51Z</time>
      </trkpt>
      <trkpt lat="42.4636020" lon="-6.5210850">
        <ele>1125.9</ele>
        <time>2014-10-01T06:53:52Z</time>
      </trkpt>
      <trkpt lat="42.4635640" lon="-6.5210680">
        <ele>1126.2</ele>
        <time>2014-10-01T06:53:53Z</time>
      </trkpt>
      <trkpt lat="42.4635210" lon="-6.5210480">
        <ele>1126.4</ele>
        <time>2014-10-01T06:53:54Z</time>
      </trkpt>
      <trkpt lat="42.4634770" lon="-6.5210260">
        <ele>1126.7</ele>
        <time>2014-10-01T06:53:55Z</time>
      </trkpt>
      <trkpt lat="42.4634430" lon="-6.5210020">
        <ele>1126.9</ele>
        <time>2014-10-01T06:53:56Z</time>
      </trkpt>
      <trkpt lat="42.4634120" lon="-6.5209790">
        <ele>1127.1</ele>
        <time>2014-10-01T06:53:57Z</time>
      </trkpt>
      <trkpt lat="42.4633770" lon="-6.5209560">
        <ele>1127.3</ele>
        <time>2014-10-01T06:53:58Z</time>
      </trkpt>
      <trkpt lat="42.4633460" lon="-6.5209330">
        <ele>1127.5</ele>
        <time>2014-10-01T06:53:59Z</time>
      </trkpt>
      <trkpt lat="42.4633170" lon="-6.5209100">
        <ele>1127.7</ele>
        <time>2014-10-01T06:54:00Z</time>
      </trkpt>
      <trkpt lat="42.4632860" lon="-6.5208820">
        <ele>1127.9</ele>
        <time>2014-10-01T06:54:01Z</time>
      </trkpt>
      <trkpt lat="42.4632560" lon="-6.5208510">
        <ele>1128.1</ele>
        <time>2014-10-01T06:54:02Z</time>
      </trkpt>
      <trkpt lat="42.4632230" lon="-6.5208100">
        <ele>1128.3</ele>
        <time>2014-10-01T06:54:03Z</time>
      </trkpt>
      <trkpt lat="42.4631900" lon="-6.5207730">
        <ele>1128.6</ele>
        <time>2014-10-01T06:54:04Z</time>
      </trkpt>
      <trkpt lat="42.4631590" lon="-6.5207360">
        <ele>1128.9</ele>
        <time>2014-10-01T06:54:05Z</time>
      </trkpt>
      <trkpt lat="42.4631300" lon="-6.5207010">
        <ele>1129.2</ele>
        <time>2014-10-01T06:54:06Z</time>
      </trkpt>
      <trkpt lat="42.4631020" lon="-6.5206670">
        <ele>1129.5</ele>
        <time>2014-10-01T06:54:07Z</time>
      </trkpt>
      <trkpt lat="42.4630730" lon="-6.5206290">
        <ele>1129.8</ele>
        <time>2014-10-01T06:54:08Z</time>
      </trkpt>
      <trkpt lat="42.4630490" lon="-6.5205940">
        <ele>1130.0</ele>
        <time>2014-10-01T06:54:09Z</time>
      </trkpt>
      <trkpt lat="42.4630200" lon="-6.5205540">
        <ele>1130.3</ele>
        <time>2014-10-01T06:54:10Z</time>
      </trkpt>
      <trkpt lat="42.4629880" lon="-6.5205140">
        <ele>1130.6</ele>
        <time>2014-10-01T06:54:11Z</time>
      </trkpt>
      <trkpt lat="42.4629540" lon="-6.5204700">
        <ele>1131.0</ele>
        <time>2014-10-01T06:54:12Z</time>
      </trkpt>
      <trkpt lat="42.4629240" lon="-6.5204230">
        <ele>1131.3</ele>
        <time>2014-10-01T06:54:13Z</time>
      </trkpt>
      <trkpt lat="42.4628960" lon="-6.5203770">
        <ele>1131.6</ele>
        <time>2014-10-01T06:54:14Z</time>
      </trkpt>
      <trkpt lat="42.4628730" lon="-6.5203360">
        <ele>1131.8</ele>
        <time>2014-10-01T06:54:15Z</time>
      </trkpt>
      <trkpt lat="42.4628520" lon="-6.5202990">
        <ele>1132.1</ele>
        <time>2014-10-01T06:54:16Z</time>
      </trkpt>
      <trkpt lat="42.4628290" lon="-6.5202560">
        <ele>1132.3</ele>
        <time>2014-10-01T06:54:17Z</time>
      </trkpt>
      <trkpt lat="42.4628100" lon="-6.5202160">
        <ele>1132.5</ele>
        <time>2014-10-01T06:54:18Z</time>
      </trkpt>
      <trkpt lat="42.4627930" lon="-6.5201760">
        <ele>1132.7</ele>
        <time>2014-10-01T06:54:19Z</time>
      </trkpt>
      <trkpt lat="42.4627740" lon="-6.5201340">
        <ele>1132.9</ele>
        <time>2014-10-01T06:54:20Z</time>
      </trkpt>
      <trkpt lat="42.4627550" lon="-6.5200960">
        <ele>1133.1</ele>
        <time>2014-10-01T06:54:21Z</time>
      </trkpt>
      <trkpt lat="42.4627360" lon="-6.5200610">
        <ele>1133.3</ele>
        <time>2014-10-01T06:54:22Z</time>
      </trkpt>
      <trkpt lat="42.4627140" lon="-6.5200130">
        <ele>1133.4</ele>
        <time>2014-10-01T06:54:23Z</time>
      </trkpt>
      <trkpt lat="42.4626910" lon="-6.5199650">
        <ele>1133.5</ele>
        <time>2014-10-01T06:54:24Z</time>
      </trkpt>
      <trkpt lat="42.4626650" lon="-6.5199210">
        <ele>1133.7</ele>
        <time>2014-10-01T06:54:25Z</time>
      </trkpt>
      <trkpt lat="42.4626390" lon="-6.5198800">
        <ele>1133.8</ele>
        <time>2014-10-01T06:54:26Z</time>
      </trkpt>
      <trkpt lat="42.4626110" lon="-6.5198370">
        <ele>1134.0</ele>
        <time>2014-10-01T06:54:27Z</time>
      </trkpt>
      <trkpt lat="42.4625840" lon="-6.5197940">
        <ele>1134.2</ele>
        <time>2014-10-01T06:54:28Z</time>
      </trkpt>
      <trkpt lat="42.4625570" lon="-6.5197510">
        <ele>1134.4</ele>
        <time>2014-10-01T06:54:29Z</time>
      </trkpt>
      <trkpt lat="42.4625300" lon="-6.5197070">
        <ele>1134.6</ele>
        <time>2014-10-01T06:54:30Z</time>
      </trkpt>
      <trkpt lat="42.4625010" lon="-6.5196710">
        <ele>1134.7</ele>
        <time>2014-10-01T06:54:31Z</time>
      </trkpt>
      <trkpt lat="42.4624690" lon="-6.5196310">
        <ele>1134.9</ele>
        <time>2014-10-01T06:54:32Z</time>
      </trkpt>
      <trkpt lat="42.4624360" lon="-6.5195950">
        <ele>1135.1</ele>
        <time>2014-10-01T06:54:33Z</time>
      </trkpt>
      <trkpt lat="42.4624060" lon="-6.5195590">
        <ele>1135.3</ele>
        <time>2014-10-01T06:54:34Z</time>
      </trkpt>
      <trkpt lat="42.4623770" lon="-6.5195230">
        <ele>1135.5</ele>
        <time>2014-10-01T06:54:35Z</time>
      </trkpt>
      <trkpt lat="42.4623460" lon="-6.5194820">
        <ele>1135.7</ele>
        <time>2014-10-01T06:54:36Z</time>
      </trkpt>
      <trkpt lat="42.4623180" lon="-6.5194430">
        <ele>1135.9</ele>
        <time>2014-10-01T06:54:37Z</time>
      </trkpt>
      <trkpt lat="42.4622870" lon="-6.5194060">
        <ele>1136.1</ele>
        <time>2014-10-01T06:54:38Z</time>
      </trkpt>
      <trkpt lat="42.4622560" lon="-6.5193720">
        <ele>1136.4</ele>
        <time>2014-10-01T06:54:39Z</time>
      </trkpt>
      <trkpt lat="42.4622220" lon="-6.5193360">
        <ele>1136.6</ele>
        <time>2014-10-01T06:54:40Z</time>
      </trkpt>
      <trkpt lat="42.4621880" lon="-6.5193000">
        <ele>1136.8</ele>
        <time>2014-10-01T06:54:41Z</time>
      </trkpt>
      <trkpt lat="42.4621580" lon="-6.5192670">
        <ele>1137.1</ele>
        <time>2014-10-01T06:54:42Z</time>
      </trkpt>
      <trkpt lat="42.4621310" lon="-6.5192320">
        <ele>1137.4</ele>
        <time>2014-10-01T06:54:43Z</time>
      </trkpt>
      <trkpt lat="42.4621030" lon="-6.5191970">
        <ele>1137.7</ele>
        <time>2014-10-01T06:54:44Z</time>
      </trkpt>
      <trkpt lat="42.4620760" lon="-6.5191590">
        <ele>1138.1</ele>
        <time>2014-10-01T06:54:45Z</time>
      </trkpt>
      <trkpt lat="42.4620500" lon="-6.5191220">
        <ele>1138.4</ele>
        <time>2014-10-01T06:54:46Z</time>
      </trkpt>
      <trkpt lat="42.4620230" lon="-6.5190810">
        <ele>1138.8</ele>
        <time>2014-10-01T06:54:47Z</time>
      </trkpt>
      <trkpt lat="42.4619970" lon="-6.5190410">
        <ele>1139.2</ele>
        <time>2014-10-01T06:54:48Z</time>
      </trkpt>
      <trkpt lat="42.4619710" lon="-6.5189960">
        <ele>1139.6</ele>
        <time>2014-10-01T06:54:49Z</time>
      </trkpt>
      <trkpt lat="42.4619470" lon="-6.5189500">
        <ele>1140.0</ele>
        <time>2014-10-01T06:54:50Z</time>
      </trkpt>
      <trkpt lat="42.4619220" lon="-6.5189040">
        <ele>1140.4</ele>
        <time>2014-10-01T06:54:51Z</time>
      </trkpt>
      <trkpt lat="42.4619010" lon="-6.5188630">
        <ele>1140.8</ele>
        <time>2014-10-01T06:54:52Z</time>
      </trkpt>
      <trkpt lat="42.4618830" lon="-6.5188300">
        <ele>1141.1</ele>
        <time>2014-10-01T06:54:53Z</time>
      </trkpt>
      <trkpt lat="42.4618640" lon="-6.5187720">
        <ele>1141.5</ele>
        <time>2014-10-01T06:54:55Z</time>
      </trkpt>
      <trkpt lat="42.4618470" lon="-6.5187100">
        <ele>1142.0</ele>
        <time>2014-10-01T06:54:57Z</time>
      </trkpt>
      <trkpt lat="42.4618350" lon="-6.5186750">
        <ele>1142.3</ele>
        <time>2014-10-01T06:54:58Z</time>
      </trkpt>
      <trkpt lat="42.4618100" lon="-6.5186120">
        <ele>1142.9</ele>
        <time>2014-10-01T06:55:00Z</time>
      </trkpt>
      <trkpt lat="42.4617850" lon="-6.5185470">
        <ele>1143.4</ele>
        <time>2014-10-01T06:55:02Z</time>
      </trkpt>
      <trkpt lat="42.4617610" lon="-6.5184840">
        <ele>1144.0</ele>
        <time>2014-10-01T06:55:04Z</time>
      </trkpt>
      <trkpt lat="42.4617380" lon="-6.5184260">
        <ele>1144.5</ele>
        <time>2014-10-01T06:55:06Z</time>
      </trkpt>
      <trkpt lat="42.4617130" lon="-6.5183630">
        <ele>1145.1</ele>
        <time>2014-10-01T06:55:08Z</time>
      </trkpt>
      <trkpt lat="42.4616860" lon="-6.5182970">
        <ele>1145.7</ele>
        <time>2014-10-01T06:55:10Z</time>
      </trkpt>
      <trkpt lat="42.4616570" lon="-6.5182400">
        <ele>1146.3</ele>
        <time>2014-10-01T06:55:12Z</time>
      </trkpt>
      <trkpt lat="42.4616400" lon="-6.5182110">
        <ele>1146.6</ele>
        <time>2014-10-01T06:55:13Z</time>
      </trkpt>
      <trkpt lat="42.4616130" lon="-6.5181640">
        <ele>1147.1</ele>
        <time>2014-10-01T06:55:15Z</time>
      </trkpt>
      <trkpt lat="42.4615870" lon="-6.5181180">
        <ele>1147.6</ele>
        <time>2014-10-01T06:55:17Z</time>
      </trkpt>
      <trkpt lat="42.4615610" lon="-6.5180670">
        <ele>1148.1</ele>
        <time>2014-10-01T06:55:19Z</time>
      </trkpt>
      <trkpt lat="42.4615340" lon="-6.5180190">
        <ele>1148.6</ele>
        <time>2014-10-01T06:55:21Z</time>
      </trkpt>
      <trkpt lat="42.4615010" lon="-6.5179650">
        <ele>1149.2</ele>
        <time>2014-10-01T06:55:23Z</time>
      </trkpt>
      <trkpt lat="42.4614830" lon="-6.5179370">
        <ele>1149.5</ele>
        <time>2014-10-01T06:55:24Z</time>
      </trkpt>
      <trkpt lat="42.4614550" lon="-6.5178910">
        <ele>1150.0</ele>
        <time>2014-10-01T06:55:26Z</time>
      </trkpt>
      <trkpt lat="42.4614260" lon="-6.5178530">
        <ele>1150.5</ele>
        <time>2014-10-01T06:55:28Z</time>
      </trkpt>
      <trkpt lat="42.4613930" lon="-6.5178140">
        <ele>1151.0</ele>
        <time>2014-10-01T06:55:30Z</time>
      </trkpt>
      <trkpt lat="42.4613610" lon="-6.5177870">
        <ele>1151.4</ele>
        <time>2014-10-01T06:55:32Z</time>
      </trkpt>
      <trkpt lat="42.4613210" lon="-6.5177590">
        <ele>1152.0</ele>
        <time>2014-10-01T06:55:34Z</time>
      </trkpt>
      <trkpt lat="42.4612810" lon="-6.5177360">
        <ele>1152.7</ele>
        <time>2014-10-01T06:55:36Z</time>
      </trkpt>
      <trkpt lat="42.4612410" lon="-6.5177150">
        <ele>1153.3</ele>
        <time>2014-10-01T06:55:38Z</time>
      </trkpt>
      <trkpt lat="42.4612040" lon="-6.5176960">
        <ele>1153.8</ele>
        <time>2014-10-01T06:55:40Z</time>
      </trkpt>
      <trkpt lat="42.4611700" lon="-6.5176800">
        <ele>1154.2</ele>
        <time>2014-10-01T06:55:42Z</time>
      </trkpt>
      <trkpt lat="42.4611290" lon="-6.5176620">
        <ele>1154.8</ele>
        <time>2014-10-01T06:55:44Z</time>
      </trkpt>
      <trkpt lat="42.4610850" lon="-6.5176430">
        <ele>1155.4</ele>
        <time>2014-10-01T06:55:46Z</time>
      </trkpt>
      <trkpt lat="42.4610330" lon="-6.5176250">
        <ele>1156.1</ele>
        <time>2014-10-01T06:55:48Z</time>
      </trkpt>
      <trkpt lat="42.4610050" lon="-6.5176160">
        <ele>1156.4</ele>
        <time>2014-10-01T06:55:49Z</time>
      </trkpt>
      <trkpt lat="42.4609780" lon="-6.5176060">
        <ele>1156.8</ele>
        <time>2014-10-01T06:55:50Z</time>
      </trkpt>
      <trkpt lat="42.4609280" lon="-6.5175860">
        <ele>1157.4</ele>
        <time>2014-10-01T06:55:52Z</time>
      </trkpt>
      <trkpt lat="42.4609030" lon="-6.5175730">
        <ele>1157.8</ele>
        <time>2014-10-01T06:55:53Z</time>
      </trkpt>
      <trkpt lat="42.4608590" lon="-6.5175560">
        <ele>1158.4</ele>
        <time>2014-10-01T06:55:55Z</time>
      </trkpt>
      <trkpt lat="42.4608200" lon="-6.5175440">
        <ele>1158.9</ele>
        <time>2014-10-01T06:55:57Z</time>
      </trkpt>
      <trkpt lat="42.4607730" lon="-6.5175310">
        <ele>1159.5</ele>
        <time>2014-10-01T06:55:59Z</time>
      </trkpt>
      <trkpt lat="42.4607320" lon="-6.5175240">
        <ele>1160.0</ele>
        <time>2014-10-01T06:56:01Z</time>
      </trkpt>
      <trkpt lat="42.4606940" lon="-6.5175150">
        <ele>1160.5</ele>
        <time>2014-10-01T06:56:03Z</time>
      </trkpt>
      <trkpt lat="42.4606560" lon="-6.5175050">
        <ele>1161.0</ele>
        <time>2014-10-01T06:56:05Z</time>
      </trkpt>
      <trkpt lat="42.4606070" lon="-6.5174940">
        <ele>1161.7</ele>
        <time>2014-10-01T06:56:07Z</time>
      </trkpt>
      <trkpt lat="42.4605620" lon="-6.5174860">
        <ele>1162.3</ele>
        <time>2014-10-01T06:56:09Z</time>
      </trkpt>
      <trkpt lat="42.4605210" lon="-6.5174740">
        <ele>1162.8</ele>
        <time>2014-10-01T06:56:11Z</time>
      </trkpt>
      <trkpt lat="42.4604860" lon="-6.5174650">
        <ele>1163.3</ele>
        <time>2014-10-01T06:56:13Z</time>
      </trkpt>
      <trkpt lat="42.4604450" lon="-6.5174540">
        <ele>1163.9</ele>
        <time>2014-10-01T06:56:15Z</time>
      </trkpt>
      <trkpt lat="42.4603970" lon="-6.5174390">
        <ele>1164.7</ele>
        <time>2014-10-01T06:56:17Z</time>
      </trkpt>
      <trkpt lat="42.4603510" lon="-6.5174250">
        <ele>1165.4</ele>
        <time>2014-10-01T06:56:19Z</time>
      </trkpt>
      <trkpt lat="42.4603090" lon="-6.5174140">
        <ele>1166.0</ele>
        <time>2014-10-01T06:56:21Z</time>
      </trkpt>
      <trkpt lat="42.4602680" lon="-6.5174010">
        <ele>1166.6</ele>
        <time>2014-10-01T06:56:23Z</time>
      </trkpt>
      <trkpt lat="42.4602250" lon="-6.5173890">
        <ele>1167.2</ele>
        <time>2014-10-01T06:56:25Z</time>
      </trkpt>
      <trkpt lat="42.4601810" lon="-6.5173760">
        <ele>1167.9</ele>
        <time>2014-10-01T06:56:27Z</time>
      </trkpt>
      <trkpt lat="42.4601440" lon="-6.5173640">
        <ele>1168.4</ele>
        <time>2014-10-01T06:56:29Z</time>
      </trkpt>
      <trkpt lat="42.4601130" lon="-6.5173570">
        <ele>1168.8</ele>
        <time>2014-10-01T06:56:31Z</time>
      </trkpt>
      <trkpt lat="42.4600720" lon="-6.5173570">
        <ele>1169.4</ele>
        <time>2014-10-01T06:56:33Z</time>
      </trkpt>
      <trkpt lat="42.4600250" lon="-6.5173530">
        <ele>1170.0</ele>
        <time>2014-10-01T06:56:35Z</time>
      </trkpt>
      <trkpt lat="42.4599820" lon="-6.5173400">
        <ele>1170.7</ele>
        <time>2014-10-01T06:56:37Z</time>
      </trkpt>
      <trkpt lat="42.4599360" lon="-6.5173210">
        <ele>1171.3</ele>
        <time>2014-10-01T06:56:39Z</time>
      </trkpt>
      <trkpt lat="42.4598980" lon="-6.5173120">
        <ele>1171.8</ele>
        <time>2014-10-01T06:56:41Z</time>
      </trkpt>
      <trkpt lat="42.4598590" lon="-6.5173080">
        <ele>1172.4</ele>
        <time>2014-10-01T06:56:44Z</time>
      </trkpt>
      <trkpt lat="42.4598230" lon="-6.5173000">
        <ele>1172.9</ele>
        <time>2014-10-01T06:56:46Z</time>
      </trkpt>
      <trkpt lat="42.4597820" lon="-6.5172870">
        <ele>1173.4</ele>
        <time>2014-10-01T06:56:48Z</time>
      </trkpt>
      <trkpt lat="42.4597450" lon="-6.5172780">
        <ele>1174.0</ele>
        <time>2014-10-01T06:56:50Z</time>
      </trkpt>
      <trkpt lat="42.4597060" lon="-6.5172700">
        <ele>1174.5</ele>
        <time>2014-10-01T06:56:52Z</time>
      </trkpt>
      <trkpt lat="42.4596710" lon="-6.5172590">
        <ele>1175.0</ele>
        <time>2014-10-01T06:56:54Z</time>
      </trkpt>
      <trkpt lat="42.4596360" lon="-6.5172450">
        <ele>1175.5</ele>
        <time>2014-10-01T06:56:56Z</time>
      </trkpt>
      <trkpt lat="42.4596000" lon="-6.5172300">
        <ele>1176.0</ele>
        <time>2014-10-01T06:56:58Z</time>
      </trkpt>
      <trkpt lat="42.4595640" lon="-6.5172160">
        <ele>1176.6</ele>
        <time>2014-10-01T06:57:00Z</time>
      </trkpt>
      <trkpt lat="42.4595290" lon="-6.5171950">
        <ele>1177.2</ele>
        <time>2014-10-01T06:57:02Z</time>
      </trkpt>
      <trkpt lat="42.4594980" lon="-6.5171720">
        <ele>1177.7</ele>
        <time>2014-10-01T06:57:04Z</time>
      </trkpt>
      <trkpt lat="42.4594600" lon="-6.5171290">
        <ele>1178.4</ele>
        <time>2014-10-01T06:57:06Z</time>
      </trkpt>
      <trkpt lat="42.4594270" lon="-6.5170800">
        <ele>1179.2</ele>
        <time>2014-10-01T06:57:08Z</time>
      </trkpt>
      <trkpt lat="42.4593990" lon="-6.5170280">
        <ele>1179.9</ele>
        <time>2014-10-01T06:57:10Z</time>
      </trkpt>
      <trkpt lat="42.4593750" lon="-6.5169760">
        <ele>1180.9</ele>
        <time>2014-10-01T06:57:12Z</time>
      </trkpt>
      <trkpt lat="42.4593610" lon="-6.5169280">
        <ele>1181.6</ele>
        <time>2014-10-01T06:57:14Z</time>
      </trkpt>
      <trkpt lat="42.4593530" lon="-6.5168720">
        <ele>1182.3</ele>
        <time>2014-10-01T06:57:16Z</time>
      </trkpt>
      <trkpt lat="42.4593470" lon="-6.5168020">
        <ele>1183.1</ele>
        <time>2014-10-01T06:57:18Z</time>
      </trkpt>
      <trkpt lat="42.4593450" lon="-6.5167330">
        <ele>1183.9</ele>
        <time>2014-10-01T06:57:20Z</time>
      </trkpt>
      <trkpt lat="42.4593420" lon="-6.5166630">
        <ele>1184.6</ele>
        <time>2014-10-01T06:57:22Z</time>
      </trkpt>
      <trkpt lat="42.4593390" lon="-6.5166000">
        <ele>1185.2</ele>
        <time>2014-10-01T06:57:24Z</time>
      </trkpt>
      <trkpt lat="42.4593370" lon="-6.5165390">
        <ele>1185.7</ele>
        <time>2014-10-01T06:57:26Z</time>
      </trkpt>
      <trkpt lat="42.4593320" lon="-6.5164770">
        <ele>1186.2</ele>
        <time>2014-10-01T06:57:28Z</time>
      </trkpt>
      <trkpt lat="42.4593240" lon="-6.5164180">
        <ele>1186.6</ele>
        <time>2014-10-01T06:57:30Z</time>
      </trkpt>
      <trkpt lat="42.4593140" lon="-6.5163690">
        <ele>1187.0</ele>
        <time>2014-10-01T06:57:32Z</time>
      </trkpt>
      <trkpt lat="42.4592950" lon="-6.5163020">
        <ele>1187.4</ele>
        <time>2014-10-01T06:57:34Z</time>
      </trkpt>
      <trkpt lat="42.4592830" lon="-6.5162670">
        <ele>1187.7</ele>
        <time>2014-10-01T06:57:35Z</time>
      </trkpt>
      <trkpt lat="42.4592600" lon="-6.5162150">
        <ele>1188.1</ele>
        <time>2014-10-01T06:57:37Z</time>
      </trkpt>
      <trkpt lat="42.4592370" lon="-6.5161660">
        <ele>1188.4</ele>
        <time>2014-10-01T06:57:39Z</time>
      </trkpt>
      <trkpt lat="42.4592110" lon="-6.5161190">
        <ele>1188.8</ele>
        <time>2014-10-01T06:57:41Z</time>
      </trkpt>
      <trkpt lat="42.4591880" lon="-6.5160770">
        <ele>1189.1</ele>
        <time>2014-10-01T06:57:43Z</time>
      </trkpt>
      <trkpt lat="42.4591650" lon="-6.5160350">
        <ele>1189.4</ele>
        <time>2014-10-01T06:57:45Z</time>
      </trkpt>
      <trkpt lat="42.4591440" lon="-6.5159990">
        <ele>1189.7</ele>
        <time>2014-10-01T06:57:47Z</time>
      </trkpt>
      <trkpt lat="42.4591190" lon="-6.5159520">
        <ele>1190.0</ele>
        <time>2014-10-01T06:57:49Z</time>
      </trkpt>
      <trkpt lat="42.4590960" lon="-6.5158990">
        <ele>1190.4</ele>
        <time>2014-10-01T06:57:51Z</time>
      </trkpt>
      <trkpt lat="42.4590730" lon="-6.5158430">
        <ele>1190.9</ele>
        <time>2014-10-01T06:57:53Z</time>
      </trkpt>
      <trkpt lat="42.4590490" lon="-6.5157880">
        <ele>1191.3</ele>
        <time>2014-10-01T06:57:55Z</time>
      </trkpt>
      <trkpt lat="42.4590280" lon="-6.5157380">
        <ele>1191.7</ele>
        <time>2014-10-01T06:57:57Z</time>
      </trkpt>
      <trkpt lat="42.4590050" lon="-6.5156840">
        <ele>1192.1</ele>
        <time>2014-10-01T06:57:59Z</time>
      </trkpt>
      <trkpt lat="42.4589810" lon="-6.5156350">
        <ele>1192.6</ele>
        <time>2014-10-01T06:58:01Z</time>
      </trkpt>
      <trkpt lat="42.4589540" lon="-6.5155840">
        <ele>1193.1</ele>
        <time>2014-10-01T06:58:03Z</time>
      </trkpt>
      <trkpt lat="42.4589230" lon="-6.5155360">
        <ele>1193.6</ele>
        <time>2014-10-01T06:58:05Z</time>
      </trkpt>
      <trkpt lat="42.4588900" lon="-6.5154920">
        <ele>1194.2</ele>
        <time>2014-10-01T06:58:07Z</time>
      </trkpt>
      <trkpt lat="42.4588590" lon="-6.5154560">
        <ele>1194.7</ele>
        <time>2014-10-01T06:58:09Z</time>
      </trkpt>
      <trkpt lat="42.4588250" lon="-6.5154140">
        <ele>1195.2</ele>
        <time>2014-10-01T06:58:11Z</time>
      </trkpt>
      <trkpt lat="42.4587980" lon="-6.5153830">
        <ele>1195.7</ele>
        <time>2014-10-01T06:58:13Z</time>
      </trkpt>
      <trkpt lat="42.4587680" lon="-6.5153460">
        <ele>1196.2</ele>
        <time>2014-10-01T06:58:15Z</time>
      </trkpt>
      <trkpt lat="42.4587350" lon="-6.5153060">
        <ele>1196.8</ele>
        <time>2014-10-01T06:58:17Z</time>
      </trkpt>
      <trkpt lat="42.4587070" lon="-6.5152730">
        <ele>1197.3</ele>
        <time>2014-10-01T06:58:19Z</time>
      </trkpt>
      <trkpt lat="42.4586780" lon="-6.5152420">
        <ele>1197.7</ele>
        <time>2014-10-01T06:58:21Z</time>
      </trkpt>
      <trkpt lat="42.4586430" lon="-6.5152020">
        <ele>1198.3</ele>
        <time>2014-10-01T06:58:23Z</time>
      </trkpt>
      <trkpt lat="42.4586050" lon="-6.5151620">
        <ele>1198.9</ele>
        <time>2014-10-01T06:58:25Z</time>
      </trkpt>
      <trkpt lat="42.4585710" lon="-6.5151230">
        <ele>1199.4</ele>
        <time>2014-10-01T06:58:27Z</time>
      </trkpt>
      <trkpt lat="42.4585400" lon="-6.5150870">
        <ele>1199.9</ele>
        <time>2014-10-01T06:58:29Z</time>
      </trkpt>
      <trkpt lat="42.4585050" lon="-6.5150520">
        <ele>1200.4</ele>
        <time>2014-10-01T06:58:31Z</time>
      </trkpt>
      <trkpt lat="42.4584710" lon="-6.5150200">
        <ele>1200.9</ele>
        <time>2014-10-01T06:58:33Z</time>
      </trkpt>
      <trkpt lat="42.4584330" lon="-6.5149840">
        <ele>1201.4</ele>
        <time>2014-10-01T06:58:35Z</time>
      </trkpt>
      <trkpt lat="42.4583940" lon="-6.5149540">
        <ele>1201.9</ele>
        <time>2014-10-01T06:58:37Z</time>
      </trkpt>
      <trkpt lat="42.4583690" lon="-6.5149340">
        <ele>1202.2</ele>
        <time>2014-10-01T06:58:38Z</time>
      </trkpt>
      <trkpt lat="42.4583460" lon="-6.5149110">
        <ele>1202.5</ele>
        <time>2014-10-01T06:58:39Z</time>
      </trkpt>
      <trkpt lat="42.4583090" lon="-6.5148780">
        <ele>1203.0</ele>
        <time>2014-10-01T06:58:41Z</time>
      </trkpt>
      <trkpt lat="42.4582760" lon="-6.5148540">
        <ele>1203.4</ele>
        <time>2014-10-01T06:58:43Z</time>
      </trkpt>
      <trkpt lat="42.4582370" lon="-6.5148290">
        <ele>1203.9</ele>
        <time>2014-10-01T06:58:45Z</time>
      </trkpt>
      <trkpt lat="42.4581970" lon="-6.5148100">
        <ele>1204.4</ele>
        <time>2014-10-01T06:58:47Z</time>
      </trkpt>
      <trkpt lat="42.4581520" lon="-6.5147850">
        <ele>1205.0</ele>
        <time>2014-10-01T06:58:49Z</time>
      </trkpt>
      <trkpt lat="42.4581130" lon="-6.5147610">
        <ele>1205.5</ele>
        <time>2014-10-01T06:58:51Z</time>
      </trkpt>
      <trkpt lat="42.4580640" lon="-6.5147290">
        <ele>1206.1</ele>
        <time>2014-10-01T06:58:53Z</time>
      </trkpt>
      <trkpt lat="42.4580170" lon="-6.5146980">
        <ele>1206.7</ele>
        <time>2014-10-01T06:58:55Z</time>
      </trkpt>
      <trkpt lat="42.4579920" lon="-6.5146820">
        <ele>1207.0</ele>
        <time>2014-10-01T06:58:56Z</time>
      </trkpt>
      <trkpt lat="42.4579490" lon="-6.5146570">
        <ele>1207.6</ele>
        <time>2014-10-01T06:58:58Z</time>
      </trkpt>
      <trkpt lat="42.4579070" lon="-6.5146300">
        <ele>1208.1</ele>
        <time>2014-10-01T06:59:00Z</time>
      </trkpt>
      <trkpt lat="42.4578620" lon="-6.5145940">
        <ele>1208.7</ele>
        <time>2014-10-01T06:59:02Z</time>
      </trkpt>
      <trkpt lat="42.4578170" lon="-6.5145620">
        <ele>1209.3</ele>
        <time>2014-10-01T06:59:04Z</time>
      </trkpt>
      <trkpt lat="42.4577730" lon="-6.5145290">
        <ele>1210.0</ele>
        <time>2014-10-01T06:59:06Z</time>
      </trkpt>
      <trkpt lat="42.4577260" lon="-6.5144910">
        <ele>1210.7</ele>
        <time>2014-10-01T06:59:08Z</time>
      </trkpt>
      <trkpt lat="42.4577030" lon="-6.5144700">
        <ele>1211.1</ele>
        <time>2014-10-01T06:59:09Z</time>
      </trkpt>
      <trkpt lat="42.4576800" lon="-6.5144500">
        <ele>1211.5</ele>
        <time>2014-10-01T06:59:10Z</time>
      </trkpt>
      <trkpt lat="42.4576400" lon="-6.5144090">
        <ele>1212.3</ele>
        <time>2014-10-01T06:59:12Z</time>
      </trkpt>
      <trkpt lat="42.4576050" lon="-6.5143680">
        <ele>1213.0</ele>
        <time>2014-10-01T06:59:14Z</time>
      </trkpt>
      <trkpt lat="42.4575830" lon="-6.5143420">
        <ele>1213.4</ele>
        <time>2014-10-01T06:59:15Z</time>
      </trkpt>
      <trkpt lat="42.4575440" lon="-6.5143020">
        <ele>1214.1</ele>
        <time>2014-10-01T06:59:17Z</time>
      </trkpt>
      <trkpt lat="42.4575100" lon="-6.5142630">
        <ele>1214.8</ele>
        <time>2014-10-01T06:59:19Z</time>
      </trkpt>
      <trkpt lat="42.4574760" lon="-6.5142270">
        <ele>1215.5</ele>
        <time>2014-10-01T06:59:21Z</time>
      </trkpt>
      <trkpt lat="42.4574420" lon="-6.5141930">
        <ele>1216.1</ele>
        <time>2014-10-01T06:59:23Z</time>
      </trkpt>
      <trkpt lat="42.4574050" lon="-6.5141540">
        <ele>1216.8</ele>
        <time>2014-10-01T06:59:25Z</time>
      </trkpt>
      <trkpt lat="42.4573660" lon="-6.5141090">
        <ele>1217.6</ele>
        <time>2014-10-01T06:59:27Z</time>
      </trkpt>
      <trkpt lat="42.4573320" lon="-6.5140710">
        <ele>1218.2</ele>
        <time>2014-10-01T06:59:29Z</time>
      </trkpt>
      <trkpt lat="42.4573110" lon="-6.5140450">
        <ele>1218.6</ele>
        <time>2014-10-01T06:59:30Z</time>
      </trkpt>
      <trkpt lat="42.4572730" lon="-6.5139970">
        <ele>1219.4</ele>
        <time>2014-10-01T06:59:32Z</time>
      </trkpt>
      <trkpt lat="42.4572420" lon="-6.5139540">
        <ele>1220.0</ele>
        <time>2014-10-01T06:59:34Z</time>
      </trkpt>
      <trkpt lat="42.4572110" lon="-6.5139080">
        <ele>1220.7</ele>
        <time>2014-10-01T06:59:36Z</time>
      </trkpt>
      <trkpt lat="42.4571790" lon="-6.5138590">
        <ele>1221.4</ele>
        <time>2014-10-01T06:59:38Z</time>
      </trkpt>
      <trkpt lat="42.4571500" lon="-6.5138140">
        <ele>1222.1</ele>
        <time>2014-10-01T06:59:40Z</time>
      </trkpt>
      <trkpt lat="42.4571220" lon="-6.5137690">
        <ele>1222.7</ele>
        <time>2014-10-01T06:59:42Z</time>
      </trkpt>
      <trkpt lat="42.4571030" lon="-6.5137360">
        <ele>1223.2</ele>
        <time>2014-10-01T06:59:44Z</time>
      </trkpt>
      <trkpt lat="42.4570810" lon="-6.5137020">
        <ele>1223.6</ele>
        <time>2014-10-01T06:59:46Z</time>
      </trkpt>
      <trkpt lat="42.4570550" lon="-6.5136630">
        <ele>1224.2</ele>
        <time>2014-10-01T06:59:48Z</time>
      </trkpt>
      <trkpt lat="42.4570350" lon="-6.5136320">
        <ele>1224.6</ele>
        <time>2014-10-01T06:59:49Z</time>
      </trkpt>
      <trkpt lat="42.4570150" lon="-6.5136020">
        <ele>1225.0</ele>
        <time>2014-10-01T06:59:50Z</time>
      </trkpt>
      <trkpt lat="42.4569910" lon="-6.5135640">
        <ele>1225.5</ele>
        <time>2014-10-01T06:59:51Z</time>
      </trkpt>
      <trkpt lat="42.4569710" lon="-6.5135330">
        <ele>1225.9</ele>
        <time>2014-10-01T06:59:52Z</time>
      </trkpt>
      <trkpt lat="42.4569510" lon="-6.5135040">
        <ele>1226.3</ele>
        <time>2014-10-01T06:59:53Z</time>
      </trkpt>
      <trkpt lat="42.4569200" lon="-6.5134520">
        <ele>1227.0</ele>
        <time>2014-10-01T06:59:55Z</time>
      </trkpt>
      <trkpt lat="42.4568880" lon="-6.5134010">
        <ele>1227.7</ele>
        <time>2014-10-01T06:59:57Z</time>
      </trkpt>
      <trkpt lat="42.4568720" lon="-6.5133700">
        <ele>1228.1</ele>
        <time>2014-10-01T06:59:58Z</time>
      </trkpt>
      <trkpt lat="42.4568550" lon="-6.5133400">
        <ele>1228.5</ele>
        <time>2014-10-01T06:59:59Z</time>
      </trkpt>
      <trkpt lat="42.4568240" lon="-6.5132840">
        <ele>1229.3</ele>
        <time>2014-10-01T07:00:01Z</time>
      </trkpt>
      <trkpt lat="42.4567970" lon="-6.5132280">
        <ele>1230.0</ele>
        <time>2014-10-01T07:00:03Z</time>
      </trkpt>
      <trkpt lat="42.4567740" lon="-6.5131740">
        <ele>1230.7</ele>
        <time>2014-10-01T07:00:05Z</time>
      </trkpt>
      <trkpt lat="42.4567520" lon="-6.5131200">
        <ele>1231.4</ele>
        <time>2014-10-01T07:00:07Z</time>
      </trkpt>
      <trkpt lat="42.4567270" lon="-6.5130650">
        <ele>1232.2</ele>
        <time>2014-10-01T07:00:09Z</time>
      </trkpt>
      <trkpt lat="42.4567070" lon="-6.5130210">
        <ele>1232.8</ele>
        <time>2014-10-01T07:00:11Z</time>
      </trkpt>
      <trkpt lat="42.4566850" lon="-6.5129730">
        <ele>1233.5</ele>
        <time>2014-10-01T07:00:13Z</time>
      </trkpt>
      <trkpt lat="42.4566580" lon="-6.5129270">
        <ele>1234.2</ele>
        <time>2014-10-01T07:00:15Z</time>
      </trkpt>
      <trkpt lat="42.4566290" lon="-6.5128760">
        <ele>1235.1</ele>
        <time>2014-10-01T07:00:17Z</time>
      </trkpt>
      <trkpt lat="42.4565980" lon="-6.5128180">
        <ele>1236.1</ele>
        <time>2014-10-01T07:00:19Z</time>
      </trkpt>
      <trkpt lat="42.4565650" lon="-6.5127640">
        <ele>1237.0</ele>
        <time>2014-10-01T07:00:21Z</time>
      </trkpt>
      <trkpt lat="42.4565350" lon="-6.5127130">
        <ele>1238.0</ele>
        <time>2014-10-01T07:00:23Z</time>
      </trkpt>
      <trkpt lat="42.4565090" lon="-6.5126670">
        <ele>1238.8</ele>
        <time>2014-10-01T07:00:25Z</time>
      </trkpt>
      <trkpt lat="42.4564800" lon="-6.5126270">
        <ele>1239.6</ele>
        <time>2014-10-01T07:00:27Z</time>
      </trkpt>
      <trkpt lat="42.4564510" lon="-6.5125860">
        <ele>1240.5</ele>
        <time>2014-10-01T07:00:29Z</time>
      </trkpt>
      <trkpt lat="42.4564250" lon="-6.5125480">
        <ele>1241.2</ele>
        <time>2014-10-01T07:00:31Z</time>
      </trkpt>
      <trkpt lat="42.4563970" lon="-6.5125120">
        <ele>1242.0</ele>
        <time>2014-10-01T07:00:33Z</time>
      </trkpt>
      <trkpt lat="42.4563680" lon="-6.5124770">
        <ele>1242.7</ele>
        <time>2014-10-01T07:00:35Z</time>
      </trkpt>
      <trkpt lat="42.4563340" lon="-6.5124310">
        <ele>1243.6</ele>
        <time>2014-10-01T07:00:37Z</time>
      </trkpt>
      <trkpt lat="42.4563010" lon="-6.5123910">
        <ele>1244.3</ele>
        <time>2014-10-01T07:00:39Z</time>
      </trkpt>
      <trkpt lat="42.4562680" lon="-6.5123560">
        <ele>1244.9</ele>
        <time>2014-10-01T07:00:41Z</time>
      </trkpt>
      <trkpt lat="42.4562380" lon="-6.5123230">
        <ele>1245.4</ele>
        <time>2014-10-01T07:00:43Z</time>
      </trkpt>
      <trkpt lat="42.4562120" lon="-6.5122850">
        <ele>1245.9</ele>
        <time>2014-10-01T07:00:45Z</time>
      </trkpt>
      <trkpt lat="42.4561910" lon="-6.5122410">
        <ele>1246.4</ele>
        <time>2014-10-01T07:00:47Z</time>
      </trkpt>
      <trkpt lat="42.4561790" lon="-6.5121940">
        <ele>1246.9</ele>
        <time>2014-10-01T07:00:49Z</time>
      </trkpt>
      <trkpt lat="42.4561680" lon="-6.5121380">
        <ele>1247.4</ele>
        <time>2014-10-01T07:00:51Z</time>
      </trkpt>
      <trkpt lat="42.4561630" lon="-6.5120900">
        <ele>1247.8</ele>
        <time>2014-10-01T07:00:53Z</time>
      </trkpt>
      <trkpt lat="42.4561570" lon="-6.5120550">
        <ele>1248.2</ele>
        <time>2014-10-01T07:00:54Z</time>
      </trkpt>
      <trkpt lat="42.4561450" lon="-6.5120140">
        <ele>1248.6</ele>
        <time>2014-10-01T07:00:55Z</time>
      </trkpt>
      <trkpt lat="42.4561360" lon="-6.5119790">
        <ele>1248.9</ele>
        <time>2014-10-01T07:00:56Z</time>
      </trkpt>
      <trkpt lat="42.4561210" lon="-6.5119170">
        <ele>1249.6</ele>
        <time>2014-10-01T07:00:58Z</time>
      </trkpt>
      <trkpt lat="42.4561160" lon="-6.5118650">
        <ele>1250.1</ele>
        <time>2014-10-01T07:01:00Z</time>
      </trkpt>
      <trkpt lat="42.4561090" lon="-6.5118050">
        <ele>1250.8</ele>
        <time>2014-10-01T07:01:02Z</time>
      </trkpt>
      <trkpt lat="42.4561000" lon="-6.5117500">
        <ele>1251.5</ele>
        <time>2014-10-01T07:01:04Z</time>
      </trkpt>
      <trkpt lat="42.4560970" lon="-6.5117000">
        <ele>1252.1</ele>
        <time>2014-10-01T07:01:06Z</time>
      </trkpt>
      <trkpt lat="42.4560930" lon="-6.5116460">
        <ele>1252.8</ele>
        <time>2014-10-01T07:01:08Z</time>
      </trkpt>
      <trkpt lat="42.4560830" lon="-6.5115910">
        <ele>1253.5</ele>
        <time>2014-10-01T07:01:10Z</time>
      </trkpt>
      <trkpt lat="42.4560760" lon="-6.5115320">
        <ele>1254.3</ele>
        <time>2014-10-01T07:01:12Z</time>
      </trkpt>
      <trkpt lat="42.4560790" lon="-6.5114770">
        <ele>1255.1</ele>
        <time>2014-10-01T07:01:14Z</time>
      </trkpt>
      <trkpt lat="42.4560750" lon="-6.5114130">
        <ele>1256.0</ele>
        <time>2014-10-01T07:01:16Z</time>
      </trkpt>
      <trkpt lat="42.4560630" lon="-6.5113580">
        <ele>1256.7</ele>
        <time>2014-10-01T07:01:18Z</time>
      </trkpt>
      <trkpt lat="42.4560550" lon="-6.5113080">
        <ele>1257.4</ele>
        <time>2014-10-01T07:01:20Z</time>
      </trkpt>
      <trkpt lat="42.4560360" lon="-6.5112570">
        <ele>1258.2</ele>
        <time>2014-10-01T07:01:22Z</time>
      </trkpt>
      <trkpt lat="42.4560020" lon="-6.5112150">
        <ele>1259.0</ele>
        <time>2014-10-01T07:01:24Z</time>
      </trkpt>
      <trkpt lat="42.4559630" lon="-6.5112060">
        <ele>1259.5</ele>
        <time>2014-10-01T07:01:26Z</time>
      </trkpt>
      <trkpt lat="42.4559300" lon="-6.5112170">
        <ele>1260.0</ele>
        <time>2014-10-01T07:01:28Z</time>
      </trkpt>
      <trkpt lat="42.4559000" lon="-6.5112520">
        <ele>1260.5</ele>
        <time>2014-10-01T07:01:30Z</time>
      </trkpt>
      <trkpt lat="42.4558770" lon="-6.5112960">
        <ele>1260.9</ele>
        <time>2014-10-01T07:01:32Z</time>
      </trkpt>
      <trkpt lat="42.4558580" lon="-6.5113540">
        <ele>1261.3</ele>
        <time>2014-10-01T07:01:34Z</time>
      </trkpt>
      <trkpt lat="42.4558480" lon="-6.5113880">
        <ele>1261.5</ele>
        <time>2014-10-01T07:01:35Z</time>
      </trkpt>
      <trkpt lat="42.4558250" lon="-6.5114540">
        <ele>1261.9</ele>
        <time>2014-10-01T07:01:37Z</time>
      </trkpt>
      <trkpt lat="42.4558050" lon="-6.5115180">
        <ele>1262.3</ele>
        <time>2014-10-01T07:01:39Z</time>
      </trkpt>
      <trkpt lat="42.4557920" lon="-6.5115710">
        <ele>1262.7</ele>
        <time>2014-10-01T07:01:41Z</time>
      </trkpt>
      <trkpt lat="42.4557820" lon="-6.5116310">
        <ele>1263.1</ele>
        <time>2014-10-01T07:01:43Z</time>
      </trkpt>
      <trkpt lat="42.4557700" lon="-6.5116830">
        <ele>1263.4</ele>
        <time>2014-10-01T07:01:45Z</time>
      </trkpt>
      <trkpt lat="42.4557540" lon="-6.5117380">
        <ele>1263.8</ele>
        <time>2014-10-01T07:01:47Z</time>
      </trkpt>
      <trkpt lat="42.4557430" lon="-6.5117870">
        <ele>1264.2</ele>
        <time>2014-10-01T07:01:49Z</time>
      </trkpt>
      <trkpt lat="42.4557330" lon="-6.5118400">
        <ele>1264.5</ele>
        <time>2014-10-01T07:01:51Z</time>
      </trkpt>
      <trkpt lat="42.4557200" lon="-6.5118940">
        <ele>1265.0</ele>
        <time>2014-10-01T07:01:53Z</time>
      </trkpt>
      <trkpt lat="42.4557060" lon="-6.5119510">
        <ele>1265.4</ele>
        <time>2014-10-01T07:01:55Z</time>
      </trkpt>
      <trkpt lat="42.4556870" lon="-6.5120090">
        <ele>1265.9</ele>
        <time>2014-10-01T07:01:57Z</time>
      </trkpt>
      <trkpt lat="42.4556710" lon="-6.5120620">
        <ele>1266.4</ele>
        <time>2014-10-01T07:01:59Z</time>
      </trkpt>
      <trkpt lat="42.4556560" lon="-6.5121190">
        <ele>1267.0</ele>
        <time>2014-10-01T07:02:01Z</time>
      </trkpt>
      <trkpt lat="42.4556390" lon="-6.5121760">
        <ele>1267.6</ele>
        <time>2014-10-01T07:02:03Z</time>
      </trkpt>
      <trkpt lat="42.4556220" lon="-6.5122310">
        <ele>1268.2</ele>
        <time>2014-10-01T07:02:05Z</time>
      </trkpt>
      <trkpt lat="42.4556050" lon="-6.5122830">
        <ele>1268.8</ele>
        <time>2014-10-01T07:02:07Z</time>
      </trkpt>
      <trkpt lat="42.4555860" lon="-6.5123440">
        <ele>1269.5</ele>
        <time>2014-10-01T07:02:09Z</time>
      </trkpt>
      <trkpt lat="42.4555680" lon="-6.5123990">
        <ele>1270.1</ele>
        <time>2014-10-01T07:02:11Z</time>
      </trkpt>
      <trkpt lat="42.4555490" lon="-6.5124590">
        <ele>1270.8</ele>
        <time>2014-10-01T07:02:13Z</time>
      </trkpt>
      <trkpt lat="42.4555280" lon="-6.5125200">
        <ele>1271.5</ele>
        <time>2014-10-01T07:02:15Z</time>
      </trkpt>
      <trkpt lat="42.4555090" lon="-6.5125730">
        <ele>1272.0</ele>
        <time>2014-10-01T07:02:17Z</time>
      </trkpt>
      <trkpt lat="42.4555000" lon="-6.5126240">
        <ele>1272.5</ele>
        <time>2014-10-01T07:02:19Z</time>
      </trkpt>
      <trkpt lat="42.4554900" lon="-6.5126830">
        <ele>1272.9</ele>
        <time>2014-10-01T07:02:21Z</time>
      </trkpt>
      <trkpt lat="42.4554890" lon="-6.5127390">
        <ele>1273.4</ele>
        <time>2014-10-01T07:02:23Z</time>
      </trkpt>
      <trkpt lat="42.4554940" lon="-6.5127990">
        <ele>1273.9</ele>
        <time>2014-10-01T07:02:25Z</time>
      </trkpt>
      <trkpt lat="42.4555080" lon="-6.5128620">
        <ele>1274.3</ele>
        <time>2014-10-01T07:02:27Z</time>
      </trkpt>
      <trkpt lat="42.4555320" lon="-6.5129230">
        <ele>1274.8</ele>
        <time>2014-10-01T07:02:29Z</time>
      </trkpt>
      <trkpt lat="42.4555580" lon="-6.5129730">
        <ele>1275.2</ele>
        <time>2014-10-01T07:02:31Z</time>
      </trkpt>
      <trkpt lat="42.4555870" lon="-6.5130180">
        <ele>1275.6</ele>
        <time>2014-10-01T07:02:33Z</time>
      </trkpt>
      <trkpt lat="42.4556190" lon="-6.5130590">
        <ele>1276.0</ele>
        <time>2014-10-01T07:02:35Z</time>
      </trkpt>
      <trkpt lat="42.4556540" lon="-6.5131010">
        <ele>1276.4</ele>
        <time>2014-10-01T07:02:37Z</time>
      </trkpt>
      <trkpt lat="42.4556910" lon="-6.5131480">
        <ele>1276.8</ele>
        <time>2014-10-01T07:02:39Z</time>
      </trkpt>
      <trkpt lat="42.4557240" lon="-6.5131980">
        <ele>1277.3</ele>
        <time>2014-10-01T07:02:41Z</time>
      </trkpt>
      <trkpt lat="42.4557520" lon="-6.5132540">
        <ele>1277.7</ele>
        <time>2014-10-01T07:02:43Z</time>
      </trkpt>
      <trkpt lat="42.4557790" lon="-6.5133130">
        <ele>1278.2</ele>
        <time>2014-10-01T07:02:45Z</time>
      </trkpt>
      <trkpt lat="42.4558030" lon="-6.5133730">
        <ele>1278.7</ele>
        <time>2014-10-01T07:02:47Z</time>
      </trkpt>
      <trkpt lat="42.4558230" lon="-6.5134370">
        <ele>1279.2</ele>
        <time>2014-10-01T07:02:49Z</time>
      </trkpt>
      <trkpt lat="42.4558390" lon="-6.5135010">
        <ele>1279.7</ele>
        <time>2014-10-01T07:02:51Z</time>
      </trkpt>
      <trkpt lat="42.4558520" lon="-6.5135680">
        <ele>1280.3</ele>
        <time>2014-10-01T07:02:53Z</time>
      </trkpt>
      <trkpt lat="42.4558700" lon="-6.5136350">
        <ele>1280.8</ele>
        <time>2014-10-01T07:02:55Z</time>
      </trkpt>
      <trkpt lat="42.4558830" lon="-6.5137020">
        <ele>1281.4</ele>
        <time>2014-10-01T07:02:57Z</time>
      </trkpt>
      <trkpt lat="42.4558960" lon="-6.5137710">
        <ele>1281.9</ele>
        <time>2014-10-01T07:02:59Z</time>
      </trkpt>
      <trkpt lat="42.4559090" lon="-6.5138400">
        <ele>1282.5</ele>
        <time>2014-10-01T07:03:01Z</time>
      </trkpt>
      <trkpt lat="42.4559190" lon="-6.5139110">
        <ele>1283.0</ele>
        <time>2014-10-01T07:03:03Z</time>
      </trkpt>
      <trkpt lat="42.4559300" lon="-6.5139770">
        <ele>1283.5</ele>
        <time>2014-10-01T07:03:05Z</time>
      </trkpt>
      <trkpt lat="42.4559320" lon="-6.5140140">
        <ele>1283.8</ele>
        <time>2014-10-01T07:03:06Z</time>
      </trkpt>
      <trkpt lat="42.4559310" lon="-6.5140530">
        <ele>1284.1</ele>
        <time>2014-10-01T07:03:07Z</time>
      </trkpt>
      <trkpt lat="42.4559310" lon="-6.5140910">
        <ele>1284.3</ele>
        <time>2014-10-01T07:03:08Z</time>
      </trkpt>
      <trkpt lat="42.4559270" lon="-6.5141320">
        <ele>1284.6</ele>
        <time>2014-10-01T07:03:09Z</time>
      </trkpt>
      <trkpt lat="42.4559230" lon="-6.5141740">
        <ele>1284.9</ele>
        <time>2014-10-01T07:03:10Z</time>
      </trkpt>
      <trkpt lat="42.4559040" lon="-6.5142460">
        <ele>1285.4</ele>
        <time>2014-10-01T07:03:12Z</time>
      </trkpt>
      <trkpt lat="42.4558900" lon="-6.5142790">
        <ele>1285.6</ele>
        <time>2014-10-01T07:03:13Z</time>
      </trkpt>
      <trkpt lat="42.4558750" lon="-6.5143100">
        <ele>1285.8</ele>
        <time>2014-10-01T07:03:14Z</time>
      </trkpt>
      <trkpt lat="42.4558380" lon="-6.5143540">
        <ele>1286.2</ele>
        <time>2014-10-01T07:03:16Z</time>
      </trkpt>
      <trkpt lat="42.4558020" lon="-6.5143850">
        <ele>1286.5</ele>
        <time>2014-10-01T07:03:18Z</time>
      </trkpt>
      <trkpt lat="42.4557580" lon="-6.5144070">
        <ele>1286.9</ele>
        <time>2014-10-01T07:03:20Z</time>
      </trkpt>
      <trkpt lat="42.4557310" lon="-6.5144200">
        <ele>1287.1</ele>
        <time>2014-10-01T07:03:21Z</time>
      </trkpt>
      <trkpt lat="42.4556790" lon="-6.5144340">
        <ele>1287.5</ele>
        <time>2014-10-01T07:03:23Z</time>
      </trkpt>
      <trkpt lat="42.4556490" lon="-6.5144390">
        <ele>1287.7</ele>
        <time>2014-10-01T07:03:24Z</time>
      </trkpt>
      <trkpt lat="42.4556220" lon="-6.5144420">
        <ele>1287.8</ele>
        <time>2014-10-01T07:03:25Z</time>
      </trkpt>
      <trkpt lat="42.4555940" lon="-6.5144420">
        <ele>1288.0</ele>
        <time>2014-10-01T07:03:26Z</time>
      </trkpt>
      <trkpt lat="42.4555670" lon="-6.5144420">
        <ele>1288.1</ele>
        <time>2014-10-01T07:03:27Z</time>
      </trkpt>
      <trkpt lat="42.4555390" lon="-6.5144450">
        <ele>1288.3</ele>
        <time>2014-10-01T07:03:28Z</time>
      </trkpt>
      <trkpt lat="42.4555110" lon="-6.5144470">
        <ele>1288.4</ele>
        <time>2014-10-01T07:03:29Z</time>
      </trkpt>
      <trkpt lat="42.4554840" lon="-6.5144490">
        <ele>1288.6</ele>
        <time>2014-10-01T07:03:30Z</time>
      </trkpt>
      <trkpt lat="42.4554310" lon="-6.5144500">
        <ele>1288.9</ele>
        <time>2014-10-01T07:03:32Z</time>
      </trkpt>
      <trkpt lat="42.4553790" lon="-6.5144420">
        <ele>1289.2</ele>
        <time>2014-10-01T07:03:34Z</time>
      </trkpt>
      <trkpt lat="42.4553300" lon="-6.5144330">
        <ele>1289.6</ele>
        <time>2014-10-01T07:03:36Z</time>
      </trkpt>
      <trkpt lat="42.4552820" lon="-6.5144200">
        <ele>1289.9</ele>
        <time>2014-10-01T07:03:38Z</time>
      </trkpt>
      <trkpt lat="42.4552550" lon="-6.5144120">
        <ele>1290.1</ele>
        <time>2014-10-01T07:03:39Z</time>
      </trkpt>
      <trkpt lat="42.4552280" lon="-6.5144040">
        <ele>1290.3</ele>
        <time>2014-10-01T07:03:40Z</time>
      </trkpt>
      <trkpt lat="42.4552010" lon="-6.5143970">
        <ele>1290.5</ele>
        <time>2014-10-01T07:03:41Z</time>
      </trkpt>
      <trkpt lat="42.4551490" lon="-6.5143860">
        <ele>1290.8</ele>
        <time>2014-10-01T07:03:43Z</time>
      </trkpt>
      <trkpt lat="42.4551190" lon="-6.5143770">
        <ele>1291.1</ele>
        <time>2014-10-01T07:03:44Z</time>
      </trkpt>
      <trkpt lat="42.4550910" lon="-6.5143690">
        <ele>1291.3</ele>
        <time>2014-10-01T07:03:45Z</time>
      </trkpt>
      <trkpt lat="42.4550620" lon="-6.5143600">
        <ele>1291.5</ele>
        <time>2014-10-01T07:03:46Z</time>
      </trkpt>
      <trkpt lat="42.4550350" lon="-6.5143520">
        <ele>1291.7</ele>
        <time>2014-10-01T07:03:47Z</time>
      </trkpt>
      <trkpt lat="42.4550070" lon="-6.5143430">
        <ele>1291.9</ele>
        <time>2014-10-01T07:03:48Z</time>
      </trkpt>
      <trkpt lat="42.4549790" lon="-6.5143350">
        <ele>1292.1</ele>
        <time>2014-10-01T07:03:49Z</time>
      </trkpt>
      <trkpt lat="42.4549280" lon="-6.5143210">
        <ele>1292.5</ele>
        <time>2014-10-01T07:03:51Z</time>
      </trkpt>
      <trkpt lat="42.4548780" lon="-6.5143090">
        <ele>1292.9</ele>
        <time>2014-10-01T07:03:53Z</time>
      </trkpt>
      <trkpt lat="42.4548260" lon="-6.5142970">
        <ele>1293.3</ele>
        <time>2014-10-01T07:03:55Z</time>
      </trkpt>
      <trkpt lat="42.4547750" lon="-6.5142890">
        <ele>1293.8</ele>
        <time>2014-10-01T07:03:57Z</time>
      </trkpt>
      <trkpt lat="42.4547310" lon="-6.5142850">
        <ele>1294.3</ele>
        <time>2014-10-01T07:03:59Z</time>
      </trkpt>
      <trkpt lat="42.4546810" lon="-6.5142810">
        <ele>1294.8</ele>
        <time>2014-10-01T07:04:01Z</time>
      </trkpt>
      <trkpt lat="42.4546520" lon="-6.5142790">
        <ele>1295.0</ele>
        <time>2014-10-01T07:04:02Z</time>
      </trkpt>
      <trkpt lat="42.4546240" lon="-6.5142760">
        <ele>1295.3</ele>
        <time>2014-10-01T07:04:03Z</time>
      </trkpt>
      <trkpt lat="42.4545970" lon="-6.5142740">
        <ele>1295.6</ele>
        <time>2014-10-01T07:04:04Z</time>
      </trkpt>
      <trkpt lat="42.4545440" lon="-6.5142760">
        <ele>1296.1</ele>
        <time>2014-10-01T07:04:06Z</time>
      </trkpt>
      <trkpt lat="42.4544960" lon="-6.5142810">
        <ele>1296.6</ele>
        <time>2014-10-01T07:04:08Z</time>
      </trkpt>
      <trkpt lat="42.4544500" lon="-6.5142830">
        <ele>1297.1</ele>
        <time>2014-10-01T07:04:10Z</time>
      </trkpt>
      <trkpt lat="42.4544030" lon="-6.5142910">
        <ele>1297.6</ele>
        <time>2014-10-01T07:04:12Z</time>
      </trkpt>
      <trkpt lat="42.4543540" lon="-6.5142980">
        <ele>1298.2</ele>
        <time>2014-10-01T07:04:14Z</time>
      </trkpt>
      <trkpt lat="42.4543090" lon="-6.5143080">
        <ele>1298.7</ele>
        <time>2014-10-01T07:04:16Z</time>
      </trkpt>
      <trkpt lat="42.4542640" lon="-6.5143200">
        <ele>1299.2</ele>
        <time>2014-10-01T07:04:18Z</time>
      </trkpt>
      <trkpt lat="42.4542160" lon="-6.5143350">
        <ele>1299.7</ele>
        <time>2014-10-01T07:04:20Z</time>
      </trkpt>
      <trkpt lat="42.4541740" lon="-6.5143480">
        <ele>1300.2</ele>
        <time>2014-10-01T07:04:22Z</time>
      </trkpt>
      <trkpt lat="42.4541360" lon="-6.5143580">
        <ele>1300.7</ele>
        <time>2014-10-01T07:04:24Z</time>
      </trkpt>
      <trkpt lat="42.4540970" lon="-6.5143740">
        <ele>1301.1</ele>
        <time>2014-10-01T07:04:26Z</time>
      </trkpt>
      <trkpt lat="42.4540520" lon="-6.5143910">
        <ele>1301.7</ele>
        <time>2014-10-01T07:04:28Z</time>
      </trkpt>
      <trkpt lat="42.4540100" lon="-6.5144050">
        <ele>1302.1</ele>
        <time>2014-10-01T07:04:30Z</time>
      </trkpt>
      <trkpt lat="42.4539670" lon="-6.5144250">
        <ele>1302.6</ele>
        <time>2014-10-01T07:04:32Z</time>
      </trkpt>
      <trkpt lat="42.4539270" lon="-6.5144440">
        <ele>1303.1</ele>
        <time>2014-10-01T07:04:34Z</time>
      </trkpt>
      <trkpt lat="42.4538820" lon="-6.5144630">
        <ele>1303.6</ele>
        <time>2014-10-01T07:04:36Z</time>
      </trkpt>
      <trkpt lat="42.4538380" lon="-6.5144730">
        <ele>1304.0</ele>
        <time>2014-10-01T07:04:38Z</time>
      </trkpt>
      <trkpt lat="42.4537900" lon="-6.5144830">
        <ele>1304.5</ele>
        <time>2014-10-01T07:04:40Z</time>
      </trkpt>
      <trkpt lat="42.4537480" lon="-6.5144960">
        <ele>1305.0</ele>
        <time>2014-10-01T07:04:42Z</time>
      </trkpt>
      <trkpt lat="42.4537050" lon="-6.5145080">
        <ele>1305.5</ele>
        <time>2014-10-01T07:04:44Z</time>
      </trkpt>
      <trkpt lat="42.4536550" lon="-6.5145190">
        <ele>1306.1</ele>
        <time>2014-10-01T07:04:46Z</time>
      </trkpt>
      <trkpt lat="42.4536080" lon="-6.5145350">
        <ele>1306.6</ele>
        <time>2014-10-01T07:04:48Z</time>
      </trkpt>
      <trkpt lat="42.4535660" lon="-6.5145480">
        <ele>1307.1</ele>
        <time>2014-10-01T07:04:50Z</time>
      </trkpt>
      <trkpt lat="42.4535250" lon="-6.5145590">
        <ele>1307.6</ele>
        <time>2014-10-01T07:04:52Z</time>
      </trkpt>
      <trkpt lat="42.4534820" lon="-6.5145690">
        <ele>1308.1</ele>
        <time>2014-10-01T07:04:54Z</time>
      </trkpt>
      <trkpt lat="42.4534390" lon="-6.5145800">
        <ele>1308.6</ele>
        <time>2014-10-01T07:04:56Z</time>
      </trkpt>
      <trkpt lat="42.4533960" lon="-6.5145980">
        <ele>1309.1</ele>
        <time>2014-10-01T07:04:58Z</time>
      </trkpt>
      <trkpt lat="42.4533580" lon="-6.5146070">
        <ele>1309.6</ele>
        <time>2014-10-01T07:05:00Z</time>
      </trkpt>
      <trkpt lat="42.4533170" lon="-6.5146170">
        <ele>1310.1</ele>
        <time>2014-10-01T07:05:02Z</time>
      </trkpt>
      <trkpt lat="42.4532750" lon="-6.5146270">
        <ele>1310.6</ele>
        <time>2014-10-01T07:05:04Z</time>
      </trkpt>
      <trkpt lat="42.4532390" lon="-6.5146360">
        <ele>1311.1</ele>
        <time>2014-10-01T07:05:06Z</time>
      </trkpt>
      <trkpt lat="42.4531990" lon="-6.5146510">
        <ele>1311.6</ele>
        <time>2014-10-01T07:05:08Z</time>
      </trkpt>
      <trkpt lat="42.4531500" lon="-6.5146610">
        <ele>1312.2</ele>
        <time>2014-10-01T07:05:10Z</time>
      </trkpt>
      <trkpt lat="42.4531050" lon="-6.5146790">
        <ele>1312.7</ele>
        <time>2014-10-01T07:05:12Z</time>
      </trkpt>
      <trkpt lat="42.4530640" lon="-6.5146950">
        <ele>1313.3</ele>
        <time>2014-10-01T07:05:14Z</time>
      </trkpt>
      <trkpt lat="42.4530240" lon="-6.5147080">
        <ele>1313.8</ele>
        <time>2014-10-01T07:05:16Z</time>
      </trkpt>
      <trkpt lat="42.4529790" lon="-6.5147240">
        <ele>1314.3</ele>
        <time>2014-10-01T07:05:18Z</time>
      </trkpt>
      <trkpt lat="42.4529350" lon="-6.5147350">
        <ele>1314.9</ele>
        <time>2014-10-01T07:05:20Z</time>
      </trkpt>
      <trkpt lat="42.4528910" lon="-6.5147410">
        <ele>1315.4</ele>
        <time>2014-10-01T07:05:22Z</time>
      </trkpt>
      <trkpt lat="42.4528470" lon="-6.5147490">
        <ele>1316.0</ele>
        <time>2014-10-01T07:05:24Z</time>
      </trkpt>
      <trkpt lat="42.4528050" lon="-6.5147520">
        <ele>1316.5</ele>
        <time>2014-10-01T07:05:26Z</time>
      </trkpt>
      <trkpt lat="42.4527600" lon="-6.5147510">
        <ele>1317.0</ele>
        <time>2014-10-01T07:05:28Z</time>
      </trkpt>
      <trkpt lat="42.4527160" lon="-6.5147490">
        <ele>1317.5</ele>
        <time>2014-10-01T07:05:30Z</time>
      </trkpt>
      <trkpt lat="42.4526720" lon="-6.5147450">
        <ele>1318.0</ele>
        <time>2014-10-01T07:05:32Z</time>
      </trkpt>
      <trkpt lat="42.4526290" lon="-6.5147420">
        <ele>1318.5</ele>
        <time>2014-10-01T07:05:34Z</time>
      </trkpt>
      <trkpt lat="42.4525880" lon="-6.5147410">
        <ele>1319.0</ele>
        <time>2014-10-01T07:05:36Z</time>
      </trkpt>
      <trkpt lat="42.4525440" lon="-6.5147380">
        <ele>1319.4</ele>
        <time>2014-10-01T07:05:38Z</time>
      </trkpt>
      <trkpt lat="42.4525000" lon="-6.5147330">
        <ele>1319.9</ele>
        <time>2014-10-01T07:05:40Z</time>
      </trkpt>
      <trkpt lat="42.4524520" lon="-6.5147290">
        <ele>1320.3</ele>
        <time>2014-10-01T07:05:42Z</time>
      </trkpt>
      <trkpt lat="42.4524040" lon="-6.5147240">
        <ele>1320.9</ele>
        <time>2014-10-01T07:05:44Z</time>
      </trkpt>
      <trkpt lat="42.4523590" lon="-6.5147230">
        <ele>1321.6</ele>
        <time>2014-10-01T07:05:46Z</time>
      </trkpt>
      <trkpt lat="42.4523150" lon="-6.5147220">
        <ele>1322.2</ele>
        <time>2014-10-01T07:05:48Z</time>
      </trkpt>
      <trkpt lat="42.4522730" lon="-6.5147230">
        <ele>1322.8</ele>
        <time>2014-10-01T07:05:50Z</time>
      </trkpt>
      <trkpt lat="42.4522330" lon="-6.5147210">
        <ele>1323.3</ele>
        <time>2014-10-01T07:05:52Z</time>
      </trkpt>
      <trkpt lat="42.4521910" lon="-6.5147180">
        <ele>1323.9</ele>
        <time>2014-10-01T07:05:54Z</time>
      </trkpt>
      <trkpt lat="42.4521470" lon="-6.5147160">
        <ele>1324.5</ele>
        <time>2014-10-01T07:05:56Z</time>
      </trkpt>
      <trkpt lat="42.4520970" lon="-6.5147140">
        <ele>1325.1</ele>
        <time>2014-10-01T07:05:58Z</time>
      </trkpt>
      <trkpt lat="42.4520500" lon="-6.5147150">
        <ele>1325.7</ele>
        <time>2014-10-01T07:06:00Z</time>
      </trkpt>
      <trkpt lat="42.4520050" lon="-6.5147100">
        <ele>1326.3</ele>
        <time>2014-10-01T07:06:02Z</time>
      </trkpt>
      <trkpt lat="42.4519560" lon="-6.5147040">
        <ele>1326.9</ele>
        <time>2014-10-01T07:06:04Z</time>
      </trkpt>
      <trkpt lat="42.4519100" lon="-6.5147050">
        <ele>1327.5</ele>
        <time>2014-10-01T07:06:06Z</time>
      </trkpt>
      <trkpt lat="42.4518640" lon="-6.5147030">
        <ele>1328.1</ele>
        <time>2014-10-01T07:06:08Z</time>
      </trkpt>
      <trkpt lat="42.4518140" lon="-6.5147030">
        <ele>1328.7</ele>
        <time>2014-10-01T07:06:10Z</time>
      </trkpt>
      <trkpt lat="42.4517620" lon="-6.5147010">
        <ele>1329.4</ele>
        <time>2014-10-01T07:06:12Z</time>
      </trkpt>
      <trkpt lat="42.4517100" lon="-6.5147020">
        <ele>1330.0</ele>
        <time>2014-10-01T07:06:14Z</time>
      </trkpt>
      <trkpt lat="42.4516610" lon="-6.5146950">
        <ele>1330.6</ele>
        <time>2014-10-01T07:06:16Z</time>
      </trkpt>
      <trkpt lat="42.4516110" lon="-6.5146910">
        <ele>1331.1</ele>
        <time>2014-10-01T07:06:18Z</time>
      </trkpt>
      <trkpt lat="42.4515820" lon="-6.5146870">
        <ele>1331.4</ele>
        <time>2014-10-01T07:06:19Z</time>
      </trkpt>
      <trkpt lat="42.4515310" lon="-6.5146860">
        <ele>1332.0</ele>
        <time>2014-10-01T07:06:21Z</time>
      </trkpt>
      <trkpt lat="42.4515030" lon="-6.5146860">
        <ele>1332.2</ele>
        <time>2014-10-01T07:06:22Z</time>
      </trkpt>
      <trkpt lat="42.4514750" lon="-6.5146860">
        <ele>1332.5</ele>
        <time>2014-10-01T07:06:23Z</time>
      </trkpt>
      <trkpt lat="42.4514480" lon="-6.5146860">
        <ele>1332.8</ele>
        <time>2014-10-01T07:06:24Z</time>
      </trkpt>
      <trkpt lat="42.4514190" lon="-6.5146860">
        <ele>1333.1</ele>
        <time>2014-10-01T07:06:25Z</time>
      </trkpt>
      <trkpt lat="42.4513890" lon="-6.5146850">
        <ele>1333.4</ele>
        <time>2014-10-01T07:06:26Z</time>
      </trkpt>
      <trkpt lat="42.4513590" lon="-6.5146850">
        <ele>1333.6</ele>
        <time>2014-10-01T07:06:27Z</time>
      </trkpt>
      <trkpt lat="42.4513300" lon="-6.5146860">
        <ele>1333.9</ele>
        <time>2014-10-01T07:06:28Z</time>
      </trkpt>
      <trkpt lat="42.4513010" lon="-6.5146850">
        <ele>1334.1</ele>
        <time>2014-10-01T07:06:29Z</time>
      </trkpt>
      <trkpt lat="42.4512730" lon="-6.5146830">
        <ele>1334.4</ele>
        <time>2014-10-01T07:06:30Z</time>
      </trkpt>
      <trkpt lat="42.4512440" lon="-6.5146800">
        <ele>1334.6</ele>
        <time>2014-10-01T07:06:31Z</time>
      </trkpt>
      <trkpt lat="42.4512160" lon="-6.5146770">
        <ele>1334.8</ele>
        <time>2014-10-01T07:06:32Z</time>
      </trkpt>
      <trkpt lat="42.4511880" lon="-6.5146760">
        <ele>1335.1</ele>
        <time>2014-10-01T07:06:33Z</time>
      </trkpt>
      <trkpt lat="42.4511610" lon="-6.5146760">
        <ele>1335.3</ele>
        <time>2014-10-01T07:06:34Z</time>
      </trkpt>
      <trkpt lat="42.4511330" lon="-6.5146740">
        <ele>1335.5</ele>
        <time>2014-10-01T07:06:35Z</time>
      </trkpt>
      <trkpt lat="42.4511060" lon="-6.5146710">
        <ele>1335.8</ele>
        <time>2014-10-01T07:06:36Z</time>
      </trkpt>
      <trkpt lat="42.4510780" lon="-6.5146670">
        <ele>1336.0</ele>
        <time>2014-10-01T07:06:37Z</time>
      </trkpt>
      <trkpt lat="42.4510510" lon="-6.5146640">
        <ele>1336.2</ele>
        <time>2014-10-01T07:06:38Z</time>
      </trkpt>
      <trkpt lat="42.4509960" lon="-6.5146580">
        <ele>1336.7</ele>
        <time>2014-10-01T07:06:40Z</time>
      </trkpt>
      <trkpt lat="42.4509680" lon="-6.5146550">
        <ele>1337.0</ele>
        <time>2014-10-01T07:06:41Z</time>
      </trkpt>
      <trkpt lat="42.4509150" lon="-6.5146560">
        <ele>1337.5</ele>
        <time>2014-10-01T07:06:43Z</time>
      </trkpt>
      <trkpt lat="42.4508670" lon="-6.5146540">
        <ele>1337.9</ele>
        <time>2014-10-01T07:06:45Z</time>
      </trkpt>
      <trkpt lat="42.4508190" lon="-6.5146550">
        <ele>1338.4</ele>
        <time>2014-10-01T07:06:47Z</time>
      </trkpt>
      <trkpt lat="42.4507680" lon="-6.5146570">
        <ele>1338.9</ele>
        <time>2014-10-01T07:06:49Z</time>
      </trkpt>
      <trkpt lat="42.4507180" lon="-6.5146540">
        <ele>1339.4</ele>
        <time>2014-10-01T07:06:51Z</time>
      </trkpt>
      <trkpt lat="42.4506900" lon="-6.5146500">
        <ele>1339.7</ele>
        <time>2014-10-01T07:06:52Z</time>
      </trkpt>
      <trkpt lat="42.4506400" lon="-6.5146490">
        <ele>1340.2</ele>
        <time>2014-10-01T07:06:54Z</time>
      </trkpt>
      <trkpt lat="42.4505910" lon="-6.5146430">
        <ele>1340.7</ele>
        <time>2014-10-01T07:06:56Z</time>
      </trkpt>
      <trkpt lat="42.4505420" lon="-6.5146330">
        <ele>1341.2</ele>
        <time>2014-10-01T07:06:58Z</time>
      </trkpt>
      <trkpt lat="42.4504960" lon="-6.5146200">
        <ele>1341.8</ele>
        <time>2014-10-01T07:07:00Z</time>
      </trkpt>
      <trkpt lat="42.4504540" lon="-6.5146080">
        <ele>1342.3</ele>
        <time>2014-10-01T07:07:02Z</time>
      </trkpt>
      <trkpt lat="42.4504080" lon="-6.5146010">
        <ele>1342.8</ele>
        <time>2014-10-01T07:07:04Z</time>
      </trkpt>
      <trkpt lat="42.4503570" lon="-6.5145940">
        <ele>1343.4</ele>
        <time>2014-10-01T07:07:06Z</time>
      </trkpt>
      <trkpt lat="42.4503080" lon="-6.5145880">
        <ele>1343.9</ele>
        <time>2014-10-01T07:07:08Z</time>
      </trkpt>
      <trkpt lat="42.4502640" lon="-6.5145820">
        <ele>1344.4</ele>
        <time>2014-10-01T07:07:10Z</time>
      </trkpt>
      <trkpt lat="42.4502260" lon="-6.5145810">
        <ele>1344.9</ele>
        <time>2014-10-01T07:07:12Z</time>
      </trkpt>
      <trkpt lat="42.4501750" lon="-6.5145700">
        <ele>1345.4</ele>
        <time>2014-10-01T07:07:14Z</time>
      </trkpt>
      <trkpt lat="42.4501260" lon="-6.5145530">
        <ele>1346.0</ele>
        <time>2014-10-01T07:07:16Z</time>
      </trkpt>
      <trkpt lat="42.4500770" lon="-6.5145330">
        <ele>1346.6</ele>
        <time>2014-10-01T07:07:18Z</time>
      </trkpt>
      <trkpt lat="42.4500350" lon="-6.5145130">
        <ele>1347.1</ele>
        <time>2014-10-01T07:07:20Z</time>
      </trkpt>
      <trkpt lat="42.4499960" lon="-6.5144980">
        <ele>1347.5</ele>
        <time>2014-10-01T07:07:22Z</time>
      </trkpt>
      <trkpt lat="42.4499500" lon="-6.5144810">
        <ele>1348.1</ele>
        <time>2014-10-01T07:07:24Z</time>
      </trkpt>
      <trkpt lat="42.4499240" lon="-6.5144720">
        <ele>1348.4</ele>
        <time>2014-10-01T07:07:25Z</time>
      </trkpt>
      <trkpt lat="42.4498730" lon="-6.5144620">
        <ele>1349.0</ele>
        <time>2014-10-01T07:07:27Z</time>
      </trkpt>
      <trkpt lat="42.4498320" lon="-6.5144510">
        <ele>1349.5</ele>
        <time>2014-10-01T07:07:29Z</time>
      </trkpt>
      <trkpt lat="42.4497870" lon="-6.5144360">
        <ele>1350.1</ele>
        <time>2014-10-01T07:07:31Z</time>
      </trkpt>
      <trkpt lat="42.4497460" lon="-6.5144220">
        <ele>1350.6</ele>
        <time>2014-10-01T07:07:33Z</time>
      </trkpt>
      <trkpt lat="42.4497000" lon="-6.5144080">
        <ele>1351.1</ele>
        <time>2014-10-01T07:07:35Z</time>
      </trkpt>
      <trkpt lat="42.4496540" lon="-6.5143950">
        <ele>1351.7</ele>
        <time>2014-10-01T07:07:37Z</time>
      </trkpt>
      <trkpt lat="42.4496150" lon="-6.5143850">
        <ele>1352.2</ele>
        <time>2014-10-01T07:07:39Z</time>
      </trkpt>
      <trkpt lat="42.4495700" lon="-6.5143800">
        <ele>1352.7</ele>
        <time>2014-10-01T07:07:41Z</time>
      </trkpt>
      <trkpt lat="42.4495220" lon="-6.5143760">
        <ele>1353.2</ele>
        <time>2014-10-01T07:07:43Z</time>
      </trkpt>
      <trkpt lat="42.4494940" lon="-6.5143770">
        <ele>1353.6</ele>
        <time>2014-10-01T07:07:44Z</time>
      </trkpt>
      <trkpt lat="42.4494480" lon="-6.5143810">
        <ele>1354.2</ele>
        <time>2014-10-01T07:07:46Z</time>
      </trkpt>
      <trkpt lat="42.4494060" lon="-6.5143890">
        <ele>1354.9</ele>
        <time>2014-10-01T07:07:48Z</time>
      </trkpt>
      <trkpt lat="42.4493620" lon="-6.5143940">
        <ele>1355.7</ele>
        <time>2014-10-01T07:07:50Z</time>
      </trkpt>
      <trkpt lat="42.4493110" lon="-6.5143950">
        <ele>1356.7</ele>
        <time>2014-10-01T07:07:52Z</time>
      </trkpt>
      <trkpt lat="42.4492580" lon="-6.5143980">
        <ele>1357.7</ele>
        <time>2014-10-01T07:07:54Z</time>
      </trkpt>
      <trkpt lat="42.4492130" lon="-6.5144030">
        <ele>1358.5</ele>
        <time>2014-10-01T07:07:56Z</time>
      </trkpt>
      <trkpt lat="42.4491730" lon="-6.5144160">
        <ele>1358.8</ele>
        <time>2014-10-01T07:07:58Z</time>
      </trkpt>
      <trkpt lat="42.4491290" lon="-6.5144290">
        <ele>1359.0</ele>
        <time>2014-10-01T07:08:00Z</time>
      </trkpt>
      <trkpt lat="42.4490840" lon="-6.5144480">
        <ele>1359.3</ele>
        <time>2014-10-01T07:08:02Z</time>
      </trkpt>
      <trkpt lat="42.4490570" lon="-6.5144660">
        <ele>1359.4</ele>
        <time>2014-10-01T07:08:03Z</time>
      </trkpt>
      <trkpt lat="42.4490340" lon="-6.5144850">
        <ele>1359.6</ele>
        <time>2014-10-01T07:08:04Z</time>
      </trkpt>
      <trkpt lat="42.4489870" lon="-6.5145130">
        <ele>1359.9</ele>
        <time>2014-10-01T07:08:06Z</time>
      </trkpt>
      <trkpt lat="42.4489410" lon="-6.5145400">
        <ele>1360.2</ele>
        <time>2014-10-01T07:08:08Z</time>
      </trkpt>
      <trkpt lat="42.4488910" lon="-6.5145660">
        <ele>1360.5</ele>
        <time>2014-10-01T07:08:10Z</time>
      </trkpt>
      <trkpt lat="42.4488450" lon="-6.5145920">
        <ele>1360.8</ele>
        <time>2014-10-01T07:08:12Z</time>
      </trkpt>
      <trkpt lat="42.4487990" lon="-6.5146170">
        <ele>1361.1</ele>
        <time>2014-10-01T07:08:14Z</time>
      </trkpt>
      <trkpt lat="42.4487720" lon="-6.5146260">
        <ele>1361.3</ele>
        <time>2014-10-01T07:08:15Z</time>
      </trkpt>
      <trkpt lat="42.4487220" lon="-6.5146440">
        <ele>1361.6</ele>
        <time>2014-10-01T07:08:17Z</time>
      </trkpt>
      <trkpt lat="42.4486710" lon="-6.5146610">
        <ele>1362.0</ele>
        <time>2014-10-01T07:08:19Z</time>
      </trkpt>
      <trkpt lat="42.4486170" lon="-6.5146710">
        <ele>1362.4</ele>
        <time>2014-10-01T07:08:21Z</time>
      </trkpt>
      <trkpt lat="42.4485840" lon="-6.5146760">
        <ele>1362.6</ele>
        <time>2014-10-01T07:08:22Z</time>
      </trkpt>
      <trkpt lat="42.4485460" lon="-6.5146840">
        <ele>1362.9</ele>
        <time>2014-10-01T07:08:23Z</time>
      </trkpt>
      <trkpt lat="42.4485140" lon="-6.5146950">
        <ele>1363.2</ele>
        <time>2014-10-01T07:08:24Z</time>
      </trkpt>
      <trkpt lat="42.4484840" lon="-6.5147060">
        <ele>1363.4</ele>
        <time>2014-10-01T07:08:25Z</time>
      </trkpt>
      <trkpt lat="42.4484520" lon="-6.5147180">
        <ele>1363.7</ele>
        <time>2014-10-01T07:08:26Z</time>
      </trkpt>
      <trkpt lat="42.4484190" lon="-6.5147260">
        <ele>1363.9</ele>
        <time>2014-10-01T07:08:27Z</time>
      </trkpt>
      <trkpt lat="42.4483850" lon="-6.5147350">
        <ele>1364.2</ele>
        <time>2014-10-01T07:08:28Z</time>
      </trkpt>
      <trkpt lat="42.4483540" lon="-6.5147380">
        <ele>1364.4</ele>
        <time>2014-10-01T07:08:29Z</time>
      </trkpt>
      <trkpt lat="42.4482970" lon="-6.5147410">
        <ele>1364.9</ele>
        <time>2014-10-01T07:08:31Z</time>
      </trkpt>
      <trkpt lat="42.4482680" lon="-6.5147440">
        <ele>1365.1</ele>
        <time>2014-10-01T07:08:32Z</time>
      </trkpt>
      <trkpt lat="42.4482370" lon="-6.5147470">
        <ele>1365.4</ele>
        <time>2014-10-01T07:08:33Z</time>
      </trkpt>
      <trkpt lat="42.4481990" lon="-6.5147540">
        <ele>1365.8</ele>
        <time>2014-10-01T07:08:34Z</time>
      </trkpt>
      <trkpt lat="42.4481640" lon="-6.5147580">
        <ele>1366.1</ele>
        <time>2014-10-01T07:08:35Z</time>
      </trkpt>
      <trkpt lat="42.4481340" lon="-6.5147630">
        <ele>1366.4</ele>
        <time>2014-10-01T07:08:36Z</time>
      </trkpt>
      <trkpt lat="42.4481020" lon="-6.5147690">
        <ele>1366.7</ele>
        <time>2014-10-01T07:08:37Z</time>
      </trkpt>
      <trkpt lat="42.4480750" lon="-6.5147730">
        <ele>1367.0</ele>
        <time>2014-10-01T07:08:38Z</time>
      </trkpt>
      <trkpt lat="42.4480470" lon="-6.5147780">
        <ele>1367.2</ele>
        <time>2014-10-01T07:08:39Z</time>
      </trkpt>
      <trkpt lat="42.4480180" lon="-6.5147840">
        <ele>1367.5</ele>
        <time>2014-10-01T07:08:40Z</time>
      </trkpt>
      <trkpt lat="42.4479870" lon="-6.5147910">
        <ele>1367.8</ele>
        <time>2014-10-01T07:08:41Z</time>
      </trkpt>
      <trkpt lat="42.4479570" lon="-6.5147970">
        <ele>1368.1</ele>
        <time>2014-10-01T07:08:42Z</time>
      </trkpt>
      <trkpt lat="42.4479260" lon="-6.5148070">
        <ele>1368.4</ele>
        <time>2014-10-01T07:08:43Z</time>
      </trkpt>
      <trkpt lat="42.4478970" lon="-6.5148190">
        <ele>1368.6</ele>
        <time>2014-10-01T07:08:44Z</time>
      </trkpt>
      <trkpt lat="42.4478660" lon="-6.5148370">
        <ele>1368.9</ele>
        <time>2014-10-01T07:08:45Z</time>
      </trkpt>
      <trkpt lat="42.4478380" lon="-6.5148570">
        <ele>1369.2</ele>
        <time>2014-10-01T07:08:46Z</time>
      </trkpt>
      <trkpt lat="42.4478100" lon="-6.5148800">
        <ele>1369.5</ele>
        <time>2014-10-01T07:08:47Z</time>
      </trkpt>
      <trkpt lat="42.4477660" lon="-6.5149190">
        <ele>1369.9</ele>
        <time>2014-10-01T07:08:49Z</time>
      </trkpt>
      <trkpt lat="42.4477420" lon="-6.5149460">
        <ele>1370.1</ele>
        <time>2014-10-01T07:08:50Z</time>
      </trkpt>
      <trkpt lat="42.4477160" lon="-6.5149760">
        <ele>1370.4</ele>
        <time>2014-10-01T07:08:51Z</time>
      </trkpt>
      <trkpt lat="42.4476960" lon="-6.5150030">
        <ele>1370.6</ele>
        <time>2014-10-01T07:08:52Z</time>
      </trkpt>
      <trkpt lat="42.4476770" lon="-6.5150310">
        <ele>1370.8</ele>
        <time>2014-10-01T07:08:53Z</time>
      </trkpt>
      <trkpt lat="42.4476430" lon="-6.5150830">
        <ele>1371.2</ele>
        <time>2014-10-01T07:08:55Z</time>
      </trkpt>
      <trkpt lat="42.4476230" lon="-6.5151160">
        <ele>1371.4</ele>
        <time>2014-10-01T07:08:56Z</time>
      </trkpt>
      <trkpt lat="42.4476060" lon="-6.5151470">
        <ele>1371.6</ele>
        <time>2014-10-01T07:08:57Z</time>
      </trkpt>
      <trkpt lat="42.4475860" lon="-6.5151810">
        <ele>1371.8</ele>
        <time>2014-10-01T07:08:58Z</time>
      </trkpt>
      <trkpt lat="42.4475660" lon="-6.5152170">
        <ele>1372.1</ele>
        <time>2014-10-01T07:08:59Z</time>
      </trkpt>
      <trkpt lat="42.4475450" lon="-6.5152500">
        <ele>1372.3</ele>
        <time>2014-10-01T07:09:00Z</time>
      </trkpt>
      <trkpt lat="42.4475270" lon="-6.5152780">
        <ele>1372.5</ele>
        <time>2014-10-01T07:09:01Z</time>
      </trkpt>
      <trkpt lat="42.4475050" lon="-6.5153160">
        <ele>1372.8</ele>
        <time>2014-10-01T07:09:02Z</time>
      </trkpt>
      <trkpt lat="42.4474860" lon="-6.5153480">
        <ele>1373.0</ele>
        <time>2014-10-01T07:09:03Z</time>
      </trkpt>
      <trkpt lat="42.4474630" lon="-6.5153860">
        <ele>1373.2</ele>
        <time>2014-10-01T07:09:04Z</time>
      </trkpt>
      <trkpt lat="42.4474430" lon="-6.5154160">
        <ele>1373.4</ele>
        <time>2014-10-01T07:09:05Z</time>
      </trkpt>
      <trkpt lat="42.4474070" lon="-6.5154730">
        <ele>1373.8</ele>
        <time>2014-10-01T07:09:07Z</time>
      </trkpt>
      <trkpt lat="42.4473880" lon="-6.5155030">
        <ele>1374.0</ele>
        <time>2014-10-01T07:09:08Z</time>
      </trkpt>
      <trkpt lat="42.4473520" lon="-6.5155550">
        <ele>1374.4</ele>
        <time>2014-10-01T07:09:10Z</time>
      </trkpt>
      <trkpt lat="42.4473160" lon="-6.5156150">
        <ele>1374.8</ele>
        <time>2014-10-01T07:09:12Z</time>
      </trkpt>
      <trkpt lat="42.4472940" lon="-6.5156500">
        <ele>1375.1</ele>
        <time>2014-10-01T07:09:13Z</time>
      </trkpt>
      <trkpt lat="42.4472770" lon="-6.5156810">
        <ele>1375.3</ele>
        <time>2014-10-01T07:09:14Z</time>
      </trkpt>
      <trkpt lat="42.4472590" lon="-6.5157080">
        <ele>1375.6</ele>
        <time>2014-10-01T07:09:15Z</time>
      </trkpt>
      <trkpt lat="42.4472220" lon="-6.5157640">
        <ele>1376.1</ele>
        <time>2014-10-01T07:09:17Z</time>
      </trkpt>
      <trkpt lat="42.4471990" lon="-6.5157950">
        <ele>1376.4</ele>
        <time>2014-10-01T07:09:18Z</time>
      </trkpt>
      <trkpt lat="42.4471670" lon="-6.5158450">
        <ele>1376.8</ele>
        <time>2014-10-01T07:09:20Z</time>
      </trkpt>
      <trkpt lat="42.4471360" lon="-6.5158940">
        <ele>1377.3</ele>
        <time>2014-10-01T07:09:22Z</time>
      </trkpt>
      <trkpt lat="42.4471010" lon="-6.5159450">
        <ele>1377.8</ele>
        <time>2014-10-01T07:09:24Z</time>
      </trkpt>
      <trkpt lat="42.4470610" lon="-6.5159990">
        <ele>1378.3</ele>
        <time>2014-10-01T07:09:26Z</time>
      </trkpt>
      <trkpt lat="42.4470380" lon="-6.5160240">
        <ele>1378.6</ele>
        <time>2014-10-01T07:09:27Z</time>
      </trkpt>
      <trkpt lat="42.4470160" lon="-6.5160480">
        <ele>1378.9</ele>
        <time>2014-10-01T07:09:28Z</time>
      </trkpt>
      <trkpt lat="42.4469690" lon="-6.5160920">
        <ele>1379.5</ele>
        <time>2014-10-01T07:09:30Z</time>
      </trkpt>
      <trkpt lat="42.4469400" lon="-6.5161160">
        <ele>1379.9</ele>
        <time>2014-10-01T07:09:31Z</time>
      </trkpt>
      <trkpt lat="42.4469110" lon="-6.5161360">
        <ele>1380.2</ele>
        <time>2014-10-01T07:09:32Z</time>
      </trkpt>
      <trkpt lat="42.4468850" lon="-6.5161560">
        <ele>1380.5</ele>
        <time>2014-10-01T07:09:33Z</time>
      </trkpt>
      <trkpt lat="42.4468560" lon="-6.5161790">
        <ele>1380.9</ele>
        <time>2014-10-01T07:09:34Z</time>
      </trkpt>
      <trkpt lat="42.4468240" lon="-6.5162020">
        <ele>1381.2</ele>
        <time>2014-10-01T07:09:35Z</time>
      </trkpt>
      <trkpt lat="42.4467940" lon="-6.5162160">
        <ele>1381.5</ele>
        <time>2014-10-01T07:09:36Z</time>
      </trkpt>
      <trkpt lat="42.4467670" lon="-6.5162260">
        <ele>1381.8</ele>
        <time>2014-10-01T07:09:37Z</time>
      </trkpt>
      <trkpt lat="42.4467410" lon="-6.5162370">
        <ele>1382.0</ele>
        <time>2014-10-01T07:09:38Z</time>
      </trkpt>
      <trkpt lat="42.4467120" lon="-6.5162480">
        <ele>1382.3</ele>
        <time>2014-10-01T07:09:39Z</time>
      </trkpt>
      <trkpt lat="42.4466860" lon="-6.5162620">
        <ele>1382.5</ele>
        <time>2014-10-01T07:09:40Z</time>
      </trkpt>
      <trkpt lat="42.4466590" lon="-6.5162850">
        <ele>1382.8</ele>
        <time>2014-10-01T07:09:41Z</time>
      </trkpt>
      <trkpt lat="42.4466350" lon="-6.5163070">
        <ele>1383.0</ele>
        <time>2014-10-01T07:09:42Z</time>
      </trkpt>
      <trkpt lat="42.4466110" lon="-6.5163350">
        <ele>1383.3</ele>
        <time>2014-10-01T07:09:43Z</time>
      </trkpt>
      <trkpt lat="42.4465870" lon="-6.5163630">
        <ele>1383.6</ele>
        <time>2014-10-01T07:09:44Z</time>
      </trkpt>
      <trkpt lat="42.4465640" lon="-6.5163940">
        <ele>1383.8</ele>
        <time>2014-10-01T07:09:45Z</time>
      </trkpt>
      <trkpt lat="42.4465450" lon="-6.5164260">
        <ele>1384.1</ele>
        <time>2014-10-01T07:09:46Z</time>
      </trkpt>
      <trkpt lat="42.4465230" lon="-6.5164610">
        <ele>1384.3</ele>
        <time>2014-10-01T07:09:47Z</time>
      </trkpt>
      <trkpt lat="42.4465030" lon="-6.5164940">
        <ele>1384.6</ele>
        <time>2014-10-01T07:09:48Z</time>
      </trkpt>
      <trkpt lat="42.4464820" lon="-6.5165300">
        <ele>1384.8</ele>
        <time>2014-10-01T07:09:49Z</time>
      </trkpt>
      <trkpt lat="42.4464630" lon="-6.5165650">
        <ele>1385.1</ele>
        <time>2014-10-01T07:09:50Z</time>
      </trkpt>
      <trkpt lat="42.4464430" lon="-6.5166000">
        <ele>1385.3</ele>
        <time>2014-10-01T07:09:51Z</time>
      </trkpt>
      <trkpt lat="42.4464260" lon="-6.5166350">
        <ele>1385.5</ele>
        <time>2014-10-01T07:09:52Z</time>
      </trkpt>
      <trkpt lat="42.4464080" lon="-6.5166670">
        <ele>1385.7</ele>
        <time>2014-10-01T07:09:53Z</time>
      </trkpt>
      <trkpt lat="42.4463900" lon="-6.5166970">
        <ele>1385.9</ele>
        <time>2014-10-01T07:09:54Z</time>
      </trkpt>
      <trkpt lat="42.4463690" lon="-6.5167220">
        <ele>1386.1</ele>
        <time>2014-10-01T07:09:55Z</time>
      </trkpt>
      <trkpt lat="42.4463150" lon="-6.5167650">
        <ele>1386.5</ele>
        <time>2014-10-01T07:09:57Z</time>
      </trkpt>
      <trkpt lat="42.4462800" lon="-6.5167830">
        <ele>1386.7</ele>
        <time>2014-10-01T07:09:58Z</time>
      </trkpt>
      <trkpt lat="42.4462440" lon="-6.5167990">
        <ele>1386.9</ele>
        <time>2014-10-01T07:09:59Z</time>
      </trkpt>
      <trkpt lat="42.4462130" lon="-6.5168080">
        <ele>1387.1</ele>
        <time>2014-10-01T07:10:00Z</time>
      </trkpt>
      <trkpt lat="42.4461830" lon="-6.5168150">
        <ele>1387.2</ele>
        <time>2014-10-01T07:10:01Z</time>
      </trkpt>
      <trkpt lat="42.4461520" lon="-6.5168190">
        <ele>1387.4</ele>
        <time>2014-10-01T07:10:02Z</time>
      </trkpt>
      <trkpt lat="42.4461210" lon="-6.5168240">
        <ele>1387.5</ele>
        <time>2014-10-01T07:10:03Z</time>
      </trkpt>
      <trkpt lat="42.4460890" lon="-6.5168260">
        <ele>1387.7</ele>
        <time>2014-10-01T07:10:04Z</time>
      </trkpt>
      <trkpt lat="42.4460560" lon="-6.5168270">
        <ele>1387.9</ele>
        <time>2014-10-01T07:10:05Z</time>
      </trkpt>
      <trkpt lat="42.4460220" lon="-6.5168270">
        <ele>1388.0</ele>
        <time>2014-10-01T07:10:06Z</time>
      </trkpt>
      <trkpt lat="42.4459900" lon="-6.5168260">
        <ele>1388.2</ele>
        <time>2014-10-01T07:10:07Z</time>
      </trkpt>
      <trkpt lat="42.4459550" lon="-6.5168250">
        <ele>1388.4</ele>
        <time>2014-10-01T07:10:08Z</time>
      </trkpt>
      <trkpt lat="42.4459180" lon="-6.5168220">
        <ele>1388.6</ele>
        <time>2014-10-01T07:10:09Z</time>
      </trkpt>
      <trkpt lat="42.4458820" lon="-6.5168140">
        <ele>1388.8</ele>
        <time>2014-10-01T07:10:10Z</time>
      </trkpt>
      <trkpt lat="42.4458450" lon="-6.5168050">
        <ele>1389.0</ele>
        <time>2014-10-01T07:10:11Z</time>
      </trkpt>
      <trkpt lat="42.4458070" lon="-6.5167890">
        <ele>1389.2</ele>
        <time>2014-10-01T07:10:12Z</time>
      </trkpt>
      <trkpt lat="42.4457690" lon="-6.5167720">
        <ele>1389.5</ele>
        <time>2014-10-01T07:10:13Z</time>
      </trkpt>
      <trkpt lat="42.4457330" lon="-6.5167560">
        <ele>1389.7</ele>
        <time>2014-10-01T07:10:14Z</time>
      </trkpt>
      <trkpt lat="42.4456960" lon="-6.5167380">
        <ele>1389.9</ele>
        <time>2014-10-01T07:10:15Z</time>
      </trkpt>
      <trkpt lat="42.4456600" lon="-6.5167190">
        <ele>1390.1</ele>
        <time>2014-10-01T07:10:16Z</time>
      </trkpt>
      <trkpt lat="42.4456290" lon="-6.5166960">
        <ele>1390.3</ele>
        <time>2014-10-01T07:10:17Z</time>
      </trkpt>
      <trkpt lat="42.4456000" lon="-6.5166700">
        <ele>1390.6</ele>
        <time>2014-10-01T07:10:18Z</time>
      </trkpt>
      <trkpt lat="42.4455720" lon="-6.5166450">
        <ele>1390.8</ele>
        <time>2014-10-01T07:10:19Z</time>
      </trkpt>
      <trkpt lat="42.4455470" lon="-6.5166230">
        <ele>1391.0</ele>
        <time>2014-10-01T07:10:20Z</time>
      </trkpt>
      <trkpt lat="42.4455230" lon="-6.5165980">
        <ele>1391.2</ele>
        <time>2014-10-01T07:10:21Z</time>
      </trkpt>
      <trkpt lat="42.4454990" lon="-6.5165740">
        <ele>1391.4</ele>
        <time>2014-10-01T07:10:22Z</time>
      </trkpt>
      <trkpt lat="42.4454760" lon="-6.5165490">
        <ele>1391.6</ele>
        <time>2014-10-01T07:10:23Z</time>
      </trkpt>
      <trkpt lat="42.4454520" lon="-6.5165240">
        <ele>1391.9</ele>
        <time>2014-10-01T07:10:24Z</time>
      </trkpt>
      <trkpt lat="42.4454230" lon="-6.5164930">
        <ele>1392.2</ele>
        <time>2014-10-01T07:10:25Z</time>
      </trkpt>
      <trkpt lat="42.4453930" lon="-6.5164550">
        <ele>1392.5</ele>
        <time>2014-10-01T07:10:26Z</time>
      </trkpt>
      <trkpt lat="42.4453650" lon="-6.5164230">
        <ele>1392.8</ele>
        <time>2014-10-01T07:10:27Z</time>
      </trkpt>
      <trkpt lat="42.4453370" lon="-6.5163910">
        <ele>1393.1</ele>
        <time>2014-10-01T07:10:28Z</time>
      </trkpt>
      <trkpt lat="42.4453100" lon="-6.5163620">
        <ele>1393.4</ele>
        <time>2014-10-01T07:10:29Z</time>
      </trkpt>
      <trkpt lat="42.4452830" lon="-6.5163350">
        <ele>1393.7</ele>
        <time>2014-10-01T07:10:30Z</time>
      </trkpt>
      <trkpt lat="42.4452510" lon="-6.5163050">
        <ele>1394.0</ele>
        <time>2014-10-01T07:10:31Z</time>
      </trkpt>
      <trkpt lat="42.4452240" lon="-6.5162840">
        <ele>1394.3</ele>
        <time>2014-10-01T07:10:32Z</time>
      </trkpt>
      <trkpt lat="42.4451940" lon="-6.5162600">
        <ele>1394.6</ele>
        <time>2014-10-01T07:10:33Z</time>
      </trkpt>
      <trkpt lat="42.4451650" lon="-6.5162360">
        <ele>1394.8</ele>
        <time>2014-10-01T07:10:34Z</time>
      </trkpt>
      <trkpt lat="42.4451340" lon="-6.5162130">
        <ele>1395.1</ele>
        <time>2014-10-01T07:10:35Z</time>
      </trkpt>
      <trkpt lat="42.4451060" lon="-6.5161950">
        <ele>1395.3</ele>
        <time>2014-10-01T07:10:36Z</time>
      </trkpt>
      <trkpt lat="42.4450600" lon="-6.5161780">
        <ele>1395.5</ele>
        <time>2014-10-01T07:10:38Z</time>
      </trkpt>
      <trkpt lat="42.4450270" lon="-6.5161700">
        <ele>1395.7</ele>
        <time>2014-10-01T07:10:39Z</time>
      </trkpt>
      <trkpt lat="42.4449890" lon="-6.5161660">
        <ele>1395.9</ele>
        <time>2014-10-01T07:10:40Z</time>
      </trkpt>
      <trkpt lat="42.4449490" lon="-6.5161640">
        <ele>1396.1</ele>
        <time>2014-10-01T07:10:41Z</time>
      </trkpt>
      <trkpt lat="42.4449100" lon="-6.5161680">
        <ele>1396.3</ele>
        <time>2014-10-01T07:10:42Z</time>
      </trkpt>
      <trkpt lat="42.4448740" lon="-6.5161790">
        <ele>1396.5</ele>
        <time>2014-10-01T07:10:43Z</time>
      </trkpt>
      <trkpt lat="42.4448380" lon="-6.5161900">
        <ele>1396.7</ele>
        <time>2014-10-01T07:10:44Z</time>
      </trkpt>
      <trkpt lat="42.4448050" lon="-6.5161990">
        <ele>1396.9</ele>
        <time>2014-10-01T07:10:45Z</time>
      </trkpt>
      <trkpt lat="42.4447690" lon="-6.5162110">
        <ele>1397.1</ele>
        <time>2014-10-01T07:10:46Z</time>
      </trkpt>
      <trkpt lat="42.4447370" lon="-6.5162260">
        <ele>1397.3</ele>
        <time>2014-10-01T07:10:47Z</time>
      </trkpt>
      <trkpt lat="42.4447020" lon="-6.5162410">
        <ele>1397.5</ele>
        <time>2014-10-01T07:10:48Z</time>
      </trkpt>
      <trkpt lat="42.4446680" lon="-6.5162530">
        <ele>1397.7</ele>
        <time>2014-10-01T07:10:49Z</time>
      </trkpt>
      <trkpt lat="42.4446320" lon="-6.5162660">
        <ele>1398.0</ele>
        <time>2014-10-01T07:10:50Z</time>
      </trkpt>
      <trkpt lat="42.4445890" lon="-6.5162800">
        <ele>1398.3</ele>
        <time>2014-10-01T07:10:51Z</time>
      </trkpt>
      <trkpt lat="42.4445470" lon="-6.5162920">
        <ele>1398.7</ele>
        <time>2014-10-01T07:10:52Z</time>
      </trkpt>
      <trkpt lat="42.4445120" lon="-6.5162990">
        <ele>1398.9</ele>
        <time>2014-10-01T07:10:53Z</time>
      </trkpt>
      <trkpt lat="42.4444760" lon="-6.5163010">
        <ele>1399.2</ele>
        <time>2014-10-01T07:10:54Z</time>
      </trkpt>
      <trkpt lat="42.4444410" lon="-6.5163010">
        <ele>1399.5</ele>
        <time>2014-10-01T07:10:55Z</time>
      </trkpt>
      <trkpt lat="42.4444050" lon="-6.5163000">
        <ele>1399.8</ele>
        <time>2014-10-01T07:10:56Z</time>
      </trkpt>
      <trkpt lat="42.4443700" lon="-6.5162950">
        <ele>1400.1</ele>
        <time>2014-10-01T07:10:57Z</time>
      </trkpt>
      <trkpt lat="42.4443330" lon="-6.5162880">
        <ele>1400.5</ele>
        <time>2014-10-01T07:10:58Z</time>
      </trkpt>
      <trkpt lat="42.4442980" lon="-6.5162790">
        <ele>1400.8</ele>
        <time>2014-10-01T07:10:59Z</time>
      </trkpt>
      <trkpt lat="42.4442580" lon="-6.5162700">
        <ele>1401.1</ele>
        <time>2014-10-01T07:11:00Z</time>
      </trkpt>
      <trkpt lat="42.4442210" lon="-6.5162570">
        <ele>1401.5</ele>
        <time>2014-10-01T07:11:01Z</time>
      </trkpt>
      <trkpt lat="42.4441860" lon="-6.5162460">
        <ele>1401.8</ele>
        <time>2014-10-01T07:11:02Z</time>
      </trkpt>
      <trkpt lat="42.4441490" lon="-6.5162370">
        <ele>1402.1</ele>
        <time>2014-10-01T07:11:03Z</time>
      </trkpt>
      <trkpt lat="42.4441100" lon="-6.5162240">
        <ele>1402.5</ele>
        <time>2014-10-01T07:11:04Z</time>
      </trkpt>
      <trkpt lat="42.4440710" lon="-6.5162130">
        <ele>1402.8</ele>
        <time>2014-10-01T07:11:05Z</time>
      </trkpt>
      <trkpt lat="42.4440370" lon="-6.5162030">
        <ele>1403.1</ele>
        <time>2014-10-01T07:11:06Z</time>
      </trkpt>
      <trkpt lat="42.4440010" lon="-6.5161970">
        <ele>1403.4</ele>
        <time>2014-10-01T07:11:07Z</time>
      </trkpt>
      <trkpt lat="42.4439680" lon="-6.5161930">
        <ele>1403.7</ele>
        <time>2014-10-01T07:11:08Z</time>
      </trkpt>
      <trkpt lat="42.4439340" lon="-6.5161940">
        <ele>1404.0</ele>
        <time>2014-10-01T07:11:09Z</time>
      </trkpt>
      <trkpt lat="42.4439010" lon="-6.5161970">
        <ele>1404.3</ele>
        <time>2014-10-01T07:11:10Z</time>
      </trkpt>
      <trkpt lat="42.4438670" lon="-6.5162040">
        <ele>1404.5</ele>
        <time>2014-10-01T07:11:11Z</time>
      </trkpt>
      <trkpt lat="42.4438370" lon="-6.5162150">
        <ele>1404.8</ele>
        <time>2014-10-01T07:11:12Z</time>
      </trkpt>
      <trkpt lat="42.4437920" lon="-6.5162420">
        <ele>1405.2</ele>
        <time>2014-10-01T07:11:14Z</time>
      </trkpt>
      <trkpt lat="42.4437660" lon="-6.5162630">
        <ele>1405.5</ele>
        <time>2014-10-01T07:11:15Z</time>
      </trkpt>
      <trkpt lat="42.4437380" lon="-6.5162880">
        <ele>1405.8</ele>
        <time>2014-10-01T07:11:16Z</time>
      </trkpt>
      <trkpt lat="42.4437110" lon="-6.5163130">
        <ele>1406.1</ele>
        <time>2014-10-01T07:11:17Z</time>
      </trkpt>
      <trkpt lat="42.4436880" lon="-6.5163320">
        <ele>1406.3</ele>
        <time>2014-10-01T07:11:18Z</time>
      </trkpt>
      <trkpt lat="42.4436620" lon="-6.5163480">
        <ele>1406.6</ele>
        <time>2014-10-01T07:11:19Z</time>
      </trkpt>
      <trkpt lat="42.4436340" lon="-6.5163610">
        <ele>1406.8</ele>
        <time>2014-10-01T07:11:20Z</time>
      </trkpt>
      <trkpt lat="42.4436020" lon="-6.5163720">
        <ele>1407.1</ele>
        <time>2014-10-01T07:11:21Z</time>
      </trkpt>
      <trkpt lat="42.4435700" lon="-6.5163830">
        <ele>1407.4</ele>
        <time>2014-10-01T07:11:22Z</time>
      </trkpt>
      <trkpt lat="42.4435360" lon="-6.5163940">
        <ele>1407.7</ele>
        <time>2014-10-01T07:11:23Z</time>
      </trkpt>
      <trkpt lat="42.4435010" lon="-6.5164020">
        <ele>1408.0</ele>
        <time>2014-10-01T07:11:24Z</time>
      </trkpt>
      <trkpt lat="42.4434690" lon="-6.5164030">
        <ele>1408.2</ele>
        <time>2014-10-01T07:11:25Z</time>
      </trkpt>
      <trkpt lat="42.4434380" lon="-6.5164040">
        <ele>1408.5</ele>
        <time>2014-10-01T07:11:26Z</time>
      </trkpt>
      <trkpt lat="42.4434080" lon="-6.5164030">
        <ele>1408.8</ele>
        <time>2014-10-01T07:11:27Z</time>
      </trkpt>
      <trkpt lat="42.4433790" lon="-6.5163950">
        <ele>1409.0</ele>
        <time>2014-10-01T07:11:28Z</time>
      </trkpt>
      <trkpt lat="42.4433500" lon="-6.5163830">
        <ele>1409.3</ele>
        <time>2014-10-01T07:11:29Z</time>
      </trkpt>
      <trkpt lat="42.4433190" lon="-6.5163670">
        <ele>1409.6</ele>
        <time>2014-10-01T07:11:30Z</time>
      </trkpt>
      <trkpt lat="42.4432910" lon="-6.5163480">
        <ele>1409.8</ele>
        <time>2014-10-01T07:11:31Z</time>
      </trkpt>
      <trkpt lat="42.4432650" lon="-6.5163290">
        <ele>1410.1</ele>
        <time>2014-10-01T07:11:32Z</time>
      </trkpt>
      <trkpt lat="42.4432350" lon="-6.5163090">
        <ele>1410.4</ele>
        <time>2014-10-01T07:11:33Z</time>
      </trkpt>
      <trkpt lat="42.4432050" lon="-6.5162870">
        <ele>1410.7</ele>
        <time>2014-10-01T07:11:34Z</time>
      </trkpt>
      <trkpt lat="42.4431600" lon="-6.5162470">
        <ele>1411.2</ele>
        <time>2014-10-01T07:11:36Z</time>
      </trkpt>
      <trkpt lat="42.4431340" lon="-6.5162240">
        <ele>1411.5</ele>
        <time>2014-10-01T07:11:37Z</time>
      </trkpt>
      <trkpt lat="42.4431110" lon="-6.5161970">
        <ele>1411.8</ele>
        <time>2014-10-01T07:11:38Z</time>
      </trkpt>
      <trkpt lat="42.4430890" lon="-6.5161710">
        <ele>1412.1</ele>
        <time>2014-10-01T07:11:39Z</time>
      </trkpt>
      <trkpt lat="42.4430610" lon="-6.5161320">
        <ele>1412.5</ele>
        <time>2014-10-01T07:11:40Z</time>
      </trkpt>
      <trkpt lat="42.4430370" lon="-6.5160980">
        <ele>1412.8</ele>
        <time>2014-10-01T07:11:41Z</time>
      </trkpt>
      <trkpt lat="42.4430150" lon="-6.5160700">
        <ele>1413.1</ele>
        <time>2014-10-01T07:11:42Z</time>
      </trkpt>
      <trkpt lat="42.4429950" lon="-6.5160410">
        <ele>1413.4</ele>
        <time>2014-10-01T07:11:43Z</time>
      </trkpt>
      <trkpt lat="42.4429750" lon="-6.5160100">
        <ele>1413.6</ele>
        <time>2014-10-01T07:11:44Z</time>
      </trkpt>
      <trkpt lat="42.4429510" lon="-6.5159740">
        <ele>1414.0</ele>
        <time>2014-10-01T07:11:45Z</time>
      </trkpt>
      <trkpt lat="42.4429300" lon="-6.5159440">
        <ele>1414.3</ele>
        <time>2014-10-01T07:11:46Z</time>
      </trkpt>
      <trkpt lat="42.4429080" lon="-6.5159100">
        <ele>1414.6</ele>
        <time>2014-10-01T07:11:47Z</time>
      </trkpt>
      <trkpt lat="42.4428840" lon="-6.5158790">
        <ele>1414.9</ele>
        <time>2014-10-01T07:11:48Z</time>
      </trkpt>
      <trkpt lat="42.4428610" lon="-6.5158510">
        <ele>1415.2</ele>
        <time>2014-10-01T07:11:49Z</time>
      </trkpt>
      <trkpt lat="42.4428340" lon="-6.5158190">
        <ele>1415.6</ele>
        <time>2014-10-01T07:11:50Z</time>
      </trkpt>
      <trkpt lat="42.4428150" lon="-6.5157930">
        <ele>1415.9</ele>
        <time>2014-10-01T07:11:51Z</time>
      </trkpt>
      <trkpt lat="42.4427910" lon="-6.5157670">
        <ele>1416.2</ele>
        <time>2014-10-01T07:11:52Z</time>
      </trkpt>
      <trkpt lat="42.4427670" lon="-6.5157450">
        <ele>1416.5</ele>
        <time>2014-10-01T07:11:53Z</time>
      </trkpt>
      <trkpt lat="42.4427420" lon="-6.5157240">
        <ele>1416.9</ele>
        <time>2014-10-01T07:11:54Z</time>
      </trkpt>
      <trkpt lat="42.4427190" lon="-6.5157030">
        <ele>1417.2</ele>
        <time>2014-10-01T07:11:55Z</time>
      </trkpt>
      <trkpt lat="42.4426720" lon="-6.5156650">
        <ele>1417.8</ele>
        <time>2014-10-01T07:11:57Z</time>
      </trkpt>
      <trkpt lat="42.4426340" lon="-6.5156350">
        <ele>1418.3</ele>
        <time>2014-10-01T07:11:59Z</time>
      </trkpt>
      <trkpt lat="42.4426090" lon="-6.5156180">
        <ele>1418.6</ele>
        <time>2014-10-01T07:12:00Z</time>
      </trkpt>
      <trkpt lat="42.4425800" lon="-6.5155990">
        <ele>1419.0</ele>
        <time>2014-10-01T07:12:01Z</time>
      </trkpt>
      <trkpt lat="42.4425510" lon="-6.5155850">
        <ele>1419.3</ele>
        <time>2014-10-01T07:12:02Z</time>
      </trkpt>
      <trkpt lat="42.4425240" lon="-6.5155750">
        <ele>1419.6</ele>
        <time>2014-10-01T07:12:03Z</time>
      </trkpt>
      <trkpt lat="42.4424960" lon="-6.5155690">
        <ele>1419.9</ele>
        <time>2014-10-01T07:12:04Z</time>
      </trkpt>
      <trkpt lat="42.4424690" lon="-6.5155680">
        <ele>1420.2</ele>
        <time>2014-10-01T07:12:05Z</time>
      </trkpt>
      <trkpt lat="42.4424170" lon="-6.5155780">
        <ele>1420.6</ele>
        <time>2014-10-01T07:12:07Z</time>
      </trkpt>
      <trkpt lat="42.4423710" lon="-6.5156020">
        <ele>1421.0</ele>
        <time>2014-10-01T07:12:09Z</time>
      </trkpt>
      <trkpt lat="42.4423330" lon="-6.5156420">
        <ele>1421.4</ele>
        <time>2014-10-01T07:12:11Z</time>
      </trkpt>
      <trkpt lat="42.4422950" lon="-6.5156910">
        <ele>1421.8</ele>
        <time>2014-10-01T07:12:13Z</time>
      </trkpt>
      <trkpt lat="42.4422620" lon="-6.5157460">
        <ele>1422.2</ele>
        <time>2014-10-01T07:12:15Z</time>
      </trkpt>
      <trkpt lat="42.4422450" lon="-6.5157790">
        <ele>1422.4</ele>
        <time>2014-10-01T07:12:16Z</time>
      </trkpt>
      <trkpt lat="42.4422340" lon="-6.5158140">
        <ele>1422.6</ele>
        <time>2014-10-01T07:12:17Z</time>
      </trkpt>
      <trkpt lat="42.4422220" lon="-6.5158520">
        <ele>1422.8</ele>
        <time>2014-10-01T07:12:18Z</time>
      </trkpt>
      <trkpt lat="42.4422130" lon="-6.5158900">
        <ele>1423.0</ele>
        <time>2014-10-01T07:12:19Z</time>
      </trkpt>
      <trkpt lat="42.4422030" lon="-6.5159330">
        <ele>1423.3</ele>
        <time>2014-10-01T07:12:20Z</time>
      </trkpt>
      <trkpt lat="42.4421950" lon="-6.5159760">
        <ele>1423.5</ele>
        <time>2014-10-01T07:12:21Z</time>
      </trkpt>
      <trkpt lat="42.4421890" lon="-6.5160240">
        <ele>1423.7</ele>
        <time>2014-10-01T07:12:22Z</time>
      </trkpt>
      <trkpt lat="42.4421850" lon="-6.5160700">
        <ele>1423.9</ele>
        <time>2014-10-01T07:12:23Z</time>
      </trkpt>
      <trkpt lat="42.4421800" lon="-6.5161090">
        <ele>1424.0</ele>
        <time>2014-10-01T07:12:24Z</time>
      </trkpt>
      <trkpt lat="42.4421740" lon="-6.5161480">
        <ele>1424.2</ele>
        <time>2014-10-01T07:12:25Z</time>
      </trkpt>
      <trkpt lat="42.4421650" lon="-6.5162130">
        <ele>1424.5</ele>
        <time>2014-10-01T07:12:27Z</time>
      </trkpt>
      <trkpt lat="42.4421600" lon="-6.5162520">
        <ele>1424.6</ele>
        <time>2014-10-01T07:12:28Z</time>
      </trkpt>
      <trkpt lat="42.4421540" lon="-6.5162910">
        <ele>1424.8</ele>
        <time>2014-10-01T07:12:29Z</time>
      </trkpt>
      <trkpt lat="42.4421490" lon="-6.5163290">
        <ele>1425.0</ele>
        <time>2014-10-01T07:12:30Z</time>
      </trkpt>
      <trkpt lat="42.4421410" lon="-6.5163700">
        <ele>1425.2</ele>
        <time>2014-10-01T07:12:31Z</time>
      </trkpt>
      <trkpt lat="42.4421340" lon="-6.5164070">
        <ele>1425.5</ele>
        <time>2014-10-01T07:12:32Z</time>
      </trkpt>
      <trkpt lat="42.4421260" lon="-6.5164440">
        <ele>1425.7</ele>
        <time>2014-10-01T07:12:33Z</time>
      </trkpt>
      <trkpt lat="42.4421160" lon="-6.5164810">
        <ele>1425.9</ele>
        <time>2014-10-01T07:12:34Z</time>
      </trkpt>
      <trkpt lat="42.4421080" lon="-6.5165170">
        <ele>1426.2</ele>
        <time>2014-10-01T07:12:35Z</time>
      </trkpt>
      <trkpt lat="42.4421010" lon="-6.5165530">
        <ele>1426.5</ele>
        <time>2014-10-01T07:12:36Z</time>
      </trkpt>
      <trkpt lat="42.4420940" lon="-6.5165900">
        <ele>1426.7</ele>
        <time>2014-10-01T07:12:37Z</time>
      </trkpt>
      <trkpt lat="42.4420880" lon="-6.5166270">
        <ele>1427.0</ele>
        <time>2014-10-01T07:12:38Z</time>
      </trkpt>
      <trkpt lat="42.4420810" lon="-6.5166920">
        <ele>1427.6</ele>
        <time>2014-10-01T07:12:40Z</time>
      </trkpt>
      <trkpt lat="42.4420710" lon="-6.5167550">
        <ele>1428.1</ele>
        <time>2014-10-01T07:12:42Z</time>
      </trkpt>
      <trkpt lat="42.4420630" lon="-6.5167900">
        <ele>1428.4</ele>
        <time>2014-10-01T07:12:43Z</time>
      </trkpt>
      <trkpt lat="42.4420500" lon="-6.5168600">
        <ele>1428.7</ele>
        <time>2014-10-01T07:12:45Z</time>
      </trkpt>
      <trkpt lat="42.4420360" lon="-6.5169290">
        <ele>1428.9</ele>
        <time>2014-10-01T07:12:47Z</time>
      </trkpt>
      <trkpt lat="42.4420290" lon="-6.5169650">
        <ele>1429.0</ele>
        <time>2014-10-01T07:12:48Z</time>
      </trkpt>
      <trkpt lat="42.4420200" lon="-6.5170030">
        <ele>1429.1</ele>
        <time>2014-10-01T07:12:49Z</time>
      </trkpt>
      <trkpt lat="42.4420120" lon="-6.5170380">
        <ele>1429.3</ele>
        <time>2014-10-01T07:12:50Z</time>
      </trkpt>
      <trkpt lat="42.4419980" lon="-6.5171070">
        <ele>1429.5</ele>
        <time>2014-10-01T07:12:52Z</time>
      </trkpt>
      <trkpt lat="42.4419900" lon="-6.5171430">
        <ele>1429.7</ele>
        <time>2014-10-01T07:12:53Z</time>
      </trkpt>
      <trkpt lat="42.4419730" lon="-6.5172090">
        <ele>1430.0</ele>
        <time>2014-10-01T07:12:55Z</time>
      </trkpt>
      <trkpt lat="42.4419590" lon="-6.5172750">
        <ele>1430.3</ele>
        <time>2014-10-01T07:12:57Z</time>
      </trkpt>
      <trkpt lat="42.4419470" lon="-6.5173390">
        <ele>1430.6</ele>
        <time>2014-10-01T07:12:59Z</time>
      </trkpt>
      <trkpt lat="42.4419320" lon="-6.5174050">
        <ele>1430.9</ele>
        <time>2014-10-01T07:13:01Z</time>
      </trkpt>
      <trkpt lat="42.4419240" lon="-6.5174400">
        <ele>1431.1</ele>
        <time>2014-10-01T07:13:02Z</time>
      </trkpt>
      <trkpt lat="42.4419100" lon="-6.5175110">
        <ele>1431.4</ele>
        <time>2014-10-01T07:13:04Z</time>
      </trkpt>
      <trkpt lat="42.4419050" lon="-6.5175470">
        <ele>1431.5</ele>
        <time>2014-10-01T07:13:05Z</time>
      </trkpt>
      <trkpt lat="42.4418980" lon="-6.5176170">
        <ele>1431.9</ele>
        <time>2014-10-01T07:13:07Z</time>
      </trkpt>
      <trkpt lat="42.4418870" lon="-6.5176810">
        <ele>1432.2</ele>
        <time>2014-10-01T07:13:09Z</time>
      </trkpt>
      <trkpt lat="42.4418810" lon="-6.5177470">
        <ele>1432.5</ele>
        <time>2014-10-01T07:13:11Z</time>
      </trkpt>
      <trkpt lat="42.4418760" lon="-6.5178180">
        <ele>1432.9</ele>
        <time>2014-10-01T07:13:13Z</time>
      </trkpt>
      <trkpt lat="42.4418690" lon="-6.5178580">
        <ele>1433.1</ele>
        <time>2014-10-01T07:13:14Z</time>
      </trkpt>
      <trkpt lat="42.4418670" lon="-6.5178950">
        <ele>1433.3</ele>
        <time>2014-10-01T07:13:15Z</time>
      </trkpt>
      <trkpt lat="42.4418610" lon="-6.5179570">
        <ele>1433.7</ele>
        <time>2014-10-01T07:13:17Z</time>
      </trkpt>
      <trkpt lat="42.4418570" lon="-6.5180130">
        <ele>1434.0</ele>
        <time>2014-10-01T07:13:19Z</time>
      </trkpt>
      <trkpt lat="42.4418490" lon="-6.5180780">
        <ele>1434.4</ele>
        <time>2014-10-01T07:13:21Z</time>
      </trkpt>
      <trkpt lat="42.4418440" lon="-6.5181180">
        <ele>1434.7</ele>
        <time>2014-10-01T07:13:22Z</time>
      </trkpt>
      <trkpt lat="42.4418390" lon="-6.5181540">
        <ele>1434.9</ele>
        <time>2014-10-01T07:13:23Z</time>
      </trkpt>
      <trkpt lat="42.4418320" lon="-6.5181900">
        <ele>1435.1</ele>
        <time>2014-10-01T07:13:24Z</time>
      </trkpt>
      <trkpt lat="42.4418240" lon="-6.5182290">
        <ele>1435.4</ele>
        <time>2014-10-01T07:13:25Z</time>
      </trkpt>
      <trkpt lat="42.4418180" lon="-6.5182670">
        <ele>1435.6</ele>
        <time>2014-10-01T07:13:26Z</time>
      </trkpt>
      <trkpt lat="42.4418090" lon="-6.5183070">
        <ele>1435.9</ele>
        <time>2014-10-01T07:13:27Z</time>
      </trkpt>
      <trkpt lat="42.4418000" lon="-6.5183450">
        <ele>1436.1</ele>
        <time>2014-10-01T07:13:28Z</time>
      </trkpt>
      <trkpt lat="42.4417880" lon="-6.5183860">
        <ele>1436.4</ele>
        <time>2014-10-01T07:13:29Z</time>
      </trkpt>
      <trkpt lat="42.4417740" lon="-6.5184340">
        <ele>1436.7</ele>
        <time>2014-10-01T07:13:30Z</time>
      </trkpt>
      <trkpt lat="42.4417640" lon="-6.5184740">
        <ele>1437.0</ele>
        <time>2014-10-01T07:13:31Z</time>
      </trkpt>
      <trkpt lat="42.4417560" lon="-6.5185100">
        <ele>1437.2</ele>
        <time>2014-10-01T07:13:32Z</time>
      </trkpt>
      <trkpt lat="42.4417470" lon="-6.5185510">
        <ele>1437.5</ele>
        <time>2014-10-01T07:13:33Z</time>
      </trkpt>
      <trkpt lat="42.4417390" lon="-6.5185910">
        <ele>1437.7</ele>
        <time>2014-10-01T07:13:34Z</time>
      </trkpt>
      <trkpt lat="42.4417320" lon="-6.5186270">
        <ele>1438.0</ele>
        <time>2014-10-01T07:13:35Z</time>
      </trkpt>
      <trkpt lat="42.4417210" lon="-6.5186690">
        <ele>1438.3</ele>
        <time>2014-10-01T07:13:36Z</time>
      </trkpt>
      <trkpt lat="42.4417110" lon="-6.5187130">
        <ele>1438.5</ele>
        <time>2014-10-01T07:13:37Z</time>
      </trkpt>
      <trkpt lat="42.4416990" lon="-6.5187580">
        <ele>1438.8</ele>
        <time>2014-10-01T07:13:38Z</time>
      </trkpt>
      <trkpt lat="42.4416870" lon="-6.5188030">
        <ele>1439.1</ele>
        <time>2014-10-01T07:13:39Z</time>
      </trkpt>
      <trkpt lat="42.4416780" lon="-6.5188450">
        <ele>1439.4</ele>
        <time>2014-10-01T07:13:40Z</time>
      </trkpt>
      <trkpt lat="42.4416640" lon="-6.5188840">
        <ele>1439.7</ele>
        <time>2014-10-01T07:13:41Z</time>
      </trkpt>
      <trkpt lat="42.4416520" lon="-6.5189250">
        <ele>1440.0</ele>
        <time>2014-10-01T07:13:42Z</time>
      </trkpt>
      <trkpt lat="42.4416400" lon="-6.5189690">
        <ele>1440.3</ele>
        <time>2014-10-01T07:13:43Z</time>
      </trkpt>
      <trkpt lat="42.4416280" lon="-6.5190100">
        <ele>1440.6</ele>
        <time>2014-10-01T07:13:44Z</time>
      </trkpt>
      <trkpt lat="42.4416160" lon="-6.5190460">
        <ele>1440.8</ele>
        <time>2014-10-01T07:13:45Z</time>
      </trkpt>
      <trkpt lat="42.4416050" lon="-6.5190830">
        <ele>1441.1</ele>
        <time>2014-10-01T07:13:46Z</time>
      </trkpt>
      <trkpt lat="42.4415970" lon="-6.5191190">
        <ele>1441.3</ele>
        <time>2014-10-01T07:13:47Z</time>
      </trkpt>
      <trkpt lat="42.4415890" lon="-6.5191590">
        <ele>1441.6</ele>
        <time>2014-10-01T07:13:48Z</time>
      </trkpt>
      <trkpt lat="42.4415780" lon="-6.5191980">
        <ele>1441.9</ele>
        <time>2014-10-01T07:13:49Z</time>
      </trkpt>
      <trkpt lat="42.4415690" lon="-6.5192410">
        <ele>1442.2</ele>
        <time>2014-10-01T07:13:50Z</time>
      </trkpt>
      <trkpt lat="42.4415620" lon="-6.5192820">
        <ele>1442.5</ele>
        <time>2014-10-01T07:13:51Z</time>
      </trkpt>
      <trkpt lat="42.4415500" lon="-6.5193250">
        <ele>1442.8</ele>
        <time>2014-10-01T07:13:52Z</time>
      </trkpt>
      <trkpt lat="42.4415370" lon="-6.5193670">
        <ele>1443.1</ele>
        <time>2014-10-01T07:13:53Z</time>
      </trkpt>
      <trkpt lat="42.4415240" lon="-6.5194120">
        <ele>1443.4</ele>
        <time>2014-10-01T07:13:54Z</time>
      </trkpt>
      <trkpt lat="42.4415130" lon="-6.5194500">
        <ele>1443.7</ele>
        <time>2014-10-01T07:13:55Z</time>
      </trkpt>
      <trkpt lat="42.4415020" lon="-6.5194910">
        <ele>1444.0</ele>
        <time>2014-10-01T07:13:56Z</time>
      </trkpt>
      <trkpt lat="42.4414910" lon="-6.5195300">
        <ele>1444.3</ele>
        <time>2014-10-01T07:13:57Z</time>
      </trkpt>
      <trkpt lat="42.4414800" lon="-6.5195750">
        <ele>1444.6</ele>
        <time>2014-10-01T07:13:58Z</time>
      </trkpt>
      <trkpt lat="42.4414710" lon="-6.5196140">
        <ele>1444.9</ele>
        <time>2014-10-01T07:13:59Z</time>
      </trkpt>
      <trkpt lat="42.4414610" lon="-6.5196500">
        <ele>1445.2</ele>
        <time>2014-10-01T07:14:00Z</time>
      </trkpt>
      <trkpt lat="42.4414490" lon="-6.5196930">
        <ele>1445.5</ele>
        <time>2014-10-01T07:14:01Z</time>
      </trkpt>
      <trkpt lat="42.4414410" lon="-6.5197330">
        <ele>1445.8</ele>
        <time>2014-10-01T07:14:02Z</time>
      </trkpt>
      <trkpt lat="42.4414340" lon="-6.5197740">
        <ele>1446.0</ele>
        <time>2014-10-01T07:14:03Z</time>
      </trkpt>
      <trkpt lat="42.4414240" lon="-6.5198160">
        <ele>1446.3</ele>
        <time>2014-10-01T07:14:04Z</time>
      </trkpt>
      <trkpt lat="42.4414140" lon="-6.5198550">
        <ele>1446.6</ele>
        <time>2014-10-01T07:14:05Z</time>
      </trkpt>
      <trkpt lat="42.4414030" lon="-6.5198980">
        <ele>1446.9</ele>
        <time>2014-10-01T07:14:06Z</time>
      </trkpt>
      <trkpt lat="42.4413900" lon="-6.5199420">
        <ele>1447.2</ele>
        <time>2014-10-01T07:14:07Z</time>
      </trkpt>
      <trkpt lat="42.4413820" lon="-6.5199840">
        <ele>1447.5</ele>
        <time>2014-10-01T07:14:08Z</time>
      </trkpt>
      <trkpt lat="42.4413690" lon="-6.5200270">
        <ele>1447.8</ele>
        <time>2014-10-01T07:14:09Z</time>
      </trkpt>
      <trkpt lat="42.4413580" lon="-6.5200720">
        <ele>1448.1</ele>
        <time>2014-10-01T07:14:10Z</time>
      </trkpt>
      <trkpt lat="42.4413440" lon="-6.5201140">
        <ele>1448.4</ele>
        <time>2014-10-01T07:14:11Z</time>
      </trkpt>
      <trkpt lat="42.4413330" lon="-6.5201530">
        <ele>1448.7</ele>
        <time>2014-10-01T07:14:12Z</time>
      </trkpt>
      <trkpt lat="42.4413220" lon="-6.5201950">
        <ele>1449.0</ele>
        <time>2014-10-01T07:14:13Z</time>
      </trkpt>
      <trkpt lat="42.4413120" lon="-6.5202370">
        <ele>1449.3</ele>
        <time>2014-10-01T07:14:14Z</time>
      </trkpt>
      <trkpt lat="42.4412990" lon="-6.5202750">
        <ele>1449.6</ele>
        <time>2014-10-01T07:14:15Z</time>
      </trkpt>
      <trkpt lat="42.4412800" lon="-6.5203430">
        <ele>1450.1</ele>
        <time>2014-10-01T07:14:17Z</time>
      </trkpt>
      <trkpt lat="42.4412690" lon="-6.5203770">
        <ele>1450.4</ele>
        <time>2014-10-01T07:14:18Z</time>
      </trkpt>
      <trkpt lat="42.4412590" lon="-6.5204120">
        <ele>1450.7</ele>
        <time>2014-10-01T07:14:19Z</time>
      </trkpt>
      <trkpt lat="42.4412380" lon="-6.5204790">
        <ele>1451.3</ele>
        <time>2014-10-01T07:14:21Z</time>
      </trkpt>
      <trkpt lat="42.4412270" lon="-6.5205160">
        <ele>1451.6</ele>
        <time>2014-10-01T07:14:22Z</time>
      </trkpt>
      <trkpt lat="42.4412150" lon="-6.5205520">
        <ele>1451.9</ele>
        <time>2014-10-01T07:14:23Z</time>
      </trkpt>
      <trkpt lat="42.4412010" lon="-6.5205890">
        <ele>1452.3</ele>
        <time>2014-10-01T07:14:24Z</time>
      </trkpt>
      <trkpt lat="42.4411820" lon="-6.5206540">
        <ele>1452.9</ele>
        <time>2014-10-01T07:14:26Z</time>
      </trkpt>
      <trkpt lat="42.4411690" lon="-6.5206880">
        <ele>1453.2</ele>
        <time>2014-10-01T07:14:27Z</time>
      </trkpt>
      <trkpt lat="42.4411560" lon="-6.5207210">
        <ele>1453.5</ele>
        <time>2014-10-01T07:14:28Z</time>
      </trkpt>
      <trkpt lat="42.4411440" lon="-6.5207560">
        <ele>1453.9</ele>
        <time>2014-10-01T07:14:29Z</time>
      </trkpt>
      <trkpt lat="42.4411230" lon="-6.5208140">
        <ele>1454.5</ele>
        <time>2014-10-01T07:14:31Z</time>
      </trkpt>
      <trkpt lat="42.4411000" lon="-6.5208720">
        <ele>1455.0</ele>
        <time>2014-10-01T07:14:33Z</time>
      </trkpt>
      <trkpt lat="42.4410890" lon="-6.5209080">
        <ele>1455.4</ele>
        <time>2014-10-01T07:14:34Z</time>
      </trkpt>
      <trkpt lat="42.4410730" lon="-6.5209430">
        <ele>1455.7</ele>
        <time>2014-10-01T07:14:35Z</time>
      </trkpt>
      <trkpt lat="42.4410470" lon="-6.5210010">
        <ele>1456.3</ele>
        <time>2014-10-01T07:14:37Z</time>
      </trkpt>
      <trkpt lat="42.4410250" lon="-6.5210560">
        <ele>1456.8</ele>
        <time>2014-10-01T07:14:39Z</time>
      </trkpt>
      <trkpt lat="42.4410010" lon="-6.5211070">
        <ele>1457.3</ele>
        <time>2014-10-01T07:14:41Z</time>
      </trkpt>
      <trkpt lat="42.4409760" lon="-6.5211590">
        <ele>1457.8</ele>
        <time>2014-10-01T07:14:43Z</time>
      </trkpt>
      <trkpt lat="42.4409540" lon="-6.5212110">
        <ele>1458.3</ele>
        <time>2014-10-01T07:14:45Z</time>
      </trkpt>
      <trkpt lat="42.4409230" lon="-6.5212560">
        <ele>1458.7</ele>
        <time>2014-10-01T07:14:47Z</time>
      </trkpt>
      <trkpt lat="42.4408860" lon="-6.5212990">
        <ele>1459.2</ele>
        <time>2014-10-01T07:14:49Z</time>
      </trkpt>
      <trkpt lat="42.4408510" lon="-6.5213360">
        <ele>1459.7</ele>
        <time>2014-10-01T07:14:51Z</time>
      </trkpt>
      <trkpt lat="42.4408150" lon="-6.5213710">
        <ele>1460.1</ele>
        <time>2014-10-01T07:14:53Z</time>
      </trkpt>
      <trkpt lat="42.4407750" lon="-6.5214110">
        <ele>1460.6</ele>
        <time>2014-10-01T07:14:55Z</time>
      </trkpt>
      <trkpt lat="42.4407240" lon="-6.5214480">
        <ele>1461.2</ele>
        <time>2014-10-01T07:14:57Z</time>
      </trkpt>
      <trkpt lat="42.4406930" lon="-6.5214680">
        <ele>1461.5</ele>
        <time>2014-10-01T07:14:58Z</time>
      </trkpt>
      <trkpt lat="42.4406650" lon="-6.5214890">
        <ele>1461.8</ele>
        <time>2014-10-01T07:14:59Z</time>
      </trkpt>
      <trkpt lat="42.4406370" lon="-6.5215090">
        <ele>1462.1</ele>
        <time>2014-10-01T07:15:00Z</time>
      </trkpt>
      <trkpt lat="42.4406070" lon="-6.5215240">
        <ele>1462.4</ele>
        <time>2014-10-01T07:15:01Z</time>
      </trkpt>
      <trkpt lat="42.4405750" lon="-6.5215430">
        <ele>1462.7</ele>
        <time>2014-10-01T07:15:02Z</time>
      </trkpt>
      <trkpt lat="42.4405450" lon="-6.5215580">
        <ele>1463.0</ele>
        <time>2014-10-01T07:15:03Z</time>
      </trkpt>
      <trkpt lat="42.4405170" lon="-6.5215730">
        <ele>1463.3</ele>
        <time>2014-10-01T07:15:04Z</time>
      </trkpt>
      <trkpt lat="42.4404900" lon="-6.5215860">
        <ele>1463.5</ele>
        <time>2014-10-01T07:15:05Z</time>
      </trkpt>
      <trkpt lat="42.4404590" lon="-6.5215950">
        <ele>1463.8</ele>
        <time>2014-10-01T07:15:06Z</time>
      </trkpt>
      <trkpt lat="42.4404300" lon="-6.5216020">
        <ele>1464.1</ele>
        <time>2014-10-01T07:15:07Z</time>
      </trkpt>
      <trkpt lat="42.4404000" lon="-6.5216060">
        <ele>1464.4</ele>
        <time>2014-10-01T07:15:08Z</time>
      </trkpt>
      <trkpt lat="42.4403700" lon="-6.5216110">
        <ele>1464.6</ele>
        <time>2014-10-01T07:15:09Z</time>
      </trkpt>
      <trkpt lat="42.4403420" lon="-6.5216110">
        <ele>1464.9</ele>
        <time>2014-10-01T07:15:10Z</time>
      </trkpt>
      <trkpt lat="42.4403150" lon="-6.5216120">
        <ele>1465.1</ele>
        <time>2014-10-01T07:15:11Z</time>
      </trkpt>
      <trkpt lat="42.4402870" lon="-6.5216120">
        <ele>1465.3</ele>
        <time>2014-10-01T07:15:12Z</time>
      </trkpt>
      <trkpt lat="42.4402560" lon="-6.5216090">
        <ele>1465.6</ele>
        <time>2014-10-01T07:15:13Z</time>
      </trkpt>
      <trkpt lat="42.4402270" lon="-6.5216110">
        <ele>1465.8</ele>
        <time>2014-10-01T07:15:14Z</time>
      </trkpt>
      <trkpt lat="42.4401980" lon="-6.5216100">
        <ele>1466.1</ele>
        <time>2014-10-01T07:15:15Z</time>
      </trkpt>
      <trkpt lat="42.4401690" lon="-6.5216090">
        <ele>1466.3</ele>
        <time>2014-10-01T07:15:16Z</time>
      </trkpt>
      <trkpt lat="42.4401410" lon="-6.5216100">
        <ele>1466.6</ele>
        <time>2014-10-01T07:15:17Z</time>
      </trkpt>
      <trkpt lat="42.4401120" lon="-6.5216090">
        <ele>1466.8</ele>
        <time>2014-10-01T07:15:18Z</time>
      </trkpt>
      <trkpt lat="42.4400840" lon="-6.5216050">
        <ele>1467.0</ele>
        <time>2014-10-01T07:15:19Z</time>
      </trkpt>
      <trkpt lat="42.4400540" lon="-6.5216010">
        <ele>1467.3</ele>
        <time>2014-10-01T07:15:20Z</time>
      </trkpt>
      <trkpt lat="42.4400250" lon="-6.5215960">
        <ele>1467.5</ele>
        <time>2014-10-01T07:15:21Z</time>
      </trkpt>
      <trkpt lat="42.4399950" lon="-6.5215920">
        <ele>1467.8</ele>
        <time>2014-10-01T07:15:22Z</time>
      </trkpt>
      <trkpt lat="42.4399660" lon="-6.5215920">
        <ele>1468.1</ele>
        <time>2014-10-01T07:15:23Z</time>
      </trkpt>
      <trkpt lat="42.4399350" lon="-6.5215900">
        <ele>1468.4</ele>
        <time>2014-10-01T07:15:24Z</time>
      </trkpt>
      <trkpt lat="42.4399040" lon="-6.5215890">
        <ele>1468.7</ele>
        <time>2014-10-01T07:15:25Z</time>
      </trkpt>
      <trkpt lat="42.4398720" lon="-6.5215850">
        <ele>1469.0</ele>
        <time>2014-10-01T07:15:26Z</time>
      </trkpt>
      <trkpt lat="42.4398430" lon="-6.5215810">
        <ele>1469.2</ele>
        <time>2014-10-01T07:15:27Z</time>
      </trkpt>
      <trkpt lat="42.4398140" lon="-6.5215760">
        <ele>1469.5</ele>
        <time>2014-10-01T07:15:28Z</time>
      </trkpt>
      <trkpt lat="42.4397850" lon="-6.5215710">
        <ele>1469.8</ele>
        <time>2014-10-01T07:15:29Z</time>
      </trkpt>
      <trkpt lat="42.4397530" lon="-6.5215660">
        <ele>1470.1</ele>
        <time>2014-10-01T07:15:30Z</time>
      </trkpt>
      <trkpt lat="42.4397230" lon="-6.5215620">
        <ele>1470.4</ele>
        <time>2014-10-01T07:15:31Z</time>
      </trkpt>
      <trkpt lat="42.4396920" lon="-6.5215560">
        <ele>1470.7</ele>
        <time>2014-10-01T07:15:32Z</time>
      </trkpt>
      <trkpt lat="42.4396640" lon="-6.5215520">
        <ele>1470.9</ele>
        <time>2014-10-01T07:15:33Z</time>
      </trkpt>
      <trkpt lat="42.4396360" lon="-6.5215490">
        <ele>1471.2</ele>
        <time>2014-10-01T07:15:34Z</time>
      </trkpt>
      <trkpt lat="42.4395900" lon="-6.5215390">
        <ele>1471.6</ele>
        <time>2014-10-01T07:15:36Z</time>
      </trkpt>
      <trkpt lat="42.4395620" lon="-6.5215330">
        <ele>1471.8</ele>
        <time>2014-10-01T07:15:37Z</time>
      </trkpt>
      <trkpt lat="42.4395300" lon="-6.5215300">
        <ele>1472.1</ele>
        <time>2014-10-01T07:15:38Z</time>
      </trkpt>
      <trkpt lat="42.4394780" lon="-6.5215150">
        <ele>1472.5</ele>
        <time>2014-10-01T07:15:40Z</time>
      </trkpt>
      <trkpt lat="42.4394280" lon="-6.5215040">
        <ele>1473.0</ele>
        <time>2014-10-01T07:15:42Z</time>
      </trkpt>
      <trkpt lat="42.4393970" lon="-6.5215010">
        <ele>1473.3</ele>
        <time>2014-10-01T07:15:43Z</time>
      </trkpt>
      <trkpt lat="42.4393680" lon="-6.5214980">
        <ele>1473.6</ele>
        <time>2014-10-01T07:15:44Z</time>
      </trkpt>
      <trkpt lat="42.4393380" lon="-6.5214950">
        <ele>1473.9</ele>
        <time>2014-10-01T07:15:45Z</time>
      </trkpt>
      <trkpt lat="42.4393020" lon="-6.5214940">
        <ele>1474.3</ele>
        <time>2014-10-01T07:15:46Z</time>
      </trkpt>
      <trkpt lat="42.4392670" lon="-6.5214950">
        <ele>1474.6</ele>
        <time>2014-10-01T07:15:47Z</time>
      </trkpt>
      <trkpt lat="42.4392360" lon="-6.5214960">
        <ele>1475.0</ele>
        <time>2014-10-01T07:15:48Z</time>
      </trkpt>
      <trkpt lat="42.4392030" lon="-6.5214990">
        <ele>1475.3</ele>
        <time>2014-10-01T07:15:49Z</time>
      </trkpt>
      <trkpt lat="42.4391720" lon="-6.5215030">
        <ele>1475.7</ele>
        <time>2014-10-01T07:15:50Z</time>
      </trkpt>
      <trkpt lat="42.4391430" lon="-6.5215100">
        <ele>1476.0</ele>
        <time>2014-10-01T07:15:51Z</time>
      </trkpt>
      <trkpt lat="42.4391110" lon="-6.5215140">
        <ele>1476.3</ele>
        <time>2014-10-01T07:15:52Z</time>
      </trkpt>
      <trkpt lat="42.4390820" lon="-6.5215170">
        <ele>1476.6</ele>
        <time>2014-10-01T07:15:53Z</time>
      </trkpt>
      <trkpt lat="42.4390520" lon="-6.5215190">
        <ele>1477.0</ele>
        <time>2014-10-01T07:15:54Z</time>
      </trkpt>
      <trkpt lat="42.4390140" lon="-6.5215190">
        <ele>1477.4</ele>
        <time>2014-10-01T07:15:55Z</time>
      </trkpt>
      <trkpt lat="42.4389780" lon="-6.5215150">
        <ele>1477.7</ele>
        <time>2014-10-01T07:15:56Z</time>
      </trkpt>
      <trkpt lat="42.4389440" lon="-6.5215120">
        <ele>1478.0</ele>
        <time>2014-10-01T07:15:57Z</time>
      </trkpt>
      <trkpt lat="42.4389120" lon="-6.5215010">
        <ele>1478.4</ele>
        <time>2014-10-01T07:15:58Z</time>
      </trkpt>
      <trkpt lat="42.4388820" lon="-6.5214860">
        <ele>1478.6</ele>
        <time>2014-10-01T07:15:59Z</time>
      </trkpt>
      <trkpt lat="42.4388580" lon="-6.5214680">
        <ele>1478.9</ele>
        <time>2014-10-01T07:16:00Z</time>
      </trkpt>
      <trkpt lat="42.4388180" lon="-6.5214310">
        <ele>1479.2</ele>
        <time>2014-10-01T07:16:02Z</time>
      </trkpt>
      <trkpt lat="42.4387780" lon="-6.5213900">
        <ele>1479.6</ele>
        <time>2014-10-01T07:16:04Z</time>
      </trkpt>
      <trkpt lat="42.4387410" lon="-6.5213400">
        <ele>1479.9</ele>
        <time>2014-10-01T07:16:06Z</time>
      </trkpt>
      <trkpt lat="42.4387220" lon="-6.5213120">
        <ele>1480.0</ele>
        <time>2014-10-01T07:16:07Z</time>
      </trkpt>
      <trkpt lat="42.4387020" lon="-6.5212840">
        <ele>1480.1</ele>
        <time>2014-10-01T07:16:08Z</time>
      </trkpt>
      <trkpt lat="42.4386810" lon="-6.5212500">
        <ele>1480.3</ele>
        <time>2014-10-01T07:16:09Z</time>
      </trkpt>
      <trkpt lat="42.4386590" lon="-6.5212150">
        <ele>1480.5</ele>
        <time>2014-10-01T07:16:10Z</time>
      </trkpt>
      <trkpt lat="42.4386390" lon="-6.5211780">
        <ele>1480.6</ele>
        <time>2014-10-01T07:16:11Z</time>
      </trkpt>
      <trkpt lat="42.4386160" lon="-6.5211390">
        <ele>1480.8</ele>
        <time>2014-10-01T07:16:12Z</time>
      </trkpt>
      <trkpt lat="42.4385900" lon="-6.5210930">
        <ele>1481.1</ele>
        <time>2014-10-01T07:16:13Z</time>
      </trkpt>
      <trkpt lat="42.4385670" lon="-6.5210540">
        <ele>1481.3</ele>
        <time>2014-10-01T07:16:14Z</time>
      </trkpt>
      <trkpt lat="42.4385490" lon="-6.5210150">
        <ele>1481.4</ele>
        <time>2014-10-01T07:16:15Z</time>
      </trkpt>
      <trkpt lat="42.4385340" lon="-6.5209780">
        <ele>1481.6</ele>
        <time>2014-10-01T07:16:16Z</time>
      </trkpt>
      <trkpt lat="42.4385180" lon="-6.5209400">
        <ele>1481.8</ele>
        <time>2014-10-01T07:16:17Z</time>
      </trkpt>
      <trkpt lat="42.4384990" lon="-6.5209030">
        <ele>1482.0</ele>
        <time>2014-10-01T07:16:18Z</time>
      </trkpt>
      <trkpt lat="42.4384830" lon="-6.5208670">
        <ele>1482.1</ele>
        <time>2014-10-01T07:16:19Z</time>
      </trkpt>
      <trkpt lat="42.4384650" lon="-6.5208270">
        <ele>1482.3</ele>
        <time>2014-10-01T07:16:20Z</time>
      </trkpt>
      <trkpt lat="42.4384430" lon="-6.5207860">
        <ele>1482.5</ele>
        <time>2014-10-01T07:16:21Z</time>
      </trkpt>
      <trkpt lat="42.4384230" lon="-6.5207480">
        <ele>1482.7</ele>
        <time>2014-10-01T07:16:22Z</time>
      </trkpt>
      <trkpt lat="42.4384060" lon="-6.5207140">
        <ele>1482.9</ele>
        <time>2014-10-01T07:16:23Z</time>
      </trkpt>
      <trkpt lat="42.4383820" lon="-6.5206740">
        <ele>1483.1</ele>
        <time>2014-10-01T07:16:24Z</time>
      </trkpt>
      <trkpt lat="42.4383560" lon="-6.5206370">
        <ele>1483.3</ele>
        <time>2014-10-01T07:16:25Z</time>
      </trkpt>
      <trkpt lat="42.4383340" lon="-6.5206030">
        <ele>1483.5</ele>
        <time>2014-10-01T07:16:26Z</time>
      </trkpt>
      <trkpt lat="42.4383090" lon="-6.5205640">
        <ele>1483.8</ele>
        <time>2014-10-01T07:16:27Z</time>
      </trkpt>
      <trkpt lat="42.4382880" lon="-6.5205300">
        <ele>1484.0</ele>
        <time>2014-10-01T07:16:28Z</time>
      </trkpt>
      <trkpt lat="42.4382680" lon="-6.5204980">
        <ele>1484.3</ele>
        <time>2014-10-01T07:16:29Z</time>
      </trkpt>
      <trkpt lat="42.4382450" lon="-6.5204620">
        <ele>1484.5</ele>
        <time>2014-10-01T07:16:30Z</time>
      </trkpt>
      <trkpt lat="42.4382290" lon="-6.5204280">
        <ele>1484.8</ele>
        <time>2014-10-01T07:16:31Z</time>
      </trkpt>
      <trkpt lat="42.4382130" lon="-6.5203960">
        <ele>1485.0</ele>
        <time>2014-10-01T07:16:32Z</time>
      </trkpt>
      <trkpt lat="42.4381970" lon="-6.5203620">
        <ele>1485.2</ele>
        <time>2014-10-01T07:16:33Z</time>
      </trkpt>
      <trkpt lat="42.4381790" lon="-6.5203300">
        <ele>1485.5</ele>
        <time>2014-10-01T07:16:34Z</time>
      </trkpt>
      <trkpt lat="42.4381560" lon="-6.5202910">
        <ele>1485.7</ele>
        <time>2014-10-01T07:16:35Z</time>
      </trkpt>
      <trkpt lat="42.4381330" lon="-6.5202520">
        <ele>1486.0</ele>
        <time>2014-10-01T07:16:36Z</time>
      </trkpt>
      <trkpt lat="42.4381080" lon="-6.5202140">
        <ele>1486.3</ele>
        <time>2014-10-01T07:16:37Z</time>
      </trkpt>
      <trkpt lat="42.4380830" lon="-6.5201760">
        <ele>1486.6</ele>
        <time>2014-10-01T07:16:38Z</time>
      </trkpt>
      <trkpt lat="42.4380590" lon="-6.5201370">
        <ele>1486.9</ele>
        <time>2014-10-01T07:16:39Z</time>
      </trkpt>
      <trkpt lat="42.4380350" lon="-6.5200960">
        <ele>1487.2</ele>
        <time>2014-10-01T07:16:40Z</time>
      </trkpt>
      <trkpt lat="42.4380130" lon="-6.5200590">
        <ele>1487.5</ele>
        <time>2014-10-01T07:16:41Z</time>
      </trkpt>
      <trkpt lat="42.4379940" lon="-6.5200200">
        <ele>1487.7</ele>
        <time>2014-10-01T07:16:42Z</time>
      </trkpt>
      <trkpt lat="42.4379730" lon="-6.5199820">
        <ele>1488.0</ele>
        <time>2014-10-01T07:16:43Z</time>
      </trkpt>
      <trkpt lat="42.4379530" lon="-6.5199430">
        <ele>1488.3</ele>
        <time>2014-10-01T07:16:44Z</time>
      </trkpt>
      <trkpt lat="42.4379330" lon="-6.5199030">
        <ele>1488.6</ele>
        <time>2014-10-01T07:16:45Z</time>
      </trkpt>
      <trkpt lat="42.4379150" lon="-6.5198690">
        <ele>1488.8</ele>
        <time>2014-10-01T07:16:46Z</time>
      </trkpt>
      <trkpt lat="42.4378960" lon="-6.5198340">
        <ele>1489.1</ele>
        <time>2014-10-01T07:16:47Z</time>
      </trkpt>
      <trkpt lat="42.4378730" lon="-6.5197950">
        <ele>1489.4</ele>
        <time>2014-10-01T07:16:48Z</time>
      </trkpt>
      <trkpt lat="42.4378490" lon="-6.5197580">
        <ele>1489.7</ele>
        <time>2014-10-01T07:16:49Z</time>
      </trkpt>
      <trkpt lat="42.4378290" lon="-6.5197290">
        <ele>1489.9</ele>
        <time>2014-10-01T07:16:50Z</time>
      </trkpt>
      <trkpt lat="42.4378070" lon="-6.5196970">
        <ele>1490.2</ele>
        <time>2014-10-01T07:16:51Z</time>
      </trkpt>
      <trkpt lat="42.4377820" lon="-6.5196610">
        <ele>1490.5</ele>
        <time>2014-10-01T07:16:52Z</time>
      </trkpt>
      <trkpt lat="42.4377580" lon="-6.5196350">
        <ele>1490.7</ele>
        <time>2014-10-01T07:16:53Z</time>
      </trkpt>
      <trkpt lat="42.4377340" lon="-6.5196110">
        <ele>1490.9</ele>
        <time>2014-10-01T07:16:54Z</time>
      </trkpt>
      <trkpt lat="42.4377090" lon="-6.5195900">
        <ele>1491.1</ele>
        <time>2014-10-01T07:16:55Z</time>
      </trkpt>
      <trkpt lat="42.4376790" lon="-6.5195710">
        <ele>1491.4</ele>
        <time>2014-10-01T07:16:56Z</time>
      </trkpt>
      <trkpt lat="42.4376480" lon="-6.5195480">
        <ele>1491.7</ele>
        <time>2014-10-01T07:16:57Z</time>
      </trkpt>
      <trkpt lat="42.4376170" lon="-6.5195220">
        <ele>1492.0</ele>
        <time>2014-10-01T07:16:58Z</time>
      </trkpt>
      <trkpt lat="42.4375860" lon="-6.5194990">
        <ele>1492.2</ele>
        <time>2014-10-01T07:16:59Z</time>
      </trkpt>
      <trkpt lat="42.4375550" lon="-6.5194760">
        <ele>1492.5</ele>
        <time>2014-10-01T07:17:00Z</time>
      </trkpt>
      <trkpt lat="42.4375230" lon="-6.5194560">
        <ele>1492.8</ele>
        <time>2014-10-01T07:17:01Z</time>
      </trkpt>
      <trkpt lat="42.4374930" lon="-6.5194370">
        <ele>1493.1</ele>
        <time>2014-10-01T07:17:02Z</time>
      </trkpt>
      <trkpt lat="42.4374600" lon="-6.5194180">
        <ele>1493.3</ele>
        <time>2014-10-01T07:17:03Z</time>
      </trkpt>
      <trkpt lat="42.4374270" lon="-6.5193990">
        <ele>1493.6</ele>
        <time>2014-10-01T07:17:04Z</time>
      </trkpt>
      <trkpt lat="42.4373950" lon="-6.5193780">
        <ele>1493.8</ele>
        <time>2014-10-01T07:17:05Z</time>
      </trkpt>
      <trkpt lat="42.4373640" lon="-6.5193580">
        <ele>1494.0</ele>
        <time>2014-10-01T07:17:06Z</time>
      </trkpt>
      <trkpt lat="42.4373310" lon="-6.5193340">
        <ele>1494.2</ele>
        <time>2014-10-01T07:17:07Z</time>
      </trkpt>
      <trkpt lat="42.4373000" lon="-6.5193130">
        <ele>1494.5</ele>
        <time>2014-10-01T07:17:08Z</time>
      </trkpt>
      <trkpt lat="42.4372700" lon="-6.5192880">
        <ele>1494.7</ele>
        <time>2014-10-01T07:17:09Z</time>
      </trkpt>
      <trkpt lat="42.4372440" lon="-6.5192640">
        <ele>1494.9</ele>
        <time>2014-10-01T07:17:10Z</time>
      </trkpt>
      <trkpt lat="42.4372110" lon="-6.5192380">
        <ele>1495.1</ele>
        <time>2014-10-01T07:17:11Z</time>
      </trkpt>
      <trkpt lat="42.4371820" lon="-6.5192150">
        <ele>1495.3</ele>
        <time>2014-10-01T07:17:12Z</time>
      </trkpt>
      <trkpt lat="42.4371560" lon="-6.5191940">
        <ele>1495.5</ele>
        <time>2014-10-01T07:17:13Z</time>
      </trkpt>
      <trkpt lat="42.4371140" lon="-6.5191460">
        <ele>1495.8</ele>
        <time>2014-10-01T07:17:15Z</time>
      </trkpt>
      <trkpt lat="42.4370920" lon="-6.5191240">
        <ele>1496.0</ele>
        <time>2014-10-01T07:17:16Z</time>
      </trkpt>
      <trkpt lat="42.4370690" lon="-6.5190990">
        <ele>1496.2</ele>
        <time>2014-10-01T07:17:17Z</time>
      </trkpt>
      <trkpt lat="42.4370450" lon="-6.5190710">
        <ele>1496.3</ele>
        <time>2014-10-01T07:17:18Z</time>
      </trkpt>
      <trkpt lat="42.4370220" lon="-6.5190420">
        <ele>1496.5</ele>
        <time>2014-10-01T07:17:19Z</time>
      </trkpt>
      <trkpt lat="42.4369810" lon="-6.5189850">
        <ele>1496.7</ele>
        <time>2014-10-01T07:17:21Z</time>
      </trkpt>
      <trkpt lat="42.4369590" lon="-6.5189530">
        <ele>1496.9</ele>
        <time>2014-10-01T07:17:22Z</time>
      </trkpt>
      <trkpt lat="42.4369360" lon="-6.5189170">
        <ele>1497.0</ele>
        <time>2014-10-01T07:17:23Z</time>
      </trkpt>
      <trkpt lat="42.4369070" lon="-6.5188850">
        <ele>1497.2</ele>
        <time>2014-10-01T07:17:24Z</time>
      </trkpt>
      <trkpt lat="42.4368740" lon="-6.5188550">
        <ele>1497.3</ele>
        <time>2014-10-01T07:17:25Z</time>
      </trkpt>
      <trkpt lat="42.4368370" lon="-6.5188260">
        <ele>1497.4</ele>
        <time>2014-10-01T07:17:26Z</time>
      </trkpt>
      <trkpt lat="42.4368000" lon="-6.5187990">
        <ele>1497.5</ele>
        <time>2014-10-01T07:17:27Z</time>
      </trkpt>
      <trkpt lat="42.4367610" lon="-6.5187720">
        <ele>1497.6</ele>
        <time>2014-10-01T07:17:28Z</time>
      </trkpt>
      <trkpt lat="42.4367210" lon="-6.5187510">
        <ele>1497.7</ele>
        <time>2014-10-01T07:17:29Z</time>
      </trkpt>
      <trkpt lat="42.4366780" lon="-6.5187320">
        <ele>1497.7</ele>
        <time>2014-10-01T07:17:30Z</time>
      </trkpt>
      <trkpt lat="42.4366360" lon="-6.5187180">
        <ele>1497.6</ele>
        <time>2014-10-01T07:17:31Z</time>
      </trkpt>
      <trkpt lat="42.4365940" lon="-6.5187070">
        <ele>1497.5</ele>
        <time>2014-10-01T07:17:32Z</time>
      </trkpt>
      <trkpt lat="42.4365540" lon="-6.5186980">
        <ele>1497.2</ele>
        <time>2014-10-01T07:17:33Z</time>
      </trkpt>
      <trkpt lat="42.4365100" lon="-6.5186930">
        <ele>1496.9</ele>
        <time>2014-10-01T07:17:34Z</time>
      </trkpt>
      <trkpt lat="42.4364650" lon="-6.5186930">
        <ele>1496.7</ele>
        <time>2014-10-01T07:17:35Z</time>
      </trkpt>
      <trkpt lat="42.4364190" lon="-6.5186980">
        <ele>1496.8</ele>
        <time>2014-10-01T07:17:36Z</time>
      </trkpt>
      <trkpt lat="42.4363750" lon="-6.5187070">
        <ele>1496.9</ele>
        <time>2014-10-01T07:17:37Z</time>
      </trkpt>
      <trkpt lat="42.4363310" lon="-6.5187150">
        <ele>1497.0</ele>
        <time>2014-10-01T07:17:38Z</time>
      </trkpt>
      <trkpt lat="42.4362890" lon="-6.5187280">
        <ele>1497.0</ele>
        <time>2014-10-01T07:17:39Z</time>
      </trkpt>
      <trkpt lat="42.4362460" lon="-6.5187430">
        <ele>1497.1</ele>
        <time>2014-10-01T07:17:40Z</time>
      </trkpt>
      <trkpt lat="42.4362010" lon="-6.5187560">
        <ele>1497.1</ele>
        <time>2014-10-01T07:17:41Z</time>
      </trkpt>
      <trkpt lat="42.4361560" lon="-6.5187730">
        <ele>1497.2</ele>
        <time>2014-10-01T07:17:42Z</time>
      </trkpt>
      <trkpt lat="42.4361130" lon="-6.5187930">
        <ele>1497.3</ele>
        <time>2014-10-01T07:17:43Z</time>
      </trkpt>
      <trkpt lat="42.4360700" lon="-6.5188160">
        <ele>1497.4</ele>
        <time>2014-10-01T07:17:44Z</time>
      </trkpt>
      <trkpt lat="42.4360270" lon="-6.5188400">
        <ele>1497.5</ele>
        <time>2014-10-01T07:17:45Z</time>
      </trkpt>
      <trkpt lat="42.4359900" lon="-6.5188630">
        <ele>1497.6</ele>
        <time>2014-10-01T07:17:46Z</time>
      </trkpt>
      <trkpt lat="42.4359550" lon="-6.5188920">
        <ele>1497.6</ele>
        <time>2014-10-01T07:17:47Z</time>
      </trkpt>
      <trkpt lat="42.4359210" lon="-6.5189260">
        <ele>1497.7</ele>
        <time>2014-10-01T07:17:48Z</time>
      </trkpt>
      <trkpt lat="42.4358780" lon="-6.5189710">
        <ele>1497.8</ele>
        <time>2014-10-01T07:17:49Z</time>
      </trkpt>
      <trkpt lat="42.4358410" lon="-6.5190140">
        <ele>1497.9</ele>
        <time>2014-10-01T07:17:50Z</time>
      </trkpt>
      <trkpt lat="42.4358020" lon="-6.5190580">
        <ele>1498.0</ele>
        <time>2014-10-01T07:17:51Z</time>
      </trkpt>
      <trkpt lat="42.4357680" lon="-6.5191020">
        <ele>1498.1</ele>
        <time>2014-10-01T07:17:52Z</time>
      </trkpt>
      <trkpt lat="42.4357350" lon="-6.5191480">
        <ele>1498.2</ele>
        <time>2014-10-01T07:17:53Z</time>
      </trkpt>
      <trkpt lat="42.4356970" lon="-6.5192000">
        <ele>1498.4</ele>
        <time>2014-10-01T07:17:54Z</time>
      </trkpt>
      <trkpt lat="42.4356620" lon="-6.5192470">
        <ele>1498.5</ele>
        <time>2014-10-01T07:17:55Z</time>
      </trkpt>
      <trkpt lat="42.4356220" lon="-6.5192950">
        <ele>1498.6</ele>
        <time>2014-10-01T07:17:56Z</time>
      </trkpt>
      <trkpt lat="42.4355860" lon="-6.5193410">
        <ele>1498.7</ele>
        <time>2014-10-01T07:17:57Z</time>
      </trkpt>
      <trkpt lat="42.4355530" lon="-6.5193860">
        <ele>1498.9</ele>
        <time>2014-10-01T07:17:58Z</time>
      </trkpt>
      <trkpt lat="42.4355210" lon="-6.5194300">
        <ele>1499.0</ele>
        <time>2014-10-01T07:17:59Z</time>
      </trkpt>
      <trkpt lat="42.4354880" lon="-6.5194730">
        <ele>1499.1</ele>
        <time>2014-10-01T07:18:00Z</time>
      </trkpt>
      <trkpt lat="42.4354460" lon="-6.5195210">
        <ele>1499.3</ele>
        <time>2014-10-01T07:18:01Z</time>
      </trkpt>
      <trkpt lat="42.4354090" lon="-6.5195660">
        <ele>1499.4</ele>
        <time>2014-10-01T07:18:02Z</time>
      </trkpt>
      <trkpt lat="42.4353730" lon="-6.5196090">
        <ele>1499.6</ele>
        <time>2014-10-01T07:18:03Z</time>
      </trkpt>
      <trkpt lat="42.4353340" lon="-6.5196520">
        <ele>1499.7</ele>
        <time>2014-10-01T07:18:04Z</time>
      </trkpt>
      <trkpt lat="42.4352970" lon="-6.5196950">
        <ele>1499.9</ele>
        <time>2014-10-01T07:18:05Z</time>
      </trkpt>
      <trkpt lat="42.4352630" lon="-6.5197350">
        <ele>1500.0</ele>
        <time>2014-10-01T07:18:06Z</time>
      </trkpt>
      <trkpt lat="42.4352280" lon="-6.5197720">
        <ele>1500.1</ele>
        <time>2014-10-01T07:18:07Z</time>
      </trkpt>
      <trkpt lat="42.4351920" lon="-6.5198080">
        <ele>1500.3</ele>
        <time>2014-10-01T07:18:08Z</time>
      </trkpt>
      <trkpt lat="42.4351630" lon="-6.5198380">
        <ele>1500.4</ele>
        <time>2014-10-01T07:18:09Z</time>
      </trkpt>
      <trkpt lat="42.4351320" lon="-6.5198710">
        <ele>1500.4</ele>
        <time>2014-10-01T07:18:10Z</time>
      </trkpt>
      <trkpt lat="42.4351010" lon="-6.5199050">
        <ele>1500.5</ele>
        <time>2014-10-01T07:18:11Z</time>
      </trkpt>
      <trkpt lat="42.4350670" lon="-6.5199410">
        <ele>1500.6</ele>
        <time>2014-10-01T07:18:12Z</time>
      </trkpt>
      <trkpt lat="42.4350340" lon="-6.5199750">
        <ele>1500.7</ele>
        <time>2014-10-01T07:18:13Z</time>
      </trkpt>
      <trkpt lat="42.4349980" lon="-6.5200140">
        <ele>1500.8</ele>
        <time>2014-10-01T07:18:14Z</time>
      </trkpt>
      <trkpt lat="42.4349640" lon="-6.5200470">
        <ele>1500.9</ele>
        <time>2014-10-01T07:18:15Z</time>
      </trkpt>
      <trkpt lat="42.4349230" lon="-6.5200810">
        <ele>1501.1</ele>
        <time>2014-10-01T07:18:16Z</time>
      </trkpt>
      <trkpt lat="42.4348840" lon="-6.5201100">
        <ele>1501.2</ele>
        <time>2014-10-01T07:18:17Z</time>
      </trkpt>
      <trkpt lat="42.4348450" lon="-6.5201390">
        <ele>1501.4</ele>
        <time>2014-10-01T07:18:18Z</time>
      </trkpt>
      <trkpt lat="42.4347960" lon="-6.5201700">
        <ele>1501.5</ele>
        <time>2014-10-01T07:18:19Z</time>
      </trkpt>
      <trkpt lat="42.4347440" lon="-6.5201940">
        <ele>1501.6</ele>
        <time>2014-10-01T07:18:20Z</time>
      </trkpt>
      <trkpt lat="42.4346850" lon="-6.5202090">
        <ele>1501.8</ele>
        <time>2014-10-01T07:18:21Z</time>
      </trkpt>
      <trkpt lat="42.4346340" lon="-6.5202100">
        <ele>1501.8</ele>
        <time>2014-10-01T07:18:22Z</time>
      </trkpt>
      <trkpt lat="42.4345840" lon="-6.5202040">
        <ele>1501.9</ele>
        <time>2014-10-01T07:18:23Z</time>
      </trkpt>
      <trkpt lat="42.4345370" lon="-6.5201890">
        <ele>1502.0</ele>
        <time>2014-10-01T07:18:24Z</time>
      </trkpt>
      <trkpt lat="42.4344890" lon="-6.5201640">
        <ele>1502.0</ele>
        <time>2014-10-01T07:18:25Z</time>
      </trkpt>
      <trkpt lat="42.4344460" lon="-6.5201330">
        <ele>1502.0</ele>
        <time>2014-10-01T07:18:26Z</time>
      </trkpt>
      <trkpt lat="42.4344060" lon="-6.5200920">
        <ele>1502.1</ele>
        <time>2014-10-01T07:18:27Z</time>
      </trkpt>
      <trkpt lat="42.4343740" lon="-6.5200550">
        <ele>1502.1</ele>
        <time>2014-10-01T07:18:28Z</time>
      </trkpt>
      <trkpt lat="42.4343310" lon="-6.5200100">
        <ele>1502.1</ele>
        <time>2014-10-01T07:18:29Z</time>
      </trkpt>
      <trkpt lat="42.4342810" lon="-6.5199680">
        <ele>1502.1</ele>
        <time>2014-10-01T07:18:30Z</time>
      </trkpt>
      <trkpt lat="42.4342300" lon="-6.5199260">
        <ele>1502.1</ele>
        <time>2014-10-01T07:18:31Z</time>
      </trkpt>
      <trkpt lat="42.4341810" lon="-6.5198880">
        <ele>1502.1</ele>
        <time>2014-10-01T07:18:32Z</time>
      </trkpt>
      <trkpt lat="42.4341230" lon="-6.5198470">
        <ele>1502.0</ele>
        <time>2014-10-01T07:18:33Z</time>
      </trkpt>
      <trkpt lat="42.4340650" lon="-6.5198100">
        <ele>1502.0</ele>
        <time>2014-10-01T07:18:34Z</time>
      </trkpt>
      <trkpt lat="42.4340180" lon="-6.5197840">
        <ele>1501.9</ele>
        <time>2014-10-01T07:18:35Z</time>
      </trkpt>
      <trkpt lat="42.4339570" lon="-6.5197570">
        <ele>1501.9</ele>
        <time>2014-10-01T07:18:36Z</time>
      </trkpt>
      <trkpt lat="42.4338980" lon="-6.5197300">
        <ele>1501.8</ele>
        <time>2014-10-01T07:18:37Z</time>
      </trkpt>
      <trkpt lat="42.4338390" lon="-6.5196960">
        <ele>1501.7</ele>
        <time>2014-10-01T07:18:38Z</time>
      </trkpt>
      <trkpt lat="42.4337830" lon="-6.5196480">
        <ele>1501.6</ele>
        <time>2014-10-01T07:18:39Z</time>
      </trkpt>
      <trkpt lat="42.4337350" lon="-6.5195860">
        <ele>1501.5</ele>
        <time>2014-10-01T07:18:40Z</time>
      </trkpt>
      <trkpt lat="42.4336890" lon="-6.5195220">
        <ele>1501.5</ele>
        <time>2014-10-01T07:18:41Z</time>
      </trkpt>
      <trkpt lat="42.4336500" lon="-6.5194600">
        <ele>1501.5</ele>
        <time>2014-10-01T07:18:42Z</time>
      </trkpt>
      <trkpt lat="42.4336160" lon="-6.5193980">
        <ele>1501.5</ele>
        <time>2014-10-01T07:18:43Z</time>
      </trkpt>
      <trkpt lat="42.4335810" lon="-6.5193350">
        <ele>1501.5</ele>
        <time>2014-10-01T07:18:44Z</time>
      </trkpt>
      <trkpt lat="42.4335410" lon="-6.5192710">
        <ele>1501.6</ele>
        <time>2014-10-01T07:18:45Z</time>
      </trkpt>
      <trkpt lat="42.4334950" lon="-6.5191970">
        <ele>1501.6</ele>
        <time>2014-10-01T07:18:46Z</time>
      </trkpt>
      <trkpt lat="42.4334520" lon="-6.5191340">
        <ele>1501.7</ele>
        <time>2014-10-01T07:18:47Z</time>
      </trkpt>
      <trkpt lat="42.4333970" lon="-6.5190710">
        <ele>1501.7</ele>
        <time>2014-10-01T07:18:48Z</time>
      </trkpt>
      <trkpt lat="42.4333300" lon="-6.5190240">
        <ele>1501.8</ele>
        <time>2014-10-01T07:18:49Z</time>
      </trkpt>
      <trkpt lat="42.4332650" lon="-6.5189830">
        <ele>1501.9</ele>
        <time>2014-10-01T07:18:50Z</time>
      </trkpt>
      <trkpt lat="42.4331980" lon="-6.5189740">
        <ele>1502.0</ele>
        <time>2014-10-01T07:18:51Z</time>
      </trkpt>
      <trkpt lat="42.4331330" lon="-6.5189730">
        <ele>1502.0</ele>
        <time>2014-10-01T07:18:52Z</time>
      </trkpt>
      <trkpt lat="42.4330740" lon="-6.5190050">
        <ele>1502.1</ele>
        <time>2014-10-01T07:18:53Z</time>
      </trkpt>
      <trkpt lat="42.4330150" lon="-6.5190450">
        <ele>1502.1</ele>
        <time>2014-10-01T07:18:54Z</time>
      </trkpt>
      <trkpt lat="42.4329660" lon="-6.5190970">
        <ele>1502.2</ele>
        <time>2014-10-01T07:18:55Z</time>
      </trkpt>
      <trkpt lat="42.4329260" lon="-6.5191410">
        <ele>1502.1</ele>
        <time>2014-10-01T07:18:56Z</time>
      </trkpt>
      <trkpt lat="42.4328950" lon="-6.5191810">
        <ele>1502.1</ele>
        <time>2014-10-01T07:18:57Z</time>
      </trkpt>
      <trkpt lat="42.4328630" lon="-6.5192250">
        <ele>1502.1</ele>
        <time>2014-10-01T07:18:58Z</time>
      </trkpt>
      <trkpt lat="42.4328360" lon="-6.5192640">
        <ele>1502.1</ele>
        <time>2014-10-01T07:18:59Z</time>
      </trkpt>
      <trkpt lat="42.4327950" lon="-6.5193020">
        <ele>1502.2</ele>
        <time>2014-10-01T07:19:00Z</time>
      </trkpt>
      <trkpt lat="42.4327590" lon="-6.5193360">
        <ele>1502.2</ele>
        <time>2014-10-01T07:19:01Z</time>
      </trkpt>
      <trkpt lat="42.4327280" lon="-6.5193720">
        <ele>1502.3</ele>
        <time>2014-10-01T07:19:02Z</time>
      </trkpt>
      <trkpt lat="42.4327000" lon="-6.5194060">
        <ele>1502.3</ele>
        <time>2014-10-01T07:19:03Z</time>
      </trkpt>
      <trkpt lat="42.4326620" lon="-6.5194360">
        <ele>1502.4</ele>
        <time>2014-10-01T07:19:04Z</time>
      </trkpt>
      <trkpt lat="42.4326270" lon="-6.5194670">
        <ele>1502.5</ele>
        <time>2014-10-01T07:19:05Z</time>
      </trkpt>
      <trkpt lat="42.4325920" lon="-6.5194980">
        <ele>1502.6</ele>
        <time>2014-10-01T07:19:06Z</time>
      </trkpt>
      <trkpt lat="42.4325540" lon="-6.5195310">
        <ele>1502.7</ele>
        <time>2014-10-01T07:19:07Z</time>
      </trkpt>
      <trkpt lat="42.4325190" lon="-6.5195600">
        <ele>1502.8</ele>
        <time>2014-10-01T07:19:08Z</time>
      </trkpt>
      <trkpt lat="42.4324830" lon="-6.5195900">
        <ele>1503.0</ele>
        <time>2014-10-01T07:19:09Z</time>
      </trkpt>
      <trkpt lat="42.4324500" lon="-6.5196160">
        <ele>1503.1</ele>
        <time>2014-10-01T07:19:10Z</time>
      </trkpt>
      <trkpt lat="42.4324190" lon="-6.5196420">
        <ele>1503.1</ele>
        <time>2014-10-01T07:19:11Z</time>
      </trkpt>
      <trkpt lat="42.4323880" lon="-6.5196690">
        <ele>1503.2</ele>
        <time>2014-10-01T07:19:12Z</time>
      </trkpt>
      <trkpt lat="42.4323520" lon="-6.5196900">
        <ele>1503.3</ele>
        <time>2014-10-01T07:19:13Z</time>
      </trkpt>
      <trkpt lat="42.4323220" lon="-6.5197080">
        <ele>1503.3</ele>
        <time>2014-10-01T07:19:14Z</time>
      </trkpt>
      <trkpt lat="42.4322920" lon="-6.5197260">
        <ele>1503.4</ele>
        <time>2014-10-01T07:19:15Z</time>
      </trkpt>
      <trkpt lat="42.4322640" lon="-6.5197530">
        <ele>1503.4</ele>
        <time>2014-10-01T07:19:16Z</time>
      </trkpt>
      <trkpt lat="42.4322370" lon="-6.5197800">
        <ele>1503.5</ele>
        <time>2014-10-01T07:19:17Z</time>
      </trkpt>
      <trkpt lat="42.4321970" lon="-6.5198210">
        <ele>1503.6</ele>
        <time>2014-10-01T07:19:18Z</time>
      </trkpt>
      <trkpt lat="42.4321670" lon="-6.5198630">
        <ele>1503.6</ele>
        <time>2014-10-01T07:19:19Z</time>
      </trkpt>
      <trkpt lat="42.4321470" lon="-6.5199100">
        <ele>1503.7</ele>
        <time>2014-10-01T07:19:20Z</time>
      </trkpt>
      <trkpt lat="42.4321280" lon="-6.5199540">
        <ele>1503.7</ele>
        <time>2014-10-01T07:19:21Z</time>
      </trkpt>
      <trkpt lat="42.4321070" lon="-6.5200000">
        <ele>1503.8</ele>
        <time>2014-10-01T07:19:22Z</time>
      </trkpt>
      <trkpt lat="42.4320820" lon="-6.5200340">
        <ele>1503.8</ele>
        <time>2014-10-01T07:19:23Z</time>
      </trkpt>
      <trkpt lat="42.4320380" lon="-6.5200840">
        <ele>1503.8</ele>
        <time>2014-10-01T07:19:25Z</time>
      </trkpt>
      <trkpt lat="42.4320060" lon="-6.5201310">
        <ele>1503.8</ele>
        <time>2014-10-01T07:19:26Z</time>
      </trkpt>
      <trkpt lat="42.4319790" lon="-6.5201780">
        <ele>1503.8</ele>
        <time>2014-10-01T07:19:27Z</time>
      </trkpt>
      <trkpt lat="42.4319470" lon="-6.5202350">
        <ele>1503.8</ele>
        <time>2014-10-01T07:19:28Z</time>
      </trkpt>
      <trkpt lat="42.4319200" lon="-6.5202860">
        <ele>1503.7</ele>
        <time>2014-10-01T07:19:29Z</time>
      </trkpt>
      <trkpt lat="42.4318910" lon="-6.5203400">
        <ele>1503.7</ele>
        <time>2014-10-01T07:19:30Z</time>
      </trkpt>
      <trkpt lat="42.4318610" lon="-6.5203970">
        <ele>1503.7</ele>
        <time>2014-10-01T07:19:31Z</time>
      </trkpt>
      <trkpt lat="42.4318300" lon="-6.5204510">
        <ele>1503.7</ele>
        <time>2014-10-01T07:19:32Z</time>
      </trkpt>
      <trkpt lat="42.4317950" lon="-6.5205100">
        <ele>1503.7</ele>
        <time>2014-10-01T07:19:33Z</time>
      </trkpt>
      <trkpt lat="42.4317630" lon="-6.5205700">
        <ele>1503.7</ele>
        <time>2014-10-01T07:19:34Z</time>
      </trkpt>
      <trkpt lat="42.4317310" lon="-6.5206260">
        <ele>1503.7</ele>
        <time>2014-10-01T07:19:35Z</time>
      </trkpt>
      <trkpt lat="42.4316900" lon="-6.5206760">
        <ele>1503.6</ele>
        <time>2014-10-01T07:19:36Z</time>
      </trkpt>
      <trkpt lat="42.4316480" lon="-6.5207300">
        <ele>1503.6</ele>
        <time>2014-10-01T07:19:37Z</time>
      </trkpt>
      <trkpt lat="42.4316060" lon="-6.5207890">
        <ele>1503.5</ele>
        <time>2014-10-01T07:19:38Z</time>
      </trkpt>
      <trkpt lat="42.4315670" lon="-6.5208450">
        <ele>1503.4</ele>
        <time>2014-10-01T07:19:39Z</time>
      </trkpt>
      <trkpt lat="42.4315270" lon="-6.5209060">
        <ele>1503.3</ele>
        <time>2014-10-01T07:19:40Z</time>
      </trkpt>
      <trkpt lat="42.4314900" lon="-6.5209610">
        <ele>1503.2</ele>
        <time>2014-10-01T07:19:41Z</time>
      </trkpt>
      <trkpt lat="42.4314520" lon="-6.5210160">
        <ele>1503.1</ele>
        <time>2014-10-01T07:19:42Z</time>
      </trkpt>
      <trkpt lat="42.4314110" lon="-6.5210790">
        <ele>1503.0</ele>
        <time>2014-10-01T07:19:43Z</time>
      </trkpt>
      <trkpt lat="42.4313740" lon="-6.5211390">
        <ele>1502.9</ele>
        <time>2014-10-01T07:19:44Z</time>
      </trkpt>
      <trkpt lat="42.4313350" lon="-6.5212060">
        <ele>1502.8</ele>
        <time>2014-10-01T07:19:45Z</time>
      </trkpt>
      <trkpt lat="42.4312960" lon="-6.5212800">
        <ele>1502.6</ele>
        <time>2014-10-01T07:19:46Z</time>
      </trkpt>
      <trkpt lat="42.4312560" lon="-6.5213520">
        <ele>1502.5</ele>
        <time>2014-10-01T07:19:47Z</time>
      </trkpt>
      <trkpt lat="42.4312200" lon="-6.5214200">
        <ele>1502.3</ele>
        <time>2014-10-01T07:19:48Z</time>
      </trkpt>
      <trkpt lat="42.4311830" lon="-6.5214880">
        <ele>1502.2</ele>
        <time>2014-10-01T07:19:49Z</time>
      </trkpt>
      <trkpt lat="42.4311320" lon="-6.5215500">
        <ele>1502.0</ele>
        <time>2014-10-01T07:19:50Z</time>
      </trkpt>
      <trkpt lat="42.4310780" lon="-6.5216080">
        <ele>1501.8</ele>
        <time>2014-10-01T07:19:51Z</time>
      </trkpt>
      <trkpt lat="42.4310240" lon="-6.5216620">
        <ele>1501.7</ele>
        <time>2014-10-01T07:19:52Z</time>
      </trkpt>
      <trkpt lat="42.4309640" lon="-6.5217150">
        <ele>1501.5</ele>
        <time>2014-10-01T07:19:53Z</time>
      </trkpt>
      <trkpt lat="42.4309070" lon="-6.5217660">
        <ele>1501.4</ele>
        <time>2014-10-01T07:19:54Z</time>
      </trkpt>
      <trkpt lat="42.4308490" lon="-6.5218260">
        <ele>1501.2</ele>
        <time>2014-10-01T07:19:55Z</time>
      </trkpt>
      <trkpt lat="42.4307890" lon="-6.5218930">
        <ele>1501.0</ele>
        <time>2014-10-01T07:19:56Z</time>
      </trkpt>
      <trkpt lat="42.4307330" lon="-6.5219630">
        <ele>1500.9</ele>
        <time>2014-10-01T07:19:57Z</time>
      </trkpt>
      <trkpt lat="42.4306800" lon="-6.5220390">
        <ele>1500.7</ele>
        <time>2014-10-01T07:19:58Z</time>
      </trkpt>
      <trkpt lat="42.4306280" lon="-6.5221110">
        <ele>1500.7</ele>
        <time>2014-10-01T07:19:59Z</time>
      </trkpt>
      <trkpt lat="42.4305740" lon="-6.5221810">
        <ele>1500.6</ele>
        <time>2014-10-01T07:20:00Z</time>
      </trkpt>
      <trkpt lat="42.4305240" lon="-6.5222430">
        <ele>1500.6</ele>
        <time>2014-10-01T07:20:01Z</time>
      </trkpt>
      <trkpt lat="42.4304640" lon="-6.5222840">
        <ele>1500.7</ele>
        <time>2014-10-01T07:20:02Z</time>
      </trkpt>
      <trkpt lat="42.4304070" lon="-6.5223250">
        <ele>1500.7</ele>
        <time>2014-10-01T07:20:03Z</time>
      </trkpt>
      <trkpt lat="42.4303450" lon="-6.5223670">
        <ele>1500.8</ele>
        <time>2014-10-01T07:20:04Z</time>
      </trkpt>
      <trkpt lat="42.4302860" lon="-6.5224050">
        <ele>1501.0</ele>
        <time>2014-10-01T07:20:05Z</time>
      </trkpt>
      <trkpt lat="42.4302270" lon="-6.5224410">
        <ele>1501.1</ele>
        <time>2014-10-01T07:20:06Z</time>
      </trkpt>
      <trkpt lat="42.4301730" lon="-6.5224730">
        <ele>1501.2</ele>
        <time>2014-10-01T07:20:07Z</time>
      </trkpt>
      <trkpt lat="42.4301170" lon="-6.5225050">
        <ele>1501.3</ele>
        <time>2014-10-01T07:20:08Z</time>
      </trkpt>
      <trkpt lat="42.4300630" lon="-6.5225320">
        <ele>1501.4</ele>
        <time>2014-10-01T07:20:09Z</time>
      </trkpt>
      <trkpt lat="42.4300120" lon="-6.5225520">
        <ele>1501.5</ele>
        <time>2014-10-01T07:20:10Z</time>
      </trkpt>
      <trkpt lat="42.4299530" lon="-6.5225690">
        <ele>1501.5</ele>
        <time>2014-10-01T07:20:11Z</time>
      </trkpt>
      <trkpt lat="42.4298910" lon="-6.5225750">
        <ele>1501.6</ele>
        <time>2014-10-01T07:20:12Z</time>
      </trkpt>
      <trkpt lat="42.4298250" lon="-6.5225810">
        <ele>1501.7</ele>
        <time>2014-10-01T07:20:13Z</time>
      </trkpt>
      <trkpt lat="42.4297670" lon="-6.5225870">
        <ele>1501.7</ele>
        <time>2014-10-01T07:20:14Z</time>
      </trkpt>
      <trkpt lat="42.4297060" lon="-6.5225940">
        <ele>1501.7</ele>
        <time>2014-10-01T07:20:15Z</time>
      </trkpt>
      <trkpt lat="42.4296390" lon="-6.5225950">
        <ele>1501.6</ele>
        <time>2014-10-01T07:20:16Z</time>
      </trkpt>
      <trkpt lat="42.4295770" lon="-6.5225980">
        <ele>1501.4</ele>
        <time>2014-10-01T07:20:17Z</time>
      </trkpt>
      <trkpt lat="42.4295140" lon="-6.5226000">
        <ele>1501.4</ele>
        <time>2014-10-01T07:20:18Z</time>
      </trkpt>
      <trkpt lat="42.4294510" lon="-6.5225970">
        <ele>1501.4</ele>
        <time>2014-10-01T07:20:19Z</time>
      </trkpt>
      <trkpt lat="42.4293910" lon="-6.5225870">
        <ele>1501.5</ele>
        <time>2014-10-01T07:20:20Z</time>
      </trkpt>
      <trkpt lat="42.4293320" lon="-6.5225780">
        <ele>1501.5</ele>
        <time>2014-10-01T07:20:21Z</time>
      </trkpt>
      <trkpt lat="42.4292670" lon="-6.5225710">
        <ele>1501.6</ele>
        <time>2014-10-01T07:20:22Z</time>
      </trkpt>
      <trkpt lat="42.4291980" lon="-6.5225660">
        <ele>1501.6</ele>
        <time>2014-10-01T07:20:23Z</time>
      </trkpt>
      <trkpt lat="42.4291280" lon="-6.5225650">
        <ele>1501.6</ele>
        <time>2014-10-01T07:20:24Z</time>
      </trkpt>
      <trkpt lat="42.4290630" lon="-6.5225690">
        <ele>1501.6</ele>
        <time>2014-10-01T07:20:25Z</time>
      </trkpt>
      <trkpt lat="42.4290010" lon="-6.5225760">
        <ele>1501.5</ele>
        <time>2014-10-01T07:20:26Z</time>
      </trkpt>
      <trkpt lat="42.4289340" lon="-6.5225840">
        <ele>1501.5</ele>
        <time>2014-10-01T07:20:27Z</time>
      </trkpt>
      <trkpt lat="42.4288640" lon="-6.5225960">
        <ele>1501.4</ele>
        <time>2014-10-01T07:20:28Z</time>
      </trkpt>
      <trkpt lat="42.4287920" lon="-6.5226080">
        <ele>1501.3</ele>
        <time>2014-10-01T07:20:29Z</time>
      </trkpt>
      <trkpt lat="42.4287210" lon="-6.5226190">
        <ele>1501.2</ele>
        <time>2014-10-01T07:20:30Z</time>
      </trkpt>
      <trkpt lat="42.4286530" lon="-6.5226340">
        <ele>1501.2</ele>
        <time>2014-10-01T07:20:31Z</time>
      </trkpt>
      <trkpt lat="42.4285840" lon="-6.5226550">
        <ele>1501.1</ele>
        <time>2014-10-01T07:20:32Z</time>
      </trkpt>
      <trkpt lat="42.4285170" lon="-6.5226810">
        <ele>1501.1</ele>
        <time>2014-10-01T07:20:33Z</time>
      </trkpt>
      <trkpt lat="42.4284530" lon="-6.5227110">
        <ele>1501.0</ele>
        <time>2014-10-01T07:20:34Z</time>
      </trkpt>
      <trkpt lat="42.4283870" lon="-6.5227430">
        <ele>1500.9</ele>
        <time>2014-10-01T07:20:35Z</time>
      </trkpt>
      <trkpt lat="42.4283220" lon="-6.5227750">
        <ele>1500.8</ele>
        <time>2014-10-01T07:20:36Z</time>
      </trkpt>
      <trkpt lat="42.4282590" lon="-6.5228060">
        <ele>1500.7</ele>
        <time>2014-10-01T07:20:37Z</time>
      </trkpt>
      <trkpt lat="42.4281930" lon="-6.5228350">
        <ele>1500.6</ele>
        <time>2014-10-01T07:20:38Z</time>
      </trkpt>
      <trkpt lat="42.4281230" lon="-6.5228430">
        <ele>1500.5</ele>
        <time>2014-10-01T07:20:39Z</time>
      </trkpt>
      <trkpt lat="42.4280460" lon="-6.5228260">
        <ele>1500.4</ele>
        <time>2014-10-01T07:20:40Z</time>
      </trkpt>
      <trkpt lat="42.4279770" lon="-6.5228000">
        <ele>1500.2</ele>
        <time>2014-10-01T07:20:41Z</time>
      </trkpt>
      <trkpt lat="42.4279170" lon="-6.5227360">
        <ele>1500.0</ele>
        <time>2014-10-01T07:20:42Z</time>
      </trkpt>
      <trkpt lat="42.4278660" lon="-6.5226540">
        <ele>1499.8</ele>
        <time>2014-10-01T07:20:43Z</time>
      </trkpt>
      <trkpt lat="42.4278200" lon="-6.5225660">
        <ele>1499.5</ele>
        <time>2014-10-01T07:20:44Z</time>
      </trkpt>
      <trkpt lat="42.4277780" lon="-6.5224680">
        <ele>1499.3</ele>
        <time>2014-10-01T07:20:45Z</time>
      </trkpt>
      <trkpt lat="42.4277410" lon="-6.5223640">
        <ele>1499.0</ele>
        <time>2014-10-01T07:20:46Z</time>
      </trkpt>
      <trkpt lat="42.4277090" lon="-6.5222570">
        <ele>1498.7</ele>
        <time>2014-10-01T07:20:47Z</time>
      </trkpt>
      <trkpt lat="42.4276790" lon="-6.5221490">
        <ele>1498.5</ele>
        <time>2014-10-01T07:20:48Z</time>
      </trkpt>
      <trkpt lat="42.4276510" lon="-6.5220460">
        <ele>1498.3</ele>
        <time>2014-10-01T07:20:49Z</time>
      </trkpt>
      <trkpt lat="42.4276250" lon="-6.5219410">
        <ele>1498.0</ele>
        <time>2014-10-01T07:20:50Z</time>
      </trkpt>
      <trkpt lat="42.4276000" lon="-6.5218360">
        <ele>1497.8</ele>
        <time>2014-10-01T07:20:51Z</time>
      </trkpt>
      <trkpt lat="42.4275770" lon="-6.5217320">
        <ele>1497.5</ele>
        <time>2014-10-01T07:20:52Z</time>
      </trkpt>
      <trkpt lat="42.4275520" lon="-6.5216270">
        <ele>1497.3</ele>
        <time>2014-10-01T07:20:53Z</time>
      </trkpt>
      <trkpt lat="42.4275300" lon="-6.5215210">
        <ele>1497.1</ele>
        <time>2014-10-01T07:20:54Z</time>
      </trkpt>
      <trkpt lat="42.4275120" lon="-6.5214140">
        <ele>1496.9</ele>
        <time>2014-10-01T07:20:55Z</time>
      </trkpt>
      <trkpt lat="42.4274970" lon="-6.5213040">
        <ele>1496.7</ele>
        <time>2014-10-01T07:20:56Z</time>
      </trkpt>
      <trkpt lat="42.4274850" lon="-6.5211990">
        <ele>1496.5</ele>
        <time>2014-10-01T07:20:57Z</time>
      </trkpt>
      <trkpt lat="42.4274760" lon="-6.5210940">
        <ele>1496.2</ele>
        <time>2014-10-01T07:20:58Z</time>
      </trkpt>
      <trkpt lat="42.4274690" lon="-6.5209830">
        <ele>1495.9</ele>
        <time>2014-10-01T07:20:59Z</time>
      </trkpt>
      <trkpt lat="42.4274660" lon="-6.5208670">
        <ele>1495.6</ele>
        <time>2014-10-01T07:21:00Z</time>
      </trkpt>
      <trkpt lat="42.4274660" lon="-6.5207460">
        <ele>1495.3</ele>
        <time>2014-10-01T07:21:01Z</time>
      </trkpt>
      <trkpt lat="42.4274700" lon="-6.5206330">
        <ele>1495.1</ele>
        <time>2014-10-01T07:21:02Z</time>
      </trkpt>
      <trkpt lat="42.4274740" lon="-6.5205200">
        <ele>1494.9</ele>
        <time>2014-10-01T07:21:03Z</time>
      </trkpt>
      <trkpt lat="42.4274840" lon="-6.5204000">
        <ele>1494.6</ele>
        <time>2014-10-01T07:21:04Z</time>
      </trkpt>
      <trkpt lat="42.4274810" lon="-6.5202830">
        <ele>1494.4</ele>
        <time>2014-10-01T07:21:05Z</time>
      </trkpt>
      <trkpt lat="42.4274720" lon="-6.5201660">
        <ele>1494.1</ele>
        <time>2014-10-01T07:21:06Z</time>
      </trkpt>
      <trkpt lat="42.4274600" lon="-6.5200520">
        <ele>1494.0</ele>
        <time>2014-10-01T07:21:07Z</time>
      </trkpt>
      <trkpt lat="42.4274430" lon="-6.5199440">
        <ele>1493.9</ele>
        <time>2014-10-01T07:21:08Z</time>
      </trkpt>
      <trkpt lat="42.4274220" lon="-6.5198230">
        <ele>1493.8</ele>
        <time>2014-10-01T07:21:09Z</time>
      </trkpt>
      <trkpt lat="42.4273960" lon="-6.5197130">
        <ele>1493.7</ele>
        <time>2014-10-01T07:21:10Z</time>
      </trkpt>
      <trkpt lat="42.4273500" lon="-6.5196150">
        <ele>1493.5</ele>
        <time>2014-10-01T07:21:11Z</time>
      </trkpt>
      <trkpt lat="42.4272830" lon="-6.5195410">
        <ele>1493.3</ele>
        <time>2014-10-01T07:21:12Z</time>
      </trkpt>
      <trkpt lat="42.4272070" lon="-6.5194960">
        <ele>1493.3</ele>
        <time>2014-10-01T07:21:13Z</time>
      </trkpt>
      <trkpt lat="42.4271270" lon="-6.5194850">
        <ele>1493.2</ele>
        <time>2014-10-01T07:21:14Z</time>
      </trkpt>
      <trkpt lat="42.4270410" lon="-6.5194800">
        <ele>1493.2</ele>
        <time>2014-10-01T07:21:15Z</time>
      </trkpt>
      <trkpt lat="42.4269520" lon="-6.5194880">
        <ele>1493.3</ele>
        <time>2014-10-01T07:21:16Z</time>
      </trkpt>
      <trkpt lat="42.4268640" lon="-6.5195050">
        <ele>1493.4</ele>
        <time>2014-10-01T07:21:17Z</time>
      </trkpt>
      <trkpt lat="42.4267770" lon="-6.5195250">
        <ele>1493.6</ele>
        <time>2014-10-01T07:21:18Z</time>
      </trkpt>
      <trkpt lat="42.4266970" lon="-6.5195460">
        <ele>1493.8</ele>
        <time>2014-10-01T07:21:19Z</time>
      </trkpt>
      <trkpt lat="42.4266190" lon="-6.5195700">
        <ele>1494.0</ele>
        <time>2014-10-01T07:21:20Z</time>
      </trkpt>
      <trkpt lat="42.4265420" lon="-6.5195960">
        <ele>1494.2</ele>
        <time>2014-10-01T07:21:21Z</time>
      </trkpt>
      <trkpt lat="42.4264630" lon="-6.5196220">
        <ele>1494.5</ele>
        <time>2014-10-01T07:21:22Z</time>
      </trkpt>
      <trkpt lat="42.4263900" lon="-6.5196390">
        <ele>1494.7</ele>
        <time>2014-10-01T07:21:23Z</time>
      </trkpt>
      <trkpt lat="42.4263170" lon="-6.5196240">
        <ele>1494.9</ele>
        <time>2014-10-01T07:21:24Z</time>
      </trkpt>
      <trkpt lat="42.4262540" lon="-6.5195870">
        <ele>1495.1</ele>
        <time>2014-10-01T07:21:25Z</time>
      </trkpt>
      <trkpt lat="42.4261930" lon="-6.5195460">
        <ele>1495.2</ele>
        <time>2014-10-01T07:21:26Z</time>
      </trkpt>
      <trkpt lat="42.4261310" lon="-6.5194970">
        <ele>1495.4</ele>
        <time>2014-10-01T07:21:27Z</time>
      </trkpt>
      <trkpt lat="42.4260710" lon="-6.5194480">
        <ele>1495.5</ele>
        <time>2014-10-01T07:21:28Z</time>
      </trkpt>
      <trkpt lat="42.4260130" lon="-6.5193970">
        <ele>1495.6</ele>
        <time>2014-10-01T07:21:29Z</time>
      </trkpt>
      <trkpt lat="42.4259590" lon="-6.5193540">
        <ele>1495.6</ele>
        <time>2014-10-01T07:21:30Z</time>
      </trkpt>
      <trkpt lat="42.4258970" lon="-6.5193290">
        <ele>1495.6</ele>
        <time>2014-10-01T07:21:31Z</time>
      </trkpt>
      <trkpt lat="42.4258350" lon="-6.5193090">
        <ele>1495.6</ele>
        <time>2014-10-01T07:21:32Z</time>
      </trkpt>
      <trkpt lat="42.4257700" lon="-6.5192970">
        <ele>1495.6</ele>
        <time>2014-10-01T07:21:33Z</time>
      </trkpt>
      <trkpt lat="42.4257020" lon="-6.5192940">
        <ele>1495.6</ele>
        <time>2014-10-01T07:21:34Z</time>
      </trkpt>
      <trkpt lat="42.4256330" lon="-6.5193120">
        <ele>1495.6</ele>
        <time>2014-10-01T07:21:35Z</time>
      </trkpt>
      <trkpt lat="42.4255620" lon="-6.5193340">
        <ele>1495.5</ele>
        <time>2014-10-01T07:21:36Z</time>
      </trkpt>
      <trkpt lat="42.4254920" lon="-6.5193600">
        <ele>1495.5</ele>
        <time>2014-10-01T07:21:37Z</time>
      </trkpt>
      <trkpt lat="42.4254200" lon="-6.5193920">
        <ele>1495.5</ele>
        <time>2014-10-01T07:21:38Z</time>
      </trkpt>
      <trkpt lat="42.4253490" lon="-6.5194300">
        <ele>1495.4</ele>
        <time>2014-10-01T07:21:39Z</time>
      </trkpt>
      <trkpt lat="42.4252820" lon="-6.5194730">
        <ele>1495.3</ele>
        <time>2014-10-01T07:21:40Z</time>
      </trkpt>
      <trkpt lat="42.4252240" lon="-6.5195360">
        <ele>1495.2</ele>
        <time>2014-10-01T07:21:41Z</time>
      </trkpt>
      <trkpt lat="42.4251670" lon="-6.5196030">
        <ele>1495.1</ele>
        <time>2014-10-01T07:21:42Z</time>
      </trkpt>
      <trkpt lat="42.4251130" lon="-6.5196690">
        <ele>1494.9</ele>
        <time>2014-10-01T07:21:43Z</time>
      </trkpt>
      <trkpt lat="42.4250580" lon="-6.5197400">
        <ele>1494.8</ele>
        <time>2014-10-01T07:21:44Z</time>
      </trkpt>
      <trkpt lat="42.4250070" lon="-6.5198130">
        <ele>1494.6</ele>
        <time>2014-10-01T07:21:45Z</time>
      </trkpt>
      <trkpt lat="42.4249600" lon="-6.5198880">
        <ele>1494.4</ele>
        <time>2014-10-01T07:21:46Z</time>
      </trkpt>
      <trkpt lat="42.4249150" lon="-6.5199660">
        <ele>1494.2</ele>
        <time>2014-10-01T07:21:47Z</time>
      </trkpt>
      <trkpt lat="42.4248800" lon="-6.5200380">
        <ele>1494.0</ele>
        <time>2014-10-01T07:21:48Z</time>
      </trkpt>
      <trkpt lat="42.4248480" lon="-6.5201130">
        <ele>1493.8</ele>
        <time>2014-10-01T07:21:49Z</time>
      </trkpt>
      <trkpt lat="42.4248170" lon="-6.5201970">
        <ele>1493.5</ele>
        <time>2014-10-01T07:21:50Z</time>
      </trkpt>
      <trkpt lat="42.4247900" lon="-6.5202850">
        <ele>1493.2</ele>
        <time>2014-10-01T07:21:51Z</time>
      </trkpt>
      <trkpt lat="42.4247610" lon="-6.5203770">
        <ele>1492.9</ele>
        <time>2014-10-01T07:21:52Z</time>
      </trkpt>
      <trkpt lat="42.4247280" lon="-6.5204750">
        <ele>1492.6</ele>
        <time>2014-10-01T07:21:53Z</time>
      </trkpt>
      <trkpt lat="42.4246940" lon="-6.5205740">
        <ele>1492.4</ele>
        <time>2014-10-01T07:21:54Z</time>
      </trkpt>
      <trkpt lat="42.4246590" lon="-6.5206740">
        <ele>1492.1</ele>
        <time>2014-10-01T07:21:55Z</time>
      </trkpt>
      <trkpt lat="42.4246280" lon="-6.5207730">
        <ele>1491.8</ele>
        <time>2014-10-01T07:21:56Z</time>
      </trkpt>
      <trkpt lat="42.4245940" lon="-6.5208710">
        <ele>1491.5</ele>
        <time>2014-10-01T07:21:57Z</time>
      </trkpt>
      <trkpt lat="42.4245570" lon="-6.5209650">
        <ele>1491.2</ele>
        <time>2014-10-01T07:21:58Z</time>
      </trkpt>
      <trkpt lat="42.4245210" lon="-6.5210680">
        <ele>1490.8</ele>
        <time>2014-10-01T07:21:59Z</time>
      </trkpt>
      <trkpt lat="42.4244870" lon="-6.5211710">
        <ele>1490.5</ele>
        <time>2014-10-01T07:22:00Z</time>
      </trkpt>
      <trkpt lat="42.4244540" lon="-6.5212480">
        <ele>1490.2</ele>
        <time>2014-10-01T07:22:01Z</time>
      </trkpt>
      <trkpt lat="42.4244160" lon="-6.5212760">
        <ele>1489.9</ele>
        <time>2014-10-01T07:22:02Z</time>
      </trkpt>
      <trkpt lat="42.4243530" lon="-6.5213140">
        <ele>1489.6</ele>
        <time>2014-10-01T07:22:03Z</time>
      </trkpt>
      <trkpt lat="42.4243090" lon="-6.5213480">
        <ele>1489.3</ele>
        <time>2014-10-01T07:22:04Z</time>
      </trkpt>
      <trkpt lat="42.4242560" lon="-6.5214120">
        <ele>1488.9</ele>
        <time>2014-10-01T07:22:05Z</time>
      </trkpt>
      <trkpt lat="42.4242040" lon="-6.5215080">
        <ele>1488.4</ele>
        <time>2014-10-01T07:22:06Z</time>
      </trkpt>
      <trkpt lat="42.4241750" lon="-6.5216390">
        <ele>1487.9</ele>
        <time>2014-10-01T07:22:07Z</time>
      </trkpt>
      <trkpt lat="42.4241460" lon="-6.5217820">
        <ele>1487.2</ele>
        <time>2014-10-01T07:22:08Z</time>
      </trkpt>
      <trkpt lat="42.4241130" lon="-6.5219210">
        <ele>1486.6</ele>
        <time>2014-10-01T07:22:09Z</time>
      </trkpt>
      <trkpt lat="42.4240760" lon="-6.5220590">
        <ele>1485.9</ele>
        <time>2014-10-01T07:22:10Z</time>
      </trkpt>
      <trkpt lat="42.4240500" lon="-6.5221720">
        <ele>1485.1</ele>
        <time>2014-10-01T07:22:11Z</time>
      </trkpt>
      <trkpt lat="42.4240060" lon="-6.5223200">
        <ele>1484.0</ele>
        <time>2014-10-01T07:22:12Z</time>
      </trkpt>
      <trkpt lat="42.4239610" lon="-6.5224680">
        <ele>1483.2</ele>
        <time>2014-10-01T07:22:13Z</time>
      </trkpt>
      <trkpt lat="42.4239170" lon="-6.5226280">
        <ele>1482.4</ele>
        <time>2014-10-01T07:22:14Z</time>
      </trkpt>
      <trkpt lat="42.4238760" lon="-6.5227780">
        <ele>1481.6</ele>
        <time>2014-10-01T07:22:15Z</time>
      </trkpt>
      <trkpt lat="42.4238330" lon="-6.5229250">
        <ele>1480.8</ele>
        <time>2014-10-01T07:22:16Z</time>
      </trkpt>
      <trkpt lat="42.4237880" lon="-6.5230730">
        <ele>1480.0</ele>
        <time>2014-10-01T07:22:17Z</time>
      </trkpt>
      <trkpt lat="42.4237410" lon="-6.5232320">
        <ele>1479.1</ele>
        <time>2014-10-01T07:22:18Z</time>
      </trkpt>
      <trkpt lat="42.4237070" lon="-6.5233730">
        <ele>1478.4</ele>
        <time>2014-10-01T07:22:19Z</time>
      </trkpt>
      <trkpt lat="42.4236750" lon="-6.5235200">
        <ele>1477.7</ele>
        <time>2014-10-01T07:22:20Z</time>
      </trkpt>
      <trkpt lat="42.4236370" lon="-6.5236710">
        <ele>1477.0</ele>
        <time>2014-10-01T07:22:21Z</time>
      </trkpt>
      <trkpt lat="42.4235960" lon="-6.5238190">
        <ele>1476.3</ele>
        <time>2014-10-01T07:22:22Z</time>
      </trkpt>
      <trkpt lat="42.4235540" lon="-6.5239640">
        <ele>1475.7</ele>
        <time>2014-10-01T07:22:23Z</time>
      </trkpt>
      <trkpt lat="42.4235130" lon="-6.5241020">
        <ele>1475.1</ele>
        <time>2014-10-01T07:22:24Z</time>
      </trkpt>
      <trkpt lat="42.4234720" lon="-6.5242410">
        <ele>1474.5</ele>
        <time>2014-10-01T07:22:25Z</time>
      </trkpt>
      <trkpt lat="42.4234310" lon="-6.5243830">
        <ele>1474.0</ele>
        <time>2014-10-01T07:22:26Z</time>
      </trkpt>
      <trkpt lat="42.4233880" lon="-6.5245250">
        <ele>1473.5</ele>
        <time>2014-10-01T07:22:27Z</time>
      </trkpt>
      <trkpt lat="42.4233450" lon="-6.5246630">
        <ele>1472.9</ele>
        <time>2014-10-01T07:22:28Z</time>
      </trkpt>
      <trkpt lat="42.4232990" lon="-6.5248030">
        <ele>1472.3</ele>
        <time>2014-10-01T07:22:29Z</time>
      </trkpt>
      <trkpt lat="42.4232560" lon="-6.5249340">
        <ele>1471.7</ele>
        <time>2014-10-01T07:22:30Z</time>
      </trkpt>
      <trkpt lat="42.4232080" lon="-6.5250690">
        <ele>1471.1</ele>
        <time>2014-10-01T07:22:31Z</time>
      </trkpt>
      <trkpt lat="42.4231590" lon="-6.5252040">
        <ele>1470.4</ele>
        <time>2014-10-01T07:22:32Z</time>
      </trkpt>
      <trkpt lat="42.4231120" lon="-6.5253340">
        <ele>1469.8</ele>
        <time>2014-10-01T07:22:33Z</time>
      </trkpt>
      <trkpt lat="42.4230670" lon="-6.5254700">
        <ele>1469.1</ele>
        <time>2014-10-01T07:22:34Z</time>
      </trkpt>
      <trkpt lat="42.4230250" lon="-6.5256020">
        <ele>1468.3</ele>
        <time>2014-10-01T07:22:35Z</time>
      </trkpt>
      <trkpt lat="42.4229810" lon="-6.5257330">
        <ele>1467.6</ele>
        <time>2014-10-01T07:22:36Z</time>
      </trkpt>
      <trkpt lat="42.4229280" lon="-6.5258650">
        <ele>1466.9</ele>
        <time>2014-10-01T07:22:37Z</time>
      </trkpt>
      <trkpt lat="42.4228640" lon="-6.5259910">
        <ele>1466.3</ele>
        <time>2014-10-01T07:22:38Z</time>
      </trkpt>
      <trkpt lat="42.4227790" lon="-6.5260910">
        <ele>1465.7</ele>
        <time>2014-10-01T07:22:39Z</time>
      </trkpt>
      <trkpt lat="42.4226870" lon="-6.5261880">
        <ele>1465.2</ele>
        <time>2014-10-01T07:22:40Z</time>
      </trkpt>
      <trkpt lat="42.4225840" lon="-6.5262850">
        <ele>1464.6</ele>
        <time>2014-10-01T07:22:41Z</time>
      </trkpt>
      <trkpt lat="42.4224690" lon="-6.5263520">
        <ele>1464.3</ele>
        <time>2014-10-01T07:22:42Z</time>
      </trkpt>
      <trkpt lat="42.4223560" lon="-6.5264110">
        <ele>1463.9</ele>
        <time>2014-10-01T07:22:43Z</time>
      </trkpt>
      <trkpt lat="42.4222500" lon="-6.5264520">
        <ele>1464.6</ele>
        <time>2014-10-01T07:22:44Z</time>
      </trkpt>
      <trkpt lat="42.4221440" lon="-6.5264540">
        <ele>1465.5</ele>
        <time>2014-10-01T07:22:45Z</time>
      </trkpt>
      <trkpt lat="42.4220400" lon="-6.5264510">
        <ele>1466.3</ele>
        <time>2014-10-01T07:22:46Z</time>
      </trkpt>
      <trkpt lat="42.4219450" lon="-6.5264410">
        <ele>1466.8</ele>
        <time>2014-10-01T07:22:47Z</time>
      </trkpt>
      <trkpt lat="42.4218580" lon="-6.5264230">
        <ele>1467.2</ele>
        <time>2014-10-01T07:22:48Z</time>
      </trkpt>
      <trkpt lat="42.4217830" lon="-6.5264000">
        <ele>1467.7</ele>
        <time>2014-10-01T07:22:49Z</time>
      </trkpt>
      <trkpt lat="42.4217140" lon="-6.5263720">
        <ele>1468.2</ele>
        <time>2014-10-01T07:22:50Z</time>
      </trkpt>
      <trkpt lat="42.4216490" lon="-6.5263420">
        <ele>1468.7</ele>
        <time>2014-10-01T07:22:51Z</time>
      </trkpt>
      <trkpt lat="42.4215880" lon="-6.5263090">
        <ele>1469.3</ele>
        <time>2014-10-01T07:22:52Z</time>
      </trkpt>
      <trkpt lat="42.4215260" lon="-6.5262740">
        <ele>1469.9</ele>
        <time>2014-10-01T07:22:53Z</time>
      </trkpt>
      <trkpt lat="42.4214710" lon="-6.5262380">
        <ele>1470.5</ele>
        <time>2014-10-01T07:22:54Z</time>
      </trkpt>
      <trkpt lat="42.4214220" lon="-6.5262040">
        <ele>1471.1</ele>
        <time>2014-10-01T07:22:55Z</time>
      </trkpt>
      <trkpt lat="42.4213820" lon="-6.5261720">
        <ele>1471.5</ele>
        <time>2014-10-01T07:22:56Z</time>
      </trkpt>
      <trkpt lat="42.4213400" lon="-6.5261410">
        <ele>1472.1</ele>
        <time>2014-10-01T07:22:57Z</time>
      </trkpt>
      <trkpt lat="42.4213100" lon="-6.5261150">
        <ele>1472.4</ele>
        <time>2014-10-01T07:22:58Z</time>
      </trkpt>
      <trkpt lat="42.4212770" lon="-6.5260900">
        <ele>1472.9</ele>
        <time>2014-10-01T07:22:59Z</time>
      </trkpt>
      <trkpt lat="42.4212450" lon="-6.5260630">
        <ele>1473.3</ele>
        <time>2014-10-01T07:23:00Z</time>
      </trkpt>
      <trkpt lat="42.4212140" lon="-6.5260340">
        <ele>1473.7</ele>
        <time>2014-10-01T07:23:01Z</time>
      </trkpt>
      <trkpt lat="42.4211930" lon="-6.5260070">
        <ele>1474.0</ele>
        <time>2014-10-01T07:23:02Z</time>
      </trkpt>
      <trkpt lat="42.4211720" lon="-6.5259800">
        <ele>1474.3</ele>
        <time>2014-10-01T07:23:03Z</time>
      </trkpt>
      <trkpt lat="42.4211490" lon="-6.5259560">
        <ele>1474.6</ele>
        <time>2014-10-01T07:23:04Z</time>
      </trkpt>
      <trkpt lat="42.4211080" lon="-6.5259000">
        <ele>1475.1</ele>
        <time>2014-10-01T07:23:06Z</time>
      </trkpt>
      <trkpt lat="42.4210710" lon="-6.5258430">
        <ele>1475.6</ele>
        <time>2014-10-01T07:23:08Z</time>
      </trkpt>
      <trkpt lat="42.4210480" lon="-6.5258130">
        <ele>1475.9</ele>
        <time>2014-10-01T07:23:09Z</time>
      </trkpt>
      <trkpt lat="42.4210260" lon="-6.5257830">
        <ele>1476.2</ele>
        <time>2014-10-01T07:23:10Z</time>
      </trkpt>
      <trkpt lat="42.4210010" lon="-6.5257500">
        <ele>1476.6</ele>
        <time>2014-10-01T07:23:11Z</time>
      </trkpt>
      <trkpt lat="42.4209720" lon="-6.5257160">
        <ele>1477.0</ele>
        <time>2014-10-01T07:23:12Z</time>
      </trkpt>
      <trkpt lat="42.4209450" lon="-6.5256820">
        <ele>1477.4</ele>
        <time>2014-10-01T07:23:13Z</time>
      </trkpt>
      <trkpt lat="42.4209190" lon="-6.5256530">
        <ele>1477.8</ele>
        <time>2014-10-01T07:23:14Z</time>
      </trkpt>
      <trkpt lat="42.4208900" lon="-6.5256210">
        <ele>1478.2</ele>
        <time>2014-10-01T07:23:15Z</time>
      </trkpt>
      <trkpt lat="42.4208600" lon="-6.5255890">
        <ele>1478.6</ele>
        <time>2014-10-01T07:23:16Z</time>
      </trkpt>
      <trkpt lat="42.4208280" lon="-6.5255590">
        <ele>1479.0</ele>
        <time>2014-10-01T07:23:17Z</time>
      </trkpt>
      <trkpt lat="42.4208000" lon="-6.5255350">
        <ele>1479.3</ele>
        <time>2014-10-01T07:23:18Z</time>
      </trkpt>
      <trkpt lat="42.4207740" lon="-6.5255150">
        <ele>1479.6</ele>
        <time>2014-10-01T07:23:19Z</time>
      </trkpt>
      <trkpt lat="42.4207430" lon="-6.5254930">
        <ele>1479.9</ele>
        <time>2014-10-01T07:23:20Z</time>
      </trkpt>
      <trkpt lat="42.4207160" lon="-6.5254770">
        <ele>1480.1</ele>
        <time>2014-10-01T07:23:21Z</time>
      </trkpt>
      <trkpt lat="42.4206850" lon="-6.5254700">
        <ele>1480.4</ele>
        <time>2014-10-01T07:23:22Z</time>
      </trkpt>
      <trkpt lat="42.4206500" lon="-6.5254640">
        <ele>1480.6</ele>
        <time>2014-10-01T07:23:23Z</time>
      </trkpt>
      <trkpt lat="42.4206120" lon="-6.5254720">
        <ele>1480.8</ele>
        <time>2014-10-01T07:23:24Z</time>
      </trkpt>
      <trkpt lat="42.4205780" lon="-6.5254800">
        <ele>1481.0</ele>
        <time>2014-10-01T07:23:25Z</time>
      </trkpt>
      <trkpt lat="42.4205480" lon="-6.5254920">
        <ele>1481.2</ele>
        <time>2014-10-01T07:23:26Z</time>
      </trkpt>
      <trkpt lat="42.4205180" lon="-6.5255150">
        <ele>1481.3</ele>
        <time>2014-10-01T07:23:27Z</time>
      </trkpt>
      <trkpt lat="42.4204900" lon="-6.5255400">
        <ele>1481.5</ele>
        <time>2014-10-01T07:23:28Z</time>
      </trkpt>
      <trkpt lat="42.4204570" lon="-6.5255710">
        <ele>1481.7</ele>
        <time>2014-10-01T07:23:29Z</time>
      </trkpt>
      <trkpt lat="42.4204190" lon="-6.5256070">
        <ele>1481.9</ele>
        <time>2014-10-01T07:23:30Z</time>
      </trkpt>
      <trkpt lat="42.4203870" lon="-6.5256420">
        <ele>1482.1</ele>
        <time>2014-10-01T07:23:31Z</time>
      </trkpt>
      <trkpt lat="42.4203580" lon="-6.5256760">
        <ele>1482.3</ele>
        <time>2014-10-01T07:23:32Z</time>
      </trkpt>
      <trkpt lat="42.4203300" lon="-6.5257110">
        <ele>1482.5</ele>
        <time>2014-10-01T07:23:33Z</time>
      </trkpt>
      <trkpt lat="42.4203010" lon="-6.5257470">
        <ele>1482.8</ele>
        <time>2014-10-01T07:23:34Z</time>
      </trkpt>
      <trkpt lat="42.4202700" lon="-6.5257820">
        <ele>1483.1</ele>
        <time>2014-10-01T07:23:35Z</time>
      </trkpt>
      <trkpt lat="42.4202390" lon="-6.5258150">
        <ele>1483.4</ele>
        <time>2014-10-01T07:23:36Z</time>
      </trkpt>
      <trkpt lat="42.4202100" lon="-6.5258420">
        <ele>1483.7</ele>
        <time>2014-10-01T07:23:37Z</time>
      </trkpt>
      <trkpt lat="42.4201780" lon="-6.5258690">
        <ele>1484.0</ele>
        <time>2014-10-01T07:23:38Z</time>
      </trkpt>
      <trkpt lat="42.4201480" lon="-6.5258920">
        <ele>1484.3</ele>
        <time>2014-10-01T07:23:39Z</time>
      </trkpt>
      <trkpt lat="42.4201190" lon="-6.5259110">
        <ele>1484.5</ele>
        <time>2014-10-01T07:23:40Z</time>
      </trkpt>
      <trkpt lat="42.4200910" lon="-6.5259280">
        <ele>1484.8</ele>
        <time>2014-10-01T07:23:41Z</time>
      </trkpt>
      <trkpt lat="42.4200600" lon="-6.5259440">
        <ele>1485.1</ele>
        <time>2014-10-01T07:23:42Z</time>
      </trkpt>
      <trkpt lat="42.4200060" lon="-6.5259610">
        <ele>1485.8</ele>
        <time>2014-10-01T07:23:44Z</time>
      </trkpt>
      <trkpt lat="42.4199760" lon="-6.5259670">
        <ele>1486.1</ele>
        <time>2014-10-01T07:23:45Z</time>
      </trkpt>
      <trkpt lat="42.4199470" lon="-6.5259720">
        <ele>1486.5</ele>
        <time>2014-10-01T07:23:46Z</time>
      </trkpt>
      <trkpt lat="42.4198900" lon="-6.5259820">
        <ele>1487.2</ele>
        <time>2014-10-01T07:23:48Z</time>
      </trkpt>
      <trkpt lat="42.4198560" lon="-6.5259880">
        <ele>1487.6</ele>
        <time>2014-10-01T07:23:49Z</time>
      </trkpt>
      <trkpt lat="42.4198270" lon="-6.5259920">
        <ele>1487.9</ele>
        <time>2014-10-01T07:23:50Z</time>
      </trkpt>
      <trkpt lat="42.4197940" lon="-6.5259950">
        <ele>1488.3</ele>
        <time>2014-10-01T07:23:51Z</time>
      </trkpt>
      <trkpt lat="42.4197580" lon="-6.5259960">
        <ele>1488.8</ele>
        <time>2014-10-01T07:23:52Z</time>
      </trkpt>
      <trkpt lat="42.4197010" lon="-6.5259920">
        <ele>1489.4</ele>
        <time>2014-10-01T07:23:54Z</time>
      </trkpt>
      <trkpt lat="42.4196510" lon="-6.5259820">
        <ele>1490.0</ele>
        <time>2014-10-01T07:23:56Z</time>
      </trkpt>
      <trkpt lat="42.4196040" lon="-6.5259590">
        <ele>1490.4</ele>
        <time>2014-10-01T07:23:58Z</time>
      </trkpt>
      <trkpt lat="42.4195780" lon="-6.5259400">
        <ele>1490.7</ele>
        <time>2014-10-01T07:23:59Z</time>
      </trkpt>
      <trkpt lat="42.4195490" lon="-6.5259200">
        <ele>1491.0</ele>
        <time>2014-10-01T07:24:00Z</time>
      </trkpt>
      <trkpt lat="42.4195000" lon="-6.5258800">
        <ele>1491.6</ele>
        <time>2014-10-01T07:24:02Z</time>
      </trkpt>
      <trkpt lat="42.4194710" lon="-6.5258580">
        <ele>1491.9</ele>
        <time>2014-10-01T07:24:03Z</time>
      </trkpt>
      <trkpt lat="42.4194480" lon="-6.5258340">
        <ele>1492.2</ele>
        <time>2014-10-01T07:24:04Z</time>
      </trkpt>
      <trkpt lat="42.4194220" lon="-6.5258110">
        <ele>1492.5</ele>
        <time>2014-10-01T07:24:05Z</time>
      </trkpt>
      <trkpt lat="42.4193980" lon="-6.5257900">
        <ele>1492.7</ele>
        <time>2014-10-01T07:24:06Z</time>
      </trkpt>
      <trkpt lat="42.4193540" lon="-6.5257590">
        <ele>1493.1</ele>
        <time>2014-10-01T07:24:08Z</time>
      </trkpt>
      <trkpt lat="42.4193280" lon="-6.5257470">
        <ele>1493.3</ele>
        <time>2014-10-01T07:24:09Z</time>
      </trkpt>
      <trkpt lat="42.4193000" lon="-6.5257350">
        <ele>1493.6</ele>
        <time>2014-10-01T07:24:10Z</time>
      </trkpt>
      <trkpt lat="42.4192690" lon="-6.5257230">
        <ele>1493.8</ele>
        <time>2014-10-01T07:24:11Z</time>
      </trkpt>
      <trkpt lat="42.4192360" lon="-6.5257120">
        <ele>1494.1</ele>
        <time>2014-10-01T07:24:12Z</time>
      </trkpt>
      <trkpt lat="42.4192050" lon="-6.5257030">
        <ele>1494.4</ele>
        <time>2014-10-01T07:24:13Z</time>
      </trkpt>
      <trkpt lat="42.4191740" lon="-6.5256960">
        <ele>1494.7</ele>
        <time>2014-10-01T07:24:14Z</time>
      </trkpt>
      <trkpt lat="42.4191400" lon="-6.5256900">
        <ele>1495.0</ele>
        <time>2014-10-01T07:24:15Z</time>
      </trkpt>
      <trkpt lat="42.4191050" lon="-6.5256860">
        <ele>1495.3</ele>
        <time>2014-10-01T07:24:16Z</time>
      </trkpt>
      <trkpt lat="42.4190710" lon="-6.5256840">
        <ele>1495.6</ele>
        <time>2014-10-01T07:24:17Z</time>
      </trkpt>
      <trkpt lat="42.4190180" lon="-6.5256870">
        <ele>1496.1</ele>
        <time>2014-10-01T07:24:19Z</time>
      </trkpt>
      <trkpt lat="42.4189910" lon="-6.5256960">
        <ele>1496.3</ele>
        <time>2014-10-01T07:24:20Z</time>
      </trkpt>
      <trkpt lat="42.4189470" lon="-6.5257320">
        <ele>1496.7</ele>
        <time>2014-10-01T07:24:22Z</time>
      </trkpt>
      <trkpt lat="42.4189020" lon="-6.5257790">
        <ele>1497.1</ele>
        <time>2014-10-01T07:24:24Z</time>
      </trkpt>
      <trkpt lat="42.4188670" lon="-6.5258390">
        <ele>1497.5</ele>
        <time>2014-10-01T07:24:26Z</time>
      </trkpt>
      <trkpt lat="42.4188490" lon="-6.5258680">
        <ele>1497.7</ele>
        <time>2014-10-01T07:24:27Z</time>
      </trkpt>
      <trkpt lat="42.4188320" lon="-6.5258970">
        <ele>1497.9</ele>
        <time>2014-10-01T07:24:28Z</time>
      </trkpt>
      <trkpt lat="42.4188130" lon="-6.5259280">
        <ele>1498.1</ele>
        <time>2014-10-01T07:24:29Z</time>
      </trkpt>
      <trkpt lat="42.4187960" lon="-6.5259580">
        <ele>1498.3</ele>
        <time>2014-10-01T07:24:30Z</time>
      </trkpt>
      <trkpt lat="42.4187760" lon="-6.5259930">
        <ele>1498.5</ele>
        <time>2014-10-01T07:24:31Z</time>
      </trkpt>
      <trkpt lat="42.4187560" lon="-6.5260240">
        <ele>1498.8</ele>
        <time>2014-10-01T07:24:32Z</time>
      </trkpt>
      <trkpt lat="42.4187350" lon="-6.5260540">
        <ele>1499.0</ele>
        <time>2014-10-01T07:24:33Z</time>
      </trkpt>
      <trkpt lat="42.4187110" lon="-6.5260850">
        <ele>1499.3</ele>
        <time>2014-10-01T07:24:34Z</time>
      </trkpt>
      <trkpt lat="42.4186870" lon="-6.5261150">
        <ele>1499.5</ele>
        <time>2014-10-01T07:24:35Z</time>
      </trkpt>
      <trkpt lat="42.4186630" lon="-6.5261440">
        <ele>1499.8</ele>
        <time>2014-10-01T07:24:36Z</time>
      </trkpt>
      <trkpt lat="42.4186400" lon="-6.5261720">
        <ele>1500.0</ele>
        <time>2014-10-01T07:24:37Z</time>
      </trkpt>
      <trkpt lat="42.4186170" lon="-6.5262000">
        <ele>1500.3</ele>
        <time>2014-10-01T07:24:38Z</time>
      </trkpt>
      <trkpt lat="42.4185940" lon="-6.5262280">
        <ele>1500.5</ele>
        <time>2014-10-01T07:24:39Z</time>
      </trkpt>
      <trkpt lat="42.4185720" lon="-6.5262560">
        <ele>1500.7</ele>
        <time>2014-10-01T07:24:40Z</time>
      </trkpt>
      <trkpt lat="42.4185490" lon="-6.5262840">
        <ele>1500.9</ele>
        <time>2014-10-01T07:24:41Z</time>
      </trkpt>
      <trkpt lat="42.4185280" lon="-6.5263100">
        <ele>1501.1</ele>
        <time>2014-10-01T07:24:42Z</time>
      </trkpt>
      <trkpt lat="42.4185060" lon="-6.5263370">
        <ele>1501.3</ele>
        <time>2014-10-01T07:24:43Z</time>
      </trkpt>
      <trkpt lat="42.4184850" lon="-6.5263630">
        <ele>1501.5</ele>
        <time>2014-10-01T07:24:44Z</time>
      </trkpt>
      <trkpt lat="42.4184610" lon="-6.5263910">
        <ele>1501.7</ele>
        <time>2014-10-01T07:24:45Z</time>
      </trkpt>
      <trkpt lat="42.4184360" lon="-6.5264200">
        <ele>1501.9</ele>
        <time>2014-10-01T07:24:46Z</time>
      </trkpt>
      <trkpt lat="42.4184090" lon="-6.5264520">
        <ele>1502.2</ele>
        <time>2014-10-01T07:24:47Z</time>
      </trkpt>
      <trkpt lat="42.4183840" lon="-6.5264800">
        <ele>1502.4</ele>
        <time>2014-10-01T07:24:48Z</time>
      </trkpt>
      <trkpt lat="42.4183580" lon="-6.5265110">
        <ele>1502.7</ele>
        <time>2014-10-01T07:24:49Z</time>
      </trkpt>
      <trkpt lat="42.4183350" lon="-6.5265370">
        <ele>1502.9</ele>
        <time>2014-10-01T07:24:50Z</time>
      </trkpt>
      <trkpt lat="42.4183110" lon="-6.5265630">
        <ele>1503.2</ele>
        <time>2014-10-01T07:24:51Z</time>
      </trkpt>
      <trkpt lat="42.4182850" lon="-6.5265900">
        <ele>1503.5</ele>
        <time>2014-10-01T07:24:52Z</time>
      </trkpt>
      <trkpt lat="42.4182580" lon="-6.5266170">
        <ele>1503.8</ele>
        <time>2014-10-01T07:24:53Z</time>
      </trkpt>
      <trkpt lat="42.4182250" lon="-6.5266490">
        <ele>1504.2</ele>
        <time>2014-10-01T07:24:54Z</time>
      </trkpt>
      <trkpt lat="42.4181950" lon="-6.5266760">
        <ele>1504.6</ele>
        <time>2014-10-01T07:24:55Z</time>
      </trkpt>
      <trkpt lat="42.4181660" lon="-6.5267000">
        <ele>1505.0</ele>
        <time>2014-10-01T07:24:56Z</time>
      </trkpt>
      <trkpt lat="42.4181360" lon="-6.5267210">
        <ele>1505.4</ele>
        <time>2014-10-01T07:24:57Z</time>
      </trkpt>
      <trkpt lat="42.4181040" lon="-6.5267420">
        <ele>1505.8</ele>
        <time>2014-10-01T07:24:58Z</time>
      </trkpt>
      <trkpt lat="42.4180730" lon="-6.5267620">
        <ele>1506.2</ele>
        <time>2014-10-01T07:24:59Z</time>
      </trkpt>
      <trkpt lat="42.4180420" lon="-6.5267830">
        <ele>1506.6</ele>
        <time>2014-10-01T07:25:00Z</time>
      </trkpt>
      <trkpt lat="42.4180150" lon="-6.5268000">
        <ele>1507.0</ele>
        <time>2014-10-01T07:25:01Z</time>
      </trkpt>
      <trkpt lat="42.4179860" lon="-6.5268190">
        <ele>1507.4</ele>
        <time>2014-10-01T07:25:02Z</time>
      </trkpt>
      <trkpt lat="42.4179600" lon="-6.5268360">
        <ele>1507.7</ele>
        <time>2014-10-01T07:25:03Z</time>
      </trkpt>
      <trkpt lat="42.4179180" lon="-6.5268600">
        <ele>1508.3</ele>
        <time>2014-10-01T07:25:05Z</time>
      </trkpt>
      <trkpt lat="42.4178730" lon="-6.5268850">
        <ele>1508.9</ele>
        <time>2014-10-01T07:25:07Z</time>
      </trkpt>
      <trkpt lat="42.4178480" lon="-6.5269010">
        <ele>1509.2</ele>
        <time>2014-10-01T07:25:08Z</time>
      </trkpt>
      <trkpt lat="42.4178220" lon="-6.5269190">
        <ele>1509.5</ele>
        <time>2014-10-01T07:25:09Z</time>
      </trkpt>
      <trkpt lat="42.4177970" lon="-6.5269390">
        <ele>1509.9</ele>
        <time>2014-10-01T07:25:10Z</time>
      </trkpt>
      <trkpt lat="42.4177710" lon="-6.5269630">
        <ele>1510.2</ele>
        <time>2014-10-01T07:25:11Z</time>
      </trkpt>
      <trkpt lat="42.4177440" lon="-6.5269910">
        <ele>1510.6</ele>
        <time>2014-10-01T07:25:12Z</time>
      </trkpt>
      <trkpt lat="42.4177190" lon="-6.5270200">
        <ele>1511.0</ele>
        <time>2014-10-01T07:25:13Z</time>
      </trkpt>
      <trkpt lat="42.4176960" lon="-6.5270520">
        <ele>1511.3</ele>
        <time>2014-10-01T07:25:14Z</time>
      </trkpt>
      <trkpt lat="42.4176720" lon="-6.5270900">
        <ele>1511.7</ele>
        <time>2014-10-01T07:25:15Z</time>
      </trkpt>
      <trkpt lat="42.4176560" lon="-6.5271300">
        <ele>1512.0</ele>
        <time>2014-10-01T07:25:16Z</time>
      </trkpt>
      <trkpt lat="42.4176430" lon="-6.5271720">
        <ele>1512.3</ele>
        <time>2014-10-01T07:25:17Z</time>
      </trkpt>
      <trkpt lat="42.4176270" lon="-6.5272130">
        <ele>1512.6</ele>
        <time>2014-10-01T07:25:18Z</time>
      </trkpt>
      <trkpt lat="42.4176190" lon="-6.5272490">
        <ele>1512.8</ele>
        <time>2014-10-01T07:25:19Z</time>
      </trkpt>
      <trkpt lat="42.4176080" lon="-6.5272870">
        <ele>1513.1</ele>
        <time>2014-10-01T07:25:20Z</time>
      </trkpt>
      <trkpt lat="42.4176120" lon="-6.5273440">
        <ele>1513.5</ele>
        <time>2014-10-01T07:25:22Z</time>
      </trkpt>
      <trkpt lat="42.4176190" lon="-6.5274010">
        <ele>1514.0</ele>
        <time>2014-10-01T07:25:24Z</time>
      </trkpt>
      <trkpt lat="42.4176330" lon="-6.5274610">
        <ele>1514.5</ele>
        <time>2014-10-01T07:25:26Z</time>
      </trkpt>
      <trkpt lat="42.4176360" lon="-6.5274980">
        <ele>1514.8</ele>
        <time>2014-10-01T07:25:27Z</time>
      </trkpt>
      <trkpt lat="42.4176380" lon="-6.5275560">
        <ele>1515.3</ele>
        <time>2014-10-01T07:25:29Z</time>
      </trkpt>
      <trkpt lat="42.4176340" lon="-6.5276210">
        <ele>1515.8</ele>
        <time>2014-10-01T07:25:31Z</time>
      </trkpt>
      <trkpt lat="42.4176360" lon="-6.5276780">
        <ele>1516.3</ele>
        <time>2014-10-01T07:25:33Z</time>
      </trkpt>
      <trkpt lat="42.4176280" lon="-6.5277420">
        <ele>1516.8</ele>
        <time>2014-10-01T07:25:35Z</time>
      </trkpt>
      <trkpt lat="42.4176140" lon="-6.5278050">
        <ele>1517.3</ele>
        <time>2014-10-01T07:25:37Z</time>
      </trkpt>
      <trkpt lat="42.4175990" lon="-6.5278640">
        <ele>1517.7</ele>
        <time>2014-10-01T07:25:39Z</time>
      </trkpt>
      <trkpt lat="42.4175690" lon="-6.5279230">
        <ele>1518.0</ele>
        <time>2014-10-01T07:25:41Z</time>
      </trkpt>
      <trkpt lat="42.4175310" lon="-6.5279760">
        <ele>1518.1</ele>
        <time>2014-10-01T07:25:43Z</time>
      </trkpt>
      <trkpt lat="42.4174880" lon="-6.5280250">
        <ele>1517.8</ele>
        <time>2014-10-01T07:25:45Z</time>
      </trkpt>
      <trkpt lat="42.4174630" lon="-6.5280490">
        <ele>1517.5</ele>
        <time>2014-10-01T07:25:46Z</time>
      </trkpt>
      <trkpt lat="42.4174390" lon="-6.5280690">
        <ele>1517.9</ele>
        <time>2014-10-01T07:25:47Z</time>
      </trkpt>
      <trkpt lat="42.4174080" lon="-6.5280870">
        <ele>1518.3</ele>
        <time>2014-10-01T07:25:48Z</time>
      </trkpt>
      <trkpt lat="42.4173780" lon="-6.5281030">
        <ele>1518.7</ele>
        <time>2014-10-01T07:25:49Z</time>
      </trkpt>
      <trkpt lat="42.4173500" lon="-6.5281190">
        <ele>1519.0</ele>
        <time>2014-10-01T07:25:50Z</time>
      </trkpt>
      <trkpt lat="42.4173230" lon="-6.5281330">
        <ele>1519.4</ele>
        <time>2014-10-01T07:25:51Z</time>
      </trkpt>
      <trkpt lat="42.4172950" lon="-6.5281480">
        <ele>1519.7</ele>
        <time>2014-10-01T07:25:52Z</time>
      </trkpt>
      <trkpt lat="42.4172640" lon="-6.5281610">
        <ele>1520.0</ele>
        <time>2014-10-01T07:25:53Z</time>
      </trkpt>
      <trkpt lat="42.4172110" lon="-6.5281780">
        <ele>1520.5</ele>
        <time>2014-10-01T07:25:55Z</time>
      </trkpt>
      <trkpt lat="42.4171590" lon="-6.5281900">
        <ele>1521.0</ele>
        <time>2014-10-01T07:25:57Z</time>
      </trkpt>
      <trkpt lat="42.4171050" lon="-6.5282010">
        <ele>1521.6</ele>
        <time>2014-10-01T07:25:59Z</time>
      </trkpt>
      <trkpt lat="42.4170780" lon="-6.5282070">
        <ele>1521.8</ele>
        <time>2014-10-01T07:26:00Z</time>
      </trkpt>
      <trkpt lat="42.4170490" lon="-6.5282100">
        <ele>1522.1</ele>
        <time>2014-10-01T07:26:01Z</time>
      </trkpt>
      <trkpt lat="42.4170200" lon="-6.5282110">
        <ele>1522.4</ele>
        <time>2014-10-01T07:26:02Z</time>
      </trkpt>
      <trkpt lat="42.4169930" lon="-6.5282080">
        <ele>1522.7</ele>
        <time>2014-10-01T07:26:03Z</time>
      </trkpt>
      <trkpt lat="42.4169630" lon="-6.5282040">
        <ele>1523.0</ele>
        <time>2014-10-01T07:26:04Z</time>
      </trkpt>
      <trkpt lat="42.4169350" lon="-6.5281980">
        <ele>1523.3</ele>
        <time>2014-10-01T07:26:05Z</time>
      </trkpt>
      <trkpt lat="42.4168770" lon="-6.5281830">
        <ele>1523.9</ele>
        <time>2014-10-01T07:26:07Z</time>
      </trkpt>
      <trkpt lat="42.4168260" lon="-6.5281710">
        <ele>1524.4</ele>
        <time>2014-10-01T07:26:09Z</time>
      </trkpt>
      <trkpt lat="42.4167760" lon="-6.5281590">
        <ele>1524.8</ele>
        <time>2014-10-01T07:26:11Z</time>
      </trkpt>
      <trkpt lat="42.4167460" lon="-6.5281500">
        <ele>1525.0</ele>
        <time>2014-10-01T07:26:12Z</time>
      </trkpt>
      <trkpt lat="42.4166930" lon="-6.5281370">
        <ele>1525.4</ele>
        <time>2014-10-01T07:26:14Z</time>
      </trkpt>
      <trkpt lat="42.4166630" lon="-6.5281310">
        <ele>1525.6</ele>
        <time>2014-10-01T07:26:15Z</time>
      </trkpt>
      <trkpt lat="42.4166300" lon="-6.5281260">
        <ele>1525.8</ele>
        <time>2014-10-01T07:26:16Z</time>
      </trkpt>
      <trkpt lat="42.4165990" lon="-6.5281220">
        <ele>1525.9</ele>
        <time>2014-10-01T07:26:17Z</time>
      </trkpt>
      <trkpt lat="42.4165670" lon="-6.5281170">
        <ele>1526.1</ele>
        <time>2014-10-01T07:26:18Z</time>
      </trkpt>
      <trkpt lat="42.4165310" lon="-6.5281120">
        <ele>1526.3</ele>
        <time>2014-10-01T07:26:19Z</time>
      </trkpt>
      <trkpt lat="42.4164970" lon="-6.5281060">
        <ele>1526.5</ele>
        <time>2014-10-01T07:26:20Z</time>
      </trkpt>
      <trkpt lat="42.4164620" lon="-6.5281020">
        <ele>1526.7</ele>
        <time>2014-10-01T07:26:21Z</time>
      </trkpt>
      <trkpt lat="42.4164260" lon="-6.5280990">
        <ele>1526.9</ele>
        <time>2014-10-01T07:26:22Z</time>
      </trkpt>
      <trkpt lat="42.4163890" lon="-6.5280990">
        <ele>1527.1</ele>
        <time>2014-10-01T07:26:23Z</time>
      </trkpt>
      <trkpt lat="42.4163560" lon="-6.5281000">
        <ele>1527.3</ele>
        <time>2014-10-01T07:26:24Z</time>
      </trkpt>
      <trkpt lat="42.4163250" lon="-6.5281030">
        <ele>1527.5</ele>
        <time>2014-10-01T07:26:25Z</time>
      </trkpt>
      <trkpt lat="42.4162920" lon="-6.5281060">
        <ele>1527.7</ele>
        <time>2014-10-01T07:26:26Z</time>
      </trkpt>
      <trkpt lat="42.4162630" lon="-6.5281100">
        <ele>1527.9</ele>
        <time>2014-10-01T07:26:27Z</time>
      </trkpt>
      <trkpt lat="42.4162330" lon="-6.5281140">
        <ele>1528.1</ele>
        <time>2014-10-01T07:26:28Z</time>
      </trkpt>
      <trkpt lat="42.4162030" lon="-6.5281180">
        <ele>1528.3</ele>
        <time>2014-10-01T07:26:29Z</time>
      </trkpt>
      <trkpt lat="42.4161750" lon="-6.5281210">
        <ele>1528.6</ele>
        <time>2014-10-01T07:26:30Z</time>
      </trkpt>
      <trkpt lat="42.4161470" lon="-6.5281270">
        <ele>1528.8</ele>
        <time>2014-10-01T07:26:31Z</time>
      </trkpt>
      <trkpt lat="42.4161180" lon="-6.5281320">
        <ele>1529.1</ele>
        <time>2014-10-01T07:26:32Z</time>
      </trkpt>
      <trkpt lat="42.4160880" lon="-6.5281380">
        <ele>1529.3</ele>
        <time>2014-10-01T07:26:33Z</time>
      </trkpt>
      <trkpt lat="42.4160590" lon="-6.5281480">
        <ele>1529.6</ele>
        <time>2014-10-01T07:26:34Z</time>
      </trkpt>
      <trkpt lat="42.4160280" lon="-6.5281600">
        <ele>1529.9</ele>
        <time>2014-10-01T07:26:35Z</time>
      </trkpt>
      <trkpt lat="42.4159800" lon="-6.5281880">
        <ele>1530.3</ele>
        <time>2014-10-01T07:26:37Z</time>
      </trkpt>
      <trkpt lat="42.4159520" lon="-6.5282060">
        <ele>1530.6</ele>
        <time>2014-10-01T07:26:38Z</time>
      </trkpt>
      <trkpt lat="42.4159250" lon="-6.5282250">
        <ele>1530.8</ele>
        <time>2014-10-01T07:26:39Z</time>
      </trkpt>
      <trkpt lat="42.4158950" lon="-6.5282460">
        <ele>1531.1</ele>
        <time>2014-10-01T07:26:40Z</time>
      </trkpt>
      <trkpt lat="42.4158670" lon="-6.5282660">
        <ele>1531.3</ele>
        <time>2014-10-01T07:26:41Z</time>
      </trkpt>
      <trkpt lat="42.4158170" lon="-6.5282980">
        <ele>1531.7</ele>
        <time>2014-10-01T07:26:43Z</time>
      </trkpt>
      <trkpt lat="42.4157670" lon="-6.5283250">
        <ele>1532.0</ele>
        <time>2014-10-01T07:26:45Z</time>
      </trkpt>
      <trkpt lat="42.4157360" lon="-6.5283400">
        <ele>1532.2</ele>
        <time>2014-10-01T07:26:46Z</time>
      </trkpt>
      <trkpt lat="42.4157050" lon="-6.5283540">
        <ele>1532.5</ele>
        <time>2014-10-01T07:26:47Z</time>
      </trkpt>
      <trkpt lat="42.4156720" lon="-6.5283680">
        <ele>1532.7</ele>
        <time>2014-10-01T07:26:48Z</time>
      </trkpt>
      <trkpt lat="42.4156390" lon="-6.5283820">
        <ele>1532.9</ele>
        <time>2014-10-01T07:26:49Z</time>
      </trkpt>
      <trkpt lat="42.4156080" lon="-6.5283960">
        <ele>1533.1</ele>
        <time>2014-10-01T07:26:50Z</time>
      </trkpt>
      <trkpt lat="42.4155750" lon="-6.5284110">
        <ele>1533.4</ele>
        <time>2014-10-01T07:26:51Z</time>
      </trkpt>
      <trkpt lat="42.4155420" lon="-6.5284260">
        <ele>1533.6</ele>
        <time>2014-10-01T07:26:52Z</time>
      </trkpt>
      <trkpt lat="42.4155100" lon="-6.5284400">
        <ele>1533.9</ele>
        <time>2014-10-01T07:26:53Z</time>
      </trkpt>
      <trkpt lat="42.4154810" lon="-6.5284530">
        <ele>1534.2</ele>
        <time>2014-10-01T07:26:54Z</time>
      </trkpt>
      <trkpt lat="42.4154530" lon="-6.5284660">
        <ele>1534.4</ele>
        <time>2014-10-01T07:26:55Z</time>
      </trkpt>
      <trkpt lat="42.4154260" lon="-6.5284790">
        <ele>1534.7</ele>
        <time>2014-10-01T07:26:56Z</time>
      </trkpt>
      <trkpt lat="42.4153940" lon="-6.5284940">
        <ele>1534.9</ele>
        <time>2014-10-01T07:26:57Z</time>
      </trkpt>
      <trkpt lat="42.4153640" lon="-6.5285090">
        <ele>1535.1</ele>
        <time>2014-10-01T07:26:58Z</time>
      </trkpt>
      <trkpt lat="42.4153340" lon="-6.5285240">
        <ele>1535.4</ele>
        <time>2014-10-01T07:26:59Z</time>
      </trkpt>
      <trkpt lat="42.4153080" lon="-6.5285380">
        <ele>1535.6</ele>
        <time>2014-10-01T07:27:00Z</time>
      </trkpt>
      <trkpt lat="42.4152820" lon="-6.5285520">
        <ele>1535.8</ele>
        <time>2014-10-01T07:27:01Z</time>
      </trkpt>
      <trkpt lat="42.4152560" lon="-6.5285670">
        <ele>1536.0</ele>
        <time>2014-10-01T07:27:02Z</time>
      </trkpt>
      <trkpt lat="42.4152300" lon="-6.5285820">
        <ele>1536.2</ele>
        <time>2014-10-01T07:27:03Z</time>
      </trkpt>
      <trkpt lat="42.4152010" lon="-6.5285980">
        <ele>1536.4</ele>
        <time>2014-10-01T07:27:04Z</time>
      </trkpt>
      <trkpt lat="42.4151700" lon="-6.5286130">
        <ele>1536.7</ele>
        <time>2014-10-01T07:27:05Z</time>
      </trkpt>
      <trkpt lat="42.4151370" lon="-6.5286290">
        <ele>1537.0</ele>
        <time>2014-10-01T07:27:06Z</time>
      </trkpt>
      <trkpt lat="42.4151050" lon="-6.5286460">
        <ele>1537.2</ele>
        <time>2014-10-01T07:27:07Z</time>
      </trkpt>
      <trkpt lat="42.4150730" lon="-6.5286650">
        <ele>1537.5</ele>
        <time>2014-10-01T07:27:08Z</time>
      </trkpt>
      <trkpt lat="42.4150440" lon="-6.5286830">
        <ele>1537.7</ele>
        <time>2014-10-01T07:27:09Z</time>
      </trkpt>
      <trkpt lat="42.4150160" lon="-6.5287010">
        <ele>1537.9</ele>
        <time>2014-10-01T07:27:10Z</time>
      </trkpt>
      <trkpt lat="42.4149880" lon="-6.5287210">
        <ele>1538.1</ele>
        <time>2014-10-01T07:27:11Z</time>
      </trkpt>
      <trkpt lat="42.4149600" lon="-6.5287410">
        <ele>1538.2</ele>
        <time>2014-10-01T07:27:12Z</time>
      </trkpt>
      <trkpt lat="42.4149320" lon="-6.5287580">
        <ele>1538.3</ele>
        <time>2014-10-01T07:27:13Z</time>
      </trkpt>
      <trkpt lat="42.4149040" lon="-6.5287740">
        <ele>1538.4</ele>
        <time>2014-10-01T07:27:14Z</time>
      </trkpt>
      <trkpt lat="42.4148760" lon="-6.5287880">
        <ele>1538.5</ele>
        <time>2014-10-01T07:27:15Z</time>
      </trkpt>
      <trkpt lat="42.4148460" lon="-6.5288010">
        <ele>1538.6</ele>
        <time>2014-10-01T07:27:16Z</time>
      </trkpt>
      <trkpt lat="42.4148140" lon="-6.5288130">
        <ele>1538.7</ele>
        <time>2014-10-01T07:27:17Z</time>
      </trkpt>
      <trkpt lat="42.4147820" lon="-6.5288220">
        <ele>1538.8</ele>
        <time>2014-10-01T07:27:18Z</time>
      </trkpt>
      <trkpt lat="42.4147520" lon="-6.5288290">
        <ele>1539.0</ele>
        <time>2014-10-01T07:27:19Z</time>
      </trkpt>
      <trkpt lat="42.4147210" lon="-6.5288330">
        <ele>1539.1</ele>
        <time>2014-10-01T07:27:20Z</time>
      </trkpt>
      <trkpt lat="42.4146910" lon="-6.5288350">
        <ele>1539.3</ele>
        <time>2014-10-01T07:27:21Z</time>
      </trkpt>
      <trkpt lat="42.4146600" lon="-6.5288350">
        <ele>1539.5</ele>
        <time>2014-10-01T07:27:22Z</time>
      </trkpt>
      <trkpt lat="42.4146300" lon="-6.5288340">
        <ele>1539.7</ele>
        <time>2014-10-01T07:27:23Z</time>
      </trkpt>
      <trkpt lat="42.4146000" lon="-6.5288340">
        <ele>1540.0</ele>
        <time>2014-10-01T07:27:24Z</time>
      </trkpt>
      <trkpt lat="42.4145710" lon="-6.5288310">
        <ele>1540.2</ele>
        <time>2014-10-01T07:27:25Z</time>
      </trkpt>
      <trkpt lat="42.4145380" lon="-6.5288270">
        <ele>1540.5</ele>
        <time>2014-10-01T07:27:26Z</time>
      </trkpt>
      <trkpt lat="42.4145070" lon="-6.5288230">
        <ele>1540.8</ele>
        <time>2014-10-01T07:27:27Z</time>
      </trkpt>
      <trkpt lat="42.4144760" lon="-6.5288210">
        <ele>1541.0</ele>
        <time>2014-10-01T07:27:28Z</time>
      </trkpt>
      <trkpt lat="42.4144460" lon="-6.5288180">
        <ele>1541.3</ele>
        <time>2014-10-01T07:27:29Z</time>
      </trkpt>
      <trkpt lat="42.4144160" lon="-6.5288150">
        <ele>1541.7</ele>
        <time>2014-10-01T07:27:30Z</time>
      </trkpt>
      <trkpt lat="42.4143810" lon="-6.5288100">
        <ele>1542.0</ele>
        <time>2014-10-01T07:27:31Z</time>
      </trkpt>
      <trkpt lat="42.4143500" lon="-6.5288070">
        <ele>1542.3</ele>
        <time>2014-10-01T07:27:32Z</time>
      </trkpt>
      <trkpt lat="42.4143190" lon="-6.5288040">
        <ele>1542.7</ele>
        <time>2014-10-01T07:27:33Z</time>
      </trkpt>
      <trkpt lat="42.4142880" lon="-6.5288010">
        <ele>1543.0</ele>
        <time>2014-10-01T07:27:34Z</time>
      </trkpt>
      <trkpt lat="42.4142570" lon="-6.5287970">
        <ele>1543.4</ele>
        <time>2014-10-01T07:27:35Z</time>
      </trkpt>
      <trkpt lat="42.4142270" lon="-6.5287930">
        <ele>1543.7</ele>
        <time>2014-10-01T07:27:36Z</time>
      </trkpt>
      <trkpt lat="42.4141940" lon="-6.5287890">
        <ele>1544.1</ele>
        <time>2014-10-01T07:27:37Z</time>
      </trkpt>
      <trkpt lat="42.4141610" lon="-6.5287850">
        <ele>1544.5</ele>
        <time>2014-10-01T07:27:38Z</time>
      </trkpt>
      <trkpt lat="42.4141280" lon="-6.5287830">
        <ele>1544.9</ele>
        <time>2014-10-01T07:27:39Z</time>
      </trkpt>
      <trkpt lat="42.4140930" lon="-6.5287810">
        <ele>1545.3</ele>
        <time>2014-10-01T07:27:40Z</time>
      </trkpt>
      <trkpt lat="42.4140630" lon="-6.5287800">
        <ele>1545.6</ele>
        <time>2014-10-01T07:27:41Z</time>
      </trkpt>
      <trkpt lat="42.4140300" lon="-6.5287780">
        <ele>1546.0</ele>
        <time>2014-10-01T07:27:42Z</time>
      </trkpt>
      <trkpt lat="42.4140000" lon="-6.5287750">
        <ele>1546.4</ele>
        <time>2014-10-01T07:27:43Z</time>
      </trkpt>
      <trkpt lat="42.4139690" lon="-6.5287730">
        <ele>1546.7</ele>
        <time>2014-10-01T07:27:44Z</time>
      </trkpt>
      <trkpt lat="42.4139340" lon="-6.5287700">
        <ele>1547.1</ele>
        <time>2014-10-01T07:27:45Z</time>
      </trkpt>
      <trkpt lat="42.4139070" lon="-6.5287680">
        <ele>1547.4</ele>
        <time>2014-10-01T07:27:46Z</time>
      </trkpt>
      <trkpt lat="42.4138780" lon="-6.5287640">
        <ele>1547.7</ele>
        <time>2014-10-01T07:27:47Z</time>
      </trkpt>
      <trkpt lat="42.4138480" lon="-6.5287610">
        <ele>1548.1</ele>
        <time>2014-10-01T07:27:48Z</time>
      </trkpt>
      <trkpt lat="42.4138170" lon="-6.5287570">
        <ele>1548.4</ele>
        <time>2014-10-01T07:27:49Z</time>
      </trkpt>
      <trkpt lat="42.4137870" lon="-6.5287540">
        <ele>1548.7</ele>
        <time>2014-10-01T07:27:50Z</time>
      </trkpt>
      <trkpt lat="42.4137580" lon="-6.5287510">
        <ele>1548.9</ele>
        <time>2014-10-01T07:27:51Z</time>
      </trkpt>
      <trkpt lat="42.4137230" lon="-6.5287470">
        <ele>1549.2</ele>
        <time>2014-10-01T07:27:52Z</time>
      </trkpt>
      <trkpt lat="42.4136890" lon="-6.5287430">
        <ele>1549.5</ele>
        <time>2014-10-01T07:27:53Z</time>
      </trkpt>
      <trkpt lat="42.4136550" lon="-6.5287380">
        <ele>1549.8</ele>
        <time>2014-10-01T07:27:54Z</time>
      </trkpt>
      <trkpt lat="42.4136210" lon="-6.5287330">
        <ele>1550.1</ele>
        <time>2014-10-01T07:27:55Z</time>
      </trkpt>
      <trkpt lat="42.4135900" lon="-6.5287310">
        <ele>1550.3</ele>
        <time>2014-10-01T07:27:56Z</time>
      </trkpt>
      <trkpt lat="42.4135630" lon="-6.5287250">
        <ele>1550.5</ele>
        <time>2014-10-01T07:27:57Z</time>
      </trkpt>
      <trkpt lat="42.4135100" lon="-6.5287080">
        <ele>1551.0</ele>
        <time>2014-10-01T07:27:59Z</time>
      </trkpt>
      <trkpt lat="42.4134820" lon="-6.5287010">
        <ele>1551.2</ele>
        <time>2014-10-01T07:28:00Z</time>
      </trkpt>
      <trkpt lat="42.4134530" lon="-6.5286950">
        <ele>1551.5</ele>
        <time>2014-10-01T07:28:01Z</time>
      </trkpt>
      <trkpt lat="42.4133950" lon="-6.5286770">
        <ele>1552.1</ele>
        <time>2014-10-01T07:28:03Z</time>
      </trkpt>
      <trkpt lat="42.4133650" lon="-6.5286710">
        <ele>1552.4</ele>
        <time>2014-10-01T07:28:04Z</time>
      </trkpt>
      <trkpt lat="42.4133340" lon="-6.5286620">
        <ele>1552.7</ele>
        <time>2014-10-01T07:28:05Z</time>
      </trkpt>
      <trkpt lat="42.4133040" lon="-6.5286510">
        <ele>1553.0</ele>
        <time>2014-10-01T07:28:06Z</time>
      </trkpt>
      <trkpt lat="42.4132750" lon="-6.5286410">
        <ele>1553.2</ele>
        <time>2014-10-01T07:28:07Z</time>
      </trkpt>
      <trkpt lat="42.4132460" lon="-6.5286320">
        <ele>1553.5</ele>
        <time>2014-10-01T07:28:08Z</time>
      </trkpt>
      <trkpt lat="42.4132170" lon="-6.5286230">
        <ele>1553.8</ele>
        <time>2014-10-01T07:28:09Z</time>
      </trkpt>
      <trkpt lat="42.4131860" lon="-6.5286160">
        <ele>1554.0</ele>
        <time>2014-10-01T07:28:10Z</time>
      </trkpt>
      <trkpt lat="42.4131550" lon="-6.5286060">
        <ele>1554.3</ele>
        <time>2014-10-01T07:28:11Z</time>
      </trkpt>
      <trkpt lat="42.4131270" lon="-6.5285950">
        <ele>1554.6</ele>
        <time>2014-10-01T07:28:12Z</time>
      </trkpt>
      <trkpt lat="42.4130980" lon="-6.5285870">
        <ele>1554.9</ele>
        <time>2014-10-01T07:28:13Z</time>
      </trkpt>
      <trkpt lat="42.4130460" lon="-6.5285680">
        <ele>1555.3</ele>
        <time>2014-10-01T07:28:15Z</time>
      </trkpt>
      <trkpt lat="42.4129960" lon="-6.5285470">
        <ele>1555.8</ele>
        <time>2014-10-01T07:28:17Z</time>
      </trkpt>
      <trkpt lat="42.4129650" lon="-6.5285360">
        <ele>1556.1</ele>
        <time>2014-10-01T07:28:18Z</time>
      </trkpt>
      <trkpt lat="42.4129380" lon="-6.5285230">
        <ele>1556.4</ele>
        <time>2014-10-01T07:28:19Z</time>
      </trkpt>
      <trkpt lat="42.4129090" lon="-6.5285100">
        <ele>1556.7</ele>
        <time>2014-10-01T07:28:20Z</time>
      </trkpt>
      <trkpt lat="42.4128600" lon="-6.5284900">
        <ele>1557.3</ele>
        <time>2014-10-01T07:28:22Z</time>
      </trkpt>
      <trkpt lat="42.4128330" lon="-6.5284800">
        <ele>1557.6</ele>
        <time>2014-10-01T07:28:23Z</time>
      </trkpt>
      <trkpt lat="42.4128050" lon="-6.5284680">
        <ele>1557.9</ele>
        <time>2014-10-01T07:28:24Z</time>
      </trkpt>
      <trkpt lat="42.4127770" lon="-6.5284560">
        <ele>1558.2</ele>
        <time>2014-10-01T07:28:25Z</time>
      </trkpt>
      <trkpt lat="42.4127490" lon="-6.5284410">
        <ele>1558.5</ele>
        <time>2014-10-01T07:28:26Z</time>
      </trkpt>
      <trkpt lat="42.4127230" lon="-6.5284270">
        <ele>1558.8</ele>
        <time>2014-10-01T07:28:27Z</time>
      </trkpt>
      <trkpt lat="42.4126800" lon="-6.5283960">
        <ele>1559.3</ele>
        <time>2014-10-01T07:28:29Z</time>
      </trkpt>
      <trkpt lat="42.4126370" lon="-6.5283690">
        <ele>1559.8</ele>
        <time>2014-10-01T07:28:31Z</time>
      </trkpt>
      <trkpt lat="42.4125930" lon="-6.5283480">
        <ele>1560.3</ele>
        <time>2014-10-01T07:28:33Z</time>
      </trkpt>
      <trkpt lat="42.4125540" lon="-6.5283300">
        <ele>1560.7</ele>
        <time>2014-10-01T07:28:35Z</time>
      </trkpt>
      <trkpt lat="42.4125060" lon="-6.5283100">
        <ele>1561.2</ele>
        <time>2014-10-01T07:28:37Z</time>
      </trkpt>
      <trkpt lat="42.4124630" lon="-6.5282970">
        <ele>1561.6</ele>
        <time>2014-10-01T07:28:39Z</time>
      </trkpt>
      <trkpt lat="42.4124190" lon="-6.5282890">
        <ele>1562.0</ele>
        <time>2014-10-01T07:28:41Z</time>
      </trkpt>
      <trkpt lat="42.4123720" lon="-6.5282790">
        <ele>1562.5</ele>
        <time>2014-10-01T07:28:43Z</time>
      </trkpt>
      <trkpt lat="42.4123240" lon="-6.5282710">
        <ele>1562.9</ele>
        <time>2014-10-01T07:28:45Z</time>
      </trkpt>
      <trkpt lat="42.4122750" lon="-6.5282620">
        <ele>1563.3</ele>
        <time>2014-10-01T07:28:47Z</time>
      </trkpt>
      <trkpt lat="42.4122220" lon="-6.5282430">
        <ele>1563.7</ele>
        <time>2014-10-01T07:28:49Z</time>
      </trkpt>
      <trkpt lat="42.4121930" lon="-6.5282350">
        <ele>1564.0</ele>
        <time>2014-10-01T07:28:50Z</time>
      </trkpt>
      <trkpt lat="42.4121660" lon="-6.5282270">
        <ele>1564.2</ele>
        <time>2014-10-01T07:28:51Z</time>
      </trkpt>
      <trkpt lat="42.4121150" lon="-6.5282050">
        <ele>1564.7</ele>
        <time>2014-10-01T07:28:53Z</time>
      </trkpt>
      <trkpt lat="42.4120880" lon="-6.5281920">
        <ele>1564.9</ele>
        <time>2014-10-01T07:28:54Z</time>
      </trkpt>
      <trkpt lat="42.4120610" lon="-6.5281750">
        <ele>1565.2</ele>
        <time>2014-10-01T07:28:55Z</time>
      </trkpt>
      <trkpt lat="42.4120080" lon="-6.5281520">
        <ele>1565.8</ele>
        <time>2014-10-01T07:28:57Z</time>
      </trkpt>
      <trkpt lat="42.4119800" lon="-6.5281390">
        <ele>1566.1</ele>
        <time>2014-10-01T07:28:58Z</time>
      </trkpt>
      <trkpt lat="42.4119530" lon="-6.5281320">
        <ele>1566.3</ele>
        <time>2014-10-01T07:28:59Z</time>
      </trkpt>
      <trkpt lat="42.4119260" lon="-6.5281260">
        <ele>1566.6</ele>
        <time>2014-10-01T07:29:00Z</time>
      </trkpt>
      <trkpt lat="42.4118980" lon="-6.5281170">
        <ele>1566.9</ele>
        <time>2014-10-01T07:29:01Z</time>
      </trkpt>
      <trkpt lat="42.4118670" lon="-6.5281070">
        <ele>1567.1</ele>
        <time>2014-10-01T07:29:02Z</time>
      </trkpt>
      <trkpt lat="42.4118330" lon="-6.5280960">
        <ele>1567.5</ele>
        <time>2014-10-01T07:29:03Z</time>
      </trkpt>
      <trkpt lat="42.4118050" lon="-6.5280890">
        <ele>1567.7</ele>
        <time>2014-10-01T07:29:04Z</time>
      </trkpt>
      <trkpt lat="42.4117750" lon="-6.5280890">
        <ele>1568.0</ele>
        <time>2014-10-01T07:29:05Z</time>
      </trkpt>
      <trkpt lat="42.4117460" lon="-6.5280820">
        <ele>1568.2</ele>
        <time>2014-10-01T07:29:06Z</time>
      </trkpt>
      <trkpt lat="42.4117160" lon="-6.5280790">
        <ele>1568.5</ele>
        <time>2014-10-01T07:29:07Z</time>
      </trkpt>
      <trkpt lat="42.4116860" lon="-6.5280770">
        <ele>1568.8</ele>
        <time>2014-10-01T07:29:08Z</time>
      </trkpt>
      <trkpt lat="42.4116540" lon="-6.5280690">
        <ele>1569.1</ele>
        <time>2014-10-01T07:29:09Z</time>
      </trkpt>
      <trkpt lat="42.4116220" lon="-6.5280620">
        <ele>1569.3</ele>
        <time>2014-10-01T07:29:10Z</time>
      </trkpt>
      <trkpt lat="42.4115880" lon="-6.5280600">
        <ele>1569.6</ele>
        <time>2014-10-01T07:29:11Z</time>
      </trkpt>
      <trkpt lat="42.4115570" lon="-6.5280570">
        <ele>1569.9</ele>
        <time>2014-10-01T07:29:12Z</time>
      </trkpt>
      <trkpt lat="42.4115250" lon="-6.5280510">
        <ele>1570.2</ele>
        <time>2014-10-01T07:29:13Z</time>
      </trkpt>
      <trkpt lat="42.4114960" lon="-6.5280450">
        <ele>1570.4</ele>
        <time>2014-10-01T07:29:14Z</time>
      </trkpt>
      <trkpt lat="42.4114600" lon="-6.5280360">
        <ele>1570.7</ele>
        <time>2014-10-01T07:29:15Z</time>
      </trkpt>
      <trkpt lat="42.4114270" lon="-6.5280300">
        <ele>1571.0</ele>
        <time>2014-10-01T07:29:16Z</time>
      </trkpt>
      <trkpt lat="42.4113940" lon="-6.5280230">
        <ele>1571.2</ele>
        <time>2014-10-01T07:29:17Z</time>
      </trkpt>
      <trkpt lat="42.4113580" lon="-6.5280150">
        <ele>1571.5</ele>
        <time>2014-10-01T07:29:18Z</time>
      </trkpt>
      <trkpt lat="42.4113200" lon="-6.5280110">
        <ele>1571.8</ele>
        <time>2014-10-01T07:29:19Z</time>
      </trkpt>
      <trkpt lat="42.4112830" lon="-6.5280110">
        <ele>1572.1</ele>
        <time>2014-10-01T07:29:20Z</time>
      </trkpt>
      <trkpt lat="42.4112520" lon="-6.5280140">
        <ele>1572.4</ele>
        <time>2014-10-01T07:29:21Z</time>
      </trkpt>
      <trkpt lat="42.4112190" lon="-6.5280140">
        <ele>1572.6</ele>
        <time>2014-10-01T07:29:22Z</time>
      </trkpt>
      <trkpt lat="42.4111850" lon="-6.5280130">
        <ele>1572.9</ele>
        <time>2014-10-01T07:29:23Z</time>
      </trkpt>
      <trkpt lat="42.4111500" lon="-6.5280170">
        <ele>1573.2</ele>
        <time>2014-10-01T07:29:24Z</time>
      </trkpt>
      <trkpt lat="42.4111160" lon="-6.5280220">
        <ele>1573.4</ele>
        <time>2014-10-01T07:29:25Z</time>
      </trkpt>
      <trkpt lat="42.4110820" lon="-6.5280220">
        <ele>1573.7</ele>
        <time>2014-10-01T07:29:26Z</time>
      </trkpt>
      <trkpt lat="42.4110520" lon="-6.5280210">
        <ele>1573.9</ele>
        <time>2014-10-01T07:29:27Z</time>
      </trkpt>
      <trkpt lat="42.4110220" lon="-6.5280150">
        <ele>1574.1</ele>
        <time>2014-10-01T07:29:28Z</time>
      </trkpt>
      <trkpt lat="42.4109890" lon="-6.5280060">
        <ele>1574.3</ele>
        <time>2014-10-01T07:29:29Z</time>
      </trkpt>
      <trkpt lat="42.4109560" lon="-6.5279940">
        <ele>1574.5</ele>
        <time>2014-10-01T07:29:30Z</time>
      </trkpt>
      <trkpt lat="42.4109240" lon="-6.5279790">
        <ele>1574.6</ele>
        <time>2014-10-01T07:29:31Z</time>
      </trkpt>
      <trkpt lat="42.4108890" lon="-6.5279520">
        <ele>1574.8</ele>
        <time>2014-10-01T07:29:32Z</time>
      </trkpt>
      <trkpt lat="42.4108560" lon="-6.5279190">
        <ele>1575.1</ele>
        <time>2014-10-01T07:29:33Z</time>
      </trkpt>
      <trkpt lat="42.4108260" lon="-6.5278850">
        <ele>1575.4</ele>
        <time>2014-10-01T07:29:34Z</time>
      </trkpt>
      <trkpt lat="42.4108000" lon="-6.5278500">
        <ele>1575.7</ele>
        <time>2014-10-01T07:29:35Z</time>
      </trkpt>
      <trkpt lat="42.4107800" lon="-6.5278120">
        <ele>1575.9</ele>
        <time>2014-10-01T07:29:36Z</time>
      </trkpt>
      <trkpt lat="42.4107700" lon="-6.5277730">
        <ele>1576.1</ele>
        <time>2014-10-01T07:29:37Z</time>
      </trkpt>
      <trkpt lat="42.4107600" lon="-6.5277360">
        <ele>1576.3</ele>
        <time>2014-10-01T07:29:38Z</time>
      </trkpt>
      <trkpt lat="42.4107570" lon="-6.5276990">
        <ele>1576.5</ele>
        <time>2014-10-01T07:29:39Z</time>
      </trkpt>
      <trkpt lat="42.4107510" lon="-6.5276300">
        <ele>1576.9</ele>
        <time>2014-10-01T07:29:41Z</time>
      </trkpt>
      <trkpt lat="42.4107630" lon="-6.5275680">
        <ele>1577.2</ele>
        <time>2014-10-01T07:29:43Z</time>
      </trkpt>
      <trkpt lat="42.4107830" lon="-6.5275060">
        <ele>1577.6</ele>
        <time>2014-10-01T07:29:45Z</time>
      </trkpt>
      <trkpt lat="42.4107980" lon="-6.5274300">
        <ele>1578.0</ele>
        <time>2014-10-01T07:29:47Z</time>
      </trkpt>
      <trkpt lat="42.4108090" lon="-6.5273930">
        <ele>1578.2</ele>
        <time>2014-10-01T07:29:48Z</time>
      </trkpt>
      <trkpt lat="42.4108130" lon="-6.5273560">
        <ele>1578.4</ele>
        <time>2014-10-01T07:29:49Z</time>
      </trkpt>
      <trkpt lat="42.4108280" lon="-6.5273180">
        <ele>1578.6</ele>
        <time>2014-10-01T07:29:50Z</time>
      </trkpt>
      <trkpt lat="42.4108430" lon="-6.5272830">
        <ele>1578.8</ele>
        <time>2014-10-01T07:29:51Z</time>
      </trkpt>
      <trkpt lat="42.4108630" lon="-6.5272420">
        <ele>1579.1</ele>
        <time>2014-10-01T07:29:52Z</time>
      </trkpt>
      <trkpt lat="42.4108830" lon="-6.5272010">
        <ele>1579.4</ele>
        <time>2014-10-01T07:29:53Z</time>
      </trkpt>
      <trkpt lat="42.4109090" lon="-6.5271600">
        <ele>1579.6</ele>
        <time>2014-10-01T07:29:54Z</time>
      </trkpt>
      <trkpt lat="42.4109320" lon="-6.5271180">
        <ele>1579.9</ele>
        <time>2014-10-01T07:29:55Z</time>
      </trkpt>
      <trkpt lat="42.4109580" lon="-6.5270810">
        <ele>1580.2</ele>
        <time>2014-10-01T07:29:56Z</time>
      </trkpt>
      <trkpt lat="42.4109840" lon="-6.5270420">
        <ele>1580.5</ele>
        <time>2014-10-01T07:29:57Z</time>
      </trkpt>
      <trkpt lat="42.4110130" lon="-6.5270030">
        <ele>1580.8</ele>
        <time>2014-10-01T07:29:58Z</time>
      </trkpt>
      <trkpt lat="42.4110450" lon="-6.5269660">
        <ele>1581.0</ele>
        <time>2014-10-01T07:29:59Z</time>
      </trkpt>
      <trkpt lat="42.4110820" lon="-6.5269310">
        <ele>1581.4</ele>
        <time>2014-10-01T07:30:00Z</time>
      </trkpt>
      <trkpt lat="42.4111100" lon="-6.5268950">
        <ele>1581.6</ele>
        <time>2014-10-01T07:30:01Z</time>
      </trkpt>
      <trkpt lat="42.4111390" lon="-6.5268570">
        <ele>1581.9</ele>
        <time>2014-10-01T07:30:02Z</time>
      </trkpt>
      <trkpt lat="42.4111700" lon="-6.5268180">
        <ele>1582.2</ele>
        <time>2014-10-01T07:30:03Z</time>
      </trkpt>
      <trkpt lat="42.4112010" lon="-6.5267770">
        <ele>1582.5</ele>
        <time>2014-10-01T07:30:04Z</time>
      </trkpt>
      <trkpt lat="42.4112290" lon="-6.5267350">
        <ele>1582.8</ele>
        <time>2014-10-01T07:30:05Z</time>
      </trkpt>
      <trkpt lat="42.4112620" lon="-6.5266940">
        <ele>1583.2</ele>
        <time>2014-10-01T07:30:06Z</time>
      </trkpt>
      <trkpt lat="42.4112910" lon="-6.5266500">
        <ele>1583.5</ele>
        <time>2014-10-01T07:30:07Z</time>
      </trkpt>
      <trkpt lat="42.4113220" lon="-6.5266080">
        <ele>1583.8</ele>
        <time>2014-10-01T07:30:08Z</time>
      </trkpt>
      <trkpt lat="42.4113540" lon="-6.5265640">
        <ele>1584.1</ele>
        <time>2014-10-01T07:30:09Z</time>
      </trkpt>
      <trkpt lat="42.4113850" lon="-6.5265220">
        <ele>1584.4</ele>
        <time>2014-10-01T07:30:10Z</time>
      </trkpt>
      <trkpt lat="42.4114150" lon="-6.5264800">
        <ele>1584.7</ele>
        <time>2014-10-01T07:30:11Z</time>
      </trkpt>
      <trkpt lat="42.4114460" lon="-6.5264380">
        <ele>1585.0</ele>
        <time>2014-10-01T07:30:12Z</time>
      </trkpt>
      <trkpt lat="42.4114780" lon="-6.5263990">
        <ele>1585.3</ele>
        <time>2014-10-01T07:30:13Z</time>
      </trkpt>
      <trkpt lat="42.4115090" lon="-6.5263570">
        <ele>1585.7</ele>
        <time>2014-10-01T07:30:14Z</time>
      </trkpt>
      <trkpt lat="42.4115390" lon="-6.5263150">
        <ele>1586.0</ele>
        <time>2014-10-01T07:30:15Z</time>
      </trkpt>
      <trkpt lat="42.4115660" lon="-6.5262720">
        <ele>1586.3</ele>
        <time>2014-10-01T07:30:16Z</time>
      </trkpt>
      <trkpt lat="42.4115900" lon="-6.5262310">
        <ele>1586.5</ele>
        <time>2014-10-01T07:30:17Z</time>
      </trkpt>
      <trkpt lat="42.4116190" lon="-6.5261910">
        <ele>1586.8</ele>
        <time>2014-10-01T07:30:18Z</time>
      </trkpt>
      <trkpt lat="42.4116480" lon="-6.5261470">
        <ele>1587.1</ele>
        <time>2014-10-01T07:30:19Z</time>
      </trkpt>
      <trkpt lat="42.4116760" lon="-6.5261080">
        <ele>1587.4</ele>
        <time>2014-10-01T07:30:20Z</time>
      </trkpt>
      <trkpt lat="42.4117050" lon="-6.5260690">
        <ele>1587.7</ele>
        <time>2014-10-01T07:30:21Z</time>
      </trkpt>
      <trkpt lat="42.4117320" lon="-6.5260280">
        <ele>1588.0</ele>
        <time>2014-10-01T07:30:22Z</time>
      </trkpt>
      <trkpt lat="42.4117600" lon="-6.5259900">
        <ele>1588.3</ele>
        <time>2014-10-01T07:30:23Z</time>
      </trkpt>
      <trkpt lat="42.4117900" lon="-6.5259520">
        <ele>1588.6</ele>
        <time>2014-10-01T07:30:24Z</time>
      </trkpt>
      <trkpt lat="42.4118200" lon="-6.5259140">
        <ele>1588.9</ele>
        <time>2014-10-01T07:30:25Z</time>
      </trkpt>
      <trkpt lat="42.4118490" lon="-6.5258760">
        <ele>1589.2</ele>
        <time>2014-10-01T07:30:26Z</time>
      </trkpt>
      <trkpt lat="42.4118750" lon="-6.5258340">
        <ele>1589.4</ele>
        <time>2014-10-01T07:30:27Z</time>
      </trkpt>
      <trkpt lat="42.4119010" lon="-6.5257960">
        <ele>1589.7</ele>
        <time>2014-10-01T07:30:28Z</time>
      </trkpt>
      <trkpt lat="42.4119250" lon="-6.5257590">
        <ele>1590.0</ele>
        <time>2014-10-01T07:30:29Z</time>
      </trkpt>
      <trkpt lat="42.4119490" lon="-6.5257250">
        <ele>1590.2</ele>
        <time>2014-10-01T07:30:30Z</time>
      </trkpt>
      <trkpt lat="42.4119720" lon="-6.5256880">
        <ele>1590.5</ele>
        <time>2014-10-01T07:30:31Z</time>
      </trkpt>
      <trkpt lat="42.4119910" lon="-6.5256530">
        <ele>1590.7</ele>
        <time>2014-10-01T07:30:32Z</time>
      </trkpt>
      <trkpt lat="42.4120070" lon="-6.5256190">
        <ele>1590.9</ele>
        <time>2014-10-01T07:30:33Z</time>
      </trkpt>
      <trkpt lat="42.4120260" lon="-6.5255850">
        <ele>1591.1</ele>
        <time>2014-10-01T07:30:34Z</time>
      </trkpt>
      <trkpt lat="42.4120440" lon="-6.5255490">
        <ele>1591.4</ele>
        <time>2014-10-01T07:30:35Z</time>
      </trkpt>
      <trkpt lat="42.4120610" lon="-6.5255130">
        <ele>1591.6</ele>
        <time>2014-10-01T07:30:36Z</time>
      </trkpt>
      <trkpt lat="42.4120750" lon="-6.5254770">
        <ele>1591.8</ele>
        <time>2014-10-01T07:30:37Z</time>
      </trkpt>
      <trkpt lat="42.4120910" lon="-6.5254440">
        <ele>1592.0</ele>
        <time>2014-10-01T07:30:38Z</time>
      </trkpt>
      <trkpt lat="42.4121070" lon="-6.5254120">
        <ele>1592.2</ele>
        <time>2014-10-01T07:30:39Z</time>
      </trkpt>
      <trkpt lat="42.4121230" lon="-6.5253800">
        <ele>1592.4</ele>
        <time>2014-10-01T07:30:40Z</time>
      </trkpt>
      <trkpt lat="42.4121420" lon="-6.5253510">
        <ele>1592.6</ele>
        <time>2014-10-01T07:30:41Z</time>
      </trkpt>
      <trkpt lat="42.4121640" lon="-6.5253190">
        <ele>1592.8</ele>
        <time>2014-10-01T07:30:42Z</time>
      </trkpt>
      <trkpt lat="42.4121830" lon="-6.5252890">
        <ele>1593.1</ele>
        <time>2014-10-01T07:30:43Z</time>
      </trkpt>
      <trkpt lat="42.4122030" lon="-6.5252600">
        <ele>1593.3</ele>
        <time>2014-10-01T07:30:44Z</time>
      </trkpt>
      <trkpt lat="42.4122250" lon="-6.5252290">
        <ele>1593.5</ele>
        <time>2014-10-01T07:30:45Z</time>
      </trkpt>
      <trkpt lat="42.4122470" lon="-6.5251990">
        <ele>1593.7</ele>
        <time>2014-10-01T07:30:46Z</time>
      </trkpt>
      <trkpt lat="42.4122740" lon="-6.5251720">
        <ele>1594.0</ele>
        <time>2014-10-01T07:30:47Z</time>
      </trkpt>
      <trkpt lat="42.4122960" lon="-6.5251450">
        <ele>1594.2</ele>
        <time>2014-10-01T07:30:48Z</time>
      </trkpt>
      <trkpt lat="42.4123190" lon="-6.5251190">
        <ele>1594.4</ele>
        <time>2014-10-01T07:30:49Z</time>
      </trkpt>
      <trkpt lat="42.4123420" lon="-6.5250930">
        <ele>1594.6</ele>
        <time>2014-10-01T07:30:50Z</time>
      </trkpt>
      <trkpt lat="42.4123640" lon="-6.5250680">
        <ele>1594.8</ele>
        <time>2014-10-01T07:30:51Z</time>
      </trkpt>
      <trkpt lat="42.4123850" lon="-6.5250420">
        <ele>1595.0</ele>
        <time>2014-10-01T07:30:52Z</time>
      </trkpt>
      <trkpt lat="42.4124060" lon="-6.5250170">
        <ele>1595.2</ele>
        <time>2014-10-01T07:30:53Z</time>
      </trkpt>
      <trkpt lat="42.4124280" lon="-6.5249880">
        <ele>1595.4</ele>
        <time>2014-10-01T07:30:54Z</time>
      </trkpt>
      <trkpt lat="42.4124480" lon="-6.5249600">
        <ele>1595.6</ele>
        <time>2014-10-01T07:30:55Z</time>
      </trkpt>
      <trkpt lat="42.4124670" lon="-6.5249310">
        <ele>1595.8</ele>
        <time>2014-10-01T07:30:56Z</time>
      </trkpt>
      <trkpt lat="42.4124850" lon="-6.5249010">
        <ele>1596.0</ele>
        <time>2014-10-01T07:30:57Z</time>
      </trkpt>
      <trkpt lat="42.4125020" lon="-6.5248700">
        <ele>1596.2</ele>
        <time>2014-10-01T07:30:58Z</time>
      </trkpt>
      <trkpt lat="42.4125180" lon="-6.5248370">
        <ele>1596.4</ele>
        <time>2014-10-01T07:30:59Z</time>
      </trkpt>
      <trkpt lat="42.4125330" lon="-6.5248070">
        <ele>1596.6</ele>
        <time>2014-10-01T07:31:00Z</time>
      </trkpt>
      <trkpt lat="42.4125560" lon="-6.5247390">
        <ele>1597.0</ele>
        <time>2014-10-01T07:31:02Z</time>
      </trkpt>
      <trkpt lat="42.4125750" lon="-6.5247090">
        <ele>1597.2</ele>
        <time>2014-10-01T07:31:03Z</time>
      </trkpt>
      <trkpt lat="42.4125910" lon="-6.5246770">
        <ele>1597.4</ele>
        <time>2014-10-01T07:31:04Z</time>
      </trkpt>
      <trkpt lat="42.4126080" lon="-6.5246480">
        <ele>1597.6</ele>
        <time>2014-10-01T07:31:05Z</time>
      </trkpt>
      <trkpt lat="42.4126250" lon="-6.5246180">
        <ele>1597.8</ele>
        <time>2014-10-01T07:31:06Z</time>
      </trkpt>
      <trkpt lat="42.4126430" lon="-6.5245890">
        <ele>1598.0</ele>
        <time>2014-10-01T07:31:07Z</time>
      </trkpt>
      <trkpt lat="42.4126620" lon="-6.5245580">
        <ele>1598.2</ele>
        <time>2014-10-01T07:31:08Z</time>
      </trkpt>
      <trkpt lat="42.4126780" lon="-6.5245270">
        <ele>1598.4</ele>
        <time>2014-10-01T07:31:09Z</time>
      </trkpt>
      <trkpt lat="42.4126940" lon="-6.5244980">
        <ele>1598.6</ele>
        <time>2014-10-01T07:31:10Z</time>
      </trkpt>
      <trkpt lat="42.4127060" lon="-6.5244650">
        <ele>1598.8</ele>
        <time>2014-10-01T07:31:11Z</time>
      </trkpt>
      <trkpt lat="42.4127330" lon="-6.5244160">
        <ele>1599.1</ele>
        <time>2014-10-01T07:31:13Z</time>
      </trkpt>
      <trkpt lat="42.4127560" lon="-6.5243650">
        <ele>1599.4</ele>
        <time>2014-10-01T07:31:15Z</time>
      </trkpt>
      <trkpt lat="42.4127840" lon="-6.5243070">
        <ele>1599.8</ele>
        <time>2014-10-01T07:31:17Z</time>
      </trkpt>
      <trkpt lat="42.4128120" lon="-6.5242540">
        <ele>1600.2</ele>
        <time>2014-10-01T07:31:19Z</time>
      </trkpt>
      <trkpt lat="42.4128430" lon="-6.5241950">
        <ele>1600.5</ele>
        <time>2014-10-01T07:31:21Z</time>
      </trkpt>
      <trkpt lat="42.4128620" lon="-6.5241670">
        <ele>1600.7</ele>
        <time>2014-10-01T07:31:22Z</time>
      </trkpt>
      <trkpt lat="42.4128790" lon="-6.5241360">
        <ele>1600.9</ele>
        <time>2014-10-01T07:31:23Z</time>
      </trkpt>
      <trkpt lat="42.4128980" lon="-6.5241090">
        <ele>1601.1</ele>
        <time>2014-10-01T07:31:24Z</time>
      </trkpt>
      <trkpt lat="42.4129170" lon="-6.5240840">
        <ele>1601.3</ele>
        <time>2014-10-01T07:31:25Z</time>
      </trkpt>
      <trkpt lat="42.4129530" lon="-6.5240280">
        <ele>1601.7</ele>
        <time>2014-10-01T07:31:27Z</time>
      </trkpt>
      <trkpt lat="42.4129780" lon="-6.5239760">
        <ele>1602.0</ele>
        <time>2014-10-01T07:31:29Z</time>
      </trkpt>
      <trkpt lat="42.4130020" lon="-6.5239230">
        <ele>1602.4</ele>
        <time>2014-10-01T07:31:31Z</time>
      </trkpt>
      <trkpt lat="42.4130200" lon="-6.5238950">
        <ele>1602.6</ele>
        <time>2014-10-01T07:31:32Z</time>
      </trkpt>
      <trkpt lat="42.4130380" lon="-6.5238660">
        <ele>1602.8</ele>
        <time>2014-10-01T07:31:33Z</time>
      </trkpt>
      <trkpt lat="42.4130550" lon="-6.5238350">
        <ele>1603.0</ele>
        <time>2014-10-01T07:31:34Z</time>
      </trkpt>
      <trkpt lat="42.4130710" lon="-6.5238000">
        <ele>1603.2</ele>
        <time>2014-10-01T07:31:35Z</time>
      </trkpt>
      <trkpt lat="42.4130890" lon="-6.5237690">
        <ele>1603.4</ele>
        <time>2014-10-01T07:31:36Z</time>
      </trkpt>
      <trkpt lat="42.4131070" lon="-6.5237080">
        <ele>1603.7</ele>
        <time>2014-10-01T07:31:38Z</time>
      </trkpt>
      <trkpt lat="42.4131210" lon="-6.5236420">
        <ele>1608.2</ele>
        <time>2014-10-01T07:31:40Z</time>
      </trkpt>
      <trkpt lat="42.4131260" lon="-6.5236060">
        <ele>1608.7</ele>
        <time>2014-10-01T07:31:41Z</time>
      </trkpt>
      <trkpt lat="42.4131410" lon="-6.5235710">
        <ele>1609.7</ele>
        <time>2014-10-01T07:31:42Z</time>
      </trkpt>
      <trkpt lat="42.4131520" lon="-6.5235330">
        <ele>1611.6</ele>
        <time>2014-10-01T07:31:43Z</time>
      </trkpt>
      <trkpt lat="42.4131630" lon="-6.5234900">
        <ele>1611.9</ele>
        <time>2014-10-01T07:31:44Z</time>
      </trkpt>
      <trkpt lat="42.4131690" lon="-6.5234510">
        <ele>1613.1</ele>
        <time>2014-10-01T07:31:45Z</time>
      </trkpt>
      <trkpt lat="42.4131690" lon="-6.5233870">
        <ele>1614.2</ele>
        <time>2014-10-01T07:31:47Z</time>
      </trkpt>
      <trkpt lat="42.4131860" lon="-6.5233470">
        <ele>1614.8</ele>
        <time>2014-10-01T07:31:48Z</time>
      </trkpt>
      <trkpt lat="42.4132080" lon="-6.5233100">
        <ele>1613.9</ele>
        <time>2014-10-01T07:31:49Z</time>
      </trkpt>
      <trkpt lat="42.4132280" lon="-6.5232710">
        <ele>1612.9</ele>
        <time>2014-10-01T07:31:50Z</time>
      </trkpt>
      <trkpt lat="42.4132430" lon="-6.5232310">
        <ele>1613.3</ele>
        <time>2014-10-01T07:31:51Z</time>
      </trkpt>
      <trkpt lat="42.4132580" lon="-6.5231920">
        <ele>1612.2</ele>
        <time>2014-10-01T07:31:52Z</time>
      </trkpt>
      <trkpt lat="42.4132720" lon="-6.5231530">
        <ele>1612.6</ele>
        <time>2014-10-01T07:31:53Z</time>
      </trkpt>
      <trkpt lat="42.4132860" lon="-6.5231140">
        <ele>1613.1</ele>
        <time>2014-10-01T07:31:54Z</time>
      </trkpt>
      <trkpt lat="42.4132960" lon="-6.5230760">
        <ele>1612.2</ele>
        <time>2014-10-01T07:31:55Z</time>
      </trkpt>
      <trkpt lat="42.4133030" lon="-6.5230390">
        <ele>1612.7</ele>
        <time>2014-10-01T07:31:56Z</time>
      </trkpt>
      <trkpt lat="42.4133090" lon="-6.5230010">
        <ele>1613.3</ele>
        <time>2014-10-01T07:31:57Z</time>
      </trkpt>
      <trkpt lat="42.4133170" lon="-6.5229640">
        <ele>1613.8</ele>
        <time>2014-10-01T07:31:58Z</time>
      </trkpt>
      <trkpt lat="42.4133270" lon="-6.5229240">
        <ele>1613.0</ele>
        <time>2014-10-01T07:31:59Z</time>
      </trkpt>
      <trkpt lat="42.4133360" lon="-6.5228830">
        <ele>1613.5</ele>
        <time>2014-10-01T07:32:00Z</time>
      </trkpt>
      <trkpt lat="42.4133370" lon="-6.5228370">
        <ele>1614.0</ele>
        <time>2014-10-01T07:32:01Z</time>
      </trkpt>
      <trkpt lat="42.4133320" lon="-6.5227960">
        <ele>1614.5</ele>
        <time>2014-10-01T07:32:02Z</time>
      </trkpt>
      <trkpt lat="42.4133260" lon="-6.5227480">
        <ele>1614.9</ele>
        <time>2014-10-01T07:32:03Z</time>
      </trkpt>
      <trkpt lat="42.4133150" lon="-6.5227100">
        <ele>1616.7</ele>
        <time>2014-10-01T07:32:04Z</time>
      </trkpt>
      <trkpt lat="42.4132930" lon="-6.5226500">
        <ele>1616.9</ele>
        <time>2014-10-01T07:32:06Z</time>
      </trkpt>
      <trkpt lat="42.4132770" lon="-6.5226100">
        <ele>1618.6</ele>
        <time>2014-10-01T07:32:08Z</time>
      </trkpt>
      <trkpt lat="42.4132800" lon="-6.5225670">
        <ele>1619.0</ele>
        <time>2014-10-01T07:32:11Z</time>
      </trkpt>
      <trkpt lat="42.4133130" lon="-6.5225330">
        <ele>1618.2</ele>
        <time>2014-10-01T07:32:14Z</time>
      </trkpt>
      <trkpt lat="42.4133340" lon="-6.5225100">
        <ele>1617.1</ele>
        <time>2014-10-01T07:32:16Z</time>
      </trkpt>
      <trkpt lat="42.4133550" lon="-6.5224720">
        <ele>1616.1</ele>
        <time>2014-10-01T07:32:19Z</time>
      </trkpt>
      <trkpt lat="42.4133480" lon="-6.5224280">
        <ele>1617.7</ele>
        <time>2014-10-01T07:32:22Z</time>
      </trkpt>
      <trkpt lat="42.4133280" lon="-6.5223930">
        <ele>1617.9</ele>
        <time>2014-10-01T07:32:24Z</time>
      </trkpt>
      <trkpt lat="42.4133050" lon="-6.5223680">
        <ele>1619.7</ele>
        <time>2014-10-01T07:32:26Z</time>
      </trkpt>
      <trkpt lat="42.4132960" lon="-6.5223320">
        <ele>1619.9</ele>
        <time>2014-10-01T07:32:28Z</time>
      </trkpt>
      <trkpt lat="42.4132810" lon="-6.5222970">
        <ele>1621.3</ele>
        <time>2014-10-01T07:32:30Z</time>
      </trkpt>
      <trkpt lat="42.4132750" lon="-6.5222440">
        <ele>1621.4</ele>
        <time>2014-10-01T07:32:33Z</time>
      </trkpt>
      <trkpt lat="42.4132510" lon="-6.5222080">
        <ele>1622.6</ele>
        <time>2014-10-01T07:32:35Z</time>
      </trkpt>
      <trkpt lat="42.4132450" lon="-6.5221630">
        <ele>1622.6</ele>
        <time>2014-10-01T07:32:38Z</time>
      </trkpt>
      <trkpt lat="42.4132750" lon="-6.5221370">
        <ele>1621.5</ele>
        <time>2014-10-01T07:32:40Z</time>
      </trkpt>
      <trkpt lat="42.4132820" lon="-6.5220930">
        <ele>1621.5</ele>
        <time>2014-10-01T07:32:43Z</time>
      </trkpt>
      <trkpt lat="42.4132560" lon="-6.5220630">
        <ele>1621.7</ele>
        <time>2014-10-01T07:32:45Z</time>
      </trkpt>
      <trkpt lat="42.4132310" lon="-6.5220450">
        <ele>1621.9</ele>
        <time>2014-10-01T07:32:46Z</time>
      </trkpt>
      <trkpt lat="42.4131760" lon="-6.5220160">
        <ele>1622.4</ele>
        <time>2014-10-01T07:32:48Z</time>
      </trkpt>
      <trkpt lat="42.4131450" lon="-6.5220030">
        <ele>1622.6</ele>
        <time>2014-10-01T07:32:49Z</time>
      </trkpt>
      <trkpt lat="42.4131120" lon="-6.5219930">
        <ele>1622.9</ele>
        <time>2014-10-01T07:32:50Z</time>
      </trkpt>
      <trkpt lat="42.4130740" lon="-6.5219820">
        <ele>1623.1</ele>
        <time>2014-10-01T07:32:51Z</time>
      </trkpt>
      <trkpt lat="42.4130360" lon="-6.5219750">
        <ele>1623.4</ele>
        <time>2014-10-01T07:32:52Z</time>
      </trkpt>
      <trkpt lat="42.4129890" lon="-6.5219680">
        <ele>1623.8</ele>
        <time>2014-10-01T07:32:53Z</time>
      </trkpt>
      <trkpt lat="42.4129420" lon="-6.5219600">
        <ele>1624.1</ele>
        <time>2014-10-01T07:32:54Z</time>
      </trkpt>
      <trkpt lat="42.4128950" lon="-6.5219540">
        <ele>1624.4</ele>
        <time>2014-10-01T07:32:55Z</time>
      </trkpt>
      <trkpt lat="42.4128450" lon="-6.5219490">
        <ele>1624.8</ele>
        <time>2014-10-01T07:32:56Z</time>
      </trkpt>
      <trkpt lat="42.4128070" lon="-6.5219420">
        <ele>1625.1</ele>
        <time>2014-10-01T07:32:57Z</time>
      </trkpt>
      <trkpt lat="42.4127740" lon="-6.5219360">
        <ele>1625.3</ele>
        <time>2014-10-01T07:32:58Z</time>
      </trkpt>
      <trkpt lat="42.4127350" lon="-6.5219270">
        <ele>1625.6</ele>
        <time>2014-10-01T07:32:59Z</time>
      </trkpt>
      <trkpt lat="42.4126920" lon="-6.5219180">
        <ele>1625.9</ele>
        <time>2014-10-01T07:33:00Z</time>
      </trkpt>
      <trkpt lat="42.4126450" lon="-6.5219140">
        <ele>1626.3</ele>
        <time>2014-10-01T07:33:01Z</time>
      </trkpt>
      <trkpt lat="42.4125990" lon="-6.5219100">
        <ele>1626.6</ele>
        <time>2014-10-01T07:33:02Z</time>
      </trkpt>
      <trkpt lat="42.4125560" lon="-6.5219050">
        <ele>1626.9</ele>
        <time>2014-10-01T07:33:03Z</time>
      </trkpt>
      <trkpt lat="42.4125170" lon="-6.5218990">
        <ele>1627.2</ele>
        <time>2014-10-01T07:33:04Z</time>
      </trkpt>
      <trkpt lat="42.4124790" lon="-6.5218880">
        <ele>1627.5</ele>
        <time>2014-10-01T07:33:05Z</time>
      </trkpt>
      <trkpt lat="42.4124460" lon="-6.5218790">
        <ele>1627.7</ele>
        <time>2014-10-01T07:33:06Z</time>
      </trkpt>
      <trkpt lat="42.4124140" lon="-6.5218650">
        <ele>1628.0</ele>
        <time>2014-10-01T07:33:07Z</time>
      </trkpt>
      <trkpt lat="42.4123870" lon="-6.5218530">
        <ele>1628.2</ele>
        <time>2014-10-01T07:33:08Z</time>
      </trkpt>
      <trkpt lat="42.4123600" lon="-6.5218430">
        <ele>1628.4</ele>
        <time>2014-10-01T07:33:09Z</time>
      </trkpt>
      <trkpt lat="42.4123080" lon="-6.5218260">
        <ele>1628.8</ele>
        <time>2014-10-01T07:33:11Z</time>
      </trkpt>
      <trkpt lat="42.4122810" lon="-6.5218060">
        <ele>1629.0</ele>
        <time>2014-10-01T07:33:12Z</time>
      </trkpt>
      <trkpt lat="42.4122520" lon="-6.5217850">
        <ele>1629.3</ele>
        <time>2014-10-01T07:33:13Z</time>
      </trkpt>
      <trkpt lat="42.4122260" lon="-6.5217600">
        <ele>1629.5</ele>
        <time>2014-10-01T07:33:14Z</time>
      </trkpt>
      <trkpt lat="42.4121940" lon="-6.5217340">
        <ele>1629.8</ele>
        <time>2014-10-01T07:33:15Z</time>
      </trkpt>
      <trkpt lat="42.4121590" lon="-6.5217070">
        <ele>1630.1</ele>
        <time>2014-10-01T07:33:16Z</time>
      </trkpt>
      <trkpt lat="42.4121260" lon="-6.5216760">
        <ele>1630.3</ele>
        <time>2014-10-01T07:33:17Z</time>
      </trkpt>
      <trkpt lat="42.4121020" lon="-6.5216400">
        <ele>1630.6</ele>
        <time>2014-10-01T07:33:18Z</time>
      </trkpt>
      <trkpt lat="42.4120800" lon="-6.5216050">
        <ele>1630.9</ele>
        <time>2014-10-01T07:33:19Z</time>
      </trkpt>
      <trkpt lat="42.4120560" lon="-6.5215690">
        <ele>1631.1</ele>
        <time>2014-10-01T07:33:20Z</time>
      </trkpt>
      <trkpt lat="42.4120390" lon="-6.5215380">
        <ele>1631.3</ele>
        <time>2014-10-01T07:33:21Z</time>
      </trkpt>
      <trkpt lat="42.4120120" lon="-6.5215090">
        <ele>1631.6</ele>
        <time>2014-10-01T07:33:22Z</time>
      </trkpt>
      <trkpt lat="42.4119920" lon="-6.5214750">
        <ele>1631.8</ele>
        <time>2014-10-01T07:33:23Z</time>
      </trkpt>
      <trkpt lat="42.4119720" lon="-6.5214470">
        <ele>1632.0</ele>
        <time>2014-10-01T07:33:24Z</time>
      </trkpt>
      <trkpt lat="42.4119540" lon="-6.5214130">
        <ele>1632.2</ele>
        <time>2014-10-01T07:33:25Z</time>
      </trkpt>
      <trkpt lat="42.4119300" lon="-6.5213850">
        <ele>1632.5</ele>
        <time>2014-10-01T07:33:26Z</time>
      </trkpt>
      <trkpt lat="42.4119090" lon="-6.5213540">
        <ele>1632.7</ele>
        <time>2014-10-01T07:33:27Z</time>
      </trkpt>
      <trkpt lat="42.4118900" lon="-6.5213220">
        <ele>1632.9</ele>
        <time>2014-10-01T07:33:28Z</time>
      </trkpt>
      <trkpt lat="42.4118680" lon="-6.5212890">
        <ele>1633.2</ele>
        <time>2014-10-01T07:33:29Z</time>
      </trkpt>
      <trkpt lat="42.4118510" lon="-6.5212580">
        <ele>1633.4</ele>
        <time>2014-10-01T07:33:30Z</time>
      </trkpt>
      <trkpt lat="42.4118350" lon="-6.5212270">
        <ele>1633.6</ele>
        <time>2014-10-01T07:33:31Z</time>
      </trkpt>
      <trkpt lat="42.4118190" lon="-6.5211950">
        <ele>1633.8</ele>
        <time>2014-10-01T07:33:32Z</time>
      </trkpt>
      <trkpt lat="42.4117880" lon="-6.5211430">
        <ele>1634.1</ele>
        <time>2014-10-01T07:33:34Z</time>
      </trkpt>
      <trkpt lat="42.4117680" lon="-6.5211150">
        <ele>1634.3</ele>
        <time>2014-10-01T07:33:35Z</time>
      </trkpt>
      <trkpt lat="42.4117370" lon="-6.5210570">
        <ele>1634.7</ele>
        <time>2014-10-01T07:33:37Z</time>
      </trkpt>
      <trkpt lat="42.4117160" lon="-6.5210010">
        <ele>1635.1</ele>
        <time>2014-10-01T07:33:39Z</time>
      </trkpt>
      <trkpt lat="42.4116940" lon="-6.5209730">
        <ele>1635.3</ele>
        <time>2014-10-01T07:33:40Z</time>
      </trkpt>
      <trkpt lat="42.4116750" lon="-6.5209440">
        <ele>1635.5</ele>
        <time>2014-10-01T07:33:41Z</time>
      </trkpt>
      <trkpt lat="42.4116490" lon="-6.5209150">
        <ele>1635.7</ele>
        <time>2014-10-01T07:33:42Z</time>
      </trkpt>
      <trkpt lat="42.4116270" lon="-6.5208880">
        <ele>1636.0</ele>
        <time>2014-10-01T07:33:43Z</time>
      </trkpt>
      <trkpt lat="42.4116080" lon="-6.5208570">
        <ele>1636.2</ele>
        <time>2014-10-01T07:33:44Z</time>
      </trkpt>
      <trkpt lat="42.4115910" lon="-6.5208290">
        <ele>1636.4</ele>
        <time>2014-10-01T07:33:45Z</time>
      </trkpt>
      <trkpt lat="42.4115490" lon="-6.5207690">
        <ele>1636.8</ele>
        <time>2014-10-01T07:33:47Z</time>
      </trkpt>
      <trkpt lat="42.4115150" lon="-6.5207110">
        <ele>1637.2</ele>
        <time>2014-10-01T07:33:49Z</time>
      </trkpt>
      <trkpt lat="42.4114950" lon="-6.5206810">
        <ele>1637.4</ele>
        <time>2014-10-01T07:33:50Z</time>
      </trkpt>
      <trkpt lat="42.4114660" lon="-6.5206340">
        <ele>1637.8</ele>
        <time>2014-10-01T07:33:52Z</time>
      </trkpt>
      <trkpt lat="42.4114350" lon="-6.5205790">
        <ele>1638.1</ele>
        <time>2014-10-01T07:33:54Z</time>
      </trkpt>
      <trkpt lat="42.4114060" lon="-6.5205210">
        <ele>1638.5</ele>
        <time>2014-10-01T07:33:56Z</time>
      </trkpt>
      <trkpt lat="42.4113890" lon="-6.5204890">
        <ele>1638.7</ele>
        <time>2014-10-01T07:33:57Z</time>
      </trkpt>
      <trkpt lat="42.4113760" lon="-6.5204540">
        <ele>1638.9</ele>
        <time>2014-10-01T07:33:58Z</time>
      </trkpt>
      <trkpt lat="42.4113610" lon="-6.5204220">
        <ele>1639.1</ele>
        <time>2014-10-01T07:33:59Z</time>
      </trkpt>
      <trkpt lat="42.4113380" lon="-6.5203880">
        <ele>1639.4</ele>
        <time>2014-10-01T07:34:00Z</time>
      </trkpt>
      <trkpt lat="42.4113220" lon="-6.5203530">
        <ele>1639.6</ele>
        <time>2014-10-01T07:34:01Z</time>
      </trkpt>
      <trkpt lat="42.4113090" lon="-6.5203190">
        <ele>1639.8</ele>
        <time>2014-10-01T07:34:02Z</time>
      </trkpt>
      <trkpt lat="42.4112930" lon="-6.5202810">
        <ele>1640.0</ele>
        <time>2014-10-01T07:34:03Z</time>
      </trkpt>
      <trkpt lat="42.4112700" lon="-6.5202130">
        <ele>1640.4</ele>
        <time>2014-10-01T07:34:05Z</time>
      </trkpt>
      <trkpt lat="42.4112480" lon="-6.5201510">
        <ele>1640.8</ele>
        <time>2014-10-01T07:34:07Z</time>
      </trkpt>
      <trkpt lat="42.4112350" lon="-6.5200890">
        <ele>1641.2</ele>
        <time>2014-10-01T07:34:09Z</time>
      </trkpt>
      <trkpt lat="42.4112170" lon="-6.5200230">
        <ele>1641.5</ele>
        <time>2014-10-01T07:34:11Z</time>
      </trkpt>
      <trkpt lat="42.4112090" lon="-6.5199840">
        <ele>1641.8</ele>
        <time>2014-10-01T07:34:12Z</time>
      </trkpt>
      <trkpt lat="42.4111980" lon="-6.5199450">
        <ele>1641.9</ele>
        <time>2014-10-01T07:34:13Z</time>
      </trkpt>
      <trkpt lat="42.4111880" lon="-6.5199030">
        <ele>1642.3</ele>
        <time>2014-10-01T07:34:14Z</time>
      </trkpt>
      <trkpt lat="42.4111790" lon="-6.5198610">
        <ele>1642.7</ele>
        <time>2014-10-01T07:34:15Z</time>
      </trkpt>
      <trkpt lat="42.4111690" lon="-6.5198230">
        <ele>1643.0</ele>
        <time>2014-10-01T07:34:16Z</time>
      </trkpt>
      <trkpt lat="42.4111610" lon="-6.5197850">
        <ele>1643.2</ele>
        <time>2014-10-01T07:34:17Z</time>
      </trkpt>
      <trkpt lat="42.4111580" lon="-6.5197450">
        <ele>1643.4</ele>
        <time>2014-10-01T07:34:18Z</time>
      </trkpt>
      <trkpt lat="42.4111570" lon="-6.5197020">
        <ele>1643.6</ele>
        <time>2014-10-01T07:34:19Z</time>
      </trkpt>
      <trkpt lat="42.4111510" lon="-6.5196600">
        <ele>1643.8</ele>
        <time>2014-10-01T07:34:20Z</time>
      </trkpt>
      <trkpt lat="42.4111440" lon="-6.5196170">
        <ele>1644.0</ele>
        <time>2014-10-01T07:34:21Z</time>
      </trkpt>
      <trkpt lat="42.4111380" lon="-6.5195720">
        <ele>1644.2</ele>
        <time>2014-10-01T07:34:22Z</time>
      </trkpt>
      <trkpt lat="42.4111360" lon="-6.5195330">
        <ele>1644.4</ele>
        <time>2014-10-01T07:34:23Z</time>
      </trkpt>
      <trkpt lat="42.4111290" lon="-6.5194910">
        <ele>1644.6</ele>
        <time>2014-10-01T07:34:24Z</time>
      </trkpt>
      <trkpt lat="42.4111220" lon="-6.5194440">
        <ele>1644.9</ele>
        <time>2014-10-01T07:34:25Z</time>
      </trkpt>
      <trkpt lat="42.4111190" lon="-6.5194040">
        <ele>1645.2</ele>
        <time>2014-10-01T07:34:26Z</time>
      </trkpt>
      <trkpt lat="42.4111160" lon="-6.5193570">
        <ele>1645.5</ele>
        <time>2014-10-01T07:34:27Z</time>
      </trkpt>
      <trkpt lat="42.4111090" lon="-6.5193150">
        <ele>1645.7</ele>
        <time>2014-10-01T07:34:28Z</time>
      </trkpt>
      <trkpt lat="42.4111100" lon="-6.5192760">
        <ele>1646.0</ele>
        <time>2014-10-01T07:34:29Z</time>
      </trkpt>
      <trkpt lat="42.4111110" lon="-6.5192350">
        <ele>1646.2</ele>
        <time>2014-10-01T07:34:30Z</time>
      </trkpt>
      <trkpt lat="42.4111070" lon="-6.5191890">
        <ele>1646.5</ele>
        <time>2014-10-01T07:34:31Z</time>
      </trkpt>
      <trkpt lat="42.4111030" lon="-6.5191470">
        <ele>1646.7</ele>
        <time>2014-10-01T07:34:32Z</time>
      </trkpt>
      <trkpt lat="42.4111020" lon="-6.5190730">
        <ele>1647.0</ele>
        <time>2014-10-01T07:34:34Z</time>
      </trkpt>
      <trkpt lat="42.4110990" lon="-6.5190340">
        <ele>1647.2</ele>
        <time>2014-10-01T07:34:35Z</time>
      </trkpt>
      <trkpt lat="42.4110930" lon="-6.5189910">
        <ele>1647.4</ele>
        <time>2014-10-01T07:34:36Z</time>
      </trkpt>
      <trkpt lat="42.4110810" lon="-6.5189540">
        <ele>1647.5</ele>
        <time>2014-10-01T07:34:37Z</time>
      </trkpt>
      <trkpt lat="42.4110710" lon="-6.5189150">
        <ele>1647.7</ele>
        <time>2014-10-01T07:34:38Z</time>
      </trkpt>
      <trkpt lat="42.4110590" lon="-6.5188700">
        <ele>1647.9</ele>
        <time>2014-10-01T07:34:39Z</time>
      </trkpt>
      <trkpt lat="42.4110500" lon="-6.5188280">
        <ele>1648.0</ele>
        <time>2014-10-01T07:34:40Z</time>
      </trkpt>
      <trkpt lat="42.4110460" lon="-6.5187860">
        <ele>1648.2</ele>
        <time>2014-10-01T07:34:41Z</time>
      </trkpt>
      <trkpt lat="42.4110390" lon="-6.5187460">
        <ele>1648.3</ele>
        <time>2014-10-01T07:34:42Z</time>
      </trkpt>
      <trkpt lat="42.4110410" lon="-6.5186750">
        <ele>1648.6</ele>
        <time>2014-10-01T07:34:44Z</time>
      </trkpt>
      <trkpt lat="42.4110340" lon="-6.5186360">
        <ele>1648.8</ele>
        <time>2014-10-01T07:34:45Z</time>
      </trkpt>
      <trkpt lat="42.4110260" lon="-6.5185920">
        <ele>1648.9</ele>
        <time>2014-10-01T07:34:46Z</time>
      </trkpt>
      <trkpt lat="42.4110200" lon="-6.5185510">
        <ele>1649.1</ele>
        <time>2014-10-01T07:34:47Z</time>
      </trkpt>
      <trkpt lat="42.4110110" lon="-6.5185100">
        <ele>1649.2</ele>
        <time>2014-10-01T07:34:48Z</time>
      </trkpt>
      <trkpt lat="42.4110020" lon="-6.5184600">
        <ele>1649.4</ele>
        <time>2014-10-01T07:34:49Z</time>
      </trkpt>
      <trkpt lat="42.4109880" lon="-6.5184130">
        <ele>1649.6</ele>
        <time>2014-10-01T07:34:50Z</time>
      </trkpt>
      <trkpt lat="42.4109800" lon="-6.5183730">
        <ele>1649.7</ele>
        <time>2014-10-01T07:34:51Z</time>
      </trkpt>
      <trkpt lat="42.4109710" lon="-6.5183310">
        <ele>1649.7</ele>
        <time>2014-10-01T07:34:52Z</time>
      </trkpt>
      <trkpt lat="42.4109580" lon="-6.5182860">
        <ele>1649.8</ele>
        <time>2014-10-01T07:34:53Z</time>
      </trkpt>
      <trkpt lat="42.4109470" lon="-6.5182470">
        <ele>1649.8</ele>
        <time>2014-10-01T07:34:54Z</time>
      </trkpt>
      <trkpt lat="42.4109360" lon="-6.5182110">
        <ele>1649.9</ele>
        <time>2014-10-01T07:34:55Z</time>
      </trkpt>
      <trkpt lat="42.4109220" lon="-6.5181740">
        <ele>1649.9</ele>
        <time>2014-10-01T07:34:56Z</time>
      </trkpt>
      <trkpt lat="42.4109080" lon="-6.5181380">
        <ele>1650.0</ele>
        <time>2014-10-01T07:34:57Z</time>
      </trkpt>
      <trkpt lat="42.4108900" lon="-6.5181000">
        <ele>1650.1</ele>
        <time>2014-10-01T07:34:58Z</time>
      </trkpt>
      <trkpt lat="42.4108760" lon="-6.5180650">
        <ele>1650.2</ele>
        <time>2014-10-01T07:34:59Z</time>
      </trkpt>
      <trkpt lat="42.4108610" lon="-6.5180290">
        <ele>1650.3</ele>
        <time>2014-10-01T07:35:00Z</time>
      </trkpt>
      <trkpt lat="42.4108480" lon="-6.5179910">
        <ele>1650.4</ele>
        <time>2014-10-01T07:35:01Z</time>
      </trkpt>
      <trkpt lat="42.4108330" lon="-6.5179500">
        <ele>1650.4</ele>
        <time>2014-10-01T07:35:02Z</time>
      </trkpt>
      <trkpt lat="42.4108180" lon="-6.5179190">
        <ele>1650.5</ele>
        <time>2014-10-01T07:35:03Z</time>
      </trkpt>
      <trkpt lat="42.4108030" lon="-6.5178840">
        <ele>1650.5</ele>
        <time>2014-10-01T07:35:04Z</time>
      </trkpt>
      <trkpt lat="42.4107930" lon="-6.5178470">
        <ele>1651.6</ele>
        <time>2014-10-01T07:35:05Z</time>
      </trkpt>
      <trkpt lat="42.4107790" lon="-6.5178150">
        <ele>1654.0</ele>
        <time>2014-10-01T07:35:06Z</time>
      </trkpt>
      <trkpt lat="42.4107630" lon="-6.5177490">
        <ele>1655.9</ele>
        <time>2014-10-01T07:35:08Z</time>
      </trkpt>
      <trkpt lat="42.4107400" lon="-6.5177140">
        <ele>1659.1</ele>
        <time>2014-10-01T07:35:09Z</time>
      </trkpt>
      <trkpt lat="42.4107200" lon="-6.5176440">
        <ele>1662.2</ele>
        <time>2014-10-01T07:35:11Z</time>
      </trkpt>
      <trkpt lat="42.4107090" lon="-6.5176070">
        <ele>1663.3</ele>
        <time>2014-10-01T07:35:12Z</time>
      </trkpt>
      <trkpt lat="42.4107000" lon="-6.5175680">
        <ele>1664.4</ele>
        <time>2014-10-01T07:35:13Z</time>
      </trkpt>
      <trkpt lat="42.4106920" lon="-6.5175310">
        <ele>1665.5</ele>
        <time>2014-10-01T07:35:14Z</time>
      </trkpt>
      <trkpt lat="42.4106780" lon="-6.5174620">
        <ele>1669.2</ele>
        <time>2014-10-01T07:35:16Z</time>
      </trkpt>
      <trkpt lat="42.4106680" lon="-6.5174280">
        <ele>1669.5</ele>
        <time>2014-10-01T07:35:17Z</time>
      </trkpt>
      <trkpt lat="42.4106550" lon="-6.5173920">
        <ele>1672.3</ele>
        <time>2014-10-01T07:35:18Z</time>
      </trkpt>
      <trkpt lat="42.4106410" lon="-6.5173570">
        <ele>1673.3</ele>
        <time>2014-10-01T07:35:19Z</time>
      </trkpt>
      <trkpt lat="42.4106300" lon="-6.5173220">
        <ele>1674.4</ele>
        <time>2014-10-01T07:35:20Z</time>
      </trkpt>
      <trkpt lat="42.4106200" lon="-6.5172870">
        <ele>1677.0</ele>
        <time>2014-10-01T07:35:21Z</time>
      </trkpt>
      <trkpt lat="42.4106150" lon="-6.5172320">
        <ele>1678.0</ele>
        <time>2014-10-01T07:35:23Z</time>
      </trkpt>
      <trkpt lat="42.4106040" lon="-6.5171690">
        <ele>1679.1</ele>
        <time>2014-10-01T07:35:25Z</time>
      </trkpt>
      <trkpt lat="42.4105860" lon="-6.5171380">
        <ele>1681.8</ele>
        <time>2014-10-01T07:35:26Z</time>
      </trkpt>
      <trkpt lat="42.4105850" lon="-6.5170770">
        <ele>1683.9</ele>
        <time>2014-10-01T07:35:28Z</time>
      </trkpt>
      <trkpt lat="42.4105660" lon="-6.5170140">
        <ele>1685.2</ele>
        <time>2014-10-01T07:35:30Z</time>
      </trkpt>
      <trkpt lat="42.4105540" lon="-6.5169570">
        <ele>1688.3</ele>
        <time>2014-10-01T07:35:32Z</time>
      </trkpt>
      <trkpt lat="42.4105560" lon="-6.5168900">
        <ele>1690.8</ele>
        <time>2014-10-01T07:35:34Z</time>
      </trkpt>
      <trkpt lat="42.4105640" lon="-6.5168240">
        <ele>1690.7</ele>
        <time>2014-10-01T07:35:36Z</time>
      </trkpt>
      <trkpt lat="42.4105870" lon="-6.5167620">
        <ele>1693.1</ele>
        <time>2014-10-01T07:35:38Z</time>
      </trkpt>
      <trkpt lat="42.4106030" lon="-6.5167090">
        <ele>1692.9</ele>
        <time>2014-10-01T07:35:40Z</time>
      </trkpt>
      <trkpt lat="42.4106410" lon="-6.5166560">
        <ele>1692.8</ele>
        <time>2014-10-01T07:35:42Z</time>
      </trkpt>
      <trkpt lat="42.4106640" lon="-6.5166330">
        <ele>1692.7</ele>
        <time>2014-10-01T07:35:43Z</time>
      </trkpt>
      <trkpt lat="42.4106830" lon="-6.5166070">
        <ele>1693.7</ele>
        <time>2014-10-01T07:35:44Z</time>
      </trkpt>
      <trkpt lat="42.4107160" lon="-6.5165610">
        <ele>1693.5</ele>
        <time>2014-10-01T07:35:46Z</time>
      </trkpt>
      <trkpt lat="42.4107410" lon="-6.5165360">
        <ele>1692.5</ele>
        <time>2014-10-01T07:35:47Z</time>
      </trkpt>
      <trkpt lat="42.4107680" lon="-6.5165100">
        <ele>1692.0</ele>
        <time>2014-10-01T07:35:48Z</time>
      </trkpt>
      <trkpt lat="42.4107980" lon="-6.5164820">
        <ele>1690.8</ele>
        <time>2014-10-01T07:35:49Z</time>
      </trkpt>
      <trkpt lat="42.4108250" lon="-6.5164510">
        <ele>1690.4</ele>
        <time>2014-10-01T07:35:50Z</time>
      </trkpt>
      <trkpt lat="42.4108470" lon="-6.5164220">
        <ele>1690.0</ele>
        <time>2014-10-01T07:35:51Z</time>
      </trkpt>
      <trkpt lat="42.4108800" lon="-6.5163960">
        <ele>1689.5</ele>
        <time>2014-10-01T07:35:52Z</time>
      </trkpt>
      <trkpt lat="42.4109060" lon="-6.5163700">
        <ele>1689.0</ele>
        <time>2014-10-01T07:35:53Z</time>
      </trkpt>
      <trkpt lat="42.4109340" lon="-6.5163440">
        <ele>1688.5</ele>
        <time>2014-10-01T07:35:54Z</time>
      </trkpt>
      <trkpt lat="42.4109620" lon="-6.5163160">
        <ele>1688.0</ele>
        <time>2014-10-01T07:35:55Z</time>
      </trkpt>
      <trkpt lat="42.4109920" lon="-6.5162900">
        <ele>1687.4</ele>
        <time>2014-10-01T07:35:56Z</time>
      </trkpt>
      <trkpt lat="42.4110170" lon="-6.5162650">
        <ele>1687.0</ele>
        <time>2014-10-01T07:35:57Z</time>
      </trkpt>
      <trkpt lat="42.4110450" lon="-6.5162360">
        <ele>1686.4</ele>
        <time>2014-10-01T07:35:58Z</time>
      </trkpt>
      <trkpt lat="42.4110730" lon="-6.5162060">
        <ele>1685.9</ele>
        <time>2014-10-01T07:35:59Z</time>
      </trkpt>
      <trkpt lat="42.4111040" lon="-6.5161740">
        <ele>1685.3</ele>
        <time>2014-10-01T07:36:00Z</time>
      </trkpt>
      <trkpt lat="42.4111360" lon="-6.5161430">
        <ele>1684.7</ele>
        <time>2014-10-01T07:36:01Z</time>
      </trkpt>
      <trkpt lat="42.4111680" lon="-6.5161120">
        <ele>1684.2</ele>
        <time>2014-10-01T07:36:02Z</time>
      </trkpt>
      <trkpt lat="42.4112010" lon="-6.5160770">
        <ele>1683.5</ele>
        <time>2014-10-01T07:36:03Z</time>
      </trkpt>
      <trkpt lat="42.4112310" lon="-6.5160400">
        <ele>1683.0</ele>
        <time>2014-10-01T07:36:04Z</time>
      </trkpt>
      <trkpt lat="42.4112550" lon="-6.5160070">
        <ele>1682.5</ele>
        <time>2014-10-01T07:36:05Z</time>
      </trkpt>
      <trkpt lat="42.4112830" lon="-6.5159770">
        <ele>1681.9</ele>
        <time>2014-10-01T07:36:06Z</time>
      </trkpt>
      <trkpt lat="42.4113100" lon="-6.5159490">
        <ele>1681.5</ele>
        <time>2014-10-01T07:36:07Z</time>
      </trkpt>
      <trkpt lat="42.4113320" lon="-6.5159200">
        <ele>1681.0</ele>
        <time>2014-10-01T07:36:08Z</time>
      </trkpt>
      <trkpt lat="42.4113530" lon="-6.5158940">
        <ele>1680.6</ele>
        <time>2014-10-01T07:36:09Z</time>
      </trkpt>
      <trkpt lat="42.4113760" lon="-6.5158640">
        <ele>1680.2</ele>
        <time>2014-10-01T07:36:10Z</time>
      </trkpt>
      <trkpt lat="42.4114020" lon="-6.5158330">
        <ele>1679.7</ele>
        <time>2014-10-01T07:36:11Z</time>
      </trkpt>
      <trkpt lat="42.4114270" lon="-6.5158040">
        <ele>1679.2</ele>
        <time>2014-10-01T07:36:12Z</time>
      </trkpt>
      <trkpt lat="42.4114480" lon="-6.5157740">
        <ele>1678.8</ele>
        <time>2014-10-01T07:36:13Z</time>
      </trkpt>
      <trkpt lat="42.4114740" lon="-6.5157410">
        <ele>1678.3</ele>
        <time>2014-10-01T07:36:14Z</time>
      </trkpt>
      <trkpt lat="42.4115000" lon="-6.5157080">
        <ele>1677.8</ele>
        <time>2014-10-01T07:36:15Z</time>
      </trkpt>
      <trkpt lat="42.4115240" lon="-6.5156750">
        <ele>1677.3</ele>
        <time>2014-10-01T07:36:16Z</time>
      </trkpt>
      <trkpt lat="42.4115490" lon="-6.5156440">
        <ele>1676.8</ele>
        <time>2014-10-01T07:36:17Z</time>
      </trkpt>
      <trkpt lat="42.4115710" lon="-6.5156140">
        <ele>1676.4</ele>
        <time>2014-10-01T07:36:18Z</time>
      </trkpt>
      <trkpt lat="42.4115940" lon="-6.5155800">
        <ele>1676.0</ele>
        <time>2014-10-01T07:36:19Z</time>
      </trkpt>
      <trkpt lat="42.4116150" lon="-6.5155470">
        <ele>1675.6</ele>
        <time>2014-10-01T07:36:20Z</time>
      </trkpt>
      <trkpt lat="42.4116250" lon="-6.5155090">
        <ele>1675.2</ele>
        <time>2014-10-01T07:36:21Z</time>
      </trkpt>
      <trkpt lat="42.4116460" lon="-6.5154660">
        <ele>1674.8</ele>
        <time>2014-10-01T07:36:22Z</time>
      </trkpt>
      <trkpt lat="42.4116650" lon="-6.5154250">
        <ele>1674.3</ele>
        <time>2014-10-01T07:36:23Z</time>
      </trkpt>
      <trkpt lat="42.4116850" lon="-6.5153810">
        <ele>1673.9</ele>
        <time>2014-10-01T07:36:24Z</time>
      </trkpt>
      <trkpt lat="42.4117020" lon="-6.5153360">
        <ele>1673.5</ele>
        <time>2014-10-01T07:36:25Z</time>
      </trkpt>
      <trkpt lat="42.4117130" lon="-6.5152910">
        <ele>1673.1</ele>
        <time>2014-10-01T07:36:26Z</time>
      </trkpt>
      <trkpt lat="42.4117280" lon="-6.5152410">
        <ele>1672.8</ele>
        <time>2014-10-01T07:36:27Z</time>
      </trkpt>
      <trkpt lat="42.4117510" lon="-6.5151900">
        <ele>1672.4</ele>
        <time>2014-10-01T07:36:28Z</time>
      </trkpt>
      <trkpt lat="42.4117740" lon="-6.5151420">
        <ele>1672.0</ele>
        <time>2014-10-01T07:36:29Z</time>
      </trkpt>
      <trkpt lat="42.4117960" lon="-6.5150970">
        <ele>1671.7</ele>
        <time>2014-10-01T07:36:30Z</time>
      </trkpt>
      <trkpt lat="42.4118190" lon="-6.5150530">
        <ele>1671.3</ele>
        <time>2014-10-01T07:36:31Z</time>
      </trkpt>
      <trkpt lat="42.4118420" lon="-6.5150100">
        <ele>1671.0</ele>
        <time>2014-10-01T07:36:32Z</time>
      </trkpt>
      <trkpt lat="42.4118640" lon="-6.5149680">
        <ele>1670.7</ele>
        <time>2014-10-01T07:36:33Z</time>
      </trkpt>
      <trkpt lat="42.4118900" lon="-6.5149270">
        <ele>1670.5</ele>
        <time>2014-10-01T07:36:34Z</time>
      </trkpt>
      <trkpt lat="42.4119180" lon="-6.5148810">
        <ele>1670.3</ele>
        <time>2014-10-01T07:36:35Z</time>
      </trkpt>
      <trkpt lat="42.4119460" lon="-6.5148300">
        <ele>1670.0</ele>
        <time>2014-10-01T07:36:36Z</time>
      </trkpt>
      <trkpt lat="42.4119770" lon="-6.5147780">
        <ele>1669.7</ele>
        <time>2014-10-01T07:36:37Z</time>
      </trkpt>
      <trkpt lat="42.4122270" lon="-6.5144940">
        <ele>1667.4</ele>
        <time>2014-10-01T07:36:39Z</time>
      </trkpt>
      <trkpt lat="42.4122820" lon="-6.5144720">
        <ele>1666.9</ele>
        <time>2014-10-01T07:36:40Z</time>
      </trkpt>
      <trkpt lat="42.4123200" lon="-6.5144620">
        <ele>1666.5</ele>
        <time>2014-10-01T07:36:41Z</time>
      </trkpt>
      <trkpt lat="42.4123460" lon="-6.5144330">
        <ele>1666.2</ele>
        <time>2014-10-01T07:36:42Z</time>
      </trkpt>
      <trkpt lat="42.4123600" lon="-6.5143720">
        <ele>1665.8</ele>
        <time>2014-10-01T07:36:44Z</time>
      </trkpt>
      <trkpt lat="42.4123430" lon="-6.5143360">
        <ele>1665.9</ele>
        <time>2014-10-01T07:36:46Z</time>
      </trkpt>
      <trkpt lat="42.4123030" lon="-6.5143620">
        <ele>1666.3</ele>
        <time>2014-10-01T07:36:49Z</time>
      </trkpt>
      <trkpt lat="42.4122680" lon="-6.5144090">
        <ele>1666.8</ele>
        <time>2014-10-01T07:36:51Z</time>
      </trkpt>
      <trkpt lat="42.4122420" lon="-6.5144420">
        <ele>1667.1</ele>
        <time>2014-10-01T07:36:52Z</time>
      </trkpt>
      <trkpt lat="42.4122230" lon="-6.5144730">
        <ele>1667.4</ele>
        <time>2014-10-01T07:36:53Z</time>
      </trkpt>
      <trkpt lat="42.4122090" lon="-6.5145050">
        <ele>1667.6</ele>
        <time>2014-10-01T07:36:54Z</time>
      </trkpt>
      <trkpt lat="42.4121920" lon="-6.5145400">
        <ele>1667.8</ele>
        <time>2014-10-01T07:36:55Z</time>
      </trkpt>
      <trkpt lat="42.4121820" lon="-6.5145740">
        <ele>1667.9</ele>
        <time>2014-10-01T07:36:56Z</time>
      </trkpt>
      <trkpt lat="42.4121650" lon="-6.5146360">
        <ele>1668.3</ele>
        <time>2014-10-01T07:36:58Z</time>
      </trkpt>
      <trkpt lat="42.4121400" lon="-6.5146980">
        <ele>1668.6</ele>
        <time>2014-10-01T07:37:00Z</time>
      </trkpt>
      <trkpt lat="42.4121410" lon="-6.5147610">
        <ele>1669.0</ele>
        <time>2014-10-01T07:37:02Z</time>
      </trkpt>
      <trkpt lat="42.4121260" lon="-6.5148280">
        <ele>1669.4</ele>
        <time>2014-10-01T07:37:04Z</time>
      </trkpt>
      <trkpt lat="42.4120950" lon="-6.5148780">
        <ele>1669.7</ele>
        <time>2014-10-01T07:37:06Z</time>
      </trkpt>
      <trkpt lat="42.4120750" lon="-6.5149300">
        <ele>1670.0</ele>
        <time>2014-10-01T07:37:08Z</time>
      </trkpt>
      <trkpt lat="42.4120460" lon="-6.5149820">
        <ele>1670.3</ele>
        <time>2014-10-01T07:37:10Z</time>
      </trkpt>
      <trkpt lat="42.4120210" lon="-6.5150370">
        <ele>1670.6</ele>
        <time>2014-10-01T07:37:12Z</time>
      </trkpt>
      <trkpt lat="42.4120020" lon="-6.5150940">
        <ele>1670.9</ele>
        <time>2014-10-01T07:37:14Z</time>
      </trkpt>
      <trkpt lat="42.4119830" lon="-6.5151250">
        <ele>1671.1</ele>
        <time>2014-10-01T07:37:15Z</time>
      </trkpt>
      <trkpt lat="42.4119660" lon="-6.5151540">
        <ele>1671.4</ele>
        <time>2014-10-01T07:37:16Z</time>
      </trkpt>
      <trkpt lat="42.4119460" lon="-6.5151850">
        <ele>1671.6</ele>
        <time>2014-10-01T07:37:17Z</time>
      </trkpt>
      <trkpt lat="42.4119210" lon="-6.5152190">
        <ele>1672.0</ele>
        <time>2014-10-01T07:37:18Z</time>
      </trkpt>
      <trkpt lat="42.4119000" lon="-6.5152500">
        <ele>1672.2</ele>
        <time>2014-10-01T07:37:19Z</time>
      </trkpt>
      <trkpt lat="42.4118800" lon="-6.5152760">
        <ele>1672.5</ele>
        <time>2014-10-01T07:37:20Z</time>
      </trkpt>
      <trkpt lat="42.4118600" lon="-6.5153040">
        <ele>1672.7</ele>
        <time>2014-10-01T07:37:21Z</time>
      </trkpt>
      <trkpt lat="42.4118360" lon="-6.5153320">
        <ele>1673.0</ele>
        <time>2014-10-01T07:37:22Z</time>
      </trkpt>
      <trkpt lat="42.4118110" lon="-6.5153590">
        <ele>1673.3</ele>
        <time>2014-10-01T07:37:23Z</time>
      </trkpt>
      <trkpt lat="42.4117880" lon="-6.5153830">
        <ele>1673.7</ele>
        <time>2014-10-01T07:37:24Z</time>
      </trkpt>
      <trkpt lat="42.4117640" lon="-6.5154090">
        <ele>1674.0</ele>
        <time>2014-10-01T07:37:25Z</time>
      </trkpt>
      <trkpt lat="42.4117430" lon="-6.5154340">
        <ele>1674.3</ele>
        <time>2014-10-01T07:37:26Z</time>
      </trkpt>
      <trkpt lat="42.4117190" lon="-6.5154620">
        <ele>1674.7</ele>
        <time>2014-10-01T07:37:27Z</time>
      </trkpt>
      <trkpt lat="42.4116990" lon="-6.5154870">
        <ele>1675.1</ele>
        <time>2014-10-01T07:37:28Z</time>
      </trkpt>
      <trkpt lat="42.4116770" lon="-6.5155130">
        <ele>1675.4</ele>
        <time>2014-10-01T07:37:29Z</time>
      </trkpt>
      <trkpt lat="42.4116540" lon="-6.5155420">
        <ele>1675.8</ele>
        <time>2014-10-01T07:37:30Z</time>
      </trkpt>
      <trkpt lat="42.4116290" lon="-6.5155730">
        <ele>1676.3</ele>
        <time>2014-10-01T07:37:31Z</time>
      </trkpt>
      <trkpt lat="42.4116020" lon="-6.5156000">
        <ele>1676.7</ele>
        <time>2014-10-01T07:37:32Z</time>
      </trkpt>
      <trkpt lat="42.4115720" lon="-6.5156330">
        <ele>1677.3</ele>
        <time>2014-10-01T07:37:33Z</time>
      </trkpt>
      <trkpt lat="42.4115400" lon="-6.5156680">
        <ele>1677.9</ele>
        <time>2014-10-01T07:37:34Z</time>
      </trkpt>
      <trkpt lat="42.4115060" lon="-6.5157040">
        <ele>1678.5</ele>
        <time>2014-10-01T07:37:35Z</time>
      </trkpt>
      <trkpt lat="42.4114730" lon="-6.5157330">
        <ele>1679.1</ele>
        <time>2014-10-01T07:37:36Z</time>
      </trkpt>
      <trkpt lat="42.4114410" lon="-6.5157600">
        <ele>1679.6</ele>
        <time>2014-10-01T07:37:37Z</time>
      </trkpt>
      <trkpt lat="42.4114100" lon="-6.5157830">
        <ele>1680.1</ele>
        <time>2014-10-01T07:37:38Z</time>
      </trkpt>
      <trkpt lat="42.4113820" lon="-6.5158050">
        <ele>1680.6</ele>
        <time>2014-10-01T07:37:39Z</time>
      </trkpt>
      <trkpt lat="42.4113560" lon="-6.5158280">
        <ele>1681.0</ele>
        <time>2014-10-01T07:37:40Z</time>
      </trkpt>
      <trkpt lat="42.4113290" lon="-6.5158470">
        <ele>1681.5</ele>
        <time>2014-10-01T07:37:41Z</time>
      </trkpt>
      <trkpt lat="42.4113020" lon="-6.5158650">
        <ele>1681.9</ele>
        <time>2014-10-01T07:37:42Z</time>
      </trkpt>
      <trkpt lat="42.4112730" lon="-6.5158820">
        <ele>1682.4</ele>
        <time>2014-10-01T07:37:43Z</time>
      </trkpt>
      <trkpt lat="42.4112490" lon="-6.5159000">
        <ele>1682.8</ele>
        <time>2014-10-01T07:37:44Z</time>
      </trkpt>
      <trkpt lat="42.4112120" lon="-6.5159290">
        <ele>1683.4</ele>
        <time>2014-10-01T07:37:46Z</time>
      </trkpt>
      <trkpt lat="42.4111880" lon="-6.5159480">
        <ele>1683.9</ele>
        <time>2014-10-01T07:37:47Z</time>
      </trkpt>
      <trkpt lat="42.4111410" lon="-6.5159840">
        <ele>1684.7</ele>
        <time>2014-10-01T07:37:49Z</time>
      </trkpt>
      <trkpt lat="42.4111170" lon="-6.5160020">
        <ele>1685.1</ele>
        <time>2014-10-01T07:37:50Z</time>
      </trkpt>
      <trkpt lat="42.4110730" lon="-6.5160360">
        <ele>1685.9</ele>
        <time>2014-10-01T07:37:52Z</time>
      </trkpt>
      <trkpt lat="42.4110390" lon="-6.5160730">
        <ele>1686.5</ele>
        <time>2014-10-01T07:37:54Z</time>
      </trkpt>
      <trkpt lat="42.4109960" lon="-6.5161160">
        <ele>1687.4</ele>
        <time>2014-10-01T07:37:56Z</time>
      </trkpt>
      <trkpt lat="42.4109570" lon="-6.5161590">
        <ele>1688.2</ele>
        <time>2014-10-01T07:37:58Z</time>
      </trkpt>
      <trkpt lat="42.4109350" lon="-6.5161830">
        <ele>1688.6</ele>
        <time>2014-10-01T07:37:59Z</time>
      </trkpt>
      <trkpt lat="42.4109070" lon="-6.5162080">
        <ele>1689.1</ele>
        <time>2014-10-01T07:38:00Z</time>
      </trkpt>
      <trkpt lat="42.4108640" lon="-6.5162410">
        <ele>1689.8</ele>
        <time>2014-10-01T07:38:02Z</time>
      </trkpt>
      <trkpt lat="42.4108250" lon="-6.5162620">
        <ele>1690.4</ele>
        <time>2014-10-01T07:38:04Z</time>
      </trkpt>
      <trkpt lat="42.4107810" lon="-6.5162610">
        <ele>1690.9</ele>
        <time>2014-10-01T07:38:06Z</time>
      </trkpt>
      <trkpt lat="42.4107390" lon="-6.5162280">
        <ele>1691.6</ele>
        <time>2014-10-01T07:38:08Z</time>
      </trkpt>
      <trkpt lat="42.4107190" lon="-6.5161680">
        <ele>1692.2</ele>
        <time>2014-10-01T07:38:10Z</time>
      </trkpt>
      <trkpt lat="42.4107230" lon="-6.5161250">
        <ele>1692.6</ele>
        <time>2014-10-01T07:38:11Z</time>
      </trkpt>
      <trkpt lat="42.4107340" lon="-6.5160790">
        <ele>1693.0</ele>
        <time>2014-10-01T07:38:12Z</time>
      </trkpt>
      <trkpt lat="42.4107440" lon="-6.5160290">
        <ele>1693.4</ele>
        <time>2014-10-01T07:38:13Z</time>
      </trkpt>
      <trkpt lat="42.4107690" lon="-6.5159860">
        <ele>1693.9</ele>
        <time>2014-10-01T07:38:14Z</time>
      </trkpt>
      <trkpt lat="42.4107870" lon="-6.5159470">
        <ele>1694.2</ele>
        <time>2014-10-01T07:38:15Z</time>
      </trkpt>
      <trkpt lat="42.4108110" lon="-6.5159180">
        <ele>1694.6</ele>
        <time>2014-10-01T07:38:16Z</time>
      </trkpt>
      <trkpt lat="42.4108400" lon="-6.5158900">
        <ele>1694.9</ele>
        <time>2014-10-01T07:38:17Z</time>
      </trkpt>
      <trkpt lat="42.4108760" lon="-6.5158600">
        <ele>1695.4</ele>
        <time>2014-10-01T07:38:18Z</time>
      </trkpt>
      <trkpt lat="42.4109100" lon="-6.5158310">
        <ele>1695.8</ele>
        <time>2014-10-01T07:38:19Z</time>
      </trkpt>
      <trkpt lat="42.4109450" lon="-6.5158010">
        <ele>1696.2</ele>
        <time>2014-10-01T07:38:20Z</time>
      </trkpt>
      <trkpt lat="42.4109780" lon="-6.5157700">
        <ele>1696.6</ele>
        <time>2014-10-01T07:38:21Z</time>
      </trkpt>
      <trkpt lat="42.4110140" lon="-6.5157370">
        <ele>1697.0</ele>
        <time>2014-10-01T07:38:22Z</time>
      </trkpt>
      <trkpt lat="42.4110520" lon="-6.5157000">
        <ele>1697.5</ele>
        <time>2014-10-01T07:38:23Z</time>
      </trkpt>
      <trkpt lat="42.4110880" lon="-6.5156610">
        <ele>1697.9</ele>
        <time>2014-10-01T07:38:24Z</time>
      </trkpt>
      <trkpt lat="42.4111260" lon="-6.5156200">
        <ele>1698.2</ele>
        <time>2014-10-01T07:38:25Z</time>
      </trkpt>
      <trkpt lat="42.4111610" lon="-6.5155820">
        <ele>1698.5</ele>
        <time>2014-10-01T07:38:26Z</time>
      </trkpt>
      <trkpt lat="42.4111930" lon="-6.5155490">
        <ele>1698.7</ele>
        <time>2014-10-01T07:38:27Z</time>
      </trkpt>
      <trkpt lat="42.4112210" lon="-6.5155130">
        <ele>1698.8</ele>
        <time>2014-10-01T07:38:28Z</time>
      </trkpt>
      <trkpt lat="42.4112500" lon="-6.5154730">
        <ele>1699.0</ele>
        <time>2014-10-01T07:38:29Z</time>
      </trkpt>
      <trkpt lat="42.4112770" lon="-6.5154300">
        <ele>1699.2</ele>
        <time>2014-10-01T07:38:30Z</time>
      </trkpt>
      <trkpt lat="42.4113020" lon="-6.5153870">
        <ele>1699.5</ele>
        <time>2014-10-01T07:38:31Z</time>
      </trkpt>
      <trkpt lat="42.4113250" lon="-6.5153490">
        <ele>1699.7</ele>
        <time>2014-10-01T07:38:32Z</time>
      </trkpt>
      <trkpt lat="42.4113450" lon="-6.5153080">
        <ele>1699.9</ele>
        <time>2014-10-01T07:38:33Z</time>
      </trkpt>
      <trkpt lat="42.4113650" lon="-6.5152650">
        <ele>1700.2</ele>
        <time>2014-10-01T07:38:34Z</time>
      </trkpt>
      <trkpt lat="42.4113820" lon="-6.5152190">
        <ele>1700.5</ele>
        <time>2014-10-01T07:38:35Z</time>
      </trkpt>
      <trkpt lat="42.4114000" lon="-6.5151690">
        <ele>1700.9</ele>
        <time>2014-10-01T07:38:36Z</time>
      </trkpt>
      <trkpt lat="42.4114150" lon="-6.5151200">
        <ele>1701.2</ele>
        <time>2014-10-01T07:38:37Z</time>
      </trkpt>
      <trkpt lat="42.4114300" lon="-6.5150660">
        <ele>1701.5</ele>
        <time>2014-10-01T07:38:38Z</time>
      </trkpt>
      <trkpt lat="42.4114440" lon="-6.5150120">
        <ele>1701.8</ele>
        <time>2014-10-01T07:38:39Z</time>
      </trkpt>
      <trkpt lat="42.4114570" lon="-6.5149570">
        <ele>1702.1</ele>
        <time>2014-10-01T07:38:40Z</time>
      </trkpt>
      <trkpt lat="42.4114680" lon="-6.5149040">
        <ele>1702.4</ele>
        <time>2014-10-01T07:38:41Z</time>
      </trkpt>
      <trkpt lat="42.4114790" lon="-6.5148510">
        <ele>1702.7</ele>
        <time>2014-10-01T07:38:42Z</time>
      </trkpt>
      <trkpt lat="42.4114870" lon="-6.5148010">
        <ele>1703.1</ele>
        <time>2014-10-01T07:38:43Z</time>
      </trkpt>
      <trkpt lat="42.4114900" lon="-6.5147460">
        <ele>1703.5</ele>
        <time>2014-10-01T07:38:44Z</time>
      </trkpt>
      <trkpt lat="42.4114950" lon="-6.5146890">
        <ele>1704.0</ele>
        <time>2014-10-01T07:38:45Z</time>
      </trkpt>
      <trkpt lat="42.4114970" lon="-6.5146330">
        <ele>1704.5</ele>
        <time>2014-10-01T07:38:46Z</time>
      </trkpt>
      <trkpt lat="42.4114960" lon="-6.5145780">
        <ele>1705.0</ele>
        <time>2014-10-01T07:38:47Z</time>
      </trkpt>
      <trkpt lat="42.4114870" lon="-6.5145260">
        <ele>1705.5</ele>
        <time>2014-10-01T07:38:48Z</time>
      </trkpt>
      <trkpt lat="42.4114730" lon="-6.5144790">
        <ele>1706.0</ele>
        <time>2014-10-01T07:38:49Z</time>
      </trkpt>
      <trkpt lat="42.4114570" lon="-6.5144330">
        <ele>1706.5</ele>
        <time>2014-10-01T07:38:50Z</time>
      </trkpt>
      <trkpt lat="42.4114400" lon="-6.5143910">
        <ele>1706.8</ele>
        <time>2014-10-01T07:38:51Z</time>
      </trkpt>
      <trkpt lat="42.4114180" lon="-6.5143630">
        <ele>1707.0</ele>
        <time>2014-10-01T07:38:52Z</time>
      </trkpt>
      <trkpt lat="42.4113960" lon="-6.5143420">
        <ele>1707.2</ele>
        <time>2014-10-01T07:38:53Z</time>
      </trkpt>
      <trkpt lat="42.4113730" lon="-6.5143190">
        <ele>1707.4</ele>
        <time>2014-10-01T07:38:54Z</time>
      </trkpt>
      <trkpt lat="42.4113500" lon="-6.5143020">
        <ele>1707.7</ele>
        <time>2014-10-01T07:38:55Z</time>
      </trkpt>
      <trkpt lat="42.4113040" lon="-6.5142720">
        <ele>1708.4</ele>
        <time>2014-10-01T07:38:57Z</time>
      </trkpt>
      <trkpt lat="42.4112730" lon="-6.5142570">
        <ele>1708.8</ele>
        <time>2014-10-01T07:38:58Z</time>
      </trkpt>
      <trkpt lat="42.4112450" lon="-6.5142440">
        <ele>1709.1</ele>
        <time>2014-10-01T07:38:59Z</time>
      </trkpt>
      <trkpt lat="42.4112140" lon="-6.5142300">
        <ele>1709.5</ele>
        <time>2014-10-01T07:39:00Z</time>
      </trkpt>
      <trkpt lat="42.4111860" lon="-6.5142190">
        <ele>1709.9</ele>
        <time>2014-10-01T07:39:01Z</time>
      </trkpt>
      <trkpt lat="42.4111590" lon="-6.5142030">
        <ele>1710.2</ele>
        <time>2014-10-01T07:39:02Z</time>
      </trkpt>
      <trkpt lat="42.4111320" lon="-6.5141860">
        <ele>1710.5</ele>
        <time>2014-10-01T07:39:03Z</time>
      </trkpt>
      <trkpt lat="42.4111050" lon="-6.5141720">
        <ele>1710.8</ele>
        <time>2014-10-01T07:39:04Z</time>
      </trkpt>
      <trkpt lat="42.4110790" lon="-6.5141560">
        <ele>1711.1</ele>
        <time>2014-10-01T07:39:05Z</time>
      </trkpt>
      <trkpt lat="42.4110520" lon="-6.5141410">
        <ele>1711.5</ele>
        <time>2014-10-01T07:39:06Z</time>
      </trkpt>
      <trkpt lat="42.4110270" lon="-6.5141250">
        <ele>1711.7</ele>
        <time>2014-10-01T07:39:07Z</time>
      </trkpt>
      <trkpt lat="42.4110010" lon="-6.5141070">
        <ele>1712.0</ele>
        <time>2014-10-01T07:39:08Z</time>
      </trkpt>
      <trkpt lat="42.4109540" lon="-6.5140770">
        <ele>1712.6</ele>
        <time>2014-10-01T07:39:10Z</time>
      </trkpt>
      <trkpt lat="42.4109290" lon="-6.5140600">
        <ele>1712.8</ele>
        <time>2014-10-01T07:39:11Z</time>
      </trkpt>
      <trkpt lat="42.4109060" lon="-6.5140380">
        <ele>1713.1</ele>
        <time>2014-10-01T07:39:12Z</time>
      </trkpt>
      <trkpt lat="42.4108790" lon="-6.5140150">
        <ele>1713.4</ele>
        <time>2014-10-01T07:39:13Z</time>
      </trkpt>
      <trkpt lat="42.4108540" lon="-6.5139880">
        <ele>1713.7</ele>
        <time>2014-10-01T07:39:14Z</time>
      </trkpt>
      <trkpt lat="42.4108260" lon="-6.5139630">
        <ele>1714.0</ele>
        <time>2014-10-01T07:39:15Z</time>
      </trkpt>
      <trkpt lat="42.4107980" lon="-6.5139370">
        <ele>1714.3</ele>
        <time>2014-10-01T07:39:16Z</time>
      </trkpt>
      <trkpt lat="42.4107700" lon="-6.5139120">
        <ele>1714.6</ele>
        <time>2014-10-01T07:39:17Z</time>
      </trkpt>
      <trkpt lat="42.4107440" lon="-6.5138900">
        <ele>1714.8</ele>
        <time>2014-10-01T07:39:18Z</time>
      </trkpt>
      <trkpt lat="42.4107190" lon="-6.5138640">
        <ele>1715.1</ele>
        <time>2014-10-01T07:39:19Z</time>
      </trkpt>
      <trkpt lat="42.4106920" lon="-6.5138370">
        <ele>1715.3</ele>
        <time>2014-10-01T07:39:20Z</time>
      </trkpt>
      <trkpt lat="42.4106650" lon="-6.5138100">
        <ele>1715.6</ele>
        <time>2014-10-01T07:39:21Z</time>
      </trkpt>
      <trkpt lat="42.4106370" lon="-6.5137820">
        <ele>1715.8</ele>
        <time>2014-10-01T07:39:22Z</time>
      </trkpt>
      <trkpt lat="42.4106100" lon="-6.5137570">
        <ele>1716.1</ele>
        <time>2014-10-01T07:39:23Z</time>
      </trkpt>
      <trkpt lat="42.4105830" lon="-6.5137270">
        <ele>1716.3</ele>
        <time>2014-10-01T07:39:24Z</time>
      </trkpt>
      <trkpt lat="42.4105550" lon="-6.5136980">
        <ele>1716.6</ele>
        <time>2014-10-01T07:39:25Z</time>
      </trkpt>
      <trkpt lat="42.4105310" lon="-6.5136680">
        <ele>1716.8</ele>
        <time>2014-10-01T07:39:26Z</time>
      </trkpt>
      <trkpt lat="42.4105090" lon="-6.5136400">
        <ele>1717.0</ele>
        <time>2014-10-01T07:39:27Z</time>
      </trkpt>
      <trkpt lat="42.4104850" lon="-6.5136130">
        <ele>1717.3</ele>
        <time>2014-10-01T07:39:28Z</time>
      </trkpt>
      <trkpt lat="42.4104610" lon="-6.5135850">
        <ele>1717.5</ele>
        <time>2014-10-01T07:39:29Z</time>
      </trkpt>
      <trkpt lat="42.4104330" lon="-6.5135540">
        <ele>1717.8</ele>
        <time>2014-10-01T07:39:30Z</time>
      </trkpt>
      <trkpt lat="42.4104070" lon="-6.5135190">
        <ele>1718.0</ele>
        <time>2014-10-01T07:39:31Z</time>
      </trkpt>
      <trkpt lat="42.4103810" lon="-6.5134840">
        <ele>1718.3</ele>
        <time>2014-10-01T07:39:32Z</time>
      </trkpt>
      <trkpt lat="42.4103580" lon="-6.5134520">
        <ele>1718.5</ele>
        <time>2014-10-01T07:39:33Z</time>
      </trkpt>
      <trkpt lat="42.4103310" lon="-6.5134170">
        <ele>1718.7</ele>
        <time>2014-10-01T07:39:34Z</time>
      </trkpt>
      <trkpt lat="42.4103030" lon="-6.5133810">
        <ele>1719.0</ele>
        <time>2014-10-01T07:39:35Z</time>
      </trkpt>
      <trkpt lat="42.4102740" lon="-6.5133440">
        <ele>1719.2</ele>
        <time>2014-10-01T07:39:36Z</time>
      </trkpt>
      <trkpt lat="42.4102420" lon="-6.5133050">
        <ele>1719.5</ele>
        <time>2014-10-01T07:39:37Z</time>
      </trkpt>
      <trkpt lat="42.4102090" lon="-6.5132640">
        <ele>1719.8</ele>
        <time>2014-10-01T07:39:38Z</time>
      </trkpt>
      <trkpt lat="42.4101800" lon="-6.5132350">
        <ele>1720.0</ele>
        <time>2014-10-01T07:39:39Z</time>
      </trkpt>
      <trkpt lat="42.4101500" lon="-6.5131930">
        <ele>1720.3</ele>
        <time>2014-10-01T07:39:40Z</time>
      </trkpt>
      <trkpt lat="42.4101240" lon="-6.5131470">
        <ele>1720.5</ele>
        <time>2014-10-01T07:39:41Z</time>
      </trkpt>
      <trkpt lat="42.4100950" lon="-6.5131070">
        <ele>1720.8</ele>
        <time>2014-10-01T07:39:42Z</time>
      </trkpt>
      <trkpt lat="42.4100670" lon="-6.5130680">
        <ele>1721.1</ele>
        <time>2014-10-01T07:39:43Z</time>
      </trkpt>
      <trkpt lat="42.4100420" lon="-6.5130380">
        <ele>1721.2</ele>
        <time>2014-10-01T07:39:44Z</time>
      </trkpt>
      <trkpt lat="42.4100130" lon="-6.5130070">
        <ele>1721.5</ele>
        <time>2014-10-01T07:39:45Z</time>
      </trkpt>
      <trkpt lat="42.4099850" lon="-6.5129750">
        <ele>1721.7</ele>
        <time>2014-10-01T07:39:46Z</time>
      </trkpt>
      <trkpt lat="42.4099580" lon="-6.5129400">
        <ele>1721.9</ele>
        <time>2014-10-01T07:39:47Z</time>
      </trkpt>
      <trkpt lat="42.4099210" lon="-6.5128950">
        <ele>1722.2</ele>
        <time>2014-10-01T07:39:48Z</time>
      </trkpt>
      <trkpt lat="42.4098870" lon="-6.5128560">
        <ele>1722.4</ele>
        <time>2014-10-01T07:39:49Z</time>
      </trkpt>
      <trkpt lat="42.4098550" lon="-6.5128170">
        <ele>1722.6</ele>
        <time>2014-10-01T07:39:50Z</time>
      </trkpt>
      <trkpt lat="42.4098220" lon="-6.5127760">
        <ele>1722.9</ele>
        <time>2014-10-01T07:39:51Z</time>
      </trkpt>
      <trkpt lat="42.4097950" lon="-6.5127400">
        <ele>1723.0</ele>
        <time>2014-10-01T07:39:52Z</time>
      </trkpt>
      <trkpt lat="42.4097680" lon="-6.5127120">
        <ele>1723.2</ele>
        <time>2014-10-01T07:39:53Z</time>
      </trkpt>
      <trkpt lat="42.4097380" lon="-6.5126820">
        <ele>1723.3</ele>
        <time>2014-10-01T07:39:54Z</time>
      </trkpt>
      <trkpt lat="42.4097090" lon="-6.5126540">
        <ele>1723.5</ele>
        <time>2014-10-01T07:39:55Z</time>
      </trkpt>
      <trkpt lat="42.4096790" lon="-6.5126220">
        <ele>1723.5</ele>
        <time>2014-10-01T07:39:56Z</time>
      </trkpt>
      <trkpt lat="42.4096540" lon="-6.5125930">
        <ele>1723.5</ele>
        <time>2014-10-01T07:39:57Z</time>
      </trkpt>
      <trkpt lat="42.4096310" lon="-6.5125690">
        <ele>1723.5</ele>
        <time>2014-10-01T07:39:58Z</time>
      </trkpt>
      <trkpt lat="42.4095970" lon="-6.5125340">
        <ele>1723.4</ele>
        <time>2014-10-01T07:40:00Z</time>
      </trkpt>
      <trkpt lat="42.4095610" lon="-6.5124830">
        <ele>1723.4</ele>
        <time>2014-10-01T07:40:01Z</time>
      </trkpt>
      <trkpt lat="42.4095320" lon="-6.5124470">
        <ele>1723.3</ele>
        <time>2014-10-01T07:40:02Z</time>
      </trkpt>
      <trkpt lat="42.4095120" lon="-6.5123740">
        <ele>1723.1</ele>
        <time>2014-10-01T07:40:05Z</time>
      </trkpt>
      <trkpt lat="42.4094650" lon="-6.5123340">
        <ele>1722.8</ele>
        <time>2014-10-01T07:40:06Z</time>
      </trkpt>
      <trkpt lat="42.4094120" lon="-6.5122820">
        <ele>1722.5</ele>
        <time>2014-10-01T07:40:07Z</time>
      </trkpt>
      <trkpt lat="42.4093620" lon="-6.5122300">
        <ele>1722.2</ele>
        <time>2014-10-01T07:40:08Z</time>
      </trkpt>
      <trkpt lat="42.4093160" lon="-6.5121660">
        <ele>1721.7</ele>
        <time>2014-10-01T07:40:09Z</time>
      </trkpt>
      <trkpt lat="42.4092690" lon="-6.5121000">
        <ele>1721.3</ele>
        <time>2014-10-01T07:40:10Z</time>
      </trkpt>
      <trkpt lat="42.4092260" lon="-6.5120360">
        <ele>1720.8</ele>
        <time>2014-10-01T07:40:11Z</time>
      </trkpt>
      <trkpt lat="42.4091800" lon="-6.5119700">
        <ele>1720.2</ele>
        <time>2014-10-01T07:40:12Z</time>
      </trkpt>
      <trkpt lat="42.4091300" lon="-6.5118950">
        <ele>1719.5</ele>
        <time>2014-10-01T07:40:13Z</time>
      </trkpt>
      <trkpt lat="42.4090770" lon="-6.5118170">
        <ele>1718.9</ele>
        <time>2014-10-01T07:40:14Z</time>
      </trkpt>
      <trkpt lat="42.4090220" lon="-6.5117350">
        <ele>1718.3</ele>
        <time>2014-10-01T07:40:15Z</time>
      </trkpt>
      <trkpt lat="42.4089590" lon="-6.5116450">
        <ele>1717.7</ele>
        <time>2014-10-01T07:40:16Z</time>
      </trkpt>
      <trkpt lat="42.4088950" lon="-6.5115630">
        <ele>1717.0</ele>
        <time>2014-10-01T07:40:17Z</time>
      </trkpt>
      <trkpt lat="42.4088270" lon="-6.5114820">
        <ele>1716.4</ele>
        <time>2014-10-01T07:40:18Z</time>
      </trkpt>
      <trkpt lat="42.4087610" lon="-6.5114020">
        <ele>1715.8</ele>
        <time>2014-10-01T07:40:19Z</time>
      </trkpt>
      <trkpt lat="42.4086970" lon="-6.5113210">
        <ele>1715.3</ele>
        <time>2014-10-01T07:40:20Z</time>
      </trkpt>
      <trkpt lat="42.4086340" lon="-6.5112410">
        <ele>1714.7</ele>
        <time>2014-10-01T07:40:21Z</time>
      </trkpt>
      <trkpt lat="42.4085680" lon="-6.5111440">
        <ele>1714.0</ele>
        <time>2014-10-01T07:40:22Z</time>
      </trkpt>
      <trkpt lat="42.4085070" lon="-6.5110540">
        <ele>1713.3</ele>
        <time>2014-10-01T07:40:23Z</time>
      </trkpt>
      <trkpt lat="42.4084500" lon="-6.5109650">
        <ele>1712.5</ele>
        <time>2014-10-01T07:40:24Z</time>
      </trkpt>
      <trkpt lat="42.4083920" lon="-6.5108740">
        <ele>1711.7</ele>
        <time>2014-10-01T07:40:25Z</time>
      </trkpt>
      <trkpt lat="42.4083350" lon="-6.5107800">
        <ele>1711.1</ele>
        <time>2014-10-01T07:40:26Z</time>
      </trkpt>
      <trkpt lat="42.4082690" lon="-6.5106870">
        <ele>1710.4</ele>
        <time>2014-10-01T07:40:27Z</time>
      </trkpt>
      <trkpt lat="42.4082050" lon="-6.5106030">
        <ele>1709.8</ele>
        <time>2014-10-01T07:40:28Z</time>
      </trkpt>
      <trkpt lat="42.4081390" lon="-6.5105130">
        <ele>1709.1</ele>
        <time>2014-10-01T07:40:29Z</time>
      </trkpt>
      <trkpt lat="42.4080770" lon="-6.5104230">
        <ele>1708.5</ele>
        <time>2014-10-01T07:40:30Z</time>
      </trkpt>
      <trkpt lat="42.4080200" lon="-6.5103220">
        <ele>1707.8</ele>
        <time>2014-10-01T07:40:31Z</time>
      </trkpt>
      <trkpt lat="42.4079590" lon="-6.5102190">
        <ele>1707.2</ele>
        <time>2014-10-01T07:40:32Z</time>
      </trkpt>
      <trkpt lat="42.4078970" lon="-6.5101060">
        <ele>1706.5</ele>
        <time>2014-10-01T07:40:33Z</time>
      </trkpt>
      <trkpt lat="42.4078440" lon="-6.5099970">
        <ele>1705.9</ele>
        <time>2014-10-01T07:40:34Z</time>
      </trkpt>
      <trkpt lat="42.4077960" lon="-6.5098830">
        <ele>1705.3</ele>
        <time>2014-10-01T07:40:35Z</time>
      </trkpt>
      <trkpt lat="42.4077510" lon="-6.5097630">
        <ele>1704.7</ele>
        <time>2014-10-01T07:40:36Z</time>
      </trkpt>
      <trkpt lat="42.4077080" lon="-6.5096360">
        <ele>1704.2</ele>
        <time>2014-10-01T07:40:37Z</time>
      </trkpt>
      <trkpt lat="42.4076650" lon="-6.5095080">
        <ele>1703.6</ele>
        <time>2014-10-01T07:40:38Z</time>
      </trkpt>
      <trkpt lat="42.4076220" lon="-6.5093730">
        <ele>1703.1</ele>
        <time>2014-10-01T07:40:39Z</time>
      </trkpt>
      <trkpt lat="42.4075800" lon="-6.5092460">
        <ele>1702.6</ele>
        <time>2014-10-01T07:40:40Z</time>
      </trkpt>
      <trkpt lat="42.4075170" lon="-6.5091490">
        <ele>1702.0</ele>
        <time>2014-10-01T07:40:41Z</time>
      </trkpt>
      <trkpt lat="42.4074390" lon="-6.5090910">
        <ele>1701.4</ele>
        <time>2014-10-01T07:40:42Z</time>
      </trkpt>
      <trkpt lat="42.4073590" lon="-6.5090780">
        <ele>1700.8</ele>
        <time>2014-10-01T07:40:43Z</time>
      </trkpt>
      <trkpt lat="42.4072990" lon="-6.5091280">
        <ele>1700.2</ele>
        <time>2014-10-01T07:40:44Z</time>
      </trkpt>
      <trkpt lat="42.4072690" lon="-6.5092130">
        <ele>1699.7</ele>
        <time>2014-10-01T07:40:45Z</time>
      </trkpt>
      <trkpt lat="42.4072630" lon="-6.5093220">
        <ele>1699.2</ele>
        <time>2014-10-01T07:40:46Z</time>
      </trkpt>
      <trkpt lat="42.4072610" lon="-6.5094370">
        <ele>1698.7</ele>
        <time>2014-10-01T07:40:47Z</time>
      </trkpt>
      <trkpt lat="42.4072650" lon="-6.5095530">
        <ele>1698.2</ele>
        <time>2014-10-01T07:40:48Z</time>
      </trkpt>
      <trkpt lat="42.4072730" lon="-6.5096720">
        <ele>1697.7</ele>
        <time>2014-10-01T07:40:49Z</time>
      </trkpt>
      <trkpt lat="42.4072820" lon="-6.5097950">
        <ele>1697.2</ele>
        <time>2014-10-01T07:40:50Z</time>
      </trkpt>
      <trkpt lat="42.4072880" lon="-6.5099240">
        <ele>1696.6</ele>
        <time>2014-10-01T07:40:51Z</time>
      </trkpt>
      <trkpt lat="42.4072930" lon="-6.5100560">
        <ele>1696.0</ele>
        <time>2014-10-01T07:40:52Z</time>
      </trkpt>
      <trkpt lat="42.4072980" lon="-6.5101870">
        <ele>1695.3</ele>
        <time>2014-10-01T07:40:53Z</time>
      </trkpt>
      <trkpt lat="42.4073020" lon="-6.5103210">
        <ele>1694.7</ele>
        <time>2014-10-01T07:40:54Z</time>
      </trkpt>
      <trkpt lat="42.4073050" lon="-6.5104590">
        <ele>1694.1</ele>
        <time>2014-10-01T07:40:55Z</time>
      </trkpt>
      <trkpt lat="42.4073050" lon="-6.5105990">
        <ele>1693.6</ele>
        <time>2014-10-01T07:40:56Z</time>
      </trkpt>
      <trkpt lat="42.4073000" lon="-6.5107410">
        <ele>1693.0</ele>
        <time>2014-10-01T07:40:57Z</time>
      </trkpt>
      <trkpt lat="42.4072560" lon="-6.5108630">
        <ele>1692.5</ele>
        <time>2014-10-01T07:40:58Z</time>
      </trkpt>
      <trkpt lat="42.4071830" lon="-6.5109630">
        <ele>1691.9</ele>
        <time>2014-10-01T07:40:59Z</time>
      </trkpt>
      <trkpt lat="42.4070810" lon="-6.5110320">
        <ele>1691.2</ele>
        <time>2014-10-01T07:41:00Z</time>
      </trkpt>
      <trkpt lat="42.4069680" lon="-6.5110570">
        <ele>1690.8</ele>
        <time>2014-10-01T07:41:01Z</time>
      </trkpt>
      <trkpt lat="42.4068670" lon="-6.5110320">
        <ele>1690.5</ele>
        <time>2014-10-01T07:41:02Z</time>
      </trkpt>
      <trkpt lat="42.4067740" lon="-6.5109730">
        <ele>1690.4</ele>
        <time>2014-10-01T07:41:03Z</time>
      </trkpt>
      <trkpt lat="42.4066930" lon="-6.5109060">
        <ele>1690.5</ele>
        <time>2014-10-01T07:41:04Z</time>
      </trkpt>
      <trkpt lat="42.4066160" lon="-6.5108340">
        <ele>1690.6</ele>
        <time>2014-10-01T07:41:05Z</time>
      </trkpt>
      <trkpt lat="42.4065380" lon="-6.5107610">
        <ele>1690.8</ele>
        <time>2014-10-01T07:41:06Z</time>
      </trkpt>
      <trkpt lat="42.4064610" lon="-6.5106910">
        <ele>1690.9</ele>
        <time>2014-10-01T07:41:07Z</time>
      </trkpt>
      <trkpt lat="42.4063850" lon="-6.5106260">
        <ele>1690.9</ele>
        <time>2014-10-01T07:41:08Z</time>
      </trkpt>
      <trkpt lat="42.4063090" lon="-6.5105700">
        <ele>1690.9</ele>
        <time>2014-10-01T07:41:09Z</time>
      </trkpt>
      <trkpt lat="42.4062290" lon="-6.5105220">
        <ele>1691.0</ele>
        <time>2014-10-01T07:41:10Z</time>
      </trkpt>
      <trkpt lat="42.4061480" lon="-6.5104800">
        <ele>1691.2</ele>
        <time>2014-10-01T07:41:11Z</time>
      </trkpt>
      <trkpt lat="42.4060680" lon="-6.5104360">
        <ele>1691.4</ele>
        <time>2014-10-01T07:41:12Z</time>
      </trkpt>
      <trkpt lat="42.4059910" lon="-6.5103860">
        <ele>1691.6</ele>
        <time>2014-10-01T07:41:13Z</time>
      </trkpt>
      <trkpt lat="42.4059190" lon="-6.5103290">
        <ele>1691.8</ele>
        <time>2014-10-01T07:41:14Z</time>
      </trkpt>
      <trkpt lat="42.4058640" lon="-6.5102480">
        <ele>1692.0</ele>
        <time>2014-10-01T07:41:15Z</time>
      </trkpt>
      <trkpt lat="42.4058160" lon="-6.5101660">
        <ele>1692.2</ele>
        <time>2014-10-01T07:41:16Z</time>
      </trkpt>
      <trkpt lat="42.4057740" lon="-6.5100810">
        <ele>1692.4</ele>
        <time>2014-10-01T07:41:17Z</time>
      </trkpt>
      <trkpt lat="42.4057470" lon="-6.5099820">
        <ele>1692.7</ele>
        <time>2014-10-01T07:41:18Z</time>
      </trkpt>
      <trkpt lat="42.4057200" lon="-6.5098840">
        <ele>1692.9</ele>
        <time>2014-10-01T07:41:19Z</time>
      </trkpt>
      <trkpt lat="42.4056940" lon="-6.5097860">
        <ele>1693.1</ele>
        <time>2014-10-01T07:41:20Z</time>
      </trkpt>
      <trkpt lat="42.4056670" lon="-6.5096920">
        <ele>1693.3</ele>
        <time>2014-10-01T07:41:21Z</time>
      </trkpt>
      <trkpt lat="42.4056410" lon="-6.5096000">
        <ele>1693.5</ele>
        <time>2014-10-01T07:41:22Z</time>
      </trkpt>
      <trkpt lat="42.4056120" lon="-6.5095160">
        <ele>1693.8</ele>
        <time>2014-10-01T07:41:23Z</time>
      </trkpt>
      <trkpt lat="42.4055810" lon="-6.5094300">
        <ele>1694.0</ele>
        <time>2014-10-01T07:41:24Z</time>
      </trkpt>
      <trkpt lat="42.4055490" lon="-6.5093410">
        <ele>1694.2</ele>
        <time>2014-10-01T07:41:25Z</time>
      </trkpt>
      <trkpt lat="42.4055160" lon="-6.5092530">
        <ele>1694.4</ele>
        <time>2014-10-01T07:41:26Z</time>
      </trkpt>
      <trkpt lat="42.4054810" lon="-6.5091690">
        <ele>1694.7</ele>
        <time>2014-10-01T07:41:27Z</time>
      </trkpt>
      <trkpt lat="42.4054480" lon="-6.5090920">
        <ele>1694.9</ele>
        <time>2014-10-01T07:41:28Z</time>
      </trkpt>
      <trkpt lat="42.4054150" lon="-6.5090250">
        <ele>1695.1</ele>
        <time>2014-10-01T07:41:29Z</time>
      </trkpt>
      <trkpt lat="42.4053800" lon="-6.5089560">
        <ele>1695.3</ele>
        <time>2014-10-01T07:41:30Z</time>
      </trkpt>
      <trkpt lat="42.4053480" lon="-6.5088910">
        <ele>1695.5</ele>
        <time>2014-10-01T07:41:31Z</time>
      </trkpt>
      <trkpt lat="42.4053110" lon="-6.5088240">
        <ele>1695.8</ele>
        <time>2014-10-01T07:41:32Z</time>
      </trkpt>
      <trkpt lat="42.4052720" lon="-6.5087570">
        <ele>1696.1</ele>
        <time>2014-10-01T07:41:33Z</time>
      </trkpt>
      <trkpt lat="42.4052310" lon="-6.5086900">
        <ele>1696.4</ele>
        <time>2014-10-01T07:41:34Z</time>
      </trkpt>
      <trkpt lat="42.4051910" lon="-6.5086250">
        <ele>1696.7</ele>
        <time>2014-10-01T07:41:35Z</time>
      </trkpt>
      <trkpt lat="42.4051500" lon="-6.5085620">
        <ele>1697.0</ele>
        <time>2014-10-01T07:41:36Z</time>
      </trkpt>
      <trkpt lat="42.4051120" lon="-6.5085080">
        <ele>1697.3</ele>
        <time>2014-10-01T07:41:37Z</time>
      </trkpt>
      <trkpt lat="42.4050730" lon="-6.5084550">
        <ele>1697.5</ele>
        <time>2014-10-01T07:41:38Z</time>
      </trkpt>
      <trkpt lat="42.4050340" lon="-6.5084080">
        <ele>1697.8</ele>
        <time>2014-10-01T07:41:39Z</time>
      </trkpt>
      <trkpt lat="42.4049940" lon="-6.5083590">
        <ele>1698.1</ele>
        <time>2014-10-01T07:41:40Z</time>
      </trkpt>
      <trkpt lat="42.4049510" lon="-6.5083080">
        <ele>1698.4</ele>
        <time>2014-10-01T07:41:41Z</time>
      </trkpt>
      <trkpt lat="42.4049080" lon="-6.5082570">
        <ele>1698.6</ele>
        <time>2014-10-01T07:41:42Z</time>
      </trkpt>
      <trkpt lat="42.4048660" lon="-6.5082110">
        <ele>1698.9</ele>
        <time>2014-10-01T07:41:43Z</time>
      </trkpt>
      <trkpt lat="42.4048230" lon="-6.5081700">
        <ele>1699.1</ele>
        <time>2014-10-01T07:41:44Z</time>
      </trkpt>
      <trkpt lat="42.4047750" lon="-6.5081290">
        <ele>1699.4</ele>
        <time>2014-10-01T07:41:45Z</time>
      </trkpt>
      <trkpt lat="42.4047300" lon="-6.5080940">
        <ele>1699.6</ele>
        <time>2014-10-01T07:41:46Z</time>
      </trkpt>
      <trkpt lat="42.4046920" lon="-6.5080660">
        <ele>1699.8</ele>
        <time>2014-10-01T07:41:47Z</time>
      </trkpt>
      <trkpt lat="42.4046430" lon="-6.5080430">
        <ele>1699.9</ele>
        <time>2014-10-01T07:41:48Z</time>
      </trkpt>
      <trkpt lat="42.4045920" lon="-6.5080200">
        <ele>1700.1</ele>
        <time>2014-10-01T07:41:49Z</time>
      </trkpt>
      <trkpt lat="42.4045490" lon="-6.5080000">
        <ele>1700.3</ele>
        <time>2014-10-01T07:41:50Z</time>
      </trkpt>
      <trkpt lat="42.4045000" lon="-6.5079750">
        <ele>1700.5</ele>
        <time>2014-10-01T07:41:51Z</time>
      </trkpt>
      <trkpt lat="42.4044500" lon="-6.5079470">
        <ele>1700.7</ele>
        <time>2014-10-01T07:41:52Z</time>
      </trkpt>
      <trkpt lat="42.4044060" lon="-6.5079050">
        <ele>1700.9</ele>
        <time>2014-10-01T07:41:53Z</time>
      </trkpt>
      <trkpt lat="42.4043730" lon="-6.5078520">
        <ele>1701.0</ele>
        <time>2014-10-01T07:41:54Z</time>
      </trkpt>
      <trkpt lat="42.4043380" lon="-6.5077910">
        <ele>1701.2</ele>
        <time>2014-10-01T07:41:55Z</time>
      </trkpt>
      <trkpt lat="42.4043220" lon="-6.5077190">
        <ele>1701.3</ele>
        <time>2014-10-01T07:41:56Z</time>
      </trkpt>
      <trkpt lat="42.4043120" lon="-6.5076490">
        <ele>1701.4</ele>
        <time>2014-10-01T07:41:57Z</time>
      </trkpt>
      <trkpt lat="42.4043060" lon="-6.5075750">
        <ele>1701.5</ele>
        <time>2014-10-01T07:41:58Z</time>
      </trkpt>
      <trkpt lat="42.4043040" lon="-6.5074990">
        <ele>1701.5</ele>
        <time>2014-10-01T07:41:59Z</time>
      </trkpt>
      <trkpt lat="42.4043060" lon="-6.5074170">
        <ele>1701.6</ele>
        <time>2014-10-01T07:42:00Z</time>
      </trkpt>
      <trkpt lat="42.4043120" lon="-6.5073310">
        <ele>1701.6</ele>
        <time>2014-10-01T07:42:01Z</time>
      </trkpt>
      <trkpt lat="42.4043170" lon="-6.5072450">
        <ele>1701.6</ele>
        <time>2014-10-01T07:42:02Z</time>
      </trkpt>
      <trkpt lat="42.4043230" lon="-6.5071600">
        <ele>1701.5</ele>
        <time>2014-10-01T07:42:03Z</time>
      </trkpt>
      <trkpt lat="42.4043260" lon="-6.5070770">
        <ele>1701.4</ele>
        <time>2014-10-01T07:42:04Z</time>
      </trkpt>
      <trkpt lat="42.4043250" lon="-6.5069920">
        <ele>1701.4</ele>
        <time>2014-10-01T07:42:05Z</time>
      </trkpt>
      <trkpt lat="42.4043210" lon="-6.5069030">
        <ele>1701.3</ele>
        <time>2014-10-01T07:42:06Z</time>
      </trkpt>
      <trkpt lat="42.4043120" lon="-6.5068160">
        <ele>1701.2</ele>
        <time>2014-10-01T07:42:07Z</time>
      </trkpt>
      <trkpt lat="42.4042990" lon="-6.5067270">
        <ele>1701.2</ele>
        <time>2014-10-01T07:42:08Z</time>
      </trkpt>
      <trkpt lat="42.4042820" lon="-6.5066350">
        <ele>1701.2</ele>
        <time>2014-10-01T07:42:09Z</time>
      </trkpt>
      <trkpt lat="42.4042640" lon="-6.5065480">
        <ele>1701.1</ele>
        <time>2014-10-01T07:42:10Z</time>
      </trkpt>
      <trkpt lat="42.4042440" lon="-6.5064530">
        <ele>1701.1</ele>
        <time>2014-10-01T07:42:11Z</time>
      </trkpt>
      <trkpt lat="42.4042210" lon="-6.5063620">
        <ele>1701.1</ele>
        <time>2014-10-01T07:42:12Z</time>
      </trkpt>
      <trkpt lat="42.4041980" lon="-6.5062760">
        <ele>1701.1</ele>
        <time>2014-10-01T07:42:13Z</time>
      </trkpt>
      <trkpt lat="42.4041730" lon="-6.5061860">
        <ele>1701.1</ele>
        <time>2014-10-01T07:42:14Z</time>
      </trkpt>
      <trkpt lat="42.4041500" lon="-6.5060940">
        <ele>1701.2</ele>
        <time>2014-10-01T07:42:15Z</time>
      </trkpt>
      <trkpt lat="42.4041250" lon="-6.5060020">
        <ele>1701.3</ele>
        <time>2014-10-01T07:42:16Z</time>
      </trkpt>
      <trkpt lat="42.4041010" lon="-6.5059130">
        <ele>1701.3</ele>
        <time>2014-10-01T07:42:17Z</time>
      </trkpt>
      <trkpt lat="42.4040770" lon="-6.5058260">
        <ele>1701.3</ele>
        <time>2014-10-01T07:42:18Z</time>
      </trkpt>
      <trkpt lat="42.4040520" lon="-6.5057400">
        <ele>1701.4</ele>
        <time>2014-10-01T07:42:19Z</time>
      </trkpt>
      <trkpt lat="42.4040250" lon="-6.5056530">
        <ele>1701.4</ele>
        <time>2014-10-01T07:42:20Z</time>
      </trkpt>
      <trkpt lat="42.4039970" lon="-6.5055680">
        <ele>1701.5</ele>
        <time>2014-10-01T07:42:21Z</time>
      </trkpt>
      <trkpt lat="42.4039700" lon="-6.5054820">
        <ele>1701.5</ele>
        <time>2014-10-01T07:42:22Z</time>
      </trkpt>
      <trkpt lat="42.4039390" lon="-6.5053980">
        <ele>1701.6</ele>
        <time>2014-10-01T07:42:23Z</time>
      </trkpt>
      <trkpt lat="42.4039070" lon="-6.5053170">
        <ele>1701.7</ele>
        <time>2014-10-01T07:42:24Z</time>
      </trkpt>
      <trkpt lat="42.4038720" lon="-6.5052330">
        <ele>1701.6</ele>
        <time>2014-10-01T07:42:25Z</time>
      </trkpt>
      <trkpt lat="42.4038340" lon="-6.5051460">
        <ele>1701.6</ele>
        <time>2014-10-01T07:42:26Z</time>
      </trkpt>
      <trkpt lat="42.4037960" lon="-6.5050610">
        <ele>1701.6</ele>
        <time>2014-10-01T07:42:27Z</time>
      </trkpt>
      <trkpt lat="42.4037550" lon="-6.5049780">
        <ele>1701.6</ele>
        <time>2014-10-01T07:42:28Z</time>
      </trkpt>
      <trkpt lat="42.4037130" lon="-6.5048970">
        <ele>1701.7</ele>
        <time>2014-10-01T07:42:29Z</time>
      </trkpt>
      <trkpt lat="42.4036700" lon="-6.5048180">
        <ele>1701.8</ele>
        <time>2014-10-01T07:42:30Z</time>
      </trkpt>
      <trkpt lat="42.4036290" lon="-6.5047430">
        <ele>1701.9</ele>
        <time>2014-10-01T07:42:31Z</time>
      </trkpt>
      <trkpt lat="42.4035880" lon="-6.5046720">
        <ele>1702.0</ele>
        <time>2014-10-01T07:42:32Z</time>
      </trkpt>
      <trkpt lat="42.4035480" lon="-6.5046010">
        <ele>1702.1</ele>
        <time>2014-10-01T07:42:33Z</time>
      </trkpt>
      <trkpt lat="42.4035040" lon="-6.5045260">
        <ele>1702.1</ele>
        <time>2014-10-01T07:42:34Z</time>
      </trkpt>
      <trkpt lat="42.4034590" lon="-6.5044490">
        <ele>1702.2</ele>
        <time>2014-10-01T07:42:35Z</time>
      </trkpt>
      <trkpt lat="42.4034150" lon="-6.5043770">
        <ele>1702.3</ele>
        <time>2014-10-01T07:42:36Z</time>
      </trkpt>
      <trkpt lat="42.4033730" lon="-6.5043060">
        <ele>1702.4</ele>
        <time>2014-10-01T07:42:37Z</time>
      </trkpt>
      <trkpt lat="42.4033290" lon="-6.5042390">
        <ele>1702.5</ele>
        <time>2014-10-01T07:42:38Z</time>
      </trkpt>
      <trkpt lat="42.4032830" lon="-6.5041740">
        <ele>1702.7</ele>
        <time>2014-10-01T07:42:39Z</time>
      </trkpt>
      <trkpt lat="42.4032350" lon="-6.5041130">
        <ele>1702.8</ele>
        <time>2014-10-01T07:42:40Z</time>
      </trkpt>
      <trkpt lat="42.4031830" lon="-6.5040540">
        <ele>1702.9</ele>
        <time>2014-10-01T07:42:41Z</time>
      </trkpt>
      <trkpt lat="42.4031290" lon="-6.5039990">
        <ele>1703.1</ele>
        <time>2014-10-01T07:42:42Z</time>
      </trkpt>
      <trkpt lat="42.4030750" lon="-6.5039520">
        <ele>1703.3</ele>
        <time>2014-10-01T07:42:43Z</time>
      </trkpt>
      <trkpt lat="42.4030210" lon="-6.5039080">
        <ele>1703.5</ele>
        <time>2014-10-01T07:42:44Z</time>
      </trkpt>
      <trkpt lat="42.4029600" lon="-6.5038800">
        <ele>1703.7</ele>
        <time>2014-10-01T07:42:45Z</time>
      </trkpt>
      <trkpt lat="42.4028980" lon="-6.5038540">
        <ele>1704.0</ele>
        <time>2014-10-01T07:42:46Z</time>
      </trkpt>
      <trkpt lat="42.4028370" lon="-6.5038500">
        <ele>1704.2</ele>
        <time>2014-10-01T07:42:47Z</time>
      </trkpt>
      <trkpt lat="42.4027720" lon="-6.5038480">
        <ele>1704.4</ele>
        <time>2014-10-01T07:42:48Z</time>
      </trkpt>
      <trkpt lat="42.4027100" lon="-6.5038480">
        <ele>1704.6</ele>
        <time>2014-10-01T07:42:49Z</time>
      </trkpt>
      <trkpt lat="42.4026490" lon="-6.5038510">
        <ele>1704.8</ele>
        <time>2014-10-01T07:42:50Z</time>
      </trkpt>
      <trkpt lat="42.4025880" lon="-6.5038570">
        <ele>1705.1</ele>
        <time>2014-10-01T07:42:51Z</time>
      </trkpt>
      <trkpt lat="42.4025270" lon="-6.5038620">
        <ele>1705.3</ele>
        <time>2014-10-01T07:42:52Z</time>
      </trkpt>
      <trkpt lat="42.4024730" lon="-6.5038680">
        <ele>1705.6</ele>
        <time>2014-10-01T07:42:53Z</time>
      </trkpt>
      <trkpt lat="42.4024110" lon="-6.5038720">
        <ele>1705.9</ele>
        <time>2014-10-01T07:42:54Z</time>
      </trkpt>
      <trkpt lat="42.4023620" lon="-6.5038730">
        <ele>1706.1</ele>
        <time>2014-10-01T07:42:55Z</time>
      </trkpt>
      <trkpt lat="42.4023100" lon="-6.5038730">
        <ele>1706.3</ele>
        <time>2014-10-01T07:42:56Z</time>
      </trkpt>
      <trkpt lat="42.4022650" lon="-6.5038720">
        <ele>1706.6</ele>
        <time>2014-10-01T07:42:57Z</time>
      </trkpt>
      <trkpt lat="42.4022160" lon="-6.5038700">
        <ele>1706.8</ele>
        <time>2014-10-01T07:42:58Z</time>
      </trkpt>
      <trkpt lat="42.4021630" lon="-6.5038690">
        <ele>1707.1</ele>
        <time>2014-10-01T07:42:59Z</time>
      </trkpt>
      <trkpt lat="42.4021130" lon="-6.5038660">
        <ele>1707.4</ele>
        <time>2014-10-01T07:43:00Z</time>
      </trkpt>
      <trkpt lat="42.4020600" lon="-6.5038610">
        <ele>1707.7</ele>
        <time>2014-10-01T07:43:01Z</time>
      </trkpt>
      <trkpt lat="42.4020100" lon="-6.5038530">
        <ele>1708.1</ele>
        <time>2014-10-01T07:43:02Z</time>
      </trkpt>
      <trkpt lat="42.4019610" lon="-6.5038430">
        <ele>1708.4</ele>
        <time>2014-10-01T07:43:03Z</time>
      </trkpt>
      <trkpt lat="42.4019130" lon="-6.5038320">
        <ele>1708.7</ele>
        <time>2014-10-01T07:43:04Z</time>
      </trkpt>
      <trkpt lat="42.4018690" lon="-6.5038220">
        <ele>1709.1</ele>
        <time>2014-10-01T07:43:05Z</time>
      </trkpt>
      <trkpt lat="42.4018270" lon="-6.5038120">
        <ele>1709.4</ele>
        <time>2014-10-01T07:43:06Z</time>
      </trkpt>
      <trkpt lat="42.4017830" lon="-6.5038030">
        <ele>1709.7</ele>
        <time>2014-10-01T07:43:07Z</time>
      </trkpt>
      <trkpt lat="42.4017410" lon="-6.5037950">
        <ele>1710.0</ele>
        <time>2014-10-01T07:43:08Z</time>
      </trkpt>
      <trkpt lat="42.4017070" lon="-6.5037840">
        <ele>1710.2</ele>
        <time>2014-10-01T07:43:09Z</time>
      </trkpt>
      <trkpt lat="42.4016720" lon="-6.5037740">
        <ele>1710.4</ele>
        <time>2014-10-01T07:43:10Z</time>
      </trkpt>
      <trkpt lat="42.4016350" lon="-6.5037650">
        <ele>1710.6</ele>
        <time>2014-10-01T07:43:11Z</time>
      </trkpt>
      <trkpt lat="42.4015930" lon="-6.5037580">
        <ele>1710.8</ele>
        <time>2014-10-01T07:43:12Z</time>
      </trkpt>
      <trkpt lat="42.4015480" lon="-6.5037530">
        <ele>1711.1</ele>
        <time>2014-10-01T07:43:13Z</time>
      </trkpt>
      <trkpt lat="42.4015000" lon="-6.5037480">
        <ele>1711.3</ele>
        <time>2014-10-01T07:43:14Z</time>
      </trkpt>
      <trkpt lat="42.4014530" lon="-6.5037440">
        <ele>1711.5</ele>
        <time>2014-10-01T07:43:15Z</time>
      </trkpt>
      <trkpt lat="42.4014060" lon="-6.5037390">
        <ele>1711.8</ele>
        <time>2014-10-01T07:43:16Z</time>
      </trkpt>
      <trkpt lat="42.4013530" lon="-6.5037350">
        <ele>1712.0</ele>
        <time>2014-10-01T07:43:17Z</time>
      </trkpt>
      <trkpt lat="42.4012990" lon="-6.5037310">
        <ele>1712.1</ele>
        <time>2014-10-01T07:43:18Z</time>
      </trkpt>
      <trkpt lat="42.4012420" lon="-6.5037200">
        <ele>1712.3</ele>
        <time>2014-10-01T07:43:19Z</time>
      </trkpt>
      <trkpt lat="42.4011880" lon="-6.5036870">
        <ele>1712.6</ele>
        <time>2014-10-01T07:43:20Z</time>
      </trkpt>
      <trkpt lat="42.4011400" lon="-6.5036530">
        <ele>1712.8</ele>
        <time>2014-10-01T07:43:21Z</time>
      </trkpt>
      <trkpt lat="42.4010970" lon="-6.5036140">
        <ele>1713.1</ele>
        <time>2014-10-01T07:43:22Z</time>
      </trkpt>
      <trkpt lat="42.4010650" lon="-6.5035620">
        <ele>1713.3</ele>
        <time>2014-10-01T07:43:23Z</time>
      </trkpt>
      <trkpt lat="42.4010310" lon="-6.5035120">
        <ele>1713.6</ele>
        <time>2014-10-01T07:43:24Z</time>
      </trkpt>
      <trkpt lat="42.4010000" lon="-6.5034650">
        <ele>1713.9</ele>
        <time>2014-10-01T07:43:25Z</time>
      </trkpt>
      <trkpt lat="42.4009700" lon="-6.5034200">
        <ele>1714.2</ele>
        <time>2014-10-01T07:43:26Z</time>
      </trkpt>
      <trkpt lat="42.4009410" lon="-6.5033760">
        <ele>1714.5</ele>
        <time>2014-10-01T07:43:27Z</time>
      </trkpt>
      <trkpt lat="42.4009150" lon="-6.5033370">
        <ele>1714.8</ele>
        <time>2014-10-01T07:43:28Z</time>
      </trkpt>
      <trkpt lat="42.4008920" lon="-6.5033020">
        <ele>1715.0</ele>
        <time>2014-10-01T07:43:29Z</time>
      </trkpt>
      <trkpt lat="42.4008640" lon="-6.5032590">
        <ele>1715.4</ele>
        <time>2014-10-01T07:43:30Z</time>
      </trkpt>
      <trkpt lat="42.4008370" lon="-6.5032220">
        <ele>1715.7</ele>
        <time>2014-10-01T07:43:31Z</time>
      </trkpt>
      <trkpt lat="42.4008120" lon="-6.5031900">
        <ele>1716.0</ele>
        <time>2014-10-01T07:43:32Z</time>
      </trkpt>
      <trkpt lat="42.4007890" lon="-6.5031620">
        <ele>1716.2</ele>
        <time>2014-10-01T07:43:33Z</time>
      </trkpt>
      <trkpt lat="42.4007640" lon="-6.5031360">
        <ele>1716.5</ele>
        <time>2014-10-01T07:43:34Z</time>
      </trkpt>
      <trkpt lat="42.4007390" lon="-6.5031100">
        <ele>1716.8</ele>
        <time>2014-10-01T07:43:35Z</time>
      </trkpt>
      <trkpt lat="42.4007150" lon="-6.5030860">
        <ele>1717.1</ele>
        <time>2014-10-01T07:43:36Z</time>
      </trkpt>
      <trkpt lat="42.4006870" lon="-6.5030610">
        <ele>1717.4</ele>
        <time>2014-10-01T07:43:37Z</time>
      </trkpt>
      <trkpt lat="42.4006600" lon="-6.5030360">
        <ele>1717.7</ele>
        <time>2014-10-01T07:43:38Z</time>
      </trkpt>
      <trkpt lat="42.4006340" lon="-6.5030110">
        <ele>1718.0</ele>
        <time>2014-10-01T07:43:39Z</time>
      </trkpt>
      <trkpt lat="42.4006070" lon="-6.5029880">
        <ele>1718.3</ele>
        <time>2014-10-01T07:43:40Z</time>
      </trkpt>
      <trkpt lat="42.4005800" lon="-6.5029640">
        <ele>1718.6</ele>
        <time>2014-10-01T07:43:41Z</time>
      </trkpt>
      <trkpt lat="42.4005550" lon="-6.5029430">
        <ele>1718.8</ele>
        <time>2014-10-01T07:43:42Z</time>
      </trkpt>
      <trkpt lat="42.4005290" lon="-6.5029240">
        <ele>1719.1</ele>
        <time>2014-10-01T07:43:43Z</time>
      </trkpt>
      <trkpt lat="42.4005000" lon="-6.5029040">
        <ele>1719.4</ele>
        <time>2014-10-01T07:43:44Z</time>
      </trkpt>
      <trkpt lat="42.4004710" lon="-6.5028830">
        <ele>1719.6</ele>
        <time>2014-10-01T07:43:45Z</time>
      </trkpt>
      <trkpt lat="42.4004400" lon="-6.5028640">
        <ele>1719.9</ele>
        <time>2014-10-01T07:43:46Z</time>
      </trkpt>
      <trkpt lat="42.4004080" lon="-6.5028440">
        <ele>1720.2</ele>
        <time>2014-10-01T07:43:47Z</time>
      </trkpt>
      <trkpt lat="42.4003730" lon="-6.5028290">
        <ele>1720.4</ele>
        <time>2014-10-01T07:43:48Z</time>
      </trkpt>
      <trkpt lat="42.4003370" lon="-6.5028130">
        <ele>1720.7</ele>
        <time>2014-10-01T07:43:49Z</time>
      </trkpt>
      <trkpt lat="42.4002990" lon="-6.5027970">
        <ele>1720.9</ele>
        <time>2014-10-01T07:43:50Z</time>
      </trkpt>
      <trkpt lat="42.4002650" lon="-6.5027830">
        <ele>1721.1</ele>
        <time>2014-10-01T07:43:51Z</time>
      </trkpt>
      <trkpt lat="42.4002330" lon="-6.5027710">
        <ele>1721.3</ele>
        <time>2014-10-01T07:43:52Z</time>
      </trkpt>
      <trkpt lat="42.4001980" lon="-6.5027620">
        <ele>1721.5</ele>
        <time>2014-10-01T07:43:53Z</time>
      </trkpt>
      <trkpt lat="42.4001610" lon="-6.5027570">
        <ele>1721.7</ele>
        <time>2014-10-01T07:43:54Z</time>
      </trkpt>
      <trkpt lat="42.4001250" lon="-6.5027560">
        <ele>1721.9</ele>
        <time>2014-10-01T07:43:55Z</time>
      </trkpt>
      <trkpt lat="42.4000890" lon="-6.5027570">
        <ele>1722.0</ele>
        <time>2014-10-01T07:43:56Z</time>
      </trkpt>
      <trkpt lat="42.4000560" lon="-6.5027700">
        <ele>1722.1</ele>
        <time>2014-10-01T07:43:57Z</time>
      </trkpt>
      <trkpt lat="42.4000230" lon="-6.5027830">
        <ele>1722.2</ele>
        <time>2014-10-01T07:43:58Z</time>
      </trkpt>
      <trkpt lat="42.3999960" lon="-6.5027960">
        <ele>1722.3</ele>
        <time>2014-10-01T07:43:59Z</time>
      </trkpt>
      <trkpt lat="42.3999640" lon="-6.5028110">
        <ele>1722.3</ele>
        <time>2014-10-01T07:44:01Z</time>
      </trkpt>
      <trkpt lat="42.3999220" lon="-6.5028340">
        <ele>1722.4</ele>
        <time>2014-10-01T07:44:03Z</time>
      </trkpt>
      <trkpt lat="42.3998790" lon="-6.5028600">
        <ele>1722.4</ele>
        <time>2014-10-01T07:44:05Z</time>
      </trkpt>
      <trkpt lat="42.3998530" lon="-6.5028930">
        <ele>1722.4</ele>
        <time>2014-10-01T07:44:07Z</time>
      </trkpt>
      <trkpt lat="42.3998170" lon="-6.5029310">
        <ele>1722.2</ele>
        <time>2014-10-01T07:44:09Z</time>
      </trkpt>
      <trkpt lat="42.3997930" lon="-6.5029510">
        <ele>1722.1</ele>
        <time>2014-10-01T07:44:10Z</time>
      </trkpt>
      <trkpt lat="42.3997620" lon="-6.5029720">
        <ele>1722.0</ele>
        <time>2014-10-01T07:44:11Z</time>
      </trkpt>
      <trkpt lat="42.3997280" lon="-6.5029960">
        <ele>1721.8</ele>
        <time>2014-10-01T07:44:12Z</time>
      </trkpt>
      <trkpt lat="42.3996870" lon="-6.5030220">
        <ele>1721.5</ele>
        <time>2014-10-01T07:44:13Z</time>
      </trkpt>
      <trkpt lat="42.3996430" lon="-6.5030500">
        <ele>1721.2</ele>
        <time>2014-10-01T07:44:14Z</time>
      </trkpt>
      <trkpt lat="42.3995770" lon="-6.5030920">
        <ele>1720.8</ele>
        <time>2014-10-01T07:44:16Z</time>
      </trkpt>
      <trkpt lat="42.3995140" lon="-6.5031390">
        <ele>1720.3</ele>
        <time>2014-10-01T07:44:17Z</time>
      </trkpt>
      <trkpt lat="42.3994220" lon="-6.5032540">
        <ele>1719.4</ele>
        <time>2014-10-01T07:44:18Z</time>
      </trkpt>
      <trkpt lat="42.3993540" lon="-6.5033000">
        <ele>1718.9</ele>
        <time>2014-10-01T07:44:19Z</time>
      </trkpt>
      <trkpt lat="42.3992870" lon="-6.5033480">
        <ele>1718.3</ele>
        <time>2014-10-01T07:44:20Z</time>
      </trkpt>
      <trkpt lat="42.3992020" lon="-6.5033960">
        <ele>1717.7</ele>
        <time>2014-10-01T07:44:21Z</time>
      </trkpt>
      <trkpt lat="42.3991180" lon="-6.5034410">
        <ele>1717.3</ele>
        <time>2014-10-01T07:44:22Z</time>
      </trkpt>
      <trkpt lat="42.3990320" lon="-6.5034860">
        <ele>1717.0</ele>
        <time>2014-10-01T07:44:23Z</time>
      </trkpt>
      <trkpt lat="42.3989410" lon="-6.5035240">
        <ele>1716.7</ele>
        <time>2014-10-01T07:44:24Z</time>
      </trkpt>
      <trkpt lat="42.3988500" lon="-6.5035600">
        <ele>1716.6</ele>
        <time>2014-10-01T07:44:25Z</time>
      </trkpt>
      <trkpt lat="42.3987550" lon="-6.5035680">
        <ele>1716.6</ele>
        <time>2014-10-01T07:44:26Z</time>
      </trkpt>
      <trkpt lat="42.3986830" lon="-6.5035890">
        <ele>1716.6</ele>
        <time>2014-10-01T07:44:27Z</time>
      </trkpt>
      <trkpt lat="42.3986150" lon="-6.5036140">
        <ele>1716.7</ele>
        <time>2014-10-01T07:44:28Z</time>
      </trkpt>
      <trkpt lat="42.3985520" lon="-6.5036540">
        <ele>1716.8</ele>
        <time>2014-10-01T07:44:29Z</time>
      </trkpt>
      <trkpt lat="42.3984940" lon="-6.5036920">
        <ele>1716.9</ele>
        <time>2014-10-01T07:44:30Z</time>
      </trkpt>
      <trkpt lat="42.3984400" lon="-6.5037280">
        <ele>1717.1</ele>
        <time>2014-10-01T07:44:31Z</time>
      </trkpt>
      <trkpt lat="42.3983960" lon="-6.5037490">
        <ele>1717.3</ele>
        <time>2014-10-01T07:44:32Z</time>
      </trkpt>
      <trkpt lat="42.3983650" lon="-6.5037700">
        <ele>1717.4</ele>
        <time>2014-10-01T07:44:33Z</time>
      </trkpt>
      <trkpt lat="42.3983330" lon="-6.5037930">
        <ele>1717.4</ele>
        <time>2014-10-01T07:44:34Z</time>
      </trkpt>
      <trkpt lat="42.3983070" lon="-6.5038330">
        <ele>1717.4</ele>
        <time>2014-10-01T07:44:35Z</time>
      </trkpt>
      <trkpt lat="42.3982790" lon="-6.5038820">
        <ele>1718.2</ele>
        <time>2014-10-01T07:44:36Z</time>
      </trkpt>
      <trkpt lat="42.3982380" lon="-6.5038930">
        <ele>1721.2</ele>
        <time>2014-10-01T07:44:37Z</time>
      </trkpt>
      <trkpt lat="42.3981910" lon="-6.5039090">
        <ele>1724.1</ele>
        <time>2014-10-01T07:44:38Z</time>
      </trkpt>
      <trkpt lat="42.3981430" lon="-6.5039260">
        <ele>1726.5</ele>
        <time>2014-10-01T07:44:39Z</time>
      </trkpt>
      <trkpt lat="42.3980990" lon="-6.5039410">
        <ele>1728.1</ele>
        <time>2014-10-01T07:44:40Z</time>
      </trkpt>
      <trkpt lat="42.3980590" lon="-6.5039570">
        <ele>1729.2</ele>
        <time>2014-10-01T07:44:41Z</time>
      </trkpt>
      <trkpt lat="42.3980200" lon="-6.5039740">
        <ele>1730.0</ele>
        <time>2014-10-01T07:44:42Z</time>
      </trkpt>
      <trkpt lat="42.3979860" lon="-6.5039890">
        <ele>1730.7</ele>
        <time>2014-10-01T07:44:43Z</time>
      </trkpt>
      <trkpt lat="42.3979540" lon="-6.5040040">
        <ele>1731.2</ele>
        <time>2014-10-01T07:44:44Z</time>
      </trkpt>
      <trkpt lat="42.3979250" lon="-6.5040190">
        <ele>1731.7</ele>
        <time>2014-10-01T07:44:45Z</time>
      </trkpt>
      <trkpt lat="42.3978960" lon="-6.5040360">
        <ele>1732.2</ele>
        <time>2014-10-01T07:44:46Z</time>
      </trkpt>
      <trkpt lat="42.3978690" lon="-6.5040530">
        <ele>1732.6</ele>
        <time>2014-10-01T07:44:47Z</time>
      </trkpt>
      <trkpt lat="42.3978430" lon="-6.5040710">
        <ele>1732.9</ele>
        <time>2014-10-01T07:44:48Z</time>
      </trkpt>
      <trkpt lat="42.3978140" lon="-6.5040930">
        <ele>1733.3</ele>
        <time>2014-10-01T07:44:49Z</time>
      </trkpt>
      <trkpt lat="42.3977850" lon="-6.5041160">
        <ele>1733.7</ele>
        <time>2014-10-01T07:44:50Z</time>
      </trkpt>
      <trkpt lat="42.3977610" lon="-6.5041340">
        <ele>1733.9</ele>
        <time>2014-10-01T07:44:51Z</time>
      </trkpt>
      <trkpt lat="42.3977340" lon="-6.5041540">
        <ele>1734.1</ele>
        <time>2014-10-01T07:44:52Z</time>
      </trkpt>
      <trkpt lat="42.3977030" lon="-6.5041770">
        <ele>1734.3</ele>
        <time>2014-10-01T07:44:53Z</time>
      </trkpt>
      <trkpt lat="42.3976750" lon="-6.5042020">
        <ele>1734.5</ele>
        <time>2014-10-01T07:44:54Z</time>
      </trkpt>
      <trkpt lat="42.3976480" lon="-6.5042300">
        <ele>1734.6</ele>
        <time>2014-10-01T07:44:55Z</time>
      </trkpt>
      <trkpt lat="42.3976230" lon="-6.5042570">
        <ele>1734.7</ele>
        <time>2014-10-01T07:44:56Z</time>
      </trkpt>
      <trkpt lat="42.3975960" lon="-6.5042910">
        <ele>1734.8</ele>
        <time>2014-10-01T07:44:57Z</time>
      </trkpt>
      <trkpt lat="42.3975720" lon="-6.5043200">
        <ele>1734.9</ele>
        <time>2014-10-01T07:44:58Z</time>
      </trkpt>
      <trkpt lat="42.3975470" lon="-6.5043530">
        <ele>1735.0</ele>
        <time>2014-10-01T07:44:59Z</time>
      </trkpt>
      <trkpt lat="42.3975190" lon="-6.5043930">
        <ele>1735.1</ele>
        <time>2014-10-01T07:45:00Z</time>
      </trkpt>
      <trkpt lat="42.3974950" lon="-6.5044280">
        <ele>1735.2</ele>
        <time>2014-10-01T07:45:01Z</time>
      </trkpt>
      <trkpt lat="42.3974700" lon="-6.5044680">
        <ele>1735.3</ele>
        <time>2014-10-01T07:45:02Z</time>
      </trkpt>
      <trkpt lat="42.3974470" lon="-6.5045110">
        <ele>1735.5</ele>
        <time>2014-10-01T07:45:03Z</time>
      </trkpt>
      <trkpt lat="42.3974200" lon="-6.5045620">
        <ele>1735.7</ele>
        <time>2014-10-01T07:45:04Z</time>
      </trkpt>
      <trkpt lat="42.3973940" lon="-6.5046110">
        <ele>1735.8</ele>
        <time>2014-10-01T07:45:05Z</time>
      </trkpt>
      <trkpt lat="42.3973710" lon="-6.5046610">
        <ele>1735.9</ele>
        <time>2014-10-01T07:45:06Z</time>
      </trkpt>
      <trkpt lat="42.3973530" lon="-6.5047090">
        <ele>1736.0</ele>
        <time>2014-10-01T07:45:07Z</time>
      </trkpt>
      <trkpt lat="42.3973330" lon="-6.5047650">
        <ele>1736.0</ele>
        <time>2014-10-01T07:45:08Z</time>
      </trkpt>
      <trkpt lat="42.3973180" lon="-6.5048110">
        <ele>1736.1</ele>
        <time>2014-10-01T07:45:09Z</time>
      </trkpt>
      <trkpt lat="42.3973060" lon="-6.5048600">
        <ele>1736.1</ele>
        <time>2014-10-01T07:45:10Z</time>
      </trkpt>
      <trkpt lat="42.3972650" lon="-6.5050000">
        <ele>1736.2</ele>
        <time>2014-10-01T07:45:13Z</time>
      </trkpt>
      <trkpt lat="42.3972200" lon="-6.5050560">
        <ele>1736.3</ele>
        <time>2014-10-01T07:45:14Z</time>
      </trkpt>
      <trkpt lat="42.3971710" lon="-6.5051050">
        <ele>1736.4</ele>
        <time>2014-10-01T07:45:15Z</time>
      </trkpt>
      <trkpt lat="42.3971420" lon="-6.5051360">
        <ele>1736.4</ele>
        <time>2014-10-01T07:45:16Z</time>
      </trkpt>
      <trkpt lat="42.3971110" lon="-6.5051710">
        <ele>1736.4</ele>
        <time>2014-10-01T07:45:17Z</time>
      </trkpt>
      <trkpt lat="42.3970750" lon="-6.5052220">
        <ele>1736.3</ele>
        <time>2014-10-01T07:45:18Z</time>
      </trkpt>
      <trkpt lat="42.3970320" lon="-6.5052830">
        <ele>1736.2</ele>
        <time>2014-10-01T07:45:19Z</time>
      </trkpt>
      <trkpt lat="42.3969920" lon="-6.5053450">
        <ele>1736.1</ele>
        <time>2014-10-01T07:45:20Z</time>
      </trkpt>
      <trkpt lat="42.3969670" lon="-6.5054000">
        <ele>1736.0</ele>
        <time>2014-10-01T07:45:21Z</time>
      </trkpt>
      <trkpt lat="42.3969450" lon="-6.5054450">
        <ele>1736.0</ele>
        <time>2014-10-01T07:45:22Z</time>
      </trkpt>
      <trkpt lat="42.3969100" lon="-6.5054870">
        <ele>1735.9</ele>
        <time>2014-10-01T07:45:23Z</time>
      </trkpt>
      <trkpt lat="42.3968770" lon="-6.5055350">
        <ele>1735.8</ele>
        <time>2014-10-01T07:45:24Z</time>
      </trkpt>
      <trkpt lat="42.3968400" lon="-6.5055870">
        <ele>1735.6</ele>
        <time>2014-10-01T07:45:25Z</time>
      </trkpt>
      <trkpt lat="42.3968110" lon="-6.5056280">
        <ele>1735.5</ele>
        <time>2014-10-01T07:45:26Z</time>
      </trkpt>
      <trkpt lat="42.3967840" lon="-6.5056680">
        <ele>1735.4</ele>
        <time>2014-10-01T07:45:27Z</time>
      </trkpt>
      <trkpt lat="42.3967530" lon="-6.5057100">
        <ele>1735.3</ele>
        <time>2014-10-01T07:45:28Z</time>
      </trkpt>
      <trkpt lat="42.3967160" lon="-6.5057550">
        <ele>1735.2</ele>
        <time>2014-10-01T07:45:29Z</time>
      </trkpt>
      <trkpt lat="42.3966760" lon="-6.5058010">
        <ele>1735.1</ele>
        <time>2014-10-01T07:45:30Z</time>
      </trkpt>
      <trkpt lat="42.3966240" lon="-6.5058530">
        <ele>1734.8</ele>
        <time>2014-10-01T07:45:31Z</time>
      </trkpt>
      <trkpt lat="42.3965730" lon="-6.5059020">
        <ele>1734.4</ele>
        <time>2014-10-01T07:45:32Z</time>
      </trkpt>
      <trkpt lat="42.3965230" lon="-6.5059480">
        <ele>1734.0</ele>
        <time>2014-10-01T07:45:33Z</time>
      </trkpt>
      <trkpt lat="42.3964700" lon="-6.5059870">
        <ele>1733.5</ele>
        <time>2014-10-01T07:45:34Z</time>
      </trkpt>
      <trkpt lat="42.3964050" lon="-6.5060110">
        <ele>1732.9</ele>
        <time>2014-10-01T07:45:35Z</time>
      </trkpt>
      <trkpt lat="42.3963360" lon="-6.5060330">
        <ele>1732.3</ele>
        <time>2014-10-01T07:45:36Z</time>
      </trkpt>
      <trkpt lat="42.3962640" lon="-6.5060490">
        <ele>1731.9</ele>
        <time>2014-10-01T07:45:37Z</time>
      </trkpt>
      <trkpt lat="42.3961890" lon="-6.5060380">
        <ele>1731.4</ele>
        <time>2014-10-01T07:45:38Z</time>
      </trkpt>
      <trkpt lat="42.3961090" lon="-6.5060220">
        <ele>1731.1</ele>
        <time>2014-10-01T07:45:39Z</time>
      </trkpt>
      <trkpt lat="42.3960280" lon="-6.5059970">
        <ele>1730.9</ele>
        <time>2014-10-01T07:45:40Z</time>
      </trkpt>
      <trkpt lat="42.3959480" lon="-6.5059480">
        <ele>1730.7</ele>
        <time>2014-10-01T07:45:41Z</time>
      </trkpt>
      <trkpt lat="42.3958680" lon="-6.5058900">
        <ele>1730.5</ele>
        <time>2014-10-01T07:45:42Z</time>
      </trkpt>
      <trkpt lat="42.3957970" lon="-6.5058030">
        <ele>1730.3</ele>
        <time>2014-10-01T07:45:43Z</time>
      </trkpt>
      <trkpt lat="42.3957350" lon="-6.5057170">
        <ele>1730.1</ele>
        <time>2014-10-01T07:45:44Z</time>
      </trkpt>
      <trkpt lat="42.3956940" lon="-6.5056170">
        <ele>1729.9</ele>
        <time>2014-10-01T07:45:45Z</time>
      </trkpt>
      <trkpt lat="42.3956530" lon="-6.5055180">
        <ele>1729.8</ele>
        <time>2014-10-01T07:45:46Z</time>
      </trkpt>
      <trkpt lat="42.3956210" lon="-6.5054240">
        <ele>1729.8</ele>
        <time>2014-10-01T07:45:47Z</time>
      </trkpt>
      <trkpt lat="42.3955980" lon="-6.5053340">
        <ele>1730.0</ele>
        <time>2014-10-01T07:45:48Z</time>
      </trkpt>
      <trkpt lat="42.3955780" lon="-6.5052460">
        <ele>1730.2</ele>
        <time>2014-10-01T07:45:49Z</time>
      </trkpt>
      <trkpt lat="42.3955620" lon="-6.5051610">
        <ele>1730.4</ele>
        <time>2014-10-01T07:45:50Z</time>
      </trkpt>
      <trkpt lat="42.3955550" lon="-6.5050710">
        <ele>1730.7</ele>
        <time>2014-10-01T07:45:51Z</time>
      </trkpt>
      <trkpt lat="42.3955540" lon="-6.5049830">
        <ele>1731.1</ele>
        <time>2014-10-01T07:45:52Z</time>
      </trkpt>
      <trkpt lat="42.3955650" lon="-6.5048990">
        <ele>1731.4</ele>
        <time>2014-10-01T07:45:53Z</time>
      </trkpt>
      <trkpt lat="42.3955730" lon="-6.5048210">
        <ele>1731.6</ele>
        <time>2014-10-01T07:45:54Z</time>
      </trkpt>
      <trkpt lat="42.3955820" lon="-6.5047490">
        <ele>1731.9</ele>
        <time>2014-10-01T07:45:55Z</time>
      </trkpt>
      <trkpt lat="42.3955860" lon="-6.5046820">
        <ele>1732.2</ele>
        <time>2014-10-01T07:45:56Z</time>
      </trkpt>
      <trkpt lat="42.3955900" lon="-6.5046230">
        <ele>1732.5</ele>
        <time>2014-10-01T07:45:57Z</time>
      </trkpt>
      <trkpt lat="42.3955920" lon="-6.5045680">
        <ele>1732.8</ele>
        <time>2014-10-01T07:45:58Z</time>
      </trkpt>
      <trkpt lat="42.3955940" lon="-6.5045120">
        <ele>1733.1</ele>
        <time>2014-10-01T07:45:59Z</time>
      </trkpt>
      <trkpt lat="42.3955960" lon="-6.5044600">
        <ele>1733.3</ele>
        <time>2014-10-01T07:46:00Z</time>
      </trkpt>
      <trkpt lat="42.3955970" lon="-6.5044080">
        <ele>1733.6</ele>
        <time>2014-10-01T07:46:01Z</time>
      </trkpt>
      <trkpt lat="42.3955980" lon="-6.5043560">
        <ele>1733.8</ele>
        <time>2014-10-01T07:46:02Z</time>
      </trkpt>
      <trkpt lat="42.3955990" lon="-6.5043040">
        <ele>1734.1</ele>
        <time>2014-10-01T07:46:03Z</time>
      </trkpt>
      <trkpt lat="42.3955990" lon="-6.5042520">
        <ele>1734.3</ele>
        <time>2014-10-01T07:46:04Z</time>
      </trkpt>
      <trkpt lat="42.3955990" lon="-6.5042040">
        <ele>1734.5</ele>
        <time>2014-10-01T07:46:05Z</time>
      </trkpt>
      <trkpt lat="42.3955990" lon="-6.5041530">
        <ele>1734.8</ele>
        <time>2014-10-01T07:46:06Z</time>
      </trkpt>
      <trkpt lat="42.3955990" lon="-6.5041040">
        <ele>1735.1</ele>
        <time>2014-10-01T07:46:07Z</time>
      </trkpt>
      <trkpt lat="42.3955990" lon="-6.5040540">
        <ele>1735.3</ele>
        <time>2014-10-01T07:46:08Z</time>
      </trkpt>
      <trkpt lat="42.3955980" lon="-6.5040050">
        <ele>1735.6</ele>
        <time>2014-10-01T07:46:09Z</time>
      </trkpt>
      <trkpt lat="42.3955980" lon="-6.5039570">
        <ele>1735.9</ele>
        <time>2014-10-01T07:46:10Z</time>
      </trkpt>
      <trkpt lat="42.3955960" lon="-6.5039100">
        <ele>1736.2</ele>
        <time>2014-10-01T07:46:11Z</time>
      </trkpt>
      <trkpt lat="42.3955940" lon="-6.5038660">
        <ele>1736.5</ele>
        <time>2014-10-01T07:46:12Z</time>
      </trkpt>
      <trkpt lat="42.3955920" lon="-6.5038240">
        <ele>1736.8</ele>
        <time>2014-10-01T07:46:13Z</time>
      </trkpt>
      <trkpt lat="42.3955900" lon="-6.5037830">
        <ele>1737.0</ele>
        <time>2014-10-01T07:46:14Z</time>
      </trkpt>
      <trkpt lat="42.3955870" lon="-6.5037380">
        <ele>1737.3</ele>
        <time>2014-10-01T07:46:15Z</time>
      </trkpt>
      <trkpt lat="42.3955840" lon="-6.5036990">
        <ele>1737.5</ele>
        <time>2014-10-01T07:46:16Z</time>
      </trkpt>
      <trkpt lat="42.3955800" lon="-6.5036600">
        <ele>1737.7</ele>
        <time>2014-10-01T07:46:17Z</time>
      </trkpt>
      <trkpt lat="42.3955770" lon="-6.5036210">
        <ele>1737.9</ele>
        <time>2014-10-01T07:46:18Z</time>
      </trkpt>
      <trkpt lat="42.3955710" lon="-6.5035600">
        <ele>1738.2</ele>
        <time>2014-10-01T07:46:20Z</time>
      </trkpt>
      <trkpt lat="42.3955550" lon="-6.5034900">
        <ele>1738.7</ele>
        <time>2014-10-01T07:46:22Z</time>
      </trkpt>
      <trkpt lat="42.3955520" lon="-6.5034510">
        <ele>1739.0</ele>
        <time>2014-10-01T07:46:23Z</time>
      </trkpt>
      <trkpt lat="42.3955460" lon="-6.5034050">
        <ele>1739.3</ele>
        <time>2014-10-01T07:46:24Z</time>
      </trkpt>
      <trkpt lat="42.3955440" lon="-6.5033580">
        <ele>1739.6</ele>
        <time>2014-10-01T07:46:25Z</time>
      </trkpt>
      <trkpt lat="42.3955370" lon="-6.5033090">
        <ele>1740.0</ele>
        <time>2014-10-01T07:46:26Z</time>
      </trkpt>
      <trkpt lat="42.3955350" lon="-6.5032630">
        <ele>1740.3</ele>
        <time>2014-10-01T07:46:27Z</time>
      </trkpt>
      <trkpt lat="42.3955310" lon="-6.5032150">
        <ele>1740.6</ele>
        <time>2014-10-01T07:46:28Z</time>
      </trkpt>
      <trkpt lat="42.3955260" lon="-6.5031780">
        <ele>1740.9</ele>
        <time>2014-10-01T07:46:29Z</time>
      </trkpt>
      <trkpt lat="42.3955210" lon="-6.5031140">
        <ele>1741.4</ele>
        <time>2014-10-01T07:46:31Z</time>
      </trkpt>
      <trkpt lat="42.3955150" lon="-6.5030500">
        <ele>1742.0</ele>
        <time>2014-10-01T07:46:33Z</time>
      </trkpt>
      <trkpt lat="42.3955040" lon="-6.5030150">
        <ele>1742.4</ele>
        <time>2014-10-01T07:46:34Z</time>
      </trkpt>
      <trkpt lat="42.3954910" lon="-6.5029770">
        <ele>1742.8</ele>
        <time>2014-10-01T07:46:35Z</time>
      </trkpt>
      <trkpt lat="42.3954720" lon="-6.5029070">
        <ele>1743.7</ele>
        <time>2014-10-01T07:46:37Z</time>
      </trkpt>
      <trkpt lat="42.3954530" lon="-6.5028370">
        <ele>1744.4</ele>
        <time>2014-10-01T07:46:39Z</time>
      </trkpt>
      <trkpt lat="42.3954410" lon="-6.5028040">
        <ele>1744.7</ele>
        <time>2014-10-01T07:46:40Z</time>
      </trkpt>
      <trkpt lat="42.3954380" lon="-6.5027390">
        <ele>1745.3</ele>
        <time>2014-10-01T07:46:42Z</time>
      </trkpt>
      <trkpt lat="42.3954320" lon="-6.5027030">
        <ele>1745.5</ele>
        <time>2014-10-01T07:46:43Z</time>
      </trkpt>
      <trkpt lat="42.3954240" lon="-6.5026650">
        <ele>1745.8</ele>
        <time>2014-10-01T07:46:44Z</time>
      </trkpt>
      <trkpt lat="42.3954100" lon="-6.5025940">
        <ele>1746.4</ele>
        <time>2014-10-01T07:46:46Z</time>
      </trkpt>
      <trkpt lat="42.3953950" lon="-6.5025290">
        <ele>1746.9</ele>
        <time>2014-10-01T07:46:48Z</time>
      </trkpt>
      <trkpt lat="42.3953860" lon="-6.5024610">
        <ele>1747.4</ele>
        <time>2014-10-01T07:46:50Z</time>
      </trkpt>
      <trkpt lat="42.3953810" lon="-6.5024250">
        <ele>1747.6</ele>
        <time>2014-10-01T07:46:51Z</time>
      </trkpt>
      <trkpt lat="42.3953730" lon="-6.5023890">
        <ele>1747.8</ele>
        <time>2014-10-01T07:46:52Z</time>
      </trkpt>
      <trkpt lat="42.3953550" lon="-6.5023140">
        <ele>1748.2</ele>
        <time>2014-10-01T07:46:54Z</time>
      </trkpt>
      <trkpt lat="42.3953450" lon="-6.5022770">
        <ele>1748.5</ele>
        <time>2014-10-01T07:46:55Z</time>
      </trkpt>
      <trkpt lat="42.3953290" lon="-6.5022080">
        <ele>1748.8</ele>
        <time>2014-10-01T07:46:57Z</time>
      </trkpt>
      <trkpt lat="42.3953200" lon="-6.5021730">
        <ele>1749.0</ele>
        <time>2014-10-01T07:46:58Z</time>
      </trkpt>
      <trkpt lat="42.3953120" lon="-6.5021370">
        <ele>1749.2</ele>
        <time>2014-10-01T07:46:59Z</time>
      </trkpt>
      <trkpt lat="42.3953040" lon="-6.5021010">
        <ele>1749.4</ele>
        <time>2014-10-01T07:47:00Z</time>
      </trkpt>
      <trkpt lat="42.3952970" lon="-6.5020660">
        <ele>1749.6</ele>
        <time>2014-10-01T07:47:01Z</time>
      </trkpt>
      <trkpt lat="42.3952810" lon="-6.5019940">
        <ele>1750.0</ele>
        <time>2014-10-01T07:47:03Z</time>
      </trkpt>
      <trkpt lat="42.3952720" lon="-6.5019550">
        <ele>1750.2</ele>
        <time>2014-10-01T07:47:04Z</time>
      </trkpt>
      <trkpt lat="42.3952620" lon="-6.5019130">
        <ele>1750.5</ele>
        <time>2014-10-01T07:47:05Z</time>
      </trkpt>
      <trkpt lat="42.3952540" lon="-6.5018720">
        <ele>1750.7</ele>
        <time>2014-10-01T07:47:06Z</time>
      </trkpt>
      <trkpt lat="42.3952480" lon="-6.5018290">
        <ele>1751.0</ele>
        <time>2014-10-01T07:47:07Z</time>
      </trkpt>
      <trkpt lat="42.3952410" lon="-6.5017830">
        <ele>1751.3</ele>
        <time>2014-10-01T07:47:08Z</time>
      </trkpt>
      <trkpt lat="42.3952360" lon="-6.5017370">
        <ele>1751.6</ele>
        <time>2014-10-01T07:47:09Z</time>
      </trkpt>
      <trkpt lat="42.3952320" lon="-6.5016900">
        <ele>1751.9</ele>
        <time>2014-10-01T07:47:10Z</time>
      </trkpt>
      <trkpt lat="42.3952260" lon="-6.5016430">
        <ele>1752.2</ele>
        <time>2014-10-01T07:47:11Z</time>
      </trkpt>
      <trkpt lat="42.3952200" lon="-6.5015920">
        <ele>1752.5</ele>
        <time>2014-10-01T07:47:12Z</time>
      </trkpt>
      <trkpt lat="42.3952160" lon="-6.5015450">
        <ele>1752.8</ele>
        <time>2014-10-01T07:47:13Z</time>
      </trkpt>
      <trkpt lat="42.3952120" lon="-6.5014980">
        <ele>1753.1</ele>
        <time>2014-10-01T07:47:14Z</time>
      </trkpt>
      <trkpt lat="42.3952090" lon="-6.5014510">
        <ele>1753.4</ele>
        <time>2014-10-01T07:47:15Z</time>
      </trkpt>
      <trkpt lat="42.3952050" lon="-6.5014020">
        <ele>1753.6</ele>
        <time>2014-10-01T07:47:16Z</time>
      </trkpt>
      <trkpt lat="42.3952020" lon="-6.5013550">
        <ele>1753.9</ele>
        <time>2014-10-01T07:47:17Z</time>
      </trkpt>
      <trkpt lat="42.3951970" lon="-6.5013090">
        <ele>1754.1</ele>
        <time>2014-10-01T07:47:18Z</time>
      </trkpt>
      <trkpt lat="42.3951920" lon="-6.5012630">
        <ele>1754.3</ele>
        <time>2014-10-01T07:47:19Z</time>
      </trkpt>
      <trkpt lat="42.3951860" lon="-6.5012180">
        <ele>1754.5</ele>
        <time>2014-10-01T07:47:20Z</time>
      </trkpt>
      <trkpt lat="42.3951790" lon="-6.5011720">
        <ele>1754.8</ele>
        <time>2014-10-01T07:47:21Z</time>
      </trkpt>
      <trkpt lat="42.3951710" lon="-6.5011250">
        <ele>1755.0</ele>
        <time>2014-10-01T07:47:22Z</time>
      </trkpt>
      <trkpt lat="42.3951630" lon="-6.5010810">
        <ele>1755.2</ele>
        <time>2014-10-01T07:47:23Z</time>
      </trkpt>
      <trkpt lat="42.3951540" lon="-6.5010370">
        <ele>1755.5</ele>
        <time>2014-10-01T07:47:24Z</time>
      </trkpt>
      <trkpt lat="42.3951460" lon="-6.5009940">
        <ele>1755.9</ele>
        <time>2014-10-01T07:47:25Z</time>
      </trkpt>
      <trkpt lat="42.3951390" lon="-6.5009510">
        <ele>1756.2</ele>
        <time>2014-10-01T07:47:26Z</time>
      </trkpt>
      <trkpt lat="42.3951340" lon="-6.5009090">
        <ele>1756.6</ele>
        <time>2014-10-01T07:47:27Z</time>
      </trkpt>
      <trkpt lat="42.3951290" lon="-6.5008680">
        <ele>1757.0</ele>
        <time>2014-10-01T07:47:28Z</time>
      </trkpt>
      <trkpt lat="42.3951250" lon="-6.5008250">
        <ele>1757.4</ele>
        <time>2014-10-01T07:47:29Z</time>
      </trkpt>
      <trkpt lat="42.3951220" lon="-6.5007850">
        <ele>1757.8</ele>
        <time>2014-10-01T07:47:30Z</time>
      </trkpt>
      <trkpt lat="42.3951180" lon="-6.5007440">
        <ele>1758.1</ele>
        <time>2014-10-01T07:47:31Z</time>
      </trkpt>
      <trkpt lat="42.3951150" lon="-6.5006990">
        <ele>1758.5</ele>
        <time>2014-10-01T07:47:32Z</time>
      </trkpt>
      <trkpt lat="42.3951130" lon="-6.5006610">
        <ele>1758.8</ele>
        <time>2014-10-01T07:47:33Z</time>
      </trkpt>
      <trkpt lat="42.3951100" lon="-6.5005880">
        <ele>1759.5</ele>
        <time>2014-10-01T07:47:35Z</time>
      </trkpt>
      <trkpt lat="42.3951090" lon="-6.5005510">
        <ele>1759.8</ele>
        <time>2014-10-01T07:47:36Z</time>
      </trkpt>
      <trkpt lat="42.3951090" lon="-6.5005120">
        <ele>1760.3</ele>
        <time>2014-10-01T07:47:37Z</time>
      </trkpt>
      <trkpt lat="42.3951080" lon="-6.5004420">
        <ele>1761.1</ele>
        <time>2014-10-01T07:47:39Z</time>
      </trkpt>
      <trkpt lat="42.3951080" lon="-6.5004050">
        <ele>1761.5</ele>
        <time>2014-10-01T07:47:40Z</time>
      </trkpt>
      <trkpt lat="42.3951080" lon="-6.5003420">
        <ele>1762.2</ele>
        <time>2014-10-01T07:47:42Z</time>
      </trkpt>
      <trkpt lat="42.3951070" lon="-6.5002740">
        <ele>1762.9</ele>
        <time>2014-10-01T07:47:44Z</time>
      </trkpt>
      <trkpt lat="42.3951070" lon="-6.5002060">
        <ele>1763.6</ele>
        <time>2014-10-01T07:47:46Z</time>
      </trkpt>
      <trkpt lat="42.3951120" lon="-6.5001370">
        <ele>1764.3</ele>
        <time>2014-10-01T07:47:48Z</time>
      </trkpt>
      <trkpt lat="42.3951170" lon="-6.5000640">
        <ele>1765.0</ele>
        <time>2014-10-01T07:47:50Z</time>
      </trkpt>
      <trkpt lat="42.3951200" lon="-6.5000260">
        <ele>1765.4</ele>
        <time>2014-10-01T07:47:51Z</time>
      </trkpt>
      <trkpt lat="42.3951210" lon="-6.4999850">
        <ele>1765.8</ele>
        <time>2014-10-01T07:47:52Z</time>
      </trkpt>
      <trkpt lat="42.3951230" lon="-6.4999460">
        <ele>1766.2</ele>
        <time>2014-10-01T07:47:53Z</time>
      </trkpt>
      <trkpt lat="42.3951310" lon="-6.4998740">
        <ele>1766.9</ele>
        <time>2014-10-01T07:47:55Z</time>
      </trkpt>
      <trkpt lat="42.3951380" lon="-6.4998390">
        <ele>1767.2</ele>
        <time>2014-10-01T07:47:56Z</time>
      </trkpt>
      <trkpt lat="42.3951460" lon="-6.4998030">
        <ele>1767.5</ele>
        <time>2014-10-01T07:47:57Z</time>
      </trkpt>
      <trkpt lat="42.3951550" lon="-6.4997330">
        <ele>1768.1</ele>
        <time>2014-10-01T07:47:59Z</time>
      </trkpt>
      <trkpt lat="42.3951620" lon="-6.4996680">
        <ele>1768.6</ele>
        <time>2014-10-01T07:48:01Z</time>
      </trkpt>
      <trkpt lat="42.3951660" lon="-6.4996020">
        <ele>1769.1</ele>
        <time>2014-10-01T07:48:03Z</time>
      </trkpt>
      <trkpt lat="42.3951740" lon="-6.4995330">
        <ele>1769.7</ele>
        <time>2014-10-01T07:48:05Z</time>
      </trkpt>
      <trkpt lat="42.3951840" lon="-6.4994720">
        <ele>1770.3</ele>
        <time>2014-10-01T07:48:07Z</time>
      </trkpt>
      <trkpt lat="42.3951950" lon="-6.4994120">
        <ele>1770.8</ele>
        <time>2014-10-01T07:48:09Z</time>
      </trkpt>
      <trkpt lat="42.3952090" lon="-6.4993530">
        <ele>1771.3</ele>
        <time>2014-10-01T07:48:11Z</time>
      </trkpt>
      <trkpt lat="42.3952240" lon="-6.4992950">
        <ele>1771.8</ele>
        <time>2014-10-01T07:48:13Z</time>
      </trkpt>
      <trkpt lat="42.3952350" lon="-6.4992570">
        <ele>1772.0</ele>
        <time>2014-10-01T07:48:14Z</time>
      </trkpt>
      <trkpt lat="42.3952470" lon="-6.4992210">
        <ele>1772.3</ele>
        <time>2014-10-01T07:48:15Z</time>
      </trkpt>
      <trkpt lat="42.3952580" lon="-6.4991870">
        <ele>1772.5</ele>
        <time>2014-10-01T07:48:16Z</time>
      </trkpt>
      <trkpt lat="42.3952710" lon="-6.4991510">
        <ele>1772.8</ele>
        <time>2014-10-01T07:48:17Z</time>
      </trkpt>
      <trkpt lat="42.3952870" lon="-6.4991130">
        <ele>1773.6</ele>
        <time>2014-10-01T07:48:18Z</time>
      </trkpt>
      <trkpt lat="42.3953030" lon="-6.4990750">
        <ele>1773.2</ele>
        <time>2014-10-01T07:48:19Z</time>
      </trkpt>
      <trkpt lat="42.3953190" lon="-6.4990380">
        <ele>1774.1</ele>
        <time>2014-10-01T07:48:20Z</time>
      </trkpt>
      <trkpt lat="42.3953360" lon="-6.4990020">
        <ele>1773.8</ele>
        <time>2014-10-01T07:48:21Z</time>
      </trkpt>
      <trkpt lat="42.3953520" lon="-6.4989670">
        <ele>1773.5</ele>
        <time>2014-10-01T07:48:22Z</time>
      </trkpt>
      <trkpt lat="42.3953690" lon="-6.4989310">
        <ele>1773.8</ele>
        <time>2014-10-01T07:48:23Z</time>
      </trkpt>
      <trkpt lat="42.3953860" lon="-6.4988900">
        <ele>1773.7</ele>
        <time>2014-10-01T07:48:24Z</time>
      </trkpt>
      <trkpt lat="42.3953920" lon="-6.4988470">
        <ele>1774.7</ele>
        <time>2014-10-01T07:48:25Z</time>
      </trkpt>
      <trkpt lat="42.3953850" lon="-6.4988100">
        <ele>1775.6</ele>
        <time>2014-10-01T07:48:26Z</time>
      </trkpt>
      <trkpt lat="42.3953510" lon="-6.4987840">
        <ele>1775.5</ele>
        <time>2014-10-01T07:48:28Z</time>
      </trkpt>
      <trkpt lat="42.3953220" lon="-6.4988090">
        <ele>1775.4</ele>
        <time>2014-10-01T07:48:30Z</time>
      </trkpt>
      <trkpt lat="42.3952900" lon="-6.4988440">
        <ele>1775.2</ele>
        <time>2014-10-01T07:48:32Z</time>
      </trkpt>
      <trkpt lat="42.3952530" lon="-6.4988830">
        <ele>1774.8</ele>
        <time>2014-10-01T07:48:34Z</time>
      </trkpt>
      <trkpt lat="42.3952140" lon="-6.4989350">
        <ele>1774.2</ele>
        <time>2014-10-01T07:48:36Z</time>
      </trkpt>
      <trkpt lat="42.3951960" lon="-6.4989650">
        <ele>1774.2</ele>
        <time>2014-10-01T07:48:37Z</time>
      </trkpt>
      <trkpt lat="42.3951750" lon="-6.4990000">
        <ele>1774.6</ele>
        <time>2014-10-01T07:48:38Z</time>
      </trkpt>
      <trkpt lat="42.3951560" lon="-6.4990320">
        <ele>1775.0</ele>
        <time>2014-10-01T07:48:39Z</time>
      </trkpt>
      <trkpt lat="42.3951260" lon="-6.4990900">
        <ele>1775.6</ele>
        <time>2014-10-01T07:48:41Z</time>
      </trkpt>
      <trkpt lat="42.3951000" lon="-6.4991480">
        <ele>1776.2</ele>
        <time>2014-10-01T07:48:43Z</time>
      </trkpt>
      <trkpt lat="42.3950760" lon="-6.4992030">
        <ele>1776.7</ele>
        <time>2014-10-01T07:48:45Z</time>
      </trkpt>
      <trkpt lat="42.3950520" lon="-6.4992520">
        <ele>1777.2</ele>
        <time>2014-10-01T07:48:47Z</time>
      </trkpt>
      <trkpt lat="42.3950290" lon="-6.4993080">
        <ele>1777.8</ele>
        <time>2014-10-01T07:48:49Z</time>
      </trkpt>
      <trkpt lat="42.3950050" lon="-6.4993650">
        <ele>1778.3</ele>
        <time>2014-10-01T07:48:51Z</time>
      </trkpt>
      <trkpt lat="42.3949840" lon="-6.4994260">
        <ele>1778.9</ele>
        <time>2014-10-01T07:48:53Z</time>
      </trkpt>
      <trkpt lat="42.3949580" lon="-6.4994880">
        <ele>1779.5</ele>
        <time>2014-10-01T07:48:55Z</time>
      </trkpt>
      <trkpt lat="42.3949330" lon="-6.4995440">
        <ele>1780.1</ele>
        <time>2014-10-01T07:48:57Z</time>
      </trkpt>
      <trkpt lat="42.3949080" lon="-6.4996040">
        <ele>1780.7</ele>
        <time>2014-10-01T07:48:59Z</time>
      </trkpt>
      <trkpt lat="42.3948940" lon="-6.4996360">
        <ele>1781.0</ele>
        <time>2014-10-01T07:49:00Z</time>
      </trkpt>
      <trkpt lat="42.3948680" lon="-6.4996960">
        <ele>1781.6</ele>
        <time>2014-10-01T07:49:02Z</time>
      </trkpt>
      <trkpt lat="42.3948400" lon="-6.4997550">
        <ele>1782.2</ele>
        <time>2014-10-01T07:49:04Z</time>
      </trkpt>
      <trkpt lat="42.3948150" lon="-6.4998100">
        <ele>1782.8</ele>
        <time>2014-10-01T07:49:06Z</time>
      </trkpt>
      <trkpt lat="42.3948040" lon="-6.4998660">
        <ele>1783.3</ele>
        <time>2014-10-01T07:49:08Z</time>
      </trkpt>
      <trkpt lat="42.3947850" lon="-6.4999270">
        <ele>1783.9</ele>
        <time>2014-10-01T07:49:10Z</time>
      </trkpt>
      <trkpt lat="42.3947630" lon="-6.4999870">
        <ele>1784.4</ele>
        <time>2014-10-01T07:49:12Z</time>
      </trkpt>
      <trkpt lat="42.3947370" lon="-6.5000470">
        <ele>1785.0</ele>
        <time>2014-10-01T07:49:14Z</time>
      </trkpt>
      <trkpt lat="42.3947100" lon="-6.5001100">
        <ele>1785.7</ele>
        <time>2014-10-01T07:49:16Z</time>
      </trkpt>
      <trkpt lat="42.3946950" lon="-6.5001420">
        <ele>1786.0</ele>
        <time>2014-10-01T07:49:17Z</time>
      </trkpt>
      <trkpt lat="42.3946810" lon="-6.5001740">
        <ele>1786.3</ele>
        <time>2014-10-01T07:49:18Z</time>
      </trkpt>
      <trkpt lat="42.3946560" lon="-6.5002340">
        <ele>1786.9</ele>
        <time>2014-10-01T07:49:20Z</time>
      </trkpt>
      <trkpt lat="42.3946330" lon="-6.5002890">
        <ele>1787.5</ele>
        <time>2014-10-01T07:49:22Z</time>
      </trkpt>
      <trkpt lat="42.3946070" lon="-6.5003570">
        <ele>1788.1</ele>
        <time>2014-10-01T07:49:24Z</time>
      </trkpt>
      <trkpt lat="42.3945930" lon="-6.5003980">
        <ele>1788.5</ele>
        <time>2014-10-01T07:49:25Z</time>
      </trkpt>
      <trkpt lat="42.3945800" lon="-6.5004320">
        <ele>1788.9</ele>
        <time>2014-10-01T07:49:26Z</time>
      </trkpt>
      <trkpt lat="42.3945590" lon="-6.5004950">
        <ele>1789.5</ele>
        <time>2014-10-01T07:49:28Z</time>
      </trkpt>
      <trkpt lat="42.3945390" lon="-6.5005560">
        <ele>1790.0</ele>
        <time>2014-10-01T07:49:30Z</time>
      </trkpt>
      <trkpt lat="42.3945220" lon="-6.5006160">
        <ele>1790.6</ele>
        <time>2014-10-01T07:49:32Z</time>
      </trkpt>
      <trkpt lat="42.3945080" lon="-6.5006740">
        <ele>1791.1</ele>
        <time>2014-10-01T07:49:34Z</time>
      </trkpt>
      <trkpt lat="42.3945000" lon="-6.5007310">
        <ele>1791.6</ele>
        <time>2014-10-01T07:49:36Z</time>
      </trkpt>
      <trkpt lat="42.3944910" lon="-6.5008000">
        <ele>1792.2</ele>
        <time>2014-10-01T07:49:38Z</time>
      </trkpt>
      <trkpt lat="42.3944870" lon="-6.5008390">
        <ele>1792.6</ele>
        <time>2014-10-01T07:49:39Z</time>
      </trkpt>
      <trkpt lat="42.3944830" lon="-6.5008770">
        <ele>1792.9</ele>
        <time>2014-10-01T07:49:40Z</time>
      </trkpt>
      <trkpt lat="42.3944780" lon="-6.5009440">
        <ele>1793.5</ele>
        <time>2014-10-01T07:49:42Z</time>
      </trkpt>
      <trkpt lat="42.3944750" lon="-6.5010100">
        <ele>1794.1</ele>
        <time>2014-10-01T07:49:44Z</time>
      </trkpt>
      <trkpt lat="42.3944740" lon="-6.5010730">
        <ele>1794.6</ele>
        <time>2014-10-01T07:49:46Z</time>
      </trkpt>
      <trkpt lat="42.3944720" lon="-6.5011340">
        <ele>1795.1</ele>
        <time>2014-10-01T07:49:48Z</time>
      </trkpt>
      <trkpt lat="42.3944700" lon="-6.5011990">
        <ele>1795.7</ele>
        <time>2014-10-01T07:49:50Z</time>
      </trkpt>
      <trkpt lat="42.3944670" lon="-6.5012650">
        <ele>1796.3</ele>
        <time>2014-10-01T07:49:52Z</time>
      </trkpt>
      <trkpt lat="42.3944650" lon="-6.5013200">
        <ele>1796.7</ele>
        <time>2014-10-01T07:49:54Z</time>
      </trkpt>
      <trkpt lat="42.3944620" lon="-6.5013800">
        <ele>1797.3</ele>
        <time>2014-10-01T07:49:56Z</time>
      </trkpt>
      <trkpt lat="42.3944580" lon="-6.5014390">
        <ele>1797.8</ele>
        <time>2014-10-01T07:49:58Z</time>
      </trkpt>
      <trkpt lat="42.3944500" lon="-6.5015070">
        <ele>1798.4</ele>
        <time>2014-10-01T07:50:00Z</time>
      </trkpt>
      <trkpt lat="42.3944400" lon="-6.5015700">
        <ele>1798.9</ele>
        <time>2014-10-01T07:50:02Z</time>
      </trkpt>
      <trkpt lat="42.3944300" lon="-6.5016310">
        <ele>1799.5</ele>
        <time>2014-10-01T07:50:04Z</time>
      </trkpt>
      <trkpt lat="42.3944240" lon="-6.5016940">
        <ele>1800.0</ele>
        <time>2014-10-01T07:50:06Z</time>
      </trkpt>
      <trkpt lat="42.3944180" lon="-6.5017540">
        <ele>1800.5</ele>
        <time>2014-10-01T07:50:08Z</time>
      </trkpt>
      <trkpt lat="42.3944090" lon="-6.5018200">
        <ele>1801.1</ele>
        <time>2014-10-01T07:50:10Z</time>
      </trkpt>
      <trkpt lat="42.3944010" lon="-6.5018860">
        <ele>1801.7</ele>
        <time>2014-10-01T07:50:12Z</time>
      </trkpt>
      <trkpt lat="42.3943970" lon="-6.5019220">
        <ele>1802.0</ele>
        <time>2014-10-01T07:50:13Z</time>
      </trkpt>
      <trkpt lat="42.3943930" lon="-6.5019620">
        <ele>1802.4</ele>
        <time>2014-10-01T07:50:14Z</time>
      </trkpt>
      <trkpt lat="42.3943890" lon="-6.5020310">
        <ele>1803.0</ele>
        <time>2014-10-01T07:50:16Z</time>
      </trkpt>
      <trkpt lat="42.3943870" lon="-6.5020940">
        <ele>1803.5</ele>
        <time>2014-10-01T07:50:18Z</time>
      </trkpt>
      <trkpt lat="42.3943880" lon="-6.5021560">
        <ele>1804.0</ele>
        <time>2014-10-01T07:50:20Z</time>
      </trkpt>
      <trkpt lat="42.3943900" lon="-6.5022140">
        <ele>1804.5</ele>
        <time>2014-10-01T07:50:22Z</time>
      </trkpt>
      <trkpt lat="42.3943910" lon="-6.5022770">
        <ele>1805.1</ele>
        <time>2014-10-01T07:50:24Z</time>
      </trkpt>
      <trkpt lat="42.3943920" lon="-6.5023360">
        <ele>1805.6</ele>
        <time>2014-10-01T07:50:26Z</time>
      </trkpt>
      <trkpt lat="42.3943950" lon="-6.5023830">
        <ele>1806.0</ele>
        <time>2014-10-01T07:50:28Z</time>
      </trkpt>
      <trkpt lat="42.3943960" lon="-6.5024310">
        <ele>1806.4</ele>
        <time>2014-10-01T07:50:30Z</time>
      </trkpt>
      <trkpt lat="42.3943950" lon="-6.5024920">
        <ele>1807.0</ele>
        <time>2014-10-01T07:50:32Z</time>
      </trkpt>
      <trkpt lat="42.3943940" lon="-6.5025570">
        <ele>1807.5</ele>
        <time>2014-10-01T07:50:34Z</time>
      </trkpt>
      <trkpt lat="42.3943910" lon="-6.5026170">
        <ele>1808.0</ele>
        <time>2014-10-01T07:50:36Z</time>
      </trkpt>
      <trkpt lat="42.3943860" lon="-6.5026740">
        <ele>1808.5</ele>
        <time>2014-10-01T07:50:38Z</time>
      </trkpt>
      <trkpt lat="42.3943800" lon="-6.5027330">
        <ele>1809.1</ele>
        <time>2014-10-01T07:50:40Z</time>
      </trkpt>
      <trkpt lat="42.3943710" lon="-6.5028000">
        <ele>1809.6</ele>
        <time>2014-10-01T07:50:42Z</time>
      </trkpt>
      <trkpt lat="42.3943630" lon="-6.5028610">
        <ele>1810.2</ele>
        <time>2014-10-01T07:50:44Z</time>
      </trkpt>
      <trkpt lat="42.3943570" lon="-6.5029170">
        <ele>1810.7</ele>
        <time>2014-10-01T07:50:46Z</time>
      </trkpt>
      <trkpt lat="42.3943500" lon="-6.5029750">
        <ele>1811.2</ele>
        <time>2014-10-01T07:50:48Z</time>
      </trkpt>
      <trkpt lat="42.3943410" lon="-6.5030320">
        <ele>1811.7</ele>
        <time>2014-10-01T07:50:50Z</time>
      </trkpt>
      <trkpt lat="42.3943330" lon="-6.5030920">
        <ele>1812.2</ele>
        <time>2014-10-01T07:50:52Z</time>
      </trkpt>
      <trkpt lat="42.3943190" lon="-6.5031500">
        <ele>1812.7</ele>
        <time>2014-10-01T07:50:54Z</time>
      </trkpt>
      <trkpt lat="42.3943110" lon="-6.5032150">
        <ele>1813.3</ele>
        <time>2014-10-01T07:50:56Z</time>
      </trkpt>
      <trkpt lat="42.3943010" lon="-6.5032770">
        <ele>1813.9</ele>
        <time>2014-10-01T07:50:58Z</time>
      </trkpt>
      <trkpt lat="42.3942840" lon="-6.5033390">
        <ele>1814.4</ele>
        <time>2014-10-01T07:51:00Z</time>
      </trkpt>
      <trkpt lat="42.3942740" lon="-6.5034020">
        <ele>1815.0</ele>
        <time>2014-10-01T07:51:02Z</time>
      </trkpt>
      <trkpt lat="42.3942710" lon="-6.5034660">
        <ele>1815.5</ele>
        <time>2014-10-01T07:51:04Z</time>
      </trkpt>
      <trkpt lat="42.3942630" lon="-6.5035310">
        <ele>1816.1</ele>
        <time>2014-10-01T07:51:06Z</time>
      </trkpt>
      <trkpt lat="42.3942490" lon="-6.5035910">
        <ele>1816.7</ele>
        <time>2014-10-01T07:51:08Z</time>
      </trkpt>
      <trkpt lat="42.3942370" lon="-6.5036500">
        <ele>1817.2</ele>
        <time>2014-10-01T07:51:10Z</time>
      </trkpt>
      <trkpt lat="42.3942300" lon="-6.5037110">
        <ele>1817.7</ele>
        <time>2014-10-01T07:51:12Z</time>
      </trkpt>
      <trkpt lat="42.3942240" lon="-6.5037690">
        <ele>1818.2</ele>
        <time>2014-10-01T07:51:14Z</time>
      </trkpt>
      <trkpt lat="42.3942160" lon="-6.5038260">
        <ele>1818.7</ele>
        <time>2014-10-01T07:51:16Z</time>
      </trkpt>
      <trkpt lat="42.3942050" lon="-6.5038840">
        <ele>1819.2</ele>
        <time>2014-10-01T07:51:18Z</time>
      </trkpt>
      <trkpt lat="42.3941920" lon="-6.5039380">
        <ele>1819.7</ele>
        <time>2014-10-01T07:51:20Z</time>
      </trkpt>
      <trkpt lat="42.3941810" lon="-6.5039960">
        <ele>1820.3</ele>
        <time>2014-10-01T07:51:22Z</time>
      </trkpt>
      <trkpt lat="42.3941680" lon="-6.5040560">
        <ele>1820.8</ele>
        <time>2014-10-01T07:51:24Z</time>
      </trkpt>
      <trkpt lat="42.3941570" lon="-6.5041160">
        <ele>1821.3</ele>
        <time>2014-10-01T07:51:26Z</time>
      </trkpt>
      <trkpt lat="42.3941450" lon="-6.5041720">
        <ele>1821.8</ele>
        <time>2014-10-01T07:51:28Z</time>
      </trkpt>
      <trkpt lat="42.3941370" lon="-6.5042310">
        <ele>1822.4</ele>
        <time>2014-10-01T07:51:30Z</time>
      </trkpt>
      <trkpt lat="42.3941260" lon="-6.5042860">
        <ele>1822.8</ele>
        <time>2014-10-01T07:51:32Z</time>
      </trkpt>
      <trkpt lat="42.3941090" lon="-6.5043420">
        <ele>1823.4</ele>
        <time>2014-10-01T07:51:34Z</time>
      </trkpt>
      <trkpt lat="42.3940960" lon="-6.5043960">
        <ele>1823.9</ele>
        <time>2014-10-01T07:51:36Z</time>
      </trkpt>
      <trkpt lat="42.3940830" lon="-6.5044490">
        <ele>1824.3</ele>
        <time>2014-10-01T07:51:38Z</time>
      </trkpt>
      <trkpt lat="42.3940660" lon="-6.5045020">
        <ele>1824.8</ele>
        <time>2014-10-01T07:51:40Z</time>
      </trkpt>
      <trkpt lat="42.3940450" lon="-6.5045520">
        <ele>1825.3</ele>
        <time>2014-10-01T07:51:42Z</time>
      </trkpt>
      <trkpt lat="42.3940250" lon="-6.5046020">
        <ele>1825.8</ele>
        <time>2014-10-01T07:51:44Z</time>
      </trkpt>
      <trkpt lat="42.3940100" lon="-6.5046620">
        <ele>1826.4</ele>
        <time>2014-10-01T07:51:46Z</time>
      </trkpt>
      <trkpt lat="42.3939940" lon="-6.5047160">
        <ele>1826.9</ele>
        <time>2014-10-01T07:51:48Z</time>
      </trkpt>
      <trkpt lat="42.3939770" lon="-6.5047700">
        <ele>1827.4</ele>
        <time>2014-10-01T07:51:50Z</time>
      </trkpt>
      <trkpt lat="42.3939700" lon="-6.5048340">
        <ele>1828.0</ele>
        <time>2014-10-01T07:51:52Z</time>
      </trkpt>
      <trkpt lat="42.3939570" lon="-6.5048840">
        <ele>1828.4</ele>
        <time>2014-10-01T07:51:54Z</time>
      </trkpt>
      <trkpt lat="42.3939360" lon="-6.5049360">
        <ele>1828.9</ele>
        <time>2014-10-01T07:51:56Z</time>
      </trkpt>
      <trkpt lat="42.3939160" lon="-6.5049890">
        <ele>1829.4</ele>
        <time>2014-10-01T07:51:58Z</time>
      </trkpt>
      <trkpt lat="42.3938990" lon="-6.5050340">
        <ele>1829.9</ele>
        <time>2014-10-01T07:52:00Z</time>
      </trkpt>
      <trkpt lat="42.3938770" lon="-6.5050740">
        <ele>1830.3</ele>
        <time>2014-10-01T07:52:02Z</time>
      </trkpt>
      <trkpt lat="42.3938580" lon="-6.5051130">
        <ele>1830.7</ele>
        <time>2014-10-01T07:52:04Z</time>
      </trkpt>
      <trkpt lat="42.3938310" lon="-6.5051510">
        <ele>1831.2</ele>
        <time>2014-10-01T07:52:06Z</time>
      </trkpt>
      <trkpt lat="42.3938000" lon="-6.5051920">
        <ele>1831.7</ele>
        <time>2014-10-01T07:52:08Z</time>
      </trkpt>
      <trkpt lat="42.3937690" lon="-6.5052350">
        <ele>1832.2</ele>
        <time>2014-10-01T07:52:10Z</time>
      </trkpt>
      <trkpt lat="42.3937380" lon="-6.5052740">
        <ele>1832.7</ele>
        <time>2014-10-01T07:52:12Z</time>
      </trkpt>
      <trkpt lat="42.3937030" lon="-6.5053150">
        <ele>1833.2</ele>
        <time>2014-10-01T07:52:14Z</time>
      </trkpt>
      <trkpt lat="42.3936690" lon="-6.5053550">
        <ele>1833.8</ele>
        <time>2014-10-01T07:52:16Z</time>
      </trkpt>
      <trkpt lat="42.3936410" lon="-6.5053920">
        <ele>1834.2</ele>
        <time>2014-10-01T07:52:18Z</time>
      </trkpt>
      <trkpt lat="42.3936120" lon="-6.5054390">
        <ele>1834.8</ele>
        <time>2014-10-01T07:52:20Z</time>
      </trkpt>
      <trkpt lat="42.3935890" lon="-6.5054870">
        <ele>1835.3</ele>
        <time>2014-10-01T07:52:22Z</time>
      </trkpt>
      <trkpt lat="42.3935650" lon="-6.5055330">
        <ele>1835.7</ele>
        <time>2014-10-01T07:52:24Z</time>
      </trkpt>
      <trkpt lat="42.3935360" lon="-6.5055810">
        <ele>1836.3</ele>
        <time>2014-10-01T07:52:26Z</time>
      </trkpt>
      <trkpt lat="42.3935110" lon="-6.5056260">
        <ele>1836.8</ele>
        <time>2014-10-01T07:52:28Z</time>
      </trkpt>
      <trkpt lat="42.3934830" lon="-6.5056660">
        <ele>1837.2</ele>
        <time>2014-10-01T07:52:30Z</time>
      </trkpt>
      <trkpt lat="42.3934620" lon="-6.5057100">
        <ele>1837.7</ele>
        <time>2014-10-01T07:52:32Z</time>
      </trkpt>
      <trkpt lat="42.3934420" lon="-6.5057540">
        <ele>1838.1</ele>
        <time>2014-10-01T07:52:34Z</time>
      </trkpt>
      <trkpt lat="42.3934130" lon="-6.5057980">
        <ele>1838.6</ele>
        <time>2014-10-01T07:52:36Z</time>
      </trkpt>
      <trkpt lat="42.3933910" lon="-6.5058470">
        <ele>1839.1</ele>
        <time>2014-10-01T07:52:38Z</time>
      </trkpt>
      <trkpt lat="42.3933740" lon="-6.5058970">
        <ele>1839.6</ele>
        <time>2014-10-01T07:52:40Z</time>
      </trkpt>
      <trkpt lat="42.3933570" lon="-6.5059480">
        <ele>1840.1</ele>
        <time>2014-10-01T07:52:42Z</time>
      </trkpt>
      <trkpt lat="42.3933360" lon="-6.5059980">
        <ele>1840.6</ele>
        <time>2014-10-01T07:52:44Z</time>
      </trkpt>
      <trkpt lat="42.3933270" lon="-6.5060530">
        <ele>1841.1</ele>
        <time>2014-10-01T07:52:46Z</time>
      </trkpt>
      <trkpt lat="42.3933160" lon="-6.5061110">
        <ele>1841.6</ele>
        <time>2014-10-01T07:52:48Z</time>
      </trkpt>
      <trkpt lat="42.3933080" lon="-6.5061630">
        <ele>1842.1</ele>
        <time>2014-10-01T07:52:50Z</time>
      </trkpt>
      <trkpt lat="42.3933100" lon="-6.5062210">
        <ele>1842.6</ele>
        <time>2014-10-01T07:52:52Z</time>
      </trkpt>
      <trkpt lat="42.3933120" lon="-6.5062770">
        <ele>1843.1</ele>
        <time>2014-10-01T07:52:54Z</time>
      </trkpt>
      <trkpt lat="42.3933170" lon="-6.5063380">
        <ele>1843.6</ele>
        <time>2014-10-01T07:52:56Z</time>
      </trkpt>
      <trkpt lat="42.3933230" lon="-6.5063970">
        <ele>1844.1</ele>
        <time>2014-10-01T07:52:58Z</time>
      </trkpt>
      <trkpt lat="42.3933370" lon="-6.5064580">
        <ele>1844.7</ele>
        <time>2014-10-01T07:53:00Z</time>
      </trkpt>
      <trkpt lat="42.3933530" lon="-6.5065180">
        <ele>1845.2</ele>
        <time>2014-10-01T07:53:02Z</time>
      </trkpt>
      <trkpt lat="42.3933710" lon="-6.5065810">
        <ele>1845.8</ele>
        <time>2014-10-01T07:53:04Z</time>
      </trkpt>
      <trkpt lat="42.3933870" lon="-6.5066450">
        <ele>1846.4</ele>
        <time>2014-10-01T07:53:06Z</time>
      </trkpt>
      <trkpt lat="42.3934020" lon="-6.5067000">
        <ele>1846.9</ele>
        <time>2014-10-01T07:53:08Z</time>
      </trkpt>
      <trkpt lat="42.3934190" lon="-6.5067480">
        <ele>1847.3</ele>
        <time>2014-10-01T07:53:10Z</time>
      </trkpt>
      <trkpt lat="42.3934370" lon="-6.5067950">
        <ele>1847.8</ele>
        <time>2014-10-01T07:53:12Z</time>
      </trkpt>
      <trkpt lat="42.3934540" lon="-6.5068430">
        <ele>1848.3</ele>
        <time>2014-10-01T07:53:14Z</time>
      </trkpt>
      <trkpt lat="42.3934730" lon="-6.5068960">
        <ele>1848.8</ele>
        <time>2014-10-01T07:53:16Z</time>
      </trkpt>
      <trkpt lat="42.3934920" lon="-6.5069470">
        <ele>1849.3</ele>
        <time>2014-10-01T07:53:18Z</time>
      </trkpt>
      <trkpt lat="42.3935080" lon="-6.5069980">
        <ele>1849.7</ele>
        <time>2014-10-01T07:53:20Z</time>
      </trkpt>
      <trkpt lat="42.3935240" lon="-6.5070530">
        <ele>1850.3</ele>
        <time>2014-10-01T07:53:22Z</time>
      </trkpt>
      <trkpt lat="42.3935360" lon="-6.5071120">
        <ele>1850.8</ele>
        <time>2014-10-01T07:53:24Z</time>
      </trkpt>
      <trkpt lat="42.3935470" lon="-6.5071710">
        <ele>1851.3</ele>
        <time>2014-10-01T07:53:26Z</time>
      </trkpt>
      <trkpt lat="42.3935640" lon="-6.5072320">
        <ele>1851.9</ele>
        <time>2014-10-01T07:53:28Z</time>
      </trkpt>
      <trkpt lat="42.3935760" lon="-6.5072990">
        <ele>1852.5</ele>
        <time>2014-10-01T07:53:30Z</time>
      </trkpt>
      <trkpt lat="42.3935880" lon="-6.5073570">
        <ele>1853.0</ele>
        <time>2014-10-01T07:53:32Z</time>
      </trkpt>
      <trkpt lat="42.3935970" lon="-6.5074190">
        <ele>1853.5</ele>
        <time>2014-10-01T07:53:34Z</time>
      </trkpt>
      <trkpt lat="42.3936080" lon="-6.5074850">
        <ele>1854.1</ele>
        <time>2014-10-01T07:53:36Z</time>
      </trkpt>
      <trkpt lat="42.3936130" lon="-6.5075260">
        <ele>1854.5</ele>
        <time>2014-10-01T07:53:38Z</time>
      </trkpt>
      <trkpt lat="42.3936180" lon="-6.5075780">
        <ele>1854.9</ele>
        <time>2014-10-01T07:53:40Z</time>
      </trkpt>
      <trkpt lat="42.3936290" lon="-6.5076350">
        <ele>1855.5</ele>
        <time>2014-10-01T07:53:42Z</time>
      </trkpt>
      <trkpt lat="42.3936300" lon="-6.5076890">
        <ele>1855.9</ele>
        <time>2014-10-01T07:53:44Z</time>
      </trkpt>
      <trkpt lat="42.3936330" lon="-6.5077610">
        <ele>1856.5</ele>
        <time>2014-10-01T07:53:46Z</time>
      </trkpt>
      <trkpt lat="42.3936410" lon="-6.5078290">
        <ele>1857.1</ele>
        <time>2014-10-01T07:53:48Z</time>
      </trkpt>
      <trkpt lat="42.3936450" lon="-6.5078660">
        <ele>1857.5</ele>
        <time>2014-10-01T07:53:49Z</time>
      </trkpt>
      <trkpt lat="42.3936470" lon="-6.5079240">
        <ele>1858.0</ele>
        <time>2014-10-01T07:53:51Z</time>
      </trkpt>
      <trkpt lat="42.3936650" lon="-6.5079820">
        <ele>1858.5</ele>
        <time>2014-10-01T07:53:53Z</time>
      </trkpt>
      <trkpt lat="42.3936850" lon="-6.5080330">
        <ele>1859.0</ele>
        <time>2014-10-01T07:53:55Z</time>
      </trkpt>
      <trkpt lat="42.3937100" lon="-6.5080940">
        <ele>1859.6</ele>
        <time>2014-10-01T07:53:57Z</time>
      </trkpt>
      <trkpt lat="42.3937330" lon="-6.5081500">
        <ele>1860.2</ele>
        <time>2014-10-01T07:53:59Z</time>
      </trkpt>
      <trkpt lat="42.3937460" lon="-6.5081830">
        <ele>1860.5</ele>
        <time>2014-10-01T07:54:00Z</time>
      </trkpt>
      <trkpt lat="42.3937590" lon="-6.5082240">
        <ele>1860.9</ele>
        <time>2014-10-01T07:54:01Z</time>
      </trkpt>
      <trkpt lat="42.3937700" lon="-6.5082630">
        <ele>1861.2</ele>
        <time>2014-10-01T07:54:02Z</time>
      </trkpt>
      <trkpt lat="42.3937800" lon="-6.5083000">
        <ele>1861.6</ele>
        <time>2014-10-01T07:54:03Z</time>
      </trkpt>
      <trkpt lat="42.3937910" lon="-6.5083360">
        <ele>1861.9</ele>
        <time>2014-10-01T07:54:04Z</time>
      </trkpt>
      <trkpt lat="42.3938080" lon="-6.5083980">
        <ele>1862.5</ele>
        <time>2014-10-01T07:54:06Z</time>
      </trkpt>
      <trkpt lat="42.3938250" lon="-6.5084670">
        <ele>1863.1</ele>
        <time>2014-10-01T07:54:08Z</time>
      </trkpt>
      <trkpt lat="42.3938430" lon="-6.5085320">
        <ele>1863.7</ele>
        <time>2014-10-01T07:54:10Z</time>
      </trkpt>
      <trkpt lat="42.3938630" lon="-6.5085940">
        <ele>1864.3</ele>
        <time>2014-10-01T07:54:12Z</time>
      </trkpt>
      <trkpt lat="42.3938830" lon="-6.5086490">
        <ele>1864.8</ele>
        <time>2014-10-01T07:54:14Z</time>
      </trkpt>
      <trkpt lat="42.3939030" lon="-6.5087070">
        <ele>1865.4</ele>
        <time>2014-10-01T07:54:16Z</time>
      </trkpt>
      <trkpt lat="42.3939250" lon="-6.5087650">
        <ele>1866.0</ele>
        <time>2014-10-01T07:54:18Z</time>
      </trkpt>
      <trkpt lat="42.3939480" lon="-6.5088200">
        <ele>1866.5</ele>
        <time>2014-10-01T07:54:20Z</time>
      </trkpt>
      <trkpt lat="42.3939690" lon="-6.5088690">
        <ele>1867.0</ele>
        <time>2014-10-01T07:54:22Z</time>
      </trkpt>
      <trkpt lat="42.3939870" lon="-6.5089260">
        <ele>1867.5</ele>
        <time>2014-10-01T07:54:24Z</time>
      </trkpt>
      <trkpt lat="42.3939990" lon="-6.5089600">
        <ele>1867.9</ele>
        <time>2014-10-01T07:54:25Z</time>
      </trkpt>
      <trkpt lat="42.3940220" lon="-6.5090200">
        <ele>1868.4</ele>
        <time>2014-10-01T07:54:27Z</time>
      </trkpt>
      <trkpt lat="42.3940410" lon="-6.5090790">
        <ele>1869.0</ele>
        <time>2014-10-01T07:54:29Z</time>
      </trkpt>
      <trkpt lat="42.3940630" lon="-6.5091320">
        <ele>1869.5</ele>
        <time>2014-10-01T07:54:31Z</time>
      </trkpt>
      <trkpt lat="42.3940780" lon="-6.5091620">
        <ele>1869.8</ele>
        <time>2014-10-01T07:54:32Z</time>
      </trkpt>
      <trkpt lat="42.3940960" lon="-6.5091990">
        <ele>1870.2</ele>
        <time>2014-10-01T07:54:34Z</time>
      </trkpt>
      <trkpt lat="42.3941140" lon="-6.5092320">
        <ele>1870.6</ele>
        <time>2014-10-01T07:54:36Z</time>
      </trkpt>
      <trkpt lat="42.3941320" lon="-6.5092680">
        <ele>1871.0</ele>
        <time>2014-10-01T07:54:38Z</time>
      </trkpt>
      <trkpt lat="42.3941510" lon="-6.5093100">
        <ele>1871.4</ele>
        <time>2014-10-01T07:54:40Z</time>
      </trkpt>
      <trkpt lat="42.3941720" lon="-6.5093550">
        <ele>1871.8</ele>
        <time>2014-10-01T07:54:42Z</time>
      </trkpt>
      <trkpt lat="42.3941920" lon="-6.5094030">
        <ele>1872.3</ele>
        <time>2014-10-01T07:54:44Z</time>
      </trkpt>
      <trkpt lat="42.3942040" lon="-6.5094540">
        <ele>1872.8</ele>
        <time>2014-10-01T07:54:46Z</time>
      </trkpt>
      <trkpt lat="42.3942080" lon="-6.5095120">
        <ele>1873.3</ele>
        <time>2014-10-01T07:54:48Z</time>
      </trkpt>
      <trkpt lat="42.3942060" lon="-6.5095690">
        <ele>1873.8</ele>
        <time>2014-10-01T07:54:50Z</time>
      </trkpt>
      <trkpt lat="42.3942070" lon="-6.5096290">
        <ele>1874.3</ele>
        <time>2014-10-01T07:54:52Z</time>
      </trkpt>
      <trkpt lat="42.3942020" lon="-6.5096910">
        <ele>1874.8</ele>
        <time>2014-10-01T07:54:54Z</time>
      </trkpt>
      <trkpt lat="42.3941900" lon="-6.5097440">
        <ele>1875.3</ele>
        <time>2014-10-01T07:54:56Z</time>
      </trkpt>
      <trkpt lat="42.3941620" lon="-6.5098010">
        <ele>1875.9</ele>
        <time>2014-10-01T07:54:58Z</time>
      </trkpt>
      <trkpt lat="42.3941470" lon="-6.5098310">
        <ele>1876.2</ele>
        <time>2014-10-01T07:54:59Z</time>
      </trkpt>
      <trkpt lat="42.3941270" lon="-6.5098600">
        <ele>1876.6</ele>
        <time>2014-10-01T07:55:00Z</time>
      </trkpt>
      <trkpt lat="42.3941050" lon="-6.5098860">
        <ele>1876.9</ele>
        <time>2014-10-01T07:55:01Z</time>
      </trkpt>
      <trkpt lat="42.3940590" lon="-6.5099340">
        <ele>1877.6</ele>
        <time>2014-10-01T07:55:03Z</time>
      </trkpt>
      <trkpt lat="42.3940320" lon="-6.5099550">
        <ele>1878.0</ele>
        <time>2014-10-01T07:55:04Z</time>
      </trkpt>
      <trkpt lat="42.3940040" lon="-6.5099710">
        <ele>1878.3</ele>
        <time>2014-10-01T07:55:05Z</time>
      </trkpt>
      <trkpt lat="42.3939720" lon="-6.5099850">
        <ele>1878.7</ele>
        <time>2014-10-01T07:55:06Z</time>
      </trkpt>
      <trkpt lat="42.3939360" lon="-6.5099930">
        <ele>1879.1</ele>
        <time>2014-10-01T07:55:07Z</time>
      </trkpt>
      <trkpt lat="42.3938960" lon="-6.5099990">
        <ele>1879.3</ele>
        <time>2014-10-01T07:55:08Z</time>
      </trkpt>
      <trkpt lat="42.3938420" lon="-6.5100000">
        <ele>1879.1</ele>
        <time>2014-10-01T07:55:09Z</time>
      </trkpt>
      <trkpt lat="42.3937850" lon="-6.5099860">
        <ele>1878.9</ele>
        <time>2014-10-01T07:55:10Z</time>
      </trkpt>
      <trkpt lat="42.3937270" lon="-6.5099620">
        <ele>1878.7</ele>
        <time>2014-10-01T07:55:11Z</time>
      </trkpt>
      <trkpt lat="42.3936740" lon="-6.5099240">
        <ele>1878.5</ele>
        <time>2014-10-01T07:55:12Z</time>
      </trkpt>
      <trkpt lat="42.3936290" lon="-6.5098690">
        <ele>1878.3</ele>
        <time>2014-10-01T07:55:13Z</time>
      </trkpt>
      <trkpt lat="42.3935890" lon="-6.5098060">
        <ele>1878.2</ele>
        <time>2014-10-01T07:55:14Z</time>
      </trkpt>
      <trkpt lat="42.3935550" lon="-6.5097400">
        <ele>1878.2</ele>
        <time>2014-10-01T07:55:15Z</time>
      </trkpt>
      <trkpt lat="42.3935230" lon="-6.5096760">
        <ele>1878.1</ele>
        <time>2014-10-01T07:55:16Z</time>
      </trkpt>
      <trkpt lat="42.3934920" lon="-6.5096090">
        <ele>1878.1</ele>
        <time>2014-10-01T07:55:17Z</time>
      </trkpt>
      <trkpt lat="42.3934660" lon="-6.5095420">
        <ele>1878.0</ele>
        <time>2014-10-01T07:55:18Z</time>
      </trkpt>
      <trkpt lat="42.3934440" lon="-6.5094740">
        <ele>1877.9</ele>
        <time>2014-10-01T07:55:19Z</time>
      </trkpt>
      <trkpt lat="42.3934210" lon="-6.5094020">
        <ele>1877.9</ele>
        <time>2014-10-01T07:55:20Z</time>
      </trkpt>
      <trkpt lat="42.3934000" lon="-6.5093290">
        <ele>1877.8</ele>
        <time>2014-10-01T07:55:21Z</time>
      </trkpt>
      <trkpt lat="42.3933800" lon="-6.5092580">
        <ele>1877.7</ele>
        <time>2014-10-01T07:55:22Z</time>
      </trkpt>
      <trkpt lat="42.3933570" lon="-6.5091890">
        <ele>1877.7</ele>
        <time>2014-10-01T07:55:23Z</time>
      </trkpt>
      <trkpt lat="42.3933340" lon="-6.5091130">
        <ele>1877.6</ele>
        <time>2014-10-01T07:55:24Z</time>
      </trkpt>
      <trkpt lat="42.3933110" lon="-6.5090340">
        <ele>1877.5</ele>
        <time>2014-10-01T07:55:25Z</time>
      </trkpt>
      <trkpt lat="42.3932850" lon="-6.5089450">
        <ele>1877.4</ele>
        <time>2014-10-01T07:55:26Z</time>
      </trkpt>
      <trkpt lat="42.3932600" lon="-6.5088590">
        <ele>1877.3</ele>
        <time>2014-10-01T07:55:27Z</time>
      </trkpt>
      <trkpt lat="42.3932330" lon="-6.5087770">
        <ele>1877.2</ele>
        <time>2014-10-01T07:55:28Z</time>
      </trkpt>
      <trkpt lat="42.3932040" lon="-6.5087040">
        <ele>1877.1</ele>
        <time>2014-10-01T07:55:29Z</time>
      </trkpt>
      <trkpt lat="42.3931720" lon="-6.5086330">
        <ele>1877.0</ele>
        <time>2014-10-01T07:55:30Z</time>
      </trkpt>
      <trkpt lat="42.3931370" lon="-6.5085640">
        <ele>1877.0</ele>
        <time>2014-10-01T07:55:31Z</time>
      </trkpt>
      <trkpt lat="42.3931010" lon="-6.5085010">
        <ele>1876.9</ele>
        <time>2014-10-01T07:55:32Z</time>
      </trkpt>
      <trkpt lat="42.3930670" lon="-6.5084450">
        <ele>1876.8</ele>
        <time>2014-10-01T07:55:33Z</time>
      </trkpt>
      <trkpt lat="42.3930310" lon="-6.5083830">
        <ele>1876.7</ele>
        <time>2014-10-01T07:55:34Z</time>
      </trkpt>
      <trkpt lat="42.3929900" lon="-6.5083190">
        <ele>1876.7</ele>
        <time>2014-10-01T07:55:35Z</time>
      </trkpt>
      <trkpt lat="42.3929450" lon="-6.5082520">
        <ele>1876.6</ele>
        <time>2014-10-01T07:55:36Z</time>
      </trkpt>
      <trkpt lat="42.3928980" lon="-6.5081900">
        <ele>1876.4</ele>
        <time>2014-10-01T07:55:37Z</time>
      </trkpt>
      <trkpt lat="42.3928490" lon="-6.5081330">
        <ele>1876.3</ele>
        <time>2014-10-01T07:55:38Z</time>
      </trkpt>
      <trkpt lat="42.3927980" lon="-6.5080800">
        <ele>1876.2</ele>
        <time>2014-10-01T07:55:39Z</time>
      </trkpt>
      <trkpt lat="42.3927440" lon="-6.5080250">
        <ele>1876.0</ele>
        <time>2014-10-01T07:55:40Z</time>
      </trkpt>
      <trkpt lat="42.3926900" lon="-6.5079720">
        <ele>1875.9</ele>
        <time>2014-10-01T07:55:41Z</time>
      </trkpt>
      <trkpt lat="42.3926360" lon="-6.5079210">
        <ele>1875.7</ele>
        <time>2014-10-01T07:55:42Z</time>
      </trkpt>
      <trkpt lat="42.3925830" lon="-6.5078700">
        <ele>1875.6</ele>
        <time>2014-10-01T07:55:43Z</time>
      </trkpt>
      <trkpt lat="42.3925270" lon="-6.5078200">
        <ele>1875.5</ele>
        <time>2014-10-01T07:55:44Z</time>
      </trkpt>
      <trkpt lat="42.3924710" lon="-6.5077710">
        <ele>1875.3</ele>
        <time>2014-10-01T07:55:45Z</time>
      </trkpt>
      <trkpt lat="42.3924160" lon="-6.5077230">
        <ele>1875.2</ele>
        <time>2014-10-01T07:55:46Z</time>
      </trkpt>
      <trkpt lat="42.3923600" lon="-6.5076740">
        <ele>1875.1</ele>
        <time>2014-10-01T07:55:47Z</time>
      </trkpt>
      <trkpt lat="42.3923010" lon="-6.5076200">
        <ele>1874.9</ele>
        <time>2014-10-01T07:55:48Z</time>
      </trkpt>
      <trkpt lat="42.3922390" lon="-6.5075610">
        <ele>1874.7</ele>
        <time>2014-10-01T07:55:49Z</time>
      </trkpt>
      <trkpt lat="42.3921760" lon="-6.5075000">
        <ele>1874.5</ele>
        <time>2014-10-01T07:55:50Z</time>
      </trkpt>
      <trkpt lat="42.3921160" lon="-6.5074390">
        <ele>1874.3</ele>
        <time>2014-10-01T07:55:51Z</time>
      </trkpt>
      <trkpt lat="42.3920580" lon="-6.5073800">
        <ele>1874.0</ele>
        <time>2014-10-01T07:55:52Z</time>
      </trkpt>
      <trkpt lat="42.3920000" lon="-6.5073260">
        <ele>1873.8</ele>
        <time>2014-10-01T07:55:53Z</time>
      </trkpt>
      <trkpt lat="42.3919370" lon="-6.5072660">
        <ele>1873.6</ele>
        <time>2014-10-01T07:55:54Z</time>
      </trkpt>
      <trkpt lat="42.3918740" lon="-6.5072060">
        <ele>1873.5</ele>
        <time>2014-10-01T07:55:55Z</time>
      </trkpt>
      <trkpt lat="42.3918110" lon="-6.5071460">
        <ele>1873.3</ele>
        <time>2014-10-01T07:55:56Z</time>
      </trkpt>
      <trkpt lat="42.3917480" lon="-6.5070870">
        <ele>1873.1</ele>
        <time>2014-10-01T07:55:57Z</time>
      </trkpt>
      <trkpt lat="42.3916800" lon="-6.5070270">
        <ele>1872.9</ele>
        <time>2014-10-01T07:55:58Z</time>
      </trkpt>
      <trkpt lat="42.3916170" lon="-6.5069690">
        <ele>1872.6</ele>
        <time>2014-10-01T07:55:59Z</time>
      </trkpt>
      <trkpt lat="42.3915510" lon="-6.5069080">
        <ele>1872.4</ele>
        <time>2014-10-01T07:56:00Z</time>
      </trkpt>
      <trkpt lat="42.3914850" lon="-6.5068480">
        <ele>1872.2</ele>
        <time>2014-10-01T07:56:01Z</time>
      </trkpt>
      <trkpt lat="42.3914190" lon="-6.5067830">
        <ele>1871.9</ele>
        <time>2014-10-01T07:56:02Z</time>
      </trkpt>
      <trkpt lat="42.3913550" lon="-6.5067160">
        <ele>1871.7</ele>
        <time>2014-10-01T07:56:03Z</time>
      </trkpt>
      <trkpt lat="42.3912940" lon="-6.5066480">
        <ele>1871.4</ele>
        <time>2014-10-01T07:56:04Z</time>
      </trkpt>
      <trkpt lat="42.3912360" lon="-6.5065810">
        <ele>1871.2</ele>
        <time>2014-10-01T07:56:05Z</time>
      </trkpt>
      <trkpt lat="42.3911810" lon="-6.5065070">
        <ele>1871.0</ele>
        <time>2014-10-01T07:56:06Z</time>
      </trkpt>
      <trkpt lat="42.3911270" lon="-6.5064290">
        <ele>1870.9</ele>
        <time>2014-10-01T07:56:07Z</time>
      </trkpt>
      <trkpt lat="42.3910730" lon="-6.5063480">
        <ele>1870.7</ele>
        <time>2014-10-01T07:56:08Z</time>
      </trkpt>
      <trkpt lat="42.3910190" lon="-6.5062670">
        <ele>1870.5</ele>
        <time>2014-10-01T07:56:09Z</time>
      </trkpt>
      <trkpt lat="42.3909660" lon="-6.5061850">
        <ele>1870.2</ele>
        <time>2014-10-01T07:56:10Z</time>
      </trkpt>
      <trkpt lat="42.3909120" lon="-6.5061000">
        <ele>1870.0</ele>
        <time>2014-10-01T07:56:11Z</time>
      </trkpt>
      <trkpt lat="42.3908570" lon="-6.5060140">
        <ele>1869.8</ele>
        <time>2014-10-01T07:56:12Z</time>
      </trkpt>
      <trkpt lat="42.3908030" lon="-6.5059260">
        <ele>1869.6</ele>
        <time>2014-10-01T07:56:13Z</time>
      </trkpt>
      <trkpt lat="42.3907500" lon="-6.5058390">
        <ele>1869.4</ele>
        <time>2014-10-01T07:56:14Z</time>
      </trkpt>
      <trkpt lat="42.3906970" lon="-6.5057510">
        <ele>1869.2</ele>
        <time>2014-10-01T07:56:15Z</time>
      </trkpt>
      <trkpt lat="42.3906460" lon="-6.5056630">
        <ele>1869.0</ele>
        <time>2014-10-01T07:56:16Z</time>
      </trkpt>
      <trkpt lat="42.3905960" lon="-6.5055720">
        <ele>1868.8</ele>
        <time>2014-10-01T07:56:17Z</time>
      </trkpt>
      <trkpt lat="42.3905440" lon="-6.5054790">
        <ele>1868.6</ele>
        <time>2014-10-01T07:56:18Z</time>
      </trkpt>
      <trkpt lat="42.3904970" lon="-6.5053890">
        <ele>1868.4</ele>
        <time>2014-10-01T07:56:19Z</time>
      </trkpt>
      <trkpt lat="42.3904520" lon="-6.5053040">
        <ele>1868.2</ele>
        <time>2014-10-01T07:56:20Z</time>
      </trkpt>
      <trkpt lat="42.3904100" lon="-6.5052200">
        <ele>1868.0</ele>
        <time>2014-10-01T07:56:21Z</time>
      </trkpt>
      <trkpt lat="42.3903660" lon="-6.5051340">
        <ele>1867.8</ele>
        <time>2014-10-01T07:56:22Z</time>
      </trkpt>
      <trkpt lat="42.3903210" lon="-6.5050450">
        <ele>1867.6</ele>
        <time>2014-10-01T07:56:23Z</time>
      </trkpt>
      <trkpt lat="42.3902750" lon="-6.5049570">
        <ele>1867.3</ele>
        <time>2014-10-01T07:56:24Z</time>
      </trkpt>
      <trkpt lat="42.3902260" lon="-6.5048630">
        <ele>1867.0</ele>
        <time>2014-10-01T07:56:25Z</time>
      </trkpt>
      <trkpt lat="42.3901760" lon="-6.5047700">
        <ele>1866.8</ele>
        <time>2014-10-01T07:56:26Z</time>
      </trkpt>
      <trkpt lat="42.3901260" lon="-6.5046830">
        <ele>1866.6</ele>
        <time>2014-10-01T07:56:27Z</time>
      </trkpt>
      <trkpt lat="42.3900740" lon="-6.5045970">
        <ele>1866.3</ele>
        <time>2014-10-01T07:56:28Z</time>
      </trkpt>
      <trkpt lat="42.3900160" lon="-6.5045040">
        <ele>1865.9</ele>
        <time>2014-10-01T07:56:29Z</time>
      </trkpt>
      <trkpt lat="42.3899570" lon="-6.5044080">
        <ele>1865.6</ele>
        <time>2014-10-01T07:56:30Z</time>
      </trkpt>
      <trkpt lat="42.3898980" lon="-6.5043150">
        <ele>1865.2</ele>
        <time>2014-10-01T07:56:31Z</time>
      </trkpt>
      <trkpt lat="42.3898380" lon="-6.5042200">
        <ele>1864.8</ele>
        <time>2014-10-01T07:56:32Z</time>
      </trkpt>
      <trkpt lat="42.3897760" lon="-6.5041220">
        <ele>1864.4</ele>
        <time>2014-10-01T07:56:33Z</time>
      </trkpt>
      <trkpt lat="42.3897140" lon="-6.5040280">
        <ele>1864.0</ele>
        <time>2014-10-01T07:56:34Z</time>
      </trkpt>
      <trkpt lat="42.3896500" lon="-6.5039320">
        <ele>1863.6</ele>
        <time>2014-10-01T07:56:35Z</time>
      </trkpt>
      <trkpt lat="42.3895870" lon="-6.5038380">
        <ele>1863.3</ele>
        <time>2014-10-01T07:56:36Z</time>
      </trkpt>
      <trkpt lat="42.3895220" lon="-6.5037440">
        <ele>1863.0</ele>
        <time>2014-10-01T07:56:37Z</time>
      </trkpt>
      <trkpt lat="42.3894540" lon="-6.5036500">
        <ele>1862.6</ele>
        <time>2014-10-01T07:56:38Z</time>
      </trkpt>
      <trkpt lat="42.3893860" lon="-6.5035600">
        <ele>1862.3</ele>
        <time>2014-10-01T07:56:39Z</time>
      </trkpt>
      <trkpt lat="42.3893140" lon="-6.5034700">
        <ele>1862.0</ele>
        <time>2014-10-01T07:56:40Z</time>
      </trkpt>
      <trkpt lat="42.3892410" lon="-6.5033820">
        <ele>1861.8</ele>
        <time>2014-10-01T07:56:41Z</time>
      </trkpt>
      <trkpt lat="42.3891680" lon="-6.5032950">
        <ele>1861.5</ele>
        <time>2014-10-01T07:56:42Z</time>
      </trkpt>
      <trkpt lat="42.3890940" lon="-6.5032130">
        <ele>1861.4</ele>
        <time>2014-10-01T07:56:43Z</time>
      </trkpt>
      <trkpt lat="42.3890180" lon="-6.5031290">
        <ele>1861.4</ele>
        <time>2014-10-01T07:56:44Z</time>
      </trkpt>
      <trkpt lat="42.3889390" lon="-6.5030500">
        <ele>1861.4</ele>
        <time>2014-10-01T07:56:45Z</time>
      </trkpt>
      <trkpt lat="42.3888620" lon="-6.5029710">
        <ele>1861.6</ele>
        <time>2014-10-01T07:56:46Z</time>
      </trkpt>
      <trkpt lat="42.3887880" lon="-6.5028980">
        <ele>1861.7</ele>
        <time>2014-10-01T07:56:47Z</time>
      </trkpt>
      <trkpt lat="42.3887150" lon="-6.5028280">
        <ele>1861.9</ele>
        <time>2014-10-01T07:56:48Z</time>
      </trkpt>
      <trkpt lat="42.3886410" lon="-6.5027560">
        <ele>1862.1</ele>
        <time>2014-10-01T07:56:49Z</time>
      </trkpt>
      <trkpt lat="42.3885700" lon="-6.5026860">
        <ele>1862.3</ele>
        <time>2014-10-01T07:56:50Z</time>
      </trkpt>
      <trkpt lat="42.3885040" lon="-6.5026230">
        <ele>1862.5</ele>
        <time>2014-10-01T07:56:51Z</time>
      </trkpt>
      <trkpt lat="42.3884370" lon="-6.5025570">
        <ele>1862.6</ele>
        <time>2014-10-01T07:56:52Z</time>
      </trkpt>
      <trkpt lat="42.3883720" lon="-6.5024920">
        <ele>1862.8</ele>
        <time>2014-10-01T07:56:53Z</time>
      </trkpt>
      <trkpt lat="42.3883080" lon="-6.5024250">
        <ele>1862.9</ele>
        <time>2014-10-01T07:56:54Z</time>
      </trkpt>
      <trkpt lat="42.3882470" lon="-6.5023630">
        <ele>1863.1</ele>
        <time>2014-10-01T07:56:55Z</time>
      </trkpt>
      <trkpt lat="42.3881900" lon="-6.5023020">
        <ele>1863.3</ele>
        <time>2014-10-01T07:56:56Z</time>
      </trkpt>
      <trkpt lat="42.3881320" lon="-6.5022400">
        <ele>1863.5</ele>
        <time>2014-10-01T07:56:57Z</time>
      </trkpt>
      <trkpt lat="42.3880720" lon="-6.5021750">
        <ele>1863.8</ele>
        <time>2014-10-01T07:56:58Z</time>
      </trkpt>
      <trkpt lat="42.3880180" lon="-6.5021130">
        <ele>1864.1</ele>
        <time>2014-10-01T07:56:59Z</time>
      </trkpt>
      <trkpt lat="42.3879580" lon="-6.5020450">
        <ele>1864.3</ele>
        <time>2014-10-01T07:57:00Z</time>
      </trkpt>
      <trkpt lat="42.3878910" lon="-6.5019740">
        <ele>1864.4</ele>
        <time>2014-10-01T07:57:01Z</time>
      </trkpt>
      <trkpt lat="42.3878240" lon="-6.5019050">
        <ele>1864.6</ele>
        <time>2014-10-01T07:57:02Z</time>
      </trkpt>
      <trkpt lat="42.3877650" lon="-6.5018460">
        <ele>1864.9</ele>
        <time>2014-10-01T07:57:03Z</time>
      </trkpt>
      <trkpt lat="42.3877120" lon="-6.5017890">
        <ele>1865.2</ele>
        <time>2014-10-01T07:57:04Z</time>
      </trkpt>
      <trkpt lat="42.3876620" lon="-6.5017360">
        <ele>1865.5</ele>
        <time>2014-10-01T07:57:05Z</time>
      </trkpt>
      <trkpt lat="42.3876010" lon="-6.5016740">
        <ele>1865.8</ele>
        <time>2014-10-01T07:57:06Z</time>
      </trkpt>
      <trkpt lat="42.3875490" lon="-6.5016210">
        <ele>1866.1</ele>
        <time>2014-10-01T07:57:07Z</time>
      </trkpt>
      <trkpt lat="42.3874920" lon="-6.5015630">
        <ele>1866.5</ele>
        <time>2014-10-01T07:57:08Z</time>
      </trkpt>
      <trkpt lat="42.3874350" lon="-6.5015080">
        <ele>1866.8</ele>
        <time>2014-10-01T07:57:09Z</time>
      </trkpt>
      <trkpt lat="42.3873880" lon="-6.5014570">
        <ele>1867.0</ele>
        <time>2014-10-01T07:57:10Z</time>
      </trkpt>
      <trkpt lat="42.3873430" lon="-6.5014080">
        <ele>1867.2</ele>
        <time>2014-10-01T07:57:11Z</time>
      </trkpt>
      <trkpt lat="42.3872990" lon="-6.5013610">
        <ele>1867.4</ele>
        <time>2014-10-01T07:57:12Z</time>
      </trkpt>
      <trkpt lat="42.3872560" lon="-6.5013160">
        <ele>1867.7</ele>
        <time>2014-10-01T07:57:13Z</time>
      </trkpt>
      <trkpt lat="42.3872110" lon="-6.5012690">
        <ele>1868.0</ele>
        <time>2014-10-01T07:57:14Z</time>
      </trkpt>
      <trkpt lat="42.3871700" lon="-6.5012230">
        <ele>1868.2</ele>
        <time>2014-10-01T07:57:15Z</time>
      </trkpt>
      <trkpt lat="42.3871280" lon="-6.5011780">
        <ele>1868.5</ele>
        <time>2014-10-01T07:57:16Z</time>
      </trkpt>
      <trkpt lat="42.3870860" lon="-6.5011300">
        <ele>1868.7</ele>
        <time>2014-10-01T07:57:17Z</time>
      </trkpt>
      <trkpt lat="42.3870420" lon="-6.5010810">
        <ele>1868.9</ele>
        <time>2014-10-01T07:57:18Z</time>
      </trkpt>
      <trkpt lat="42.3870020" lon="-6.5010340">
        <ele>1869.1</ele>
        <time>2014-10-01T07:57:19Z</time>
      </trkpt>
      <trkpt lat="42.3869620" lon="-6.5009870">
        <ele>1869.3</ele>
        <time>2014-10-01T07:57:20Z</time>
      </trkpt>
      <trkpt lat="42.3869220" lon="-6.5009400">
        <ele>1869.6</ele>
        <time>2014-10-01T07:57:21Z</time>
      </trkpt>
      <trkpt lat="42.3868810" lon="-6.5008940">
        <ele>1869.8</ele>
        <time>2014-10-01T07:57:22Z</time>
      </trkpt>
      <trkpt lat="42.3868360" lon="-6.5008450">
        <ele>1870.0</ele>
        <time>2014-10-01T07:57:23Z</time>
      </trkpt>
      <trkpt lat="42.3867910" lon="-6.5007980">
        <ele>1870.2</ele>
        <time>2014-10-01T07:57:24Z</time>
      </trkpt>
      <trkpt lat="42.3867460" lon="-6.5007470">
        <ele>1870.4</ele>
        <time>2014-10-01T07:57:25Z</time>
      </trkpt>
      <trkpt lat="42.3867060" lon="-6.5006990">
        <ele>1870.6</ele>
        <time>2014-10-01T07:57:26Z</time>
      </trkpt>
      <trkpt lat="42.3866680" lon="-6.5006520">
        <ele>1870.7</ele>
        <time>2014-10-01T07:57:27Z</time>
      </trkpt>
      <trkpt lat="42.3866290" lon="-6.5006060">
        <ele>1870.9</ele>
        <time>2014-10-01T07:57:28Z</time>
      </trkpt>
      <trkpt lat="42.3865890" lon="-6.5005570">
        <ele>1871.0</ele>
        <time>2014-10-01T07:57:29Z</time>
      </trkpt>
      <trkpt lat="42.3865470" lon="-6.5005080">
        <ele>1871.1</ele>
        <time>2014-10-01T07:57:30Z</time>
      </trkpt>
      <trkpt lat="42.3865050" lon="-6.5004590">
        <ele>1871.2</ele>
        <time>2014-10-01T07:57:31Z</time>
      </trkpt>
      <trkpt lat="42.3864640" lon="-6.5004060">
        <ele>1871.3</ele>
        <time>2014-10-01T07:57:32Z</time>
      </trkpt>
      <trkpt lat="42.3864230" lon="-6.5003540">
        <ele>1871.4</ele>
        <time>2014-10-01T07:57:33Z</time>
      </trkpt>
      <trkpt lat="42.3863800" lon="-6.5003000">
        <ele>1871.6</ele>
        <time>2014-10-01T07:57:34Z</time>
      </trkpt>
      <trkpt lat="42.3863340" lon="-6.5002440">
        <ele>1871.7</ele>
        <time>2014-10-01T07:57:35Z</time>
      </trkpt>
      <trkpt lat="42.3862940" lon="-6.5001920">
        <ele>1871.8</ele>
        <time>2014-10-01T07:57:36Z</time>
      </trkpt>
      <trkpt lat="42.3862540" lon="-6.5001400">
        <ele>1871.9</ele>
        <time>2014-10-01T07:57:37Z</time>
      </trkpt>
      <trkpt lat="42.3862170" lon="-6.5000880">
        <ele>1871.9</ele>
        <time>2014-10-01T07:57:38Z</time>
      </trkpt>
      <trkpt lat="42.3861770" lon="-6.5000330">
        <ele>1872.0</ele>
        <time>2014-10-01T07:57:39Z</time>
      </trkpt>
      <trkpt lat="42.3861390" lon="-6.4999780">
        <ele>1872.0</ele>
        <time>2014-10-01T07:57:40Z</time>
      </trkpt>
      <trkpt lat="42.3861020" lon="-6.4999250">
        <ele>1871.9</ele>
        <time>2014-10-01T07:57:41Z</time>
      </trkpt>
      <trkpt lat="42.3860610" lon="-6.4998660">
        <ele>1871.9</ele>
        <time>2014-10-01T07:57:42Z</time>
      </trkpt>
      <trkpt lat="42.3860160" lon="-6.4998000">
        <ele>1871.9</ele>
        <time>2014-10-01T07:57:43Z</time>
      </trkpt>
      <trkpt lat="42.3859730" lon="-6.4997370">
        <ele>1871.8</ele>
        <time>2014-10-01T07:57:44Z</time>
      </trkpt>
      <trkpt lat="42.3859300" lon="-6.4996740">
        <ele>1871.8</ele>
        <time>2014-10-01T07:57:45Z</time>
      </trkpt>
      <trkpt lat="42.3858840" lon="-6.4996040">
        <ele>1871.7</ele>
        <time>2014-10-01T07:57:46Z</time>
      </trkpt>
      <trkpt lat="42.3858350" lon="-6.4995290">
        <ele>1871.7</ele>
        <time>2014-10-01T07:57:47Z</time>
      </trkpt>
      <trkpt lat="42.3857870" lon="-6.4994560">
        <ele>1871.6</ele>
        <time>2014-10-01T07:57:48Z</time>
      </trkpt>
      <trkpt lat="42.3857400" lon="-6.4993850">
        <ele>1871.5</ele>
        <time>2014-10-01T07:57:49Z</time>
      </trkpt>
      <trkpt lat="42.3856940" lon="-6.4993160">
        <ele>1871.4</ele>
        <time>2014-10-01T07:57:50Z</time>
      </trkpt>
      <trkpt lat="42.3856470" lon="-6.4992450">
        <ele>1871.3</ele>
        <time>2014-10-01T07:57:51Z</time>
      </trkpt>
      <trkpt lat="42.3855980" lon="-6.4991750">
        <ele>1871.2</ele>
        <time>2014-10-01T07:57:52Z</time>
      </trkpt>
      <trkpt lat="42.3855480" lon="-6.4991020">
        <ele>1871.1</ele>
        <time>2014-10-01T07:57:53Z</time>
      </trkpt>
      <trkpt lat="42.3854990" lon="-6.4990300">
        <ele>1871.1</ele>
        <time>2014-10-01T07:57:54Z</time>
      </trkpt>
      <trkpt lat="42.3854510" lon="-6.4989550">
        <ele>1871.0</ele>
        <time>2014-10-01T07:57:55Z</time>
      </trkpt>
      <trkpt lat="42.3854020" lon="-6.4988770">
        <ele>1871.0</ele>
        <time>2014-10-01T07:57:56Z</time>
      </trkpt>
      <trkpt lat="42.3853550" lon="-6.4988000">
        <ele>1870.9</ele>
        <time>2014-10-01T07:57:57Z</time>
      </trkpt>
      <trkpt lat="42.3853110" lon="-6.4987260">
        <ele>1870.9</ele>
        <time>2014-10-01T07:57:58Z</time>
      </trkpt>
      <trkpt lat="42.3852640" lon="-6.4986490">
        <ele>1870.8</ele>
        <time>2014-10-01T07:57:59Z</time>
      </trkpt>
      <trkpt lat="42.3852140" lon="-6.4985720">
        <ele>1870.8</ele>
        <time>2014-10-01T07:58:00Z</time>
      </trkpt>
      <trkpt lat="42.3851620" lon="-6.4984970">
        <ele>1870.7</ele>
        <time>2014-10-01T07:58:01Z</time>
      </trkpt>
      <trkpt lat="42.3851070" lon="-6.4984240">
        <ele>1870.7</ele>
        <time>2014-10-01T07:58:02Z</time>
      </trkpt>
      <trkpt lat="42.3850500" lon="-6.4983570">
        <ele>1870.6</ele>
        <time>2014-10-01T07:58:03Z</time>
      </trkpt>
      <trkpt lat="42.3849910" lon="-6.4982980">
        <ele>1870.6</ele>
        <time>2014-10-01T07:58:04Z</time>
      </trkpt>
      <trkpt lat="42.3849280" lon="-6.4982440">
        <ele>1870.5</ele>
        <time>2014-10-01T07:58:05Z</time>
      </trkpt>
      <trkpt lat="42.3848620" lon="-6.4981920">
        <ele>1870.4</ele>
        <time>2014-10-01T07:58:06Z</time>
      </trkpt>
      <trkpt lat="42.3847930" lon="-6.4981430">
        <ele>1870.2</ele>
        <time>2014-10-01T07:58:07Z</time>
      </trkpt>
      <trkpt lat="42.3847200" lon="-6.4980920">
        <ele>1870.1</ele>
        <time>2014-10-01T07:58:08Z</time>
      </trkpt>
      <trkpt lat="42.3846480" lon="-6.4980420">
        <ele>1869.9</ele>
        <time>2014-10-01T07:58:09Z</time>
      </trkpt>
      <trkpt lat="42.3845720" lon="-6.4979920">
        <ele>1869.8</ele>
        <time>2014-10-01T07:58:10Z</time>
      </trkpt>
      <trkpt lat="42.3844960" lon="-6.4979410">
        <ele>1869.6</ele>
        <time>2014-10-01T07:58:11Z</time>
      </trkpt>
      <trkpt lat="42.3844210" lon="-6.4978850">
        <ele>1869.4</ele>
        <time>2014-10-01T07:58:12Z</time>
      </trkpt>
      <trkpt lat="42.3843480" lon="-6.4978250">
        <ele>1869.3</ele>
        <time>2014-10-01T07:58:13Z</time>
      </trkpt>
      <trkpt lat="42.3842740" lon="-6.4977590">
        <ele>1869.2</ele>
        <time>2014-10-01T07:58:14Z</time>
      </trkpt>
      <trkpt lat="42.3842040" lon="-6.4976910">
        <ele>1869.1</ele>
        <time>2014-10-01T07:58:15Z</time>
      </trkpt>
      <trkpt lat="42.3841340" lon="-6.4976210">
        <ele>1869.0</ele>
        <time>2014-10-01T07:58:16Z</time>
      </trkpt>
      <trkpt lat="42.3840650" lon="-6.4975500">
        <ele>1868.9</ele>
        <time>2014-10-01T07:58:17Z</time>
      </trkpt>
      <trkpt lat="42.3839940" lon="-6.4974770">
        <ele>1868.9</ele>
        <time>2014-10-01T07:58:18Z</time>
      </trkpt>
      <trkpt lat="42.3839250" lon="-6.4974050">
        <ele>1868.8</ele>
        <time>2014-10-01T07:58:19Z</time>
      </trkpt>
      <trkpt lat="42.3838580" lon="-6.4973320">
        <ele>1868.7</ele>
        <time>2014-10-01T07:58:20Z</time>
      </trkpt>
      <trkpt lat="42.3837910" lon="-6.4972580">
        <ele>1868.6</ele>
        <time>2014-10-01T07:58:21Z</time>
      </trkpt>
      <trkpt lat="42.3837280" lon="-6.4971900">
        <ele>1868.5</ele>
        <time>2014-10-01T07:58:22Z</time>
      </trkpt>
      <trkpt lat="42.3836630" lon="-6.4971180">
        <ele>1868.4</ele>
        <time>2014-10-01T07:58:23Z</time>
      </trkpt>
      <trkpt lat="42.3835970" lon="-6.4970470">
        <ele>1868.4</ele>
        <time>2014-10-01T07:58:24Z</time>
      </trkpt>
      <trkpt lat="42.3835300" lon="-6.4969730">
        <ele>1868.5</ele>
        <time>2014-10-01T07:58:25Z</time>
      </trkpt>
      <trkpt lat="42.3834610" lon="-6.4969010">
        <ele>1868.5</ele>
        <time>2014-10-01T07:58:26Z</time>
      </trkpt>
      <trkpt lat="42.3833960" lon="-6.4968330">
        <ele>1868.6</ele>
        <time>2014-10-01T07:58:27Z</time>
      </trkpt>
      <trkpt lat="42.3833310" lon="-6.4967660">
        <ele>1868.6</ele>
        <time>2014-10-01T07:58:28Z</time>
      </trkpt>
      <trkpt lat="42.3832660" lon="-6.4966990">
        <ele>1868.7</ele>
        <time>2014-10-01T07:58:29Z</time>
      </trkpt>
      <trkpt lat="42.3832030" lon="-6.4966300">
        <ele>1868.7</ele>
        <time>2014-10-01T07:58:30Z</time>
      </trkpt>
      <trkpt lat="42.3831440" lon="-6.4965640">
        <ele>1868.8</ele>
        <time>2014-10-01T07:58:31Z</time>
      </trkpt>
      <trkpt lat="42.3830880" lon="-6.4965020">
        <ele>1868.8</ele>
        <time>2014-10-01T07:58:32Z</time>
      </trkpt>
      <trkpt lat="42.3830300" lon="-6.4964380">
        <ele>1868.9</ele>
        <time>2014-10-01T07:58:33Z</time>
      </trkpt>
      <trkpt lat="42.3829700" lon="-6.4963710">
        <ele>1869.0</ele>
        <time>2014-10-01T07:58:34Z</time>
      </trkpt>
      <trkpt lat="42.3829070" lon="-6.4963020">
        <ele>1869.0</ele>
        <time>2014-10-01T07:58:35Z</time>
      </trkpt>
      <trkpt lat="42.3828450" lon="-6.4962320">
        <ele>1869.0</ele>
        <time>2014-10-01T07:58:36Z</time>
      </trkpt>
      <trkpt lat="42.3827870" lon="-6.4961620">
        <ele>1869.0</ele>
        <time>2014-10-01T07:58:37Z</time>
      </trkpt>
      <trkpt lat="42.3827250" lon="-6.4960860">
        <ele>1869.0</ele>
        <time>2014-10-01T07:58:38Z</time>
      </trkpt>
      <trkpt lat="42.3826670" lon="-6.4960100">
        <ele>1869.1</ele>
        <time>2014-10-01T07:58:39Z</time>
      </trkpt>
      <trkpt lat="42.3826100" lon="-6.4959320">
        <ele>1869.1</ele>
        <time>2014-10-01T07:58:40Z</time>
      </trkpt>
      <trkpt lat="42.3825570" lon="-6.4958540">
        <ele>1869.2</ele>
        <time>2014-10-01T07:58:41Z</time>
      </trkpt>
      <trkpt lat="42.3825090" lon="-6.4957770">
        <ele>1869.3</ele>
        <time>2014-10-01T07:58:42Z</time>
      </trkpt>
      <trkpt lat="42.3824650" lon="-6.4956990">
        <ele>1869.5</ele>
        <time>2014-10-01T07:58:43Z</time>
      </trkpt>
      <trkpt lat="42.3824240" lon="-6.4956180">
        <ele>1869.7</ele>
        <time>2014-10-01T07:58:44Z</time>
      </trkpt>
      <trkpt lat="42.3823840" lon="-6.4955320">
        <ele>1869.9</ele>
        <time>2014-10-01T07:58:45Z</time>
      </trkpt>
      <trkpt lat="42.3823390" lon="-6.4954350">
        <ele>1870.3</ele>
        <time>2014-10-01T07:58:46Z</time>
      </trkpt>
      <trkpt lat="42.3823020" lon="-6.4953500">
        <ele>1870.5</ele>
        <time>2014-10-01T07:58:47Z</time>
      </trkpt>
      <trkpt lat="42.3822650" lon="-6.4952690">
        <ele>1870.8</ele>
        <time>2014-10-01T07:58:48Z</time>
      </trkpt>
      <trkpt lat="42.3822270" lon="-6.4951890">
        <ele>1871.1</ele>
        <time>2014-10-01T07:58:49Z</time>
      </trkpt>
      <trkpt lat="42.3821870" lon="-6.4951100">
        <ele>1871.4</ele>
        <time>2014-10-01T07:58:50Z</time>
      </trkpt>
      <trkpt lat="42.3821490" lon="-6.4950310">
        <ele>1871.7</ele>
        <time>2014-10-01T07:58:51Z</time>
      </trkpt>
      <trkpt lat="42.3821140" lon="-6.4949620">
        <ele>1872.1</ele>
        <time>2014-10-01T07:58:52Z</time>
      </trkpt>
      <trkpt lat="42.3820760" lon="-6.4948960">
        <ele>1872.4</ele>
        <time>2014-10-01T07:58:53Z</time>
      </trkpt>
      <trkpt lat="42.3820350" lon="-6.4948330">
        <ele>1872.7</ele>
        <time>2014-10-01T07:58:54Z</time>
      </trkpt>
      <trkpt lat="42.3819930" lon="-6.4947760">
        <ele>1873.0</ele>
        <time>2014-10-01T07:58:55Z</time>
      </trkpt>
      <trkpt lat="42.3819450" lon="-6.4947210">
        <ele>1873.4</ele>
        <time>2014-10-01T07:58:56Z</time>
      </trkpt>
      <trkpt lat="42.3819000" lon="-6.4946750">
        <ele>1873.7</ele>
        <time>2014-10-01T07:58:57Z</time>
      </trkpt>
      <trkpt lat="42.3818500" lon="-6.4946330">
        <ele>1874.0</ele>
        <time>2014-10-01T07:58:58Z</time>
      </trkpt>
      <trkpt lat="42.3817940" lon="-6.4946070">
        <ele>1874.3</ele>
        <time>2014-10-01T07:58:59Z</time>
      </trkpt>
      <trkpt lat="42.3817340" lon="-6.4945810">
        <ele>1874.5</ele>
        <time>2014-10-01T07:59:00Z</time>
      </trkpt>
      <trkpt lat="42.3816730" lon="-6.4945580">
        <ele>1874.8</ele>
        <time>2014-10-01T07:59:01Z</time>
      </trkpt>
      <trkpt lat="42.3816100" lon="-6.4945380">
        <ele>1875.0</ele>
        <time>2014-10-01T07:59:02Z</time>
      </trkpt>
      <trkpt lat="42.3815490" lon="-6.4945260">
        <ele>1875.2</ele>
        <time>2014-10-01T07:59:03Z</time>
      </trkpt>
      <trkpt lat="42.3814920" lon="-6.4945400">
        <ele>1875.5</ele>
        <time>2014-10-01T07:59:04Z</time>
      </trkpt>
      <trkpt lat="42.3814380" lon="-6.4945710">
        <ele>1875.7</ele>
        <time>2014-10-01T07:59:05Z</time>
      </trkpt>
      <trkpt lat="42.3813880" lon="-6.4946050">
        <ele>1876.0</ele>
        <time>2014-10-01T07:59:06Z</time>
      </trkpt>
      <trkpt lat="42.3813440" lon="-6.4946530">
        <ele>1876.2</ele>
        <time>2014-10-01T07:59:07Z</time>
      </trkpt>
      <trkpt lat="42.3812990" lon="-6.4947040">
        <ele>1876.5</ele>
        <time>2014-10-01T07:59:08Z</time>
      </trkpt>
      <trkpt lat="42.3812570" lon="-6.4947540">
        <ele>1876.8</ele>
        <time>2014-10-01T07:59:09Z</time>
      </trkpt>
      <trkpt lat="42.3812180" lon="-6.4948070">
        <ele>1877.1</ele>
        <time>2014-10-01T07:59:10Z</time>
      </trkpt>
      <trkpt lat="42.3811890" lon="-6.4948680">
        <ele>1877.2</ele>
        <time>2014-10-01T07:59:11Z</time>
      </trkpt>
      <trkpt lat="42.3811570" lon="-6.4949330">
        <ele>1877.4</ele>
        <time>2014-10-01T07:59:12Z</time>
      </trkpt>
      <trkpt lat="42.3811280" lon="-6.4949960">
        <ele>1877.5</ele>
        <time>2014-10-01T07:59:13Z</time>
      </trkpt>
      <trkpt lat="42.3810990" lon="-6.4950570">
        <ele>1877.7</ele>
        <time>2014-10-01T07:59:14Z</time>
      </trkpt>
      <trkpt lat="42.3810710" lon="-6.4951180">
        <ele>1877.8</ele>
        <time>2014-10-01T07:59:15Z</time>
      </trkpt>
      <trkpt lat="42.3810430" lon="-6.4951730">
        <ele>1878.0</ele>
        <time>2014-10-01T07:59:16Z</time>
      </trkpt>
      <trkpt lat="42.3810160" lon="-6.4952280">
        <ele>1878.1</ele>
        <time>2014-10-01T07:59:17Z</time>
      </trkpt>
      <trkpt lat="42.3809870" lon="-6.4952750">
        <ele>1878.3</ele>
        <time>2014-10-01T07:59:18Z</time>
      </trkpt>
      <trkpt lat="42.3809470" lon="-6.4953140">
        <ele>1878.4</ele>
        <time>2014-10-01T07:59:19Z</time>
      </trkpt>
      <trkpt lat="42.3808960" lon="-6.4953420">
        <ele>1878.6</ele>
        <time>2014-10-01T07:59:20Z</time>
      </trkpt>
      <trkpt lat="42.3808430" lon="-6.4953530">
        <ele>1878.7</ele>
        <time>2014-10-01T07:59:21Z</time>
      </trkpt>
      <trkpt lat="42.3807970" lon="-6.4953570">
        <ele>1878.8</ele>
        <time>2014-10-01T07:59:22Z</time>
      </trkpt>
      <trkpt lat="42.3807550" lon="-6.4953390">
        <ele>1878.9</ele>
        <time>2014-10-01T07:59:23Z</time>
      </trkpt>
      <trkpt lat="42.3807070" lon="-6.4953170">
        <ele>1878.9</ele>
        <time>2014-10-01T07:59:24Z</time>
      </trkpt>
      <trkpt lat="42.3806570" lon="-6.4952910">
        <ele>1879.0</ele>
        <time>2014-10-01T07:59:25Z</time>
      </trkpt>
      <trkpt lat="42.3806090" lon="-6.4952630">
        <ele>1879.0</ele>
        <time>2014-10-01T07:59:26Z</time>
      </trkpt>
      <trkpt lat="42.3805610" lon="-6.4952320">
        <ele>1879.1</ele>
        <time>2014-10-01T07:59:27Z</time>
      </trkpt>
      <trkpt lat="42.3805100" lon="-6.4951980">
        <ele>1879.1</ele>
        <time>2014-10-01T07:59:28Z</time>
      </trkpt>
      <trkpt lat="42.3804570" lon="-6.4951650">
        <ele>1879.2</ele>
        <time>2014-10-01T07:59:29Z</time>
      </trkpt>
      <trkpt lat="42.3804050" lon="-6.4951310">
        <ele>1879.3</ele>
        <time>2014-10-01T07:59:30Z</time>
      </trkpt>
      <trkpt lat="42.3803490" lon="-6.4950940">
        <ele>1879.3</ele>
        <time>2014-10-01T07:59:31Z</time>
      </trkpt>
      <trkpt lat="42.3802960" lon="-6.4950560">
        <ele>1879.4</ele>
        <time>2014-10-01T07:59:32Z</time>
      </trkpt>
      <trkpt lat="42.3802420" lon="-6.4950190">
        <ele>1879.5</ele>
        <time>2014-10-01T07:59:33Z</time>
      </trkpt>
      <trkpt lat="42.3801910" lon="-6.4949850">
        <ele>1879.5</ele>
        <time>2014-10-01T07:59:34Z</time>
      </trkpt>
      <trkpt lat="42.3801390" lon="-6.4949500">
        <ele>1879.6</ele>
        <time>2014-10-01T07:59:35Z</time>
      </trkpt>
      <trkpt lat="42.3800860" lon="-6.4949150">
        <ele>1879.6</ele>
        <time>2014-10-01T07:59:36Z</time>
      </trkpt>
      <trkpt lat="42.3800310" lon="-6.4948780">
        <ele>1879.6</ele>
        <time>2014-10-01T07:59:37Z</time>
      </trkpt>
      <trkpt lat="42.3799780" lon="-6.4948400">
        <ele>1879.7</ele>
        <time>2014-10-01T07:59:38Z</time>
      </trkpt>
      <trkpt lat="42.3799230" lon="-6.4948010">
        <ele>1879.7</ele>
        <time>2014-10-01T07:59:39Z</time>
      </trkpt>
      <trkpt lat="42.3798690" lon="-6.4947670">
        <ele>1879.8</ele>
        <time>2014-10-01T07:59:40Z</time>
      </trkpt>
      <trkpt lat="42.3798130" lon="-6.4947360">
        <ele>1879.9</ele>
        <time>2014-10-01T07:59:41Z</time>
      </trkpt>
      <trkpt lat="42.3797550" lon="-6.4947080">
        <ele>1880.0</ele>
        <time>2014-10-01T07:59:42Z</time>
      </trkpt>
      <trkpt lat="42.3796970" lon="-6.4946850">
        <ele>1880.1</ele>
        <time>2014-10-01T07:59:43Z</time>
      </trkpt>
      <trkpt lat="42.3796350" lon="-6.4946780">
        <ele>1880.3</ele>
        <time>2014-10-01T07:59:44Z</time>
      </trkpt>
      <trkpt lat="42.3795770" lon="-6.4946870">
        <ele>1880.4</ele>
        <time>2014-10-01T07:59:45Z</time>
      </trkpt>
      <trkpt lat="42.3795290" lon="-6.4947160">
        <ele>1880.5</ele>
        <time>2014-10-01T07:59:46Z</time>
      </trkpt>
      <trkpt lat="42.3794860" lon="-6.4947590">
        <ele>1880.6</ele>
        <time>2014-10-01T07:59:47Z</time>
      </trkpt>
      <trkpt lat="42.3794400" lon="-6.4948110">
        <ele>1880.6</ele>
        <time>2014-10-01T07:59:48Z</time>
      </trkpt>
      <trkpt lat="42.3793980" lon="-6.4948660">
        <ele>1880.7</ele>
        <time>2014-10-01T07:59:49Z</time>
      </trkpt>
      <trkpt lat="42.3793570" lon="-6.4949260">
        <ele>1880.8</ele>
        <time>2014-10-01T07:59:50Z</time>
      </trkpt>
      <trkpt lat="42.3793220" lon="-6.4949850">
        <ele>1880.9</ele>
        <time>2014-10-01T07:59:51Z</time>
      </trkpt>
      <trkpt lat="42.3792910" lon="-6.4950430">
        <ele>1881.0</ele>
        <time>2014-10-01T07:59:52Z</time>
      </trkpt>
      <trkpt lat="42.3792640" lon="-6.4950950">
        <ele>1881.2</ele>
        <time>2014-10-01T07:59:53Z</time>
      </trkpt>
      <trkpt lat="42.3791830" lon="-6.4951420">
        <ele>1881.5</ele>
        <time>2014-10-01T07:59:55Z</time>
      </trkpt>
      <trkpt lat="42.3791350" lon="-6.4951760">
        <ele>1881.8</ele>
        <time>2014-10-01T07:59:56Z</time>
      </trkpt>
      <trkpt lat="42.3790920" lon="-6.4952020">
        <ele>1881.9</ele>
        <time>2014-10-01T07:59:57Z</time>
      </trkpt>
      <trkpt lat="42.3790510" lon="-6.4952160">
        <ele>1882.1</ele>
        <time>2014-10-01T07:59:58Z</time>
      </trkpt>
      <trkpt lat="42.3790020" lon="-6.4952310">
        <ele>1882.3</ele>
        <time>2014-10-01T07:59:59Z</time>
      </trkpt>
      <trkpt lat="42.3789530" lon="-6.4952260">
        <ele>1882.5</ele>
        <time>2014-10-01T08:00:00Z</time>
      </trkpt>
      <trkpt lat="42.3789090" lon="-6.4952170">
        <ele>1882.6</ele>
        <time>2014-10-01T08:00:01Z</time>
      </trkpt>
      <trkpt lat="42.3788640" lon="-6.4952060">
        <ele>1882.7</ele>
        <time>2014-10-01T08:00:02Z</time>
      </trkpt>
      <trkpt lat="42.3788290" lon="-6.4951870">
        <ele>1882.8</ele>
        <time>2014-10-01T08:00:03Z</time>
      </trkpt>
      <trkpt lat="42.3787900" lon="-6.4951630">
        <ele>1882.9</ele>
        <time>2014-10-01T08:00:04Z</time>
      </trkpt>
      <trkpt lat="42.3787470" lon="-6.4951360">
        <ele>1883.0</ele>
        <time>2014-10-01T08:00:05Z</time>
      </trkpt>
      <trkpt lat="42.3787020" lon="-6.4951040">
        <ele>1883.1</ele>
        <time>2014-10-01T08:00:06Z</time>
      </trkpt>
      <trkpt lat="42.3786630" lon="-6.4950700">
        <ele>1883.1</ele>
        <time>2014-10-01T08:00:07Z</time>
      </trkpt>
      <trkpt lat="42.3786280" lon="-6.4950350">
        <ele>1883.1</ele>
        <time>2014-10-01T08:00:08Z</time>
      </trkpt>
      <trkpt lat="42.3785890" lon="-6.4950000">
        <ele>1883.1</ele>
        <time>2014-10-01T08:00:09Z</time>
      </trkpt>
      <trkpt lat="42.3785420" lon="-6.4949650">
        <ele>1883.0</ele>
        <time>2014-10-01T08:00:10Z</time>
      </trkpt>
      <trkpt lat="42.3784960" lon="-6.4949330">
        <ele>1883.0</ele>
        <time>2014-10-01T08:00:11Z</time>
      </trkpt>
      <trkpt lat="42.3784380" lon="-6.4948940">
        <ele>1883.0</ele>
        <time>2014-10-01T08:00:12Z</time>
      </trkpt>
      <trkpt lat="42.3783820" lon="-6.4948570">
        <ele>1882.9</ele>
        <time>2014-10-01T08:00:13Z</time>
      </trkpt>
      <trkpt lat="42.3783290" lon="-6.4948260">
        <ele>1882.9</ele>
        <time>2014-10-01T08:00:14Z</time>
      </trkpt>
      <trkpt lat="42.3782790" lon="-6.4947960">
        <ele>1882.9</ele>
        <time>2014-10-01T08:00:15Z</time>
      </trkpt>
      <trkpt lat="42.3782360" lon="-6.4947700">
        <ele>1882.9</ele>
        <time>2014-10-01T08:00:16Z</time>
      </trkpt>
      <trkpt lat="42.3781870" lon="-6.4947400">
        <ele>1883.0</ele>
        <time>2014-10-01T08:00:17Z</time>
      </trkpt>
      <trkpt lat="42.3781390" lon="-6.4947120">
        <ele>1883.0</ele>
        <time>2014-10-01T08:00:18Z</time>
      </trkpt>
      <trkpt lat="42.3780900" lon="-6.4946880">
        <ele>1883.0</ele>
        <time>2014-10-01T08:00:19Z</time>
      </trkpt>
      <trkpt lat="42.3780370" lon="-6.4946610">
        <ele>1883.1</ele>
        <time>2014-10-01T08:00:20Z</time>
      </trkpt>
      <trkpt lat="42.3779820" lon="-6.4946310">
        <ele>1883.1</ele>
        <time>2014-10-01T08:00:21Z</time>
      </trkpt>
      <trkpt lat="42.3779270" lon="-6.4946020">
        <ele>1883.1</ele>
        <time>2014-10-01T08:00:22Z</time>
      </trkpt>
      <trkpt lat="42.3778700" lon="-6.4945620">
        <ele>1883.2</ele>
        <time>2014-10-01T08:00:23Z</time>
      </trkpt>
      <trkpt lat="42.3778140" lon="-6.4945200">
        <ele>1883.2</ele>
        <time>2014-10-01T08:00:24Z</time>
      </trkpt>
      <trkpt lat="42.3777630" lon="-6.4944820">
        <ele>1883.3</ele>
        <time>2014-10-01T08:00:25Z</time>
      </trkpt>
      <trkpt lat="42.3777120" lon="-6.4944410">
        <ele>1883.3</ele>
        <time>2014-10-01T08:00:26Z</time>
      </trkpt>
      <trkpt lat="42.3776650" lon="-6.4944020">
        <ele>1883.4</ele>
        <time>2014-10-01T08:00:27Z</time>
      </trkpt>
      <trkpt lat="42.3776210" lon="-6.4943620">
        <ele>1883.4</ele>
        <time>2014-10-01T08:00:28Z</time>
      </trkpt>
      <trkpt lat="42.3775830" lon="-6.4943220">
        <ele>1883.5</ele>
        <time>2014-10-01T08:00:29Z</time>
      </trkpt>
      <trkpt lat="42.3775410" lon="-6.4942800">
        <ele>1883.5</ele>
        <time>2014-10-01T08:00:30Z</time>
      </trkpt>
      <trkpt lat="42.3774960" lon="-6.4942310">
        <ele>1883.5</ele>
        <time>2014-10-01T08:00:31Z</time>
      </trkpt>
      <trkpt lat="42.3774520" lon="-6.4941870">
        <ele>1883.4</ele>
        <time>2014-10-01T08:00:32Z</time>
      </trkpt>
      <trkpt lat="42.3773990" lon="-6.4941310">
        <ele>1883.4</ele>
        <time>2014-10-01T08:00:33Z</time>
      </trkpt>
      <trkpt lat="42.3773470" lon="-6.4940790">
        <ele>1883.4</ele>
        <time>2014-10-01T08:00:34Z</time>
      </trkpt>
      <trkpt lat="42.3772950" lon="-6.4940220">
        <ele>1883.3</ele>
        <time>2014-10-01T08:00:35Z</time>
      </trkpt>
      <trkpt lat="42.3772430" lon="-6.4939660">
        <ele>1883.2</ele>
        <time>2014-10-01T08:00:36Z</time>
      </trkpt>
      <trkpt lat="42.3771920" lon="-6.4939120">
        <ele>1883.1</ele>
        <time>2014-10-01T08:00:37Z</time>
      </trkpt>
      <trkpt lat="42.3771420" lon="-6.4938560">
        <ele>1883.1</ele>
        <time>2014-10-01T08:00:38Z</time>
      </trkpt>
      <trkpt lat="42.3770900" lon="-6.4937970">
        <ele>1883.1</ele>
        <time>2014-10-01T08:00:39Z</time>
      </trkpt>
      <trkpt lat="42.3770400" lon="-6.4937380">
        <ele>1883.0</ele>
        <time>2014-10-01T08:00:40Z</time>
      </trkpt>
      <trkpt lat="42.3769870" lon="-6.4936750">
        <ele>1882.9</ele>
        <time>2014-10-01T08:00:41Z</time>
      </trkpt>
      <trkpt lat="42.3769330" lon="-6.4936130">
        <ele>1882.8</ele>
        <time>2014-10-01T08:00:42Z</time>
      </trkpt>
      <trkpt lat="42.3768770" lon="-6.4935480">
        <ele>1882.6</ele>
        <time>2014-10-01T08:00:43Z</time>
      </trkpt>
      <trkpt lat="42.3768200" lon="-6.4934840">
        <ele>1882.5</ele>
        <time>2014-10-01T08:00:44Z</time>
      </trkpt>
      <trkpt lat="42.3767630" lon="-6.4934200">
        <ele>1882.4</ele>
        <time>2014-10-01T08:00:45Z</time>
      </trkpt>
      <trkpt lat="42.3767060" lon="-6.4933570">
        <ele>1882.3</ele>
        <time>2014-10-01T08:00:46Z</time>
      </trkpt>
      <trkpt lat="42.3766450" lon="-6.4932930">
        <ele>1882.1</ele>
        <time>2014-10-01T08:00:47Z</time>
      </trkpt>
      <trkpt lat="42.3765850" lon="-6.4932300">
        <ele>1882.0</ele>
        <time>2014-10-01T08:00:48Z</time>
      </trkpt>
      <trkpt lat="42.3765260" lon="-6.4931680">
        <ele>1881.9</ele>
        <time>2014-10-01T08:00:49Z</time>
      </trkpt>
      <trkpt lat="42.3764660" lon="-6.4931070">
        <ele>1881.7</ele>
        <time>2014-10-01T08:00:50Z</time>
      </trkpt>
      <trkpt lat="42.3764090" lon="-6.4930470">
        <ele>1881.6</ele>
        <time>2014-10-01T08:00:51Z</time>
      </trkpt>
      <trkpt lat="42.3763530" lon="-6.4929870">
        <ele>1881.4</ele>
        <time>2014-10-01T08:00:52Z</time>
      </trkpt>
      <trkpt lat="42.3762980" lon="-6.4929270">
        <ele>1881.3</ele>
        <time>2014-10-01T08:00:53Z</time>
      </trkpt>
      <trkpt lat="42.3762440" lon="-6.4928640">
        <ele>1881.1</ele>
        <time>2014-10-01T08:00:54Z</time>
      </trkpt>
      <trkpt lat="42.3761880" lon="-6.4927980">
        <ele>1881.0</ele>
        <time>2014-10-01T08:00:55Z</time>
      </trkpt>
      <trkpt lat="42.3761300" lon="-6.4927300">
        <ele>1880.8</ele>
        <time>2014-10-01T08:00:56Z</time>
      </trkpt>
      <trkpt lat="42.3760740" lon="-6.4926630">
        <ele>1880.7</ele>
        <time>2014-10-01T08:00:57Z</time>
      </trkpt>
      <trkpt lat="42.3760130" lon="-6.4925910">
        <ele>1880.5</ele>
        <time>2014-10-01T08:00:58Z</time>
      </trkpt>
      <trkpt lat="42.3759500" lon="-6.4925200">
        <ele>1880.4</ele>
        <time>2014-10-01T08:00:59Z</time>
      </trkpt>
      <trkpt lat="42.3758880" lon="-6.4924530">
        <ele>1880.2</ele>
        <time>2014-10-01T08:01:00Z</time>
      </trkpt>
      <trkpt lat="42.3758280" lon="-6.4923880">
        <ele>1880.1</ele>
        <time>2014-10-01T08:01:01Z</time>
      </trkpt>
      <trkpt lat="42.3757650" lon="-6.4923190">
        <ele>1880.0</ele>
        <time>2014-10-01T08:01:02Z</time>
      </trkpt>
      <trkpt lat="42.3757050" lon="-6.4922540">
        <ele>1879.9</ele>
        <time>2014-10-01T08:01:03Z</time>
      </trkpt>
      <trkpt lat="42.3756450" lon="-6.4921880">
        <ele>1879.8</ele>
        <time>2014-10-01T08:01:04Z</time>
      </trkpt>
      <trkpt lat="42.3755830" lon="-6.4921210">
        <ele>1879.7</ele>
        <time>2014-10-01T08:01:05Z</time>
      </trkpt>
      <trkpt lat="42.3755220" lon="-6.4920520">
        <ele>1879.6</ele>
        <time>2014-10-01T08:01:06Z</time>
      </trkpt>
      <trkpt lat="42.3754650" lon="-6.4919800">
        <ele>1879.5</ele>
        <time>2014-10-01T08:01:07Z</time>
      </trkpt>
      <trkpt lat="42.3754100" lon="-6.4919080">
        <ele>1879.4</ele>
        <time>2014-10-01T08:01:08Z</time>
      </trkpt>
      <trkpt lat="42.3753540" lon="-6.4918340">
        <ele>1879.4</ele>
        <time>2014-10-01T08:01:09Z</time>
      </trkpt>
      <trkpt lat="42.3752970" lon="-6.4917600">
        <ele>1879.3</ele>
        <time>2014-10-01T08:01:10Z</time>
      </trkpt>
      <trkpt lat="42.3752380" lon="-6.4916890">
        <ele>1879.3</ele>
        <time>2014-10-01T08:01:11Z</time>
      </trkpt>
      <trkpt lat="42.3751800" lon="-6.4916220">
        <ele>1879.2</ele>
        <time>2014-10-01T08:01:12Z</time>
      </trkpt>
      <trkpt lat="42.3751170" lon="-6.4915530">
        <ele>1879.1</ele>
        <time>2014-10-01T08:01:13Z</time>
      </trkpt>
      <trkpt lat="42.3750600" lon="-6.4914890">
        <ele>1879.0</ele>
        <time>2014-10-01T08:01:14Z</time>
      </trkpt>
      <trkpt lat="42.3750010" lon="-6.4914210">
        <ele>1878.8</ele>
        <time>2014-10-01T08:01:15Z</time>
      </trkpt>
      <trkpt lat="42.3749430" lon="-6.4913560">
        <ele>1878.7</ele>
        <time>2014-10-01T08:01:16Z</time>
      </trkpt>
      <trkpt lat="42.3748860" lon="-6.4912910">
        <ele>1878.5</ele>
        <time>2014-10-01T08:01:17Z</time>
      </trkpt>
      <trkpt lat="42.3748270" lon="-6.4912230">
        <ele>1878.4</ele>
        <time>2014-10-01T08:01:18Z</time>
      </trkpt>
      <trkpt lat="42.3747730" lon="-6.4911600">
        <ele>1878.3</ele>
        <time>2014-10-01T08:01:19Z</time>
      </trkpt>
      <trkpt lat="42.3747160" lon="-6.4910930">
        <ele>1878.2</ele>
        <time>2014-10-01T08:01:20Z</time>
      </trkpt>
      <trkpt lat="42.3746580" lon="-6.4910250">
        <ele>1878.1</ele>
        <time>2014-10-01T08:01:21Z</time>
      </trkpt>
      <trkpt lat="42.3746000" lon="-6.4909560">
        <ele>1878.0</ele>
        <time>2014-10-01T08:01:22Z</time>
      </trkpt>
      <trkpt lat="42.3745410" lon="-6.4908830">
        <ele>1877.8</ele>
        <time>2014-10-01T08:01:23Z</time>
      </trkpt>
      <trkpt lat="42.3744830" lon="-6.4908130">
        <ele>1877.7</ele>
        <time>2014-10-01T08:01:24Z</time>
      </trkpt>
      <trkpt lat="42.3744230" lon="-6.4907460">
        <ele>1877.6</ele>
        <time>2014-10-01T08:01:25Z</time>
      </trkpt>
      <trkpt lat="42.3743620" lon="-6.4906800">
        <ele>1877.5</ele>
        <time>2014-10-01T08:01:26Z</time>
      </trkpt>
      <trkpt lat="42.3742990" lon="-6.4906150">
        <ele>1877.3</ele>
        <time>2014-10-01T08:01:27Z</time>
      </trkpt>
      <trkpt lat="42.3742370" lon="-6.4905560">
        <ele>1877.2</ele>
        <time>2014-10-01T08:01:28Z</time>
      </trkpt>
      <trkpt lat="42.3741740" lon="-6.4904970">
        <ele>1877.1</ele>
        <time>2014-10-01T08:01:29Z</time>
      </trkpt>
      <trkpt lat="42.3741090" lon="-6.4904380">
        <ele>1876.9</ele>
        <time>2014-10-01T08:01:30Z</time>
      </trkpt>
      <trkpt lat="42.3740450" lon="-6.4903810">
        <ele>1876.5</ele>
        <time>2014-10-01T08:01:31Z</time>
      </trkpt>
      <trkpt lat="42.3739800" lon="-6.4903210">
        <ele>1875.8</ele>
        <time>2014-10-01T08:01:32Z</time>
      </trkpt>
      <trkpt lat="42.3739180" lon="-6.4902640">
        <ele>1875.8</ele>
        <time>2014-10-01T08:01:33Z</time>
      </trkpt>
      <trkpt lat="42.3738550" lon="-6.4902040">
        <ele>1876.0</ele>
        <time>2014-10-01T08:01:34Z</time>
      </trkpt>
      <trkpt lat="42.3737930" lon="-6.4901430">
        <ele>1876.0</ele>
        <time>2014-10-01T08:01:35Z</time>
      </trkpt>
      <trkpt lat="42.3737310" lon="-6.4900820">
        <ele>1875.8</ele>
        <time>2014-10-01T08:01:36Z</time>
      </trkpt>
      <trkpt lat="42.3736670" lon="-6.4900190">
        <ele>1875.6</ele>
        <time>2014-10-01T08:01:37Z</time>
      </trkpt>
      <trkpt lat="42.3736040" lon="-6.4899580">
        <ele>1875.4</ele>
        <time>2014-10-01T08:01:38Z</time>
      </trkpt>
      <trkpt lat="42.3735410" lon="-6.4899000">
        <ele>1875.2</ele>
        <time>2014-10-01T08:01:39Z</time>
      </trkpt>
      <trkpt lat="42.3734790" lon="-6.4898390">
        <ele>1875.1</ele>
        <time>2014-10-01T08:01:40Z</time>
      </trkpt>
      <trkpt lat="42.3734160" lon="-6.4897770">
        <ele>1874.9</ele>
        <time>2014-10-01T08:01:41Z</time>
      </trkpt>
      <trkpt lat="42.3733520" lon="-6.4897120">
        <ele>1874.6</ele>
        <time>2014-10-01T08:01:42Z</time>
      </trkpt>
      <trkpt lat="42.3732870" lon="-6.4896410">
        <ele>1874.4</ele>
        <time>2014-10-01T08:01:43Z</time>
      </trkpt>
      <trkpt lat="42.3732240" lon="-6.4895640">
        <ele>1874.1</ele>
        <time>2014-10-01T08:01:44Z</time>
      </trkpt>
      <trkpt lat="42.3731660" lon="-6.4894820">
        <ele>1873.8</ele>
        <time>2014-10-01T08:01:45Z</time>
      </trkpt>
      <trkpt lat="42.3731090" lon="-6.4893880">
        <ele>1873.5</ele>
        <time>2014-10-01T08:01:46Z</time>
      </trkpt>
      <trkpt lat="42.3730530" lon="-6.4892870">
        <ele>1873.1</ele>
        <time>2014-10-01T08:01:47Z</time>
      </trkpt>
      <trkpt lat="42.3730000" lon="-6.4891750">
        <ele>1872.6</ele>
        <time>2014-10-01T08:01:48Z</time>
      </trkpt>
      <trkpt lat="42.3729570" lon="-6.4890620">
        <ele>1872.2</ele>
        <time>2014-10-01T08:01:49Z</time>
      </trkpt>
      <trkpt lat="42.3729180" lon="-6.4889400">
        <ele>1871.7</ele>
        <time>2014-10-01T08:01:50Z</time>
      </trkpt>
      <trkpt lat="42.3728840" lon="-6.4888130">
        <ele>1871.3</ele>
        <time>2014-10-01T08:01:51Z</time>
      </trkpt>
      <trkpt lat="42.3728480" lon="-6.4886690">
        <ele>1871.1</ele>
        <time>2014-10-01T08:01:52Z</time>
      </trkpt>
      <trkpt lat="42.3728190" lon="-6.4885300">
        <ele>1870.7</ele>
        <time>2014-10-01T08:01:53Z</time>
      </trkpt>
      <trkpt lat="42.3727960" lon="-6.4883900">
        <ele>1870.2</ele>
        <time>2014-10-01T08:01:54Z</time>
      </trkpt>
      <trkpt lat="42.3727760" lon="-6.4882520">
        <ele>1869.7</ele>
        <time>2014-10-01T08:01:55Z</time>
      </trkpt>
      <trkpt lat="42.3727560" lon="-6.4881030">
        <ele>1869.1</ele>
        <time>2014-10-01T08:01:56Z</time>
      </trkpt>
      <trkpt lat="42.3727370" lon="-6.4879430">
        <ele>1868.5</ele>
        <time>2014-10-01T08:01:57Z</time>
      </trkpt>
      <trkpt lat="42.3727240" lon="-6.4877780">
        <ele>1868.0</ele>
        <time>2014-10-01T08:01:58Z</time>
      </trkpt>
      <trkpt lat="42.3727170" lon="-6.4876110">
        <ele>1867.5</ele>
        <time>2014-10-01T08:01:59Z</time>
      </trkpt>
      <trkpt lat="42.3727180" lon="-6.4874440">
        <ele>1866.9</ele>
        <time>2014-10-01T08:02:00Z</time>
      </trkpt>
      <trkpt lat="42.3727240" lon="-6.4872750">
        <ele>1866.3</ele>
        <time>2014-10-01T08:02:01Z</time>
      </trkpt>
      <trkpt lat="42.3727360" lon="-6.4871070">
        <ele>1865.8</ele>
        <time>2014-10-01T08:02:02Z</time>
      </trkpt>
      <trkpt lat="42.3727520" lon="-6.4869360">
        <ele>1865.2</ele>
        <time>2014-10-01T08:02:03Z</time>
      </trkpt>
      <trkpt lat="42.3727690" lon="-6.4867700">
        <ele>1864.6</ele>
        <time>2014-10-01T08:02:04Z</time>
      </trkpt>
      <trkpt lat="42.3727870" lon="-6.4866020">
        <ele>1864.0</ele>
        <time>2014-10-01T08:02:05Z</time>
      </trkpt>
      <trkpt lat="42.3728080" lon="-6.4864340">
        <ele>1863.5</ele>
        <time>2014-10-01T08:02:06Z</time>
      </trkpt>
      <trkpt lat="42.3728280" lon="-6.4862660">
        <ele>1863.0</ele>
        <time>2014-10-01T08:02:07Z</time>
      </trkpt>
      <trkpt lat="42.3728510" lon="-6.4861010">
        <ele>1862.7</ele>
        <time>2014-10-01T08:02:08Z</time>
      </trkpt>
      <trkpt lat="42.3728720" lon="-6.4859360">
        <ele>1862.3</ele>
        <time>2014-10-01T08:02:09Z</time>
      </trkpt>
      <trkpt lat="42.3728930" lon="-6.4857720">
        <ele>1862.1</ele>
        <time>2014-10-01T08:02:10Z</time>
      </trkpt>
      <trkpt lat="42.3729130" lon="-6.4856090">
        <ele>1861.9</ele>
        <time>2014-10-01T08:02:11Z</time>
      </trkpt>
      <trkpt lat="42.3729360" lon="-6.4854460">
        <ele>1861.7</ele>
        <time>2014-10-01T08:02:12Z</time>
      </trkpt>
      <trkpt lat="42.3729660" lon="-6.4852900">
        <ele>1861.4</ele>
        <time>2014-10-01T08:02:13Z</time>
      </trkpt>
      <trkpt lat="42.3730270" lon="-6.4851510">
        <ele>1861.1</ele>
        <time>2014-10-01T08:02:14Z</time>
      </trkpt>
      <trkpt lat="42.3730940" lon="-6.4850150">
        <ele>1860.9</ele>
        <time>2014-10-01T08:02:15Z</time>
      </trkpt>
      <trkpt lat="42.3731780" lon="-6.4849090">
        <ele>1860.5</ele>
        <time>2014-10-01T08:02:16Z</time>
      </trkpt>
      <trkpt lat="42.3732600" lon="-6.4848130">
        <ele>1860.0</ele>
        <time>2014-10-01T08:02:17Z</time>
      </trkpt>
      <trkpt lat="42.3733490" lon="-6.4847200">
        <ele>1859.3</ele>
        <time>2014-10-01T08:02:18Z</time>
      </trkpt>
      <trkpt lat="42.3734430" lon="-6.4846340">
        <ele>1858.5</ele>
        <time>2014-10-01T08:02:19Z</time>
      </trkpt>
      <trkpt lat="42.3735430" lon="-6.4845550">
        <ele>1857.6</ele>
        <time>2014-10-01T08:02:20Z</time>
      </trkpt>
      <trkpt lat="42.3736440" lon="-6.4844820">
        <ele>1856.7</ele>
        <time>2014-10-01T08:02:21Z</time>
      </trkpt>
      <trkpt lat="42.3737530" lon="-6.4843980">
        <ele>1855.8</ele>
        <time>2014-10-01T08:02:22Z</time>
      </trkpt>
      <trkpt lat="42.3738410" lon="-6.4842790">
        <ele>1854.9</ele>
        <time>2014-10-01T08:02:23Z</time>
      </trkpt>
      <trkpt lat="42.3739210" lon="-6.4841500">
        <ele>1854.0</ele>
        <time>2014-10-01T08:02:24Z</time>
      </trkpt>
      <trkpt lat="42.3739520" lon="-6.4839990">
        <ele>1853.4</ele>
        <time>2014-10-01T08:02:25Z</time>
      </trkpt>
      <trkpt lat="42.3739600" lon="-6.4838310">
        <ele>1853.0</ele>
        <time>2014-10-01T08:02:26Z</time>
      </trkpt>
      <trkpt lat="42.3739670" lon="-6.4836670">
        <ele>1852.8</ele>
        <time>2014-10-01T08:02:27Z</time>
      </trkpt>
      <trkpt lat="42.3739700" lon="-6.4835040">
        <ele>1852.8</ele>
        <time>2014-10-01T08:02:28Z</time>
      </trkpt>
      <trkpt lat="42.3739690" lon="-6.4833390">
        <ele>1852.7</ele>
        <time>2014-10-01T08:02:29Z</time>
      </trkpt>
      <trkpt lat="42.3739660" lon="-6.4831760">
        <ele>1852.7</ele>
        <time>2014-10-01T08:02:30Z</time>
      </trkpt>
      <trkpt lat="42.3739620" lon="-6.4830130">
        <ele>1852.9</ele>
        <time>2014-10-01T08:02:31Z</time>
      </trkpt>
      <trkpt lat="42.3739580" lon="-6.4828560">
        <ele>1853.2</ele>
        <time>2014-10-01T08:02:32Z</time>
      </trkpt>
      <trkpt lat="42.3739510" lon="-6.4827100">
        <ele>1853.5</ele>
        <time>2014-10-01T08:02:33Z</time>
      </trkpt>
      <trkpt lat="42.3739440" lon="-6.4825600">
        <ele>1854.1</ele>
        <time>2014-10-01T08:02:34Z</time>
      </trkpt>
      <trkpt lat="42.3739340" lon="-6.4824140">
        <ele>1854.7</ele>
        <time>2014-10-01T08:02:35Z</time>
      </trkpt>
      <trkpt lat="42.3739250" lon="-6.4822780">
        <ele>1855.3</ele>
        <time>2014-10-01T08:02:36Z</time>
      </trkpt>
      <trkpt lat="42.3739120" lon="-6.4821420">
        <ele>1856.0</ele>
        <time>2014-10-01T08:02:37Z</time>
      </trkpt>
      <trkpt lat="42.3738980" lon="-6.4820110">
        <ele>1856.6</ele>
        <time>2014-10-01T08:02:38Z</time>
      </trkpt>
      <trkpt lat="42.3738840" lon="-6.4818900">
        <ele>1857.1</ele>
        <time>2014-10-01T08:02:39Z</time>
      </trkpt>
      <trkpt lat="42.3738680" lon="-6.4817770">
        <ele>1857.6</ele>
        <time>2014-10-01T08:02:40Z</time>
      </trkpt>
      <trkpt lat="42.3738530" lon="-6.4816660">
        <ele>1858.2</ele>
        <time>2014-10-01T08:02:41Z</time>
      </trkpt>
      <trkpt lat="42.3738390" lon="-6.4815590">
        <ele>1858.8</ele>
        <time>2014-10-01T08:02:42Z</time>
      </trkpt>
      <trkpt lat="42.3738270" lon="-6.4814590">
        <ele>1859.4</ele>
        <time>2014-10-01T08:02:43Z</time>
      </trkpt>
      <trkpt lat="42.3738160" lon="-6.4813630">
        <ele>1860.1</ele>
        <time>2014-10-01T08:02:44Z</time>
      </trkpt>
      <trkpt lat="42.3738050" lon="-6.4812740">
        <ele>1860.7</ele>
        <time>2014-10-01T08:02:45Z</time>
      </trkpt>
      <trkpt lat="42.3737940" lon="-6.4811870">
        <ele>1861.3</ele>
        <time>2014-10-01T08:02:46Z</time>
      </trkpt>
      <trkpt lat="42.3737820" lon="-6.4811060">
        <ele>1861.9</ele>
        <time>2014-10-01T08:02:47Z</time>
      </trkpt>
      <trkpt lat="42.3737720" lon="-6.4810310">
        <ele>1862.4</ele>
        <time>2014-10-01T08:02:48Z</time>
      </trkpt>
      <trkpt lat="42.3737600" lon="-6.4809580">
        <ele>1862.9</ele>
        <time>2014-10-01T08:02:49Z</time>
      </trkpt>
      <trkpt lat="42.3737520" lon="-6.4809010">
        <ele>1863.3</ele>
        <time>2014-10-01T08:02:50Z</time>
      </trkpt>
      <trkpt lat="42.3737440" lon="-6.4808410">
        <ele>1863.8</ele>
        <time>2014-10-01T08:02:51Z</time>
      </trkpt>
      <trkpt lat="42.3737360" lon="-6.4807850">
        <ele>1864.1</ele>
        <time>2014-10-01T08:02:52Z</time>
      </trkpt>
      <trkpt lat="42.3737290" lon="-6.4807300">
        <ele>1864.5</ele>
        <time>2014-10-01T08:02:53Z</time>
      </trkpt>
      <trkpt lat="42.3737230" lon="-6.4806820">
        <ele>1864.8</ele>
        <time>2014-10-01T08:02:54Z</time>
      </trkpt>
      <trkpt lat="42.3737180" lon="-6.4806300">
        <ele>1865.1</ele>
        <time>2014-10-01T08:02:55Z</time>
      </trkpt>
      <trkpt lat="42.3737140" lon="-6.4805800">
        <ele>1865.4</ele>
        <time>2014-10-01T08:02:56Z</time>
      </trkpt>
      <trkpt lat="42.3737100" lon="-6.4805290">
        <ele>1865.7</ele>
        <time>2014-10-01T08:02:57Z</time>
      </trkpt>
      <trkpt lat="42.3737050" lon="-6.4804700">
        <ele>1866.1</ele>
        <time>2014-10-01T08:02:58Z</time>
      </trkpt>
      <trkpt lat="42.3736980" lon="-6.4804080">
        <ele>1866.4</ele>
        <time>2014-10-01T08:02:59Z</time>
      </trkpt>
      <trkpt lat="42.3736930" lon="-6.4803500">
        <ele>1866.8</ele>
        <time>2014-10-01T08:03:00Z</time>
      </trkpt>
      <trkpt lat="42.3736840" lon="-6.4802870">
        <ele>1867.1</ele>
        <time>2014-10-01T08:03:01Z</time>
      </trkpt>
      <trkpt lat="42.3736750" lon="-6.4802210">
        <ele>1867.5</ele>
        <time>2014-10-01T08:03:02Z</time>
      </trkpt>
      <trkpt lat="42.3736650" lon="-6.4801570">
        <ele>1867.9</ele>
        <time>2014-10-01T08:03:03Z</time>
      </trkpt>
      <trkpt lat="42.3736570" lon="-6.4800990">
        <ele>1868.2</ele>
        <time>2014-10-01T08:03:04Z</time>
      </trkpt>
      <trkpt lat="42.3736510" lon="-6.4800430">
        <ele>1868.5</ele>
        <time>2014-10-01T08:03:05Z</time>
      </trkpt>
      <trkpt lat="42.3736450" lon="-6.4799840">
        <ele>1868.7</ele>
        <time>2014-10-01T08:03:06Z</time>
      </trkpt>
      <trkpt lat="42.3736390" lon="-6.4799240">
        <ele>1868.9</ele>
        <time>2014-10-01T08:03:07Z</time>
      </trkpt>
      <trkpt lat="42.3736330" lon="-6.4798660">
        <ele>1869.0</ele>
        <time>2014-10-01T08:03:08Z</time>
      </trkpt>
      <trkpt lat="42.3736260" lon="-6.4798100">
        <ele>1869.1</ele>
        <time>2014-10-01T08:03:09Z</time>
      </trkpt>
      <trkpt lat="42.3736170" lon="-6.4797470">
        <ele>1869.2</ele>
        <time>2014-10-01T08:03:10Z</time>
      </trkpt>
      <trkpt lat="42.3736100" lon="-6.4796890">
        <ele>1869.3</ele>
        <time>2014-10-01T08:03:11Z</time>
      </trkpt>
      <trkpt lat="42.3736040" lon="-6.4796330">
        <ele>1869.5</ele>
        <time>2014-10-01T08:03:12Z</time>
      </trkpt>
      <trkpt lat="42.3735980" lon="-6.4795710">
        <ele>1869.7</ele>
        <time>2014-10-01T08:03:13Z</time>
      </trkpt>
      <trkpt lat="42.3735940" lon="-6.4795180">
        <ele>1869.8</ele>
        <time>2014-10-01T08:03:14Z</time>
      </trkpt>
      <trkpt lat="42.3735870" lon="-6.4794560">
        <ele>1870.1</ele>
        <time>2014-10-01T08:03:15Z</time>
      </trkpt>
      <trkpt lat="42.3735800" lon="-6.4793950">
        <ele>1870.4</ele>
        <time>2014-10-01T08:03:16Z</time>
      </trkpt>
      <trkpt lat="42.3735730" lon="-6.4793380">
        <ele>1870.6</ele>
        <time>2014-10-01T08:03:17Z</time>
      </trkpt>
      <trkpt lat="42.3735660" lon="-6.4792820">
        <ele>1870.8</ele>
        <time>2014-10-01T08:03:18Z</time>
      </trkpt>
      <trkpt lat="42.3735570" lon="-6.4792190">
        <ele>1871.1</ele>
        <time>2014-10-01T08:03:19Z</time>
      </trkpt>
      <trkpt lat="42.3735500" lon="-6.4791630">
        <ele>1871.3</ele>
        <time>2014-10-01T08:03:20Z</time>
      </trkpt>
      <trkpt lat="42.3735400" lon="-6.4791070">
        <ele>1871.6</ele>
        <time>2014-10-01T08:03:21Z</time>
      </trkpt>
      <trkpt lat="42.3735320" lon="-6.4790550">
        <ele>1871.8</ele>
        <time>2014-10-01T08:03:22Z</time>
      </trkpt>
      <trkpt lat="42.3735240" lon="-6.4790010">
        <ele>1872.1</ele>
        <time>2014-10-01T08:03:23Z</time>
      </trkpt>
      <trkpt lat="42.3735170" lon="-6.4789470">
        <ele>1872.4</ele>
        <time>2014-10-01T08:03:24Z</time>
      </trkpt>
      <trkpt lat="42.3735080" lon="-6.4788910">
        <ele>1872.7</ele>
        <time>2014-10-01T08:03:25Z</time>
      </trkpt>
      <trkpt lat="42.3735000" lon="-6.4788340">
        <ele>1873.1</ele>
        <time>2014-10-01T08:03:26Z</time>
      </trkpt>
      <trkpt lat="42.3734910" lon="-6.4787740">
        <ele>1873.4</ele>
        <time>2014-10-01T08:03:27Z</time>
      </trkpt>
      <trkpt lat="42.3734820" lon="-6.4787150">
        <ele>1873.7</ele>
        <time>2014-10-01T08:03:28Z</time>
      </trkpt>
      <trkpt lat="42.3734740" lon="-6.4786600">
        <ele>1873.8</ele>
        <time>2014-10-01T08:03:29Z</time>
      </trkpt>
      <trkpt lat="42.3734650" lon="-6.4786020">
        <ele>1874.0</ele>
        <time>2014-10-01T08:03:30Z</time>
      </trkpt>
      <trkpt lat="42.3734570" lon="-6.4785450">
        <ele>1874.2</ele>
        <time>2014-10-01T08:03:31Z</time>
      </trkpt>
      <trkpt lat="42.3734510" lon="-6.4784920">
        <ele>1874.4</ele>
        <time>2014-10-01T08:03:32Z</time>
      </trkpt>
      <trkpt lat="42.3734440" lon="-6.4784360">
        <ele>1874.6</ele>
        <time>2014-10-01T08:03:33Z</time>
      </trkpt>
      <trkpt lat="42.3734380" lon="-6.4783850">
        <ele>1874.8</ele>
        <time>2014-10-01T08:03:34Z</time>
      </trkpt>
      <trkpt lat="42.3734310" lon="-6.4783300">
        <ele>1875.1</ele>
        <time>2014-10-01T08:03:35Z</time>
      </trkpt>
      <trkpt lat="42.3734260" lon="-6.4782760">
        <ele>1875.3</ele>
        <time>2014-10-01T08:03:36Z</time>
      </trkpt>
      <trkpt lat="42.3734210" lon="-6.4782220">
        <ele>1875.5</ele>
        <time>2014-10-01T08:03:37Z</time>
      </trkpt>
      <trkpt lat="42.3734160" lon="-6.4781660">
        <ele>1875.8</ele>
        <time>2014-10-01T08:03:38Z</time>
      </trkpt>
      <trkpt lat="42.3734130" lon="-6.4781120">
        <ele>1876.2</ele>
        <time>2014-10-01T08:03:39Z</time>
      </trkpt>
      <trkpt lat="42.3734100" lon="-6.4780590">
        <ele>1876.5</ele>
        <time>2014-10-01T08:03:40Z</time>
      </trkpt>
      <trkpt lat="42.3734040" lon="-6.4780030">
        <ele>1876.9</ele>
        <time>2014-10-01T08:03:41Z</time>
      </trkpt>
      <trkpt lat="42.3733980" lon="-6.4779530">
        <ele>1877.2</ele>
        <time>2014-10-01T08:03:42Z</time>
      </trkpt>
      <trkpt lat="42.3733920" lon="-6.4779040">
        <ele>1877.6</ele>
        <time>2014-10-01T08:03:43Z</time>
      </trkpt>
      <trkpt lat="42.3733860" lon="-6.4778520">
        <ele>1877.9</ele>
        <time>2014-10-01T08:03:44Z</time>
      </trkpt>
      <trkpt lat="42.3733790" lon="-6.4778020">
        <ele>1878.2</ele>
        <time>2014-10-01T08:03:45Z</time>
      </trkpt>
      <trkpt lat="42.3733720" lon="-6.4777590">
        <ele>1878.4</ele>
        <time>2014-10-01T08:03:46Z</time>
      </trkpt>
      <trkpt lat="42.3733650" lon="-6.4777120">
        <ele>1878.7</ele>
        <time>2014-10-01T08:03:47Z</time>
      </trkpt>
      <trkpt lat="42.3733590" lon="-6.4776720">
        <ele>1878.9</ele>
        <time>2014-10-01T08:03:48Z</time>
      </trkpt>
      <trkpt lat="42.3733520" lon="-6.4776240">
        <ele>1879.1</ele>
        <time>2014-10-01T08:03:49Z</time>
      </trkpt>
      <trkpt lat="42.3733440" lon="-6.4775800">
        <ele>1879.4</ele>
        <time>2014-10-01T08:03:50Z</time>
      </trkpt>
      <trkpt lat="42.3733340" lon="-6.4775320">
        <ele>1879.6</ele>
        <time>2014-10-01T08:03:51Z</time>
      </trkpt>
      <trkpt lat="42.3733250" lon="-6.4774830">
        <ele>1879.8</ele>
        <time>2014-10-01T08:03:52Z</time>
      </trkpt>
      <trkpt lat="42.3733160" lon="-6.4774330">
        <ele>1880.1</ele>
        <time>2014-10-01T08:03:53Z</time>
      </trkpt>
      <trkpt lat="42.3733070" lon="-6.4773840">
        <ele>1880.3</ele>
        <time>2014-10-01T08:03:54Z</time>
      </trkpt>
      <trkpt lat="42.3732990" lon="-6.4773390">
        <ele>1880.4</ele>
        <time>2014-10-01T08:03:55Z</time>
      </trkpt>
      <trkpt lat="42.3732910" lon="-6.4772920">
        <ele>1880.6</ele>
        <time>2014-10-01T08:03:56Z</time>
      </trkpt>
      <trkpt lat="42.3732810" lon="-6.4772400">
        <ele>1880.9</ele>
        <time>2014-10-01T08:03:57Z</time>
      </trkpt>
      <trkpt lat="42.3732720" lon="-6.4771900">
        <ele>1881.1</ele>
        <time>2014-10-01T08:03:58Z</time>
      </trkpt>
      <trkpt lat="42.3732620" lon="-6.4771360">
        <ele>1881.3</ele>
        <time>2014-10-01T08:03:59Z</time>
      </trkpt>
      <trkpt lat="42.3732530" lon="-6.4770920">
        <ele>1881.5</ele>
        <time>2014-10-01T08:04:00Z</time>
      </trkpt>
      <trkpt lat="42.3732430" lon="-6.4770440">
        <ele>1881.7</ele>
        <time>2014-10-01T08:04:01Z</time>
      </trkpt>
      <trkpt lat="42.3732310" lon="-6.4769910">
        <ele>1882.0</ele>
        <time>2014-10-01T08:04:02Z</time>
      </trkpt>
      <trkpt lat="42.3732190" lon="-6.4769330">
        <ele>1882.3</ele>
        <time>2014-10-01T08:04:03Z</time>
      </trkpt>
      <trkpt lat="42.3732070" lon="-6.4768770">
        <ele>1882.5</ele>
        <time>2014-10-01T08:04:04Z</time>
      </trkpt>
      <trkpt lat="42.3731950" lon="-6.4768190">
        <ele>1882.8</ele>
        <time>2014-10-01T08:04:05Z</time>
      </trkpt>
      <trkpt lat="42.3731820" lon="-6.4767590">
        <ele>1883.1</ele>
        <time>2014-10-01T08:04:06Z</time>
      </trkpt>
      <trkpt lat="42.3731710" lon="-6.4767100">
        <ele>1883.3</ele>
        <time>2014-10-01T08:04:07Z</time>
      </trkpt>
      <trkpt lat="42.3731590" lon="-6.4766660">
        <ele>1883.6</ele>
        <time>2014-10-01T08:04:08Z</time>
      </trkpt>
      <trkpt lat="42.3731450" lon="-6.4766200">
        <ele>1883.9</ele>
        <time>2014-10-01T08:04:09Z</time>
      </trkpt>
      <trkpt lat="42.3731310" lon="-6.4765670">
        <ele>1884.2</ele>
        <time>2014-10-01T08:04:10Z</time>
      </trkpt>
      <trkpt lat="42.3731160" lon="-6.4765150">
        <ele>1884.5</ele>
        <time>2014-10-01T08:04:11Z</time>
      </trkpt>
      <trkpt lat="42.3730970" lon="-6.4764580">
        <ele>1884.8</ele>
        <time>2014-10-01T08:04:12Z</time>
      </trkpt>
      <trkpt lat="42.3730770" lon="-6.4764030">
        <ele>1885.2</ele>
        <time>2014-10-01T08:04:13Z</time>
      </trkpt>
      <trkpt lat="42.3730570" lon="-6.4763600">
        <ele>1885.5</ele>
        <time>2014-10-01T08:04:14Z</time>
      </trkpt>
      <trkpt lat="42.3730370" lon="-6.4763190">
        <ele>1885.9</ele>
        <time>2014-10-01T08:04:15Z</time>
      </trkpt>
      <trkpt lat="42.3730150" lon="-6.4762800">
        <ele>1886.2</ele>
        <time>2014-10-01T08:04:16Z</time>
      </trkpt>
      <trkpt lat="42.3729930" lon="-6.4762450">
        <ele>1886.5</ele>
        <time>2014-10-01T08:04:17Z</time>
      </trkpt>
      <trkpt lat="42.3729680" lon="-6.4762070">
        <ele>1886.9</ele>
        <time>2014-10-01T08:04:18Z</time>
      </trkpt>
      <trkpt lat="42.3729440" lon="-6.4761740">
        <ele>1887.2</ele>
        <time>2014-10-01T08:04:19Z</time>
      </trkpt>
      <trkpt lat="42.3729200" lon="-6.4761420">
        <ele>1887.5</ele>
        <time>2014-10-01T08:04:20Z</time>
      </trkpt>
      <trkpt lat="42.3728980" lon="-6.4761140">
        <ele>1887.8</ele>
        <time>2014-10-01T08:04:21Z</time>
      </trkpt>
      <trkpt lat="42.3728710" lon="-6.4760800">
        <ele>1888.1</ele>
        <time>2014-10-01T08:04:22Z</time>
      </trkpt>
      <trkpt lat="42.3728360" lon="-6.4760400">
        <ele>1888.5</ele>
        <time>2014-10-01T08:04:23Z</time>
      </trkpt>
      <trkpt lat="42.3728030" lon="-6.4760060">
        <ele>1888.9</ele>
        <time>2014-10-01T08:04:24Z</time>
      </trkpt>
      <trkpt lat="42.3727740" lon="-6.4759800">
        <ele>1889.2</ele>
        <time>2014-10-01T08:04:25Z</time>
      </trkpt>
      <trkpt lat="42.3727490" lon="-6.4759580">
        <ele>1889.5</ele>
        <time>2014-10-01T08:04:26Z</time>
      </trkpt>
      <trkpt lat="42.3727250" lon="-6.4759430">
        <ele>1889.7</ele>
        <time>2014-10-01T08:04:27Z</time>
      </trkpt>
      <trkpt lat="42.3726980" lon="-6.4759250">
        <ele>1890.0</ele>
        <time>2014-10-01T08:04:28Z</time>
      </trkpt>
      <trkpt lat="42.3726670" lon="-6.4759060">
        <ele>1890.4</ele>
        <time>2014-10-01T08:04:29Z</time>
      </trkpt>
      <trkpt lat="42.3726320" lon="-6.4758810">
        <ele>1890.7</ele>
        <time>2014-10-01T08:04:30Z</time>
      </trkpt>
      <trkpt lat="42.3725970" lon="-6.4758550">
        <ele>1891.1</ele>
        <time>2014-10-01T08:04:31Z</time>
      </trkpt>
      <trkpt lat="42.3725710" lon="-6.4758370">
        <ele>1891.4</ele>
        <time>2014-10-01T08:04:32Z</time>
      </trkpt>
      <trkpt lat="42.3725380" lon="-6.4758110">
        <ele>1891.7</ele>
        <time>2014-10-01T08:04:33Z</time>
      </trkpt>
      <trkpt lat="42.3725050" lon="-6.4757840">
        <ele>1892.0</ele>
        <time>2014-10-01T08:04:34Z</time>
      </trkpt>
      <trkpt lat="42.3724750" lon="-6.4757570">
        <ele>1892.3</ele>
        <time>2014-10-01T08:04:35Z</time>
      </trkpt>
      <trkpt lat="42.3724460" lon="-6.4757310">
        <ele>1892.5</ele>
        <time>2014-10-01T08:04:36Z</time>
      </trkpt>
      <trkpt lat="42.3724220" lon="-6.4757090">
        <ele>1892.7</ele>
        <time>2014-10-01T08:04:37Z</time>
      </trkpt>
      <trkpt lat="42.3723930" lon="-6.4756850">
        <ele>1892.9</ele>
        <time>2014-10-01T08:04:38Z</time>
      </trkpt>
      <trkpt lat="42.3723660" lon="-6.4756640">
        <ele>1893.1</ele>
        <time>2014-10-01T08:04:39Z</time>
      </trkpt>
      <trkpt lat="42.3723350" lon="-6.4756390">
        <ele>1893.3</ele>
        <time>2014-10-01T08:04:40Z</time>
      </trkpt>
      <trkpt lat="42.3723100" lon="-6.4756190">
        <ele>1893.4</ele>
        <time>2014-10-01T08:04:41Z</time>
      </trkpt>
      <trkpt lat="42.3722850" lon="-6.4756000">
        <ele>1893.7</ele>
        <time>2014-10-01T08:04:42Z</time>
      </trkpt>
      <trkpt lat="42.3722560" lon="-6.4755790">
        <ele>1894.0</ele>
        <time>2014-10-01T08:04:43Z</time>
      </trkpt>
      <trkpt lat="42.3722280" lon="-6.4755580">
        <ele>1894.3</ele>
        <time>2014-10-01T08:04:44Z</time>
      </trkpt>
      <trkpt lat="42.3721950" lon="-6.4755330">
        <ele>1894.7</ele>
        <time>2014-10-01T08:04:45Z</time>
      </trkpt>
      <trkpt lat="42.3721690" lon="-6.4755150">
        <ele>1895.0</ele>
        <time>2014-10-01T08:04:46Z</time>
      </trkpt>
      <trkpt lat="42.3721390" lon="-6.4754940">
        <ele>1895.3</ele>
        <time>2014-10-01T08:04:47Z</time>
      </trkpt>
      <trkpt lat="42.3721100" lon="-6.4754770">
        <ele>1895.6</ele>
        <time>2014-10-01T08:04:48Z</time>
      </trkpt>
      <trkpt lat="42.3720800" lon="-6.4754570">
        <ele>1895.9</ele>
        <time>2014-10-01T08:04:49Z</time>
      </trkpt>
      <trkpt lat="42.3720450" lon="-6.4754370">
        <ele>1896.2</ele>
        <time>2014-10-01T08:04:50Z</time>
      </trkpt>
      <trkpt lat="42.3720130" lon="-6.4754170">
        <ele>1896.5</ele>
        <time>2014-10-01T08:04:51Z</time>
      </trkpt>
      <trkpt lat="42.3719830" lon="-6.4753990">
        <ele>1896.8</ele>
        <time>2014-10-01T08:04:52Z</time>
      </trkpt>
      <trkpt lat="42.3719470" lon="-6.4753780">
        <ele>1897.1</ele>
        <time>2014-10-01T08:04:53Z</time>
      </trkpt>
      <trkpt lat="42.3719150" lon="-6.4753570">
        <ele>1897.4</ele>
        <time>2014-10-01T08:04:54Z</time>
      </trkpt>
      <trkpt lat="42.3718810" lon="-6.4753310">
        <ele>1897.7</ele>
        <time>2014-10-01T08:04:55Z</time>
      </trkpt>
      <trkpt lat="42.3718540" lon="-6.4753100">
        <ele>1897.9</ele>
        <time>2014-10-01T08:04:56Z</time>
      </trkpt>
      <trkpt lat="42.3718290" lon="-6.4752920">
        <ele>1898.2</ele>
        <time>2014-10-01T08:04:57Z</time>
      </trkpt>
      <trkpt lat="42.3717980" lon="-6.4752700">
        <ele>1898.4</ele>
        <time>2014-10-01T08:04:58Z</time>
      </trkpt>
      <trkpt lat="42.3717740" lon="-6.4752530">
        <ele>1898.7</ele>
        <time>2014-10-01T08:04:59Z</time>
      </trkpt>
      <trkpt lat="42.3717480" lon="-6.4752350">
        <ele>1898.9</ele>
        <time>2014-10-01T08:05:00Z</time>
      </trkpt>
      <trkpt lat="42.3717190" lon="-6.4752140">
        <ele>1899.1</ele>
        <time>2014-10-01T08:05:01Z</time>
      </trkpt>
      <trkpt lat="42.3716920" lon="-6.4751940">
        <ele>1899.3</ele>
        <time>2014-10-01T08:05:02Z</time>
      </trkpt>
      <trkpt lat="42.3716600" lon="-6.4751730">
        <ele>1899.6</ele>
        <time>2014-10-01T08:05:03Z</time>
      </trkpt>
      <trkpt lat="42.3716300" lon="-6.4751530">
        <ele>1899.8</ele>
        <time>2014-10-01T08:05:04Z</time>
      </trkpt>
      <trkpt lat="42.3716010" lon="-6.4751350">
        <ele>1900.0</ele>
        <time>2014-10-01T08:05:05Z</time>
      </trkpt>
      <trkpt lat="42.3715680" lon="-6.4751140">
        <ele>1900.2</ele>
        <time>2014-10-01T08:05:06Z</time>
      </trkpt>
      <trkpt lat="42.3715400" lon="-6.4750940">
        <ele>1900.4</ele>
        <time>2014-10-01T08:05:07Z</time>
      </trkpt>
      <trkpt lat="42.3715110" lon="-6.4750750">
        <ele>1900.6</ele>
        <time>2014-10-01T08:05:08Z</time>
      </trkpt>
      <trkpt lat="42.3714810" lon="-6.4750550">
        <ele>1900.8</ele>
        <time>2014-10-01T08:05:09Z</time>
      </trkpt>
      <trkpt lat="42.3714480" lon="-6.4750300">
        <ele>1901.0</ele>
        <time>2014-10-01T08:05:10Z</time>
      </trkpt>
      <trkpt lat="42.3714170" lon="-6.4750110">
        <ele>1901.2</ele>
        <time>2014-10-01T08:05:11Z</time>
      </trkpt>
      <trkpt lat="42.3713870" lon="-6.4749920">
        <ele>1901.4</ele>
        <time>2014-10-01T08:05:12Z</time>
      </trkpt>
      <trkpt lat="42.3713490" lon="-6.4749710">
        <ele>1901.6</ele>
        <time>2014-10-01T08:05:13Z</time>
      </trkpt>
      <trkpt lat="42.3713090" lon="-6.4749510">
        <ele>1901.9</ele>
        <time>2014-10-01T08:05:14Z</time>
      </trkpt>
      <trkpt lat="42.3712690" lon="-6.4749320">
        <ele>1902.1</ele>
        <time>2014-10-01T08:05:15Z</time>
      </trkpt>
      <trkpt lat="42.3712280" lon="-6.4749100">
        <ele>1902.3</ele>
        <time>2014-10-01T08:05:16Z</time>
      </trkpt>
      <trkpt lat="42.3711870" lon="-6.4748870">
        <ele>1902.5</ele>
        <time>2014-10-01T08:05:17Z</time>
      </trkpt>
      <trkpt lat="42.3711440" lon="-6.4748650">
        <ele>1902.6</ele>
        <time>2014-10-01T08:05:18Z</time>
      </trkpt>
      <trkpt lat="42.3711090" lon="-6.4748440">
        <ele>1902.8</ele>
        <time>2014-10-01T08:05:19Z</time>
      </trkpt>
      <trkpt lat="42.3710700" lon="-6.4748220">
        <ele>1903.0</ele>
        <time>2014-10-01T08:05:20Z</time>
      </trkpt>
      <trkpt lat="42.3710310" lon="-6.4748040">
        <ele>1903.3</ele>
        <time>2014-10-01T08:05:21Z</time>
      </trkpt>
      <trkpt lat="42.3709920" lon="-6.4748000">
        <ele>1903.5</ele>
        <time>2014-10-01T08:05:22Z</time>
      </trkpt>
      <trkpt lat="42.3709520" lon="-6.4747930">
        <ele>1903.8</ele>
        <time>2014-10-01T08:05:23Z</time>
      </trkpt>
      <trkpt lat="42.3709110" lon="-6.4747820">
        <ele>1904.0</ele>
        <time>2014-10-01T08:05:24Z</time>
      </trkpt>
      <trkpt lat="42.3708810" lon="-6.4747720">
        <ele>1904.2</ele>
        <time>2014-10-01T08:05:25Z</time>
      </trkpt>
      <trkpt lat="42.3708500" lon="-6.4747610">
        <ele>1904.4</ele>
        <time>2014-10-01T08:05:26Z</time>
      </trkpt>
      <trkpt lat="42.3708230" lon="-6.4747520">
        <ele>1904.5</ele>
        <time>2014-10-01T08:05:27Z</time>
      </trkpt>
      <trkpt lat="42.3707930" lon="-6.4747440">
        <ele>1904.7</ele>
        <time>2014-10-01T08:05:28Z</time>
      </trkpt>
      <trkpt lat="42.3707630" lon="-6.4747330">
        <ele>1904.8</ele>
        <time>2014-10-01T08:05:29Z</time>
      </trkpt>
      <trkpt lat="42.3707480" lon="-6.4746780">
        <ele>1905.0</ele>
        <time>2014-10-01T08:05:30Z</time>
      </trkpt>
      <trkpt lat="42.3707080" lon="-6.4746210">
        <ele>1905.2</ele>
        <time>2014-10-01T08:05:32Z</time>
      </trkpt>
      <trkpt lat="42.3706750" lon="-6.4745870">
        <ele>1905.4</ele>
        <time>2014-10-01T08:05:33Z</time>
      </trkpt>
      <trkpt lat="42.3706460" lon="-6.4745590">
        <ele>1905.5</ele>
        <time>2014-10-01T08:05:34Z</time>
      </trkpt>
      <trkpt lat="42.3706150" lon="-6.4745270">
        <ele>1905.6</ele>
        <time>2014-10-01T08:05:35Z</time>
      </trkpt>
      <trkpt lat="42.3705850" lon="-6.4744890">
        <ele>1905.7</ele>
        <time>2014-10-01T08:05:36Z</time>
      </trkpt>
      <trkpt lat="42.3705580" lon="-6.4744440">
        <ele>1905.9</ele>
        <time>2014-10-01T08:05:37Z</time>
      </trkpt>
      <trkpt lat="42.3705310" lon="-6.4743950">
        <ele>1906.0</ele>
        <time>2014-10-01T08:05:38Z</time>
      </trkpt>
      <trkpt lat="42.3705020" lon="-6.4743430">
        <ele>1906.2</ele>
        <time>2014-10-01T08:05:39Z</time>
      </trkpt>
      <trkpt lat="42.3704730" lon="-6.4742900">
        <ele>1906.4</ele>
        <time>2014-10-01T08:05:40Z</time>
      </trkpt>
      <trkpt lat="42.3704440" lon="-6.4742380">
        <ele>1906.5</ele>
        <time>2014-10-01T08:05:41Z</time>
      </trkpt>
      <trkpt lat="42.3704270" lon="-6.4741780">
        <ele>1906.6</ele>
        <time>2014-10-01T08:05:42Z</time>
      </trkpt>
      <trkpt lat="42.3704110" lon="-6.4741270">
        <ele>1906.7</ele>
        <time>2014-10-01T08:05:43Z</time>
      </trkpt>
      <trkpt lat="42.3703920" lon="-6.4740780">
        <ele>1906.8</ele>
        <time>2014-10-01T08:05:44Z</time>
      </trkpt>
      <trkpt lat="42.3703730" lon="-6.4740270">
        <ele>1907.0</ele>
        <time>2014-10-01T08:05:45Z</time>
      </trkpt>
      <trkpt lat="42.3703520" lon="-6.4739700">
        <ele>1907.2</ele>
        <time>2014-10-01T08:05:46Z</time>
      </trkpt>
      <trkpt lat="42.3703300" lon="-6.4739120">
        <ele>1907.4</ele>
        <time>2014-10-01T08:05:47Z</time>
      </trkpt>
      <trkpt lat="42.3703090" lon="-6.4738570">
        <ele>1907.6</ele>
        <time>2014-10-01T08:05:48Z</time>
      </trkpt>
      <trkpt lat="42.3702880" lon="-6.4737970">
        <ele>1907.8</ele>
        <time>2014-10-01T08:05:49Z</time>
      </trkpt>
      <trkpt lat="42.3702690" lon="-6.4737360">
        <ele>1907.9</ele>
        <time>2014-10-01T08:05:50Z</time>
      </trkpt>
      <trkpt lat="42.3702530" lon="-6.4736830">
        <ele>1908.1</ele>
        <time>2014-10-01T08:05:51Z</time>
      </trkpt>
      <trkpt lat="42.3702360" lon="-6.4736240">
        <ele>1908.2</ele>
        <time>2014-10-01T08:05:52Z</time>
      </trkpt>
      <trkpt lat="42.3702170" lon="-6.4735590">
        <ele>1908.3</ele>
        <time>2014-10-01T08:05:53Z</time>
      </trkpt>
      <trkpt lat="42.3701970" lon="-6.4734960">
        <ele>1908.4</ele>
        <time>2014-10-01T08:05:54Z</time>
      </trkpt>
      <trkpt lat="42.3701730" lon="-6.4734320">
        <ele>1908.5</ele>
        <time>2014-10-01T08:05:55Z</time>
      </trkpt>
      <trkpt lat="42.3701480" lon="-6.4733710">
        <ele>1908.7</ele>
        <time>2014-10-01T08:05:56Z</time>
      </trkpt>
      <trkpt lat="42.3701200" lon="-6.4733120">
        <ele>1909.0</ele>
        <time>2014-10-01T08:05:57Z</time>
      </trkpt>
      <trkpt lat="42.3700930" lon="-6.4732530">
        <ele>1909.3</ele>
        <time>2014-10-01T08:05:58Z</time>
      </trkpt>
      <trkpt lat="42.3700660" lon="-6.4731950">
        <ele>1909.5</ele>
        <time>2014-10-01T08:05:59Z</time>
      </trkpt>
      <trkpt lat="42.3700430" lon="-6.4731450">
        <ele>1909.7</ele>
        <time>2014-10-01T08:06:00Z</time>
      </trkpt>
      <trkpt lat="42.3700210" lon="-6.4730910">
        <ele>1910.0</ele>
        <time>2014-10-01T08:06:01Z</time>
      </trkpt>
      <trkpt lat="42.3699980" lon="-6.4730340">
        <ele>1910.2</ele>
        <time>2014-10-01T08:06:02Z</time>
      </trkpt>
      <trkpt lat="42.3699750" lon="-6.4729770">
        <ele>1910.4</ele>
        <time>2014-10-01T08:06:03Z</time>
      </trkpt>
      <trkpt lat="42.3699520" lon="-6.4729200">
        <ele>1910.5</ele>
        <time>2014-10-01T08:06:04Z</time>
      </trkpt>
      <trkpt lat="42.3699300" lon="-6.4728680">
        <ele>1910.7</ele>
        <time>2014-10-01T08:06:05Z</time>
      </trkpt>
      <trkpt lat="42.3699080" lon="-6.4728140">
        <ele>1910.9</ele>
        <time>2014-10-01T08:06:06Z</time>
      </trkpt>
      <trkpt lat="42.3698850" lon="-6.4727570">
        <ele>1911.0</ele>
        <time>2014-10-01T08:06:07Z</time>
      </trkpt>
      <trkpt lat="42.3698610" lon="-6.4727030">
        <ele>1911.2</ele>
        <time>2014-10-01T08:06:08Z</time>
      </trkpt>
      <trkpt lat="42.3698350" lon="-6.4726470">
        <ele>1911.4</ele>
        <time>2014-10-01T08:06:09Z</time>
      </trkpt>
      <trkpt lat="42.3698080" lon="-6.4725900">
        <ele>1911.6</ele>
        <time>2014-10-01T08:06:10Z</time>
      </trkpt>
      <trkpt lat="42.3697810" lon="-6.4725340">
        <ele>1911.8</ele>
        <time>2014-10-01T08:06:11Z</time>
      </trkpt>
      <trkpt lat="42.3697550" lon="-6.4724850">
        <ele>1912.0</ele>
        <time>2014-10-01T08:06:12Z</time>
      </trkpt>
      <trkpt lat="42.3697270" lon="-6.4724390">
        <ele>1912.2</ele>
        <time>2014-10-01T08:06:13Z</time>
      </trkpt>
      <trkpt lat="42.3696970" lon="-6.4723930">
        <ele>1912.5</ele>
        <time>2014-10-01T08:06:14Z</time>
      </trkpt>
      <trkpt lat="42.3696620" lon="-6.4723420">
        <ele>1912.8</ele>
        <time>2014-10-01T08:06:15Z</time>
      </trkpt>
      <trkpt lat="42.3696290" lon="-6.4722970">
        <ele>1913.1</ele>
        <time>2014-10-01T08:06:16Z</time>
      </trkpt>
      <trkpt lat="42.3695980" lon="-6.4722530">
        <ele>1913.4</ele>
        <time>2014-10-01T08:06:17Z</time>
      </trkpt>
      <trkpt lat="42.3695670" lon="-6.4722120">
        <ele>1913.6</ele>
        <time>2014-10-01T08:06:18Z</time>
      </trkpt>
      <trkpt lat="42.3695360" lon="-6.4721680">
        <ele>1913.9</ele>
        <time>2014-10-01T08:06:19Z</time>
      </trkpt>
      <trkpt lat="42.3695050" lon="-6.4721230">
        <ele>1914.2</ele>
        <time>2014-10-01T08:06:20Z</time>
      </trkpt>
      <trkpt lat="42.3694740" lon="-6.4720760">
        <ele>1914.4</ele>
        <time>2014-10-01T08:06:21Z</time>
      </trkpt>
      <trkpt lat="42.3694450" lon="-6.4720320">
        <ele>1914.7</ele>
        <time>2014-10-01T08:06:22Z</time>
      </trkpt>
      <trkpt lat="42.3694180" lon="-6.4719850">
        <ele>1914.9</ele>
        <time>2014-10-01T08:06:23Z</time>
      </trkpt>
      <trkpt lat="42.3693890" lon="-6.4719310">
        <ele>1915.2</ele>
        <time>2014-10-01T08:06:24Z</time>
      </trkpt>
      <trkpt lat="42.3693600" lon="-6.4718740">
        <ele>1915.4</ele>
        <time>2014-10-01T08:06:25Z</time>
      </trkpt>
      <trkpt lat="42.3693320" lon="-6.4718180">
        <ele>1915.7</ele>
        <time>2014-10-01T08:06:26Z</time>
      </trkpt>
      <trkpt lat="42.3693080" lon="-6.4717690">
        <ele>1915.9</ele>
        <time>2014-10-01T08:06:27Z</time>
      </trkpt>
      <trkpt lat="42.3692840" lon="-6.4717190">
        <ele>1916.1</ele>
        <time>2014-10-01T08:06:28Z</time>
      </trkpt>
      <trkpt lat="42.3692600" lon="-6.4716720">
        <ele>1916.3</ele>
        <time>2014-10-01T08:06:29Z</time>
      </trkpt>
      <trkpt lat="42.3692350" lon="-6.4716240">
        <ele>1916.5</ele>
        <time>2014-10-01T08:06:30Z</time>
      </trkpt>
      <trkpt lat="42.3692100" lon="-6.4715740">
        <ele>1916.7</ele>
        <time>2014-10-01T08:06:31Z</time>
      </trkpt>
      <trkpt lat="42.3691850" lon="-6.4715230">
        <ele>1916.8</ele>
        <time>2014-10-01T08:06:32Z</time>
      </trkpt>
      <trkpt lat="42.3691610" lon="-6.4714730">
        <ele>1917.0</ele>
        <time>2014-10-01T08:06:33Z</time>
      </trkpt>
      <trkpt lat="42.3691370" lon="-6.4714250">
        <ele>1917.2</ele>
        <time>2014-10-01T08:06:34Z</time>
      </trkpt>
      <trkpt lat="42.3691110" lon="-6.4713770">
        <ele>1917.4</ele>
        <time>2014-10-01T08:06:35Z</time>
      </trkpt>
      <trkpt lat="42.3690840" lon="-6.4713300">
        <ele>1917.6</ele>
        <time>2014-10-01T08:06:36Z</time>
      </trkpt>
      <trkpt lat="42.3690580" lon="-6.4712860">
        <ele>1917.8</ele>
        <time>2014-10-01T08:06:37Z</time>
      </trkpt>
      <trkpt lat="42.3690320" lon="-6.4712410">
        <ele>1918.0</ele>
        <time>2014-10-01T08:06:38Z</time>
      </trkpt>
      <trkpt lat="42.3690050" lon="-6.4711890">
        <ele>1918.2</ele>
        <time>2014-10-01T08:06:39Z</time>
      </trkpt>
      <trkpt lat="42.3689800" lon="-6.4711380">
        <ele>1918.5</ele>
        <time>2014-10-01T08:06:40Z</time>
      </trkpt>
      <trkpt lat="42.3689530" lon="-6.4710820">
        <ele>1918.8</ele>
        <time>2014-10-01T08:06:41Z</time>
      </trkpt>
      <trkpt lat="42.3689290" lon="-6.4710280">
        <ele>1919.1</ele>
        <time>2014-10-01T08:06:42Z</time>
      </trkpt>
      <trkpt lat="42.3689070" lon="-6.4709780">
        <ele>1919.5</ele>
        <time>2014-10-01T08:06:43Z</time>
      </trkpt>
      <trkpt lat="42.3688860" lon="-6.4709310">
        <ele>1919.7</ele>
        <time>2014-10-01T08:06:44Z</time>
      </trkpt>
      <trkpt lat="42.3688640" lon="-6.4708810">
        <ele>1919.7</ele>
        <time>2014-10-01T08:06:45Z</time>
      </trkpt>
      <trkpt lat="42.3688430" lon="-6.4708300">
        <ele>1919.7</ele>
        <time>2014-10-01T08:06:46Z</time>
      </trkpt>
      <trkpt lat="42.3688210" lon="-6.4707750">
        <ele>1919.7</ele>
        <time>2014-10-01T08:06:47Z</time>
      </trkpt>
      <trkpt lat="42.3688000" lon="-6.4707230">
        <ele>1919.7</ele>
        <time>2014-10-01T08:06:48Z</time>
      </trkpt>
      <trkpt lat="42.3687790" lon="-6.4706720">
        <ele>1919.8</ele>
        <time>2014-10-01T08:06:49Z</time>
      </trkpt>
      <trkpt lat="42.3687570" lon="-6.4706180">
        <ele>1919.8</ele>
        <time>2014-10-01T08:06:50Z</time>
      </trkpt>
      <trkpt lat="42.3687350" lon="-6.4705670">
        <ele>1919.9</ele>
        <time>2014-10-01T08:06:51Z</time>
      </trkpt>
      <trkpt lat="42.3687160" lon="-6.4705200">
        <ele>1919.9</ele>
        <time>2014-10-01T08:06:52Z</time>
      </trkpt>
      <trkpt lat="42.3686960" lon="-6.4704700">
        <ele>1920.0</ele>
        <time>2014-10-01T08:06:53Z</time>
      </trkpt>
      <trkpt lat="42.3686770" lon="-6.4704230">
        <ele>1920.0</ele>
        <time>2014-10-01T08:06:54Z</time>
      </trkpt>
      <trkpt lat="42.3686570" lon="-6.4703740">
        <ele>1920.1</ele>
        <time>2014-10-01T08:06:55Z</time>
      </trkpt>
      <trkpt lat="42.3686380" lon="-6.4703270">
        <ele>1920.2</ele>
        <time>2014-10-01T08:06:56Z</time>
      </trkpt>
      <trkpt lat="42.3686180" lon="-6.4702800">
        <ele>1920.2</ele>
        <time>2014-10-01T08:06:57Z</time>
      </trkpt>
      <trkpt lat="42.3685940" lon="-6.4702290">
        <ele>1920.3</ele>
        <time>2014-10-01T08:06:58Z</time>
      </trkpt>
      <trkpt lat="42.3685720" lon="-6.4701820">
        <ele>1920.4</ele>
        <time>2014-10-01T08:06:59Z</time>
      </trkpt>
      <trkpt lat="42.3685520" lon="-6.4701380">
        <ele>1920.5</ele>
        <time>2014-10-01T08:07:00Z</time>
      </trkpt>
      <trkpt lat="42.3685280" lon="-6.4700870">
        <ele>1920.6</ele>
        <time>2014-10-01T08:07:01Z</time>
      </trkpt>
      <trkpt lat="42.3685050" lon="-6.4700420">
        <ele>1920.7</ele>
        <time>2014-10-01T08:07:02Z</time>
      </trkpt>
      <trkpt lat="42.3684780" lon="-6.4699860">
        <ele>1920.8</ele>
        <time>2014-10-01T08:07:03Z</time>
      </trkpt>
      <trkpt lat="42.3684510" lon="-6.4699320">
        <ele>1921.0</ele>
        <time>2014-10-01T08:07:04Z</time>
      </trkpt>
      <trkpt lat="42.3684230" lon="-6.4698810">
        <ele>1921.1</ele>
        <time>2014-10-01T08:07:05Z</time>
      </trkpt>
      <trkpt lat="42.3683920" lon="-6.4698260">
        <ele>1921.3</ele>
        <time>2014-10-01T08:07:06Z</time>
      </trkpt>
      <trkpt lat="42.3683640" lon="-6.4697740">
        <ele>1921.4</ele>
        <time>2014-10-01T08:07:07Z</time>
      </trkpt>
      <trkpt lat="42.3683350" lon="-6.4697260">
        <ele>1921.4</ele>
        <time>2014-10-01T08:07:08Z</time>
      </trkpt>
      <trkpt lat="42.3683070" lon="-6.4696840">
        <ele>1921.4</ele>
        <time>2014-10-01T08:07:09Z</time>
      </trkpt>
      <trkpt lat="42.3682770" lon="-6.4696380">
        <ele>1921.5</ele>
        <time>2014-10-01T08:07:10Z</time>
      </trkpt>
      <trkpt lat="42.3682470" lon="-6.4695880">
        <ele>1921.6</ele>
        <time>2014-10-01T08:07:11Z</time>
      </trkpt>
      <trkpt lat="42.3682170" lon="-6.4695390">
        <ele>1921.7</ele>
        <time>2014-10-01T08:07:12Z</time>
      </trkpt>
      <trkpt lat="42.3681870" lon="-6.4694900">
        <ele>1921.8</ele>
        <time>2014-10-01T08:07:13Z</time>
      </trkpt>
      <trkpt lat="42.3681570" lon="-6.4694450">
        <ele>1921.9</ele>
        <time>2014-10-01T08:07:14Z</time>
      </trkpt>
      <trkpt lat="42.3681280" lon="-6.4694020">
        <ele>1922.0</ele>
        <time>2014-10-01T08:07:15Z</time>
      </trkpt>
      <trkpt lat="42.3681010" lon="-6.4693580">
        <ele>1922.1</ele>
        <time>2014-10-01T08:07:16Z</time>
      </trkpt>
      <trkpt lat="42.3680750" lon="-6.4693130">
        <ele>1922.2</ele>
        <time>2014-10-01T08:07:17Z</time>
      </trkpt>
      <trkpt lat="42.3680470" lon="-6.4692660">
        <ele>1922.3</ele>
        <time>2014-10-01T08:07:18Z</time>
      </trkpt>
      <trkpt lat="42.3680180" lon="-6.4692230">
        <ele>1922.3</ele>
        <time>2014-10-01T08:07:19Z</time>
      </trkpt>
      <trkpt lat="42.3679900" lon="-6.4691820">
        <ele>1922.4</ele>
        <time>2014-10-01T08:07:20Z</time>
      </trkpt>
      <trkpt lat="42.3679600" lon="-6.4691380">
        <ele>1922.5</ele>
        <time>2014-10-01T08:07:21Z</time>
      </trkpt>
      <trkpt lat="42.3679300" lon="-6.4690930">
        <ele>1922.6</ele>
        <time>2014-10-01T08:07:22Z</time>
      </trkpt>
      <trkpt lat="42.3679010" lon="-6.4690520">
        <ele>1922.8</ele>
        <time>2014-10-01T08:07:23Z</time>
      </trkpt>
      <trkpt lat="42.3678710" lon="-6.4690110">
        <ele>1922.9</ele>
        <time>2014-10-01T08:07:24Z</time>
      </trkpt>
      <trkpt lat="42.3678430" lon="-6.4689710">
        <ele>1923.1</ele>
        <time>2014-10-01T08:07:25Z</time>
      </trkpt>
      <trkpt lat="42.3678140" lon="-6.4689310">
        <ele>1923.2</ele>
        <time>2014-10-01T08:07:26Z</time>
      </trkpt>
      <trkpt lat="42.3677890" lon="-6.4688920">
        <ele>1923.4</ele>
        <time>2014-10-01T08:07:27Z</time>
      </trkpt>
      <trkpt lat="42.3677660" lon="-6.4688570">
        <ele>1923.5</ele>
        <time>2014-10-01T08:07:28Z</time>
      </trkpt>
      <trkpt lat="42.3677400" lon="-6.4688160">
        <ele>1923.6</ele>
        <time>2014-10-01T08:07:29Z</time>
      </trkpt>
      <trkpt lat="42.3677160" lon="-6.4687790">
        <ele>1923.8</ele>
        <time>2014-10-01T08:07:30Z</time>
      </trkpt>
      <trkpt lat="42.3676920" lon="-6.4687390">
        <ele>1923.9</ele>
        <time>2014-10-01T08:07:31Z</time>
      </trkpt>
      <trkpt lat="42.3676660" lon="-6.4687000">
        <ele>1924.0</ele>
        <time>2014-10-01T08:07:32Z</time>
      </trkpt>
      <trkpt lat="42.3676360" lon="-6.4686570">
        <ele>1924.2</ele>
        <time>2014-10-01T08:07:33Z</time>
      </trkpt>
      <trkpt lat="42.3676060" lon="-6.4686110">
        <ele>1924.4</ele>
        <time>2014-10-01T08:07:34Z</time>
      </trkpt>
      <trkpt lat="42.3675790" lon="-6.4685680">
        <ele>1924.5</ele>
        <time>2014-10-01T08:07:35Z</time>
      </trkpt>
      <trkpt lat="42.3675540" lon="-6.4685310">
        <ele>1924.7</ele>
        <time>2014-10-01T08:07:36Z</time>
      </trkpt>
      <trkpt lat="42.3675280" lon="-6.4684910">
        <ele>1924.9</ele>
        <time>2014-10-01T08:07:37Z</time>
      </trkpt>
      <trkpt lat="42.3675050" lon="-6.4684510">
        <ele>1925.0</ele>
        <time>2014-10-01T08:07:38Z</time>
      </trkpt>
      <trkpt lat="42.3674810" lon="-6.4684100">
        <ele>1925.2</ele>
        <time>2014-10-01T08:07:39Z</time>
      </trkpt>
      <trkpt lat="42.3674580" lon="-6.4683680">
        <ele>1925.3</ele>
        <time>2014-10-01T08:07:40Z</time>
      </trkpt>
      <trkpt lat="42.3674350" lon="-6.4683260">
        <ele>1925.4</ele>
        <time>2014-10-01T08:07:41Z</time>
      </trkpt>
      <trkpt lat="42.3674140" lon="-6.4682830">
        <ele>1925.6</ele>
        <time>2014-10-01T08:07:42Z</time>
      </trkpt>
      <trkpt lat="42.3673940" lon="-6.4682410">
        <ele>1925.7</ele>
        <time>2014-10-01T08:07:43Z</time>
      </trkpt>
      <trkpt lat="42.3673750" lon="-6.4682010">
        <ele>1925.8</ele>
        <time>2014-10-01T08:07:44Z</time>
      </trkpt>
      <trkpt lat="42.3673570" lon="-6.4681610">
        <ele>1925.9</ele>
        <time>2014-10-01T08:07:45Z</time>
      </trkpt>
      <trkpt lat="42.3673370" lon="-6.4681210">
        <ele>1926.0</ele>
        <time>2014-10-01T08:07:46Z</time>
      </trkpt>
      <trkpt lat="42.3673150" lon="-6.4680730">
        <ele>1926.1</ele>
        <time>2014-10-01T08:07:47Z</time>
      </trkpt>
      <trkpt lat="42.3672980" lon="-6.4680230">
        <ele>1926.2</ele>
        <time>2014-10-01T08:07:48Z</time>
      </trkpt>
      <trkpt lat="42.3672800" lon="-6.4679660">
        <ele>1926.3</ele>
        <time>2014-10-01T08:07:49Z</time>
      </trkpt>
      <trkpt lat="42.3672620" lon="-6.4679150">
        <ele>1926.4</ele>
        <time>2014-10-01T08:07:50Z</time>
      </trkpt>
      <trkpt lat="42.3672460" lon="-6.4678610">
        <ele>1926.5</ele>
        <time>2014-10-01T08:07:51Z</time>
      </trkpt>
      <trkpt lat="42.3672350" lon="-6.4678050">
        <ele>1926.6</ele>
        <time>2014-10-01T08:07:52Z</time>
      </trkpt>
      <trkpt lat="42.3672250" lon="-6.4677510">
        <ele>1926.6</ele>
        <time>2014-10-01T08:07:53Z</time>
      </trkpt>
      <trkpt lat="42.3672140" lon="-6.4676910">
        <ele>1926.7</ele>
        <time>2014-10-01T08:07:54Z</time>
      </trkpt>
      <trkpt lat="42.3672000" lon="-6.4676330">
        <ele>1926.7</ele>
        <time>2014-10-01T08:07:55Z</time>
      </trkpt>
      <trkpt lat="42.3671850" lon="-6.4675780">
        <ele>1926.8</ele>
        <time>2014-10-01T08:07:56Z</time>
      </trkpt>
      <trkpt lat="42.3671700" lon="-6.4675240">
        <ele>1926.9</ele>
        <time>2014-10-01T08:07:57Z</time>
      </trkpt>
      <trkpt lat="42.3671580" lon="-6.4674710">
        <ele>1927.0</ele>
        <time>2014-10-01T08:07:58Z</time>
      </trkpt>
      <trkpt lat="42.3671470" lon="-6.4674210">
        <ele>1927.0</ele>
        <time>2014-10-01T08:07:59Z</time>
      </trkpt>
      <trkpt lat="42.3671340" lon="-6.4673710">
        <ele>1927.1</ele>
        <time>2014-10-01T08:08:00Z</time>
      </trkpt>
      <trkpt lat="42.3671220" lon="-6.4673200">
        <ele>1927.2</ele>
        <time>2014-10-01T08:08:01Z</time>
      </trkpt>
      <trkpt lat="42.3671120" lon="-6.4672690">
        <ele>1927.3</ele>
        <time>2014-10-01T08:08:02Z</time>
      </trkpt>
      <trkpt lat="42.3671040" lon="-6.4672180">
        <ele>1927.4</ele>
        <time>2014-10-01T08:08:03Z</time>
      </trkpt>
      <trkpt lat="42.3671000" lon="-6.4671670">
        <ele>1927.5</ele>
        <time>2014-10-01T08:08:04Z</time>
      </trkpt>
      <trkpt lat="42.3670990" lon="-6.4671120">
        <ele>1927.6</ele>
        <time>2014-10-01T08:08:05Z</time>
      </trkpt>
      <trkpt lat="42.3670930" lon="-6.4670530">
        <ele>1927.7</ele>
        <time>2014-10-01T08:08:06Z</time>
      </trkpt>
      <trkpt lat="42.3670820" lon="-6.4669950">
        <ele>1927.8</ele>
        <time>2014-10-01T08:08:07Z</time>
      </trkpt>
      <trkpt lat="42.3670730" lon="-6.4669380">
        <ele>1927.9</ele>
        <time>2014-10-01T08:08:08Z</time>
      </trkpt>
      <trkpt lat="42.3670650" lon="-6.4668850">
        <ele>1928.0</ele>
        <time>2014-10-01T08:08:09Z</time>
      </trkpt>
      <trkpt lat="42.3670580" lon="-6.4668340">
        <ele>1928.1</ele>
        <time>2014-10-01T08:08:10Z</time>
      </trkpt>
      <trkpt lat="42.3670500" lon="-6.4667780">
        <ele>1928.3</ele>
        <time>2014-10-01T08:08:11Z</time>
      </trkpt>
      <trkpt lat="42.3670440" lon="-6.4667240">
        <ele>1928.4</ele>
        <time>2014-10-01T08:08:12Z</time>
      </trkpt>
      <trkpt lat="42.3670350" lon="-6.4666660">
        <ele>1928.6</ele>
        <time>2014-10-01T08:08:13Z</time>
      </trkpt>
      <trkpt lat="42.3670270" lon="-6.4666140">
        <ele>1928.8</ele>
        <time>2014-10-01T08:08:14Z</time>
      </trkpt>
      <trkpt lat="42.3670170" lon="-6.4665610">
        <ele>1928.9</ele>
        <time>2014-10-01T08:08:15Z</time>
      </trkpt>
      <trkpt lat="42.3670070" lon="-6.4665080">
        <ele>1929.1</ele>
        <time>2014-10-01T08:08:16Z</time>
      </trkpt>
      <trkpt lat="42.3670020" lon="-6.4664530">
        <ele>1929.2</ele>
        <time>2014-10-01T08:08:17Z</time>
      </trkpt>
      <trkpt lat="42.3669980" lon="-6.4663950">
        <ele>1929.3</ele>
        <time>2014-10-01T08:08:18Z</time>
      </trkpt>
      <trkpt lat="42.3669960" lon="-6.4663390">
        <ele>1929.4</ele>
        <time>2014-10-01T08:08:19Z</time>
      </trkpt>
      <trkpt lat="42.3669920" lon="-6.4662820">
        <ele>1929.5</ele>
        <time>2014-10-01T08:08:20Z</time>
      </trkpt>
      <trkpt lat="42.3669860" lon="-6.4662250">
        <ele>1929.7</ele>
        <time>2014-10-01T08:08:21Z</time>
      </trkpt>
      <trkpt lat="42.3669790" lon="-6.4661710">
        <ele>1929.8</ele>
        <time>2014-10-01T08:08:22Z</time>
      </trkpt>
      <trkpt lat="42.3669730" lon="-6.4661150">
        <ele>1930.0</ele>
        <time>2014-10-01T08:08:23Z</time>
      </trkpt>
      <trkpt lat="42.3669670" lon="-6.4660580">
        <ele>1930.1</ele>
        <time>2014-10-01T08:08:24Z</time>
      </trkpt>
      <trkpt lat="42.3669610" lon="-6.4659990">
        <ele>1930.3</ele>
        <time>2014-10-01T08:08:25Z</time>
      </trkpt>
      <trkpt lat="42.3669570" lon="-6.4659410">
        <ele>1930.5</ele>
        <time>2014-10-01T08:08:26Z</time>
      </trkpt>
      <trkpt lat="42.3669540" lon="-6.4658810">
        <ele>1930.6</ele>
        <time>2014-10-01T08:08:27Z</time>
      </trkpt>
      <trkpt lat="42.3669530" lon="-6.4658220">
        <ele>1930.8</ele>
        <time>2014-10-01T08:08:28Z</time>
      </trkpt>
      <trkpt lat="42.3669500" lon="-6.4657640">
        <ele>1930.9</ele>
        <time>2014-10-01T08:08:29Z</time>
      </trkpt>
      <trkpt lat="42.3669440" lon="-6.4657000">
        <ele>1931.1</ele>
        <time>2014-10-01T08:08:30Z</time>
      </trkpt>
      <trkpt lat="42.3669390" lon="-6.4656390">
        <ele>1931.3</ele>
        <time>2014-10-01T08:08:31Z</time>
      </trkpt>
      <trkpt lat="42.3669340" lon="-6.4655820">
        <ele>1931.4</ele>
        <time>2014-10-01T08:08:32Z</time>
      </trkpt>
      <trkpt lat="42.3669300" lon="-6.4655280">
        <ele>1931.5</ele>
        <time>2014-10-01T08:08:33Z</time>
      </trkpt>
      <trkpt lat="42.3669270" lon="-6.4654710">
        <ele>1931.6</ele>
        <time>2014-10-01T08:08:34Z</time>
      </trkpt>
      <trkpt lat="42.3669220" lon="-6.4654150">
        <ele>1931.7</ele>
        <time>2014-10-01T08:08:35Z</time>
      </trkpt>
      <trkpt lat="42.3669170" lon="-6.4653590">
        <ele>1931.8</ele>
        <time>2014-10-01T08:08:36Z</time>
      </trkpt>
      <trkpt lat="42.3669130" lon="-6.4653040">
        <ele>1932.0</ele>
        <time>2014-10-01T08:08:37Z</time>
      </trkpt>
      <trkpt lat="42.3669110" lon="-6.4652560">
        <ele>1932.1</ele>
        <time>2014-10-01T08:08:38Z</time>
      </trkpt>
      <trkpt lat="42.3669060" lon="-6.4652100">
        <ele>1932.2</ele>
        <time>2014-10-01T08:08:39Z</time>
      </trkpt>
      <trkpt lat="42.3668990" lon="-6.4651600">
        <ele>1932.3</ele>
        <time>2014-10-01T08:08:40Z</time>
      </trkpt>
      <trkpt lat="42.3668930" lon="-6.4651180">
        <ele>1932.4</ele>
        <time>2014-10-01T08:08:41Z</time>
      </trkpt>
      <trkpt lat="42.3668900" lon="-6.4650700">
        <ele>1932.5</ele>
        <time>2014-10-01T08:08:42Z</time>
      </trkpt>
      <trkpt lat="42.3668840" lon="-6.4650180">
        <ele>1932.7</ele>
        <time>2014-10-01T08:08:43Z</time>
      </trkpt>
      <trkpt lat="42.3668760" lon="-6.4649650">
        <ele>1932.9</ele>
        <time>2014-10-01T08:08:44Z</time>
      </trkpt>
      <trkpt lat="42.3668680" lon="-6.4649120">
        <ele>1933.1</ele>
        <time>2014-10-01T08:08:45Z</time>
      </trkpt>
      <trkpt lat="42.3668590" lon="-6.4648600">
        <ele>1933.3</ele>
        <time>2014-10-01T08:08:46Z</time>
      </trkpt>
      <trkpt lat="42.3668520" lon="-6.4648080">
        <ele>1933.6</ele>
        <time>2014-10-01T08:08:47Z</time>
      </trkpt>
      <trkpt lat="42.3668460" lon="-6.4647600">
        <ele>1933.7</ele>
        <time>2014-10-01T08:08:48Z</time>
      </trkpt>
      <trkpt lat="42.3668400" lon="-6.4647130">
        <ele>1933.9</ele>
        <time>2014-10-01T08:08:49Z</time>
      </trkpt>
      <trkpt lat="42.3668370" lon="-6.4646670">
        <ele>1934.1</ele>
        <time>2014-10-01T08:08:50Z</time>
      </trkpt>
      <trkpt lat="42.3668320" lon="-6.4646210">
        <ele>1934.2</ele>
        <time>2014-10-01T08:08:51Z</time>
      </trkpt>
      <trkpt lat="42.3668270" lon="-6.4645710">
        <ele>1934.4</ele>
        <time>2014-10-01T08:08:52Z</time>
      </trkpt>
      <trkpt lat="42.3668210" lon="-6.4645170">
        <ele>1934.5</ele>
        <time>2014-10-01T08:08:53Z</time>
      </trkpt>
      <trkpt lat="42.3668140" lon="-6.4644700">
        <ele>1934.7</ele>
        <time>2014-10-01T08:08:54Z</time>
      </trkpt>
      <trkpt lat="42.3668070" lon="-6.4644250">
        <ele>1934.8</ele>
        <time>2014-10-01T08:08:55Z</time>
      </trkpt>
      <trkpt lat="42.3668010" lon="-6.4643720">
        <ele>1935.0</ele>
        <time>2014-10-01T08:08:56Z</time>
      </trkpt>
      <trkpt lat="42.3667940" lon="-6.4643150">
        <ele>1935.3</ele>
        <time>2014-10-01T08:08:57Z</time>
      </trkpt>
      <trkpt lat="42.3667870" lon="-6.4642590">
        <ele>1935.5</ele>
        <time>2014-10-01T08:08:58Z</time>
      </trkpt>
      <trkpt lat="42.3667810" lon="-6.4642030">
        <ele>1935.7</ele>
        <time>2014-10-01T08:08:59Z</time>
      </trkpt>
      <trkpt lat="42.3667770" lon="-6.4641510">
        <ele>1935.9</ele>
        <time>2014-10-01T08:09:00Z</time>
      </trkpt>
      <trkpt lat="42.3667740" lon="-6.4641030">
        <ele>1936.1</ele>
        <time>2014-10-01T08:09:01Z</time>
      </trkpt>
      <trkpt lat="42.3667710" lon="-6.4640520">
        <ele>1936.3</ele>
        <time>2014-10-01T08:09:02Z</time>
      </trkpt>
      <trkpt lat="42.3667670" lon="-6.4640060">
        <ele>1936.4</ele>
        <time>2014-10-01T08:09:03Z</time>
      </trkpt>
      <trkpt lat="42.3667640" lon="-6.4639590">
        <ele>1936.6</ele>
        <time>2014-10-01T08:09:04Z</time>
      </trkpt>
      <trkpt lat="42.3667610" lon="-6.4639050">
        <ele>1936.7</ele>
        <time>2014-10-01T08:09:05Z</time>
      </trkpt>
      <trkpt lat="42.3667570" lon="-6.4638510">
        <ele>1936.9</ele>
        <time>2014-10-01T08:09:06Z</time>
      </trkpt>
      <trkpt lat="42.3667530" lon="-6.4638000">
        <ele>1937.1</ele>
        <time>2014-10-01T08:09:07Z</time>
      </trkpt>
      <trkpt lat="42.3667520" lon="-6.4637400">
        <ele>1937.3</ele>
        <time>2014-10-01T08:09:08Z</time>
      </trkpt>
      <trkpt lat="42.3667520" lon="-6.4636810">
        <ele>1937.4</ele>
        <time>2014-10-01T08:09:09Z</time>
      </trkpt>
      <trkpt lat="42.3667530" lon="-6.4636250">
        <ele>1937.6</ele>
        <time>2014-10-01T08:09:10Z</time>
      </trkpt>
      <trkpt lat="42.3667540" lon="-6.4635720">
        <ele>1937.7</ele>
        <time>2014-10-01T08:09:11Z</time>
      </trkpt>
      <trkpt lat="42.3667490" lon="-6.4635180">
        <ele>1937.9</ele>
        <time>2014-10-01T08:09:12Z</time>
      </trkpt>
      <trkpt lat="42.3667460" lon="-6.4634640">
        <ele>1938.0</ele>
        <time>2014-10-01T08:09:13Z</time>
      </trkpt>
      <trkpt lat="42.3667460" lon="-6.4634110">
        <ele>1938.1</ele>
        <time>2014-10-01T08:09:14Z</time>
      </trkpt>
      <trkpt lat="42.3667440" lon="-6.4633640">
        <ele>1938.2</ele>
        <time>2014-10-01T08:09:15Z</time>
      </trkpt>
      <trkpt lat="42.3667440" lon="-6.4633120">
        <ele>1938.3</ele>
        <time>2014-10-01T08:09:16Z</time>
      </trkpt>
      <trkpt lat="42.3667460" lon="-6.4632640">
        <ele>1938.5</ele>
        <time>2014-10-01T08:09:17Z</time>
      </trkpt>
      <trkpt lat="42.3667440" lon="-6.4632150">
        <ele>1938.6</ele>
        <time>2014-10-01T08:09:18Z</time>
      </trkpt>
      <trkpt lat="42.3667430" lon="-6.4631650">
        <ele>1938.7</ele>
        <time>2014-10-01T08:09:19Z</time>
      </trkpt>
      <trkpt lat="42.3667430" lon="-6.4631120">
        <ele>1938.9</ele>
        <time>2014-10-01T08:09:20Z</time>
      </trkpt>
      <trkpt lat="42.3667430" lon="-6.4630580">
        <ele>1939.0</ele>
        <time>2014-10-01T08:09:21Z</time>
      </trkpt>
      <trkpt lat="42.3667430" lon="-6.4630050">
        <ele>1939.2</ele>
        <time>2014-10-01T08:09:22Z</time>
      </trkpt>
      <trkpt lat="42.3667430" lon="-6.4629500">
        <ele>1939.4</ele>
        <time>2014-10-01T08:09:23Z</time>
      </trkpt>
      <trkpt lat="42.3667420" lon="-6.4628960">
        <ele>1939.5</ele>
        <time>2014-10-01T08:09:24Z</time>
      </trkpt>
      <trkpt lat="42.3667420" lon="-6.4628420">
        <ele>1939.7</ele>
        <time>2014-10-01T08:09:25Z</time>
      </trkpt>
      <trkpt lat="42.3667400" lon="-6.4627830">
        <ele>1939.8</ele>
        <time>2014-10-01T08:09:26Z</time>
      </trkpt>
      <trkpt lat="42.3667370" lon="-6.4627270">
        <ele>1939.9</ele>
        <time>2014-10-01T08:09:27Z</time>
      </trkpt>
      <trkpt lat="42.3667330" lon="-6.4626720">
        <ele>1940.0</ele>
        <time>2014-10-01T08:09:28Z</time>
      </trkpt>
      <trkpt lat="42.3667300" lon="-6.4626170">
        <ele>1940.1</ele>
        <time>2014-10-01T08:09:29Z</time>
      </trkpt>
      <trkpt lat="42.3667260" lon="-6.4625620">
        <ele>1940.2</ele>
        <time>2014-10-01T08:09:30Z</time>
      </trkpt>
      <trkpt lat="42.3667230" lon="-6.4625070">
        <ele>1940.3</ele>
        <time>2014-10-01T08:09:31Z</time>
      </trkpt>
      <trkpt lat="42.3667190" lon="-6.4624530">
        <ele>1940.4</ele>
        <time>2014-10-01T08:09:32Z</time>
      </trkpt>
      <trkpt lat="42.3667150" lon="-6.4623990">
        <ele>1940.5</ele>
        <time>2014-10-01T08:09:33Z</time>
      </trkpt>
      <trkpt lat="42.3667100" lon="-6.4623460">
        <ele>1940.6</ele>
        <time>2014-10-01T08:09:34Z</time>
      </trkpt>
      <trkpt lat="42.3667040" lon="-6.4622940">
        <ele>1940.7</ele>
        <time>2014-10-01T08:09:35Z</time>
      </trkpt>
      <trkpt lat="42.3666980" lon="-6.4622440">
        <ele>1940.8</ele>
        <time>2014-10-01T08:09:36Z</time>
      </trkpt>
      <trkpt lat="42.3666940" lon="-6.4621890">
        <ele>1940.9</ele>
        <time>2014-10-01T08:09:37Z</time>
      </trkpt>
      <trkpt lat="42.3666900" lon="-6.4621340">
        <ele>1940.9</ele>
        <time>2014-10-01T08:09:38Z</time>
      </trkpt>
      <trkpt lat="42.3666880" lon="-6.4620810">
        <ele>1941.0</ele>
        <time>2014-10-01T08:09:39Z</time>
      </trkpt>
      <trkpt lat="42.3666840" lon="-6.4620260">
        <ele>1941.2</ele>
        <time>2014-10-01T08:09:40Z</time>
      </trkpt>
      <trkpt lat="42.3666810" lon="-6.4619710">
        <ele>1941.3</ele>
        <time>2014-10-01T08:09:41Z</time>
      </trkpt>
      <trkpt lat="42.3666760" lon="-6.4619160">
        <ele>1941.5</ele>
        <time>2014-10-01T08:09:42Z</time>
      </trkpt>
      <trkpt lat="42.3666710" lon="-6.4618600">
        <ele>1941.6</ele>
        <time>2014-10-01T08:09:43Z</time>
      </trkpt>
      <trkpt lat="42.3666660" lon="-6.4618020">
        <ele>1941.7</ele>
        <time>2014-10-01T08:09:44Z</time>
      </trkpt>
      <trkpt lat="42.3666600" lon="-6.4617440">
        <ele>1941.9</ele>
        <time>2014-10-01T08:09:45Z</time>
      </trkpt>
      <trkpt lat="42.3666560" lon="-6.4616890">
        <ele>1942.0</ele>
        <time>2014-10-01T08:09:46Z</time>
      </trkpt>
      <trkpt lat="42.3666520" lon="-6.4616320">
        <ele>1942.1</ele>
        <time>2014-10-01T08:09:47Z</time>
      </trkpt>
      <trkpt lat="42.3666480" lon="-6.4615710">
        <ele>1942.2</ele>
        <time>2014-10-01T08:09:48Z</time>
      </trkpt>
      <trkpt lat="42.3666440" lon="-6.4615100">
        <ele>1942.4</ele>
        <time>2014-10-01T08:09:49Z</time>
      </trkpt>
      <trkpt lat="42.3666400" lon="-6.4614520">
        <ele>1942.6</ele>
        <time>2014-10-01T08:09:50Z</time>
      </trkpt>
      <trkpt lat="42.3666370" lon="-6.4613950">
        <ele>1942.7</ele>
        <time>2014-10-01T08:09:51Z</time>
      </trkpt>
      <trkpt lat="42.3666330" lon="-6.4613370">
        <ele>1942.8</ele>
        <time>2014-10-01T08:09:52Z</time>
      </trkpt>
      <trkpt lat="42.3666310" lon="-6.4612830">
        <ele>1942.9</ele>
        <time>2014-10-01T08:09:53Z</time>
      </trkpt>
      <trkpt lat="42.3666310" lon="-6.4612290">
        <ele>1943.0</ele>
        <time>2014-10-01T08:09:54Z</time>
      </trkpt>
      <trkpt lat="42.3666320" lon="-6.4611760">
        <ele>1943.0</ele>
        <time>2014-10-01T08:09:55Z</time>
      </trkpt>
      <trkpt lat="42.3666320" lon="-6.4611250">
        <ele>1942.9</ele>
        <time>2014-10-01T08:09:56Z</time>
      </trkpt>
      <trkpt lat="42.3666320" lon="-6.4610730">
        <ele>1942.7</ele>
        <time>2014-10-01T08:09:57Z</time>
      </trkpt>
      <trkpt lat="42.3666270" lon="-6.4610210">
        <ele>1942.3</ele>
        <time>2014-10-01T08:09:58Z</time>
      </trkpt>
      <trkpt lat="42.3666250" lon="-6.4609710">
        <ele>1941.8</ele>
        <time>2014-10-01T08:09:59Z</time>
      </trkpt>
      <trkpt lat="42.3666250" lon="-6.4609200">
        <ele>1941.4</ele>
        <time>2014-10-01T08:10:00Z</time>
      </trkpt>
      <trkpt lat="42.3666230" lon="-6.4608660">
        <ele>1941.2</ele>
        <time>2014-10-01T08:10:01Z</time>
      </trkpt>
      <trkpt lat="42.3666180" lon="-6.4608110">
        <ele>1941.1</ele>
        <time>2014-10-01T08:10:02Z</time>
      </trkpt>
      <trkpt lat="42.3666100" lon="-6.4607550">
        <ele>1940.9</ele>
        <time>2014-10-01T08:10:03Z</time>
      </trkpt>
      <trkpt lat="42.3666100" lon="-6.4607090">
        <ele>1940.7</ele>
        <time>2014-10-01T08:10:04Z</time>
      </trkpt>
      <trkpt lat="42.3666060" lon="-6.4606680">
        <ele>1940.5</ele>
        <time>2014-10-01T08:10:05Z</time>
      </trkpt>
      <trkpt lat="42.3665930" lon="-6.4605950">
        <ele>1940.2</ele>
        <time>2014-10-01T08:10:07Z</time>
      </trkpt>
      <trkpt lat="42.3665870" lon="-6.4605450">
        <ele>1940.0</ele>
        <time>2014-10-01T08:10:08Z</time>
      </trkpt>
      <trkpt lat="42.3665800" lon="-6.4604850">
        <ele>1939.7</ele>
        <time>2014-10-01T08:10:09Z</time>
      </trkpt>
      <trkpt lat="42.3665670" lon="-6.4604130">
        <ele>1939.3</ele>
        <time>2014-10-01T08:10:10Z</time>
      </trkpt>
      <trkpt lat="42.3665550" lon="-6.4603340">
        <ele>1938.9</ele>
        <time>2014-10-01T08:10:11Z</time>
      </trkpt>
      <trkpt lat="42.3665400" lon="-6.4602410">
        <ele>1938.4</ele>
        <time>2014-10-01T08:10:12Z</time>
      </trkpt>
      <trkpt lat="42.3665250" lon="-6.4601330">
        <ele>1937.8</ele>
        <time>2014-10-01T08:10:13Z</time>
      </trkpt>
      <trkpt lat="42.3665080" lon="-6.4600220">
        <ele>1937.3</ele>
        <time>2014-10-01T08:10:14Z</time>
      </trkpt>
      <trkpt lat="42.3664910" lon="-6.4599100">
        <ele>1936.9</ele>
        <time>2014-10-01T08:10:15Z</time>
      </trkpt>
      <trkpt lat="42.3664740" lon="-6.4597980">
        <ele>1936.5</ele>
        <time>2014-10-01T08:10:16Z</time>
      </trkpt>
      <trkpt lat="42.3664590" lon="-6.4596830">
        <ele>1936.1</ele>
        <time>2014-10-01T08:10:17Z</time>
      </trkpt>
      <trkpt lat="42.3664450" lon="-6.4595650">
        <ele>1935.8</ele>
        <time>2014-10-01T08:10:18Z</time>
      </trkpt>
      <trkpt lat="42.3664310" lon="-6.4594430">
        <ele>1935.5</ele>
        <time>2014-10-01T08:10:19Z</time>
      </trkpt>
      <trkpt lat="42.3664170" lon="-6.4593230">
        <ele>1935.3</ele>
        <time>2014-10-01T08:10:20Z</time>
      </trkpt>
      <trkpt lat="42.3664020" lon="-6.4591990">
        <ele>1935.1</ele>
        <time>2014-10-01T08:10:21Z</time>
      </trkpt>
      <trkpt lat="42.3663880" lon="-6.4590750">
        <ele>1934.9</ele>
        <time>2014-10-01T08:10:22Z</time>
      </trkpt>
      <trkpt lat="42.3663740" lon="-6.4589490">
        <ele>1934.7</ele>
        <time>2014-10-01T08:10:23Z</time>
      </trkpt>
      <trkpt lat="42.3663620" lon="-6.4588270">
        <ele>1934.6</ele>
        <time>2014-10-01T08:10:24Z</time>
      </trkpt>
      <trkpt lat="42.3663500" lon="-6.4587120">
        <ele>1934.5</ele>
        <time>2014-10-01T08:10:25Z</time>
      </trkpt>
      <trkpt lat="42.3663380" lon="-6.4586020">
        <ele>1934.5</ele>
        <time>2014-10-01T08:10:26Z</time>
      </trkpt>
      <trkpt lat="42.3663260" lon="-6.4584910">
        <ele>1934.5</ele>
        <time>2014-10-01T08:10:27Z</time>
      </trkpt>
      <trkpt lat="42.3663140" lon="-6.4583820">
        <ele>1934.5</ele>
        <time>2014-10-01T08:10:28Z</time>
      </trkpt>
      <trkpt lat="42.3663010" lon="-6.4582750">
        <ele>1934.4</ele>
        <time>2014-10-01T08:10:29Z</time>
      </trkpt>
      <trkpt lat="42.3662870" lon="-6.4581660">
        <ele>1934.2</ele>
        <time>2014-10-01T08:10:30Z</time>
      </trkpt>
      <trkpt lat="42.3662730" lon="-6.4580560">
        <ele>1934.1</ele>
        <time>2014-10-01T08:10:31Z</time>
      </trkpt>
      <trkpt lat="42.3662600" lon="-6.4579460">
        <ele>1933.9</ele>
        <time>2014-10-01T08:10:32Z</time>
      </trkpt>
      <trkpt lat="42.3662460" lon="-6.4578390">
        <ele>1933.7</ele>
        <time>2014-10-01T08:10:33Z</time>
      </trkpt>
      <trkpt lat="42.3662330" lon="-6.4577300">
        <ele>1933.5</ele>
        <time>2014-10-01T08:10:34Z</time>
      </trkpt>
      <trkpt lat="42.3662190" lon="-6.4576200">
        <ele>1933.3</ele>
        <time>2014-10-01T08:10:35Z</time>
      </trkpt>
      <trkpt lat="42.3662050" lon="-6.4575090">
        <ele>1933.1</ele>
        <time>2014-10-01T08:10:36Z</time>
      </trkpt>
      <trkpt lat="42.3661930" lon="-6.4573990">
        <ele>1932.8</ele>
        <time>2014-10-01T08:10:37Z</time>
      </trkpt>
      <trkpt lat="42.3661800" lon="-6.4572850">
        <ele>1932.5</ele>
        <time>2014-10-01T08:10:38Z</time>
      </trkpt>
      <trkpt lat="42.3661660" lon="-6.4571740">
        <ele>1932.3</ele>
        <time>2014-10-01T08:10:39Z</time>
      </trkpt>
      <trkpt lat="42.3661510" lon="-6.4570600">
        <ele>1931.9</ele>
        <time>2014-10-01T08:10:40Z</time>
      </trkpt>
      <trkpt lat="42.3661370" lon="-6.4569440">
        <ele>1931.6</ele>
        <time>2014-10-01T08:10:41Z</time>
      </trkpt>
      <trkpt lat="42.3661250" lon="-6.4568240">
        <ele>1931.1</ele>
        <time>2014-10-01T08:10:42Z</time>
      </trkpt>
      <trkpt lat="42.3661140" lon="-6.4567000">
        <ele>1930.7</ele>
        <time>2014-10-01T08:10:43Z</time>
      </trkpt>
      <trkpt lat="42.3661020" lon="-6.4565760">
        <ele>1930.2</ele>
        <time>2014-10-01T08:10:44Z</time>
      </trkpt>
      <trkpt lat="42.3660890" lon="-6.4564500">
        <ele>1929.6</ele>
        <time>2014-10-01T08:10:45Z</time>
      </trkpt>
      <trkpt lat="42.3660740" lon="-6.4563240">
        <ele>1929.1</ele>
        <time>2014-10-01T08:10:46Z</time>
      </trkpt>
      <trkpt lat="42.3660590" lon="-6.4561990">
        <ele>1928.6</ele>
        <time>2014-10-01T08:10:47Z</time>
      </trkpt>
      <trkpt lat="42.3660440" lon="-6.4560700">
        <ele>1928.1</ele>
        <time>2014-10-01T08:10:48Z</time>
      </trkpt>
      <trkpt lat="42.3660290" lon="-6.4559440">
        <ele>1927.5</ele>
        <time>2014-10-01T08:10:49Z</time>
      </trkpt>
      <trkpt lat="42.3660130" lon="-6.4558130">
        <ele>1926.9</ele>
        <time>2014-10-01T08:10:50Z</time>
      </trkpt>
      <trkpt lat="42.3659940" lon="-6.4556850">
        <ele>1926.2</ele>
        <time>2014-10-01T08:10:51Z</time>
      </trkpt>
      <trkpt lat="42.3659750" lon="-6.4555540">
        <ele>1925.5</ele>
        <time>2014-10-01T08:10:52Z</time>
      </trkpt>
      <trkpt lat="42.3659580" lon="-6.4554240">
        <ele>1924.9</ele>
        <time>2014-10-01T08:10:53Z</time>
      </trkpt>
      <trkpt lat="42.3659410" lon="-6.4552930">
        <ele>1924.4</ele>
        <time>2014-10-01T08:10:54Z</time>
      </trkpt>
      <trkpt lat="42.3659220" lon="-6.4551610">
        <ele>1923.8</ele>
        <time>2014-10-01T08:10:55Z</time>
      </trkpt>
      <trkpt lat="42.3659030" lon="-6.4550290">
        <ele>1923.2</ele>
        <time>2014-10-01T08:10:56Z</time>
      </trkpt>
      <trkpt lat="42.3658820" lon="-6.4548980">
        <ele>1922.7</ele>
        <time>2014-10-01T08:10:57Z</time>
      </trkpt>
      <trkpt lat="42.3658660" lon="-6.4547740">
        <ele>1922.3</ele>
        <time>2014-10-01T08:10:58Z</time>
      </trkpt>
      <trkpt lat="42.3658470" lon="-6.4546370">
        <ele>1921.8</ele>
        <time>2014-10-01T08:10:59Z</time>
      </trkpt>
      <trkpt lat="42.3658290" lon="-6.4544990">
        <ele>1921.3</ele>
        <time>2014-10-01T08:11:00Z</time>
      </trkpt>
      <trkpt lat="42.3658110" lon="-6.4543640">
        <ele>1920.7</ele>
        <time>2014-10-01T08:11:01Z</time>
      </trkpt>
      <trkpt lat="42.3657910" lon="-6.4542270">
        <ele>1920.1</ele>
        <time>2014-10-01T08:11:02Z</time>
      </trkpt>
      <trkpt lat="42.3657740" lon="-6.4540940">
        <ele>1919.6</ele>
        <time>2014-10-01T08:11:03Z</time>
      </trkpt>
      <trkpt lat="42.3657480" lon="-6.4539530">
        <ele>1919.0</ele>
        <time>2014-10-01T08:11:04Z</time>
      </trkpt>
      <trkpt lat="42.3657220" lon="-6.4538230">
        <ele>1918.5</ele>
        <time>2014-10-01T08:11:05Z</time>
      </trkpt>
      <trkpt lat="42.3657050" lon="-6.4536850">
        <ele>1917.9</ele>
        <time>2014-10-01T08:11:06Z</time>
      </trkpt>
      <trkpt lat="42.3656900" lon="-6.4535380">
        <ele>1917.1</ele>
        <time>2014-10-01T08:11:07Z</time>
      </trkpt>
      <trkpt lat="42.3656750" lon="-6.4533900">
        <ele>1916.2</ele>
        <time>2014-10-01T08:11:08Z</time>
      </trkpt>
      <trkpt lat="42.3656530" lon="-6.4532400">
        <ele>1915.4</ele>
        <time>2014-10-01T08:11:09Z</time>
      </trkpt>
      <trkpt lat="42.3656280" lon="-6.4530950">
        <ele>1914.6</ele>
        <time>2014-10-01T08:11:10Z</time>
      </trkpt>
      <trkpt lat="42.3656000" lon="-6.4529640">
        <ele>1913.8</ele>
        <time>2014-10-01T08:11:11Z</time>
      </trkpt>
      <trkpt lat="42.3655650" lon="-6.4528720">
        <ele>1913.2</ele>
        <time>2014-10-01T08:11:12Z</time>
      </trkpt>
      <trkpt lat="42.3655400" lon="-6.4528100">
        <ele>1912.9</ele>
        <time>2014-10-01T08:11:13Z</time>
      </trkpt>
      <trkpt lat="42.3655960" lon="-6.4528570">
        <ele>1912.5</ele>
        <time>2014-10-01T08:11:19Z</time>
      </trkpt>
      <trkpt lat="42.3656350" lon="-6.4529910">
        <ele>1911.7</ele>
        <time>2014-10-01T08:11:23Z</time>
      </trkpt>
      <trkpt lat="42.3656900" lon="-6.4530470">
        <ele>1911.3</ele>
        <time>2014-10-01T08:11:25Z</time>
      </trkpt>
      <trkpt lat="42.3657310" lon="-6.4531000">
        <ele>1910.9</ele>
        <time>2014-10-01T08:11:27Z</time>
      </trkpt>
      <trkpt lat="42.3657710" lon="-6.4532170">
        <ele>1910.1</ele>
        <time>2014-10-01T08:11:32Z</time>
      </trkpt>
      <trkpt lat="42.3657830" lon="-6.4532760">
        <ele>1909.7</ele>
        <time>2014-10-01T08:11:48Z</time>
      </trkpt>
      <trkpt lat="42.3657430" lon="-6.4532960">
        <ele>1909.4</ele>
        <time>2014-10-01T08:12:28Z</time>
      </trkpt>
      <trkpt lat="42.3657120" lon="-6.4532520">
        <ele>1909.0</ele>
        <time>2014-10-01T08:13:48Z</time>
      </trkpt>
      <trkpt lat="42.3656990" lon="-6.4532120">
        <ele>1908.7</ele>
        <time>2014-10-01T08:13:49Z</time>
      </trkpt>
      <trkpt lat="42.3656850" lon="-6.4531680">
        <ele>1908.5</ele>
        <time>2014-10-01T08:13:50Z</time>
      </trkpt>
      <trkpt lat="42.3656680" lon="-6.4531190">
        <ele>1908.1</ele>
        <time>2014-10-01T08:13:51Z</time>
      </trkpt>
      <trkpt lat="42.3656500" lon="-6.4530630">
        <ele>1907.8</ele>
        <time>2014-10-01T08:13:52Z</time>
      </trkpt>
      <trkpt lat="42.3656310" lon="-6.4530030">
        <ele>1907.4</ele>
        <time>2014-10-01T08:13:53Z</time>
      </trkpt>
      <trkpt lat="42.3656100" lon="-6.4529330">
        <ele>1906.9</ele>
        <time>2014-10-01T08:13:54Z</time>
      </trkpt>
      <trkpt lat="42.3655890" lon="-6.4528600">
        <ele>1906.4</ele>
        <time>2014-10-01T08:13:55Z</time>
      </trkpt>
      <trkpt lat="42.3655670" lon="-6.4527830">
        <ele>1905.8</ele>
        <time>2014-10-01T08:13:56Z</time>
      </trkpt>
      <trkpt lat="42.3655460" lon="-6.4527000">
        <ele>1905.2</ele>
        <time>2014-10-01T08:13:57Z</time>
      </trkpt>
      <trkpt lat="42.3655250" lon="-6.4526070">
        <ele>1904.4</ele>
        <time>2014-10-01T08:13:58Z</time>
      </trkpt>
      <trkpt lat="42.3655030" lon="-6.4525100">
        <ele>1903.6</ele>
        <time>2014-10-01T08:13:59Z</time>
      </trkpt>
      <trkpt lat="42.3654750" lon="-6.4524150">
        <ele>1902.8</ele>
        <time>2014-10-01T08:14:00Z</time>
      </trkpt>
      <trkpt lat="42.3654450" lon="-6.4523190">
        <ele>1902.0</ele>
        <time>2014-10-01T08:14:01Z</time>
      </trkpt>
      <trkpt lat="42.3654060" lon="-6.4522140">
        <ele>1901.1</ele>
        <time>2014-10-01T08:14:02Z</time>
      </trkpt>
      <trkpt lat="42.3653660" lon="-6.4521060">
        <ele>1900.0</ele>
        <time>2014-10-01T08:14:03Z</time>
      </trkpt>
      <trkpt lat="42.3653280" lon="-6.4519850">
        <ele>1898.9</ele>
        <time>2014-10-01T08:14:04Z</time>
      </trkpt>
      <trkpt lat="42.3652870" lon="-6.4518530">
        <ele>1897.7</ele>
        <time>2014-10-01T08:14:05Z</time>
      </trkpt>
      <trkpt lat="42.3652420" lon="-6.4517080">
        <ele>1896.6</ele>
        <time>2014-10-01T08:14:06Z</time>
      </trkpt>
      <trkpt lat="42.3651950" lon="-6.4515670">
        <ele>1895.5</ele>
        <time>2014-10-01T08:14:07Z</time>
      </trkpt>
      <trkpt lat="42.3651520" lon="-6.4514350">
        <ele>1894.5</ele>
        <time>2014-10-01T08:14:08Z</time>
      </trkpt>
      <trkpt lat="42.3651090" lon="-6.4513090">
        <ele>1893.7</ele>
        <time>2014-10-01T08:14:09Z</time>
      </trkpt>
      <trkpt lat="42.3650620" lon="-6.4511570">
        <ele>1892.7</ele>
        <time>2014-10-01T08:14:10Z</time>
      </trkpt>
      <trkpt lat="42.3650160" lon="-6.4509970">
        <ele>1891.8</ele>
        <time>2014-10-01T08:14:11Z</time>
      </trkpt>
      <trkpt lat="42.3649700" lon="-6.4508400">
        <ele>1890.8</ele>
        <time>2014-10-01T08:14:12Z</time>
      </trkpt>
      <trkpt lat="42.3649220" lon="-6.4506770">
        <ele>1889.8</ele>
        <time>2014-10-01T08:14:13Z</time>
      </trkpt>
      <trkpt lat="42.3648730" lon="-6.4505170">
        <ele>1888.9</ele>
        <time>2014-10-01T08:14:14Z</time>
      </trkpt>
      <trkpt lat="42.3648230" lon="-6.4503630">
        <ele>1888.1</ele>
        <time>2014-10-01T08:14:15Z</time>
      </trkpt>
      <trkpt lat="42.3647690" lon="-6.4502030">
        <ele>1887.3</ele>
        <time>2014-10-01T08:14:16Z</time>
      </trkpt>
      <trkpt lat="42.3647110" lon="-6.4500510">
        <ele>1886.6</ele>
        <time>2014-10-01T08:14:17Z</time>
      </trkpt>
      <trkpt lat="42.3646500" lon="-6.4499060">
        <ele>1885.8</ele>
        <time>2014-10-01T08:14:18Z</time>
      </trkpt>
      <trkpt lat="42.3645840" lon="-6.4497680">
        <ele>1884.5</ele>
        <time>2014-10-01T08:14:19Z</time>
      </trkpt>
      <trkpt lat="42.3645130" lon="-6.4496340">
        <ele>1883.5</ele>
        <time>2014-10-01T08:14:20Z</time>
      </trkpt>
      <trkpt lat="42.3644390" lon="-6.4495120">
        <ele>1882.5</ele>
        <time>2014-10-01T08:14:21Z</time>
      </trkpt>
      <trkpt lat="42.3643580" lon="-6.4493840">
        <ele>1881.3</ele>
        <time>2014-10-01T08:14:22Z</time>
      </trkpt>
      <trkpt lat="42.3642740" lon="-6.4492530">
        <ele>1880.0</ele>
        <time>2014-10-01T08:14:23Z</time>
      </trkpt>
      <trkpt lat="42.3641880" lon="-6.4491160">
        <ele>1878.6</ele>
        <time>2014-10-01T08:14:24Z</time>
      </trkpt>
      <trkpt lat="42.3641030" lon="-6.4489810">
        <ele>1877.1</ele>
        <time>2014-10-01T08:14:25Z</time>
      </trkpt>
      <trkpt lat="42.3640160" lon="-6.4488420">
        <ele>1875.7</ele>
        <time>2014-10-01T08:14:26Z</time>
      </trkpt>
      <trkpt lat="42.3639230" lon="-6.4487060">
        <ele>1874.4</ele>
        <time>2014-10-01T08:14:27Z</time>
      </trkpt>
      <trkpt lat="42.3638250" lon="-6.4485740">
        <ele>1872.8</ele>
        <time>2014-10-01T08:14:28Z</time>
      </trkpt>
      <trkpt lat="42.3637230" lon="-6.4484470">
        <ele>1871.3</ele>
        <time>2014-10-01T08:14:29Z</time>
      </trkpt>
      <trkpt lat="42.3636160" lon="-6.4483210">
        <ele>1869.9</ele>
        <time>2014-10-01T08:14:30Z</time>
      </trkpt>
      <trkpt lat="42.3635080" lon="-6.4481930">
        <ele>1868.4</ele>
        <time>2014-10-01T08:14:31Z</time>
      </trkpt>
      <trkpt lat="42.3633940" lon="-6.4480700">
        <ele>1866.9</ele>
        <time>2014-10-01T08:14:32Z</time>
      </trkpt>
      <trkpt lat="42.3632760" lon="-6.4479480">
        <ele>1865.2</ele>
        <time>2014-10-01T08:14:33Z</time>
      </trkpt>
      <trkpt lat="42.3631540" lon="-6.4478280">
        <ele>1863.5</ele>
        <time>2014-10-01T08:14:34Z</time>
      </trkpt>
      <trkpt lat="42.3630270" lon="-6.4477150">
        <ele>1861.7</ele>
        <time>2014-10-01T08:14:35Z</time>
      </trkpt>
      <trkpt lat="42.3628940" lon="-6.4475970">
        <ele>1859.8</ele>
        <time>2014-10-01T08:14:36Z</time>
      </trkpt>
      <trkpt lat="42.3627630" lon="-6.4474850">
        <ele>1857.8</ele>
        <time>2014-10-01T08:14:37Z</time>
      </trkpt>
      <trkpt lat="42.3626300" lon="-6.4473690">
        <ele>1855.8</ele>
        <time>2014-10-01T08:14:38Z</time>
      </trkpt>
      <trkpt lat="42.3624980" lon="-6.4472520">
        <ele>1853.9</ele>
        <time>2014-10-01T08:14:39Z</time>
      </trkpt>
      <trkpt lat="42.3623710" lon="-6.4471380">
        <ele>1852.0</ele>
        <time>2014-10-01T08:14:40Z</time>
      </trkpt>
      <trkpt lat="42.3622470" lon="-6.4470260">
        <ele>1850.1</ele>
        <time>2014-10-01T08:14:41Z</time>
      </trkpt>
      <trkpt lat="42.3621240" lon="-6.4469150">
        <ele>1848.3</ele>
        <time>2014-10-01T08:14:42Z</time>
      </trkpt>
      <trkpt lat="42.3620020" lon="-6.4467950">
        <ele>1846.8</ele>
        <time>2014-10-01T08:14:43Z</time>
      </trkpt>
      <trkpt lat="42.3618840" lon="-6.4466660">
        <ele>1845.2</ele>
        <time>2014-10-01T08:14:44Z</time>
      </trkpt>
      <trkpt lat="42.3617710" lon="-6.4465300">
        <ele>1843.6</ele>
        <time>2014-10-01T08:14:45Z</time>
      </trkpt>
      <trkpt lat="42.3616620" lon="-6.4463860">
        <ele>1841.9</ele>
        <time>2014-10-01T08:14:46Z</time>
      </trkpt>
      <trkpt lat="42.3615570" lon="-6.4462280">
        <ele>1840.2</ele>
        <time>2014-10-01T08:14:47Z</time>
      </trkpt>
      <trkpt lat="42.3614590" lon="-6.4460700">
        <ele>1838.6</ele>
        <time>2014-10-01T08:14:48Z</time>
      </trkpt>
      <trkpt lat="42.3613640" lon="-6.4459090">
        <ele>1837.0</ele>
        <time>2014-10-01T08:14:49Z</time>
      </trkpt>
      <trkpt lat="42.3612690" lon="-6.4457480">
        <ele>1835.5</ele>
        <time>2014-10-01T08:14:50Z</time>
      </trkpt>
      <trkpt lat="42.3611750" lon="-6.4455780">
        <ele>1834.1</ele>
        <time>2014-10-01T08:14:51Z</time>
      </trkpt>
      <trkpt lat="42.3610820" lon="-6.4454120">
        <ele>1832.7</ele>
        <time>2014-10-01T08:14:52Z</time>
      </trkpt>
      <trkpt lat="42.3609860" lon="-6.4452530">
        <ele>1831.3</ele>
        <time>2014-10-01T08:14:53Z</time>
      </trkpt>
      <trkpt lat="42.3608910" lon="-6.4450980">
        <ele>1829.9</ele>
        <time>2014-10-01T08:14:54Z</time>
      </trkpt>
      <trkpt lat="42.3607940" lon="-6.4449450">
        <ele>1828.6</ele>
        <time>2014-10-01T08:14:55Z</time>
      </trkpt>
      <trkpt lat="42.3606960" lon="-6.4447910">
        <ele>1827.1</ele>
        <time>2014-10-01T08:14:56Z</time>
      </trkpt>
      <trkpt lat="42.3605960" lon="-6.4446310">
        <ele>1825.4</ele>
        <time>2014-10-01T08:14:57Z</time>
      </trkpt>
      <trkpt lat="42.3604990" lon="-6.4444650">
        <ele>1823.5</ele>
        <time>2014-10-01T08:14:58Z</time>
      </trkpt>
      <trkpt lat="42.3604030" lon="-6.4443010">
        <ele>1821.8</ele>
        <time>2014-10-01T08:14:59Z</time>
      </trkpt>
      <trkpt lat="42.3603080" lon="-6.4441430">
        <ele>1820.3</ele>
        <time>2014-10-01T08:15:00Z</time>
      </trkpt>
      <trkpt lat="42.3602080" lon="-6.4439890">
        <ele>1818.7</ele>
        <time>2014-10-01T08:15:01Z</time>
      </trkpt>
      <trkpt lat="42.3601050" lon="-6.4438370">
        <ele>1817.0</ele>
        <time>2014-10-01T08:15:02Z</time>
      </trkpt>
      <trkpt lat="42.3600000" lon="-6.4436850">
        <ele>1815.4</ele>
        <time>2014-10-01T08:15:03Z</time>
      </trkpt>
      <trkpt lat="42.3598930" lon="-6.4435350">
        <ele>1813.7</ele>
        <time>2014-10-01T08:15:04Z</time>
      </trkpt>
      <trkpt lat="42.3597840" lon="-6.4433860">
        <ele>1812.1</ele>
        <time>2014-10-01T08:15:05Z</time>
      </trkpt>
      <trkpt lat="42.3596720" lon="-6.4432410">
        <ele>1810.5</ele>
        <time>2014-10-01T08:15:06Z</time>
      </trkpt>
      <trkpt lat="42.3595580" lon="-6.4430940">
        <ele>1809.0</ele>
        <time>2014-10-01T08:15:07Z</time>
      </trkpt>
      <trkpt lat="42.3594440" lon="-6.4429480">
        <ele>1807.3</ele>
        <time>2014-10-01T08:15:08Z</time>
      </trkpt>
      <trkpt lat="42.3593250" lon="-6.4428040">
        <ele>1805.7</ele>
        <time>2014-10-01T08:15:09Z</time>
      </trkpt>
      <trkpt lat="42.3592060" lon="-6.4426600">
        <ele>1804.2</ele>
        <time>2014-10-01T08:15:10Z</time>
      </trkpt>
      <trkpt lat="42.3590840" lon="-6.4425200">
        <ele>1802.8</ele>
        <time>2014-10-01T08:15:11Z</time>
      </trkpt>
      <trkpt lat="42.3589630" lon="-6.4423830">
        <ele>1801.3</ele>
        <time>2014-10-01T08:15:12Z</time>
      </trkpt>
      <trkpt lat="42.3588410" lon="-6.4422500">
        <ele>1799.7</ele>
        <time>2014-10-01T08:15:13Z</time>
      </trkpt>
      <trkpt lat="42.3587190" lon="-6.4421170">
        <ele>1798.2</ele>
        <time>2014-10-01T08:15:14Z</time>
      </trkpt>
      <trkpt lat="42.3585940" lon="-6.4419890">
        <ele>1796.7</ele>
        <time>2014-10-01T08:15:15Z</time>
      </trkpt>
      <trkpt lat="42.3584690" lon="-6.4418620">
        <ele>1795.2</ele>
        <time>2014-10-01T08:15:16Z</time>
      </trkpt>
      <trkpt lat="42.3583410" lon="-6.4417390">
        <ele>1793.4</ele>
        <time>2014-10-01T08:15:17Z</time>
      </trkpt>
      <trkpt lat="42.3582130" lon="-6.4416170">
        <ele>1791.5</ele>
        <time>2014-10-01T08:15:18Z</time>
      </trkpt>
      <trkpt lat="42.3580830" lon="-6.4414990">
        <ele>1789.9</ele>
        <time>2014-10-01T08:15:19Z</time>
      </trkpt>
      <trkpt lat="42.3579530" lon="-6.4413810">
        <ele>1788.4</ele>
        <time>2014-10-01T08:15:20Z</time>
      </trkpt>
      <trkpt lat="42.3578200" lon="-6.4412680">
        <ele>1786.9</ele>
        <time>2014-10-01T08:15:21Z</time>
      </trkpt>
      <trkpt lat="42.3576830" lon="-6.4411650">
        <ele>1785.3</ele>
        <time>2014-10-01T08:15:22Z</time>
      </trkpt>
      <trkpt lat="42.3575400" lon="-6.4410710">
        <ele>1783.6</ele>
        <time>2014-10-01T08:15:23Z</time>
      </trkpt>
      <trkpt lat="42.3573930" lon="-6.4409850">
        <ele>1782.1</ele>
        <time>2014-10-01T08:15:24Z</time>
      </trkpt>
      <trkpt lat="42.3572450" lon="-6.4408990">
        <ele>1780.4</ele>
        <time>2014-10-01T08:15:25Z</time>
      </trkpt>
      <trkpt lat="42.3571020" lon="-6.4407990">
        <ele>1778.8</ele>
        <time>2014-10-01T08:15:26Z</time>
      </trkpt>
      <trkpt lat="42.3569650" lon="-6.4406870">
        <ele>1777.1</ele>
        <time>2014-10-01T08:15:27Z</time>
      </trkpt>
      <trkpt lat="42.3568360" lon="-6.4405630">
        <ele>1775.5</ele>
        <time>2014-10-01T08:15:28Z</time>
      </trkpt>
      <trkpt lat="42.3567090" lon="-6.4404300">
        <ele>1774.0</ele>
        <time>2014-10-01T08:15:29Z</time>
      </trkpt>
      <trkpt lat="42.3565860" lon="-6.4402930">
        <ele>1772.5</ele>
        <time>2014-10-01T08:15:30Z</time>
      </trkpt>
      <trkpt lat="42.3564620" lon="-6.4401560">
        <ele>1770.9</ele>
        <time>2014-10-01T08:15:31Z</time>
      </trkpt>
      <trkpt lat="42.3563360" lon="-6.4400220">
        <ele>1769.2</ele>
        <time>2014-10-01T08:15:32Z</time>
      </trkpt>
      <trkpt lat="42.3562100" lon="-6.4398890">
        <ele>1767.6</ele>
        <time>2014-10-01T08:15:33Z</time>
      </trkpt>
      <trkpt lat="42.3560840" lon="-6.4397550">
        <ele>1766.0</ele>
        <time>2014-10-01T08:15:34Z</time>
      </trkpt>
      <trkpt lat="42.3559570" lon="-6.4396200">
        <ele>1764.4</ele>
        <time>2014-10-01T08:15:35Z</time>
      </trkpt>
      <trkpt lat="42.3558300" lon="-6.4394880">
        <ele>1762.9</ele>
        <time>2014-10-01T08:15:36Z</time>
      </trkpt>
      <trkpt lat="42.3556980" lon="-6.4393620">
        <ele>1761.5</ele>
        <time>2014-10-01T08:15:37Z</time>
      </trkpt>
      <trkpt lat="42.3555620" lon="-6.4392450">
        <ele>1760.0</ele>
        <time>2014-10-01T08:15:38Z</time>
      </trkpt>
      <trkpt lat="42.3554220" lon="-6.4391370">
        <ele>1758.5</ele>
        <time>2014-10-01T08:15:39Z</time>
      </trkpt>
      <trkpt lat="42.3552780" lon="-6.4390350">
        <ele>1756.8</ele>
        <time>2014-10-01T08:15:40Z</time>
      </trkpt>
      <trkpt lat="42.3551340" lon="-6.4389330">
        <ele>1755.1</ele>
        <time>2014-10-01T08:15:41Z</time>
      </trkpt>
      <trkpt lat="42.3549870" lon="-6.4388350">
        <ele>1753.6</ele>
        <time>2014-10-01T08:15:42Z</time>
      </trkpt>
      <trkpt lat="42.3548400" lon="-6.4387370">
        <ele>1752.0</ele>
        <time>2014-10-01T08:15:43Z</time>
      </trkpt>
      <trkpt lat="42.3546910" lon="-6.4386450">
        <ele>1750.5</ele>
        <time>2014-10-01T08:15:44Z</time>
      </trkpt>
      <trkpt lat="42.3545420" lon="-6.4385600">
        <ele>1748.9</ele>
        <time>2014-10-01T08:15:45Z</time>
      </trkpt>
      <trkpt lat="42.3543900" lon="-6.4384820">
        <ele>1747.1</ele>
        <time>2014-10-01T08:15:46Z</time>
      </trkpt>
      <trkpt lat="42.3542350" lon="-6.4384140">
        <ele>1745.2</ele>
        <time>2014-10-01T08:15:47Z</time>
      </trkpt>
      <trkpt lat="42.3540780" lon="-6.4383540">
        <ele>1743.3</ele>
        <time>2014-10-01T08:15:48Z</time>
      </trkpt>
      <trkpt lat="42.3539180" lon="-6.4383040">
        <ele>1741.4</ele>
        <time>2014-10-01T08:15:49Z</time>
      </trkpt>
      <trkpt lat="42.3537550" lon="-6.4382590">
        <ele>1739.3</ele>
        <time>2014-10-01T08:15:50Z</time>
      </trkpt>
      <trkpt lat="42.3535890" lon="-6.4382200">
        <ele>1737.4</ele>
        <time>2014-10-01T08:15:51Z</time>
      </trkpt>
      <trkpt lat="42.3534250" lon="-6.4381800">
        <ele>1735.6</ele>
        <time>2014-10-01T08:15:52Z</time>
      </trkpt>
      <trkpt lat="42.3532600" lon="-6.4381430">
        <ele>1733.9</ele>
        <time>2014-10-01T08:15:53Z</time>
      </trkpt>
      <trkpt lat="42.3530950" lon="-6.4381050">
        <ele>1732.2</ele>
        <time>2014-10-01T08:15:54Z</time>
      </trkpt>
      <trkpt lat="42.3529290" lon="-6.4380660">
        <ele>1730.6</ele>
        <time>2014-10-01T08:15:55Z</time>
      </trkpt>
      <trkpt lat="42.3527660" lon="-6.4380190">
        <ele>1729.0</ele>
        <time>2014-10-01T08:15:56Z</time>
      </trkpt>
      <trkpt lat="42.3526060" lon="-6.4379570">
        <ele>1727.5</ele>
        <time>2014-10-01T08:15:57Z</time>
      </trkpt>
      <trkpt lat="42.3524500" lon="-6.4378790">
        <ele>1726.2</ele>
        <time>2014-10-01T08:15:58Z</time>
      </trkpt>
      <trkpt lat="42.3523080" lon="-6.4377930">
        <ele>1725.0</ele>
        <time>2014-10-01T08:15:59Z</time>
      </trkpt>
      <trkpt lat="42.3521710" lon="-6.4376950">
        <ele>1723.7</ele>
        <time>2014-10-01T08:16:00Z</time>
      </trkpt>
      <trkpt lat="42.3520350" lon="-6.4375880">
        <ele>1722.2</ele>
        <time>2014-10-01T08:16:01Z</time>
      </trkpt>
      <trkpt lat="42.3519040" lon="-6.4374740">
        <ele>1720.7</ele>
        <time>2014-10-01T08:16:02Z</time>
      </trkpt>
      <trkpt lat="42.3517780" lon="-6.4373500">
        <ele>1719.2</ele>
        <time>2014-10-01T08:16:03Z</time>
      </trkpt>
      <trkpt lat="42.3516600" lon="-6.4372110">
        <ele>1717.8</ele>
        <time>2014-10-01T08:16:04Z</time>
      </trkpt>
      <trkpt lat="42.3515660" lon="-6.4370310">
        <ele>1716.3</ele>
        <time>2014-10-01T08:16:05Z</time>
      </trkpt>
      <trkpt lat="42.3514790" lon="-6.4368510">
        <ele>1714.9</ele>
        <time>2014-10-01T08:16:06Z</time>
      </trkpt>
      <trkpt lat="42.3514010" lon="-6.4366690">
        <ele>1713.4</ele>
        <time>2014-10-01T08:16:07Z</time>
      </trkpt>
      <trkpt lat="42.3513310" lon="-6.4364840">
        <ele>1712.0</ele>
        <time>2014-10-01T08:16:08Z</time>
      </trkpt>
      <trkpt lat="42.3512660" lon="-6.4362940">
        <ele>1710.6</ele>
        <time>2014-10-01T08:16:09Z</time>
      </trkpt>
      <trkpt lat="42.3512030" lon="-6.4360970">
        <ele>1709.1</ele>
        <time>2014-10-01T08:16:10Z</time>
      </trkpt>
      <trkpt lat="42.3511450" lon="-6.4358990">
        <ele>1707.6</ele>
        <time>2014-10-01T08:16:11Z</time>
      </trkpt>
      <trkpt lat="42.3510890" lon="-6.4356980">
        <ele>1706.0</ele>
        <time>2014-10-01T08:16:12Z</time>
      </trkpt>
      <trkpt lat="42.3510320" lon="-6.4354950">
        <ele>1704.4</ele>
        <time>2014-10-01T08:16:13Z</time>
      </trkpt>
      <trkpt lat="42.3509800" lon="-6.4352940">
        <ele>1703.0</ele>
        <time>2014-10-01T08:16:14Z</time>
      </trkpt>
      <trkpt lat="42.3509270" lon="-6.4350930">
        <ele>1701.3</ele>
        <time>2014-10-01T08:16:15Z</time>
      </trkpt>
      <trkpt lat="42.3508760" lon="-6.4348990">
        <ele>1699.7</ele>
        <time>2014-10-01T08:16:16Z</time>
      </trkpt>
      <trkpt lat="42.3508230" lon="-6.4347030">
        <ele>1698.1</ele>
        <time>2014-10-01T08:16:17Z</time>
      </trkpt>
      <trkpt lat="42.3507710" lon="-6.4345090">
        <ele>1696.5</ele>
        <time>2014-10-01T08:16:18Z</time>
      </trkpt>
      <trkpt lat="42.3507160" lon="-6.4343110">
        <ele>1694.8</ele>
        <time>2014-10-01T08:16:19Z</time>
      </trkpt>
      <trkpt lat="42.3506620" lon="-6.4341130">
        <ele>1693.1</ele>
        <time>2014-10-01T08:16:20Z</time>
      </trkpt>
      <trkpt lat="42.3506070" lon="-6.4339150">
        <ele>1691.4</ele>
        <time>2014-10-01T08:16:21Z</time>
      </trkpt>
      <trkpt lat="42.3505500" lon="-6.4337170">
        <ele>1689.7</ele>
        <time>2014-10-01T08:16:22Z</time>
      </trkpt>
      <trkpt lat="42.3504920" lon="-6.4335150">
        <ele>1687.9</ele>
        <time>2014-10-01T08:16:23Z</time>
      </trkpt>
      <trkpt lat="42.3504340" lon="-6.4333120">
        <ele>1686.1</ele>
        <time>2014-10-01T08:16:24Z</time>
      </trkpt>
      <trkpt lat="42.3503790" lon="-6.4331040">
        <ele>1684.4</ele>
        <time>2014-10-01T08:16:25Z</time>
      </trkpt>
      <trkpt lat="42.3503380" lon="-6.4328930">
        <ele>1682.7</ele>
        <time>2014-10-01T08:16:26Z</time>
      </trkpt>
      <trkpt lat="42.3503340" lon="-6.4326770">
        <ele>1681.0</ele>
        <time>2014-10-01T08:16:27Z</time>
      </trkpt>
      <trkpt lat="42.3503360" lon="-6.4324660">
        <ele>1679.4</ele>
        <time>2014-10-01T08:16:28Z</time>
      </trkpt>
      <trkpt lat="42.3503380" lon="-6.4322590">
        <ele>1678.0</ele>
        <time>2014-10-01T08:16:29Z</time>
      </trkpt>
      <trkpt lat="42.3503400" lon="-6.4320650">
        <ele>1676.8</ele>
        <time>2014-10-01T08:16:30Z</time>
      </trkpt>
      <trkpt lat="42.3503320" lon="-6.4318890">
        <ele>1675.6</ele>
        <time>2014-10-01T08:16:31Z</time>
      </trkpt>
      <trkpt lat="42.3503230" lon="-6.4317120">
        <ele>1674.3</ele>
        <time>2014-10-01T08:16:32Z</time>
      </trkpt>
      <trkpt lat="42.3502700" lon="-6.4315830">
        <ele>1673.1</ele>
        <time>2014-10-01T08:16:33Z</time>
      </trkpt>
      <trkpt lat="42.3502000" lon="-6.4315200">
        <ele>1671.9</ele>
        <time>2014-10-01T08:16:34Z</time>
      </trkpt>
      <trkpt lat="42.3501120" lon="-6.4315040">
        <ele>1670.4</ele>
        <time>2014-10-01T08:16:35Z</time>
      </trkpt>
      <trkpt lat="42.3500180" lon="-6.4315320">
        <ele>1669.0</ele>
        <time>2014-10-01T08:16:36Z</time>
      </trkpt>
      <trkpt lat="42.3499320" lon="-6.4316090">
        <ele>1667.6</ele>
        <time>2014-10-01T08:16:37Z</time>
      </trkpt>
      <trkpt lat="42.3498470" lon="-6.4317040">
        <ele>1665.9</ele>
        <time>2014-10-01T08:16:38Z</time>
      </trkpt>
      <trkpt lat="42.3497750" lon="-6.4318190">
        <ele>1664.2</ele>
        <time>2014-10-01T08:16:39Z</time>
      </trkpt>
      <trkpt lat="42.3496890" lon="-6.4319520">
        <ele>1662.3</ele>
        <time>2014-10-01T08:16:40Z</time>
      </trkpt>
      <trkpt lat="42.3496060" lon="-6.4320990">
        <ele>1660.4</ele>
        <time>2014-10-01T08:16:41Z</time>
      </trkpt>
      <trkpt lat="42.3495270" lon="-6.4322570">
        <ele>1658.8</ele>
        <time>2014-10-01T08:16:42Z</time>
      </trkpt>
      <trkpt lat="42.3494510" lon="-6.4324240">
        <ele>1657.5</ele>
        <time>2014-10-01T08:16:43Z</time>
      </trkpt>
      <trkpt lat="42.3494030" lon="-6.4326100">
        <ele>1656.3</ele>
        <time>2014-10-01T08:16:44Z</time>
      </trkpt>
      <trkpt lat="42.3493620" lon="-6.4328040">
        <ele>1655.1</ele>
        <time>2014-10-01T08:16:45Z</time>
      </trkpt>
      <trkpt lat="42.3493330" lon="-6.4329910">
        <ele>1653.9</ele>
        <time>2014-10-01T08:16:46Z</time>
      </trkpt>
      <trkpt lat="42.3493140" lon="-6.4331810">
        <ele>1652.6</ele>
        <time>2014-10-01T08:16:47Z</time>
      </trkpt>
      <trkpt lat="42.3493070" lon="-6.4333820">
        <ele>1651.2</ele>
        <time>2014-10-01T08:16:48Z</time>
      </trkpt>
      <trkpt lat="42.3493070" lon="-6.4335880">
        <ele>1649.7</ele>
        <time>2014-10-01T08:16:49Z</time>
      </trkpt>
      <trkpt lat="42.3493050" lon="-6.4338050">
        <ele>1648.3</ele>
        <time>2014-10-01T08:16:50Z</time>
      </trkpt>
      <trkpt lat="42.3493040" lon="-6.4340090">
        <ele>1647.0</ele>
        <time>2014-10-01T08:16:51Z</time>
      </trkpt>
      <trkpt lat="42.3493080" lon="-6.4342150">
        <ele>1645.6</ele>
        <time>2014-10-01T08:16:52Z</time>
      </trkpt>
      <trkpt lat="42.3493050" lon="-6.4344190">
        <ele>1644.4</ele>
        <time>2014-10-01T08:16:53Z</time>
      </trkpt>
      <trkpt lat="42.3493000" lon="-6.4346330">
        <ele>1643.0</ele>
        <time>2014-10-01T08:16:54Z</time>
      </trkpt>
      <trkpt lat="42.3492970" lon="-6.4348370">
        <ele>1641.7</ele>
        <time>2014-10-01T08:16:55Z</time>
      </trkpt>
      <trkpt lat="42.3493020" lon="-6.4350370">
        <ele>1640.6</ele>
        <time>2014-10-01T08:16:56Z</time>
      </trkpt>
      <trkpt lat="42.3493170" lon="-6.4352410">
        <ele>1639.1</ele>
        <time>2014-10-01T08:16:57Z</time>
      </trkpt>
      <trkpt lat="42.3493250" lon="-6.4354310">
        <ele>1637.7</ele>
        <time>2014-10-01T08:16:58Z</time>
      </trkpt>
      <trkpt lat="42.3493280" lon="-6.4356270">
        <ele>1636.4</ele>
        <time>2014-10-01T08:16:59Z</time>
      </trkpt>
      <trkpt lat="42.3492930" lon="-6.4358130">
        <ele>1634.9</ele>
        <time>2014-10-01T08:17:00Z</time>
      </trkpt>
      <trkpt lat="42.3492560" lon="-6.4359950">
        <ele>1633.6</ele>
        <time>2014-10-01T08:17:01Z</time>
      </trkpt>
      <trkpt lat="42.3492220" lon="-6.4361640">
        <ele>1632.4</ele>
        <time>2014-10-01T08:17:02Z</time>
      </trkpt>
      <trkpt lat="42.3491110" lon="-6.4363050">
        <ele>1631.2</ele>
        <time>2014-10-01T08:17:03Z</time>
      </trkpt>
      <trkpt lat="42.3489890" lon="-6.4364370">
        <ele>1629.9</ele>
        <time>2014-10-01T08:17:04Z</time>
      </trkpt>
      <trkpt lat="42.3488520" lon="-6.4365520">
        <ele>1628.6</ele>
        <time>2014-10-01T08:17:05Z</time>
      </trkpt>
      <trkpt lat="42.3487160" lon="-6.4366540">
        <ele>1627.4</ele>
        <time>2014-10-01T08:17:06Z</time>
      </trkpt>
      <trkpt lat="42.3485960" lon="-6.4367460">
        <ele>1626.0</ele>
        <time>2014-10-01T08:17:07Z</time>
      </trkpt>
      <trkpt lat="42.3484880" lon="-6.4368260">
        <ele>1624.7</ele>
        <time>2014-10-01T08:17:08Z</time>
      </trkpt>
      <trkpt lat="42.3483770" lon="-6.4369050">
        <ele>1623.4</ele>
        <time>2014-10-01T08:17:09Z</time>
      </trkpt>
      <trkpt lat="42.3482860" lon="-6.4370490">
        <ele>1621.9</ele>
        <time>2014-10-01T08:17:10Z</time>
      </trkpt>
      <trkpt lat="42.3482500" lon="-6.4372310">
        <ele>1620.5</ele>
        <time>2014-10-01T08:17:11Z</time>
      </trkpt>
      <trkpt lat="42.3482190" lon="-6.4374330">
        <ele>1619.1</ele>
        <time>2014-10-01T08:17:12Z</time>
      </trkpt>
      <trkpt lat="42.3482310" lon="-6.4376190">
        <ele>1617.7</ele>
        <time>2014-10-01T08:17:13Z</time>
      </trkpt>
      <trkpt lat="42.3482470" lon="-6.4378120">
        <ele>1616.2</ele>
        <time>2014-10-01T08:17:14Z</time>
      </trkpt>
      <trkpt lat="42.3482640" lon="-6.4380030">
        <ele>1614.6</ele>
        <time>2014-10-01T08:17:15Z</time>
      </trkpt>
      <trkpt lat="42.3482810" lon="-6.4382180">
        <ele>1612.7</ele>
        <time>2014-10-01T08:17:16Z</time>
      </trkpt>
      <trkpt lat="42.3483100" lon="-6.4384210">
        <ele>1610.9</ele>
        <time>2014-10-01T08:17:17Z</time>
      </trkpt>
      <trkpt lat="42.3483570" lon="-6.4386040">
        <ele>1609.6</ele>
        <time>2014-10-01T08:17:18Z</time>
      </trkpt>
      <trkpt lat="42.3484370" lon="-6.4387940">
        <ele>1608.0</ele>
        <time>2014-10-01T08:17:19Z</time>
      </trkpt>
      <trkpt lat="42.3485150" lon="-6.4389860">
        <ele>1606.5</ele>
        <time>2014-10-01T08:17:20Z</time>
      </trkpt>
      <trkpt lat="42.3485880" lon="-6.4391750">
        <ele>1605.0</ele>
        <time>2014-10-01T08:17:21Z</time>
      </trkpt>
      <trkpt lat="42.3486580" lon="-6.4393450">
        <ele>1603.5</ele>
        <time>2014-10-01T08:17:22Z</time>
      </trkpt>
      <trkpt lat="42.3487370" lon="-6.4395110">
        <ele>1602.0</ele>
        <time>2014-10-01T08:17:23Z</time>
      </trkpt>
      <trkpt lat="42.3488280" lon="-6.4396680">
        <ele>1600.5</ele>
        <time>2014-10-01T08:17:24Z</time>
      </trkpt>
      <trkpt lat="42.3489240" lon="-6.4398260">
        <ele>1599.0</ele>
        <time>2014-10-01T08:17:25Z</time>
      </trkpt>
      <trkpt lat="42.3490210" lon="-6.4399800">
        <ele>1597.6</ele>
        <time>2014-10-01T08:17:26Z</time>
      </trkpt>
      <trkpt lat="42.3491190" lon="-6.4401310">
        <ele>1596.2</ele>
        <time>2014-10-01T08:17:27Z</time>
      </trkpt>
      <trkpt lat="42.3492250" lon="-6.4402750">
        <ele>1594.8</ele>
        <time>2014-10-01T08:17:28Z</time>
      </trkpt>
      <trkpt lat="42.3493420" lon="-6.4404210">
        <ele>1593.2</ele>
        <time>2014-10-01T08:17:29Z</time>
      </trkpt>
      <trkpt lat="42.3494660" lon="-6.4405640">
        <ele>1591.5</ele>
        <time>2014-10-01T08:17:30Z</time>
      </trkpt>
      <trkpt lat="42.3495890" lon="-6.4406970">
        <ele>1589.9</ele>
        <time>2014-10-01T08:17:31Z</time>
      </trkpt>
      <trkpt lat="42.3497140" lon="-6.4408270">
        <ele>1588.4</ele>
        <time>2014-10-01T08:17:32Z</time>
      </trkpt>
      <trkpt lat="42.3498430" lon="-6.4409560">
        <ele>1586.8</ele>
        <time>2014-10-01T08:17:33Z</time>
      </trkpt>
      <trkpt lat="42.3499720" lon="-6.4410840">
        <ele>1585.2</ele>
        <time>2014-10-01T08:17:34Z</time>
      </trkpt>
      <trkpt lat="42.3501080" lon="-6.4412060">
        <ele>1583.7</ele>
        <time>2014-10-01T08:17:35Z</time>
      </trkpt>
      <trkpt lat="42.3502460" lon="-6.4413240">
        <ele>1581.8</ele>
        <time>2014-10-01T08:17:36Z</time>
      </trkpt>
      <trkpt lat="42.3503830" lon="-6.4414310">
        <ele>1580.3</ele>
        <time>2014-10-01T08:17:37Z</time>
      </trkpt>
      <trkpt lat="42.3505200" lon="-6.4415320">
        <ele>1578.8</ele>
        <time>2014-10-01T08:17:38Z</time>
      </trkpt>
      <trkpt lat="42.3506630" lon="-6.4416290">
        <ele>1577.3</ele>
        <time>2014-10-01T08:17:39Z</time>
      </trkpt>
      <trkpt lat="42.3508080" lon="-6.4417230">
        <ele>1575.7</ele>
        <time>2014-10-01T08:17:40Z</time>
      </trkpt>
      <trkpt lat="42.3509530" lon="-6.4418120">
        <ele>1574.2</ele>
        <time>2014-10-01T08:17:41Z</time>
      </trkpt>
      <trkpt lat="42.3511020" lon="-6.4418980">
        <ele>1572.7</ele>
        <time>2014-10-01T08:17:42Z</time>
      </trkpt>
      <trkpt lat="42.3512470" lon="-6.4419790">
        <ele>1571.2</ele>
        <time>2014-10-01T08:17:43Z</time>
      </trkpt>
      <trkpt lat="42.3513930" lon="-6.4420550">
        <ele>1569.7</ele>
        <time>2014-10-01T08:17:44Z</time>
      </trkpt>
      <trkpt lat="42.3515470" lon="-6.4421060">
        <ele>1568.2</ele>
        <time>2014-10-01T08:17:45Z</time>
      </trkpt>
      <trkpt lat="42.3516920" lon="-6.4421560">
        <ele>1566.8</ele>
        <time>2014-10-01T08:17:46Z</time>
      </trkpt>
      <trkpt lat="42.3518130" lon="-6.4422020">
        <ele>1565.7</ele>
        <time>2014-10-01T08:17:47Z</time>
      </trkpt>
      <trkpt lat="42.3519220" lon="-6.4422500">
        <ele>1564.5</ele>
        <time>2014-10-01T08:17:48Z</time>
      </trkpt>
      <trkpt lat="42.3519950" lon="-6.4423170">
        <ele>1563.5</ele>
        <time>2014-10-01T08:17:49Z</time>
      </trkpt>
      <trkpt lat="42.3520410" lon="-6.4424160">
        <ele>1562.4</ele>
        <time>2014-10-01T08:17:50Z</time>
      </trkpt>
      <trkpt lat="42.3520470" lon="-6.4425410">
        <ele>1561.1</ele>
        <time>2014-10-01T08:17:51Z</time>
      </trkpt>
      <trkpt lat="42.3520140" lon="-6.4426400">
        <ele>1560.0</ele>
        <time>2014-10-01T08:17:52Z</time>
      </trkpt>
      <trkpt lat="42.3519500" lon="-6.4426840">
        <ele>1559.1</ele>
        <time>2014-10-01T08:17:53Z</time>
      </trkpt>
      <trkpt lat="42.3518710" lon="-6.4427110">
        <ele>1558.1</ele>
        <time>2014-10-01T08:17:54Z</time>
      </trkpt>
      <trkpt lat="42.3517850" lon="-6.4426910">
        <ele>1557.2</ele>
        <time>2014-10-01T08:17:55Z</time>
      </trkpt>
      <trkpt lat="42.3516990" lon="-6.4426660">
        <ele>1556.2</ele>
        <time>2014-10-01T08:17:56Z</time>
      </trkpt>
      <trkpt lat="42.3515980" lon="-6.4426340">
        <ele>1555.1</ele>
        <time>2014-10-01T08:17:57Z</time>
      </trkpt>
      <trkpt lat="42.3514900" lon="-6.4426050">
        <ele>1553.9</ele>
        <time>2014-10-01T08:17:58Z</time>
      </trkpt>
      <trkpt lat="42.3513740" lon="-6.4425830">
        <ele>1552.7</ele>
        <time>2014-10-01T08:17:59Z</time>
      </trkpt>
      <trkpt lat="42.3512580" lon="-6.4425680">
        <ele>1551.5</ele>
        <time>2014-10-01T08:18:00Z</time>
      </trkpt>
      <trkpt lat="42.3511460" lon="-6.4425560">
        <ele>1550.3</ele>
        <time>2014-10-01T08:18:01Z</time>
      </trkpt>
      <trkpt lat="42.3510270" lon="-6.4425480">
        <ele>1549.1</ele>
        <time>2014-10-01T08:18:02Z</time>
      </trkpt>
      <trkpt lat="42.3509030" lon="-6.4425420">
        <ele>1547.8</ele>
        <time>2014-10-01T08:18:03Z</time>
      </trkpt>
      <trkpt lat="42.3507690" lon="-6.4425400">
        <ele>1546.4</ele>
        <time>2014-10-01T08:18:04Z</time>
      </trkpt>
      <trkpt lat="42.3506270" lon="-6.4425380">
        <ele>1544.8</ele>
        <time>2014-10-01T08:18:05Z</time>
      </trkpt>
      <trkpt lat="42.3504850" lon="-6.4425350">
        <ele>1543.5</ele>
        <time>2014-10-01T08:18:06Z</time>
      </trkpt>
      <trkpt lat="42.3503430" lon="-6.4425320">
        <ele>1542.1</ele>
        <time>2014-10-01T08:18:07Z</time>
      </trkpt>
      <trkpt lat="42.3501980" lon="-6.4425210">
        <ele>1540.7</ele>
        <time>2014-10-01T08:18:08Z</time>
      </trkpt>
      <trkpt lat="42.3500550" lon="-6.4425060">
        <ele>1539.2</ele>
        <time>2014-10-01T08:18:09Z</time>
      </trkpt>
      <trkpt lat="42.3499010" lon="-6.4424910">
        <ele>1537.5</ele>
        <time>2014-10-01T08:18:10Z</time>
      </trkpt>
      <trkpt lat="42.3497470" lon="-6.4424680">
        <ele>1536.0</ele>
        <time>2014-10-01T08:18:11Z</time>
      </trkpt>
      <trkpt lat="42.3495920" lon="-6.4424400">
        <ele>1534.4</ele>
        <time>2014-10-01T08:18:12Z</time>
      </trkpt>
      <trkpt lat="42.3494340" lon="-6.4424030">
        <ele>1532.8</ele>
        <time>2014-10-01T08:18:13Z</time>
      </trkpt>
      <trkpt lat="42.3492830" lon="-6.4423600">
        <ele>1531.3</ele>
        <time>2014-10-01T08:18:14Z</time>
      </trkpt>
      <trkpt lat="42.3491290" lon="-6.4423130">
        <ele>1529.7</ele>
        <time>2014-10-01T08:18:15Z</time>
      </trkpt>
      <trkpt lat="42.3489840" lon="-6.4422660">
        <ele>1528.3</ele>
        <time>2014-10-01T08:18:16Z</time>
      </trkpt>
      <trkpt lat="42.3488390" lon="-6.4422140">
        <ele>1526.9</ele>
        <time>2014-10-01T08:18:17Z</time>
      </trkpt>
      <trkpt lat="42.3486900" lon="-6.4421570">
        <ele>1525.4</ele>
        <time>2014-10-01T08:18:18Z</time>
      </trkpt>
      <trkpt lat="42.3485430" lon="-6.4421060">
        <ele>1524.0</ele>
        <time>2014-10-01T08:18:19Z</time>
      </trkpt>
      <trkpt lat="42.3483950" lon="-6.4420560">
        <ele>1522.4</ele>
        <time>2014-10-01T08:18:20Z</time>
      </trkpt>
      <trkpt lat="42.3482380" lon="-6.4420100">
        <ele>1520.9</ele>
        <time>2014-10-01T08:18:21Z</time>
      </trkpt>
      <trkpt lat="42.3480800" lon="-6.4419550">
        <ele>1519.5</ele>
        <time>2014-10-01T08:18:22Z</time>
      </trkpt>
      <trkpt lat="42.3479270" lon="-6.4418890">
        <ele>1518.1</ele>
        <time>2014-10-01T08:18:23Z</time>
      </trkpt>
      <trkpt lat="42.3477860" lon="-6.4418120">
        <ele>1516.6</ele>
        <time>2014-10-01T08:18:24Z</time>
      </trkpt>
      <trkpt lat="42.3476530" lon="-6.4417230">
        <ele>1515.0</ele>
        <time>2014-10-01T08:18:25Z</time>
      </trkpt>
      <trkpt lat="42.3475210" lon="-6.4416250">
        <ele>1513.3</ele>
        <time>2014-10-01T08:18:26Z</time>
      </trkpt>
      <trkpt lat="42.3473870" lon="-6.4415160">
        <ele>1511.4</ele>
        <time>2014-10-01T08:18:27Z</time>
      </trkpt>
      <trkpt lat="42.3472510" lon="-6.4414000">
        <ele>1509.5</ele>
        <time>2014-10-01T08:18:28Z</time>
      </trkpt>
      <trkpt lat="42.3471130" lon="-6.4412780">
        <ele>1507.7</ele>
        <time>2014-10-01T08:18:29Z</time>
      </trkpt>
      <trkpt lat="42.3469780" lon="-6.4411520">
        <ele>1506.0</ele>
        <time>2014-10-01T08:18:30Z</time>
      </trkpt>
      <trkpt lat="42.3468470" lon="-6.4410210">
        <ele>1504.2</ele>
        <time>2014-10-01T08:18:31Z</time>
      </trkpt>
      <trkpt lat="42.3467180" lon="-6.4408880">
        <ele>1502.6</ele>
        <time>2014-10-01T08:18:32Z</time>
      </trkpt>
      <trkpt lat="42.3465950" lon="-6.4407580">
        <ele>1501.0</ele>
        <time>2014-10-01T08:18:33Z</time>
      </trkpt>
      <trkpt lat="42.3464700" lon="-6.4406270">
        <ele>1499.4</ele>
        <time>2014-10-01T08:18:34Z</time>
      </trkpt>
      <trkpt lat="42.3463460" lon="-6.4404920">
        <ele>1497.8</ele>
        <time>2014-10-01T08:18:35Z</time>
      </trkpt>
      <trkpt lat="42.3462230" lon="-6.4403570">
        <ele>1496.3</ele>
        <time>2014-10-01T08:18:36Z</time>
      </trkpt>
      <trkpt lat="42.3461000" lon="-6.4402220">
        <ele>1494.9</ele>
        <time>2014-10-01T08:18:37Z</time>
      </trkpt>
      <trkpt lat="42.3459860" lon="-6.4400720">
        <ele>1493.4</ele>
        <time>2014-10-01T08:18:38Z</time>
      </trkpt>
      <trkpt lat="42.3458590" lon="-6.4399410">
        <ele>1491.8</ele>
        <time>2014-10-01T08:18:39Z</time>
      </trkpt>
      <trkpt lat="42.3457290" lon="-6.4398110">
        <ele>1490.2</ele>
        <time>2014-10-01T08:18:40Z</time>
      </trkpt>
      <trkpt lat="42.3456010" lon="-6.4396870">
        <ele>1488.7</ele>
        <time>2014-10-01T08:18:41Z</time>
      </trkpt>
      <trkpt lat="42.3454780" lon="-6.4395550">
        <ele>1487.2</ele>
        <time>2014-10-01T08:18:42Z</time>
      </trkpt>
      <trkpt lat="42.3453640" lon="-6.4394240">
        <ele>1485.8</ele>
        <time>2014-10-01T08:18:43Z</time>
      </trkpt>
      <trkpt lat="42.3452550" lon="-6.4392900">
        <ele>1484.3</ele>
        <time>2014-10-01T08:18:44Z</time>
      </trkpt>
      <trkpt lat="42.3451490" lon="-6.4391520">
        <ele>1482.8</ele>
        <time>2014-10-01T08:18:45Z</time>
      </trkpt>
      <trkpt lat="42.3450420" lon="-6.4390020">
        <ele>1481.1</ele>
        <time>2014-10-01T08:18:46Z</time>
      </trkpt>
      <trkpt lat="42.3449380" lon="-6.4388450">
        <ele>1479.4</ele>
        <time>2014-10-01T08:18:47Z</time>
      </trkpt>
      <trkpt lat="42.3448390" lon="-6.4386840">
        <ele>1477.8</ele>
        <time>2014-10-01T08:18:48Z</time>
      </trkpt>
      <trkpt lat="42.3447430" lon="-6.4385140">
        <ele>1476.0</ele>
        <time>2014-10-01T08:18:49Z</time>
      </trkpt>
      <trkpt lat="42.3446510" lon="-6.4383380">
        <ele>1474.2</ele>
        <time>2014-10-01T08:18:50Z</time>
      </trkpt>
      <trkpt lat="42.3445660" lon="-6.4381570">
        <ele>1472.5</ele>
        <time>2014-10-01T08:18:51Z</time>
      </trkpt>
      <trkpt lat="42.3444880" lon="-6.4379750">
        <ele>1470.8</ele>
        <time>2014-10-01T08:18:52Z</time>
      </trkpt>
      <trkpt lat="42.3444140" lon="-6.4377800">
        <ele>1469.0</ele>
        <time>2014-10-01T08:18:53Z</time>
      </trkpt>
      <trkpt lat="42.3443470" lon="-6.4375720">
        <ele>1467.1</ele>
        <time>2014-10-01T08:18:54Z</time>
      </trkpt>
      <trkpt lat="42.3442830" lon="-6.4373570">
        <ele>1465.3</ele>
        <time>2014-10-01T08:18:55Z</time>
      </trkpt>
      <trkpt lat="42.3442250" lon="-6.4371390">
        <ele>1463.6</ele>
        <time>2014-10-01T08:18:56Z</time>
      </trkpt>
      <trkpt lat="42.3441780" lon="-6.4369100">
        <ele>1461.7</ele>
        <time>2014-10-01T08:18:57Z</time>
      </trkpt>
      <trkpt lat="42.3441430" lon="-6.4366790">
        <ele>1459.8</ele>
        <time>2014-10-01T08:18:58Z</time>
      </trkpt>
      <trkpt lat="42.3441160" lon="-6.4364520">
        <ele>1457.9</ele>
        <time>2014-10-01T08:18:59Z</time>
      </trkpt>
      <trkpt lat="42.3440910" lon="-6.4362230">
        <ele>1456.2</ele>
        <time>2014-10-01T08:19:00Z</time>
      </trkpt>
      <trkpt lat="42.3440670" lon="-6.4360070">
        <ele>1454.8</ele>
        <time>2014-10-01T08:19:01Z</time>
      </trkpt>
      <trkpt lat="42.3440330" lon="-6.4358010">
        <ele>1453.4</ele>
        <time>2014-10-01T08:19:02Z</time>
      </trkpt>
      <trkpt lat="42.3439550" lon="-6.4356250">
        <ele>1452.0</ele>
        <time>2014-10-01T08:19:03Z</time>
      </trkpt>
      <trkpt lat="42.3438800" lon="-6.4354430">
        <ele>1450.6</ele>
        <time>2014-10-01T08:19:04Z</time>
      </trkpt>
      <trkpt lat="42.3437750" lon="-6.4353290">
        <ele>1449.3</ele>
        <time>2014-10-01T08:19:05Z</time>
      </trkpt>
      <trkpt lat="42.3436740" lon="-6.4352320">
        <ele>1448.1</ele>
        <time>2014-10-01T08:19:06Z</time>
      </trkpt>
      <trkpt lat="42.3435620" lon="-6.4351190">
        <ele>1446.7</ele>
        <time>2014-10-01T08:19:07Z</time>
      </trkpt>
      <trkpt lat="42.3434510" lon="-6.4350010">
        <ele>1445.3</ele>
        <time>2014-10-01T08:19:08Z</time>
      </trkpt>
      <trkpt lat="42.3433390" lon="-6.4348910">
        <ele>1443.9</ele>
        <time>2014-10-01T08:19:09Z</time>
      </trkpt>
      <trkpt lat="42.3432180" lon="-6.4347920">
        <ele>1442.5</ele>
        <time>2014-10-01T08:19:10Z</time>
      </trkpt>
      <trkpt lat="42.3430790" lon="-6.4347270">
        <ele>1441.2</ele>
        <time>2014-10-01T08:19:11Z</time>
      </trkpt>
      <trkpt lat="42.3429330" lon="-6.4346640">
        <ele>1439.9</ele>
        <time>2014-10-01T08:19:12Z</time>
      </trkpt>
      <trkpt lat="42.3427870" lon="-6.4346090">
        <ele>1438.6</ele>
        <time>2014-10-01T08:19:13Z</time>
      </trkpt>
      <trkpt lat="42.3426390" lon="-6.4345600">
        <ele>1437.3</ele>
        <time>2014-10-01T08:19:14Z</time>
      </trkpt>
      <trkpt lat="42.3424920" lon="-6.4345130">
        <ele>1436.0</ele>
        <time>2014-10-01T08:19:15Z</time>
      </trkpt>
      <trkpt lat="42.3423410" lon="-6.4344680">
        <ele>1434.7</ele>
        <time>2014-10-01T08:19:16Z</time>
      </trkpt>
      <trkpt lat="42.3421870" lon="-6.4344300">
        <ele>1433.4</ele>
        <time>2014-10-01T08:19:17Z</time>
      </trkpt>
      <trkpt lat="42.3420370" lon="-6.4343900">
        <ele>1431.9</ele>
        <time>2014-10-01T08:19:18Z</time>
      </trkpt>
      <trkpt lat="42.3418820" lon="-6.4343580">
        <ele>1430.5</ele>
        <time>2014-10-01T08:19:19Z</time>
      </trkpt>
      <trkpt lat="42.3417300" lon="-6.4343090">
        <ele>1428.9</ele>
        <time>2014-10-01T08:19:20Z</time>
      </trkpt>
      <trkpt lat="42.3415810" lon="-6.4342580">
        <ele>1427.3</ele>
        <time>2014-10-01T08:19:21Z</time>
      </trkpt>
      <trkpt lat="42.3414300" lon="-6.4342090">
        <ele>1425.8</ele>
        <time>2014-10-01T08:19:22Z</time>
      </trkpt>
      <trkpt lat="42.3412790" lon="-6.4341600">
        <ele>1424.4</ele>
        <time>2014-10-01T08:19:23Z</time>
      </trkpt>
      <trkpt lat="42.3411290" lon="-6.4340970">
        <ele>1423.0</ele>
        <time>2014-10-01T08:19:24Z</time>
      </trkpt>
      <trkpt lat="42.3409860" lon="-6.4340210">
        <ele>1421.7</ele>
        <time>2014-10-01T08:19:25Z</time>
      </trkpt>
      <trkpt lat="42.3408470" lon="-6.4339220">
        <ele>1420.3</ele>
        <time>2014-10-01T08:19:26Z</time>
      </trkpt>
      <trkpt lat="42.3407140" lon="-6.4338170">
        <ele>1418.9</ele>
        <time>2014-10-01T08:19:27Z</time>
      </trkpt>
      <trkpt lat="42.3405840" lon="-6.4337050">
        <ele>1417.3</ele>
        <time>2014-10-01T08:19:28Z</time>
      </trkpt>
      <trkpt lat="42.3404560" lon="-6.4335890">
        <ele>1415.7</ele>
        <time>2014-10-01T08:19:29Z</time>
      </trkpt>
      <trkpt lat="42.3403270" lon="-6.4334730">
        <ele>1414.1</ele>
        <time>2014-10-01T08:19:30Z</time>
      </trkpt>
      <trkpt lat="42.3401970" lon="-6.4333590">
        <ele>1412.6</ele>
        <time>2014-10-01T08:19:31Z</time>
      </trkpt>
      <trkpt lat="42.3400630" lon="-6.4332590">
        <ele>1410.9</ele>
        <time>2014-10-01T08:19:32Z</time>
      </trkpt>
      <trkpt lat="42.3399200" lon="-6.4331710">
        <ele>1409.2</ele>
        <time>2014-10-01T08:19:33Z</time>
      </trkpt>
      <trkpt lat="42.3397740" lon="-6.4330960">
        <ele>1407.5</ele>
        <time>2014-10-01T08:19:34Z</time>
      </trkpt>
      <trkpt lat="42.3396220" lon="-6.4330310">
        <ele>1405.7</ele>
        <time>2014-10-01T08:19:35Z</time>
      </trkpt>
      <trkpt lat="42.3394690" lon="-6.4329760">
        <ele>1404.0</ele>
        <time>2014-10-01T08:19:36Z</time>
      </trkpt>
      <trkpt lat="42.3393130" lon="-6.4329280">
        <ele>1402.4</ele>
        <time>2014-10-01T08:19:37Z</time>
      </trkpt>
      <trkpt lat="42.3391590" lon="-6.4328870">
        <ele>1400.9</ele>
        <time>2014-10-01T08:19:38Z</time>
      </trkpt>
      <trkpt lat="42.3390030" lon="-6.4328500">
        <ele>1399.4</ele>
        <time>2014-10-01T08:19:39Z</time>
      </trkpt>
      <trkpt lat="42.3388460" lon="-6.4328130">
        <ele>1397.8</ele>
        <time>2014-10-01T08:19:40Z</time>
      </trkpt>
      <trkpt lat="42.3386860" lon="-6.4327790">
        <ele>1396.2</ele>
        <time>2014-10-01T08:19:41Z</time>
      </trkpt>
      <trkpt lat="42.3385250" lon="-6.4327440">
        <ele>1394.6</ele>
        <time>2014-10-01T08:19:42Z</time>
      </trkpt>
      <trkpt lat="42.3383640" lon="-6.4327140">
        <ele>1393.1</ele>
        <time>2014-10-01T08:19:43Z</time>
      </trkpt>
      <trkpt lat="42.3382050" lon="-6.4326820">
        <ele>1391.5</ele>
        <time>2014-10-01T08:19:44Z</time>
      </trkpt>
      <trkpt lat="42.3380450" lon="-6.4326550">
        <ele>1389.9</ele>
        <time>2014-10-01T08:19:45Z</time>
      </trkpt>
      <trkpt lat="42.3378850" lon="-6.4326300">
        <ele>1388.4</ele>
        <time>2014-10-01T08:19:46Z</time>
      </trkpt>
      <trkpt lat="42.3377240" lon="-6.4326120">
        <ele>1387.0</ele>
        <time>2014-10-01T08:19:47Z</time>
      </trkpt>
      <trkpt lat="42.3375620" lon="-6.4325930">
        <ele>1385.7</ele>
        <time>2014-10-01T08:19:48Z</time>
      </trkpt>
      <trkpt lat="42.3374020" lon="-6.4325730">
        <ele>1384.6</ele>
        <time>2014-10-01T08:19:49Z</time>
      </trkpt>
      <trkpt lat="42.3372480" lon="-6.4325530">
        <ele>1383.7</ele>
        <time>2014-10-01T08:19:50Z</time>
      </trkpt>
      <trkpt lat="42.3370950" lon="-6.4325320">
        <ele>1382.8</ele>
        <time>2014-10-01T08:19:51Z</time>
      </trkpt>
      <trkpt lat="42.3369430" lon="-6.4325050">
        <ele>1382.0</ele>
        <time>2014-10-01T08:19:52Z</time>
      </trkpt>
      <trkpt lat="42.3367920" lon="-6.4324730">
        <ele>1381.3</ele>
        <time>2014-10-01T08:19:53Z</time>
      </trkpt>
      <trkpt lat="42.3366410" lon="-6.4324320">
        <ele>1380.6</ele>
        <time>2014-10-01T08:19:54Z</time>
      </trkpt>
      <trkpt lat="42.3365020" lon="-6.4323800">
        <ele>1379.9</ele>
        <time>2014-10-01T08:19:55Z</time>
      </trkpt>
      <trkpt lat="42.3363690" lon="-6.4323120">
        <ele>1379.3</ele>
        <time>2014-10-01T08:19:56Z</time>
      </trkpt>
      <trkpt lat="42.3362510" lon="-6.4322030">
        <ele>1378.7</ele>
        <time>2014-10-01T08:19:57Z</time>
      </trkpt>
      <trkpt lat="42.3361380" lon="-6.4320960">
        <ele>1378.2</ele>
        <time>2014-10-01T08:19:58Z</time>
      </trkpt>
      <trkpt lat="42.3360300" lon="-6.4319830">
        <ele>1377.6</ele>
        <time>2014-10-01T08:19:59Z</time>
      </trkpt>
      <trkpt lat="42.3359260" lon="-6.4318760">
        <ele>1377.1</ele>
        <time>2014-10-01T08:20:00Z</time>
      </trkpt>
      <trkpt lat="42.3358250" lon="-6.4317660">
        <ele>1376.5</ele>
        <time>2014-10-01T08:20:01Z</time>
      </trkpt>
      <trkpt lat="42.3357190" lon="-6.4316520">
        <ele>1375.8</ele>
        <time>2014-10-01T08:20:02Z</time>
      </trkpt>
      <trkpt lat="42.3356180" lon="-6.4315450">
        <ele>1375.2</ele>
        <time>2014-10-01T08:20:03Z</time>
      </trkpt>
      <trkpt lat="42.3355170" lon="-6.4314420">
        <ele>1374.6</ele>
        <time>2014-10-01T08:20:04Z</time>
      </trkpt>
      <trkpt lat="42.3354220" lon="-6.4313410">
        <ele>1374.0</ele>
        <time>2014-10-01T08:20:05Z</time>
      </trkpt>
      <trkpt lat="42.3353270" lon="-6.4312430">
        <ele>1373.4</ele>
        <time>2014-10-01T08:20:06Z</time>
      </trkpt>
      <trkpt lat="42.3352310" lon="-6.4311440">
        <ele>1372.7</ele>
        <time>2014-10-01T08:20:07Z</time>
      </trkpt>
      <trkpt lat="42.3351340" lon="-6.4310460">
        <ele>1372.1</ele>
        <time>2014-10-01T08:20:08Z</time>
      </trkpt>
      <trkpt lat="42.3350390" lon="-6.4309500">
        <ele>1371.5</ele>
        <time>2014-10-01T08:20:09Z</time>
      </trkpt>
      <trkpt lat="42.3349450" lon="-6.4308530">
        <ele>1370.8</ele>
        <time>2014-10-01T08:20:10Z</time>
      </trkpt>
      <trkpt lat="42.3348480" lon="-6.4307510">
        <ele>1370.1</ele>
        <time>2014-10-01T08:20:11Z</time>
      </trkpt>
      <trkpt lat="42.3347570" lon="-6.4306570">
        <ele>1369.3</ele>
        <time>2014-10-01T08:20:12Z</time>
      </trkpt>
      <trkpt lat="42.3346630" lon="-6.4305610">
        <ele>1368.6</ele>
        <time>2014-10-01T08:20:13Z</time>
      </trkpt>
      <trkpt lat="42.3345660" lon="-6.4304600">
        <ele>1367.8</ele>
        <time>2014-10-01T08:20:14Z</time>
      </trkpt>
      <trkpt lat="42.3344700" lon="-6.4303600">
        <ele>1367.0</ele>
        <time>2014-10-01T08:20:15Z</time>
      </trkpt>
      <trkpt lat="42.3343740" lon="-6.4302540">
        <ele>1366.2</ele>
        <time>2014-10-01T08:20:16Z</time>
      </trkpt>
      <trkpt lat="42.3342770" lon="-6.4301450">
        <ele>1365.3</ele>
        <time>2014-10-01T08:20:17Z</time>
      </trkpt>
      <trkpt lat="42.3341830" lon="-6.4300310">
        <ele>1364.5</ele>
        <time>2014-10-01T08:20:18Z</time>
      </trkpt>
      <trkpt lat="42.3340860" lon="-6.4299130">
        <ele>1363.7</ele>
        <time>2014-10-01T08:20:19Z</time>
      </trkpt>
      <trkpt lat="42.3339930" lon="-6.4297940">
        <ele>1363.0</ele>
        <time>2014-10-01T08:20:20Z</time>
      </trkpt>
      <trkpt lat="42.3339000" lon="-6.4296770">
        <ele>1362.2</ele>
        <time>2014-10-01T08:20:21Z</time>
      </trkpt>
      <trkpt lat="42.3338060" lon="-6.4295630">
        <ele>1361.4</ele>
        <time>2014-10-01T08:20:22Z</time>
      </trkpt>
      <trkpt lat="42.3337130" lon="-6.4294530">
        <ele>1360.5</ele>
        <time>2014-10-01T08:20:23Z</time>
      </trkpt>
      <trkpt lat="42.3336210" lon="-6.4293530">
        <ele>1359.7</ele>
        <time>2014-10-01T08:20:24Z</time>
      </trkpt>
      <trkpt lat="42.3335290" lon="-6.4292540">
        <ele>1359.0</ele>
        <time>2014-10-01T08:20:25Z</time>
      </trkpt>
      <trkpt lat="42.3334330" lon="-6.4291570">
        <ele>1358.3</ele>
        <time>2014-10-01T08:20:26Z</time>
      </trkpt>
      <trkpt lat="42.3333360" lon="-6.4290680">
        <ele>1357.6</ele>
        <time>2014-10-01T08:20:27Z</time>
      </trkpt>
      <trkpt lat="42.3332370" lon="-6.4289840">
        <ele>1357.0</ele>
        <time>2014-10-01T08:20:28Z</time>
      </trkpt>
      <trkpt lat="42.3331360" lon="-6.4289040">
        <ele>1356.4</ele>
        <time>2014-10-01T08:20:29Z</time>
      </trkpt>
      <trkpt lat="42.3330290" lon="-6.4288320">
        <ele>1355.9</ele>
        <time>2014-10-01T08:20:30Z</time>
      </trkpt>
      <trkpt lat="42.3329260" lon="-6.4287730">
        <ele>1355.4</ele>
        <time>2014-10-01T08:20:31Z</time>
      </trkpt>
      <trkpt lat="42.3328230" lon="-6.4287230">
        <ele>1355.0</ele>
        <time>2014-10-01T08:20:32Z</time>
      </trkpt>
      <trkpt lat="42.3327130" lon="-6.4286710">
        <ele>1354.4</ele>
        <time>2014-10-01T08:20:33Z</time>
      </trkpt>
      <trkpt lat="42.3326070" lon="-6.4286220">
        <ele>1353.9</ele>
        <time>2014-10-01T08:20:34Z</time>
      </trkpt>
      <trkpt lat="42.3325000" lon="-6.4285750">
        <ele>1353.3</ele>
        <time>2014-10-01T08:20:35Z</time>
      </trkpt>
      <trkpt lat="42.3323940" lon="-6.4285270">
        <ele>1352.7</ele>
        <time>2014-10-01T08:20:36Z</time>
      </trkpt>
      <trkpt lat="42.3322850" lon="-6.4284720">
        <ele>1352.1</ele>
        <time>2014-10-01T08:20:37Z</time>
      </trkpt>
      <trkpt lat="42.3321710" lon="-6.4284090">
        <ele>1351.4</ele>
        <time>2014-10-01T08:20:38Z</time>
      </trkpt>
      <trkpt lat="42.3320600" lon="-6.4283400">
        <ele>1350.8</ele>
        <time>2014-10-01T08:20:39Z</time>
      </trkpt>
      <trkpt lat="42.3319480" lon="-6.4282650">
        <ele>1350.2</ele>
        <time>2014-10-01T08:20:40Z</time>
      </trkpt>
      <trkpt lat="42.3318420" lon="-6.4281830">
        <ele>1349.6</ele>
        <time>2014-10-01T08:20:41Z</time>
      </trkpt>
      <trkpt lat="42.3317430" lon="-6.4280940">
        <ele>1349.0</ele>
        <time>2014-10-01T08:20:42Z</time>
      </trkpt>
      <trkpt lat="42.3316510" lon="-6.4280000">
        <ele>1348.4</ele>
        <time>2014-10-01T08:20:43Z</time>
      </trkpt>
      <trkpt lat="42.3315680" lon="-6.4279020">
        <ele>1347.8</ele>
        <time>2014-10-01T08:20:44Z</time>
      </trkpt>
      <trkpt lat="42.3314880" lon="-6.4277980">
        <ele>1347.1</ele>
        <time>2014-10-01T08:20:45Z</time>
      </trkpt>
      <trkpt lat="42.3314090" lon="-6.4276880">
        <ele>1346.3</ele>
        <time>2014-10-01T08:20:46Z</time>
      </trkpt>
      <trkpt lat="42.3313280" lon="-6.4275770">
        <ele>1345.5</ele>
        <time>2014-10-01T08:20:47Z</time>
      </trkpt>
      <trkpt lat="42.3312500" lon="-6.4274620">
        <ele>1344.8</ele>
        <time>2014-10-01T08:20:48Z</time>
      </trkpt>
      <trkpt lat="42.3311720" lon="-6.4273490">
        <ele>1344.1</ele>
        <time>2014-10-01T08:20:49Z</time>
      </trkpt>
      <trkpt lat="42.3310920" lon="-6.4272310">
        <ele>1343.3</ele>
        <time>2014-10-01T08:20:50Z</time>
      </trkpt>
      <trkpt lat="42.3310110" lon="-6.4271140">
        <ele>1342.6</ele>
        <time>2014-10-01T08:20:51Z</time>
      </trkpt>
      <trkpt lat="42.3309310" lon="-6.4269970">
        <ele>1342.0</ele>
        <time>2014-10-01T08:20:52Z</time>
      </trkpt>
      <trkpt lat="42.3308490" lon="-6.4268820">
        <ele>1341.4</ele>
        <time>2014-10-01T08:20:53Z</time>
      </trkpt>
      <trkpt lat="42.3307680" lon="-6.4267740">
        <ele>1340.8</ele>
        <time>2014-10-01T08:20:54Z</time>
      </trkpt>
      <trkpt lat="42.3306890" lon="-6.4266700">
        <ele>1340.3</ele>
        <time>2014-10-01T08:20:55Z</time>
      </trkpt>
      <trkpt lat="42.3306110" lon="-6.4265690">
        <ele>1339.8</ele>
        <time>2014-10-01T08:20:56Z</time>
      </trkpt>
      <trkpt lat="42.3305340" lon="-6.4264760">
        <ele>1339.2</ele>
        <time>2014-10-01T08:20:57Z</time>
      </trkpt>
      <trkpt lat="42.3304560" lon="-6.4263840">
        <ele>1338.7</ele>
        <time>2014-10-01T08:20:58Z</time>
      </trkpt>
      <trkpt lat="42.3303760" lon="-6.4262890">
        <ele>1338.2</ele>
        <time>2014-10-01T08:20:59Z</time>
      </trkpt>
      <trkpt lat="42.3302920" lon="-6.4261940">
        <ele>1337.8</ele>
        <time>2014-10-01T08:21:00Z</time>
      </trkpt>
      <trkpt lat="42.3302100" lon="-6.4261030">
        <ele>1337.3</ele>
        <time>2014-10-01T08:21:01Z</time>
      </trkpt>
      <trkpt lat="42.3301260" lon="-6.4260070">
        <ele>1336.8</ele>
        <time>2014-10-01T08:21:02Z</time>
      </trkpt>
      <trkpt lat="42.3300410" lon="-6.4259100">
        <ele>1336.3</ele>
        <time>2014-10-01T08:21:03Z</time>
      </trkpt>
      <trkpt lat="42.3299580" lon="-6.4258160">
        <ele>1335.8</ele>
        <time>2014-10-01T08:21:04Z</time>
      </trkpt>
      <trkpt lat="42.3298770" lon="-6.4257180">
        <ele>1335.4</ele>
        <time>2014-10-01T08:21:05Z</time>
      </trkpt>
      <trkpt lat="42.3297910" lon="-6.4256120">
        <ele>1334.8</ele>
        <time>2014-10-01T08:21:06Z</time>
      </trkpt>
      <trkpt lat="42.3297060" lon="-6.4255060">
        <ele>1334.3</ele>
        <time>2014-10-01T08:21:07Z</time>
      </trkpt>
      <trkpt lat="42.3296220" lon="-6.4254020">
        <ele>1333.8</ele>
        <time>2014-10-01T08:21:08Z</time>
      </trkpt>
      <trkpt lat="42.3295420" lon="-6.4252980">
        <ele>1333.3</ele>
        <time>2014-10-01T08:21:09Z</time>
      </trkpt>
      <trkpt lat="42.3294640" lon="-6.4251940">
        <ele>1332.7</ele>
        <time>2014-10-01T08:21:10Z</time>
      </trkpt>
      <trkpt lat="42.3293890" lon="-6.4250860">
        <ele>1332.1</ele>
        <time>2014-10-01T08:21:11Z</time>
      </trkpt>
      <trkpt lat="42.3293150" lon="-6.4249790">
        <ele>1331.5</ele>
        <time>2014-10-01T08:21:12Z</time>
      </trkpt>
      <trkpt lat="42.3292430" lon="-6.4248900">
        <ele>1330.8</ele>
        <time>2014-10-01T08:21:13Z</time>
      </trkpt>
      <trkpt lat="42.3291500" lon="-6.4248160">
        <ele>1330.1</ele>
        <time>2014-10-01T08:21:14Z</time>
      </trkpt>
      <trkpt lat="42.3290560" lon="-6.4247570">
        <ele>1329.4</ele>
        <time>2014-10-01T08:21:15Z</time>
      </trkpt>
      <trkpt lat="42.3289560" lon="-6.4247630">
        <ele>1328.6</ele>
        <time>2014-10-01T08:21:16Z</time>
      </trkpt>
      <trkpt lat="42.3288500" lon="-6.4247850">
        <ele>1328.2</ele>
        <time>2014-10-01T08:21:17Z</time>
      </trkpt>
      <trkpt lat="42.3287460" lon="-6.4248670">
        <ele>1327.8</ele>
        <time>2014-10-01T08:21:18Z</time>
      </trkpt>
      <trkpt lat="42.3286670" lon="-6.4249750">
        <ele>1327.4</ele>
        <time>2014-10-01T08:21:19Z</time>
      </trkpt>
      <trkpt lat="42.3286080" lon="-6.4251190">
        <ele>1327.4</ele>
        <time>2014-10-01T08:21:20Z</time>
      </trkpt>
      <trkpt lat="42.3285490" lon="-6.4252430">
        <ele>1327.4</ele>
        <time>2014-10-01T08:21:21Z</time>
      </trkpt>
      <trkpt lat="42.3284900" lon="-6.4253560">
        <ele>1327.3</ele>
        <time>2014-10-01T08:21:22Z</time>
      </trkpt>
      <trkpt lat="42.3284360" lon="-6.4254670">
        <ele>1327.2</ele>
        <time>2014-10-01T08:21:23Z</time>
      </trkpt>
      <trkpt lat="42.3283720" lon="-6.4255850">
        <ele>1327.1</ele>
        <time>2014-10-01T08:21:24Z</time>
      </trkpt>
      <trkpt lat="42.3283140" lon="-6.4256950">
        <ele>1327.0</ele>
        <time>2014-10-01T08:21:25Z</time>
      </trkpt>
      <trkpt lat="42.3282600" lon="-6.4258080">
        <ele>1326.9</ele>
        <time>2014-10-01T08:21:26Z</time>
      </trkpt>
      <trkpt lat="42.3282090" lon="-6.4259290">
        <ele>1326.8</ele>
        <time>2014-10-01T08:21:27Z</time>
      </trkpt>
      <trkpt lat="42.3281660" lon="-6.4260500">
        <ele>1326.7</ele>
        <time>2014-10-01T08:21:28Z</time>
      </trkpt>
      <trkpt lat="42.3281320" lon="-6.4261710">
        <ele>1326.6</ele>
        <time>2014-10-01T08:21:29Z</time>
      </trkpt>
      <trkpt lat="42.3281050" lon="-6.4263130">
        <ele>1326.6</ele>
        <time>2014-10-01T08:21:30Z</time>
      </trkpt>
      <trkpt lat="42.3280820" lon="-6.4264600">
        <ele>1326.5</ele>
        <time>2014-10-01T08:21:31Z</time>
      </trkpt>
      <trkpt lat="42.3280640" lon="-6.4265940">
        <ele>1326.4</ele>
        <time>2014-10-01T08:21:32Z</time>
      </trkpt>
      <trkpt lat="42.3280510" lon="-6.4267230">
        <ele>1326.3</ele>
        <time>2014-10-01T08:21:33Z</time>
      </trkpt>
      <trkpt lat="42.3280410" lon="-6.4268420">
        <ele>1326.1</ele>
        <time>2014-10-01T08:21:34Z</time>
      </trkpt>
      <trkpt lat="42.3280420" lon="-6.4269570">
        <ele>1326.0</ele>
        <time>2014-10-01T08:21:35Z</time>
      </trkpt>
      <trkpt lat="42.3280430" lon="-6.4270760">
        <ele>1325.8</ele>
        <time>2014-10-01T08:21:36Z</time>
      </trkpt>
      <trkpt lat="42.3280480" lon="-6.4271910">
        <ele>1325.7</ele>
        <time>2014-10-01T08:21:37Z</time>
      </trkpt>
      <trkpt lat="42.3280520" lon="-6.4272990">
        <ele>1325.7</ele>
        <time>2014-10-01T08:21:38Z</time>
      </trkpt>
      <trkpt lat="42.3280540" lon="-6.4274080">
        <ele>1325.6</ele>
        <time>2014-10-01T08:21:39Z</time>
      </trkpt>
      <trkpt lat="42.3280530" lon="-6.4275260">
        <ele>1325.6</ele>
        <time>2014-10-01T08:21:40Z</time>
      </trkpt>
      <trkpt lat="42.3280490" lon="-6.4276390">
        <ele>1325.6</ele>
        <time>2014-10-01T08:21:41Z</time>
      </trkpt>
      <trkpt lat="42.3280450" lon="-6.4277510">
        <ele>1325.5</ele>
        <time>2014-10-01T08:21:42Z</time>
      </trkpt>
      <trkpt lat="42.3280320" lon="-6.4278610">
        <ele>1325.5</ele>
        <time>2014-10-01T08:21:43Z</time>
      </trkpt>
      <trkpt lat="42.3280180" lon="-6.4279660">
        <ele>1325.4</ele>
        <time>2014-10-01T08:21:44Z</time>
      </trkpt>
      <trkpt lat="42.3280040" lon="-6.4280570">
        <ele>1325.3</ele>
        <time>2014-10-01T08:21:45Z</time>
      </trkpt>
      <trkpt lat="42.3279880" lon="-6.4281480">
        <ele>1325.3</ele>
        <time>2014-10-01T08:21:46Z</time>
      </trkpt>
      <trkpt lat="42.3279720" lon="-6.4282410">
        <ele>1325.2</ele>
        <time>2014-10-01T08:21:47Z</time>
      </trkpt>
      <trkpt lat="42.3279510" lon="-6.4283480">
        <ele>1325.1</ele>
        <time>2014-10-01T08:21:48Z</time>
      </trkpt>
      <trkpt lat="42.3279250" lon="-6.4284520">
        <ele>1325.0</ele>
        <time>2014-10-01T08:21:49Z</time>
      </trkpt>
      <trkpt lat="42.3278950" lon="-6.4285550">
        <ele>1324.8</ele>
        <time>2014-10-01T08:21:50Z</time>
      </trkpt>
      <trkpt lat="42.3278610" lon="-6.4286530">
        <ele>1324.6</ele>
        <time>2014-10-01T08:21:51Z</time>
      </trkpt>
      <trkpt lat="42.3278250" lon="-6.4287440">
        <ele>1324.4</ele>
        <time>2014-10-01T08:21:52Z</time>
      </trkpt>
      <trkpt lat="42.3277840" lon="-6.4288390">
        <ele>1324.2</ele>
        <time>2014-10-01T08:21:53Z</time>
      </trkpt>
      <trkpt lat="42.3277450" lon="-6.4289330">
        <ele>1324.0</ele>
        <time>2014-10-01T08:21:54Z</time>
      </trkpt>
      <trkpt lat="42.3277070" lon="-6.4290270">
        <ele>1323.8</ele>
        <time>2014-10-01T08:21:55Z</time>
      </trkpt>
      <trkpt lat="42.3276690" lon="-6.4291210">
        <ele>1323.6</ele>
        <time>2014-10-01T08:21:56Z</time>
      </trkpt>
      <trkpt lat="42.3276330" lon="-6.4292090">
        <ele>1323.4</ele>
        <time>2014-10-01T08:21:57Z</time>
      </trkpt>
      <trkpt lat="42.3275980" lon="-6.4292990">
        <ele>1323.2</ele>
        <time>2014-10-01T08:21:58Z</time>
      </trkpt>
      <trkpt lat="42.3275670" lon="-6.4293790">
        <ele>1323.1</ele>
        <time>2014-10-01T08:21:59Z</time>
      </trkpt>
      <trkpt lat="42.3275350" lon="-6.4294620">
        <ele>1322.9</ele>
        <time>2014-10-01T08:22:00Z</time>
      </trkpt>
      <trkpt lat="42.3274960" lon="-6.4295500">
        <ele>1322.7</ele>
        <time>2014-10-01T08:22:01Z</time>
      </trkpt>
      <trkpt lat="42.3274460" lon="-6.4296350">
        <ele>1322.5</ele>
        <time>2014-10-01T08:22:02Z</time>
      </trkpt>
      <trkpt lat="42.3273900" lon="-6.4297110">
        <ele>1322.4</ele>
        <time>2014-10-01T08:22:03Z</time>
      </trkpt>
      <trkpt lat="42.3273330" lon="-6.4297920">
        <ele>1322.3</ele>
        <time>2014-10-01T08:22:04Z</time>
      </trkpt>
      <trkpt lat="42.3272670" lon="-6.4298790">
        <ele>1322.2</ele>
        <time>2014-10-01T08:22:05Z</time>
      </trkpt>
      <trkpt lat="42.3272080" lon="-6.4299540">
        <ele>1322.1</ele>
        <time>2014-10-01T08:22:06Z</time>
      </trkpt>
      <trkpt lat="42.3271490" lon="-6.4300350">
        <ele>1322.0</ele>
        <time>2014-10-01T08:22:07Z</time>
      </trkpt>
      <trkpt lat="42.3270930" lon="-6.4301190">
        <ele>1321.8</ele>
        <time>2014-10-01T08:22:08Z</time>
      </trkpt>
      <trkpt lat="42.3270400" lon="-6.4302080">
        <ele>1321.7</ele>
        <time>2014-10-01T08:22:09Z</time>
      </trkpt>
      <trkpt lat="42.3269950" lon="-6.4302990">
        <ele>1321.5</ele>
        <time>2014-10-01T08:22:10Z</time>
      </trkpt>
      <trkpt lat="42.3269560" lon="-6.4303940">
        <ele>1321.3</ele>
        <time>2014-10-01T08:22:11Z</time>
      </trkpt>
      <trkpt lat="42.3269150" lon="-6.4304960">
        <ele>1321.1</ele>
        <time>2014-10-01T08:22:12Z</time>
      </trkpt>
      <trkpt lat="42.3268940" lon="-6.4305910">
        <ele>1320.8</ele>
        <time>2014-10-01T08:22:13Z</time>
      </trkpt>
      <trkpt lat="42.3268700" lon="-6.4306990">
        <ele>1320.5</ele>
        <time>2014-10-01T08:22:14Z</time>
      </trkpt>
      <trkpt lat="42.3268440" lon="-6.4308110">
        <ele>1320.0</ele>
        <time>2014-10-01T08:22:15Z</time>
      </trkpt>
      <trkpt lat="42.3268180" lon="-6.4309280">
        <ele>1319.5</ele>
        <time>2014-10-01T08:22:16Z</time>
      </trkpt>
      <trkpt lat="42.3267900" lon="-6.4310520">
        <ele>1319.0</ele>
        <time>2014-10-01T08:22:17Z</time>
      </trkpt>
      <trkpt lat="42.3267630" lon="-6.4311740">
        <ele>1318.6</ele>
        <time>2014-10-01T08:22:18Z</time>
      </trkpt>
      <trkpt lat="42.3267350" lon="-6.4313060">
        <ele>1318.1</ele>
        <time>2014-10-01T08:22:19Z</time>
      </trkpt>
      <trkpt lat="42.3267090" lon="-6.4314380">
        <ele>1317.6</ele>
        <time>2014-10-01T08:22:20Z</time>
      </trkpt>
      <trkpt lat="42.3266830" lon="-6.4315710">
        <ele>1317.1</ele>
        <time>2014-10-01T08:22:21Z</time>
      </trkpt>
      <trkpt lat="42.3266570" lon="-6.4317010">
        <ele>1316.5</ele>
        <time>2014-10-01T08:22:22Z</time>
      </trkpt>
      <trkpt lat="42.3266300" lon="-6.4318320">
        <ele>1315.9</ele>
        <time>2014-10-01T08:22:23Z</time>
      </trkpt>
      <trkpt lat="42.3266040" lon="-6.4319660">
        <ele>1315.3</ele>
        <time>2014-10-01T08:22:24Z</time>
      </trkpt>
      <trkpt lat="42.3265750" lon="-6.4321090">
        <ele>1314.6</ele>
        <time>2014-10-01T08:22:25Z</time>
      </trkpt>
      <trkpt lat="42.3265520" lon="-6.4322430">
        <ele>1314.0</ele>
        <time>2014-10-01T08:22:26Z</time>
      </trkpt>
      <trkpt lat="42.3265300" lon="-6.4323830">
        <ele>1313.4</ele>
        <time>2014-10-01T08:22:27Z</time>
      </trkpt>
      <trkpt lat="42.3265070" lon="-6.4325310">
        <ele>1312.9</ele>
        <time>2014-10-01T08:22:28Z</time>
      </trkpt>
      <trkpt lat="42.3264890" lon="-6.4326740">
        <ele>1312.3</ele>
        <time>2014-10-01T08:22:29Z</time>
      </trkpt>
      <trkpt lat="42.3264730" lon="-6.4328190">
        <ele>1311.9</ele>
        <time>2014-10-01T08:22:30Z</time>
      </trkpt>
      <trkpt lat="42.3264600" lon="-6.4329600">
        <ele>1311.5</ele>
        <time>2014-10-01T08:22:31Z</time>
      </trkpt>
      <trkpt lat="42.3264500" lon="-6.4330960">
        <ele>1311.1</ele>
        <time>2014-10-01T08:22:32Z</time>
      </trkpt>
      <trkpt lat="42.3264380" lon="-6.4332410">
        <ele>1310.7</ele>
        <time>2014-10-01T08:22:33Z</time>
      </trkpt>
      <trkpt lat="42.3264250" lon="-6.4333950">
        <ele>1310.3</ele>
        <time>2014-10-01T08:22:34Z</time>
      </trkpt>
      <trkpt lat="42.3264130" lon="-6.4335460">
        <ele>1310.0</ele>
        <time>2014-10-01T08:22:35Z</time>
      </trkpt>
      <trkpt lat="42.3263980" lon="-6.4336960">
        <ele>1309.8</ele>
        <time>2014-10-01T08:22:36Z</time>
      </trkpt>
      <trkpt lat="42.3263760" lon="-6.4338430">
        <ele>1309.7</ele>
        <time>2014-10-01T08:22:37Z</time>
      </trkpt>
      <trkpt lat="42.3263550" lon="-6.4339750">
        <ele>1309.5</ele>
        <time>2014-10-01T08:22:38Z</time>
      </trkpt>
      <trkpt lat="42.3263300" lon="-6.4341050">
        <ele>1309.3</ele>
        <time>2014-10-01T08:22:39Z</time>
      </trkpt>
      <trkpt lat="42.3262880" lon="-6.4342290">
        <ele>1309.1</ele>
        <time>2014-10-01T08:22:40Z</time>
      </trkpt>
      <trkpt lat="42.3262440" lon="-6.4343480">
        <ele>1308.9</ele>
        <time>2014-10-01T08:22:41Z</time>
      </trkpt>
      <trkpt lat="42.3262010" lon="-6.4344560">
        <ele>1308.7</ele>
        <time>2014-10-01T08:22:42Z</time>
      </trkpt>
      <trkpt lat="42.3261610" lon="-6.4345680">
        <ele>1308.6</ele>
        <time>2014-10-01T08:22:43Z</time>
      </trkpt>
      <trkpt lat="42.3261190" lon="-6.4346760">
        <ele>1308.4</ele>
        <time>2014-10-01T08:22:44Z</time>
      </trkpt>
      <trkpt lat="42.3260790" lon="-6.4347870">
        <ele>1308.2</ele>
        <time>2014-10-01T08:22:45Z</time>
      </trkpt>
      <trkpt lat="42.3260330" lon="-6.4349020">
        <ele>1308.0</ele>
        <time>2014-10-01T08:22:46Z</time>
      </trkpt>
      <trkpt lat="42.3259840" lon="-6.4350190">
        <ele>1307.8</ele>
        <time>2014-10-01T08:22:47Z</time>
      </trkpt>
      <trkpt lat="42.3259300" lon="-6.4351450">
        <ele>1307.6</ele>
        <time>2014-10-01T08:22:48Z</time>
      </trkpt>
      <trkpt lat="42.3258750" lon="-6.4352780">
        <ele>1307.4</ele>
        <time>2014-10-01T08:22:49Z</time>
      </trkpt>
      <trkpt lat="42.3258270" lon="-6.4354080">
        <ele>1307.1</ele>
        <time>2014-10-01T08:22:50Z</time>
      </trkpt>
      <trkpt lat="42.3257790" lon="-6.4355430">
        <ele>1306.8</ele>
        <time>2014-10-01T08:22:51Z</time>
      </trkpt>
      <trkpt lat="42.3257400" lon="-6.4356690">
        <ele>1306.6</ele>
        <time>2014-10-01T08:22:52Z</time>
      </trkpt>
      <trkpt lat="42.3257050" lon="-6.4357920">
        <ele>1306.5</ele>
        <time>2014-10-01T08:22:53Z</time>
      </trkpt>
      <trkpt lat="42.3256670" lon="-6.4359180">
        <ele>1306.2</ele>
        <time>2014-10-01T08:22:54Z</time>
      </trkpt>
      <trkpt lat="42.3256340" lon="-6.4360410">
        <ele>1305.6</ele>
        <time>2014-10-01T08:22:55Z</time>
      </trkpt>
      <trkpt lat="42.3256010" lon="-6.4361610">
        <ele>1305.5</ele>
        <time>2014-10-01T08:22:56Z</time>
      </trkpt>
      <trkpt lat="42.3255680" lon="-6.4362810">
        <ele>1305.3</ele>
        <time>2014-10-01T08:22:57Z</time>
      </trkpt>
      <trkpt lat="42.3255210" lon="-6.4363980">
        <ele>1305.1</ele>
        <time>2014-10-01T08:22:58Z</time>
      </trkpt>
      <trkpt lat="42.3254750" lon="-6.4365150">
        <ele>1304.9</ele>
        <time>2014-10-01T08:22:59Z</time>
      </trkpt>
      <trkpt lat="42.3254280" lon="-6.4366230">
        <ele>1304.7</ele>
        <time>2014-10-01T08:23:00Z</time>
      </trkpt>
      <trkpt lat="42.3253650" lon="-6.4367190">
        <ele>1304.6</ele>
        <time>2014-10-01T08:23:01Z</time>
      </trkpt>
      <trkpt lat="42.3252960" lon="-6.4368090">
        <ele>1304.4</ele>
        <time>2014-10-01T08:23:02Z</time>
      </trkpt>
      <trkpt lat="42.3252290" lon="-6.4368970">
        <ele>1304.3</ele>
        <time>2014-10-01T08:23:03Z</time>
      </trkpt>
      <trkpt lat="42.3251630" lon="-6.4369860">
        <ele>1304.2</ele>
        <time>2014-10-01T08:23:04Z</time>
      </trkpt>
      <trkpt lat="42.3250900" lon="-6.4370710">
        <ele>1304.1</ele>
        <time>2014-10-01T08:23:05Z</time>
      </trkpt>
      <trkpt lat="42.3250150" lon="-6.4371560">
        <ele>1304.1</ele>
        <time>2014-10-01T08:23:06Z</time>
      </trkpt>
      <trkpt lat="42.3249460" lon="-6.4372300">
        <ele>1304.0</ele>
        <time>2014-10-01T08:23:07Z</time>
      </trkpt>
      <trkpt lat="42.3248680" lon="-6.4373130">
        <ele>1304.0</ele>
        <time>2014-10-01T08:23:08Z</time>
      </trkpt>
      <trkpt lat="42.3247960" lon="-6.4373980">
        <ele>1303.9</ele>
        <time>2014-10-01T08:23:09Z</time>
      </trkpt>
      <trkpt lat="42.3247250" lon="-6.4374850">
        <ele>1303.8</ele>
        <time>2014-10-01T08:23:10Z</time>
      </trkpt>
      <trkpt lat="42.3246580" lon="-6.4375720">
        <ele>1303.7</ele>
        <time>2014-10-01T08:23:11Z</time>
      </trkpt>
      <trkpt lat="42.3245950" lon="-6.4376560">
        <ele>1303.6</ele>
        <time>2014-10-01T08:23:12Z</time>
      </trkpt>
      <trkpt lat="42.3245320" lon="-6.4377430">
        <ele>1303.4</ele>
        <time>2014-10-01T08:23:13Z</time>
      </trkpt>
      <trkpt lat="42.3244790" lon="-6.4378390">
        <ele>1303.4</ele>
        <time>2014-10-01T08:23:14Z</time>
      </trkpt>
      <trkpt lat="42.3244230" lon="-6.4379350">
        <ele>1303.4</ele>
        <time>2014-10-01T08:23:15Z</time>
      </trkpt>
      <trkpt lat="42.3243680" lon="-6.4380330">
        <ele>1303.3</ele>
        <time>2014-10-01T08:23:16Z</time>
      </trkpt>
      <trkpt lat="42.3243130" lon="-6.4381360">
        <ele>1303.3</ele>
        <time>2014-10-01T08:23:17Z</time>
      </trkpt>
      <trkpt lat="42.3242590" lon="-6.4382350">
        <ele>1303.4</ele>
        <time>2014-10-01T08:23:18Z</time>
      </trkpt>
      <trkpt lat="42.3242000" lon="-6.4383380">
        <ele>1303.4</ele>
        <time>2014-10-01T08:23:19Z</time>
      </trkpt>
      <trkpt lat="42.3241440" lon="-6.4384330">
        <ele>1303.5</ele>
        <time>2014-10-01T08:23:20Z</time>
      </trkpt>
      <trkpt lat="42.3240870" lon="-6.4385290">
        <ele>1303.6</ele>
        <time>2014-10-01T08:23:21Z</time>
      </trkpt>
      <trkpt lat="42.3240320" lon="-6.4386250">
        <ele>1303.7</ele>
        <time>2014-10-01T08:23:22Z</time>
      </trkpt>
      <trkpt lat="42.3239780" lon="-6.4387130">
        <ele>1303.7</ele>
        <time>2014-10-01T08:23:23Z</time>
      </trkpt>
      <trkpt lat="42.3239250" lon="-6.4387970">
        <ele>1303.8</ele>
        <time>2014-10-01T08:23:24Z</time>
      </trkpt>
      <trkpt lat="42.3238690" lon="-6.4388790">
        <ele>1303.8</ele>
        <time>2014-10-01T08:23:25Z</time>
      </trkpt>
      <trkpt lat="42.3238130" lon="-6.4389520">
        <ele>1303.8</ele>
        <time>2014-10-01T08:23:26Z</time>
      </trkpt>
      <trkpt lat="42.3237570" lon="-6.4390210">
        <ele>1303.9</ele>
        <time>2014-10-01T08:23:27Z</time>
      </trkpt>
      <trkpt lat="42.3237020" lon="-6.4390890">
        <ele>1303.8</ele>
        <time>2014-10-01T08:23:28Z</time>
      </trkpt>
      <trkpt lat="42.3236470" lon="-6.4391540">
        <ele>1303.8</ele>
        <time>2014-10-01T08:23:29Z</time>
      </trkpt>
      <trkpt lat="42.3235920" lon="-6.4392160">
        <ele>1303.8</ele>
        <time>2014-10-01T08:23:30Z</time>
      </trkpt>
      <trkpt lat="42.3235320" lon="-6.4392770">
        <ele>1303.7</ele>
        <time>2014-10-01T08:23:31Z</time>
      </trkpt>
      <trkpt lat="42.3234680" lon="-6.4393420">
        <ele>1303.6</ele>
        <time>2014-10-01T08:23:32Z</time>
      </trkpt>
      <trkpt lat="42.3234000" lon="-6.4394090">
        <ele>1303.5</ele>
        <time>2014-10-01T08:23:33Z</time>
      </trkpt>
      <trkpt lat="42.3233240" lon="-6.4394700">
        <ele>1303.4</ele>
        <time>2014-10-01T08:23:34Z</time>
      </trkpt>
      <trkpt lat="42.3232490" lon="-6.4395290">
        <ele>1303.3</ele>
        <time>2014-10-01T08:23:35Z</time>
      </trkpt>
      <trkpt lat="42.3231710" lon="-6.4395880">
        <ele>1303.2</ele>
        <time>2014-10-01T08:23:36Z</time>
      </trkpt>
      <trkpt lat="42.3231030" lon="-6.4396450">
        <ele>1303.1</ele>
        <time>2014-10-01T08:23:37Z</time>
      </trkpt>
      <trkpt lat="42.3230340" lon="-6.4397070">
        <ele>1303.1</ele>
        <time>2014-10-01T08:23:38Z</time>
      </trkpt>
      <trkpt lat="42.3229680" lon="-6.4397730">
        <ele>1303.1</ele>
        <time>2014-10-01T08:23:39Z</time>
      </trkpt>
      <trkpt lat="42.3229020" lon="-6.4398400">
        <ele>1303.1</ele>
        <time>2014-10-01T08:23:40Z</time>
      </trkpt>
      <trkpt lat="42.3228320" lon="-6.4399120">
        <ele>1303.2</ele>
        <time>2014-10-01T08:23:41Z</time>
      </trkpt>
      <trkpt lat="42.3227590" lon="-6.4399830">
        <ele>1303.2</ele>
        <time>2014-10-01T08:23:42Z</time>
      </trkpt>
      <trkpt lat="42.3226870" lon="-6.4400460">
        <ele>1303.3</ele>
        <time>2014-10-01T08:23:43Z</time>
      </trkpt>
      <trkpt lat="42.3226190" lon="-6.4401050">
        <ele>1303.3</ele>
        <time>2014-10-01T08:23:44Z</time>
      </trkpt>
      <trkpt lat="42.3225450" lon="-6.4401680">
        <ele>1303.4</ele>
        <time>2014-10-01T08:23:45Z</time>
      </trkpt>
      <trkpt lat="42.3224730" lon="-6.4402300">
        <ele>1303.4</ele>
        <time>2014-10-01T08:23:46Z</time>
      </trkpt>
      <trkpt lat="42.3224050" lon="-6.4402840">
        <ele>1303.6</ele>
        <time>2014-10-01T08:23:47Z</time>
      </trkpt>
      <trkpt lat="42.3223370" lon="-6.4403370">
        <ele>1303.8</ele>
        <time>2014-10-01T08:23:48Z</time>
      </trkpt>
      <trkpt lat="42.3222720" lon="-6.4403850">
        <ele>1304.0</ele>
        <time>2014-10-01T08:23:49Z</time>
      </trkpt>
      <trkpt lat="42.3222070" lon="-6.4404350">
        <ele>1304.2</ele>
        <time>2014-10-01T08:23:50Z</time>
      </trkpt>
      <trkpt lat="42.3221460" lon="-6.4404790">
        <ele>1304.3</ele>
        <time>2014-10-01T08:23:51Z</time>
      </trkpt>
      <trkpt lat="42.3220880" lon="-6.4405190">
        <ele>1304.5</ele>
        <time>2014-10-01T08:23:52Z</time>
      </trkpt>
      <trkpt lat="42.3220310" lon="-6.4405570">
        <ele>1304.6</ele>
        <time>2014-10-01T08:23:53Z</time>
      </trkpt>
      <trkpt lat="42.3219710" lon="-6.4405920">
        <ele>1304.8</ele>
        <time>2014-10-01T08:23:54Z</time>
      </trkpt>
      <trkpt lat="42.3219110" lon="-6.4406240">
        <ele>1305.0</ele>
        <time>2014-10-01T08:23:55Z</time>
      </trkpt>
      <trkpt lat="42.3218470" lon="-6.4406530">
        <ele>1305.2</ele>
        <time>2014-10-01T08:23:56Z</time>
      </trkpt>
      <trkpt lat="42.3217820" lon="-6.4406790">
        <ele>1305.4</ele>
        <time>2014-10-01T08:23:57Z</time>
      </trkpt>
      <trkpt lat="42.3217170" lon="-6.4407020">
        <ele>1305.5</ele>
        <time>2014-10-01T08:23:58Z</time>
      </trkpt>
      <trkpt lat="42.3216510" lon="-6.4407200">
        <ele>1305.6</ele>
        <time>2014-10-01T08:23:59Z</time>
      </trkpt>
      <trkpt lat="42.3215810" lon="-6.4407350">
        <ele>1305.7</ele>
        <time>2014-10-01T08:24:00Z</time>
      </trkpt>
      <trkpt lat="42.3215160" lon="-6.4407490">
        <ele>1305.8</ele>
        <time>2014-10-01T08:24:01Z</time>
      </trkpt>
      <trkpt lat="42.3214510" lon="-6.4407620">
        <ele>1305.8</ele>
        <time>2014-10-01T08:24:02Z</time>
      </trkpt>
      <trkpt lat="42.3213890" lon="-6.4407750">
        <ele>1305.8</ele>
        <time>2014-10-01T08:24:03Z</time>
      </trkpt>
      <trkpt lat="42.3213260" lon="-6.4407900">
        <ele>1305.9</ele>
        <time>2014-10-01T08:24:04Z</time>
      </trkpt>
      <trkpt lat="42.3212620" lon="-6.4408040">
        <ele>1305.9</ele>
        <time>2014-10-01T08:24:05Z</time>
      </trkpt>
      <trkpt lat="42.3211920" lon="-6.4408170">
        <ele>1306.0</ele>
        <time>2014-10-01T08:24:06Z</time>
      </trkpt>
      <trkpt lat="42.3211320" lon="-6.4408280">
        <ele>1306.0</ele>
        <time>2014-10-01T08:24:07Z</time>
      </trkpt>
      <trkpt lat="42.3210650" lon="-6.4408350">
        <ele>1306.1</ele>
        <time>2014-10-01T08:24:08Z</time>
      </trkpt>
      <trkpt lat="42.3210000" lon="-6.4408390">
        <ele>1306.2</ele>
        <time>2014-10-01T08:24:09Z</time>
      </trkpt>
      <trkpt lat="42.3209310" lon="-6.4408390">
        <ele>1306.2</ele>
        <time>2014-10-01T08:24:10Z</time>
      </trkpt>
      <trkpt lat="42.3208660" lon="-6.4408320">
        <ele>1306.2</ele>
        <time>2014-10-01T08:24:11Z</time>
      </trkpt>
      <trkpt lat="42.3207940" lon="-6.4408190">
        <ele>1306.3</ele>
        <time>2014-10-01T08:24:12Z</time>
      </trkpt>
      <trkpt lat="42.3207240" lon="-6.4407970">
        <ele>1306.3</ele>
        <time>2014-10-01T08:24:13Z</time>
      </trkpt>
      <trkpt lat="42.3206490" lon="-6.4407650">
        <ele>1306.2</ele>
        <time>2014-10-01T08:24:14Z</time>
      </trkpt>
      <trkpt lat="42.3205780" lon="-6.4407360">
        <ele>1306.1</ele>
        <time>2014-10-01T08:24:15Z</time>
      </trkpt>
      <trkpt lat="42.3205020" lon="-6.4407090">
        <ele>1305.9</ele>
        <time>2014-10-01T08:24:16Z</time>
      </trkpt>
      <trkpt lat="42.3204230" lon="-6.4406810">
        <ele>1305.7</ele>
        <time>2014-10-01T08:24:17Z</time>
      </trkpt>
      <trkpt lat="42.3203510" lon="-6.4406560">
        <ele>1305.5</ele>
        <time>2014-10-01T08:24:18Z</time>
      </trkpt>
      <trkpt lat="42.3202720" lon="-6.4406290">
        <ele>1305.2</ele>
        <time>2014-10-01T08:24:19Z</time>
      </trkpt>
      <trkpt lat="42.3201920" lon="-6.4406070">
        <ele>1304.9</ele>
        <time>2014-10-01T08:24:20Z</time>
      </trkpt>
      <trkpt lat="42.3201060" lon="-6.4406120">
        <ele>1304.6</ele>
        <time>2014-10-01T08:24:21Z</time>
      </trkpt>
      <trkpt lat="42.3200230" lon="-6.4406300">
        <ele>1304.1</ele>
        <time>2014-10-01T08:24:22Z</time>
      </trkpt>
      <trkpt lat="42.3199460" lon="-6.4406550">
        <ele>1303.7</ele>
        <time>2014-10-01T08:24:23Z</time>
      </trkpt>
      <trkpt lat="42.3198680" lon="-6.4406860">
        <ele>1303.2</ele>
        <time>2014-10-01T08:24:24Z</time>
      </trkpt>
      <trkpt lat="42.3197890" lon="-6.4407240">
        <ele>1302.6</ele>
        <time>2014-10-01T08:24:25Z</time>
      </trkpt>
      <trkpt lat="42.3197010" lon="-6.4407680">
        <ele>1302.0</ele>
        <time>2014-10-01T08:24:26Z</time>
      </trkpt>
      <trkpt lat="42.3196120" lon="-6.4408130">
        <ele>1301.4</ele>
        <time>2014-10-01T08:24:27Z</time>
      </trkpt>
      <trkpt lat="42.3195210" lon="-6.4408510">
        <ele>1300.8</ele>
        <time>2014-10-01T08:24:28Z</time>
      </trkpt>
      <trkpt lat="42.3194340" lon="-6.4408900">
        <ele>1300.3</ele>
        <time>2014-10-01T08:24:29Z</time>
      </trkpt>
      <trkpt lat="42.3193450" lon="-6.4409350">
        <ele>1299.7</ele>
        <time>2014-10-01T08:24:30Z</time>
      </trkpt>
      <trkpt lat="42.3192570" lon="-6.4409840">
        <ele>1299.1</ele>
        <time>2014-10-01T08:24:31Z</time>
      </trkpt>
      <trkpt lat="42.3191670" lon="-6.4410380">
        <ele>1298.5</ele>
        <time>2014-10-01T08:24:32Z</time>
      </trkpt>
      <trkpt lat="42.3190720" lon="-6.4411030">
        <ele>1297.8</ele>
        <time>2014-10-01T08:24:33Z</time>
      </trkpt>
      <trkpt lat="42.3189840" lon="-6.4411780">
        <ele>1296.9</ele>
        <time>2014-10-01T08:24:34Z</time>
      </trkpt>
      <trkpt lat="42.3189070" lon="-6.4412960">
        <ele>1295.8</ele>
        <time>2014-10-01T08:24:35Z</time>
      </trkpt>
      <trkpt lat="42.3188260" lon="-6.4414170">
        <ele>1294.7</ele>
        <time>2014-10-01T08:24:36Z</time>
      </trkpt>
      <trkpt lat="42.3187490" lon="-6.4415480">
        <ele>1293.6</ele>
        <time>2014-10-01T08:24:37Z</time>
      </trkpt>
      <trkpt lat="42.3186840" lon="-6.4416850">
        <ele>1292.6</ele>
        <time>2014-10-01T08:24:38Z</time>
      </trkpt>
      <trkpt lat="42.3186150" lon="-6.4418270">
        <ele>1291.6</ele>
        <time>2014-10-01T08:24:39Z</time>
      </trkpt>
      <trkpt lat="42.3185540" lon="-6.4419540">
        <ele>1290.2</ele>
        <time>2014-10-01T08:24:40Z</time>
      </trkpt>
      <trkpt lat="42.3184930" lon="-6.4420800">
        <ele>1288.8</ele>
        <time>2014-10-01T08:24:41Z</time>
      </trkpt>
      <trkpt lat="42.3184230" lon="-6.4422180">
        <ele>1287.7</ele>
        <time>2014-10-01T08:24:42Z</time>
      </trkpt>
      <trkpt lat="42.3183450" lon="-6.4423620">
        <ele>1286.6</ele>
        <time>2014-10-01T08:24:43Z</time>
      </trkpt>
      <trkpt lat="42.3182670" lon="-6.4425130">
        <ele>1285.4</ele>
        <time>2014-10-01T08:24:44Z</time>
      </trkpt>
      <trkpt lat="42.3181870" lon="-6.4426620">
        <ele>1284.2</ele>
        <time>2014-10-01T08:24:45Z</time>
      </trkpt>
      <trkpt lat="42.3181000" lon="-6.4428140">
        <ele>1283.0</ele>
        <time>2014-10-01T08:24:46Z</time>
      </trkpt>
      <trkpt lat="42.3180140" lon="-6.4429670">
        <ele>1281.8</ele>
        <time>2014-10-01T08:24:47Z</time>
      </trkpt>
      <trkpt lat="42.3179260" lon="-6.4431180">
        <ele>1280.5</ele>
        <time>2014-10-01T08:24:48Z</time>
      </trkpt>
      <trkpt lat="42.3178370" lon="-6.4432500">
        <ele>1279.5</ele>
        <time>2014-10-01T08:24:49Z</time>
      </trkpt>
      <trkpt lat="42.3177360" lon="-6.4433870">
        <ele>1278.3</ele>
        <time>2014-10-01T08:24:50Z</time>
      </trkpt>
      <trkpt lat="42.3176280" lon="-6.4435120">
        <ele>1277.4</ele>
        <time>2014-10-01T08:24:51Z</time>
      </trkpt>
      <trkpt lat="42.3175200" lon="-6.4436240">
        <ele>1276.5</ele>
        <time>2014-10-01T08:24:52Z</time>
      </trkpt>
      <trkpt lat="42.3174110" lon="-6.4437240">
        <ele>1275.5</ele>
        <time>2014-10-01T08:24:53Z</time>
      </trkpt>
      <trkpt lat="42.3173050" lon="-6.4438180">
        <ele>1274.7</ele>
        <time>2014-10-01T08:24:54Z</time>
      </trkpt>
      <trkpt lat="42.3171940" lon="-6.4439120">
        <ele>1274.0</ele>
        <time>2014-10-01T08:24:55Z</time>
      </trkpt>
      <trkpt lat="42.3170870" lon="-6.4440040">
        <ele>1273.3</ele>
        <time>2014-10-01T08:24:56Z</time>
      </trkpt>
      <trkpt lat="42.3169800" lon="-6.4440930">
        <ele>1272.9</ele>
        <time>2014-10-01T08:24:57Z</time>
      </trkpt>
      <trkpt lat="42.3168780" lon="-6.4441800">
        <ele>1272.4</ele>
        <time>2014-10-01T08:24:58Z</time>
      </trkpt>
      <trkpt lat="42.3167750" lon="-6.4442600">
        <ele>1272.0</ele>
        <time>2014-10-01T08:24:59Z</time>
      </trkpt>
      <trkpt lat="42.3166700" lon="-6.4443420">
        <ele>1271.5</ele>
        <time>2014-10-01T08:25:00Z</time>
      </trkpt>
      <trkpt lat="42.3165660" lon="-6.4444240">
        <ele>1271.1</ele>
        <time>2014-10-01T08:25:01Z</time>
      </trkpt>
      <trkpt lat="42.3164670" lon="-6.4445000">
        <ele>1270.7</ele>
        <time>2014-10-01T08:25:02Z</time>
      </trkpt>
      <trkpt lat="42.3163670" lon="-6.4445790">
        <ele>1270.4</ele>
        <time>2014-10-01T08:25:03Z</time>
      </trkpt>
      <trkpt lat="42.3162650" lon="-6.4446560">
        <ele>1270.0</ele>
        <time>2014-10-01T08:25:04Z</time>
      </trkpt>
      <trkpt lat="42.3161570" lon="-6.4447470">
        <ele>1269.5</ele>
        <time>2014-10-01T08:25:05Z</time>
      </trkpt>
      <trkpt lat="42.3160520" lon="-6.4448350">
        <ele>1269.1</ele>
        <time>2014-10-01T08:25:06Z</time>
      </trkpt>
      <trkpt lat="42.3159460" lon="-6.4449190">
        <ele>1268.7</ele>
        <time>2014-10-01T08:25:07Z</time>
      </trkpt>
      <trkpt lat="42.3158390" lon="-6.4449960">
        <ele>1268.3</ele>
        <time>2014-10-01T08:25:08Z</time>
      </trkpt>
      <trkpt lat="42.3157370" lon="-6.4450720">
        <ele>1268.1</ele>
        <time>2014-10-01T08:25:09Z</time>
      </trkpt>
      <trkpt lat="42.3156330" lon="-6.4451490">
        <ele>1267.9</ele>
        <time>2014-10-01T08:25:10Z</time>
      </trkpt>
      <trkpt lat="42.3155340" lon="-6.4452180">
        <ele>1267.6</ele>
        <time>2014-10-01T08:25:11Z</time>
      </trkpt>
      <trkpt lat="42.3154390" lon="-6.4452820">
        <ele>1267.4</ele>
        <time>2014-10-01T08:25:12Z</time>
      </trkpt>
      <trkpt lat="42.3153500" lon="-6.4453410">
        <ele>1267.3</ele>
        <time>2014-10-01T08:25:13Z</time>
      </trkpt>
      <trkpt lat="42.3152540" lon="-6.4454070">
        <ele>1267.1</ele>
        <time>2014-10-01T08:25:14Z</time>
      </trkpt>
      <trkpt lat="42.3151640" lon="-6.4454700">
        <ele>1266.8</ele>
        <time>2014-10-01T08:25:15Z</time>
      </trkpt>
      <trkpt lat="42.3150650" lon="-6.4455340">
        <ele>1266.5</ele>
        <time>2014-10-01T08:25:16Z</time>
      </trkpt>
      <trkpt lat="42.3149750" lon="-6.4455830">
        <ele>1266.3</ele>
        <time>2014-10-01T08:25:17Z</time>
      </trkpt>
      <trkpt lat="42.3148830" lon="-6.4456390">
        <ele>1266.1</ele>
        <time>2014-10-01T08:25:18Z</time>
      </trkpt>
      <trkpt lat="42.3147970" lon="-6.4456960">
        <ele>1265.9</ele>
        <time>2014-10-01T08:25:19Z</time>
      </trkpt>
      <trkpt lat="42.3147120" lon="-6.4457600">
        <ele>1265.6</ele>
        <time>2014-10-01T08:25:20Z</time>
      </trkpt>
      <trkpt lat="42.3146210" lon="-6.4458320">
        <ele>1265.4</ele>
        <time>2014-10-01T08:25:21Z</time>
      </trkpt>
      <trkpt lat="42.3145340" lon="-6.4459050">
        <ele>1265.1</ele>
        <time>2014-10-01T08:25:22Z</time>
      </trkpt>
      <trkpt lat="42.3144480" lon="-6.4459880">
        <ele>1264.9</ele>
        <time>2014-10-01T08:25:23Z</time>
      </trkpt>
      <trkpt lat="42.3143630" lon="-6.4460800">
        <ele>1264.6</ele>
        <time>2014-10-01T08:25:24Z</time>
      </trkpt>
      <trkpt lat="42.3142800" lon="-6.4461710">
        <ele>1264.4</ele>
        <time>2014-10-01T08:25:25Z</time>
      </trkpt>
      <trkpt lat="42.3141980" lon="-6.4462710">
        <ele>1264.1</ele>
        <time>2014-10-01T08:25:26Z</time>
      </trkpt>
      <trkpt lat="42.3141180" lon="-6.4463780">
        <ele>1263.9</ele>
        <time>2014-10-01T08:25:27Z</time>
      </trkpt>
      <trkpt lat="42.3140390" lon="-6.4464870">
        <ele>1263.6</ele>
        <time>2014-10-01T08:25:28Z</time>
      </trkpt>
      <trkpt lat="42.3139650" lon="-6.4465930">
        <ele>1263.4</ele>
        <time>2014-10-01T08:25:29Z</time>
      </trkpt>
      <trkpt lat="42.3138930" lon="-6.4466990">
        <ele>1263.2</ele>
        <time>2014-10-01T08:25:30Z</time>
      </trkpt>
      <trkpt lat="42.3138280" lon="-6.4467990">
        <ele>1262.9</ele>
        <time>2014-10-01T08:25:31Z</time>
      </trkpt>
      <trkpt lat="42.3137590" lon="-6.4469050">
        <ele>1262.7</ele>
        <time>2014-10-01T08:25:32Z</time>
      </trkpt>
      <trkpt lat="42.3136940" lon="-6.4470090">
        <ele>1262.6</ele>
        <time>2014-10-01T08:25:33Z</time>
      </trkpt>
      <trkpt lat="42.3136310" lon="-6.4471100">
        <ele>1262.4</ele>
        <time>2014-10-01T08:25:34Z</time>
      </trkpt>
      <trkpt lat="42.3135670" lon="-6.4472080">
        <ele>1262.3</ele>
        <time>2014-10-01T08:25:35Z</time>
      </trkpt>
      <trkpt lat="42.3135020" lon="-6.4473080">
        <ele>1262.1</ele>
        <time>2014-10-01T08:25:36Z</time>
      </trkpt>
      <trkpt lat="42.3134330" lon="-6.4474150">
        <ele>1261.9</ele>
        <time>2014-10-01T08:25:37Z</time>
      </trkpt>
      <trkpt lat="42.3133670" lon="-6.4475250">
        <ele>1261.0</ele>
        <time>2014-10-01T08:25:38Z</time>
      </trkpt>
      <trkpt lat="42.3133060" lon="-6.4476270">
        <ele>1260.5</ele>
        <time>2014-10-01T08:25:39Z</time>
      </trkpt>
      <trkpt lat="42.3132470" lon="-6.4477310">
        <ele>1260.4</ele>
        <time>2014-10-01T08:25:40Z</time>
      </trkpt>
      <trkpt lat="42.3131900" lon="-6.4478390">
        <ele>1260.2</ele>
        <time>2014-10-01T08:25:41Z</time>
      </trkpt>
      <trkpt lat="42.3131340" lon="-6.4479490">
        <ele>1259.9</ele>
        <time>2014-10-01T08:25:42Z</time>
      </trkpt>
      <trkpt lat="42.3130840" lon="-6.4480680">
        <ele>1259.7</ele>
        <time>2014-10-01T08:25:43Z</time>
      </trkpt>
      <trkpt lat="42.3130400" lon="-6.4481800">
        <ele>1259.5</ele>
        <time>2014-10-01T08:25:44Z</time>
      </trkpt>
      <trkpt lat="42.3129910" lon="-6.4482980">
        <ele>1259.2</ele>
        <time>2014-10-01T08:25:45Z</time>
      </trkpt>
      <trkpt lat="42.3129420" lon="-6.4484050">
        <ele>1258.9</ele>
        <time>2014-10-01T08:25:46Z</time>
      </trkpt>
      <trkpt lat="42.3128940" lon="-6.4485090">
        <ele>1258.7</ele>
        <time>2014-10-01T08:25:47Z</time>
      </trkpt>
      <trkpt lat="42.3128520" lon="-6.4486120">
        <ele>1258.4</ele>
        <time>2014-10-01T08:25:48Z</time>
      </trkpt>
      <trkpt lat="42.3128130" lon="-6.4487150">
        <ele>1258.2</ele>
        <time>2014-10-01T08:25:49Z</time>
      </trkpt>
      <trkpt lat="42.3127770" lon="-6.4488260">
        <ele>1257.9</ele>
        <time>2014-10-01T08:25:50Z</time>
      </trkpt>
      <trkpt lat="42.3127400" lon="-6.4489450">
        <ele>1257.7</ele>
        <time>2014-10-01T08:25:51Z</time>
      </trkpt>
      <trkpt lat="42.3127050" lon="-6.4490720">
        <ele>1257.4</ele>
        <time>2014-10-01T08:25:52Z</time>
      </trkpt>
      <trkpt lat="42.3126750" lon="-6.4491990">
        <ele>1257.2</ele>
        <time>2014-10-01T08:25:53Z</time>
      </trkpt>
      <trkpt lat="42.3126470" lon="-6.4493300">
        <ele>1257.1</ele>
        <time>2014-10-01T08:25:54Z</time>
      </trkpt>
      <trkpt lat="42.3126190" lon="-6.4494630">
        <ele>1257.0</ele>
        <time>2014-10-01T08:25:55Z</time>
      </trkpt>
      <trkpt lat="42.3125940" lon="-6.4495900">
        <ele>1257.0</ele>
        <time>2014-10-01T08:25:56Z</time>
      </trkpt>
      <trkpt lat="42.3125740" lon="-6.4497090">
        <ele>1257.0</ele>
        <time>2014-10-01T08:25:57Z</time>
      </trkpt>
      <trkpt lat="42.3125540" lon="-6.4498400">
        <ele>1257.0</ele>
        <time>2014-10-01T08:25:58Z</time>
      </trkpt>
      <trkpt lat="42.3125400" lon="-6.4499680">
        <ele>1257.0</ele>
        <time>2014-10-01T08:25:59Z</time>
      </trkpt>
      <trkpt lat="42.3125280" lon="-6.4500950">
        <ele>1257.0</ele>
        <time>2014-10-01T08:26:00Z</time>
      </trkpt>
      <trkpt lat="42.3125110" lon="-6.4502180">
        <ele>1257.0</ele>
        <time>2014-10-01T08:26:01Z</time>
      </trkpt>
      <trkpt lat="42.3124760" lon="-6.4503350">
        <ele>1256.9</ele>
        <time>2014-10-01T08:26:02Z</time>
      </trkpt>
      <trkpt lat="42.3124380" lon="-6.4504480">
        <ele>1256.7</ele>
        <time>2014-10-01T08:26:03Z</time>
      </trkpt>
      <trkpt lat="42.3123990" lon="-6.4505610">
        <ele>1256.5</ele>
        <time>2014-10-01T08:26:04Z</time>
      </trkpt>
      <trkpt lat="42.3123610" lon="-6.4506690">
        <ele>1256.2</ele>
        <time>2014-10-01T08:26:05Z</time>
      </trkpt>
      <trkpt lat="42.3123240" lon="-6.4507740">
        <ele>1255.9</ele>
        <time>2014-10-01T08:26:06Z</time>
      </trkpt>
      <trkpt lat="42.3122880" lon="-6.4508750">
        <ele>1255.5</ele>
        <time>2014-10-01T08:26:07Z</time>
      </trkpt>
      <trkpt lat="42.3122500" lon="-6.4509790">
        <ele>1255.0</ele>
        <time>2014-10-01T08:26:08Z</time>
      </trkpt>
      <trkpt lat="42.3122100" lon="-6.4510810">
        <ele>1254.4</ele>
        <time>2014-10-01T08:26:09Z</time>
      </trkpt>
      <trkpt lat="42.3121660" lon="-6.4511830">
        <ele>1253.8</ele>
        <time>2014-10-01T08:26:10Z</time>
      </trkpt>
      <trkpt lat="42.3121220" lon="-6.4512760">
        <ele>1253.1</ele>
        <time>2014-10-01T08:26:11Z</time>
      </trkpt>
      <trkpt lat="42.3120790" lon="-6.4513570">
        <ele>1252.4</ele>
        <time>2014-10-01T08:26:12Z</time>
      </trkpt>
      <trkpt lat="42.3120320" lon="-6.4514430">
        <ele>1251.7</ele>
        <time>2014-10-01T08:26:13Z</time>
      </trkpt>
      <trkpt lat="42.3119830" lon="-6.4515380">
        <ele>1250.9</ele>
        <time>2014-10-01T08:26:14Z</time>
      </trkpt>
      <trkpt lat="42.3119320" lon="-6.4516460">
        <ele>1250.0</ele>
        <time>2014-10-01T08:26:15Z</time>
      </trkpt>
      <trkpt lat="42.3118830" lon="-6.4517600">
        <ele>1249.1</ele>
        <time>2014-10-01T08:26:16Z</time>
      </trkpt>
      <trkpt lat="42.3118350" lon="-6.4518760">
        <ele>1248.3</ele>
        <time>2014-10-01T08:26:17Z</time>
      </trkpt>
      <trkpt lat="42.3117880" lon="-6.4519950">
        <ele>1247.5</ele>
        <time>2014-10-01T08:26:18Z</time>
      </trkpt>
      <trkpt lat="42.3117390" lon="-6.4521190">
        <ele>1246.6</ele>
        <time>2014-10-01T08:26:19Z</time>
      </trkpt>
      <trkpt lat="42.3116930" lon="-6.4522350">
        <ele>1245.8</ele>
        <time>2014-10-01T08:26:20Z</time>
      </trkpt>
      <trkpt lat="42.3116490" lon="-6.4523450">
        <ele>1244.7</ele>
        <time>2014-10-01T08:26:21Z</time>
      </trkpt>
      <trkpt lat="42.3116020" lon="-6.4524630">
        <ele>1243.3</ele>
        <time>2014-10-01T08:26:22Z</time>
      </trkpt>
      <trkpt lat="42.3115550" lon="-6.4525830">
        <ele>1242.0</ele>
        <time>2014-10-01T08:26:23Z</time>
      </trkpt>
      <trkpt lat="42.3114880" lon="-6.4526850">
        <ele>1240.7</ele>
        <time>2014-10-01T08:26:24Z</time>
      </trkpt>
      <trkpt lat="42.3114150" lon="-6.4527800">
        <ele>1239.4</ele>
        <time>2014-10-01T08:26:25Z</time>
      </trkpt>
      <trkpt lat="42.3113330" lon="-6.4528650">
        <ele>1238.2</ele>
        <time>2014-10-01T08:26:26Z</time>
      </trkpt>
      <trkpt lat="42.3112300" lon="-6.4529310">
        <ele>1236.9</ele>
        <time>2014-10-01T08:26:27Z</time>
      </trkpt>
      <trkpt lat="42.3111340" lon="-6.4529930">
        <ele>1235.7</ele>
        <time>2014-10-01T08:26:28Z</time>
      </trkpt>
      <trkpt lat="42.3110440" lon="-6.4530500">
        <ele>1234.8</ele>
        <time>2014-10-01T08:26:29Z</time>
      </trkpt>
      <trkpt lat="42.3109450" lon="-6.4531140">
        <ele>1234.1</ele>
        <time>2014-10-01T08:26:30Z</time>
      </trkpt>
      <trkpt lat="42.3108450" lon="-6.4531740">
        <ele>1233.5</ele>
        <time>2014-10-01T08:26:31Z</time>
      </trkpt>
      <trkpt lat="42.3107730" lon="-6.4532410">
        <ele>1233.1</ele>
        <time>2014-10-01T08:26:32Z</time>
      </trkpt>
      <trkpt lat="42.3107000" lon="-6.4533160">
        <ele>1232.6</ele>
        <time>2014-10-01T08:26:33Z</time>
      </trkpt>
      <trkpt lat="42.3106540" lon="-6.4533980">
        <ele>1232.3</ele>
        <time>2014-10-01T08:26:34Z</time>
      </trkpt>
      <trkpt lat="42.3106200" lon="-6.4534860">
        <ele>1232.1</ele>
        <time>2014-10-01T08:26:35Z</time>
      </trkpt>
      <trkpt lat="42.3106080" lon="-6.4535770">
        <ele>1232.0</ele>
        <time>2014-10-01T08:26:36Z</time>
      </trkpt>
      <trkpt lat="42.3105980" lon="-6.4536600">
        <ele>1231.9</ele>
        <time>2014-10-01T08:26:37Z</time>
      </trkpt>
      <trkpt lat="42.3105870" lon="-6.4537460">
        <ele>1231.8</ele>
        <time>2014-10-01T08:26:38Z</time>
      </trkpt>
      <trkpt lat="42.3105550" lon="-6.4538340">
        <ele>1231.6</ele>
        <time>2014-10-01T08:26:39Z</time>
      </trkpt>
      <trkpt lat="42.3105210" lon="-6.4539190">
        <ele>1231.4</ele>
        <time>2014-10-01T08:26:40Z</time>
      </trkpt>
      <trkpt lat="42.3104690" lon="-6.4539820">
        <ele>1231.4</ele>
        <time>2014-10-01T08:26:41Z</time>
      </trkpt>
      <trkpt lat="42.3104160" lon="-6.4540440">
        <ele>1231.4</ele>
        <time>2014-10-01T08:26:42Z</time>
      </trkpt>
      <trkpt lat="42.3103800" lon="-6.4541200">
        <ele>1231.5</ele>
        <time>2014-10-01T08:26:43Z</time>
      </trkpt>
      <trkpt lat="42.3103590" lon="-6.4542010">
        <ele>1231.7</ele>
        <time>2014-10-01T08:26:44Z</time>
      </trkpt>
      <trkpt lat="42.3103380" lon="-6.4542880">
        <ele>1232.0</ele>
        <time>2014-10-01T08:26:45Z</time>
      </trkpt>
      <trkpt lat="42.3103210" lon="-6.4543760">
        <ele>1232.4</ele>
        <time>2014-10-01T08:26:46Z</time>
      </trkpt>
      <trkpt lat="42.3103110" lon="-6.4544570">
        <ele>1232.8</ele>
        <time>2014-10-01T08:26:47Z</time>
      </trkpt>
      <trkpt lat="42.3103040" lon="-6.4545320">
        <ele>1233.1</ele>
        <time>2014-10-01T08:26:48Z</time>
      </trkpt>
      <trkpt lat="42.3102990" lon="-6.4546060">
        <ele>1233.5</ele>
        <time>2014-10-01T08:26:49Z</time>
      </trkpt>
      <trkpt lat="42.3102950" lon="-6.4546670">
        <ele>1233.8</ele>
        <time>2014-10-01T08:26:50Z</time>
      </trkpt>
      <trkpt lat="42.3102960" lon="-6.4547290">
        <ele>1234.1</ele>
        <time>2014-10-01T08:26:51Z</time>
      </trkpt>
      <trkpt lat="42.3102960" lon="-6.4547960">
        <ele>1234.5</ele>
        <time>2014-10-01T08:26:52Z</time>
      </trkpt>
      <trkpt lat="42.3102980" lon="-6.4548630">
        <ele>1234.8</ele>
        <time>2014-10-01T08:26:53Z</time>
      </trkpt>
      <trkpt lat="42.3102990" lon="-6.4549340">
        <ele>1235.1</ele>
        <time>2014-10-01T08:26:54Z</time>
      </trkpt>
      <trkpt lat="42.3102950" lon="-6.4549910">
        <ele>1235.4</ele>
        <time>2014-10-01T08:26:55Z</time>
      </trkpt>
      <trkpt lat="42.3102870" lon="-6.4550490">
        <ele>1235.5</ele>
        <time>2014-10-01T08:26:56Z</time>
      </trkpt>
      <trkpt lat="42.3102790" lon="-6.4551080">
        <ele>1235.4</ele>
        <time>2014-10-01T08:26:57Z</time>
      </trkpt>
      <trkpt lat="42.3102620" lon="-6.4551740">
        <ele>1235.3</ele>
        <time>2014-10-01T08:26:58Z</time>
      </trkpt>
      <trkpt lat="42.3102290" lon="-6.4552270">
        <ele>1235.1</ele>
        <time>2014-10-01T08:26:59Z</time>
      </trkpt>
      <trkpt lat="42.3101970" lon="-6.4552810">
        <ele>1234.9</ele>
        <time>2014-10-01T08:27:00Z</time>
      </trkpt>
      <trkpt lat="42.3101650" lon="-6.4553430">
        <ele>1234.7</ele>
        <time>2014-10-01T08:27:01Z</time>
      </trkpt>
      <trkpt lat="42.3101250" lon="-6.4554140">
        <ele>1234.4</ele>
        <time>2014-10-01T08:27:02Z</time>
      </trkpt>
      <trkpt lat="42.3100810" lon="-6.4554880">
        <ele>1234.1</ele>
        <time>2014-10-01T08:27:03Z</time>
      </trkpt>
      <trkpt lat="42.3100410" lon="-6.4555760">
        <ele>1233.8</ele>
        <time>2014-10-01T08:27:04Z</time>
      </trkpt>
      <trkpt lat="42.3100020" lon="-6.4556610">
        <ele>1233.5</ele>
        <time>2014-10-01T08:27:05Z</time>
      </trkpt>
      <trkpt lat="42.3099540" lon="-6.4557300">
        <ele>1233.3</ele>
        <time>2014-10-01T08:27:06Z</time>
      </trkpt>
      <trkpt lat="42.3098810" lon="-6.4558010">
        <ele>1233.1</ele>
        <time>2014-10-01T08:27:07Z</time>
      </trkpt>
      <trkpt lat="42.3098170" lon="-6.4558660">
        <ele>1233.0</ele>
        <time>2014-10-01T08:27:08Z</time>
      </trkpt>
      <trkpt lat="42.3097600" lon="-6.4559360">
        <ele>1232.9</ele>
        <time>2014-10-01T08:27:09Z</time>
      </trkpt>
      <trkpt lat="42.3097200" lon="-6.4560200">
        <ele>1232.9</ele>
        <time>2014-10-01T08:27:10Z</time>
      </trkpt>
      <trkpt lat="42.3096990" lon="-6.4561060">
        <ele>1233.2</ele>
        <time>2014-10-01T08:27:11Z</time>
      </trkpt>
      <trkpt lat="42.3096820" lon="-6.4561910">
        <ele>1233.5</ele>
        <time>2014-10-01T08:27:12Z</time>
      </trkpt>
      <trkpt lat="42.3096690" lon="-6.4562620">
        <ele>1233.9</ele>
        <time>2014-10-01T08:27:13Z</time>
      </trkpt>
      <trkpt lat="42.3096700" lon="-6.4563290">
        <ele>1234.2</ele>
        <time>2014-10-01T08:27:14Z</time>
      </trkpt>
      <trkpt lat="42.3096720" lon="-6.4563940">
        <ele>1234.6</ele>
        <time>2014-10-01T08:27:15Z</time>
      </trkpt>
      <trkpt lat="42.3096680" lon="-6.4564720">
        <ele>1235.1</ele>
        <time>2014-10-01T08:27:16Z</time>
      </trkpt>
      <trkpt lat="42.3096520" lon="-6.4565560">
        <ele>1235.6</ele>
        <time>2014-10-01T08:27:17Z</time>
      </trkpt>
      <trkpt lat="42.3096260" lon="-6.4566370">
        <ele>1235.8</ele>
        <time>2014-10-01T08:27:18Z</time>
      </trkpt>
      <trkpt lat="42.3095960" lon="-6.4567270">
        <ele>1235.9</ele>
        <time>2014-10-01T08:27:19Z</time>
      </trkpt>
      <trkpt lat="42.3095570" lon="-6.4568080">
        <ele>1236.0</ele>
        <time>2014-10-01T08:27:20Z</time>
      </trkpt>
      <trkpt lat="42.3095150" lon="-6.4568690">
        <ele>1235.4</ele>
        <time>2014-10-01T08:27:21Z</time>
      </trkpt>
      <trkpt lat="42.3094690" lon="-6.4569260">
        <ele>1234.7</ele>
        <time>2014-10-01T08:27:22Z</time>
      </trkpt>
      <trkpt lat="42.3094300" lon="-6.4569870">
        <ele>1234.3</ele>
        <time>2014-10-01T08:27:23Z</time>
      </trkpt>
      <trkpt lat="42.3093990" lon="-6.4570640">
        <ele>1234.4</ele>
        <time>2014-10-01T08:27:24Z</time>
      </trkpt>
      <trkpt lat="42.3093680" lon="-6.4571450">
        <ele>1234.4</ele>
        <time>2014-10-01T08:27:25Z</time>
      </trkpt>
      <trkpt lat="42.3093280" lon="-6.4572420">
        <ele>1234.5</ele>
        <time>2014-10-01T08:27:26Z</time>
      </trkpt>
      <trkpt lat="42.3092900" lon="-6.4573320">
        <ele>1234.5</ele>
        <time>2014-10-01T08:27:27Z</time>
      </trkpt>
      <trkpt lat="42.3092530" lon="-6.4574080">
        <ele>1234.3</ele>
        <time>2014-10-01T08:27:28Z</time>
      </trkpt>
      <trkpt lat="42.3092090" lon="-6.4574910">
        <ele>1234.1</ele>
        <time>2014-10-01T08:27:29Z</time>
      </trkpt>
      <trkpt lat="42.3091640" lon="-6.4575690">
        <ele>1233.9</ele>
        <time>2014-10-01T08:27:30Z</time>
      </trkpt>
      <trkpt lat="42.3091200" lon="-6.4576480">
        <ele>1233.7</ele>
        <time>2014-10-01T08:27:31Z</time>
      </trkpt>
      <trkpt lat="42.3090740" lon="-6.4577240">
        <ele>1233.5</ele>
        <time>2014-10-01T08:27:32Z</time>
      </trkpt>
      <trkpt lat="42.3090260" lon="-6.4578070">
        <ele>1233.3</ele>
        <time>2014-10-01T08:27:33Z</time>
      </trkpt>
      <trkpt lat="42.3089750" lon="-6.4578940">
        <ele>1233.1</ele>
        <time>2014-10-01T08:27:34Z</time>
      </trkpt>
      <trkpt lat="42.3089270" lon="-6.4579710">
        <ele>1232.9</ele>
        <time>2014-10-01T08:27:35Z</time>
      </trkpt>
      <trkpt lat="42.3088720" lon="-6.4580540">
        <ele>1232.7</ele>
        <time>2014-10-01T08:27:36Z</time>
      </trkpt>
      <trkpt lat="42.3088160" lon="-6.4581390">
        <ele>1232.5</ele>
        <time>2014-10-01T08:27:37Z</time>
      </trkpt>
      <trkpt lat="42.3087530" lon="-6.4582210">
        <ele>1232.3</ele>
        <time>2014-10-01T08:27:38Z</time>
      </trkpt>
      <trkpt lat="42.3086930" lon="-6.4582930">
        <ele>1232.1</ele>
        <time>2014-10-01T08:27:39Z</time>
      </trkpt>
      <trkpt lat="42.3086290" lon="-6.4583710">
        <ele>1231.9</ele>
        <time>2014-10-01T08:27:40Z</time>
      </trkpt>
      <trkpt lat="42.3085650" lon="-6.4584510">
        <ele>1231.7</ele>
        <time>2014-10-01T08:27:41Z</time>
      </trkpt>
      <trkpt lat="42.3084970" lon="-6.4585220">
        <ele>1231.4</ele>
        <time>2014-10-01T08:27:42Z</time>
      </trkpt>
      <trkpt lat="42.3084300" lon="-6.4585950">
        <ele>1231.0</ele>
        <time>2014-10-01T08:27:43Z</time>
      </trkpt>
      <trkpt lat="42.3083680" lon="-6.4586660">
        <ele>1230.7</ele>
        <time>2014-10-01T08:27:44Z</time>
      </trkpt>
      <trkpt lat="42.3083030" lon="-6.4587420">
        <ele>1230.4</ele>
        <time>2014-10-01T08:27:45Z</time>
      </trkpt>
      <trkpt lat="42.3082330" lon="-6.4588250">
        <ele>1230.1</ele>
        <time>2014-10-01T08:27:46Z</time>
      </trkpt>
      <trkpt lat="42.3081650" lon="-6.4589070">
        <ele>1229.9</ele>
        <time>2014-10-01T08:27:47Z</time>
      </trkpt>
      <trkpt lat="42.3080890" lon="-6.4589870">
        <ele>1229.6</ele>
        <time>2014-10-01T08:27:48Z</time>
      </trkpt>
      <trkpt lat="42.3080040" lon="-6.4590370">
        <ele>1229.3</ele>
        <time>2014-10-01T08:27:49Z</time>
      </trkpt>
      <trkpt lat="42.3079230" lon="-6.4590810">
        <ele>1229.1</ele>
        <time>2014-10-01T08:27:50Z</time>
      </trkpt>
      <trkpt lat="42.3078350" lon="-6.4591210">
        <ele>1228.9</ele>
        <time>2014-10-01T08:27:51Z</time>
      </trkpt>
      <trkpt lat="42.3077420" lon="-6.4591560">
        <ele>1228.7</ele>
        <time>2014-10-01T08:27:52Z</time>
      </trkpt>
      <trkpt lat="42.3076450" lon="-6.4591910">
        <ele>1228.5</ele>
        <time>2014-10-01T08:27:53Z</time>
      </trkpt>
      <trkpt lat="42.3075570" lon="-6.4592190">
        <ele>1228.3</ele>
        <time>2014-10-01T08:27:54Z</time>
      </trkpt>
      <trkpt lat="42.3074700" lon="-6.4592470">
        <ele>1228.1</ele>
        <time>2014-10-01T08:27:55Z</time>
      </trkpt>
      <trkpt lat="42.3073890" lon="-6.4592740">
        <ele>1228.0</ele>
        <time>2014-10-01T08:27:56Z</time>
      </trkpt>
      <trkpt lat="42.3073000" lon="-6.4593080">
        <ele>1227.8</ele>
        <time>2014-10-01T08:27:57Z</time>
      </trkpt>
      <trkpt lat="42.3072190" lon="-6.4593450">
        <ele>1227.8</ele>
        <time>2014-10-01T08:27:58Z</time>
      </trkpt>
      <trkpt lat="42.3071540" lon="-6.4593920">
        <ele>1227.7</ele>
        <time>2014-10-01T08:27:59Z</time>
      </trkpt>
      <trkpt lat="42.3070910" lon="-6.4594400">
        <ele>1227.5</ele>
        <time>2014-10-01T08:28:00Z</time>
      </trkpt>
      <trkpt lat="42.3070520" lon="-6.4594690">
        <ele>1227.4</ele>
        <time>2014-10-01T08:28:01Z</time>
      </trkpt>
      <trkpt lat="42.3070180" lon="-6.4594890">
        <ele>1227.3</ele>
        <time>2014-10-01T08:28:03Z</time>
      </trkpt>
      <trkpt lat="42.3070330" lon="-6.4594560">
        <ele>1227.2</ele>
        <time>2014-10-01T08:28:07Z</time>
      </trkpt>
      <trkpt lat="42.3070750" lon="-6.4594310">
        <ele>1227.1</ele>
        <time>2014-10-01T08:28:09Z</time>
      </trkpt>
      <trkpt lat="42.3071180" lon="-6.4594010">
        <ele>1227.0</ele>
        <time>2014-10-01T08:28:11Z</time>
      </trkpt>
      <trkpt lat="42.3071650" lon="-6.4593660">
        <ele>1227.1</ele>
        <time>2014-10-01T08:28:13Z</time>
      </trkpt>
      <trkpt lat="42.3071910" lon="-6.4593480">
        <ele>1227.2</ele>
        <time>2014-10-01T08:28:14Z</time>
      </trkpt>
      <trkpt lat="42.3072220" lon="-6.4593290">
        <ele>1227.3</ele>
        <time>2014-10-01T08:28:15Z</time>
      </trkpt>
      <trkpt lat="42.3072570" lon="-6.4593080">
        <ele>1227.5</ele>
        <time>2014-10-01T08:28:16Z</time>
      </trkpt>
      <trkpt lat="42.3072960" lon="-6.4592840">
        <ele>1227.6</ele>
        <time>2014-10-01T08:28:17Z</time>
      </trkpt>
      <trkpt lat="42.3073400" lon="-6.4592590">
        <ele>1227.7</ele>
        <time>2014-10-01T08:28:18Z</time>
      </trkpt>
      <trkpt lat="42.3073860" lon="-6.4592330">
        <ele>1227.8</ele>
        <time>2014-10-01T08:28:19Z</time>
      </trkpt>
      <trkpt lat="42.3074330" lon="-6.4592080">
        <ele>1227.8</ele>
        <time>2014-10-01T08:28:20Z</time>
      </trkpt>
      <trkpt lat="42.3074860" lon="-6.4591840">
        <ele>1227.9</ele>
        <time>2014-10-01T08:28:21Z</time>
      </trkpt>
      <trkpt lat="42.3075330" lon="-6.4591660">
        <ele>1227.9</ele>
        <time>2014-10-01T08:28:22Z</time>
      </trkpt>
      <trkpt lat="42.3075800" lon="-6.4591520">
        <ele>1228.0</ele>
        <time>2014-10-01T08:28:23Z</time>
      </trkpt>
      <trkpt lat="42.3076320" lon="-6.4591340">
        <ele>1228.2</ele>
        <time>2014-10-01T08:28:24Z</time>
      </trkpt>
      <trkpt lat="42.3076850" lon="-6.4591180">
        <ele>1228.3</ele>
        <time>2014-10-01T08:28:25Z</time>
      </trkpt>
      <trkpt lat="42.3077390" lon="-6.4591000">
        <ele>1228.4</ele>
        <time>2014-10-01T08:28:26Z</time>
      </trkpt>
      <trkpt lat="42.3077950" lon="-6.4590810">
        <ele>1228.6</ele>
        <time>2014-10-01T08:28:27Z</time>
      </trkpt>
      <trkpt lat="42.3078500" lon="-6.4590640">
        <ele>1228.7</ele>
        <time>2014-10-01T08:28:28Z</time>
      </trkpt>
      <trkpt lat="42.3079040" lon="-6.4590450">
        <ele>1228.8</ele>
        <time>2014-10-01T08:28:29Z</time>
      </trkpt>
      <trkpt lat="42.3079610" lon="-6.4590230">
        <ele>1229.0</ele>
        <time>2014-10-01T08:28:30Z</time>
      </trkpt>
      <trkpt lat="42.3080140" lon="-6.4590010">
        <ele>1229.1</ele>
        <time>2014-10-01T08:28:31Z</time>
      </trkpt>
      <trkpt lat="42.3080700" lon="-6.4589730">
        <ele>1229.3</ele>
        <time>2014-10-01T08:28:32Z</time>
      </trkpt>
      <trkpt lat="42.3081130" lon="-6.4589340">
        <ele>1229.5</ele>
        <time>2014-10-01T08:28:33Z</time>
      </trkpt>
      <trkpt lat="42.3081530" lon="-6.4588950">
        <ele>1229.7</ele>
        <time>2014-10-01T08:28:34Z</time>
      </trkpt>
      <trkpt lat="42.3081890" lon="-6.4588570">
        <ele>1229.8</ele>
        <time>2014-10-01T08:28:35Z</time>
      </trkpt>
      <trkpt lat="42.3082260" lon="-6.4588160">
        <ele>1230.0</ele>
        <time>2014-10-01T08:28:36Z</time>
      </trkpt>
      <trkpt lat="42.3082700" lon="-6.4587650">
        <ele>1230.2</ele>
        <time>2014-10-01T08:28:37Z</time>
      </trkpt>
      <trkpt lat="42.3083150" lon="-6.4587100">
        <ele>1230.4</ele>
        <time>2014-10-01T08:28:38Z</time>
      </trkpt>
      <trkpt lat="42.3083590" lon="-6.4586580">
        <ele>1230.6</ele>
        <time>2014-10-01T08:28:39Z</time>
      </trkpt>
      <trkpt lat="42.3084050" lon="-6.4586050">
        <ele>1230.8</ele>
        <time>2014-10-01T08:28:40Z</time>
      </trkpt>
      <trkpt lat="42.3084520" lon="-6.4585710">
        <ele>1231.1</ele>
        <time>2014-10-01T08:28:41Z</time>
      </trkpt>
      <trkpt lat="42.3085000" lon="-6.4585650">
        <ele>1231.3</ele>
        <time>2014-10-01T08:28:42Z</time>
      </trkpt>
      <trkpt lat="42.3085410" lon="-6.4585930">
        <ele>1231.0</ele>
        <time>2014-10-01T08:28:43Z</time>
      </trkpt>
      <trkpt lat="42.3085640" lon="-6.4586310">
        <ele>1231.0</ele>
        <time>2014-10-01T08:28:44Z</time>
      </trkpt>
      <trkpt lat="42.3085780" lon="-6.4586820">
        <ele>1231.1</ele>
        <time>2014-10-01T08:28:45Z</time>
      </trkpt>
      <trkpt lat="42.3085730" lon="-6.4587320">
        <ele>1231.2</ele>
        <time>2014-10-01T08:28:46Z</time>
      </trkpt>
      <trkpt lat="42.3085680" lon="-6.4587860">
        <ele>1231.4</ele>
        <time>2014-10-01T08:28:47Z</time>
      </trkpt>
      <trkpt lat="42.3085670" lon="-6.4588450">
        <ele>1231.5</ele>
        <time>2014-10-01T08:28:48Z</time>
      </trkpt>
      <trkpt lat="42.3085670" lon="-6.4588990">
        <ele>1231.6</ele>
        <time>2014-10-01T08:28:49Z</time>
      </trkpt>
      <trkpt lat="42.3085670" lon="-6.4589630">
        <ele>1231.8</ele>
        <time>2014-10-01T08:28:50Z</time>
      </trkpt>
      <trkpt lat="42.3085680" lon="-6.4590270">
        <ele>1232.0</ele>
        <time>2014-10-01T08:28:51Z</time>
      </trkpt>
      <trkpt lat="42.3085710" lon="-6.4590820">
        <ele>1232.2</ele>
        <time>2014-10-01T08:28:52Z</time>
      </trkpt>
      <trkpt lat="42.3085750" lon="-6.4591340">
        <ele>1232.4</ele>
        <time>2014-10-01T08:28:53Z</time>
      </trkpt>
      <trkpt lat="42.3085810" lon="-6.4591860">
        <ele>1232.6</ele>
        <time>2014-10-01T08:28:54Z</time>
      </trkpt>
      <trkpt lat="42.3085870" lon="-6.4592420">
        <ele>1232.9</ele>
        <time>2014-10-01T08:28:55Z</time>
      </trkpt>
      <trkpt lat="42.3085920" lon="-6.4592970">
        <ele>1233.1</ele>
        <time>2014-10-01T08:28:56Z</time>
      </trkpt>
      <trkpt lat="42.3085960" lon="-6.4593460">
        <ele>1233.4</ele>
        <time>2014-10-01T08:28:57Z</time>
      </trkpt>
      <trkpt lat="42.3085980" lon="-6.4593970">
        <ele>1233.6</ele>
        <time>2014-10-01T08:28:58Z</time>
      </trkpt>
      <trkpt lat="42.3085980" lon="-6.4594490">
        <ele>1233.9</ele>
        <time>2014-10-01T08:28:59Z</time>
      </trkpt>
      <trkpt lat="42.3085990" lon="-6.4594960">
        <ele>1234.1</ele>
        <time>2014-10-01T08:29:00Z</time>
      </trkpt>
      <trkpt lat="42.3085990" lon="-6.4595410">
        <ele>1234.3</ele>
        <time>2014-10-01T08:29:01Z</time>
      </trkpt>
      <trkpt lat="42.3085970" lon="-6.4595960">
        <ele>1234.6</ele>
        <time>2014-10-01T08:29:02Z</time>
      </trkpt>
      <trkpt lat="42.3085910" lon="-6.4596470">
        <ele>1234.8</ele>
        <time>2014-10-01T08:29:03Z</time>
      </trkpt>
      <trkpt lat="42.3085820" lon="-6.4597050">
        <ele>1235.4</ele>
        <time>2014-10-01T08:29:04Z</time>
      </trkpt>
      <trkpt lat="42.3085680" lon="-6.4597680">
        <ele>1236.0</ele>
        <time>2014-10-01T08:29:05Z</time>
      </trkpt>
      <trkpt lat="42.3085550" lon="-6.4598280">
        <ele>1236.4</ele>
        <time>2014-10-01T08:29:06Z</time>
      </trkpt>
      <trkpt lat="42.3085430" lon="-6.4598880">
        <ele>1236.7</ele>
        <time>2014-10-01T08:29:07Z</time>
      </trkpt>
      <trkpt lat="42.3085290" lon="-6.4599420">
        <ele>1236.9</ele>
        <time>2014-10-01T08:29:08Z</time>
      </trkpt>
      <trkpt lat="42.3085080" lon="-6.4600030">
        <ele>1237.1</ele>
        <time>2014-10-01T08:29:09Z</time>
      </trkpt>
      <trkpt lat="42.3084900" lon="-6.4600580">
        <ele>1237.4</ele>
        <time>2014-10-01T08:29:10Z</time>
      </trkpt>
      <trkpt lat="42.3084770" lon="-6.4601030">
        <ele>1237.5</ele>
        <time>2014-10-01T08:29:11Z</time>
      </trkpt>
      <trkpt lat="42.3084640" lon="-6.4601560">
        <ele>1237.8</ele>
        <time>2014-10-01T08:29:12Z</time>
      </trkpt>
      <trkpt lat="42.3084560" lon="-6.4602010">
        <ele>1238.0</ele>
        <time>2014-10-01T08:29:13Z</time>
      </trkpt>
      <trkpt lat="42.3084440" lon="-6.4602560">
        <ele>1238.2</ele>
        <time>2014-10-01T08:29:14Z</time>
      </trkpt>
      <trkpt lat="42.3084340" lon="-6.4603120">
        <ele>1238.4</ele>
        <time>2014-10-01T08:29:15Z</time>
      </trkpt>
      <trkpt lat="42.3084230" lon="-6.4603700">
        <ele>1238.7</ele>
        <time>2014-10-01T08:29:16Z</time>
      </trkpt>
      <trkpt lat="42.3084130" lon="-6.4604250">
        <ele>1239.0</ele>
        <time>2014-10-01T08:29:17Z</time>
      </trkpt>
      <trkpt lat="42.3084050" lon="-6.4604760">
        <ele>1239.3</ele>
        <time>2014-10-01T08:29:18Z</time>
      </trkpt>
      <trkpt lat="42.3083960" lon="-6.4605300">
        <ele>1239.6</ele>
        <time>2014-10-01T08:29:19Z</time>
      </trkpt>
      <trkpt lat="42.3083880" lon="-6.4605860">
        <ele>1239.9</ele>
        <time>2014-10-01T08:29:20Z</time>
      </trkpt>
      <trkpt lat="42.3083800" lon="-6.4606360">
        <ele>1240.2</ele>
        <time>2014-10-01T08:29:21Z</time>
      </trkpt>
      <trkpt lat="42.3083820" lon="-6.4606830">
        <ele>1240.4</ele>
        <time>2014-10-01T08:29:22Z</time>
      </trkpt>
      <trkpt lat="42.3083800" lon="-6.4607400">
        <ele>1240.6</ele>
        <time>2014-10-01T08:29:23Z</time>
      </trkpt>
      <trkpt lat="42.3083760" lon="-6.4607910">
        <ele>1240.8</ele>
        <time>2014-10-01T08:29:24Z</time>
      </trkpt>
      <trkpt lat="42.3083740" lon="-6.4608390">
        <ele>1241.0</ele>
        <time>2014-10-01T08:29:25Z</time>
      </trkpt>
      <trkpt lat="42.3083750" lon="-6.4609030">
        <ele>1241.2</ele>
        <time>2014-10-01T08:29:26Z</time>
      </trkpt>
      <trkpt lat="42.3083780" lon="-6.4609580">
        <ele>1241.4</ele>
        <time>2014-10-01T08:29:27Z</time>
      </trkpt>
      <trkpt lat="42.3083830" lon="-6.4610090">
        <ele>1241.6</ele>
        <time>2014-10-01T08:29:28Z</time>
      </trkpt>
      <trkpt lat="42.3083870" lon="-6.4610610">
        <ele>1241.8</ele>
        <time>2014-10-01T08:29:29Z</time>
      </trkpt>
      <trkpt lat="42.3083910" lon="-6.4611190">
        <ele>1242.0</ele>
        <time>2014-10-01T08:29:30Z</time>
      </trkpt>
      <trkpt lat="42.3083930" lon="-6.4611730">
        <ele>1242.2</ele>
        <time>2014-10-01T08:29:31Z</time>
      </trkpt>
      <trkpt lat="42.3083940" lon="-6.4612350">
        <ele>1242.4</ele>
        <time>2014-10-01T08:29:32Z</time>
      </trkpt>
      <trkpt lat="42.3083950" lon="-6.4612980">
        <ele>1242.6</ele>
        <time>2014-10-01T08:29:33Z</time>
      </trkpt>
      <trkpt lat="42.3083970" lon="-6.4613610">
        <ele>1242.9</ele>
        <time>2014-10-01T08:29:34Z</time>
      </trkpt>
      <trkpt lat="42.3083990" lon="-6.4614230">
        <ele>1243.1</ele>
        <time>2014-10-01T08:29:35Z</time>
      </trkpt>
      <trkpt lat="42.3084020" lon="-6.4614900">
        <ele>1243.4</ele>
        <time>2014-10-01T08:29:36Z</time>
      </trkpt>
      <trkpt lat="42.3084020" lon="-6.4615600">
        <ele>1243.6</ele>
        <time>2014-10-01T08:29:37Z</time>
      </trkpt>
      <trkpt lat="42.3084010" lon="-6.4616310">
        <ele>1243.8</ele>
        <time>2014-10-01T08:29:38Z</time>
      </trkpt>
      <trkpt lat="42.3083990" lon="-6.4617000">
        <ele>1243.9</ele>
        <time>2014-10-01T08:29:39Z</time>
      </trkpt>
      <trkpt lat="42.3083960" lon="-6.4617720">
        <ele>1244.1</ele>
        <time>2014-10-01T08:29:40Z</time>
      </trkpt>
      <trkpt lat="42.3083910" lon="-6.4618450">
        <ele>1244.4</ele>
        <time>2014-10-01T08:29:41Z</time>
      </trkpt>
      <trkpt lat="42.3083850" lon="-6.4619150">
        <ele>1244.7</ele>
        <time>2014-10-01T08:29:42Z</time>
      </trkpt>
      <trkpt lat="42.3083810" lon="-6.4619810">
        <ele>1244.9</ele>
        <time>2014-10-01T08:29:43Z</time>
      </trkpt>
      <trkpt lat="42.3083810" lon="-6.4620460">
        <ele>1245.2</ele>
        <time>2014-10-01T08:29:44Z</time>
      </trkpt>
      <trkpt lat="42.3083800" lon="-6.4621150">
        <ele>1245.5</ele>
        <time>2014-10-01T08:29:45Z</time>
      </trkpt>
      <trkpt lat="42.3083780" lon="-6.4621830">
        <ele>1245.8</ele>
        <time>2014-10-01T08:29:46Z</time>
      </trkpt>
      <trkpt lat="42.3083740" lon="-6.4622600">
        <ele>1246.1</ele>
        <time>2014-10-01T08:29:47Z</time>
      </trkpt>
      <trkpt lat="42.3083680" lon="-6.4623440">
        <ele>1246.5</ele>
        <time>2014-10-01T08:29:48Z</time>
      </trkpt>
      <trkpt lat="42.3083670" lon="-6.4624110">
        <ele>1246.8</ele>
        <time>2014-10-01T08:29:49Z</time>
      </trkpt>
      <trkpt lat="42.3083640" lon="-6.4624830">
        <ele>1247.2</ele>
        <time>2014-10-01T08:29:50Z</time>
      </trkpt>
      <trkpt lat="42.3083650" lon="-6.4625560">
        <ele>1247.6</ele>
        <time>2014-10-01T08:29:51Z</time>
      </trkpt>
      <trkpt lat="42.3083680" lon="-6.4626300">
        <ele>1248.0</ele>
        <time>2014-10-01T08:29:52Z</time>
      </trkpt>
      <trkpt lat="42.3083710" lon="-6.4627030">
        <ele>1248.4</ele>
        <time>2014-10-01T08:29:53Z</time>
      </trkpt>
      <trkpt lat="42.3083760" lon="-6.4627760">
        <ele>1248.8</ele>
        <time>2014-10-01T08:29:54Z</time>
      </trkpt>
      <trkpt lat="42.3083830" lon="-6.4628540">
        <ele>1249.2</ele>
        <time>2014-10-01T08:29:55Z</time>
      </trkpt>
      <trkpt lat="42.3083910" lon="-6.4629350">
        <ele>1249.8</ele>
        <time>2014-10-01T08:29:56Z</time>
      </trkpt>
      <trkpt lat="42.3084000" lon="-6.4630120">
        <ele>1250.2</ele>
        <time>2014-10-01T08:29:57Z</time>
      </trkpt>
      <trkpt lat="42.3084090" lon="-6.4630810">
        <ele>1250.7</ele>
        <time>2014-10-01T08:29:58Z</time>
      </trkpt>
      <trkpt lat="42.3084180" lon="-6.4631490">
        <ele>1251.1</ele>
        <time>2014-10-01T08:29:59Z</time>
      </trkpt>
      <trkpt lat="42.3084280" lon="-6.4632100">
        <ele>1251.5</ele>
        <time>2014-10-01T08:30:00Z</time>
      </trkpt>
      <trkpt lat="42.3084370" lon="-6.4632640">
        <ele>1251.8</ele>
        <time>2014-10-01T08:30:01Z</time>
      </trkpt>
      <trkpt lat="42.3084460" lon="-6.4633180">
        <ele>1252.1</ele>
        <time>2014-10-01T08:30:02Z</time>
      </trkpt>
      <trkpt lat="42.3084560" lon="-6.4633650">
        <ele>1252.4</ele>
        <time>2014-10-01T08:30:03Z</time>
      </trkpt>
      <trkpt lat="42.3084660" lon="-6.4634180">
        <ele>1252.7</ele>
        <time>2014-10-01T08:30:04Z</time>
      </trkpt>
      <trkpt lat="42.3084770" lon="-6.4634670">
        <ele>1253.0</ele>
        <time>2014-10-01T08:30:05Z</time>
      </trkpt>
      <trkpt lat="42.3084890" lon="-6.4635180">
        <ele>1253.3</ele>
        <time>2014-10-01T08:30:06Z</time>
      </trkpt>
      <trkpt lat="42.3085000" lon="-6.4635680">
        <ele>1253.7</ele>
        <time>2014-10-01T08:30:07Z</time>
      </trkpt>
      <trkpt lat="42.3085090" lon="-6.4636190">
        <ele>1254.0</ele>
        <time>2014-10-01T08:30:08Z</time>
      </trkpt>
      <trkpt lat="42.3085190" lon="-6.4636680">
        <ele>1254.4</ele>
        <time>2014-10-01T08:30:09Z</time>
      </trkpt>
      <trkpt lat="42.3085290" lon="-6.4637110">
        <ele>1254.7</ele>
        <time>2014-10-01T08:30:10Z</time>
      </trkpt>
      <trkpt lat="42.3085390" lon="-6.4637560">
        <ele>1255.1</ele>
        <time>2014-10-01T08:30:11Z</time>
      </trkpt>
      <trkpt lat="42.3085490" lon="-6.4638030">
        <ele>1255.5</ele>
        <time>2014-10-01T08:30:12Z</time>
      </trkpt>
      <trkpt lat="42.3085590" lon="-6.4638490">
        <ele>1255.8</ele>
        <time>2014-10-01T08:30:13Z</time>
      </trkpt>
      <trkpt lat="42.3085670" lon="-6.4638880">
        <ele>1256.1</ele>
        <time>2014-10-01T08:30:14Z</time>
      </trkpt>
      <trkpt lat="42.3085770" lon="-6.4639280">
        <ele>1256.4</ele>
        <time>2014-10-01T08:30:15Z</time>
      </trkpt>
      <trkpt lat="42.3085880" lon="-6.4639700">
        <ele>1256.7</ele>
        <time>2014-10-01T08:30:16Z</time>
      </trkpt>
      <trkpt lat="42.3086010" lon="-6.4640140">
        <ele>1257.0</ele>
        <time>2014-10-01T08:30:17Z</time>
      </trkpt>
      <trkpt lat="42.3086160" lon="-6.4640610">
        <ele>1257.3</ele>
        <time>2014-10-01T08:30:18Z</time>
      </trkpt>
      <trkpt lat="42.3086300" lon="-6.4641040">
        <ele>1257.4</ele>
        <time>2014-10-01T08:30:19Z</time>
      </trkpt>
      <trkpt lat="42.3086470" lon="-6.4641450">
        <ele>1257.4</ele>
        <time>2014-10-01T08:30:20Z</time>
      </trkpt>
      <trkpt lat="42.3086660" lon="-6.4641900">
        <ele>1257.4</ele>
        <time>2014-10-01T08:30:21Z</time>
      </trkpt>
      <trkpt lat="42.3086840" lon="-6.4642360">
        <ele>1257.4</ele>
        <time>2014-10-01T08:30:22Z</time>
      </trkpt>
      <trkpt lat="42.3087050" lon="-6.4642830">
        <ele>1257.3</ele>
        <time>2014-10-01T08:30:23Z</time>
      </trkpt>
      <trkpt lat="42.3087280" lon="-6.4643300">
        <ele>1257.3</ele>
        <time>2014-10-01T08:30:24Z</time>
      </trkpt>
      <trkpt lat="42.3087500" lon="-6.4643750">
        <ele>1257.2</ele>
        <time>2014-10-01T08:30:25Z</time>
      </trkpt>
      <trkpt lat="42.3087760" lon="-6.4644300">
        <ele>1257.1</ele>
        <time>2014-10-01T08:30:26Z</time>
      </trkpt>
      <trkpt lat="42.3088020" lon="-6.4644830">
        <ele>1256.9</ele>
        <time>2014-10-01T08:30:27Z</time>
      </trkpt>
      <trkpt lat="42.3088310" lon="-6.4645380">
        <ele>1256.7</ele>
        <time>2014-10-01T08:30:28Z</time>
      </trkpt>
      <trkpt lat="42.3088620" lon="-6.4645970">
        <ele>1256.4</ele>
        <time>2014-10-01T08:30:29Z</time>
      </trkpt>
      <trkpt lat="42.3088960" lon="-6.4646630">
        <ele>1256.0</ele>
        <time>2014-10-01T08:30:30Z</time>
      </trkpt>
      <trkpt lat="42.3089270" lon="-6.4647290">
        <ele>1255.8</ele>
        <time>2014-10-01T08:30:31Z</time>
      </trkpt>
      <trkpt lat="42.3089570" lon="-6.4647990">
        <ele>1255.6</ele>
        <time>2014-10-01T08:30:32Z</time>
      </trkpt>
      <trkpt lat="42.3089850" lon="-6.4648760">
        <ele>1255.3</ele>
        <time>2014-10-01T08:30:33Z</time>
      </trkpt>
      <trkpt lat="42.3090110" lon="-6.4649610">
        <ele>1254.8</ele>
        <time>2014-10-01T08:30:34Z</time>
      </trkpt>
      <trkpt lat="42.3090340" lon="-6.4650530">
        <ele>1254.3</ele>
        <time>2014-10-01T08:30:35Z</time>
      </trkpt>
      <trkpt lat="42.3090550" lon="-6.4651520">
        <ele>1253.7</ele>
        <time>2014-10-01T08:30:36Z</time>
      </trkpt>
      <trkpt lat="42.3090750" lon="-6.4652560">
        <ele>1253.0</ele>
        <time>2014-10-01T08:30:37Z</time>
      </trkpt>
      <trkpt lat="42.3090940" lon="-6.4653670">
        <ele>1252.4</ele>
        <time>2014-10-01T08:30:38Z</time>
      </trkpt>
      <trkpt lat="42.3091110" lon="-6.4654810">
        <ele>1251.7</ele>
        <time>2014-10-01T08:30:39Z</time>
      </trkpt>
      <trkpt lat="42.3091240" lon="-6.4656040">
        <ele>1251.0</ele>
        <time>2014-10-01T08:30:40Z</time>
      </trkpt>
      <trkpt lat="42.3091350" lon="-6.4657340">
        <ele>1250.2</ele>
        <time>2014-10-01T08:30:41Z</time>
      </trkpt>
      <trkpt lat="42.3091210" lon="-6.4658680">
        <ele>1249.5</ele>
        <time>2014-10-01T08:30:42Z</time>
      </trkpt>
      <trkpt lat="42.3091020" lon="-6.4659970">
        <ele>1248.7</ele>
        <time>2014-10-01T08:30:43Z</time>
      </trkpt>
      <trkpt lat="42.3090840" lon="-6.4661280">
        <ele>1247.9</ele>
        <time>2014-10-01T08:30:44Z</time>
      </trkpt>
      <trkpt lat="42.3090610" lon="-6.4662710">
        <ele>1246.9</ele>
        <time>2014-10-01T08:30:45Z</time>
      </trkpt>
      <trkpt lat="42.3090350" lon="-6.4664100">
        <ele>1246.0</ele>
        <time>2014-10-01T08:30:46Z</time>
      </trkpt>
      <trkpt lat="42.3089970" lon="-6.4665520">
        <ele>1244.9</ele>
        <time>2014-10-01T08:30:47Z</time>
      </trkpt>
      <trkpt lat="42.3089630" lon="-6.4666960">
        <ele>1243.8</ele>
        <time>2014-10-01T08:30:48Z</time>
      </trkpt>
      <trkpt lat="42.3089320" lon="-6.4668450">
        <ele>1242.7</ele>
        <time>2014-10-01T08:30:49Z</time>
      </trkpt>
      <trkpt lat="42.3089010" lon="-6.4670030">
        <ele>1241.6</ele>
        <time>2014-10-01T08:30:50Z</time>
      </trkpt>
      <trkpt lat="42.3088710" lon="-6.4671630">
        <ele>1240.5</ele>
        <time>2014-10-01T08:30:51Z</time>
      </trkpt>
      <trkpt lat="42.3088370" lon="-6.4673320">
        <ele>1239.3</ele>
        <time>2014-10-01T08:30:52Z</time>
      </trkpt>
      <trkpt lat="42.3087980" lon="-6.4675070">
        <ele>1238.1</ele>
        <time>2014-10-01T08:30:53Z</time>
      </trkpt>
      <trkpt lat="42.3087540" lon="-6.4676770">
        <ele>1236.8</ele>
        <time>2014-10-01T08:30:54Z</time>
      </trkpt>
      <trkpt lat="42.3087060" lon="-6.4678380">
        <ele>1235.5</ele>
        <time>2014-10-01T08:30:55Z</time>
      </trkpt>
      <trkpt lat="42.3086520" lon="-6.4680060">
        <ele>1234.2</ele>
        <time>2014-10-01T08:30:56Z</time>
      </trkpt>
      <trkpt lat="42.3085950" lon="-6.4681700">
        <ele>1232.8</ele>
        <time>2014-10-01T08:30:57Z</time>
      </trkpt>
      <trkpt lat="42.3085320" lon="-6.4683410">
        <ele>1231.5</ele>
        <time>2014-10-01T08:30:58Z</time>
      </trkpt>
      <trkpt lat="42.3084670" lon="-6.4685080">
        <ele>1230.3</ele>
        <time>2014-10-01T08:30:59Z</time>
      </trkpt>
      <trkpt lat="42.3084020" lon="-6.4686820">
        <ele>1229.2</ele>
        <time>2014-10-01T08:31:00Z</time>
      </trkpt>
      <trkpt lat="42.3083370" lon="-6.4688600">
        <ele>1228.2</ele>
        <time>2014-10-01T08:31:01Z</time>
      </trkpt>
      <trkpt lat="42.3082700" lon="-6.4690300">
        <ele>1227.3</ele>
        <time>2014-10-01T08:31:02Z</time>
      </trkpt>
      <trkpt lat="42.3082050" lon="-6.4691990">
        <ele>1226.4</ele>
        <time>2014-10-01T08:31:03Z</time>
      </trkpt>
      <trkpt lat="42.3081410" lon="-6.4693510">
        <ele>1225.7</ele>
        <time>2014-10-01T08:31:04Z</time>
      </trkpt>
      <trkpt lat="42.3080730" lon="-6.4695060">
        <ele>1225.0</ele>
        <time>2014-10-01T08:31:05Z</time>
      </trkpt>
      <trkpt lat="42.3080040" lon="-6.4696650">
        <ele>1224.2</ele>
        <time>2014-10-01T08:31:06Z</time>
      </trkpt>
      <trkpt lat="42.3079470" lon="-6.4698120">
        <ele>1223.5</ele>
        <time>2014-10-01T08:31:07Z</time>
      </trkpt>
      <trkpt lat="42.3078980" lon="-6.4699430">
        <ele>1222.9</ele>
        <time>2014-10-01T08:31:08Z</time>
      </trkpt>
      <trkpt lat="42.3078320" lon="-6.4700420">
        <ele>1222.3</ele>
        <time>2014-10-01T08:31:09Z</time>
      </trkpt>
      <trkpt lat="42.3077460" lon="-6.4701050">
        <ele>1221.7</ele>
        <time>2014-10-01T08:31:10Z</time>
      </trkpt>
      <trkpt lat="42.3076440" lon="-6.4701130">
        <ele>1221.0</ele>
        <time>2014-10-01T08:31:11Z</time>
      </trkpt>
      <trkpt lat="42.3075340" lon="-6.4700850">
        <ele>1220.2</ele>
        <time>2014-10-01T08:31:12Z</time>
      </trkpt>
      <trkpt lat="42.3074240" lon="-6.4700390">
        <ele>1219.3</ele>
        <time>2014-10-01T08:31:13Z</time>
      </trkpt>
      <trkpt lat="42.3073240" lon="-6.4699870">
        <ele>1218.5</ele>
        <time>2014-10-01T08:31:14Z</time>
      </trkpt>
      <trkpt lat="42.3072340" lon="-6.4699430">
        <ele>1217.7</ele>
        <time>2014-10-01T08:31:15Z</time>
      </trkpt>
      <trkpt lat="42.3071490" lon="-6.4699500">
        <ele>1217.0</ele>
        <time>2014-10-01T08:31:16Z</time>
      </trkpt>
      <trkpt lat="42.3070870" lon="-6.4700040">
        <ele>1216.5</ele>
        <time>2014-10-01T08:31:17Z</time>
      </trkpt>
      <trkpt lat="42.3070450" lon="-6.4700950">
        <ele>1215.9</ele>
        <time>2014-10-01T08:31:18Z</time>
      </trkpt>
      <trkpt lat="42.3070310" lon="-6.4701870">
        <ele>1215.3</ele>
        <time>2014-10-01T08:31:19Z</time>
      </trkpt>
      <trkpt lat="42.3070210" lon="-6.4703040">
        <ele>1214.7</ele>
        <time>2014-10-01T08:31:20Z</time>
      </trkpt>
      <trkpt lat="42.3070180" lon="-6.4704340">
        <ele>1214.0</ele>
        <time>2014-10-01T08:31:21Z</time>
      </trkpt>
      <trkpt lat="42.3070120" lon="-6.4705750">
        <ele>1213.3</ele>
        <time>2014-10-01T08:31:22Z</time>
      </trkpt>
      <trkpt lat="42.3070060" lon="-6.4707120">
        <ele>1212.6</ele>
        <time>2014-10-01T08:31:23Z</time>
      </trkpt>
      <trkpt lat="42.3069990" lon="-6.4708470">
        <ele>1211.8</ele>
        <time>2014-10-01T08:31:24Z</time>
      </trkpt>
      <trkpt lat="42.3069890" lon="-6.4709780">
        <ele>1211.0</ele>
        <time>2014-10-01T08:31:25Z</time>
      </trkpt>
      <trkpt lat="42.3069540" lon="-6.4711150">
        <ele>1210.1</ele>
        <time>2014-10-01T08:31:26Z</time>
      </trkpt>
      <trkpt lat="42.3069160" lon="-6.4712560">
        <ele>1209.2</ele>
        <time>2014-10-01T08:31:27Z</time>
      </trkpt>
      <trkpt lat="42.3068700" lon="-6.4713980">
        <ele>1208.2</ele>
        <time>2014-10-01T08:31:28Z</time>
      </trkpt>
      <trkpt lat="42.3068230" lon="-6.4715300">
        <ele>1207.4</ele>
        <time>2014-10-01T08:31:29Z</time>
      </trkpt>
      <trkpt lat="42.3067700" lon="-6.4716660">
        <ele>1206.5</ele>
        <time>2014-10-01T08:31:30Z</time>
      </trkpt>
      <trkpt lat="42.3067200" lon="-6.4718060">
        <ele>1205.4</ele>
        <time>2014-10-01T08:31:31Z</time>
      </trkpt>
      <trkpt lat="42.3066650" lon="-6.4719550">
        <ele>1204.4</ele>
        <time>2014-10-01T08:31:32Z</time>
      </trkpt>
      <trkpt lat="42.3066000" lon="-6.4721050">
        <ele>1203.4</ele>
        <time>2014-10-01T08:31:33Z</time>
      </trkpt>
      <trkpt lat="42.3065270" lon="-6.4722540">
        <ele>1202.2</ele>
        <time>2014-10-01T08:31:34Z</time>
      </trkpt>
      <trkpt lat="42.3064480" lon="-6.4723920">
        <ele>1201.2</ele>
        <time>2014-10-01T08:31:35Z</time>
      </trkpt>
      <trkpt lat="42.3063640" lon="-6.4725250">
        <ele>1200.1</ele>
        <time>2014-10-01T08:31:36Z</time>
      </trkpt>
      <trkpt lat="42.3062750" lon="-6.4726590">
        <ele>1199.1</ele>
        <time>2014-10-01T08:31:37Z</time>
      </trkpt>
      <trkpt lat="42.3061870" lon="-6.4727930">
        <ele>1198.1</ele>
        <time>2014-10-01T08:31:38Z</time>
      </trkpt>
      <trkpt lat="42.3061000" lon="-6.4729240">
        <ele>1197.2</ele>
        <time>2014-10-01T08:31:39Z</time>
      </trkpt>
      <trkpt lat="42.3060240" lon="-6.4730510">
        <ele>1196.4</ele>
        <time>2014-10-01T08:31:40Z</time>
      </trkpt>
      <trkpt lat="42.3059510" lon="-6.4731660">
        <ele>1195.6</ele>
        <time>2014-10-01T08:31:41Z</time>
      </trkpt>
      <trkpt lat="42.3058560" lon="-6.4732460">
        <ele>1194.9</ele>
        <time>2014-10-01T08:31:42Z</time>
      </trkpt>
      <trkpt lat="42.3057480" lon="-6.4732790">
        <ele>1194.1</ele>
        <time>2014-10-01T08:31:43Z</time>
      </trkpt>
      <trkpt lat="42.3056290" lon="-6.4732830">
        <ele>1193.1</ele>
        <time>2014-10-01T08:31:44Z</time>
      </trkpt>
      <trkpt lat="42.3055180" lon="-6.4732840">
        <ele>1192.2</ele>
        <time>2014-10-01T08:31:45Z</time>
      </trkpt>
      <trkpt lat="42.3054180" lon="-6.4732850">
        <ele>1191.2</ele>
        <time>2014-10-01T08:31:46Z</time>
      </trkpt>
      <trkpt lat="42.3053420" lon="-6.4732900">
        <ele>1190.5</ele>
        <time>2014-10-01T08:31:47Z</time>
      </trkpt>
      <trkpt lat="42.3052920" lon="-6.4733440">
        <ele>1189.8</ele>
        <time>2014-10-01T08:31:48Z</time>
      </trkpt>
      <trkpt lat="42.3052860" lon="-6.4734230">
        <ele>1189.2</ele>
        <time>2014-10-01T08:31:49Z</time>
      </trkpt>
      <trkpt lat="42.3053110" lon="-6.4735050">
        <ele>1188.6</ele>
        <time>2014-10-01T08:31:50Z</time>
      </trkpt>
      <trkpt lat="42.3053410" lon="-6.4736070">
        <ele>1187.8</ele>
        <time>2014-10-01T08:31:51Z</time>
      </trkpt>
      <trkpt lat="42.3053800" lon="-6.4737290">
        <ele>1187.0</ele>
        <time>2014-10-01T08:31:52Z</time>
      </trkpt>
      <trkpt lat="42.3054210" lon="-6.4738540">
        <ele>1186.3</ele>
        <time>2014-10-01T08:31:53Z</time>
      </trkpt>
      <trkpt lat="42.3054410" lon="-6.4739940">
        <ele>1185.7</ele>
        <time>2014-10-01T08:31:54Z</time>
      </trkpt>
      <trkpt lat="42.3054600" lon="-6.4741400">
        <ele>1185.0</ele>
        <time>2014-10-01T08:31:55Z</time>
      </trkpt>
      <trkpt lat="42.3054720" lon="-6.4742880">
        <ele>1184.2</ele>
        <time>2014-10-01T08:31:56Z</time>
      </trkpt>
      <trkpt lat="42.3054820" lon="-6.4744340">
        <ele>1183.5</ele>
        <time>2014-10-01T08:31:57Z</time>
      </trkpt>
      <trkpt lat="42.3054930" lon="-6.4745830">
        <ele>1182.9</ele>
        <time>2014-10-01T08:31:58Z</time>
      </trkpt>
      <trkpt lat="42.3055320" lon="-6.4747280">
        <ele>1182.3</ele>
        <time>2014-10-01T08:31:59Z</time>
      </trkpt>
      <trkpt lat="42.3055740" lon="-6.4748680">
        <ele>1181.7</ele>
        <time>2014-10-01T08:32:00Z</time>
      </trkpt>
      <trkpt lat="42.3056410" lon="-6.4749910">
        <ele>1181.1</ele>
        <time>2014-10-01T08:32:01Z</time>
      </trkpt>
      <trkpt lat="42.3057100" lon="-6.4750900">
        <ele>1180.5</ele>
        <time>2014-10-01T08:32:02Z</time>
      </trkpt>
      <trkpt lat="42.3057870" lon="-6.4751790">
        <ele>1179.8</ele>
        <time>2014-10-01T08:32:03Z</time>
      </trkpt>
      <trkpt lat="42.3058710" lon="-6.4752620">
        <ele>1178.9</ele>
        <time>2014-10-01T08:32:04Z</time>
      </trkpt>
      <trkpt lat="42.3059590" lon="-6.4753510">
        <ele>1177.9</ele>
        <time>2014-10-01T08:32:05Z</time>
      </trkpt>
      <trkpt lat="42.3060420" lon="-6.4754460">
        <ele>1176.8</ele>
        <time>2014-10-01T08:32:06Z</time>
      </trkpt>
      <trkpt lat="42.3061260" lon="-6.4755560">
        <ele>1175.6</ele>
        <time>2014-10-01T08:32:07Z</time>
      </trkpt>
      <trkpt lat="42.3062100" lon="-6.4756900">
        <ele>1174.3</ele>
        <time>2014-10-01T08:32:08Z</time>
      </trkpt>
      <trkpt lat="42.3062840" lon="-6.4758290">
        <ele>1173.0</ele>
        <time>2014-10-01T08:32:09Z</time>
      </trkpt>
      <trkpt lat="42.3063210" lon="-6.4759930">
        <ele>1171.9</ele>
        <time>2014-10-01T08:32:10Z</time>
      </trkpt>
      <trkpt lat="42.3063300" lon="-6.4761590">
        <ele>1170.8</ele>
        <time>2014-10-01T08:32:11Z</time>
      </trkpt>
      <trkpt lat="42.3063380" lon="-6.4763260">
        <ele>1169.8</ele>
        <time>2014-10-01T08:32:12Z</time>
      </trkpt>
      <trkpt lat="42.3063510" lon="-6.4764950">
        <ele>1169.0</ele>
        <time>2014-10-01T08:32:13Z</time>
      </trkpt>
      <trkpt lat="42.3063740" lon="-6.4766670">
        <ele>1168.3</ele>
        <time>2014-10-01T08:32:14Z</time>
      </trkpt>
      <trkpt lat="42.3064290" lon="-6.4768370">
        <ele>1167.5</ele>
        <time>2014-10-01T08:32:15Z</time>
      </trkpt>
      <trkpt lat="42.3064910" lon="-6.4769950">
        <ele>1166.8</ele>
        <time>2014-10-01T08:32:16Z</time>
      </trkpt>
      <trkpt lat="42.3065570" lon="-6.4771400">
        <ele>1166.2</ele>
        <time>2014-10-01T08:32:17Z</time>
      </trkpt>
      <trkpt lat="42.3066260" lon="-6.4772740">
        <ele>1165.4</ele>
        <time>2014-10-01T08:32:18Z</time>
      </trkpt>
      <trkpt lat="42.3067010" lon="-6.4774000">
        <ele>1164.6</ele>
        <time>2014-10-01T08:32:19Z</time>
      </trkpt>
      <trkpt lat="42.3067830" lon="-6.4775170">
        <ele>1163.7</ele>
        <time>2014-10-01T08:32:20Z</time>
      </trkpt>
      <trkpt lat="42.3068820" lon="-6.4776030">
        <ele>1162.8</ele>
        <time>2014-10-01T08:32:21Z</time>
      </trkpt>
      <trkpt lat="42.3069820" lon="-6.4776950">
        <ele>1161.8</ele>
        <time>2014-10-01T08:32:22Z</time>
      </trkpt>
      <trkpt lat="42.3070780" lon="-6.4778070">
        <ele>1160.7</ele>
        <time>2014-10-01T08:32:23Z</time>
      </trkpt>
      <trkpt lat="42.3071390" lon="-6.4779470">
        <ele>1159.5</ele>
        <time>2014-10-01T08:32:24Z</time>
      </trkpt>
      <trkpt lat="42.3072030" lon="-6.4781030">
        <ele>1158.2</ele>
        <time>2014-10-01T08:32:25Z</time>
      </trkpt>
      <trkpt lat="42.3072610" lon="-6.4782620">
        <ele>1156.9</ele>
        <time>2014-10-01T08:32:26Z</time>
      </trkpt>
      <trkpt lat="42.3073170" lon="-6.4784250">
        <ele>1155.6</ele>
        <time>2014-10-01T08:32:27Z</time>
      </trkpt>
      <trkpt lat="42.3073740" lon="-6.4785960">
        <ele>1154.1</ele>
        <time>2014-10-01T08:32:28Z</time>
      </trkpt>
      <trkpt lat="42.3074270" lon="-6.4787700">
        <ele>1152.7</ele>
        <time>2014-10-01T08:32:29Z</time>
      </trkpt>
      <trkpt lat="42.3074780" lon="-6.4789410">
        <ele>1151.3</ele>
        <time>2014-10-01T08:32:30Z</time>
      </trkpt>
      <trkpt lat="42.3075250" lon="-6.4791140">
        <ele>1149.9</ele>
        <time>2014-10-01T08:32:31Z</time>
      </trkpt>
      <trkpt lat="42.3075700" lon="-6.4792940">
        <ele>1148.7</ele>
        <time>2014-10-01T08:32:32Z</time>
      </trkpt>
      <trkpt lat="42.3076120" lon="-6.4794770">
        <ele>1147.3</ele>
        <time>2014-10-01T08:32:33Z</time>
      </trkpt>
      <trkpt lat="42.3076500" lon="-6.4796550">
        <ele>1146.0</ele>
        <time>2014-10-01T08:32:34Z</time>
      </trkpt>
      <trkpt lat="42.3076860" lon="-6.4798480">
        <ele>1144.5</ele>
        <time>2014-10-01T08:32:35Z</time>
      </trkpt>
      <trkpt lat="42.3077170" lon="-6.4800560">
        <ele>1143.0</ele>
        <time>2014-10-01T08:32:36Z</time>
      </trkpt>
      <trkpt lat="42.3077390" lon="-6.4802560">
        <ele>1141.7</ele>
        <time>2014-10-01T08:32:37Z</time>
      </trkpt>
      <trkpt lat="42.3077590" lon="-6.4804520">
        <ele>1140.4</ele>
        <time>2014-10-01T08:32:38Z</time>
      </trkpt>
      <trkpt lat="42.3077760" lon="-6.4806440">
        <ele>1139.1</ele>
        <time>2014-10-01T08:32:39Z</time>
      </trkpt>
      <trkpt lat="42.3077950" lon="-6.4808340">
        <ele>1137.8</ele>
        <time>2014-10-01T08:32:40Z</time>
      </trkpt>
      <trkpt lat="42.3078140" lon="-6.4810240">
        <ele>1136.6</ele>
        <time>2014-10-01T08:32:41Z</time>
      </trkpt>
      <trkpt lat="42.3078360" lon="-6.4812270">
        <ele>1135.3</ele>
        <time>2014-10-01T08:32:42Z</time>
      </trkpt>
      <trkpt lat="42.3078650" lon="-6.4814210">
        <ele>1134.0</ele>
        <time>2014-10-01T08:32:43Z</time>
      </trkpt>
      <trkpt lat="42.3078970" lon="-6.4816060">
        <ele>1132.7</ele>
        <time>2014-10-01T08:32:44Z</time>
      </trkpt>
      <trkpt lat="42.3079360" lon="-6.4817980">
        <ele>1131.3</ele>
        <time>2014-10-01T08:32:45Z</time>
      </trkpt>
      <trkpt lat="42.3079780" lon="-6.4819950">
        <ele>1129.9</ele>
        <time>2014-10-01T08:32:46Z</time>
      </trkpt>
      <trkpt lat="42.3080200" lon="-6.4821920">
        <ele>1128.6</ele>
        <time>2014-10-01T08:32:47Z</time>
      </trkpt>
      <trkpt lat="42.3080610" lon="-6.4823870">
        <ele>1127.4</ele>
        <time>2014-10-01T08:32:48Z</time>
      </trkpt>
      <trkpt lat="42.3081000" lon="-6.4825820">
        <ele>1126.2</ele>
        <time>2014-10-01T08:32:49Z</time>
      </trkpt>
      <trkpt lat="42.3081370" lon="-6.4827720">
        <ele>1125.0</ele>
        <time>2014-10-01T08:32:50Z</time>
      </trkpt>
      <trkpt lat="42.3081790" lon="-6.4829620">
        <ele>1123.7</ele>
        <time>2014-10-01T08:32:51Z</time>
      </trkpt>
      <trkpt lat="42.3082200" lon="-6.4831540">
        <ele>1122.4</ele>
        <time>2014-10-01T08:32:52Z</time>
      </trkpt>
      <trkpt lat="42.3082630" lon="-6.4833420">
        <ele>1121.0</ele>
        <time>2014-10-01T08:32:53Z</time>
      </trkpt>
      <trkpt lat="42.3083060" lon="-6.4835340">
        <ele>1119.5</ele>
        <time>2014-10-01T08:32:54Z</time>
      </trkpt>
      <trkpt lat="42.3083500" lon="-6.4837260">
        <ele>1118.0</ele>
        <time>2014-10-01T08:32:55Z</time>
      </trkpt>
      <trkpt lat="42.3083890" lon="-6.4839180">
        <ele>1116.5</ele>
        <time>2014-10-01T08:32:56Z</time>
      </trkpt>
      <trkpt lat="42.3084290" lon="-6.4841180">
        <ele>1115.0</ele>
        <time>2014-10-01T08:32:57Z</time>
      </trkpt>
      <trkpt lat="42.3084650" lon="-6.4843220">
        <ele>1113.4</ele>
        <time>2014-10-01T08:32:58Z</time>
      </trkpt>
      <trkpt lat="42.3084970" lon="-6.4845190">
        <ele>1111.9</ele>
        <time>2014-10-01T08:32:59Z</time>
      </trkpt>
      <trkpt lat="42.3085280" lon="-6.4847250">
        <ele>1110.3</ele>
        <time>2014-10-01T08:33:00Z</time>
      </trkpt>
      <trkpt lat="42.3085590" lon="-6.4849340">
        <ele>1109.2</ele>
        <time>2014-10-01T08:33:01Z</time>
      </trkpt>
      <trkpt lat="42.3085800" lon="-6.4851320">
        <ele>1108.0</ele>
        <time>2014-10-01T08:33:02Z</time>
      </trkpt>
      <trkpt lat="42.3085990" lon="-6.4853310">
        <ele>1106.8</ele>
        <time>2014-10-01T08:33:03Z</time>
      </trkpt>
      <trkpt lat="42.3086120" lon="-6.4855340">
        <ele>1105.5</ele>
        <time>2014-10-01T08:33:04Z</time>
      </trkpt>
      <trkpt lat="42.3086190" lon="-6.4857340">
        <ele>1104.1</ele>
        <time>2014-10-01T08:33:05Z</time>
      </trkpt>
      <trkpt lat="42.3086230" lon="-6.4859460">
        <ele>1102.7</ele>
        <time>2014-10-01T08:33:06Z</time>
      </trkpt>
      <trkpt lat="42.3086200" lon="-6.4861520">
        <ele>1101.4</ele>
        <time>2014-10-01T08:33:07Z</time>
      </trkpt>
      <trkpt lat="42.3086090" lon="-6.4863580">
        <ele>1100.0</ele>
        <time>2014-10-01T08:33:08Z</time>
      </trkpt>
      <trkpt lat="42.3085890" lon="-6.4865450">
        <ele>1098.6</ele>
        <time>2014-10-01T08:33:09Z</time>
      </trkpt>
      <trkpt lat="42.3085630" lon="-6.4867380">
        <ele>1097.1</ele>
        <time>2014-10-01T08:33:10Z</time>
      </trkpt>
      <trkpt lat="42.3085340" lon="-6.4869400">
        <ele>1095.5</ele>
        <time>2014-10-01T08:33:11Z</time>
      </trkpt>
      <trkpt lat="42.3085020" lon="-6.4871350">
        <ele>1094.0</ele>
        <time>2014-10-01T08:33:12Z</time>
      </trkpt>
      <trkpt lat="42.3084630" lon="-6.4873410">
        <ele>1092.3</ele>
        <time>2014-10-01T08:33:13Z</time>
      </trkpt>
      <trkpt lat="42.3084200" lon="-6.4875420">
        <ele>1090.8</ele>
        <time>2014-10-01T08:33:14Z</time>
      </trkpt>
      <trkpt lat="42.3083780" lon="-6.4877350">
        <ele>1089.4</ele>
        <time>2014-10-01T08:33:15Z</time>
      </trkpt>
      <trkpt lat="42.3083100" lon="-6.4879160">
        <ele>1088.0</ele>
        <time>2014-10-01T08:33:16Z</time>
      </trkpt>
      <trkpt lat="42.3082510" lon="-6.4881220">
        <ele>1086.7</ele>
        <time>2014-10-01T08:33:17Z</time>
      </trkpt>
      <trkpt lat="42.3081960" lon="-6.4883300">
        <ele>1085.5</ele>
        <time>2014-10-01T08:33:18Z</time>
      </trkpt>
      <trkpt lat="42.3081470" lon="-6.4885450">
        <ele>1084.4</ele>
        <time>2014-10-01T08:33:19Z</time>
      </trkpt>
      <trkpt lat="42.3081040" lon="-6.4887570">
        <ele>1083.3</ele>
        <time>2014-10-01T08:33:20Z</time>
      </trkpt>
      <trkpt lat="42.3080610" lon="-6.4889600">
        <ele>1082.2</ele>
        <time>2014-10-01T08:33:21Z</time>
      </trkpt>
      <trkpt lat="42.3080170" lon="-6.4891570">
        <ele>1081.1</ele>
        <time>2014-10-01T08:33:22Z</time>
      </trkpt>
      <trkpt lat="42.3079710" lon="-6.4893510">
        <ele>1079.9</ele>
        <time>2014-10-01T08:33:23Z</time>
      </trkpt>
      <trkpt lat="42.3079210" lon="-6.4895370">
        <ele>1078.6</ele>
        <time>2014-10-01T08:33:24Z</time>
      </trkpt>
      <trkpt lat="42.3078680" lon="-6.4897160">
        <ele>1077.3</ele>
        <time>2014-10-01T08:33:25Z</time>
      </trkpt>
      <trkpt lat="42.3078130" lon="-6.4898910">
        <ele>1076.1</ele>
        <time>2014-10-01T08:33:26Z</time>
      </trkpt>
      <trkpt lat="42.3077600" lon="-6.4900530">
        <ele>1074.8</ele>
        <time>2014-10-01T08:33:27Z</time>
      </trkpt>
      <trkpt lat="42.3077060" lon="-6.4902130">
        <ele>1073.6</ele>
        <time>2014-10-01T08:33:28Z</time>
      </trkpt>
      <trkpt lat="42.3076480" lon="-6.4903900">
        <ele>1072.2</ele>
        <time>2014-10-01T08:33:29Z</time>
      </trkpt>
      <trkpt lat="42.3075830" lon="-6.4905670">
        <ele>1071.0</ele>
        <time>2014-10-01T08:33:30Z</time>
      </trkpt>
      <trkpt lat="42.3075160" lon="-6.4907430">
        <ele>1069.8</ele>
        <time>2014-10-01T08:33:31Z</time>
      </trkpt>
      <trkpt lat="42.3074380" lon="-6.4909180">
        <ele>1068.8</ele>
        <time>2014-10-01T08:33:32Z</time>
      </trkpt>
      <trkpt lat="42.3073500" lon="-6.4910880">
        <ele>1067.8</ele>
        <time>2014-10-01T08:33:33Z</time>
      </trkpt>
      <trkpt lat="42.3072540" lon="-6.4912480">
        <ele>1066.6</ele>
        <time>2014-10-01T08:33:34Z</time>
      </trkpt>
      <trkpt lat="42.3071580" lon="-6.4914040">
        <ele>1065.3</ele>
        <time>2014-10-01T08:33:35Z</time>
      </trkpt>
      <trkpt lat="42.3070610" lon="-6.4915600">
        <ele>1064.0</ele>
        <time>2014-10-01T08:33:36Z</time>
      </trkpt>
      <trkpt lat="42.3069600" lon="-6.4917150">
        <ele>1062.5</ele>
        <time>2014-10-01T08:33:37Z</time>
      </trkpt>
      <trkpt lat="42.3068550" lon="-6.4918700">
        <ele>1061.0</ele>
        <time>2014-10-01T08:33:38Z</time>
      </trkpt>
      <trkpt lat="42.3067450" lon="-6.4920170">
        <ele>1059.4</ele>
        <time>2014-10-01T08:33:39Z</time>
      </trkpt>
      <trkpt lat="42.3066240" lon="-6.4921530">
        <ele>1057.7</ele>
        <time>2014-10-01T08:33:40Z</time>
      </trkpt>
      <trkpt lat="42.3064850" lon="-6.4922550">
        <ele>1056.0</ele>
        <time>2014-10-01T08:33:41Z</time>
      </trkpt>
      <trkpt lat="42.3063390" lon="-6.4923570">
        <ele>1054.3</ele>
        <time>2014-10-01T08:33:42Z</time>
      </trkpt>
      <trkpt lat="42.3061860" lon="-6.4924440">
        <ele>1052.7</ele>
        <time>2014-10-01T08:33:43Z</time>
      </trkpt>
      <trkpt lat="42.3060220" lon="-6.4925150">
        <ele>1051.1</ele>
        <time>2014-10-01T08:33:44Z</time>
      </trkpt>
      <trkpt lat="42.3058500" lon="-6.4925700">
        <ele>1049.5</ele>
        <time>2014-10-01T08:33:45Z</time>
      </trkpt>
      <trkpt lat="42.3056720" lon="-6.4926180">
        <ele>1047.8</ele>
        <time>2014-10-01T08:33:46Z</time>
      </trkpt>
      <trkpt lat="42.3055110" lon="-6.4926450">
        <ele>1046.1</ele>
        <time>2014-10-01T08:33:47Z</time>
      </trkpt>
      <trkpt lat="42.3053510" lon="-6.4926310">
        <ele>1044.6</ele>
        <time>2014-10-01T08:33:48Z</time>
      </trkpt>
      <trkpt lat="42.3051880" lon="-6.4925760">
        <ele>1043.1</ele>
        <time>2014-10-01T08:33:49Z</time>
      </trkpt>
      <trkpt lat="42.3050380" lon="-6.4924760">
        <ele>1041.6</ele>
        <time>2014-10-01T08:33:50Z</time>
      </trkpt>
      <trkpt lat="42.3049170" lon="-6.4923680">
        <ele>1040.2</ele>
        <time>2014-10-01T08:33:51Z</time>
      </trkpt>
      <trkpt lat="42.3048140" lon="-6.4922470">
        <ele>1038.8</ele>
        <time>2014-10-01T08:33:52Z</time>
      </trkpt>
      <trkpt lat="42.3047220" lon="-6.4921160">
        <ele>1037.5</ele>
        <time>2014-10-01T08:33:53Z</time>
      </trkpt>
      <trkpt lat="42.3046340" lon="-6.4919790">
        <ele>1036.2</ele>
        <time>2014-10-01T08:33:54Z</time>
      </trkpt>
      <trkpt lat="42.3045480" lon="-6.4918400">
        <ele>1034.9</ele>
        <time>2014-10-01T08:33:55Z</time>
      </trkpt>
      <trkpt lat="42.3044610" lon="-6.4916950">
        <ele>1033.4</ele>
        <time>2014-10-01T08:33:56Z</time>
      </trkpt>
      <trkpt lat="42.3043700" lon="-6.4915470">
        <ele>1032.0</ele>
        <time>2014-10-01T08:33:57Z</time>
      </trkpt>
      <trkpt lat="42.3042830" lon="-6.4913940">
        <ele>1030.5</ele>
        <time>2014-10-01T08:33:58Z</time>
      </trkpt>
      <trkpt lat="42.3042210" lon="-6.4912080">
        <ele>1029.0</ele>
        <time>2014-10-01T08:33:59Z</time>
      </trkpt>
      <trkpt lat="42.3041700" lon="-6.4910240">
        <ele>1027.5</ele>
        <time>2014-10-01T08:34:00Z</time>
      </trkpt>
      <trkpt lat="42.3041240" lon="-6.4908350">
        <ele>1026.3</ele>
        <time>2014-10-01T08:34:01Z</time>
      </trkpt>
      <trkpt lat="42.3041110" lon="-6.4906490">
        <ele>1025.2</ele>
        <time>2014-10-01T08:34:02Z</time>
      </trkpt>
      <trkpt lat="42.3041050" lon="-6.4904800">
        <ele>1024.2</ele>
        <time>2014-10-01T08:34:03Z</time>
      </trkpt>
      <trkpt lat="42.3041220" lon="-6.4903350">
        <ele>1023.3</ele>
        <time>2014-10-01T08:34:04Z</time>
      </trkpt>
      <trkpt lat="42.3041340" lon="-6.4902150">
        <ele>1022.5</ele>
        <time>2014-10-01T08:34:05Z</time>
      </trkpt>
      <trkpt lat="42.3041100" lon="-6.4901330">
        <ele>1021.8</ele>
        <time>2014-10-01T08:34:06Z</time>
      </trkpt>
      <trkpt lat="42.3040640" lon="-6.4900970">
        <ele>1021.3</ele>
        <time>2014-10-01T08:34:07Z</time>
      </trkpt>
      <trkpt lat="42.3040150" lon="-6.4901200">
        <ele>1020.7</ele>
        <time>2014-10-01T08:34:08Z</time>
      </trkpt>
      <trkpt lat="42.3039840" lon="-6.4901740">
        <ele>1020.2</ele>
        <time>2014-10-01T08:34:09Z</time>
      </trkpt>
      <trkpt lat="42.3039620" lon="-6.4902370">
        <ele>1019.6</ele>
        <time>2014-10-01T08:34:10Z</time>
      </trkpt>
      <trkpt lat="42.3039410" lon="-6.4903330">
        <ele>1018.8</ele>
        <time>2014-10-01T08:34:11Z</time>
      </trkpt>
      <trkpt lat="42.3039330" lon="-6.4904550">
        <ele>1017.8</ele>
        <time>2014-10-01T08:34:12Z</time>
      </trkpt>
      <trkpt lat="42.3039280" lon="-6.4905790">
        <ele>1016.9</ele>
        <time>2014-10-01T08:34:13Z</time>
      </trkpt>
      <trkpt lat="42.3039140" lon="-6.4907180">
        <ele>1016.1</ele>
        <time>2014-10-01T08:34:14Z</time>
      </trkpt>
      <trkpt lat="42.3039020" lon="-6.4908580">
        <ele>1015.4</ele>
        <time>2014-10-01T08:34:15Z</time>
      </trkpt>
      <trkpt lat="42.3038820" lon="-6.4910210">
        <ele>1014.7</ele>
        <time>2014-10-01T08:34:16Z</time>
      </trkpt>
      <trkpt lat="42.3038560" lon="-6.4911920">
        <ele>1014.1</ele>
        <time>2014-10-01T08:34:17Z</time>
      </trkpt>
      <trkpt lat="42.3038390" lon="-6.4913500">
        <ele>1013.5</ele>
        <time>2014-10-01T08:34:18Z</time>
      </trkpt>
      <trkpt lat="42.3038270" lon="-6.4915060">
        <ele>1012.8</ele>
        <time>2014-10-01T08:34:19Z</time>
      </trkpt>
      <trkpt lat="42.3038350" lon="-6.4916500">
        <ele>1012.0</ele>
        <time>2014-10-01T08:34:20Z</time>
      </trkpt>
      <trkpt lat="42.3038520" lon="-6.4918040">
        <ele>1011.1</ele>
        <time>2014-10-01T08:34:21Z</time>
      </trkpt>
      <trkpt lat="42.3038720" lon="-6.4919640">
        <ele>1009.9</ele>
        <time>2014-10-01T08:34:22Z</time>
      </trkpt>
      <trkpt lat="42.3039230" lon="-6.4921140">
        <ele>1008.7</ele>
        <time>2014-10-01T08:34:23Z</time>
      </trkpt>
      <trkpt lat="42.3040100" lon="-6.4922350">
        <ele>1007.4</ele>
        <time>2014-10-01T08:34:24Z</time>
      </trkpt>
      <trkpt lat="42.3041070" lon="-6.4923480">
        <ele>1006.1</ele>
        <time>2014-10-01T08:34:25Z</time>
      </trkpt>
      <trkpt lat="42.3042030" lon="-6.4924540">
        <ele>1004.8</ele>
        <time>2014-10-01T08:34:26Z</time>
      </trkpt>
      <trkpt lat="42.3042970" lon="-6.4925750">
        <ele>1003.5</ele>
        <time>2014-10-01T08:34:27Z</time>
      </trkpt>
      <trkpt lat="42.3043690" lon="-6.4927550">
        <ele>1002.0</ele>
        <time>2014-10-01T08:34:28Z</time>
      </trkpt>
      <trkpt lat="42.3044320" lon="-6.4929320">
        <ele>1000.6</ele>
        <time>2014-10-01T08:34:29Z</time>
      </trkpt>
      <trkpt lat="42.3044940" lon="-6.4931020">
        <ele>999.2</ele>
        <time>2014-10-01T08:34:30Z</time>
      </trkpt>
      <trkpt lat="42.3045330" lon="-6.4932880">
        <ele>997.9</ele>
        <time>2014-10-01T08:34:31Z</time>
      </trkpt>
      <trkpt lat="42.3045690" lon="-6.4934780">
        <ele>996.5</ele>
        <time>2014-10-01T08:34:32Z</time>
      </trkpt>
      <trkpt lat="42.3046060" lon="-6.4936790">
        <ele>994.9</ele>
        <time>2014-10-01T08:34:33Z</time>
      </trkpt>
      <trkpt lat="42.3046410" lon="-6.4938780">
        <ele>993.2</ele>
        <time>2014-10-01T08:34:34Z</time>
      </trkpt>
      <trkpt lat="42.3046740" lon="-6.4940740">
        <ele>991.6</ele>
        <time>2014-10-01T08:34:35Z</time>
      </trkpt>
      <trkpt lat="42.3047050" lon="-6.4942730">
        <ele>990.0</ele>
        <time>2014-10-01T08:34:36Z</time>
      </trkpt>
      <trkpt lat="42.3047300" lon="-6.4944630">
        <ele>988.4</ele>
        <time>2014-10-01T08:34:37Z</time>
      </trkpt>
      <trkpt lat="42.3047580" lon="-6.4946450">
        <ele>986.9</ele>
        <time>2014-10-01T08:34:38Z</time>
      </trkpt>
      <trkpt lat="42.3047860" lon="-6.4948250">
        <ele>985.5</ele>
        <time>2014-10-01T08:34:39Z</time>
      </trkpt>
      <trkpt lat="42.3048500" lon="-6.4949720">
        <ele>984.3</ele>
        <time>2014-10-01T08:34:40Z</time>
      </trkpt>
      <trkpt lat="42.3049420" lon="-6.4950850">
        <ele>983.2</ele>
        <time>2014-10-01T08:34:41Z</time>
      </trkpt>
      <trkpt lat="42.3050460" lon="-6.4951650">
        <ele>982.1</ele>
        <time>2014-10-01T08:34:42Z</time>
      </trkpt>
      <trkpt lat="42.3051540" lon="-6.4951980">
        <ele>981.1</ele>
        <time>2014-10-01T08:34:43Z</time>
      </trkpt>
      <trkpt lat="42.3052620" lon="-6.4951780">
        <ele>980.1</ele>
        <time>2014-10-01T08:34:44Z</time>
      </trkpt>
      <trkpt lat="42.3053610" lon="-6.4951230">
        <ele>979.2</ele>
        <time>2014-10-01T08:34:45Z</time>
      </trkpt>
      <trkpt lat="42.3054450" lon="-6.4950350">
        <ele>978.4</ele>
        <time>2014-10-01T08:34:46Z</time>
      </trkpt>
      <trkpt lat="42.3055200" lon="-6.4949550">
        <ele>977.5</ele>
        <time>2014-10-01T08:34:47Z</time>
      </trkpt>
      <trkpt lat="42.3055870" lon="-6.4948930">
        <ele>976.7</ele>
        <time>2014-10-01T08:34:48Z</time>
      </trkpt>
      <trkpt lat="42.3056440" lon="-6.4948460">
        <ele>976.0</ele>
        <time>2014-10-01T08:34:49Z</time>
      </trkpt>
      <trkpt lat="42.3057000" lon="-6.4948770">
        <ele>975.3</ele>
        <time>2014-10-01T08:34:50Z</time>
      </trkpt>
      <trkpt lat="42.3057430" lon="-6.4949230">
        <ele>974.7</ele>
        <time>2014-10-01T08:34:51Z</time>
      </trkpt>
      <trkpt lat="42.3057410" lon="-6.4950240">
        <ele>973.8</ele>
        <time>2014-10-01T08:34:52Z</time>
      </trkpt>
      <trkpt lat="42.3057110" lon="-6.4951230">
        <ele>973.1</ele>
        <time>2014-10-01T08:34:53Z</time>
      </trkpt>
      <trkpt lat="42.3056780" lon="-6.4952220">
        <ele>972.3</ele>
        <time>2014-10-01T08:34:54Z</time>
      </trkpt>
      <trkpt lat="42.3056370" lon="-6.4953240">
        <ele>971.6</ele>
        <time>2014-10-01T08:34:55Z</time>
      </trkpt>
      <trkpt lat="42.3055880" lon="-6.4954270">
        <ele>970.9</ele>
        <time>2014-10-01T08:34:56Z</time>
      </trkpt>
      <trkpt lat="42.3055340" lon="-6.4955350">
        <ele>970.2</ele>
        <time>2014-10-01T08:34:57Z</time>
      </trkpt>
      <trkpt lat="42.3054730" lon="-6.4956460">
        <ele>969.4</ele>
        <time>2014-10-01T08:34:58Z</time>
      </trkpt>
      <trkpt lat="42.3054050" lon="-6.4957560">
        <ele>968.5</ele>
        <time>2014-10-01T08:34:59Z</time>
      </trkpt>
      <trkpt lat="42.3053230" lon="-6.4958610">
        <ele>967.5</ele>
        <time>2014-10-01T08:35:00Z</time>
      </trkpt>
      <trkpt lat="42.3052240" lon="-6.4959360">
        <ele>966.5</ele>
        <time>2014-10-01T08:35:01Z</time>
      </trkpt>
      <trkpt lat="42.3051170" lon="-6.4960100">
        <ele>965.3</ele>
        <time>2014-10-01T08:35:02Z</time>
      </trkpt>
      <trkpt lat="42.3049970" lon="-6.4960580">
        <ele>964.0</ele>
        <time>2014-10-01T08:35:03Z</time>
      </trkpt>
      <trkpt lat="42.3048750" lon="-6.4960760">
        <ele>963.0</ele>
        <time>2014-10-01T08:35:04Z</time>
      </trkpt>
      <trkpt lat="42.3047350" lon="-6.4960680">
        <ele>961.9</ele>
        <time>2014-10-01T08:35:05Z</time>
      </trkpt>
      <trkpt lat="42.3045940" lon="-6.4960440">
        <ele>961.1</ele>
        <time>2014-10-01T08:35:06Z</time>
      </trkpt>
      <trkpt lat="42.3044700" lon="-6.4959630">
        <ele>960.3</ele>
        <time>2014-10-01T08:35:07Z</time>
      </trkpt>
      <trkpt lat="42.3043720" lon="-6.4958490">
        <ele>959.5</ele>
        <time>2014-10-01T08:35:08Z</time>
      </trkpt>
      <trkpt lat="42.3043090" lon="-6.4957110">
        <ele>958.7</ele>
        <time>2014-10-01T08:35:09Z</time>
      </trkpt>
      <trkpt lat="42.3042600" lon="-6.4955690">
        <ele>957.9</ele>
        <time>2014-10-01T08:35:10Z</time>
      </trkpt>
      <trkpt lat="42.3042230" lon="-6.4954210">
        <ele>957.0</ele>
        <time>2014-10-01T08:35:11Z</time>
      </trkpt>
      <trkpt lat="42.3041930" lon="-6.4952660">
        <ele>956.1</ele>
        <time>2014-10-01T08:35:12Z</time>
      </trkpt>
      <trkpt lat="42.3041600" lon="-6.4951170">
        <ele>955.2</ele>
        <time>2014-10-01T08:35:13Z</time>
      </trkpt>
      <trkpt lat="42.3041170" lon="-6.4949610">
        <ele>954.2</ele>
        <time>2014-10-01T08:35:14Z</time>
      </trkpt>
      <trkpt lat="42.3040450" lon="-6.4948270">
        <ele>953.1</ele>
        <time>2014-10-01T08:35:15Z</time>
      </trkpt>
      <trkpt lat="42.3039720" lon="-6.4946860">
        <ele>952.0</ele>
        <time>2014-10-01T08:35:16Z</time>
      </trkpt>
      <trkpt lat="42.3038900" lon="-6.4945600">
        <ele>951.0</ele>
        <time>2014-10-01T08:35:17Z</time>
      </trkpt>
      <trkpt lat="42.3038060" lon="-6.4944390">
        <ele>950.0</ele>
        <time>2014-10-01T08:35:18Z</time>
      </trkpt>
      <trkpt lat="42.3037580" lon="-6.4943040">
        <ele>949.2</ele>
        <time>2014-10-01T08:35:19Z</time>
      </trkpt>
      <trkpt lat="42.3037130" lon="-6.4941810">
        <ele>948.6</ele>
        <time>2014-10-01T08:35:20Z</time>
      </trkpt>
      <trkpt lat="42.3036650" lon="-6.4940640">
        <ele>947.8</ele>
        <time>2014-10-01T08:35:21Z</time>
      </trkpt>
      <trkpt lat="42.3036140" lon="-6.4939480">
        <ele>947.2</ele>
        <time>2014-10-01T08:35:22Z</time>
      </trkpt>
      <trkpt lat="42.3035590" lon="-6.4938330">
        <ele>946.5</ele>
        <time>2014-10-01T08:35:23Z</time>
      </trkpt>
      <trkpt lat="42.3035010" lon="-6.4937190">
        <ele>945.7</ele>
        <time>2014-10-01T08:35:24Z</time>
      </trkpt>
      <trkpt lat="42.3034380" lon="-6.4936130">
        <ele>944.9</ele>
        <time>2014-10-01T08:35:25Z</time>
      </trkpt>
      <trkpt lat="42.3033670" lon="-6.4935070">
        <ele>944.1</ele>
        <time>2014-10-01T08:35:26Z</time>
      </trkpt>
      <trkpt lat="42.3032900" lon="-6.4934050">
        <ele>943.3</ele>
        <time>2014-10-01T08:35:27Z</time>
      </trkpt>
      <trkpt lat="42.3032150" lon="-6.4933050">
        <ele>942.5</ele>
        <time>2014-10-01T08:35:28Z</time>
      </trkpt>
      <trkpt lat="42.3031390" lon="-6.4932040">
        <ele>941.6</ele>
        <time>2014-10-01T08:35:29Z</time>
      </trkpt>
      <trkpt lat="42.3030610" lon="-6.4931070">
        <ele>940.7</ele>
        <time>2014-10-01T08:35:30Z</time>
      </trkpt>
      <trkpt lat="42.3029960" lon="-6.4930360">
        <ele>940.1</ele>
        <time>2014-10-01T08:35:31Z</time>
      </trkpt>
      <trkpt lat="42.3029320" lon="-6.4929920">
        <ele>939.6</ele>
        <time>2014-10-01T08:35:32Z</time>
      </trkpt>
      <trkpt lat="42.3028630" lon="-6.4930040">
        <ele>939.1</ele>
        <time>2014-10-01T08:35:33Z</time>
      </trkpt>
      <trkpt lat="42.3028130" lon="-6.4930660">
        <ele>938.6</ele>
        <time>2014-10-01T08:35:34Z</time>
      </trkpt>
      <trkpt lat="42.3027980" lon="-6.4931490">
        <ele>938.3</ele>
        <time>2014-10-01T08:35:35Z</time>
      </trkpt>
      <trkpt lat="42.3027940" lon="-6.4932520">
        <ele>937.8</ele>
        <time>2014-10-01T08:35:36Z</time>
      </trkpt>
      <trkpt lat="42.3027960" lon="-6.4933590">
        <ele>937.3</ele>
        <time>2014-10-01T08:35:37Z</time>
      </trkpt>
      <trkpt lat="42.3028010" lon="-6.4934750">
        <ele>936.7</ele>
        <time>2014-10-01T08:35:38Z</time>
      </trkpt>
      <trkpt lat="42.3028060" lon="-6.4936030">
        <ele>935.8</ele>
        <time>2014-10-01T08:35:39Z</time>
      </trkpt>
      <trkpt lat="42.3028120" lon="-6.4937390">
        <ele>934.7</ele>
        <time>2014-10-01T08:35:40Z</time>
      </trkpt>
      <trkpt lat="42.3028170" lon="-6.4938850">
        <ele>933.4</ele>
        <time>2014-10-01T08:35:41Z</time>
      </trkpt>
      <trkpt lat="42.3028230" lon="-6.4940320">
        <ele>932.2</ele>
        <time>2014-10-01T08:35:42Z</time>
      </trkpt>
      <trkpt lat="42.3028280" lon="-6.4941850">
        <ele>930.9</ele>
        <time>2014-10-01T08:35:43Z</time>
      </trkpt>
      <trkpt lat="42.3028360" lon="-6.4943510">
        <ele>929.5</ele>
        <time>2014-10-01T08:35:44Z</time>
      </trkpt>
      <trkpt lat="42.3028420" lon="-6.4945220">
        <ele>927.9</ele>
        <time>2014-10-01T08:35:45Z</time>
      </trkpt>
      <trkpt lat="42.3028520" lon="-6.4946950">
        <ele>926.5</ele>
        <time>2014-10-01T08:35:46Z</time>
      </trkpt>
      <trkpt lat="42.3028640" lon="-6.4948710">
        <ele>925.2</ele>
        <time>2014-10-01T08:35:47Z</time>
      </trkpt>
      <trkpt lat="42.3028770" lon="-6.4950470">
        <ele>924.0</ele>
        <time>2014-10-01T08:35:48Z</time>
      </trkpt>
      <trkpt lat="42.3028910" lon="-6.4952250">
        <ele>922.7</ele>
        <time>2014-10-01T08:35:49Z</time>
      </trkpt>
      <trkpt lat="42.3028960" lon="-6.4954180">
        <ele>921.7</ele>
        <time>2014-10-01T08:35:50Z</time>
      </trkpt>
      <trkpt lat="42.3028970" lon="-6.4955960">
        <ele>920.9</ele>
        <time>2014-10-01T08:35:51Z</time>
      </trkpt>
      <trkpt lat="42.3028950" lon="-6.4957700">
        <ele>920.0</ele>
        <time>2014-10-01T08:35:52Z</time>
      </trkpt>
      <trkpt lat="42.3028890" lon="-6.4959460">
        <ele>919.2</ele>
        <time>2014-10-01T08:35:53Z</time>
      </trkpt>
      <trkpt lat="42.3028800" lon="-6.4961220">
        <ele>918.3</ele>
        <time>2014-10-01T08:35:54Z</time>
      </trkpt>
      <trkpt lat="42.3028660" lon="-6.4962980">
        <ele>917.5</ele>
        <time>2014-10-01T08:35:55Z</time>
      </trkpt>
      <trkpt lat="42.3028470" lon="-6.4964670">
        <ele>916.7</ele>
        <time>2014-10-01T08:35:56Z</time>
      </trkpt>
      <trkpt lat="42.3028230" lon="-6.4966360">
        <ele>915.7</ele>
        <time>2014-10-01T08:35:57Z</time>
      </trkpt>
      <trkpt lat="42.3027990" lon="-6.4968030">
        <ele>914.7</ele>
        <time>2014-10-01T08:35:58Z</time>
      </trkpt>
      <trkpt lat="42.3027750" lon="-6.4969620">
        <ele>913.7</ele>
        <time>2014-10-01T08:35:59Z</time>
      </trkpt>
      <trkpt lat="42.3027540" lon="-6.4971310">
        <ele>912.7</ele>
        <time>2014-10-01T08:36:00Z</time>
      </trkpt>
      <trkpt lat="42.3027400" lon="-6.4973090">
        <ele>911.7</ele>
        <time>2014-10-01T08:36:01Z</time>
      </trkpt>
      <trkpt lat="42.3027640" lon="-6.4974770">
        <ele>910.7</ele>
        <time>2014-10-01T08:36:02Z</time>
      </trkpt>
      <trkpt lat="42.3027910" lon="-6.4976380">
        <ele>909.8</ele>
        <time>2014-10-01T08:36:03Z</time>
      </trkpt>
      <trkpt lat="42.3028210" lon="-6.4977900">
        <ele>909.0</ele>
        <time>2014-10-01T08:36:04Z</time>
      </trkpt>
      <trkpt lat="42.3028570" lon="-6.4979510">
        <ele>908.1</ele>
        <time>2014-10-01T08:36:05Z</time>
      </trkpt>
      <trkpt lat="42.3028960" lon="-6.4981120">
        <ele>907.2</ele>
        <time>2014-10-01T08:36:06Z</time>
      </trkpt>
      <trkpt lat="42.3029630" lon="-6.4982620">
        <ele>906.2</ele>
        <time>2014-10-01T08:36:07Z</time>
      </trkpt>
      <trkpt lat="42.3030280" lon="-6.4984100">
        <ele>905.1</ele>
        <time>2014-10-01T08:36:08Z</time>
      </trkpt>
      <trkpt lat="42.3030930" lon="-6.4985640">
        <ele>904.1</ele>
        <time>2014-10-01T08:36:09Z</time>
      </trkpt>
      <trkpt lat="42.3031530" lon="-6.4987060">
        <ele>903.3</ele>
        <time>2014-10-01T08:36:10Z</time>
      </trkpt>
      <trkpt lat="42.3032210" lon="-6.4988580">
        <ele>902.2</ele>
        <time>2014-10-01T08:36:11Z</time>
      </trkpt>
      <trkpt lat="42.3032880" lon="-6.4990080">
        <ele>901.1</ele>
        <time>2014-10-01T08:36:12Z</time>
      </trkpt>
      <trkpt lat="42.3033430" lon="-6.4991670">
        <ele>899.7</ele>
        <time>2014-10-01T08:36:13Z</time>
      </trkpt>
      <trkpt lat="42.3033900" lon="-6.4993080">
        <ele>898.5</ele>
        <time>2014-10-01T08:36:14Z</time>
      </trkpt>
      <trkpt lat="42.3034280" lon="-6.4994340">
        <ele>897.2</ele>
        <time>2014-10-01T08:36:15Z</time>
      </trkpt>
      <trkpt lat="42.3034280" lon="-6.4995600">
        <ele>896.0</ele>
        <time>2014-10-01T08:36:16Z</time>
      </trkpt>
      <trkpt lat="42.3033830" lon="-6.4996740">
        <ele>894.7</ele>
        <time>2014-10-01T08:36:17Z</time>
      </trkpt>
      <trkpt lat="42.3033140" lon="-6.4997600">
        <ele>893.5</ele>
        <time>2014-10-01T08:36:18Z</time>
      </trkpt>
      <trkpt lat="42.3032280" lon="-6.4998110">
        <ele>892.4</ele>
        <time>2014-10-01T08:36:19Z</time>
      </trkpt>
      <trkpt lat="42.3031390" lon="-6.4998540">
        <ele>891.4</ele>
        <time>2014-10-01T08:36:20Z</time>
      </trkpt>
      <trkpt lat="42.3030410" lon="-6.4998970">
        <ele>890.5</ele>
        <time>2014-10-01T08:36:21Z</time>
      </trkpt>
      <trkpt lat="42.3029350" lon="-6.4999430">
        <ele>889.6</ele>
        <time>2014-10-01T08:36:22Z</time>
      </trkpt>
      <trkpt lat="42.3028290" lon="-6.4999780">
        <ele>888.7</ele>
        <time>2014-10-01T08:36:23Z</time>
      </trkpt>
      <trkpt lat="42.3027140" lon="-6.4999590">
        <ele>887.7</ele>
        <time>2014-10-01T08:36:24Z</time>
      </trkpt>
      <trkpt lat="42.3025990" lon="-6.4999000">
        <ele>886.6</ele>
        <time>2014-10-01T08:36:25Z</time>
      </trkpt>
      <trkpt lat="42.3024960" lon="-6.4998110">
        <ele>885.6</ele>
        <time>2014-10-01T08:36:26Z</time>
      </trkpt>
      <trkpt lat="42.3023870" lon="-6.4997140">
        <ele>884.3</ele>
        <time>2014-10-01T08:36:27Z</time>
      </trkpt>
      <trkpt lat="42.3022790" lon="-6.4996160">
        <ele>883.0</ele>
        <time>2014-10-01T08:36:28Z</time>
      </trkpt>
      <trkpt lat="42.3021730" lon="-6.4995160">
        <ele>881.9</ele>
        <time>2014-10-01T08:36:29Z</time>
      </trkpt>
      <trkpt lat="42.3020690" lon="-6.4994160">
        <ele>880.8</ele>
        <time>2014-10-01T08:36:30Z</time>
      </trkpt>
      <trkpt lat="42.3019630" lon="-6.4993170">
        <ele>879.8</ele>
        <time>2014-10-01T08:36:31Z</time>
      </trkpt>
      <trkpt lat="42.3018600" lon="-6.4992150">
        <ele>878.8</ele>
        <time>2014-10-01T08:36:32Z</time>
      </trkpt>
      <trkpt lat="42.3017660" lon="-6.4990950">
        <ele>877.7</ele>
        <time>2014-10-01T08:36:33Z</time>
      </trkpt>
      <trkpt lat="42.3016810" lon="-6.4989620">
        <ele>876.6</ele>
        <time>2014-10-01T08:36:34Z</time>
      </trkpt>
      <trkpt lat="42.3015940" lon="-6.4988240">
        <ele>875.4</ele>
        <time>2014-10-01T08:36:35Z</time>
      </trkpt>
      <trkpt lat="42.3015080" lon="-6.4986890">
        <ele>874.0</ele>
        <time>2014-10-01T08:36:36Z</time>
      </trkpt>
      <trkpt lat="42.3014280" lon="-6.4985500">
        <ele>872.5</ele>
        <time>2014-10-01T08:36:37Z</time>
      </trkpt>
      <trkpt lat="42.3013540" lon="-6.4984140">
        <ele>871.0</ele>
        <time>2014-10-01T08:36:38Z</time>
      </trkpt>
      <trkpt lat="42.3012880" lon="-6.4982970">
        <ele>869.8</ele>
        <time>2014-10-01T08:36:39Z</time>
      </trkpt>
      <trkpt lat="42.3012230" lon="-6.4982020">
        <ele>868.8</ele>
        <time>2014-10-01T08:36:40Z</time>
      </trkpt>
      <trkpt lat="42.3011440" lon="-6.4981550">
        <ele>868.3</ele>
        <time>2014-10-01T08:36:41Z</time>
      </trkpt>
      <trkpt lat="42.3010520" lon="-6.4981940">
        <ele>868.0</ele>
        <time>2014-10-01T08:36:42Z</time>
      </trkpt>
      <trkpt lat="42.3009810" lon="-6.4983040">
        <ele>867.8</ele>
        <time>2014-10-01T08:36:43Z</time>
      </trkpt>
      <trkpt lat="42.3009290" lon="-6.4984320">
        <ele>867.6</ele>
        <time>2014-10-01T08:36:44Z</time>
      </trkpt>
      <trkpt lat="42.3009080" lon="-6.4985640">
        <ele>867.5</ele>
        <time>2014-10-01T08:36:45Z</time>
      </trkpt>
      <trkpt lat="42.3008970" lon="-6.4986850">
        <ele>867.4</ele>
        <time>2014-10-01T08:36:46Z</time>
      </trkpt>
      <trkpt lat="42.3009140" lon="-6.4988260">
        <ele>867.3</ele>
        <time>2014-10-01T08:36:47Z</time>
      </trkpt>
      <trkpt lat="42.3009350" lon="-6.4989660">
        <ele>867.2</ele>
        <time>2014-10-01T08:36:48Z</time>
      </trkpt>
      <trkpt lat="42.3009770" lon="-6.4990970">
        <ele>867.2</ele>
        <time>2014-10-01T08:36:49Z</time>
      </trkpt>
      <trkpt lat="42.3010190" lon="-6.4992160">
        <ele>867.1</ele>
        <time>2014-10-01T08:36:50Z</time>
      </trkpt>
      <trkpt lat="42.3010620" lon="-6.4993320">
        <ele>867.1</ele>
        <time>2014-10-01T08:36:51Z</time>
      </trkpt>
      <trkpt lat="42.3011020" lon="-6.4994380">
        <ele>867.1</ele>
        <time>2014-10-01T08:36:52Z</time>
      </trkpt>
      <trkpt lat="42.3011410" lon="-6.4995440">
        <ele>867.1</ele>
        <time>2014-10-01T08:36:53Z</time>
      </trkpt>
      <trkpt lat="42.3011800" lon="-6.4996530">
        <ele>867.0</ele>
        <time>2014-10-01T08:36:54Z</time>
      </trkpt>
      <trkpt lat="42.3012180" lon="-6.4997590">
        <ele>867.0</ele>
        <time>2014-10-01T08:36:55Z</time>
      </trkpt>
      <trkpt lat="42.3012560" lon="-6.4998690">
        <ele>866.9</ele>
        <time>2014-10-01T08:36:56Z</time>
      </trkpt>
      <trkpt lat="42.3012930" lon="-6.4999750">
        <ele>867.0</ele>
        <time>2014-10-01T08:36:57Z</time>
      </trkpt>
      <trkpt lat="42.3013310" lon="-6.5000820">
        <ele>867.0</ele>
        <time>2014-10-01T08:36:58Z</time>
      </trkpt>
      <trkpt lat="42.3013700" lon="-6.5001940">
        <ele>867.0</ele>
        <time>2014-10-01T08:36:59Z</time>
      </trkpt>
      <trkpt lat="42.3013910" lon="-6.5003130">
        <ele>867.0</ele>
        <time>2014-10-01T08:37:00Z</time>
      </trkpt>
      <trkpt lat="42.3014160" lon="-6.5004380">
        <ele>866.9</ele>
        <time>2014-10-01T08:37:01Z</time>
      </trkpt>
      <trkpt lat="42.3014380" lon="-6.5005690">
        <ele>866.6</ele>
        <time>2014-10-01T08:37:02Z</time>
      </trkpt>
      <trkpt lat="42.3014510" lon="-6.5006970">
        <ele>866.3</ele>
        <time>2014-10-01T08:37:03Z</time>
      </trkpt>
      <trkpt lat="42.3014600" lon="-6.5008220">
        <ele>866.0</ele>
        <time>2014-10-01T08:37:04Z</time>
      </trkpt>
      <trkpt lat="42.3014670" lon="-6.5009490">
        <ele>865.5</ele>
        <time>2014-10-01T08:37:05Z</time>
      </trkpt>
      <trkpt lat="42.3014750" lon="-6.5010810">
        <ele>865.1</ele>
        <time>2014-10-01T08:37:06Z</time>
      </trkpt>
      <trkpt lat="42.3014810" lon="-6.5012170">
        <ele>864.6</ele>
        <time>2014-10-01T08:37:07Z</time>
      </trkpt>
      <trkpt lat="42.3014890" lon="-6.5013420">
        <ele>864.3</ele>
        <time>2014-10-01T08:37:08Z</time>
      </trkpt>
      <trkpt lat="42.3015020" lon="-6.5014770">
        <ele>864.0</ele>
        <time>2014-10-01T08:37:09Z</time>
      </trkpt>
      <trkpt lat="42.3015400" lon="-6.5016070">
        <ele>863.9</ele>
        <time>2014-10-01T08:37:10Z</time>
      </trkpt>
      <trkpt lat="42.3015780" lon="-6.5017340">
        <ele>863.9</ele>
        <time>2014-10-01T08:37:11Z</time>
      </trkpt>
      <trkpt lat="42.3016160" lon="-6.5018520">
        <ele>863.9</ele>
        <time>2014-10-01T08:37:12Z</time>
      </trkpt>
      <trkpt lat="42.3016520" lon="-6.5019620">
        <ele>863.9</ele>
        <time>2014-10-01T08:37:13Z</time>
      </trkpt>
      <trkpt lat="42.3016860" lon="-6.5020710">
        <ele>863.9</ele>
        <time>2014-10-01T08:37:14Z</time>
      </trkpt>
      <trkpt lat="42.3017190" lon="-6.5021940">
        <ele>863.9</ele>
        <time>2014-10-01T08:37:15Z</time>
      </trkpt>
      <trkpt lat="42.3017430" lon="-6.5023170">
        <ele>863.9</ele>
        <time>2014-10-01T08:37:16Z</time>
      </trkpt>
      <trkpt lat="42.3017460" lon="-6.5024400">
        <ele>864.0</ele>
        <time>2014-10-01T08:37:17Z</time>
      </trkpt>
      <trkpt lat="42.3017470" lon="-6.5025580">
        <ele>864.0</ele>
        <time>2014-10-01T08:37:18Z</time>
      </trkpt>
      <trkpt lat="42.3017480" lon="-6.5026740">
        <ele>863.9</ele>
        <time>2014-10-01T08:37:19Z</time>
      </trkpt>
      <trkpt lat="42.3017440" lon="-6.5027900">
        <ele>863.8</ele>
        <time>2014-10-01T08:37:20Z</time>
      </trkpt>
      <trkpt lat="42.3017390" lon="-6.5029140">
        <ele>863.6</ele>
        <time>2014-10-01T08:37:21Z</time>
      </trkpt>
      <trkpt lat="42.3017300" lon="-6.5030430">
        <ele>863.4</ele>
        <time>2014-10-01T08:37:22Z</time>
      </trkpt>
      <trkpt lat="42.3017170" lon="-6.5031700">
        <ele>863.2</ele>
        <time>2014-10-01T08:37:23Z</time>
      </trkpt>
      <trkpt lat="42.3017050" lon="-6.5032940">
        <ele>862.9</ele>
        <time>2014-10-01T08:37:24Z</time>
      </trkpt>
      <trkpt lat="42.3016920" lon="-6.5034150">
        <ele>862.4</ele>
        <time>2014-10-01T08:37:25Z</time>
      </trkpt>
      <trkpt lat="42.3016780" lon="-6.5035350">
        <ele>862.0</ele>
        <time>2014-10-01T08:37:26Z</time>
      </trkpt>
      <trkpt lat="42.3016580" lon="-6.5036550">
        <ele>861.4</ele>
        <time>2014-10-01T08:37:27Z</time>
      </trkpt>
      <trkpt lat="42.3016380" lon="-6.5037800">
        <ele>860.8</ele>
        <time>2014-10-01T08:37:28Z</time>
      </trkpt>
      <trkpt lat="42.3016190" lon="-6.5039030">
        <ele>860.2</ele>
        <time>2014-10-01T08:37:29Z</time>
      </trkpt>
      <trkpt lat="42.3015970" lon="-6.5040380">
        <ele>859.4</ele>
        <time>2014-10-01T08:37:30Z</time>
      </trkpt>
      <trkpt lat="42.3015770" lon="-6.5041800">
        <ele>858.5</ele>
        <time>2014-10-01T08:37:31Z</time>
      </trkpt>
      <trkpt lat="42.3015520" lon="-6.5043280">
        <ele>857.5</ele>
        <time>2014-10-01T08:37:32Z</time>
      </trkpt>
      <trkpt lat="42.3015290" lon="-6.5044870">
        <ele>856.5</ele>
        <time>2014-10-01T08:37:33Z</time>
      </trkpt>
      <trkpt lat="42.3015150" lon="-6.5046440">
        <ele>855.8</ele>
        <time>2014-10-01T08:37:34Z</time>
      </trkpt>
      <trkpt lat="42.3014980" lon="-6.5048090">
        <ele>855.1</ele>
        <time>2014-10-01T08:37:35Z</time>
      </trkpt>
      <trkpt lat="42.3014850" lon="-6.5049730">
        <ele>854.5</ele>
        <time>2014-10-01T08:37:36Z</time>
      </trkpt>
      <trkpt lat="42.3014730" lon="-6.5051300">
        <ele>854.5</ele>
        <time>2014-10-01T08:37:37Z</time>
      </trkpt>
      <trkpt lat="42.3014640" lon="-6.5052820">
        <ele>854.4</ele>
        <time>2014-10-01T08:37:38Z</time>
      </trkpt>
      <trkpt lat="42.3014550" lon="-6.5054330">
        <ele>854.3</ele>
        <time>2014-10-01T08:37:39Z</time>
      </trkpt>
      <trkpt lat="42.3014440" lon="-6.5055840">
        <ele>854.2</ele>
        <time>2014-10-01T08:37:40Z</time>
      </trkpt>
      <trkpt lat="42.3014320" lon="-6.5057360">
        <ele>854.1</ele>
        <time>2014-10-01T08:37:41Z</time>
      </trkpt>
      <trkpt lat="42.3014180" lon="-6.5058730">
        <ele>853.9</ele>
        <time>2014-10-01T08:37:42Z</time>
      </trkpt>
      <trkpt lat="42.3014040" lon="-6.5060130">
        <ele>853.5</ele>
        <time>2014-10-01T08:37:43Z</time>
      </trkpt>
      <trkpt lat="42.3013870" lon="-6.5061570">
        <ele>853.0</ele>
        <time>2014-10-01T08:37:44Z</time>
      </trkpt>
      <trkpt lat="42.3013700" lon="-6.5062910">
        <ele>852.3</ele>
        <time>2014-10-01T08:37:45Z</time>
      </trkpt>
      <trkpt lat="42.3013490" lon="-6.5064190">
        <ele>851.5</ele>
        <time>2014-10-01T08:37:46Z</time>
      </trkpt>
      <trkpt lat="42.3013120" lon="-6.5065560">
        <ele>850.6</ele>
        <time>2014-10-01T08:37:47Z</time>
      </trkpt>
      <trkpt lat="42.3012750" lon="-6.5066890">
        <ele>849.9</ele>
        <time>2014-10-01T08:37:48Z</time>
      </trkpt>
      <trkpt lat="42.3012440" lon="-6.5068390">
        <ele>849.3</ele>
        <time>2014-10-01T08:37:49Z</time>
      </trkpt>
      <trkpt lat="42.3012380" lon="-6.5069880">
        <ele>848.8</ele>
        <time>2014-10-01T08:37:50Z</time>
      </trkpt>
      <trkpt lat="42.3012430" lon="-6.5071370">
        <ele>848.3</ele>
        <time>2014-10-01T08:37:51Z</time>
      </trkpt>
      <trkpt lat="42.3012490" lon="-6.5072700">
        <ele>847.8</ele>
        <time>2014-10-01T08:37:52Z</time>
      </trkpt>
      <trkpt lat="42.3012160" lon="-6.5073930">
        <ele>847.1</ele>
        <time>2014-10-01T08:37:53Z</time>
      </trkpt>
      <trkpt lat="42.3011560" lon="-6.5074900">
        <ele>846.3</ele>
        <time>2014-10-01T08:37:54Z</time>
      </trkpt>
      <trkpt lat="42.3010750" lon="-6.5075530">
        <ele>845.6</ele>
        <time>2014-10-01T08:37:55Z</time>
      </trkpt>
      <trkpt lat="42.3009810" lon="-6.5075760">
        <ele>844.9</ele>
        <time>2014-10-01T08:37:56Z</time>
      </trkpt>
      <trkpt lat="42.3008730" lon="-6.5075890">
        <ele>844.3</ele>
        <time>2014-10-01T08:37:57Z</time>
      </trkpt>
      <trkpt lat="42.3007580" lon="-6.5075620">
        <ele>843.7</ele>
        <time>2014-10-01T08:37:58Z</time>
      </trkpt>
      <trkpt lat="42.3006460" lon="-6.5075230">
        <ele>843.2</ele>
        <time>2014-10-01T08:37:59Z</time>
      </trkpt>
      <trkpt lat="42.3005470" lon="-6.5074440">
        <ele>842.7</ele>
        <time>2014-10-01T08:38:00Z</time>
      </trkpt>
      <trkpt lat="42.3004560" lon="-6.5073620">
        <ele>842.1</ele>
        <time>2014-10-01T08:38:01Z</time>
      </trkpt>
      <trkpt lat="42.3003710" lon="-6.5072880">
        <ele>841.4</ele>
        <time>2014-10-01T08:38:02Z</time>
      </trkpt>
      <trkpt lat="42.3002830" lon="-6.5072250">
        <ele>840.6</ele>
        <time>2014-10-01T08:38:03Z</time>
      </trkpt>
      <trkpt lat="42.3001870" lon="-6.5071890">
        <ele>839.8</ele>
        <time>2014-10-01T08:38:04Z</time>
      </trkpt>
      <trkpt lat="42.3000900" lon="-6.5071520">
        <ele>838.9</ele>
        <time>2014-10-01T08:38:05Z</time>
      </trkpt>
      <trkpt lat="42.2999910" lon="-6.5071140">
        <ele>838.0</ele>
        <time>2014-10-01T08:38:06Z</time>
      </trkpt>
      <trkpt lat="42.2998920" lon="-6.5070810">
        <ele>837.1</ele>
        <time>2014-10-01T08:38:07Z</time>
      </trkpt>
      <trkpt lat="42.2997900" lon="-6.5070580">
        <ele>836.0</ele>
        <time>2014-10-01T08:38:08Z</time>
      </trkpt>
      <trkpt lat="42.2996730" lon="-6.5070320">
        <ele>834.6</ele>
        <time>2014-10-01T08:38:09Z</time>
      </trkpt>
      <trkpt lat="42.2995490" lon="-6.5070030">
        <ele>833.2</ele>
        <time>2014-10-01T08:38:10Z</time>
      </trkpt>
      <trkpt lat="42.2994240" lon="-6.5069660">
        <ele>831.8</ele>
        <time>2014-10-01T08:38:11Z</time>
      </trkpt>
      <trkpt lat="42.2992960" lon="-6.5069280">
        <ele>830.5</ele>
        <time>2014-10-01T08:38:12Z</time>
      </trkpt>
      <trkpt lat="42.2991730" lon="-6.5069010">
        <ele>829.4</ele>
        <time>2014-10-01T08:38:13Z</time>
      </trkpt>
      <trkpt lat="42.2990570" lon="-6.5068920">
        <ele>828.0</ele>
        <time>2014-10-01T08:38:14Z</time>
      </trkpt>
      <trkpt lat="42.2989590" lon="-6.5068950">
        <ele>826.8</ele>
        <time>2014-10-01T08:38:15Z</time>
      </trkpt>
      <trkpt lat="42.2988820" lon="-6.5069450">
        <ele>825.5</ele>
        <time>2014-10-01T08:38:16Z</time>
      </trkpt>
      <trkpt lat="42.2988140" lon="-6.5070100">
        <ele>824.3</ele>
        <time>2014-10-01T08:38:17Z</time>
      </trkpt>
      <trkpt lat="42.2987760" lon="-6.5071560">
        <ele>822.8</ele>
        <time>2014-10-01T08:38:18Z</time>
      </trkpt>
      <trkpt lat="42.2987680" lon="-6.5073250">
        <ele>821.2</ele>
        <time>2014-10-01T08:38:19Z</time>
      </trkpt>
      <trkpt lat="42.2987690" lon="-6.5074950">
        <ele>820.4</ele>
        <time>2014-10-01T08:38:20Z</time>
      </trkpt>
      <trkpt lat="42.2987470" lon="-6.5076500">
        <ele>819.9</ele>
        <time>2014-10-01T08:38:21Z</time>
      </trkpt>
      <trkpt lat="42.2987020" lon="-6.5077930">
        <ele>819.5</ele>
        <time>2014-10-01T08:38:22Z</time>
      </trkpt>
      <trkpt lat="42.2986470" lon="-6.5079230">
        <ele>819.1</ele>
        <time>2014-10-01T08:38:23Z</time>
      </trkpt>
      <trkpt lat="42.2985860" lon="-6.5080350">
        <ele>818.7</ele>
        <time>2014-10-01T08:38:24Z</time>
      </trkpt>
      <trkpt lat="42.2985240" lon="-6.5081460">
        <ele>818.5</ele>
        <time>2014-10-01T08:38:25Z</time>
      </trkpt>
      <trkpt lat="42.2984640" lon="-6.5082440">
        <ele>818.6</ele>
        <time>2014-10-01T08:38:26Z</time>
      </trkpt>
      <trkpt lat="42.2984120" lon="-6.5083460">
        <ele>818.9</ele>
        <time>2014-10-01T08:38:27Z</time>
      </trkpt>
      <trkpt lat="42.2983640" lon="-6.5084510">
        <ele>819.1</ele>
        <time>2014-10-01T08:38:28Z</time>
      </trkpt>
      <trkpt lat="42.2983140" lon="-6.5085410">
        <ele>819.3</ele>
        <time>2014-10-01T08:38:29Z</time>
      </trkpt>
      <trkpt lat="42.2982840" lon="-6.5086440">
        <ele>819.5</ele>
        <time>2014-10-01T08:38:30Z</time>
      </trkpt>
      <trkpt lat="42.2982550" lon="-6.5087470">
        <ele>819.7</ele>
        <time>2014-10-01T08:38:31Z</time>
      </trkpt>
      <trkpt lat="42.2982340" lon="-6.5088590">
        <ele>819.9</ele>
        <time>2014-10-01T08:38:32Z</time>
      </trkpt>
      <trkpt lat="42.2982090" lon="-6.5089770">
        <ele>820.1</ele>
        <time>2014-10-01T08:38:33Z</time>
      </trkpt>
      <trkpt lat="42.2981840" lon="-6.5090800">
        <ele>820.3</ele>
        <time>2014-10-01T08:38:34Z</time>
      </trkpt>
      <trkpt lat="42.2981620" lon="-6.5091830">
        <ele>820.4</ele>
        <time>2014-10-01T08:38:35Z</time>
      </trkpt>
      <trkpt lat="42.2981470" lon="-6.5092770">
        <ele>820.6</ele>
        <time>2014-10-01T08:38:36Z</time>
      </trkpt>
      <trkpt lat="42.2981360" lon="-6.5093630">
        <ele>820.7</ele>
        <time>2014-10-01T08:38:37Z</time>
      </trkpt>
      <trkpt lat="42.2981260" lon="-6.5094370">
        <ele>820.8</ele>
        <time>2014-10-01T08:38:38Z</time>
      </trkpt>
      <trkpt lat="42.2981190" lon="-6.5095180">
        <ele>820.9</ele>
        <time>2014-10-01T08:38:39Z</time>
      </trkpt>
      <trkpt lat="42.2981130" lon="-6.5096020">
        <ele>821.1</ele>
        <time>2014-10-01T08:38:40Z</time>
      </trkpt>
      <trkpt lat="42.2981160" lon="-6.5096840">
        <ele>821.3</ele>
        <time>2014-10-01T08:38:41Z</time>
      </trkpt>
      <trkpt lat="42.2981200" lon="-6.5097750">
        <ele>821.4</ele>
        <time>2014-10-01T08:38:42Z</time>
      </trkpt>
      <trkpt lat="42.2981270" lon="-6.5098700">
        <ele>821.4</ele>
        <time>2014-10-01T08:38:43Z</time>
      </trkpt>
      <trkpt lat="42.2981360" lon="-6.5099670">
        <ele>821.4</ele>
        <time>2014-10-01T08:38:44Z</time>
      </trkpt>
      <trkpt lat="42.2981500" lon="-6.5100610">
        <ele>821.5</ele>
        <time>2014-10-01T08:38:45Z</time>
      </trkpt>
      <trkpt lat="42.2981600" lon="-6.5101490">
        <ele>821.7</ele>
        <time>2014-10-01T08:38:46Z</time>
      </trkpt>
      <trkpt lat="42.2981700" lon="-6.5102420">
        <ele>821.9</ele>
        <time>2014-10-01T08:38:47Z</time>
      </trkpt>
      <trkpt lat="42.2981810" lon="-6.5103380">
        <ele>822.1</ele>
        <time>2014-10-01T08:38:48Z</time>
      </trkpt>
      <trkpt lat="42.2981940" lon="-6.5104390">
        <ele>822.2</ele>
        <time>2014-10-01T08:38:49Z</time>
      </trkpt>
      <trkpt lat="42.2982050" lon="-6.5105330">
        <ele>822.3</ele>
        <time>2014-10-01T08:38:50Z</time>
      </trkpt>
      <trkpt lat="42.2982170" lon="-6.5106190">
        <ele>822.3</ele>
        <time>2014-10-01T08:38:51Z</time>
      </trkpt>
      <trkpt lat="42.2982470" lon="-6.5107200">
        <ele>822.3</ele>
        <time>2014-10-01T08:38:52Z</time>
      </trkpt>
      <trkpt lat="42.2982740" lon="-6.5108160">
        <ele>822.3</ele>
        <time>2014-10-01T08:38:53Z</time>
      </trkpt>
      <trkpt lat="42.2983020" lon="-6.5109190">
        <ele>822.5</ele>
        <time>2014-10-01T08:38:54Z</time>
      </trkpt>
      <trkpt lat="42.2983270" lon="-6.5110110">
        <ele>822.7</ele>
        <time>2014-10-01T08:38:55Z</time>
      </trkpt>
      <trkpt lat="42.2983480" lon="-6.5110940">
        <ele>823.0</ele>
        <time>2014-10-01T08:38:56Z</time>
      </trkpt>
      <trkpt lat="42.2983680" lon="-6.5111840">
        <ele>823.4</ele>
        <time>2014-10-01T08:38:57Z</time>
      </trkpt>
      <trkpt lat="42.2983840" lon="-6.5112680">
        <ele>823.7</ele>
        <time>2014-10-01T08:38:58Z</time>
      </trkpt>
      <trkpt lat="42.2983980" lon="-6.5113520">
        <ele>824.0</ele>
        <time>2014-10-01T08:38:59Z</time>
      </trkpt>
      <trkpt lat="42.2984100" lon="-6.5114360">
        <ele>824.3</ele>
        <time>2014-10-01T08:39:00Z</time>
      </trkpt>
      <trkpt lat="42.2984190" lon="-6.5115160">
        <ele>824.5</ele>
        <time>2014-10-01T08:39:01Z</time>
      </trkpt>
      <trkpt lat="42.2984220" lon="-6.5115970">
        <ele>824.7</ele>
        <time>2014-10-01T08:39:02Z</time>
      </trkpt>
      <trkpt lat="42.2984230" lon="-6.5116710">
        <ele>824.9</ele>
        <time>2014-10-01T08:39:03Z</time>
      </trkpt>
      <trkpt lat="42.2984210" lon="-6.5117370">
        <ele>825.0</ele>
        <time>2014-10-01T08:39:04Z</time>
      </trkpt>
      <trkpt lat="42.2984100" lon="-6.5118100">
        <ele>825.2</ele>
        <time>2014-10-01T08:39:05Z</time>
      </trkpt>
      <trkpt lat="42.2983970" lon="-6.5118790">
        <ele>825.3</ele>
        <time>2014-10-01T08:39:06Z</time>
      </trkpt>
      <trkpt lat="42.2983740" lon="-6.5119450">
        <ele>825.4</ele>
        <time>2014-10-01T08:39:07Z</time>
      </trkpt>
      <trkpt lat="42.2983480" lon="-6.5120260">
        <ele>825.5</ele>
        <time>2014-10-01T08:39:08Z</time>
      </trkpt>
      <trkpt lat="42.2983180" lon="-6.5121150">
        <ele>825.6</ele>
        <time>2014-10-01T08:39:09Z</time>
      </trkpt>
      <trkpt lat="42.2982860" lon="-6.5122090">
        <ele>825.7</ele>
        <time>2014-10-01T08:39:10Z</time>
      </trkpt>
      <trkpt lat="42.2982560" lon="-6.5122970">
        <ele>825.8</ele>
        <time>2014-10-01T08:39:11Z</time>
      </trkpt>
      <trkpt lat="42.2982280" lon="-6.5123790">
        <ele>825.9</ele>
        <time>2014-10-01T08:39:12Z</time>
      </trkpt>
      <trkpt lat="42.2982020" lon="-6.5124680">
        <ele>826.0</ele>
        <time>2014-10-01T08:39:13Z</time>
      </trkpt>
      <trkpt lat="42.2981830" lon="-6.5125430">
        <ele>826.2</ele>
        <time>2014-10-01T08:39:14Z</time>
      </trkpt>
      <trkpt lat="42.2981630" lon="-6.5126290">
        <ele>826.4</ele>
        <time>2014-10-01T08:39:15Z</time>
      </trkpt>
      <trkpt lat="42.2981500" lon="-6.5127200">
        <ele>826.6</ele>
        <time>2014-10-01T08:39:16Z</time>
      </trkpt>
      <trkpt lat="42.2981380" lon="-6.5128120">
        <ele>826.8</ele>
        <time>2014-10-01T08:39:17Z</time>
      </trkpt>
      <trkpt lat="42.2981310" lon="-6.5128930">
        <ele>827.1</ele>
        <time>2014-10-01T08:39:18Z</time>
      </trkpt>
      <trkpt lat="42.2981240" lon="-6.5129710">
        <ele>827.2</ele>
        <time>2014-10-01T08:39:19Z</time>
      </trkpt>
      <trkpt lat="42.2981170" lon="-6.5130420">
        <ele>827.4</ele>
        <time>2014-10-01T08:39:20Z</time>
      </trkpt>
      <trkpt lat="42.2981100" lon="-6.5131090">
        <ele>827.6</ele>
        <time>2014-10-01T08:39:21Z</time>
      </trkpt>
      <trkpt lat="42.2980880" lon="-6.5131750">
        <ele>827.7</ele>
        <time>2014-10-01T08:39:22Z</time>
      </trkpt>
      <trkpt lat="42.2980680" lon="-6.5132310">
        <ele>827.9</ele>
        <time>2014-10-01T08:39:23Z</time>
      </trkpt>
      <trkpt lat="42.2980430" lon="-6.5132860">
        <ele>828.0</ele>
        <time>2014-10-01T08:39:24Z</time>
      </trkpt>
      <trkpt lat="42.2980040" lon="-6.5133360">
        <ele>828.1</ele>
        <time>2014-10-01T08:39:25Z</time>
      </trkpt>
      <trkpt lat="42.2979610" lon="-6.5133910">
        <ele>828.3</ele>
        <time>2014-10-01T08:39:26Z</time>
      </trkpt>
      <trkpt lat="42.2979170" lon="-6.5134450">
        <ele>828.5</ele>
        <time>2014-10-01T08:39:27Z</time>
      </trkpt>
      <trkpt lat="42.2978740" lon="-6.5135010">
        <ele>828.7</ele>
        <time>2014-10-01T08:39:28Z</time>
      </trkpt>
      <trkpt lat="42.2978300" lon="-6.5135510">
        <ele>828.9</ele>
        <time>2014-10-01T08:39:29Z</time>
      </trkpt>
      <trkpt lat="42.2977870" lon="-6.5135980">
        <ele>829.1</ele>
        <time>2014-10-01T08:39:30Z</time>
      </trkpt>
      <trkpt lat="42.2977440" lon="-6.5136390">
        <ele>829.3</ele>
        <time>2014-10-01T08:39:31Z</time>
      </trkpt>
      <trkpt lat="42.2976920" lon="-6.5136630">
        <ele>829.4</ele>
        <time>2014-10-01T08:39:32Z</time>
      </trkpt>
      <trkpt lat="42.2976360" lon="-6.5136810">
        <ele>829.6</ele>
        <time>2014-10-01T08:39:33Z</time>
      </trkpt>
      <trkpt lat="42.2975790" lon="-6.5136830">
        <ele>829.8</ele>
        <time>2014-10-01T08:39:34Z</time>
      </trkpt>
      <trkpt lat="42.2975180" lon="-6.5136860">
        <ele>829.9</ele>
        <time>2014-10-01T08:39:35Z</time>
      </trkpt>
      <trkpt lat="42.2974540" lon="-6.5136860">
        <ele>830.0</ele>
        <time>2014-10-01T08:39:36Z</time>
      </trkpt>
      <trkpt lat="42.2973920" lon="-6.5136820">
        <ele>830.1</ele>
        <time>2014-10-01T08:39:37Z</time>
      </trkpt>
      <trkpt lat="42.2973280" lon="-6.5136770">
        <ele>830.3</ele>
        <time>2014-10-01T08:39:38Z</time>
      </trkpt>
      <trkpt lat="42.2972730" lon="-6.5136680">
        <ele>830.4</ele>
        <time>2014-10-01T08:39:39Z</time>
      </trkpt>
      <trkpt lat="42.2972170" lon="-6.5136590">
        <ele>830.6</ele>
        <time>2014-10-01T08:39:40Z</time>
      </trkpt>
      <trkpt lat="42.2971600" lon="-6.5136510">
        <ele>830.8</ele>
        <time>2014-10-01T08:39:41Z</time>
      </trkpt>
      <trkpt lat="42.2971000" lon="-6.5136440">
        <ele>831.0</ele>
        <time>2014-10-01T08:39:42Z</time>
      </trkpt>
      <trkpt lat="42.2970420" lon="-6.5136400">
        <ele>831.2</ele>
        <time>2014-10-01T08:39:43Z</time>
      </trkpt>
      <trkpt lat="42.2969860" lon="-6.5136380">
        <ele>831.5</ele>
        <time>2014-10-01T08:39:44Z</time>
      </trkpt>
      <trkpt lat="42.2969280" lon="-6.5136410">
        <ele>831.8</ele>
        <time>2014-10-01T08:39:45Z</time>
      </trkpt>
      <trkpt lat="42.2968740" lon="-6.5136440">
        <ele>832.0</ele>
        <time>2014-10-01T08:39:46Z</time>
      </trkpt>
      <trkpt lat="42.2968230" lon="-6.5136460">
        <ele>832.3</ele>
        <time>2014-10-01T08:39:47Z</time>
      </trkpt>
      <trkpt lat="42.2967740" lon="-6.5136500">
        <ele>832.6</ele>
        <time>2014-10-01T08:39:48Z</time>
      </trkpt>
      <trkpt lat="42.2967260" lon="-6.5136520">
        <ele>832.9</ele>
        <time>2014-10-01T08:39:49Z</time>
      </trkpt>
      <trkpt lat="42.2966760" lon="-6.5136570">
        <ele>833.1</ele>
        <time>2014-10-01T08:39:50Z</time>
      </trkpt>
      <trkpt lat="42.2966280" lon="-6.5136620">
        <ele>833.4</ele>
        <time>2014-10-01T08:39:51Z</time>
      </trkpt>
      <trkpt lat="42.2965850" lon="-6.5136660">
        <ele>833.7</ele>
        <time>2014-10-01T08:39:52Z</time>
      </trkpt>
      <trkpt lat="42.2965370" lon="-6.5136700">
        <ele>834.0</ele>
        <time>2014-10-01T08:39:53Z</time>
      </trkpt>
      <trkpt lat="42.2964830" lon="-6.5136740">
        <ele>834.2</ele>
        <time>2014-10-01T08:39:54Z</time>
      </trkpt>
      <trkpt lat="42.2964300" lon="-6.5136760">
        <ele>834.5</ele>
        <time>2014-10-01T08:39:55Z</time>
      </trkpt>
      <trkpt lat="42.2963790" lon="-6.5136800">
        <ele>834.7</ele>
        <time>2014-10-01T08:39:56Z</time>
      </trkpt>
      <trkpt lat="42.2963330" lon="-6.5136800">
        <ele>834.9</ele>
        <time>2014-10-01T08:39:57Z</time>
      </trkpt>
      <trkpt lat="42.2962870" lon="-6.5136800">
        <ele>835.1</ele>
        <time>2014-10-01T08:39:58Z</time>
      </trkpt>
      <trkpt lat="42.2962400" lon="-6.5136810">
        <ele>835.3</ele>
        <time>2014-10-01T08:39:59Z</time>
      </trkpt>
      <trkpt lat="42.2961870" lon="-6.5136830">
        <ele>835.6</ele>
        <time>2014-10-01T08:40:00Z</time>
      </trkpt>
      <trkpt lat="42.2961330" lon="-6.5136900">
        <ele>835.8</ele>
        <time>2014-10-01T08:40:01Z</time>
      </trkpt>
      <trkpt lat="42.2960800" lon="-6.5137030">
        <ele>836.5</ele>
        <time>2014-10-01T08:40:02Z</time>
      </trkpt>
      <trkpt lat="42.2960280" lon="-6.5137210">
        <ele>837.4</ele>
        <time>2014-10-01T08:40:03Z</time>
      </trkpt>
      <trkpt lat="42.2959770" lon="-6.5137440">
        <ele>838.1</ele>
        <time>2014-10-01T08:40:04Z</time>
      </trkpt>
      <trkpt lat="42.2959270" lon="-6.5137690">
        <ele>838.5</ele>
        <time>2014-10-01T08:40:05Z</time>
      </trkpt>
      <trkpt lat="42.2958790" lon="-6.5137950">
        <ele>838.7</ele>
        <time>2014-10-01T08:40:06Z</time>
      </trkpt>
      <trkpt lat="42.2958340" lon="-6.5138240">
        <ele>838.8</ele>
        <time>2014-10-01T08:40:07Z</time>
      </trkpt>
      <trkpt lat="42.2957920" lon="-6.5138500">
        <ele>838.9</ele>
        <time>2014-10-01T08:40:08Z</time>
      </trkpt>
      <trkpt lat="42.2957500" lon="-6.5138790">
        <ele>839.0</ele>
        <time>2014-10-01T08:40:09Z</time>
      </trkpt>
      <trkpt lat="42.2956980" lon="-6.5139170">
        <ele>839.0</ele>
        <time>2014-10-01T08:40:10Z</time>
      </trkpt>
      <trkpt lat="42.2956470" lon="-6.5139580">
        <ele>839.1</ele>
        <time>2014-10-01T08:40:11Z</time>
      </trkpt>
      <trkpt lat="42.2955980" lon="-6.5139990">
        <ele>839.2</ele>
        <time>2014-10-01T08:40:12Z</time>
      </trkpt>
      <trkpt lat="42.2955490" lon="-6.5140410">
        <ele>839.2</ele>
        <time>2014-10-01T08:40:13Z</time>
      </trkpt>
      <trkpt lat="42.2955010" lon="-6.5140860">
        <ele>839.3</ele>
        <time>2014-10-01T08:40:14Z</time>
      </trkpt>
      <trkpt lat="42.2954560" lon="-6.5141300">
        <ele>839.3</ele>
        <time>2014-10-01T08:40:15Z</time>
      </trkpt>
      <trkpt lat="42.2954100" lon="-6.5141750">
        <ele>839.3</ele>
        <time>2014-10-01T08:40:16Z</time>
      </trkpt>
      <trkpt lat="42.2953640" lon="-6.5142200">
        <ele>839.4</ele>
        <time>2014-10-01T08:40:17Z</time>
      </trkpt>
      <trkpt lat="42.2953200" lon="-6.5142650">
        <ele>839.4</ele>
        <time>2014-10-01T08:40:18Z</time>
      </trkpt>
      <trkpt lat="42.2952700" lon="-6.5143190">
        <ele>839.4</ele>
        <time>2014-10-01T08:40:19Z</time>
      </trkpt>
      <trkpt lat="42.2952150" lon="-6.5143800">
        <ele>839.3</ele>
        <time>2014-10-01T08:40:20Z</time>
      </trkpt>
      <trkpt lat="42.2951650" lon="-6.5144400">
        <ele>839.3</ele>
        <time>2014-10-01T08:40:21Z</time>
      </trkpt>
      <trkpt lat="42.2951200" lon="-6.5144930">
        <ele>839.3</ele>
        <time>2014-10-01T08:40:22Z</time>
      </trkpt>
      <trkpt lat="42.2950750" lon="-6.5145480">
        <ele>839.3</ele>
        <time>2014-10-01T08:40:23Z</time>
      </trkpt>
      <trkpt lat="42.2950300" lon="-6.5146010">
        <ele>839.3</ele>
        <time>2014-10-01T08:40:24Z</time>
      </trkpt>
      <trkpt lat="42.2949880" lon="-6.5146500">
        <ele>839.4</ele>
        <time>2014-10-01T08:40:25Z</time>
      </trkpt>
      <trkpt lat="42.2949450" lon="-6.5147010">
        <ele>839.4</ele>
        <time>2014-10-01T08:40:26Z</time>
      </trkpt>
      <trkpt lat="42.2948980" lon="-6.5147540">
        <ele>839.4</ele>
        <time>2014-10-01T08:40:27Z</time>
      </trkpt>
      <trkpt lat="42.2948510" lon="-6.5148060">
        <ele>839.4</ele>
        <time>2014-10-01T08:40:28Z</time>
      </trkpt>
      <trkpt lat="42.2948060" lon="-6.5148550">
        <ele>839.3</ele>
        <time>2014-10-01T08:40:29Z</time>
      </trkpt>
      <trkpt lat="42.2947580" lon="-6.5149020">
        <ele>839.3</ele>
        <time>2014-10-01T08:40:30Z</time>
      </trkpt>
      <trkpt lat="42.2947140" lon="-6.5149490">
        <ele>839.3</ele>
        <time>2014-10-01T08:40:31Z</time>
      </trkpt>
      <trkpt lat="42.2946700" lon="-6.5149900">
        <ele>839.3</ele>
        <time>2014-10-01T08:40:32Z</time>
      </trkpt>
      <trkpt lat="42.2946210" lon="-6.5150340">
        <ele>839.4</ele>
        <time>2014-10-01T08:40:33Z</time>
      </trkpt>
      <trkpt lat="42.2945720" lon="-6.5150760">
        <ele>839.4</ele>
        <time>2014-10-01T08:40:34Z</time>
      </trkpt>
      <trkpt lat="42.2945190" lon="-6.5151180">
        <ele>839.4</ele>
        <time>2014-10-01T08:40:35Z</time>
      </trkpt>
      <trkpt lat="42.2944630" lon="-6.5151590">
        <ele>839.4</ele>
        <time>2014-10-01T08:40:36Z</time>
      </trkpt>
      <trkpt lat="42.2944060" lon="-6.5151960">
        <ele>839.4</ele>
        <time>2014-10-01T08:40:37Z</time>
      </trkpt>
      <trkpt lat="42.2943480" lon="-6.5152300">
        <ele>839.4</ele>
        <time>2014-10-01T08:40:38Z</time>
      </trkpt>
      <trkpt lat="42.2942910" lon="-6.5152600">
        <ele>839.3</ele>
        <time>2014-10-01T08:40:39Z</time>
      </trkpt>
      <trkpt lat="42.2942290" lon="-6.5152920">
        <ele>839.3</ele>
        <time>2014-10-01T08:40:40Z</time>
      </trkpt>
      <trkpt lat="42.2941650" lon="-6.5153280">
        <ele>839.2</ele>
        <time>2014-10-01T08:40:41Z</time>
      </trkpt>
      <trkpt lat="42.2941040" lon="-6.5153640">
        <ele>839.2</ele>
        <time>2014-10-01T08:40:42Z</time>
      </trkpt>
      <trkpt lat="42.2940410" lon="-6.5154080">
        <ele>839.1</ele>
        <time>2014-10-01T08:40:43Z</time>
      </trkpt>
      <trkpt lat="42.2939840" lon="-6.5154510">
        <ele>839.1</ele>
        <time>2014-10-01T08:40:44Z</time>
      </trkpt>
      <trkpt lat="42.2939280" lon="-6.5154970">
        <ele>839.1</ele>
        <time>2014-10-01T08:40:45Z</time>
      </trkpt>
      <trkpt lat="42.2938720" lon="-6.5155460">
        <ele>839.0</ele>
        <time>2014-10-01T08:40:46Z</time>
      </trkpt>
      <trkpt lat="42.2938180" lon="-6.5155970">
        <ele>839.0</ele>
        <time>2014-10-01T08:40:47Z</time>
      </trkpt>
      <trkpt lat="42.2937640" lon="-6.5156420">
        <ele>839.0</ele>
        <time>2014-10-01T08:40:48Z</time>
      </trkpt>
      <trkpt lat="42.2937080" lon="-6.5156830">
        <ele>839.0</ele>
        <time>2014-10-01T08:40:49Z</time>
      </trkpt>
      <trkpt lat="42.2936510" lon="-6.5157200">
        <ele>839.0</ele>
        <time>2014-10-01T08:40:50Z</time>
      </trkpt>
      <trkpt lat="42.2935880" lon="-6.5157570">
        <ele>839.2</ele>
        <time>2014-10-01T08:40:51Z</time>
      </trkpt>
      <trkpt lat="42.2935260" lon="-6.5157750">
        <ele>839.4</ele>
        <time>2014-10-01T08:40:52Z</time>
      </trkpt>
      <trkpt lat="42.2934750" lon="-6.5157920">
        <ele>839.5</ele>
        <time>2014-10-01T08:40:53Z</time>
      </trkpt>
      <trkpt lat="42.2934180" lon="-6.5158230">
        <ele>839.7</ele>
        <time>2014-10-01T08:40:54Z</time>
      </trkpt>
      <trkpt lat="42.2933590" lon="-6.5158630">
        <ele>840.0</ele>
        <time>2014-10-01T08:40:55Z</time>
      </trkpt>
      <trkpt lat="42.2933070" lon="-6.5159250">
        <ele>840.4</ele>
        <time>2014-10-01T08:40:56Z</time>
      </trkpt>
      <trkpt lat="42.2932540" lon="-6.5159880">
        <ele>840.7</ele>
        <time>2014-10-01T08:40:57Z</time>
      </trkpt>
      <trkpt lat="42.2932170" lon="-6.5160440">
        <ele>841.0</ele>
        <time>2014-10-01T08:40:58Z</time>
      </trkpt>
      <trkpt lat="42.2931840" lon="-6.5160910">
        <ele>841.2</ele>
        <time>2014-10-01T08:40:59Z</time>
      </trkpt>
      <trkpt lat="42.2931510" lon="-6.5161510">
        <ele>841.5</ele>
        <time>2014-10-01T08:41:00Z</time>
      </trkpt>
      <trkpt lat="42.2931220" lon="-6.5162120">
        <ele>841.8</ele>
        <time>2014-10-01T08:41:01Z</time>
      </trkpt>
      <trkpt lat="42.2930900" lon="-6.5162890">
        <ele>842.2</ele>
        <time>2014-10-01T08:41:02Z</time>
      </trkpt>
      <trkpt lat="42.2930560" lon="-6.5163580">
        <ele>842.6</ele>
        <time>2014-10-01T08:41:03Z</time>
      </trkpt>
      <trkpt lat="42.2930250" lon="-6.5164220">
        <ele>843.0</ele>
        <time>2014-10-01T08:41:04Z</time>
      </trkpt>
      <trkpt lat="42.2929940" lon="-6.5164830">
        <ele>843.4</ele>
        <time>2014-10-01T08:41:05Z</time>
      </trkpt>
      <trkpt lat="42.2929710" lon="-6.5165310">
        <ele>843.8</ele>
        <time>2014-10-01T08:41:06Z</time>
      </trkpt>
      <trkpt lat="42.2929500" lon="-6.5165720">
        <ele>844.0</ele>
        <time>2014-10-01T08:41:07Z</time>
      </trkpt>
      <trkpt lat="42.2929250" lon="-6.5166200">
        <ele>844.4</ele>
        <time>2014-10-01T08:41:08Z</time>
      </trkpt>
      <trkpt lat="42.2928950" lon="-6.5166660">
        <ele>844.7</ele>
        <time>2014-10-01T08:41:09Z</time>
      </trkpt>
      <trkpt lat="42.2928620" lon="-6.5167140">
        <ele>845.1</ele>
        <time>2014-10-01T08:41:10Z</time>
      </trkpt>
      <trkpt lat="42.2928360" lon="-6.5167540">
        <ele>845.5</ele>
        <time>2014-10-01T08:41:11Z</time>
      </trkpt>
      <trkpt lat="42.2928070" lon="-6.5167920">
        <ele>845.9</ele>
        <time>2014-10-01T08:41:12Z</time>
      </trkpt>
      <trkpt lat="42.2927800" lon="-6.5168350">
        <ele>846.2</ele>
        <time>2014-10-01T08:41:13Z</time>
      </trkpt>
      <trkpt lat="42.2927500" lon="-6.5168800">
        <ele>846.6</ele>
        <time>2014-10-01T08:41:14Z</time>
      </trkpt>
      <trkpt lat="42.2927200" lon="-6.5169250">
        <ele>847.0</ele>
        <time>2014-10-01T08:41:15Z</time>
      </trkpt>
      <trkpt lat="42.2926920" lon="-6.5169650">
        <ele>847.3</ele>
        <time>2014-10-01T08:41:16Z</time>
      </trkpt>
      <trkpt lat="42.2926670" lon="-6.5170050">
        <ele>847.6</ele>
        <time>2014-10-01T08:41:17Z</time>
      </trkpt>
      <trkpt lat="42.2926390" lon="-6.5170520">
        <ele>847.9</ele>
        <time>2014-10-01T08:41:18Z</time>
      </trkpt>
      <trkpt lat="42.2926130" lon="-6.5170980">
        <ele>848.2</ele>
        <time>2014-10-01T08:41:19Z</time>
      </trkpt>
      <trkpt lat="42.2925890" lon="-6.5171400">
        <ele>848.4</ele>
        <time>2014-10-01T08:41:20Z</time>
      </trkpt>
      <trkpt lat="42.2925600" lon="-6.5171860">
        <ele>848.7</ele>
        <time>2014-10-01T08:41:21Z</time>
      </trkpt>
      <trkpt lat="42.2925330" lon="-6.5172310">
        <ele>848.9</ele>
        <time>2014-10-01T08:41:22Z</time>
      </trkpt>
      <trkpt lat="42.2925070" lon="-6.5172780">
        <ele>849.1</ele>
        <time>2014-10-01T08:41:23Z</time>
      </trkpt>
      <trkpt lat="42.2924800" lon="-6.5173250">
        <ele>849.2</ele>
        <time>2014-10-01T08:41:24Z</time>
      </trkpt>
      <trkpt lat="42.2924530" lon="-6.5173680">
        <ele>849.4</ele>
        <time>2014-10-01T08:41:25Z</time>
      </trkpt>
      <trkpt lat="42.2924240" lon="-6.5174130">
        <ele>849.5</ele>
        <time>2014-10-01T08:41:26Z</time>
      </trkpt>
      <trkpt lat="42.2923930" lon="-6.5174630">
        <ele>849.6</ele>
        <time>2014-10-01T08:41:27Z</time>
      </trkpt>
      <trkpt lat="42.2923610" lon="-6.5175130">
        <ele>849.7</ele>
        <time>2014-10-01T08:41:28Z</time>
      </trkpt>
      <trkpt lat="42.2923260" lon="-6.5175670">
        <ele>849.7</ele>
        <time>2014-10-01T08:41:29Z</time>
      </trkpt>
      <trkpt lat="42.2922910" lon="-6.5176200">
        <ele>849.7</ele>
        <time>2014-10-01T08:41:30Z</time>
      </trkpt>
      <trkpt lat="42.2922550" lon="-6.5176740">
        <ele>849.8</ele>
        <time>2014-10-01T08:41:31Z</time>
      </trkpt>
      <trkpt lat="42.2922200" lon="-6.5177250">
        <ele>849.8</ele>
        <time>2014-10-01T08:41:32Z</time>
      </trkpt>
      <trkpt lat="42.2921860" lon="-6.5177750">
        <ele>849.8</ele>
        <time>2014-10-01T08:41:33Z</time>
      </trkpt>
      <trkpt lat="42.2921520" lon="-6.5178260">
        <ele>849.7</ele>
        <time>2014-10-01T08:41:34Z</time>
      </trkpt>
      <trkpt lat="42.2921190" lon="-6.5178790">
        <ele>849.6</ele>
        <time>2014-10-01T08:41:35Z</time>
      </trkpt>
      <trkpt lat="42.2920830" lon="-6.5179340">
        <ele>849.4</ele>
        <time>2014-10-01T08:41:36Z</time>
      </trkpt>
      <trkpt lat="42.2920500" lon="-6.5179900">
        <ele>849.3</ele>
        <time>2014-10-01T08:41:37Z</time>
      </trkpt>
      <trkpt lat="42.2920240" lon="-6.5180630">
        <ele>849.1</ele>
        <time>2014-10-01T08:41:38Z</time>
      </trkpt>
      <trkpt lat="42.2920000" lon="-6.5181360">
        <ele>849.0</ele>
        <time>2014-10-01T08:41:39Z</time>
      </trkpt>
      <trkpt lat="42.2919830" lon="-6.5182210">
        <ele>848.9</ele>
        <time>2014-10-01T08:41:40Z</time>
      </trkpt>
      <trkpt lat="42.2919750" lon="-6.5183130">
        <ele>848.7</ele>
        <time>2014-10-01T08:41:41Z</time>
      </trkpt>
      <trkpt lat="42.2919740" lon="-6.5184070">
        <ele>848.5</ele>
        <time>2014-10-01T08:41:42Z</time>
      </trkpt>
      <trkpt lat="42.2919650" lon="-6.5185170">
        <ele>848.2</ele>
        <time>2014-10-01T08:41:43Z</time>
      </trkpt>
      <trkpt lat="42.2919590" lon="-6.5186250">
        <ele>848.0</ele>
        <time>2014-10-01T08:41:44Z</time>
      </trkpt>
      <trkpt lat="42.2919520" lon="-6.5187310">
        <ele>847.7</ele>
        <time>2014-10-01T08:41:45Z</time>
      </trkpt>
      <trkpt lat="42.2919480" lon="-6.5188370">
        <ele>847.5</ele>
        <time>2014-10-01T08:41:46Z</time>
      </trkpt>
      <trkpt lat="42.2919520" lon="-6.5189380">
        <ele>847.3</ele>
        <time>2014-10-01T08:41:47Z</time>
      </trkpt>
      <trkpt lat="42.2919530" lon="-6.5190470">
        <ele>847.1</ele>
        <time>2014-10-01T08:41:48Z</time>
      </trkpt>
      <trkpt lat="42.2919550" lon="-6.5191590">
        <ele>847.0</ele>
        <time>2014-10-01T08:41:49Z</time>
      </trkpt>
      <trkpt lat="42.2919620" lon="-6.5192580">
        <ele>846.9</ele>
        <time>2014-10-01T08:41:50Z</time>
      </trkpt>
      <trkpt lat="42.2919640" lon="-6.5193670">
        <ele>846.7</ele>
        <time>2014-10-01T08:41:51Z</time>
      </trkpt>
      <trkpt lat="42.2919620" lon="-6.5194780">
        <ele>846.5</ele>
        <time>2014-10-01T08:41:52Z</time>
      </trkpt>
      <trkpt lat="42.2919580" lon="-6.5195940">
        <ele>846.3</ele>
        <time>2014-10-01T08:41:53Z</time>
      </trkpt>
      <trkpt lat="42.2919620" lon="-6.5197000">
        <ele>846.1</ele>
        <time>2014-10-01T08:41:54Z</time>
      </trkpt>
      <trkpt lat="42.2919650" lon="-6.5198080">
        <ele>845.8</ele>
        <time>2014-10-01T08:41:55Z</time>
      </trkpt>
      <trkpt lat="42.2919670" lon="-6.5199190">
        <ele>845.5</ele>
        <time>2014-10-01T08:41:56Z</time>
      </trkpt>
      <trkpt lat="42.2919640" lon="-6.5200380">
        <ele>845.2</ele>
        <time>2014-10-01T08:41:57Z</time>
      </trkpt>
      <trkpt lat="42.2919570" lon="-6.5201620">
        <ele>845.0</ele>
        <time>2014-10-01T08:41:58Z</time>
      </trkpt>
      <trkpt lat="42.2919510" lon="-6.5202790">
        <ele>844.7</ele>
        <time>2014-10-01T08:41:59Z</time>
      </trkpt>
      <trkpt lat="42.2919440" lon="-6.5204000">
        <ele>844.5</ele>
        <time>2014-10-01T08:42:00Z</time>
      </trkpt>
      <trkpt lat="42.2919470" lon="-6.5205120">
        <ele>844.2</ele>
        <time>2014-10-01T08:42:01Z</time>
      </trkpt>
      <trkpt lat="42.2919490" lon="-6.5206370">
        <ele>844.0</ele>
        <time>2014-10-01T08:42:02Z</time>
      </trkpt>
      <trkpt lat="42.2919490" lon="-6.5207580">
        <ele>843.9</ele>
        <time>2014-10-01T08:42:03Z</time>
      </trkpt>
      <trkpt lat="42.2919500" lon="-6.5208790">
        <ele>843.7</ele>
        <time>2014-10-01T08:42:04Z</time>
      </trkpt>
      <trkpt lat="42.2919500" lon="-6.5210010">
        <ele>843.6</ele>
        <time>2014-10-01T08:42:05Z</time>
      </trkpt>
      <trkpt lat="42.2919480" lon="-6.5211260">
        <ele>843.4</ele>
        <time>2014-10-01T08:42:06Z</time>
      </trkpt>
      <trkpt lat="42.2919430" lon="-6.5212550">
        <ele>843.3</ele>
        <time>2014-10-01T08:42:07Z</time>
      </trkpt>
      <trkpt lat="42.2919370" lon="-6.5213830">
        <ele>843.2</ele>
        <time>2014-10-01T08:42:08Z</time>
      </trkpt>
      <trkpt lat="42.2919330" lon="-6.5214970">
        <ele>843.2</ele>
        <time>2014-10-01T08:42:09Z</time>
      </trkpt>
      <trkpt lat="42.2919330" lon="-6.5216130">
        <ele>843.1</ele>
        <time>2014-10-01T08:42:10Z</time>
      </trkpt>
      <trkpt lat="42.2919310" lon="-6.5217360">
        <ele>843.1</ele>
        <time>2014-10-01T08:42:11Z</time>
      </trkpt>
      <trkpt lat="42.2919310" lon="-6.5218610">
        <ele>843.0</ele>
        <time>2014-10-01T08:42:12Z</time>
      </trkpt>
      <trkpt lat="42.2919330" lon="-6.5219740">
        <ele>842.9</ele>
        <time>2014-10-01T08:42:13Z</time>
      </trkpt>
      <trkpt lat="42.2919350" lon="-6.5220830">
        <ele>842.8</ele>
        <time>2014-10-01T08:42:14Z</time>
      </trkpt>
      <trkpt lat="42.2919390" lon="-6.5221860">
        <ele>842.8</ele>
        <time>2014-10-01T08:42:15Z</time>
      </trkpt>
      <trkpt lat="42.2919460" lon="-6.5222990">
        <ele>842.6</ele>
        <time>2014-10-01T08:42:16Z</time>
      </trkpt>
      <trkpt lat="42.2919560" lon="-6.5224060">
        <ele>842.4</ele>
        <time>2014-10-01T08:42:17Z</time>
      </trkpt>
      <trkpt lat="42.2919660" lon="-6.5225110">
        <ele>842.2</ele>
        <time>2014-10-01T08:42:18Z</time>
      </trkpt>
      <trkpt lat="42.2919780" lon="-6.5226110">
        <ele>842.0</ele>
        <time>2014-10-01T08:42:19Z</time>
      </trkpt>
      <trkpt lat="42.2919850" lon="-6.5227190">
        <ele>841.9</ele>
        <time>2014-10-01T08:42:20Z</time>
      </trkpt>
      <trkpt lat="42.2919810" lon="-6.5228340">
        <ele>841.8</ele>
        <time>2014-10-01T08:42:21Z</time>
      </trkpt>
      <trkpt lat="42.2919720" lon="-6.5229520">
        <ele>842.4</ele>
        <time>2014-10-01T08:42:22Z</time>
      </trkpt>
      <trkpt lat="42.2919510" lon="-6.5230740">
        <ele>844.1</ele>
        <time>2014-10-01T08:42:23Z</time>
      </trkpt>
      <trkpt lat="42.2919390" lon="-6.5231810">
        <ele>844.7</ele>
        <time>2014-10-01T08:42:24Z</time>
      </trkpt>
      <trkpt lat="42.2919330" lon="-6.5232910">
        <ele>844.6</ele>
        <time>2014-10-01T08:42:25Z</time>
      </trkpt>
      <trkpt lat="42.2919280" lon="-6.5233980">
        <ele>844.4</ele>
        <time>2014-10-01T08:42:26Z</time>
      </trkpt>
      <trkpt lat="42.2919240" lon="-6.5235180">
        <ele>844.2</ele>
        <time>2014-10-01T08:42:27Z</time>
      </trkpt>
      <trkpt lat="42.2919200" lon="-6.5236400">
        <ele>843.9</ele>
        <time>2014-10-01T08:42:28Z</time>
      </trkpt>
      <trkpt lat="42.2919160" lon="-6.5237580">
        <ele>843.8</ele>
        <time>2014-10-01T08:42:29Z</time>
      </trkpt>
      <trkpt lat="42.2919110" lon="-6.5238720">
        <ele>843.6</ele>
        <time>2014-10-01T08:42:30Z</time>
      </trkpt>
      <trkpt lat="42.2919060" lon="-6.5239840">
        <ele>843.5</ele>
        <time>2014-10-01T08:42:31Z</time>
      </trkpt>
      <trkpt lat="42.2918980" lon="-6.5240990">
        <ele>843.5</ele>
        <time>2014-10-01T08:42:32Z</time>
      </trkpt>
      <trkpt lat="42.2918850" lon="-6.5242210">
        <ele>843.6</ele>
        <time>2014-10-01T08:42:33Z</time>
      </trkpt>
      <trkpt lat="42.2918720" lon="-6.5243420">
        <ele>843.6</ele>
        <time>2014-10-01T08:42:34Z</time>
      </trkpt>
      <trkpt lat="42.2918500" lon="-6.5244630">
        <ele>843.7</ele>
        <time>2014-10-01T08:42:35Z</time>
      </trkpt>
      <trkpt lat="42.2918300" lon="-6.5245730">
        <ele>843.8</ele>
        <time>2014-10-01T08:42:36Z</time>
      </trkpt>
      <trkpt lat="42.2918050" lon="-6.5246890">
        <ele>843.9</ele>
        <time>2014-10-01T08:42:37Z</time>
      </trkpt>
      <trkpt lat="42.2917770" lon="-6.5248010">
        <ele>844.0</ele>
        <time>2014-10-01T08:42:38Z</time>
      </trkpt>
      <trkpt lat="42.2917480" lon="-6.5249000">
        <ele>844.1</ele>
        <time>2014-10-01T08:42:39Z</time>
      </trkpt>
      <trkpt lat="42.2917260" lon="-6.5249970">
        <ele>844.2</ele>
        <time>2014-10-01T08:42:40Z</time>
      </trkpt>
      <trkpt lat="42.2917090" lon="-6.5250880">
        <ele>844.4</ele>
        <time>2014-10-01T08:42:41Z</time>
      </trkpt>
      <trkpt lat="42.2916910" lon="-6.5251960">
        <ele>844.5</ele>
        <time>2014-10-01T08:42:42Z</time>
      </trkpt>
      <trkpt lat="42.2916740" lon="-6.5253080">
        <ele>844.8</ele>
        <time>2014-10-01T08:42:43Z</time>
      </trkpt>
      <trkpt lat="42.2916570" lon="-6.5254120">
        <ele>845.0</ele>
        <time>2014-10-01T08:42:44Z</time>
      </trkpt>
      <trkpt lat="42.2916420" lon="-6.5255090">
        <ele>845.2</ele>
        <time>2014-10-01T08:42:45Z</time>
      </trkpt>
      <trkpt lat="42.2916260" lon="-6.5255970">
        <ele>845.4</ele>
        <time>2014-10-01T08:42:46Z</time>
      </trkpt>
      <trkpt lat="42.2916110" lon="-6.5256810">
        <ele>845.6</ele>
        <time>2014-10-01T08:42:47Z</time>
      </trkpt>
      <trkpt lat="42.2915950" lon="-6.5257650">
        <ele>845.8</ele>
        <time>2014-10-01T08:42:48Z</time>
      </trkpt>
      <trkpt lat="42.2915770" lon="-6.5258490">
        <ele>846.0</ele>
        <time>2014-10-01T08:42:49Z</time>
      </trkpt>
      <trkpt lat="42.2915550" lon="-6.5259300">
        <ele>846.1</ele>
        <time>2014-10-01T08:42:50Z</time>
      </trkpt>
      <trkpt lat="42.2915410" lon="-6.5260050">
        <ele>846.2</ele>
        <time>2014-10-01T08:42:51Z</time>
      </trkpt>
      <trkpt lat="42.2915230" lon="-6.5260920">
        <ele>846.3</ele>
        <time>2014-10-01T08:42:52Z</time>
      </trkpt>
      <trkpt lat="42.2915000" lon="-6.5261730">
        <ele>846.4</ele>
        <time>2014-10-01T08:42:53Z</time>
      </trkpt>
      <trkpt lat="42.2914760" lon="-6.5262540">
        <ele>846.5</ele>
        <time>2014-10-01T08:42:54Z</time>
      </trkpt>
      <trkpt lat="42.2914540" lon="-6.5263350">
        <ele>846.6</ele>
        <time>2014-10-01T08:42:55Z</time>
      </trkpt>
      <trkpt lat="42.2914360" lon="-6.5264150">
        <ele>846.8</ele>
        <time>2014-10-01T08:42:56Z</time>
      </trkpt>
      <trkpt lat="42.2914170" lon="-6.5265010">
        <ele>846.9</ele>
        <time>2014-10-01T08:42:57Z</time>
      </trkpt>
      <trkpt lat="42.2913990" lon="-6.5265870">
        <ele>846.9</ele>
        <time>2014-10-01T08:42:58Z</time>
      </trkpt>
      <trkpt lat="42.2913820" lon="-6.5266730">
        <ele>846.9</ele>
        <time>2014-10-01T08:42:59Z</time>
      </trkpt>
      <trkpt lat="42.2913650" lon="-6.5267600">
        <ele>847.0</ele>
        <time>2014-10-01T08:43:00Z</time>
      </trkpt>
      <trkpt lat="42.2913500" lon="-6.5268450">
        <ele>847.0</ele>
        <time>2014-10-01T08:43:01Z</time>
      </trkpt>
      <trkpt lat="42.2913370" lon="-6.5269280">
        <ele>847.1</ele>
        <time>2014-10-01T08:43:02Z</time>
      </trkpt>
      <trkpt lat="42.2913240" lon="-6.5270110">
        <ele>847.2</ele>
        <time>2014-10-01T08:43:03Z</time>
      </trkpt>
      <trkpt lat="42.2913130" lon="-6.5270890">
        <ele>847.3</ele>
        <time>2014-10-01T08:43:04Z</time>
      </trkpt>
      <trkpt lat="42.2912980" lon="-6.5271750">
        <ele>847.4</ele>
        <time>2014-10-01T08:43:05Z</time>
      </trkpt>
      <trkpt lat="42.2912850" lon="-6.5272500">
        <ele>847.4</ele>
        <time>2014-10-01T08:43:06Z</time>
      </trkpt>
      <trkpt lat="42.2912740" lon="-6.5273150">
        <ele>847.5</ele>
        <time>2014-10-01T08:43:07Z</time>
      </trkpt>
      <trkpt lat="42.2912620" lon="-6.5273820">
        <ele>847.6</ele>
        <time>2014-10-01T08:43:08Z</time>
      </trkpt>
      <trkpt lat="42.2912500" lon="-6.5274510">
        <ele>847.7</ele>
        <time>2014-10-01T08:43:09Z</time>
      </trkpt>
      <trkpt lat="42.2912370" lon="-6.5275240">
        <ele>847.7</ele>
        <time>2014-10-01T08:43:10Z</time>
      </trkpt>
      <trkpt lat="42.2912250" lon="-6.5275890">
        <ele>847.8</ele>
        <time>2014-10-01T08:43:11Z</time>
      </trkpt>
      <trkpt lat="42.2912140" lon="-6.5276660">
        <ele>847.9</ele>
        <time>2014-10-01T08:43:12Z</time>
      </trkpt>
      <trkpt lat="42.2911990" lon="-6.5277500">
        <ele>848.0</ele>
        <time>2014-10-01T08:43:13Z</time>
      </trkpt>
      <trkpt lat="42.2911840" lon="-6.5278370">
        <ele>848.1</ele>
        <time>2014-10-01T08:43:14Z</time>
      </trkpt>
      <trkpt lat="42.2911620" lon="-6.5279280">
        <ele>848.2</ele>
        <time>2014-10-01T08:43:15Z</time>
      </trkpt>
      <trkpt lat="42.2911250" lon="-6.5280180">
        <ele>848.3</ele>
        <time>2014-10-01T08:43:16Z</time>
      </trkpt>
      <trkpt lat="42.2910840" lon="-6.5281150">
        <ele>848.4</ele>
        <time>2014-10-01T08:43:17Z</time>
      </trkpt>
      <trkpt lat="42.2910550" lon="-6.5282030">
        <ele>848.6</ele>
        <time>2014-10-01T08:43:18Z</time>
      </trkpt>
      <trkpt lat="42.2910310" lon="-6.5282810">
        <ele>848.8</ele>
        <time>2014-10-01T08:43:19Z</time>
      </trkpt>
      <trkpt lat="42.2910040" lon="-6.5283620">
        <ele>849.1</ele>
        <time>2014-10-01T08:43:20Z</time>
      </trkpt>
      <trkpt lat="42.2909840" lon="-6.5284300">
        <ele>849.3</ele>
        <time>2014-10-01T08:43:21Z</time>
      </trkpt>
      <trkpt lat="42.2909530" lon="-6.5285150">
        <ele>849.7</ele>
        <time>2014-10-01T08:43:22Z</time>
      </trkpt>
      <trkpt lat="42.2909230" lon="-6.5285940">
        <ele>850.0</ele>
        <time>2014-10-01T08:43:23Z</time>
      </trkpt>
      <trkpt lat="42.2908910" lon="-6.5286640">
        <ele>850.2</ele>
        <time>2014-10-01T08:43:24Z</time>
      </trkpt>
      <trkpt lat="42.2908580" lon="-6.5287270">
        <ele>850.4</ele>
        <time>2014-10-01T08:43:25Z</time>
      </trkpt>
      <trkpt lat="42.2908250" lon="-6.5287860">
        <ele>850.5</ele>
        <time>2014-10-01T08:43:26Z</time>
      </trkpt>
      <trkpt lat="42.2907900" lon="-6.5288440">
        <ele>850.5</ele>
        <time>2014-10-01T08:43:27Z</time>
      </trkpt>
      <trkpt lat="42.2907420" lon="-6.5288960">
        <ele>850.4</ele>
        <time>2014-10-01T08:43:28Z</time>
      </trkpt>
      <trkpt lat="42.2906910" lon="-6.5289440">
        <ele>850.3</ele>
        <time>2014-10-01T08:43:29Z</time>
      </trkpt>
      <trkpt lat="42.2906300" lon="-6.5289900">
        <ele>850.2</ele>
        <time>2014-10-01T08:43:30Z</time>
      </trkpt>
      <trkpt lat="42.2905730" lon="-6.5290300">
        <ele>850.2</ele>
        <time>2014-10-01T08:43:31Z</time>
      </trkpt>
      <trkpt lat="42.2905100" lon="-6.5290700">
        <ele>850.2</ele>
        <time>2014-10-01T08:43:32Z</time>
      </trkpt>
      <trkpt lat="42.2904490" lon="-6.5291130">
        <ele>850.2</ele>
        <time>2014-10-01T08:43:33Z</time>
      </trkpt>
      <trkpt lat="42.2903940" lon="-6.5291470">
        <ele>850.3</ele>
        <time>2014-10-01T08:43:34Z</time>
      </trkpt>
      <trkpt lat="42.2903360" lon="-6.5291860">
        <ele>850.3</ele>
        <time>2014-10-01T08:43:35Z</time>
      </trkpt>
      <trkpt lat="42.2902850" lon="-6.5292200">
        <ele>850.3</ele>
        <time>2014-10-01T08:43:36Z</time>
      </trkpt>
      <trkpt lat="42.2902300" lon="-6.5292600">
        <ele>850.3</ele>
        <time>2014-10-01T08:43:37Z</time>
      </trkpt>
      <trkpt lat="42.2901690" lon="-6.5293060">
        <ele>850.2</ele>
        <time>2014-10-01T08:43:38Z</time>
      </trkpt>
      <trkpt lat="42.2901070" lon="-6.5293530">
        <ele>850.1</ele>
        <time>2014-10-01T08:43:39Z</time>
      </trkpt>
      <trkpt lat="42.2900520" lon="-6.5293990">
        <ele>850.1</ele>
        <time>2014-10-01T08:43:40Z</time>
      </trkpt>
      <trkpt lat="42.2899920" lon="-6.5294500">
        <ele>850.1</ele>
        <time>2014-10-01T08:43:41Z</time>
      </trkpt>
      <trkpt lat="42.2899320" lon="-6.5295010">
        <ele>850.1</ele>
        <time>2014-10-01T08:43:42Z</time>
      </trkpt>
      <trkpt lat="42.2898850" lon="-6.5295430">
        <ele>850.1</ele>
        <time>2014-10-01T08:43:43Z</time>
      </trkpt>
      <trkpt lat="42.2898370" lon="-6.5295860">
        <ele>850.1</ele>
        <time>2014-10-01T08:43:44Z</time>
      </trkpt>
      <trkpt lat="42.2897880" lon="-6.5296260">
        <ele>850.1</ele>
        <time>2014-10-01T08:43:45Z</time>
      </trkpt>
      <trkpt lat="42.2897300" lon="-6.5296790">
        <ele>850.1</ele>
        <time>2014-10-01T08:43:46Z</time>
      </trkpt>
      <trkpt lat="42.2896740" lon="-6.5297350">
        <ele>850.0</ele>
        <time>2014-10-01T08:43:47Z</time>
      </trkpt>
      <trkpt lat="42.2896200" lon="-6.5297930">
        <ele>849.8</ele>
        <time>2014-10-01T08:43:48Z</time>
      </trkpt>
      <trkpt lat="42.2895630" lon="-6.5298610">
        <ele>849.7</ele>
        <time>2014-10-01T08:43:49Z</time>
      </trkpt>
      <trkpt lat="42.2895080" lon="-6.5299430">
        <ele>849.6</ele>
        <time>2014-10-01T08:43:50Z</time>
      </trkpt>
      <trkpt lat="42.2894470" lon="-6.5300260">
        <ele>849.5</ele>
        <time>2014-10-01T08:43:51Z</time>
      </trkpt>
      <trkpt lat="42.2893850" lon="-6.5301040">
        <ele>849.5</ele>
        <time>2014-10-01T08:43:52Z</time>
      </trkpt>
      <trkpt lat="42.2893240" lon="-6.5301770">
        <ele>849.4</ele>
        <time>2014-10-01T08:43:53Z</time>
      </trkpt>
      <trkpt lat="42.2892660" lon="-6.5302400">
        <ele>849.3</ele>
        <time>2014-10-01T08:43:54Z</time>
      </trkpt>
      <trkpt lat="42.2892050" lon="-6.5302960">
        <ele>849.1</ele>
        <time>2014-10-01T08:43:55Z</time>
      </trkpt>
      <trkpt lat="42.2891420" lon="-6.5303510">
        <ele>848.9</ele>
        <time>2014-10-01T08:43:56Z</time>
      </trkpt>
      <trkpt lat="42.2890800" lon="-6.5304050">
        <ele>848.8</ele>
        <time>2014-10-01T08:43:57Z</time>
      </trkpt>
      <trkpt lat="42.2890200" lon="-6.5304570">
        <ele>848.8</ele>
        <time>2014-10-01T08:43:58Z</time>
      </trkpt>
      <trkpt lat="42.2889570" lon="-6.5305100">
        <ele>848.8</ele>
        <time>2014-10-01T08:43:59Z</time>
      </trkpt>
      <trkpt lat="42.2888950" lon="-6.5305600">
        <ele>848.9</ele>
        <time>2014-10-01T08:44:00Z</time>
      </trkpt>
      <trkpt lat="42.2888330" lon="-6.5306090">
        <ele>848.9</ele>
        <time>2014-10-01T08:44:01Z</time>
      </trkpt>
      <trkpt lat="42.2887680" lon="-6.5306570">
        <ele>848.9</ele>
        <time>2014-10-01T08:44:02Z</time>
      </trkpt>
      <trkpt lat="42.2887010" lon="-6.5307040">
        <ele>849.0</ele>
        <time>2014-10-01T08:44:03Z</time>
      </trkpt>
      <trkpt lat="42.2886360" lon="-6.5307520">
        <ele>849.2</ele>
        <time>2014-10-01T08:44:04Z</time>
      </trkpt>
      <trkpt lat="42.2885730" lon="-6.5307970">
        <ele>849.3</ele>
        <time>2014-10-01T08:44:05Z</time>
      </trkpt>
      <trkpt lat="42.2885100" lon="-6.5308530">
        <ele>849.5</ele>
        <time>2014-10-01T08:44:06Z</time>
      </trkpt>
      <trkpt lat="42.2884510" lon="-6.5309070">
        <ele>849.6</ele>
        <time>2014-10-01T08:44:07Z</time>
      </trkpt>
      <trkpt lat="42.2883950" lon="-6.5309640">
        <ele>849.8</ele>
        <time>2014-10-01T08:44:08Z</time>
      </trkpt>
      <trkpt lat="42.2883410" lon="-6.5310190">
        <ele>850.0</ele>
        <time>2014-10-01T08:44:09Z</time>
      </trkpt>
      <trkpt lat="42.2882810" lon="-6.5310880">
        <ele>850.3</ele>
        <time>2014-10-01T08:44:10Z</time>
      </trkpt>
      <trkpt lat="42.2882180" lon="-6.5311620">
        <ele>850.7</ele>
        <time>2014-10-01T08:44:11Z</time>
      </trkpt>
      <trkpt lat="42.2881570" lon="-6.5312310">
        <ele>851.0</ele>
        <time>2014-10-01T08:44:12Z</time>
      </trkpt>
      <trkpt lat="42.2880990" lon="-6.5312910">
        <ele>851.3</ele>
        <time>2014-10-01T08:44:13Z</time>
      </trkpt>
      <trkpt lat="42.2880410" lon="-6.5313450">
        <ele>851.6</ele>
        <time>2014-10-01T08:44:14Z</time>
      </trkpt>
      <trkpt lat="42.2879850" lon="-6.5313930">
        <ele>851.9</ele>
        <time>2014-10-01T08:44:15Z</time>
      </trkpt>
      <trkpt lat="42.2879310" lon="-6.5314340">
        <ele>852.2</ele>
        <time>2014-10-01T08:44:16Z</time>
      </trkpt>
      <trkpt lat="42.2878770" lon="-6.5314710">
        <ele>852.5</ele>
        <time>2014-10-01T08:44:17Z</time>
      </trkpt>
      <trkpt lat="42.2878220" lon="-6.5315110">
        <ele>852.9</ele>
        <time>2014-10-01T08:44:18Z</time>
      </trkpt>
      <trkpt lat="42.2877710" lon="-6.5315440">
        <ele>853.3</ele>
        <time>2014-10-01T08:44:19Z</time>
      </trkpt>
      <trkpt lat="42.2877240" lon="-6.5315740">
        <ele>853.6</ele>
        <time>2014-10-01T08:44:20Z</time>
      </trkpt>
      <trkpt lat="42.2876780" lon="-6.5316000">
        <ele>854.0</ele>
        <time>2014-10-01T08:44:21Z</time>
      </trkpt>
      <trkpt lat="42.2876340" lon="-6.5316260">
        <ele>854.3</ele>
        <time>2014-10-01T08:44:22Z</time>
      </trkpt>
      <trkpt lat="42.2875910" lon="-6.5316510">
        <ele>854.6</ele>
        <time>2014-10-01T08:44:23Z</time>
      </trkpt>
      <trkpt lat="42.2875500" lon="-6.5316760">
        <ele>854.9</ele>
        <time>2014-10-01T08:44:24Z</time>
      </trkpt>
      <trkpt lat="42.2875110" lon="-6.5317000">
        <ele>855.3</ele>
        <time>2014-10-01T08:44:25Z</time>
      </trkpt>
      <trkpt lat="42.2874690" lon="-6.5317250">
        <ele>855.8</ele>
        <time>2014-10-01T08:44:26Z</time>
      </trkpt>
      <trkpt lat="42.2874300" lon="-6.5317480">
        <ele>856.2</ele>
        <time>2014-10-01T08:44:27Z</time>
      </trkpt>
      <trkpt lat="42.2873970" lon="-6.5317670">
        <ele>856.6</ele>
        <time>2014-10-01T08:44:28Z</time>
      </trkpt>
      <trkpt lat="42.2873660" lon="-6.5317850">
        <ele>856.9</ele>
        <time>2014-10-01T08:44:29Z</time>
      </trkpt>
      <trkpt lat="42.2873370" lon="-6.5318020">
        <ele>857.2</ele>
        <time>2014-10-01T08:44:30Z</time>
      </trkpt>
      <trkpt lat="42.2873040" lon="-6.5318240">
        <ele>857.5</ele>
        <time>2014-10-01T08:44:31Z</time>
      </trkpt>
      <trkpt lat="42.2872760" lon="-6.5318440">
        <ele>857.8</ele>
        <time>2014-10-01T08:44:32Z</time>
      </trkpt>
      <trkpt lat="42.2872500" lon="-6.5318670">
        <ele>858.1</ele>
        <time>2014-10-01T08:44:33Z</time>
      </trkpt>
      <trkpt lat="42.2872210" lon="-6.5318920">
        <ele>858.5</ele>
        <time>2014-10-01T08:44:34Z</time>
      </trkpt>
      <trkpt lat="42.2871890" lon="-6.5319230">
        <ele>858.9</ele>
        <time>2014-10-01T08:44:35Z</time>
      </trkpt>
      <trkpt lat="42.2871590" lon="-6.5319540">
        <ele>859.0</ele>
        <time>2014-10-01T08:44:36Z</time>
      </trkpt>
      <trkpt lat="42.2871340" lon="-6.5319830">
        <ele>859.1</ele>
        <time>2014-10-01T08:44:37Z</time>
      </trkpt>
      <trkpt lat="42.2871050" lon="-6.5320180">
        <ele>859.2</ele>
        <time>2014-10-01T08:44:38Z</time>
      </trkpt>
      <trkpt lat="42.2870760" lon="-6.5320530">
        <ele>859.4</ele>
        <time>2014-10-01T08:44:39Z</time>
      </trkpt>
      <trkpt lat="42.2870470" lon="-6.5320900">
        <ele>859.5</ele>
        <time>2014-10-01T08:44:40Z</time>
      </trkpt>
      <trkpt lat="42.2870180" lon="-6.5321280">
        <ele>859.6</ele>
        <time>2014-10-01T08:44:41Z</time>
      </trkpt>
      <trkpt lat="42.2869860" lon="-6.5321690">
        <ele>859.8</ele>
        <time>2014-10-01T08:44:42Z</time>
      </trkpt>
      <trkpt lat="42.2869530" lon="-6.5322100">
        <ele>859.9</ele>
        <time>2014-10-01T08:44:43Z</time>
      </trkpt>
      <trkpt lat="42.2869210" lon="-6.5322520">
        <ele>860.0</ele>
        <time>2014-10-01T08:44:44Z</time>
      </trkpt>
      <trkpt lat="42.2868880" lon="-6.5322900">
        <ele>860.1</ele>
        <time>2014-10-01T08:44:45Z</time>
      </trkpt>
      <trkpt lat="42.2868560" lon="-6.5323290">
        <ele>860.2</ele>
        <time>2014-10-01T08:44:46Z</time>
      </trkpt>
      <trkpt lat="42.2868210" lon="-6.5323680">
        <ele>860.4</ele>
        <time>2014-10-01T08:44:47Z</time>
      </trkpt>
      <trkpt lat="42.2867890" lon="-6.5324070">
        <ele>860.6</ele>
        <time>2014-10-01T08:44:48Z</time>
      </trkpt>
      <trkpt lat="42.2867560" lon="-6.5324520">
        <ele>860.7</ele>
        <time>2014-10-01T08:44:49Z</time>
      </trkpt>
      <trkpt lat="42.2867250" lon="-6.5324950">
        <ele>860.9</ele>
        <time>2014-10-01T08:44:50Z</time>
      </trkpt>
      <trkpt lat="42.2866930" lon="-6.5325400">
        <ele>861.1</ele>
        <time>2014-10-01T08:44:51Z</time>
      </trkpt>
      <trkpt lat="42.2866590" lon="-6.5325880">
        <ele>861.2</ele>
        <time>2014-10-01T08:44:52Z</time>
      </trkpt>
      <trkpt lat="42.2866260" lon="-6.5326380">
        <ele>861.3</ele>
        <time>2014-10-01T08:44:53Z</time>
      </trkpt>
      <trkpt lat="42.2865940" lon="-6.5326870">
        <ele>861.5</ele>
        <time>2014-10-01T08:44:54Z</time>
      </trkpt>
      <trkpt lat="42.2865640" lon="-6.5327370">
        <ele>861.6</ele>
        <time>2014-10-01T08:44:55Z</time>
      </trkpt>
      <trkpt lat="42.2865350" lon="-6.5327850">
        <ele>861.7</ele>
        <time>2014-10-01T08:44:56Z</time>
      </trkpt>
      <trkpt lat="42.2865070" lon="-6.5328330">
        <ele>861.9</ele>
        <time>2014-10-01T08:44:57Z</time>
      </trkpt>
      <trkpt lat="42.2864790" lon="-6.5328840">
        <ele>862.0</ele>
        <time>2014-10-01T08:44:58Z</time>
      </trkpt>
      <trkpt lat="42.2864500" lon="-6.5329350">
        <ele>862.2</ele>
        <time>2014-10-01T08:44:59Z</time>
      </trkpt>
      <trkpt lat="42.2864200" lon="-6.5329860">
        <ele>862.3</ele>
        <time>2014-10-01T08:45:00Z</time>
      </trkpt>
      <trkpt lat="42.2863920" lon="-6.5330350">
        <ele>862.4</ele>
        <time>2014-10-01T08:45:01Z</time>
      </trkpt>
      <trkpt lat="42.2863650" lon="-6.5330860">
        <ele>862.6</ele>
        <time>2014-10-01T08:45:02Z</time>
      </trkpt>
      <trkpt lat="42.2863380" lon="-6.5331380">
        <ele>862.7</ele>
        <time>2014-10-01T08:45:03Z</time>
      </trkpt>
      <trkpt lat="42.2863110" lon="-6.5331890">
        <ele>862.8</ele>
        <time>2014-10-01T08:45:04Z</time>
      </trkpt>
      <trkpt lat="42.2862830" lon="-6.5332410">
        <ele>862.9</ele>
        <time>2014-10-01T08:45:05Z</time>
      </trkpt>
      <trkpt lat="42.2862560" lon="-6.5332940">
        <ele>862.9</ele>
        <time>2014-10-01T08:45:06Z</time>
      </trkpt>
      <trkpt lat="42.2862300" lon="-6.5333450">
        <ele>863.0</ele>
        <time>2014-10-01T08:45:07Z</time>
      </trkpt>
      <trkpt lat="42.2862010" lon="-6.5333990">
        <ele>863.0</ele>
        <time>2014-10-01T08:45:08Z</time>
      </trkpt>
      <trkpt lat="42.2861750" lon="-6.5334500">
        <ele>863.0</ele>
        <time>2014-10-01T08:45:09Z</time>
      </trkpt>
      <trkpt lat="42.2861500" lon="-6.5335050">
        <ele>862.9</ele>
        <time>2014-10-01T08:45:10Z</time>
      </trkpt>
      <trkpt lat="42.2861320" lon="-6.5335670">
        <ele>862.8</ele>
        <time>2014-10-01T08:45:11Z</time>
      </trkpt>
      <trkpt lat="42.2861140" lon="-6.5336320">
        <ele>862.7</ele>
        <time>2014-10-01T08:45:12Z</time>
      </trkpt>
      <trkpt lat="42.2860930" lon="-6.5337020">
        <ele>862.6</ele>
        <time>2014-10-01T08:45:13Z</time>
      </trkpt>
      <trkpt lat="42.2860710" lon="-6.5337740">
        <ele>862.4</ele>
        <time>2014-10-01T08:45:14Z</time>
      </trkpt>
      <trkpt lat="42.2860540" lon="-6.5338410">
        <ele>862.3</ele>
        <time>2014-10-01T08:45:15Z</time>
      </trkpt>
      <trkpt lat="42.2860360" lon="-6.5339170">
        <ele>862.1</ele>
        <time>2014-10-01T08:45:16Z</time>
      </trkpt>
      <trkpt lat="42.2860170" lon="-6.5339970">
        <ele>862.0</ele>
        <time>2014-10-01T08:45:17Z</time>
      </trkpt>
      <trkpt lat="42.2859960" lon="-6.5340770">
        <ele>861.9</ele>
        <time>2014-10-01T08:45:18Z</time>
      </trkpt>
      <trkpt lat="42.2859790" lon="-6.5341590">
        <ele>861.7</ele>
        <time>2014-10-01T08:45:19Z</time>
      </trkpt>
      <trkpt lat="42.2859600" lon="-6.5342500">
        <ele>861.6</ele>
        <time>2014-10-01T08:45:20Z</time>
      </trkpt>
      <trkpt lat="42.2859320" lon="-6.5343570">
        <ele>861.6</ele>
        <time>2014-10-01T08:45:21Z</time>
      </trkpt>
      <trkpt lat="42.2859050" lon="-6.5344640">
        <ele>861.6</ele>
        <time>2014-10-01T08:45:22Z</time>
      </trkpt>
      <trkpt lat="42.2858800" lon="-6.5345680">
        <ele>861.6</ele>
        <time>2014-10-01T08:45:23Z</time>
      </trkpt>
      <trkpt lat="42.2858530" lon="-6.5346730">
        <ele>861.6</ele>
        <time>2014-10-01T08:45:24Z</time>
      </trkpt>
      <trkpt lat="42.2858320" lon="-6.5347610">
        <ele>861.5</ele>
        <time>2014-10-01T08:45:25Z</time>
      </trkpt>
      <trkpt lat="42.2858090" lon="-6.5348560">
        <ele>861.5</ele>
        <time>2014-10-01T08:45:26Z</time>
      </trkpt>
      <trkpt lat="42.2857850" lon="-6.5349500">
        <ele>861.4</ele>
        <time>2014-10-01T08:45:27Z</time>
      </trkpt>
      <trkpt lat="42.2857610" lon="-6.5350360">
        <ele>861.4</ele>
        <time>2014-10-01T08:45:28Z</time>
      </trkpt>
      <trkpt lat="42.2857230" lon="-6.5351390">
        <ele>861.3</ele>
        <time>2014-10-01T08:45:29Z</time>
      </trkpt>
      <trkpt lat="42.2856810" lon="-6.5352480">
        <ele>861.1</ele>
        <time>2014-10-01T08:45:30Z</time>
      </trkpt>
      <trkpt lat="42.2856420" lon="-6.5353590">
        <ele>860.7</ele>
        <time>2014-10-01T08:45:31Z</time>
      </trkpt>
      <trkpt lat="42.2856040" lon="-6.5354650">
        <ele>860.4</ele>
        <time>2014-10-01T08:45:32Z</time>
      </trkpt>
      <trkpt lat="42.2855720" lon="-6.5355800">
        <ele>860.2</ele>
        <time>2014-10-01T08:45:33Z</time>
      </trkpt>
      <trkpt lat="42.2855430" lon="-6.5356930">
        <ele>860.3</ele>
        <time>2014-10-01T08:45:34Z</time>
      </trkpt>
      <trkpt lat="42.2855260" lon="-6.5358080">
        <ele>860.6</ele>
        <time>2014-10-01T08:45:35Z</time>
      </trkpt>
      <trkpt lat="42.2855190" lon="-6.5359230">
        <ele>861.3</ele>
        <time>2014-10-01T08:45:36Z</time>
      </trkpt>
      <trkpt lat="42.2855100" lon="-6.5360240">
        <ele>862.0</ele>
        <time>2014-10-01T08:45:37Z</time>
      </trkpt>
      <trkpt lat="42.2855060" lon="-6.5361120">
        <ele>862.7</ele>
        <time>2014-10-01T08:45:38Z</time>
      </trkpt>
      <trkpt lat="42.2855030" lon="-6.5361890">
        <ele>863.2</ele>
        <time>2014-10-01T08:45:39Z</time>
      </trkpt>
      <trkpt lat="42.2855010" lon="-6.5362610">
        <ele>863.7</ele>
        <time>2014-10-01T08:45:40Z</time>
      </trkpt>
      <trkpt lat="42.2854970" lon="-6.5363300">
        <ele>864.1</ele>
        <time>2014-10-01T08:45:41Z</time>
      </trkpt>
      <trkpt lat="42.2854880" lon="-6.5364060">
        <ele>864.5</ele>
        <time>2014-10-01T08:45:42Z</time>
      </trkpt>
      <trkpt lat="42.2854780" lon="-6.5364730">
        <ele>864.7</ele>
        <time>2014-10-01T08:45:43Z</time>
      </trkpt>
      <trkpt lat="42.2854610" lon="-6.5365290">
        <ele>865.0</ele>
        <time>2014-10-01T08:45:44Z</time>
      </trkpt>
      <trkpt lat="42.2854450" lon="-6.5365820">
        <ele>865.2</ele>
        <time>2014-10-01T08:45:45Z</time>
      </trkpt>
      <trkpt lat="42.2854270" lon="-6.5366360">
        <ele>865.3</ele>
        <time>2014-10-01T08:45:46Z</time>
      </trkpt>
      <trkpt lat="42.2854070" lon="-6.5366800">
        <ele>865.4</ele>
        <time>2014-10-01T08:45:47Z</time>
      </trkpt>
      <trkpt lat="42.2853840" lon="-6.5367320">
        <ele>865.5</ele>
        <time>2014-10-01T08:45:48Z</time>
      </trkpt>
      <trkpt lat="42.2853610" lon="-6.5367830">
        <ele>865.5</ele>
        <time>2014-10-01T08:45:49Z</time>
      </trkpt>
      <trkpt lat="42.2853370" lon="-6.5368350">
        <ele>865.6</ele>
        <time>2014-10-01T08:45:50Z</time>
      </trkpt>
      <trkpt lat="42.2853080" lon="-6.5368930">
        <ele>865.6</ele>
        <time>2014-10-01T08:45:51Z</time>
      </trkpt>
      <trkpt lat="42.2852760" lon="-6.5369550">
        <ele>865.6</ele>
        <time>2014-10-01T08:45:52Z</time>
      </trkpt>
      <trkpt lat="42.2852380" lon="-6.5370160">
        <ele>865.7</ele>
        <time>2014-10-01T08:45:53Z</time>
      </trkpt>
      <trkpt lat="42.2851940" lon="-6.5370840">
        <ele>865.7</ele>
        <time>2014-10-01T08:45:54Z</time>
      </trkpt>
      <trkpt lat="42.2851490" lon="-6.5371440">
        <ele>865.8</ele>
        <time>2014-10-01T08:45:55Z</time>
      </trkpt>
      <trkpt lat="42.2851010" lon="-6.5372050">
        <ele>865.7</ele>
        <time>2014-10-01T08:45:56Z</time>
      </trkpt>
      <trkpt lat="42.2850540" lon="-6.5372610">
        <ele>865.7</ele>
        <time>2014-10-01T08:45:57Z</time>
      </trkpt>
      <trkpt lat="42.2850070" lon="-6.5373120">
        <ele>865.6</ele>
        <time>2014-10-01T08:45:58Z</time>
      </trkpt>
      <trkpt lat="42.2849620" lon="-6.5373590">
        <ele>865.5</ele>
        <time>2014-10-01T08:45:59Z</time>
      </trkpt>
      <trkpt lat="42.2849160" lon="-6.5374070">
        <ele>865.5</ele>
        <time>2014-10-01T08:46:00Z</time>
      </trkpt>
      <trkpt lat="42.2848710" lon="-6.5374590">
        <ele>865.5</ele>
        <time>2014-10-01T08:46:01Z</time>
      </trkpt>
      <trkpt lat="42.2848250" lon="-6.5375170">
        <ele>865.4</ele>
        <time>2014-10-01T08:46:02Z</time>
      </trkpt>
      <trkpt lat="42.2847830" lon="-6.5375680">
        <ele>865.3</ele>
        <time>2014-10-01T08:46:03Z</time>
      </trkpt>
      <trkpt lat="42.2847450" lon="-6.5376340">
        <ele>865.2</ele>
        <time>2014-10-01T08:46:04Z</time>
      </trkpt>
      <trkpt lat="42.2847040" lon="-6.5377050">
        <ele>865.1</ele>
        <time>2014-10-01T08:46:05Z</time>
      </trkpt>
      <trkpt lat="42.2846660" lon="-6.5377770">
        <ele>864.8</ele>
        <time>2014-10-01T08:46:06Z</time>
      </trkpt>
      <trkpt lat="42.2846270" lon="-6.5378500">
        <ele>864.5</ele>
        <time>2014-10-01T08:46:07Z</time>
      </trkpt>
      <trkpt lat="42.2845840" lon="-6.5379390">
        <ele>864.3</ele>
        <time>2014-10-01T08:46:08Z</time>
      </trkpt>
      <trkpt lat="42.2845410" lon="-6.5380260">
        <ele>864.0</ele>
        <time>2014-10-01T08:46:09Z</time>
      </trkpt>
      <trkpt lat="42.2844970" lon="-6.5381220">
        <ele>863.8</ele>
        <time>2014-10-01T08:46:10Z</time>
      </trkpt>
      <trkpt lat="42.2844520" lon="-6.5382170">
        <ele>863.5</ele>
        <time>2014-10-01T08:46:11Z</time>
      </trkpt>
      <trkpt lat="42.2844070" lon="-6.5383210">
        <ele>863.3</ele>
        <time>2014-10-01T08:46:12Z</time>
      </trkpt>
      <trkpt lat="42.2843620" lon="-6.5384240">
        <ele>863.1</ele>
        <time>2014-10-01T08:46:13Z</time>
      </trkpt>
      <trkpt lat="42.2843210" lon="-6.5385250">
        <ele>862.9</ele>
        <time>2014-10-01T08:46:14Z</time>
      </trkpt>
      <trkpt lat="42.2842810" lon="-6.5386240">
        <ele>862.6</ele>
        <time>2014-10-01T08:46:15Z</time>
      </trkpt>
      <trkpt lat="42.2842460" lon="-6.5387200">
        <ele>862.4</ele>
        <time>2014-10-01T08:46:16Z</time>
      </trkpt>
      <trkpt lat="42.2842050" lon="-6.5388240">
        <ele>862.2</ele>
        <time>2014-10-01T08:46:17Z</time>
      </trkpt>
      <trkpt lat="42.2841660" lon="-6.5389200">
        <ele>861.9</ele>
        <time>2014-10-01T08:46:18Z</time>
      </trkpt>
      <trkpt lat="42.2841240" lon="-6.5390250">
        <ele>861.6</ele>
        <time>2014-10-01T08:46:19Z</time>
      </trkpt>
      <trkpt lat="42.2840780" lon="-6.5391300">
        <ele>861.4</ele>
        <time>2014-10-01T08:46:20Z</time>
      </trkpt>
      <trkpt lat="42.2840320" lon="-6.5392340">
        <ele>861.4</ele>
        <time>2014-10-01T08:46:21Z</time>
      </trkpt>
      <trkpt lat="42.2839850" lon="-6.5393440">
        <ele>861.4</ele>
        <time>2014-10-01T08:46:22Z</time>
      </trkpt>
      <trkpt lat="42.2839450" lon="-6.5394350">
        <ele>861.5</ele>
        <time>2014-10-01T08:46:23Z</time>
      </trkpt>
      <trkpt lat="42.2839050" lon="-6.5395330">
        <ele>861.7</ele>
        <time>2014-10-01T08:46:24Z</time>
      </trkpt>
      <trkpt lat="42.2838710" lon="-6.5396380">
        <ele>861.9</ele>
        <time>2014-10-01T08:46:25Z</time>
      </trkpt>
      <trkpt lat="42.2838350" lon="-6.5397510">
        <ele>862.2</ele>
        <time>2014-10-01T08:46:26Z</time>
      </trkpt>
      <trkpt lat="42.2838040" lon="-6.5398470">
        <ele>862.4</ele>
        <time>2014-10-01T08:46:27Z</time>
      </trkpt>
      <trkpt lat="42.2837680" lon="-6.5399550">
        <ele>862.6</ele>
        <time>2014-10-01T08:46:28Z</time>
      </trkpt>
      <trkpt lat="42.2837270" lon="-6.5400630">
        <ele>862.7</ele>
        <time>2014-10-01T08:46:29Z</time>
      </trkpt>
      <trkpt lat="42.2836880" lon="-6.5401590">
        <ele>862.8</ele>
        <time>2014-10-01T08:46:30Z</time>
      </trkpt>
      <trkpt lat="42.2836560" lon="-6.5402470">
        <ele>863.0</ele>
        <time>2014-10-01T08:46:31Z</time>
      </trkpt>
      <trkpt lat="42.2836200" lon="-6.5403430">
        <ele>863.2</ele>
        <time>2014-10-01T08:46:32Z</time>
      </trkpt>
      <trkpt lat="42.2835820" lon="-6.5404370">
        <ele>863.5</ele>
        <time>2014-10-01T08:46:33Z</time>
      </trkpt>
      <trkpt lat="42.2835520" lon="-6.5405180">
        <ele>863.7</ele>
        <time>2014-10-01T08:46:34Z</time>
      </trkpt>
      <trkpt lat="42.2835220" lon="-6.5406000">
        <ele>863.7</ele>
        <time>2014-10-01T08:46:35Z</time>
      </trkpt>
      <trkpt lat="42.2835060" lon="-6.5406850">
        <ele>863.8</ele>
        <time>2014-10-01T08:46:36Z</time>
      </trkpt>
      <trkpt lat="42.2834850" lon="-6.5407720">
        <ele>863.8</ele>
        <time>2014-10-01T08:46:37Z</time>
      </trkpt>
      <trkpt lat="42.2834570" lon="-6.5408560">
        <ele>863.8</ele>
        <time>2014-10-01T08:46:38Z</time>
      </trkpt>
      <trkpt lat="42.2834210" lon="-6.5409560">
        <ele>863.8</ele>
        <time>2014-10-01T08:46:39Z</time>
      </trkpt>
      <trkpt lat="42.2833840" lon="-6.5410410">
        <ele>863.8</ele>
        <time>2014-10-01T08:46:40Z</time>
      </trkpt>
      <trkpt lat="42.2833460" lon="-6.5411140">
        <ele>863.6</ele>
        <time>2014-10-01T08:46:41Z</time>
      </trkpt>
      <trkpt lat="42.2832990" lon="-6.5411860">
        <ele>863.4</ele>
        <time>2014-10-01T08:46:42Z</time>
      </trkpt>
      <trkpt lat="42.2832470" lon="-6.5412610">
        <ele>863.0</ele>
        <time>2014-10-01T08:46:43Z</time>
      </trkpt>
      <trkpt lat="42.2831940" lon="-6.5413310">
        <ele>862.7</ele>
        <time>2014-10-01T08:46:44Z</time>
      </trkpt>
      <trkpt lat="42.2831430" lon="-6.5414200">
        <ele>862.3</ele>
        <time>2014-10-01T08:46:45Z</time>
      </trkpt>
      <trkpt lat="42.2830950" lon="-6.5415100">
        <ele>861.9</ele>
        <time>2014-10-01T08:46:46Z</time>
      </trkpt>
      <trkpt lat="42.2830520" lon="-6.5416120">
        <ele>861.5</ele>
        <time>2014-10-01T08:46:47Z</time>
      </trkpt>
      <trkpt lat="42.2830130" lon="-6.5417240">
        <ele>861.1</ele>
        <time>2014-10-01T08:46:48Z</time>
      </trkpt>
      <trkpt lat="42.2829800" lon="-6.5418380">
        <ele>860.8</ele>
        <time>2014-10-01T08:46:49Z</time>
      </trkpt>
      <trkpt lat="42.2829520" lon="-6.5419490">
        <ele>860.4</ele>
        <time>2014-10-01T08:46:50Z</time>
      </trkpt>
      <trkpt lat="42.2829240" lon="-6.5420720">
        <ele>859.8</ele>
        <time>2014-10-01T08:46:51Z</time>
      </trkpt>
      <trkpt lat="42.2828990" lon="-6.5421980">
        <ele>859.2</ele>
        <time>2014-10-01T08:46:52Z</time>
      </trkpt>
      <trkpt lat="42.2828750" lon="-6.5423300">
        <ele>858.6</ele>
        <time>2014-10-01T08:46:53Z</time>
      </trkpt>
      <trkpt lat="42.2828500" lon="-6.5424500">
        <ele>858.1</ele>
        <time>2014-10-01T08:46:54Z</time>
      </trkpt>
      <trkpt lat="42.2828260" lon="-6.5425690">
        <ele>857.6</ele>
        <time>2014-10-01T08:46:55Z</time>
      </trkpt>
      <trkpt lat="42.2827810" lon="-6.5426720">
        <ele>857.1</ele>
        <time>2014-10-01T08:46:56Z</time>
      </trkpt>
      <trkpt lat="42.2827350" lon="-6.5427670">
        <ele>856.7</ele>
        <time>2014-10-01T08:46:57Z</time>
      </trkpt>
      <trkpt lat="42.2827100" lon="-6.5428640">
        <ele>856.3</ele>
        <time>2014-10-01T08:46:58Z</time>
      </trkpt>
      <trkpt lat="42.2827140" lon="-6.5429530">
        <ele>855.9</ele>
        <time>2014-10-01T08:46:59Z</time>
      </trkpt>
      <trkpt lat="42.2827490" lon="-6.5430250">
        <ele>855.7</ele>
        <time>2014-10-01T08:47:00Z</time>
      </trkpt>
      <trkpt lat="42.2828100" lon="-6.5430800">
        <ele>855.5</ele>
        <time>2014-10-01T08:47:01Z</time>
      </trkpt>
      <trkpt lat="42.2828730" lon="-6.5431300">
        <ele>855.3</ele>
        <time>2014-10-01T08:47:02Z</time>
      </trkpt>
      <trkpt lat="42.2829480" lon="-6.5431780">
        <ele>855.2</ele>
        <time>2014-10-01T08:47:03Z</time>
      </trkpt>
      <trkpt lat="42.2830180" lon="-6.5432240">
        <ele>855.2</ele>
        <time>2014-10-01T08:47:04Z</time>
      </trkpt>
      <trkpt lat="42.2830850" lon="-6.5432800">
        <ele>855.1</ele>
        <time>2014-10-01T08:47:05Z</time>
      </trkpt>
      <trkpt lat="42.2831350" lon="-6.5433580">
        <ele>855.1</ele>
        <time>2014-10-01T08:47:06Z</time>
      </trkpt>
      <trkpt lat="42.2831550" lon="-6.5434510">
        <ele>855.6</ele>
        <time>2014-10-01T08:47:07Z</time>
      </trkpt>
      <trkpt lat="42.2831450" lon="-6.5435580">
        <ele>855.7</ele>
        <time>2014-10-01T08:47:08Z</time>
      </trkpt>
      <trkpt lat="42.2831070" lon="-6.5436440">
        <ele>855.7</ele>
        <time>2014-10-01T08:47:09Z</time>
      </trkpt>
      <trkpt lat="42.2830670" lon="-6.5437270">
        <ele>855.6</ele>
        <time>2014-10-01T08:47:10Z</time>
      </trkpt>
      <trkpt lat="42.2830230" lon="-6.5438290">
        <ele>855.5</ele>
        <time>2014-10-01T08:47:11Z</time>
      </trkpt>
      <trkpt lat="42.2829770" lon="-6.5439410">
        <ele>855.6</ele>
        <time>2014-10-01T08:47:12Z</time>
      </trkpt>
      <trkpt lat="42.2829320" lon="-6.5440420">
        <ele>855.9</ele>
        <time>2014-10-01T08:47:13Z</time>
      </trkpt>
      <trkpt lat="42.2828860" lon="-6.5441430">
        <ele>856.5</ele>
        <time>2014-10-01T08:47:14Z</time>
      </trkpt>
      <trkpt lat="42.2828500" lon="-6.5442210">
        <ele>857.1</ele>
        <time>2014-10-01T08:47:15Z</time>
      </trkpt>
      <trkpt lat="42.2828150" lon="-6.5442950">
        <ele>857.6</ele>
        <time>2014-10-01T08:47:16Z</time>
      </trkpt>
      <trkpt lat="42.2827830" lon="-6.5443650">
        <ele>858.0</ele>
        <time>2014-10-01T08:47:17Z</time>
      </trkpt>
      <trkpt lat="42.2827490" lon="-6.5444380">
        <ele>858.4</ele>
        <time>2014-10-01T08:47:18Z</time>
      </trkpt>
      <trkpt lat="42.2827230" lon="-6.5444970">
        <ele>858.8</ele>
        <time>2014-10-01T08:47:19Z</time>
      </trkpt>
      <trkpt lat="42.2826980" lon="-6.5445560">
        <ele>859.1</ele>
        <time>2014-10-01T08:47:20Z</time>
      </trkpt>
      <trkpt lat="42.2826710" lon="-6.5446160">
        <ele>859.4</ele>
        <time>2014-10-01T08:47:21Z</time>
      </trkpt>
      <trkpt lat="42.2826410" lon="-6.5446820">
        <ele>859.7</ele>
        <time>2014-10-01T08:47:22Z</time>
      </trkpt>
      <trkpt lat="42.2826150" lon="-6.5447360">
        <ele>860.0</ele>
        <time>2014-10-01T08:47:23Z</time>
      </trkpt>
      <trkpt lat="42.2825900" lon="-6.5447860">
        <ele>860.3</ele>
        <time>2014-10-01T08:47:24Z</time>
      </trkpt>
      <trkpt lat="42.2825680" lon="-6.5448280">
        <ele>860.5</ele>
        <time>2014-10-01T08:47:25Z</time>
      </trkpt>
      <trkpt lat="42.2825420" lon="-6.5448760">
        <ele>860.7</ele>
        <time>2014-10-01T08:47:26Z</time>
      </trkpt>
      <trkpt lat="42.2825120" lon="-6.5449300">
        <ele>860.9</ele>
        <time>2014-10-01T08:47:27Z</time>
      </trkpt>
      <trkpt lat="42.2824790" lon="-6.5449860">
        <ele>861.1</ele>
        <time>2014-10-01T08:47:28Z</time>
      </trkpt>
      <trkpt lat="42.2824440" lon="-6.5450420">
        <ele>861.1</ele>
        <time>2014-10-01T08:47:29Z</time>
      </trkpt>
      <trkpt lat="42.2824080" lon="-6.5450990">
        <ele>861.2</ele>
        <time>2014-10-01T08:47:30Z</time>
      </trkpt>
      <trkpt lat="42.2823710" lon="-6.5451590">
        <ele>861.2</ele>
        <time>2014-10-01T08:47:31Z</time>
      </trkpt>
      <trkpt lat="42.2823300" lon="-6.5452320">
        <ele>861.2</ele>
        <time>2014-10-01T08:47:32Z</time>
      </trkpt>
      <trkpt lat="42.2822830" lon="-6.5453080">
        <ele>861.3</ele>
        <time>2014-10-01T08:47:33Z</time>
      </trkpt>
      <trkpt lat="42.2822370" lon="-6.5453790">
        <ele>861.4</ele>
        <time>2014-10-01T08:47:34Z</time>
      </trkpt>
      <trkpt lat="42.2821880" lon="-6.5454510">
        <ele>861.5</ele>
        <time>2014-10-01T08:47:35Z</time>
      </trkpt>
      <trkpt lat="42.2821410" lon="-6.5455140">
        <ele>861.6</ele>
        <time>2014-10-01T08:47:36Z</time>
      </trkpt>
      <trkpt lat="42.2820930" lon="-6.5455750">
        <ele>861.8</ele>
        <time>2014-10-01T08:47:37Z</time>
      </trkpt>
      <trkpt lat="42.2820430" lon="-6.5456420">
        <ele>861.9</ele>
        <time>2014-10-01T08:47:38Z</time>
      </trkpt>
      <trkpt lat="42.2819890" lon="-6.5457090">
        <ele>862.1</ele>
        <time>2014-10-01T08:47:39Z</time>
      </trkpt>
      <trkpt lat="42.2819400" lon="-6.5457700">
        <ele>862.3</ele>
        <time>2014-10-01T08:47:40Z</time>
      </trkpt>
      <trkpt lat="42.2818930" lon="-6.5458290">
        <ele>862.4</ele>
        <time>2014-10-01T08:47:41Z</time>
      </trkpt>
      <trkpt lat="42.2818500" lon="-6.5458820">
        <ele>862.6</ele>
        <time>2014-10-01T08:47:42Z</time>
      </trkpt>
      <trkpt lat="42.2818060" lon="-6.5459340">
        <ele>862.9</ele>
        <time>2014-10-01T08:47:43Z</time>
      </trkpt>
      <trkpt lat="42.2817620" lon="-6.5459900">
        <ele>863.1</ele>
        <time>2014-10-01T08:47:44Z</time>
      </trkpt>
      <trkpt lat="42.2817220" lon="-6.5460430">
        <ele>863.3</ele>
        <time>2014-10-01T08:47:45Z</time>
      </trkpt>
      <trkpt lat="42.2816850" lon="-6.5460960">
        <ele>863.5</ele>
        <time>2014-10-01T08:47:46Z</time>
      </trkpt>
      <trkpt lat="42.2816520" lon="-6.5461460">
        <ele>863.7</ele>
        <time>2014-10-01T08:47:47Z</time>
      </trkpt>
      <trkpt lat="42.2816180" lon="-6.5462030">
        <ele>863.9</ele>
        <time>2014-10-01T08:47:48Z</time>
      </trkpt>
      <trkpt lat="42.2815860" lon="-6.5462570">
        <ele>864.0</ele>
        <time>2014-10-01T08:47:49Z</time>
      </trkpt>
      <trkpt lat="42.2815500" lon="-6.5463190">
        <ele>864.2</ele>
        <time>2014-10-01T08:47:50Z</time>
      </trkpt>
      <trkpt lat="42.2815170" lon="-6.5463760">
        <ele>864.4</ele>
        <time>2014-10-01T08:47:51Z</time>
      </trkpt>
      <trkpt lat="42.2814790" lon="-6.5464420">
        <ele>864.6</ele>
        <time>2014-10-01T08:47:52Z</time>
      </trkpt>
      <trkpt lat="42.2814410" lon="-6.5465080">
        <ele>864.9</ele>
        <time>2014-10-01T08:47:53Z</time>
      </trkpt>
      <trkpt lat="42.2814010" lon="-6.5465750">
        <ele>865.1</ele>
        <time>2014-10-01T08:47:54Z</time>
      </trkpt>
      <trkpt lat="42.2813610" lon="-6.5466390">
        <ele>865.4</ele>
        <time>2014-10-01T08:47:55Z</time>
      </trkpt>
      <trkpt lat="42.2813200" lon="-6.5467030">
        <ele>865.7</ele>
        <time>2014-10-01T08:47:56Z</time>
      </trkpt>
      <trkpt lat="42.2812780" lon="-6.5467720">
        <ele>866.1</ele>
        <time>2014-10-01T08:47:57Z</time>
      </trkpt>
      <trkpt lat="42.2812370" lon="-6.5468410">
        <ele>866.5</ele>
        <time>2014-10-01T08:47:58Z</time>
      </trkpt>
      <trkpt lat="42.2811970" lon="-6.5469150">
        <ele>866.9</ele>
        <time>2014-10-01T08:47:59Z</time>
      </trkpt>
      <trkpt lat="42.2811610" lon="-6.5469870">
        <ele>867.3</ele>
        <time>2014-10-01T08:48:00Z</time>
      </trkpt>
      <trkpt lat="42.2811290" lon="-6.5470590">
        <ele>867.5</ele>
        <time>2014-10-01T08:48:01Z</time>
      </trkpt>
      <trkpt lat="42.2811020" lon="-6.5471490">
        <ele>867.8</ele>
        <time>2014-10-01T08:48:02Z</time>
      </trkpt>
      <trkpt lat="42.2810810" lon="-6.5472310">
        <ele>868.0</ele>
        <time>2014-10-01T08:48:03Z</time>
      </trkpt>
      <trkpt lat="42.2810590" lon="-6.5473190">
        <ele>868.2</ele>
        <time>2014-10-01T08:48:04Z</time>
      </trkpt>
      <trkpt lat="42.2810450" lon="-6.5473960">
        <ele>868.4</ele>
        <time>2014-10-01T08:48:05Z</time>
      </trkpt>
      <trkpt lat="42.2810290" lon="-6.5474820">
        <ele>868.7</ele>
        <time>2014-10-01T08:48:06Z</time>
      </trkpt>
      <trkpt lat="42.2810180" lon="-6.5475740">
        <ele>868.9</ele>
        <time>2014-10-01T08:48:07Z</time>
      </trkpt>
      <trkpt lat="42.2810010" lon="-6.5476530">
        <ele>869.2</ele>
        <time>2014-10-01T08:48:08Z</time>
      </trkpt>
      <trkpt lat="42.2809870" lon="-6.5477370">
        <ele>869.6</ele>
        <time>2014-10-01T08:48:09Z</time>
      </trkpt>
      <trkpt lat="42.2809660" lon="-6.5478170">
        <ele>870.1</ele>
        <time>2014-10-01T08:48:10Z</time>
      </trkpt>
      <trkpt lat="42.2809510" lon="-6.5478850">
        <ele>870.5</ele>
        <time>2014-10-01T08:48:11Z</time>
      </trkpt>
      <trkpt lat="42.2809340" lon="-6.5479570">
        <ele>870.9</ele>
        <time>2014-10-01T08:48:12Z</time>
      </trkpt>
      <trkpt lat="42.2809180" lon="-6.5480210">
        <ele>871.2</ele>
        <time>2014-10-01T08:48:13Z</time>
      </trkpt>
      <trkpt lat="42.2809040" lon="-6.5480820">
        <ele>871.5</ele>
        <time>2014-10-01T08:48:14Z</time>
      </trkpt>
      <trkpt lat="42.2808920" lon="-6.5481370">
        <ele>871.8</ele>
        <time>2014-10-01T08:48:15Z</time>
      </trkpt>
      <trkpt lat="42.2808780" lon="-6.5481910">
        <ele>872.1</ele>
        <time>2014-10-01T08:48:16Z</time>
      </trkpt>
      <trkpt lat="42.2808610" lon="-6.5482440">
        <ele>872.4</ele>
        <time>2014-10-01T08:48:17Z</time>
      </trkpt>
      <trkpt lat="42.2808490" lon="-6.5482910">
        <ele>872.7</ele>
        <time>2014-10-01T08:48:18Z</time>
      </trkpt>
      <trkpt lat="42.2808390" lon="-6.5483410">
        <ele>872.9</ele>
        <time>2014-10-01T08:48:19Z</time>
      </trkpt>
      <trkpt lat="42.2808300" lon="-6.5483930">
        <ele>873.1</ele>
        <time>2014-10-01T08:48:20Z</time>
      </trkpt>
      <trkpt lat="42.2808200" lon="-6.5484420">
        <ele>873.3</ele>
        <time>2014-10-01T08:48:21Z</time>
      </trkpt>
      <trkpt lat="42.2808090" lon="-6.5484920">
        <ele>873.4</ele>
        <time>2014-10-01T08:48:22Z</time>
      </trkpt>
      <trkpt lat="42.2807950" lon="-6.5485510">
        <ele>873.6</ele>
        <time>2014-10-01T08:48:23Z</time>
      </trkpt>
      <trkpt lat="42.2807830" lon="-6.5486010">
        <ele>873.7</ele>
        <time>2014-10-01T08:48:24Z</time>
      </trkpt>
      <trkpt lat="42.2807670" lon="-6.5486550">
        <ele>873.8</ele>
        <time>2014-10-01T08:48:25Z</time>
      </trkpt>
      <trkpt lat="42.2807380" lon="-6.5487060">
        <ele>874.0</ele>
        <time>2014-10-01T08:48:26Z</time>
      </trkpt>
      <trkpt lat="42.2807000" lon="-6.5487660">
        <ele>874.1</ele>
        <time>2014-10-01T08:48:27Z</time>
      </trkpt>
      <trkpt lat="42.2806650" lon="-6.5488230">
        <ele>874.3</ele>
        <time>2014-10-01T08:48:28Z</time>
      </trkpt>
      <trkpt lat="42.2806260" lon="-6.5488820">
        <ele>874.4</ele>
        <time>2014-10-01T08:48:29Z</time>
      </trkpt>
      <trkpt lat="42.2805920" lon="-6.5489440">
        <ele>874.5</ele>
        <time>2014-10-01T08:48:30Z</time>
      </trkpt>
      <trkpt lat="42.2805640" lon="-6.5489990">
        <ele>874.6</ele>
        <time>2014-10-01T08:48:31Z</time>
      </trkpt>
      <trkpt lat="42.2805260" lon="-6.5490590">
        <ele>874.7</ele>
        <time>2014-10-01T08:48:32Z</time>
      </trkpt>
      <trkpt lat="42.2804900" lon="-6.5491170">
        <ele>874.9</ele>
        <time>2014-10-01T08:48:33Z</time>
      </trkpt>
      <trkpt lat="42.2804550" lon="-6.5491740">
        <ele>875.0</ele>
        <time>2014-10-01T08:48:34Z</time>
      </trkpt>
      <trkpt lat="42.2804190" lon="-6.5492340">
        <ele>875.1</ele>
        <time>2014-10-01T08:48:35Z</time>
      </trkpt>
      <trkpt lat="42.2803790" lon="-6.5493000">
        <ele>875.2</ele>
        <time>2014-10-01T08:48:36Z</time>
      </trkpt>
      <trkpt lat="42.2803160" lon="-6.5493550">
        <ele>875.4</ele>
        <time>2014-10-01T08:48:37Z</time>
      </trkpt>
      <trkpt lat="42.2802610" lon="-6.5494120">
        <ele>875.6</ele>
        <time>2014-10-01T08:48:38Z</time>
      </trkpt>
      <trkpt lat="42.2802070" lon="-6.5494670">
        <ele>875.8</ele>
        <time>2014-10-01T08:48:39Z</time>
      </trkpt>
      <trkpt lat="42.2801540" lon="-6.5495160">
        <ele>876.0</ele>
        <time>2014-10-01T08:48:40Z</time>
      </trkpt>
      <trkpt lat="42.2801030" lon="-6.5495590">
        <ele>876.3</ele>
        <time>2014-10-01T08:48:41Z</time>
      </trkpt>
      <trkpt lat="42.2800490" lon="-6.5496070">
        <ele>876.5</ele>
        <time>2014-10-01T08:48:42Z</time>
      </trkpt>
      <trkpt lat="42.2799960" lon="-6.5496550">
        <ele>876.8</ele>
        <time>2014-10-01T08:48:43Z</time>
      </trkpt>
      <trkpt lat="42.2799340" lon="-6.5497090">
        <ele>877.0</ele>
        <time>2014-10-01T08:48:44Z</time>
      </trkpt>
      <trkpt lat="42.2798750" lon="-6.5497610">
        <ele>877.2</ele>
        <time>2014-10-01T08:48:45Z</time>
      </trkpt>
      <trkpt lat="42.2798190" lon="-6.5498080">
        <ele>877.3</ele>
        <time>2014-10-01T08:48:46Z</time>
      </trkpt>
      <trkpt lat="42.2797690" lon="-6.5498510">
        <ele>877.5</ele>
        <time>2014-10-01T08:48:47Z</time>
      </trkpt>
      <trkpt lat="42.2797130" lon="-6.5499010">
        <ele>877.6</ele>
        <time>2014-10-01T08:48:48Z</time>
      </trkpt>
      <trkpt lat="42.2796620" lon="-6.5499430">
        <ele>877.7</ele>
        <time>2014-10-01T08:48:49Z</time>
      </trkpt>
      <trkpt lat="42.2796110" lon="-6.5499840">
        <ele>877.9</ele>
        <time>2014-10-01T08:48:50Z</time>
      </trkpt>
      <trkpt lat="42.2795620" lon="-6.5500260">
        <ele>877.9</ele>
        <time>2014-10-01T08:48:51Z</time>
      </trkpt>
      <trkpt lat="42.2795190" lon="-6.5500660">
        <ele>878.0</ele>
        <time>2014-10-01T08:48:52Z</time>
      </trkpt>
      <trkpt lat="42.2794740" lon="-6.5501050">
        <ele>878.0</ele>
        <time>2014-10-01T08:48:53Z</time>
      </trkpt>
      <trkpt lat="42.2794270" lon="-6.5501480">
        <ele>878.1</ele>
        <time>2014-10-01T08:48:54Z</time>
      </trkpt>
      <trkpt lat="42.2793790" lon="-6.5501940">
        <ele>878.2</ele>
        <time>2014-10-01T08:48:55Z</time>
      </trkpt>
      <trkpt lat="42.2793190" lon="-6.5502510">
        <ele>878.3</ele>
        <time>2014-10-01T08:48:56Z</time>
      </trkpt>
      <trkpt lat="42.2792750" lon="-6.5502910">
        <ele>878.5</ele>
        <time>2014-10-01T08:48:57Z</time>
      </trkpt>
      <trkpt lat="42.2792300" lon="-6.5503310">
        <ele>878.6</ele>
        <time>2014-10-01T08:48:58Z</time>
      </trkpt>
      <trkpt lat="42.2791850" lon="-6.5503680">
        <ele>878.8</ele>
        <time>2014-10-01T08:48:59Z</time>
      </trkpt>
      <trkpt lat="42.2791300" lon="-6.5504140">
        <ele>879.1</ele>
        <time>2014-10-01T08:49:00Z</time>
      </trkpt>
      <trkpt lat="42.2790790" lon="-6.5504550">
        <ele>879.1</ele>
        <time>2014-10-01T08:49:01Z</time>
      </trkpt>
      <trkpt lat="42.2790280" lon="-6.5504950">
        <ele>878.8</ele>
        <time>2014-10-01T08:49:02Z</time>
      </trkpt>
      <trkpt lat="42.2789770" lon="-6.5505380">
        <ele>878.5</ele>
        <time>2014-10-01T08:49:03Z</time>
      </trkpt>
      <trkpt lat="42.2789250" lon="-6.5505840">
        <ele>878.2</ele>
        <time>2014-10-01T08:49:04Z</time>
      </trkpt>
      <trkpt lat="42.2788680" lon="-6.5506390">
        <ele>877.9</ele>
        <time>2014-10-01T08:49:05Z</time>
      </trkpt>
      <trkpt lat="42.2788110" lon="-6.5506950">
        <ele>877.6</ele>
        <time>2014-10-01T08:49:06Z</time>
      </trkpt>
      <trkpt lat="42.2787530" lon="-6.5507520">
        <ele>877.3</ele>
        <time>2014-10-01T08:49:07Z</time>
      </trkpt>
      <trkpt lat="42.2786970" lon="-6.5508030">
        <ele>877.1</ele>
        <time>2014-10-01T08:49:08Z</time>
      </trkpt>
      <trkpt lat="42.2786430" lon="-6.5508530">
        <ele>876.7</ele>
        <time>2014-10-01T08:49:09Z</time>
      </trkpt>
      <trkpt lat="42.2785860" lon="-6.5509040">
        <ele>876.4</ele>
        <time>2014-10-01T08:49:10Z</time>
      </trkpt>
      <trkpt lat="42.2785300" lon="-6.5509600">
        <ele>876.1</ele>
        <time>2014-10-01T08:49:11Z</time>
      </trkpt>
      <trkpt lat="42.2784770" lon="-6.5510170">
        <ele>875.8</ele>
        <time>2014-10-01T08:49:12Z</time>
      </trkpt>
      <trkpt lat="42.2784190" lon="-6.5510820">
        <ele>875.4</ele>
        <time>2014-10-01T08:49:13Z</time>
      </trkpt>
      <trkpt lat="42.2783650" lon="-6.5511610">
        <ele>874.8</ele>
        <time>2014-10-01T08:49:14Z</time>
      </trkpt>
      <trkpt lat="42.2782970" lon="-6.5512320">
        <ele>874.2</ele>
        <time>2014-10-01T08:49:15Z</time>
      </trkpt>
      <trkpt lat="42.2782250" lon="-6.5512990">
        <ele>873.5</ele>
        <time>2014-10-01T08:49:16Z</time>
      </trkpt>
      <trkpt lat="42.2781490" lon="-6.5513600">
        <ele>872.8</ele>
        <time>2014-10-01T08:49:17Z</time>
      </trkpt>
      <trkpt lat="42.2780650" lon="-6.5514280">
        <ele>872.2</ele>
        <time>2014-10-01T08:49:18Z</time>
      </trkpt>
      <trkpt lat="42.2779920" lon="-6.5514800">
        <ele>871.8</ele>
        <time>2014-10-01T08:49:19Z</time>
      </trkpt>
      <trkpt lat="42.2779210" lon="-6.5515300">
        <ele>871.6</ele>
        <time>2014-10-01T08:49:20Z</time>
      </trkpt>
      <trkpt lat="42.2778480" lon="-6.5515780">
        <ele>871.3</ele>
        <time>2014-10-01T08:49:21Z</time>
      </trkpt>
      <trkpt lat="42.2777790" lon="-6.5516290">
        <ele>871.1</ele>
        <time>2014-10-01T08:49:22Z</time>
      </trkpt>
      <trkpt lat="42.2777240" lon="-6.5517050">
        <ele>871.0</ele>
        <time>2014-10-01T08:49:23Z</time>
      </trkpt>
      <trkpt lat="42.2776700" lon="-6.5517840">
        <ele>870.8</ele>
        <time>2014-10-01T08:49:24Z</time>
      </trkpt>
      <trkpt lat="42.2776190" lon="-6.5518670">
        <ele>870.6</ele>
        <time>2014-10-01T08:49:25Z</time>
      </trkpt>
      <trkpt lat="42.2775710" lon="-6.5519460">
        <ele>870.4</ele>
        <time>2014-10-01T08:49:26Z</time>
      </trkpt>
      <trkpt lat="42.2775250" lon="-6.5520280">
        <ele>870.3</ele>
        <time>2014-10-01T08:49:27Z</time>
      </trkpt>
      <trkpt lat="42.2774790" lon="-6.5521140">
        <ele>870.2</ele>
        <time>2014-10-01T08:49:28Z</time>
      </trkpt>
      <trkpt lat="42.2774340" lon="-6.5522000">
        <ele>870.1</ele>
        <time>2014-10-01T08:49:29Z</time>
      </trkpt>
      <trkpt lat="42.2773910" lon="-6.5522900">
        <ele>869.9</ele>
        <time>2014-10-01T08:49:30Z</time>
      </trkpt>
      <trkpt lat="42.2773470" lon="-6.5523800">
        <ele>869.6</ele>
        <time>2014-10-01T08:49:31Z</time>
      </trkpt>
      <trkpt lat="42.2773020" lon="-6.5524770">
        <ele>869.3</ele>
        <time>2014-10-01T08:49:32Z</time>
      </trkpt>
      <trkpt lat="42.2772570" lon="-6.5525720">
        <ele>869.0</ele>
        <time>2014-10-01T08:49:33Z</time>
      </trkpt>
      <trkpt lat="42.2772160" lon="-6.5526590">
        <ele>868.8</ele>
        <time>2014-10-01T08:49:34Z</time>
      </trkpt>
      <trkpt lat="42.2771730" lon="-6.5527520">
        <ele>868.6</ele>
        <time>2014-10-01T08:49:35Z</time>
      </trkpt>
      <trkpt lat="42.2771300" lon="-6.5528420">
        <ele>868.6</ele>
        <time>2014-10-01T08:49:36Z</time>
      </trkpt>
      <trkpt lat="42.2770890" lon="-6.5529330">
        <ele>868.6</ele>
        <time>2014-10-01T08:49:37Z</time>
      </trkpt>
      <trkpt lat="42.2770480" lon="-6.5530230">
        <ele>868.7</ele>
        <time>2014-10-01T08:49:38Z</time>
      </trkpt>
      <trkpt lat="42.2770070" lon="-6.5531110">
        <ele>868.6</ele>
        <time>2014-10-01T08:49:39Z</time>
      </trkpt>
      <trkpt lat="42.2769700" lon="-6.5531970">
        <ele>868.4</ele>
        <time>2014-10-01T08:49:40Z</time>
      </trkpt>
      <trkpt lat="42.2769370" lon="-6.5532800">
        <ele>868.4</ele>
        <time>2014-10-01T08:49:41Z</time>
      </trkpt>
      <trkpt lat="42.2769060" lon="-6.5533610">
        <ele>868.6</ele>
        <time>2014-10-01T08:49:42Z</time>
      </trkpt>
      <trkpt lat="42.2768700" lon="-6.5534570">
        <ele>868.9</ele>
        <time>2014-10-01T08:49:43Z</time>
      </trkpt>
      <trkpt lat="42.2768340" lon="-6.5535380">
        <ele>869.4</ele>
        <time>2014-10-01T08:49:44Z</time>
      </trkpt>
      <trkpt lat="42.2768050" lon="-6.5536200">
        <ele>869.8</ele>
        <time>2014-10-01T08:49:45Z</time>
      </trkpt>
      <trkpt lat="42.2767920" lon="-6.5536910">
        <ele>870.1</ele>
        <time>2014-10-01T08:49:46Z</time>
      </trkpt>
      <trkpt lat="42.2767980" lon="-6.5537390">
        <ele>870.5</ele>
        <time>2014-10-01T08:49:47Z</time>
      </trkpt>
      <trkpt lat="42.2768110" lon="-6.5537940">
        <ele>870.5</ele>
        <time>2014-10-01T08:49:48Z</time>
      </trkpt>
      <trkpt lat="42.2768240" lon="-6.5538390">
        <ele>870.5</ele>
        <time>2014-10-01T08:49:49Z</time>
      </trkpt>
      <trkpt lat="42.2768430" lon="-6.5538810">
        <ele>870.5</ele>
        <time>2014-10-01T08:49:50Z</time>
      </trkpt>
      <trkpt lat="42.2768630" lon="-6.5539280">
        <ele>870.6</ele>
        <time>2014-10-01T08:49:51Z</time>
      </trkpt>
      <trkpt lat="42.2768880" lon="-6.5539810">
        <ele>870.6</ele>
        <time>2014-10-01T08:49:52Z</time>
      </trkpt>
      <trkpt lat="42.2769150" lon="-6.5540400">
        <ele>870.7</ele>
        <time>2014-10-01T08:49:53Z</time>
      </trkpt>
      <trkpt lat="42.2769360" lon="-6.5541080">
        <ele>870.8</ele>
        <time>2014-10-01T08:49:54Z</time>
      </trkpt>
      <trkpt lat="42.2769540" lon="-6.5541810">
        <ele>871.0</ele>
        <time>2014-10-01T08:49:55Z</time>
      </trkpt>
      <trkpt lat="42.2769670" lon="-6.5542500">
        <ele>871.1</ele>
        <time>2014-10-01T08:49:56Z</time>
      </trkpt>
      <trkpt lat="42.2769820" lon="-6.5543180">
        <ele>871.3</ele>
        <time>2014-10-01T08:49:57Z</time>
      </trkpt>
      <trkpt lat="42.2769970" lon="-6.5543880">
        <ele>871.5</ele>
        <time>2014-10-01T08:49:58Z</time>
      </trkpt>
      <trkpt lat="42.2770090" lon="-6.5544580">
        <ele>871.7</ele>
        <time>2014-10-01T08:49:59Z</time>
      </trkpt>
      <trkpt lat="42.2770240" lon="-6.5545300">
        <ele>871.9</ele>
        <time>2014-10-01T08:50:00Z</time>
      </trkpt>
      <trkpt lat="42.2770410" lon="-6.5545960">
        <ele>872.1</ele>
        <time>2014-10-01T08:50:01Z</time>
      </trkpt>
      <trkpt lat="42.2770560" lon="-6.5546580">
        <ele>872.3</ele>
        <time>2014-10-01T08:50:02Z</time>
      </trkpt>
      <trkpt lat="42.2770740" lon="-6.5547320">
        <ele>872.6</ele>
        <time>2014-10-01T08:50:03Z</time>
      </trkpt>
      <trkpt lat="42.2770930" lon="-6.5547950">
        <ele>872.8</ele>
        <time>2014-10-01T08:50:04Z</time>
      </trkpt>
      <trkpt lat="42.2771130" lon="-6.5548570">
        <ele>873.0</ele>
        <time>2014-10-01T08:50:05Z</time>
      </trkpt>
      <trkpt lat="42.2771320" lon="-6.5549210">
        <ele>873.3</ele>
        <time>2014-10-01T08:50:06Z</time>
      </trkpt>
      <trkpt lat="42.2771510" lon="-6.5549930">
        <ele>873.5</ele>
        <time>2014-10-01T08:50:07Z</time>
      </trkpt>
      <trkpt lat="42.2771700" lon="-6.5550590">
        <ele>873.8</ele>
        <time>2014-10-01T08:50:08Z</time>
      </trkpt>
      <trkpt lat="42.2771900" lon="-6.5551260">
        <ele>874.0</ele>
        <time>2014-10-01T08:50:09Z</time>
      </trkpt>
      <trkpt lat="42.2772090" lon="-6.5551870">
        <ele>874.2</ele>
        <time>2014-10-01T08:50:10Z</time>
      </trkpt>
      <trkpt lat="42.2772300" lon="-6.5552460">
        <ele>874.4</ele>
        <time>2014-10-01T08:50:11Z</time>
      </trkpt>
      <trkpt lat="42.2772550" lon="-6.5553000">
        <ele>874.6</ele>
        <time>2014-10-01T08:50:12Z</time>
      </trkpt>
      <trkpt lat="42.2772770" lon="-6.5553450">
        <ele>874.8</ele>
        <time>2014-10-01T08:50:13Z</time>
      </trkpt>
      <trkpt lat="42.2773000" lon="-6.5553990">
        <ele>875.0</ele>
        <time>2014-10-01T08:50:14Z</time>
      </trkpt>
      <trkpt lat="42.2773200" lon="-6.5554570">
        <ele>875.3</ele>
        <time>2014-10-01T08:50:15Z</time>
      </trkpt>
      <trkpt lat="42.2773400" lon="-6.5555130">
        <ele>875.5</ele>
        <time>2014-10-01T08:50:16Z</time>
      </trkpt>
      <trkpt lat="42.2773580" lon="-6.5555640">
        <ele>875.8</ele>
        <time>2014-10-01T08:50:17Z</time>
      </trkpt>
      <trkpt lat="42.2773790" lon="-6.5556160">
        <ele>876.1</ele>
        <time>2014-10-01T08:50:18Z</time>
      </trkpt>
      <trkpt lat="42.2774030" lon="-6.5556770">
        <ele>876.4</ele>
        <time>2014-10-01T08:50:19Z</time>
      </trkpt>
      <trkpt lat="42.2774310" lon="-6.5557410">
        <ele>876.7</ele>
        <time>2014-10-01T08:50:20Z</time>
      </trkpt>
      <trkpt lat="42.2774520" lon="-6.5558030">
        <ele>877.1</ele>
        <time>2014-10-01T08:50:21Z</time>
      </trkpt>
      <trkpt lat="42.2774680" lon="-6.5558600">
        <ele>877.4</ele>
        <time>2014-10-01T08:50:22Z</time>
      </trkpt>
      <trkpt lat="42.2774830" lon="-6.5559220">
        <ele>877.7</ele>
        <time>2014-10-01T08:50:23Z</time>
      </trkpt>
      <trkpt lat="42.2774870" lon="-6.5559850">
        <ele>878.0</ele>
        <time>2014-10-01T08:50:24Z</time>
      </trkpt>
      <trkpt lat="42.2774890" lon="-6.5560430">
        <ele>878.3</ele>
        <time>2014-10-01T08:50:25Z</time>
      </trkpt>
      <trkpt lat="42.2774910" lon="-6.5561120">
        <ele>878.4</ele>
        <time>2014-10-01T08:50:26Z</time>
      </trkpt>
      <trkpt lat="42.2774900" lon="-6.5561780">
        <ele>878.4</ele>
        <time>2014-10-01T08:50:27Z</time>
      </trkpt>
      <trkpt lat="42.2774810" lon="-6.5562410">
        <ele>878.4</ele>
        <time>2014-10-01T08:50:28Z</time>
      </trkpt>
      <trkpt lat="42.2774720" lon="-6.5562950">
        <ele>878.4</ele>
        <time>2014-10-01T08:50:29Z</time>
      </trkpt>
      <trkpt lat="42.2774620" lon="-6.5563490">
        <ele>878.5</ele>
        <time>2014-10-01T08:50:30Z</time>
      </trkpt>
      <trkpt lat="42.2774490" lon="-6.5564040">
        <ele>878.5</ele>
        <time>2014-10-01T08:50:31Z</time>
      </trkpt>
      <trkpt lat="42.2774350" lon="-6.5564540">
        <ele>878.6</ele>
        <time>2014-10-01T08:50:32Z</time>
      </trkpt>
      <trkpt lat="42.2774220" lon="-6.5564980">
        <ele>878.6</ele>
        <time>2014-10-01T08:50:33Z</time>
      </trkpt>
      <trkpt lat="42.2774030" lon="-6.5565450">
        <ele>878.7</ele>
        <time>2014-10-01T08:50:34Z</time>
      </trkpt>
      <trkpt lat="42.2773800" lon="-6.5566050">
        <ele>878.8</ele>
        <time>2014-10-01T08:50:35Z</time>
      </trkpt>
      <trkpt lat="42.2773560" lon="-6.5566680">
        <ele>878.8</ele>
        <time>2014-10-01T08:50:36Z</time>
      </trkpt>
      <trkpt lat="42.2773340" lon="-6.5567340">
        <ele>878.9</ele>
        <time>2014-10-01T08:50:37Z</time>
      </trkpt>
      <trkpt lat="42.2773240" lon="-6.5567890">
        <ele>879.0</ele>
        <time>2014-10-01T08:50:38Z</time>
      </trkpt>
      <trkpt lat="42.2773120" lon="-6.5568500">
        <ele>879.1</ele>
        <time>2014-10-01T08:50:39Z</time>
      </trkpt>
      <trkpt lat="42.2773050" lon="-6.5569020">
        <ele>879.1</ele>
        <time>2014-10-01T08:50:40Z</time>
      </trkpt>
      <trkpt lat="42.2772990" lon="-6.5569690">
        <ele>879.2</ele>
        <time>2014-10-01T08:50:41Z</time>
      </trkpt>
      <trkpt lat="42.2772910" lon="-6.5570430">
        <ele>879.2</ele>
        <time>2014-10-01T08:50:42Z</time>
      </trkpt>
      <trkpt lat="42.2772830" lon="-6.5571210">
        <ele>879.3</ele>
        <time>2014-10-01T08:50:43Z</time>
      </trkpt>
      <trkpt lat="42.2772730" lon="-6.5571890">
        <ele>879.3</ele>
        <time>2014-10-01T08:50:44Z</time>
      </trkpt>
      <trkpt lat="42.2772660" lon="-6.5572590">
        <ele>879.4</ele>
        <time>2014-10-01T08:50:45Z</time>
      </trkpt>
      <trkpt lat="42.2772600" lon="-6.5573310">
        <ele>879.5</ele>
        <time>2014-10-01T08:50:46Z</time>
      </trkpt>
      <trkpt lat="42.2772600" lon="-6.5574090">
        <ele>879.6</ele>
        <time>2014-10-01T08:50:47Z</time>
      </trkpt>
      <trkpt lat="42.2772700" lon="-6.5574840">
        <ele>879.7</ele>
        <time>2014-10-01T08:50:48Z</time>
      </trkpt>
      <trkpt lat="42.2772850" lon="-6.5575580">
        <ele>879.8</ele>
        <time>2014-10-01T08:50:49Z</time>
      </trkpt>
      <trkpt lat="42.2772990" lon="-6.5576270">
        <ele>880.0</ele>
        <time>2014-10-01T08:50:50Z</time>
      </trkpt>
      <trkpt lat="42.2773150" lon="-6.5577010">
        <ele>880.2</ele>
        <time>2014-10-01T08:50:51Z</time>
      </trkpt>
      <trkpt lat="42.2773200" lon="-6.5577950">
        <ele>880.4</ele>
        <time>2014-10-01T08:50:52Z</time>
      </trkpt>
      <trkpt lat="42.2773260" lon="-6.5578860">
        <ele>880.6</ele>
        <time>2014-10-01T08:50:53Z</time>
      </trkpt>
      <trkpt lat="42.2773340" lon="-6.5579780">
        <ele>881.0</ele>
        <time>2014-10-01T08:50:54Z</time>
      </trkpt>
      <trkpt lat="42.2773300" lon="-6.5580600">
        <ele>881.4</ele>
        <time>2014-10-01T08:50:55Z</time>
      </trkpt>
      <trkpt lat="42.2773230" lon="-6.5581430">
        <ele>881.8</ele>
        <time>2014-10-01T08:50:56Z</time>
      </trkpt>
      <trkpt lat="42.2773270" lon="-6.5582220">
        <ele>882.3</ele>
        <time>2014-10-01T08:50:57Z</time>
      </trkpt>
      <trkpt lat="42.2773360" lon="-6.5582980">
        <ele>882.7</ele>
        <time>2014-10-01T08:50:58Z</time>
      </trkpt>
      <trkpt lat="42.2773380" lon="-6.5583800">
        <ele>883.3</ele>
        <time>2014-10-01T08:50:59Z</time>
      </trkpt>
      <trkpt lat="42.2773430" lon="-6.5584670">
        <ele>883.8</ele>
        <time>2014-10-01T08:51:00Z</time>
      </trkpt>
      <trkpt lat="42.2773500" lon="-6.5585480">
        <ele>884.1</ele>
        <time>2014-10-01T08:51:01Z</time>
      </trkpt>
      <trkpt lat="42.2773600" lon="-6.5586250">
        <ele>884.4</ele>
        <time>2014-10-01T08:51:02Z</time>
      </trkpt>
      <trkpt lat="42.2773790" lon="-6.5586910">
        <ele>884.6</ele>
        <time>2014-10-01T08:51:03Z</time>
      </trkpt>
      <trkpt lat="42.2774010" lon="-6.5587670">
        <ele>884.9</ele>
        <time>2014-10-01T08:51:04Z</time>
      </trkpt>
      <trkpt lat="42.2774210" lon="-6.5588300">
        <ele>885.1</ele>
        <time>2014-10-01T08:51:05Z</time>
      </trkpt>
      <trkpt lat="42.2774410" lon="-6.5588920">
        <ele>885.4</ele>
        <time>2014-10-01T08:51:06Z</time>
      </trkpt>
      <trkpt lat="42.2774560" lon="-6.5589440">
        <ele>885.6</ele>
        <time>2014-10-01T08:51:07Z</time>
      </trkpt>
      <trkpt lat="42.2774730" lon="-6.5589950">
        <ele>885.7</ele>
        <time>2014-10-01T08:51:08Z</time>
      </trkpt>
      <trkpt lat="42.2774930" lon="-6.5590460">
        <ele>885.9</ele>
        <time>2014-10-01T08:51:09Z</time>
      </trkpt>
      <trkpt lat="42.2775160" lon="-6.5591030">
        <ele>886.2</ele>
        <time>2014-10-01T08:51:10Z</time>
      </trkpt>
      <trkpt lat="42.2775380" lon="-6.5591570">
        <ele>886.4</ele>
        <time>2014-10-01T08:51:11Z</time>
      </trkpt>
      <trkpt lat="42.2775610" lon="-6.5592100">
        <ele>886.6</ele>
        <time>2014-10-01T08:51:12Z</time>
      </trkpt>
      <trkpt lat="42.2775850" lon="-6.5592660">
        <ele>886.9</ele>
        <time>2014-10-01T08:51:13Z</time>
      </trkpt>
      <trkpt lat="42.2776080" lon="-6.5593150">
        <ele>887.1</ele>
        <time>2014-10-01T08:51:14Z</time>
      </trkpt>
      <trkpt lat="42.2776340" lon="-6.5593770">
        <ele>887.4</ele>
        <time>2014-10-01T08:51:15Z</time>
      </trkpt>
      <trkpt lat="42.2776560" lon="-6.5594320">
        <ele>887.6</ele>
        <time>2014-10-01T08:51:16Z</time>
      </trkpt>
      <trkpt lat="42.2776740" lon="-6.5594850">
        <ele>887.8</ele>
        <time>2014-10-01T08:51:17Z</time>
      </trkpt>
      <trkpt lat="42.2776900" lon="-6.5595380">
        <ele>888.0</ele>
        <time>2014-10-01T08:51:18Z</time>
      </trkpt>
      <trkpt lat="42.2777080" lon="-6.5595930">
        <ele>888.2</ele>
        <time>2014-10-01T08:51:19Z</time>
      </trkpt>
      <trkpt lat="42.2777260" lon="-6.5596500">
        <ele>888.4</ele>
        <time>2014-10-01T08:51:20Z</time>
      </trkpt>
      <trkpt lat="42.2777390" lon="-6.5597000">
        <ele>888.6</ele>
        <time>2014-10-01T08:51:21Z</time>
      </trkpt>
      <trkpt lat="42.2777420" lon="-6.5597550">
        <ele>888.8</ele>
        <time>2014-10-01T08:51:22Z</time>
      </trkpt>
      <trkpt lat="42.2777440" lon="-6.5598070">
        <ele>888.9</ele>
        <time>2014-10-01T08:51:23Z</time>
      </trkpt>
      <trkpt lat="42.2777450" lon="-6.5598570">
        <ele>889.1</ele>
        <time>2014-10-01T08:51:24Z</time>
      </trkpt>
      <trkpt lat="42.2777420" lon="-6.5599150">
        <ele>889.2</ele>
        <time>2014-10-01T08:51:25Z</time>
      </trkpt>
      <trkpt lat="42.2777380" lon="-6.5599810">
        <ele>889.3</ele>
        <time>2014-10-01T08:51:26Z</time>
      </trkpt>
      <trkpt lat="42.2777340" lon="-6.5600350">
        <ele>889.4</ele>
        <time>2014-10-01T08:51:27Z</time>
      </trkpt>
      <trkpt lat="42.2777290" lon="-6.5600950">
        <ele>889.4</ele>
        <time>2014-10-01T08:51:28Z</time>
      </trkpt>
      <trkpt lat="42.2777240" lon="-6.5601620">
        <ele>889.3</ele>
        <time>2014-10-01T08:51:29Z</time>
      </trkpt>
      <trkpt lat="42.2777150" lon="-6.5602340">
        <ele>889.2</ele>
        <time>2014-10-01T08:51:30Z</time>
      </trkpt>
      <trkpt lat="42.2777060" lon="-6.5603040">
        <ele>889.0</ele>
        <time>2014-10-01T08:51:31Z</time>
      </trkpt>
      <trkpt lat="42.2776940" lon="-6.5603680">
        <ele>888.9</ele>
        <time>2014-10-01T08:51:32Z</time>
      </trkpt>
      <trkpt lat="42.2776830" lon="-6.5604360">
        <ele>888.8</ele>
        <time>2014-10-01T08:51:33Z</time>
      </trkpt>
      <trkpt lat="42.2776700" lon="-6.5605120">
        <ele>888.7</ele>
        <time>2014-10-01T08:51:34Z</time>
      </trkpt>
      <trkpt lat="42.2776520" lon="-6.5605940">
        <ele>888.6</ele>
        <time>2014-10-01T08:51:35Z</time>
      </trkpt>
      <trkpt lat="42.2776320" lon="-6.5606750">
        <ele>888.4</ele>
        <time>2014-10-01T08:51:36Z</time>
      </trkpt>
      <trkpt lat="42.2776140" lon="-6.5607540">
        <ele>888.3</ele>
        <time>2014-10-01T08:51:37Z</time>
      </trkpt>
      <trkpt lat="42.2775960" lon="-6.5608430">
        <ele>888.2</ele>
        <time>2014-10-01T08:51:38Z</time>
      </trkpt>
      <trkpt lat="42.2775780" lon="-6.5609290">
        <ele>888.2</ele>
        <time>2014-10-01T08:51:39Z</time>
      </trkpt>
      <trkpt lat="42.2775600" lon="-6.5610160">
        <ele>888.3</ele>
        <time>2014-10-01T08:51:40Z</time>
      </trkpt>
      <trkpt lat="42.2775410" lon="-6.5611080">
        <ele>888.3</ele>
        <time>2014-10-01T08:51:41Z</time>
      </trkpt>
      <trkpt lat="42.2775270" lon="-6.5611910">
        <ele>888.3</ele>
        <time>2014-10-01T08:51:42Z</time>
      </trkpt>
      <trkpt lat="42.2775130" lon="-6.5612760">
        <ele>888.3</ele>
        <time>2014-10-01T08:51:43Z</time>
      </trkpt>
      <trkpt lat="42.2775000" lon="-6.5613680">
        <ele>888.3</ele>
        <time>2014-10-01T08:51:44Z</time>
      </trkpt>
      <trkpt lat="42.2774870" lon="-6.5614600">
        <ele>888.4</ele>
        <time>2014-10-01T08:51:45Z</time>
      </trkpt>
      <trkpt lat="42.2774770" lon="-6.5615520">
        <ele>888.4</ele>
        <time>2014-10-01T08:51:46Z</time>
      </trkpt>
      <trkpt lat="42.2774700" lon="-6.5616430">
        <ele>888.5</ele>
        <time>2014-10-01T08:51:47Z</time>
      </trkpt>
      <trkpt lat="42.2774630" lon="-6.5617420">
        <ele>888.5</ele>
        <time>2014-10-01T08:51:48Z</time>
      </trkpt>
      <trkpt lat="42.2774600" lon="-6.5618360">
        <ele>888.5</ele>
        <time>2014-10-01T08:51:49Z</time>
      </trkpt>
      <trkpt lat="42.2774570" lon="-6.5619330">
        <ele>888.3</ele>
        <time>2014-10-01T08:51:50Z</time>
      </trkpt>
      <trkpt lat="42.2774570" lon="-6.5620290">
        <ele>888.1</ele>
        <time>2014-10-01T08:51:51Z</time>
      </trkpt>
      <trkpt lat="42.2774580" lon="-6.5621260">
        <ele>888.0</ele>
        <time>2014-10-01T08:51:52Z</time>
      </trkpt>
      <trkpt lat="42.2774580" lon="-6.5622300">
        <ele>888.0</ele>
        <time>2014-10-01T08:51:53Z</time>
      </trkpt>
      <trkpt lat="42.2774600" lon="-6.5623240">
        <ele>887.9</ele>
        <time>2014-10-01T08:51:54Z</time>
      </trkpt>
      <trkpt lat="42.2774630" lon="-6.5624220">
        <ele>887.8</ele>
        <time>2014-10-01T08:51:55Z</time>
      </trkpt>
      <trkpt lat="42.2774630" lon="-6.5625210">
        <ele>887.8</ele>
        <time>2014-10-01T08:51:56Z</time>
      </trkpt>
      <trkpt lat="42.2774650" lon="-6.5626140">
        <ele>887.8</ele>
        <time>2014-10-01T08:51:57Z</time>
      </trkpt>
      <trkpt lat="42.2774650" lon="-6.5627040">
        <ele>887.8</ele>
        <time>2014-10-01T08:51:58Z</time>
      </trkpt>
      <trkpt lat="42.2774650" lon="-6.5627920">
        <ele>887.8</ele>
        <time>2014-10-01T08:51:59Z</time>
      </trkpt>
      <trkpt lat="42.2774640" lon="-6.5628810">
        <ele>887.8</ele>
        <time>2014-10-01T08:52:00Z</time>
      </trkpt>
      <trkpt lat="42.2774640" lon="-6.5629730">
        <ele>887.8</ele>
        <time>2014-10-01T08:52:01Z</time>
      </trkpt>
      <trkpt lat="42.2774640" lon="-6.5630650">
        <ele>887.8</ele>
        <time>2014-10-01T08:52:02Z</time>
      </trkpt>
      <trkpt lat="42.2774650" lon="-6.5631540">
        <ele>887.8</ele>
        <time>2014-10-01T08:52:03Z</time>
      </trkpt>
      <trkpt lat="42.2774650" lon="-6.5632460">
        <ele>887.8</ele>
        <time>2014-10-01T08:52:04Z</time>
      </trkpt>
      <trkpt lat="42.2774660" lon="-6.5633410">
        <ele>887.7</ele>
        <time>2014-10-01T08:52:05Z</time>
      </trkpt>
      <trkpt lat="42.2774660" lon="-6.5634360">
        <ele>887.6</ele>
        <time>2014-10-01T08:52:06Z</time>
      </trkpt>
      <trkpt lat="42.2774670" lon="-6.5635290">
        <ele>887.4</ele>
        <time>2014-10-01T08:52:07Z</time>
      </trkpt>
      <trkpt lat="42.2774600" lon="-6.5636230">
        <ele>887.2</ele>
        <time>2014-10-01T08:52:08Z</time>
      </trkpt>
      <trkpt lat="42.2774540" lon="-6.5637140">
        <ele>887.1</ele>
        <time>2014-10-01T08:52:09Z</time>
      </trkpt>
      <trkpt lat="42.2774430" lon="-6.5638050">
        <ele>886.9</ele>
        <time>2014-10-01T08:52:10Z</time>
      </trkpt>
      <trkpt lat="42.2774270" lon="-6.5638980">
        <ele>886.8</ele>
        <time>2014-10-01T08:52:11Z</time>
      </trkpt>
      <trkpt lat="42.2774060" lon="-6.5639900">
        <ele>886.6</ele>
        <time>2014-10-01T08:52:12Z</time>
      </trkpt>
      <trkpt lat="42.2773820" lon="-6.5640790">
        <ele>886.5</ele>
        <time>2014-10-01T08:52:13Z</time>
      </trkpt>
      <trkpt lat="42.2773560" lon="-6.5641700">
        <ele>886.5</ele>
        <time>2014-10-01T08:52:14Z</time>
      </trkpt>
      <trkpt lat="42.2773270" lon="-6.5642590">
        <ele>886.4</ele>
        <time>2014-10-01T08:52:15Z</time>
      </trkpt>
      <trkpt lat="42.2772930" lon="-6.5643500">
        <ele>886.4</ele>
        <time>2014-10-01T08:52:16Z</time>
      </trkpt>
      <trkpt lat="42.2772550" lon="-6.5644420">
        <ele>886.4</ele>
        <time>2014-10-01T08:52:17Z</time>
      </trkpt>
      <trkpt lat="42.2772190" lon="-6.5645340">
        <ele>886.4</ele>
        <time>2014-10-01T08:52:18Z</time>
      </trkpt>
      <trkpt lat="42.2771890" lon="-6.5646210">
        <ele>886.5</ele>
        <time>2014-10-01T08:52:19Z</time>
      </trkpt>
      <trkpt lat="42.2771600" lon="-6.5647110">
        <ele>886.6</ele>
        <time>2014-10-01T08:52:20Z</time>
      </trkpt>
      <trkpt lat="42.2771340" lon="-6.5648090">
        <ele>886.7</ele>
        <time>2014-10-01T08:52:21Z</time>
      </trkpt>
      <trkpt lat="42.2771090" lon="-6.5649090">
        <ele>886.8</ele>
        <time>2014-10-01T08:52:22Z</time>
      </trkpt>
      <trkpt lat="42.2770860" lon="-6.5650090">
        <ele>886.9</ele>
        <time>2014-10-01T08:52:23Z</time>
      </trkpt>
      <trkpt lat="42.2770670" lon="-6.5651030">
        <ele>886.9</ele>
        <time>2014-10-01T08:52:24Z</time>
      </trkpt>
      <trkpt lat="42.2770530" lon="-6.5651910">
        <ele>886.8</ele>
        <time>2014-10-01T08:52:25Z</time>
      </trkpt>
      <trkpt lat="42.2770430" lon="-6.5652810">
        <ele>886.7</ele>
        <time>2014-10-01T08:52:26Z</time>
      </trkpt>
      <trkpt lat="42.2770320" lon="-6.5653700">
        <ele>886.8</ele>
        <time>2014-10-01T08:52:27Z</time>
      </trkpt>
      <trkpt lat="42.2770210" lon="-6.5654600">
        <ele>886.9</ele>
        <time>2014-10-01T08:52:28Z</time>
      </trkpt>
      <trkpt lat="42.2770110" lon="-6.5655470">
        <ele>887.2</ele>
        <time>2014-10-01T08:52:29Z</time>
      </trkpt>
      <trkpt lat="42.2770020" lon="-6.5656320">
        <ele>887.4</ele>
        <time>2014-10-01T08:52:30Z</time>
      </trkpt>
      <trkpt lat="42.2769930" lon="-6.5657200">
        <ele>887.6</ele>
        <time>2014-10-01T08:52:31Z</time>
      </trkpt>
      <trkpt lat="42.2769850" lon="-6.5658100">
        <ele>887.9</ele>
        <time>2014-10-01T08:52:32Z</time>
      </trkpt>
      <trkpt lat="42.2769760" lon="-6.5658940">
        <ele>888.2</ele>
        <time>2014-10-01T08:52:33Z</time>
      </trkpt>
      <trkpt lat="42.2769640" lon="-6.5659840">
        <ele>888.6</ele>
        <time>2014-10-01T08:52:34Z</time>
      </trkpt>
      <trkpt lat="42.2769510" lon="-6.5660710">
        <ele>889.0</ele>
        <time>2014-10-01T08:52:35Z</time>
      </trkpt>
      <trkpt lat="42.2769340" lon="-6.5661650">
        <ele>889.3</ele>
        <time>2014-10-01T08:52:36Z</time>
      </trkpt>
      <trkpt lat="42.2769170" lon="-6.5662530">
        <ele>889.6</ele>
        <time>2014-10-01T08:52:37Z</time>
      </trkpt>
      <trkpt lat="42.2769000" lon="-6.5663420">
        <ele>889.9</ele>
        <time>2014-10-01T08:52:38Z</time>
      </trkpt>
      <trkpt lat="42.2768830" lon="-6.5664320">
        <ele>890.2</ele>
        <time>2014-10-01T08:52:39Z</time>
      </trkpt>
      <trkpt lat="42.2768700" lon="-6.5665150">
        <ele>890.5</ele>
        <time>2014-10-01T08:52:40Z</time>
      </trkpt>
      <trkpt lat="42.2768590" lon="-6.5665910">
        <ele>890.8</ele>
        <time>2014-10-01T08:52:41Z</time>
      </trkpt>
      <trkpt lat="42.2768450" lon="-6.5666690">
        <ele>891.1</ele>
        <time>2014-10-01T08:52:42Z</time>
      </trkpt>
      <trkpt lat="42.2768320" lon="-6.5667390">
        <ele>891.4</ele>
        <time>2014-10-01T08:52:43Z</time>
      </trkpt>
      <trkpt lat="42.2768180" lon="-6.5668130">
        <ele>891.7</ele>
        <time>2014-10-01T08:52:44Z</time>
      </trkpt>
      <trkpt lat="42.2768080" lon="-6.5668790">
        <ele>892.0</ele>
        <time>2014-10-01T08:52:45Z</time>
      </trkpt>
      <trkpt lat="42.2768030" lon="-6.5669390">
        <ele>892.3</ele>
        <time>2014-10-01T08:52:46Z</time>
      </trkpt>
      <trkpt lat="42.2767960" lon="-6.5670000">
        <ele>892.6</ele>
        <time>2014-10-01T08:52:47Z</time>
      </trkpt>
      <trkpt lat="42.2767880" lon="-6.5670570">
        <ele>892.9</ele>
        <time>2014-10-01T08:52:48Z</time>
      </trkpt>
      <trkpt lat="42.2767740" lon="-6.5671120">
        <ele>893.3</ele>
        <time>2014-10-01T08:52:49Z</time>
      </trkpt>
      <trkpt lat="42.2767640" lon="-6.5671660">
        <ele>893.6</ele>
        <time>2014-10-01T08:52:50Z</time>
      </trkpt>
      <trkpt lat="42.2767500" lon="-6.5672290">
        <ele>894.1</ele>
        <time>2014-10-01T08:52:51Z</time>
      </trkpt>
      <trkpt lat="42.2767320" lon="-6.5672960">
        <ele>894.6</ele>
        <time>2014-10-01T08:52:52Z</time>
      </trkpt>
      <trkpt lat="42.2767240" lon="-6.5673420">
        <ele>894.9</ele>
        <time>2014-10-01T08:52:53Z</time>
      </trkpt>
      <trkpt lat="42.2767200" lon="-6.5673830">
        <ele>895.2</ele>
        <time>2014-10-01T08:52:54Z</time>
      </trkpt>
      <trkpt lat="42.2767140" lon="-6.5674330">
        <ele>895.5</ele>
        <time>2014-10-01T08:52:55Z</time>
      </trkpt>
      <trkpt lat="42.2767050" lon="-6.5674830">
        <ele>895.8</ele>
        <time>2014-10-01T08:52:56Z</time>
      </trkpt>
      <trkpt lat="42.2766970" lon="-6.5675290">
        <ele>896.1</ele>
        <time>2014-10-01T08:52:57Z</time>
      </trkpt>
      <trkpt lat="42.2766880" lon="-6.5675780">
        <ele>896.4</ele>
        <time>2014-10-01T08:52:58Z</time>
      </trkpt>
      <trkpt lat="42.2766780" lon="-6.5676330">
        <ele>896.7</ele>
        <time>2014-10-01T08:52:59Z</time>
      </trkpt>
      <trkpt lat="42.2766680" lon="-6.5676890">
        <ele>897.0</ele>
        <time>2014-10-01T08:53:00Z</time>
      </trkpt>
      <trkpt lat="42.2766600" lon="-6.5677400">
        <ele>897.4</ele>
        <time>2014-10-01T08:53:01Z</time>
      </trkpt>
      <trkpt lat="42.2766570" lon="-6.5677800">
        <ele>897.7</ele>
        <time>2014-10-01T08:53:02Z</time>
      </trkpt>
      <trkpt lat="42.2766480" lon="-6.5678280">
        <ele>898.1</ele>
        <time>2014-10-01T08:53:03Z</time>
      </trkpt>
      <trkpt lat="42.2766390" lon="-6.5678770">
        <ele>898.4</ele>
        <time>2014-10-01T08:53:04Z</time>
      </trkpt>
      <trkpt lat="42.2766240" lon="-6.5679260">
        <ele>898.8</ele>
        <time>2014-10-01T08:53:05Z</time>
      </trkpt>
      <trkpt lat="42.2766100" lon="-6.5679780">
        <ele>899.3</ele>
        <time>2014-10-01T08:53:06Z</time>
      </trkpt>
      <trkpt lat="42.2766050" lon="-6.5680160">
        <ele>899.5</ele>
        <time>2014-10-01T08:53:07Z</time>
      </trkpt>
      <trkpt lat="42.2766000" lon="-6.5680570">
        <ele>899.8</ele>
        <time>2014-10-01T08:53:08Z</time>
      </trkpt>
      <trkpt lat="42.2765910" lon="-6.5681060">
        <ele>900.2</ele>
        <time>2014-10-01T08:53:09Z</time>
      </trkpt>
      <trkpt lat="42.2765830" lon="-6.5681510">
        <ele>900.5</ele>
        <time>2014-10-01T08:53:10Z</time>
      </trkpt>
      <trkpt lat="42.2765770" lon="-6.5681910">
        <ele>900.8</ele>
        <time>2014-10-01T08:53:11Z</time>
      </trkpt>
      <trkpt lat="42.2765720" lon="-6.5682350">
        <ele>901.0</ele>
        <time>2014-10-01T08:53:12Z</time>
      </trkpt>
      <trkpt lat="42.2765620" lon="-6.5682830">
        <ele>901.3</ele>
        <time>2014-10-01T08:53:13Z</time>
      </trkpt>
      <trkpt lat="42.2765550" lon="-6.5683520">
        <ele>901.7</ele>
        <time>2014-10-01T08:53:15Z</time>
      </trkpt>
      <trkpt lat="42.2765480" lon="-6.5683970">
        <ele>901.9</ele>
        <time>2014-10-01T08:53:16Z</time>
      </trkpt>
      <trkpt lat="42.2765400" lon="-6.5684390">
        <ele>902.2</ele>
        <time>2014-10-01T08:53:17Z</time>
      </trkpt>
      <trkpt lat="42.2765330" lon="-6.5684760">
        <ele>902.4</ele>
        <time>2014-10-01T08:53:18Z</time>
      </trkpt>
      <trkpt lat="42.2765250" lon="-6.5685170">
        <ele>902.6</ele>
        <time>2014-10-01T08:53:19Z</time>
      </trkpt>
      <trkpt lat="42.2765160" lon="-6.5685560">
        <ele>902.8</ele>
        <time>2014-10-01T08:53:20Z</time>
      </trkpt>
      <trkpt lat="42.2765070" lon="-6.5686020">
        <ele>903.0</ele>
        <time>2014-10-01T08:53:21Z</time>
      </trkpt>
      <trkpt lat="42.2764980" lon="-6.5686410">
        <ele>903.2</ele>
        <time>2014-10-01T08:53:22Z</time>
      </trkpt>
      <trkpt lat="42.2764910" lon="-6.5686810">
        <ele>903.4</ele>
        <time>2014-10-01T08:53:23Z</time>
      </trkpt>
      <trkpt lat="42.2764810" lon="-6.5687160">
        <ele>903.6</ele>
        <time>2014-10-01T08:53:24Z</time>
      </trkpt>
      <trkpt lat="42.2764710" lon="-6.5687820">
        <ele>904.0</ele>
        <time>2014-10-01T08:53:26Z</time>
      </trkpt>
      <trkpt lat="42.2764570" lon="-6.5688210">
        <ele>904.3</ele>
        <time>2014-10-01T08:53:27Z</time>
      </trkpt>
      <trkpt lat="42.2764380" lon="-6.5688710">
        <ele>904.6</ele>
        <time>2014-10-01T08:53:28Z</time>
      </trkpt>
      <trkpt lat="42.2764250" lon="-6.5689200">
        <ele>904.9</ele>
        <time>2014-10-01T08:53:29Z</time>
      </trkpt>
      <trkpt lat="42.2764150" lon="-6.5689660">
        <ele>905.2</ele>
        <time>2014-10-01T08:53:30Z</time>
      </trkpt>
      <trkpt lat="42.2764020" lon="-6.5690150">
        <ele>905.5</ele>
        <time>2014-10-01T08:53:31Z</time>
      </trkpt>
      <trkpt lat="42.2763870" lon="-6.5690580">
        <ele>905.8</ele>
        <time>2014-10-01T08:53:32Z</time>
      </trkpt>
      <trkpt lat="42.2763720" lon="-6.5691080">
        <ele>906.1</ele>
        <time>2014-10-01T08:53:33Z</time>
      </trkpt>
      <trkpt lat="42.2763570" lon="-6.5691580">
        <ele>906.4</ele>
        <time>2014-10-01T08:53:34Z</time>
      </trkpt>
      <trkpt lat="42.2763380" lon="-6.5692080">
        <ele>906.7</ele>
        <time>2014-10-01T08:53:35Z</time>
      </trkpt>
      <trkpt lat="42.2763190" lon="-6.5692600">
        <ele>907.0</ele>
        <time>2014-10-01T08:53:36Z</time>
      </trkpt>
      <trkpt lat="42.2763000" lon="-6.5693120">
        <ele>907.4</ele>
        <time>2014-10-01T08:53:37Z</time>
      </trkpt>
      <trkpt lat="42.2762840" lon="-6.5693600">
        <ele>907.7</ele>
        <time>2014-10-01T08:53:38Z</time>
      </trkpt>
      <trkpt lat="42.2762710" lon="-6.5694180">
        <ele>908.1</ele>
        <time>2014-10-01T08:53:39Z</time>
      </trkpt>
      <trkpt lat="42.2762560" lon="-6.5694710">
        <ele>908.5</ele>
        <time>2014-10-01T08:53:40Z</time>
      </trkpt>
      <trkpt lat="42.2762400" lon="-6.5695280">
        <ele>909.0</ele>
        <time>2014-10-01T08:53:41Z</time>
      </trkpt>
      <trkpt lat="42.2762250" lon="-6.5695810">
        <ele>909.4</ele>
        <time>2014-10-01T08:53:42Z</time>
      </trkpt>
      <trkpt lat="42.2762150" lon="-6.5696370">
        <ele>909.8</ele>
        <time>2014-10-01T08:53:43Z</time>
      </trkpt>
      <trkpt lat="42.2762050" lon="-6.5696850">
        <ele>910.2</ele>
        <time>2014-10-01T08:53:44Z</time>
      </trkpt>
      <trkpt lat="42.2761910" lon="-6.5697280">
        <ele>910.5</ele>
        <time>2014-10-01T08:53:45Z</time>
      </trkpt>
      <trkpt lat="42.2761780" lon="-6.5697720">
        <ele>910.8</ele>
        <time>2014-10-01T08:53:46Z</time>
      </trkpt>
      <trkpt lat="42.2761650" lon="-6.5698190">
        <ele>911.1</ele>
        <time>2014-10-01T08:53:47Z</time>
      </trkpt>
      <trkpt lat="42.2761490" lon="-6.5698680">
        <ele>911.5</ele>
        <time>2014-10-01T08:53:48Z</time>
      </trkpt>
      <trkpt lat="42.2761330" lon="-6.5699110">
        <ele>911.8</ele>
        <time>2014-10-01T08:53:49Z</time>
      </trkpt>
      <trkpt lat="42.2761220" lon="-6.5699570">
        <ele>912.1</ele>
        <time>2014-10-01T08:53:50Z</time>
      </trkpt>
      <trkpt lat="42.2761120" lon="-6.5700090">
        <ele>912.4</ele>
        <time>2014-10-01T08:53:51Z</time>
      </trkpt>
      <trkpt lat="42.2761020" lon="-6.5700570">
        <ele>912.7</ele>
        <time>2014-10-01T08:53:52Z</time>
      </trkpt>
      <trkpt lat="42.2760910" lon="-6.5701070">
        <ele>913.0</ele>
        <time>2014-10-01T08:53:53Z</time>
      </trkpt>
      <trkpt lat="42.2760810" lon="-6.5701470">
        <ele>913.2</ele>
        <time>2014-10-01T08:53:54Z</time>
      </trkpt>
      <trkpt lat="42.2760720" lon="-6.5701880">
        <ele>913.5</ele>
        <time>2014-10-01T08:53:55Z</time>
      </trkpt>
      <trkpt lat="42.2760630" lon="-6.5702350">
        <ele>913.7</ele>
        <time>2014-10-01T08:53:56Z</time>
      </trkpt>
      <trkpt lat="42.2760450" lon="-6.5702770">
        <ele>914.0</ele>
        <time>2014-10-01T08:53:57Z</time>
      </trkpt>
      <trkpt lat="42.2760320" lon="-6.5703190">
        <ele>914.2</ele>
        <time>2014-10-01T08:53:58Z</time>
      </trkpt>
      <trkpt lat="42.2760190" lon="-6.5703560">
        <ele>914.4</ele>
        <time>2014-10-01T08:53:59Z</time>
      </trkpt>
      <trkpt lat="42.2760060" lon="-6.5704060">
        <ele>914.7</ele>
        <time>2014-10-01T08:54:00Z</time>
      </trkpt>
      <trkpt lat="42.2759920" lon="-6.5704600">
        <ele>915.0</ele>
        <time>2014-10-01T08:54:01Z</time>
      </trkpt>
      <trkpt lat="42.2759850" lon="-6.5705110">
        <ele>915.3</ele>
        <time>2014-10-01T08:54:02Z</time>
      </trkpt>
      <trkpt lat="42.2759760" lon="-6.5705650">
        <ele>915.7</ele>
        <time>2014-10-01T08:54:03Z</time>
      </trkpt>
      <trkpt lat="42.2759690" lon="-6.5706130">
        <ele>916.0</ele>
        <time>2014-10-01T08:54:04Z</time>
      </trkpt>
      <trkpt lat="42.2759600" lon="-6.5706610">
        <ele>916.3</ele>
        <time>2014-10-01T08:54:05Z</time>
      </trkpt>
      <trkpt lat="42.2759550" lon="-6.5707090">
        <ele>916.6</ele>
        <time>2014-10-01T08:54:06Z</time>
      </trkpt>
      <trkpt lat="42.2759510" lon="-6.5707560">
        <ele>916.9</ele>
        <time>2014-10-01T08:54:07Z</time>
      </trkpt>
      <trkpt lat="42.2759460" lon="-6.5708080">
        <ele>917.2</ele>
        <time>2014-10-01T08:54:08Z</time>
      </trkpt>
      <trkpt lat="42.2759410" lon="-6.5708610">
        <ele>917.6</ele>
        <time>2014-10-01T08:54:09Z</time>
      </trkpt>
      <trkpt lat="42.2759390" lon="-6.5709130">
        <ele>918.0</ele>
        <time>2014-10-01T08:54:10Z</time>
      </trkpt>
      <trkpt lat="42.2759400" lon="-6.5709710">
        <ele>918.4</ele>
        <time>2014-10-01T08:54:11Z</time>
      </trkpt>
      <trkpt lat="42.2759420" lon="-6.5710360">
        <ele>919.0</ele>
        <time>2014-10-01T08:54:12Z</time>
      </trkpt>
      <trkpt lat="42.2759470" lon="-6.5710890">
        <ele>919.4</ele>
        <time>2014-10-01T08:54:13Z</time>
      </trkpt>
      <trkpt lat="42.2759530" lon="-6.5711340">
        <ele>919.8</ele>
        <time>2014-10-01T08:54:14Z</time>
      </trkpt>
      <trkpt lat="42.2759610" lon="-6.5711840">
        <ele>920.2</ele>
        <time>2014-10-01T08:54:15Z</time>
      </trkpt>
      <trkpt lat="42.2759710" lon="-6.5712300">
        <ele>920.7</ele>
        <time>2014-10-01T08:54:16Z</time>
      </trkpt>
      <trkpt lat="42.2759820" lon="-6.5712750">
        <ele>921.1</ele>
        <time>2014-10-01T08:54:17Z</time>
      </trkpt>
      <trkpt lat="42.2759930" lon="-6.5713180">
        <ele>921.5</ele>
        <time>2014-10-01T08:54:18Z</time>
      </trkpt>
      <trkpt lat="42.2760010" lon="-6.5713630">
        <ele>921.9</ele>
        <time>2014-10-01T08:54:19Z</time>
      </trkpt>
      <trkpt lat="42.2760100" lon="-6.5714010">
        <ele>922.2</ele>
        <time>2014-10-01T08:54:20Z</time>
      </trkpt>
      <trkpt lat="42.2760190" lon="-6.5714390">
        <ele>922.5</ele>
        <time>2014-10-01T08:54:21Z</time>
      </trkpt>
      <trkpt lat="42.2760280" lon="-6.5714850">
        <ele>922.9</ele>
        <time>2014-10-01T08:54:22Z</time>
      </trkpt>
      <trkpt lat="42.2760380" lon="-6.5715380">
        <ele>923.4</ele>
        <time>2014-10-01T08:54:23Z</time>
      </trkpt>
      <trkpt lat="42.2760470" lon="-6.5715870">
        <ele>923.8</ele>
        <time>2014-10-01T08:54:24Z</time>
      </trkpt>
      <trkpt lat="42.2760510" lon="-6.5716300">
        <ele>924.2</ele>
        <time>2014-10-01T08:54:25Z</time>
      </trkpt>
      <trkpt lat="42.2760530" lon="-6.5716700">
        <ele>924.5</ele>
        <time>2014-10-01T08:54:26Z</time>
      </trkpt>
      <trkpt lat="42.2760460" lon="-6.5717140">
        <ele>924.9</ele>
        <time>2014-10-01T08:54:27Z</time>
      </trkpt>
      <trkpt lat="42.2760380" lon="-6.5717560">
        <ele>925.3</ele>
        <time>2014-10-01T08:54:28Z</time>
      </trkpt>
      <trkpt lat="42.2760270" lon="-6.5718050">
        <ele>925.2</ele>
        <time>2014-10-01T08:54:29Z</time>
      </trkpt>
      <trkpt lat="42.2760180" lon="-6.5718510">
        <ele>925.1</ele>
        <time>2014-10-01T08:54:30Z</time>
      </trkpt>
      <trkpt lat="42.2760080" lon="-6.5718970">
        <ele>925.1</ele>
        <time>2014-10-01T08:54:31Z</time>
      </trkpt>
      <trkpt lat="42.2759970" lon="-6.5719410">
        <ele>925.1</ele>
        <time>2014-10-01T08:54:32Z</time>
      </trkpt>
      <trkpt lat="42.2759850" lon="-6.5719890">
        <ele>925.1</ele>
        <time>2014-10-01T08:54:33Z</time>
      </trkpt>
      <trkpt lat="42.2759700" lon="-6.5720350">
        <ele>925.2</ele>
        <time>2014-10-01T08:54:34Z</time>
      </trkpt>
      <trkpt lat="42.2759580" lon="-6.5720730">
        <ele>925.4</ele>
        <time>2014-10-01T08:54:35Z</time>
      </trkpt>
      <trkpt lat="42.2759470" lon="-6.5721130">
        <ele>925.5</ele>
        <time>2014-10-01T08:54:36Z</time>
      </trkpt>
      <trkpt lat="42.2759430" lon="-6.5721630">
        <ele>925.7</ele>
        <time>2014-10-01T08:54:37Z</time>
      </trkpt>
      <trkpt lat="42.2759450" lon="-6.5722120">
        <ele>925.9</ele>
        <time>2014-10-01T08:54:38Z</time>
      </trkpt>
      <trkpt lat="42.2759550" lon="-6.5722450">
        <ele>926.1</ele>
        <time>2014-10-01T08:54:39Z</time>
      </trkpt>
      <trkpt lat="42.2759640" lon="-6.5722820">
        <ele>926.2</ele>
        <time>2014-10-01T08:54:40Z</time>
      </trkpt>
      <trkpt lat="42.2759750" lon="-6.5723210">
        <ele>926.4</ele>
        <time>2014-10-01T08:54:41Z</time>
      </trkpt>
      <trkpt lat="42.2759840" lon="-6.5723650">
        <ele>926.6</ele>
        <time>2014-10-01T08:54:42Z</time>
      </trkpt>
      <trkpt lat="42.2759900" lon="-6.5724120">
        <ele>926.8</ele>
        <time>2014-10-01T08:54:43Z</time>
      </trkpt>
      <trkpt lat="42.2759970" lon="-6.5724590">
        <ele>927.0</ele>
        <time>2014-10-01T08:54:44Z</time>
      </trkpt>
      <trkpt lat="42.2759970" lon="-6.5725060">
        <ele>927.3</ele>
        <time>2014-10-01T08:54:45Z</time>
      </trkpt>
      <trkpt lat="42.2759980" lon="-6.5725500">
        <ele>927.5</ele>
        <time>2014-10-01T08:54:46Z</time>
      </trkpt>
      <trkpt lat="42.2759990" lon="-6.5725990">
        <ele>927.7</ele>
        <time>2014-10-01T08:54:47Z</time>
      </trkpt>
      <trkpt lat="42.2759950" lon="-6.5726500">
        <ele>927.9</ele>
        <time>2014-10-01T08:54:48Z</time>
      </trkpt>
      <trkpt lat="42.2759920" lon="-6.5727050">
        <ele>928.2</ele>
        <time>2014-10-01T08:54:49Z</time>
      </trkpt>
      <trkpt lat="42.2759910" lon="-6.5727520">
        <ele>928.4</ele>
        <time>2014-10-01T08:54:50Z</time>
      </trkpt>
      <trkpt lat="42.2759910" lon="-6.5728010">
        <ele>928.7</ele>
        <time>2014-10-01T08:54:51Z</time>
      </trkpt>
      <trkpt lat="42.2759890" lon="-6.5728560">
        <ele>929.0</ele>
        <time>2014-10-01T08:54:52Z</time>
      </trkpt>
      <trkpt lat="42.2759890" lon="-6.5729060">
        <ele>929.3</ele>
        <time>2014-10-01T08:54:53Z</time>
      </trkpt>
      <trkpt lat="42.2759880" lon="-6.5729570">
        <ele>929.6</ele>
        <time>2014-10-01T08:54:54Z</time>
      </trkpt>
      <trkpt lat="42.2759870" lon="-6.5730060">
        <ele>930.0</ele>
        <time>2014-10-01T08:54:55Z</time>
      </trkpt>
      <trkpt lat="42.2759850" lon="-6.5730520">
        <ele>930.3</ele>
        <time>2014-10-01T08:54:56Z</time>
      </trkpt>
      <trkpt lat="42.2759830" lon="-6.5730970">
        <ele>930.6</ele>
        <time>2014-10-01T08:54:57Z</time>
      </trkpt>
      <trkpt lat="42.2759770" lon="-6.5731460">
        <ele>931.0</ele>
        <time>2014-10-01T08:54:58Z</time>
      </trkpt>
      <trkpt lat="42.2759710" lon="-6.5731930">
        <ele>931.3</ele>
        <time>2014-10-01T08:54:59Z</time>
      </trkpt>
      <trkpt lat="42.2759640" lon="-6.5732370">
        <ele>931.5</ele>
        <time>2014-10-01T08:55:00Z</time>
      </trkpt>
      <trkpt lat="42.2759570" lon="-6.5732750">
        <ele>931.8</ele>
        <time>2014-10-01T08:55:01Z</time>
      </trkpt>
      <trkpt lat="42.2759490" lon="-6.5733140">
        <ele>932.0</ele>
        <time>2014-10-01T08:55:02Z</time>
      </trkpt>
      <trkpt lat="42.2759310" lon="-6.5733840">
        <ele>932.4</ele>
        <time>2014-10-01T08:55:04Z</time>
      </trkpt>
      <trkpt lat="42.2759200" lon="-6.5734210">
        <ele>932.6</ele>
        <time>2014-10-01T08:55:05Z</time>
      </trkpt>
      <trkpt lat="42.2759060" lon="-6.5734670">
        <ele>932.9</ele>
        <time>2014-10-01T08:55:06Z</time>
      </trkpt>
      <trkpt lat="42.2758950" lon="-6.5735090">
        <ele>933.1</ele>
        <time>2014-10-01T08:55:07Z</time>
      </trkpt>
      <trkpt lat="42.2758830" lon="-6.5735520">
        <ele>933.4</ele>
        <time>2014-10-01T08:55:08Z</time>
      </trkpt>
      <trkpt lat="42.2758720" lon="-6.5735920">
        <ele>933.7</ele>
        <time>2014-10-01T08:55:09Z</time>
      </trkpt>
      <trkpt lat="42.2758590" lon="-6.5736290">
        <ele>933.9</ele>
        <time>2014-10-01T08:55:10Z</time>
      </trkpt>
      <trkpt lat="42.2758460" lon="-6.5736670">
        <ele>934.2</ele>
        <time>2014-10-01T08:55:11Z</time>
      </trkpt>
      <trkpt lat="42.2758310" lon="-6.5737060">
        <ele>934.6</ele>
        <time>2014-10-01T08:55:12Z</time>
      </trkpt>
      <trkpt lat="42.2758170" lon="-6.5737520">
        <ele>934.9</ele>
        <time>2014-10-01T08:55:13Z</time>
      </trkpt>
      <trkpt lat="42.2758010" lon="-6.5737970">
        <ele>935.3</ele>
        <time>2014-10-01T08:55:14Z</time>
      </trkpt>
      <trkpt lat="42.2757870" lon="-6.5738420">
        <ele>935.7</ele>
        <time>2014-10-01T08:55:15Z</time>
      </trkpt>
      <trkpt lat="42.2757760" lon="-6.5738960">
        <ele>936.1</ele>
        <time>2014-10-01T08:55:16Z</time>
      </trkpt>
      <trkpt lat="42.2757660" lon="-6.5739490">
        <ele>936.5</ele>
        <time>2014-10-01T08:55:17Z</time>
      </trkpt>
      <trkpt lat="42.2757620" lon="-6.5739970">
        <ele>936.8</ele>
        <time>2014-10-01T08:55:18Z</time>
      </trkpt>
      <trkpt lat="42.2757590" lon="-6.5740460">
        <ele>937.1</ele>
        <time>2014-10-01T08:55:19Z</time>
      </trkpt>
      <trkpt lat="42.2757540" lon="-6.5740970">
        <ele>937.4</ele>
        <time>2014-10-01T08:55:20Z</time>
      </trkpt>
      <trkpt lat="42.2757490" lon="-6.5741460">
        <ele>937.7</ele>
        <time>2014-10-01T08:55:21Z</time>
      </trkpt>
      <trkpt lat="42.2757450" lon="-6.5741980">
        <ele>938.0</ele>
        <time>2014-10-01T08:55:22Z</time>
      </trkpt>
      <trkpt lat="42.2757430" lon="-6.5742430">
        <ele>938.2</ele>
        <time>2014-10-01T08:55:23Z</time>
      </trkpt>
      <trkpt lat="42.2757370" lon="-6.5742910">
        <ele>938.5</ele>
        <time>2014-10-01T08:55:24Z</time>
      </trkpt>
      <trkpt lat="42.2757320" lon="-6.5743330">
        <ele>938.7</ele>
        <time>2014-10-01T08:55:25Z</time>
      </trkpt>
      <trkpt lat="42.2757260" lon="-6.5743740">
        <ele>939.0</ele>
        <time>2014-10-01T08:55:26Z</time>
      </trkpt>
      <trkpt lat="42.2757200" lon="-6.5744170">
        <ele>939.3</ele>
        <time>2014-10-01T08:55:27Z</time>
      </trkpt>
      <trkpt lat="42.2757100" lon="-6.5744650">
        <ele>939.6</ele>
        <time>2014-10-01T08:55:28Z</time>
      </trkpt>
      <trkpt lat="42.2756970" lon="-6.5745120">
        <ele>940.0</ele>
        <time>2014-10-01T08:55:29Z</time>
      </trkpt>
      <trkpt lat="42.2756840" lon="-6.5745620">
        <ele>940.4</ele>
        <time>2014-10-01T08:55:30Z</time>
      </trkpt>
      <trkpt lat="42.2756720" lon="-6.5746090">
        <ele>940.7</ele>
        <time>2014-10-01T08:55:31Z</time>
      </trkpt>
      <trkpt lat="42.2756550" lon="-6.5746520">
        <ele>941.1</ele>
        <time>2014-10-01T08:55:32Z</time>
      </trkpt>
      <trkpt lat="42.2756360" lon="-6.5746970">
        <ele>941.6</ele>
        <time>2014-10-01T08:55:33Z</time>
      </trkpt>
      <trkpt lat="42.2756160" lon="-6.5747450">
        <ele>942.0</ele>
        <time>2014-10-01T08:55:34Z</time>
      </trkpt>
      <trkpt lat="42.2755980" lon="-6.5747870">
        <ele>942.4</ele>
        <time>2014-10-01T08:55:35Z</time>
      </trkpt>
      <trkpt lat="42.2755850" lon="-6.5748220">
        <ele>942.8</ele>
        <time>2014-10-01T08:55:36Z</time>
      </trkpt>
      <trkpt lat="42.2755710" lon="-6.5748640">
        <ele>943.2</ele>
        <time>2014-10-01T08:55:37Z</time>
      </trkpt>
      <trkpt lat="42.2755590" lon="-6.5749040">
        <ele>943.5</ele>
        <time>2014-10-01T08:55:38Z</time>
      </trkpt>
      <trkpt lat="42.2755480" lon="-6.5749500">
        <ele>943.9</ele>
        <time>2014-10-01T08:55:39Z</time>
      </trkpt>
      <trkpt lat="42.2755400" lon="-6.5750020">
        <ele>944.4</ele>
        <time>2014-10-01T08:55:40Z</time>
      </trkpt>
      <trkpt lat="42.2755350" lon="-6.5750530">
        <ele>944.8</ele>
        <time>2014-10-01T08:55:41Z</time>
      </trkpt>
      <trkpt lat="42.2755310" lon="-6.5751060">
        <ele>945.2</ele>
        <time>2014-10-01T08:55:42Z</time>
      </trkpt>
      <trkpt lat="42.2755370" lon="-6.5751480">
        <ele>945.5</ele>
        <time>2014-10-01T08:55:43Z</time>
      </trkpt>
      <trkpt lat="42.2755430" lon="-6.5751960">
        <ele>945.8</ele>
        <time>2014-10-01T08:55:44Z</time>
      </trkpt>
      <trkpt lat="42.2755470" lon="-6.5752400">
        <ele>946.1</ele>
        <time>2014-10-01T08:55:45Z</time>
      </trkpt>
      <trkpt lat="42.2755510" lon="-6.5752890">
        <ele>946.4</ele>
        <time>2014-10-01T08:55:46Z</time>
      </trkpt>
      <trkpt lat="42.2755540" lon="-6.5753400">
        <ele>946.7</ele>
        <time>2014-10-01T08:55:47Z</time>
      </trkpt>
      <trkpt lat="42.2755570" lon="-6.5753910">
        <ele>946.9</ele>
        <time>2014-10-01T08:55:48Z</time>
      </trkpt>
      <trkpt lat="42.2755610" lon="-6.5754370">
        <ele>947.2</ele>
        <time>2014-10-01T08:55:49Z</time>
      </trkpt>
      <trkpt lat="42.2755680" lon="-6.5754790">
        <ele>947.4</ele>
        <time>2014-10-01T08:55:50Z</time>
      </trkpt>
      <trkpt lat="42.2755750" lon="-6.5755170">
        <ele>947.7</ele>
        <time>2014-10-01T08:55:51Z</time>
      </trkpt>
      <trkpt lat="42.2755810" lon="-6.5755560">
        <ele>947.9</ele>
        <time>2014-10-01T08:55:52Z</time>
      </trkpt>
      <trkpt lat="42.2755830" lon="-6.5755990">
        <ele>948.1</ele>
        <time>2014-10-01T08:55:53Z</time>
      </trkpt>
      <trkpt lat="42.2755870" lon="-6.5756450">
        <ele>948.4</ele>
        <time>2014-10-01T08:55:54Z</time>
      </trkpt>
      <trkpt lat="42.2755860" lon="-6.5756930">
        <ele>948.7</ele>
        <time>2014-10-01T08:55:55Z</time>
      </trkpt>
      <trkpt lat="42.2755830" lon="-6.5757370">
        <ele>949.0</ele>
        <time>2014-10-01T08:55:56Z</time>
      </trkpt>
      <trkpt lat="42.2755770" lon="-6.5757900">
        <ele>949.3</ele>
        <time>2014-10-01T08:55:57Z</time>
      </trkpt>
      <trkpt lat="42.2755710" lon="-6.5758410">
        <ele>949.6</ele>
        <time>2014-10-01T08:55:58Z</time>
      </trkpt>
      <trkpt lat="42.2755640" lon="-6.5758930">
        <ele>950.0</ele>
        <time>2014-10-01T08:55:59Z</time>
      </trkpt>
      <trkpt lat="42.2755550" lon="-6.5759500">
        <ele>950.4</ele>
        <time>2014-10-01T08:56:00Z</time>
      </trkpt>
      <trkpt lat="42.2755440" lon="-6.5760020">
        <ele>950.7</ele>
        <time>2014-10-01T08:56:01Z</time>
      </trkpt>
      <trkpt lat="42.2755300" lon="-6.5760550">
        <ele>951.1</ele>
        <time>2014-10-01T08:56:02Z</time>
      </trkpt>
      <trkpt lat="42.2755190" lon="-6.5760910">
        <ele>951.3</ele>
        <time>2014-10-01T08:56:03Z</time>
      </trkpt>
      <trkpt lat="42.2755020" lon="-6.5761370">
        <ele>951.6</ele>
        <time>2014-10-01T08:56:04Z</time>
      </trkpt>
      <trkpt lat="42.2754880" lon="-6.5761700">
        <ele>951.9</ele>
        <time>2014-10-01T08:56:05Z</time>
      </trkpt>
      <trkpt lat="42.2754650" lon="-6.5762070">
        <ele>952.2</ele>
        <time>2014-10-01T08:56:06Z</time>
      </trkpt>
      <trkpt lat="42.2754410" lon="-6.5762480">
        <ele>952.6</ele>
        <time>2014-10-01T08:56:07Z</time>
      </trkpt>
      <trkpt lat="42.2754140" lon="-6.5762920">
        <ele>953.0</ele>
        <time>2014-10-01T08:56:08Z</time>
      </trkpt>
      <trkpt lat="42.2753860" lon="-6.5763300">
        <ele>953.4</ele>
        <time>2014-10-01T08:56:09Z</time>
      </trkpt>
      <trkpt lat="42.2753550" lon="-6.5763710">
        <ele>953.8</ele>
        <time>2014-10-01T08:56:10Z</time>
      </trkpt>
      <trkpt lat="42.2753250" lon="-6.5764090">
        <ele>954.3</ele>
        <time>2014-10-01T08:56:11Z</time>
      </trkpt>
      <trkpt lat="42.2752920" lon="-6.5764400">
        <ele>954.7</ele>
        <time>2014-10-01T08:56:12Z</time>
      </trkpt>
      <trkpt lat="42.2752610" lon="-6.5764730">
        <ele>955.1</ele>
        <time>2014-10-01T08:56:13Z</time>
      </trkpt>
      <trkpt lat="42.2752320" lon="-6.5765030">
        <ele>955.5</ele>
        <time>2014-10-01T08:56:14Z</time>
      </trkpt>
      <trkpt lat="42.2751990" lon="-6.5765370">
        <ele>956.0</ele>
        <time>2014-10-01T08:56:15Z</time>
      </trkpt>
      <trkpt lat="42.2751630" lon="-6.5765760">
        <ele>956.5</ele>
        <time>2014-10-01T08:56:16Z</time>
      </trkpt>
      <trkpt lat="42.2751300" lon="-6.5766080">
        <ele>956.9</ele>
        <time>2014-10-01T08:56:17Z</time>
      </trkpt>
      <trkpt lat="42.2750970" lon="-6.5766380">
        <ele>957.3</ele>
        <time>2014-10-01T08:56:18Z</time>
      </trkpt>
      <trkpt lat="42.2750640" lon="-6.5766650">
        <ele>957.6</ele>
        <time>2014-10-01T08:56:19Z</time>
      </trkpt>
      <trkpt lat="42.2750280" lon="-6.5766940">
        <ele>958.0</ele>
        <time>2014-10-01T08:56:20Z</time>
      </trkpt>
      <trkpt lat="42.2749870" lon="-6.5767250">
        <ele>958.3</ele>
        <time>2014-10-01T08:56:21Z</time>
      </trkpt>
      <trkpt lat="42.2749520" lon="-6.5767520">
        <ele>958.6</ele>
        <time>2014-10-01T08:56:22Z</time>
      </trkpt>
      <trkpt lat="42.2749250" lon="-6.5767760">
        <ele>958.8</ele>
        <time>2014-10-01T08:56:23Z</time>
      </trkpt>
      <trkpt lat="42.2748770" lon="-6.5768160">
        <ele>959.1</ele>
        <time>2014-10-01T08:56:25Z</time>
      </trkpt>
      <trkpt lat="42.2748530" lon="-6.5768430">
        <ele>959.3</ele>
        <time>2014-10-01T08:56:26Z</time>
      </trkpt>
      <trkpt lat="42.2748230" lon="-6.5769080">
        <ele>959.5</ele>
        <time>2014-10-01T08:56:28Z</time>
      </trkpt>
      <trkpt lat="42.2748060" lon="-6.5769540">
        <ele>959.7</ele>
        <time>2014-10-01T08:56:29Z</time>
      </trkpt>
      <trkpt lat="42.2747940" lon="-6.5770080">
        <ele>959.8</ele>
        <time>2014-10-01T08:56:30Z</time>
      </trkpt>
      <trkpt lat="42.2747820" lon="-6.5770680">
        <ele>960.0</ele>
        <time>2014-10-01T08:56:31Z</time>
      </trkpt>
      <trkpt lat="42.2747750" lon="-6.5771390">
        <ele>960.2</ele>
        <time>2014-10-01T08:56:32Z</time>
      </trkpt>
      <trkpt lat="42.2747700" lon="-6.5772070">
        <ele>960.4</ele>
        <time>2014-10-01T08:56:33Z</time>
      </trkpt>
      <trkpt lat="42.2747640" lon="-6.5772780">
        <ele>960.5</ele>
        <time>2014-10-01T08:56:34Z</time>
      </trkpt>
      <trkpt lat="42.2747610" lon="-6.5773430">
        <ele>960.7</ele>
        <time>2014-10-01T08:56:35Z</time>
      </trkpt>
      <trkpt lat="42.2747560" lon="-6.5774050">
        <ele>960.8</ele>
        <time>2014-10-01T08:56:36Z</time>
      </trkpt>
      <trkpt lat="42.2747510" lon="-6.5774730">
        <ele>961.0</ele>
        <time>2014-10-01T08:56:37Z</time>
      </trkpt>
      <trkpt lat="42.2747420" lon="-6.5775410">
        <ele>961.1</ele>
        <time>2014-10-01T08:56:38Z</time>
      </trkpt>
      <trkpt lat="42.2747330" lon="-6.5775990">
        <ele>961.2</ele>
        <time>2014-10-01T08:56:39Z</time>
      </trkpt>
      <trkpt lat="42.2747210" lon="-6.5776570">
        <ele>961.3</ele>
        <time>2014-10-01T08:56:40Z</time>
      </trkpt>
      <trkpt lat="42.2747080" lon="-6.5777140">
        <ele>961.5</ele>
        <time>2014-10-01T08:56:41Z</time>
      </trkpt>
      <trkpt lat="42.2746850" lon="-6.5777730">
        <ele>961.6</ele>
        <time>2014-10-01T08:56:42Z</time>
      </trkpt>
      <trkpt lat="42.2746610" lon="-6.5778290">
        <ele>961.7</ele>
        <time>2014-10-01T08:56:43Z</time>
      </trkpt>
      <trkpt lat="42.2746450" lon="-6.5779010">
        <ele>961.8</ele>
        <time>2014-10-01T08:56:44Z</time>
      </trkpt>
      <trkpt lat="42.2746280" lon="-6.5779630">
        <ele>961.9</ele>
        <time>2014-10-01T08:56:45Z</time>
      </trkpt>
      <trkpt lat="42.2746090" lon="-6.5780270">
        <ele>962.1</ele>
        <time>2014-10-01T08:56:46Z</time>
      </trkpt>
      <trkpt lat="42.2745840" lon="-6.5780930">
        <ele>962.3</ele>
        <time>2014-10-01T08:56:47Z</time>
      </trkpt>
      <trkpt lat="42.2745600" lon="-6.5781620">
        <ele>962.4</ele>
        <time>2014-10-01T08:56:48Z</time>
      </trkpt>
      <trkpt lat="42.2745340" lon="-6.5782320">
        <ele>962.6</ele>
        <time>2014-10-01T08:56:49Z</time>
      </trkpt>
      <trkpt lat="42.2745110" lon="-6.5782920">
        <ele>962.7</ele>
        <time>2014-10-01T08:56:50Z</time>
      </trkpt>
      <trkpt lat="42.2744870" lon="-6.5783470">
        <ele>962.8</ele>
        <time>2014-10-01T08:56:51Z</time>
      </trkpt>
      <trkpt lat="42.2744600" lon="-6.5784020">
        <ele>962.9</ele>
        <time>2014-10-01T08:56:52Z</time>
      </trkpt>
      <trkpt lat="42.2744220" lon="-6.5784490">
        <ele>963.0</ele>
        <time>2014-10-01T08:56:53Z</time>
      </trkpt>
      <trkpt lat="42.2743790" lon="-6.5784970">
        <ele>963.1</ele>
        <time>2014-10-01T08:56:54Z</time>
      </trkpt>
      <trkpt lat="42.2743360" lon="-6.5785400">
        <ele>963.1</ele>
        <time>2014-10-01T08:56:55Z</time>
      </trkpt>
      <trkpt lat="42.2742940" lon="-6.5785800">
        <ele>963.1</ele>
        <time>2014-10-01T08:56:56Z</time>
      </trkpt>
      <trkpt lat="42.2742510" lon="-6.5786210">
        <ele>963.1</ele>
        <time>2014-10-01T08:56:57Z</time>
      </trkpt>
      <trkpt lat="42.2742120" lon="-6.5786620">
        <ele>963.2</ele>
        <time>2014-10-01T08:56:58Z</time>
      </trkpt>
      <trkpt lat="42.2741750" lon="-6.5787100">
        <ele>963.2</ele>
        <time>2014-10-01T08:56:59Z</time>
      </trkpt>
      <trkpt lat="42.2741460" lon="-6.5787740">
        <ele>963.2</ele>
        <time>2014-10-01T08:57:00Z</time>
      </trkpt>
      <trkpt lat="42.2741150" lon="-6.5788410">
        <ele>963.1</ele>
        <time>2014-10-01T08:57:01Z</time>
      </trkpt>
      <trkpt lat="42.2740910" lon="-6.5789120">
        <ele>963.1</ele>
        <time>2014-10-01T08:57:02Z</time>
      </trkpt>
      <trkpt lat="42.2740700" lon="-6.5789840">
        <ele>963.1</ele>
        <time>2014-10-01T08:57:03Z</time>
      </trkpt>
      <trkpt lat="42.2740460" lon="-6.5790720">
        <ele>963.1</ele>
        <time>2014-10-01T08:57:04Z</time>
      </trkpt>
      <trkpt lat="42.2740200" lon="-6.5791590">
        <ele>963.0</ele>
        <time>2014-10-01T08:57:05Z</time>
      </trkpt>
      <trkpt lat="42.2739920" lon="-6.5792440">
        <ele>963.0</ele>
        <time>2014-10-01T08:57:06Z</time>
      </trkpt>
      <trkpt lat="42.2739630" lon="-6.5793270">
        <ele>962.9</ele>
        <time>2014-10-01T08:57:07Z</time>
      </trkpt>
      <trkpt lat="42.2739320" lon="-6.5794010">
        <ele>963.0</ele>
        <time>2014-10-01T08:57:08Z</time>
      </trkpt>
      <trkpt lat="42.2738990" lon="-6.5794690">
        <ele>963.0</ele>
        <time>2014-10-01T08:57:09Z</time>
      </trkpt>
      <trkpt lat="42.2738480" lon="-6.5795360">
        <ele>963.0</ele>
        <time>2014-10-01T08:57:10Z</time>
      </trkpt>
      <trkpt lat="42.2737860" lon="-6.5795890">
        <ele>963.0</ele>
        <time>2014-10-01T08:57:11Z</time>
      </trkpt>
      <trkpt lat="42.2737260" lon="-6.5796430">
        <ele>963.0</ele>
        <time>2014-10-01T08:57:12Z</time>
      </trkpt>
      <trkpt lat="42.2736640" lon="-6.5797000">
        <ele>962.9</ele>
        <time>2014-10-01T08:57:13Z</time>
      </trkpt>
      <trkpt lat="42.2736040" lon="-6.5797440">
        <ele>962.9</ele>
        <time>2014-10-01T08:57:14Z</time>
      </trkpt>
      <trkpt lat="42.2735480" lon="-6.5797860">
        <ele>962.8</ele>
        <time>2014-10-01T08:57:15Z</time>
      </trkpt>
      <trkpt lat="42.2734910" lon="-6.5798260">
        <ele>962.7</ele>
        <time>2014-10-01T08:57:16Z</time>
      </trkpt>
      <trkpt lat="42.2734330" lon="-6.5798700">
        <ele>962.7</ele>
        <time>2014-10-01T08:57:17Z</time>
      </trkpt>
      <trkpt lat="42.2733750" lon="-6.5799150">
        <ele>962.7</ele>
        <time>2014-10-01T08:57:18Z</time>
      </trkpt>
      <trkpt lat="42.2733080" lon="-6.5799580">
        <ele>962.7</ele>
        <time>2014-10-01T08:57:19Z</time>
      </trkpt>
      <trkpt lat="42.2732470" lon="-6.5800260">
        <ele>962.7</ele>
        <time>2014-10-01T08:57:20Z</time>
      </trkpt>
      <trkpt lat="42.2731870" lon="-6.5800910">
        <ele>962.8</ele>
        <time>2014-10-01T08:57:21Z</time>
      </trkpt>
      <trkpt lat="42.2731190" lon="-6.5801640">
        <ele>962.8</ele>
        <time>2014-10-01T08:57:22Z</time>
      </trkpt>
      <trkpt lat="42.2730670" lon="-6.5802400">
        <ele>962.7</ele>
        <time>2014-10-01T08:57:23Z</time>
      </trkpt>
      <trkpt lat="42.2730190" lon="-6.5803180">
        <ele>962.6</ele>
        <time>2014-10-01T08:57:24Z</time>
      </trkpt>
      <trkpt lat="42.2729680" lon="-6.5803980">
        <ele>962.5</ele>
        <time>2014-10-01T08:57:25Z</time>
      </trkpt>
      <trkpt lat="42.2729100" lon="-6.5804640">
        <ele>962.4</ele>
        <time>2014-10-01T08:57:26Z</time>
      </trkpt>
      <trkpt lat="42.2728530" lon="-6.5805390">
        <ele>962.4</ele>
        <time>2014-10-01T08:57:27Z</time>
      </trkpt>
      <trkpt lat="42.2727900" lon="-6.5806100">
        <ele>962.3</ele>
        <time>2014-10-01T08:57:28Z</time>
      </trkpt>
      <trkpt lat="42.2727270" lon="-6.5806770">
        <ele>962.3</ele>
        <time>2014-10-01T08:57:29Z</time>
      </trkpt>
      <trkpt lat="42.2726740" lon="-6.5807350">
        <ele>962.3</ele>
        <time>2014-10-01T08:57:30Z</time>
      </trkpt>
      <trkpt lat="42.2726190" lon="-6.5807900">
        <ele>962.3</ele>
        <time>2014-10-01T08:57:31Z</time>
      </trkpt>
      <trkpt lat="42.2725610" lon="-6.5808470">
        <ele>962.3</ele>
        <time>2014-10-01T08:57:32Z</time>
      </trkpt>
      <trkpt lat="42.2725000" lon="-6.5809060">
        <ele>962.4</ele>
        <time>2014-10-01T08:57:33Z</time>
      </trkpt>
      <trkpt lat="42.2724560" lon="-6.5809880">
        <ele>962.5</ele>
        <time>2014-10-01T08:57:34Z</time>
      </trkpt>
      <trkpt lat="42.2724170" lon="-6.5810720">
        <ele>962.6</ele>
        <time>2014-10-01T08:57:35Z</time>
      </trkpt>
      <trkpt lat="42.2723830" lon="-6.5811600">
        <ele>962.6</ele>
        <time>2014-10-01T08:57:36Z</time>
      </trkpt>
      <trkpt lat="42.2723500" lon="-6.5812560">
        <ele>962.5</ele>
        <time>2014-10-01T08:57:37Z</time>
      </trkpt>
      <trkpt lat="42.2723190" lon="-6.5813580">
        <ele>962.3</ele>
        <time>2014-10-01T08:57:38Z</time>
      </trkpt>
      <trkpt lat="42.2722970" lon="-6.5814600">
        <ele>962.0</ele>
        <time>2014-10-01T08:57:39Z</time>
      </trkpt>
      <trkpt lat="42.2722750" lon="-6.5815630">
        <ele>961.4</ele>
        <time>2014-10-01T08:57:40Z</time>
      </trkpt>
      <trkpt lat="42.2722540" lon="-6.5816670">
        <ele>960.7</ele>
        <time>2014-10-01T08:57:41Z</time>
      </trkpt>
      <trkpt lat="42.2722340" lon="-6.5817680">
        <ele>960.5</ele>
        <time>2014-10-01T08:57:42Z</time>
      </trkpt>
      <trkpt lat="42.2722150" lon="-6.5818680">
        <ele>960.5</ele>
        <time>2014-10-01T08:57:43Z</time>
      </trkpt>
      <trkpt lat="42.2721990" lon="-6.5819680">
        <ele>960.7</ele>
        <time>2014-10-01T08:57:44Z</time>
      </trkpt>
      <trkpt lat="42.2721860" lon="-6.5820630">
        <ele>960.8</ele>
        <time>2014-10-01T08:57:45Z</time>
      </trkpt>
      <trkpt lat="42.2721730" lon="-6.5821610">
        <ele>960.9</ele>
        <time>2014-10-01T08:57:46Z</time>
      </trkpt>
      <trkpt lat="42.2721590" lon="-6.5822590">
        <ele>961.0</ele>
        <time>2014-10-01T08:57:47Z</time>
      </trkpt>
      <trkpt lat="42.2721490" lon="-6.5823440">
        <ele>961.0</ele>
        <time>2014-10-01T08:57:48Z</time>
      </trkpt>
      <trkpt lat="42.2721400" lon="-6.5824410">
        <ele>961.0</ele>
        <time>2014-10-01T08:57:49Z</time>
      </trkpt>
      <trkpt lat="42.2721300" lon="-6.5825380">
        <ele>961.0</ele>
        <time>2014-10-01T08:57:50Z</time>
      </trkpt>
      <trkpt lat="42.2721220" lon="-6.5826340">
        <ele>961.0</ele>
        <time>2014-10-01T08:57:51Z</time>
      </trkpt>
      <trkpt lat="42.2721120" lon="-6.5827370">
        <ele>961.0</ele>
        <time>2014-10-01T08:57:52Z</time>
      </trkpt>
      <trkpt lat="42.2721040" lon="-6.5828310">
        <ele>961.0</ele>
        <time>2014-10-01T08:57:53Z</time>
      </trkpt>
      <trkpt lat="42.2720960" lon="-6.5829260">
        <ele>961.0</ele>
        <time>2014-10-01T08:57:54Z</time>
      </trkpt>
      <trkpt lat="42.2720850" lon="-6.5830220">
        <ele>961.0</ele>
        <time>2014-10-01T08:57:55Z</time>
      </trkpt>
      <trkpt lat="42.2720690" lon="-6.5831150">
        <ele>960.9</ele>
        <time>2014-10-01T08:57:56Z</time>
      </trkpt>
      <trkpt lat="42.2720360" lon="-6.5832040">
        <ele>960.9</ele>
        <time>2014-10-01T08:57:57Z</time>
      </trkpt>
      <trkpt lat="42.2719990" lon="-6.5832970">
        <ele>960.9</ele>
        <time>2014-10-01T08:57:58Z</time>
      </trkpt>
      <trkpt lat="42.2719610" lon="-6.5833910">
        <ele>960.9</ele>
        <time>2014-10-01T08:57:59Z</time>
      </trkpt>
      <trkpt lat="42.2719250" lon="-6.5834780">
        <ele>960.9</ele>
        <time>2014-10-01T08:58:00Z</time>
      </trkpt>
      <trkpt lat="42.2718890" lon="-6.5835620">
        <ele>960.9</ele>
        <time>2014-10-01T08:58:01Z</time>
      </trkpt>
      <trkpt lat="42.2718540" lon="-6.5836470">
        <ele>960.9</ele>
        <time>2014-10-01T08:58:02Z</time>
      </trkpt>
      <trkpt lat="42.2718210" lon="-6.5837540">
        <ele>960.9</ele>
        <time>2014-10-01T08:58:03Z</time>
      </trkpt>
      <trkpt lat="42.2717940" lon="-6.5838490">
        <ele>960.8</ele>
        <time>2014-10-01T08:58:04Z</time>
      </trkpt>
      <trkpt lat="42.2717640" lon="-6.5839670">
        <ele>960.8</ele>
        <time>2014-10-01T08:58:05Z</time>
      </trkpt>
      <trkpt lat="42.2717390" lon="-6.5840850">
        <ele>960.8</ele>
        <time>2014-10-01T08:58:06Z</time>
      </trkpt>
      <trkpt lat="42.2717330" lon="-6.5841930">
        <ele>960.8</ele>
        <time>2014-10-01T08:58:07Z</time>
      </trkpt>
      <trkpt lat="42.2717220" lon="-6.5843100">
        <ele>960.8</ele>
        <time>2014-10-01T08:58:08Z</time>
      </trkpt>
      <trkpt lat="42.2717100" lon="-6.5844280">
        <ele>960.8</ele>
        <time>2014-10-01T08:58:09Z</time>
      </trkpt>
      <trkpt lat="42.2716990" lon="-6.5845350">
        <ele>960.8</ele>
        <time>2014-10-01T08:58:10Z</time>
      </trkpt>
      <trkpt lat="42.2716890" lon="-6.5846400">
        <ele>960.9</ele>
        <time>2014-10-01T08:58:11Z</time>
      </trkpt>
      <trkpt lat="42.2716830" lon="-6.5847330">
        <ele>961.0</ele>
        <time>2014-10-01T08:58:12Z</time>
      </trkpt>
      <trkpt lat="42.2716750" lon="-6.5848340">
        <ele>961.0</ele>
        <time>2014-10-01T08:58:13Z</time>
      </trkpt>
      <trkpt lat="42.2716690" lon="-6.5849300">
        <ele>961.1</ele>
        <time>2014-10-01T08:58:14Z</time>
      </trkpt>
      <trkpt lat="42.2716630" lon="-6.5850390">
        <ele>961.1</ele>
        <time>2014-10-01T08:58:15Z</time>
      </trkpt>
      <trkpt lat="42.2716580" lon="-6.5851480">
        <ele>961.1</ele>
        <time>2014-10-01T08:58:16Z</time>
      </trkpt>
      <trkpt lat="42.2716520" lon="-6.5852450">
        <ele>961.1</ele>
        <time>2014-10-01T08:58:17Z</time>
      </trkpt>
      <trkpt lat="42.2716480" lon="-6.5853480">
        <ele>961.1</ele>
        <time>2014-10-01T08:58:18Z</time>
      </trkpt>
      <trkpt lat="42.2716460" lon="-6.5854440">
        <ele>961.2</ele>
        <time>2014-10-01T08:58:19Z</time>
      </trkpt>
      <trkpt lat="42.2716460" lon="-6.5855460">
        <ele>961.3</ele>
        <time>2014-10-01T08:58:20Z</time>
      </trkpt>
      <trkpt lat="42.2716680" lon="-6.5856360">
        <ele>961.5</ele>
        <time>2014-10-01T08:58:21Z</time>
      </trkpt>
      <trkpt lat="42.2716910" lon="-6.5857240">
        <ele>961.8</ele>
        <time>2014-10-01T08:58:22Z</time>
      </trkpt>
      <trkpt lat="42.2717320" lon="-6.5858090">
        <ele>962.0</ele>
        <time>2014-10-01T08:58:23Z</time>
      </trkpt>
      <trkpt lat="42.2717760" lon="-6.5858840">
        <ele>962.0</ele>
        <time>2014-10-01T08:58:24Z</time>
      </trkpt>
      <trkpt lat="42.2718240" lon="-6.5859440">
        <ele>961.9</ele>
        <time>2014-10-01T08:58:25Z</time>
      </trkpt>
      <trkpt lat="42.2718800" lon="-6.5860100">
        <ele>961.8</ele>
        <time>2014-10-01T08:58:26Z</time>
      </trkpt>
      <trkpt lat="42.2719450" lon="-6.5860740">
        <ele>961.6</ele>
        <time>2014-10-01T08:58:27Z</time>
      </trkpt>
      <trkpt lat="42.2720050" lon="-6.5861270">
        <ele>961.6</ele>
        <time>2014-10-01T08:58:28Z</time>
      </trkpt>
      <trkpt lat="42.2720620" lon="-6.5861780">
        <ele>961.7</ele>
        <time>2014-10-01T08:58:29Z</time>
      </trkpt>
      <trkpt lat="42.2721270" lon="-6.5862410">
        <ele>961.8</ele>
        <time>2014-10-01T08:58:30Z</time>
      </trkpt>
      <trkpt lat="42.2721810" lon="-6.5863210">
        <ele>962.0</ele>
        <time>2014-10-01T08:58:31Z</time>
      </trkpt>
      <trkpt lat="42.2722300" lon="-6.5863960">
        <ele>962.2</ele>
        <time>2014-10-01T08:58:32Z</time>
      </trkpt>
      <trkpt lat="42.2722730" lon="-6.5864750">
        <ele>962.3</ele>
        <time>2014-10-01T08:58:33Z</time>
      </trkpt>
      <trkpt lat="42.2723090" lon="-6.5865740">
        <ele>962.5</ele>
        <time>2014-10-01T08:58:34Z</time>
      </trkpt>
      <trkpt lat="42.2723430" lon="-6.5866740">
        <ele>962.8</ele>
        <time>2014-10-01T08:58:35Z</time>
      </trkpt>
      <trkpt lat="42.2723600" lon="-6.5867820">
        <ele>963.1</ele>
        <time>2014-10-01T08:58:36Z</time>
      </trkpt>
      <trkpt lat="42.2723750" lon="-6.5868830">
        <ele>963.5</ele>
        <time>2014-10-01T08:58:37Z</time>
      </trkpt>
      <trkpt lat="42.2723730" lon="-6.5869850">
        <ele>964.0</ele>
        <time>2014-10-01T08:58:38Z</time>
      </trkpt>
      <trkpt lat="42.2723650" lon="-6.5870890">
        <ele>964.4</ele>
        <time>2014-10-01T08:58:39Z</time>
      </trkpt>
      <trkpt lat="42.2723390" lon="-6.5871870">
        <ele>964.9</ele>
        <time>2014-10-01T08:58:40Z</time>
      </trkpt>
      <trkpt lat="42.2723170" lon="-6.5872710">
        <ele>965.3</ele>
        <time>2014-10-01T08:58:41Z</time>
      </trkpt>
      <trkpt lat="42.2722910" lon="-6.5873440">
        <ele>965.7</ele>
        <time>2014-10-01T08:58:42Z</time>
      </trkpt>
      <trkpt lat="42.2722700" lon="-6.5874010">
        <ele>966.1</ele>
        <time>2014-10-01T08:58:43Z</time>
      </trkpt>
      <trkpt lat="42.2722440" lon="-6.5874600">
        <ele>966.4</ele>
        <time>2014-10-01T08:58:44Z</time>
      </trkpt>
      <trkpt lat="42.2722150" lon="-6.5875180">
        <ele>966.8</ele>
        <time>2014-10-01T08:58:45Z</time>
      </trkpt>
      <trkpt lat="42.2721860" lon="-6.5875760">
        <ele>967.1</ele>
        <time>2014-10-01T08:58:46Z</time>
      </trkpt>
      <trkpt lat="42.2721560" lon="-6.5876340">
        <ele>967.5</ele>
        <time>2014-10-01T08:58:47Z</time>
      </trkpt>
      <trkpt lat="42.2721270" lon="-6.5876970">
        <ele>967.8</ele>
        <time>2014-10-01T08:58:48Z</time>
      </trkpt>
      <trkpt lat="42.2721010" lon="-6.5877590">
        <ele>968.2</ele>
        <time>2014-10-01T08:58:49Z</time>
      </trkpt>
      <trkpt lat="42.2720740" lon="-6.5878230">
        <ele>968.7</ele>
        <time>2014-10-01T08:58:50Z</time>
      </trkpt>
      <trkpt lat="42.2720460" lon="-6.5878840">
        <ele>969.1</ele>
        <time>2014-10-01T08:58:51Z</time>
      </trkpt>
      <trkpt lat="42.2720200" lon="-6.5879410">
        <ele>969.5</ele>
        <time>2014-10-01T08:58:52Z</time>
      </trkpt>
      <trkpt lat="42.2719910" lon="-6.5879970">
        <ele>969.9</ele>
        <time>2014-10-01T08:58:53Z</time>
      </trkpt>
      <trkpt lat="42.2719630" lon="-6.5880480">
        <ele>970.2</ele>
        <time>2014-10-01T08:58:54Z</time>
      </trkpt>
      <trkpt lat="42.2719360" lon="-6.5880980">
        <ele>970.3</ele>
        <time>2014-10-01T08:58:55Z</time>
      </trkpt>
      <trkpt lat="42.2719140" lon="-6.5881390">
        <ele>970.3</ele>
        <time>2014-10-01T08:58:56Z</time>
      </trkpt>
      <trkpt lat="42.2718900" lon="-6.5881830">
        <ele>970.3</ele>
        <time>2014-10-01T08:58:57Z</time>
      </trkpt>
      <trkpt lat="42.2718610" lon="-6.5882420">
        <ele>970.3</ele>
        <time>2014-10-01T08:58:58Z</time>
      </trkpt>
      <trkpt lat="42.2718320" lon="-6.5883050">
        <ele>970.2</ele>
        <time>2014-10-01T08:58:59Z</time>
      </trkpt>
      <trkpt lat="42.2718040" lon="-6.5883640">
        <ele>970.1</ele>
        <time>2014-10-01T08:59:00Z</time>
      </trkpt>
      <trkpt lat="42.2717790" lon="-6.5884270">
        <ele>969.9</ele>
        <time>2014-10-01T08:59:01Z</time>
      </trkpt>
      <trkpt lat="42.2717520" lon="-6.5884940">
        <ele>969.7</ele>
        <time>2014-10-01T08:59:02Z</time>
      </trkpt>
      <trkpt lat="42.2717250" lon="-6.5885670">
        <ele>969.5</ele>
        <time>2014-10-01T08:59:03Z</time>
      </trkpt>
      <trkpt lat="42.2717120" lon="-6.5886540">
        <ele>969.2</ele>
        <time>2014-10-01T08:59:04Z</time>
      </trkpt>
      <trkpt lat="42.2717050" lon="-6.5887370">
        <ele>968.9</ele>
        <time>2014-10-01T08:59:05Z</time>
      </trkpt>
      <trkpt lat="42.2717150" lon="-6.5888330">
        <ele>968.5</ele>
        <time>2014-10-01T08:59:06Z</time>
      </trkpt>
      <trkpt lat="42.2717280" lon="-6.5889300">
        <ele>968.1</ele>
        <time>2014-10-01T08:59:07Z</time>
      </trkpt>
      <trkpt lat="42.2717630" lon="-6.5890250">
        <ele>967.6</ele>
        <time>2014-10-01T08:59:08Z</time>
      </trkpt>
      <trkpt lat="42.2718010" lon="-6.5891220">
        <ele>967.1</ele>
        <time>2014-10-01T08:59:09Z</time>
      </trkpt>
      <trkpt lat="42.2718440" lon="-6.5892170">
        <ele>966.4</ele>
        <time>2014-10-01T08:59:10Z</time>
      </trkpt>
      <trkpt lat="42.2718930" lon="-6.5893160">
        <ele>965.8</ele>
        <time>2014-10-01T08:59:11Z</time>
      </trkpt>
      <trkpt lat="42.2719470" lon="-6.5894140">
        <ele>965.2</ele>
        <time>2014-10-01T08:59:12Z</time>
      </trkpt>
      <trkpt lat="42.2720060" lon="-6.5895310">
        <ele>964.4</ele>
        <time>2014-10-01T08:59:13Z</time>
      </trkpt>
      <trkpt lat="42.2720610" lon="-6.5896570">
        <ele>963.8</ele>
        <time>2014-10-01T08:59:14Z</time>
      </trkpt>
      <trkpt lat="42.2721170" lon="-6.5897780">
        <ele>963.1</ele>
        <time>2014-10-01T08:59:15Z</time>
      </trkpt>
      <trkpt lat="42.2721600" lon="-6.5899120">
        <ele>962.4</ele>
        <time>2014-10-01T08:59:16Z</time>
      </trkpt>
      <trkpt lat="42.2722020" lon="-6.5900410">
        <ele>961.7</ele>
        <time>2014-10-01T08:59:17Z</time>
      </trkpt>
      <trkpt lat="42.2722390" lon="-6.5901780">
        <ele>960.8</ele>
        <time>2014-10-01T08:59:18Z</time>
      </trkpt>
      <trkpt lat="42.2722780" lon="-6.5903170">
        <ele>959.8</ele>
        <time>2014-10-01T08:59:19Z</time>
      </trkpt>
      <trkpt lat="42.2723200" lon="-6.5904530">
        <ele>958.9</ele>
        <time>2014-10-01T08:59:20Z</time>
      </trkpt>
      <trkpt lat="42.2723700" lon="-6.5905930">
        <ele>958.0</ele>
        <time>2014-10-01T08:59:21Z</time>
      </trkpt>
      <trkpt lat="42.2724250" lon="-6.5907220">
        <ele>957.1</ele>
        <time>2014-10-01T08:59:22Z</time>
      </trkpt>
      <trkpt lat="42.2724910" lon="-6.5908480">
        <ele>956.3</ele>
        <time>2014-10-01T08:59:23Z</time>
      </trkpt>
      <trkpt lat="42.2725560" lon="-6.5909750">
        <ele>955.5</ele>
        <time>2014-10-01T08:59:24Z</time>
      </trkpt>
      <trkpt lat="42.2726190" lon="-6.5910970">
        <ele>954.7</ele>
        <time>2014-10-01T08:59:25Z</time>
      </trkpt>
      <trkpt lat="42.2726890" lon="-6.5912240">
        <ele>954.1</ele>
        <time>2014-10-01T08:59:26Z</time>
      </trkpt>
      <trkpt lat="42.2727570" lon="-6.5913580">
        <ele>953.8</ele>
        <time>2014-10-01T08:59:27Z</time>
      </trkpt>
      <trkpt lat="42.2728210" lon="-6.5914950">
        <ele>953.9</ele>
        <time>2014-10-01T08:59:28Z</time>
      </trkpt>
      <trkpt lat="42.2728250" lon="-6.5916510">
        <ele>954.4</ele>
        <time>2014-10-01T08:59:29Z</time>
      </trkpt>
      <trkpt lat="42.2728010" lon="-6.5917950">
        <ele>955.1</ele>
        <time>2014-10-01T08:59:30Z</time>
      </trkpt>
      <trkpt lat="42.2727690" lon="-6.5919230">
        <ele>955.7</ele>
        <time>2014-10-01T08:59:31Z</time>
      </trkpt>
      <trkpt lat="42.2727220" lon="-6.5920350">
        <ele>956.3</ele>
        <time>2014-10-01T08:59:32Z</time>
      </trkpt>
      <trkpt lat="42.2726330" lon="-6.5920860">
        <ele>956.8</ele>
        <time>2014-10-01T08:59:33Z</time>
      </trkpt>
      <trkpt lat="42.2725470" lon="-6.5921320">
        <ele>957.3</ele>
        <time>2014-10-01T08:59:34Z</time>
      </trkpt>
      <trkpt lat="42.2724730" lon="-6.5921700">
        <ele>957.8</ele>
        <time>2014-10-01T08:59:35Z</time>
      </trkpt>
      <trkpt lat="42.2724120" lon="-6.5922040">
        <ele>958.1</ele>
        <time>2014-10-01T08:59:36Z</time>
      </trkpt>
      <trkpt lat="42.2723490" lon="-6.5922450">
        <ele>958.5</ele>
        <time>2014-10-01T08:59:37Z</time>
      </trkpt>
      <trkpt lat="42.2722770" lon="-6.5922790">
        <ele>958.9</ele>
        <time>2014-10-01T08:59:38Z</time>
      </trkpt>
      <trkpt lat="42.2722050" lon="-6.5923060">
        <ele>959.3</ele>
        <time>2014-10-01T08:59:39Z</time>
      </trkpt>
      <trkpt lat="42.2721330" lon="-6.5923280">
        <ele>959.8</ele>
        <time>2014-10-01T08:59:40Z</time>
      </trkpt>
      <trkpt lat="42.2720690" lon="-6.5923410">
        <ele>960.3</ele>
        <time>2014-10-01T08:59:41Z</time>
      </trkpt>
      <trkpt lat="42.2720150" lon="-6.5923540">
        <ele>960.7</ele>
        <time>2014-10-01T08:59:42Z</time>
      </trkpt>
      <trkpt lat="42.2719650" lon="-6.5923670">
        <ele>961.1</ele>
        <time>2014-10-01T08:59:43Z</time>
      </trkpt>
      <trkpt lat="42.2719130" lon="-6.5923830">
        <ele>961.5</ele>
        <time>2014-10-01T08:59:44Z</time>
      </trkpt>
      <trkpt lat="42.2718740" lon="-6.5924110">
        <ele>961.8</ele>
        <time>2014-10-01T08:59:45Z</time>
      </trkpt>
      <trkpt lat="42.2718260" lon="-6.5924430">
        <ele>962.2</ele>
        <time>2014-10-01T08:59:46Z</time>
      </trkpt>
      <trkpt lat="42.2717850" lon="-6.5924720">
        <ele>962.5</ele>
        <time>2014-10-01T08:59:47Z</time>
      </trkpt>
      <trkpt lat="42.2717480" lon="-6.5924980">
        <ele>962.8</ele>
        <time>2014-10-01T08:59:48Z</time>
      </trkpt>
      <trkpt lat="42.2717140" lon="-6.5925190">
        <ele>963.1</ele>
        <time>2014-10-01T08:59:49Z</time>
      </trkpt>
      <trkpt lat="42.2716730" lon="-6.5925440">
        <ele>963.5</ele>
        <time>2014-10-01T08:59:50Z</time>
      </trkpt>
      <trkpt lat="42.2716330" lon="-6.5925660">
        <ele>963.8</ele>
        <time>2014-10-01T08:59:51Z</time>
      </trkpt>
      <trkpt lat="42.2715960" lon="-6.5925820">
        <ele>964.1</ele>
        <time>2014-10-01T08:59:52Z</time>
      </trkpt>
      <trkpt lat="42.2715530" lon="-6.5925930">
        <ele>964.5</ele>
        <time>2014-10-01T08:59:53Z</time>
      </trkpt>
      <trkpt lat="42.2715040" lon="-6.5926060">
        <ele>964.9</ele>
        <time>2014-10-01T08:59:54Z</time>
      </trkpt>
      <trkpt lat="42.2714600" lon="-6.5926140">
        <ele>965.3</ele>
        <time>2014-10-01T08:59:55Z</time>
      </trkpt>
      <trkpt lat="42.2714150" lon="-6.5926240">
        <ele>965.7</ele>
        <time>2014-10-01T08:59:56Z</time>
      </trkpt>
      <trkpt lat="42.2713750" lon="-6.5926410">
        <ele>966.0</ele>
        <time>2014-10-01T08:59:57Z</time>
      </trkpt>
      <trkpt lat="42.2713370" lon="-6.5926590">
        <ele>966.3</ele>
        <time>2014-10-01T08:59:58Z</time>
      </trkpt>
      <trkpt lat="42.2713000" lon="-6.5926770">
        <ele>966.6</ele>
        <time>2014-10-01T08:59:59Z</time>
      </trkpt>
      <trkpt lat="42.2712540" lon="-6.5926970">
        <ele>967.0</ele>
        <time>2014-10-01T09:00:00Z</time>
      </trkpt>
      <trkpt lat="42.2712080" lon="-6.5927100">
        <ele>967.3</ele>
        <time>2014-10-01T09:00:01Z</time>
      </trkpt>
      <trkpt lat="42.2711590" lon="-6.5927280">
        <ele>967.7</ele>
        <time>2014-10-01T09:00:02Z</time>
      </trkpt>
      <trkpt lat="42.2711090" lon="-6.5927470">
        <ele>968.1</ele>
        <time>2014-10-01T09:00:03Z</time>
      </trkpt>
      <trkpt lat="42.2710790" lon="-6.5927570">
        <ele>968.4</ele>
        <time>2014-10-01T09:00:04Z</time>
      </trkpt>
      <trkpt lat="42.2710350" lon="-6.5927660">
        <ele>968.7</ele>
        <time>2014-10-01T09:00:05Z</time>
      </trkpt>
      <trkpt lat="42.2709850" lon="-6.5927760">
        <ele>969.1</ele>
        <time>2014-10-01T09:00:06Z</time>
      </trkpt>
      <trkpt lat="42.2709370" lon="-6.5927870">
        <ele>969.3</ele>
        <time>2014-10-01T09:00:07Z</time>
      </trkpt>
      <trkpt lat="42.2708910" lon="-6.5927970">
        <ele>969.5</ele>
        <time>2014-10-01T09:00:08Z</time>
      </trkpt>
      <trkpt lat="42.2708460" lon="-6.5928060">
        <ele>969.2</ele>
        <time>2014-10-01T09:00:09Z</time>
      </trkpt>
      <trkpt lat="42.2708010" lon="-6.5928110">
        <ele>968.9</ele>
        <time>2014-10-01T09:00:10Z</time>
      </trkpt>
      <trkpt lat="42.2707570" lon="-6.5928140">
        <ele>968.7</ele>
        <time>2014-10-01T09:00:11Z</time>
      </trkpt>
      <trkpt lat="42.2707130" lon="-6.5928100">
        <ele>968.4</ele>
        <time>2014-10-01T09:00:12Z</time>
      </trkpt>
      <trkpt lat="42.2706730" lon="-6.5927990">
        <ele>968.2</ele>
        <time>2014-10-01T09:00:13Z</time>
      </trkpt>
      <trkpt lat="42.2706320" lon="-6.5927820">
        <ele>968.0</ele>
        <time>2014-10-01T09:00:14Z</time>
      </trkpt>
      <trkpt lat="42.2705940" lon="-6.5927620">
        <ele>967.9</ele>
        <time>2014-10-01T09:00:15Z</time>
      </trkpt>
      <trkpt lat="42.2705630" lon="-6.5927400">
        <ele>967.8</ele>
        <time>2014-10-01T09:00:16Z</time>
      </trkpt>
      <trkpt lat="42.2705300" lon="-6.5927130">
        <ele>967.6</ele>
        <time>2014-10-01T09:00:17Z</time>
      </trkpt>
      <trkpt lat="42.2704920" lon="-6.5926870">
        <ele>967.5</ele>
        <time>2014-10-01T09:00:18Z</time>
      </trkpt>
      <trkpt lat="42.2704620" lon="-6.5926610">
        <ele>967.4</ele>
        <time>2014-10-01T09:00:19Z</time>
      </trkpt>
      <trkpt lat="42.2704250" lon="-6.5926370">
        <ele>967.3</ele>
        <time>2014-10-01T09:00:20Z</time>
      </trkpt>
      <trkpt lat="42.2703990" lon="-6.5926200">
        <ele>967.2</ele>
        <time>2014-10-01T09:00:21Z</time>
      </trkpt>
      <trkpt lat="42.2703590" lon="-6.5925990">
        <ele>967.1</ele>
        <time>2014-10-01T09:00:22Z</time>
      </trkpt>
      <trkpt lat="42.2703130" lon="-6.5925750">
        <ele>967.0</ele>
        <time>2014-10-01T09:00:23Z</time>
      </trkpt>
      <trkpt lat="42.2702760" lon="-6.5925550">
        <ele>966.8</ele>
        <time>2014-10-01T09:00:24Z</time>
      </trkpt>
      <trkpt lat="42.2702390" lon="-6.5925370">
        <ele>966.7</ele>
        <time>2014-10-01T09:00:25Z</time>
      </trkpt>
      <trkpt lat="42.2702070" lon="-6.5925230">
        <ele>966.6</ele>
        <time>2014-10-01T09:00:26Z</time>
      </trkpt>
      <trkpt lat="42.2701700" lon="-6.5925100">
        <ele>966.4</ele>
        <time>2014-10-01T09:00:27Z</time>
      </trkpt>
      <trkpt lat="42.2701370" lon="-6.5925080">
        <ele>966.3</ele>
        <time>2014-10-01T09:00:28Z</time>
      </trkpt>
      <trkpt lat="42.2700980" lon="-6.5925180">
        <ele>966.1</ele>
        <time>2014-10-01T09:00:29Z</time>
      </trkpt>
      <trkpt lat="42.2700570" lon="-6.5925290">
        <ele>965.8</ele>
        <time>2014-10-01T09:00:30Z</time>
      </trkpt>
      <trkpt lat="42.2700200" lon="-6.5925400">
        <ele>965.5</ele>
        <time>2014-10-01T09:00:31Z</time>
      </trkpt>
      <trkpt lat="42.2699800" lon="-6.5925560">
        <ele>965.1</ele>
        <time>2014-10-01T09:00:32Z</time>
      </trkpt>
      <trkpt lat="42.2699440" lon="-6.5925740">
        <ele>964.6</ele>
        <time>2014-10-01T09:00:33Z</time>
      </trkpt>
      <trkpt lat="42.2699130" lon="-6.5925910">
        <ele>964.2</ele>
        <time>2014-10-01T09:00:34Z</time>
      </trkpt>
      <trkpt lat="42.2698800" lon="-6.5926100">
        <ele>963.9</ele>
        <time>2014-10-01T09:00:35Z</time>
      </trkpt>
      <trkpt lat="42.2698640" lon="-6.5926470">
        <ele>963.8</ele>
        <time>2014-10-01T09:00:36Z</time>
      </trkpt>
      <trkpt lat="42.2698500" lon="-6.5927000">
        <ele>963.6</ele>
        <time>2014-10-01T09:00:37Z</time>
      </trkpt>
      <trkpt lat="42.2698320" lon="-6.5927880">
        <ele>963.2</ele>
        <time>2014-10-01T09:00:38Z</time>
      </trkpt>
      <trkpt lat="42.2698240" lon="-6.5928900">
        <ele>962.8</ele>
        <time>2014-10-01T09:00:39Z</time>
      </trkpt>
      <trkpt lat="42.2698190" lon="-6.5930010">
        <ele>962.3</ele>
        <time>2014-10-01T09:00:40Z</time>
      </trkpt>
      <trkpt lat="42.2698160" lon="-6.5931270">
        <ele>961.9</ele>
        <time>2014-10-01T09:00:41Z</time>
      </trkpt>
      <trkpt lat="42.2698220" lon="-6.5932400">
        <ele>961.7</ele>
        <time>2014-10-01T09:00:42Z</time>
      </trkpt>
      <trkpt lat="42.2698290" lon="-6.5933430">
        <ele>961.4</ele>
        <time>2014-10-01T09:00:43Z</time>
      </trkpt>
      <trkpt lat="42.2698440" lon="-6.5934340">
        <ele>961.2</ele>
        <time>2014-10-01T09:00:44Z</time>
      </trkpt>
      <trkpt lat="42.2698610" lon="-6.5935410">
        <ele>960.9</ele>
        <time>2014-10-01T09:00:45Z</time>
      </trkpt>
      <trkpt lat="42.2698970" lon="-6.5936580">
        <ele>960.7</ele>
        <time>2014-10-01T09:00:46Z</time>
      </trkpt>
      <trkpt lat="42.2699340" lon="-6.5937760">
        <ele>960.7</ele>
        <time>2014-10-01T09:00:47Z</time>
      </trkpt>
      <trkpt lat="42.2699720" lon="-6.5938820">
        <ele>960.8</ele>
        <time>2014-10-01T09:00:48Z</time>
      </trkpt>
      <trkpt lat="42.2700120" lon="-6.5939840">
        <ele>960.9</ele>
        <time>2014-10-01T09:00:49Z</time>
      </trkpt>
      <trkpt lat="42.2700520" lon="-6.5940840">
        <ele>961.1</ele>
        <time>2014-10-01T09:00:50Z</time>
      </trkpt>
      <trkpt lat="42.2700890" lon="-6.5941990">
        <ele>961.4</ele>
        <time>2014-10-01T09:00:51Z</time>
      </trkpt>
      <trkpt lat="42.2701210" lon="-6.5943150">
        <ele>961.8</ele>
        <time>2014-10-01T09:00:52Z</time>
      </trkpt>
      <trkpt lat="42.2701310" lon="-6.5944280">
        <ele>962.2</ele>
        <time>2014-10-01T09:00:53Z</time>
      </trkpt>
      <trkpt lat="42.2701410" lon="-6.5945370">
        <ele>962.6</ele>
        <time>2014-10-01T09:00:54Z</time>
      </trkpt>
      <trkpt lat="42.2701530" lon="-6.5946460">
        <ele>963.1</ele>
        <time>2014-10-01T09:00:55Z</time>
      </trkpt>
      <trkpt lat="42.2701630" lon="-6.5947500">
        <ele>963.6</ele>
        <time>2014-10-01T09:00:56Z</time>
      </trkpt>
      <trkpt lat="42.2701730" lon="-6.5948530">
        <ele>964.1</ele>
        <time>2014-10-01T09:00:57Z</time>
      </trkpt>
      <trkpt lat="42.2701840" lon="-6.5949450">
        <ele>964.6</ele>
        <time>2014-10-01T09:00:58Z</time>
      </trkpt>
      <trkpt lat="42.2701940" lon="-6.5950380">
        <ele>965.0</ele>
        <time>2014-10-01T09:00:59Z</time>
      </trkpt>
      <trkpt lat="42.2702000" lon="-6.5951260">
        <ele>965.4</ele>
        <time>2014-10-01T09:01:00Z</time>
      </trkpt>
      <trkpt lat="42.2702000" lon="-6.5952120">
        <ele>965.8</ele>
        <time>2014-10-01T09:01:01Z</time>
      </trkpt>
      <trkpt lat="42.2702020" lon="-6.5952970">
        <ele>966.2</ele>
        <time>2014-10-01T09:01:02Z</time>
      </trkpt>
      <trkpt lat="42.2702130" lon="-6.5953710">
        <ele>966.4</ele>
        <time>2014-10-01T09:01:03Z</time>
      </trkpt>
      <trkpt lat="42.2702250" lon="-6.5954380">
        <ele>966.6</ele>
        <time>2014-10-01T09:01:04Z</time>
      </trkpt>
      <trkpt lat="42.2702380" lon="-6.5954960">
        <ele>966.8</ele>
        <time>2014-10-01T09:01:05Z</time>
      </trkpt>
      <trkpt lat="42.2702530" lon="-6.5955540">
        <ele>966.9</ele>
        <time>2014-10-01T09:01:06Z</time>
      </trkpt>
      <trkpt lat="42.2702720" lon="-6.5956280">
        <ele>967.1</ele>
        <time>2014-10-01T09:01:07Z</time>
      </trkpt>
      <trkpt lat="42.2702970" lon="-6.5957040">
        <ele>967.1</ele>
        <time>2014-10-01T09:01:08Z</time>
      </trkpt>
      <trkpt lat="42.2703200" lon="-6.5957810">
        <ele>967.2</ele>
        <time>2014-10-01T09:01:09Z</time>
      </trkpt>
      <trkpt lat="42.2703460" lon="-6.5958600">
        <ele>967.2</ele>
        <time>2014-10-01T09:01:10Z</time>
      </trkpt>
      <trkpt lat="42.2703710" lon="-6.5959500">
        <ele>967.2</ele>
        <time>2014-10-01T09:01:11Z</time>
      </trkpt>
      <trkpt lat="42.2703960" lon="-6.5960340">
        <ele>967.2</ele>
        <time>2014-10-01T09:01:12Z</time>
      </trkpt>
      <trkpt lat="42.2704190" lon="-6.5961220">
        <ele>967.1</ele>
        <time>2014-10-01T09:01:13Z</time>
      </trkpt>
      <trkpt lat="42.2704460" lon="-6.5962080">
        <ele>967.0</ele>
        <time>2014-10-01T09:01:14Z</time>
      </trkpt>
      <trkpt lat="42.2704750" lon="-6.5962950">
        <ele>966.9</ele>
        <time>2014-10-01T09:01:15Z</time>
      </trkpt>
      <trkpt lat="42.2705120" lon="-6.5963850">
        <ele>966.9</ele>
        <time>2014-10-01T09:01:16Z</time>
      </trkpt>
      <trkpt lat="42.2705570" lon="-6.5964730">
        <ele>967.0</ele>
        <time>2014-10-01T09:01:17Z</time>
      </trkpt>
      <trkpt lat="42.2706200" lon="-6.5965490">
        <ele>967.0</ele>
        <time>2014-10-01T09:01:18Z</time>
      </trkpt>
      <trkpt lat="42.2706810" lon="-6.5966250">
        <ele>967.0</ele>
        <time>2014-10-01T09:01:19Z</time>
      </trkpt>
      <trkpt lat="42.2707370" lon="-6.5967070">
        <ele>967.0</ele>
        <time>2014-10-01T09:01:20Z</time>
      </trkpt>
      <trkpt lat="42.2707940" lon="-6.5967960">
        <ele>966.9</ele>
        <time>2014-10-01T09:01:21Z</time>
      </trkpt>
      <trkpt lat="42.2708430" lon="-6.5968950">
        <ele>966.7</ele>
        <time>2014-10-01T09:01:22Z</time>
      </trkpt>
      <trkpt lat="42.2708740" lon="-6.5970050">
        <ele>966.4</ele>
        <time>2014-10-01T09:01:23Z</time>
      </trkpt>
      <trkpt lat="42.2708880" lon="-6.5971270">
        <ele>966.0</ele>
        <time>2014-10-01T09:01:24Z</time>
      </trkpt>
      <trkpt lat="42.2709010" lon="-6.5972580">
        <ele>965.4</ele>
        <time>2014-10-01T09:01:25Z</time>
      </trkpt>
      <trkpt lat="42.2709110" lon="-6.5973890">
        <ele>964.7</ele>
        <time>2014-10-01T09:01:26Z</time>
      </trkpt>
      <trkpt lat="42.2709050" lon="-6.5975100">
        <ele>964.0</ele>
        <time>2014-10-01T09:01:27Z</time>
      </trkpt>
      <trkpt lat="42.2708500" lon="-6.5976500">
        <ele>963.1</ele>
        <time>2014-10-01T09:01:28Z</time>
      </trkpt>
      <trkpt lat="42.2707880" lon="-6.5977920">
        <ele>962.2</ele>
        <time>2014-10-01T09:01:29Z</time>
      </trkpt>
      <trkpt lat="42.2706990" lon="-6.5979160">
        <ele>961.3</ele>
        <time>2014-10-01T09:01:30Z</time>
      </trkpt>
      <trkpt lat="42.2706120" lon="-6.5980390">
        <ele>960.6</ele>
        <time>2014-10-01T09:01:31Z</time>
      </trkpt>
      <trkpt lat="42.2705620" lon="-6.5981650">
        <ele>960.1</ele>
        <time>2014-10-01T09:01:32Z</time>
      </trkpt>
      <trkpt lat="42.2705070" lon="-6.5983070">
        <ele>959.6</ele>
        <time>2014-10-01T09:01:33Z</time>
      </trkpt>
      <trkpt lat="42.2704480" lon="-6.5984540">
        <ele>959.3</ele>
        <time>2014-10-01T09:01:34Z</time>
      </trkpt>
      <trkpt lat="42.2703970" lon="-6.5985980">
        <ele>959.2</ele>
        <time>2014-10-01T09:01:35Z</time>
      </trkpt>
      <trkpt lat="42.2703470" lon="-6.5987490">
        <ele>959.1</ele>
        <time>2014-10-01T09:01:36Z</time>
      </trkpt>
      <trkpt lat="42.2702930" lon="-6.5988960">
        <ele>959.0</ele>
        <time>2014-10-01T09:01:37Z</time>
      </trkpt>
      <trkpt lat="42.2702300" lon="-6.5990470">
        <ele>958.9</ele>
        <time>2014-10-01T09:01:38Z</time>
      </trkpt>
      <trkpt lat="42.2701570" lon="-6.5991900">
        <ele>958.6</ele>
        <time>2014-10-01T09:01:39Z</time>
      </trkpt>
      <trkpt lat="42.2700780" lon="-6.5993280">
        <ele>958.4</ele>
        <time>2014-10-01T09:01:40Z</time>
      </trkpt>
      <trkpt lat="42.2699980" lon="-6.5994540">
        <ele>958.3</ele>
        <time>2014-10-01T09:01:41Z</time>
      </trkpt>
      <trkpt lat="42.2699010" lon="-6.5995500">
        <ele>958.2</ele>
        <time>2014-10-01T09:01:42Z</time>
      </trkpt>
      <trkpt lat="42.2698060" lon="-6.5996420">
        <ele>958.1</ele>
        <time>2014-10-01T09:01:43Z</time>
      </trkpt>
      <trkpt lat="42.2697070" lon="-6.5997260">
        <ele>958.1</ele>
        <time>2014-10-01T09:01:44Z</time>
      </trkpt>
      <trkpt lat="42.2696070" lon="-6.5998050">
        <ele>957.9</ele>
        <time>2014-10-01T09:01:45Z</time>
      </trkpt>
      <trkpt lat="42.2695120" lon="-6.5998780">
        <ele>957.4</ele>
        <time>2014-10-01T09:01:46Z</time>
      </trkpt>
      <trkpt lat="42.2694180" lon="-6.5999420">
        <ele>957.0</ele>
        <time>2014-10-01T09:01:47Z</time>
      </trkpt>
      <trkpt lat="42.2693180" lon="-6.5999930">
        <ele>956.8</ele>
        <time>2014-10-01T09:01:48Z</time>
      </trkpt>
      <trkpt lat="42.2692090" lon="-6.6000520">
        <ele>956.2</ele>
        <time>2014-10-01T09:01:49Z</time>
      </trkpt>
      <trkpt lat="42.2690970" lon="-6.6001050">
        <ele>955.2</ele>
        <time>2014-10-01T09:01:50Z</time>
      </trkpt>
      <trkpt lat="42.2689920" lon="-6.6001570">
        <ele>954.4</ele>
        <time>2014-10-01T09:01:51Z</time>
      </trkpt>
      <trkpt lat="42.2688940" lon="-6.6001950">
        <ele>953.7</ele>
        <time>2014-10-01T09:01:52Z</time>
      </trkpt>
      <trkpt lat="42.2687950" lon="-6.6002310">
        <ele>953.1</ele>
        <time>2014-10-01T09:01:53Z</time>
      </trkpt>
      <trkpt lat="42.2686860" lon="-6.6002660">
        <ele>952.3</ele>
        <time>2014-10-01T09:01:54Z</time>
      </trkpt>
      <trkpt lat="42.2685760" lon="-6.6003080">
        <ele>951.5</ele>
        <time>2014-10-01T09:01:55Z</time>
      </trkpt>
      <trkpt lat="42.2684800" lon="-6.6003420">
        <ele>950.8</ele>
        <time>2014-10-01T09:01:56Z</time>
      </trkpt>
      <trkpt lat="42.2683840" lon="-6.6003790">
        <ele>950.1</ele>
        <time>2014-10-01T09:01:57Z</time>
      </trkpt>
      <trkpt lat="42.2682840" lon="-6.6004190">
        <ele>949.4</ele>
        <time>2014-10-01T09:01:58Z</time>
      </trkpt>
      <trkpt lat="42.2682020" lon="-6.6004980">
        <ele>949.0</ele>
        <time>2014-10-01T09:01:59Z</time>
      </trkpt>
      <trkpt lat="42.2681220" lon="-6.6005820">
        <ele>948.9</ele>
        <time>2014-10-01T09:02:00Z</time>
      </trkpt>
      <trkpt lat="42.2680460" lon="-6.6006750">
        <ele>948.8</ele>
        <time>2014-10-01T09:02:01Z</time>
      </trkpt>
      <trkpt lat="42.2679770" lon="-6.6007760">
        <ele>948.7</ele>
        <time>2014-10-01T09:02:02Z</time>
      </trkpt>
      <trkpt lat="42.2679140" lon="-6.6008810">
        <ele>948.6</ele>
        <time>2014-10-01T09:02:03Z</time>
      </trkpt>
      <trkpt lat="42.2678730" lon="-6.6009950">
        <ele>948.6</ele>
        <time>2014-10-01T09:02:04Z</time>
      </trkpt>
      <trkpt lat="42.2678290" lon="-6.6011160">
        <ele>948.6</ele>
        <time>2014-10-01T09:02:05Z</time>
      </trkpt>
      <trkpt lat="42.2677960" lon="-6.6012380">
        <ele>948.7</ele>
        <time>2014-10-01T09:02:06Z</time>
      </trkpt>
      <trkpt lat="42.2677700" lon="-6.6013670">
        <ele>948.9</ele>
        <time>2014-10-01T09:02:07Z</time>
      </trkpt>
      <trkpt lat="42.2677680" lon="-6.6014910">
        <ele>949.0</ele>
        <time>2014-10-01T09:02:08Z</time>
      </trkpt>
      <trkpt lat="42.2677680" lon="-6.6016130">
        <ele>949.1</ele>
        <time>2014-10-01T09:02:09Z</time>
      </trkpt>
      <trkpt lat="42.2677710" lon="-6.6017230">
        <ele>949.2</ele>
        <time>2014-10-01T09:02:10Z</time>
      </trkpt>
      <trkpt lat="42.2677800" lon="-6.6018410">
        <ele>949.3</ele>
        <time>2014-10-01T09:02:11Z</time>
      </trkpt>
      <trkpt lat="42.2677980" lon="-6.6019690">
        <ele>949.5</ele>
        <time>2014-10-01T09:02:12Z</time>
      </trkpt>
      <trkpt lat="42.2678110" lon="-6.6020970">
        <ele>949.7</ele>
        <time>2014-10-01T09:02:13Z</time>
      </trkpt>
      <trkpt lat="42.2678170" lon="-6.6022220">
        <ele>949.8</ele>
        <time>2014-10-01T09:02:14Z</time>
      </trkpt>
      <trkpt lat="42.2678170" lon="-6.6023440">
        <ele>950.0</ele>
        <time>2014-10-01T09:02:15Z</time>
      </trkpt>
      <trkpt lat="42.2678100" lon="-6.6024540">
        <ele>950.2</ele>
        <time>2014-10-01T09:02:16Z</time>
      </trkpt>
      <trkpt lat="42.2677950" lon="-6.6025630">
        <ele>950.5</ele>
        <time>2014-10-01T09:02:17Z</time>
      </trkpt>
      <trkpt lat="42.2677750" lon="-6.6026660">
        <ele>950.7</ele>
        <time>2014-10-01T09:02:18Z</time>
      </trkpt>
      <trkpt lat="42.2677520" lon="-6.6027630">
        <ele>951.0</ele>
        <time>2014-10-01T09:02:19Z</time>
      </trkpt>
      <trkpt lat="42.2677250" lon="-6.6028560">
        <ele>951.3</ele>
        <time>2014-10-01T09:02:20Z</time>
      </trkpt>
      <trkpt lat="42.2676950" lon="-6.6029470">
        <ele>951.7</ele>
        <time>2014-10-01T09:02:21Z</time>
      </trkpt>
      <trkpt lat="42.2676660" lon="-6.6030350">
        <ele>952.2</ele>
        <time>2014-10-01T09:02:22Z</time>
      </trkpt>
      <trkpt lat="42.2676310" lon="-6.6031350">
        <ele>952.7</ele>
        <time>2014-10-01T09:02:23Z</time>
      </trkpt>
      <trkpt lat="42.2675990" lon="-6.6032260">
        <ele>953.2</ele>
        <time>2014-10-01T09:02:24Z</time>
      </trkpt>
      <trkpt lat="42.2675660" lon="-6.6033210">
        <ele>953.7</ele>
        <time>2014-10-01T09:02:25Z</time>
      </trkpt>
      <trkpt lat="42.2675370" lon="-6.6034050">
        <ele>954.1</ele>
        <time>2014-10-01T09:02:26Z</time>
      </trkpt>
      <trkpt lat="42.2675060" lon="-6.6034960">
        <ele>954.6</ele>
        <time>2014-10-01T09:02:27Z</time>
      </trkpt>
      <trkpt lat="42.2674740" lon="-6.6035900">
        <ele>955.0</ele>
        <time>2014-10-01T09:02:28Z</time>
      </trkpt>
      <trkpt lat="42.2674440" lon="-6.6036700">
        <ele>955.4</ele>
        <time>2014-10-01T09:02:29Z</time>
      </trkpt>
      <trkpt lat="42.2674130" lon="-6.6037450">
        <ele>955.8</ele>
        <time>2014-10-01T09:02:30Z</time>
      </trkpt>
      <trkpt lat="42.2673790" lon="-6.6038210">
        <ele>956.2</ele>
        <time>2014-10-01T09:02:31Z</time>
      </trkpt>
      <trkpt lat="42.2673480" lon="-6.6039000">
        <ele>956.6</ele>
        <time>2014-10-01T09:02:32Z</time>
      </trkpt>
      <trkpt lat="42.2673120" lon="-6.6039860">
        <ele>956.8</ele>
        <time>2014-10-01T09:02:33Z</time>
      </trkpt>
      <trkpt lat="42.2672770" lon="-6.6040640">
        <ele>957.0</ele>
        <time>2014-10-01T09:02:34Z</time>
      </trkpt>
      <trkpt lat="42.2672370" lon="-6.6041420">
        <ele>957.1</ele>
        <time>2014-10-01T09:02:35Z</time>
      </trkpt>
      <trkpt lat="42.2671950" lon="-6.6042250">
        <ele>957.4</ele>
        <time>2014-10-01T09:02:36Z</time>
      </trkpt>
      <trkpt lat="42.2671530" lon="-6.6043030">
        <ele>957.6</ele>
        <time>2014-10-01T09:02:37Z</time>
      </trkpt>
      <trkpt lat="42.2671100" lon="-6.6043840">
        <ele>957.7</ele>
        <time>2014-10-01T09:02:38Z</time>
      </trkpt>
      <trkpt lat="42.2670670" lon="-6.6044560">
        <ele>957.8</ele>
        <time>2014-10-01T09:02:39Z</time>
      </trkpt>
      <trkpt lat="42.2670240" lon="-6.6045330">
        <ele>957.7</ele>
        <time>2014-10-01T09:02:40Z</time>
      </trkpt>
      <trkpt lat="42.2669750" lon="-6.6046110">
        <ele>957.2</ele>
        <time>2014-10-01T09:02:41Z</time>
      </trkpt>
      <trkpt lat="42.2669270" lon="-6.6046900">
        <ele>956.6</ele>
        <time>2014-10-01T09:02:42Z</time>
      </trkpt>
      <trkpt lat="42.2668800" lon="-6.6047610">
        <ele>956.6</ele>
        <time>2014-10-01T09:02:43Z</time>
      </trkpt>
      <trkpt lat="42.2668270" lon="-6.6048350">
        <ele>956.6</ele>
        <time>2014-10-01T09:02:44Z</time>
      </trkpt>
      <trkpt lat="42.2667780" lon="-6.6049090">
        <ele>956.6</ele>
        <time>2014-10-01T09:02:45Z</time>
      </trkpt>
      <trkpt lat="42.2667250" lon="-6.6049810">
        <ele>956.7</ele>
        <time>2014-10-01T09:02:46Z</time>
      </trkpt>
      <trkpt lat="42.2666770" lon="-6.6050550">
        <ele>956.9</ele>
        <time>2014-10-01T09:02:47Z</time>
      </trkpt>
      <trkpt lat="42.2666280" lon="-6.6051370">
        <ele>957.0</ele>
        <time>2014-10-01T09:02:48Z</time>
      </trkpt>
      <trkpt lat="42.2665780" lon="-6.6052120">
        <ele>957.1</ele>
        <time>2014-10-01T09:02:49Z</time>
      </trkpt>
      <trkpt lat="42.2665320" lon="-6.6052720">
        <ele>957.2</ele>
        <time>2014-10-01T09:02:50Z</time>
      </trkpt>
      <trkpt lat="42.2664910" lon="-6.6053320">
        <ele>957.3</ele>
        <time>2014-10-01T09:02:51Z</time>
      </trkpt>
      <trkpt lat="42.2664400" lon="-6.6053920">
        <ele>957.4</ele>
        <time>2014-10-01T09:02:52Z</time>
      </trkpt>
      <trkpt lat="42.2663830" lon="-6.6054600">
        <ele>957.4</ele>
        <time>2014-10-01T09:02:53Z</time>
      </trkpt>
      <trkpt lat="42.2663310" lon="-6.6055270">
        <ele>957.5</ele>
        <time>2014-10-01T09:02:54Z</time>
      </trkpt>
      <trkpt lat="42.2662720" lon="-6.6055980">
        <ele>957.6</ele>
        <time>2014-10-01T09:02:55Z</time>
      </trkpt>
      <trkpt lat="42.2662110" lon="-6.6056670">
        <ele>957.7</ele>
        <time>2014-10-01T09:02:56Z</time>
      </trkpt>
      <trkpt lat="42.2661550" lon="-6.6057320">
        <ele>957.7</ele>
        <time>2014-10-01T09:02:57Z</time>
      </trkpt>
      <trkpt lat="42.2661010" lon="-6.6057970">
        <ele>957.6</ele>
        <time>2014-10-01T09:02:58Z</time>
      </trkpt>
      <trkpt lat="42.2660520" lon="-6.6058640">
        <ele>957.5</ele>
        <time>2014-10-01T09:02:59Z</time>
      </trkpt>
      <trkpt lat="42.2660030" lon="-6.6059290">
        <ele>957.4</ele>
        <time>2014-10-01T09:03:00Z</time>
      </trkpt>
      <trkpt lat="42.2659570" lon="-6.6059930">
        <ele>957.3</ele>
        <time>2014-10-01T09:03:01Z</time>
      </trkpt>
      <trkpt lat="42.2659120" lon="-6.6060620">
        <ele>957.2</ele>
        <time>2014-10-01T09:03:02Z</time>
      </trkpt>
      <trkpt lat="42.2658680" lon="-6.6061370">
        <ele>957.2</ele>
        <time>2014-10-01T09:03:03Z</time>
      </trkpt>
      <trkpt lat="42.2658270" lon="-6.6062140">
        <ele>957.2</ele>
        <time>2014-10-01T09:03:04Z</time>
      </trkpt>
      <trkpt lat="42.2657910" lon="-6.6062900">
        <ele>957.3</ele>
        <time>2014-10-01T09:03:05Z</time>
      </trkpt>
      <trkpt lat="42.2657600" lon="-6.6063660">
        <ele>957.4</ele>
        <time>2014-10-01T09:03:06Z</time>
      </trkpt>
      <trkpt lat="42.2657350" lon="-6.6064540">
        <ele>957.5</ele>
        <time>2014-10-01T09:03:07Z</time>
      </trkpt>
      <trkpt lat="42.2657060" lon="-6.6065480">
        <ele>957.6</ele>
        <time>2014-10-01T09:03:08Z</time>
      </trkpt>
      <trkpt lat="42.2656800" lon="-6.6066360">
        <ele>957.7</ele>
        <time>2014-10-01T09:03:09Z</time>
      </trkpt>
      <trkpt lat="42.2656570" lon="-6.6067150">
        <ele>957.8</ele>
        <time>2014-10-01T09:03:10Z</time>
      </trkpt>
      <trkpt lat="42.2656330" lon="-6.6068010">
        <ele>958.0</ele>
        <time>2014-10-01T09:03:11Z</time>
      </trkpt>
      <trkpt lat="42.2656120" lon="-6.6068870">
        <ele>958.3</ele>
        <time>2014-10-01T09:03:12Z</time>
      </trkpt>
      <trkpt lat="42.2655940" lon="-6.6069690">
        <ele>958.6</ele>
        <time>2014-10-01T09:03:13Z</time>
      </trkpt>
      <trkpt lat="42.2655790" lon="-6.6070460">
        <ele>958.8</ele>
        <time>2014-10-01T09:03:14Z</time>
      </trkpt>
      <trkpt lat="42.2655730" lon="-6.6071240">
        <ele>959.1</ele>
        <time>2014-10-01T09:03:15Z</time>
      </trkpt>
      <trkpt lat="42.2655630" lon="-6.6072240">
        <ele>959.5</ele>
        <time>2014-10-01T09:03:16Z</time>
      </trkpt>
      <trkpt lat="42.2655490" lon="-6.6073230">
        <ele>959.8</ele>
        <time>2014-10-01T09:03:17Z</time>
      </trkpt>
      <trkpt lat="42.2655320" lon="-6.6074190">
        <ele>959.9</ele>
        <time>2014-10-01T09:03:18Z</time>
      </trkpt>
      <trkpt lat="42.2654990" lon="-6.6074980">
        <ele>960.0</ele>
        <time>2014-10-01T09:03:19Z</time>
      </trkpt>
      <trkpt lat="42.2654630" lon="-6.6075790">
        <ele>959.9</ele>
        <time>2014-10-01T09:03:20Z</time>
      </trkpt>
      <trkpt lat="42.2654260" lon="-6.6076610">
        <ele>959.9</ele>
        <time>2014-10-01T09:03:21Z</time>
      </trkpt>
      <trkpt lat="42.2653890" lon="-6.6077400">
        <ele>959.8</ele>
        <time>2014-10-01T09:03:22Z</time>
      </trkpt>
      <trkpt lat="42.2653520" lon="-6.6078090">
        <ele>959.9</ele>
        <time>2014-10-01T09:03:23Z</time>
      </trkpt>
      <trkpt lat="42.2653110" lon="-6.6078800">
        <ele>960.0</ele>
        <time>2014-10-01T09:03:24Z</time>
      </trkpt>
      <trkpt lat="42.2652650" lon="-6.6079480">
        <ele>960.1</ele>
        <time>2014-10-01T09:03:25Z</time>
      </trkpt>
      <trkpt lat="42.2652120" lon="-6.6080160">
        <ele>960.2</ele>
        <time>2014-10-01T09:03:26Z</time>
      </trkpt>
      <trkpt lat="42.2651580" lon="-6.6080890">
        <ele>960.3</ele>
        <time>2014-10-01T09:03:27Z</time>
      </trkpt>
      <trkpt lat="42.2651060" lon="-6.6081630">
        <ele>960.3</ele>
        <time>2014-10-01T09:03:28Z</time>
      </trkpt>
      <trkpt lat="42.2650480" lon="-6.6082370">
        <ele>960.3</ele>
        <time>2014-10-01T09:03:29Z</time>
      </trkpt>
      <trkpt lat="42.2649950" lon="-6.6083020">
        <ele>960.2</ele>
        <time>2014-10-01T09:03:30Z</time>
      </trkpt>
      <trkpt lat="42.2649350" lon="-6.6083560">
        <ele>960.0</ele>
        <time>2014-10-01T09:03:31Z</time>
      </trkpt>
      <trkpt lat="42.2648710" lon="-6.6084160">
        <ele>959.7</ele>
        <time>2014-10-01T09:03:32Z</time>
      </trkpt>
      <trkpt lat="42.2648100" lon="-6.6084640">
        <ele>959.4</ele>
        <time>2014-10-01T09:03:33Z</time>
      </trkpt>
      <trkpt lat="42.2647460" lon="-6.6085140">
        <ele>959.1</ele>
        <time>2014-10-01T09:03:34Z</time>
      </trkpt>
      <trkpt lat="42.2646680" lon="-6.6085540">
        <ele>958.8</ele>
        <time>2014-10-01T09:03:35Z</time>
      </trkpt>
      <trkpt lat="42.2645840" lon="-6.6085960">
        <ele>958.3</ele>
        <time>2014-10-01T09:03:36Z</time>
      </trkpt>
      <trkpt lat="42.2645100" lon="-6.6086340">
        <ele>957.9</ele>
        <time>2014-10-01T09:03:37Z</time>
      </trkpt>
      <trkpt lat="42.2644330" lon="-6.6086740">
        <ele>957.4</ele>
        <time>2014-10-01T09:03:38Z</time>
      </trkpt>
      <trkpt lat="42.2643570" lon="-6.6087130">
        <ele>957.1</ele>
        <time>2014-10-01T09:03:39Z</time>
      </trkpt>
      <trkpt lat="42.2642820" lon="-6.6087500">
        <ele>956.8</ele>
        <time>2014-10-01T09:03:40Z</time>
      </trkpt>
      <trkpt lat="42.2642080" lon="-6.6087820">
        <ele>956.5</ele>
        <time>2014-10-01T09:03:41Z</time>
      </trkpt>
      <trkpt lat="42.2641330" lon="-6.6088090">
        <ele>956.2</ele>
        <time>2014-10-01T09:03:42Z</time>
      </trkpt>
      <trkpt lat="42.2640560" lon="-6.6088330">
        <ele>956.0</ele>
        <time>2014-10-01T09:03:43Z</time>
      </trkpt>
      <trkpt lat="42.2639750" lon="-6.6088540">
        <ele>955.9</ele>
        <time>2014-10-01T09:03:44Z</time>
      </trkpt>
      <trkpt lat="42.2638910" lon="-6.6088820">
        <ele>955.8</ele>
        <time>2014-10-01T09:03:45Z</time>
      </trkpt>
      <trkpt lat="42.2638020" lon="-6.6089100">
        <ele>955.8</ele>
        <time>2014-10-01T09:03:46Z</time>
      </trkpt>
      <trkpt lat="42.2637320" lon="-6.6089640">
        <ele>955.9</ele>
        <time>2014-10-01T09:03:47Z</time>
      </trkpt>
      <trkpt lat="42.2636680" lon="-6.6090300">
        <ele>956.0</ele>
        <time>2014-10-01T09:03:48Z</time>
      </trkpt>
      <trkpt lat="42.2636120" lon="-6.6090980">
        <ele>956.3</ele>
        <time>2014-10-01T09:03:49Z</time>
      </trkpt>
      <trkpt lat="42.2635680" lon="-6.6091660">
        <ele>956.5</ele>
        <time>2014-10-01T09:03:50Z</time>
      </trkpt>
      <trkpt lat="42.2635310" lon="-6.6092520">
        <ele>956.9</ele>
        <time>2014-10-01T09:03:51Z</time>
      </trkpt>
      <trkpt lat="42.2635000" lon="-6.6093310">
        <ele>957.2</ele>
        <time>2014-10-01T09:03:52Z</time>
      </trkpt>
      <trkpt lat="42.2634680" lon="-6.6094150">
        <ele>957.6</ele>
        <time>2014-10-01T09:03:53Z</time>
      </trkpt>
      <trkpt lat="42.2634360" lon="-6.6095030">
        <ele>957.9</ele>
        <time>2014-10-01T09:03:54Z</time>
      </trkpt>
      <trkpt lat="42.2634030" lon="-6.6095980">
        <ele>958.1</ele>
        <time>2014-10-01T09:03:55Z</time>
      </trkpt>
      <trkpt lat="42.2633700" lon="-6.6096900">
        <ele>958.2</ele>
        <time>2014-10-01T09:03:56Z</time>
      </trkpt>
      <trkpt lat="42.2633380" lon="-6.6097840">
        <ele>958.2</ele>
        <time>2014-10-01T09:03:57Z</time>
      </trkpt>
      <trkpt lat="42.2633080" lon="-6.6098780">
        <ele>958.1</ele>
        <time>2014-10-01T09:03:58Z</time>
      </trkpt>
      <trkpt lat="42.2632800" lon="-6.6099640">
        <ele>958.1</ele>
        <time>2014-10-01T09:03:59Z</time>
      </trkpt>
      <trkpt lat="42.2632520" lon="-6.6100560">
        <ele>958.2</ele>
        <time>2014-10-01T09:04:00Z</time>
      </trkpt>
      <trkpt lat="42.2632230" lon="-6.6101550">
        <ele>958.2</ele>
        <time>2014-10-01T09:04:01Z</time>
      </trkpt>
      <trkpt lat="42.2631980" lon="-6.6102500">
        <ele>958.2</ele>
        <time>2014-10-01T09:04:02Z</time>
      </trkpt>
      <trkpt lat="42.2631730" lon="-6.6103490">
        <ele>958.2</ele>
        <time>2014-10-01T09:04:03Z</time>
      </trkpt>
      <trkpt lat="42.2631510" lon="-6.6104510">
        <ele>958.2</ele>
        <time>2014-10-01T09:04:04Z</time>
      </trkpt>
      <trkpt lat="42.2631290" lon="-6.6105510">
        <ele>958.2</ele>
        <time>2014-10-01T09:04:05Z</time>
      </trkpt>
      <trkpt lat="42.2631060" lon="-6.6106590">
        <ele>958.2</ele>
        <time>2014-10-01T09:04:06Z</time>
      </trkpt>
      <trkpt lat="42.2630900" lon="-6.6107480">
        <ele>958.3</ele>
        <time>2014-10-01T09:04:07Z</time>
      </trkpt>
      <trkpt lat="42.2630750" lon="-6.6108430">
        <ele>958.5</ele>
        <time>2014-10-01T09:04:08Z</time>
      </trkpt>
      <trkpt lat="42.2630620" lon="-6.6109420">
        <ele>958.7</ele>
        <time>2014-10-01T09:04:09Z</time>
      </trkpt>
      <trkpt lat="42.2630630" lon="-6.6110350">
        <ele>958.8</ele>
        <time>2014-10-01T09:04:10Z</time>
      </trkpt>
      <trkpt lat="42.2630650" lon="-6.6111320">
        <ele>959.1</ele>
        <time>2014-10-01T09:04:11Z</time>
      </trkpt>
      <trkpt lat="42.2630650" lon="-6.6112200">
        <ele>959.3</ele>
        <time>2014-10-01T09:04:12Z</time>
      </trkpt>
      <trkpt lat="42.2630660" lon="-6.6113170">
        <ele>959.7</ele>
        <time>2014-10-01T09:04:13Z</time>
      </trkpt>
      <trkpt lat="42.2630740" lon="-6.6114020">
        <ele>960.1</ele>
        <time>2014-10-01T09:04:14Z</time>
      </trkpt>
      <trkpt lat="42.2630840" lon="-6.6114890">
        <ele>960.4</ele>
        <time>2014-10-01T09:04:15Z</time>
      </trkpt>
      <trkpt lat="42.2630940" lon="-6.6115740">
        <ele>960.7</ele>
        <time>2014-10-01T09:04:16Z</time>
      </trkpt>
      <trkpt lat="42.2631060" lon="-6.6116590">
        <ele>961.0</ele>
        <time>2014-10-01T09:04:17Z</time>
      </trkpt>
      <trkpt lat="42.2631170" lon="-6.6117450">
        <ele>961.2</ele>
        <time>2014-10-01T09:04:18Z</time>
      </trkpt>
      <trkpt lat="42.2631310" lon="-6.6118300">
        <ele>961.4</ele>
        <time>2014-10-01T09:04:19Z</time>
      </trkpt>
      <trkpt lat="42.2631460" lon="-6.6119170">
        <ele>961.6</ele>
        <time>2014-10-01T09:04:20Z</time>
      </trkpt>
      <trkpt lat="42.2631620" lon="-6.6119950">
        <ele>961.8</ele>
        <time>2014-10-01T09:04:21Z</time>
      </trkpt>
      <trkpt lat="42.2631780" lon="-6.6120730">
        <ele>962.1</ele>
        <time>2014-10-01T09:04:22Z</time>
      </trkpt>
      <trkpt lat="42.2631960" lon="-6.6121550">
        <ele>962.4</ele>
        <time>2014-10-01T09:04:23Z</time>
      </trkpt>
      <trkpt lat="42.2632160" lon="-6.6122330">
        <ele>962.7</ele>
        <time>2014-10-01T09:04:24Z</time>
      </trkpt>
      <trkpt lat="42.2632370" lon="-6.6123080">
        <ele>963.1</ele>
        <time>2014-10-01T09:04:25Z</time>
      </trkpt>
      <trkpt lat="42.2632590" lon="-6.6123880">
        <ele>963.4</ele>
        <time>2014-10-01T09:04:26Z</time>
      </trkpt>
      <trkpt lat="42.2632810" lon="-6.6124700">
        <ele>963.8</ele>
        <time>2014-10-01T09:04:27Z</time>
      </trkpt>
      <trkpt lat="42.2633040" lon="-6.6125520">
        <ele>964.2</ele>
        <time>2014-10-01T09:04:28Z</time>
      </trkpt>
      <trkpt lat="42.2633240" lon="-6.6126330">
        <ele>964.6</ele>
        <time>2014-10-01T09:04:29Z</time>
      </trkpt>
      <trkpt lat="42.2633390" lon="-6.6127120">
        <ele>965.0</ele>
        <time>2014-10-01T09:04:30Z</time>
      </trkpt>
      <trkpt lat="42.2633540" lon="-6.6127880">
        <ele>965.4</ele>
        <time>2014-10-01T09:04:31Z</time>
      </trkpt>
      <trkpt lat="42.2633720" lon="-6.6128630">
        <ele>965.8</ele>
        <time>2014-10-01T09:04:32Z</time>
      </trkpt>
      <trkpt lat="42.2633890" lon="-6.6129380">
        <ele>966.1</ele>
        <time>2014-10-01T09:04:33Z</time>
      </trkpt>
      <trkpt lat="42.2634050" lon="-6.6130140">
        <ele>966.4</ele>
        <time>2014-10-01T09:04:34Z</time>
      </trkpt>
      <trkpt lat="42.2634180" lon="-6.6130970">
        <ele>966.8</ele>
        <time>2014-10-01T09:04:35Z</time>
      </trkpt>
      <trkpt lat="42.2634310" lon="-6.6131840">
        <ele>967.2</ele>
        <time>2014-10-01T09:04:36Z</time>
      </trkpt>
      <trkpt lat="42.2634400" lon="-6.6132610">
        <ele>967.5</ele>
        <time>2014-10-01T09:04:37Z</time>
      </trkpt>
      <trkpt lat="42.2634450" lon="-6.6133340">
        <ele>967.8</ele>
        <time>2014-10-01T09:04:38Z</time>
      </trkpt>
      <trkpt lat="42.2634480" lon="-6.6134100">
        <ele>968.1</ele>
        <time>2014-10-01T09:04:39Z</time>
      </trkpt>
      <trkpt lat="42.2634470" lon="-6.6134880">
        <ele>968.5</ele>
        <time>2014-10-01T09:04:40Z</time>
      </trkpt>
      <trkpt lat="42.2634440" lon="-6.6135670">
        <ele>968.9</ele>
        <time>2014-10-01T09:04:41Z</time>
      </trkpt>
      <trkpt lat="42.2634400" lon="-6.6136460">
        <ele>969.3</ele>
        <time>2014-10-01T09:04:42Z</time>
      </trkpt>
      <trkpt lat="42.2634330" lon="-6.6137210">
        <ele>969.6</ele>
        <time>2014-10-01T09:04:43Z</time>
      </trkpt>
      <trkpt lat="42.2634240" lon="-6.6137920">
        <ele>969.9</ele>
        <time>2014-10-01T09:04:44Z</time>
      </trkpt>
      <trkpt lat="42.2634100" lon="-6.6138560">
        <ele>970.1</ele>
        <time>2014-10-01T09:04:45Z</time>
      </trkpt>
      <trkpt lat="42.2633980" lon="-6.6139150">
        <ele>970.3</ele>
        <time>2014-10-01T09:04:46Z</time>
      </trkpt>
      <trkpt lat="42.2633870" lon="-6.6139670">
        <ele>970.4</ele>
        <time>2014-10-01T09:04:47Z</time>
      </trkpt>
      <trkpt lat="42.2633750" lon="-6.6140220">
        <ele>970.5</ele>
        <time>2014-10-01T09:04:48Z</time>
      </trkpt>
      <trkpt lat="42.2633630" lon="-6.6140740">
        <ele>970.7</ele>
        <time>2014-10-01T09:04:49Z</time>
      </trkpt>
      <trkpt lat="42.2633470" lon="-6.6141360">
        <ele>970.7</ele>
        <time>2014-10-01T09:04:50Z</time>
      </trkpt>
      <trkpt lat="42.2633310" lon="-6.6141930">
        <ele>970.7</ele>
        <time>2014-10-01T09:04:51Z</time>
      </trkpt>
      <trkpt lat="42.2633130" lon="-6.6142480">
        <ele>970.6</ele>
        <time>2014-10-01T09:04:52Z</time>
      </trkpt>
      <trkpt lat="42.2632900" lon="-6.6143120">
        <ele>970.4</ele>
        <time>2014-10-01T09:04:53Z</time>
      </trkpt>
      <trkpt lat="42.2632600" lon="-6.6143850">
        <ele>970.1</ele>
        <time>2014-10-01T09:04:54Z</time>
      </trkpt>
      <trkpt lat="42.2632260" lon="-6.6144600">
        <ele>969.8</ele>
        <time>2014-10-01T09:04:55Z</time>
      </trkpt>
      <trkpt lat="42.2631890" lon="-6.6145300">
        <ele>969.4</ele>
        <time>2014-10-01T09:04:56Z</time>
      </trkpt>
      <trkpt lat="42.2631470" lon="-6.6146000">
        <ele>968.9</ele>
        <time>2014-10-01T09:04:57Z</time>
      </trkpt>
      <trkpt lat="42.2631050" lon="-6.6146700">
        <ele>968.4</ele>
        <time>2014-10-01T09:04:58Z</time>
      </trkpt>
      <trkpt lat="42.2630610" lon="-6.6147380">
        <ele>967.8</ele>
        <time>2014-10-01T09:04:59Z</time>
      </trkpt>
      <trkpt lat="42.2630130" lon="-6.6148060">
        <ele>967.3</ele>
        <time>2014-10-01T09:05:00Z</time>
      </trkpt>
      <trkpt lat="42.2629590" lon="-6.6148760">
        <ele>966.8</ele>
        <time>2014-10-01T09:05:01Z</time>
      </trkpt>
      <trkpt lat="42.2629020" lon="-6.6149500">
        <ele>966.3</ele>
        <time>2014-10-01T09:05:02Z</time>
      </trkpt>
      <trkpt lat="42.2628450" lon="-6.6150190">
        <ele>965.9</ele>
        <time>2014-10-01T09:05:03Z</time>
      </trkpt>
      <trkpt lat="42.2627880" lon="-6.6150890">
        <ele>965.6</ele>
        <time>2014-10-01T09:05:04Z</time>
      </trkpt>
      <trkpt lat="42.2627340" lon="-6.6151620">
        <ele>965.3</ele>
        <time>2014-10-01T09:05:05Z</time>
      </trkpt>
      <trkpt lat="42.2626920" lon="-6.6152530">
        <ele>965.1</ele>
        <time>2014-10-01T09:05:06Z</time>
      </trkpt>
      <trkpt lat="42.2626560" lon="-6.6153510">
        <ele>964.9</ele>
        <time>2014-10-01T09:05:07Z</time>
      </trkpt>
      <trkpt lat="42.2626270" lon="-6.6154500">
        <ele>964.9</ele>
        <time>2014-10-01T09:05:08Z</time>
      </trkpt>
      <trkpt lat="42.2626170" lon="-6.6155640">
        <ele>965.0</ele>
        <time>2014-10-01T09:05:09Z</time>
      </trkpt>
      <trkpt lat="42.2626100" lon="-6.6156750">
        <ele>965.1</ele>
        <time>2014-10-01T09:05:10Z</time>
      </trkpt>
      <trkpt lat="42.2626060" lon="-6.6157850">
        <ele>965.2</ele>
        <time>2014-10-01T09:05:11Z</time>
      </trkpt>
      <trkpt lat="42.2626060" lon="-6.6159020">
        <ele>965.3</ele>
        <time>2014-10-01T09:05:12Z</time>
      </trkpt>
      <trkpt lat="42.2626010" lon="-6.6160130">
        <ele>965.4</ele>
        <time>2014-10-01T09:05:13Z</time>
      </trkpt>
      <trkpt lat="42.2625960" lon="-6.6161210">
        <ele>965.7</ele>
        <time>2014-10-01T09:05:14Z</time>
      </trkpt>
      <trkpt lat="42.2625920" lon="-6.6162290">
        <ele>966.1</ele>
        <time>2014-10-01T09:05:15Z</time>
      </trkpt>
      <trkpt lat="42.2625870" lon="-6.6163380">
        <ele>966.5</ele>
        <time>2014-10-01T09:05:16Z</time>
      </trkpt>
      <trkpt lat="42.2625830" lon="-6.6164440">
        <ele>966.8</ele>
        <time>2014-10-01T09:05:17Z</time>
      </trkpt>
      <trkpt lat="42.2625780" lon="-6.6165490">
        <ele>967.2</ele>
        <time>2014-10-01T09:05:18Z</time>
      </trkpt>
      <trkpt lat="42.2625720" lon="-6.6166510">
        <ele>967.5</ele>
        <time>2014-10-01T09:05:19Z</time>
      </trkpt>
      <trkpt lat="42.2625650" lon="-6.6167520">
        <ele>967.8</ele>
        <time>2014-10-01T09:05:20Z</time>
      </trkpt>
      <trkpt lat="42.2625570" lon="-6.6168460">
        <ele>968.1</ele>
        <time>2014-10-01T09:05:21Z</time>
      </trkpt>
      <trkpt lat="42.2625480" lon="-6.6169270">
        <ele>968.4</ele>
        <time>2014-10-01T09:05:22Z</time>
      </trkpt>
      <trkpt lat="42.2625390" lon="-6.6170140">
        <ele>968.7</ele>
        <time>2014-10-01T09:05:23Z</time>
      </trkpt>
      <trkpt lat="42.2625210" lon="-6.6171050">
        <ele>969.0</ele>
        <time>2014-10-01T09:05:24Z</time>
      </trkpt>
      <trkpt lat="42.2625020" lon="-6.6171890">
        <ele>969.1</ele>
        <time>2014-10-01T09:05:25Z</time>
      </trkpt>
      <trkpt lat="42.2624810" lon="-6.6172680">
        <ele>969.1</ele>
        <time>2014-10-01T09:05:26Z</time>
      </trkpt>
      <trkpt lat="42.2624390" lon="-6.6173320">
        <ele>969.0</ele>
        <time>2014-10-01T09:05:27Z</time>
      </trkpt>
      <trkpt lat="42.2624000" lon="-6.6173920">
        <ele>968.8</ele>
        <time>2014-10-01T09:05:28Z</time>
      </trkpt>
      <trkpt lat="42.2623620" lon="-6.6174570">
        <ele>968.5</ele>
        <time>2014-10-01T09:05:29Z</time>
      </trkpt>
      <trkpt lat="42.2623170" lon="-6.6175200">
        <ele>968.1</ele>
        <time>2014-10-01T09:05:30Z</time>
      </trkpt>
      <trkpt lat="42.2622730" lon="-6.6175800">
        <ele>967.8</ele>
        <time>2014-10-01T09:05:31Z</time>
      </trkpt>
      <trkpt lat="42.2622240" lon="-6.6176430">
        <ele>967.4</ele>
        <time>2014-10-01T09:05:32Z</time>
      </trkpt>
      <trkpt lat="42.2621870" lon="-6.6177120">
        <ele>967.1</ele>
        <time>2014-10-01T09:05:33Z</time>
      </trkpt>
      <trkpt lat="42.2621550" lon="-6.6177930">
        <ele>967.0</ele>
        <time>2014-10-01T09:05:34Z</time>
      </trkpt>
      <trkpt lat="42.2621470" lon="-6.6178790">
        <ele>966.9</ele>
        <time>2014-10-01T09:05:35Z</time>
      </trkpt>
      <trkpt lat="42.2621410" lon="-6.6179630">
        <ele>967.0</ele>
        <time>2014-10-01T09:05:36Z</time>
      </trkpt>
      <trkpt lat="42.2621470" lon="-6.6180560">
        <ele>967.1</ele>
        <time>2014-10-01T09:05:37Z</time>
      </trkpt>
      <trkpt lat="42.2621520" lon="-6.6181510">
        <ele>967.3</ele>
        <time>2014-10-01T09:05:38Z</time>
      </trkpt>
      <trkpt lat="42.2621610" lon="-6.6182420">
        <ele>967.6</ele>
        <time>2014-10-01T09:05:39Z</time>
      </trkpt>
      <trkpt lat="42.2621730" lon="-6.6183270">
        <ele>967.9</ele>
        <time>2014-10-01T09:05:40Z</time>
      </trkpt>
      <trkpt lat="42.2621860" lon="-6.6184100">
        <ele>968.1</ele>
        <time>2014-10-01T09:05:41Z</time>
      </trkpt>
      <trkpt lat="42.2622010" lon="-6.6184950">
        <ele>968.4</ele>
        <time>2014-10-01T09:05:42Z</time>
      </trkpt>
      <trkpt lat="42.2622160" lon="-6.6185740">
        <ele>968.6</ele>
        <time>2014-10-01T09:05:43Z</time>
      </trkpt>
      <trkpt lat="42.2622290" lon="-6.6186520">
        <ele>968.8</ele>
        <time>2014-10-01T09:05:44Z</time>
      </trkpt>
      <trkpt lat="42.2622500" lon="-6.6187170">
        <ele>969.0</ele>
        <time>2014-10-01T09:05:45Z</time>
      </trkpt>
      <trkpt lat="42.2622710" lon="-6.6187870">
        <ele>969.2</ele>
        <time>2014-10-01T09:05:46Z</time>
      </trkpt>
      <trkpt lat="42.2622920" lon="-6.6188410">
        <ele>969.3</ele>
        <time>2014-10-01T09:05:47Z</time>
      </trkpt>
      <trkpt lat="42.2623160" lon="-6.6189160">
        <ele>969.5</ele>
        <time>2014-10-01T09:05:48Z</time>
      </trkpt>
      <trkpt lat="42.2623410" lon="-6.6189900">
        <ele>969.8</ele>
        <time>2014-10-01T09:05:49Z</time>
      </trkpt>
      <trkpt lat="42.2623640" lon="-6.6190630">
        <ele>970.2</ele>
        <time>2014-10-01T09:05:50Z</time>
      </trkpt>
      <trkpt lat="42.2623890" lon="-6.6191400">
        <ele>970.5</ele>
        <time>2014-10-01T09:05:51Z</time>
      </trkpt>
      <trkpt lat="42.2624120" lon="-6.6192080">
        <ele>970.9</ele>
        <time>2014-10-01T09:05:52Z</time>
      </trkpt>
      <trkpt lat="42.2624390" lon="-6.6192780">
        <ele>971.2</ele>
        <time>2014-10-01T09:05:53Z</time>
      </trkpt>
      <trkpt lat="42.2624680" lon="-6.6193450">
        <ele>971.5</ele>
        <time>2014-10-01T09:05:54Z</time>
      </trkpt>
      <trkpt lat="42.2625010" lon="-6.6194070">
        <ele>971.7</ele>
        <time>2014-10-01T09:05:55Z</time>
      </trkpt>
      <trkpt lat="42.2625320" lon="-6.6194680">
        <ele>972.0</ele>
        <time>2014-10-01T09:05:56Z</time>
      </trkpt>
      <trkpt lat="42.2625650" lon="-6.6195360">
        <ele>972.3</ele>
        <time>2014-10-01T09:05:57Z</time>
      </trkpt>
      <trkpt lat="42.2625920" lon="-6.6196000">
        <ele>972.6</ele>
        <time>2014-10-01T09:05:58Z</time>
      </trkpt>
      <trkpt lat="42.2626200" lon="-6.6196610">
        <ele>972.9</ele>
        <time>2014-10-01T09:05:59Z</time>
      </trkpt>
      <trkpt lat="42.2626490" lon="-6.6197250">
        <ele>973.3</ele>
        <time>2014-10-01T09:06:00Z</time>
      </trkpt>
      <trkpt lat="42.2626770" lon="-6.6197900">
        <ele>973.7</ele>
        <time>2014-10-01T09:06:01Z</time>
      </trkpt>
      <trkpt lat="42.2627020" lon="-6.6198500">
        <ele>974.2</ele>
        <time>2014-10-01T09:06:02Z</time>
      </trkpt>
      <trkpt lat="42.2627230" lon="-6.6198970">
        <ele>974.6</ele>
        <time>2014-10-01T09:06:03Z</time>
      </trkpt>
      <trkpt lat="42.2627450" lon="-6.6199490">
        <ele>975.0</ele>
        <time>2014-10-01T09:06:04Z</time>
      </trkpt>
      <trkpt lat="42.2627650" lon="-6.6199980">
        <ele>975.5</ele>
        <time>2014-10-01T09:06:05Z</time>
      </trkpt>
      <trkpt lat="42.2627840" lon="-6.6200490">
        <ele>975.9</ele>
        <time>2014-10-01T09:06:06Z</time>
      </trkpt>
      <trkpt lat="42.2628080" lon="-6.6201030">
        <ele>976.4</ele>
        <time>2014-10-01T09:06:07Z</time>
      </trkpt>
      <trkpt lat="42.2628330" lon="-6.6201460">
        <ele>976.8</ele>
        <time>2014-10-01T09:06:08Z</time>
      </trkpt>
      <trkpt lat="42.2628590" lon="-6.6201950">
        <ele>977.3</ele>
        <time>2014-10-01T09:06:09Z</time>
      </trkpt>
      <trkpt lat="42.2628810" lon="-6.6202350">
        <ele>977.6</ele>
        <time>2014-10-01T09:06:10Z</time>
      </trkpt>
      <trkpt lat="42.2629000" lon="-6.6202710">
        <ele>977.9</ele>
        <time>2014-10-01T09:06:11Z</time>
      </trkpt>
      <trkpt lat="42.2629190" lon="-6.6203050">
        <ele>978.3</ele>
        <time>2014-10-01T09:06:12Z</time>
      </trkpt>
      <trkpt lat="42.2629390" lon="-6.6203390">
        <ele>978.6</ele>
        <time>2014-10-01T09:06:13Z</time>
      </trkpt>
      <trkpt lat="42.2629600" lon="-6.6203720">
        <ele>979.0</ele>
        <time>2014-10-01T09:06:14Z</time>
      </trkpt>
      <trkpt lat="42.2629850" lon="-6.6204080">
        <ele>979.5</ele>
        <time>2014-10-01T09:06:15Z</time>
      </trkpt>
      <trkpt lat="42.2630080" lon="-6.6204440">
        <ele>980.0</ele>
        <time>2014-10-01T09:06:16Z</time>
      </trkpt>
      <trkpt lat="42.2630360" lon="-6.6204780">
        <ele>980.5</ele>
        <time>2014-10-01T09:06:17Z</time>
      </trkpt>
      <trkpt lat="42.2630690" lon="-6.6205220">
        <ele>981.2</ele>
        <time>2014-10-01T09:06:18Z</time>
      </trkpt>
      <trkpt lat="42.2630960" lon="-6.6205620">
        <ele>981.8</ele>
        <time>2014-10-01T09:06:19Z</time>
      </trkpt>
      <trkpt lat="42.2631230" lon="-6.6205980">
        <ele>982.3</ele>
        <time>2014-10-01T09:06:20Z</time>
      </trkpt>
      <trkpt lat="42.2631530" lon="-6.6206290">
        <ele>982.9</ele>
        <time>2014-10-01T09:06:21Z</time>
      </trkpt>
      <trkpt lat="42.2631760" lon="-6.6206680">
        <ele>983.3</ele>
        <time>2014-10-01T09:06:22Z</time>
      </trkpt>
      <trkpt lat="42.2631950" lon="-6.6207050">
        <ele>983.7</ele>
        <time>2014-10-01T09:06:23Z</time>
      </trkpt>
      <trkpt lat="42.2632140" lon="-6.6207330">
        <ele>984.0</ele>
        <time>2014-10-01T09:06:24Z</time>
      </trkpt>
      <trkpt lat="42.2632250" lon="-6.6207780">
        <ele>984.2</ele>
        <time>2014-10-01T09:06:25Z</time>
      </trkpt>
      <trkpt lat="42.2632420" lon="-6.6208240">
        <ele>984.3</ele>
        <time>2014-10-01T09:06:26Z</time>
      </trkpt>
      <trkpt lat="42.2632580" lon="-6.6208690">
        <ele>984.5</ele>
        <time>2014-10-01T09:06:27Z</time>
      </trkpt>
      <trkpt lat="42.2632730" lon="-6.6208990">
        <ele>984.7</ele>
        <time>2014-10-01T09:06:28Z</time>
      </trkpt>
      <trkpt lat="42.2632850" lon="-6.6209330">
        <ele>985.0</ele>
        <time>2014-10-01T09:06:29Z</time>
      </trkpt>
      <trkpt lat="42.2632980" lon="-6.6209670">
        <ele>985.3</ele>
        <time>2014-10-01T09:06:30Z</time>
      </trkpt>
      <trkpt lat="42.2633210" lon="-6.6210340">
        <ele>985.8</ele>
        <time>2014-10-01T09:06:32Z</time>
      </trkpt>
      <trkpt lat="42.2633320" lon="-6.6210700">
        <ele>986.1</ele>
        <time>2014-10-01T09:06:33Z</time>
      </trkpt>
      <trkpt lat="42.2633440" lon="-6.6211100">
        <ele>986.4</ele>
        <time>2014-10-01T09:06:34Z</time>
      </trkpt>
      <trkpt lat="42.2633600" lon="-6.6211580">
        <ele>986.8</ele>
        <time>2014-10-01T09:06:35Z</time>
      </trkpt>
      <trkpt lat="42.2633720" lon="-6.6212010">
        <ele>987.1</ele>
        <time>2014-10-01T09:06:36Z</time>
      </trkpt>
      <trkpt lat="42.2633870" lon="-6.6212410">
        <ele>987.5</ele>
        <time>2014-10-01T09:06:37Z</time>
      </trkpt>
      <trkpt lat="42.2634010" lon="-6.6212860">
        <ele>987.9</ele>
        <time>2014-10-01T09:06:38Z</time>
      </trkpt>
      <trkpt lat="42.2634080" lon="-6.6213230">
        <ele>988.2</ele>
        <time>2014-10-01T09:06:39Z</time>
      </trkpt>
      <trkpt lat="42.2633960" lon="-6.6214540">
        <ele>989.2</ele>
        <time>2014-10-01T09:06:42Z</time>
      </trkpt>
      <trkpt lat="42.2633800" lon="-6.6215460">
        <ele>989.8</ele>
        <time>2014-10-01T09:06:44Z</time>
      </trkpt>
      <trkpt lat="42.2633810" lon="-6.6216250">
        <ele>990.4</ele>
        <time>2014-10-01T09:06:46Z</time>
      </trkpt>
      <trkpt lat="42.2633890" lon="-6.6216680">
        <ele>990.7</ele>
        <time>2014-10-01T09:06:47Z</time>
      </trkpt>
      <trkpt lat="42.2633900" lon="-6.6217130">
        <ele>991.0</ele>
        <time>2014-10-01T09:06:48Z</time>
      </trkpt>
      <trkpt lat="42.2633910" lon="-6.6217590">
        <ele>991.3</ele>
        <time>2014-10-01T09:06:49Z</time>
      </trkpt>
      <trkpt lat="42.2633910" lon="-6.6218030">
        <ele>991.5</ele>
        <time>2014-10-01T09:06:50Z</time>
      </trkpt>
      <trkpt lat="42.2633860" lon="-6.6218520">
        <ele>991.9</ele>
        <time>2014-10-01T09:06:51Z</time>
      </trkpt>
      <trkpt lat="42.2633810" lon="-6.6218970">
        <ele>992.2</ele>
        <time>2014-10-01T09:06:52Z</time>
      </trkpt>
      <trkpt lat="42.2633760" lon="-6.6219440">
        <ele>992.5</ele>
        <time>2014-10-01T09:06:53Z</time>
      </trkpt>
      <trkpt lat="42.2633720" lon="-6.6219880">
        <ele>992.9</ele>
        <time>2014-10-01T09:06:54Z</time>
      </trkpt>
      <trkpt lat="42.2633670" lon="-6.6220330">
        <ele>993.2</ele>
        <time>2014-10-01T09:06:55Z</time>
      </trkpt>
      <trkpt lat="42.2633620" lon="-6.6220820">
        <ele>993.5</ele>
        <time>2014-10-01T09:06:56Z</time>
      </trkpt>
      <trkpt lat="42.2633550" lon="-6.6221260">
        <ele>993.8</ele>
        <time>2014-10-01T09:06:57Z</time>
      </trkpt>
      <trkpt lat="42.2633500" lon="-6.6221680">
        <ele>994.1</ele>
        <time>2014-10-01T09:06:58Z</time>
      </trkpt>
      <trkpt lat="42.2633380" lon="-6.6222340">
        <ele>994.6</ele>
        <time>2014-10-01T09:07:00Z</time>
      </trkpt>
      <trkpt lat="42.2633290" lon="-6.6222750">
        <ele>994.8</ele>
        <time>2014-10-01T09:07:01Z</time>
      </trkpt>
      <trkpt lat="42.2633180" lon="-6.6223170">
        <ele>995.1</ele>
        <time>2014-10-01T09:07:02Z</time>
      </trkpt>
      <trkpt lat="42.2633080" lon="-6.6223580">
        <ele>995.3</ele>
        <time>2014-10-01T09:07:03Z</time>
      </trkpt>
      <trkpt lat="42.2632990" lon="-6.6223980">
        <ele>995.6</ele>
        <time>2014-10-01T09:07:04Z</time>
      </trkpt>
      <trkpt lat="42.2632900" lon="-6.6224360">
        <ele>995.7</ele>
        <time>2014-10-01T09:07:05Z</time>
      </trkpt>
      <trkpt lat="42.2632770" lon="-6.6224750">
        <ele>995.9</ele>
        <time>2014-10-01T09:07:06Z</time>
      </trkpt>
      <trkpt lat="42.2632770" lon="-6.6225390">
        <ele>996.2</ele>
        <time>2014-10-01T09:07:08Z</time>
      </trkpt>
      <trkpt lat="42.2632660" lon="-6.6226000">
        <ele>996.4</ele>
        <time>2014-10-01T09:07:10Z</time>
      </trkpt>
      <trkpt lat="42.2632540" lon="-6.6226340">
        <ele>996.5</ele>
        <time>2014-10-01T09:07:11Z</time>
      </trkpt>
      <trkpt lat="42.2632380" lon="-6.6226930">
        <ele>996.6</ele>
        <time>2014-10-01T09:07:13Z</time>
      </trkpt>
      <trkpt lat="42.2631920" lon="-6.6227830">
        <ele>996.9</ele>
        <time>2014-10-01T09:07:16Z</time>
      </trkpt>
      <trkpt lat="42.2631710" lon="-6.6228160">
        <ele>997.1</ele>
        <time>2014-10-01T09:07:17Z</time>
      </trkpt>
      <trkpt lat="42.2631460" lon="-6.6228460">
        <ele>997.2</ele>
        <time>2014-10-01T09:07:18Z</time>
      </trkpt>
      <trkpt lat="42.2631230" lon="-6.6228760">
        <ele>997.3</ele>
        <time>2014-10-01T09:07:19Z</time>
      </trkpt>
      <trkpt lat="42.2631010" lon="-6.6229060">
        <ele>997.4</ele>
        <time>2014-10-01T09:07:20Z</time>
      </trkpt>
      <trkpt lat="42.2630760" lon="-6.6229300">
        <ele>997.5</ele>
        <time>2014-10-01T09:07:21Z</time>
      </trkpt>
      <trkpt lat="42.2630550" lon="-6.6229600">
        <ele>997.6</ele>
        <time>2014-10-01T09:07:22Z</time>
      </trkpt>
      <trkpt lat="42.2630180" lon="-6.6230090">
        <ele>997.6</ele>
        <time>2014-10-01T09:07:24Z</time>
      </trkpt>
      <trkpt lat="42.2630030" lon="-6.6230430">
        <ele>997.7</ele>
        <time>2014-10-01T09:07:25Z</time>
      </trkpt>
      <trkpt lat="42.2629910" lon="-6.6230800">
        <ele>997.7</ele>
        <time>2014-10-01T09:07:26Z</time>
      </trkpt>
      <trkpt lat="42.2629790" lon="-6.6231140">
        <ele>997.7</ele>
        <time>2014-10-01T09:07:27Z</time>
      </trkpt>
      <trkpt lat="42.2629620" lon="-6.6231600">
        <ele>997.7</ele>
        <time>2014-10-01T09:07:28Z</time>
      </trkpt>
      <trkpt lat="42.2629450" lon="-6.6232070">
        <ele>997.8</ele>
        <time>2014-10-01T09:07:29Z</time>
      </trkpt>
      <trkpt lat="42.2629430" lon="-6.6232580">
        <ele>997.8</ele>
        <time>2014-10-01T09:07:30Z</time>
      </trkpt>
      <trkpt lat="42.2629430" lon="-6.6233260">
        <ele>997.8</ele>
        <time>2014-10-01T09:07:31Z</time>
      </trkpt>
      <trkpt lat="42.2629370" lon="-6.6234050">
        <ele>997.8</ele>
        <time>2014-10-01T09:07:32Z</time>
      </trkpt>
      <trkpt lat="42.2629300" lon="-6.6234810">
        <ele>997.8</ele>
        <time>2014-10-01T09:07:33Z</time>
      </trkpt>
      <trkpt lat="42.2629230" lon="-6.6235600">
        <ele>997.8</ele>
        <time>2014-10-01T09:07:34Z</time>
      </trkpt>
      <trkpt lat="42.2629190" lon="-6.6236370">
        <ele>997.9</ele>
        <time>2014-10-01T09:07:35Z</time>
      </trkpt>
      <trkpt lat="42.2629180" lon="-6.6237130">
        <ele>997.9</ele>
        <time>2014-10-01T09:07:36Z</time>
      </trkpt>
      <trkpt lat="42.2629180" lon="-6.6237890">
        <ele>997.9</ele>
        <time>2014-10-01T09:07:37Z</time>
      </trkpt>
      <trkpt lat="42.2629170" lon="-6.6238650">
        <ele>997.9</ele>
        <time>2014-10-01T09:07:38Z</time>
      </trkpt>
      <trkpt lat="42.2629300" lon="-6.6239460">
        <ele>997.9</ele>
        <time>2014-10-01T09:07:39Z</time>
      </trkpt>
      <trkpt lat="42.2629410" lon="-6.6240250">
        <ele>998.0</ele>
        <time>2014-10-01T09:07:40Z</time>
      </trkpt>
      <trkpt lat="42.2629490" lon="-6.6241090">
        <ele>998.2</ele>
        <time>2014-10-01T09:07:41Z</time>
      </trkpt>
      <trkpt lat="42.2629600" lon="-6.6241970">
        <ele>998.4</ele>
        <time>2014-10-01T09:07:42Z</time>
      </trkpt>
      <trkpt lat="42.2629700" lon="-6.6242970">
        <ele>998.7</ele>
        <time>2014-10-01T09:07:43Z</time>
      </trkpt>
      <trkpt lat="42.2629800" lon="-6.6243950">
        <ele>999.0</ele>
        <time>2014-10-01T09:07:44Z</time>
      </trkpt>
      <trkpt lat="42.2629910" lon="-6.6244980">
        <ele>999.3</ele>
        <time>2014-10-01T09:07:45Z</time>
      </trkpt>
      <trkpt lat="42.2630020" lon="-6.6246120">
        <ele>999.6</ele>
        <time>2014-10-01T09:07:46Z</time>
      </trkpt>
      <trkpt lat="42.2630080" lon="-6.6247130">
        <ele>999.7</ele>
        <time>2014-10-01T09:07:47Z</time>
      </trkpt>
      <trkpt lat="42.2630110" lon="-6.6248010">
        <ele>999.7</ele>
        <time>2014-10-01T09:07:48Z</time>
      </trkpt>
      <trkpt lat="42.2630030" lon="-6.6248790">
        <ele>999.5</ele>
        <time>2014-10-01T09:07:49Z</time>
      </trkpt>
      <trkpt lat="42.2629960" lon="-6.6249410">
        <ele>999.3</ele>
        <time>2014-10-01T09:07:50Z</time>
      </trkpt>
      <trkpt lat="42.2629790" lon="-6.6250170">
        <ele>998.9</ele>
        <time>2014-10-01T09:07:51Z</time>
      </trkpt>
      <trkpt lat="42.2629590" lon="-6.6250940">
        <ele>998.4</ele>
        <time>2014-10-01T09:07:52Z</time>
      </trkpt>
      <trkpt lat="42.2629330" lon="-6.6251810">
        <ele>997.6</ele>
        <time>2014-10-01T09:07:53Z</time>
      </trkpt>
      <trkpt lat="42.2629070" lon="-6.6252740">
        <ele>996.6</ele>
        <time>2014-10-01T09:07:54Z</time>
      </trkpt>
      <trkpt lat="42.2628790" lon="-6.6253820">
        <ele>995.5</ele>
        <time>2014-10-01T09:07:55Z</time>
      </trkpt>
      <trkpt lat="42.2628540" lon="-6.6254970">
        <ele>994.2</ele>
        <time>2014-10-01T09:07:56Z</time>
      </trkpt>
      <trkpt lat="42.2628310" lon="-6.6256230">
        <ele>992.9</ele>
        <time>2014-10-01T09:07:57Z</time>
      </trkpt>
      <trkpt lat="42.2628070" lon="-6.6257630">
        <ele>991.4</ele>
        <time>2014-10-01T09:07:58Z</time>
      </trkpt>
      <trkpt lat="42.2627860" lon="-6.6259140">
        <ele>990.1</ele>
        <time>2014-10-01T09:07:59Z</time>
      </trkpt>
      <trkpt lat="42.2627830" lon="-6.6260680">
        <ele>989.0</ele>
        <time>2014-10-01T09:08:00Z</time>
      </trkpt>
      <trkpt lat="42.2627910" lon="-6.6262090">
        <ele>988.2</ele>
        <time>2014-10-01T09:08:01Z</time>
      </trkpt>
      <trkpt lat="42.2628000" lon="-6.6263510">
        <ele>987.4</ele>
        <time>2014-10-01T09:08:02Z</time>
      </trkpt>
      <trkpt lat="42.2628140" lon="-6.6265070">
        <ele>986.7</ele>
        <time>2014-10-01T09:08:03Z</time>
      </trkpt>
      <trkpt lat="42.2628240" lon="-6.6266570">
        <ele>985.9</ele>
        <time>2014-10-01T09:08:04Z</time>
      </trkpt>
      <trkpt lat="42.2628320" lon="-6.6268060">
        <ele>985.1</ele>
        <time>2014-10-01T09:08:05Z</time>
      </trkpt>
      <trkpt lat="42.2628380" lon="-6.6269640">
        <ele>984.4</ele>
        <time>2014-10-01T09:08:06Z</time>
      </trkpt>
      <trkpt lat="42.2628370" lon="-6.6271350">
        <ele>983.9</ele>
        <time>2014-10-01T09:08:07Z</time>
      </trkpt>
      <trkpt lat="42.2628370" lon="-6.6272860">
        <ele>983.6</ele>
        <time>2014-10-01T09:08:08Z</time>
      </trkpt>
      <trkpt lat="42.2628350" lon="-6.6274320">
        <ele>983.5</ele>
        <time>2014-10-01T09:08:09Z</time>
      </trkpt>
      <trkpt lat="42.2628320" lon="-6.6275730">
        <ele>983.6</ele>
        <time>2014-10-01T09:08:10Z</time>
      </trkpt>
      <trkpt lat="42.2628270" lon="-6.6277110">
        <ele>983.9</ele>
        <time>2014-10-01T09:08:11Z</time>
      </trkpt>
      <trkpt lat="42.2628210" lon="-6.6278470">
        <ele>984.4</ele>
        <time>2014-10-01T09:08:12Z</time>
      </trkpt>
      <trkpt lat="42.2628140" lon="-6.6279730">
        <ele>985.0</ele>
        <time>2014-10-01T09:08:13Z</time>
      </trkpt>
      <trkpt lat="42.2628060" lon="-6.6280910">
        <ele>985.6</ele>
        <time>2014-10-01T09:08:14Z</time>
      </trkpt>
      <trkpt lat="42.2627980" lon="-6.6282110">
        <ele>986.4</ele>
        <time>2014-10-01T09:08:15Z</time>
      </trkpt>
      <trkpt lat="42.2627910" lon="-6.6283240">
        <ele>987.2</ele>
        <time>2014-10-01T09:08:16Z</time>
      </trkpt>
      <trkpt lat="42.2627850" lon="-6.6284220">
        <ele>988.0</ele>
        <time>2014-10-01T09:08:17Z</time>
      </trkpt>
      <trkpt lat="42.2627800" lon="-6.6285140">
        <ele>988.7</ele>
        <time>2014-10-01T09:08:18Z</time>
      </trkpt>
      <trkpt lat="42.2627750" lon="-6.6286080">
        <ele>989.6</ele>
        <time>2014-10-01T09:08:19Z</time>
      </trkpt>
      <trkpt lat="42.2627710" lon="-6.6286820">
        <ele>990.2</ele>
        <time>2014-10-01T09:08:20Z</time>
      </trkpt>
      <trkpt lat="42.2627690" lon="-6.6287550">
        <ele>990.9</ele>
        <time>2014-10-01T09:08:21Z</time>
      </trkpt>
      <trkpt lat="42.2627630" lon="-6.6288330">
        <ele>991.5</ele>
        <time>2014-10-01T09:08:22Z</time>
      </trkpt>
      <trkpt lat="42.2627540" lon="-6.6289100">
        <ele>992.2</ele>
        <time>2014-10-01T09:08:23Z</time>
      </trkpt>
      <trkpt lat="42.2627410" lon="-6.6289880">
        <ele>992.9</ele>
        <time>2014-10-01T09:08:24Z</time>
      </trkpt>
      <trkpt lat="42.2627260" lon="-6.6290650">
        <ele>993.5</ele>
        <time>2014-10-01T09:08:25Z</time>
      </trkpt>
      <trkpt lat="42.2627110" lon="-6.6291360">
        <ele>994.0</ele>
        <time>2014-10-01T09:08:26Z</time>
      </trkpt>
      <trkpt lat="42.2626960" lon="-6.6291980">
        <ele>994.4</ele>
        <time>2014-10-01T09:08:27Z</time>
      </trkpt>
      <trkpt lat="42.2626800" lon="-6.6292650">
        <ele>994.7</ele>
        <time>2014-10-01T09:08:28Z</time>
      </trkpt>
      <trkpt lat="42.2626680" lon="-6.6293210">
        <ele>995.0</ele>
        <time>2014-10-01T09:08:29Z</time>
      </trkpt>
      <trkpt lat="42.2626550" lon="-6.6293750">
        <ele>995.3</ele>
        <time>2014-10-01T09:08:30Z</time>
      </trkpt>
      <trkpt lat="42.2626410" lon="-6.6294320">
        <ele>995.5</ele>
        <time>2014-10-01T09:08:31Z</time>
      </trkpt>
      <trkpt lat="42.2626280" lon="-6.6294910">
        <ele>995.7</ele>
        <time>2014-10-01T09:08:32Z</time>
      </trkpt>
      <trkpt lat="42.2626170" lon="-6.6295370">
        <ele>995.8</ele>
        <time>2014-10-01T09:08:33Z</time>
      </trkpt>
      <trkpt lat="42.2626060" lon="-6.6295790">
        <ele>995.9</ele>
        <time>2014-10-01T09:08:34Z</time>
      </trkpt>
      <trkpt lat="42.2625950" lon="-6.6296250">
        <ele>996.0</ele>
        <time>2014-10-01T09:08:35Z</time>
      </trkpt>
      <trkpt lat="42.2625810" lon="-6.6296780">
        <ele>996.2</ele>
        <time>2014-10-01T09:08:36Z</time>
      </trkpt>
      <trkpt lat="42.2625680" lon="-6.6297310">
        <ele>996.3</ele>
        <time>2014-10-01T09:08:37Z</time>
      </trkpt>
      <trkpt lat="42.2625520" lon="-6.6297850">
        <ele>996.5</ele>
        <time>2014-10-01T09:08:38Z</time>
      </trkpt>
      <trkpt lat="42.2625370" lon="-6.6298450">
        <ele>996.7</ele>
        <time>2014-10-01T09:08:39Z</time>
      </trkpt>
      <trkpt lat="42.2625220" lon="-6.6299050">
        <ele>996.8</ele>
        <time>2014-10-01T09:08:40Z</time>
      </trkpt>
      <trkpt lat="42.2625030" lon="-6.6299800">
        <ele>997.1</ele>
        <time>2014-10-01T09:08:41Z</time>
      </trkpt>
      <trkpt lat="42.2624870" lon="-6.6300530">
        <ele>997.3</ele>
        <time>2014-10-01T09:08:42Z</time>
      </trkpt>
      <trkpt lat="42.2624780" lon="-6.6301320">
        <ele>997.5</ele>
        <time>2014-10-01T09:08:43Z</time>
      </trkpt>
      <trkpt lat="42.2624700" lon="-6.6302090">
        <ele>997.7</ele>
        <time>2014-10-01T09:08:44Z</time>
      </trkpt>
      <trkpt lat="42.2624730" lon="-6.6302860">
        <ele>997.9</ele>
        <time>2014-10-01T09:08:45Z</time>
      </trkpt>
      <trkpt lat="42.2624780" lon="-6.6303600">
        <ele>998.2</ele>
        <time>2014-10-01T09:08:46Z</time>
      </trkpt>
      <trkpt lat="42.2624830" lon="-6.6304370">
        <ele>998.5</ele>
        <time>2014-10-01T09:08:47Z</time>
      </trkpt>
      <trkpt lat="42.2624880" lon="-6.6305080">
        <ele>998.8</ele>
        <time>2014-10-01T09:08:48Z</time>
      </trkpt>
      <trkpt lat="42.2624940" lon="-6.6305740">
        <ele>999.2</ele>
        <time>2014-10-01T09:08:49Z</time>
      </trkpt>
      <trkpt lat="42.2624990" lon="-6.6306440">
        <ele>999.5</ele>
        <time>2014-10-01T09:08:50Z</time>
      </trkpt>
      <trkpt lat="42.2625040" lon="-6.6307110">
        <ele>999.9</ele>
        <time>2014-10-01T09:08:51Z</time>
      </trkpt>
      <trkpt lat="42.2625060" lon="-6.6307870">
        <ele>1000.3</ele>
        <time>2014-10-01T09:08:52Z</time>
      </trkpt>
      <trkpt lat="42.2625070" lon="-6.6308610">
        <ele>1000.6</ele>
        <time>2014-10-01T09:08:53Z</time>
      </trkpt>
      <trkpt lat="42.2625090" lon="-6.6309300">
        <ele>1000.9</ele>
        <time>2014-10-01T09:08:54Z</time>
      </trkpt>
      <trkpt lat="42.2625110" lon="-6.6309860">
        <ele>1001.1</ele>
        <time>2014-10-01T09:08:55Z</time>
      </trkpt>
      <trkpt lat="42.2625120" lon="-6.6310500">
        <ele>1001.3</ele>
        <time>2014-10-01T09:08:56Z</time>
      </trkpt>
      <trkpt lat="42.2625130" lon="-6.6311150">
        <ele>1001.6</ele>
        <time>2014-10-01T09:08:57Z</time>
      </trkpt>
      <trkpt lat="42.2625130" lon="-6.6311790">
        <ele>1001.9</ele>
        <time>2014-10-01T09:08:58Z</time>
      </trkpt>
      <trkpt lat="42.2625150" lon="-6.6312420">
        <ele>1002.1</ele>
        <time>2014-10-01T09:08:59Z</time>
      </trkpt>
      <trkpt lat="42.2625180" lon="-6.6313050">
        <ele>1002.4</ele>
        <time>2014-10-01T09:09:00Z</time>
      </trkpt>
      <trkpt lat="42.2625200" lon="-6.6313700">
        <ele>1002.6</ele>
        <time>2014-10-01T09:09:01Z</time>
      </trkpt>
      <trkpt lat="42.2625220" lon="-6.6314300">
        <ele>1002.8</ele>
        <time>2014-10-01T09:09:02Z</time>
      </trkpt>
      <trkpt lat="42.2625260" lon="-6.6314980">
        <ele>1003.0</ele>
        <time>2014-10-01T09:09:03Z</time>
      </trkpt>
      <trkpt lat="42.2625290" lon="-6.6315630">
        <ele>1003.2</ele>
        <time>2014-10-01T09:09:04Z</time>
      </trkpt>
      <trkpt lat="42.2625310" lon="-6.6316320">
        <ele>1003.5</ele>
        <time>2014-10-01T09:09:05Z</time>
      </trkpt>
      <trkpt lat="42.2625300" lon="-6.6317030">
        <ele>1003.7</ele>
        <time>2014-10-01T09:09:06Z</time>
      </trkpt>
      <trkpt lat="42.2625280" lon="-6.6317770">
        <ele>1004.0</ele>
        <time>2014-10-01T09:09:07Z</time>
      </trkpt>
      <trkpt lat="42.2625250" lon="-6.6318460">
        <ele>1004.2</ele>
        <time>2014-10-01T09:09:08Z</time>
      </trkpt>
      <trkpt lat="42.2625210" lon="-6.6319140">
        <ele>1004.3</ele>
        <time>2014-10-01T09:09:09Z</time>
      </trkpt>
      <trkpt lat="42.2625170" lon="-6.6319800">
        <ele>1004.3</ele>
        <time>2014-10-01T09:09:10Z</time>
      </trkpt>
      <trkpt lat="42.2625140" lon="-6.6320410">
        <ele>1004.3</ele>
        <time>2014-10-01T09:09:11Z</time>
      </trkpt>
      <trkpt lat="42.2625090" lon="-6.6321070">
        <ele>1004.2</ele>
        <time>2014-10-01T09:09:12Z</time>
      </trkpt>
      <trkpt lat="42.2625040" lon="-6.6321750">
        <ele>1004.1</ele>
        <time>2014-10-01T09:09:13Z</time>
      </trkpt>
      <trkpt lat="42.2624970" lon="-6.6322430">
        <ele>1003.9</ele>
        <time>2014-10-01T09:09:14Z</time>
      </trkpt>
      <trkpt lat="42.2624900" lon="-6.6323070">
        <ele>1003.7</ele>
        <time>2014-10-01T09:09:15Z</time>
      </trkpt>
      <trkpt lat="42.2624800" lon="-6.6323750">
        <ele>1003.5</ele>
        <time>2014-10-01T09:09:16Z</time>
      </trkpt>
      <trkpt lat="42.2624680" lon="-6.6324500">
        <ele>1003.3</ele>
        <time>2014-10-01T09:09:17Z</time>
      </trkpt>
      <trkpt lat="42.2624590" lon="-6.6325180">
        <ele>1003.1</ele>
        <time>2014-10-01T09:09:18Z</time>
      </trkpt>
      <trkpt lat="42.2624510" lon="-6.6325920">
        <ele>1003.0</ele>
        <time>2014-10-01T09:09:19Z</time>
      </trkpt>
      <trkpt lat="42.2624480" lon="-6.6326700">
        <ele>1002.9</ele>
        <time>2014-10-01T09:09:20Z</time>
      </trkpt>
      <trkpt lat="42.2624470" lon="-6.6327580">
        <ele>1002.9</ele>
        <time>2014-10-01T09:09:21Z</time>
      </trkpt>
      <trkpt lat="42.2624480" lon="-6.6328440">
        <ele>1003.0</ele>
        <time>2014-10-01T09:09:22Z</time>
      </trkpt>
      <trkpt lat="42.2624680" lon="-6.6329100">
        <ele>1003.0</ele>
        <time>2014-10-01T09:09:23Z</time>
      </trkpt>
      <trkpt lat="42.2624900" lon="-6.6329780">
        <ele>1003.1</ele>
        <time>2014-10-01T09:09:24Z</time>
      </trkpt>
      <trkpt lat="42.2625180" lon="-6.6330530">
        <ele>1003.3</ele>
        <time>2014-10-01T09:09:25Z</time>
      </trkpt>
      <trkpt lat="42.2625510" lon="-6.6331230">
        <ele>1003.5</ele>
        <time>2014-10-01T09:09:26Z</time>
      </trkpt>
      <trkpt lat="42.2625810" lon="-6.6331930">
        <ele>1003.6</ele>
        <time>2014-10-01T09:09:27Z</time>
      </trkpt>
      <trkpt lat="42.2626100" lon="-6.6332630">
        <ele>1003.7</ele>
        <time>2014-10-01T09:09:28Z</time>
      </trkpt>
      <trkpt lat="42.2626370" lon="-6.6333350">
        <ele>1003.8</ele>
        <time>2014-10-01T09:09:29Z</time>
      </trkpt>
      <trkpt lat="42.2626660" lon="-6.6334070">
        <ele>1003.9</ele>
        <time>2014-10-01T09:09:30Z</time>
      </trkpt>
      <trkpt lat="42.2626950" lon="-6.6334800">
        <ele>1004.1</ele>
        <time>2014-10-01T09:09:31Z</time>
      </trkpt>
      <trkpt lat="42.2627230" lon="-6.6335510">
        <ele>1004.3</ele>
        <time>2014-10-01T09:09:32Z</time>
      </trkpt>
      <trkpt lat="42.2627530" lon="-6.6336220">
        <ele>1004.5</ele>
        <time>2014-10-01T09:09:33Z</time>
      </trkpt>
      <trkpt lat="42.2627830" lon="-6.6336960">
        <ele>1004.8</ele>
        <time>2014-10-01T09:09:34Z</time>
      </trkpt>
      <trkpt lat="42.2628080" lon="-6.6337680">
        <ele>1005.0</ele>
        <time>2014-10-01T09:09:35Z</time>
      </trkpt>
      <trkpt lat="42.2628320" lon="-6.6338390">
        <ele>1005.2</ele>
        <time>2014-10-01T09:09:36Z</time>
      </trkpt>
      <trkpt lat="42.2628570" lon="-6.6339120">
        <ele>1005.5</ele>
        <time>2014-10-01T09:09:37Z</time>
      </trkpt>
      <trkpt lat="42.2628830" lon="-6.6339770">
        <ele>1005.8</ele>
        <time>2014-10-01T09:09:38Z</time>
      </trkpt>
      <trkpt lat="42.2629120" lon="-6.6340450">
        <ele>1006.1</ele>
        <time>2014-10-01T09:09:39Z</time>
      </trkpt>
      <trkpt lat="42.2629410" lon="-6.6341140">
        <ele>1006.4</ele>
        <time>2014-10-01T09:09:40Z</time>
      </trkpt>
      <trkpt lat="42.2629750" lon="-6.6341890">
        <ele>1006.7</ele>
        <time>2014-10-01T09:09:41Z</time>
      </trkpt>
      <trkpt lat="42.2630090" lon="-6.6342660">
        <ele>1007.1</ele>
        <time>2014-10-01T09:09:42Z</time>
      </trkpt>
      <trkpt lat="42.2630380" lon="-6.6343380">
        <ele>1007.2</ele>
        <time>2014-10-01T09:09:43Z</time>
      </trkpt>
      <trkpt lat="42.2630660" lon="-6.6344130">
        <ele>1007.1</ele>
        <time>2014-10-01T09:09:44Z</time>
      </trkpt>
      <trkpt lat="42.2630890" lon="-6.6344950">
        <ele>1006.5</ele>
        <time>2014-10-01T09:09:45Z</time>
      </trkpt>
      <trkpt lat="42.2631100" lon="-6.6345780">
        <ele>1006.2</ele>
        <time>2014-10-01T09:09:46Z</time>
      </trkpt>
      <trkpt lat="42.2631280" lon="-6.6346600">
        <ele>1006.3</ele>
        <time>2014-10-01T09:09:47Z</time>
      </trkpt>
      <trkpt lat="42.2631430" lon="-6.6347510">
        <ele>1006.3</ele>
        <time>2014-10-01T09:09:48Z</time>
      </trkpt>
      <trkpt lat="42.2631520" lon="-6.6348420">
        <ele>1006.4</ele>
        <time>2014-10-01T09:09:49Z</time>
      </trkpt>
      <trkpt lat="42.2631630" lon="-6.6349390">
        <ele>1006.4</ele>
        <time>2014-10-01T09:09:50Z</time>
      </trkpt>
      <trkpt lat="42.2631590" lon="-6.6350240">
        <ele>1006.3</ele>
        <time>2014-10-01T09:09:51Z</time>
      </trkpt>
      <trkpt lat="42.2631560" lon="-6.6351240">
        <ele>1006.2</ele>
        <time>2014-10-01T09:09:52Z</time>
      </trkpt>
      <trkpt lat="42.2631520" lon="-6.6352240">
        <ele>1006.2</ele>
        <time>2014-10-01T09:09:53Z</time>
      </trkpt>
      <trkpt lat="42.2631510" lon="-6.6353200">
        <ele>1006.2</ele>
        <time>2014-10-01T09:09:54Z</time>
      </trkpt>
      <trkpt lat="42.2631480" lon="-6.6354260">
        <ele>1006.2</ele>
        <time>2014-10-01T09:09:55Z</time>
      </trkpt>
      <trkpt lat="42.2631460" lon="-6.6355320">
        <ele>1006.1</ele>
        <time>2014-10-01T09:09:56Z</time>
      </trkpt>
      <trkpt lat="42.2631460" lon="-6.6356280">
        <ele>1006.0</ele>
        <time>2014-10-01T09:09:57Z</time>
      </trkpt>
      <trkpt lat="42.2631420" lon="-6.6357280">
        <ele>1006.1</ele>
        <time>2014-10-01T09:09:58Z</time>
      </trkpt>
      <trkpt lat="42.2631370" lon="-6.6358310">
        <ele>1006.2</ele>
        <time>2014-10-01T09:09:59Z</time>
      </trkpt>
      <trkpt lat="42.2631320" lon="-6.6359360">
        <ele>1006.2</ele>
        <time>2014-10-01T09:10:00Z</time>
      </trkpt>
      <trkpt lat="42.2631280" lon="-6.6360420">
        <ele>1006.2</ele>
        <time>2014-10-01T09:10:01Z</time>
      </trkpt>
      <trkpt lat="42.2631230" lon="-6.6361400">
        <ele>1006.2</ele>
        <time>2014-10-01T09:10:02Z</time>
      </trkpt>
      <trkpt lat="42.2631210" lon="-6.6362330">
        <ele>1006.3</ele>
        <time>2014-10-01T09:10:03Z</time>
      </trkpt>
      <trkpt lat="42.2631110" lon="-6.6363300">
        <ele>1006.4</ele>
        <time>2014-10-01T09:10:04Z</time>
      </trkpt>
      <trkpt lat="42.2631010" lon="-6.6364270">
        <ele>1006.5</ele>
        <time>2014-10-01T09:10:05Z</time>
      </trkpt>
      <trkpt lat="42.2630870" lon="-6.6365230">
        <ele>1006.6</ele>
        <time>2014-10-01T09:10:06Z</time>
      </trkpt>
      <trkpt lat="42.2630680" lon="-6.6366230">
        <ele>1006.6</ele>
        <time>2014-10-01T09:10:07Z</time>
      </trkpt>
      <trkpt lat="42.2630470" lon="-6.6367170">
        <ele>1006.4</ele>
        <time>2014-10-01T09:10:08Z</time>
      </trkpt>
      <trkpt lat="42.2630230" lon="-6.6368080">
        <ele>1006.2</ele>
        <time>2014-10-01T09:10:09Z</time>
      </trkpt>
      <trkpt lat="42.2629960" lon="-6.6368980">
        <ele>1006.0</ele>
        <time>2014-10-01T09:10:10Z</time>
      </trkpt>
      <trkpt lat="42.2629680" lon="-6.6369850">
        <ele>1005.8</ele>
        <time>2014-10-01T09:10:11Z</time>
      </trkpt>
      <trkpt lat="42.2629410" lon="-6.6370720">
        <ele>1005.6</ele>
        <time>2014-10-01T09:10:12Z</time>
      </trkpt>
      <trkpt lat="42.2629150" lon="-6.6371580">
        <ele>1005.4</ele>
        <time>2014-10-01T09:10:13Z</time>
      </trkpt>
      <trkpt lat="42.2628910" lon="-6.6372450">
        <ele>1005.1</ele>
        <time>2014-10-01T09:10:14Z</time>
      </trkpt>
      <trkpt lat="42.2628670" lon="-6.6373350">
        <ele>1004.9</ele>
        <time>2014-10-01T09:10:15Z</time>
      </trkpt>
      <trkpt lat="42.2628510" lon="-6.6374380">
        <ele>1004.8</ele>
        <time>2014-10-01T09:10:16Z</time>
      </trkpt>
      <trkpt lat="42.2628410" lon="-6.6375360">
        <ele>1004.7</ele>
        <time>2014-10-01T09:10:17Z</time>
      </trkpt>
      <trkpt lat="42.2628430" lon="-6.6376280">
        <ele>1004.6</ele>
        <time>2014-10-01T09:10:18Z</time>
      </trkpt>
      <trkpt lat="42.2628470" lon="-6.6377240">
        <ele>1004.6</ele>
        <time>2014-10-01T09:10:19Z</time>
      </trkpt>
      <trkpt lat="42.2628520" lon="-6.6378280">
        <ele>1004.5</ele>
        <time>2014-10-01T09:10:20Z</time>
      </trkpt>
      <trkpt lat="42.2628570" lon="-6.6379330">
        <ele>1004.3</ele>
        <time>2014-10-01T09:10:21Z</time>
      </trkpt>
      <trkpt lat="42.2628650" lon="-6.6380380">
        <ele>1004.3</ele>
        <time>2014-10-01T09:10:22Z</time>
      </trkpt>
      <trkpt lat="42.2628750" lon="-6.6381400">
        <ele>1004.3</ele>
        <time>2014-10-01T09:10:23Z</time>
      </trkpt>
      <trkpt lat="42.2629020" lon="-6.6382280">
        <ele>1004.4</ele>
        <time>2014-10-01T09:10:24Z</time>
      </trkpt>
      <trkpt lat="42.2629320" lon="-6.6383150">
        <ele>1004.3</ele>
        <time>2014-10-01T09:10:25Z</time>
      </trkpt>
      <trkpt lat="42.2629680" lon="-6.6384080">
        <ele>1004.3</ele>
        <time>2014-10-01T09:10:26Z</time>
      </trkpt>
      <trkpt lat="42.2630040" lon="-6.6385050">
        <ele>1004.4</ele>
        <time>2014-10-01T09:10:27Z</time>
      </trkpt>
      <trkpt lat="42.2630410" lon="-6.6386020">
        <ele>1004.5</ele>
        <time>2014-10-01T09:10:28Z</time>
      </trkpt>
      <trkpt lat="42.2630750" lon="-6.6386940">
        <ele>1004.7</ele>
        <time>2014-10-01T09:10:29Z</time>
      </trkpt>
      <trkpt lat="42.2631080" lon="-6.6387920">
        <ele>1004.9</ele>
        <time>2014-10-01T09:10:30Z</time>
      </trkpt>
      <trkpt lat="42.2631410" lon="-6.6388820">
        <ele>1005.0</ele>
        <time>2014-10-01T09:10:31Z</time>
      </trkpt>
      <trkpt lat="42.2631770" lon="-6.6389750">
        <ele>1005.1</ele>
        <time>2014-10-01T09:10:32Z</time>
      </trkpt>
      <trkpt lat="42.2632100" lon="-6.6390630">
        <ele>1005.1</ele>
        <time>2014-10-01T09:10:33Z</time>
      </trkpt>
      <trkpt lat="42.2632450" lon="-6.6391530">
        <ele>1005.1</ele>
        <time>2014-10-01T09:10:34Z</time>
      </trkpt>
      <trkpt lat="42.2632770" lon="-6.6392390">
        <ele>1005.2</ele>
        <time>2014-10-01T09:10:35Z</time>
      </trkpt>
      <trkpt lat="42.2633130" lon="-6.6393270">
        <ele>1005.3</ele>
        <time>2014-10-01T09:10:36Z</time>
      </trkpt>
      <trkpt lat="42.2633500" lon="-6.6394190">
        <ele>1005.5</ele>
        <time>2014-10-01T09:10:37Z</time>
      </trkpt>
      <trkpt lat="42.2633870" lon="-6.6395130">
        <ele>1005.8</ele>
        <time>2014-10-01T09:10:38Z</time>
      </trkpt>
      <trkpt lat="42.2634180" lon="-6.6396010">
        <ele>1005.9</ele>
        <time>2014-10-01T09:10:39Z</time>
      </trkpt>
      <trkpt lat="42.2634500" lon="-6.6396920">
        <ele>1006.1</ele>
        <time>2014-10-01T09:10:40Z</time>
      </trkpt>
      <trkpt lat="42.2634810" lon="-6.6397880">
        <ele>1006.2</ele>
        <time>2014-10-01T09:10:41Z</time>
      </trkpt>
      <trkpt lat="42.2635140" lon="-6.6398840">
        <ele>1006.5</ele>
        <time>2014-10-01T09:10:42Z</time>
      </trkpt>
      <trkpt lat="42.2635470" lon="-6.6399820">
        <ele>1006.7</ele>
        <time>2014-10-01T09:10:43Z</time>
      </trkpt>
      <trkpt lat="42.2635810" lon="-6.6400830">
        <ele>1007.0</ele>
        <time>2014-10-01T09:10:44Z</time>
      </trkpt>
      <trkpt lat="42.2636120" lon="-6.6401770">
        <ele>1007.2</ele>
        <time>2014-10-01T09:10:45Z</time>
      </trkpt>
      <trkpt lat="42.2636420" lon="-6.6402680">
        <ele>1007.3</ele>
        <time>2014-10-01T09:10:46Z</time>
      </trkpt>
      <trkpt lat="42.2636670" lon="-6.6403620">
        <ele>1007.4</ele>
        <time>2014-10-01T09:10:47Z</time>
      </trkpt>
      <trkpt lat="42.2636900" lon="-6.6404470">
        <ele>1007.5</ele>
        <time>2014-10-01T09:10:48Z</time>
      </trkpt>
      <trkpt lat="42.2637130" lon="-6.6405310">
        <ele>1007.5</ele>
        <time>2014-10-01T09:10:49Z</time>
      </trkpt>
      <trkpt lat="42.2637380" lon="-6.6406210">
        <ele>1007.4</ele>
        <time>2014-10-01T09:10:50Z</time>
      </trkpt>
      <trkpt lat="42.2637600" lon="-6.6407120">
        <ele>1007.3</ele>
        <time>2014-10-01T09:10:51Z</time>
      </trkpt>
      <trkpt lat="42.2637780" lon="-6.6408020">
        <ele>1007.2</ele>
        <time>2014-10-01T09:10:52Z</time>
      </trkpt>
      <trkpt lat="42.2637950" lon="-6.6408920">
        <ele>1007.1</ele>
        <time>2014-10-01T09:10:53Z</time>
      </trkpt>
      <trkpt lat="42.2638130" lon="-6.6409820">
        <ele>1007.0</ele>
        <time>2014-10-01T09:10:54Z</time>
      </trkpt>
      <trkpt lat="42.2638290" lon="-6.6410740">
        <ele>1006.8</ele>
        <time>2014-10-01T09:10:55Z</time>
      </trkpt>
      <trkpt lat="42.2638460" lon="-6.6411690">
        <ele>1006.6</ele>
        <time>2014-10-01T09:10:56Z</time>
      </trkpt>
      <trkpt lat="42.2638620" lon="-6.6412690">
        <ele>1006.4</ele>
        <time>2014-10-01T09:10:57Z</time>
      </trkpt>
      <trkpt lat="42.2638770" lon="-6.6413600">
        <ele>1006.2</ele>
        <time>2014-10-01T09:10:58Z</time>
      </trkpt>
      <trkpt lat="42.2639000" lon="-6.6414570">
        <ele>1006.0</ele>
        <time>2014-10-01T09:10:59Z</time>
      </trkpt>
      <trkpt lat="42.2639230" lon="-6.6415630">
        <ele>1005.8</ele>
        <time>2014-10-01T09:11:00Z</time>
      </trkpt>
      <trkpt lat="42.2639430" lon="-6.6416590">
        <ele>1005.7</ele>
        <time>2014-10-01T09:11:01Z</time>
      </trkpt>
      <trkpt lat="42.2639640" lon="-6.6417580">
        <ele>1005.6</ele>
        <time>2014-10-01T09:11:02Z</time>
      </trkpt>
      <trkpt lat="42.2639860" lon="-6.6418650">
        <ele>1005.5</ele>
        <time>2014-10-01T09:11:03Z</time>
      </trkpt>
      <trkpt lat="42.2640090" lon="-6.6419830">
        <ele>1005.4</ele>
        <time>2014-10-01T09:11:04Z</time>
      </trkpt>
      <trkpt lat="42.2640340" lon="-6.6420890">
        <ele>1005.3</ele>
        <time>2014-10-01T09:11:05Z</time>
      </trkpt>
      <trkpt lat="42.2640630" lon="-6.6421930">
        <ele>1005.2</ele>
        <time>2014-10-01T09:11:06Z</time>
      </trkpt>
      <trkpt lat="42.2640940" lon="-6.6423010">
        <ele>1005.3</ele>
        <time>2014-10-01T09:11:07Z</time>
      </trkpt>
      <trkpt lat="42.2641280" lon="-6.6423970">
        <ele>1005.4</ele>
        <time>2014-10-01T09:11:08Z</time>
      </trkpt>
      <trkpt lat="42.2641660" lon="-6.6424870">
        <ele>1005.6</ele>
        <time>2014-10-01T09:11:09Z</time>
      </trkpt>
      <trkpt lat="42.2642160" lon="-6.6425650">
        <ele>1005.9</ele>
        <time>2014-10-01T09:11:10Z</time>
      </trkpt>
      <trkpt lat="42.2642670" lon="-6.6426340">
        <ele>1006.3</ele>
        <time>2014-10-01T09:11:11Z</time>
      </trkpt>
      <trkpt lat="42.2643270" lon="-6.6427120">
        <ele>1006.7</ele>
        <time>2014-10-01T09:11:12Z</time>
      </trkpt>
      <trkpt lat="42.2643830" lon="-6.6427780">
        <ele>1007.2</ele>
        <time>2014-10-01T09:11:13Z</time>
      </trkpt>
      <trkpt lat="42.2644330" lon="-6.6428390">
        <ele>1007.7</ele>
        <time>2014-10-01T09:11:14Z</time>
      </trkpt>
      <trkpt lat="42.2644860" lon="-6.6429030">
        <ele>1008.2</ele>
        <time>2014-10-01T09:11:15Z</time>
      </trkpt>
      <trkpt lat="42.2645320" lon="-6.6429620">
        <ele>1008.7</ele>
        <time>2014-10-01T09:11:16Z</time>
      </trkpt>
      <trkpt lat="42.2645790" lon="-6.6430260">
        <ele>1009.2</ele>
        <time>2014-10-01T09:11:17Z</time>
      </trkpt>
      <trkpt lat="42.2646260" lon="-6.6430930">
        <ele>1009.6</ele>
        <time>2014-10-01T09:11:18Z</time>
      </trkpt>
      <trkpt lat="42.2646710" lon="-6.6431580">
        <ele>1010.1</ele>
        <time>2014-10-01T09:11:19Z</time>
      </trkpt>
      <trkpt lat="42.2647150" lon="-6.6432290">
        <ele>1010.5</ele>
        <time>2014-10-01T09:11:20Z</time>
      </trkpt>
      <trkpt lat="42.2647550" lon="-6.6433050">
        <ele>1010.9</ele>
        <time>2014-10-01T09:11:21Z</time>
      </trkpt>
      <trkpt lat="42.2647950" lon="-6.6433870">
        <ele>1011.4</ele>
        <time>2014-10-01T09:11:22Z</time>
      </trkpt>
      <trkpt lat="42.2648330" lon="-6.6434750">
        <ele>1011.9</ele>
        <time>2014-10-01T09:11:23Z</time>
      </trkpt>
      <trkpt lat="42.2648630" lon="-6.6435590">
        <ele>1012.4</ele>
        <time>2014-10-01T09:11:24Z</time>
      </trkpt>
      <trkpt lat="42.2648820" lon="-6.6436510">
        <ele>1012.8</ele>
        <time>2014-10-01T09:11:25Z</time>
      </trkpt>
      <trkpt lat="42.2649010" lon="-6.6437450">
        <ele>1013.2</ele>
        <time>2014-10-01T09:11:26Z</time>
      </trkpt>
      <trkpt lat="42.2649090" lon="-6.6438310">
        <ele>1013.6</ele>
        <time>2014-10-01T09:11:27Z</time>
      </trkpt>
      <trkpt lat="42.2649150" lon="-6.6439160">
        <ele>1013.9</ele>
        <time>2014-10-01T09:11:28Z</time>
      </trkpt>
      <trkpt lat="42.2649200" lon="-6.6440030">
        <ele>1014.3</ele>
        <time>2014-10-01T09:11:29Z</time>
      </trkpt>
      <trkpt lat="42.2649240" lon="-6.6440830">
        <ele>1014.7</ele>
        <time>2014-10-01T09:11:30Z</time>
      </trkpt>
      <trkpt lat="42.2649250" lon="-6.6441510">
        <ele>1015.1</ele>
        <time>2014-10-01T09:11:31Z</time>
      </trkpt>
      <trkpt lat="42.2649260" lon="-6.6442220">
        <ele>1015.5</ele>
        <time>2014-10-01T09:11:32Z</time>
      </trkpt>
      <trkpt lat="42.2649280" lon="-6.6442960">
        <ele>1015.9</ele>
        <time>2014-10-01T09:11:33Z</time>
      </trkpt>
      <trkpt lat="42.2649310" lon="-6.6443730">
        <ele>1016.4</ele>
        <time>2014-10-01T09:11:34Z</time>
      </trkpt>
      <trkpt lat="42.2649330" lon="-6.6444490">
        <ele>1016.9</ele>
        <time>2014-10-01T09:11:35Z</time>
      </trkpt>
      <trkpt lat="42.2649330" lon="-6.6445160">
        <ele>1017.3</ele>
        <time>2014-10-01T09:11:36Z</time>
      </trkpt>
      <trkpt lat="42.2649330" lon="-6.6445910">
        <ele>1017.6</ele>
        <time>2014-10-01T09:11:37Z</time>
      </trkpt>
      <trkpt lat="42.2649320" lon="-6.6446600">
        <ele>1017.9</ele>
        <time>2014-10-01T09:11:38Z</time>
      </trkpt>
      <trkpt lat="42.2649260" lon="-6.6447390">
        <ele>1018.2</ele>
        <time>2014-10-01T09:11:39Z</time>
      </trkpt>
      <trkpt lat="42.2649220" lon="-6.6448100">
        <ele>1018.5</ele>
        <time>2014-10-01T09:11:40Z</time>
      </trkpt>
      <trkpt lat="42.2649160" lon="-6.6448800">
        <ele>1018.7</ele>
        <time>2014-10-01T09:11:41Z</time>
      </trkpt>
      <trkpt lat="42.2649100" lon="-6.6449490">
        <ele>1018.9</ele>
        <time>2014-10-01T09:11:42Z</time>
      </trkpt>
      <trkpt lat="42.2649030" lon="-6.6450240">
        <ele>1019.1</ele>
        <time>2014-10-01T09:11:43Z</time>
      </trkpt>
      <trkpt lat="42.2648950" lon="-6.6450950">
        <ele>1019.2</ele>
        <time>2014-10-01T09:11:44Z</time>
      </trkpt>
      <trkpt lat="42.2648880" lon="-6.6451580">
        <ele>1019.4</ele>
        <time>2014-10-01T09:11:45Z</time>
      </trkpt>
      <trkpt lat="42.2648810" lon="-6.6452280">
        <ele>1019.6</ele>
        <time>2014-10-01T09:11:46Z</time>
      </trkpt>
      <trkpt lat="42.2648760" lon="-6.6453060">
        <ele>1019.7</ele>
        <time>2014-10-01T09:11:47Z</time>
      </trkpt>
      <trkpt lat="42.2648700" lon="-6.6453790">
        <ele>1019.8</ele>
        <time>2014-10-01T09:11:48Z</time>
      </trkpt>
      <trkpt lat="42.2648640" lon="-6.6454550">
        <ele>1019.8</ele>
        <time>2014-10-01T09:11:49Z</time>
      </trkpt>
      <trkpt lat="42.2648610" lon="-6.6455350">
        <ele>1019.9</ele>
        <time>2014-10-01T09:11:50Z</time>
      </trkpt>
      <trkpt lat="42.2648580" lon="-6.6456180">
        <ele>1020.0</ele>
        <time>2014-10-01T09:11:51Z</time>
      </trkpt>
      <trkpt lat="42.2648560" lon="-6.6457080">
        <ele>1020.0</ele>
        <time>2014-10-01T09:11:52Z</time>
      </trkpt>
      <trkpt lat="42.2648540" lon="-6.6457960">
        <ele>1019.8</ele>
        <time>2014-10-01T09:11:53Z</time>
      </trkpt>
      <trkpt lat="42.2648500" lon="-6.6458830">
        <ele>1019.6</ele>
        <time>2014-10-01T09:11:54Z</time>
      </trkpt>
      <trkpt lat="42.2648420" lon="-6.6459750">
        <ele>1019.3</ele>
        <time>2014-10-01T09:11:55Z</time>
      </trkpt>
      <trkpt lat="42.2648290" lon="-6.6460670">
        <ele>1019.1</ele>
        <time>2014-10-01T09:11:56Z</time>
      </trkpt>
      <trkpt lat="42.2648170" lon="-6.6461600">
        <ele>1018.9</ele>
        <time>2014-10-01T09:11:57Z</time>
      </trkpt>
      <trkpt lat="42.2648030" lon="-6.6462520">
        <ele>1018.7</ele>
        <time>2014-10-01T09:11:58Z</time>
      </trkpt>
      <trkpt lat="42.2647910" lon="-6.6463480">
        <ele>1018.6</ele>
        <time>2014-10-01T09:11:59Z</time>
      </trkpt>
      <trkpt lat="42.2647730" lon="-6.6464460">
        <ele>1018.5</ele>
        <time>2014-10-01T09:12:00Z</time>
      </trkpt>
      <trkpt lat="42.2647530" lon="-6.6465450">
        <ele>1018.5</ele>
        <time>2014-10-01T09:12:01Z</time>
      </trkpt>
      <trkpt lat="42.2647350" lon="-6.6466340">
        <ele>1018.4</ele>
        <time>2014-10-01T09:12:02Z</time>
      </trkpt>
      <trkpt lat="42.2647180" lon="-6.6467230">
        <ele>1018.2</ele>
        <time>2014-10-01T09:12:03Z</time>
      </trkpt>
      <trkpt lat="42.2647010" lon="-6.6468100">
        <ele>1018.1</ele>
        <time>2014-10-01T09:12:04Z</time>
      </trkpt>
      <trkpt lat="42.2646860" lon="-6.6469000">
        <ele>1017.9</ele>
        <time>2014-10-01T09:12:05Z</time>
      </trkpt>
      <trkpt lat="42.2646730" lon="-6.6469840">
        <ele>1017.8</ele>
        <time>2014-10-01T09:12:06Z</time>
      </trkpt>
      <trkpt lat="42.2646610" lon="-6.6470720">
        <ele>1017.8</ele>
        <time>2014-10-01T09:12:07Z</time>
      </trkpt>
      <trkpt lat="42.2646480" lon="-6.6471680">
        <ele>1017.8</ele>
        <time>2014-10-01T09:12:08Z</time>
      </trkpt>
      <trkpt lat="42.2646350" lon="-6.6472630">
        <ele>1017.8</ele>
        <time>2014-10-01T09:12:09Z</time>
      </trkpt>
      <trkpt lat="42.2646220" lon="-6.6473530">
        <ele>1017.8</ele>
        <time>2014-10-01T09:12:10Z</time>
      </trkpt>
      <trkpt lat="42.2646110" lon="-6.6474450">
        <ele>1017.8</ele>
        <time>2014-10-01T09:12:11Z</time>
      </trkpt>
      <trkpt lat="42.2645980" lon="-6.6475380">
        <ele>1017.7</ele>
        <time>2014-10-01T09:12:12Z</time>
      </trkpt>
      <trkpt lat="42.2645860" lon="-6.6476350">
        <ele>1017.7</ele>
        <time>2014-10-01T09:12:13Z</time>
      </trkpt>
      <trkpt lat="42.2645760" lon="-6.6477330">
        <ele>1017.5</ele>
        <time>2014-10-01T09:12:14Z</time>
      </trkpt>
      <trkpt lat="42.2645620" lon="-6.6478370">
        <ele>1017.4</ele>
        <time>2014-10-01T09:12:15Z</time>
      </trkpt>
      <trkpt lat="42.2645460" lon="-6.6479410">
        <ele>1017.2</ele>
        <time>2014-10-01T09:12:16Z</time>
      </trkpt>
      <trkpt lat="42.2645280" lon="-6.6480440">
        <ele>1016.9</ele>
        <time>2014-10-01T09:12:17Z</time>
      </trkpt>
      <trkpt lat="42.2645070" lon="-6.6481450">
        <ele>1016.7</ele>
        <time>2014-10-01T09:12:18Z</time>
      </trkpt>
      <trkpt lat="42.2644840" lon="-6.6482460">
        <ele>1016.5</ele>
        <time>2014-10-01T09:12:19Z</time>
      </trkpt>
      <trkpt lat="42.2644610" lon="-6.6483430">
        <ele>1016.2</ele>
        <time>2014-10-01T09:12:20Z</time>
      </trkpt>
      <trkpt lat="42.2644340" lon="-6.6484390">
        <ele>1015.9</ele>
        <time>2014-10-01T09:12:21Z</time>
      </trkpt>
      <trkpt lat="42.2644060" lon="-6.6485290">
        <ele>1015.5</ele>
        <time>2014-10-01T09:12:22Z</time>
      </trkpt>
      <trkpt lat="42.2643780" lon="-6.6486200">
        <ele>1015.1</ele>
        <time>2014-10-01T09:12:23Z</time>
      </trkpt>
      <trkpt lat="42.2643460" lon="-6.6487180">
        <ele>1014.7</ele>
        <time>2014-10-01T09:12:24Z</time>
      </trkpt>
      <trkpt lat="42.2643150" lon="-6.6488150">
        <ele>1014.4</ele>
        <time>2014-10-01T09:12:25Z</time>
      </trkpt>
      <trkpt lat="42.2642870" lon="-6.6489130">
        <ele>1014.1</ele>
        <time>2014-10-01T09:12:26Z</time>
      </trkpt>
      <trkpt lat="42.2642570" lon="-6.6490200">
        <ele>1013.8</ele>
        <time>2014-10-01T09:12:27Z</time>
      </trkpt>
      <trkpt lat="42.2642340" lon="-6.6491180">
        <ele>1013.6</ele>
        <time>2014-10-01T09:12:28Z</time>
      </trkpt>
      <trkpt lat="42.2642100" lon="-6.6492260">
        <ele>1013.4</ele>
        <time>2014-10-01T09:12:29Z</time>
      </trkpt>
      <trkpt lat="42.2641880" lon="-6.6493390">
        <ele>1013.2</ele>
        <time>2014-10-01T09:12:30Z</time>
      </trkpt>
      <trkpt lat="42.2641750" lon="-6.6494490">
        <ele>1013.1</ele>
        <time>2014-10-01T09:12:31Z</time>
      </trkpt>
      <trkpt lat="42.2641830" lon="-6.6495610">
        <ele>1013.0</ele>
        <time>2014-10-01T09:12:32Z</time>
      </trkpt>
      <trkpt lat="42.2641910" lon="-6.6496640">
        <ele>1013.0</ele>
        <time>2014-10-01T09:12:33Z</time>
      </trkpt>
      <trkpt lat="42.2642010" lon="-6.6497760">
        <ele>1013.0</ele>
        <time>2014-10-01T09:12:34Z</time>
      </trkpt>
      <trkpt lat="42.2642130" lon="-6.6498820">
        <ele>1013.2</ele>
        <time>2014-10-01T09:12:35Z</time>
      </trkpt>
      <trkpt lat="42.2642270" lon="-6.6499800">
        <ele>1013.3</ele>
        <time>2014-10-01T09:12:36Z</time>
      </trkpt>
      <trkpt lat="42.2642430" lon="-6.6500690">
        <ele>1013.4</ele>
        <time>2014-10-01T09:12:37Z</time>
      </trkpt>
      <trkpt lat="42.2642650" lon="-6.6501590">
        <ele>1013.6</ele>
        <time>2014-10-01T09:12:38Z</time>
      </trkpt>
      <trkpt lat="42.2642880" lon="-6.6502450">
        <ele>1013.7</ele>
        <time>2014-10-01T09:12:39Z</time>
      </trkpt>
      <trkpt lat="42.2643120" lon="-6.6503300">
        <ele>1013.8</ele>
        <time>2014-10-01T09:12:40Z</time>
      </trkpt>
      <trkpt lat="42.2643390" lon="-6.6504200">
        <ele>1014.0</ele>
        <time>2014-10-01T09:12:41Z</time>
      </trkpt>
      <trkpt lat="42.2643670" lon="-6.6505120">
        <ele>1014.1</ele>
        <time>2014-10-01T09:12:42Z</time>
      </trkpt>
      <trkpt lat="42.2643980" lon="-6.6506090">
        <ele>1014.3</ele>
        <time>2014-10-01T09:12:43Z</time>
      </trkpt>
      <trkpt lat="42.2644270" lon="-6.6506960">
        <ele>1014.6</ele>
        <time>2014-10-01T09:12:44Z</time>
      </trkpt>
      <trkpt lat="42.2644560" lon="-6.6507900">
        <ele>1014.9</ele>
        <time>2014-10-01T09:12:45Z</time>
      </trkpt>
      <trkpt lat="42.2644820" lon="-6.6508800">
        <ele>1015.2</ele>
        <time>2014-10-01T09:12:46Z</time>
      </trkpt>
      <trkpt lat="42.2645070" lon="-6.6509740">
        <ele>1015.5</ele>
        <time>2014-10-01T09:12:47Z</time>
      </trkpt>
      <trkpt lat="42.2645320" lon="-6.6510680">
        <ele>1015.8</ele>
        <time>2014-10-01T09:12:48Z</time>
      </trkpt>
      <trkpt lat="42.2645570" lon="-6.6511670">
        <ele>1016.1</ele>
        <time>2014-10-01T09:12:49Z</time>
      </trkpt>
      <trkpt lat="42.2645820" lon="-6.6512620">
        <ele>1016.4</ele>
        <time>2014-10-01T09:12:50Z</time>
      </trkpt>
      <trkpt lat="42.2646050" lon="-6.6513540">
        <ele>1016.6</ele>
        <time>2014-10-01T09:12:51Z</time>
      </trkpt>
      <trkpt lat="42.2646250" lon="-6.6514370">
        <ele>1016.8</ele>
        <time>2014-10-01T09:12:52Z</time>
      </trkpt>
      <trkpt lat="42.2646400" lon="-6.6515240">
        <ele>1017.0</ele>
        <time>2014-10-01T09:12:53Z</time>
      </trkpt>
      <trkpt lat="42.2646510" lon="-6.6516080">
        <ele>1017.3</ele>
        <time>2014-10-01T09:12:54Z</time>
      </trkpt>
      <trkpt lat="42.2646590" lon="-6.6516920">
        <ele>1017.5</ele>
        <time>2014-10-01T09:12:55Z</time>
      </trkpt>
      <trkpt lat="42.2646640" lon="-6.6517690">
        <ele>1017.7</ele>
        <time>2014-10-01T09:12:56Z</time>
      </trkpt>
      <trkpt lat="42.2646660" lon="-6.6518450">
        <ele>1017.9</ele>
        <time>2014-10-01T09:12:57Z</time>
      </trkpt>
      <trkpt lat="42.2646690" lon="-6.6519220">
        <ele>1018.1</ele>
        <time>2014-10-01T09:12:58Z</time>
      </trkpt>
      <trkpt lat="42.2646690" lon="-6.6519940">
        <ele>1018.2</ele>
        <time>2014-10-01T09:12:59Z</time>
      </trkpt>
      <trkpt lat="42.2646690" lon="-6.6520610">
        <ele>1018.4</ele>
        <time>2014-10-01T09:13:00Z</time>
      </trkpt>
      <trkpt lat="42.2646710" lon="-6.6521260">
        <ele>1018.6</ele>
        <time>2014-10-01T09:13:01Z</time>
      </trkpt>
      <trkpt lat="42.2646720" lon="-6.6521910">
        <ele>1018.9</ele>
        <time>2014-10-01T09:13:02Z</time>
      </trkpt>
      <trkpt lat="42.2646740" lon="-6.6522600">
        <ele>1019.1</ele>
        <time>2014-10-01T09:13:03Z</time>
      </trkpt>
      <trkpt lat="42.2646750" lon="-6.6523230">
        <ele>1019.3</ele>
        <time>2014-10-01T09:13:04Z</time>
      </trkpt>
      <trkpt lat="42.2646750" lon="-6.6523860">
        <ele>1019.5</ele>
        <time>2014-10-01T09:13:05Z</time>
      </trkpt>
      <trkpt lat="42.2646730" lon="-6.6524460">
        <ele>1019.7</ele>
        <time>2014-10-01T09:13:06Z</time>
      </trkpt>
      <trkpt lat="42.2646720" lon="-6.6525050">
        <ele>1020.0</ele>
        <time>2014-10-01T09:13:07Z</time>
      </trkpt>
      <trkpt lat="42.2646700" lon="-6.6525590">
        <ele>1020.1</ele>
        <time>2014-10-01T09:13:08Z</time>
      </trkpt>
      <trkpt lat="42.2646680" lon="-6.6526150">
        <ele>1020.3</ele>
        <time>2014-10-01T09:13:09Z</time>
      </trkpt>
      <trkpt lat="42.2646620" lon="-6.6526740">
        <ele>1020.4</ele>
        <time>2014-10-01T09:13:10Z</time>
      </trkpt>
      <trkpt lat="42.2646550" lon="-6.6527300">
        <ele>1020.6</ele>
        <time>2014-10-01T09:13:11Z</time>
      </trkpt>
      <trkpt lat="42.2646490" lon="-6.6527730">
        <ele>1020.7</ele>
        <time>2014-10-01T09:13:12Z</time>
      </trkpt>
      <trkpt lat="42.2646400" lon="-6.6528360">
        <ele>1020.9</ele>
        <time>2014-10-01T09:13:13Z</time>
      </trkpt>
      <trkpt lat="42.2646320" lon="-6.6528880">
        <ele>1021.0</ele>
        <time>2014-10-01T09:13:14Z</time>
      </trkpt>
      <trkpt lat="42.2646240" lon="-6.6529360">
        <ele>1021.2</ele>
        <time>2014-10-01T09:13:15Z</time>
      </trkpt>
      <trkpt lat="42.2646150" lon="-6.6529860">
        <ele>1021.3</ele>
        <time>2014-10-01T09:13:16Z</time>
      </trkpt>
      <trkpt lat="42.2646070" lon="-6.6530400">
        <ele>1021.4</ele>
        <time>2014-10-01T09:13:17Z</time>
      </trkpt>
      <trkpt lat="42.2646000" lon="-6.6530950">
        <ele>1021.6</ele>
        <time>2014-10-01T09:13:18Z</time>
      </trkpt>
      <trkpt lat="42.2645950" lon="-6.6531380">
        <ele>1021.7</ele>
        <time>2014-10-01T09:13:19Z</time>
      </trkpt>
      <trkpt lat="42.2645870" lon="-6.6531910">
        <ele>1021.8</ele>
        <time>2014-10-01T09:13:20Z</time>
      </trkpt>
      <trkpt lat="42.2645800" lon="-6.6532470">
        <ele>1022.0</ele>
        <time>2014-10-01T09:13:21Z</time>
      </trkpt>
      <trkpt lat="42.2645710" lon="-6.6533090">
        <ele>1022.1</ele>
        <time>2014-10-01T09:13:22Z</time>
      </trkpt>
      <trkpt lat="42.2645660" lon="-6.6533690">
        <ele>1022.3</ele>
        <time>2014-10-01T09:13:23Z</time>
      </trkpt>
      <trkpt lat="42.2645610" lon="-6.6534290">
        <ele>1022.6</ele>
        <time>2014-10-01T09:13:24Z</time>
      </trkpt>
      <trkpt lat="42.2645550" lon="-6.6534830">
        <ele>1022.7</ele>
        <time>2014-10-01T09:13:25Z</time>
      </trkpt>
      <trkpt lat="42.2645550" lon="-6.6535350">
        <ele>1022.9</ele>
        <time>2014-10-01T09:13:26Z</time>
      </trkpt>
      <trkpt lat="42.2645580" lon="-6.6535820">
        <ele>1023.1</ele>
        <time>2014-10-01T09:13:27Z</time>
      </trkpt>
      <trkpt lat="42.2645620" lon="-6.6536310">
        <ele>1023.3</ele>
        <time>2014-10-01T09:13:28Z</time>
      </trkpt>
      <trkpt lat="42.2645680" lon="-6.6536790">
        <ele>1023.5</ele>
        <time>2014-10-01T09:13:29Z</time>
      </trkpt>
      <trkpt lat="42.2645730" lon="-6.6537240">
        <ele>1023.7</ele>
        <time>2014-10-01T09:13:30Z</time>
      </trkpt>
      <trkpt lat="42.2645850" lon="-6.6537630">
        <ele>1023.9</ele>
        <time>2014-10-01T09:13:31Z</time>
      </trkpt>
      <trkpt lat="42.2645990" lon="-6.6538000">
        <ele>1024.0</ele>
        <time>2014-10-01T09:13:32Z</time>
      </trkpt>
      <trkpt lat="42.2646130" lon="-6.6538390">
        <ele>1024.1</ele>
        <time>2014-10-01T09:13:33Z</time>
      </trkpt>
      <trkpt lat="42.2646290" lon="-6.6538850">
        <ele>1024.2</ele>
        <time>2014-10-01T09:13:34Z</time>
      </trkpt>
      <trkpt lat="42.2646470" lon="-6.6539330">
        <ele>1024.2</ele>
        <time>2014-10-01T09:13:35Z</time>
      </trkpt>
      <trkpt lat="42.2646670" lon="-6.6539860">
        <ele>1024.1</ele>
        <time>2014-10-01T09:13:36Z</time>
      </trkpt>
      <trkpt lat="42.2646900" lon="-6.6540430">
        <ele>1023.9</ele>
        <time>2014-10-01T09:13:37Z</time>
      </trkpt>
      <trkpt lat="42.2647160" lon="-6.6541010">
        <ele>1023.6</ele>
        <time>2014-10-01T09:13:38Z</time>
      </trkpt>
      <trkpt lat="42.2647440" lon="-6.6541700">
        <ele>1023.2</ele>
        <time>2014-10-01T09:13:39Z</time>
      </trkpt>
      <trkpt lat="42.2647750" lon="-6.6542450">
        <ele>1022.7</ele>
        <time>2014-10-01T09:13:40Z</time>
      </trkpt>
      <trkpt lat="42.2648110" lon="-6.6543350">
        <ele>1022.1</ele>
        <time>2014-10-01T09:13:41Z</time>
      </trkpt>
      <trkpt lat="42.2648510" lon="-6.6544330">
        <ele>1021.4</ele>
        <time>2014-10-01T09:13:42Z</time>
      </trkpt>
      <trkpt lat="42.2648980" lon="-6.6545350">
        <ele>1020.7</ele>
        <time>2014-10-01T09:13:43Z</time>
      </trkpt>
      <trkpt lat="42.2649640" lon="-6.6546160">
        <ele>1020.0</ele>
        <time>2014-10-01T09:13:44Z</time>
      </trkpt>
      <trkpt lat="42.2650340" lon="-6.6546990">
        <ele>1019.3</ele>
        <time>2014-10-01T09:13:45Z</time>
      </trkpt>
      <trkpt lat="42.2651100" lon="-6.6547790">
        <ele>1018.7</ele>
        <time>2014-10-01T09:13:46Z</time>
      </trkpt>
      <trkpt lat="42.2651710" lon="-6.6548830">
        <ele>1018.3</ele>
        <time>2014-10-01T09:13:47Z</time>
      </trkpt>
      <trkpt lat="42.2652260" lon="-6.6549910">
        <ele>1018.0</ele>
        <time>2014-10-01T09:13:48Z</time>
      </trkpt>
      <trkpt lat="42.2652770" lon="-6.6551060">
        <ele>1017.8</ele>
        <time>2014-10-01T09:13:49Z</time>
      </trkpt>
      <trkpt lat="42.2653220" lon="-6.6552230">
        <ele>1017.8</ele>
        <time>2014-10-01T09:13:50Z</time>
      </trkpt>
      <trkpt lat="42.2653640" lon="-6.6553440">
        <ele>1018.2</ele>
        <time>2014-10-01T09:13:51Z</time>
      </trkpt>
      <trkpt lat="42.2653920" lon="-6.6554460">
        <ele>1018.6</ele>
        <time>2014-10-01T09:13:52Z</time>
      </trkpt>
      <trkpt lat="42.2654190" lon="-6.6555360">
        <ele>1019.0</ele>
        <time>2014-10-01T09:13:53Z</time>
      </trkpt>
      <trkpt lat="42.2654460" lon="-6.6556290">
        <ele>1019.3</ele>
        <time>2014-10-01T09:13:54Z</time>
      </trkpt>
      <trkpt lat="42.2654690" lon="-6.6557160">
        <ele>1019.6</ele>
        <time>2014-10-01T09:13:55Z</time>
      </trkpt>
      <trkpt lat="42.2654950" lon="-6.6558060">
        <ele>1019.9</ele>
        <time>2014-10-01T09:13:56Z</time>
      </trkpt>
      <trkpt lat="42.2655210" lon="-6.6559000">
        <ele>1020.2</ele>
        <time>2014-10-01T09:13:57Z</time>
      </trkpt>
      <trkpt lat="42.2655450" lon="-6.6559840">
        <ele>1020.5</ele>
        <time>2014-10-01T09:13:58Z</time>
      </trkpt>
      <trkpt lat="42.2655680" lon="-6.6560650">
        <ele>1020.9</ele>
        <time>2014-10-01T09:13:59Z</time>
      </trkpt>
      <trkpt lat="42.2655890" lon="-6.6561340">
        <ele>1021.2</ele>
        <time>2014-10-01T09:14:00Z</time>
      </trkpt>
      <trkpt lat="42.2656130" lon="-6.6561930">
        <ele>1021.4</ele>
        <time>2014-10-01T09:14:01Z</time>
      </trkpt>
      <trkpt lat="42.2656370" lon="-6.6562540">
        <ele>1021.8</ele>
        <time>2014-10-01T09:14:02Z</time>
      </trkpt>
      <trkpt lat="42.2656640" lon="-6.6563090">
        <ele>1022.1</ele>
        <time>2014-10-01T09:14:03Z</time>
      </trkpt>
      <trkpt lat="42.2656910" lon="-6.6563680">
        <ele>1022.5</ele>
        <time>2014-10-01T09:14:04Z</time>
      </trkpt>
      <trkpt lat="42.2657160" lon="-6.6564240">
        <ele>1022.8</ele>
        <time>2014-10-01T09:14:05Z</time>
      </trkpt>
      <trkpt lat="42.2657410" lon="-6.6564800">
        <ele>1023.2</ele>
        <time>2014-10-01T09:14:06Z</time>
      </trkpt>
      <trkpt lat="42.2657640" lon="-6.6565360">
        <ele>1023.5</ele>
        <time>2014-10-01T09:14:07Z</time>
      </trkpt>
      <trkpt lat="42.2657850" lon="-6.6565900">
        <ele>1023.9</ele>
        <time>2014-10-01T09:14:08Z</time>
      </trkpt>
      <trkpt lat="42.2658100" lon="-6.6566480">
        <ele>1024.4</ele>
        <time>2014-10-01T09:14:09Z</time>
      </trkpt>
      <trkpt lat="42.2658330" lon="-6.6566980">
        <ele>1024.8</ele>
        <time>2014-10-01T09:14:10Z</time>
      </trkpt>
      <trkpt lat="42.2658560" lon="-6.6567530">
        <ele>1025.3</ele>
        <time>2014-10-01T09:14:11Z</time>
      </trkpt>
      <trkpt lat="42.2658780" lon="-6.6568000">
        <ele>1025.7</ele>
        <time>2014-10-01T09:14:12Z</time>
      </trkpt>
      <trkpt lat="42.2658960" lon="-6.6568400">
        <ele>1026.0</ele>
        <time>2014-10-01T09:14:13Z</time>
      </trkpt>
      <trkpt lat="42.2659150" lon="-6.6568810">
        <ele>1026.3</ele>
        <time>2014-10-01T09:14:14Z</time>
      </trkpt>
      <trkpt lat="42.2659330" lon="-6.6569180">
        <ele>1026.5</ele>
        <time>2014-10-01T09:14:15Z</time>
      </trkpt>
      <trkpt lat="42.2659500" lon="-6.6569600">
        <ele>1026.8</ele>
        <time>2014-10-01T09:14:16Z</time>
      </trkpt>
      <trkpt lat="42.2659670" lon="-6.6569990">
        <ele>1027.0</ele>
        <time>2014-10-01T09:14:17Z</time>
      </trkpt>
      <trkpt lat="42.2659820" lon="-6.6570370">
        <ele>1027.2</ele>
        <time>2014-10-01T09:14:18Z</time>
      </trkpt>
      <trkpt lat="42.2660000" lon="-6.6570750">
        <ele>1027.5</ele>
        <time>2014-10-01T09:14:19Z</time>
      </trkpt>
      <trkpt lat="42.2660190" lon="-6.6571190">
        <ele>1027.7</ele>
        <time>2014-10-01T09:14:20Z</time>
      </trkpt>
      <trkpt lat="42.2660390" lon="-6.6571660">
        <ele>1028.0</ele>
        <time>2014-10-01T09:14:21Z</time>
      </trkpt>
      <trkpt lat="42.2660570" lon="-6.6572080">
        <ele>1028.3</ele>
        <time>2014-10-01T09:14:22Z</time>
      </trkpt>
      <trkpt lat="42.2660790" lon="-6.6572630">
        <ele>1028.6</ele>
        <time>2014-10-01T09:14:23Z</time>
      </trkpt>
      <trkpt lat="42.2661030" lon="-6.6573170">
        <ele>1028.9</ele>
        <time>2014-10-01T09:14:24Z</time>
      </trkpt>
      <trkpt lat="42.2661290" lon="-6.6573780">
        <ele>1029.1</ele>
        <time>2014-10-01T09:14:25Z</time>
      </trkpt>
      <trkpt lat="42.2661540" lon="-6.6574370">
        <ele>1029.4</ele>
        <time>2014-10-01T09:14:26Z</time>
      </trkpt>
      <trkpt lat="42.2661810" lon="-6.6574980">
        <ele>1029.7</ele>
        <time>2014-10-01T09:14:27Z</time>
      </trkpt>
      <trkpt lat="42.2662070" lon="-6.6575600">
        <ele>1029.9</ele>
        <time>2014-10-01T09:14:28Z</time>
      </trkpt>
      <trkpt lat="42.2662330" lon="-6.6576210">
        <ele>1030.2</ele>
        <time>2014-10-01T09:14:29Z</time>
      </trkpt>
      <trkpt lat="42.2662610" lon="-6.6576780">
        <ele>1030.4</ele>
        <time>2014-10-01T09:14:30Z</time>
      </trkpt>
      <trkpt lat="42.2662880" lon="-6.6577280">
        <ele>1030.6</ele>
        <time>2014-10-01T09:14:31Z</time>
      </trkpt>
      <trkpt lat="42.2663150" lon="-6.6577780">
        <ele>1030.7</ele>
        <time>2014-10-01T09:14:32Z</time>
      </trkpt>
      <trkpt lat="42.2663440" lon="-6.6578270">
        <ele>1030.9</ele>
        <time>2014-10-01T09:14:33Z</time>
      </trkpt>
      <trkpt lat="42.2663710" lon="-6.6578730">
        <ele>1031.1</ele>
        <time>2014-10-01T09:14:34Z</time>
      </trkpt>
      <trkpt lat="42.2664010" lon="-6.6579270">
        <ele>1031.3</ele>
        <time>2014-10-01T09:14:35Z</time>
      </trkpt>
      <trkpt lat="42.2664290" lon="-6.6579770">
        <ele>1031.5</ele>
        <time>2014-10-01T09:14:36Z</time>
      </trkpt>
      <trkpt lat="42.2664590" lon="-6.6580320">
        <ele>1031.7</ele>
        <time>2014-10-01T09:14:37Z</time>
      </trkpt>
      <trkpt lat="42.2664900" lon="-6.6580860">
        <ele>1031.9</ele>
        <time>2014-10-01T09:14:38Z</time>
      </trkpt>
      <trkpt lat="42.2665200" lon="-6.6581400">
        <ele>1032.1</ele>
        <time>2014-10-01T09:14:39Z</time>
      </trkpt>
      <trkpt lat="42.2665530" lon="-6.6581960">
        <ele>1032.3</ele>
        <time>2014-10-01T09:14:40Z</time>
      </trkpt>
      <trkpt lat="42.2665890" lon="-6.6582570">
        <ele>1032.6</ele>
        <time>2014-10-01T09:14:41Z</time>
      </trkpt>
      <trkpt lat="42.2666250" lon="-6.6583150">
        <ele>1032.9</ele>
        <time>2014-10-01T09:14:42Z</time>
      </trkpt>
      <trkpt lat="42.2666630" lon="-6.6583780">
        <ele>1033.2</ele>
        <time>2014-10-01T09:14:43Z</time>
      </trkpt>
      <trkpt lat="42.2667020" lon="-6.6584410">
        <ele>1033.6</ele>
        <time>2014-10-01T09:14:44Z</time>
      </trkpt>
      <trkpt lat="42.2667370" lon="-6.6584990">
        <ele>1033.9</ele>
        <time>2014-10-01T09:14:45Z</time>
      </trkpt>
      <trkpt lat="42.2667680" lon="-6.6585540">
        <ele>1034.2</ele>
        <time>2014-10-01T09:14:46Z</time>
      </trkpt>
      <trkpt lat="42.2667970" lon="-6.6586100">
        <ele>1034.4</ele>
        <time>2014-10-01T09:14:47Z</time>
      </trkpt>
      <trkpt lat="42.2668240" lon="-6.6586590">
        <ele>1034.7</ele>
        <time>2014-10-01T09:14:48Z</time>
      </trkpt>
      <trkpt lat="42.2668510" lon="-6.6587080">
        <ele>1034.9</ele>
        <time>2014-10-01T09:14:49Z</time>
      </trkpt>
      <trkpt lat="42.2668770" lon="-6.6587570">
        <ele>1035.2</ele>
        <time>2014-10-01T09:14:50Z</time>
      </trkpt>
      <trkpt lat="42.2668990" lon="-6.6587990">
        <ele>1035.4</ele>
        <time>2014-10-01T09:14:51Z</time>
      </trkpt>
      <trkpt lat="42.2669250" lon="-6.6588510">
        <ele>1035.6</ele>
        <time>2014-10-01T09:14:52Z</time>
      </trkpt>
      <trkpt lat="42.2669490" lon="-6.6588960">
        <ele>1035.9</ele>
        <time>2014-10-01T09:14:53Z</time>
      </trkpt>
      <trkpt lat="42.2669750" lon="-6.6589440">
        <ele>1036.1</ele>
        <time>2014-10-01T09:14:54Z</time>
      </trkpt>
      <trkpt lat="42.2669990" lon="-6.6589840">
        <ele>1036.4</ele>
        <time>2014-10-01T09:14:55Z</time>
      </trkpt>
      <trkpt lat="42.2670260" lon="-6.6590300">
        <ele>1036.6</ele>
        <time>2014-10-01T09:14:56Z</time>
      </trkpt>
      <trkpt lat="42.2670520" lon="-6.6590810">
        <ele>1036.9</ele>
        <time>2014-10-01T09:14:57Z</time>
      </trkpt>
      <trkpt lat="42.2670750" lon="-6.6591320">
        <ele>1037.1</ele>
        <time>2014-10-01T09:14:58Z</time>
      </trkpt>
      <trkpt lat="42.2670970" lon="-6.6591810">
        <ele>1037.3</ele>
        <time>2014-10-01T09:14:59Z</time>
      </trkpt>
      <trkpt lat="42.2671190" lon="-6.6592300">
        <ele>1037.5</ele>
        <time>2014-10-01T09:15:00Z</time>
      </trkpt>
      <trkpt lat="42.2671520" lon="-6.6592680">
        <ele>1037.6</ele>
        <time>2014-10-01T09:15:01Z</time>
      </trkpt>
      <trkpt lat="42.2671810" lon="-6.6593030">
        <ele>1037.8</ele>
        <time>2014-10-01T09:15:02Z</time>
      </trkpt>
      <trkpt lat="42.2672040" lon="-6.6593580">
        <ele>1038.0</ele>
        <time>2014-10-01T09:15:03Z</time>
      </trkpt>
      <trkpt lat="42.2672260" lon="-6.6594140">
        <ele>1038.2</ele>
        <time>2014-10-01T09:15:04Z</time>
      </trkpt>
      <trkpt lat="42.2672460" lon="-6.6594690">
        <ele>1038.4</ele>
        <time>2014-10-01T09:15:05Z</time>
      </trkpt>
      <trkpt lat="42.2672670" lon="-6.6595230">
        <ele>1038.6</ele>
        <time>2014-10-01T09:15:06Z</time>
      </trkpt>
      <trkpt lat="42.2672770" lon="-6.6595600">
        <ele>1038.7</ele>
        <time>2014-10-01T09:15:07Z</time>
      </trkpt>
      <trkpt lat="42.2672880" lon="-6.6595960">
        <ele>1038.8</ele>
        <time>2014-10-01T09:15:08Z</time>
      </trkpt>
      <trkpt lat="42.2673010" lon="-6.6596380">
        <ele>1039.0</ele>
        <time>2014-10-01T09:15:09Z</time>
      </trkpt>
      <trkpt lat="42.2673160" lon="-6.6596840">
        <ele>1039.2</ele>
        <time>2014-10-01T09:15:10Z</time>
      </trkpt>
      <trkpt lat="42.2673330" lon="-6.6597310">
        <ele>1039.4</ele>
        <time>2014-10-01T09:15:11Z</time>
      </trkpt>
      <trkpt lat="42.2673530" lon="-6.6597830">
        <ele>1039.6</ele>
        <time>2014-10-01T09:15:12Z</time>
      </trkpt>
      <trkpt lat="42.2673740" lon="-6.6598250">
        <ele>1039.8</ele>
        <time>2014-10-01T09:15:13Z</time>
      </trkpt>
      <trkpt lat="42.2673960" lon="-6.6598720">
        <ele>1040.1</ele>
        <time>2014-10-01T09:15:14Z</time>
      </trkpt>
      <trkpt lat="42.2674160" lon="-6.6599150">
        <ele>1040.3</ele>
        <time>2014-10-01T09:15:15Z</time>
      </trkpt>
      <trkpt lat="42.2674370" lon="-6.6599610">
        <ele>1040.4</ele>
        <time>2014-10-01T09:15:16Z</time>
      </trkpt>
      <trkpt lat="42.2674570" lon="-6.6600050">
        <ele>1040.6</ele>
        <time>2014-10-01T09:15:17Z</time>
      </trkpt>
      <trkpt lat="42.2674770" lon="-6.6600500">
        <ele>1040.8</ele>
        <time>2014-10-01T09:15:18Z</time>
      </trkpt>
      <trkpt lat="42.2674980" lon="-6.6600920">
        <ele>1040.9</ele>
        <time>2014-10-01T09:15:19Z</time>
      </trkpt>
      <trkpt lat="42.2675270" lon="-6.6601440">
        <ele>1041.0</ele>
        <time>2014-10-01T09:15:20Z</time>
      </trkpt>
      <trkpt lat="42.2675500" lon="-6.6601930">
        <ele>1041.2</ele>
        <time>2014-10-01T09:15:21Z</time>
      </trkpt>
      <trkpt lat="42.2675740" lon="-6.6602430">
        <ele>1041.3</ele>
        <time>2014-10-01T09:15:22Z</time>
      </trkpt>
      <trkpt lat="42.2676020" lon="-6.6602980">
        <ele>1041.5</ele>
        <time>2014-10-01T09:15:23Z</time>
      </trkpt>
      <trkpt lat="42.2676290" lon="-6.6603500">
        <ele>1041.6</ele>
        <time>2014-10-01T09:15:24Z</time>
      </trkpt>
      <trkpt lat="42.2676540" lon="-6.6603990">
        <ele>1041.8</ele>
        <time>2014-10-01T09:15:25Z</time>
      </trkpt>
      <trkpt lat="42.2676810" lon="-6.6604470">
        <ele>1041.9</ele>
        <time>2014-10-01T09:15:26Z</time>
      </trkpt>
      <trkpt lat="42.2677070" lon="-6.6604940">
        <ele>1042.1</ele>
        <time>2014-10-01T09:15:27Z</time>
      </trkpt>
      <trkpt lat="42.2677360" lon="-6.6605460">
        <ele>1042.2</ele>
        <time>2014-10-01T09:15:28Z</time>
      </trkpt>
      <trkpt lat="42.2677610" lon="-6.6605880">
        <ele>1042.3</ele>
        <time>2014-10-01T09:15:29Z</time>
      </trkpt>
      <trkpt lat="42.2677860" lon="-6.6606320">
        <ele>1042.5</ele>
        <time>2014-10-01T09:15:30Z</time>
      </trkpt>
      <trkpt lat="42.2678100" lon="-6.6606730">
        <ele>1042.6</ele>
        <time>2014-10-01T09:15:31Z</time>
      </trkpt>
      <trkpt lat="42.2678640" lon="-6.6607330">
        <ele>1042.8</ele>
        <time>2014-10-01T09:15:52Z</time>
      </trkpt>
      <trkpt lat="42.2678830" lon="-6.6606740">
        <ele>1042.9</ele>
        <time>2014-10-01T09:16:47Z</time>
      </trkpt>
      <trkpt lat="42.2678560" lon="-6.6605400">
        <ele>1043.1</ele>
        <time>2014-10-01T09:17:00Z</time>
      </trkpt>
      <trkpt lat="42.2678900" lon="-6.6605890">
        <ele>1043.1</ele>
        <time>2014-10-01T09:17:08Z</time>
      </trkpt>
      <trkpt lat="42.2678950" lon="-6.6606250">
        <ele>1043.2</ele>
        <time>2014-10-01T09:17:09Z</time>
      </trkpt>
      <trkpt lat="42.2678910" lon="-6.6606880">
        <ele>1043.1</ele>
        <time>2014-10-01T09:17:31Z</time>
      </trkpt>
      <trkpt lat="42.2678520" lon="-6.6607230">
        <ele>1043.1</ele>
        <time>2014-10-01T09:19:24Z</time>
      </trkpt>
      <trkpt lat="42.2678600" lon="-6.6607710">
        <ele>1043.1</ele>
        <time>2014-10-01T09:19:27Z</time>
      </trkpt>
      <trkpt lat="42.2678710" lon="-6.6608120">
        <ele>1043.1</ele>
        <time>2014-10-01T09:19:29Z</time>
      </trkpt>
      <trkpt lat="42.2678880" lon="-6.6608450">
        <ele>1043.1</ele>
        <time>2014-10-01T09:19:30Z</time>
      </trkpt>
      <trkpt lat="42.2679050" lon="-6.6608780">
        <ele>1043.1</ele>
        <time>2014-10-01T09:19:31Z</time>
      </trkpt>
      <trkpt lat="42.2679240" lon="-6.6609210">
        <ele>1043.0</ele>
        <time>2014-10-01T09:19:32Z</time>
      </trkpt>
      <trkpt lat="42.2679450" lon="-6.6609750">
        <ele>1043.0</ele>
        <time>2014-10-01T09:19:33Z</time>
      </trkpt>
      <trkpt lat="42.2679660" lon="-6.6610360">
        <ele>1043.0</ele>
        <time>2014-10-01T09:19:34Z</time>
      </trkpt>
      <trkpt lat="42.2679840" lon="-6.6610940">
        <ele>1042.9</ele>
        <time>2014-10-01T09:19:35Z</time>
      </trkpt>
      <trkpt lat="42.2680010" lon="-6.6611500">
        <ele>1042.9</ele>
        <time>2014-10-01T09:19:36Z</time>
      </trkpt>
      <trkpt lat="42.2680210" lon="-6.6612070">
        <ele>1042.8</ele>
        <time>2014-10-01T09:19:37Z</time>
      </trkpt>
      <trkpt lat="42.2680430" lon="-6.6612650">
        <ele>1042.8</ele>
        <time>2014-10-01T09:19:38Z</time>
      </trkpt>
      <trkpt lat="42.2680690" lon="-6.6613320">
        <ele>1042.8</ele>
        <time>2014-10-01T09:19:39Z</time>
      </trkpt>
      <trkpt lat="42.2680960" lon="-6.6614020">
        <ele>1042.8</ele>
        <time>2014-10-01T09:19:40Z</time>
      </trkpt>
      <trkpt lat="42.2681250" lon="-6.6614730">
        <ele>1042.7</ele>
        <time>2014-10-01T09:19:41Z</time>
      </trkpt>
      <trkpt lat="42.2681520" lon="-6.6615420">
        <ele>1042.7</ele>
        <time>2014-10-01T09:19:42Z</time>
      </trkpt>
      <trkpt lat="42.2681770" lon="-6.6616140">
        <ele>1042.6</ele>
        <time>2014-10-01T09:19:43Z</time>
      </trkpt>
      <trkpt lat="42.2682000" lon="-6.6616870">
        <ele>1042.5</ele>
        <time>2014-10-01T09:19:44Z</time>
      </trkpt>
      <trkpt lat="42.2682250" lon="-6.6617580">
        <ele>1042.5</ele>
        <time>2014-10-01T09:19:45Z</time>
      </trkpt>
      <trkpt lat="42.2682510" lon="-6.6618280">
        <ele>1042.5</ele>
        <time>2014-10-01T09:19:46Z</time>
      </trkpt>
      <trkpt lat="42.2682800" lon="-6.6618960">
        <ele>1042.5</ele>
        <time>2014-10-01T09:19:47Z</time>
      </trkpt>
      <trkpt lat="42.2683100" lon="-6.6619600">
        <ele>1042.6</ele>
        <time>2014-10-01T09:19:48Z</time>
      </trkpt>
      <trkpt lat="42.2683450" lon="-6.6620240">
        <ele>1042.6</ele>
        <time>2014-10-01T09:19:49Z</time>
      </trkpt>
      <trkpt lat="42.2683820" lon="-6.6620840">
        <ele>1042.5</ele>
        <time>2014-10-01T09:19:50Z</time>
      </trkpt>
      <trkpt lat="42.2684240" lon="-6.6621480">
        <ele>1042.1</ele>
        <time>2014-10-01T09:19:51Z</time>
      </trkpt>
      <trkpt lat="42.2684630" lon="-6.6622090">
        <ele>1041.6</ele>
        <time>2014-10-01T09:19:52Z</time>
      </trkpt>
      <trkpt lat="42.2685010" lon="-6.6622650">
        <ele>1041.8</ele>
        <time>2014-10-01T09:19:53Z</time>
      </trkpt>
      <trkpt lat="42.2685370" lon="-6.6623160">
        <ele>1042.1</ele>
        <time>2014-10-01T09:19:54Z</time>
      </trkpt>
      <trkpt lat="42.2685710" lon="-6.6623660">
        <ele>1042.4</ele>
        <time>2014-10-01T09:19:55Z</time>
      </trkpt>
      <trkpt lat="42.2686020" lon="-6.6624120">
        <ele>1042.7</ele>
        <time>2014-10-01T09:19:56Z</time>
      </trkpt>
      <trkpt lat="42.2686310" lon="-6.6624610">
        <ele>1043.0</ele>
        <time>2014-10-01T09:19:57Z</time>
      </trkpt>
      <trkpt lat="42.2686590" lon="-6.6625060">
        <ele>1043.3</ele>
        <time>2014-10-01T09:19:58Z</time>
      </trkpt>
      <trkpt lat="42.2686860" lon="-6.6625500">
        <ele>1043.6</ele>
        <time>2014-10-01T09:19:59Z</time>
      </trkpt>
      <trkpt lat="42.2687110" lon="-6.6625810">
        <ele>1043.8</ele>
        <time>2014-10-01T09:20:00Z</time>
      </trkpt>
      <trkpt lat="42.2687360" lon="-6.6626140">
        <ele>1044.0</ele>
        <time>2014-10-01T09:20:01Z</time>
      </trkpt>
      <trkpt lat="42.2687600" lon="-6.6626420">
        <ele>1044.3</ele>
        <time>2014-10-01T09:20:02Z</time>
      </trkpt>
      <trkpt lat="42.2687860" lon="-6.6626780">
        <ele>1044.6</ele>
        <time>2014-10-01T09:20:03Z</time>
      </trkpt>
      <trkpt lat="42.2688120" lon="-6.6627170">
        <ele>1044.9</ele>
        <time>2014-10-01T09:20:04Z</time>
      </trkpt>
      <trkpt lat="42.2688340" lon="-6.6627480">
        <ele>1045.2</ele>
        <time>2014-10-01T09:20:05Z</time>
      </trkpt>
      <trkpt lat="42.2688540" lon="-6.6627810">
        <ele>1045.5</ele>
        <time>2014-10-01T09:20:06Z</time>
      </trkpt>
      <trkpt lat="42.2688760" lon="-6.6628170">
        <ele>1045.8</ele>
        <time>2014-10-01T09:20:07Z</time>
      </trkpt>
      <trkpt lat="42.2688930" lon="-6.6628460">
        <ele>1046.0</ele>
        <time>2014-10-01T09:20:08Z</time>
      </trkpt>
      <trkpt lat="42.2689160" lon="-6.6628780">
        <ele>1046.3</ele>
        <time>2014-10-01T09:20:09Z</time>
      </trkpt>
      <trkpt lat="42.2689410" lon="-6.6629200">
        <ele>1046.7</ele>
        <time>2014-10-01T09:20:10Z</time>
      </trkpt>
      <trkpt lat="42.2689660" lon="-6.6629560">
        <ele>1047.0</ele>
        <time>2014-10-01T09:20:11Z</time>
      </trkpt>
      <trkpt lat="42.2689860" lon="-6.6629950">
        <ele>1047.3</ele>
        <time>2014-10-01T09:20:12Z</time>
      </trkpt>
      <trkpt lat="42.2690080" lon="-6.6630320">
        <ele>1047.6</ele>
        <time>2014-10-01T09:20:13Z</time>
      </trkpt>
      <trkpt lat="42.2690280" lon="-6.6630670">
        <ele>1047.9</ele>
        <time>2014-10-01T09:20:14Z</time>
      </trkpt>
      <trkpt lat="42.2690470" lon="-6.6631070">
        <ele>1048.2</ele>
        <time>2014-10-01T09:20:15Z</time>
      </trkpt>
      <trkpt lat="42.2690620" lon="-6.6631440">
        <ele>1048.5</ele>
        <time>2014-10-01T09:20:16Z</time>
      </trkpt>
      <trkpt lat="42.2690770" lon="-6.6631760">
        <ele>1048.8</ele>
        <time>2014-10-01T09:20:17Z</time>
      </trkpt>
      <trkpt lat="42.2690960" lon="-6.6632110">
        <ele>1049.0</ele>
        <time>2014-10-01T09:20:18Z</time>
      </trkpt>
      <trkpt lat="42.2691160" lon="-6.6632470">
        <ele>1049.3</ele>
        <time>2014-10-01T09:20:19Z</time>
      </trkpt>
      <trkpt lat="42.2691340" lon="-6.6632830">
        <ele>1049.6</ele>
        <time>2014-10-01T09:20:20Z</time>
      </trkpt>
      <trkpt lat="42.2691570" lon="-6.6633250">
        <ele>1050.0</ele>
        <time>2014-10-01T09:20:21Z</time>
      </trkpt>
      <trkpt lat="42.2691780" lon="-6.6633710">
        <ele>1050.3</ele>
        <time>2014-10-01T09:20:22Z</time>
      </trkpt>
      <trkpt lat="42.2691970" lon="-6.6634130">
        <ele>1050.6</ele>
        <time>2014-10-01T09:20:23Z</time>
      </trkpt>
      <trkpt lat="42.2692120" lon="-6.6634520">
        <ele>1050.9</ele>
        <time>2014-10-01T09:20:24Z</time>
      </trkpt>
      <trkpt lat="42.2692260" lon="-6.6634900">
        <ele>1051.2</ele>
        <time>2014-10-01T09:20:25Z</time>
      </trkpt>
      <trkpt lat="42.2692390" lon="-6.6635290">
        <ele>1051.4</ele>
        <time>2014-10-01T09:20:26Z</time>
      </trkpt>
      <trkpt lat="42.2692540" lon="-6.6635660">
        <ele>1051.7</ele>
        <time>2014-10-01T09:20:27Z</time>
      </trkpt>
      <trkpt lat="42.2692700" lon="-6.6636060">
        <ele>1052.0</ele>
        <time>2014-10-01T09:20:28Z</time>
      </trkpt>
      <trkpt lat="42.2692820" lon="-6.6636420">
        <ele>1052.2</ele>
        <time>2014-10-01T09:20:29Z</time>
      </trkpt>
      <trkpt lat="42.2693000" lon="-6.6637000">
        <ele>1052.7</ele>
        <time>2014-10-01T09:20:31Z</time>
      </trkpt>
      <trkpt lat="42.2693120" lon="-6.6637410">
        <ele>1053.0</ele>
        <time>2014-10-01T09:20:32Z</time>
      </trkpt>
      <trkpt lat="42.2693280" lon="-6.6638120">
        <ele>1053.5</ele>
        <time>2014-10-01T09:20:34Z</time>
      </trkpt>
      <trkpt lat="42.2693380" lon="-6.6638530">
        <ele>1053.8</ele>
        <time>2014-10-01T09:20:35Z</time>
      </trkpt>
      <trkpt lat="42.2693490" lon="-6.6638980">
        <ele>1054.2</ele>
        <time>2014-10-01T09:20:36Z</time>
      </trkpt>
      <trkpt lat="42.2693580" lon="-6.6639400">
        <ele>1054.5</ele>
        <time>2014-10-01T09:20:37Z</time>
      </trkpt>
      <trkpt lat="42.2693670" lon="-6.6639830">
        <ele>1054.8</ele>
        <time>2014-10-01T09:20:38Z</time>
      </trkpt>
      <trkpt lat="42.2693750" lon="-6.6640200">
        <ele>1055.1</ele>
        <time>2014-10-01T09:20:39Z</time>
      </trkpt>
      <trkpt lat="42.2693870" lon="-6.6640820">
        <ele>1055.5</ele>
        <time>2014-10-01T09:20:41Z</time>
      </trkpt>
      <trkpt lat="42.2693960" lon="-6.6641210">
        <ele>1055.8</ele>
        <time>2014-10-01T09:20:42Z</time>
      </trkpt>
      <trkpt lat="42.2694070" lon="-6.6641620">
        <ele>1056.1</ele>
        <time>2014-10-01T09:20:43Z</time>
      </trkpt>
      <trkpt lat="42.2694180" lon="-6.6641980">
        <ele>1056.4</ele>
        <time>2014-10-01T09:20:44Z</time>
      </trkpt>
      <trkpt lat="42.2694270" lon="-6.6642340">
        <ele>1056.7</ele>
        <time>2014-10-01T09:20:45Z</time>
      </trkpt>
      <trkpt lat="42.2694500" lon="-6.6642950">
        <ele>1057.2</ele>
        <time>2014-10-01T09:20:47Z</time>
      </trkpt>
      <trkpt lat="42.2694610" lon="-6.6643300">
        <ele>1057.4</ele>
        <time>2014-10-01T09:20:48Z</time>
      </trkpt>
      <trkpt lat="42.2694760" lon="-6.6643740">
        <ele>1057.8</ele>
        <time>2014-10-01T09:20:49Z</time>
      </trkpt>
      <trkpt lat="42.2694920" lon="-6.6644100">
        <ele>1058.1</ele>
        <time>2014-10-01T09:20:50Z</time>
      </trkpt>
      <trkpt lat="42.2695100" lon="-6.6644500">
        <ele>1058.4</ele>
        <time>2014-10-01T09:20:51Z</time>
      </trkpt>
      <trkpt lat="42.2695210" lon="-6.6644980">
        <ele>1058.8</ele>
        <time>2014-10-01T09:20:52Z</time>
      </trkpt>
      <trkpt lat="42.2695280" lon="-6.6645380">
        <ele>1059.0</ele>
        <time>2014-10-01T09:20:53Z</time>
      </trkpt>
      <trkpt lat="42.2695360" lon="-6.6645760">
        <ele>1059.3</ele>
        <time>2014-10-01T09:20:54Z</time>
      </trkpt>
      <trkpt lat="42.2695460" lon="-6.6646200">
        <ele>1059.6</ele>
        <time>2014-10-01T09:20:55Z</time>
      </trkpt>
      <trkpt lat="42.2695540" lon="-6.6646620">
        <ele>1059.8</ele>
        <time>2014-10-01T09:20:56Z</time>
      </trkpt>
      <trkpt lat="42.2695610" lon="-6.6646970">
        <ele>1060.0</ele>
        <time>2014-10-01T09:20:57Z</time>
      </trkpt>
      <trkpt lat="42.2695710" lon="-6.6647360">
        <ele>1060.2</ele>
        <time>2014-10-01T09:20:58Z</time>
      </trkpt>
      <trkpt lat="42.2695820" lon="-6.6647820">
        <ele>1060.5</ele>
        <time>2014-10-01T09:20:59Z</time>
      </trkpt>
      <trkpt lat="42.2695920" lon="-6.6648260">
        <ele>1060.8</ele>
        <time>2014-10-01T09:21:00Z</time>
      </trkpt>
      <trkpt lat="42.2696040" lon="-6.6648640">
        <ele>1061.0</ele>
        <time>2014-10-01T09:21:01Z</time>
      </trkpt>
      <trkpt lat="42.2696130" lon="-6.6649000">
        <ele>1061.2</ele>
        <time>2014-10-01T09:21:02Z</time>
      </trkpt>
      <trkpt lat="42.2696240" lon="-6.6649460">
        <ele>1061.5</ele>
        <time>2014-10-01T09:21:03Z</time>
      </trkpt>
      <trkpt lat="42.2696370" lon="-6.6649890">
        <ele>1061.8</ele>
        <time>2014-10-01T09:21:04Z</time>
      </trkpt>
      <trkpt lat="42.2696530" lon="-6.6650380">
        <ele>1062.1</ele>
        <time>2014-10-01T09:21:05Z</time>
      </trkpt>
      <trkpt lat="42.2696710" lon="-6.6650860">
        <ele>1062.4</ele>
        <time>2014-10-01T09:21:06Z</time>
      </trkpt>
      <trkpt lat="42.2696830" lon="-6.6651190">
        <ele>1062.6</ele>
        <time>2014-10-01T09:21:07Z</time>
      </trkpt>
      <trkpt lat="42.2697020" lon="-6.6651550">
        <ele>1062.9</ele>
        <time>2014-10-01T09:21:08Z</time>
      </trkpt>
      <trkpt lat="42.2697210" lon="-6.6651880">
        <ele>1063.2</ele>
        <time>2014-10-01T09:21:09Z</time>
      </trkpt>
      <trkpt lat="42.2697390" lon="-6.6652220">
        <ele>1063.4</ele>
        <time>2014-10-01T09:21:10Z</time>
      </trkpt>
      <trkpt lat="42.2697550" lon="-6.6652600">
        <ele>1063.6</ele>
        <time>2014-10-01T09:21:11Z</time>
      </trkpt>
      <trkpt lat="42.2697730" lon="-6.6652990">
        <ele>1063.9</ele>
        <time>2014-10-01T09:21:12Z</time>
      </trkpt>
      <trkpt lat="42.2697910" lon="-6.6653370">
        <ele>1064.1</ele>
        <time>2014-10-01T09:21:13Z</time>
      </trkpt>
      <trkpt lat="42.2698080" lon="-6.6653730">
        <ele>1064.4</ele>
        <time>2014-10-01T09:21:14Z</time>
      </trkpt>
      <trkpt lat="42.2698250" lon="-6.6654090">
        <ele>1064.6</ele>
        <time>2014-10-01T09:21:15Z</time>
      </trkpt>
      <trkpt lat="42.2698440" lon="-6.6654500">
        <ele>1064.8</ele>
        <time>2014-10-01T09:21:16Z</time>
      </trkpt>
      <trkpt lat="42.2698660" lon="-6.6654980">
        <ele>1065.1</ele>
        <time>2014-10-01T09:21:17Z</time>
      </trkpt>
      <trkpt lat="42.2698910" lon="-6.6655430">
        <ele>1065.4</ele>
        <time>2014-10-01T09:21:18Z</time>
      </trkpt>
      <trkpt lat="42.2699150" lon="-6.6655960">
        <ele>1065.6</ele>
        <time>2014-10-01T09:21:19Z</time>
      </trkpt>
      <trkpt lat="42.2699380" lon="-6.6656520">
        <ele>1065.9</ele>
        <time>2014-10-01T09:21:20Z</time>
      </trkpt>
      <trkpt lat="42.2699620" lon="-6.6657110">
        <ele>1066.1</ele>
        <time>2014-10-01T09:21:21Z</time>
      </trkpt>
      <trkpt lat="42.2699890" lon="-6.6657670">
        <ele>1066.3</ele>
        <time>2014-10-01T09:21:22Z</time>
      </trkpt>
      <trkpt lat="42.2700180" lon="-6.6658210">
        <ele>1066.6</ele>
        <time>2014-10-01T09:21:23Z</time>
      </trkpt>
      <trkpt lat="42.2700450" lon="-6.6658710">
        <ele>1066.8</ele>
        <time>2014-10-01T09:21:24Z</time>
      </trkpt>
      <trkpt lat="42.2700670" lon="-6.6659000">
        <ele>1066.9</ele>
        <time>2014-10-01T09:21:25Z</time>
      </trkpt>
      <trkpt lat="42.2700850" lon="-6.6659300">
        <ele>1067.0</ele>
        <time>2014-10-01T09:21:26Z</time>
      </trkpt>
      <trkpt lat="42.2701050" lon="-6.6659690">
        <ele>1067.1</ele>
        <time>2014-10-01T09:21:27Z</time>
      </trkpt>
      <trkpt lat="42.2701270" lon="-6.6660110">
        <ele>1067.2</ele>
        <time>2014-10-01T09:21:28Z</time>
      </trkpt>
      <trkpt lat="42.2701530" lon="-6.6660550">
        <ele>1067.3</ele>
        <time>2014-10-01T09:21:29Z</time>
      </trkpt>
      <trkpt lat="42.2701820" lon="-6.6661010">
        <ele>1067.5</ele>
        <time>2014-10-01T09:21:30Z</time>
      </trkpt>
      <trkpt lat="42.2702100" lon="-6.6661430">
        <ele>1067.6</ele>
        <time>2014-10-01T09:21:31Z</time>
      </trkpt>
      <trkpt lat="42.2702330" lon="-6.6661790">
        <ele>1067.7</ele>
        <time>2014-10-01T09:21:32Z</time>
      </trkpt>
      <trkpt lat="42.2702570" lon="-6.6662140">
        <ele>1067.8</ele>
        <time>2014-10-01T09:21:33Z</time>
      </trkpt>
      <trkpt lat="42.2702770" lon="-6.6662460">
        <ele>1067.9</ele>
        <time>2014-10-01T09:21:34Z</time>
      </trkpt>
      <trkpt lat="42.2703020" lon="-6.6662830">
        <ele>1068.1</ele>
        <time>2014-10-01T09:21:35Z</time>
      </trkpt>
      <trkpt lat="42.2703320" lon="-6.6663240">
        <ele>1068.2</ele>
        <time>2014-10-01T09:21:36Z</time>
      </trkpt>
      <trkpt lat="42.2703640" lon="-6.6663620">
        <ele>1068.3</ele>
        <time>2014-10-01T09:21:37Z</time>
      </trkpt>
      <trkpt lat="42.2704000" lon="-6.6664070">
        <ele>1068.4</ele>
        <time>2014-10-01T09:21:38Z</time>
      </trkpt>
      <trkpt lat="42.2704360" lon="-6.6664510">
        <ele>1068.5</ele>
        <time>2014-10-01T09:21:39Z</time>
      </trkpt>
      <trkpt lat="42.2704730" lon="-6.6664950">
        <ele>1068.6</ele>
        <time>2014-10-01T09:21:40Z</time>
      </trkpt>
      <trkpt lat="42.2705140" lon="-6.6665440">
        <ele>1068.7</ele>
        <time>2014-10-01T09:21:41Z</time>
      </trkpt>
      <trkpt lat="42.2705550" lon="-6.6665920">
        <ele>1068.8</ele>
        <time>2014-10-01T09:21:42Z</time>
      </trkpt>
      <trkpt lat="42.2705930" lon="-6.6666270">
        <ele>1068.8</ele>
        <time>2014-10-01T09:21:43Z</time>
      </trkpt>
      <trkpt lat="42.2706310" lon="-6.6666600">
        <ele>1068.9</ele>
        <time>2014-10-01T09:21:44Z</time>
      </trkpt>
      <trkpt lat="42.2706700" lon="-6.6666910">
        <ele>1069.0</ele>
        <time>2014-10-01T09:21:45Z</time>
      </trkpt>
      <trkpt lat="42.2707070" lon="-6.6667190">
        <ele>1069.0</ele>
        <time>2014-10-01T09:21:46Z</time>
      </trkpt>
      <trkpt lat="42.2707480" lon="-6.6667530">
        <ele>1069.1</ele>
        <time>2014-10-01T09:21:47Z</time>
      </trkpt>
      <trkpt lat="42.2707870" lon="-6.6667840">
        <ele>1069.1</ele>
        <time>2014-10-01T09:21:48Z</time>
      </trkpt>
      <trkpt lat="42.2708320" lon="-6.6668180">
        <ele>1069.2</ele>
        <time>2014-10-01T09:21:49Z</time>
      </trkpt>
      <trkpt lat="42.2708800" lon="-6.6668550">
        <ele>1069.2</ele>
        <time>2014-10-01T09:21:50Z</time>
      </trkpt>
      <trkpt lat="42.2709270" lon="-6.6668900">
        <ele>1069.3</ele>
        <time>2014-10-01T09:21:51Z</time>
      </trkpt>
      <trkpt lat="42.2709680" lon="-6.6669190">
        <ele>1069.3</ele>
        <time>2014-10-01T09:21:52Z</time>
      </trkpt>
      <trkpt lat="42.2710130" lon="-6.6669550">
        <ele>1069.4</ele>
        <time>2014-10-01T09:21:53Z</time>
      </trkpt>
      <trkpt lat="42.2710600" lon="-6.6669900">
        <ele>1069.4</ele>
        <time>2014-10-01T09:21:54Z</time>
      </trkpt>
      <trkpt lat="42.2711110" lon="-6.6670250">
        <ele>1069.4</ele>
        <time>2014-10-01T09:21:55Z</time>
      </trkpt>
      <trkpt lat="42.2711630" lon="-6.6670590">
        <ele>1069.5</ele>
        <time>2014-10-01T09:21:56Z</time>
      </trkpt>
      <trkpt lat="42.2712190" lon="-6.6670930">
        <ele>1069.6</ele>
        <time>2014-10-01T09:21:57Z</time>
      </trkpt>
      <trkpt lat="42.2712760" lon="-6.6671290">
        <ele>1069.7</ele>
        <time>2014-10-01T09:21:58Z</time>
      </trkpt>
      <trkpt lat="42.2713350" lon="-6.6671660">
        <ele>1069.8</ele>
        <time>2014-10-01T09:21:59Z</time>
      </trkpt>
      <trkpt lat="42.2713940" lon="-6.6672030">
        <ele>1069.9</ele>
        <time>2014-10-01T09:22:00Z</time>
      </trkpt>
      <trkpt lat="42.2714480" lon="-6.6672360">
        <ele>1069.9</ele>
        <time>2014-10-01T09:22:01Z</time>
      </trkpt>
      <trkpt lat="42.2715030" lon="-6.6672710">
        <ele>1070.0</ele>
        <time>2014-10-01T09:22:02Z</time>
      </trkpt>
      <trkpt lat="42.2715520" lon="-6.6673070">
        <ele>1070.0</ele>
        <time>2014-10-01T09:22:03Z</time>
      </trkpt>
      <trkpt lat="42.2716060" lon="-6.6673450">
        <ele>1070.0</ele>
        <time>2014-10-01T09:22:04Z</time>
      </trkpt>
      <trkpt lat="42.2716580" lon="-6.6673830">
        <ele>1070.0</ele>
        <time>2014-10-01T09:22:05Z</time>
      </trkpt>
      <trkpt lat="42.2717110" lon="-6.6674230">
        <ele>1070.0</ele>
        <time>2014-10-01T09:22:06Z</time>
      </trkpt>
      <trkpt lat="42.2717680" lon="-6.6674590">
        <ele>1070.0</ele>
        <time>2014-10-01T09:22:07Z</time>
      </trkpt>
      <trkpt lat="42.2718310" lon="-6.6674970">
        <ele>1070.0</ele>
        <time>2014-10-01T09:22:08Z</time>
      </trkpt>
      <trkpt lat="42.2718920" lon="-6.6675360">
        <ele>1070.1</ele>
        <time>2014-10-01T09:22:09Z</time>
      </trkpt>
      <trkpt lat="42.2719470" lon="-6.6675740">
        <ele>1070.1</ele>
        <time>2014-10-01T09:22:10Z</time>
      </trkpt>
      <trkpt lat="42.2720060" lon="-6.6676080">
        <ele>1070.1</ele>
        <time>2014-10-01T09:22:11Z</time>
      </trkpt>
      <trkpt lat="42.2720650" lon="-6.6676430">
        <ele>1070.2</ele>
        <time>2014-10-01T09:22:12Z</time>
      </trkpt>
      <trkpt lat="42.2721240" lon="-6.6676780">
        <ele>1070.1</ele>
        <time>2014-10-01T09:22:13Z</time>
      </trkpt>
      <trkpt lat="42.2721850" lon="-6.6677160">
        <ele>1070.0</ele>
        <time>2014-10-01T09:22:14Z</time>
      </trkpt>
      <trkpt lat="42.2722450" lon="-6.6677550">
        <ele>1069.6</ele>
        <time>2014-10-01T09:22:15Z</time>
      </trkpt>
      <trkpt lat="42.2723050" lon="-6.6677980">
        <ele>1068.8</ele>
        <time>2014-10-01T09:22:16Z</time>
      </trkpt>
      <trkpt lat="42.2723620" lon="-6.6678460">
        <ele>1068.3</ele>
        <time>2014-10-01T09:22:17Z</time>
      </trkpt>
      <trkpt lat="42.2724190" lon="-6.6678950">
        <ele>1068.1</ele>
        <time>2014-10-01T09:22:18Z</time>
      </trkpt>
      <trkpt lat="42.2724750" lon="-6.6679400">
        <ele>1067.9</ele>
        <time>2014-10-01T09:22:19Z</time>
      </trkpt>
      <trkpt lat="42.2725350" lon="-6.6679910">
        <ele>1067.8</ele>
        <time>2014-10-01T09:22:20Z</time>
      </trkpt>
      <trkpt lat="42.2725950" lon="-6.6680430">
        <ele>1067.7</ele>
        <time>2014-10-01T09:22:21Z</time>
      </trkpt>
      <trkpt lat="42.2726520" lon="-6.6680990">
        <ele>1067.7</ele>
        <time>2014-10-01T09:22:22Z</time>
      </trkpt>
      <trkpt lat="42.2727060" lon="-6.6681570">
        <ele>1067.7</ele>
        <time>2014-10-01T09:22:23Z</time>
      </trkpt>
      <trkpt lat="42.2727600" lon="-6.6682220">
        <ele>1067.6</ele>
        <time>2014-10-01T09:22:24Z</time>
      </trkpt>
      <trkpt lat="42.2728120" lon="-6.6682950">
        <ele>1067.6</ele>
        <time>2014-10-01T09:22:25Z</time>
      </trkpt>
      <trkpt lat="42.2728520" lon="-6.6683830">
        <ele>1067.5</ele>
        <time>2014-10-01T09:22:26Z</time>
      </trkpt>
      <trkpt lat="42.2728920" lon="-6.6684720">
        <ele>1067.4</ele>
        <time>2014-10-01T09:22:27Z</time>
      </trkpt>
      <trkpt lat="42.2729270" lon="-6.6685610">
        <ele>1067.3</ele>
        <time>2014-10-01T09:22:28Z</time>
      </trkpt>
      <trkpt lat="42.2729570" lon="-6.6686510">
        <ele>1067.3</ele>
        <time>2014-10-01T09:22:29Z</time>
      </trkpt>
      <trkpt lat="42.2729810" lon="-6.6687450">
        <ele>1067.3</ele>
        <time>2014-10-01T09:22:30Z</time>
      </trkpt>
      <trkpt lat="42.2729890" lon="-6.6688390">
        <ele>1067.3</ele>
        <time>2014-10-01T09:22:31Z</time>
      </trkpt>
      <trkpt lat="42.2729920" lon="-6.6689300">
        <ele>1067.3</ele>
        <time>2014-10-01T09:22:32Z</time>
      </trkpt>
      <trkpt lat="42.2729920" lon="-6.6690250">
        <ele>1067.3</ele>
        <time>2014-10-01T09:22:33Z</time>
      </trkpt>
      <trkpt lat="42.2729850" lon="-6.6691250">
        <ele>1067.3</ele>
        <time>2014-10-01T09:22:34Z</time>
      </trkpt>
      <trkpt lat="42.2729730" lon="-6.6692240">
        <ele>1067.3</ele>
        <time>2014-10-01T09:22:35Z</time>
      </trkpt>
      <trkpt lat="42.2729460" lon="-6.6693120">
        <ele>1067.3</ele>
        <time>2014-10-01T09:22:36Z</time>
      </trkpt>
      <trkpt lat="42.2729160" lon="-6.6694080">
        <ele>1067.3</ele>
        <time>2014-10-01T09:22:37Z</time>
      </trkpt>
      <trkpt lat="42.2728790" lon="-6.6695090">
        <ele>1067.3</ele>
        <time>2014-10-01T09:22:38Z</time>
      </trkpt>
      <trkpt lat="42.2728400" lon="-6.6695980">
        <ele>1067.4</ele>
        <time>2014-10-01T09:22:39Z</time>
      </trkpt>
      <trkpt lat="42.2727870" lon="-6.6696750">
        <ele>1067.5</ele>
        <time>2014-10-01T09:22:40Z</time>
      </trkpt>
      <trkpt lat="42.2727340" lon="-6.6697440">
        <ele>1067.6</ele>
        <time>2014-10-01T09:22:41Z</time>
      </trkpt>
      <trkpt lat="42.2726790" lon="-6.6698080">
        <ele>1067.7</ele>
        <time>2014-10-01T09:22:42Z</time>
      </trkpt>
      <trkpt lat="42.2726190" lon="-6.6698680">
        <ele>1067.9</ele>
        <time>2014-10-01T09:22:43Z</time>
      </trkpt>
      <trkpt lat="42.2725540" lon="-6.6699210">
        <ele>1068.0</ele>
        <time>2014-10-01T09:22:44Z</time>
      </trkpt>
      <trkpt lat="42.2724780" lon="-6.6699580">
        <ele>1068.2</ele>
        <time>2014-10-01T09:22:45Z</time>
      </trkpt>
      <trkpt lat="42.2724030" lon="-6.6699920">
        <ele>1068.5</ele>
        <time>2014-10-01T09:22:46Z</time>
      </trkpt>
      <trkpt lat="42.2723250" lon="-6.6700210">
        <ele>1068.7</ele>
        <time>2014-10-01T09:22:47Z</time>
      </trkpt>
      <trkpt lat="42.2722450" lon="-6.6700290">
        <ele>1068.9</ele>
        <time>2014-10-01T09:22:48Z</time>
      </trkpt>
      <trkpt lat="42.2721670" lon="-6.6700330">
        <ele>1069.1</ele>
        <time>2014-10-01T09:22:49Z</time>
      </trkpt>
      <trkpt lat="42.2720910" lon="-6.6700310">
        <ele>1069.3</ele>
        <time>2014-10-01T09:22:50Z</time>
      </trkpt>
      <trkpt lat="42.2720140" lon="-6.6700240">
        <ele>1069.6</ele>
        <time>2014-10-01T09:22:51Z</time>
      </trkpt>
      <trkpt lat="42.2719420" lon="-6.6700140">
        <ele>1069.8</ele>
        <time>2014-10-01T09:22:52Z</time>
      </trkpt>
      <trkpt lat="42.2718710" lon="-6.6700040">
        <ele>1070.0</ele>
        <time>2014-10-01T09:22:53Z</time>
      </trkpt>
      <trkpt lat="42.2718010" lon="-6.6699880">
        <ele>1070.3</ele>
        <time>2014-10-01T09:22:54Z</time>
      </trkpt>
      <trkpt lat="42.2717290" lon="-6.6699680">
        <ele>1070.6</ele>
        <time>2014-10-01T09:22:55Z</time>
      </trkpt>
      <trkpt lat="42.2716590" lon="-6.6699500">
        <ele>1070.9</ele>
        <time>2014-10-01T09:22:56Z</time>
      </trkpt>
      <trkpt lat="42.2715830" lon="-6.6699320">
        <ele>1071.2</ele>
        <time>2014-10-01T09:22:57Z</time>
      </trkpt>
      <trkpt lat="42.2715040" lon="-6.6699140">
        <ele>1071.6</ele>
        <time>2014-10-01T09:22:58Z</time>
      </trkpt>
      <trkpt lat="42.2714280" lon="-6.6699080">
        <ele>1072.0</ele>
        <time>2014-10-01T09:22:59Z</time>
      </trkpt>
      <trkpt lat="42.2713500" lon="-6.6699070">
        <ele>1072.4</ele>
        <time>2014-10-01T09:23:00Z</time>
      </trkpt>
      <trkpt lat="42.2712690" lon="-6.6699060">
        <ele>1072.9</ele>
        <time>2014-10-01T09:23:01Z</time>
      </trkpt>
      <trkpt lat="42.2712030" lon="-6.6699320">
        <ele>1073.3</ele>
        <time>2014-10-01T09:23:02Z</time>
      </trkpt>
      <trkpt lat="42.2711490" lon="-6.6699650">
        <ele>1073.7</ele>
        <time>2014-10-01T09:23:03Z</time>
      </trkpt>
      <trkpt lat="42.2710940" lon="-6.6700030">
        <ele>1074.1</ele>
        <time>2014-10-01T09:23:04Z</time>
      </trkpt>
      <trkpt lat="42.2710360" lon="-6.6700370">
        <ele>1074.6</ele>
        <time>2014-10-01T09:23:05Z</time>
      </trkpt>
      <trkpt lat="42.2709820" lon="-6.6700730">
        <ele>1075.0</ele>
        <time>2014-10-01T09:23:06Z</time>
      </trkpt>
      <trkpt lat="42.2709320" lon="-6.6701110">
        <ele>1075.5</ele>
        <time>2014-10-01T09:23:07Z</time>
      </trkpt>
      <trkpt lat="42.2708760" lon="-6.6701540">
        <ele>1076.0</ele>
        <time>2014-10-01T09:23:08Z</time>
      </trkpt>
      <trkpt lat="42.2708260" lon="-6.6701970">
        <ele>1076.5</ele>
        <time>2014-10-01T09:23:09Z</time>
      </trkpt>
      <trkpt lat="42.2707760" lon="-6.6702460">
        <ele>1076.9</ele>
        <time>2014-10-01T09:23:10Z</time>
      </trkpt>
      <trkpt lat="42.2707330" lon="-6.6702950">
        <ele>1077.2</ele>
        <time>2014-10-01T09:23:11Z</time>
      </trkpt>
      <trkpt lat="42.2706880" lon="-6.6703460">
        <ele>1077.5</ele>
        <time>2014-10-01T09:23:12Z</time>
      </trkpt>
      <trkpt lat="42.2706440" lon="-6.6704020">
        <ele>1077.8</ele>
        <time>2014-10-01T09:23:13Z</time>
      </trkpt>
      <trkpt lat="42.2706030" lon="-6.6704590">
        <ele>1078.1</ele>
        <time>2014-10-01T09:23:14Z</time>
      </trkpt>
      <trkpt lat="42.2705640" lon="-6.6705180">
        <ele>1078.6</ele>
        <time>2014-10-01T09:23:15Z</time>
      </trkpt>
      <trkpt lat="42.2705340" lon="-6.6705710">
        <ele>1079.1</ele>
        <time>2014-10-01T09:23:16Z</time>
      </trkpt>
      <trkpt lat="42.2705030" lon="-6.6706280">
        <ele>1079.6</ele>
        <time>2014-10-01T09:23:17Z</time>
      </trkpt>
      <trkpt lat="42.2704780" lon="-6.6706830">
        <ele>1080.0</ele>
        <time>2014-10-01T09:23:18Z</time>
      </trkpt>
      <trkpt lat="42.2704550" lon="-6.6707360">
        <ele>1080.4</ele>
        <time>2014-10-01T09:23:19Z</time>
      </trkpt>
      <trkpt lat="42.2704370" lon="-6.6707810">
        <ele>1080.8</ele>
        <time>2014-10-01T09:23:20Z</time>
      </trkpt>
      <trkpt lat="42.2704140" lon="-6.6708310">
        <ele>1081.2</ele>
        <time>2014-10-01T09:23:21Z</time>
      </trkpt>
      <trkpt lat="42.2703930" lon="-6.6708810">
        <ele>1081.6</ele>
        <time>2014-10-01T09:23:22Z</time>
      </trkpt>
      <trkpt lat="42.2703760" lon="-6.6709210">
        <ele>1082.0</ele>
        <time>2014-10-01T09:23:23Z</time>
      </trkpt>
      <trkpt lat="42.2703620" lon="-6.6709560">
        <ele>1082.3</ele>
        <time>2014-10-01T09:23:24Z</time>
      </trkpt>
      <trkpt lat="42.2703480" lon="-6.6709930">
        <ele>1082.7</ele>
        <time>2014-10-01T09:23:25Z</time>
      </trkpt>
      <trkpt lat="42.2703330" lon="-6.6710290">
        <ele>1083.0</ele>
        <time>2014-10-01T09:23:26Z</time>
      </trkpt>
      <trkpt lat="42.2703160" lon="-6.6710670">
        <ele>1083.3</ele>
        <time>2014-10-01T09:23:27Z</time>
      </trkpt>
      <trkpt lat="42.2702970" lon="-6.6711100">
        <ele>1083.7</ele>
        <time>2014-10-01T09:23:28Z</time>
      </trkpt>
      <trkpt lat="42.2702760" lon="-6.6711510">
        <ele>1084.1</ele>
        <time>2014-10-01T09:23:29Z</time>
      </trkpt>
      <trkpt lat="42.2702570" lon="-6.6711950">
        <ele>1084.5</ele>
        <time>2014-10-01T09:23:30Z</time>
      </trkpt>
      <trkpt lat="42.2702380" lon="-6.6712410">
        <ele>1084.9</ele>
        <time>2014-10-01T09:23:31Z</time>
      </trkpt>
      <trkpt lat="42.2702220" lon="-6.6712810">
        <ele>1085.3</ele>
        <time>2014-10-01T09:23:32Z</time>
      </trkpt>
      <trkpt lat="42.2702050" lon="-6.6713220">
        <ele>1085.7</ele>
        <time>2014-10-01T09:23:33Z</time>
      </trkpt>
      <trkpt lat="42.2701910" lon="-6.6713600">
        <ele>1086.0</ele>
        <time>2014-10-01T09:23:34Z</time>
      </trkpt>
      <trkpt lat="42.2701770" lon="-6.6714000">
        <ele>1086.3</ele>
        <time>2014-10-01T09:23:35Z</time>
      </trkpt>
      <trkpt lat="42.2701610" lon="-6.6714430">
        <ele>1086.7</ele>
        <time>2014-10-01T09:23:36Z</time>
      </trkpt>
      <trkpt lat="42.2701450" lon="-6.6714820">
        <ele>1087.1</ele>
        <time>2014-10-01T09:23:37Z</time>
      </trkpt>
      <trkpt lat="42.2701250" lon="-6.6715270">
        <ele>1087.5</ele>
        <time>2014-10-01T09:23:38Z</time>
      </trkpt>
      <trkpt lat="42.2701040" lon="-6.6715760">
        <ele>1088.0</ele>
        <time>2014-10-01T09:23:39Z</time>
      </trkpt>
      <trkpt lat="42.2700880" lon="-6.6716200">
        <ele>1088.5</ele>
        <time>2014-10-01T09:23:40Z</time>
      </trkpt>
      <trkpt lat="42.2700700" lon="-6.6716700">
        <ele>1088.1</ele>
        <time>2014-10-01T09:23:41Z</time>
      </trkpt>
      <trkpt lat="42.2700570" lon="-6.6717110">
        <ele>1087.8</ele>
        <time>2014-10-01T09:23:42Z</time>
      </trkpt>
      <trkpt lat="42.2700450" lon="-6.6717520">
        <ele>1087.5</ele>
        <time>2014-10-01T09:23:43Z</time>
      </trkpt>
      <trkpt lat="42.2700320" lon="-6.6717960">
        <ele>1087.7</ele>
        <time>2014-10-01T09:23:44Z</time>
      </trkpt>
      <trkpt lat="42.2700200" lon="-6.6718400">
        <ele>1087.9</ele>
        <time>2014-10-01T09:23:45Z</time>
      </trkpt>
      <trkpt lat="42.2700070" lon="-6.6718860">
        <ele>1088.1</ele>
        <time>2014-10-01T09:23:46Z</time>
      </trkpt>
      <trkpt lat="42.2699940" lon="-6.6719320">
        <ele>1088.3</ele>
        <time>2014-10-01T09:23:47Z</time>
      </trkpt>
      <trkpt lat="42.2699800" lon="-6.6719800">
        <ele>1088.5</ele>
        <time>2014-10-01T09:23:48Z</time>
      </trkpt>
      <trkpt lat="42.2699660" lon="-6.6720330">
        <ele>1088.7</ele>
        <time>2014-10-01T09:23:49Z</time>
      </trkpt>
      <trkpt lat="42.2699540" lon="-6.6720860">
        <ele>1088.5</ele>
        <time>2014-10-01T09:23:50Z</time>
      </trkpt>
      <trkpt lat="42.2699410" lon="-6.6721460">
        <ele>1088.4</ele>
        <time>2014-10-01T09:23:51Z</time>
      </trkpt>
      <trkpt lat="42.2699300" lon="-6.6722020">
        <ele>1088.4</ele>
        <time>2014-10-01T09:23:52Z</time>
      </trkpt>
      <trkpt lat="42.2699200" lon="-6.6722570">
        <ele>1088.4</ele>
        <time>2014-10-01T09:23:53Z</time>
      </trkpt>
      <trkpt lat="42.2699110" lon="-6.6723030">
        <ele>1088.4</ele>
        <time>2014-10-01T09:23:54Z</time>
      </trkpt>
      <trkpt lat="42.2699030" lon="-6.6723450">
        <ele>1088.5</ele>
        <time>2014-10-01T09:23:55Z</time>
      </trkpt>
      <trkpt lat="42.2698950" lon="-6.6723920">
        <ele>1088.5</ele>
        <time>2014-10-01T09:23:56Z</time>
      </trkpt>
      <trkpt lat="42.2698840" lon="-6.6724770">
        <ele>1088.7</ele>
        <time>2014-10-01T09:23:58Z</time>
      </trkpt>
      <trkpt lat="42.2698790" lon="-6.6725290">
        <ele>1088.9</ele>
        <time>2014-10-01T09:23:59Z</time>
      </trkpt>
      <trkpt lat="42.2698760" lon="-6.6725820">
        <ele>1089.1</ele>
        <time>2014-10-01T09:24:00Z</time>
      </trkpt>
      <trkpt lat="42.2698760" lon="-6.6726270">
        <ele>1089.3</ele>
        <time>2014-10-01T09:24:01Z</time>
      </trkpt>
      <trkpt lat="42.2698750" lon="-6.6726690">
        <ele>1089.5</ele>
        <time>2014-10-01T09:24:02Z</time>
      </trkpt>
      <trkpt lat="42.2698740" lon="-6.6727180">
        <ele>1089.7</ele>
        <time>2014-10-01T09:24:03Z</time>
      </trkpt>
      <trkpt lat="42.2698760" lon="-6.6727690">
        <ele>1090.0</ele>
        <time>2014-10-01T09:24:04Z</time>
      </trkpt>
      <trkpt lat="42.2698760" lon="-6.6728130">
        <ele>1090.2</ele>
        <time>2014-10-01T09:24:05Z</time>
      </trkpt>
      <trkpt lat="42.2698760" lon="-6.6728620">
        <ele>1090.4</ele>
        <time>2014-10-01T09:24:06Z</time>
      </trkpt>
      <trkpt lat="42.2698770" lon="-6.6729080">
        <ele>1090.6</ele>
        <time>2014-10-01T09:24:07Z</time>
      </trkpt>
      <trkpt lat="42.2698780" lon="-6.6729560">
        <ele>1090.9</ele>
        <time>2014-10-01T09:24:08Z</time>
      </trkpt>
      <trkpt lat="42.2698780" lon="-6.6730080">
        <ele>1091.2</ele>
        <time>2014-10-01T09:24:09Z</time>
      </trkpt>
      <trkpt lat="42.2698810" lon="-6.6730540">
        <ele>1091.4</ele>
        <time>2014-10-01T09:24:10Z</time>
      </trkpt>
      <trkpt lat="42.2698850" lon="-6.6731010">
        <ele>1091.7</ele>
        <time>2014-10-01T09:24:11Z</time>
      </trkpt>
      <trkpt lat="42.2698880" lon="-6.6731440">
        <ele>1091.9</ele>
        <time>2014-10-01T09:24:12Z</time>
      </trkpt>
      <trkpt lat="42.2698890" lon="-6.6731820">
        <ele>1092.1</ele>
        <time>2014-10-01T09:24:13Z</time>
      </trkpt>
      <trkpt lat="42.2698910" lon="-6.6732280">
        <ele>1092.4</ele>
        <time>2014-10-01T09:24:14Z</time>
      </trkpt>
      <trkpt lat="42.2698940" lon="-6.6732760">
        <ele>1092.6</ele>
        <time>2014-10-01T09:24:15Z</time>
      </trkpt>
      <trkpt lat="42.2698980" lon="-6.6733190">
        <ele>1092.9</ele>
        <time>2014-10-01T09:24:16Z</time>
      </trkpt>
      <trkpt lat="42.2698980" lon="-6.6733660">
        <ele>1093.2</ele>
        <time>2014-10-01T09:24:17Z</time>
      </trkpt>
      <trkpt lat="42.2698990" lon="-6.6734150">
        <ele>1093.4</ele>
        <time>2014-10-01T09:24:18Z</time>
      </trkpt>
      <trkpt lat="42.2699000" lon="-6.6734620">
        <ele>1093.7</ele>
        <time>2014-10-01T09:24:19Z</time>
      </trkpt>
      <trkpt lat="42.2699010" lon="-6.6735110">
        <ele>1093.9</ele>
        <time>2014-10-01T09:24:20Z</time>
      </trkpt>
      <trkpt lat="42.2699010" lon="-6.6735550">
        <ele>1094.2</ele>
        <time>2014-10-01T09:24:21Z</time>
      </trkpt>
      <trkpt lat="42.2699000" lon="-6.6735920">
        <ele>1094.4</ele>
        <time>2014-10-01T09:24:22Z</time>
      </trkpt>
      <trkpt lat="42.2698980" lon="-6.6736310">
        <ele>1094.6</ele>
        <time>2014-10-01T09:24:23Z</time>
      </trkpt>
      <trkpt lat="42.2698980" lon="-6.6736720">
        <ele>1094.8</ele>
        <time>2014-10-01T09:24:24Z</time>
      </trkpt>
      <trkpt lat="42.2698960" lon="-6.6737250">
        <ele>1095.0</ele>
        <time>2014-10-01T09:24:25Z</time>
      </trkpt>
      <trkpt lat="42.2698960" lon="-6.6737720">
        <ele>1095.3</ele>
        <time>2014-10-01T09:24:26Z</time>
      </trkpt>
      <trkpt lat="42.2698950" lon="-6.6738250">
        <ele>1095.6</ele>
        <time>2014-10-01T09:24:27Z</time>
      </trkpt>
      <trkpt lat="42.2698930" lon="-6.6738710">
        <ele>1095.8</ele>
        <time>2014-10-01T09:24:28Z</time>
      </trkpt>
      <trkpt lat="42.2698910" lon="-6.6739200">
        <ele>1096.1</ele>
        <time>2014-10-01T09:24:29Z</time>
      </trkpt>
      <trkpt lat="42.2698890" lon="-6.6739640">
        <ele>1096.3</ele>
        <time>2014-10-01T09:24:30Z</time>
      </trkpt>
      <trkpt lat="42.2698880" lon="-6.6740060">
        <ele>1096.5</ele>
        <time>2014-10-01T09:24:31Z</time>
      </trkpt>
      <trkpt lat="42.2698890" lon="-6.6740510">
        <ele>1096.7</ele>
        <time>2014-10-01T09:24:32Z</time>
      </trkpt>
      <trkpt lat="42.2698920" lon="-6.6740970">
        <ele>1096.9</ele>
        <time>2014-10-01T09:24:33Z</time>
      </trkpt>
      <trkpt lat="42.2698950" lon="-6.6741490">
        <ele>1097.1</ele>
        <time>2014-10-01T09:24:34Z</time>
      </trkpt>
      <trkpt lat="42.2698980" lon="-6.6742030">
        <ele>1097.3</ele>
        <time>2014-10-01T09:24:35Z</time>
      </trkpt>
      <trkpt lat="42.2699010" lon="-6.6742600">
        <ele>1097.5</ele>
        <time>2014-10-01T09:24:36Z</time>
      </trkpt>
      <trkpt lat="42.2699040" lon="-6.6743200">
        <ele>1097.8</ele>
        <time>2014-10-01T09:24:37Z</time>
      </trkpt>
      <trkpt lat="42.2699030" lon="-6.6743810">
        <ele>1098.0</ele>
        <time>2014-10-01T09:24:38Z</time>
      </trkpt>
      <trkpt lat="42.2699040" lon="-6.6744480">
        <ele>1098.2</ele>
        <time>2014-10-01T09:24:39Z</time>
      </trkpt>
      <trkpt lat="42.2699060" lon="-6.6745240">
        <ele>1098.4</ele>
        <time>2014-10-01T09:24:40Z</time>
      </trkpt>
      <trkpt lat="42.2699090" lon="-6.6745840">
        <ele>1098.6</ele>
        <time>2014-10-01T09:24:41Z</time>
      </trkpt>
      <trkpt lat="42.2699120" lon="-6.6746480">
        <ele>1098.9</ele>
        <time>2014-10-01T09:24:42Z</time>
      </trkpt>
      <trkpt lat="42.2699110" lon="-6.6747130">
        <ele>1099.1</ele>
        <time>2014-10-01T09:24:43Z</time>
      </trkpt>
      <trkpt lat="42.2699110" lon="-6.6747840">
        <ele>1099.4</ele>
        <time>2014-10-01T09:24:44Z</time>
      </trkpt>
      <trkpt lat="42.2699130" lon="-6.6748640">
        <ele>1099.7</ele>
        <time>2014-10-01T09:24:45Z</time>
      </trkpt>
      <trkpt lat="42.2699280" lon="-6.6749490">
        <ele>1100.0</ele>
        <time>2014-10-01T09:24:46Z</time>
      </trkpt>
      <trkpt lat="42.2699470" lon="-6.6750330">
        <ele>1100.3</ele>
        <time>2014-10-01T09:24:47Z</time>
      </trkpt>
      <trkpt lat="42.2699690" lon="-6.6751270">
        <ele>1100.7</ele>
        <time>2014-10-01T09:24:48Z</time>
      </trkpt>
      <trkpt lat="42.2699920" lon="-6.6752130">
        <ele>1101.2</ele>
        <time>2014-10-01T09:24:49Z</time>
      </trkpt>
      <trkpt lat="42.2700160" lon="-6.6753050">
        <ele>1101.7</ele>
        <time>2014-10-01T09:24:50Z</time>
      </trkpt>
      <trkpt lat="42.2700390" lon="-6.6754040">
        <ele>1102.3</ele>
        <time>2014-10-01T09:24:51Z</time>
      </trkpt>
      <trkpt lat="42.2700640" lon="-6.6755020">
        <ele>1103.0</ele>
        <time>2014-10-01T09:24:52Z</time>
      </trkpt>
      <trkpt lat="42.2700830" lon="-6.6755930">
        <ele>1103.7</ele>
        <time>2014-10-01T09:24:53Z</time>
      </trkpt>
      <trkpt lat="42.2700810" lon="-6.6756800">
        <ele>1104.3</ele>
        <time>2014-10-01T09:24:54Z</time>
      </trkpt>
      <trkpt lat="42.2700670" lon="-6.6757530">
        <ele>1104.9</ele>
        <time>2014-10-01T09:24:55Z</time>
      </trkpt>
      <trkpt lat="42.2700520" lon="-6.6758150">
        <ele>1105.3</ele>
        <time>2014-10-01T09:24:56Z</time>
      </trkpt>
      <trkpt lat="42.2700290" lon="-6.6758730">
        <ele>1105.7</ele>
        <time>2014-10-01T09:24:57Z</time>
      </trkpt>
      <trkpt lat="42.2700090" lon="-6.6759200">
        <ele>1106.0</ele>
        <time>2014-10-01T09:24:58Z</time>
      </trkpt>
      <trkpt lat="42.2699830" lon="-6.6759600">
        <ele>1106.3</ele>
        <time>2014-10-01T09:24:59Z</time>
      </trkpt>
      <trkpt lat="42.2699380" lon="-6.6760060">
        <ele>1106.8</ele>
        <time>2014-10-01T09:25:01Z</time>
      </trkpt>
      <trkpt lat="42.2699070" lon="-6.6760300">
        <ele>1107.1</ele>
        <time>2014-10-01T09:25:02Z</time>
      </trkpt>
      <trkpt lat="42.2698730" lon="-6.6760570">
        <ele>1107.5</ele>
        <time>2014-10-01T09:25:03Z</time>
      </trkpt>
      <trkpt lat="42.2698450" lon="-6.6760740">
        <ele>1107.8</ele>
        <time>2014-10-01T09:25:04Z</time>
      </trkpt>
      <trkpt lat="42.2698130" lon="-6.6760940">
        <ele>1108.2</ele>
        <time>2014-10-01T09:25:05Z</time>
      </trkpt>
      <trkpt lat="42.2697830" lon="-6.6761060">
        <ele>1108.5</ele>
        <time>2014-10-01T09:25:06Z</time>
      </trkpt>
      <trkpt lat="42.2697520" lon="-6.6761210">
        <ele>1108.7</ele>
        <time>2014-10-01T09:25:07Z</time>
      </trkpt>
      <trkpt lat="42.2697220" lon="-6.6761350">
        <ele>1109.0</ele>
        <time>2014-10-01T09:25:08Z</time>
      </trkpt>
      <trkpt lat="42.2696960" lon="-6.6761500">
        <ele>1109.2</ele>
        <time>2014-10-01T09:25:09Z</time>
      </trkpt>
      <trkpt lat="42.2696490" lon="-6.6761740">
        <ele>1109.5</ele>
        <time>2014-10-01T09:25:11Z</time>
      </trkpt>
      <trkpt lat="42.2696010" lon="-6.6761960">
        <ele>1109.9</ele>
        <time>2014-10-01T09:25:13Z</time>
      </trkpt>
      <trkpt lat="42.2695540" lon="-6.6762100">
        <ele>1110.2</ele>
        <time>2014-10-01T09:25:15Z</time>
      </trkpt>
      <trkpt lat="42.2695120" lon="-6.6762280">
        <ele>1110.6</ele>
        <time>2014-10-01T09:25:17Z</time>
      </trkpt>
      <trkpt lat="42.2694640" lon="-6.6762530">
        <ele>1111.0</ele>
        <time>2014-10-01T09:25:19Z</time>
      </trkpt>
      <trkpt lat="42.2694390" lon="-6.6762670">
        <ele>1111.3</ele>
        <time>2014-10-01T09:25:20Z</time>
      </trkpt>
      <trkpt lat="42.2694130" lon="-6.6762820">
        <ele>1111.6</ele>
        <time>2014-10-01T09:25:21Z</time>
      </trkpt>
      <trkpt lat="42.2693690" lon="-6.6763060">
        <ele>1112.1</ele>
        <time>2014-10-01T09:25:23Z</time>
      </trkpt>
      <trkpt lat="42.2693290" lon="-6.6763320">
        <ele>1112.6</ele>
        <time>2014-10-01T09:25:25Z</time>
      </trkpt>
      <trkpt lat="42.2692870" lon="-6.6763640">
        <ele>1113.1</ele>
        <time>2014-10-01T09:25:27Z</time>
      </trkpt>
      <trkpt lat="42.2692410" lon="-6.6763990">
        <ele>1113.7</ele>
        <time>2014-10-01T09:25:29Z</time>
      </trkpt>
      <trkpt lat="42.2691960" lon="-6.6764380">
        <ele>1114.3</ele>
        <time>2014-10-01T09:25:31Z</time>
      </trkpt>
      <trkpt lat="42.2691530" lon="-6.6764730">
        <ele>1114.8</ele>
        <time>2014-10-01T09:25:33Z</time>
      </trkpt>
      <trkpt lat="42.2691120" lon="-6.6765070">
        <ele>1115.4</ele>
        <time>2014-10-01T09:25:35Z</time>
      </trkpt>
      <trkpt lat="42.2690720" lon="-6.6765390">
        <ele>1115.9</ele>
        <time>2014-10-01T09:25:37Z</time>
      </trkpt>
      <trkpt lat="42.2690390" lon="-6.6765660">
        <ele>1116.4</ele>
        <time>2014-10-01T09:25:39Z</time>
      </trkpt>
      <trkpt lat="42.2690010" lon="-6.6765930">
        <ele>1116.9</ele>
        <time>2014-10-01T09:25:41Z</time>
      </trkpt>
      <trkpt lat="42.2689600" lon="-6.6766270">
        <ele>1117.4</ele>
        <time>2014-10-01T09:25:43Z</time>
      </trkpt>
      <trkpt lat="42.2689260" lon="-6.6766710">
        <ele>1117.9</ele>
        <time>2014-10-01T09:25:45Z</time>
      </trkpt>
      <trkpt lat="42.2689000" lon="-6.6767160">
        <ele>1118.4</ele>
        <time>2014-10-01T09:25:47Z</time>
      </trkpt>
      <trkpt lat="42.2688800" lon="-6.6767570">
        <ele>1118.8</ele>
        <time>2014-10-01T09:25:49Z</time>
      </trkpt>
      <trkpt lat="42.2688500" lon="-6.6768190">
        <ele>1119.5</ele>
        <time>2014-10-01T09:25:51Z</time>
      </trkpt>
      <trkpt lat="42.2688310" lon="-6.6768730">
        <ele>1120.0</ele>
        <time>2014-10-01T09:25:53Z</time>
      </trkpt>
      <trkpt lat="42.2688100" lon="-6.6769300">
        <ele>1120.6</ele>
        <time>2014-10-01T09:25:55Z</time>
      </trkpt>
      <trkpt lat="42.2687880" lon="-6.6769840">
        <ele>1121.1</ele>
        <time>2014-10-01T09:25:57Z</time>
      </trkpt>
      <trkpt lat="42.2687650" lon="-6.6770360">
        <ele>1121.7</ele>
        <time>2014-10-01T09:25:59Z</time>
      </trkpt>
      <trkpt lat="42.2687450" lon="-6.6770850">
        <ele>1122.2</ele>
        <time>2014-10-01T09:26:01Z</time>
      </trkpt>
      <trkpt lat="42.2687280" lon="-6.6771330">
        <ele>1122.6</ele>
        <time>2014-10-01T09:26:03Z</time>
      </trkpt>
      <trkpt lat="42.2687120" lon="-6.6771800">
        <ele>1123.1</ele>
        <time>2014-10-01T09:26:05Z</time>
      </trkpt>
      <trkpt lat="42.2686930" lon="-6.6772340">
        <ele>1123.6</ele>
        <time>2014-10-01T09:26:07Z</time>
      </trkpt>
      <trkpt lat="42.2686830" lon="-6.6772800">
        <ele>1124.0</ele>
        <time>2014-10-01T09:26:09Z</time>
      </trkpt>
      <trkpt lat="42.2686740" lon="-6.6773380">
        <ele>1124.5</ele>
        <time>2014-10-01T09:26:11Z</time>
      </trkpt>
      <trkpt lat="42.2686670" lon="-6.6773900">
        <ele>1125.0</ele>
        <time>2014-10-01T09:26:13Z</time>
      </trkpt>
      <trkpt lat="42.2686560" lon="-6.6774400">
        <ele>1125.4</ele>
        <time>2014-10-01T09:26:15Z</time>
      </trkpt>
      <trkpt lat="42.2686450" lon="-6.6774930">
        <ele>1125.8</ele>
        <time>2014-10-01T09:26:17Z</time>
      </trkpt>
      <trkpt lat="42.2686340" lon="-6.6775480">
        <ele>1126.3</ele>
        <time>2014-10-01T09:26:19Z</time>
      </trkpt>
      <trkpt lat="42.2686210" lon="-6.6775980">
        <ele>1126.6</ele>
        <time>2014-10-01T09:26:21Z</time>
      </trkpt>
      <trkpt lat="42.2686100" lon="-6.6776470">
        <ele>1127.0</ele>
        <time>2014-10-01T09:26:23Z</time>
      </trkpt>
      <trkpt lat="42.2685990" lon="-6.6777000">
        <ele>1127.4</ele>
        <time>2014-10-01T09:26:25Z</time>
      </trkpt>
      <trkpt lat="42.2685850" lon="-6.6777610">
        <ele>1127.9</ele>
        <time>2014-10-01T09:26:27Z</time>
      </trkpt>
      <trkpt lat="42.2685710" lon="-6.6778230">
        <ele>1128.4</ele>
        <time>2014-10-01T09:26:29Z</time>
      </trkpt>
      <trkpt lat="42.2685600" lon="-6.6778750">
        <ele>1128.7</ele>
        <time>2014-10-01T09:26:31Z</time>
      </trkpt>
      <trkpt lat="42.2685530" lon="-6.6779340">
        <ele>1129.2</ele>
        <time>2014-10-01T09:26:33Z</time>
      </trkpt>
      <trkpt lat="42.2685490" lon="-6.6779850">
        <ele>1129.6</ele>
        <time>2014-10-01T09:26:35Z</time>
      </trkpt>
      <trkpt lat="42.2685410" lon="-6.6780400">
        <ele>1130.0</ele>
        <time>2014-10-01T09:26:37Z</time>
      </trkpt>
      <trkpt lat="42.2685310" lon="-6.6781020">
        <ele>1130.5</ele>
        <time>2014-10-01T09:26:39Z</time>
      </trkpt>
      <trkpt lat="42.2685200" lon="-6.6781700">
        <ele>1131.1</ele>
        <time>2014-10-01T09:26:41Z</time>
      </trkpt>
      <trkpt lat="42.2685100" lon="-6.6782390">
        <ele>1131.6</ele>
        <time>2014-10-01T09:26:43Z</time>
      </trkpt>
      <trkpt lat="42.2685050" lon="-6.6782750">
        <ele>1131.9</ele>
        <time>2014-10-01T09:26:44Z</time>
      </trkpt>
      <trkpt lat="42.2684950" lon="-6.6783430">
        <ele>1132.4</ele>
        <time>2014-10-01T09:26:46Z</time>
      </trkpt>
      <trkpt lat="42.2684860" lon="-6.6783970">
        <ele>1132.8</ele>
        <time>2014-10-01T09:26:48Z</time>
      </trkpt>
      <trkpt lat="42.2684710" lon="-6.6784570">
        <ele>1133.3</ele>
        <time>2014-10-01T09:26:50Z</time>
      </trkpt>
      <trkpt lat="42.2684540" lon="-6.6785230">
        <ele>1133.8</ele>
        <time>2014-10-01T09:26:52Z</time>
      </trkpt>
      <trkpt lat="42.2684390" lon="-6.6785910">
        <ele>1134.4</ele>
        <time>2014-10-01T09:26:54Z</time>
      </trkpt>
      <trkpt lat="42.2684270" lon="-6.6786550">
        <ele>1134.9</ele>
        <time>2014-10-01T09:26:56Z</time>
      </trkpt>
      <trkpt lat="42.2684210" lon="-6.6786910">
        <ele>1135.2</ele>
        <time>2014-10-01T09:26:57Z</time>
      </trkpt>
      <trkpt lat="42.2684080" lon="-6.6787570">
        <ele>1135.8</ele>
        <time>2014-10-01T09:26:59Z</time>
      </trkpt>
      <trkpt lat="42.2683990" lon="-6.6788210">
        <ele>1136.3</ele>
        <time>2014-10-01T09:27:01Z</time>
      </trkpt>
      <trkpt lat="42.2683930" lon="-6.6788860">
        <ele>1136.9</ele>
        <time>2014-10-01T09:27:03Z</time>
      </trkpt>
      <trkpt lat="42.2683830" lon="-6.6789510">
        <ele>1137.4</ele>
        <time>2014-10-01T09:27:05Z</time>
      </trkpt>
      <trkpt lat="42.2683740" lon="-6.6790140">
        <ele>1138.0</ele>
        <time>2014-10-01T09:27:07Z</time>
      </trkpt>
      <trkpt lat="42.2683660" lon="-6.6790800">
        <ele>1138.5</ele>
        <time>2014-10-01T09:27:09Z</time>
      </trkpt>
      <trkpt lat="42.2683610" lon="-6.6791170">
        <ele>1138.8</ele>
        <time>2014-10-01T09:27:10Z</time>
      </trkpt>
      <trkpt lat="42.2683560" lon="-6.6791540">
        <ele>1139.2</ele>
        <time>2014-10-01T09:27:11Z</time>
      </trkpt>
      <trkpt lat="42.2683500" lon="-6.6791950">
        <ele>1139.6</ele>
        <time>2014-10-01T09:27:12Z</time>
      </trkpt>
      <trkpt lat="42.2683440" lon="-6.6792320">
        <ele>1139.9</ele>
        <time>2014-10-01T09:27:13Z</time>
      </trkpt>
      <trkpt lat="42.2683380" lon="-6.6792680">
        <ele>1140.2</ele>
        <time>2014-10-01T09:27:14Z</time>
      </trkpt>
      <trkpt lat="42.2683320" lon="-6.6793050">
        <ele>1140.6</ele>
        <time>2014-10-01T09:27:15Z</time>
      </trkpt>
      <trkpt lat="42.2683260" lon="-6.6793420">
        <ele>1141.0</ele>
        <time>2014-10-01T09:27:16Z</time>
      </trkpt>
      <trkpt lat="42.2683200" lon="-6.6793800">
        <ele>1141.3</ele>
        <time>2014-10-01T09:27:17Z</time>
      </trkpt>
      <trkpt lat="42.2683110" lon="-6.6794460">
        <ele>1142.0</ele>
        <time>2014-10-01T09:27:19Z</time>
      </trkpt>
      <trkpt lat="42.2683040" lon="-6.6795060">
        <ele>1142.6</ele>
        <time>2014-10-01T09:27:21Z</time>
      </trkpt>
      <trkpt lat="42.2683000" lon="-6.6795740">
        <ele>1143.3</ele>
        <time>2014-10-01T09:27:23Z</time>
      </trkpt>
      <trkpt lat="42.2682940" lon="-6.6796160">
        <ele>1143.8</ele>
        <time>2014-10-01T09:27:24Z</time>
      </trkpt>
      <trkpt lat="42.2682910" lon="-6.6796540">
        <ele>1144.1</ele>
        <time>2014-10-01T09:27:25Z</time>
      </trkpt>
      <trkpt lat="42.2682890" lon="-6.6796920">
        <ele>1144.5</ele>
        <time>2014-10-01T09:27:26Z</time>
      </trkpt>
      <trkpt lat="42.2682870" lon="-6.6797620">
        <ele>1145.2</ele>
        <time>2014-10-01T09:27:28Z</time>
      </trkpt>
      <trkpt lat="42.2682860" lon="-6.6798030">
        <ele>1145.6</ele>
        <time>2014-10-01T09:27:29Z</time>
      </trkpt>
      <trkpt lat="42.2682860" lon="-6.6798440">
        <ele>1146.1</ele>
        <time>2014-10-01T09:27:30Z</time>
      </trkpt>
      <trkpt lat="42.2682850" lon="-6.6798840">
        <ele>1146.5</ele>
        <time>2014-10-01T09:27:31Z</time>
      </trkpt>
      <trkpt lat="42.2682840" lon="-6.6799270">
        <ele>1147.0</ele>
        <time>2014-10-01T09:27:32Z</time>
      </trkpt>
      <trkpt lat="42.2682900" lon="-6.6799640">
        <ele>1147.5</ele>
        <time>2014-10-01T09:27:33Z</time>
      </trkpt>
      <trkpt lat="42.2682920" lon="-6.6800260">
        <ele>1148.3</ele>
        <time>2014-10-01T09:27:35Z</time>
      </trkpt>
      <trkpt lat="42.2682880" lon="-6.6800940">
        <ele>1149.1</ele>
        <time>2014-10-01T09:27:37Z</time>
      </trkpt>
      <trkpt lat="42.2682820" lon="-6.6801620">
        <ele>1150.0</ele>
        <time>2014-10-01T09:27:39Z</time>
      </trkpt>
      <trkpt lat="42.2682810" lon="-6.6801980">
        <ele>1150.5</ele>
        <time>2014-10-01T09:27:40Z</time>
      </trkpt>
      <trkpt lat="42.2682800" lon="-6.6802360">
        <ele>1151.0</ele>
        <time>2014-10-01T09:27:41Z</time>
      </trkpt>
      <trkpt lat="42.2682790" lon="-6.6802750">
        <ele>1151.5</ele>
        <time>2014-10-01T09:27:42Z</time>
      </trkpt>
      <trkpt lat="42.2682770" lon="-6.6803510">
        <ele>1152.4</ele>
        <time>2014-10-01T09:27:44Z</time>
      </trkpt>
      <trkpt lat="42.2682750" lon="-6.6803940">
        <ele>1152.9</ele>
        <time>2014-10-01T09:27:45Z</time>
      </trkpt>
      <trkpt lat="42.2682740" lon="-6.6804590">
        <ele>1153.4</ele>
        <time>2014-10-01T09:27:47Z</time>
      </trkpt>
      <trkpt lat="42.2682750" lon="-6.6805320">
        <ele>1154.0</ele>
        <time>2014-10-01T09:27:49Z</time>
      </trkpt>
      <trkpt lat="42.2682780" lon="-6.6806030">
        <ele>1154.5</ele>
        <time>2014-10-01T09:27:51Z</time>
      </trkpt>
      <trkpt lat="42.2682840" lon="-6.6806650">
        <ele>1155.0</ele>
        <time>2014-10-01T09:27:53Z</time>
      </trkpt>
      <trkpt lat="42.2682850" lon="-6.6807390">
        <ele>1155.6</ele>
        <time>2014-10-01T09:27:55Z</time>
      </trkpt>
      <trkpt lat="42.2682850" lon="-6.6807770">
        <ele>1156.0</ele>
        <time>2014-10-01T09:27:56Z</time>
      </trkpt>
      <trkpt lat="42.2682850" lon="-6.6808200">
        <ele>1156.4</ele>
        <time>2014-10-01T09:27:57Z</time>
      </trkpt>
      <trkpt lat="42.2682840" lon="-6.6808580">
        <ele>1156.7</ele>
        <time>2014-10-01T09:27:58Z</time>
      </trkpt>
      <trkpt lat="42.2682820" lon="-6.6809240">
        <ele>1157.4</ele>
        <time>2014-10-01T09:28:00Z</time>
      </trkpt>
      <trkpt lat="42.2682820" lon="-6.6809910">
        <ele>1158.1</ele>
        <time>2014-10-01T09:28:02Z</time>
      </trkpt>
      <trkpt lat="42.2682820" lon="-6.6810310">
        <ele>1158.4</ele>
        <time>2014-10-01T09:28:03Z</time>
      </trkpt>
      <trkpt lat="42.2682820" lon="-6.6810760">
        <ele>1158.9</ele>
        <time>2014-10-01T09:28:04Z</time>
      </trkpt>
      <trkpt lat="42.2682810" lon="-6.6811160">
        <ele>1159.3</ele>
        <time>2014-10-01T09:28:05Z</time>
      </trkpt>
      <trkpt lat="42.2682810" lon="-6.6811560">
        <ele>1159.6</ele>
        <time>2014-10-01T09:28:06Z</time>
      </trkpt>
      <trkpt lat="42.2682810" lon="-6.6812240">
        <ele>1160.1</ele>
        <time>2014-10-01T09:28:08Z</time>
      </trkpt>
      <trkpt lat="42.2682850" lon="-6.6812980">
        <ele>1160.7</ele>
        <time>2014-10-01T09:28:10Z</time>
      </trkpt>
      <trkpt lat="42.2682880" lon="-6.6813360">
        <ele>1161.0</ele>
        <time>2014-10-01T09:28:11Z</time>
      </trkpt>
      <trkpt lat="42.2682890" lon="-6.6814060">
        <ele>1161.5</ele>
        <time>2014-10-01T09:28:13Z</time>
      </trkpt>
      <trkpt lat="42.2682880" lon="-6.6814460">
        <ele>1161.8</ele>
        <time>2014-10-01T09:28:14Z</time>
      </trkpt>
      <trkpt lat="42.2682880" lon="-6.6815130">
        <ele>1162.4</ele>
        <time>2014-10-01T09:28:16Z</time>
      </trkpt>
      <trkpt lat="42.2682890" lon="-6.6815800">
        <ele>1162.9</ele>
        <time>2014-10-01T09:28:18Z</time>
      </trkpt>
      <trkpt lat="42.2682880" lon="-6.6816520">
        <ele>1163.5</ele>
        <time>2014-10-01T09:28:20Z</time>
      </trkpt>
      <trkpt lat="42.2682880" lon="-6.6817120">
        <ele>1164.0</ele>
        <time>2014-10-01T09:28:22Z</time>
      </trkpt>
      <trkpt lat="42.2682900" lon="-6.6817670">
        <ele>1164.4</ele>
        <time>2014-10-01T09:28:24Z</time>
      </trkpt>
      <trkpt lat="42.2682960" lon="-6.6818270">
        <ele>1164.9</ele>
        <time>2014-10-01T09:28:26Z</time>
      </trkpt>
      <trkpt lat="42.2682980" lon="-6.6818870">
        <ele>1165.3</ele>
        <time>2014-10-01T09:28:28Z</time>
      </trkpt>
      <trkpt lat="42.2682990" lon="-6.6819440">
        <ele>1165.8</ele>
        <time>2014-10-01T09:28:30Z</time>
      </trkpt>
      <trkpt lat="42.2682980" lon="-6.6820080">
        <ele>1166.3</ele>
        <time>2014-10-01T09:28:32Z</time>
      </trkpt>
      <trkpt lat="42.2683020" lon="-6.6820920">
        <ele>1167.1</ele>
        <time>2014-10-01T09:28:35Z</time>
      </trkpt>
      <trkpt lat="42.2683020" lon="-6.6821330">
        <ele>1167.4</ele>
        <time>2014-10-01T09:28:36Z</time>
      </trkpt>
      <trkpt lat="42.2683000" lon="-6.6822030">
        <ele>1168.0</ele>
        <time>2014-10-01T09:28:38Z</time>
      </trkpt>
      <trkpt lat="42.2682980" lon="-6.6822770">
        <ele>1168.6</ele>
        <time>2014-10-01T09:28:41Z</time>
      </trkpt>
      <trkpt lat="42.2682950" lon="-6.6823690">
        <ele>1169.3</ele>
        <time>2014-10-01T09:28:44Z</time>
      </trkpt>
      <trkpt lat="42.2682940" lon="-6.6824060">
        <ele>1169.6</ele>
        <time>2014-10-01T09:28:45Z</time>
      </trkpt>
      <trkpt lat="42.2682930" lon="-6.6824680">
        <ele>1170.1</ele>
        <time>2014-10-01T09:28:47Z</time>
      </trkpt>
      <trkpt lat="42.2682900" lon="-6.6825310">
        <ele>1170.5</ele>
        <time>2014-10-01T09:28:49Z</time>
      </trkpt>
      <trkpt lat="42.2682860" lon="-6.6826020">
        <ele>1171.1</ele>
        <time>2014-10-01T09:28:51Z</time>
      </trkpt>
      <trkpt lat="42.2682830" lon="-6.6826630">
        <ele>1171.7</ele>
        <time>2014-10-01T09:28:53Z</time>
      </trkpt>
      <trkpt lat="42.2682840" lon="-6.6827240">
        <ele>1172.2</ele>
        <time>2014-10-01T09:28:55Z</time>
      </trkpt>
      <trkpt lat="42.2682840" lon="-6.6827900">
        <ele>1172.8</ele>
        <time>2014-10-01T09:28:57Z</time>
      </trkpt>
      <trkpt lat="42.2682880" lon="-6.6828500">
        <ele>1173.3</ele>
        <time>2014-10-01T09:28:59Z</time>
      </trkpt>
      <trkpt lat="42.2682910" lon="-6.6829130">
        <ele>1173.9</ele>
        <time>2014-10-01T09:29:01Z</time>
      </trkpt>
      <trkpt lat="42.2682930" lon="-6.6829770">
        <ele>1174.5</ele>
        <time>2014-10-01T09:29:03Z</time>
      </trkpt>
      <trkpt lat="42.2682950" lon="-6.6830400">
        <ele>1175.1</ele>
        <time>2014-10-01T09:29:05Z</time>
      </trkpt>
      <trkpt lat="42.2682980" lon="-6.6830960">
        <ele>1175.6</ele>
        <time>2014-10-01T09:29:07Z</time>
      </trkpt>
      <trkpt lat="42.2682990" lon="-6.6831560">
        <ele>1176.1</ele>
        <time>2014-10-01T09:29:09Z</time>
      </trkpt>
      <trkpt lat="42.2682990" lon="-6.6832180">
        <ele>1176.7</ele>
        <time>2014-10-01T09:29:11Z</time>
      </trkpt>
      <trkpt lat="42.2683010" lon="-6.6832800">
        <ele>1177.1</ele>
        <time>2014-10-01T09:29:13Z</time>
      </trkpt>
      <trkpt lat="42.2683050" lon="-6.6833450">
        <ele>1177.6</ele>
        <time>2014-10-01T09:29:15Z</time>
      </trkpt>
      <trkpt lat="42.2683060" lon="-6.6834040">
        <ele>1178.0</ele>
        <time>2014-10-01T09:29:17Z</time>
      </trkpt>
      <trkpt lat="42.2683080" lon="-6.6834700">
        <ele>1178.5</ele>
        <time>2014-10-01T09:29:19Z</time>
      </trkpt>
      <trkpt lat="42.2683110" lon="-6.6835100">
        <ele>1178.7</ele>
        <time>2014-10-01T09:29:20Z</time>
      </trkpt>
      <trkpt lat="42.2683160" lon="-6.6835780">
        <ele>1179.1</ele>
        <time>2014-10-01T09:29:22Z</time>
      </trkpt>
      <trkpt lat="42.2683220" lon="-6.6836500">
        <ele>1179.6</ele>
        <time>2014-10-01T09:29:24Z</time>
      </trkpt>
      <trkpt lat="42.2683250" lon="-6.6836910">
        <ele>1179.8</ele>
        <time>2014-10-01T09:29:25Z</time>
      </trkpt>
      <trkpt lat="42.2683270" lon="-6.6837310">
        <ele>1180.0</ele>
        <time>2014-10-01T09:29:26Z</time>
      </trkpt>
      <trkpt lat="42.2683300" lon="-6.6837730">
        <ele>1180.2</ele>
        <time>2014-10-01T09:29:27Z</time>
      </trkpt>
      <trkpt lat="42.2683340" lon="-6.6838100">
        <ele>1180.4</ele>
        <time>2014-10-01T09:29:28Z</time>
      </trkpt>
      <trkpt lat="42.2683380" lon="-6.6838510">
        <ele>1180.6</ele>
        <time>2014-10-01T09:29:29Z</time>
      </trkpt>
      <trkpt lat="42.2683460" lon="-6.6839210">
        <ele>1180.9</ele>
        <time>2014-10-01T09:29:31Z</time>
      </trkpt>
      <trkpt lat="42.2683590" lon="-6.6839950">
        <ele>1181.3</ele>
        <time>2014-10-01T09:29:33Z</time>
      </trkpt>
      <trkpt lat="42.2683660" lon="-6.6840340">
        <ele>1181.5</ele>
        <time>2014-10-01T09:29:34Z</time>
      </trkpt>
      <trkpt lat="42.2683750" lon="-6.6840740">
        <ele>1181.7</ele>
        <time>2014-10-01T09:29:35Z</time>
      </trkpt>
      <trkpt lat="42.2683830" lon="-6.6841180">
        <ele>1181.9</ele>
        <time>2014-10-01T09:29:36Z</time>
      </trkpt>
      <trkpt lat="42.2683920" lon="-6.6841600">
        <ele>1182.2</ele>
        <time>2014-10-01T09:29:37Z</time>
      </trkpt>
      <trkpt lat="42.2684030" lon="-6.6842040">
        <ele>1182.4</ele>
        <time>2014-10-01T09:29:38Z</time>
      </trkpt>
      <trkpt lat="42.2684150" lon="-6.6842450">
        <ele>1182.7</ele>
        <time>2014-10-01T09:29:39Z</time>
      </trkpt>
      <trkpt lat="42.2684270" lon="-6.6842820">
        <ele>1182.9</ele>
        <time>2014-10-01T09:29:40Z</time>
      </trkpt>
      <trkpt lat="42.2684400" lon="-6.6843170">
        <ele>1183.1</ele>
        <time>2014-10-01T09:29:41Z</time>
      </trkpt>
      <trkpt lat="42.2684540" lon="-6.6843540">
        <ele>1183.4</ele>
        <time>2014-10-01T09:29:42Z</time>
      </trkpt>
      <trkpt lat="42.2684690" lon="-6.6843930">
        <ele>1183.6</ele>
        <time>2014-10-01T09:29:43Z</time>
      </trkpt>
      <trkpt lat="42.2684830" lon="-6.6844310">
        <ele>1183.9</ele>
        <time>2014-10-01T09:29:44Z</time>
      </trkpt>
      <trkpt lat="42.2684980" lon="-6.6844670">
        <ele>1184.1</ele>
        <time>2014-10-01T09:29:45Z</time>
      </trkpt>
      <trkpt lat="42.2685210" lon="-6.6845280">
        <ele>1184.5</ele>
        <time>2014-10-01T09:29:47Z</time>
      </trkpt>
      <trkpt lat="42.2685370" lon="-6.6845640">
        <ele>1184.8</ele>
        <time>2014-10-01T09:29:48Z</time>
      </trkpt>
      <trkpt lat="42.2685530" lon="-6.6845990">
        <ele>1185.0</ele>
        <time>2014-10-01T09:29:49Z</time>
      </trkpt>
      <trkpt lat="42.2685690" lon="-6.6846360">
        <ele>1185.3</ele>
        <time>2014-10-01T09:29:50Z</time>
      </trkpt>
      <trkpt lat="42.2685850" lon="-6.6846730">
        <ele>1185.5</ele>
        <time>2014-10-01T09:29:51Z</time>
      </trkpt>
      <trkpt lat="42.2686030" lon="-6.6847130">
        <ele>1185.8</ele>
        <time>2014-10-01T09:29:52Z</time>
      </trkpt>
      <trkpt lat="42.2686200" lon="-6.6847510">
        <ele>1186.0</ele>
        <time>2014-10-01T09:29:53Z</time>
      </trkpt>
      <trkpt lat="42.2686400" lon="-6.6847930">
        <ele>1186.2</ele>
        <time>2014-10-01T09:29:54Z</time>
      </trkpt>
      <trkpt lat="42.2686590" lon="-6.6848310">
        <ele>1186.4</ele>
        <time>2014-10-01T09:29:55Z</time>
      </trkpt>
      <trkpt lat="42.2686780" lon="-6.6848670">
        <ele>1186.6</ele>
        <time>2014-10-01T09:29:56Z</time>
      </trkpt>
      <trkpt lat="42.2686970" lon="-6.6849020">
        <ele>1186.8</ele>
        <time>2014-10-01T09:29:57Z</time>
      </trkpt>
      <trkpt lat="42.2687170" lon="-6.6849340">
        <ele>1187.0</ele>
        <time>2014-10-01T09:29:58Z</time>
      </trkpt>
      <trkpt lat="42.2687390" lon="-6.6849700">
        <ele>1187.2</ele>
        <time>2014-10-01T09:29:59Z</time>
      </trkpt>
      <trkpt lat="42.2687610" lon="-6.6850040">
        <ele>1187.5</ele>
        <time>2014-10-01T09:30:00Z</time>
      </trkpt>
      <trkpt lat="42.2687840" lon="-6.6850350">
        <ele>1187.7</ele>
        <time>2014-10-01T09:30:01Z</time>
      </trkpt>
      <trkpt lat="42.2688050" lon="-6.6850660">
        <ele>1187.8</ele>
        <time>2014-10-01T09:30:02Z</time>
      </trkpt>
      <trkpt lat="42.2688250" lon="-6.6850990">
        <ele>1188.0</ele>
        <time>2014-10-01T09:30:03Z</time>
      </trkpt>
      <trkpt lat="42.2688450" lon="-6.6851320">
        <ele>1188.2</ele>
        <time>2014-10-01T09:30:04Z</time>
      </trkpt>
      <trkpt lat="42.2688680" lon="-6.6851660">
        <ele>1188.4</ele>
        <time>2014-10-01T09:30:05Z</time>
      </trkpt>
      <trkpt lat="42.2688910" lon="-6.6851990">
        <ele>1188.6</ele>
        <time>2014-10-01T09:30:06Z</time>
      </trkpt>
      <trkpt lat="42.2689120" lon="-6.6852290">
        <ele>1188.8</ele>
        <time>2014-10-01T09:30:07Z</time>
      </trkpt>
      <trkpt lat="42.2689340" lon="-6.6852630">
        <ele>1189.0</ele>
        <time>2014-10-01T09:30:08Z</time>
      </trkpt>
      <trkpt lat="42.2689520" lon="-6.6852980">
        <ele>1189.2</ele>
        <time>2014-10-01T09:30:09Z</time>
      </trkpt>
      <trkpt lat="42.2689750" lon="-6.6853320">
        <ele>1189.4</ele>
        <time>2014-10-01T09:30:10Z</time>
      </trkpt>
      <trkpt lat="42.2689940" lon="-6.6853670">
        <ele>1189.6</ele>
        <time>2014-10-01T09:30:11Z</time>
      </trkpt>
      <trkpt lat="42.2690150" lon="-6.6854040">
        <ele>1189.8</ele>
        <time>2014-10-01T09:30:12Z</time>
      </trkpt>
      <trkpt lat="42.2690350" lon="-6.6854410">
        <ele>1190.0</ele>
        <time>2014-10-01T09:30:13Z</time>
      </trkpt>
      <trkpt lat="42.2690560" lon="-6.6854770">
        <ele>1190.2</ele>
        <time>2014-10-01T09:30:14Z</time>
      </trkpt>
      <trkpt lat="42.2690740" lon="-6.6855090">
        <ele>1190.5</ele>
        <time>2014-10-01T09:30:15Z</time>
      </trkpt>
      <trkpt lat="42.2690940" lon="-6.6855450">
        <ele>1190.7</ele>
        <time>2014-10-01T09:30:16Z</time>
      </trkpt>
      <trkpt lat="42.2691150" lon="-6.6855830">
        <ele>1191.0</ele>
        <time>2014-10-01T09:30:17Z</time>
      </trkpt>
      <trkpt lat="42.2691340" lon="-6.6856220">
        <ele>1191.3</ele>
        <time>2014-10-01T09:30:18Z</time>
      </trkpt>
      <trkpt lat="42.2691520" lon="-6.6856630">
        <ele>1191.6</ele>
        <time>2014-10-01T09:30:19Z</time>
      </trkpt>
      <trkpt lat="42.2691710" lon="-6.6856990">
        <ele>1191.9</ele>
        <time>2014-10-01T09:30:20Z</time>
      </trkpt>
      <trkpt lat="42.2691890" lon="-6.6857390">
        <ele>1192.2</ele>
        <time>2014-10-01T09:30:21Z</time>
      </trkpt>
      <trkpt lat="42.2692030" lon="-6.6857760">
        <ele>1192.5</ele>
        <time>2014-10-01T09:30:22Z</time>
      </trkpt>
      <trkpt lat="42.2692180" lon="-6.6858140">
        <ele>1192.8</ele>
        <time>2014-10-01T09:30:23Z</time>
      </trkpt>
      <trkpt lat="42.2692310" lon="-6.6858530">
        <ele>1193.2</ele>
        <time>2014-10-01T09:30:24Z</time>
      </trkpt>
      <trkpt lat="42.2692450" lon="-6.6858950">
        <ele>1193.5</ele>
        <time>2014-10-01T09:30:25Z</time>
      </trkpt>
      <trkpt lat="42.2692610" lon="-6.6859340">
        <ele>1193.8</ele>
        <time>2014-10-01T09:30:26Z</time>
      </trkpt>
      <trkpt lat="42.2692770" lon="-6.6859740">
        <ele>1194.1</ele>
        <time>2014-10-01T09:30:27Z</time>
      </trkpt>
      <trkpt lat="42.2692940" lon="-6.6860130">
        <ele>1194.5</ele>
        <time>2014-10-01T09:30:28Z</time>
      </trkpt>
      <trkpt lat="42.2693090" lon="-6.6860510">
        <ele>1194.8</ele>
        <time>2014-10-01T09:30:29Z</time>
      </trkpt>
      <trkpt lat="42.2693220" lon="-6.6860930">
        <ele>1195.1</ele>
        <time>2014-10-01T09:30:30Z</time>
      </trkpt>
      <trkpt lat="42.2693320" lon="-6.6861300">
        <ele>1195.4</ele>
        <time>2014-10-01T09:30:31Z</time>
      </trkpt>
      <trkpt lat="42.2693420" lon="-6.6861660">
        <ele>1195.7</ele>
        <time>2014-10-01T09:30:32Z</time>
      </trkpt>
      <trkpt lat="42.2693480" lon="-6.6862120">
        <ele>1196.0</ele>
        <time>2014-10-01T09:30:33Z</time>
      </trkpt>
      <trkpt lat="42.2693560" lon="-6.6862550">
        <ele>1196.3</ele>
        <time>2014-10-01T09:30:34Z</time>
      </trkpt>
      <trkpt lat="42.2693640" lon="-6.6863050">
        <ele>1196.7</ele>
        <time>2014-10-01T09:30:35Z</time>
      </trkpt>
      <trkpt lat="42.2693730" lon="-6.6863480">
        <ele>1197.0</ele>
        <time>2014-10-01T09:30:36Z</time>
      </trkpt>
      <trkpt lat="42.2693830" lon="-6.6863980">
        <ele>1197.3</ele>
        <time>2014-10-01T09:30:37Z</time>
      </trkpt>
      <trkpt lat="42.2693930" lon="-6.6864370">
        <ele>1197.6</ele>
        <time>2014-10-01T09:30:38Z</time>
      </trkpt>
      <trkpt lat="42.2694040" lon="-6.6864780">
        <ele>1197.9</ele>
        <time>2014-10-01T09:30:39Z</time>
      </trkpt>
      <trkpt lat="42.2694150" lon="-6.6865200">
        <ele>1198.2</ele>
        <time>2014-10-01T09:30:40Z</time>
      </trkpt>
      <trkpt lat="42.2694230" lon="-6.6865590">
        <ele>1198.5</ele>
        <time>2014-10-01T09:30:41Z</time>
      </trkpt>
      <trkpt lat="42.2694300" lon="-6.6865990">
        <ele>1198.8</ele>
        <time>2014-10-01T09:30:42Z</time>
      </trkpt>
      <trkpt lat="42.2694370" lon="-6.6866410">
        <ele>1199.1</ele>
        <time>2014-10-01T09:30:43Z</time>
      </trkpt>
      <trkpt lat="42.2694420" lon="-6.6866810">
        <ele>1199.3</ele>
        <time>2014-10-01T09:30:44Z</time>
      </trkpt>
      <trkpt lat="42.2694490" lon="-6.6867230">
        <ele>1199.6</ele>
        <time>2014-10-01T09:30:45Z</time>
      </trkpt>
      <trkpt lat="42.2694550" lon="-6.6867640">
        <ele>1199.9</ele>
        <time>2014-10-01T09:30:46Z</time>
      </trkpt>
      <trkpt lat="42.2694620" lon="-6.6868060">
        <ele>1200.2</ele>
        <time>2014-10-01T09:30:47Z</time>
      </trkpt>
      <trkpt lat="42.2694700" lon="-6.6868490">
        <ele>1200.5</ele>
        <time>2014-10-01T09:30:48Z</time>
      </trkpt>
      <trkpt lat="42.2694780" lon="-6.6868900">
        <ele>1200.8</ele>
        <time>2014-10-01T09:30:49Z</time>
      </trkpt>
      <trkpt lat="42.2694860" lon="-6.6869300">
        <ele>1201.1</ele>
        <time>2014-10-01T09:30:50Z</time>
      </trkpt>
      <trkpt lat="42.2694920" lon="-6.6869690">
        <ele>1201.3</ele>
        <time>2014-10-01T09:30:51Z</time>
      </trkpt>
      <trkpt lat="42.2695040" lon="-6.6870090">
        <ele>1201.6</ele>
        <time>2014-10-01T09:30:52Z</time>
      </trkpt>
      <trkpt lat="42.2695150" lon="-6.6870510">
        <ele>1201.8</ele>
        <time>2014-10-01T09:30:53Z</time>
      </trkpt>
      <trkpt lat="42.2695240" lon="-6.6870980">
        <ele>1202.1</ele>
        <time>2014-10-01T09:30:54Z</time>
      </trkpt>
      <trkpt lat="42.2695350" lon="-6.6871420">
        <ele>1202.4</ele>
        <time>2014-10-01T09:30:55Z</time>
      </trkpt>
      <trkpt lat="42.2695430" lon="-6.6871850">
        <ele>1202.6</ele>
        <time>2014-10-01T09:30:56Z</time>
      </trkpt>
      <trkpt lat="42.2695530" lon="-6.6872280">
        <ele>1202.9</ele>
        <time>2014-10-01T09:30:57Z</time>
      </trkpt>
      <trkpt lat="42.2695640" lon="-6.6872700">
        <ele>1203.1</ele>
        <time>2014-10-01T09:30:58Z</time>
      </trkpt>
      <trkpt lat="42.2695750" lon="-6.6873100">
        <ele>1203.3</ele>
        <time>2014-10-01T09:30:59Z</time>
      </trkpt>
      <trkpt lat="42.2695860" lon="-6.6873480">
        <ele>1203.6</ele>
        <time>2014-10-01T09:31:00Z</time>
      </trkpt>
      <trkpt lat="42.2695960" lon="-6.6873880">
        <ele>1203.8</ele>
        <time>2014-10-01T09:31:01Z</time>
      </trkpt>
      <trkpt lat="42.2696090" lon="-6.6874300">
        <ele>1204.0</ele>
        <time>2014-10-01T09:31:02Z</time>
      </trkpt>
      <trkpt lat="42.2696230" lon="-6.6874710">
        <ele>1204.3</ele>
        <time>2014-10-01T09:31:03Z</time>
      </trkpt>
      <trkpt lat="42.2696390" lon="-6.6875140">
        <ele>1204.6</ele>
        <time>2014-10-01T09:31:04Z</time>
      </trkpt>
      <trkpt lat="42.2696560" lon="-6.6875530">
        <ele>1204.8</ele>
        <time>2014-10-01T09:31:05Z</time>
      </trkpt>
      <trkpt lat="42.2696720" lon="-6.6875920">
        <ele>1205.1</ele>
        <time>2014-10-01T09:31:06Z</time>
      </trkpt>
      <trkpt lat="42.2696890" lon="-6.6876310">
        <ele>1205.3</ele>
        <time>2014-10-01T09:31:07Z</time>
      </trkpt>
      <trkpt lat="42.2697060" lon="-6.6876710">
        <ele>1205.6</ele>
        <time>2014-10-01T09:31:08Z</time>
      </trkpt>
      <trkpt lat="42.2697240" lon="-6.6877100">
        <ele>1205.9</ele>
        <time>2014-10-01T09:31:09Z</time>
      </trkpt>
      <trkpt lat="42.2697440" lon="-6.6877510">
        <ele>1206.1</ele>
        <time>2014-10-01T09:31:10Z</time>
      </trkpt>
      <trkpt lat="42.2697590" lon="-6.6877890">
        <ele>1206.4</ele>
        <time>2014-10-01T09:31:11Z</time>
      </trkpt>
      <trkpt lat="42.2697770" lon="-6.6878270">
        <ele>1206.6</ele>
        <time>2014-10-01T09:31:12Z</time>
      </trkpt>
      <trkpt lat="42.2697960" lon="-6.6878660">
        <ele>1206.9</ele>
        <time>2014-10-01T09:31:13Z</time>
      </trkpt>
      <trkpt lat="42.2698160" lon="-6.6879080">
        <ele>1207.2</ele>
        <time>2014-10-01T09:31:14Z</time>
      </trkpt>
      <trkpt lat="42.2698320" lon="-6.6879460">
        <ele>1207.5</ele>
        <time>2014-10-01T09:31:15Z</time>
      </trkpt>
      <trkpt lat="42.2698500" lon="-6.6879880">
        <ele>1207.7</ele>
        <time>2014-10-01T09:31:16Z</time>
      </trkpt>
      <trkpt lat="42.2698670" lon="-6.6880250">
        <ele>1208.0</ele>
        <time>2014-10-01T09:31:17Z</time>
      </trkpt>
      <trkpt lat="42.2698850" lon="-6.6880620">
        <ele>1208.2</ele>
        <time>2014-10-01T09:31:18Z</time>
      </trkpt>
      <trkpt lat="42.2699030" lon="-6.6881020">
        <ele>1208.5</ele>
        <time>2014-10-01T09:31:19Z</time>
      </trkpt>
      <trkpt lat="42.2699190" lon="-6.6881390">
        <ele>1208.7</ele>
        <time>2014-10-01T09:31:20Z</time>
      </trkpt>
      <trkpt lat="42.2699370" lon="-6.6881720">
        <ele>1208.9</ele>
        <time>2014-10-01T09:31:21Z</time>
      </trkpt>
      <trkpt lat="42.2699530" lon="-6.6882050">
        <ele>1209.2</ele>
        <time>2014-10-01T09:31:22Z</time>
      </trkpt>
      <trkpt lat="42.2699710" lon="-6.6882380">
        <ele>1209.4</ele>
        <time>2014-10-01T09:31:23Z</time>
      </trkpt>
      <trkpt lat="42.2699870" lon="-6.6882720">
        <ele>1209.6</ele>
        <time>2014-10-01T09:31:24Z</time>
      </trkpt>
      <trkpt lat="42.2700060" lon="-6.6883090">
        <ele>1209.9</ele>
        <time>2014-10-01T09:31:25Z</time>
      </trkpt>
      <trkpt lat="42.2700240" lon="-6.6883440">
        <ele>1210.2</ele>
        <time>2014-10-01T09:31:26Z</time>
      </trkpt>
      <trkpt lat="42.2700460" lon="-6.6883830">
        <ele>1210.5</ele>
        <time>2014-10-01T09:31:27Z</time>
      </trkpt>
      <trkpt lat="42.2700680" lon="-6.6884180">
        <ele>1210.7</ele>
        <time>2014-10-01T09:31:28Z</time>
      </trkpt>
      <trkpt lat="42.2700890" lon="-6.6884530">
        <ele>1211.0</ele>
        <time>2014-10-01T09:31:29Z</time>
      </trkpt>
      <trkpt lat="42.2701100" lon="-6.6884870">
        <ele>1211.2</ele>
        <time>2014-10-01T09:31:30Z</time>
      </trkpt>
      <trkpt lat="42.2701310" lon="-6.6885220">
        <ele>1211.5</ele>
        <time>2014-10-01T09:31:31Z</time>
      </trkpt>
      <trkpt lat="42.2701520" lon="-6.6885590">
        <ele>1211.7</ele>
        <time>2014-10-01T09:31:32Z</time>
      </trkpt>
      <trkpt lat="42.2701740" lon="-6.6885950">
        <ele>1212.0</ele>
        <time>2014-10-01T09:31:33Z</time>
      </trkpt>
      <trkpt lat="42.2701940" lon="-6.6886290">
        <ele>1212.2</ele>
        <time>2014-10-01T09:31:34Z</time>
      </trkpt>
      <trkpt lat="42.2702170" lon="-6.6886630">
        <ele>1212.4</ele>
        <time>2014-10-01T09:31:35Z</time>
      </trkpt>
      <trkpt lat="42.2702390" lon="-6.6886980">
        <ele>1212.6</ele>
        <time>2014-10-01T09:31:36Z</time>
      </trkpt>
      <trkpt lat="42.2702620" lon="-6.6887280">
        <ele>1212.8</ele>
        <time>2014-10-01T09:31:37Z</time>
      </trkpt>
      <trkpt lat="42.2702860" lon="-6.6887640">
        <ele>1213.0</ele>
        <time>2014-10-01T09:31:38Z</time>
      </trkpt>
      <trkpt lat="42.2703100" lon="-6.6888050">
        <ele>1213.3</ele>
        <time>2014-10-01T09:31:39Z</time>
      </trkpt>
      <trkpt lat="42.2703330" lon="-6.6888400">
        <ele>1213.5</ele>
        <time>2014-10-01T09:31:40Z</time>
      </trkpt>
      <trkpt lat="42.2703580" lon="-6.6888810">
        <ele>1213.7</ele>
        <time>2014-10-01T09:31:41Z</time>
      </trkpt>
      <trkpt lat="42.2703850" lon="-6.6889190">
        <ele>1213.9</ele>
        <time>2014-10-01T09:31:42Z</time>
      </trkpt>
      <trkpt lat="42.2704120" lon="-6.6889560">
        <ele>1214.2</ele>
        <time>2014-10-01T09:31:43Z</time>
      </trkpt>
      <trkpt lat="42.2704390" lon="-6.6889950">
        <ele>1214.5</ele>
        <time>2014-10-01T09:31:44Z</time>
      </trkpt>
      <trkpt lat="42.2704660" lon="-6.6890380">
        <ele>1214.7</ele>
        <time>2014-10-01T09:31:45Z</time>
      </trkpt>
      <trkpt lat="42.2704940" lon="-6.6890830">
        <ele>1215.0</ele>
        <time>2014-10-01T09:31:46Z</time>
      </trkpt>
      <trkpt lat="42.2705180" lon="-6.6891220">
        <ele>1215.3</ele>
        <time>2014-10-01T09:31:47Z</time>
      </trkpt>
      <trkpt lat="42.2705450" lon="-6.6891640">
        <ele>1215.6</ele>
        <time>2014-10-01T09:31:48Z</time>
      </trkpt>
      <trkpt lat="42.2705740" lon="-6.6892060">
        <ele>1215.8</ele>
        <time>2014-10-01T09:31:49Z</time>
      </trkpt>
      <trkpt lat="42.2706000" lon="-6.6892490">
        <ele>1216.1</ele>
        <time>2014-10-01T09:31:50Z</time>
      </trkpt>
      <trkpt lat="42.2706250" lon="-6.6892920">
        <ele>1216.3</ele>
        <time>2014-10-01T09:31:51Z</time>
      </trkpt>
      <trkpt lat="42.2706490" lon="-6.6893380">
        <ele>1216.6</ele>
        <time>2014-10-01T09:31:52Z</time>
      </trkpt>
      <trkpt lat="42.2706720" lon="-6.6893840">
        <ele>1216.9</ele>
        <time>2014-10-01T09:31:53Z</time>
      </trkpt>
      <trkpt lat="42.2706940" lon="-6.6894320">
        <ele>1217.2</ele>
        <time>2014-10-01T09:31:54Z</time>
      </trkpt>
      <trkpt lat="42.2707160" lon="-6.6894820">
        <ele>1217.5</ele>
        <time>2014-10-01T09:31:55Z</time>
      </trkpt>
      <trkpt lat="42.2707350" lon="-6.6895280">
        <ele>1217.8</ele>
        <time>2014-10-01T09:31:56Z</time>
      </trkpt>
      <trkpt lat="42.2707550" lon="-6.6895750">
        <ele>1218.1</ele>
        <time>2014-10-01T09:31:57Z</time>
      </trkpt>
      <trkpt lat="42.2707750" lon="-6.6896240">
        <ele>1218.5</ele>
        <time>2014-10-01T09:31:58Z</time>
      </trkpt>
      <trkpt lat="42.2707980" lon="-6.6896800">
        <ele>1218.9</ele>
        <time>2014-10-01T09:31:59Z</time>
      </trkpt>
      <trkpt lat="42.2708220" lon="-6.6897390">
        <ele>1219.3</ele>
        <time>2014-10-01T09:32:00Z</time>
      </trkpt>
      <trkpt lat="42.2708420" lon="-6.6897940">
        <ele>1219.8</ele>
        <time>2014-10-01T09:32:01Z</time>
      </trkpt>
      <trkpt lat="42.2708620" lon="-6.6898470">
        <ele>1220.2</ele>
        <time>2014-10-01T09:32:02Z</time>
      </trkpt>
      <trkpt lat="42.2708820" lon="-6.6898960">
        <ele>1220.6</ele>
        <time>2014-10-01T09:32:03Z</time>
      </trkpt>
      <trkpt lat="42.2708990" lon="-6.6899390">
        <ele>1220.9</ele>
        <time>2014-10-01T09:32:04Z</time>
      </trkpt>
      <trkpt lat="42.2709140" lon="-6.6899770">
        <ele>1221.3</ele>
        <time>2014-10-01T09:32:05Z</time>
      </trkpt>
      <trkpt lat="42.2709290" lon="-6.6900170">
        <ele>1221.6</ele>
        <time>2014-10-01T09:32:06Z</time>
      </trkpt>
      <trkpt lat="42.2709470" lon="-6.6900540">
        <ele>1221.9</ele>
        <time>2014-10-01T09:32:07Z</time>
      </trkpt>
      <trkpt lat="42.2709630" lon="-6.6900880">
        <ele>1222.2</ele>
        <time>2014-10-01T09:32:08Z</time>
      </trkpt>
      <trkpt lat="42.2709790" lon="-6.6901210">
        <ele>1222.5</ele>
        <time>2014-10-01T09:32:09Z</time>
      </trkpt>
      <trkpt lat="42.2709950" lon="-6.6901620">
        <ele>1222.8</ele>
        <time>2014-10-01T09:32:10Z</time>
      </trkpt>
      <trkpt lat="42.2710120" lon="-6.6901990">
        <ele>1223.1</ele>
        <time>2014-10-01T09:32:11Z</time>
      </trkpt>
      <trkpt lat="42.2710320" lon="-6.6902350">
        <ele>1223.4</ele>
        <time>2014-10-01T09:32:12Z</time>
      </trkpt>
      <trkpt lat="42.2710520" lon="-6.6902700">
        <ele>1223.7</ele>
        <time>2014-10-01T09:32:13Z</time>
      </trkpt>
      <trkpt lat="42.2710700" lon="-6.6903050">
        <ele>1224.0</ele>
        <time>2014-10-01T09:32:14Z</time>
      </trkpt>
      <trkpt lat="42.2710870" lon="-6.6903410">
        <ele>1224.2</ele>
        <time>2014-10-01T09:32:15Z</time>
      </trkpt>
      <trkpt lat="42.2711190" lon="-6.6904020">
        <ele>1224.8</ele>
        <time>2014-10-01T09:32:17Z</time>
      </trkpt>
      <trkpt lat="42.2711360" lon="-6.6904420">
        <ele>1225.1</ele>
        <time>2014-10-01T09:32:18Z</time>
      </trkpt>
      <trkpt lat="42.2711520" lon="-6.6904790">
        <ele>1225.4</ele>
        <time>2014-10-01T09:32:19Z</time>
      </trkpt>
      <trkpt lat="42.2711710" lon="-6.6905170">
        <ele>1225.7</ele>
        <time>2014-10-01T09:32:20Z</time>
      </trkpt>
      <trkpt lat="42.2711890" lon="-6.6905580">
        <ele>1226.0</ele>
        <time>2014-10-01T09:32:21Z</time>
      </trkpt>
      <trkpt lat="42.2712040" lon="-6.6905930">
        <ele>1226.3</ele>
        <time>2014-10-01T09:32:22Z</time>
      </trkpt>
      <trkpt lat="42.2712200" lon="-6.6906280">
        <ele>1226.6</ele>
        <time>2014-10-01T09:32:23Z</time>
      </trkpt>
      <trkpt lat="42.2712360" lon="-6.6906620">
        <ele>1226.8</ele>
        <time>2014-10-01T09:32:24Z</time>
      </trkpt>
      <trkpt lat="42.2712520" lon="-6.6906970">
        <ele>1227.1</ele>
        <time>2014-10-01T09:32:25Z</time>
      </trkpt>
      <trkpt lat="42.2712700" lon="-6.6907330">
        <ele>1227.4</ele>
        <time>2014-10-01T09:32:26Z</time>
      </trkpt>
      <trkpt lat="42.2712860" lon="-6.6907680">
        <ele>1227.7</ele>
        <time>2014-10-01T09:32:27Z</time>
      </trkpt>
      <trkpt lat="42.2713040" lon="-6.6908020">
        <ele>1227.9</ele>
        <time>2014-10-01T09:32:28Z</time>
      </trkpt>
      <trkpt lat="42.2713240" lon="-6.6908400">
        <ele>1228.2</ele>
        <time>2014-10-01T09:32:29Z</time>
      </trkpt>
      <trkpt lat="42.2713440" lon="-6.6908770">
        <ele>1228.5</ele>
        <time>2014-10-01T09:32:30Z</time>
      </trkpt>
      <trkpt lat="42.2713630" lon="-6.6909150">
        <ele>1228.8</ele>
        <time>2014-10-01T09:32:31Z</time>
      </trkpt>
      <trkpt lat="42.2713790" lon="-6.6909480">
        <ele>1229.1</ele>
        <time>2014-10-01T09:32:32Z</time>
      </trkpt>
      <trkpt lat="42.2713980" lon="-6.6909790">
        <ele>1229.3</ele>
        <time>2014-10-01T09:32:33Z</time>
      </trkpt>
      <trkpt lat="42.2714180" lon="-6.6910120">
        <ele>1229.6</ele>
        <time>2014-10-01T09:32:34Z</time>
      </trkpt>
      <trkpt lat="42.2714400" lon="-6.6910470">
        <ele>1229.9</ele>
        <time>2014-10-01T09:32:35Z</time>
      </trkpt>
      <trkpt lat="42.2714600" lon="-6.6910850">
        <ele>1230.2</ele>
        <time>2014-10-01T09:32:36Z</time>
      </trkpt>
      <trkpt lat="42.2714790" lon="-6.6911180">
        <ele>1230.5</ele>
        <time>2014-10-01T09:32:37Z</time>
      </trkpt>
      <trkpt lat="42.2715000" lon="-6.6911490">
        <ele>1230.8</ele>
        <time>2014-10-01T09:32:38Z</time>
      </trkpt>
      <trkpt lat="42.2715230" lon="-6.6911850">
        <ele>1231.1</ele>
        <time>2014-10-01T09:32:39Z</time>
      </trkpt>
      <trkpt lat="42.2715450" lon="-6.6912170">
        <ele>1231.4</ele>
        <time>2014-10-01T09:32:40Z</time>
      </trkpt>
      <trkpt lat="42.2715670" lon="-6.6912480">
        <ele>1231.7</ele>
        <time>2014-10-01T09:32:41Z</time>
      </trkpt>
      <trkpt lat="42.2715900" lon="-6.6912810">
        <ele>1232.1</ele>
        <time>2014-10-01T09:32:42Z</time>
      </trkpt>
      <trkpt lat="42.2716180" lon="-6.6913350">
        <ele>1232.6</ele>
        <time>2014-10-01T09:32:44Z</time>
      </trkpt>
      <trkpt lat="42.2716550" lon="-6.6913840">
        <ele>1233.2</ele>
        <time>2014-10-01T09:32:46Z</time>
      </trkpt>
      <trkpt lat="42.2716810" lon="-6.6914100">
        <ele>1233.6</ele>
        <time>2014-10-01T09:32:47Z</time>
      </trkpt>
      <trkpt lat="42.2717100" lon="-6.6914380">
        <ele>1234.1</ele>
        <time>2014-10-01T09:32:48Z</time>
      </trkpt>
      <trkpt lat="42.2717380" lon="-6.6914590">
        <ele>1234.5</ele>
        <time>2014-10-01T09:32:49Z</time>
      </trkpt>
      <trkpt lat="42.2717660" lon="-6.6914830">
        <ele>1235.0</ele>
        <time>2014-10-01T09:32:50Z</time>
      </trkpt>
      <trkpt lat="42.2717920" lon="-6.6915030">
        <ele>1235.4</ele>
        <time>2014-10-01T09:32:51Z</time>
      </trkpt>
      <trkpt lat="42.2718210" lon="-6.6915330">
        <ele>1235.9</ele>
        <time>2014-10-01T09:32:52Z</time>
      </trkpt>
      <trkpt lat="42.2718490" lon="-6.6915650">
        <ele>1236.4</ele>
        <time>2014-10-01T09:32:53Z</time>
      </trkpt>
      <trkpt lat="42.2718740" lon="-6.6915980">
        <ele>1236.8</ele>
        <time>2014-10-01T09:32:54Z</time>
      </trkpt>
      <trkpt lat="42.2718990" lon="-6.6916280">
        <ele>1237.3</ele>
        <time>2014-10-01T09:32:55Z</time>
      </trkpt>
      <trkpt lat="42.2719260" lon="-6.6916560">
        <ele>1237.6</ele>
        <time>2014-10-01T09:32:56Z</time>
      </trkpt>
      <trkpt lat="42.2719540" lon="-6.6916790">
        <ele>1237.9</ele>
        <time>2014-10-01T09:32:57Z</time>
      </trkpt>
      <trkpt lat="42.2719800" lon="-6.6917060">
        <ele>1238.3</ele>
        <time>2014-10-01T09:32:58Z</time>
      </trkpt>
      <trkpt lat="42.2720030" lon="-6.6917390">
        <ele>1238.6</ele>
        <time>2014-10-01T09:32:59Z</time>
      </trkpt>
      <trkpt lat="42.2720260" lon="-6.6917690">
        <ele>1239.0</ele>
        <time>2014-10-01T09:33:00Z</time>
      </trkpt>
      <trkpt lat="42.2720500" lon="-6.6917970">
        <ele>1239.4</ele>
        <time>2014-10-01T09:33:01Z</time>
      </trkpt>
      <trkpt lat="42.2720740" lon="-6.6918240">
        <ele>1239.7</ele>
        <time>2014-10-01T09:33:02Z</time>
      </trkpt>
      <trkpt lat="42.2721010" lon="-6.6918510">
        <ele>1240.1</ele>
        <time>2014-10-01T09:33:03Z</time>
      </trkpt>
      <trkpt lat="42.2721290" lon="-6.6918770">
        <ele>1240.5</ele>
        <time>2014-10-01T09:33:04Z</time>
      </trkpt>
      <trkpt lat="42.2721560" lon="-6.6919010">
        <ele>1240.8</ele>
        <time>2014-10-01T09:33:05Z</time>
      </trkpt>
      <trkpt lat="42.2721840" lon="-6.6919240">
        <ele>1241.2</ele>
        <time>2014-10-01T09:33:06Z</time>
      </trkpt>
      <trkpt lat="42.2722190" lon="-6.6919450">
        <ele>1241.6</ele>
        <time>2014-10-01T09:33:07Z</time>
      </trkpt>
      <trkpt lat="42.2722460" lon="-6.6919650">
        <ele>1242.0</ele>
        <time>2014-10-01T09:33:08Z</time>
      </trkpt>
      <trkpt lat="42.2722720" lon="-6.6919860">
        <ele>1242.4</ele>
        <time>2014-10-01T09:33:09Z</time>
      </trkpt>
      <trkpt lat="42.2722970" lon="-6.6920090">
        <ele>1242.7</ele>
        <time>2014-10-01T09:33:10Z</time>
      </trkpt>
      <trkpt lat="42.2723230" lon="-6.6920240">
        <ele>1243.1</ele>
        <time>2014-10-01T09:33:11Z</time>
      </trkpt>
      <trkpt lat="42.2723530" lon="-6.6920350">
        <ele>1243.5</ele>
        <time>2014-10-01T09:33:12Z</time>
      </trkpt>
      <trkpt lat="42.2723880" lon="-6.6920540">
        <ele>1243.9</ele>
        <time>2014-10-01T09:33:13Z</time>
      </trkpt>
      <trkpt lat="42.2724200" lon="-6.6920670">
        <ele>1244.3</ele>
        <time>2014-10-01T09:33:14Z</time>
      </trkpt>
      <trkpt lat="42.2724520" lon="-6.6920810">
        <ele>1244.7</ele>
        <time>2014-10-01T09:33:15Z</time>
      </trkpt>
      <trkpt lat="42.2724790" lon="-6.6920940">
        <ele>1245.0</ele>
        <time>2014-10-01T09:33:16Z</time>
      </trkpt>
      <trkpt lat="42.2725280" lon="-6.6921090">
        <ele>1245.6</ele>
        <time>2014-10-01T09:33:18Z</time>
      </trkpt>
      <trkpt lat="42.2725560" lon="-6.6921140">
        <ele>1245.9</ele>
        <time>2014-10-01T09:33:19Z</time>
      </trkpt>
      <trkpt lat="42.2725830" lon="-6.6921150">
        <ele>1246.3</ele>
        <time>2014-10-01T09:33:20Z</time>
      </trkpt>
      <trkpt lat="42.2726280" lon="-6.6921160">
        <ele>1246.7</ele>
        <time>2014-10-01T09:33:22Z</time>
      </trkpt>
      <trkpt lat="42.2726830" lon="-6.6921040">
        <ele>1247.3</ele>
        <time>2014-10-01T09:33:24Z</time>
      </trkpt>
      <trkpt lat="42.2727120" lon="-6.6920940">
        <ele>1247.7</ele>
        <time>2014-10-01T09:33:25Z</time>
      </trkpt>
      <trkpt lat="42.2727650" lon="-6.6920740">
        <ele>1248.3</ele>
        <time>2014-10-01T09:33:27Z</time>
      </trkpt>
      <trkpt lat="42.2727910" lon="-6.6920580">
        <ele>1248.6</ele>
        <time>2014-10-01T09:33:28Z</time>
      </trkpt>
      <trkpt lat="42.2728240" lon="-6.6920430">
        <ele>1249.0</ele>
        <time>2014-10-01T09:33:29Z</time>
      </trkpt>
      <trkpt lat="42.2728580" lon="-6.6920310">
        <ele>1249.4</ele>
        <time>2014-10-01T09:33:30Z</time>
      </trkpt>
      <trkpt lat="42.2728880" lon="-6.6920190">
        <ele>1249.7</ele>
        <time>2014-10-01T09:33:31Z</time>
      </trkpt>
      <trkpt lat="42.2729190" lon="-6.6920050">
        <ele>1250.1</ele>
        <time>2014-10-01T09:33:32Z</time>
      </trkpt>
      <trkpt lat="42.2729560" lon="-6.6919860">
        <ele>1250.5</ele>
        <time>2014-10-01T09:33:33Z</time>
      </trkpt>
      <trkpt lat="42.2729880" lon="-6.6919680">
        <ele>1250.9</ele>
        <time>2014-10-01T09:33:34Z</time>
      </trkpt>
      <trkpt lat="42.2730190" lon="-6.6919490">
        <ele>1251.3</ele>
        <time>2014-10-01T09:33:35Z</time>
      </trkpt>
      <trkpt lat="42.2730470" lon="-6.6919340">
        <ele>1251.6</ele>
        <time>2014-10-01T09:33:36Z</time>
      </trkpt>
      <trkpt lat="42.2730790" lon="-6.6919190">
        <ele>1252.0</ele>
        <time>2014-10-01T09:33:37Z</time>
      </trkpt>
      <trkpt lat="42.2731080" lon="-6.6919030">
        <ele>1252.4</ele>
        <time>2014-10-01T09:33:38Z</time>
      </trkpt>
      <trkpt lat="42.2731390" lon="-6.6918880">
        <ele>1252.8</ele>
        <time>2014-10-01T09:33:39Z</time>
      </trkpt>
      <trkpt lat="42.2731700" lon="-6.6918720">
        <ele>1253.2</ele>
        <time>2014-10-01T09:33:40Z</time>
      </trkpt>
      <trkpt lat="42.2731960" lon="-6.6918550">
        <ele>1253.6</ele>
        <time>2014-10-01T09:33:41Z</time>
      </trkpt>
      <trkpt lat="42.2732290" lon="-6.6918370">
        <ele>1254.0</ele>
        <time>2014-10-01T09:33:42Z</time>
      </trkpt>
      <trkpt lat="42.2732580" lon="-6.6918170">
        <ele>1254.4</ele>
        <time>2014-10-01T09:33:43Z</time>
      </trkpt>
      <trkpt lat="42.2732850" lon="-6.6918020">
        <ele>1254.8</ele>
        <time>2014-10-01T09:33:44Z</time>
      </trkpt>
      <trkpt lat="42.2733170" lon="-6.6917850">
        <ele>1255.2</ele>
        <time>2014-10-01T09:33:45Z</time>
      </trkpt>
      <trkpt lat="42.2733490" lon="-6.6917700">
        <ele>1255.6</ele>
        <time>2014-10-01T09:33:46Z</time>
      </trkpt>
      <trkpt lat="42.2733810" lon="-6.6917530">
        <ele>1257.8</ele>
        <time>2014-10-01T09:33:47Z</time>
      </trkpt>
      <trkpt lat="42.2734150" lon="-6.6917350">
        <ele>1261.0</ele>
        <time>2014-10-01T09:33:48Z</time>
      </trkpt>
      <trkpt lat="42.2734440" lon="-6.6917220">
        <ele>1263.4</ele>
        <time>2014-10-01T09:33:49Z</time>
      </trkpt>
      <trkpt lat="42.2734730" lon="-6.6917120">
        <ele>1265.5</ele>
        <time>2014-10-01T09:33:50Z</time>
      </trkpt>
      <trkpt lat="42.2735070" lon="-6.6917060">
        <ele>1267.5</ele>
        <time>2014-10-01T09:33:51Z</time>
      </trkpt>
      <trkpt lat="42.2735420" lon="-6.6917040">
        <ele>1269.3</ele>
        <time>2014-10-01T09:33:52Z</time>
      </trkpt>
      <trkpt lat="42.2735710" lon="-6.6917030">
        <ele>1270.5</ele>
        <time>2014-10-01T09:33:53Z</time>
      </trkpt>
      <trkpt lat="42.2736060" lon="-6.6917030">
        <ele>1271.7</ele>
        <time>2014-10-01T09:33:54Z</time>
      </trkpt>
      <trkpt lat="42.2736390" lon="-6.6917090">
        <ele>1272.7</ele>
        <time>2014-10-01T09:33:55Z</time>
      </trkpt>
      <trkpt lat="42.2736700" lon="-6.6917160">
        <ele>1273.6</ele>
        <time>2014-10-01T09:33:56Z</time>
      </trkpt>
      <trkpt lat="42.2737050" lon="-6.6917340">
        <ele>1274.5</ele>
        <time>2014-10-01T09:33:57Z</time>
      </trkpt>
      <trkpt lat="42.2737330" lon="-6.6917560">
        <ele>1275.2</ele>
        <time>2014-10-01T09:33:58Z</time>
      </trkpt>
      <trkpt lat="42.2737660" lon="-6.6917830">
        <ele>1275.9</ele>
        <time>2014-10-01T09:33:59Z</time>
      </trkpt>
      <trkpt lat="42.2737930" lon="-6.6918100">
        <ele>1276.5</ele>
        <time>2014-10-01T09:34:00Z</time>
      </trkpt>
      <trkpt lat="42.2738230" lon="-6.6918420">
        <ele>1277.1</ele>
        <time>2014-10-01T09:34:01Z</time>
      </trkpt>
      <trkpt lat="42.2738510" lon="-6.6918810">
        <ele>1277.6</ele>
        <time>2014-10-01T09:34:02Z</time>
      </trkpt>
      <trkpt lat="42.2738850" lon="-6.6919450">
        <ele>1278.2</ele>
        <time>2014-10-01T09:34:04Z</time>
      </trkpt>
      <trkpt lat="42.2739050" lon="-6.6920070">
        <ele>1278.6</ele>
        <time>2014-10-01T09:34:06Z</time>
      </trkpt>
      <trkpt lat="42.2739250" lon="-6.6920770">
        <ele>1279.0</ele>
        <time>2014-10-01T09:34:08Z</time>
      </trkpt>
      <trkpt lat="42.2739320" lon="-6.6921140">
        <ele>1279.2</ele>
        <time>2014-10-01T09:34:09Z</time>
      </trkpt>
      <trkpt lat="42.2739390" lon="-6.6921520">
        <ele>1279.4</ele>
        <time>2014-10-01T09:34:10Z</time>
      </trkpt>
      <trkpt lat="42.2739520" lon="-6.6922140">
        <ele>1279.7</ele>
        <time>2014-10-01T09:34:12Z</time>
      </trkpt>
      <trkpt lat="42.2739570" lon="-6.6922650">
        <ele>1279.8</ele>
        <time>2014-10-01T09:34:14Z</time>
      </trkpt>
      <trkpt lat="42.2739480" lon="-6.6923330">
        <ele>1280.1</ele>
        <time>2014-10-01T09:34:16Z</time>
      </trkpt>
      <trkpt lat="42.2739490" lon="-6.6924000">
        <ele>1280.3</ele>
        <time>2014-10-01T09:34:18Z</time>
      </trkpt>
      <trkpt lat="42.2739530" lon="-6.6924680">
        <ele>1280.5</ele>
        <time>2014-10-01T09:34:20Z</time>
      </trkpt>
      <trkpt lat="42.2739530" lon="-6.6925040">
        <ele>1280.6</ele>
        <time>2014-10-01T09:34:21Z</time>
      </trkpt>
      <trkpt lat="42.2739630" lon="-6.6925700">
        <ele>1280.9</ele>
        <time>2014-10-01T09:34:23Z</time>
      </trkpt>
      <trkpt lat="42.2739670" lon="-6.6926390">
        <ele>1281.2</ele>
        <time>2014-10-01T09:34:25Z</time>
      </trkpt>
      <trkpt lat="42.2739690" lon="-6.6926980">
        <ele>1281.4</ele>
        <time>2014-10-01T09:34:27Z</time>
      </trkpt>
      <trkpt lat="42.2739690" lon="-6.6927540">
        <ele>1281.7</ele>
        <time>2014-10-01T09:34:29Z</time>
      </trkpt>
      <trkpt lat="42.2739720" lon="-6.6928250">
        <ele>1282.1</ele>
        <time>2014-10-01T09:34:31Z</time>
      </trkpt>
      <trkpt lat="42.2739730" lon="-6.6928620">
        <ele>1282.3</ele>
        <time>2014-10-01T09:34:32Z</time>
      </trkpt>
      <trkpt lat="42.2739760" lon="-6.6928990">
        <ele>1282.5</ele>
        <time>2014-10-01T09:34:33Z</time>
      </trkpt>
      <trkpt lat="42.2739810" lon="-6.6929660">
        <ele>1282.9</ele>
        <time>2014-10-01T09:34:35Z</time>
      </trkpt>
      <trkpt lat="42.2739830" lon="-6.6930310">
        <ele>1283.3</ele>
        <time>2014-10-01T09:34:37Z</time>
      </trkpt>
      <trkpt lat="42.2739890" lon="-6.6930890">
        <ele>1283.7</ele>
        <time>2014-10-01T09:34:39Z</time>
      </trkpt>
      <trkpt lat="42.2739930" lon="-6.6931430">
        <ele>1284.0</ele>
        <time>2014-10-01T09:34:41Z</time>
      </trkpt>
      <trkpt lat="42.2740010" lon="-6.6932140">
        <ele>1284.5</ele>
        <time>2014-10-01T09:34:43Z</time>
      </trkpt>
      <trkpt lat="42.2740090" lon="-6.6932750">
        <ele>1284.9</ele>
        <time>2014-10-01T09:34:45Z</time>
      </trkpt>
      <trkpt lat="42.2740180" lon="-6.6933360">
        <ele>1285.2</ele>
        <time>2014-10-01T09:34:47Z</time>
      </trkpt>
      <trkpt lat="42.2740220" lon="-6.6933940">
        <ele>1285.6</ele>
        <time>2014-10-01T09:34:49Z</time>
      </trkpt>
      <trkpt lat="42.2740260" lon="-6.6934550">
        <ele>1286.0</ele>
        <time>2014-10-01T09:34:51Z</time>
      </trkpt>
      <trkpt lat="42.2740300" lon="-6.6935190">
        <ele>1286.4</ele>
        <time>2014-10-01T09:34:53Z</time>
      </trkpt>
      <trkpt lat="42.2740350" lon="-6.6935830">
        <ele>1286.7</ele>
        <time>2014-10-01T09:34:55Z</time>
      </trkpt>
      <trkpt lat="42.2740430" lon="-6.6936520">
        <ele>1287.1</ele>
        <time>2014-10-01T09:34:57Z</time>
      </trkpt>
      <trkpt lat="42.2740480" lon="-6.6936920">
        <ele>1287.3</ele>
        <time>2014-10-01T09:34:58Z</time>
      </trkpt>
      <trkpt lat="42.2740580" lon="-6.6937590">
        <ele>1287.7</ele>
        <time>2014-10-01T09:35:00Z</time>
      </trkpt>
      <trkpt lat="42.2740700" lon="-6.6938230">
        <ele>1288.0</ele>
        <time>2014-10-01T09:35:02Z</time>
      </trkpt>
      <trkpt lat="42.2740810" lon="-6.6938860">
        <ele>1288.4</ele>
        <time>2014-10-01T09:35:04Z</time>
      </trkpt>
      <trkpt lat="42.2740900" lon="-6.6939200">
        <ele>1288.5</ele>
        <time>2014-10-01T09:35:05Z</time>
      </trkpt>
      <trkpt lat="42.2740960" lon="-6.6939570">
        <ele>1288.7</ele>
        <time>2014-10-01T09:35:06Z</time>
      </trkpt>
      <trkpt lat="42.2741080" lon="-6.6939930">
        <ele>1288.9</ele>
        <time>2014-10-01T09:35:07Z</time>
      </trkpt>
      <trkpt lat="42.2741290" lon="-6.6940620">
        <ele>1289.3</ele>
        <time>2014-10-01T09:35:09Z</time>
      </trkpt>
      <trkpt lat="42.2741400" lon="-6.6940960">
        <ele>1289.4</ele>
        <time>2014-10-01T09:35:10Z</time>
      </trkpt>
      <trkpt lat="42.2741490" lon="-6.6941310">
        <ele>1289.6</ele>
        <time>2014-10-01T09:35:11Z</time>
      </trkpt>
      <trkpt lat="42.2741610" lon="-6.6941660">
        <ele>1289.8</ele>
        <time>2014-10-01T09:35:12Z</time>
      </trkpt>
      <trkpt lat="42.2741810" lon="-6.6942340">
        <ele>1290.1</ele>
        <time>2014-10-01T09:35:14Z</time>
      </trkpt>
      <trkpt lat="42.2741990" lon="-6.6943040">
        <ele>1290.5</ele>
        <time>2014-10-01T09:35:16Z</time>
      </trkpt>
      <trkpt lat="42.2742100" lon="-6.6943400">
        <ele>1290.7</ele>
        <time>2014-10-01T09:35:17Z</time>
      </trkpt>
      <trkpt lat="42.2742210" lon="-6.6943760">
        <ele>1290.8</ele>
        <time>2014-10-01T09:35:18Z</time>
      </trkpt>
      <trkpt lat="42.2742300" lon="-6.6944130">
        <ele>1291.0</ele>
        <time>2014-10-01T09:35:19Z</time>
      </trkpt>
      <trkpt lat="42.2742430" lon="-6.6944510">
        <ele>1291.2</ele>
        <time>2014-10-01T09:35:20Z</time>
      </trkpt>
      <trkpt lat="42.2742550" lon="-6.6944920">
        <ele>1291.4</ele>
        <time>2014-10-01T09:35:21Z</time>
      </trkpt>
      <trkpt lat="42.2742720" lon="-6.6945320">
        <ele>1291.6</ele>
        <time>2014-10-01T09:35:22Z</time>
      </trkpt>
      <trkpt lat="42.2742890" lon="-6.6945770">
        <ele>1291.8</ele>
        <time>2014-10-01T09:35:23Z</time>
      </trkpt>
      <trkpt lat="42.2743080" lon="-6.6946210">
        <ele>1292.0</ele>
        <time>2014-10-01T09:35:24Z</time>
      </trkpt>
      <trkpt lat="42.2743240" lon="-6.6946610">
        <ele>1292.1</ele>
        <time>2014-10-01T09:35:25Z</time>
      </trkpt>
      <trkpt lat="42.2743390" lon="-6.6946970">
        <ele>1292.3</ele>
        <time>2014-10-01T09:35:26Z</time>
      </trkpt>
      <trkpt lat="42.2743610" lon="-6.6947450">
        <ele>1292.4</ele>
        <time>2014-10-01T09:35:27Z</time>
      </trkpt>
      <trkpt lat="42.2743810" lon="-6.6947940">
        <ele>1292.6</ele>
        <time>2014-10-01T09:35:28Z</time>
      </trkpt>
      <trkpt lat="42.2743970" lon="-6.6948370">
        <ele>1292.7</ele>
        <time>2014-10-01T09:35:29Z</time>
      </trkpt>
      <trkpt lat="42.2744120" lon="-6.6948770">
        <ele>1292.8</ele>
        <time>2014-10-01T09:35:30Z</time>
      </trkpt>
      <trkpt lat="42.2744250" lon="-6.6949150">
        <ele>1292.9</ele>
        <time>2014-10-01T09:35:31Z</time>
      </trkpt>
      <trkpt lat="42.2744380" lon="-6.6949480">
        <ele>1293.0</ele>
        <time>2014-10-01T09:35:32Z</time>
      </trkpt>
      <trkpt lat="42.2744520" lon="-6.6949810">
        <ele>1293.1</ele>
        <time>2014-10-01T09:35:33Z</time>
      </trkpt>
      <trkpt lat="42.2744660" lon="-6.6950160">
        <ele>1293.2</ele>
        <time>2014-10-01T09:35:34Z</time>
      </trkpt>
      <trkpt lat="42.2744850" lon="-6.6950460">
        <ele>1293.3</ele>
        <time>2014-10-01T09:35:35Z</time>
      </trkpt>
      <trkpt lat="42.2745020" lon="-6.6950800">
        <ele>1293.4</ele>
        <time>2014-10-01T09:35:36Z</time>
      </trkpt>
      <trkpt lat="42.2745200" lon="-6.6951130">
        <ele>1293.5</ele>
        <time>2014-10-01T09:35:37Z</time>
      </trkpt>
      <trkpt lat="42.2745390" lon="-6.6951540">
        <ele>1293.6</ele>
        <time>2014-10-01T09:35:38Z</time>
      </trkpt>
      <trkpt lat="42.2745590" lon="-6.6951910">
        <ele>1293.7</ele>
        <time>2014-10-01T09:35:39Z</time>
      </trkpt>
      <trkpt lat="42.2745820" lon="-6.6952400">
        <ele>1293.7</ele>
        <time>2014-10-01T09:35:40Z</time>
      </trkpt>
      <trkpt lat="42.2746030" lon="-6.6952780">
        <ele>1293.8</ele>
        <time>2014-10-01T09:35:41Z</time>
      </trkpt>
      <trkpt lat="42.2746240" lon="-6.6953180">
        <ele>1293.8</ele>
        <time>2014-10-01T09:35:42Z</time>
      </trkpt>
      <trkpt lat="42.2746480" lon="-6.6953620">
        <ele>1293.9</ele>
        <time>2014-10-01T09:35:43Z</time>
      </trkpt>
      <trkpt lat="42.2746770" lon="-6.6954150">
        <ele>1293.9</ele>
        <time>2014-10-01T09:35:44Z</time>
      </trkpt>
      <trkpt lat="42.2747050" lon="-6.6954650">
        <ele>1294.0</ele>
        <time>2014-10-01T09:35:45Z</time>
      </trkpt>
      <trkpt lat="42.2747330" lon="-6.6955130">
        <ele>1294.2</ele>
        <time>2014-10-01T09:35:46Z</time>
      </trkpt>
      <trkpt lat="42.2747610" lon="-6.6955590">
        <ele>1294.3</ele>
        <time>2014-10-01T09:35:47Z</time>
      </trkpt>
      <trkpt lat="42.2747880" lon="-6.6955990">
        <ele>1294.4</ele>
        <time>2014-10-01T09:35:48Z</time>
      </trkpt>
      <trkpt lat="42.2748110" lon="-6.6956440">
        <ele>1294.5</ele>
        <time>2014-10-01T09:35:49Z</time>
      </trkpt>
      <trkpt lat="42.2748340" lon="-6.6956880">
        <ele>1294.5</ele>
        <time>2014-10-01T09:35:50Z</time>
      </trkpt>
      <trkpt lat="42.2748600" lon="-6.6957360">
        <ele>1294.6</ele>
        <time>2014-10-01T09:35:51Z</time>
      </trkpt>
      <trkpt lat="42.2748880" lon="-6.6957870">
        <ele>1294.7</ele>
        <time>2014-10-01T09:35:52Z</time>
      </trkpt>
      <trkpt lat="42.2749120" lon="-6.6958350">
        <ele>1294.7</ele>
        <time>2014-10-01T09:35:53Z</time>
      </trkpt>
      <trkpt lat="42.2749380" lon="-6.6958860">
        <ele>1294.8</ele>
        <time>2014-10-01T09:35:54Z</time>
      </trkpt>
      <trkpt lat="42.2749620" lon="-6.6959320">
        <ele>1294.9</ele>
        <time>2014-10-01T09:35:55Z</time>
      </trkpt>
      <trkpt lat="42.2749850" lon="-6.6959790">
        <ele>1294.9</ele>
        <time>2014-10-01T09:35:56Z</time>
      </trkpt>
      <trkpt lat="42.2750100" lon="-6.6960210">
        <ele>1295.0</ele>
        <time>2014-10-01T09:35:57Z</time>
      </trkpt>
      <trkpt lat="42.2750320" lon="-6.6960610">
        <ele>1295.0</ele>
        <time>2014-10-01T09:35:58Z</time>
      </trkpt>
      <trkpt lat="42.2750550" lon="-6.6961100">
        <ele>1295.1</ele>
        <time>2014-10-01T09:35:59Z</time>
      </trkpt>
      <trkpt lat="42.2750800" lon="-6.6961560">
        <ele>1295.1</ele>
        <time>2014-10-01T09:36:00Z</time>
      </trkpt>
      <trkpt lat="42.2751050" lon="-6.6962040">
        <ele>1295.1</ele>
        <time>2014-10-01T09:36:01Z</time>
      </trkpt>
      <trkpt lat="42.2751310" lon="-6.6962530">
        <ele>1295.1</ele>
        <time>2014-10-01T09:36:02Z</time>
      </trkpt>
      <trkpt lat="42.2751600" lon="-6.6963000">
        <ele>1295.1</ele>
        <time>2014-10-01T09:36:03Z</time>
      </trkpt>
      <trkpt lat="42.2751900" lon="-6.6963460">
        <ele>1295.1</ele>
        <time>2014-10-01T09:36:04Z</time>
      </trkpt>
      <trkpt lat="42.2752210" lon="-6.6963950">
        <ele>1295.0</ele>
        <time>2014-10-01T09:36:05Z</time>
      </trkpt>
      <trkpt lat="42.2752520" lon="-6.6964480">
        <ele>1295.0</ele>
        <time>2014-10-01T09:36:06Z</time>
      </trkpt>
      <trkpt lat="42.2752900" lon="-6.6965080">
        <ele>1294.9</ele>
        <time>2014-10-01T09:36:07Z</time>
      </trkpt>
      <trkpt lat="42.2753280" lon="-6.6965610">
        <ele>1294.7</ele>
        <time>2014-10-01T09:36:08Z</time>
      </trkpt>
      <trkpt lat="42.2753690" lon="-6.6966040">
        <ele>1294.6</ele>
        <time>2014-10-01T09:36:09Z</time>
      </trkpt>
      <trkpt lat="42.2754090" lon="-6.6966470">
        <ele>1294.4</ele>
        <time>2014-10-01T09:36:10Z</time>
      </trkpt>
      <trkpt lat="42.2754490" lon="-6.6966840">
        <ele>1294.2</ele>
        <time>2014-10-01T09:36:11Z</time>
      </trkpt>
      <trkpt lat="42.2754910" lon="-6.6967210">
        <ele>1294.0</ele>
        <time>2014-10-01T09:36:12Z</time>
      </trkpt>
      <trkpt lat="42.2755370" lon="-6.6967620">
        <ele>1293.8</ele>
        <time>2014-10-01T09:36:13Z</time>
      </trkpt>
      <trkpt lat="42.2755810" lon="-6.6968040">
        <ele>1293.8</ele>
        <time>2014-10-01T09:36:14Z</time>
      </trkpt>
      <trkpt lat="42.2756260" lon="-6.6968450">
        <ele>1293.7</ele>
        <time>2014-10-01T09:36:15Z</time>
      </trkpt>
      <trkpt lat="42.2756740" lon="-6.6968840">
        <ele>1293.7</ele>
        <time>2014-10-01T09:36:16Z</time>
      </trkpt>
      <trkpt lat="42.2757190" lon="-6.6969210">
        <ele>1293.7</ele>
        <time>2014-10-01T09:36:17Z</time>
      </trkpt>
      <trkpt lat="42.2757680" lon="-6.6969590">
        <ele>1293.6</ele>
        <time>2014-10-01T09:36:18Z</time>
      </trkpt>
      <trkpt lat="42.2758200" lon="-6.6970030">
        <ele>1293.6</ele>
        <time>2014-10-01T09:36:19Z</time>
      </trkpt>
      <trkpt lat="42.2758700" lon="-6.6970460">
        <ele>1293.6</ele>
        <time>2014-10-01T09:36:20Z</time>
      </trkpt>
      <trkpt lat="42.2759230" lon="-6.6970820">
        <ele>1293.6</ele>
        <time>2014-10-01T09:36:21Z</time>
      </trkpt>
      <trkpt lat="42.2759730" lon="-6.6971190">
        <ele>1293.5</ele>
        <time>2014-10-01T09:36:22Z</time>
      </trkpt>
      <trkpt lat="42.2760270" lon="-6.6971530">
        <ele>1293.5</ele>
        <time>2014-10-01T09:36:23Z</time>
      </trkpt>
      <trkpt lat="42.2760760" lon="-6.6971840">
        <ele>1293.4</ele>
        <time>2014-10-01T09:36:24Z</time>
      </trkpt>
      <trkpt lat="42.2761270" lon="-6.6972090">
        <ele>1293.4</ele>
        <time>2014-10-01T09:36:25Z</time>
      </trkpt>
      <trkpt lat="42.2761810" lon="-6.6972350">
        <ele>1293.3</ele>
        <time>2014-10-01T09:36:26Z</time>
      </trkpt>
      <trkpt lat="42.2762260" lon="-6.6972580">
        <ele>1293.3</ele>
        <time>2014-10-01T09:36:27Z</time>
      </trkpt>
      <trkpt lat="42.2762740" lon="-6.6972790">
        <ele>1293.3</ele>
        <time>2014-10-01T09:36:28Z</time>
      </trkpt>
      <trkpt lat="42.2763240" lon="-6.6972940">
        <ele>1293.3</ele>
        <time>2014-10-01T09:36:29Z</time>
      </trkpt>
      <trkpt lat="42.2763720" lon="-6.6973090">
        <ele>1293.3</ele>
        <time>2014-10-01T09:36:30Z</time>
      </trkpt>
      <trkpt lat="42.2764260" lon="-6.6973290">
        <ele>1293.4</ele>
        <time>2014-10-01T09:36:31Z</time>
      </trkpt>
      <trkpt lat="42.2764850" lon="-6.6973450">
        <ele>1293.5</ele>
        <time>2014-10-01T09:36:32Z</time>
      </trkpt>
      <trkpt lat="42.2765420" lon="-6.6973600">
        <ele>1293.6</ele>
        <time>2014-10-01T09:36:33Z</time>
      </trkpt>
      <trkpt lat="42.2765970" lon="-6.6973810">
        <ele>1293.7</ele>
        <time>2014-10-01T09:36:34Z</time>
      </trkpt>
      <trkpt lat="42.2766490" lon="-6.6973980">
        <ele>1293.8</ele>
        <time>2014-10-01T09:36:35Z</time>
      </trkpt>
      <trkpt lat="42.2767020" lon="-6.6974170">
        <ele>1293.9</ele>
        <time>2014-10-01T09:36:36Z</time>
      </trkpt>
      <trkpt lat="42.2767540" lon="-6.6974350">
        <ele>1293.9</ele>
        <time>2014-10-01T09:36:37Z</time>
      </trkpt>
      <trkpt lat="42.2768090" lon="-6.6974530">
        <ele>1294.0</ele>
        <time>2014-10-01T09:36:38Z</time>
      </trkpt>
      <trkpt lat="42.2768640" lon="-6.6974660">
        <ele>1294.1</ele>
        <time>2014-10-01T09:36:39Z</time>
      </trkpt>
      <trkpt lat="42.2769180" lon="-6.6974730">
        <ele>1294.1</ele>
        <time>2014-10-01T09:36:40Z</time>
      </trkpt>
      <trkpt lat="42.2769700" lon="-6.6974760">
        <ele>1294.1</ele>
        <time>2014-10-01T09:36:41Z</time>
      </trkpt>
      <trkpt lat="42.2770190" lon="-6.6974790">
        <ele>1294.1</ele>
        <time>2014-10-01T09:36:42Z</time>
      </trkpt>
      <trkpt lat="42.2770680" lon="-6.6974830">
        <ele>1294.2</ele>
        <time>2014-10-01T09:36:43Z</time>
      </trkpt>
      <trkpt lat="42.2771200" lon="-6.6974850">
        <ele>1294.2</ele>
        <time>2014-10-01T09:36:44Z</time>
      </trkpt>
      <trkpt lat="42.2771720" lon="-6.6974890">
        <ele>1294.2</ele>
        <time>2014-10-01T09:36:45Z</time>
      </trkpt>
      <trkpt lat="42.2772240" lon="-6.6974920">
        <ele>1294.2</ele>
        <time>2014-10-01T09:36:46Z</time>
      </trkpt>
      <trkpt lat="42.2772730" lon="-6.6974960">
        <ele>1294.2</ele>
        <time>2014-10-01T09:36:47Z</time>
      </trkpt>
      <trkpt lat="42.2773250" lon="-6.6974980">
        <ele>1294.1</ele>
        <time>2014-10-01T09:36:48Z</time>
      </trkpt>
      <trkpt lat="42.2773740" lon="-6.6974980">
        <ele>1294.1</ele>
        <time>2014-10-01T09:36:49Z</time>
      </trkpt>
      <trkpt lat="42.2774230" lon="-6.6974980">
        <ele>1294.1</ele>
        <time>2014-10-01T09:36:50Z</time>
      </trkpt>
      <trkpt lat="42.2774690" lon="-6.6974990">
        <ele>1294.2</ele>
        <time>2014-10-01T09:36:51Z</time>
      </trkpt>
      <trkpt lat="42.2775160" lon="-6.6974990">
        <ele>1294.2</ele>
        <time>2014-10-01T09:36:52Z</time>
      </trkpt>
      <trkpt lat="42.2775620" lon="-6.6974960">
        <ele>1294.3</ele>
        <time>2014-10-01T09:36:53Z</time>
      </trkpt>
      <trkpt lat="42.2776090" lon="-6.6974920">
        <ele>1294.3</ele>
        <time>2014-10-01T09:36:54Z</time>
      </trkpt>
      <trkpt lat="42.2776510" lon="-6.6974950">
        <ele>1294.4</ele>
        <time>2014-10-01T09:36:55Z</time>
      </trkpt>
      <trkpt lat="42.2776940" lon="-6.6974940">
        <ele>1294.4</ele>
        <time>2014-10-01T09:36:56Z</time>
      </trkpt>
      <trkpt lat="42.2777360" lon="-6.6974950">
        <ele>1294.5</ele>
        <time>2014-10-01T09:36:57Z</time>
      </trkpt>
      <trkpt lat="42.2777820" lon="-6.6974930">
        <ele>1294.5</ele>
        <time>2014-10-01T09:36:58Z</time>
      </trkpt>
      <trkpt lat="42.2778270" lon="-6.6974900">
        <ele>1294.6</ele>
        <time>2014-10-01T09:36:59Z</time>
      </trkpt>
      <trkpt lat="42.2778730" lon="-6.6974870">
        <ele>1294.7</ele>
        <time>2014-10-01T09:37:00Z</time>
      </trkpt>
      <trkpt lat="42.2779170" lon="-6.6974850">
        <ele>1294.8</ele>
        <time>2014-10-01T09:37:01Z</time>
      </trkpt>
      <trkpt lat="42.2779620" lon="-6.6974840">
        <ele>1294.9</ele>
        <time>2014-10-01T09:37:02Z</time>
      </trkpt>
      <trkpt lat="42.2780060" lon="-6.6974810">
        <ele>1295.0</ele>
        <time>2014-10-01T09:37:03Z</time>
      </trkpt>
      <trkpt lat="42.2780520" lon="-6.6974800">
        <ele>1295.0</ele>
        <time>2014-10-01T09:37:04Z</time>
      </trkpt>
      <trkpt lat="42.2780950" lon="-6.6974760">
        <ele>1295.1</ele>
        <time>2014-10-01T09:37:05Z</time>
      </trkpt>
      <trkpt lat="42.2781400" lon="-6.6974760">
        <ele>1295.2</ele>
        <time>2014-10-01T09:37:06Z</time>
      </trkpt>
      <trkpt lat="42.2781800" lon="-6.6974780">
        <ele>1295.3</ele>
        <time>2014-10-01T09:37:07Z</time>
      </trkpt>
      <trkpt lat="42.2782270" lon="-6.6974810">
        <ele>1295.3</ele>
        <time>2014-10-01T09:37:08Z</time>
      </trkpt>
      <trkpt lat="42.2782740" lon="-6.6974840">
        <ele>1295.4</ele>
        <time>2014-10-01T09:37:09Z</time>
      </trkpt>
      <trkpt lat="42.2783170" lon="-6.6974860">
        <ele>1295.4</ele>
        <time>2014-10-01T09:37:10Z</time>
      </trkpt>
      <trkpt lat="42.2783610" lon="-6.6974900">
        <ele>1295.5</ele>
        <time>2014-10-01T09:37:11Z</time>
      </trkpt>
      <trkpt lat="42.2784070" lon="-6.6974960">
        <ele>1295.5</ele>
        <time>2014-10-01T09:37:12Z</time>
      </trkpt>
      <trkpt lat="42.2784500" lon="-6.6975010">
        <ele>1295.6</ele>
        <time>2014-10-01T09:37:13Z</time>
      </trkpt>
      <trkpt lat="42.2784950" lon="-6.6975050">
        <ele>1295.6</ele>
        <time>2014-10-01T09:37:14Z</time>
      </trkpt>
      <trkpt lat="42.2785410" lon="-6.6975110">
        <ele>1295.7</ele>
        <time>2014-10-01T09:37:15Z</time>
      </trkpt>
      <trkpt lat="42.2785870" lon="-6.6975140">
        <ele>1295.8</ele>
        <time>2014-10-01T09:37:16Z</time>
      </trkpt>
      <trkpt lat="42.2786400" lon="-6.6975180">
        <ele>1296.0</ele>
        <time>2014-10-01T09:37:17Z</time>
      </trkpt>
      <trkpt lat="42.2786920" lon="-6.6975210">
        <ele>1296.2</ele>
        <time>2014-10-01T09:37:18Z</time>
      </trkpt>
      <trkpt lat="42.2787370" lon="-6.6975260">
        <ele>1296.4</ele>
        <time>2014-10-01T09:37:19Z</time>
      </trkpt>
      <trkpt lat="42.2787810" lon="-6.6975290">
        <ele>1296.7</ele>
        <time>2014-10-01T09:37:20Z</time>
      </trkpt>
      <trkpt lat="42.2788240" lon="-6.6975330">
        <ele>1296.9</ele>
        <time>2014-10-01T09:37:21Z</time>
      </trkpt>
      <trkpt lat="42.2788670" lon="-6.6975360">
        <ele>1297.2</ele>
        <time>2014-10-01T09:37:22Z</time>
      </trkpt>
      <trkpt lat="42.2789110" lon="-6.6975420">
        <ele>1297.5</ele>
        <time>2014-10-01T09:37:23Z</time>
      </trkpt>
      <trkpt lat="42.2789570" lon="-6.6975490">
        <ele>1297.8</ele>
        <time>2014-10-01T09:37:24Z</time>
      </trkpt>
      <trkpt lat="42.2790000" lon="-6.6975530">
        <ele>1298.0</ele>
        <time>2014-10-01T09:37:25Z</time>
      </trkpt>
      <trkpt lat="42.2790430" lon="-6.6975600">
        <ele>1298.2</ele>
        <time>2014-10-01T09:37:26Z</time>
      </trkpt>
      <trkpt lat="42.2790850" lon="-6.6975680">
        <ele>1298.5</ele>
        <time>2014-10-01T09:37:27Z</time>
      </trkpt>
      <trkpt lat="42.2791260" lon="-6.6975740">
        <ele>1298.6</ele>
        <time>2014-10-01T09:37:28Z</time>
      </trkpt>
      <trkpt lat="42.2791650" lon="-6.6975810">
        <ele>1298.8</ele>
        <time>2014-10-01T09:37:29Z</time>
      </trkpt>
      <trkpt lat="42.2792040" lon="-6.6975900">
        <ele>1299.0</ele>
        <time>2014-10-01T09:37:30Z</time>
      </trkpt>
      <trkpt lat="42.2792410" lon="-6.6975970">
        <ele>1299.2</ele>
        <time>2014-10-01T09:37:31Z</time>
      </trkpt>
      <trkpt lat="42.2792780" lon="-6.6976020">
        <ele>1299.3</ele>
        <time>2014-10-01T09:37:32Z</time>
      </trkpt>
      <trkpt lat="42.2793140" lon="-6.6976070">
        <ele>1299.4</ele>
        <time>2014-10-01T09:37:33Z</time>
      </trkpt>
      <trkpt lat="42.2793440" lon="-6.6976020">
        <ele>1299.5</ele>
        <time>2014-10-01T09:37:34Z</time>
      </trkpt>
      <trkpt lat="42.2793750" lon="-6.6975990">
        <ele>1299.5</ele>
        <time>2014-10-01T09:37:35Z</time>
      </trkpt>
      <trkpt lat="42.2794070" lon="-6.6975950">
        <ele>1299.5</ele>
        <time>2014-10-01T09:37:36Z</time>
      </trkpt>
      <trkpt lat="42.2794440" lon="-6.6975900">
        <ele>1299.5</ele>
        <time>2014-10-01T09:37:37Z</time>
      </trkpt>
      <trkpt lat="42.2794770" lon="-6.6975910">
        <ele>1299.4</ele>
        <time>2014-10-01T09:37:38Z</time>
      </trkpt>
      <trkpt lat="42.2795140" lon="-6.6975870">
        <ele>1299.5</ele>
        <time>2014-10-01T09:37:39Z</time>
      </trkpt>
      <trkpt lat="42.2795500" lon="-6.6975810">
        <ele>1299.8</ele>
        <time>2014-10-01T09:37:40Z</time>
      </trkpt>
      <trkpt lat="42.2795820" lon="-6.6975780">
        <ele>1300.0</ele>
        <time>2014-10-01T09:37:41Z</time>
      </trkpt>
      <trkpt lat="42.2796140" lon="-6.6975730">
        <ele>1300.2</ele>
        <time>2014-10-01T09:37:42Z</time>
      </trkpt>
      <trkpt lat="42.2796640" lon="-6.6975640">
        <ele>1300.6</ele>
        <time>2014-10-01T09:37:44Z</time>
      </trkpt>
      <trkpt lat="42.2796950" lon="-6.6975630">
        <ele>1300.8</ele>
        <time>2014-10-01T09:37:45Z</time>
      </trkpt>
      <trkpt lat="42.2797260" lon="-6.6975660">
        <ele>1301.0</ele>
        <time>2014-10-01T09:37:46Z</time>
      </trkpt>
      <trkpt lat="42.2797550" lon="-6.6975680">
        <ele>1301.3</ele>
        <time>2014-10-01T09:37:47Z</time>
      </trkpt>
      <trkpt lat="42.2797860" lon="-6.6975750">
        <ele>1301.5</ele>
        <time>2014-10-01T09:37:48Z</time>
      </trkpt>
      <trkpt lat="42.2798410" lon="-6.6975840">
        <ele>1302.0</ele>
        <time>2014-10-01T09:37:50Z</time>
      </trkpt>
      <trkpt lat="42.2798760" lon="-6.6975880">
        <ele>1302.3</ele>
        <time>2014-10-01T09:37:51Z</time>
      </trkpt>
      <trkpt lat="42.2799080" lon="-6.6975930">
        <ele>1302.7</ele>
        <time>2014-10-01T09:37:52Z</time>
      </trkpt>
      <trkpt lat="42.2799410" lon="-6.6975970">
        <ele>1303.0</ele>
        <time>2014-10-01T09:37:53Z</time>
      </trkpt>
      <trkpt lat="42.2799690" lon="-6.6976010">
        <ele>1303.2</ele>
        <time>2014-10-01T09:37:54Z</time>
      </trkpt>
      <trkpt lat="42.2799980" lon="-6.6976050">
        <ele>1303.5</ele>
        <time>2014-10-01T09:37:55Z</time>
      </trkpt>
      <trkpt lat="42.2800260" lon="-6.6976090">
        <ele>1303.8</ele>
        <time>2014-10-01T09:37:56Z</time>
      </trkpt>
      <trkpt lat="42.2800530" lon="-6.6976120">
        <ele>1304.0</ele>
        <time>2014-10-01T09:37:57Z</time>
      </trkpt>
      <trkpt lat="42.2800860" lon="-6.6976210">
        <ele>1304.4</ele>
        <time>2014-10-01T09:37:58Z</time>
      </trkpt>
      <trkpt lat="42.2801180" lon="-6.6976270">
        <ele>1304.7</ele>
        <time>2014-10-01T09:37:59Z</time>
      </trkpt>
      <trkpt lat="42.2801490" lon="-6.6976340">
        <ele>1305.0</ele>
        <time>2014-10-01T09:38:00Z</time>
      </trkpt>
      <trkpt lat="42.2801830" lon="-6.6976400">
        <ele>1305.4</ele>
        <time>2014-10-01T09:38:01Z</time>
      </trkpt>
      <trkpt lat="42.2802160" lon="-6.6976490">
        <ele>1305.8</ele>
        <time>2014-10-01T09:38:02Z</time>
      </trkpt>
      <trkpt lat="42.2802430" lon="-6.6976560">
        <ele>1306.1</ele>
        <time>2014-10-01T09:38:03Z</time>
      </trkpt>
      <trkpt lat="42.2802710" lon="-6.6976610">
        <ele>1306.5</ele>
        <time>2014-10-01T09:38:04Z</time>
      </trkpt>
      <trkpt lat="42.2803030" lon="-6.6976660">
        <ele>1306.9</ele>
        <time>2014-10-01T09:38:05Z</time>
      </trkpt>
      <trkpt lat="42.2803330" lon="-6.6976710">
        <ele>1307.2</ele>
        <time>2014-10-01T09:38:06Z</time>
      </trkpt>
      <trkpt lat="42.2803650" lon="-6.6976750">
        <ele>1307.6</ele>
        <time>2014-10-01T09:38:07Z</time>
      </trkpt>
      <trkpt lat="42.2803970" lon="-6.6976800">
        <ele>1308.0</ele>
        <time>2014-10-01T09:38:08Z</time>
      </trkpt>
      <trkpt lat="42.2804260" lon="-6.6976820">
        <ele>1308.4</ele>
        <time>2014-10-01T09:38:09Z</time>
      </trkpt>
      <trkpt lat="42.2804780" lon="-6.6976870">
        <ele>1309.0</ele>
        <time>2014-10-01T09:38:11Z</time>
      </trkpt>
      <trkpt lat="42.2805310" lon="-6.6976960">
        <ele>1309.6</ele>
        <time>2014-10-01T09:38:13Z</time>
      </trkpt>
      <trkpt lat="42.2805810" lon="-6.6976970">
        <ele>1310.2</ele>
        <time>2014-10-01T09:38:15Z</time>
      </trkpt>
      <trkpt lat="42.2806090" lon="-6.6977000">
        <ele>1310.6</ele>
        <time>2014-10-01T09:38:16Z</time>
      </trkpt>
      <trkpt lat="42.2806360" lon="-6.6977020">
        <ele>1310.9</ele>
        <time>2014-10-01T09:38:17Z</time>
      </trkpt>
      <trkpt lat="42.2806660" lon="-6.6977020">
        <ele>1311.3</ele>
        <time>2014-10-01T09:38:18Z</time>
      </trkpt>
      <trkpt lat="42.2806980" lon="-6.6977030">
        <ele>1311.6</ele>
        <time>2014-10-01T09:38:19Z</time>
      </trkpt>
      <trkpt lat="42.2807280" lon="-6.6977020">
        <ele>1312.0</ele>
        <time>2014-10-01T09:38:20Z</time>
      </trkpt>
      <trkpt lat="42.2807570" lon="-6.6977030">
        <ele>1312.3</ele>
        <time>2014-10-01T09:38:21Z</time>
      </trkpt>
      <trkpt lat="42.2807910" lon="-6.6977060">
        <ele>1312.7</ele>
        <time>2014-10-01T09:38:22Z</time>
      </trkpt>
      <trkpt lat="42.2808190" lon="-6.6977070">
        <ele>1313.0</ele>
        <time>2014-10-01T09:38:23Z</time>
      </trkpt>
      <trkpt lat="42.2808690" lon="-6.6977150">
        <ele>1313.6</ele>
        <time>2014-10-01T09:38:25Z</time>
      </trkpt>
      <trkpt lat="42.2808960" lon="-6.6977150">
        <ele>1313.9</ele>
        <time>2014-10-01T09:38:26Z</time>
      </trkpt>
      <trkpt lat="42.2809430" lon="-6.6977250">
        <ele>1314.5</ele>
        <time>2014-10-01T09:38:28Z</time>
      </trkpt>
      <trkpt lat="42.2809920" lon="-6.6977230">
        <ele>1315.0</ele>
        <time>2014-10-01T09:38:30Z</time>
      </trkpt>
      <trkpt lat="42.2810430" lon="-6.6977200">
        <ele>1315.6</ele>
        <time>2014-10-01T09:38:32Z</time>
      </trkpt>
      <trkpt lat="42.2810700" lon="-6.6977210">
        <ele>1316.0</ele>
        <time>2014-10-01T09:38:33Z</time>
      </trkpt>
      <trkpt lat="42.2810990" lon="-6.6977200">
        <ele>1316.3</ele>
        <time>2014-10-01T09:38:34Z</time>
      </trkpt>
      <trkpt lat="42.2811260" lon="-6.6977160">
        <ele>1316.7</ele>
        <time>2014-10-01T09:38:35Z</time>
      </trkpt>
      <trkpt lat="42.2811770" lon="-6.6977150">
        <ele>1317.3</ele>
        <time>2014-10-01T09:38:37Z</time>
      </trkpt>
      <trkpt lat="42.2812270" lon="-6.6977210">
        <ele>1318.0</ele>
        <time>2014-10-01T09:38:39Z</time>
      </trkpt>
      <trkpt lat="42.2812790" lon="-6.6977290">
        <ele>1318.6</ele>
        <time>2014-10-01T09:38:41Z</time>
      </trkpt>
      <trkpt lat="42.2813290" lon="-6.6977390">
        <ele>1319.3</ele>
        <time>2014-10-01T09:38:43Z</time>
      </trkpt>
      <trkpt lat="42.2813760" lon="-6.6977480">
        <ele>1320.0</ele>
        <time>2014-10-01T09:38:45Z</time>
      </trkpt>
      <trkpt lat="42.2814240" lon="-6.6977530">
        <ele>1320.6</ele>
        <time>2014-10-01T09:38:47Z</time>
      </trkpt>
      <trkpt lat="42.2814670" lon="-6.6977600">
        <ele>1321.3</ele>
        <time>2014-10-01T09:38:49Z</time>
      </trkpt>
      <trkpt lat="42.2815220" lon="-6.6977750">
        <ele>1322.1</ele>
        <time>2014-10-01T09:38:51Z</time>
      </trkpt>
      <trkpt lat="42.2815510" lon="-6.6977820">
        <ele>1322.5</ele>
        <time>2014-10-01T09:38:52Z</time>
      </trkpt>
      <trkpt lat="42.2815980" lon="-6.6978050">
        <ele>1323.3</ele>
        <time>2014-10-01T09:38:54Z</time>
      </trkpt>
      <trkpt lat="42.2816320" lon="-6.6978350">
        <ele>1323.9</ele>
        <time>2014-10-01T09:38:56Z</time>
      </trkpt>
      <trkpt lat="42.2816570" lon="-6.6978780">
        <ele>1324.5</ele>
        <time>2014-10-01T09:38:58Z</time>
      </trkpt>
      <trkpt lat="42.2816750" lon="-6.6979080">
        <ele>1324.9</ele>
        <time>2014-10-01T09:38:59Z</time>
      </trkpt>
      <trkpt lat="42.2816920" lon="-6.6979360">
        <ele>1325.3</ele>
        <time>2014-10-01T09:39:00Z</time>
      </trkpt>
      <trkpt lat="42.2817110" lon="-6.6979640">
        <ele>1325.7</ele>
        <time>2014-10-01T09:39:01Z</time>
      </trkpt>
      <trkpt lat="42.2817460" lon="-6.6980160">
        <ele>1326.5</ele>
        <time>2014-10-01T09:39:03Z</time>
      </trkpt>
      <trkpt lat="42.2817850" lon="-6.6980660">
        <ele>1327.3</ele>
        <time>2014-10-01T09:39:05Z</time>
      </trkpt>
      <trkpt lat="42.2818100" lon="-6.6980960">
        <ele>1327.8</ele>
        <time>2014-10-01T09:39:06Z</time>
      </trkpt>
      <trkpt lat="42.2818430" lon="-6.6981430">
        <ele>1328.5</ele>
        <time>2014-10-01T09:39:08Z</time>
      </trkpt>
      <trkpt lat="42.2818610" lon="-6.6981710">
        <ele>1328.9</ele>
        <time>2014-10-01T09:39:09Z</time>
      </trkpt>
      <trkpt lat="42.2818820" lon="-6.6982000">
        <ele>1329.4</ele>
        <time>2014-10-01T09:39:10Z</time>
      </trkpt>
      <trkpt lat="42.2819010" lon="-6.6982350">
        <ele>1329.8</ele>
        <time>2014-10-01T09:39:11Z</time>
      </trkpt>
      <trkpt lat="42.2819290" lon="-6.6982900">
        <ele>1330.5</ele>
        <time>2014-10-01T09:39:13Z</time>
      </trkpt>
      <trkpt lat="42.2819580" lon="-6.6983440">
        <ele>1331.3</ele>
        <time>2014-10-01T09:39:15Z</time>
      </trkpt>
      <trkpt lat="42.2819830" lon="-6.6983970">
        <ele>1331.9</ele>
        <time>2014-10-01T09:39:17Z</time>
      </trkpt>
      <trkpt lat="42.2820010" lon="-6.6984340">
        <ele>1332.4</ele>
        <time>2014-10-01T09:39:19Z</time>
      </trkpt>
      <trkpt lat="42.2820220" lon="-6.6984790">
        <ele>1333.0</ele>
        <time>2014-10-01T09:39:21Z</time>
      </trkpt>
      <trkpt lat="42.2820450" lon="-6.6985250">
        <ele>1333.6</ele>
        <time>2014-10-01T09:39:23Z</time>
      </trkpt>
      <trkpt lat="42.2820590" lon="-6.6985570">
        <ele>1334.0</ele>
        <time>2014-10-01T09:39:24Z</time>
      </trkpt>
      <trkpt lat="42.2820760" lon="-6.6986180">
        <ele>1334.6</ele>
        <time>2014-10-01T09:39:26Z</time>
      </trkpt>
      <trkpt lat="42.2820910" lon="-6.6986780">
        <ele>1335.2</ele>
        <time>2014-10-01T09:39:28Z</time>
      </trkpt>
      <trkpt lat="42.2821010" lon="-6.6987180">
        <ele>1335.5</ele>
        <time>2014-10-01T09:39:29Z</time>
      </trkpt>
      <trkpt lat="42.2821120" lon="-6.6987580">
        <ele>1335.9</ele>
        <time>2014-10-01T09:39:30Z</time>
      </trkpt>
      <trkpt lat="42.2821220" lon="-6.6987930">
        <ele>1336.2</ele>
        <time>2014-10-01T09:39:31Z</time>
      </trkpt>
      <trkpt lat="42.2821340" lon="-6.6988570">
        <ele>1336.8</ele>
        <time>2014-10-01T09:39:33Z</time>
      </trkpt>
      <trkpt lat="42.2821480" lon="-6.6989210">
        <ele>1337.3</ele>
        <time>2014-10-01T09:39:35Z</time>
      </trkpt>
      <trkpt lat="42.2821550" lon="-6.6989600">
        <ele>1337.6</ele>
        <time>2014-10-01T09:39:36Z</time>
      </trkpt>
      <trkpt lat="42.2821590" lon="-6.6989980">
        <ele>1337.9</ele>
        <time>2014-10-01T09:39:37Z</time>
      </trkpt>
      <trkpt lat="42.2821650" lon="-6.6990710">
        <ele>1338.5</ele>
        <time>2014-10-01T09:39:39Z</time>
      </trkpt>
      <trkpt lat="42.2821680" lon="-6.6991110">
        <ele>1338.8</ele>
        <time>2014-10-01T09:39:40Z</time>
      </trkpt>
      <trkpt lat="42.2821660" lon="-6.6991570">
        <ele>1339.2</ele>
        <time>2014-10-01T09:39:41Z</time>
      </trkpt>
      <trkpt lat="42.2821630" lon="-6.6992030">
        <ele>1339.6</ele>
        <time>2014-10-01T09:39:42Z</time>
      </trkpt>
      <trkpt lat="42.2821570" lon="-6.6992510">
        <ele>1339.9</ele>
        <time>2014-10-01T09:39:43Z</time>
      </trkpt>
      <trkpt lat="42.2821520" lon="-6.6993020">
        <ele>1340.3</ele>
        <time>2014-10-01T09:39:44Z</time>
      </trkpt>
      <trkpt lat="42.2821450" lon="-6.6993570">
        <ele>1340.7</ele>
        <time>2014-10-01T09:39:45Z</time>
      </trkpt>
      <trkpt lat="42.2821360" lon="-6.6994060">
        <ele>1341.1</ele>
        <time>2014-10-01T09:39:46Z</time>
      </trkpt>
      <trkpt lat="42.2821280" lon="-6.6994510">
        <ele>1341.4</ele>
        <time>2014-10-01T09:39:47Z</time>
      </trkpt>
      <trkpt lat="42.2821070" lon="-6.6995170">
        <ele>1341.9</ele>
        <time>2014-10-01T09:39:49Z</time>
      </trkpt>
      <trkpt lat="42.2820950" lon="-6.6995510">
        <ele>1342.2</ele>
        <time>2014-10-01T09:39:50Z</time>
      </trkpt>
      <trkpt lat="42.2820840" lon="-6.6995860">
        <ele>1342.5</ele>
        <time>2014-10-01T09:39:51Z</time>
      </trkpt>
      <trkpt lat="42.2820720" lon="-6.6996210">
        <ele>1342.7</ele>
        <time>2014-10-01T09:39:52Z</time>
      </trkpt>
      <trkpt lat="42.2820520" lon="-6.6996830">
        <ele>1343.3</ele>
        <time>2014-10-01T09:39:54Z</time>
      </trkpt>
      <trkpt lat="42.2820360" lon="-6.6997200">
        <ele>1343.6</ele>
        <time>2014-10-01T09:39:55Z</time>
      </trkpt>
      <trkpt lat="42.2820200" lon="-6.6997540">
        <ele>1343.9</ele>
        <time>2014-10-01T09:39:56Z</time>
      </trkpt>
      <trkpt lat="42.2820060" lon="-6.6997870">
        <ele>1344.2</ele>
        <time>2014-10-01T09:39:57Z</time>
      </trkpt>
      <trkpt lat="42.2819770" lon="-6.6998510">
        <ele>1344.9</ele>
        <time>2014-10-01T09:39:59Z</time>
      </trkpt>
      <trkpt lat="42.2819570" lon="-6.6998890">
        <ele>1345.3</ele>
        <time>2014-10-01T09:40:00Z</time>
      </trkpt>
      <trkpt lat="42.2819390" lon="-6.6999280">
        <ele>1345.7</ele>
        <time>2014-10-01T09:40:01Z</time>
      </trkpt>
      <trkpt lat="42.2819220" lon="-6.6999640">
        <ele>1346.1</ele>
        <time>2014-10-01T09:40:02Z</time>
      </trkpt>
      <trkpt lat="42.2819070" lon="-6.6999950">
        <ele>1346.4</ele>
        <time>2014-10-01T09:40:03Z</time>
      </trkpt>
      <trkpt lat="42.2818910" lon="-6.7000260">
        <ele>1346.8</ele>
        <time>2014-10-01T09:40:04Z</time>
      </trkpt>
      <trkpt lat="42.2818600" lon="-6.7000820">
        <ele>1347.4</ele>
        <time>2014-10-01T09:40:06Z</time>
      </trkpt>
      <trkpt lat="42.2818340" lon="-6.7001420">
        <ele>1348.0</ele>
        <time>2014-10-01T09:40:08Z</time>
      </trkpt>
      <trkpt lat="42.2818200" lon="-6.7001730">
        <ele>1348.4</ele>
        <time>2014-10-01T09:40:09Z</time>
      </trkpt>
      <trkpt lat="42.2817940" lon="-6.7002340">
        <ele>1349.1</ele>
        <time>2014-10-01T09:40:11Z</time>
      </trkpt>
      <trkpt lat="42.2817640" lon="-6.7002920">
        <ele>1349.7</ele>
        <time>2014-10-01T09:40:13Z</time>
      </trkpt>
      <trkpt lat="42.2817380" lon="-6.7003500">
        <ele>1350.4</ele>
        <time>2014-10-01T09:40:15Z</time>
      </trkpt>
      <trkpt lat="42.2817070" lon="-6.7004090">
        <ele>1351.1</ele>
        <time>2014-10-01T09:40:17Z</time>
      </trkpt>
      <trkpt lat="42.2816800" lon="-6.7004600">
        <ele>1351.7</ele>
        <time>2014-10-01T09:40:19Z</time>
      </trkpt>
      <trkpt lat="42.2816520" lon="-6.7005130">
        <ele>1352.3</ele>
        <time>2014-10-01T09:40:21Z</time>
      </trkpt>
      <trkpt lat="42.2816280" lon="-6.7005700">
        <ele>1352.9</ele>
        <time>2014-10-01T09:40:23Z</time>
      </trkpt>
      <trkpt lat="42.2816000" lon="-6.7006320">
        <ele>1353.6</ele>
        <time>2014-10-01T09:40:25Z</time>
      </trkpt>
      <trkpt lat="42.2815750" lon="-6.7006920">
        <ele>1354.2</ele>
        <time>2014-10-01T09:40:27Z</time>
      </trkpt>
      <trkpt lat="42.2815420" lon="-6.7007480">
        <ele>1354.8</ele>
        <time>2014-10-01T09:40:29Z</time>
      </trkpt>
      <trkpt lat="42.2815240" lon="-6.7007790">
        <ele>1355.2</ele>
        <time>2014-10-01T09:40:30Z</time>
      </trkpt>
      <trkpt lat="42.2815090" lon="-6.7008120">
        <ele>1355.6</ele>
        <time>2014-10-01T09:40:31Z</time>
      </trkpt>
      <trkpt lat="42.2814970" lon="-6.7008450">
        <ele>1355.9</ele>
        <time>2014-10-01T09:40:32Z</time>
      </trkpt>
      <trkpt lat="42.2814820" lon="-6.7008800">
        <ele>1356.3</ele>
        <time>2014-10-01T09:40:33Z</time>
      </trkpt>
      <trkpt lat="42.2814660" lon="-6.7009110">
        <ele>1356.6</ele>
        <time>2014-10-01T09:40:34Z</time>
      </trkpt>
      <trkpt lat="42.2814480" lon="-6.7009420">
        <ele>1357.0</ele>
        <time>2014-10-01T09:40:35Z</time>
      </trkpt>
      <trkpt lat="42.2814330" lon="-6.7009730">
        <ele>1357.3</ele>
        <time>2014-10-01T09:40:36Z</time>
      </trkpt>
      <trkpt lat="42.2814150" lon="-6.7010020">
        <ele>1357.7</ele>
        <time>2014-10-01T09:40:37Z</time>
      </trkpt>
      <trkpt lat="42.2813820" lon="-6.7010600">
        <ele>1358.4</ele>
        <time>2014-10-01T09:40:39Z</time>
      </trkpt>
      <trkpt lat="42.2813580" lon="-6.7011110">
        <ele>1359.0</ele>
        <time>2014-10-01T09:40:41Z</time>
      </trkpt>
      <trkpt lat="42.2813350" lon="-6.7011670">
        <ele>1359.6</ele>
        <time>2014-10-01T09:40:43Z</time>
      </trkpt>
      <trkpt lat="42.2813130" lon="-6.7012150">
        <ele>1360.2</ele>
        <time>2014-10-01T09:40:45Z</time>
      </trkpt>
      <trkpt lat="42.2812880" lon="-6.7012680">
        <ele>1360.9</ele>
        <time>2014-10-01T09:40:47Z</time>
      </trkpt>
      <trkpt lat="42.2812710" lon="-6.7012990">
        <ele>1361.3</ele>
        <time>2014-10-01T09:40:48Z</time>
      </trkpt>
      <trkpt lat="42.2812520" lon="-6.7013280">
        <ele>1361.7</ele>
        <time>2014-10-01T09:40:49Z</time>
      </trkpt>
      <trkpt lat="42.2812340" lon="-6.7013600">
        <ele>1362.2</ele>
        <time>2014-10-01T09:40:50Z</time>
      </trkpt>
      <trkpt lat="42.2812050" lon="-6.7014130">
        <ele>1362.9</ele>
        <time>2014-10-01T09:40:52Z</time>
      </trkpt>
      <trkpt lat="42.2811780" lon="-6.7014650">
        <ele>1363.6</ele>
        <time>2014-10-01T09:40:54Z</time>
      </trkpt>
      <trkpt lat="42.2811580" lon="-6.7015220">
        <ele>1364.3</ele>
        <time>2014-10-01T09:40:56Z</time>
      </trkpt>
      <trkpt lat="42.2811420" lon="-6.7015830">
        <ele>1365.1</ele>
        <time>2014-10-01T09:40:58Z</time>
      </trkpt>
      <trkpt lat="42.2811370" lon="-6.7016490">
        <ele>1365.8</ele>
        <time>2014-10-01T09:41:00Z</time>
      </trkpt>
      <trkpt lat="42.2811360" lon="-6.7017160">
        <ele>1366.5</ele>
        <time>2014-10-01T09:41:02Z</time>
      </trkpt>
      <trkpt lat="42.2811360" lon="-6.7017740">
        <ele>1367.1</ele>
        <time>2014-10-01T09:41:04Z</time>
      </trkpt>
      <trkpt lat="42.2811430" lon="-6.7018310">
        <ele>1367.6</ele>
        <time>2014-10-01T09:41:06Z</time>
      </trkpt>
      <trkpt lat="42.2811580" lon="-6.7018860">
        <ele>1368.2</ele>
        <time>2014-10-01T09:41:08Z</time>
      </trkpt>
      <trkpt lat="42.2811820" lon="-6.7019350">
        <ele>1368.7</ele>
        <time>2014-10-01T09:41:10Z</time>
      </trkpt>
      <trkpt lat="42.2812160" lon="-6.7019840">
        <ele>1369.3</ele>
        <time>2014-10-01T09:41:12Z</time>
      </trkpt>
      <trkpt lat="42.2812460" lon="-6.7020230">
        <ele>1369.7</ele>
        <time>2014-10-01T09:41:14Z</time>
      </trkpt>
      <trkpt lat="42.2812720" lon="-6.7020600">
        <ele>1370.1</ele>
        <time>2014-10-01T09:41:16Z</time>
      </trkpt>
      <trkpt lat="42.2813100" lon="-6.7020810">
        <ele>1370.5</ele>
        <time>2014-10-01T09:41:18Z</time>
      </trkpt>
      <trkpt lat="42.2813370" lon="-6.7020910">
        <ele>1370.7</ele>
        <time>2014-10-01T09:41:19Z</time>
      </trkpt>
      <trkpt lat="42.2813650" lon="-6.7021040">
        <ele>1371.0</ele>
        <time>2014-10-01T09:41:20Z</time>
      </trkpt>
      <trkpt lat="42.2814040" lon="-6.7021330">
        <ele>1371.3</ele>
        <time>2014-10-01T09:41:22Z</time>
      </trkpt>
      <trkpt lat="42.2814480" lon="-6.7021710">
        <ele>1371.7</ele>
        <time>2014-10-01T09:41:24Z</time>
      </trkpt>
      <trkpt lat="42.2814730" lon="-6.7021930">
        <ele>1371.9</ele>
        <time>2014-10-01T09:41:25Z</time>
      </trkpt>
      <trkpt lat="42.2815190" lon="-6.7022250">
        <ele>1372.3</ele>
        <time>2014-10-01T09:41:27Z</time>
      </trkpt>
      <trkpt lat="42.2815650" lon="-6.7022540">
        <ele>1372.6</ele>
        <time>2014-10-01T09:41:29Z</time>
      </trkpt>
      <trkpt lat="42.2815890" lon="-6.7022720">
        <ele>1372.8</ele>
        <time>2014-10-01T09:41:30Z</time>
      </trkpt>
      <trkpt lat="42.2816190" lon="-6.7022920">
        <ele>1373.1</ele>
        <time>2014-10-01T09:41:31Z</time>
      </trkpt>
      <trkpt lat="42.2816490" lon="-6.7023090">
        <ele>1373.3</ele>
        <time>2014-10-01T09:41:32Z</time>
      </trkpt>
      <trkpt lat="42.2816780" lon="-6.7023320">
        <ele>1373.6</ele>
        <time>2014-10-01T09:41:33Z</time>
      </trkpt>
      <trkpt lat="42.2817040" lon="-6.7023580">
        <ele>1373.8</ele>
        <time>2014-10-01T09:41:34Z</time>
      </trkpt>
      <trkpt lat="42.2817360" lon="-6.7023800">
        <ele>1374.1</ele>
        <time>2014-10-01T09:41:35Z</time>
      </trkpt>
      <trkpt lat="42.2817650" lon="-6.7024020">
        <ele>1374.4</ele>
        <time>2014-10-01T09:41:36Z</time>
      </trkpt>
      <trkpt lat="42.2817890" lon="-6.7024240">
        <ele>1374.7</ele>
        <time>2014-10-01T09:41:37Z</time>
      </trkpt>
      <trkpt lat="42.2818130" lon="-6.7024510">
        <ele>1375.0</ele>
        <time>2014-10-01T09:41:38Z</time>
      </trkpt>
      <trkpt lat="42.2818450" lon="-6.7024750">
        <ele>1375.3</ele>
        <time>2014-10-01T09:41:39Z</time>
      </trkpt>
      <trkpt lat="42.2818730" lon="-6.7025010">
        <ele>1375.7</ele>
        <time>2014-10-01T09:41:40Z</time>
      </trkpt>
      <trkpt lat="42.2819050" lon="-6.7025220">
        <ele>1376.0</ele>
        <time>2014-10-01T09:41:41Z</time>
      </trkpt>
      <trkpt lat="42.2819360" lon="-6.7025460">
        <ele>1376.4</ele>
        <time>2014-10-01T09:41:42Z</time>
      </trkpt>
      <trkpt lat="42.2819640" lon="-6.7025670">
        <ele>1376.8</ele>
        <time>2014-10-01T09:41:43Z</time>
      </trkpt>
      <trkpt lat="42.2819900" lon="-6.7025920">
        <ele>1377.2</ele>
        <time>2014-10-01T09:41:44Z</time>
      </trkpt>
      <trkpt lat="42.2820310" lon="-6.7026330">
        <ele>1377.8</ele>
        <time>2014-10-01T09:41:46Z</time>
      </trkpt>
      <trkpt lat="42.2820740" lon="-6.7026670">
        <ele>1378.4</ele>
        <time>2014-10-01T09:41:48Z</time>
      </trkpt>
      <trkpt lat="42.2821000" lon="-6.7026910">
        <ele>1378.7</ele>
        <time>2014-10-01T09:41:49Z</time>
      </trkpt>
      <trkpt lat="42.2821270" lon="-6.7027110">
        <ele>1379.1</ele>
        <time>2014-10-01T09:41:50Z</time>
      </trkpt>
      <trkpt lat="42.2821570" lon="-6.7027290">
        <ele>1379.5</ele>
        <time>2014-10-01T09:41:51Z</time>
      </trkpt>
      <trkpt lat="42.2821850" lon="-6.7027410">
        <ele>1379.8</ele>
        <time>2014-10-01T09:41:52Z</time>
      </trkpt>
      <trkpt lat="42.2822170" lon="-6.7027540">
        <ele>1380.1</ele>
        <time>2014-10-01T09:41:53Z</time>
      </trkpt>
      <trkpt lat="42.2822550" lon="-6.7027540">
        <ele>1380.5</ele>
        <time>2014-10-01T09:41:54Z</time>
      </trkpt>
      <trkpt lat="42.2823260" lon="-6.7027660">
        <ele>1381.0</ele>
        <time>2014-10-01T09:41:55Z</time>
      </trkpt>
      <trkpt lat="42.2823500" lon="-6.7027450">
        <ele>1381.2</ele>
        <time>2014-10-01T09:41:57Z</time>
      </trkpt>
      <trkpt lat="42.2823560" lon="-6.7026920">
        <ele>1381.4</ele>
        <time>2014-10-01T09:41:59Z</time>
      </trkpt>
      <trkpt lat="42.2823530" lon="-6.7026380">
        <ele>1381.6</ele>
        <time>2014-10-01T09:42:00Z</time>
      </trkpt>
      <trkpt lat="42.2823510" lon="-6.7025790">
        <ele>1381.8</ele>
        <time>2014-10-01T09:42:01Z</time>
      </trkpt>
      <trkpt lat="42.2823470" lon="-6.7025280">
        <ele>1381.9</ele>
        <time>2014-10-01T09:42:02Z</time>
      </trkpt>
      <trkpt lat="42.2823390" lon="-6.7024800">
        <ele>1381.9</ele>
        <time>2014-10-01T09:42:03Z</time>
      </trkpt>
      <trkpt lat="42.2823220" lon="-6.7024370">
        <ele>1382.0</ele>
        <time>2014-10-01T09:42:04Z</time>
      </trkpt>
      <trkpt lat="42.2822960" lon="-6.7023880">
        <ele>1382.1</ele>
        <time>2014-10-01T09:42:05Z</time>
      </trkpt>
      <trkpt lat="42.2822690" lon="-6.7023410">
        <ele>1382.2</ele>
        <time>2014-10-01T09:42:06Z</time>
      </trkpt>
      <trkpt lat="42.2822400" lon="-6.7023040">
        <ele>1382.4</ele>
        <time>2014-10-01T09:42:07Z</time>
      </trkpt>
      <trkpt lat="42.2822070" lon="-6.7022730">
        <ele>1382.5</ele>
        <time>2014-10-01T09:42:08Z</time>
      </trkpt>
      <trkpt lat="42.2821760" lon="-6.7022460">
        <ele>1382.7</ele>
        <time>2014-10-01T09:42:09Z</time>
      </trkpt>
      <trkpt lat="42.2821450" lon="-6.7022200">
        <ele>1382.8</ele>
        <time>2014-10-01T09:42:10Z</time>
      </trkpt>
      <trkpt lat="42.2821040" lon="-6.7021950">
        <ele>1383.1</ele>
        <time>2014-10-01T09:42:11Z</time>
      </trkpt>
      <trkpt lat="42.2820670" lon="-6.7021830">
        <ele>1383.3</ele>
        <time>2014-10-01T09:42:12Z</time>
      </trkpt>
      <trkpt lat="42.2820300" lon="-6.7021730">
        <ele>1383.5</ele>
        <time>2014-10-01T09:42:13Z</time>
      </trkpt>
      <trkpt lat="42.2819990" lon="-6.7021590">
        <ele>1383.7</ele>
        <time>2014-10-01T09:42:14Z</time>
      </trkpt>
      <trkpt lat="42.2819630" lon="-6.7021500">
        <ele>1384.0</ele>
        <time>2014-10-01T09:42:15Z</time>
      </trkpt>
      <trkpt lat="42.2819310" lon="-6.7021390">
        <ele>1384.3</ele>
        <time>2014-10-01T09:42:16Z</time>
      </trkpt>
      <trkpt lat="42.2819030" lon="-6.7021310">
        <ele>1384.5</ele>
        <time>2014-10-01T09:42:17Z</time>
      </trkpt>
      <trkpt lat="42.2818600" lon="-6.7021200">
        <ele>1384.9</ele>
        <time>2014-10-01T09:42:19Z</time>
      </trkpt>
      <trkpt lat="42.2818270" lon="-6.7021260">
        <ele>1385.2</ele>
        <time>2014-10-01T09:42:21Z</time>
      </trkpt>
      <trkpt lat="42.2818090" lon="-6.7020920">
        <ele>1385.4</ele>
        <time>2014-10-01T09:42:24Z</time>
      </trkpt>
      <trkpt lat="42.2817910" lon="-6.7020590">
        <ele>1385.7</ele>
        <time>2014-10-01T09:42:25Z</time>
      </trkpt>
      <trkpt lat="42.2817690" lon="-6.7019910">
        <ele>1386.3</ele>
        <time>2014-10-01T09:42:26Z</time>
      </trkpt>
      <trkpt lat="42.2817480" lon="-6.7019190">
        <ele>1386.9</ele>
        <time>2014-10-01T09:42:27Z</time>
      </trkpt>
      <trkpt lat="42.2817430" lon="-6.7018570">
        <ele>1387.3</ele>
        <time>2014-10-01T09:42:28Z</time>
      </trkpt>
      <trkpt lat="42.2817410" lon="-6.7017970">
        <ele>1387.8</ele>
        <time>2014-10-01T09:42:29Z</time>
      </trkpt>
      <trkpt lat="42.2817370" lon="-6.7017370">
        <ele>1388.3</ele>
        <time>2014-10-01T09:42:30Z</time>
      </trkpt>
      <trkpt lat="42.2817430" lon="-6.7016890">
        <ele>1388.7</ele>
        <time>2014-10-01T09:42:31Z</time>
      </trkpt>
      <trkpt lat="42.2817520" lon="-6.7016450">
        <ele>1389.1</ele>
        <time>2014-10-01T09:42:32Z</time>
      </trkpt>
      <trkpt lat="42.2817610" lon="-6.7016000">
        <ele>1389.5</ele>
        <time>2014-10-01T09:42:33Z</time>
      </trkpt>
      <trkpt lat="42.2817830" lon="-6.7015620">
        <ele>1389.9</ele>
        <time>2014-10-01T09:42:34Z</time>
      </trkpt>
      <trkpt lat="42.2818090" lon="-6.7015260">
        <ele>1390.3</ele>
        <time>2014-10-01T09:42:35Z</time>
      </trkpt>
      <trkpt lat="42.2818390" lon="-6.7014980">
        <ele>1390.7</ele>
        <time>2014-10-01T09:42:36Z</time>
      </trkpt>
      <trkpt lat="42.2818680" lon="-6.7014750">
        <ele>1391.1</ele>
        <time>2014-10-01T09:42:37Z</time>
      </trkpt>
      <trkpt lat="42.2819030" lon="-6.7014560">
        <ele>1391.5</ele>
        <time>2014-10-01T09:42:38Z</time>
      </trkpt>
      <trkpt lat="42.2819290" lon="-6.7014370">
        <ele>1391.8</ele>
        <time>2014-10-01T09:42:39Z</time>
      </trkpt>
      <trkpt lat="42.2819620" lon="-6.7014170">
        <ele>1392.2</ele>
        <time>2014-10-01T09:42:40Z</time>
      </trkpt>
      <trkpt lat="42.2819920" lon="-6.7014120">
        <ele>1392.4</ele>
        <time>2014-10-01T09:42:41Z</time>
      </trkpt>
      <trkpt lat="42.2820220" lon="-6.7014100">
        <ele>1392.6</ele>
        <time>2014-10-01T09:42:42Z</time>
      </trkpt>
      <trkpt lat="42.2820540" lon="-6.7014100">
        <ele>1392.8</ele>
        <time>2014-10-01T09:42:43Z</time>
      </trkpt>
      <trkpt lat="42.2820870" lon="-6.7014140">
        <ele>1392.9</ele>
        <time>2014-10-01T09:42:44Z</time>
      </trkpt>
      <trkpt lat="42.2821220" lon="-6.7014200">
        <ele>1392.9</ele>
        <time>2014-10-01T09:42:45Z</time>
      </trkpt>
      <trkpt lat="42.2821540" lon="-6.7014310">
        <ele>1392.8</ele>
        <time>2014-10-01T09:42:46Z</time>
      </trkpt>
      <trkpt lat="42.2821800" lon="-6.7014530">
        <ele>1392.6</ele>
        <time>2014-10-01T09:42:47Z</time>
      </trkpt>
      <trkpt lat="42.2822090" lon="-6.7014760">
        <ele>1392.2</ele>
        <time>2014-10-01T09:42:48Z</time>
      </trkpt>
      <trkpt lat="42.2822330" lon="-6.7015000">
        <ele>1391.8</ele>
        <time>2014-10-01T09:42:49Z</time>
      </trkpt>
      <trkpt lat="42.2822560" lon="-6.7015280">
        <ele>1391.1</ele>
        <time>2014-10-01T09:42:50Z</time>
      </trkpt>
      <trkpt lat="42.2822780" lon="-6.7015620">
        <ele>1390.2</ele>
        <time>2014-10-01T09:42:51Z</time>
      </trkpt>
      <trkpt lat="42.2822980" lon="-6.7015920">
        <ele>1389.7</ele>
        <time>2014-10-01T09:42:52Z</time>
      </trkpt>
      <trkpt lat="42.2823160" lon="-6.7016220">
        <ele>1389.8</ele>
        <time>2014-10-01T09:42:53Z</time>
      </trkpt>
      <trkpt lat="42.2823320" lon="-6.7016530">
        <ele>1389.8</ele>
        <time>2014-10-01T09:42:54Z</time>
      </trkpt>
      <trkpt lat="42.2823500" lon="-6.7016850">
        <ele>1389.8</ele>
        <time>2014-10-01T09:42:55Z</time>
      </trkpt>
      <trkpt lat="42.2823690" lon="-6.7017150">
        <ele>1389.9</ele>
        <time>2014-10-01T09:42:56Z</time>
      </trkpt>
      <trkpt lat="42.2824010" lon="-6.7017690">
        <ele>1390.0</ele>
        <time>2014-10-01T09:42:58Z</time>
      </trkpt>
      <trkpt lat="42.2824160" lon="-6.7018010">
        <ele>1390.0</ele>
        <time>2014-10-01T09:42:59Z</time>
      </trkpt>
      <trkpt lat="42.2824290" lon="-6.7018340">
        <ele>1390.0</ele>
        <time>2014-10-01T09:43:00Z</time>
      </trkpt>
      <trkpt lat="42.2824430" lon="-6.7018660">
        <ele>1390.1</ele>
        <time>2014-10-01T09:43:01Z</time>
      </trkpt>
      <trkpt lat="42.2824610" lon="-6.7018960">
        <ele>1390.1</ele>
        <time>2014-10-01T09:43:02Z</time>
      </trkpt>
      <trkpt lat="42.2824950" lon="-6.7019470">
        <ele>1390.3</ele>
        <time>2014-10-01T09:43:04Z</time>
      </trkpt>
      <trkpt lat="42.2825240" lon="-6.7019930">
        <ele>1390.4</ele>
        <time>2014-10-01T09:43:06Z</time>
      </trkpt>
      <trkpt lat="42.2825590" lon="-6.7020450">
        <ele>1390.7</ele>
        <time>2014-10-01T09:43:08Z</time>
      </trkpt>
      <trkpt lat="42.2825780" lon="-6.7020750">
        <ele>1390.8</ele>
        <time>2014-10-01T09:43:09Z</time>
      </trkpt>
      <trkpt lat="42.2826080" lon="-6.7021360">
        <ele>1391.1</ele>
        <time>2014-10-01T09:43:11Z</time>
      </trkpt>
      <trkpt lat="42.2826240" lon="-6.7021700">
        <ele>1391.3</ele>
        <time>2014-10-01T09:43:12Z</time>
      </trkpt>
      <trkpt lat="42.2826400" lon="-6.7022030">
        <ele>1391.5</ele>
        <time>2014-10-01T09:43:13Z</time>
      </trkpt>
      <trkpt lat="42.2826570" lon="-6.7022350">
        <ele>1391.6</ele>
        <time>2014-10-01T09:43:14Z</time>
      </trkpt>
      <trkpt lat="42.2826960" lon="-6.7022830">
        <ele>1392.0</ele>
        <time>2014-10-01T09:43:16Z</time>
      </trkpt>
      <trkpt lat="42.2827440" lon="-6.7023150">
        <ele>1392.4</ele>
        <time>2014-10-01T09:43:18Z</time>
      </trkpt>
      <trkpt lat="42.2828000" lon="-6.7023270">
        <ele>1392.8</ele>
        <time>2014-10-01T09:43:20Z</time>
      </trkpt>
      <trkpt lat="42.2828340" lon="-6.7023350">
        <ele>1393.1</ele>
        <time>2014-10-01T09:43:21Z</time>
      </trkpt>
      <trkpt lat="42.2828710" lon="-6.7023390">
        <ele>1393.3</ele>
        <time>2014-10-01T09:43:22Z</time>
      </trkpt>
      <trkpt lat="42.2829070" lon="-6.7023450">
        <ele>1393.6</ele>
        <time>2014-10-01T09:43:23Z</time>
      </trkpt>
      <trkpt lat="42.2829360" lon="-6.7023490">
        <ele>1393.8</ele>
        <time>2014-10-01T09:43:24Z</time>
      </trkpt>
      <trkpt lat="42.2829650" lon="-6.7023510">
        <ele>1394.0</ele>
        <time>2014-10-01T09:43:25Z</time>
      </trkpt>
      <trkpt lat="42.2829990" lon="-6.7023540">
        <ele>1394.3</ele>
        <time>2014-10-01T09:43:26Z</time>
      </trkpt>
      <trkpt lat="42.2830310" lon="-6.7023580">
        <ele>1394.5</ele>
        <time>2014-10-01T09:43:27Z</time>
      </trkpt>
      <trkpt lat="42.2830640" lon="-6.7023620">
        <ele>1394.7</ele>
        <time>2014-10-01T09:43:28Z</time>
      </trkpt>
      <trkpt lat="42.2830920" lon="-6.7023690">
        <ele>1394.9</ele>
        <time>2014-10-01T09:43:29Z</time>
      </trkpt>
      <trkpt lat="42.2831200" lon="-6.7023740">
        <ele>1395.0</ele>
        <time>2014-10-01T09:43:30Z</time>
      </trkpt>
      <trkpt lat="42.2831530" lon="-6.7023770">
        <ele>1395.2</ele>
        <time>2014-10-01T09:43:31Z</time>
      </trkpt>
      <trkpt lat="42.2831830" lon="-6.7023780">
        <ele>1395.4</ele>
        <time>2014-10-01T09:43:32Z</time>
      </trkpt>
      <trkpt lat="42.2832310" lon="-6.7023800">
        <ele>1395.6</ele>
        <time>2014-10-01T09:43:34Z</time>
      </trkpt>
      <trkpt lat="42.2832670" lon="-6.7023790">
        <ele>1395.7</ele>
        <time>2014-10-01T09:43:36Z</time>
      </trkpt>
      <trkpt lat="42.2833190" lon="-6.7023770">
        <ele>1395.9</ele>
        <time>2014-10-01T09:43:38Z</time>
      </trkpt>
      <trkpt lat="42.2833480" lon="-6.7023720">
        <ele>1396.0</ele>
        <time>2014-10-01T09:43:39Z</time>
      </trkpt>
      <trkpt lat="42.2833830" lon="-6.7023690">
        <ele>1396.2</ele>
        <time>2014-10-01T09:43:40Z</time>
      </trkpt>
      <trkpt lat="42.2834220" lon="-6.7023650">
        <ele>1396.3</ele>
        <time>2014-10-01T09:43:41Z</time>
      </trkpt>
      <trkpt lat="42.2834610" lon="-6.7023650">
        <ele>1396.5</ele>
        <time>2014-10-01T09:43:42Z</time>
      </trkpt>
      <trkpt lat="42.2834980" lon="-6.7023660">
        <ele>1396.7</ele>
        <time>2014-10-01T09:43:43Z</time>
      </trkpt>
      <trkpt lat="42.2835350" lon="-6.7023660">
        <ele>1396.9</ele>
        <time>2014-10-01T09:43:44Z</time>
      </trkpt>
      <trkpt lat="42.2835700" lon="-6.7023600">
        <ele>1397.1</ele>
        <time>2014-10-01T09:43:45Z</time>
      </trkpt>
      <trkpt lat="42.2836060" lon="-6.7023540">
        <ele>1397.3</ele>
        <time>2014-10-01T09:43:46Z</time>
      </trkpt>
      <trkpt lat="42.2836380" lon="-6.7023490">
        <ele>1397.5</ele>
        <time>2014-10-01T09:43:47Z</time>
      </trkpt>
      <trkpt lat="42.2836700" lon="-6.7023490">
        <ele>1397.7</ele>
        <time>2014-10-01T09:43:48Z</time>
      </trkpt>
      <trkpt lat="42.2837070" lon="-6.7023460">
        <ele>1398.0</ele>
        <time>2014-10-01T09:43:49Z</time>
      </trkpt>
      <trkpt lat="42.2837450" lon="-6.7023480">
        <ele>1398.2</ele>
        <time>2014-10-01T09:43:50Z</time>
      </trkpt>
      <trkpt lat="42.2837780" lon="-6.7023550">
        <ele>1398.5</ele>
        <time>2014-10-01T09:43:51Z</time>
      </trkpt>
      <trkpt lat="42.2838110" lon="-6.7023590">
        <ele>1398.7</ele>
        <time>2014-10-01T09:43:52Z</time>
      </trkpt>
      <trkpt lat="42.2838450" lon="-6.7023670">
        <ele>1398.9</ele>
        <time>2014-10-01T09:43:53Z</time>
      </trkpt>
      <trkpt lat="42.2838790" lon="-6.7023770">
        <ele>1399.2</ele>
        <time>2014-10-01T09:43:54Z</time>
      </trkpt>
      <trkpt lat="42.2839140" lon="-6.7023830">
        <ele>1399.4</ele>
        <time>2014-10-01T09:43:55Z</time>
      </trkpt>
      <trkpt lat="42.2839440" lon="-6.7023900">
        <ele>1399.7</ele>
        <time>2014-10-01T09:43:56Z</time>
      </trkpt>
      <trkpt lat="42.2839770" lon="-6.7024000">
        <ele>1399.9</ele>
        <time>2014-10-01T09:43:57Z</time>
      </trkpt>
      <trkpt lat="42.2840080" lon="-6.7024110">
        <ele>1400.1</ele>
        <time>2014-10-01T09:43:58Z</time>
      </trkpt>
      <trkpt lat="42.2840390" lon="-6.7024260">
        <ele>1400.4</ele>
        <time>2014-10-01T09:43:59Z</time>
      </trkpt>
      <trkpt lat="42.2840690" lon="-6.7024420">
        <ele>1400.6</ele>
        <time>2014-10-01T09:44:00Z</time>
      </trkpt>
      <trkpt lat="42.2841010" lon="-6.7024580">
        <ele>1400.9</ele>
        <time>2014-10-01T09:44:01Z</time>
      </trkpt>
      <trkpt lat="42.2841320" lon="-6.7024750">
        <ele>1401.1</ele>
        <time>2014-10-01T09:44:02Z</time>
      </trkpt>
      <trkpt lat="42.2841600" lon="-6.7024910">
        <ele>1401.3</ele>
        <time>2014-10-01T09:44:03Z</time>
      </trkpt>
      <trkpt lat="42.2841870" lon="-6.7025100">
        <ele>1401.5</ele>
        <time>2014-10-01T09:44:04Z</time>
      </trkpt>
      <trkpt lat="42.2842160" lon="-6.7025320">
        <ele>1401.7</ele>
        <time>2014-10-01T09:44:05Z</time>
      </trkpt>
      <trkpt lat="42.2842460" lon="-6.7025530">
        <ele>1401.9</ele>
        <time>2014-10-01T09:44:06Z</time>
      </trkpt>
      <trkpt lat="42.2842750" lon="-6.7025710">
        <ele>1402.2</ele>
        <time>2014-10-01T09:44:07Z</time>
      </trkpt>
      <trkpt lat="42.2843080" lon="-6.7025900">
        <ele>1402.4</ele>
        <time>2014-10-01T09:44:08Z</time>
      </trkpt>
      <trkpt lat="42.2843380" lon="-6.7026130">
        <ele>1402.7</ele>
        <time>2014-10-01T09:44:09Z</time>
      </trkpt>
      <trkpt lat="42.2843660" lon="-6.7026360">
        <ele>1402.9</ele>
        <time>2014-10-01T09:44:10Z</time>
      </trkpt>
      <trkpt lat="42.2843950" lon="-6.7026600">
        <ele>1403.1</ele>
        <time>2014-10-01T09:44:11Z</time>
      </trkpt>
      <trkpt lat="42.2844200" lon="-6.7026880">
        <ele>1403.3</ele>
        <time>2014-10-01T09:44:12Z</time>
      </trkpt>
      <trkpt lat="42.2844440" lon="-6.7027180">
        <ele>1403.5</ele>
        <time>2014-10-01T09:44:13Z</time>
      </trkpt>
      <trkpt lat="42.2844700" lon="-6.7027530">
        <ele>1403.7</ele>
        <time>2014-10-01T09:44:14Z</time>
      </trkpt>
      <trkpt lat="42.2844950" lon="-6.7027870">
        <ele>1403.9</ele>
        <time>2014-10-01T09:44:15Z</time>
      </trkpt>
      <trkpt lat="42.2845190" lon="-6.7028140">
        <ele>1404.1</ele>
        <time>2014-10-01T09:44:16Z</time>
      </trkpt>
      <trkpt lat="42.2845450" lon="-6.7028440">
        <ele>1404.3</ele>
        <time>2014-10-01T09:44:17Z</time>
      </trkpt>
      <trkpt lat="42.2845710" lon="-6.7028750">
        <ele>1404.5</ele>
        <time>2014-10-01T09:44:18Z</time>
      </trkpt>
      <trkpt lat="42.2845950" lon="-6.7029030">
        <ele>1404.7</ele>
        <time>2014-10-01T09:44:19Z</time>
      </trkpt>
      <trkpt lat="42.2846190" lon="-6.7029310">
        <ele>1404.9</ele>
        <time>2014-10-01T09:44:20Z</time>
      </trkpt>
      <trkpt lat="42.2846460" lon="-6.7029610">
        <ele>1405.1</ele>
        <time>2014-10-01T09:44:21Z</time>
      </trkpt>
      <trkpt lat="42.2846720" lon="-6.7029900">
        <ele>1405.3</ele>
        <time>2014-10-01T09:44:22Z</time>
      </trkpt>
      <trkpt lat="42.2846990" lon="-6.7030180">
        <ele>1405.4</ele>
        <time>2014-10-01T09:44:23Z</time>
      </trkpt>
      <trkpt lat="42.2847280" lon="-6.7030440">
        <ele>1405.6</ele>
        <time>2014-10-01T09:44:24Z</time>
      </trkpt>
      <trkpt lat="42.2847570" lon="-6.7030680">
        <ele>1405.8</ele>
        <time>2014-10-01T09:44:25Z</time>
      </trkpt>
      <trkpt lat="42.2847860" lon="-6.7030880">
        <ele>1406.0</ele>
        <time>2014-10-01T09:44:26Z</time>
      </trkpt>
      <trkpt lat="42.2848130" lon="-6.7031120">
        <ele>1406.2</ele>
        <time>2014-10-01T09:44:27Z</time>
      </trkpt>
      <trkpt lat="42.2848400" lon="-6.7031360">
        <ele>1406.3</ele>
        <time>2014-10-01T09:44:28Z</time>
      </trkpt>
      <trkpt lat="42.2848650" lon="-6.7031590">
        <ele>1406.5</ele>
        <time>2014-10-01T09:44:29Z</time>
      </trkpt>
      <trkpt lat="42.2848910" lon="-6.7031840">
        <ele>1406.7</ele>
        <time>2014-10-01T09:44:30Z</time>
      </trkpt>
      <trkpt lat="42.2849160" lon="-6.7032120">
        <ele>1406.9</ele>
        <time>2014-10-01T09:44:31Z</time>
      </trkpt>
      <trkpt lat="42.2849410" lon="-6.7032370">
        <ele>1407.1</ele>
        <time>2014-10-01T09:44:32Z</time>
      </trkpt>
      <trkpt lat="42.2849670" lon="-6.7032640">
        <ele>1407.3</ele>
        <time>2014-10-01T09:44:33Z</time>
      </trkpt>
      <trkpt lat="42.2849960" lon="-6.7032920">
        <ele>1407.5</ele>
        <time>2014-10-01T09:44:34Z</time>
      </trkpt>
      <trkpt lat="42.2850230" lon="-6.7033180">
        <ele>1407.7</ele>
        <time>2014-10-01T09:44:35Z</time>
      </trkpt>
      <trkpt lat="42.2850490" lon="-6.7033460">
        <ele>1407.9</ele>
        <time>2014-10-01T09:44:36Z</time>
      </trkpt>
      <trkpt lat="42.2850740" lon="-6.7033740">
        <ele>1408.1</ele>
        <time>2014-10-01T09:44:37Z</time>
      </trkpt>
      <trkpt lat="42.2851010" lon="-6.7033990">
        <ele>1408.3</ele>
        <time>2014-10-01T09:44:38Z</time>
      </trkpt>
      <trkpt lat="42.2851280" lon="-6.7034230">
        <ele>1408.5</ele>
        <time>2014-10-01T09:44:39Z</time>
      </trkpt>
      <trkpt lat="42.2851550" lon="-6.7034450">
        <ele>1408.7</ele>
        <time>2014-10-01T09:44:40Z</time>
      </trkpt>
      <trkpt lat="42.2851790" lon="-6.7034730">
        <ele>1408.9</ele>
        <time>2014-10-01T09:44:41Z</time>
      </trkpt>
      <trkpt lat="42.2852050" lon="-6.7034950">
        <ele>1409.1</ele>
        <time>2014-10-01T09:44:42Z</time>
      </trkpt>
      <trkpt lat="42.2852320" lon="-6.7035180">
        <ele>1409.4</ele>
        <time>2014-10-01T09:44:43Z</time>
      </trkpt>
      <trkpt lat="42.2852590" lon="-6.7035420">
        <ele>1409.6</ele>
        <time>2014-10-01T09:44:44Z</time>
      </trkpt>
      <trkpt lat="42.2852850" lon="-6.7035650">
        <ele>1409.8</ele>
        <time>2014-10-01T09:44:45Z</time>
      </trkpt>
      <trkpt lat="42.2853110" lon="-6.7035900">
        <ele>1410.0</ele>
        <time>2014-10-01T09:44:46Z</time>
      </trkpt>
      <trkpt lat="42.2853380" lon="-6.7036130">
        <ele>1410.2</ele>
        <time>2014-10-01T09:44:47Z</time>
      </trkpt>
      <trkpt lat="42.2853640" lon="-6.7036390">
        <ele>1410.5</ele>
        <time>2014-10-01T09:44:48Z</time>
      </trkpt>
      <trkpt lat="42.2853920" lon="-6.7036640">
        <ele>1410.7</ele>
        <time>2014-10-01T09:44:49Z</time>
      </trkpt>
      <trkpt lat="42.2854210" lon="-6.7036880">
        <ele>1410.9</ele>
        <time>2014-10-01T09:44:50Z</time>
      </trkpt>
      <trkpt lat="42.2854480" lon="-6.7037130">
        <ele>1411.2</ele>
        <time>2014-10-01T09:44:51Z</time>
      </trkpt>
      <trkpt lat="42.2854740" lon="-6.7037340">
        <ele>1411.4</ele>
        <time>2014-10-01T09:44:52Z</time>
      </trkpt>
      <trkpt lat="42.2854990" lon="-6.7037590">
        <ele>1411.6</ele>
        <time>2014-10-01T09:44:53Z</time>
      </trkpt>
      <trkpt lat="42.2855250" lon="-6.7037850">
        <ele>1411.9</ele>
        <time>2014-10-01T09:44:54Z</time>
      </trkpt>
      <trkpt lat="42.2855510" lon="-6.7038100">
        <ele>1412.1</ele>
        <time>2014-10-01T09:44:55Z</time>
      </trkpt>
      <trkpt lat="42.2855770" lon="-6.7038360">
        <ele>1412.4</ele>
        <time>2014-10-01T09:44:56Z</time>
      </trkpt>
      <trkpt lat="42.2856020" lon="-6.7038610">
        <ele>1412.6</ele>
        <time>2014-10-01T09:44:57Z</time>
      </trkpt>
      <trkpt lat="42.2856270" lon="-6.7038870">
        <ele>1412.9</ele>
        <time>2014-10-01T09:44:58Z</time>
      </trkpt>
      <trkpt lat="42.2856540" lon="-6.7039120">
        <ele>1413.2</ele>
        <time>2014-10-01T09:44:59Z</time>
      </trkpt>
      <trkpt lat="42.2856810" lon="-6.7039370">
        <ele>1413.4</ele>
        <time>2014-10-01T09:45:00Z</time>
      </trkpt>
      <trkpt lat="42.2857090" lon="-6.7039620">
        <ele>1413.7</ele>
        <time>2014-10-01T09:45:01Z</time>
      </trkpt>
      <trkpt lat="42.2857340" lon="-6.7039890">
        <ele>1413.9</ele>
        <time>2014-10-01T09:45:02Z</time>
      </trkpt>
      <trkpt lat="42.2857600" lon="-6.7040160">
        <ele>1414.2</ele>
        <time>2014-10-01T09:45:03Z</time>
      </trkpt>
      <trkpt lat="42.2857870" lon="-6.7040390">
        <ele>1414.4</ele>
        <time>2014-10-01T09:45:04Z</time>
      </trkpt>
      <trkpt lat="42.2858130" lon="-6.7040640">
        <ele>1414.7</ele>
        <time>2014-10-01T09:45:05Z</time>
      </trkpt>
      <trkpt lat="42.2858410" lon="-6.7040920">
        <ele>1415.0</ele>
        <time>2014-10-01T09:45:06Z</time>
      </trkpt>
      <trkpt lat="42.2858670" lon="-6.7041220">
        <ele>1415.2</ele>
        <time>2014-10-01T09:45:07Z</time>
      </trkpt>
      <trkpt lat="42.2858920" lon="-6.7041520">
        <ele>1415.5</ele>
        <time>2014-10-01T09:45:08Z</time>
      </trkpt>
      <trkpt lat="42.2859190" lon="-6.7041840">
        <ele>1415.8</ele>
        <time>2014-10-01T09:45:09Z</time>
      </trkpt>
      <trkpt lat="42.2859460" lon="-6.7042140">
        <ele>1416.0</ele>
        <time>2014-10-01T09:45:10Z</time>
      </trkpt>
      <trkpt lat="42.2859710" lon="-6.7042400">
        <ele>1416.3</ele>
        <time>2014-10-01T09:45:11Z</time>
      </trkpt>
      <trkpt lat="42.2859950" lon="-6.7042690">
        <ele>1416.5</ele>
        <time>2014-10-01T09:45:12Z</time>
      </trkpt>
      <trkpt lat="42.2860200" lon="-6.7042990">
        <ele>1416.8</ele>
        <time>2014-10-01T09:45:13Z</time>
      </trkpt>
      <trkpt lat="42.2860470" lon="-6.7043250">
        <ele>1417.1</ele>
        <time>2014-10-01T09:45:14Z</time>
      </trkpt>
      <trkpt lat="42.2860760" lon="-6.7043510">
        <ele>1417.3</ele>
        <time>2014-10-01T09:45:15Z</time>
      </trkpt>
      <trkpt lat="42.2861040" lon="-6.7043770">
        <ele>1417.6</ele>
        <time>2014-10-01T09:45:16Z</time>
      </trkpt>
      <trkpt lat="42.2861330" lon="-6.7044030">
        <ele>1417.9</ele>
        <time>2014-10-01T09:45:17Z</time>
      </trkpt>
      <trkpt lat="42.2861620" lon="-6.7044330">
        <ele>1418.1</ele>
        <time>2014-10-01T09:45:18Z</time>
      </trkpt>
      <trkpt lat="42.2861890" lon="-6.7044630">
        <ele>1418.4</ele>
        <time>2014-10-01T09:45:19Z</time>
      </trkpt>
      <trkpt lat="42.2862170" lon="-6.7044930">
        <ele>1418.7</ele>
        <time>2014-10-01T09:45:20Z</time>
      </trkpt>
      <trkpt lat="42.2862470" lon="-6.7045240">
        <ele>1419.0</ele>
        <time>2014-10-01T09:45:21Z</time>
      </trkpt>
      <trkpt lat="42.2862760" lon="-6.7045580">
        <ele>1419.3</ele>
        <time>2014-10-01T09:45:22Z</time>
      </trkpt>
      <trkpt lat="42.2863060" lon="-6.7045910">
        <ele>1419.6</ele>
        <time>2014-10-01T09:45:23Z</time>
      </trkpt>
      <trkpt lat="42.2863370" lon="-6.7046280">
        <ele>1419.9</ele>
        <time>2014-10-01T09:45:24Z</time>
      </trkpt>
      <trkpt lat="42.2863680" lon="-6.7046630">
        <ele>1420.2</ele>
        <time>2014-10-01T09:45:25Z</time>
      </trkpt>
      <trkpt lat="42.2864000" lon="-6.7046970">
        <ele>1420.5</ele>
        <time>2014-10-01T09:45:26Z</time>
      </trkpt>
      <trkpt lat="42.2864320" lon="-6.7047320">
        <ele>1420.7</ele>
        <time>2014-10-01T09:45:27Z</time>
      </trkpt>
      <trkpt lat="42.2864650" lon="-6.7047670">
        <ele>1421.1</ele>
        <time>2014-10-01T09:45:28Z</time>
      </trkpt>
      <trkpt lat="42.2864990" lon="-6.7048010">
        <ele>1421.4</ele>
        <time>2014-10-01T09:45:29Z</time>
      </trkpt>
      <trkpt lat="42.2865330" lon="-6.7048330">
        <ele>1421.7</ele>
        <time>2014-10-01T09:45:30Z</time>
      </trkpt>
      <trkpt lat="42.2865670" lon="-6.7048680">
        <ele>1422.1</ele>
        <time>2014-10-01T09:45:31Z</time>
      </trkpt>
      <trkpt lat="42.2866020" lon="-6.7049020">
        <ele>1422.5</ele>
        <time>2014-10-01T09:45:32Z</time>
      </trkpt>
      <trkpt lat="42.2866360" lon="-6.7049350">
        <ele>1422.9</ele>
        <time>2014-10-01T09:45:33Z</time>
      </trkpt>
      <trkpt lat="42.2866700" lon="-6.7049670">
        <ele>1423.3</ele>
        <time>2014-10-01T09:45:34Z</time>
      </trkpt>
      <trkpt lat="42.2867030" lon="-6.7049990">
        <ele>1423.7</ele>
        <time>2014-10-01T09:45:35Z</time>
      </trkpt>
      <trkpt lat="42.2867360" lon="-6.7050280">
        <ele>1424.1</ele>
        <time>2014-10-01T09:45:36Z</time>
      </trkpt>
      <trkpt lat="42.2867700" lon="-6.7050590">
        <ele>1424.5</ele>
        <time>2014-10-01T09:45:37Z</time>
      </trkpt>
      <trkpt lat="42.2868030" lon="-6.7050930">
        <ele>1424.9</ele>
        <time>2014-10-01T09:45:38Z</time>
      </trkpt>
      <trkpt lat="42.2868300" lon="-6.7051240">
        <ele>1425.2</ele>
        <time>2014-10-01T09:45:39Z</time>
      </trkpt>
      <trkpt lat="42.2868580" lon="-6.7051550">
        <ele>1425.6</ele>
        <time>2014-10-01T09:45:40Z</time>
      </trkpt>
      <trkpt lat="42.2868860" lon="-6.7051860">
        <ele>1425.9</ele>
        <time>2014-10-01T09:45:41Z</time>
      </trkpt>
      <trkpt lat="42.2869160" lon="-6.7052160">
        <ele>1426.3</ele>
        <time>2014-10-01T09:45:42Z</time>
      </trkpt>
      <trkpt lat="42.2869450" lon="-6.7052460">
        <ele>1426.7</ele>
        <time>2014-10-01T09:45:43Z</time>
      </trkpt>
      <trkpt lat="42.2869680" lon="-6.7052740">
        <ele>1427.0</ele>
        <time>2014-10-01T09:45:44Z</time>
      </trkpt>
      <trkpt lat="42.2870060" lon="-6.7053250">
        <ele>1427.5</ele>
        <time>2014-10-01T09:45:46Z</time>
      </trkpt>
      <trkpt lat="42.2870260" lon="-6.7053570">
        <ele>1427.9</ele>
        <time>2014-10-01T09:45:47Z</time>
      </trkpt>
      <trkpt lat="42.2870500" lon="-6.7053890">
        <ele>1428.2</ele>
        <time>2014-10-01T09:45:48Z</time>
      </trkpt>
      <trkpt lat="42.2870690" lon="-6.7054150">
        <ele>1428.5</ele>
        <time>2014-10-01T09:45:49Z</time>
      </trkpt>
      <trkpt lat="42.2870900" lon="-6.7054430">
        <ele>1428.8</ele>
        <time>2014-10-01T09:45:50Z</time>
      </trkpt>
      <trkpt lat="42.2871110" lon="-6.7054710">
        <ele>1429.1</ele>
        <time>2014-10-01T09:45:51Z</time>
      </trkpt>
      <trkpt lat="42.2871320" lon="-6.7055010">
        <ele>1429.4</ele>
        <time>2014-10-01T09:45:52Z</time>
      </trkpt>
      <trkpt lat="42.2871500" lon="-6.7055290">
        <ele>1429.7</ele>
        <time>2014-10-01T09:45:53Z</time>
      </trkpt>
      <trkpt lat="42.2871680" lon="-6.7055580">
        <ele>1430.0</ele>
        <time>2014-10-01T09:45:54Z</time>
      </trkpt>
      <trkpt lat="42.2871890" lon="-6.7055920">
        <ele>1430.3</ele>
        <time>2014-10-01T09:45:55Z</time>
      </trkpt>
      <trkpt lat="42.2872070" lon="-6.7056230">
        <ele>1430.6</ele>
        <time>2014-10-01T09:45:56Z</time>
      </trkpt>
      <trkpt lat="42.2872230" lon="-6.7056550">
        <ele>1430.8</ele>
        <time>2014-10-01T09:45:57Z</time>
      </trkpt>
      <trkpt lat="42.2872480" lon="-6.7057210">
        <ele>1431.4</ele>
        <time>2014-10-01T09:45:59Z</time>
      </trkpt>
      <trkpt lat="42.2872610" lon="-6.7057560">
        <ele>1431.6</ele>
        <time>2014-10-01T09:46:00Z</time>
      </trkpt>
      <trkpt lat="42.2872720" lon="-6.7057960">
        <ele>1432.0</ele>
        <time>2014-10-01T09:46:01Z</time>
      </trkpt>
      <trkpt lat="42.2872830" lon="-6.7058340">
        <ele>1432.3</ele>
        <time>2014-10-01T09:46:02Z</time>
      </trkpt>
      <trkpt lat="42.2873030" lon="-6.7059010">
        <ele>1432.8</ele>
        <time>2014-10-01T09:46:04Z</time>
      </trkpt>
      <trkpt lat="42.2873150" lon="-6.7059330">
        <ele>1433.1</ele>
        <time>2014-10-01T09:46:05Z</time>
      </trkpt>
      <trkpt lat="42.2873280" lon="-6.7059660">
        <ele>1433.4</ele>
        <time>2014-10-01T09:46:06Z</time>
      </trkpt>
      <trkpt lat="42.2873410" lon="-6.7059980">
        <ele>1433.7</ele>
        <time>2014-10-01T09:46:07Z</time>
      </trkpt>
      <trkpt lat="42.2873650" lon="-6.7060620">
        <ele>1434.3</ele>
        <time>2014-10-01T09:46:09Z</time>
      </trkpt>
      <trkpt lat="42.2873910" lon="-6.7061300">
        <ele>1434.9</ele>
        <time>2014-10-01T09:46:11Z</time>
      </trkpt>
      <trkpt lat="42.2874150" lon="-6.7061940">
        <ele>1435.5</ele>
        <time>2014-10-01T09:46:13Z</time>
      </trkpt>
      <trkpt lat="42.2874280" lon="-6.7062290">
        <ele>1435.8</ele>
        <time>2014-10-01T09:46:14Z</time>
      </trkpt>
      <trkpt lat="42.2874400" lon="-6.7062610">
        <ele>1436.1</ele>
        <time>2014-10-01T09:46:15Z</time>
      </trkpt>
      <trkpt lat="42.2874550" lon="-6.7062980">
        <ele>1436.4</ele>
        <time>2014-10-01T09:46:16Z</time>
      </trkpt>
      <trkpt lat="42.2874690" lon="-6.7063290">
        <ele>1436.7</ele>
        <time>2014-10-01T09:46:17Z</time>
      </trkpt>
      <trkpt lat="42.2875050" lon="-6.7063950">
        <ele>1437.5</ele>
        <time>2014-10-01T09:46:19Z</time>
      </trkpt>
      <trkpt lat="42.2875250" lon="-6.7064240">
        <ele>1437.8</ele>
        <time>2014-10-01T09:46:20Z</time>
      </trkpt>
      <trkpt lat="42.2875430" lon="-6.7064540">
        <ele>1438.2</ele>
        <time>2014-10-01T09:46:21Z</time>
      </trkpt>
      <trkpt lat="42.2875620" lon="-6.7064830">
        <ele>1438.5</ele>
        <time>2014-10-01T09:46:22Z</time>
      </trkpt>
      <trkpt lat="42.2875810" lon="-6.7065090">
        <ele>1438.8</ele>
        <time>2014-10-01T09:46:23Z</time>
      </trkpt>
      <trkpt lat="42.2876150" lon="-6.7065620">
        <ele>1439.4</ele>
        <time>2014-10-01T09:46:25Z</time>
      </trkpt>
      <trkpt lat="42.2876520" lon="-6.7066110">
        <ele>1440.0</ele>
        <time>2014-10-01T09:46:27Z</time>
      </trkpt>
      <trkpt lat="42.2876720" lon="-6.7066350">
        <ele>1440.2</ele>
        <time>2014-10-01T09:46:28Z</time>
      </trkpt>
      <trkpt lat="42.2877150" lon="-6.7066760">
        <ele>1440.7</ele>
        <time>2014-10-01T09:46:30Z</time>
      </trkpt>
      <trkpt lat="42.2877400" lon="-6.7066950">
        <ele>1441.0</ele>
        <time>2014-10-01T09:46:31Z</time>
      </trkpt>
      <trkpt lat="42.2877650" lon="-6.7067130">
        <ele>1441.2</ele>
        <time>2014-10-01T09:46:32Z</time>
      </trkpt>
      <trkpt lat="42.2877940" lon="-6.7067310">
        <ele>1441.5</ele>
        <time>2014-10-01T09:46:33Z</time>
      </trkpt>
      <trkpt lat="42.2878440" lon="-6.7067560">
        <ele>1441.9</ele>
        <time>2014-10-01T09:46:35Z</time>
      </trkpt>
      <trkpt lat="42.2878730" lon="-6.7067660">
        <ele>1442.1</ele>
        <time>2014-10-01T09:46:36Z</time>
      </trkpt>
      <trkpt lat="42.2879040" lon="-6.7067790">
        <ele>1442.4</ele>
        <time>2014-10-01T09:46:37Z</time>
      </trkpt>
      <trkpt lat="42.2879320" lon="-6.7067850">
        <ele>1442.6</ele>
        <time>2014-10-01T09:46:38Z</time>
      </trkpt>
      <trkpt lat="42.2879920" lon="-6.7067950">
        <ele>1443.0</ele>
        <time>2014-10-01T09:46:40Z</time>
      </trkpt>
      <trkpt lat="42.2880180" lon="-6.7068020">
        <ele>1443.1</ele>
        <time>2014-10-01T09:46:41Z</time>
      </trkpt>
      <trkpt lat="42.2880460" lon="-6.7068140">
        <ele>1443.3</ele>
        <time>2014-10-01T09:46:42Z</time>
      </trkpt>
      <trkpt lat="42.2880980" lon="-6.7068280">
        <ele>1443.6</ele>
        <time>2014-10-01T09:46:44Z</time>
      </trkpt>
      <trkpt lat="42.2881260" lon="-6.7068330">
        <ele>1443.8</ele>
        <time>2014-10-01T09:46:45Z</time>
      </trkpt>
      <trkpt lat="42.2881540" lon="-6.7068430">
        <ele>1444.0</ele>
        <time>2014-10-01T09:46:46Z</time>
      </trkpt>
      <trkpt lat="42.2881930" lon="-6.7068630">
        <ele>1444.2</ele>
        <time>2014-10-01T09:46:48Z</time>
      </trkpt>
      <trkpt lat="42.2882410" lon="-6.7068870">
        <ele>1444.6</ele>
        <time>2014-10-01T09:46:50Z</time>
      </trkpt>
      <trkpt lat="42.2882680" lon="-6.7069010">
        <ele>1444.8</ele>
        <time>2014-10-01T09:46:51Z</time>
      </trkpt>
      <trkpt lat="42.2882950" lon="-6.7069080">
        <ele>1445.0</ele>
        <time>2014-10-01T09:46:52Z</time>
      </trkpt>
      <trkpt lat="42.2883240" lon="-6.7069030">
        <ele>1445.2</ele>
        <time>2014-10-01T09:46:53Z</time>
      </trkpt>
      <trkpt lat="42.2883740" lon="-6.7069210">
        <ele>1445.6</ele>
        <time>2014-10-01T09:46:55Z</time>
      </trkpt>
      <trkpt lat="42.2884200" lon="-6.7069250">
        <ele>1445.9</ele>
        <time>2014-10-01T09:46:57Z</time>
      </trkpt>
      <trkpt lat="42.2884630" lon="-6.7069230">
        <ele>1446.2</ele>
        <time>2014-10-01T09:46:59Z</time>
      </trkpt>
      <trkpt lat="42.2885150" lon="-6.7069110">
        <ele>1446.7</ele>
        <time>2014-10-01T09:47:01Z</time>
      </trkpt>
      <trkpt lat="42.2885440" lon="-6.7069060">
        <ele>1446.9</ele>
        <time>2014-10-01T09:47:02Z</time>
      </trkpt>
      <trkpt lat="42.2885960" lon="-6.7069120">
        <ele>1447.4</ele>
        <time>2014-10-01T09:47:04Z</time>
      </trkpt>
      <trkpt lat="42.2886290" lon="-6.7069220">
        <ele>1447.7</ele>
        <time>2014-10-01T09:47:05Z</time>
      </trkpt>
      <trkpt lat="42.2886620" lon="-6.7069390">
        <ele>1448.0</ele>
        <time>2014-10-01T09:47:06Z</time>
      </trkpt>
      <trkpt lat="42.2887090" lon="-6.7069490">
        <ele>1448.5</ele>
        <time>2014-10-01T09:47:08Z</time>
      </trkpt>
      <trkpt lat="42.2887390" lon="-6.7069490">
        <ele>1448.7</ele>
        <time>2014-10-01T09:47:09Z</time>
      </trkpt>
      <trkpt lat="42.2887660" lon="-6.7069450">
        <ele>1449.0</ele>
        <time>2014-10-01T09:47:10Z</time>
      </trkpt>
      <trkpt lat="42.2887940" lon="-6.7069470">
        <ele>1449.2</ele>
        <time>2014-10-01T09:47:11Z</time>
      </trkpt>
      <trkpt lat="42.2888220" lon="-6.7069460">
        <ele>1449.5</ele>
        <time>2014-10-01T09:47:12Z</time>
      </trkpt>
      <trkpt lat="42.2888530" lon="-6.7069430">
        <ele>1449.8</ele>
        <time>2014-10-01T09:47:13Z</time>
      </trkpt>
      <trkpt lat="42.2888830" lon="-6.7069380">
        <ele>1450.1</ele>
        <time>2014-10-01T09:47:14Z</time>
      </trkpt>
      <trkpt lat="42.2889150" lon="-6.7069310">
        <ele>1450.4</ele>
        <time>2014-10-01T09:47:15Z</time>
      </trkpt>
      <trkpt lat="42.2889480" lon="-6.7069230">
        <ele>1450.7</ele>
        <time>2014-10-01T09:47:16Z</time>
      </trkpt>
      <trkpt lat="42.2889760" lon="-6.7069170">
        <ele>1451.0</ele>
        <time>2014-10-01T09:47:17Z</time>
      </trkpt>
      <trkpt lat="42.2890050" lon="-6.7069070">
        <ele>1451.3</ele>
        <time>2014-10-01T09:47:18Z</time>
      </trkpt>
      <trkpt lat="42.2890350" lon="-6.7068980">
        <ele>1451.6</ele>
        <time>2014-10-01T09:47:19Z</time>
      </trkpt>
      <trkpt lat="42.2890610" lon="-6.7068870">
        <ele>1451.9</ele>
        <time>2014-10-01T09:47:20Z</time>
      </trkpt>
      <trkpt lat="42.2891060" lon="-6.7068640">
        <ele>1452.4</ele>
        <time>2014-10-01T09:47:22Z</time>
      </trkpt>
      <trkpt lat="42.2891460" lon="-6.7068450">
        <ele>1452.8</ele>
        <time>2014-10-01T09:47:24Z</time>
      </trkpt>
      <trkpt lat="42.2891850" lon="-6.7068250">
        <ele>1453.2</ele>
        <time>2014-10-01T09:47:26Z</time>
      </trkpt>
      <trkpt lat="42.2892110" lon="-6.7068100">
        <ele>1453.5</ele>
        <time>2014-10-01T09:47:27Z</time>
      </trkpt>
      <trkpt lat="42.2892400" lon="-6.7067940">
        <ele>1453.8</ele>
        <time>2014-10-01T09:47:28Z</time>
      </trkpt>
      <trkpt lat="42.2892710" lon="-6.7067790">
        <ele>1454.2</ele>
        <time>2014-10-01T09:47:29Z</time>
      </trkpt>
      <trkpt lat="42.2892980" lon="-6.7067630">
        <ele>1454.4</ele>
        <time>2014-10-01T09:47:30Z</time>
      </trkpt>
      <trkpt lat="42.2893470" lon="-6.7067310">
        <ele>1454.9</ele>
        <time>2014-10-01T09:47:32Z</time>
      </trkpt>
      <trkpt lat="42.2893730" lon="-6.7067140">
        <ele>1455.2</ele>
        <time>2014-10-01T09:47:33Z</time>
      </trkpt>
      <trkpt lat="42.2894080" lon="-6.7066760">
        <ele>1455.4</ele>
        <time>2014-10-01T09:47:35Z</time>
      </trkpt>
      <trkpt lat="42.2894420" lon="-6.7066340">
        <ele>1455.6</ele>
        <time>2014-10-01T09:47:37Z</time>
      </trkpt>
      <trkpt lat="42.2894830" lon="-6.7065930">
        <ele>1455.6</ele>
        <time>2014-10-01T09:47:39Z</time>
      </trkpt>
      <trkpt lat="42.2895050" lon="-6.7065680">
        <ele>1455.5</ele>
        <time>2014-10-01T09:47:40Z</time>
      </trkpt>
      <trkpt lat="42.2895470" lon="-6.7065220">
        <ele>1455.3</ele>
        <time>2014-10-01T09:47:42Z</time>
      </trkpt>
      <trkpt lat="42.2895700" lon="-6.7064980">
        <ele>1455.6</ele>
        <time>2014-10-01T09:47:43Z</time>
      </trkpt>
      <trkpt lat="42.2896090" lon="-6.7064510">
        <ele>1456.0</ele>
        <time>2014-10-01T09:47:45Z</time>
      </trkpt>
      <trkpt lat="42.2896450" lon="-6.7064140">
        <ele>1456.4</ele>
        <time>2014-10-01T09:47:47Z</time>
      </trkpt>
      <trkpt lat="42.2896840" lon="-6.7063690">
        <ele>1456.8</ele>
        <time>2014-10-01T09:47:49Z</time>
      </trkpt>
      <trkpt lat="42.2897030" lon="-6.7063430">
        <ele>1457.0</ele>
        <time>2014-10-01T09:47:50Z</time>
      </trkpt>
      <trkpt lat="42.2897370" lon="-6.7062870">
        <ele>1457.4</ele>
        <time>2014-10-01T09:47:52Z</time>
      </trkpt>
      <trkpt lat="42.2897550" lon="-6.7062610">
        <ele>1457.6</ele>
        <time>2014-10-01T09:47:53Z</time>
      </trkpt>
      <trkpt lat="42.2897740" lon="-6.7062320">
        <ele>1457.8</ele>
        <time>2014-10-01T09:47:54Z</time>
      </trkpt>
      <trkpt lat="42.2897940" lon="-6.7062000">
        <ele>1458.0</ele>
        <time>2014-10-01T09:47:55Z</time>
      </trkpt>
      <trkpt lat="42.2898110" lon="-6.7061730">
        <ele>1458.2</ele>
        <time>2014-10-01T09:47:56Z</time>
      </trkpt>
      <trkpt lat="42.2898460" lon="-6.7061140">
        <ele>1458.6</ele>
        <time>2014-10-01T09:47:58Z</time>
      </trkpt>
      <trkpt lat="42.2898650" lon="-6.7060820">
        <ele>1458.9</ele>
        <time>2014-10-01T09:47:59Z</time>
      </trkpt>
      <trkpt lat="42.2898820" lon="-6.7060460">
        <ele>1459.1</ele>
        <time>2014-10-01T09:48:00Z</time>
      </trkpt>
      <trkpt lat="42.2899120" lon="-6.7059900">
        <ele>1459.5</ele>
        <time>2014-10-01T09:48:02Z</time>
      </trkpt>
      <trkpt lat="42.2899460" lon="-6.7059410">
        <ele>1459.9</ele>
        <time>2014-10-01T09:48:04Z</time>
      </trkpt>
      <trkpt lat="42.2899810" lon="-6.7058880">
        <ele>1460.3</ele>
        <time>2014-10-01T09:48:06Z</time>
      </trkpt>
      <trkpt lat="42.2899980" lon="-6.7058590">
        <ele>1460.5</ele>
        <time>2014-10-01T09:48:07Z</time>
      </trkpt>
      <trkpt lat="42.2900190" lon="-6.7058250">
        <ele>1460.8</ele>
        <time>2014-10-01T09:48:08Z</time>
      </trkpt>
      <trkpt lat="42.2900400" lon="-6.7057860">
        <ele>1461.0</ele>
        <time>2014-10-01T09:48:09Z</time>
      </trkpt>
      <trkpt lat="42.2900590" lon="-6.7057590">
        <ele>1461.2</ele>
        <time>2014-10-01T09:48:10Z</time>
      </trkpt>
      <trkpt lat="42.2900770" lon="-6.7057310">
        <ele>1461.4</ele>
        <time>2014-10-01T09:48:11Z</time>
      </trkpt>
      <trkpt lat="42.2901080" lon="-6.7056810">
        <ele>1461.8</ele>
        <time>2014-10-01T09:48:13Z</time>
      </trkpt>
      <trkpt lat="42.2901240" lon="-6.7056490">
        <ele>1462.0</ele>
        <time>2014-10-01T09:48:14Z</time>
      </trkpt>
      <trkpt lat="42.2901460" lon="-6.7056100">
        <ele>1462.2</ele>
        <time>2014-10-01T09:48:15Z</time>
      </trkpt>
      <trkpt lat="42.2901680" lon="-6.7055650">
        <ele>1462.5</ele>
        <time>2014-10-01T09:48:16Z</time>
      </trkpt>
      <trkpt lat="42.2901910" lon="-6.7055250">
        <ele>1462.8</ele>
        <time>2014-10-01T09:48:17Z</time>
      </trkpt>
      <trkpt lat="42.2902120" lon="-6.7054900">
        <ele>1463.0</ele>
        <time>2014-10-01T09:48:18Z</time>
      </trkpt>
      <trkpt lat="42.2902310" lon="-6.7054560">
        <ele>1463.2</ele>
        <time>2014-10-01T09:48:19Z</time>
      </trkpt>
      <trkpt lat="42.2902490" lon="-6.7054220">
        <ele>1463.4</ele>
        <time>2014-10-01T09:48:20Z</time>
      </trkpt>
      <trkpt lat="42.2902680" lon="-6.7053810">
        <ele>1463.7</ele>
        <time>2014-10-01T09:48:21Z</time>
      </trkpt>
      <trkpt lat="42.2902880" lon="-6.7053460">
        <ele>1463.9</ele>
        <time>2014-10-01T09:48:22Z</time>
      </trkpt>
      <trkpt lat="42.2903080" lon="-6.7053100">
        <ele>1464.2</ele>
        <time>2014-10-01T09:48:23Z</time>
      </trkpt>
      <trkpt lat="42.2903280" lon="-6.7052690">
        <ele>1464.4</ele>
        <time>2014-10-01T09:48:24Z</time>
      </trkpt>
      <trkpt lat="42.2903490" lon="-6.7052310">
        <ele>1464.7</ele>
        <time>2014-10-01T09:48:25Z</time>
      </trkpt>
      <trkpt lat="42.2903680" lon="-6.7051970">
        <ele>1464.9</ele>
        <time>2014-10-01T09:48:26Z</time>
      </trkpt>
      <trkpt lat="42.2903860" lon="-6.7051650">
        <ele>1465.2</ele>
        <time>2014-10-01T09:48:27Z</time>
      </trkpt>
      <trkpt lat="42.2904050" lon="-6.7051320">
        <ele>1465.5</ele>
        <time>2014-10-01T09:48:28Z</time>
      </trkpt>
      <trkpt lat="42.2904250" lon="-6.7050960">
        <ele>1465.8</ele>
        <time>2014-10-01T09:48:29Z</time>
      </trkpt>
      <trkpt lat="42.2904450" lon="-6.7050600">
        <ele>1466.0</ele>
        <time>2014-10-01T09:48:30Z</time>
      </trkpt>
      <trkpt lat="42.2904650" lon="-6.7050240">
        <ele>1466.3</ele>
        <time>2014-10-01T09:48:31Z</time>
      </trkpt>
      <trkpt lat="42.2904860" lon="-6.7049900">
        <ele>1466.6</ele>
        <time>2014-10-01T09:48:32Z</time>
      </trkpt>
      <trkpt lat="42.2905050" lon="-6.7049510">
        <ele>1466.9</ele>
        <time>2014-10-01T09:48:33Z</time>
      </trkpt>
      <trkpt lat="42.2905210" lon="-6.7049170">
        <ele>1467.2</ele>
        <time>2014-10-01T09:48:34Z</time>
      </trkpt>
      <trkpt lat="42.2905400" lon="-6.7048800">
        <ele>1467.5</ele>
        <time>2014-10-01T09:48:35Z</time>
      </trkpt>
      <trkpt lat="42.2905630" lon="-6.7048450">
        <ele>1467.8</ele>
        <time>2014-10-01T09:48:36Z</time>
      </trkpt>
      <trkpt lat="42.2905860" lon="-6.7048170">
        <ele>1468.1</ele>
        <time>2014-10-01T09:48:37Z</time>
      </trkpt>
      <trkpt lat="42.2906110" lon="-6.7047920">
        <ele>1468.4</ele>
        <time>2014-10-01T09:48:38Z</time>
      </trkpt>
      <trkpt lat="42.2906360" lon="-6.7047660">
        <ele>1468.7</ele>
        <time>2014-10-01T09:48:39Z</time>
      </trkpt>
      <trkpt lat="42.2906780" lon="-6.7047230">
        <ele>1469.2</ele>
        <time>2014-10-01T09:48:41Z</time>
      </trkpt>
      <trkpt lat="42.2907000" lon="-6.7047000">
        <ele>1469.5</ele>
        <time>2014-10-01T09:48:42Z</time>
      </trkpt>
      <trkpt lat="42.2907250" lon="-6.7046730">
        <ele>1469.8</ele>
        <time>2014-10-01T09:48:43Z</time>
      </trkpt>
      <trkpt lat="42.2907500" lon="-6.7046470">
        <ele>1470.0</ele>
        <time>2014-10-01T09:48:44Z</time>
      </trkpt>
      <trkpt lat="42.2907770" lon="-6.7046230">
        <ele>1470.3</ele>
        <time>2014-10-01T09:48:45Z</time>
      </trkpt>
      <trkpt lat="42.2908050" lon="-6.7045980">
        <ele>1470.6</ele>
        <time>2014-10-01T09:48:46Z</time>
      </trkpt>
      <trkpt lat="42.2908330" lon="-6.7045740">
        <ele>1470.9</ele>
        <time>2014-10-01T09:48:47Z</time>
      </trkpt>
      <trkpt lat="42.2908590" lon="-6.7045520">
        <ele>1471.1</ele>
        <time>2014-10-01T09:48:48Z</time>
      </trkpt>
      <trkpt lat="42.2908880" lon="-6.7045300">
        <ele>1471.4</ele>
        <time>2014-10-01T09:48:49Z</time>
      </trkpt>
      <trkpt lat="42.2909210" lon="-6.7045070">
        <ele>1471.7</ele>
        <time>2014-10-01T09:48:50Z</time>
      </trkpt>
      <trkpt lat="42.2909530" lon="-6.7044860">
        <ele>1472.0</ele>
        <time>2014-10-01T09:48:51Z</time>
      </trkpt>
      <trkpt lat="42.2909870" lon="-6.7044660">
        <ele>1472.3</ele>
        <time>2014-10-01T09:48:52Z</time>
      </trkpt>
      <trkpt lat="42.2910220" lon="-6.7044440">
        <ele>1472.6</ele>
        <time>2014-10-01T09:48:53Z</time>
      </trkpt>
      <trkpt lat="42.2910490" lon="-6.7044290">
        <ele>1472.8</ele>
        <time>2014-10-01T09:48:54Z</time>
      </trkpt>
      <trkpt lat="42.2910780" lon="-6.7044140">
        <ele>1473.1</ele>
        <time>2014-10-01T09:48:55Z</time>
      </trkpt>
      <trkpt lat="42.2911340" lon="-6.7043850">
        <ele>1473.6</ele>
        <time>2014-10-01T09:48:57Z</time>
      </trkpt>
      <trkpt lat="42.2911610" lon="-6.7043710">
        <ele>1473.9</ele>
        <time>2014-10-01T09:48:58Z</time>
      </trkpt>
      <trkpt lat="42.2911870" lon="-6.7043550">
        <ele>1474.2</ele>
        <time>2014-10-01T09:48:59Z</time>
      </trkpt>
      <trkpt lat="42.2912190" lon="-6.7043450">
        <ele>1474.5</ele>
        <time>2014-10-01T09:49:00Z</time>
      </trkpt>
      <trkpt lat="42.2912450" lon="-6.7043330">
        <ele>1474.7</ele>
        <time>2014-10-01T09:49:01Z</time>
      </trkpt>
      <trkpt lat="42.2912730" lon="-6.7043250">
        <ele>1475.0</ele>
        <time>2014-10-01T09:49:02Z</time>
      </trkpt>
      <trkpt lat="42.2913090" lon="-6.7043140">
        <ele>1475.3</ele>
        <time>2014-10-01T09:49:03Z</time>
      </trkpt>
      <trkpt lat="42.2913460" lon="-6.7043040">
        <ele>1475.7</ele>
        <time>2014-10-01T09:49:04Z</time>
      </trkpt>
      <trkpt lat="42.2913810" lon="-6.7042940">
        <ele>1476.0</ele>
        <time>2014-10-01T09:49:05Z</time>
      </trkpt>
      <trkpt lat="42.2914200" lon="-6.7042850">
        <ele>1476.4</ele>
        <time>2014-10-01T09:49:06Z</time>
      </trkpt>
      <trkpt lat="42.2914580" lon="-6.7042790">
        <ele>1476.7</ele>
        <time>2014-10-01T09:49:07Z</time>
      </trkpt>
      <trkpt lat="42.2914960" lon="-6.7042770">
        <ele>1477.1</ele>
        <time>2014-10-01T09:49:08Z</time>
      </trkpt>
      <trkpt lat="42.2915350" lon="-6.7042780">
        <ele>1477.4</ele>
        <time>2014-10-01T09:49:09Z</time>
      </trkpt>
      <trkpt lat="42.2915750" lon="-6.7042790">
        <ele>1477.7</ele>
        <time>2014-10-01T09:49:10Z</time>
      </trkpt>
      <trkpt lat="42.2916120" lon="-6.7042810">
        <ele>1478.0</ele>
        <time>2014-10-01T09:49:11Z</time>
      </trkpt>
      <trkpt lat="42.2916470" lon="-6.7042860">
        <ele>1478.2</ele>
        <time>2014-10-01T09:49:12Z</time>
      </trkpt>
      <trkpt lat="42.2916800" lon="-6.7042940">
        <ele>1478.5</ele>
        <time>2014-10-01T09:49:13Z</time>
      </trkpt>
      <trkpt lat="42.2917160" lon="-6.7043020">
        <ele>1478.8</ele>
        <time>2014-10-01T09:49:14Z</time>
      </trkpt>
      <trkpt lat="42.2917510" lon="-6.7043090">
        <ele>1479.1</ele>
        <time>2014-10-01T09:49:15Z</time>
      </trkpt>
      <trkpt lat="42.2917870" lon="-6.7043160">
        <ele>1479.4</ele>
        <time>2014-10-01T09:49:16Z</time>
      </trkpt>
      <trkpt lat="42.2918170" lon="-6.7043200">
        <ele>1479.6</ele>
        <time>2014-10-01T09:49:17Z</time>
      </trkpt>
      <trkpt lat="42.2918500" lon="-6.7043270">
        <ele>1479.9</ele>
        <time>2014-10-01T09:49:18Z</time>
      </trkpt>
      <trkpt lat="42.2918870" lon="-6.7043350">
        <ele>1480.3</ele>
        <time>2014-10-01T09:49:19Z</time>
      </trkpt>
      <trkpt lat="42.2919220" lon="-6.7043410">
        <ele>1480.6</ele>
        <time>2014-10-01T09:49:20Z</time>
      </trkpt>
      <trkpt lat="42.2919560" lon="-6.7043460">
        <ele>1481.0</ele>
        <time>2014-10-01T09:49:21Z</time>
      </trkpt>
      <trkpt lat="42.2919890" lon="-6.7043530">
        <ele>1481.3</ele>
        <time>2014-10-01T09:49:22Z</time>
      </trkpt>
      <trkpt lat="42.2920220" lon="-6.7043610">
        <ele>1481.7</ele>
        <time>2014-10-01T09:49:23Z</time>
      </trkpt>
      <trkpt lat="42.2920540" lon="-6.7043680">
        <ele>1482.0</ele>
        <time>2014-10-01T09:49:24Z</time>
      </trkpt>
      <trkpt lat="42.2920860" lon="-6.7043730">
        <ele>1482.4</ele>
        <time>2014-10-01T09:49:25Z</time>
      </trkpt>
      <trkpt lat="42.2921210" lon="-6.7043810">
        <ele>1482.8</ele>
        <time>2014-10-01T09:49:26Z</time>
      </trkpt>
      <trkpt lat="42.2921550" lon="-6.7043920">
        <ele>1483.2</ele>
        <time>2014-10-01T09:49:27Z</time>
      </trkpt>
      <trkpt lat="42.2921900" lon="-6.7044040">
        <ele>1483.6</ele>
        <time>2014-10-01T09:49:28Z</time>
      </trkpt>
      <trkpt lat="42.2922240" lon="-6.7044170">
        <ele>1484.1</ele>
        <time>2014-10-01T09:49:29Z</time>
      </trkpt>
      <trkpt lat="42.2922620" lon="-6.7044320">
        <ele>1484.6</ele>
        <time>2014-10-01T09:49:30Z</time>
      </trkpt>
      <trkpt lat="42.2923000" lon="-6.7044460">
        <ele>1485.1</ele>
        <time>2014-10-01T09:49:31Z</time>
      </trkpt>
      <trkpt lat="42.2923360" lon="-6.7044600">
        <ele>1485.6</ele>
        <time>2014-10-01T09:49:32Z</time>
      </trkpt>
      <trkpt lat="42.2923670" lon="-6.7044750">
        <ele>1486.0</ele>
        <time>2014-10-01T09:49:33Z</time>
      </trkpt>
      <trkpt lat="42.2923950" lon="-6.7044880">
        <ele>1486.4</ele>
        <time>2014-10-01T09:49:34Z</time>
      </trkpt>
      <trkpt lat="42.2924280" lon="-6.7045040">
        <ele>1486.8</ele>
        <time>2014-10-01T09:49:35Z</time>
      </trkpt>
      <trkpt lat="42.2924590" lon="-6.7045220">
        <ele>1487.2</ele>
        <time>2014-10-01T09:49:36Z</time>
      </trkpt>
      <trkpt lat="42.2924910" lon="-6.7045390">
        <ele>1487.6</ele>
        <time>2014-10-01T09:49:37Z</time>
      </trkpt>
      <trkpt lat="42.2925240" lon="-6.7045580">
        <ele>1488.0</ele>
        <time>2014-10-01T09:49:38Z</time>
      </trkpt>
      <trkpt lat="42.2925510" lon="-6.7045800">
        <ele>1488.4</ele>
        <time>2014-10-01T09:49:39Z</time>
      </trkpt>
      <trkpt lat="42.2925780" lon="-6.7046060">
        <ele>1488.8</ele>
        <time>2014-10-01T09:49:40Z</time>
      </trkpt>
      <trkpt lat="42.2926010" lon="-6.7046290">
        <ele>1489.1</ele>
        <time>2014-10-01T09:49:41Z</time>
      </trkpt>
      <trkpt lat="42.2926230" lon="-6.7046510">
        <ele>1489.4</ele>
        <time>2014-10-01T09:49:42Z</time>
      </trkpt>
      <trkpt lat="42.2926500" lon="-6.7046790">
        <ele>1489.8</ele>
        <time>2014-10-01T09:49:43Z</time>
      </trkpt>
      <trkpt lat="42.2926740" lon="-6.7047060">
        <ele>1490.1</ele>
        <time>2014-10-01T09:49:44Z</time>
      </trkpt>
      <trkpt lat="42.2926950" lon="-6.7047360">
        <ele>1490.4</ele>
        <time>2014-10-01T09:49:45Z</time>
      </trkpt>
      <trkpt lat="42.2927140" lon="-6.7047680">
        <ele>1490.7</ele>
        <time>2014-10-01T09:49:46Z</time>
      </trkpt>
      <trkpt lat="42.2927310" lon="-6.7048020">
        <ele>1491.1</ele>
        <time>2014-10-01T09:49:47Z</time>
      </trkpt>
      <trkpt lat="42.2927480" lon="-6.7048340">
        <ele>1491.4</ele>
        <time>2014-10-01T09:49:48Z</time>
      </trkpt>
      <trkpt lat="42.2927630" lon="-6.7048670">
        <ele>1491.7</ele>
        <time>2014-10-01T09:49:49Z</time>
      </trkpt>
      <trkpt lat="42.2927750" lon="-6.7049020">
        <ele>1491.9</ele>
        <time>2014-10-01T09:49:50Z</time>
      </trkpt>
      <trkpt lat="42.2927920" lon="-6.7049420">
        <ele>1492.3</ele>
        <time>2014-10-01T09:49:51Z</time>
      </trkpt>
      <trkpt lat="42.2928060" lon="-6.7049770">
        <ele>1492.6</ele>
        <time>2014-10-01T09:49:52Z</time>
      </trkpt>
      <trkpt lat="42.2928200" lon="-6.7050180">
        <ele>1492.9</ele>
        <time>2014-10-01T09:49:53Z</time>
      </trkpt>
      <trkpt lat="42.2928350" lon="-6.7050620">
        <ele>1493.3</ele>
        <time>2014-10-01T09:49:54Z</time>
      </trkpt>
      <trkpt lat="42.2928470" lon="-6.7050990">
        <ele>1493.6</ele>
        <time>2014-10-01T09:49:55Z</time>
      </trkpt>
      <trkpt lat="42.2928610" lon="-6.7051360">
        <ele>1493.9</ele>
        <time>2014-10-01T09:49:56Z</time>
      </trkpt>
      <trkpt lat="42.2928740" lon="-6.7051740">
        <ele>1494.2</ele>
        <time>2014-10-01T09:49:57Z</time>
      </trkpt>
      <trkpt lat="42.2928850" lon="-6.7052100">
        <ele>1494.5</ele>
        <time>2014-10-01T09:49:58Z</time>
      </trkpt>
      <trkpt lat="42.2928950" lon="-6.7052440">
        <ele>1494.8</ele>
        <time>2014-10-01T09:49:59Z</time>
      </trkpt>
      <trkpt lat="42.2929180" lon="-6.7053070">
        <ele>1495.3</ele>
        <time>2014-10-01T09:50:01Z</time>
      </trkpt>
      <trkpt lat="42.2929320" lon="-6.7053470">
        <ele>1495.7</ele>
        <time>2014-10-01T09:50:02Z</time>
      </trkpt>
      <trkpt lat="42.2929480" lon="-6.7054150">
        <ele>1496.2</ele>
        <time>2014-10-01T09:50:04Z</time>
      </trkpt>
      <trkpt lat="42.2929640" lon="-6.7054800">
        <ele>1496.6</ele>
        <time>2014-10-01T09:50:06Z</time>
      </trkpt>
      <trkpt lat="42.2929820" lon="-6.7055490">
        <ele>1497.0</ele>
        <time>2014-10-01T09:50:08Z</time>
      </trkpt>
      <trkpt lat="42.2929980" lon="-6.7056170">
        <ele>1497.4</ele>
        <time>2014-10-01T09:50:10Z</time>
      </trkpt>
      <trkpt lat="42.2930060" lon="-6.7056530">
        <ele>1497.6</ele>
        <time>2014-10-01T09:50:11Z</time>
      </trkpt>
      <trkpt lat="42.2930170" lon="-6.7056870">
        <ele>1497.8</ele>
        <time>2014-10-01T09:50:12Z</time>
      </trkpt>
      <trkpt lat="42.2930280" lon="-6.7057220">
        <ele>1498.0</ele>
        <time>2014-10-01T09:50:13Z</time>
      </trkpt>
      <trkpt lat="42.2930370" lon="-6.7057590">
        <ele>1498.2</ele>
        <time>2014-10-01T09:50:14Z</time>
      </trkpt>
      <trkpt lat="42.2930450" lon="-6.7057970">
        <ele>1498.4</ele>
        <time>2014-10-01T09:50:15Z</time>
      </trkpt>
      <trkpt lat="42.2930530" lon="-6.7058380">
        <ele>1498.6</ele>
        <time>2014-10-01T09:50:16Z</time>
      </trkpt>
      <trkpt lat="42.2930580" lon="-6.7058800">
        <ele>1498.9</ele>
        <time>2014-10-01T09:50:17Z</time>
      </trkpt>
      <trkpt lat="42.2930670" lon="-6.7059240">
        <ele>1499.2</ele>
        <time>2014-10-01T09:50:18Z</time>
      </trkpt>
      <trkpt lat="42.2930780" lon="-6.7059650">
        <ele>1499.4</ele>
        <time>2014-10-01T09:50:19Z</time>
      </trkpt>
      <trkpt lat="42.2930900" lon="-6.7060020">
        <ele>1499.7</ele>
        <time>2014-10-01T09:50:20Z</time>
      </trkpt>
      <trkpt lat="42.2931010" lon="-6.7060380">
        <ele>1499.9</ele>
        <time>2014-10-01T09:50:21Z</time>
      </trkpt>
      <trkpt lat="42.2931120" lon="-6.7060760">
        <ele>1500.1</ele>
        <time>2014-10-01T09:50:22Z</time>
      </trkpt>
      <trkpt lat="42.2931230" lon="-6.7061140">
        <ele>1500.4</ele>
        <time>2014-10-01T09:50:23Z</time>
      </trkpt>
      <trkpt lat="42.2931350" lon="-6.7061530">
        <ele>1500.7</ele>
        <time>2014-10-01T09:50:24Z</time>
      </trkpt>
      <trkpt lat="42.2931470" lon="-6.7061880">
        <ele>1500.9</ele>
        <time>2014-10-01T09:50:25Z</time>
      </trkpt>
      <trkpt lat="42.2931590" lon="-6.7062220">
        <ele>1501.1</ele>
        <time>2014-10-01T09:50:26Z</time>
      </trkpt>
      <trkpt lat="42.2931750" lon="-6.7062550">
        <ele>1501.4</ele>
        <time>2014-10-01T09:50:27Z</time>
      </trkpt>
      <trkpt lat="42.2931900" lon="-6.7062880">
        <ele>1501.7</ele>
        <time>2014-10-01T09:50:28Z</time>
      </trkpt>
      <trkpt lat="42.2932050" lon="-6.7063210">
        <ele>1501.9</ele>
        <time>2014-10-01T09:50:29Z</time>
      </trkpt>
      <trkpt lat="42.2932220" lon="-6.7063530">
        <ele>1502.2</ele>
        <time>2014-10-01T09:50:30Z</time>
      </trkpt>
      <trkpt lat="42.2932400" lon="-6.7063870">
        <ele>1502.5</ele>
        <time>2014-10-01T09:50:31Z</time>
      </trkpt>
      <trkpt lat="42.2932580" lon="-6.7064230">
        <ele>1502.8</ele>
        <time>2014-10-01T09:50:32Z</time>
      </trkpt>
      <trkpt lat="42.2932740" lon="-6.7064580">
        <ele>1503.0</ele>
        <time>2014-10-01T09:50:33Z</time>
      </trkpt>
      <trkpt lat="42.2932900" lon="-6.7064910">
        <ele>1503.3</ele>
        <time>2014-10-01T09:50:34Z</time>
      </trkpt>
      <trkpt lat="42.2933080" lon="-6.7065240">
        <ele>1503.6</ele>
        <time>2014-10-01T09:50:35Z</time>
      </trkpt>
      <trkpt lat="42.2933250" lon="-6.7065580">
        <ele>1503.8</ele>
        <time>2014-10-01T09:50:36Z</time>
      </trkpt>
      <trkpt lat="42.2933440" lon="-6.7065940">
        <ele>1504.1</ele>
        <time>2014-10-01T09:50:37Z</time>
      </trkpt>
      <trkpt lat="42.2933620" lon="-6.7066280">
        <ele>1504.4</ele>
        <time>2014-10-01T09:50:38Z</time>
      </trkpt>
      <trkpt lat="42.2933780" lon="-6.7066620">
        <ele>1504.7</ele>
        <time>2014-10-01T09:50:39Z</time>
      </trkpt>
      <trkpt lat="42.2933950" lon="-6.7066960">
        <ele>1504.9</ele>
        <time>2014-10-01T09:50:40Z</time>
      </trkpt>
      <trkpt lat="42.2934120" lon="-6.7067270">
        <ele>1505.2</ele>
        <time>2014-10-01T09:50:41Z</time>
      </trkpt>
      <trkpt lat="42.2934310" lon="-6.7067570">
        <ele>1505.5</ele>
        <time>2014-10-01T09:50:42Z</time>
      </trkpt>
      <trkpt lat="42.2934500" lon="-6.7067860">
        <ele>1505.7</ele>
        <time>2014-10-01T09:50:43Z</time>
      </trkpt>
      <trkpt lat="42.2934680" lon="-6.7068160">
        <ele>1506.0</ele>
        <time>2014-10-01T09:50:44Z</time>
      </trkpt>
      <trkpt lat="42.2934860" lon="-6.7068470">
        <ele>1506.2</ele>
        <time>2014-10-01T09:50:45Z</time>
      </trkpt>
      <trkpt lat="42.2935030" lon="-6.7068780">
        <ele>1506.4</ele>
        <time>2014-10-01T09:50:46Z</time>
      </trkpt>
      <trkpt lat="42.2935220" lon="-6.7069080">
        <ele>1506.7</ele>
        <time>2014-10-01T09:50:47Z</time>
      </trkpt>
      <trkpt lat="42.2935410" lon="-6.7069370">
        <ele>1506.9</ele>
        <time>2014-10-01T09:50:48Z</time>
      </trkpt>
      <trkpt lat="42.2935630" lon="-6.7069640">
        <ele>1507.2</ele>
        <time>2014-10-01T09:50:49Z</time>
      </trkpt>
      <trkpt lat="42.2935850" lon="-6.7069900">
        <ele>1507.4</ele>
        <time>2014-10-01T09:50:50Z</time>
      </trkpt>
      <trkpt lat="42.2936060" lon="-6.7070190">
        <ele>1507.6</ele>
        <time>2014-10-01T09:50:51Z</time>
      </trkpt>
      <trkpt lat="42.2936260" lon="-6.7070470">
        <ele>1507.8</ele>
        <time>2014-10-01T09:50:52Z</time>
      </trkpt>
      <trkpt lat="42.2936480" lon="-6.7070750">
        <ele>1508.1</ele>
        <time>2014-10-01T09:50:53Z</time>
      </trkpt>
      <trkpt lat="42.2936690" lon="-6.7071040">
        <ele>1508.3</ele>
        <time>2014-10-01T09:50:54Z</time>
      </trkpt>
      <trkpt lat="42.2936930" lon="-6.7071340">
        <ele>1508.5</ele>
        <time>2014-10-01T09:50:55Z</time>
      </trkpt>
      <trkpt lat="42.2937160" lon="-6.7071630">
        <ele>1508.8</ele>
        <time>2014-10-01T09:50:56Z</time>
      </trkpt>
      <trkpt lat="42.2937380" lon="-6.7071920">
        <ele>1509.0</ele>
        <time>2014-10-01T09:50:57Z</time>
      </trkpt>
      <trkpt lat="42.2937620" lon="-6.7072230">
        <ele>1509.2</ele>
        <time>2014-10-01T09:50:58Z</time>
      </trkpt>
      <trkpt lat="42.2937860" lon="-6.7072520">
        <ele>1509.4</ele>
        <time>2014-10-01T09:50:59Z</time>
      </trkpt>
      <trkpt lat="42.2938120" lon="-6.7072840">
        <ele>1509.7</ele>
        <time>2014-10-01T09:51:00Z</time>
      </trkpt>
      <trkpt lat="42.2938370" lon="-6.7073130">
        <ele>1509.9</ele>
        <time>2014-10-01T09:51:01Z</time>
      </trkpt>
      <trkpt lat="42.2938610" lon="-6.7073420">
        <ele>1510.1</ele>
        <time>2014-10-01T09:51:02Z</time>
      </trkpt>
      <trkpt lat="42.2938860" lon="-6.7073700">
        <ele>1510.4</ele>
        <time>2014-10-01T09:51:03Z</time>
      </trkpt>
      <trkpt lat="42.2939110" lon="-6.7073980">
        <ele>1510.6</ele>
        <time>2014-10-01T09:51:04Z</time>
      </trkpt>
      <trkpt lat="42.2939360" lon="-6.7074270">
        <ele>1510.9</ele>
        <time>2014-10-01T09:51:05Z</time>
      </trkpt>
      <trkpt lat="42.2939600" lon="-6.7074550">
        <ele>1511.1</ele>
        <time>2014-10-01T09:51:06Z</time>
      </trkpt>
      <trkpt lat="42.2939850" lon="-6.7074840">
        <ele>1511.4</ele>
        <time>2014-10-01T09:51:07Z</time>
      </trkpt>
      <trkpt lat="42.2940090" lon="-6.7075100">
        <ele>1511.7</ele>
        <time>2014-10-01T09:51:08Z</time>
      </trkpt>
      <trkpt lat="42.2940340" lon="-6.7075390">
        <ele>1512.0</ele>
        <time>2014-10-01T09:51:09Z</time>
      </trkpt>
      <trkpt lat="42.2940570" lon="-6.7075650">
        <ele>1512.3</ele>
        <time>2014-10-01T09:51:10Z</time>
      </trkpt>
      <trkpt lat="42.2940800" lon="-6.7075910">
        <ele>1512.5</ele>
        <time>2014-10-01T09:51:11Z</time>
      </trkpt>
      <trkpt lat="42.2941030" lon="-6.7076160">
        <ele>1512.8</ele>
        <time>2014-10-01T09:51:12Z</time>
      </trkpt>
      <trkpt lat="42.2941270" lon="-6.7076430">
        <ele>1513.1</ele>
        <time>2014-10-01T09:51:13Z</time>
      </trkpt>
      <trkpt lat="42.2941520" lon="-6.7076690">
        <ele>1513.4</ele>
        <time>2014-10-01T09:51:14Z</time>
      </trkpt>
      <trkpt lat="42.2941750" lon="-6.7076960">
        <ele>1513.6</ele>
        <time>2014-10-01T09:51:15Z</time>
      </trkpt>
      <trkpt lat="42.2942000" lon="-6.7077250">
        <ele>1513.9</ele>
        <time>2014-10-01T09:51:16Z</time>
      </trkpt>
      <trkpt lat="42.2942240" lon="-6.7077550">
        <ele>1514.2</ele>
        <time>2014-10-01T09:51:17Z</time>
      </trkpt>
      <trkpt lat="42.2942500" lon="-6.7077830">
        <ele>1514.4</ele>
        <time>2014-10-01T09:51:18Z</time>
      </trkpt>
      <trkpt lat="42.2942760" lon="-6.7078120">
        <ele>1514.7</ele>
        <time>2014-10-01T09:51:19Z</time>
      </trkpt>
      <trkpt lat="42.2943010" lon="-6.7078420">
        <ele>1515.0</ele>
        <time>2014-10-01T09:51:20Z</time>
      </trkpt>
      <trkpt lat="42.2943280" lon="-6.7078740">
        <ele>1515.3</ele>
        <time>2014-10-01T09:51:21Z</time>
      </trkpt>
      <trkpt lat="42.2943540" lon="-6.7079050">
        <ele>1515.5</ele>
        <time>2014-10-01T09:51:22Z</time>
      </trkpt>
      <trkpt lat="42.2943780" lon="-6.7079360">
        <ele>1515.8</ele>
        <time>2014-10-01T09:51:23Z</time>
      </trkpt>
      <trkpt lat="42.2944030" lon="-6.7079670">
        <ele>1516.1</ele>
        <time>2014-10-01T09:51:24Z</time>
      </trkpt>
      <trkpt lat="42.2944280" lon="-6.7079980">
        <ele>1516.3</ele>
        <time>2014-10-01T09:51:25Z</time>
      </trkpt>
      <trkpt lat="42.2944530" lon="-6.7080270">
        <ele>1516.6</ele>
        <time>2014-10-01T09:51:26Z</time>
      </trkpt>
      <trkpt lat="42.2944780" lon="-6.7080580">
        <ele>1516.9</ele>
        <time>2014-10-01T09:51:27Z</time>
      </trkpt>
      <trkpt lat="42.2945030" lon="-6.7080860">
        <ele>1517.2</ele>
        <time>2014-10-01T09:51:28Z</time>
      </trkpt>
      <trkpt lat="42.2945290" lon="-6.7081150">
        <ele>1517.5</ele>
        <time>2014-10-01T09:51:29Z</time>
      </trkpt>
      <trkpt lat="42.2945560" lon="-6.7081450">
        <ele>1517.9</ele>
        <time>2014-10-01T09:51:30Z</time>
      </trkpt>
      <trkpt lat="42.2945820" lon="-6.7081730">
        <ele>1518.2</ele>
        <time>2014-10-01T09:51:31Z</time>
      </trkpt>
      <trkpt lat="42.2946080" lon="-6.7082020">
        <ele>1518.6</ele>
        <time>2014-10-01T09:51:32Z</time>
      </trkpt>
      <trkpt lat="42.2946330" lon="-6.7082310">
        <ele>1518.9</ele>
        <time>2014-10-01T09:51:33Z</time>
      </trkpt>
      <trkpt lat="42.2946590" lon="-6.7082600">
        <ele>1519.3</ele>
        <time>2014-10-01T09:51:34Z</time>
      </trkpt>
      <trkpt lat="42.2946850" lon="-6.7082900">
        <ele>1519.7</ele>
        <time>2014-10-01T09:51:35Z</time>
      </trkpt>
      <trkpt lat="42.2947100" lon="-6.7083190">
        <ele>1520.0</ele>
        <time>2014-10-01T09:51:36Z</time>
      </trkpt>
      <trkpt lat="42.2947340" lon="-6.7083480">
        <ele>1520.4</ele>
        <time>2014-10-01T09:51:37Z</time>
      </trkpt>
      <trkpt lat="42.2947610" lon="-6.7083760">
        <ele>1520.7</ele>
        <time>2014-10-01T09:51:38Z</time>
      </trkpt>
      <trkpt lat="42.2947860" lon="-6.7084000">
        <ele>1521.1</ele>
        <time>2014-10-01T09:51:39Z</time>
      </trkpt>
      <trkpt lat="42.2948100" lon="-6.7084250">
        <ele>1521.4</ele>
        <time>2014-10-01T09:51:40Z</time>
      </trkpt>
      <trkpt lat="42.2948330" lon="-6.7084510">
        <ele>1521.7</ele>
        <time>2014-10-01T09:51:41Z</time>
      </trkpt>
      <trkpt lat="42.2948570" lon="-6.7084760">
        <ele>1522.1</ele>
        <time>2014-10-01T09:51:42Z</time>
      </trkpt>
      <trkpt lat="42.2948830" lon="-6.7085020">
        <ele>1522.4</ele>
        <time>2014-10-01T09:51:43Z</time>
      </trkpt>
      <trkpt lat="42.2949090" lon="-6.7085280">
        <ele>1522.8</ele>
        <time>2014-10-01T09:51:44Z</time>
      </trkpt>
      <trkpt lat="42.2949350" lon="-6.7085560">
        <ele>1523.1</ele>
        <time>2014-10-01T09:51:45Z</time>
      </trkpt>
      <trkpt lat="42.2949630" lon="-6.7085840">
        <ele>1523.5</ele>
        <time>2014-10-01T09:51:46Z</time>
      </trkpt>
      <trkpt lat="42.2949910" lon="-6.7086120">
        <ele>1523.8</ele>
        <time>2014-10-01T09:51:47Z</time>
      </trkpt>
      <trkpt lat="42.2950190" lon="-6.7086400">
        <ele>1524.2</ele>
        <time>2014-10-01T09:51:48Z</time>
      </trkpt>
      <trkpt lat="42.2950490" lon="-6.7086650">
        <ele>1524.5</ele>
        <time>2014-10-01T09:51:49Z</time>
      </trkpt>
      <trkpt lat="42.2950810" lon="-6.7086930">
        <ele>1524.9</ele>
        <time>2014-10-01T09:51:50Z</time>
      </trkpt>
      <trkpt lat="42.2951120" lon="-6.7087190">
        <ele>1525.3</ele>
        <time>2014-10-01T09:51:51Z</time>
      </trkpt>
      <trkpt lat="42.2951410" lon="-6.7087430">
        <ele>1525.7</ele>
        <time>2014-10-01T09:51:52Z</time>
      </trkpt>
      <trkpt lat="42.2951710" lon="-6.7087630">
        <ele>1526.0</ele>
        <time>2014-10-01T09:51:53Z</time>
      </trkpt>
      <trkpt lat="42.2952000" lon="-6.7087830">
        <ele>1526.4</ele>
        <time>2014-10-01T09:51:54Z</time>
      </trkpt>
      <trkpt lat="42.2952290" lon="-6.7087990">
        <ele>1526.7</ele>
        <time>2014-10-01T09:51:55Z</time>
      </trkpt>
      <trkpt lat="42.2952570" lon="-6.7088170">
        <ele>1527.1</ele>
        <time>2014-10-01T09:51:56Z</time>
      </trkpt>
      <trkpt lat="42.2952900" lon="-6.7088330">
        <ele>1527.4</ele>
        <time>2014-10-01T09:51:57Z</time>
      </trkpt>
      <trkpt lat="42.2953230" lon="-6.7088480">
        <ele>1527.8</ele>
        <time>2014-10-01T09:51:58Z</time>
      </trkpt>
      <trkpt lat="42.2953560" lon="-6.7088610">
        <ele>1528.1</ele>
        <time>2014-10-01T09:51:59Z</time>
      </trkpt>
      <trkpt lat="42.2953870" lon="-6.7088720">
        <ele>1528.4</ele>
        <time>2014-10-01T09:52:00Z</time>
      </trkpt>
      <trkpt lat="42.2954170" lon="-6.7088820">
        <ele>1528.6</ele>
        <time>2014-10-01T09:52:01Z</time>
      </trkpt>
      <trkpt lat="42.2954460" lon="-6.7088930">
        <ele>1528.8</ele>
        <time>2014-10-01T09:52:02Z</time>
      </trkpt>
      <trkpt lat="42.2954780" lon="-6.7089020">
        <ele>1529.0</ele>
        <time>2014-10-01T09:52:03Z</time>
      </trkpt>
      <trkpt lat="42.2955090" lon="-6.7089090">
        <ele>1529.1</ele>
        <time>2014-10-01T09:52:04Z</time>
      </trkpt>
      <trkpt lat="42.2955410" lon="-6.7089140">
        <ele>1529.2</ele>
        <time>2014-10-01T09:52:05Z</time>
      </trkpt>
      <trkpt lat="42.2955710" lon="-6.7089190">
        <ele>1529.2</ele>
        <time>2014-10-01T09:52:06Z</time>
      </trkpt>
      <trkpt lat="42.2956020" lon="-6.7089240">
        <ele>1529.2</ele>
        <time>2014-10-01T09:52:07Z</time>
      </trkpt>
      <trkpt lat="42.2956340" lon="-6.7089280">
        <ele>1529.1</ele>
        <time>2014-10-01T09:52:08Z</time>
      </trkpt>
      <trkpt lat="42.2956660" lon="-6.7089320">
        <ele>1528.9</ele>
        <time>2014-10-01T09:52:09Z</time>
      </trkpt>
      <trkpt lat="42.2956970" lon="-6.7089350">
        <ele>1528.7</ele>
        <time>2014-10-01T09:52:10Z</time>
      </trkpt>
      <trkpt lat="42.2957290" lon="-6.7089370">
        <ele>1528.7</ele>
        <time>2014-10-01T09:52:11Z</time>
      </trkpt>
      <trkpt lat="42.2957600" lon="-6.7089380">
        <ele>1528.7</ele>
        <time>2014-10-01T09:52:12Z</time>
      </trkpt>
      <trkpt lat="42.2957890" lon="-6.7089410">
        <ele>1528.7</ele>
        <time>2014-10-01T09:52:13Z</time>
      </trkpt>
      <trkpt lat="42.2958190" lon="-6.7089450">
        <ele>1528.8</ele>
        <time>2014-10-01T09:52:14Z</time>
      </trkpt>
      <trkpt lat="42.2958480" lon="-6.7089470">
        <ele>1528.9</ele>
        <time>2014-10-01T09:52:15Z</time>
      </trkpt>
      <trkpt lat="42.2958790" lon="-6.7089490">
        <ele>1529.0</ele>
        <time>2014-10-01T09:52:16Z</time>
      </trkpt>
      <trkpt lat="42.2959090" lon="-6.7089500">
        <ele>1529.1</ele>
        <time>2014-10-01T09:52:17Z</time>
      </trkpt>
      <trkpt lat="42.2959400" lon="-6.7089510">
        <ele>1529.3</ele>
        <time>2014-10-01T09:52:18Z</time>
      </trkpt>
      <trkpt lat="42.2959700" lon="-6.7089530">
        <ele>1529.4</ele>
        <time>2014-10-01T09:52:19Z</time>
      </trkpt>
      <trkpt lat="42.2959990" lon="-6.7089570">
        <ele>1529.6</ele>
        <time>2014-10-01T09:52:20Z</time>
      </trkpt>
      <trkpt lat="42.2960300" lon="-6.7089580">
        <ele>1529.8</ele>
        <time>2014-10-01T09:52:21Z</time>
      </trkpt>
      <trkpt lat="42.2960610" lon="-6.7089590">
        <ele>1530.1</ele>
        <time>2014-10-01T09:52:22Z</time>
      </trkpt>
      <trkpt lat="42.2960910" lon="-6.7089590">
        <ele>1530.3</ele>
        <time>2014-10-01T09:52:23Z</time>
      </trkpt>
      <trkpt lat="42.2961220" lon="-6.7089600">
        <ele>1530.5</ele>
        <time>2014-10-01T09:52:24Z</time>
      </trkpt>
      <trkpt lat="42.2961520" lon="-6.7089610">
        <ele>1530.8</ele>
        <time>2014-10-01T09:52:25Z</time>
      </trkpt>
      <trkpt lat="42.2961850" lon="-6.7089620">
        <ele>1531.1</ele>
        <time>2014-10-01T09:52:26Z</time>
      </trkpt>
      <trkpt lat="42.2962170" lon="-6.7089650">
        <ele>1531.4</ele>
        <time>2014-10-01T09:52:27Z</time>
      </trkpt>
      <trkpt lat="42.2962470" lon="-6.7089680">
        <ele>1531.7</ele>
        <time>2014-10-01T09:52:28Z</time>
      </trkpt>
      <trkpt lat="42.2962750" lon="-6.7089730">
        <ele>1532.0</ele>
        <time>2014-10-01T09:52:29Z</time>
      </trkpt>
      <trkpt lat="42.2963060" lon="-6.7089760">
        <ele>1532.3</ele>
        <time>2014-10-01T09:52:30Z</time>
      </trkpt>
      <trkpt lat="42.2963390" lon="-6.7089780">
        <ele>1532.7</ele>
        <time>2014-10-01T09:52:31Z</time>
      </trkpt>
      <trkpt lat="42.2963700" lon="-6.7089800">
        <ele>1533.0</ele>
        <time>2014-10-01T09:52:32Z</time>
      </trkpt>
      <trkpt lat="42.2963990" lon="-6.7089810">
        <ele>1533.3</ele>
        <time>2014-10-01T09:52:33Z</time>
      </trkpt>
      <trkpt lat="42.2964310" lon="-6.7089820">
        <ele>1533.6</ele>
        <time>2014-10-01T09:52:34Z</time>
      </trkpt>
      <trkpt lat="42.2964600" lon="-6.7089840">
        <ele>1533.9</ele>
        <time>2014-10-01T09:52:35Z</time>
      </trkpt>
      <trkpt lat="42.2964890" lon="-6.7089870">
        <ele>1534.2</ele>
        <time>2014-10-01T09:52:36Z</time>
      </trkpt>
      <trkpt lat="42.2965160" lon="-6.7089900">
        <ele>1534.5</ele>
        <time>2014-10-01T09:52:37Z</time>
      </trkpt>
      <trkpt lat="42.2965480" lon="-6.7089920">
        <ele>1534.8</ele>
        <time>2014-10-01T09:52:38Z</time>
      </trkpt>
      <trkpt lat="42.2965800" lon="-6.7089970">
        <ele>1535.1</ele>
        <time>2014-10-01T09:52:39Z</time>
      </trkpt>
      <trkpt lat="42.2966130" lon="-6.7089980">
        <ele>1535.4</ele>
        <time>2014-10-01T09:52:40Z</time>
      </trkpt>
      <trkpt lat="42.2966460" lon="-6.7090000">
        <ele>1535.8</ele>
        <time>2014-10-01T09:52:41Z</time>
      </trkpt>
      <trkpt lat="42.2966760" lon="-6.7090000">
        <ele>1536.1</ele>
        <time>2014-10-01T09:52:42Z</time>
      </trkpt>
      <trkpt lat="42.2967120" lon="-6.7090020">
        <ele>1536.4</ele>
        <time>2014-10-01T09:52:43Z</time>
      </trkpt>
      <trkpt lat="42.2967750" lon="-6.7090040">
        <ele>1537.1</ele>
        <time>2014-10-01T09:52:45Z</time>
      </trkpt>
      <trkpt lat="42.2968070" lon="-6.7090100">
        <ele>1537.4</ele>
        <time>2014-10-01T09:52:46Z</time>
      </trkpt>
      <trkpt lat="42.2968360" lon="-6.7090170">
        <ele>1537.8</ele>
        <time>2014-10-01T09:52:47Z</time>
      </trkpt>
      <trkpt lat="42.2968650" lon="-6.7090240">
        <ele>1538.1</ele>
        <time>2014-10-01T09:52:48Z</time>
      </trkpt>
      <trkpt lat="42.2968940" lon="-6.7090290">
        <ele>1538.4</ele>
        <time>2014-10-01T09:52:49Z</time>
      </trkpt>
      <trkpt lat="42.2969270" lon="-6.7090350">
        <ele>1538.8</ele>
        <time>2014-10-01T09:52:50Z</time>
      </trkpt>
      <trkpt lat="42.2969600" lon="-6.7090430">
        <ele>1539.1</ele>
        <time>2014-10-01T09:52:51Z</time>
      </trkpt>
      <trkpt lat="42.2969920" lon="-6.7090530">
        <ele>1539.5</ele>
        <time>2014-10-01T09:52:52Z</time>
      </trkpt>
      <trkpt lat="42.2970250" lon="-6.7090630">
        <ele>1539.8</ele>
        <time>2014-10-01T09:52:53Z</time>
      </trkpt>
      <trkpt lat="42.2970600" lon="-6.7090710">
        <ele>1540.2</ele>
        <time>2014-10-01T09:52:54Z</time>
      </trkpt>
      <trkpt lat="42.2970970" lon="-6.7090800">
        <ele>1540.7</ele>
        <time>2014-10-01T09:52:55Z</time>
      </trkpt>
      <trkpt lat="42.2971310" lon="-6.7090900">
        <ele>1541.1</ele>
        <time>2014-10-01T09:52:56Z</time>
      </trkpt>
      <trkpt lat="42.2971650" lon="-6.7091030">
        <ele>1541.5</ele>
        <time>2014-10-01T09:52:57Z</time>
      </trkpt>
      <trkpt lat="42.2971950" lon="-6.7091150">
        <ele>1541.8</ele>
        <time>2014-10-01T09:52:58Z</time>
      </trkpt>
      <trkpt lat="42.2972260" lon="-6.7091290">
        <ele>1542.2</ele>
        <time>2014-10-01T09:52:59Z</time>
      </trkpt>
      <trkpt lat="42.2972570" lon="-6.7091460">
        <ele>1542.6</ele>
        <time>2014-10-01T09:53:00Z</time>
      </trkpt>
      <trkpt lat="42.2972870" lon="-6.7091650">
        <ele>1543.0</ele>
        <time>2014-10-01T09:53:01Z</time>
      </trkpt>
      <trkpt lat="42.2973160" lon="-6.7091840">
        <ele>1543.3</ele>
        <time>2014-10-01T09:53:02Z</time>
      </trkpt>
      <trkpt lat="42.2973430" lon="-6.7092050">
        <ele>1543.6</ele>
        <time>2014-10-01T09:53:03Z</time>
      </trkpt>
      <trkpt lat="42.2973660" lon="-6.7092260">
        <ele>1543.9</ele>
        <time>2014-10-01T09:53:04Z</time>
      </trkpt>
      <trkpt lat="42.2973890" lon="-6.7092480">
        <ele>1544.2</ele>
        <time>2014-10-01T09:53:05Z</time>
      </trkpt>
      <trkpt lat="42.2974130" lon="-6.7092730">
        <ele>1544.5</ele>
        <time>2014-10-01T09:53:06Z</time>
      </trkpt>
      <trkpt lat="42.2974390" lon="-6.7093000">
        <ele>1544.9</ele>
        <time>2014-10-01T09:53:07Z</time>
      </trkpt>
      <trkpt lat="42.2974630" lon="-6.7093330">
        <ele>1545.3</ele>
        <time>2014-10-01T09:53:08Z</time>
      </trkpt>
      <trkpt lat="42.2974850" lon="-6.7093670">
        <ele>1545.6</ele>
        <time>2014-10-01T09:53:09Z</time>
      </trkpt>
      <trkpt lat="42.2975080" lon="-6.7094010">
        <ele>1545.9</ele>
        <time>2014-10-01T09:53:10Z</time>
      </trkpt>
      <trkpt lat="42.2975300" lon="-6.7094350">
        <ele>1546.3</ele>
        <time>2014-10-01T09:53:11Z</time>
      </trkpt>
      <trkpt lat="42.2975500" lon="-6.7094700">
        <ele>1546.6</ele>
        <time>2014-10-01T09:53:12Z</time>
      </trkpt>
      <trkpt lat="42.2975720" lon="-6.7095060">
        <ele>1546.9</ele>
        <time>2014-10-01T09:53:13Z</time>
      </trkpt>
      <trkpt lat="42.2975930" lon="-6.7095400">
        <ele>1547.2</ele>
        <time>2014-10-01T09:53:14Z</time>
      </trkpt>
      <trkpt lat="42.2976160" lon="-6.7095760">
        <ele>1547.5</ele>
        <time>2014-10-01T09:53:15Z</time>
      </trkpt>
      <trkpt lat="42.2976370" lon="-6.7096080">
        <ele>1547.8</ele>
        <time>2014-10-01T09:53:16Z</time>
      </trkpt>
      <trkpt lat="42.2976570" lon="-6.7096430">
        <ele>1548.1</ele>
        <time>2014-10-01T09:53:17Z</time>
      </trkpt>
      <trkpt lat="42.2976780" lon="-6.7096760">
        <ele>1548.4</ele>
        <time>2014-10-01T09:53:18Z</time>
      </trkpt>
      <trkpt lat="42.2976970" lon="-6.7097090">
        <ele>1548.7</ele>
        <time>2014-10-01T09:53:19Z</time>
      </trkpt>
      <trkpt lat="42.2977150" lon="-6.7097420">
        <ele>1549.0</ele>
        <time>2014-10-01T09:53:20Z</time>
      </trkpt>
      <trkpt lat="42.2977330" lon="-6.7097730">
        <ele>1549.3</ele>
        <time>2014-10-01T09:53:21Z</time>
      </trkpt>
      <trkpt lat="42.2977520" lon="-6.7098060">
        <ele>1549.6</ele>
        <time>2014-10-01T09:53:22Z</time>
      </trkpt>
      <trkpt lat="42.2977730" lon="-6.7098400">
        <ele>1549.9</ele>
        <time>2014-10-01T09:53:23Z</time>
      </trkpt>
      <trkpt lat="42.2977910" lon="-6.7098710">
        <ele>1550.2</ele>
        <time>2014-10-01T09:53:24Z</time>
      </trkpt>
      <trkpt lat="42.2978110" lon="-6.7099020">
        <ele>1550.5</ele>
        <time>2014-10-01T09:53:25Z</time>
      </trkpt>
      <trkpt lat="42.2978320" lon="-6.7099380">
        <ele>1550.8</ele>
        <time>2014-10-01T09:53:26Z</time>
      </trkpt>
      <trkpt lat="42.2978510" lon="-6.7099730">
        <ele>1551.1</ele>
        <time>2014-10-01T09:53:27Z</time>
      </trkpt>
      <trkpt lat="42.2978710" lon="-6.7100070">
        <ele>1551.4</ele>
        <time>2014-10-01T09:53:28Z</time>
      </trkpt>
      <trkpt lat="42.2978890" lon="-6.7100410">
        <ele>1551.7</ele>
        <time>2014-10-01T09:53:29Z</time>
      </trkpt>
      <trkpt lat="42.2979070" lon="-6.7100750">
        <ele>1552.0</ele>
        <time>2014-10-01T09:53:30Z</time>
      </trkpt>
      <trkpt lat="42.2979270" lon="-6.7101080">
        <ele>1552.3</ele>
        <time>2014-10-01T09:53:31Z</time>
      </trkpt>
      <trkpt lat="42.2979470" lon="-6.7101430">
        <ele>1552.6</ele>
        <time>2014-10-01T09:53:32Z</time>
      </trkpt>
      <trkpt lat="42.2979670" lon="-6.7101760">
        <ele>1552.9</ele>
        <time>2014-10-01T09:53:33Z</time>
      </trkpt>
      <trkpt lat="42.2979860" lon="-6.7102070">
        <ele>1553.2</ele>
        <time>2014-10-01T09:53:34Z</time>
      </trkpt>
      <trkpt lat="42.2980050" lon="-6.7102390">
        <ele>1553.5</ele>
        <time>2014-10-01T09:53:35Z</time>
      </trkpt>
      <trkpt lat="42.2980250" lon="-6.7102710">
        <ele>1553.8</ele>
        <time>2014-10-01T09:53:36Z</time>
      </trkpt>
      <trkpt lat="42.2980430" lon="-6.7103040">
        <ele>1554.1</ele>
        <time>2014-10-01T09:53:37Z</time>
      </trkpt>
      <trkpt lat="42.2980610" lon="-6.7103370">
        <ele>1554.4</ele>
        <time>2014-10-01T09:53:38Z</time>
      </trkpt>
      <trkpt lat="42.2980790" lon="-6.7103680">
        <ele>1554.7</ele>
        <time>2014-10-01T09:53:39Z</time>
      </trkpt>
      <trkpt lat="42.2980970" lon="-6.7104000">
        <ele>1555.0</ele>
        <time>2014-10-01T09:53:40Z</time>
      </trkpt>
      <trkpt lat="42.2981150" lon="-6.7104300">
        <ele>1555.3</ele>
        <time>2014-10-01T09:53:41Z</time>
      </trkpt>
      <trkpt lat="42.2981340" lon="-6.7104610">
        <ele>1555.6</ele>
        <time>2014-10-01T09:53:42Z</time>
      </trkpt>
      <trkpt lat="42.2981520" lon="-6.7104930">
        <ele>1555.9</ele>
        <time>2014-10-01T09:53:43Z</time>
      </trkpt>
      <trkpt lat="42.2981700" lon="-6.7105240">
        <ele>1556.2</ele>
        <time>2014-10-01T09:53:44Z</time>
      </trkpt>
      <trkpt lat="42.2981890" lon="-6.7105530">
        <ele>1556.5</ele>
        <time>2014-10-01T09:53:45Z</time>
      </trkpt>
      <trkpt lat="42.2982070" lon="-6.7105850">
        <ele>1556.8</ele>
        <time>2014-10-01T09:53:46Z</time>
      </trkpt>
      <trkpt lat="42.2982260" lon="-6.7106170">
        <ele>1557.1</ele>
        <time>2014-10-01T09:53:47Z</time>
      </trkpt>
      <trkpt lat="42.2982450" lon="-6.7106500">
        <ele>1557.4</ele>
        <time>2014-10-01T09:53:48Z</time>
      </trkpt>
      <trkpt lat="42.2982630" lon="-6.7106810">
        <ele>1557.7</ele>
        <time>2014-10-01T09:53:49Z</time>
      </trkpt>
      <trkpt lat="42.2982830" lon="-6.7107150">
        <ele>1558.0</ele>
        <time>2014-10-01T09:53:50Z</time>
      </trkpt>
      <trkpt lat="42.2983020" lon="-6.7107470">
        <ele>1558.3</ele>
        <time>2014-10-01T09:53:51Z</time>
      </trkpt>
      <trkpt lat="42.2983210" lon="-6.7107810">
        <ele>1558.6</ele>
        <time>2014-10-01T09:53:52Z</time>
      </trkpt>
      <trkpt lat="42.2983420" lon="-6.7108150">
        <ele>1558.9</ele>
        <time>2014-10-01T09:53:53Z</time>
      </trkpt>
      <trkpt lat="42.2983630" lon="-6.7108480">
        <ele>1559.2</ele>
        <time>2014-10-01T09:53:54Z</time>
      </trkpt>
      <trkpt lat="42.2983830" lon="-6.7108810">
        <ele>1559.6</ele>
        <time>2014-10-01T09:53:55Z</time>
      </trkpt>
      <trkpt lat="42.2984020" lon="-6.7109130">
        <ele>1559.8</ele>
        <time>2014-10-01T09:53:56Z</time>
      </trkpt>
      <trkpt lat="42.2984200" lon="-6.7109470">
        <ele>1560.1</ele>
        <time>2014-10-01T09:53:57Z</time>
      </trkpt>
      <trkpt lat="42.2984380" lon="-6.7109800">
        <ele>1560.4</ele>
        <time>2014-10-01T09:53:58Z</time>
      </trkpt>
      <trkpt lat="42.2984570" lon="-6.7110130">
        <ele>1560.7</ele>
        <time>2014-10-01T09:53:59Z</time>
      </trkpt>
      <trkpt lat="42.2984760" lon="-6.7110460">
        <ele>1561.0</ele>
        <time>2014-10-01T09:54:00Z</time>
      </trkpt>
      <trkpt lat="42.2984950" lon="-6.7110780">
        <ele>1561.3</ele>
        <time>2014-10-01T09:54:01Z</time>
      </trkpt>
      <trkpt lat="42.2985140" lon="-6.7111120">
        <ele>1561.6</ele>
        <time>2014-10-01T09:54:02Z</time>
      </trkpt>
      <trkpt lat="42.2985340" lon="-6.7111440">
        <ele>1561.8</ele>
        <time>2014-10-01T09:54:03Z</time>
      </trkpt>
      <trkpt lat="42.2985530" lon="-6.7111780">
        <ele>1562.1</ele>
        <time>2014-10-01T09:54:04Z</time>
      </trkpt>
      <trkpt lat="42.2985730" lon="-6.7112120">
        <ele>1562.4</ele>
        <time>2014-10-01T09:54:05Z</time>
      </trkpt>
      <trkpt lat="42.2985930" lon="-6.7112450">
        <ele>1562.7</ele>
        <time>2014-10-01T09:54:06Z</time>
      </trkpt>
      <trkpt lat="42.2986120" lon="-6.7112790">
        <ele>1563.0</ele>
        <time>2014-10-01T09:54:07Z</time>
      </trkpt>
      <trkpt lat="42.2986300" lon="-6.7113140">
        <ele>1563.3</ele>
        <time>2014-10-01T09:54:08Z</time>
      </trkpt>
      <trkpt lat="42.2986490" lon="-6.7113480">
        <ele>1563.6</ele>
        <time>2014-10-01T09:54:09Z</time>
      </trkpt>
      <trkpt lat="42.2986680" lon="-6.7113810">
        <ele>1563.9</ele>
        <time>2014-10-01T09:54:10Z</time>
      </trkpt>
      <trkpt lat="42.2986870" lon="-6.7114150">
        <ele>1564.2</ele>
        <time>2014-10-01T09:54:11Z</time>
      </trkpt>
      <trkpt lat="42.2987050" lon="-6.7114500">
        <ele>1564.5</ele>
        <time>2014-10-01T09:54:12Z</time>
      </trkpt>
      <trkpt lat="42.2987240" lon="-6.7114850">
        <ele>1564.8</ele>
        <time>2014-10-01T09:54:13Z</time>
      </trkpt>
      <trkpt lat="42.2987420" lon="-6.7115210">
        <ele>1565.0</ele>
        <time>2014-10-01T09:54:14Z</time>
      </trkpt>
      <trkpt lat="42.2987600" lon="-6.7115580">
        <ele>1565.3</ele>
        <time>2014-10-01T09:54:15Z</time>
      </trkpt>
      <trkpt lat="42.2987780" lon="-6.7115960">
        <ele>1565.6</ele>
        <time>2014-10-01T09:54:16Z</time>
      </trkpt>
      <trkpt lat="42.2987960" lon="-6.7116340">
        <ele>1565.9</ele>
        <time>2014-10-01T09:54:17Z</time>
      </trkpt>
      <trkpt lat="42.2988140" lon="-6.7116730">
        <ele>1566.2</ele>
        <time>2014-10-01T09:54:18Z</time>
      </trkpt>
      <trkpt lat="42.2988310" lon="-6.7117120">
        <ele>1566.5</ele>
        <time>2014-10-01T09:54:19Z</time>
      </trkpt>
      <trkpt lat="42.2988470" lon="-6.7117490">
        <ele>1566.8</ele>
        <time>2014-10-01T09:54:20Z</time>
      </trkpt>
      <trkpt lat="42.2988640" lon="-6.7117870">
        <ele>1567.1</ele>
        <time>2014-10-01T09:54:21Z</time>
      </trkpt>
      <trkpt lat="42.2988810" lon="-6.7118260">
        <ele>1567.3</ele>
        <time>2014-10-01T09:54:22Z</time>
      </trkpt>
      <trkpt lat="42.2988960" lon="-6.7118650">
        <ele>1567.6</ele>
        <time>2014-10-01T09:54:23Z</time>
      </trkpt>
      <trkpt lat="42.2989120" lon="-6.7119060">
        <ele>1568.0</ele>
        <time>2014-10-01T09:54:24Z</time>
      </trkpt>
      <trkpt lat="42.2989280" lon="-6.7119460">
        <ele>1568.3</ele>
        <time>2014-10-01T09:54:25Z</time>
      </trkpt>
      <trkpt lat="42.2989410" lon="-6.7119870">
        <ele>1568.6</ele>
        <time>2014-10-01T09:54:26Z</time>
      </trkpt>
      <trkpt lat="42.2989560" lon="-6.7120280">
        <ele>1568.9</ele>
        <time>2014-10-01T09:54:27Z</time>
      </trkpt>
      <trkpt lat="42.2989700" lon="-6.7120700">
        <ele>1569.3</ele>
        <time>2014-10-01T09:54:28Z</time>
      </trkpt>
      <trkpt lat="42.2989850" lon="-6.7121100">
        <ele>1569.6</ele>
        <time>2014-10-01T09:54:29Z</time>
      </trkpt>
      <trkpt lat="42.2990020" lon="-6.7121490">
        <ele>1569.9</ele>
        <time>2014-10-01T09:54:30Z</time>
      </trkpt>
      <trkpt lat="42.2990190" lon="-6.7121890">
        <ele>1570.3</ele>
        <time>2014-10-01T09:54:31Z</time>
      </trkpt>
      <trkpt lat="42.2990370" lon="-6.7122300">
        <ele>1570.6</ele>
        <time>2014-10-01T09:54:32Z</time>
      </trkpt>
      <trkpt lat="42.2990530" lon="-6.7122690">
        <ele>1570.9</ele>
        <time>2014-10-01T09:54:33Z</time>
      </trkpt>
      <trkpt lat="42.2990700" lon="-6.7123080">
        <ele>1571.3</ele>
        <time>2014-10-01T09:54:34Z</time>
      </trkpt>
      <trkpt lat="42.2990850" lon="-6.7123420">
        <ele>1571.5</ele>
        <time>2014-10-01T09:54:35Z</time>
      </trkpt>
      <trkpt lat="42.2991010" lon="-6.7123750">
        <ele>1571.8</ele>
        <time>2014-10-01T09:54:36Z</time>
      </trkpt>
      <trkpt lat="42.2991190" lon="-6.7124090">
        <ele>1572.1</ele>
        <time>2014-10-01T09:54:37Z</time>
      </trkpt>
      <trkpt lat="42.2991360" lon="-6.7124440">
        <ele>1572.4</ele>
        <time>2014-10-01T09:54:38Z</time>
      </trkpt>
      <trkpt lat="42.2991570" lon="-6.7124800">
        <ele>1572.7</ele>
        <time>2014-10-01T09:54:39Z</time>
      </trkpt>
      <trkpt lat="42.2991790" lon="-6.7125170">
        <ele>1573.0</ele>
        <time>2014-10-01T09:54:40Z</time>
      </trkpt>
      <trkpt lat="42.2992050" lon="-6.7125570">
        <ele>1573.3</ele>
        <time>2014-10-01T09:54:41Z</time>
      </trkpt>
      <trkpt lat="42.2992340" lon="-6.7125920">
        <ele>1573.7</ele>
        <time>2014-10-01T09:54:42Z</time>
      </trkpt>
      <trkpt lat="42.2992630" lon="-6.7126210">
        <ele>1574.0</ele>
        <time>2014-10-01T09:54:43Z</time>
      </trkpt>
      <trkpt lat="42.2992960" lon="-6.7126440">
        <ele>1574.3</ele>
        <time>2014-10-01T09:54:44Z</time>
      </trkpt>
      <trkpt lat="42.2993290" lon="-6.7126600">
        <ele>1574.6</ele>
        <time>2014-10-01T09:54:45Z</time>
      </trkpt>
      <trkpt lat="42.2993640" lon="-6.7126710">
        <ele>1574.9</ele>
        <time>2014-10-01T09:54:46Z</time>
      </trkpt>
      <trkpt lat="42.2993990" lon="-6.7126770">
        <ele>1575.1</ele>
        <time>2014-10-01T09:54:47Z</time>
      </trkpt>
      <trkpt lat="42.2994340" lon="-6.7126780">
        <ele>1575.5</ele>
        <time>2014-10-01T09:54:48Z</time>
      </trkpt>
      <trkpt lat="42.2994720" lon="-6.7126710">
        <ele>1575.8</ele>
        <time>2014-10-01T09:54:49Z</time>
      </trkpt>
      <trkpt lat="42.2995060" lon="-6.7126580">
        <ele>1576.1</ele>
        <time>2014-10-01T09:54:50Z</time>
      </trkpt>
      <trkpt lat="42.2995400" lon="-6.7126390">
        <ele>1576.5</ele>
        <time>2014-10-01T09:54:51Z</time>
      </trkpt>
      <trkpt lat="42.2995740" lon="-6.7126140">
        <ele>1576.8</ele>
        <time>2014-10-01T09:54:52Z</time>
      </trkpt>
      <trkpt lat="42.2996060" lon="-6.7125820">
        <ele>1577.2</ele>
        <time>2014-10-01T09:54:53Z</time>
      </trkpt>
      <trkpt lat="42.2996340" lon="-6.7125440">
        <ele>1577.5</ele>
        <time>2014-10-01T09:54:54Z</time>
      </trkpt>
      <trkpt lat="42.2996580" lon="-6.7125040">
        <ele>1577.9</ele>
        <time>2014-10-01T09:54:55Z</time>
      </trkpt>
      <trkpt lat="42.2996760" lon="-6.7124660">
        <ele>1578.1</ele>
        <time>2014-10-01T09:54:56Z</time>
      </trkpt>
      <trkpt lat="42.2996890" lon="-6.7124250">
        <ele>1578.4</ele>
        <time>2014-10-01T09:54:57Z</time>
      </trkpt>
      <trkpt lat="42.2996960" lon="-6.7123830">
        <ele>1578.6</ele>
        <time>2014-10-01T09:54:58Z</time>
      </trkpt>
      <trkpt lat="42.2997010" lon="-6.7123460">
        <ele>1578.8</ele>
        <time>2014-10-01T09:54:59Z</time>
      </trkpt>
      <trkpt lat="42.2997010" lon="-6.7123080">
        <ele>1579.0</ele>
        <time>2014-10-01T09:55:00Z</time>
      </trkpt>
      <trkpt lat="42.2997010" lon="-6.7122670">
        <ele>1579.1</ele>
        <time>2014-10-01T09:55:01Z</time>
      </trkpt>
      <trkpt lat="42.2996940" lon="-6.7122150">
        <ele>1579.4</ele>
        <time>2014-10-01T09:55:02Z</time>
      </trkpt>
      <trkpt lat="42.2996850" lon="-6.7121700">
        <ele>1579.5</ele>
        <time>2014-10-01T09:55:03Z</time>
      </trkpt>
      <trkpt lat="42.2996720" lon="-6.7121240">
        <ele>1579.7</ele>
        <time>2014-10-01T09:55:04Z</time>
      </trkpt>
      <trkpt lat="42.2996550" lon="-6.7120720">
        <ele>1579.9</ele>
        <time>2014-10-01T09:55:05Z</time>
      </trkpt>
      <trkpt lat="42.2996390" lon="-6.7120280">
        <ele>1580.1</ele>
        <time>2014-10-01T09:55:06Z</time>
      </trkpt>
      <trkpt lat="42.2996240" lon="-6.7119910">
        <ele>1580.2</ele>
        <time>2014-10-01T09:55:07Z</time>
      </trkpt>
      <trkpt lat="42.2996050" lon="-6.7119510">
        <ele>1580.4</ele>
        <time>2014-10-01T09:55:08Z</time>
      </trkpt>
      <trkpt lat="42.2995880" lon="-6.7119120">
        <ele>1580.5</ele>
        <time>2014-10-01T09:55:09Z</time>
      </trkpt>
      <trkpt lat="42.2995690" lon="-6.7118830">
        <ele>1580.6</ele>
        <time>2014-10-01T09:55:10Z</time>
      </trkpt>
      <trkpt lat="42.2995500" lon="-6.7118510">
        <ele>1580.7</ele>
        <time>2014-10-01T09:55:11Z</time>
      </trkpt>
      <trkpt lat="42.2995320" lon="-6.7118220">
        <ele>1580.8</ele>
        <time>2014-10-01T09:55:12Z</time>
      </trkpt>
      <trkpt lat="42.2995090" lon="-6.7117890">
        <ele>1581.0</ele>
        <time>2014-10-01T09:55:13Z</time>
      </trkpt>
      <trkpt lat="42.2994890" lon="-6.7117560">
        <ele>1581.1</ele>
        <time>2014-10-01T09:55:14Z</time>
      </trkpt>
      <trkpt lat="42.2994730" lon="-6.7117230">
        <ele>1581.2</ele>
        <time>2014-10-01T09:55:15Z</time>
      </trkpt>
      <trkpt lat="42.2994530" lon="-6.7116880">
        <ele>1581.4</ele>
        <time>2014-10-01T09:55:16Z</time>
      </trkpt>
      <trkpt lat="42.2994350" lon="-6.7116520">
        <ele>1581.5</ele>
        <time>2014-10-01T09:55:17Z</time>
      </trkpt>
      <trkpt lat="42.2994180" lon="-6.7116150">
        <ele>1581.7</ele>
        <time>2014-10-01T09:55:18Z</time>
      </trkpt>
      <trkpt lat="42.2994020" lon="-6.7115800">
        <ele>1581.8</ele>
        <time>2014-10-01T09:55:19Z</time>
      </trkpt>
      <trkpt lat="42.2993880" lon="-6.7115420">
        <ele>1582.0</ele>
        <time>2014-10-01T09:55:20Z</time>
      </trkpt>
      <trkpt lat="42.2993720" lon="-6.7115060">
        <ele>1582.2</ele>
        <time>2014-10-01T09:55:21Z</time>
      </trkpt>
      <trkpt lat="42.2993570" lon="-6.7114650">
        <ele>1582.4</ele>
        <time>2014-10-01T09:55:22Z</time>
      </trkpt>
      <trkpt lat="42.2993440" lon="-6.7114260">
        <ele>1582.6</ele>
        <time>2014-10-01T09:55:23Z</time>
      </trkpt>
      <trkpt lat="42.2993310" lon="-6.7113890">
        <ele>1582.8</ele>
        <time>2014-10-01T09:55:24Z</time>
      </trkpt>
      <trkpt lat="42.2993200" lon="-6.7113500">
        <ele>1583.0</ele>
        <time>2014-10-01T09:55:25Z</time>
      </trkpt>
      <trkpt lat="42.2993090" lon="-6.7113100">
        <ele>1583.2</ele>
        <time>2014-10-01T09:55:26Z</time>
      </trkpt>
      <trkpt lat="42.2993000" lon="-6.7112700">
        <ele>1583.4</ele>
        <time>2014-10-01T09:55:27Z</time>
      </trkpt>
      <trkpt lat="42.2992890" lon="-6.7112280">
        <ele>1583.6</ele>
        <time>2014-10-01T09:55:28Z</time>
      </trkpt>
      <trkpt lat="42.2992810" lon="-6.7111820">
        <ele>1583.9</ele>
        <time>2014-10-01T09:55:29Z</time>
      </trkpt>
      <trkpt lat="42.2992740" lon="-6.7111370">
        <ele>1584.1</ele>
        <time>2014-10-01T09:55:30Z</time>
      </trkpt>
      <trkpt lat="42.2992690" lon="-6.7110900">
        <ele>1584.4</ele>
        <time>2014-10-01T09:55:31Z</time>
      </trkpt>
      <trkpt lat="42.2992640" lon="-6.7110470">
        <ele>1584.6</ele>
        <time>2014-10-01T09:55:32Z</time>
      </trkpt>
      <trkpt lat="42.2992590" lon="-6.7110020">
        <ele>1584.9</ele>
        <time>2014-10-01T09:55:33Z</time>
      </trkpt>
      <trkpt lat="42.2992530" lon="-6.7109560">
        <ele>1585.2</ele>
        <time>2014-10-01T09:55:34Z</time>
      </trkpt>
      <trkpt lat="42.2992480" lon="-6.7109140">
        <ele>1585.5</ele>
        <time>2014-10-01T09:55:35Z</time>
      </trkpt>
      <trkpt lat="42.2992420" lon="-6.7108730">
        <ele>1585.7</ele>
        <time>2014-10-01T09:55:36Z</time>
      </trkpt>
      <trkpt lat="42.2992370" lon="-6.7108300">
        <ele>1586.0</ele>
        <time>2014-10-01T09:55:37Z</time>
      </trkpt>
      <trkpt lat="42.2992330" lon="-6.7107800">
        <ele>1586.3</ele>
        <time>2014-10-01T09:55:38Z</time>
      </trkpt>
      <trkpt lat="42.2992290" lon="-6.7107260">
        <ele>1586.6</ele>
        <time>2014-10-01T09:55:39Z</time>
      </trkpt>
      <trkpt lat="42.2992280" lon="-6.7106720">
        <ele>1587.0</ele>
        <time>2014-10-01T09:55:40Z</time>
      </trkpt>
      <trkpt lat="42.2992260" lon="-6.7106250">
        <ele>1587.3</ele>
        <time>2014-10-01T09:55:41Z</time>
      </trkpt>
      <trkpt lat="42.2992230" lon="-6.7105790">
        <ele>1587.6</ele>
        <time>2014-10-01T09:55:42Z</time>
      </trkpt>
      <trkpt lat="42.2992210" lon="-6.7105300">
        <ele>1588.0</ele>
        <time>2014-10-01T09:55:43Z</time>
      </trkpt>
      <trkpt lat="42.2992180" lon="-6.7104830">
        <ele>1588.3</ele>
        <time>2014-10-01T09:55:44Z</time>
      </trkpt>
      <trkpt lat="42.2992150" lon="-6.7104370">
        <ele>1588.6</ele>
        <time>2014-10-01T09:55:45Z</time>
      </trkpt>
      <trkpt lat="42.2992100" lon="-6.7103960">
        <ele>1588.9</ele>
        <time>2014-10-01T09:55:46Z</time>
      </trkpt>
      <trkpt lat="42.2992070" lon="-6.7103480">
        <ele>1589.3</ele>
        <time>2014-10-01T09:55:47Z</time>
      </trkpt>
      <trkpt lat="42.2992040" lon="-6.7103020">
        <ele>1589.6</ele>
        <time>2014-10-01T09:55:48Z</time>
      </trkpt>
      <trkpt lat="42.2991990" lon="-6.7102530">
        <ele>1589.9</ele>
        <time>2014-10-01T09:55:49Z</time>
      </trkpt>
      <trkpt lat="42.2991960" lon="-6.7102020">
        <ele>1590.3</ele>
        <time>2014-10-01T09:55:50Z</time>
      </trkpt>
      <trkpt lat="42.2991920" lon="-6.7101480">
        <ele>1590.7</ele>
        <time>2014-10-01T09:55:51Z</time>
      </trkpt>
      <trkpt lat="42.2991900" lon="-6.7100980">
        <ele>1591.1</ele>
        <time>2014-10-01T09:55:52Z</time>
      </trkpt>
      <trkpt lat="42.2991920" lon="-6.7100490">
        <ele>1591.5</ele>
        <time>2014-10-01T09:55:53Z</time>
      </trkpt>
      <trkpt lat="42.2991970" lon="-6.7100030">
        <ele>1591.9</ele>
        <time>2014-10-01T09:55:54Z</time>
      </trkpt>
      <trkpt lat="42.2992020" lon="-6.7099560">
        <ele>1592.2</ele>
        <time>2014-10-01T09:55:55Z</time>
      </trkpt>
      <trkpt lat="42.2992030" lon="-6.7099070">
        <ele>1592.6</ele>
        <time>2014-10-01T09:55:56Z</time>
      </trkpt>
      <trkpt lat="42.2992040" lon="-6.7098630">
        <ele>1593.0</ele>
        <time>2014-10-01T09:55:57Z</time>
      </trkpt>
      <trkpt lat="42.2992080" lon="-6.7098170">
        <ele>1593.3</ele>
        <time>2014-10-01T09:55:58Z</time>
      </trkpt>
      <trkpt lat="42.2992120" lon="-6.7097690">
        <ele>1593.7</ele>
        <time>2014-10-01T09:55:59Z</time>
      </trkpt>
      <trkpt lat="42.2992150" lon="-6.7097270">
        <ele>1594.0</ele>
        <time>2014-10-01T09:56:00Z</time>
      </trkpt>
      <trkpt lat="42.2992180" lon="-6.7096890">
        <ele>1594.3</ele>
        <time>2014-10-01T09:56:01Z</time>
      </trkpt>
      <trkpt lat="42.2992220" lon="-6.7096500">
        <ele>1594.6</ele>
        <time>2014-10-01T09:56:02Z</time>
      </trkpt>
      <trkpt lat="42.2992240" lon="-6.7096130">
        <ele>1594.9</ele>
        <time>2014-10-01T09:56:03Z</time>
      </trkpt>
      <trkpt lat="42.2992290" lon="-6.7095710">
        <ele>1595.3</ele>
        <time>2014-10-01T09:56:04Z</time>
      </trkpt>
      <trkpt lat="42.2992350" lon="-6.7095280">
        <ele>1595.6</ele>
        <time>2014-10-01T09:56:05Z</time>
      </trkpt>
      <trkpt lat="42.2992410" lon="-6.7094820">
        <ele>1596.0</ele>
        <time>2014-10-01T09:56:06Z</time>
      </trkpt>
      <trkpt lat="42.2992440" lon="-6.7094340">
        <ele>1596.4</ele>
        <time>2014-10-01T09:56:07Z</time>
      </trkpt>
      <trkpt lat="42.2992480" lon="-6.7093910">
        <ele>1596.7</ele>
        <time>2014-10-01T09:56:08Z</time>
      </trkpt>
      <trkpt lat="42.2992530" lon="-6.7093540">
        <ele>1597.1</ele>
        <time>2014-10-01T09:56:09Z</time>
      </trkpt>
      <trkpt lat="42.2992620" lon="-6.7092880">
        <ele>1597.6</ele>
        <time>2014-10-01T09:56:11Z</time>
      </trkpt>
      <trkpt lat="42.2992790" lon="-6.7092170">
        <ele>1598.2</ele>
        <time>2014-10-01T09:56:13Z</time>
      </trkpt>
      <trkpt lat="42.2992870" lon="-6.7091760">
        <ele>1598.5</ele>
        <time>2014-10-01T09:56:14Z</time>
      </trkpt>
      <trkpt lat="42.2992960" lon="-6.7091360">
        <ele>1598.9</ele>
        <time>2014-10-01T09:56:15Z</time>
      </trkpt>
      <trkpt lat="42.2993070" lon="-6.7090960">
        <ele>1599.2</ele>
        <time>2014-10-01T09:56:16Z</time>
      </trkpt>
      <trkpt lat="42.2993190" lon="-6.7090560">
        <ele>1599.6</ele>
        <time>2014-10-01T09:56:17Z</time>
      </trkpt>
      <trkpt lat="42.2993300" lon="-6.7090180">
        <ele>1599.9</ele>
        <time>2014-10-01T09:56:18Z</time>
      </trkpt>
      <trkpt lat="42.2993410" lon="-6.7089790">
        <ele>1600.2</ele>
        <time>2014-10-01T09:56:19Z</time>
      </trkpt>
      <trkpt lat="42.2993510" lon="-6.7089350">
        <ele>1600.5</ele>
        <time>2014-10-01T09:56:20Z</time>
      </trkpt>
      <trkpt lat="42.2993610" lon="-6.7088910">
        <ele>1600.9</ele>
        <time>2014-10-01T09:56:21Z</time>
      </trkpt>
      <trkpt lat="42.2993710" lon="-6.7088510">
        <ele>1601.1</ele>
        <time>2014-10-01T09:56:22Z</time>
      </trkpt>
      <trkpt lat="42.2993810" lon="-6.7088080">
        <ele>1601.4</ele>
        <time>2014-10-01T09:56:23Z</time>
      </trkpt>
      <trkpt lat="42.2993900" lon="-6.7087650">
        <ele>1601.6</ele>
        <time>2014-10-01T09:56:24Z</time>
      </trkpt>
      <trkpt lat="42.2994000" lon="-6.7087230">
        <ele>1601.8</ele>
        <time>2014-10-01T09:56:25Z</time>
      </trkpt>
      <trkpt lat="42.2994120" lon="-6.7086840">
        <ele>1602.0</ele>
        <time>2014-10-01T09:56:26Z</time>
      </trkpt>
      <trkpt lat="42.2994240" lon="-6.7086460">
        <ele>1602.0</ele>
        <time>2014-10-01T09:56:27Z</time>
      </trkpt>
      <trkpt lat="42.2994440" lon="-6.7085640">
        <ele>1602.0</ele>
        <time>2014-10-01T09:56:29Z</time>
      </trkpt>
      <trkpt lat="42.2994540" lon="-6.7085130">
        <ele>1601.9</ele>
        <time>2014-10-01T09:56:30Z</time>
      </trkpt>
      <trkpt lat="42.2994630" lon="-6.7084710">
        <ele>1602.0</ele>
        <time>2014-10-01T09:56:31Z</time>
      </trkpt>
      <trkpt lat="42.2994720" lon="-6.7084290">
        <ele>1602.0</ele>
        <time>2014-10-01T09:56:32Z</time>
      </trkpt>
      <trkpt lat="42.2994830" lon="-6.7083910">
        <ele>1602.1</ele>
        <time>2014-10-01T09:56:33Z</time>
      </trkpt>
      <trkpt lat="42.2995030" lon="-6.7083240">
        <ele>1602.2</ele>
        <time>2014-10-01T09:56:35Z</time>
      </trkpt>
      <trkpt lat="42.2995120" lon="-6.7082870">
        <ele>1602.4</ele>
        <time>2014-10-01T09:56:36Z</time>
      </trkpt>
      <trkpt lat="42.2995350" lon="-6.7082240">
        <ele>1602.6</ele>
        <time>2014-10-01T09:56:38Z</time>
      </trkpt>
      <trkpt lat="42.2995440" lon="-6.7081870">
        <ele>1602.8</ele>
        <time>2014-10-01T09:56:39Z</time>
      </trkpt>
      <trkpt lat="42.2995530" lon="-6.7081510">
        <ele>1603.0</ele>
        <time>2014-10-01T09:56:40Z</time>
      </trkpt>
      <trkpt lat="42.2995610" lon="-6.7081100">
        <ele>1603.2</ele>
        <time>2014-10-01T09:56:41Z</time>
      </trkpt>
      <trkpt lat="42.2995690" lon="-6.7080720">
        <ele>1603.5</ele>
        <time>2014-10-01T09:56:42Z</time>
      </trkpt>
      <trkpt lat="42.2995770" lon="-6.7080310">
        <ele>1603.7</ele>
        <time>2014-10-01T09:56:43Z</time>
      </trkpt>
      <trkpt lat="42.2995870" lon="-6.7079910">
        <ele>1604.0</ele>
        <time>2014-10-01T09:56:44Z</time>
      </trkpt>
      <trkpt lat="42.2995950" lon="-6.7079540">
        <ele>1604.3</ele>
        <time>2014-10-01T09:56:45Z</time>
      </trkpt>
      <trkpt lat="42.2996060" lon="-6.7079190">
        <ele>1604.5</ele>
        <time>2014-10-01T09:56:46Z</time>
      </trkpt>
      <trkpt lat="42.2996170" lon="-6.7078860">
        <ele>1604.8</ele>
        <time>2014-10-01T09:56:47Z</time>
      </trkpt>
      <trkpt lat="42.2996310" lon="-6.7078490">
        <ele>1605.1</ele>
        <time>2014-10-01T09:56:48Z</time>
      </trkpt>
      <trkpt lat="42.2996440" lon="-6.7078110">
        <ele>1605.4</ele>
        <time>2014-10-01T09:56:49Z</time>
      </trkpt>
      <trkpt lat="42.2996580" lon="-6.7077760">
        <ele>1605.7</ele>
        <time>2014-10-01T09:56:50Z</time>
      </trkpt>
      <trkpt lat="42.2996730" lon="-6.7077450">
        <ele>1606.1</ele>
        <time>2014-10-01T09:56:51Z</time>
      </trkpt>
      <trkpt lat="42.2996890" lon="-6.7077150">
        <ele>1606.4</ele>
        <time>2014-10-01T09:56:52Z</time>
      </trkpt>
      <trkpt lat="42.2997100" lon="-6.7076900">
        <ele>1606.7</ele>
        <time>2014-10-01T09:56:53Z</time>
      </trkpt>
      <trkpt lat="42.2997340" lon="-6.7076610">
        <ele>1607.0</ele>
        <time>2014-10-01T09:56:54Z</time>
      </trkpt>
      <trkpt lat="42.2997560" lon="-6.7076340">
        <ele>1607.3</ele>
        <time>2014-10-01T09:56:55Z</time>
      </trkpt>
      <trkpt lat="42.2997820" lon="-6.7076110">
        <ele>1607.7</ele>
        <time>2014-10-01T09:56:56Z</time>
      </trkpt>
      <trkpt lat="42.2998100" lon="-6.7075880">
        <ele>1608.0</ele>
        <time>2014-10-01T09:56:57Z</time>
      </trkpt>
      <trkpt lat="42.2998380" lon="-6.7075690">
        <ele>1608.3</ele>
        <time>2014-10-01T09:56:58Z</time>
      </trkpt>
      <trkpt lat="42.2998660" lon="-6.7075590">
        <ele>1608.6</ele>
        <time>2014-10-01T09:56:59Z</time>
      </trkpt>
      <trkpt lat="42.2998950" lon="-6.7075500">
        <ele>1608.9</ele>
        <time>2014-10-01T09:57:00Z</time>
      </trkpt>
      <trkpt lat="42.2999270" lon="-6.7075370">
        <ele>1609.2</ele>
        <time>2014-10-01T09:57:01Z</time>
      </trkpt>
      <trkpt lat="42.2999560" lon="-6.7075310">
        <ele>1609.5</ele>
        <time>2014-10-01T09:57:02Z</time>
      </trkpt>
      <trkpt lat="42.2999900" lon="-6.7075340">
        <ele>1609.8</ele>
        <time>2014-10-01T09:57:03Z</time>
      </trkpt>
      <trkpt lat="42.3000240" lon="-6.7075390">
        <ele>1610.2</ele>
        <time>2014-10-01T09:57:04Z</time>
      </trkpt>
      <trkpt lat="42.3000540" lon="-6.7075490">
        <ele>1610.5</ele>
        <time>2014-10-01T09:57:05Z</time>
      </trkpt>
      <trkpt lat="42.3000860" lon="-6.7075630">
        <ele>1610.8</ele>
        <time>2014-10-01T09:57:06Z</time>
      </trkpt>
      <trkpt lat="42.3001160" lon="-6.7075840">
        <ele>1611.1</ele>
        <time>2014-10-01T09:57:07Z</time>
      </trkpt>
      <trkpt lat="42.3001450" lon="-6.7076070">
        <ele>1611.4</ele>
        <time>2014-10-01T09:57:08Z</time>
      </trkpt>
      <trkpt lat="42.3001740" lon="-6.7076360">
        <ele>1611.7</ele>
        <time>2014-10-01T09:57:09Z</time>
      </trkpt>
      <trkpt lat="42.3001990" lon="-6.7076640">
        <ele>1612.0</ele>
        <time>2014-10-01T09:57:10Z</time>
      </trkpt>
      <trkpt lat="42.3002220" lon="-6.7076950">
        <ele>1612.2</ele>
        <time>2014-10-01T09:57:11Z</time>
      </trkpt>
      <trkpt lat="42.3002400" lon="-6.7077270">
        <ele>1612.3</ele>
        <time>2014-10-01T09:57:12Z</time>
      </trkpt>
      <trkpt lat="42.3002550" lon="-6.7077640">
        <ele>1612.5</ele>
        <time>2014-10-01T09:57:13Z</time>
      </trkpt>
      <trkpt lat="42.3002680" lon="-6.7078050">
        <ele>1612.6</ele>
        <time>2014-10-01T09:57:14Z</time>
      </trkpt>
      <trkpt lat="42.3002790" lon="-6.7078490">
        <ele>1612.6</ele>
        <time>2014-10-01T09:57:15Z</time>
      </trkpt>
      <trkpt lat="42.3002900" lon="-6.7078930">
        <ele>1612.6</ele>
        <time>2014-10-01T09:57:16Z</time>
      </trkpt>
      <trkpt lat="42.3002950" lon="-6.7079380">
        <ele>1612.6</ele>
        <time>2014-10-01T09:57:17Z</time>
      </trkpt>
      <trkpt lat="42.3002990" lon="-6.7079810">
        <ele>1612.6</ele>
        <time>2014-10-01T09:57:18Z</time>
      </trkpt>
      <trkpt lat="42.3002990" lon="-6.7080220">
        <ele>1612.7</ele>
        <time>2014-10-01T09:57:19Z</time>
      </trkpt>
      <trkpt lat="42.3002990" lon="-6.7080660">
        <ele>1612.7</ele>
        <time>2014-10-01T09:57:20Z</time>
      </trkpt>
      <trkpt lat="42.3003000" lon="-6.7081060">
        <ele>1612.7</ele>
        <time>2014-10-01T09:57:21Z</time>
      </trkpt>
      <trkpt lat="42.3002990" lon="-6.7081450">
        <ele>1612.8</ele>
        <time>2014-10-01T09:57:22Z</time>
      </trkpt>
      <trkpt lat="42.3003000" lon="-6.7081900">
        <ele>1612.9</ele>
        <time>2014-10-01T09:57:23Z</time>
      </trkpt>
      <trkpt lat="42.3002990" lon="-6.7082330">
        <ele>1612.9</ele>
        <time>2014-10-01T09:57:24Z</time>
      </trkpt>
      <trkpt lat="42.3002980" lon="-6.7082790">
        <ele>1613.0</ele>
        <time>2014-10-01T09:57:25Z</time>
      </trkpt>
      <trkpt lat="42.3002960" lon="-6.7083480">
        <ele>1613.2</ele>
        <time>2014-10-01T09:57:27Z</time>
      </trkpt>
      <trkpt lat="42.3002910" lon="-6.7084160">
        <ele>1613.3</ele>
        <time>2014-10-01T09:57:29Z</time>
      </trkpt>
      <trkpt lat="42.3002880" lon="-6.7084840">
        <ele>1613.5</ele>
        <time>2014-10-01T09:57:31Z</time>
      </trkpt>
      <trkpt lat="42.3002890" lon="-6.7085540">
        <ele>1613.7</ele>
        <time>2014-10-01T09:57:33Z</time>
      </trkpt>
      <trkpt lat="42.3002900" lon="-6.7085920">
        <ele>1613.9</ele>
        <time>2014-10-01T09:57:34Z</time>
      </trkpt>
      <trkpt lat="42.3002900" lon="-6.7086300">
        <ele>1614.0</ele>
        <time>2014-10-01T09:57:35Z</time>
      </trkpt>
      <trkpt lat="42.3002920" lon="-6.7087000">
        <ele>1614.2</ele>
        <time>2014-10-01T09:57:37Z</time>
      </trkpt>
      <trkpt lat="42.3002930" lon="-6.7087660">
        <ele>1614.5</ele>
        <time>2014-10-01T09:57:39Z</time>
      </trkpt>
      <trkpt lat="42.3002960" lon="-6.7088350">
        <ele>1614.8</ele>
        <time>2014-10-01T09:57:41Z</time>
      </trkpt>
      <trkpt lat="42.3002970" lon="-6.7089040">
        <ele>1615.1</ele>
        <time>2014-10-01T09:57:43Z</time>
      </trkpt>
      <trkpt lat="42.3003060" lon="-6.7089770">
        <ele>1615.5</ele>
        <time>2014-10-01T09:57:45Z</time>
      </trkpt>
      <trkpt lat="42.3003120" lon="-6.7090120">
        <ele>1615.7</ele>
        <time>2014-10-01T09:57:46Z</time>
      </trkpt>
      <trkpt lat="42.3003190" lon="-6.7090480">
        <ele>1615.8</ele>
        <time>2014-10-01T09:57:47Z</time>
      </trkpt>
      <trkpt lat="42.3003260" lon="-6.7090900">
        <ele>1616.1</ele>
        <time>2014-10-01T09:57:48Z</time>
      </trkpt>
      <trkpt lat="42.3003320" lon="-6.7091260">
        <ele>1616.3</ele>
        <time>2014-10-01T09:57:49Z</time>
      </trkpt>
      <trkpt lat="42.3003430" lon="-6.7091870">
        <ele>1616.7</ele>
        <time>2014-10-01T09:57:51Z</time>
      </trkpt>
      <trkpt lat="42.3003590" lon="-6.7092540">
        <ele>1617.1</ele>
        <time>2014-10-01T09:57:53Z</time>
      </trkpt>
      <trkpt lat="42.3003700" lon="-6.7092960">
        <ele>1617.3</ele>
        <time>2014-10-01T09:57:54Z</time>
      </trkpt>
      <trkpt lat="42.3003870" lon="-6.7093620">
        <ele>1617.8</ele>
        <time>2014-10-01T09:57:56Z</time>
      </trkpt>
      <trkpt lat="42.3003960" lon="-6.7093970">
        <ele>1618.0</ele>
        <time>2014-10-01T09:57:57Z</time>
      </trkpt>
      <trkpt lat="42.3004050" lon="-6.7094340">
        <ele>1618.3</ele>
        <time>2014-10-01T09:57:58Z</time>
      </trkpt>
      <trkpt lat="42.3004140" lon="-6.7094690">
        <ele>1618.5</ele>
        <time>2014-10-01T09:57:59Z</time>
      </trkpt>
      <trkpt lat="42.3004350" lon="-6.7095350">
        <ele>1618.9</ele>
        <time>2014-10-01T09:58:01Z</time>
      </trkpt>
      <trkpt lat="42.3004530" lon="-6.7095970">
        <ele>1619.3</ele>
        <time>2014-10-01T09:58:03Z</time>
      </trkpt>
      <trkpt lat="42.3004670" lon="-6.7096400">
        <ele>1619.6</ele>
        <time>2014-10-01T09:58:04Z</time>
      </trkpt>
      <trkpt lat="42.3004810" lon="-6.7096800">
        <ele>1619.9</ele>
        <time>2014-10-01T09:58:05Z</time>
      </trkpt>
      <trkpt lat="42.3004950" lon="-6.7097170">
        <ele>1620.1</ele>
        <time>2014-10-01T09:58:06Z</time>
      </trkpt>
      <trkpt lat="42.3005110" lon="-6.7097570">
        <ele>1620.4</ele>
        <time>2014-10-01T09:58:07Z</time>
      </trkpt>
      <trkpt lat="42.3005270" lon="-6.7097930">
        <ele>1620.6</ele>
        <time>2014-10-01T09:58:08Z</time>
      </trkpt>
      <trkpt lat="42.3005450" lon="-6.7098310">
        <ele>1620.9</ele>
        <time>2014-10-01T09:58:09Z</time>
      </trkpt>
      <trkpt lat="42.3005610" lon="-6.7098690">
        <ele>1621.2</ele>
        <time>2014-10-01T09:58:10Z</time>
      </trkpt>
      <trkpt lat="42.3005910" lon="-6.7099310">
        <ele>1621.6</ele>
        <time>2014-10-01T09:58:12Z</time>
      </trkpt>
      <trkpt lat="42.3006100" lon="-6.7099650">
        <ele>1621.9</ele>
        <time>2014-10-01T09:58:13Z</time>
      </trkpt>
      <trkpt lat="42.3006250" lon="-6.7099970">
        <ele>1622.2</ele>
        <time>2014-10-01T09:58:14Z</time>
      </trkpt>
      <trkpt lat="42.3006410" lon="-6.7100290">
        <ele>1622.4</ele>
        <time>2014-10-01T09:58:15Z</time>
      </trkpt>
      <trkpt lat="42.3006580" lon="-6.7100660">
        <ele>1622.7</ele>
        <time>2014-10-01T09:58:16Z</time>
      </trkpt>
      <trkpt lat="42.3006750" lon="-6.7101020">
        <ele>1623.0</ele>
        <time>2014-10-01T09:58:17Z</time>
      </trkpt>
      <trkpt lat="42.3006910" lon="-6.7101360">
        <ele>1623.2</ele>
        <time>2014-10-01T09:58:18Z</time>
      </trkpt>
      <trkpt lat="42.3007070" lon="-6.7101660">
        <ele>1623.5</ele>
        <time>2014-10-01T09:58:19Z</time>
      </trkpt>
      <trkpt lat="42.3007280" lon="-6.7102000">
        <ele>1623.8</ele>
        <time>2014-10-01T09:58:20Z</time>
      </trkpt>
      <trkpt lat="42.3007500" lon="-6.7102360">
        <ele>1624.1</ele>
        <time>2014-10-01T09:58:21Z</time>
      </trkpt>
      <trkpt lat="42.3007720" lon="-6.7102730">
        <ele>1624.4</ele>
        <time>2014-10-01T09:58:22Z</time>
      </trkpt>
      <trkpt lat="42.3007920" lon="-6.7103080">
        <ele>1624.7</ele>
        <time>2014-10-01T09:58:23Z</time>
      </trkpt>
      <trkpt lat="42.3008130" lon="-6.7103450">
        <ele>1625.0</ele>
        <time>2014-10-01T09:58:24Z</time>
      </trkpt>
      <trkpt lat="42.3008340" lon="-6.7103790">
        <ele>1625.3</ele>
        <time>2014-10-01T09:58:25Z</time>
      </trkpt>
      <trkpt lat="42.3008540" lon="-6.7104160">
        <ele>1625.7</ele>
        <time>2014-10-01T09:58:26Z</time>
      </trkpt>
      <trkpt lat="42.3008730" lon="-6.7104500">
        <ele>1625.9</ele>
        <time>2014-10-01T09:58:27Z</time>
      </trkpt>
      <trkpt lat="42.3008920" lon="-6.7104850">
        <ele>1626.2</ele>
        <time>2014-10-01T09:58:28Z</time>
      </trkpt>
      <trkpt lat="42.3009100" lon="-6.7105180">
        <ele>1626.5</ele>
        <time>2014-10-01T09:58:29Z</time>
      </trkpt>
      <trkpt lat="42.3009290" lon="-6.7105500">
        <ele>1626.8</ele>
        <time>2014-10-01T09:58:30Z</time>
      </trkpt>
      <trkpt lat="42.3009500" lon="-6.7105820">
        <ele>1627.1</ele>
        <time>2014-10-01T09:58:31Z</time>
      </trkpt>
      <trkpt lat="42.3009700" lon="-6.7106140">
        <ele>1627.4</ele>
        <time>2014-10-01T09:58:32Z</time>
      </trkpt>
      <trkpt lat="42.3009890" lon="-6.7106460">
        <ele>1627.7</ele>
        <time>2014-10-01T09:58:33Z</time>
      </trkpt>
      <trkpt lat="42.3010090" lon="-6.7106790">
        <ele>1628.0</ele>
        <time>2014-10-01T09:58:34Z</time>
      </trkpt>
      <trkpt lat="42.3010300" lon="-6.7107100">
        <ele>1628.3</ele>
        <time>2014-10-01T09:58:35Z</time>
      </trkpt>
      <trkpt lat="42.3010520" lon="-6.7107420">
        <ele>1628.6</ele>
        <time>2014-10-01T09:58:36Z</time>
      </trkpt>
      <trkpt lat="42.3010760" lon="-6.7107730">
        <ele>1628.9</ele>
        <time>2014-10-01T09:58:37Z</time>
      </trkpt>
      <trkpt lat="42.3010960" lon="-6.7108040">
        <ele>1629.2</ele>
        <time>2014-10-01T09:58:38Z</time>
      </trkpt>
      <trkpt lat="42.3011150" lon="-6.7108350">
        <ele>1629.5</ele>
        <time>2014-10-01T09:58:39Z</time>
      </trkpt>
      <trkpt lat="42.3011340" lon="-6.7108640">
        <ele>1629.7</ele>
        <time>2014-10-01T09:58:40Z</time>
      </trkpt>
      <trkpt lat="42.3011540" lon="-6.7108940">
        <ele>1630.0</ele>
        <time>2014-10-01T09:58:41Z</time>
      </trkpt>
      <trkpt lat="42.3011740" lon="-6.7109230">
        <ele>1630.2</ele>
        <time>2014-10-01T09:58:42Z</time>
      </trkpt>
      <trkpt lat="42.3011950" lon="-6.7109540">
        <ele>1630.5</ele>
        <time>2014-10-01T09:58:43Z</time>
      </trkpt>
      <trkpt lat="42.3012160" lon="-6.7109860">
        <ele>1630.7</ele>
        <time>2014-10-01T09:58:44Z</time>
      </trkpt>
      <trkpt lat="42.3012360" lon="-6.7110180">
        <ele>1631.0</ele>
        <time>2014-10-01T09:58:45Z</time>
      </trkpt>
      <trkpt lat="42.3012550" lon="-6.7110510">
        <ele>1631.2</ele>
        <time>2014-10-01T09:58:46Z</time>
      </trkpt>
      <trkpt lat="42.3012740" lon="-6.7110830">
        <ele>1631.5</ele>
        <time>2014-10-01T09:58:47Z</time>
      </trkpt>
      <trkpt lat="42.3012940" lon="-6.7111140">
        <ele>1631.7</ele>
        <time>2014-10-01T09:58:48Z</time>
      </trkpt>
      <trkpt lat="42.3013140" lon="-6.7111450">
        <ele>1632.0</ele>
        <time>2014-10-01T09:58:49Z</time>
      </trkpt>
      <trkpt lat="42.3013340" lon="-6.7111760">
        <ele>1632.2</ele>
        <time>2014-10-01T09:58:50Z</time>
      </trkpt>
      <trkpt lat="42.3013560" lon="-6.7112100">
        <ele>1632.5</ele>
        <time>2014-10-01T09:58:51Z</time>
      </trkpt>
      <trkpt lat="42.3013770" lon="-6.7112440">
        <ele>1632.8</ele>
        <time>2014-10-01T09:58:52Z</time>
      </trkpt>
      <trkpt lat="42.3013980" lon="-6.7112750">
        <ele>1633.0</ele>
        <time>2014-10-01T09:58:53Z</time>
      </trkpt>
      <trkpt lat="42.3014180" lon="-6.7113090">
        <ele>1633.3</ele>
        <time>2014-10-01T09:58:54Z</time>
      </trkpt>
      <trkpt lat="42.3014390" lon="-6.7113420">
        <ele>1633.6</ele>
        <time>2014-10-01T09:58:55Z</time>
      </trkpt>
      <trkpt lat="42.3014600" lon="-6.7113720">
        <ele>1633.9</ele>
        <time>2014-10-01T09:58:56Z</time>
      </trkpt>
      <trkpt lat="42.3014790" lon="-6.7114040">
        <ele>1634.2</ele>
        <time>2014-10-01T09:58:57Z</time>
      </trkpt>
      <trkpt lat="42.3014990" lon="-6.7114370">
        <ele>1634.5</ele>
        <time>2014-10-01T09:58:58Z</time>
      </trkpt>
      <trkpt lat="42.3015200" lon="-6.7114720">
        <ele>1634.8</ele>
        <time>2014-10-01T09:58:59Z</time>
      </trkpt>
      <trkpt lat="42.3015410" lon="-6.7115010">
        <ele>1635.1</ele>
        <time>2014-10-01T09:59:00Z</time>
      </trkpt>
      <trkpt lat="42.3015610" lon="-6.7115330">
        <ele>1635.4</ele>
        <time>2014-10-01T09:59:01Z</time>
      </trkpt>
      <trkpt lat="42.3015800" lon="-6.7115610">
        <ele>1635.7</ele>
        <time>2014-10-01T09:59:02Z</time>
      </trkpt>
      <trkpt lat="42.3015990" lon="-6.7115950">
        <ele>1636.0</ele>
        <time>2014-10-01T09:59:03Z</time>
      </trkpt>
      <trkpt lat="42.3016170" lon="-6.7116300">
        <ele>1636.3</ele>
        <time>2014-10-01T09:59:04Z</time>
      </trkpt>
      <trkpt lat="42.3016340" lon="-6.7116610">
        <ele>1636.5</ele>
        <time>2014-10-01T09:59:05Z</time>
      </trkpt>
      <trkpt lat="42.3016510" lon="-6.7116920">
        <ele>1636.8</ele>
        <time>2014-10-01T09:59:06Z</time>
      </trkpt>
      <trkpt lat="42.3016700" lon="-6.7117230">
        <ele>1637.1</ele>
        <time>2014-10-01T09:59:07Z</time>
      </trkpt>
      <trkpt lat="42.3016880" lon="-6.7117550">
        <ele>1637.3</ele>
        <time>2014-10-01T09:59:08Z</time>
      </trkpt>
      <trkpt lat="42.3017060" lon="-6.7117880">
        <ele>1637.6</ele>
        <time>2014-10-01T09:59:09Z</time>
      </trkpt>
      <trkpt lat="42.3017230" lon="-6.7118240">
        <ele>1637.9</ele>
        <time>2014-10-01T09:59:10Z</time>
      </trkpt>
      <trkpt lat="42.3017420" lon="-6.7118590">
        <ele>1638.2</ele>
        <time>2014-10-01T09:59:11Z</time>
      </trkpt>
      <trkpt lat="42.3017630" lon="-6.7118950">
        <ele>1638.6</ele>
        <time>2014-10-01T09:59:12Z</time>
      </trkpt>
      <trkpt lat="42.3017820" lon="-6.7119290">
        <ele>1638.9</ele>
        <time>2014-10-01T09:59:13Z</time>
      </trkpt>
      <trkpt lat="42.3018020" lon="-6.7119660">
        <ele>1639.2</ele>
        <time>2014-10-01T09:59:14Z</time>
      </trkpt>
      <trkpt lat="42.3018230" lon="-6.7120010">
        <ele>1639.6</ele>
        <time>2014-10-01T09:59:15Z</time>
      </trkpt>
      <trkpt lat="42.3018410" lon="-6.7120330">
        <ele>1639.9</ele>
        <time>2014-10-01T09:59:16Z</time>
      </trkpt>
      <trkpt lat="42.3018590" lon="-6.7120640">
        <ele>1640.1</ele>
        <time>2014-10-01T09:59:17Z</time>
      </trkpt>
      <trkpt lat="42.3018790" lon="-6.7121000">
        <ele>1640.4</ele>
        <time>2014-10-01T09:59:18Z</time>
      </trkpt>
      <trkpt lat="42.3018970" lon="-6.7121330">
        <ele>1640.7</ele>
        <time>2014-10-01T09:59:19Z</time>
      </trkpt>
      <trkpt lat="42.3019140" lon="-6.7121660">
        <ele>1640.9</ele>
        <time>2014-10-01T09:59:20Z</time>
      </trkpt>
      <trkpt lat="42.3019310" lon="-6.7122000">
        <ele>1641.2</ele>
        <time>2014-10-01T09:59:21Z</time>
      </trkpt>
      <trkpt lat="42.3019490" lon="-6.7122370">
        <ele>1641.4</ele>
        <time>2014-10-01T09:59:22Z</time>
      </trkpt>
      <trkpt lat="42.3019680" lon="-6.7122710">
        <ele>1641.7</ele>
        <time>2014-10-01T09:59:23Z</time>
      </trkpt>
      <trkpt lat="42.3019910" lon="-6.7123060">
        <ele>1641.9</ele>
        <time>2014-10-01T09:59:24Z</time>
      </trkpt>
      <trkpt lat="42.3020140" lon="-6.7123380">
        <ele>1642.2</ele>
        <time>2014-10-01T09:59:25Z</time>
      </trkpt>
      <trkpt lat="42.3020380" lon="-6.7123700">
        <ele>1642.5</ele>
        <time>2014-10-01T09:59:26Z</time>
      </trkpt>
      <trkpt lat="42.3020620" lon="-6.7124070">
        <ele>1642.7</ele>
        <time>2014-10-01T09:59:27Z</time>
      </trkpt>
      <trkpt lat="42.3020830" lon="-6.7124450">
        <ele>1643.0</ele>
        <time>2014-10-01T09:59:28Z</time>
      </trkpt>
      <trkpt lat="42.3021040" lon="-6.7124820">
        <ele>1643.2</ele>
        <time>2014-10-01T09:59:29Z</time>
      </trkpt>
      <trkpt lat="42.3021250" lon="-6.7125170">
        <ele>1643.5</ele>
        <time>2014-10-01T09:59:30Z</time>
      </trkpt>
      <trkpt lat="42.3021470" lon="-6.7125540">
        <ele>1643.7</ele>
        <time>2014-10-01T09:59:31Z</time>
      </trkpt>
      <trkpt lat="42.3021700" lon="-6.7125910">
        <ele>1644.0</ele>
        <time>2014-10-01T09:59:32Z</time>
      </trkpt>
      <trkpt lat="42.3021930" lon="-6.7126290">
        <ele>1644.3</ele>
        <time>2014-10-01T09:59:33Z</time>
      </trkpt>
      <trkpt lat="42.3022160" lon="-6.7126680">
        <ele>1644.6</ele>
        <time>2014-10-01T09:59:34Z</time>
      </trkpt>
      <trkpt lat="42.3022400" lon="-6.7127060">
        <ele>1644.9</ele>
        <time>2014-10-01T09:59:35Z</time>
      </trkpt>
      <trkpt lat="42.3022650" lon="-6.7127450">
        <ele>1645.2</ele>
        <time>2014-10-01T09:59:36Z</time>
      </trkpt>
      <trkpt lat="42.3022900" lon="-6.7127840">
        <ele>1645.5</ele>
        <time>2014-10-01T09:59:37Z</time>
      </trkpt>
      <trkpt lat="42.3023120" lon="-6.7128230">
        <ele>1645.9</ele>
        <time>2014-10-01T09:59:38Z</time>
      </trkpt>
      <trkpt lat="42.3023340" lon="-6.7128610">
        <ele>1646.2</ele>
        <time>2014-10-01T09:59:39Z</time>
      </trkpt>
      <trkpt lat="42.3023580" lon="-6.7129030">
        <ele>1646.5</ele>
        <time>2014-10-01T09:59:40Z</time>
      </trkpt>
      <trkpt lat="42.3023840" lon="-6.7129470">
        <ele>1646.9</ele>
        <time>2014-10-01T09:59:41Z</time>
      </trkpt>
      <trkpt lat="42.3024070" lon="-6.7129890">
        <ele>1647.2</ele>
        <time>2014-10-01T09:59:42Z</time>
      </trkpt>
      <trkpt lat="42.3024310" lon="-6.7130310">
        <ele>1647.6</ele>
        <time>2014-10-01T09:59:43Z</time>
      </trkpt>
      <trkpt lat="42.3024540" lon="-6.7130730">
        <ele>1647.9</ele>
        <time>2014-10-01T09:59:44Z</time>
      </trkpt>
      <trkpt lat="42.3024750" lon="-6.7131160">
        <ele>1648.3</ele>
        <time>2014-10-01T09:59:45Z</time>
      </trkpt>
      <trkpt lat="42.3024990" lon="-6.7131630">
        <ele>1648.7</ele>
        <time>2014-10-01T09:59:46Z</time>
      </trkpt>
      <trkpt lat="42.3025200" lon="-6.7132080">
        <ele>1649.0</ele>
        <time>2014-10-01T09:59:47Z</time>
      </trkpt>
      <trkpt lat="42.3025400" lon="-6.7132500">
        <ele>1649.4</ele>
        <time>2014-10-01T09:59:48Z</time>
      </trkpt>
      <trkpt lat="42.3025590" lon="-6.7132920">
        <ele>1649.7</ele>
        <time>2014-10-01T09:59:49Z</time>
      </trkpt>
      <trkpt lat="42.3025810" lon="-6.7133380">
        <ele>1650.1</ele>
        <time>2014-10-01T09:59:50Z</time>
      </trkpt>
      <trkpt lat="42.3025990" lon="-6.7133820">
        <ele>1650.4</ele>
        <time>2014-10-01T09:59:51Z</time>
      </trkpt>
      <trkpt lat="42.3026150" lon="-6.7134240">
        <ele>1650.8</ele>
        <time>2014-10-01T09:59:52Z</time>
      </trkpt>
      <trkpt lat="42.3026320" lon="-6.7134690">
        <ele>1651.2</ele>
        <time>2014-10-01T09:59:53Z</time>
      </trkpt>
      <trkpt lat="42.3026510" lon="-6.7135160">
        <ele>1651.6</ele>
        <time>2014-10-01T09:59:54Z</time>
      </trkpt>
      <trkpt lat="42.3026720" lon="-6.7135580">
        <ele>1652.0</ele>
        <time>2014-10-01T09:59:55Z</time>
      </trkpt>
      <trkpt lat="42.3026940" lon="-6.7135960">
        <ele>1652.4</ele>
        <time>2014-10-01T09:59:56Z</time>
      </trkpt>
      <trkpt lat="42.3027220" lon="-6.7136330">
        <ele>1652.8</ele>
        <time>2014-10-01T09:59:57Z</time>
      </trkpt>
      <trkpt lat="42.3027490" lon="-6.7136640">
        <ele>1653.1</ele>
        <time>2014-10-01T09:59:58Z</time>
      </trkpt>
      <trkpt lat="42.3027820" lon="-6.7136930">
        <ele>1653.5</ele>
        <time>2014-10-01T09:59:59Z</time>
      </trkpt>
      <trkpt lat="42.3028200" lon="-6.7137150">
        <ele>1653.8</ele>
        <time>2014-10-01T10:00:00Z</time>
      </trkpt>
      <trkpt lat="42.3028590" lon="-6.7137360">
        <ele>1654.1</ele>
        <time>2014-10-01T10:00:01Z</time>
      </trkpt>
      <trkpt lat="42.3028930" lon="-6.7137500">
        <ele>1654.4</ele>
        <time>2014-10-01T10:00:02Z</time>
      </trkpt>
      <trkpt lat="42.3029310" lon="-6.7137530">
        <ele>1654.5</ele>
        <time>2014-10-01T10:00:03Z</time>
      </trkpt>
      <trkpt lat="42.3029620" lon="-6.7137460">
        <ele>1654.7</ele>
        <time>2014-10-01T10:00:04Z</time>
      </trkpt>
      <trkpt lat="42.3029970" lon="-6.7137360">
        <ele>1654.7</ele>
        <time>2014-10-01T10:00:05Z</time>
      </trkpt>
      <trkpt lat="42.3030300" lon="-6.7137250">
        <ele>1654.7</ele>
        <time>2014-10-01T10:00:06Z</time>
      </trkpt>
      <trkpt lat="42.3030610" lon="-6.7137100">
        <ele>1654.6</ele>
        <time>2014-10-01T10:00:07Z</time>
      </trkpt>
      <trkpt lat="42.3030900" lon="-6.7136890">
        <ele>1654.4</ele>
        <time>2014-10-01T10:00:08Z</time>
      </trkpt>
      <trkpt lat="42.3031170" lon="-6.7136600">
        <ele>1654.1</ele>
        <time>2014-10-01T10:00:09Z</time>
      </trkpt>
      <trkpt lat="42.3031370" lon="-6.7136270">
        <ele>1654.3</ele>
        <time>2014-10-01T10:00:10Z</time>
      </trkpt>
      <trkpt lat="42.3031550" lon="-6.7135890">
        <ele>1654.7</ele>
        <time>2014-10-01T10:00:11Z</time>
      </trkpt>
      <trkpt lat="42.3031730" lon="-6.7135470">
        <ele>1655.1</ele>
        <time>2014-10-01T10:00:12Z</time>
      </trkpt>
      <trkpt lat="42.3031880" lon="-6.7135030">
        <ele>1655.5</ele>
        <time>2014-10-01T10:00:13Z</time>
      </trkpt>
      <trkpt lat="42.3032010" lon="-6.7134550">
        <ele>1655.8</ele>
        <time>2014-10-01T10:00:14Z</time>
      </trkpt>
      <trkpt lat="42.3032100" lon="-6.7134110">
        <ele>1656.1</ele>
        <time>2014-10-01T10:00:15Z</time>
      </trkpt>
      <trkpt lat="42.3032150" lon="-6.7133710">
        <ele>1656.4</ele>
        <time>2014-10-01T10:00:16Z</time>
      </trkpt>
      <trkpt lat="42.3032150" lon="-6.7133230">
        <ele>1656.6</ele>
        <time>2014-10-01T10:00:17Z</time>
      </trkpt>
      <trkpt lat="42.3032140" lon="-6.7132720">
        <ele>1656.8</ele>
        <time>2014-10-01T10:00:18Z</time>
      </trkpt>
      <trkpt lat="42.3032060" lon="-6.7132190">
        <ele>1657.1</ele>
        <time>2014-10-01T10:00:19Z</time>
      </trkpt>
      <trkpt lat="42.3031950" lon="-6.7131650">
        <ele>1657.3</ele>
        <time>2014-10-01T10:00:20Z</time>
      </trkpt>
      <trkpt lat="42.3031820" lon="-6.7131190">
        <ele>1657.4</ele>
        <time>2014-10-01T10:00:21Z</time>
      </trkpt>
      <trkpt lat="42.3031700" lon="-6.7130830">
        <ele>1657.5</ele>
        <time>2014-10-01T10:00:22Z</time>
      </trkpt>
      <trkpt lat="42.3031570" lon="-6.7130360">
        <ele>1657.6</ele>
        <time>2014-10-01T10:00:23Z</time>
      </trkpt>
      <trkpt lat="42.3031420" lon="-6.7129900">
        <ele>1657.8</ele>
        <time>2014-10-01T10:00:24Z</time>
      </trkpt>
      <trkpt lat="42.3031260" lon="-6.7129490">
        <ele>1657.9</ele>
        <time>2014-10-01T10:00:25Z</time>
      </trkpt>
      <trkpt lat="42.3030970" lon="-6.7128890">
        <ele>1658.1</ele>
        <time>2014-10-01T10:00:27Z</time>
      </trkpt>
      <trkpt lat="42.3030820" lon="-6.7128580">
        <ele>1658.2</ele>
        <time>2014-10-01T10:00:28Z</time>
      </trkpt>
      <trkpt lat="42.3030660" lon="-6.7128250">
        <ele>1658.3</ele>
        <time>2014-10-01T10:00:29Z</time>
      </trkpt>
      <trkpt lat="42.3030520" lon="-6.7127920">
        <ele>1658.4</ele>
        <time>2014-10-01T10:00:30Z</time>
      </trkpt>
      <trkpt lat="42.3030370" lon="-6.7127570">
        <ele>1658.6</ele>
        <time>2014-10-01T10:00:31Z</time>
      </trkpt>
      <trkpt lat="42.3030230" lon="-6.7127200">
        <ele>1658.7</ele>
        <time>2014-10-01T10:00:32Z</time>
      </trkpt>
      <trkpt lat="42.3030080" lon="-6.7126770">
        <ele>1658.9</ele>
        <time>2014-10-01T10:00:33Z</time>
      </trkpt>
      <trkpt lat="42.3029930" lon="-6.7126360">
        <ele>1659.0</ele>
        <time>2014-10-01T10:00:34Z</time>
      </trkpt>
      <trkpt lat="42.3029800" lon="-6.7126000">
        <ele>1659.2</ele>
        <time>2014-10-01T10:00:35Z</time>
      </trkpt>
      <trkpt lat="42.3029660" lon="-6.7125680">
        <ele>1659.4</ele>
        <time>2014-10-01T10:00:36Z</time>
      </trkpt>
      <trkpt lat="42.3029540" lon="-6.7125340">
        <ele>1659.6</ele>
        <time>2014-10-01T10:00:37Z</time>
      </trkpt>
      <trkpt lat="42.3029390" lon="-6.7124940">
        <ele>1659.8</ele>
        <time>2014-10-01T10:00:38Z</time>
      </trkpt>
      <trkpt lat="42.3029240" lon="-6.7124580">
        <ele>1660.0</ele>
        <time>2014-10-01T10:00:39Z</time>
      </trkpt>
      <trkpt lat="42.3028960" lon="-6.7123900">
        <ele>1660.6</ele>
        <time>2014-10-01T10:00:41Z</time>
      </trkpt>
      <trkpt lat="42.3028790" lon="-6.7123490">
        <ele>1660.9</ele>
        <time>2014-10-01T10:00:42Z</time>
      </trkpt>
      <trkpt lat="42.3028640" lon="-6.7123110">
        <ele>1661.2</ele>
        <time>2014-10-01T10:00:43Z</time>
      </trkpt>
      <trkpt lat="42.3028380" lon="-6.7122460">
        <ele>1661.7</ele>
        <time>2014-10-01T10:00:45Z</time>
      </trkpt>
      <trkpt lat="42.3028130" lon="-6.7121830">
        <ele>1662.2</ele>
        <time>2014-10-01T10:00:47Z</time>
      </trkpt>
      <trkpt lat="42.3028030" lon="-6.7121480">
        <ele>1662.4</ele>
        <time>2014-10-01T10:00:48Z</time>
      </trkpt>
      <trkpt lat="42.3027920" lon="-6.7121120">
        <ele>1662.7</ele>
        <time>2014-10-01T10:00:49Z</time>
      </trkpt>
      <trkpt lat="42.3027800" lon="-6.7120730">
        <ele>1663.0</ele>
        <time>2014-10-01T10:00:50Z</time>
      </trkpt>
      <trkpt lat="42.3027670" lon="-6.7120380">
        <ele>1663.3</ele>
        <time>2014-10-01T10:00:51Z</time>
      </trkpt>
      <trkpt lat="42.3027530" lon="-6.7120010">
        <ele>1663.5</ele>
        <time>2014-10-01T10:00:52Z</time>
      </trkpt>
      <trkpt lat="42.3027400" lon="-6.7119640">
        <ele>1663.9</ele>
        <time>2014-10-01T10:00:53Z</time>
      </trkpt>
      <trkpt lat="42.3027270" lon="-6.7119260">
        <ele>1664.2</ele>
        <time>2014-10-01T10:00:54Z</time>
      </trkpt>
      <trkpt lat="42.3027150" lon="-6.7118890">
        <ele>1664.5</ele>
        <time>2014-10-01T10:00:55Z</time>
      </trkpt>
      <trkpt lat="42.3027020" lon="-6.7118520">
        <ele>1664.8</ele>
        <time>2014-10-01T10:00:56Z</time>
      </trkpt>
      <trkpt lat="42.3026880" lon="-6.7118100">
        <ele>1665.2</ele>
        <time>2014-10-01T10:00:57Z</time>
      </trkpt>
      <trkpt lat="42.3026750" lon="-6.7117750">
        <ele>1665.5</ele>
        <time>2014-10-01T10:00:58Z</time>
      </trkpt>
      <trkpt lat="42.3026510" lon="-6.7117040">
        <ele>1666.1</ele>
        <time>2014-10-01T10:01:00Z</time>
      </trkpt>
      <trkpt lat="42.3026310" lon="-6.7116380">
        <ele>1666.6</ele>
        <time>2014-10-01T10:01:02Z</time>
      </trkpt>
      <trkpt lat="42.3026200" lon="-6.7116020">
        <ele>1666.9</ele>
        <time>2014-10-01T10:01:03Z</time>
      </trkpt>
      <trkpt lat="42.3026050" lon="-6.7115430">
        <ele>1667.4</ele>
        <time>2014-10-01T10:01:05Z</time>
      </trkpt>
      <trkpt lat="42.3025940" lon="-6.7115080">
        <ele>1667.7</ele>
        <time>2014-10-01T10:01:06Z</time>
      </trkpt>
      <trkpt lat="42.3025740" lon="-6.7114380">
        <ele>1668.4</ele>
        <time>2014-10-01T10:01:08Z</time>
      </trkpt>
      <trkpt lat="42.3025640" lon="-6.7114010">
        <ele>1668.7</ele>
        <time>2014-10-01T10:01:09Z</time>
      </trkpt>
      <trkpt lat="42.3025520" lon="-6.7113660">
        <ele>1669.1</ele>
        <time>2014-10-01T10:01:10Z</time>
      </trkpt>
      <trkpt lat="42.3025310" lon="-6.7113040">
        <ele>1669.7</ele>
        <time>2014-10-01T10:01:12Z</time>
      </trkpt>
      <trkpt lat="42.3025220" lon="-6.7112670">
        <ele>1670.0</ele>
        <time>2014-10-01T10:01:13Z</time>
      </trkpt>
      <trkpt lat="42.3025110" lon="-6.7112290">
        <ele>1670.4</ele>
        <time>2014-10-01T10:01:14Z</time>
      </trkpt>
      <trkpt lat="42.3025020" lon="-6.7111930">
        <ele>1670.7</ele>
        <time>2014-10-01T10:01:15Z</time>
      </trkpt>
      <trkpt lat="42.3024860" lon="-6.7111270">
        <ele>1671.3</ele>
        <time>2014-10-01T10:01:17Z</time>
      </trkpt>
      <trkpt lat="42.3024760" lon="-6.7110900">
        <ele>1671.7</ele>
        <time>2014-10-01T10:01:18Z</time>
      </trkpt>
      <trkpt lat="42.3024660" lon="-6.7110530">
        <ele>1672.0</ele>
        <time>2014-10-01T10:01:19Z</time>
      </trkpt>
      <trkpt lat="42.3024450" lon="-6.7109870">
        <ele>1672.7</ele>
        <time>2014-10-01T10:01:21Z</time>
      </trkpt>
      <trkpt lat="42.3024350" lon="-6.7109530">
        <ele>1673.0</ele>
        <time>2014-10-01T10:01:22Z</time>
      </trkpt>
      <trkpt lat="42.3024180" lon="-6.7108870">
        <ele>1673.7</ele>
        <time>2014-10-01T10:01:24Z</time>
      </trkpt>
      <trkpt lat="42.3024080" lon="-6.7108510">
        <ele>1674.0</ele>
        <time>2014-10-01T10:01:25Z</time>
      </trkpt>
      <trkpt lat="42.3023970" lon="-6.7108150">
        <ele>1674.4</ele>
        <time>2014-10-01T10:01:26Z</time>
      </trkpt>
      <trkpt lat="42.3023830" lon="-6.7107530">
        <ele>1674.9</ele>
        <time>2014-10-01T10:01:28Z</time>
      </trkpt>
      <trkpt lat="42.3023660" lon="-6.7106880">
        <ele>1675.6</ele>
        <time>2014-10-01T10:01:30Z</time>
      </trkpt>
      <trkpt lat="42.3023560" lon="-6.7106520">
        <ele>1675.9</ele>
        <time>2014-10-01T10:01:31Z</time>
      </trkpt>
      <trkpt lat="42.3023380" lon="-6.7105870">
        <ele>1676.5</ele>
        <time>2014-10-01T10:01:33Z</time>
      </trkpt>
      <trkpt lat="42.3023300" lon="-6.7105490">
        <ele>1676.9</ele>
        <time>2014-10-01T10:01:34Z</time>
      </trkpt>
      <trkpt lat="42.3023220" lon="-6.7105110">
        <ele>1677.2</ele>
        <time>2014-10-01T10:01:35Z</time>
      </trkpt>
      <trkpt lat="42.3023150" lon="-6.7104720">
        <ele>1677.6</ele>
        <time>2014-10-01T10:01:36Z</time>
      </trkpt>
      <trkpt lat="42.3023070" lon="-6.7104330">
        <ele>1678.0</ele>
        <time>2014-10-01T10:01:37Z</time>
      </trkpt>
      <trkpt lat="42.3023000" lon="-6.7103940">
        <ele>1678.3</ele>
        <time>2014-10-01T10:01:38Z</time>
      </trkpt>
      <trkpt lat="42.3022910" lon="-6.7103540">
        <ele>1678.7</ele>
        <time>2014-10-01T10:01:39Z</time>
      </trkpt>
      <trkpt lat="42.3022820" lon="-6.7103170">
        <ele>1679.1</ele>
        <time>2014-10-01T10:01:40Z</time>
      </trkpt>
      <trkpt lat="42.3022750" lon="-6.7102800">
        <ele>1679.4</ele>
        <time>2014-10-01T10:01:41Z</time>
      </trkpt>
      <trkpt lat="42.3022640" lon="-6.7102110">
        <ele>1680.1</ele>
        <time>2014-10-01T10:01:43Z</time>
      </trkpt>
      <trkpt lat="42.3022470" lon="-6.7101390">
        <ele>1680.8</ele>
        <time>2014-10-01T10:01:45Z</time>
      </trkpt>
      <trkpt lat="42.3022260" lon="-6.7100640">
        <ele>1681.6</ele>
        <time>2014-10-01T10:01:47Z</time>
      </trkpt>
      <trkpt lat="42.3022200" lon="-6.7100160">
        <ele>1682.0</ele>
        <time>2014-10-01T10:01:48Z</time>
      </trkpt>
      <trkpt lat="42.3022160" lon="-6.7099700">
        <ele>1682.4</ele>
        <time>2014-10-01T10:01:49Z</time>
      </trkpt>
      <trkpt lat="42.3022110" lon="-6.7099340">
        <ele>1682.8</ele>
        <time>2014-10-01T10:01:50Z</time>
      </trkpt>
      <trkpt lat="42.3022020" lon="-6.7098710">
        <ele>1683.4</ele>
        <time>2014-10-01T10:01:52Z</time>
      </trkpt>
      <trkpt lat="42.3021980" lon="-6.7098340">
        <ele>1683.7</ele>
        <time>2014-10-01T10:01:53Z</time>
      </trkpt>
      <trkpt lat="42.3021940" lon="-6.7097640">
        <ele>1684.4</ele>
        <time>2014-10-01T10:01:55Z</time>
      </trkpt>
      <trkpt lat="42.3021900" lon="-6.7097030">
        <ele>1684.9</ele>
        <time>2014-10-01T10:01:57Z</time>
      </trkpt>
      <trkpt lat="42.3022010" lon="-6.7096330">
        <ele>1685.6</ele>
        <time>2014-10-01T10:01:59Z</time>
      </trkpt>
      <trkpt lat="42.3022120" lon="-6.7095790">
        <ele>1686.1</ele>
        <time>2014-10-01T10:02:02Z</time>
      </trkpt>
      <trkpt lat="42.3022230" lon="-6.7095440">
        <ele>1686.4</ele>
        <time>2014-10-01T10:02:03Z</time>
      </trkpt>
      <trkpt lat="42.3022380" lon="-6.7095080">
        <ele>1686.7</ele>
        <time>2014-10-01T10:02:04Z</time>
      </trkpt>
      <trkpt lat="42.3022530" lon="-6.7094720">
        <ele>1687.1</ele>
        <time>2014-10-01T10:02:05Z</time>
      </trkpt>
      <trkpt lat="42.3022730" lon="-6.7094390">
        <ele>1687.4</ele>
        <time>2014-10-01T10:02:06Z</time>
      </trkpt>
      <trkpt lat="42.3022960" lon="-6.7094020">
        <ele>1687.8</ele>
        <time>2014-10-01T10:02:07Z</time>
      </trkpt>
      <trkpt lat="42.3023210" lon="-6.7093700">
        <ele>1688.2</ele>
        <time>2014-10-01T10:02:08Z</time>
      </trkpt>
      <trkpt lat="42.3023660" lon="-6.7093200">
        <ele>1688.8</ele>
        <time>2014-10-01T10:02:10Z</time>
      </trkpt>
      <trkpt lat="42.3023940" lon="-6.7092960">
        <ele>1689.2</ele>
        <time>2014-10-01T10:02:11Z</time>
      </trkpt>
      <trkpt lat="42.3024200" lon="-6.7092740">
        <ele>1689.5</ele>
        <time>2014-10-01T10:02:12Z</time>
      </trkpt>
      <trkpt lat="42.3024450" lon="-6.7092600">
        <ele>1689.8</ele>
        <time>2014-10-01T10:02:13Z</time>
      </trkpt>
      <trkpt lat="42.3024730" lon="-6.7092510">
        <ele>1690.2</ele>
        <time>2014-10-01T10:02:14Z</time>
      </trkpt>
      <trkpt lat="42.3025020" lon="-6.7092420">
        <ele>1690.5</ele>
        <time>2014-10-01T10:02:15Z</time>
      </trkpt>
      <trkpt lat="42.3025290" lon="-6.7092370">
        <ele>1690.8</ele>
        <time>2014-10-01T10:02:16Z</time>
      </trkpt>
      <trkpt lat="42.3025570" lon="-6.7092350">
        <ele>1691.1</ele>
        <time>2014-10-01T10:02:17Z</time>
      </trkpt>
      <trkpt lat="42.3025880" lon="-6.7092300">
        <ele>1691.5</ele>
        <time>2014-10-01T10:02:18Z</time>
      </trkpt>
      <trkpt lat="42.3026220" lon="-6.7092280">
        <ele>1691.9</ele>
        <time>2014-10-01T10:02:19Z</time>
      </trkpt>
      <trkpt lat="42.3026540" lon="-6.7092340">
        <ele>1692.3</ele>
        <time>2014-10-01T10:02:20Z</time>
      </trkpt>
      <trkpt lat="42.3026880" lon="-6.7092430">
        <ele>1692.7</ele>
        <time>2014-10-01T10:02:21Z</time>
      </trkpt>
      <trkpt lat="42.3027190" lon="-6.7092520">
        <ele>1693.1</ele>
        <time>2014-10-01T10:02:22Z</time>
      </trkpt>
      <trkpt lat="42.3027490" lon="-6.7092620">
        <ele>1693.4</ele>
        <time>2014-10-01T10:02:23Z</time>
      </trkpt>
      <trkpt lat="42.3027810" lon="-6.7092780">
        <ele>1693.8</ele>
        <time>2014-10-01T10:02:24Z</time>
      </trkpt>
      <trkpt lat="42.3028130" lon="-6.7092940">
        <ele>1694.2</ele>
        <time>2014-10-01T10:02:25Z</time>
      </trkpt>
      <trkpt lat="42.3028440" lon="-6.7093110">
        <ele>1694.6</ele>
        <time>2014-10-01T10:02:26Z</time>
      </trkpt>
      <trkpt lat="42.3028720" lon="-6.7093320">
        <ele>1694.9</ele>
        <time>2014-10-01T10:02:27Z</time>
      </trkpt>
      <trkpt lat="42.3029080" lon="-6.7093790">
        <ele>1695.4</ele>
        <time>2014-10-01T10:02:29Z</time>
      </trkpt>
      <trkpt lat="42.3029300" lon="-6.7094060">
        <ele>1695.7</ele>
        <time>2014-10-01T10:02:30Z</time>
      </trkpt>
      <trkpt lat="42.3029570" lon="-6.7094360">
        <ele>1696.1</ele>
        <time>2014-10-01T10:02:31Z</time>
      </trkpt>
      <trkpt lat="42.3029730" lon="-6.7094740">
        <ele>1696.3</ele>
        <time>2014-10-01T10:02:32Z</time>
      </trkpt>
      <trkpt lat="42.3029940" lon="-6.7095100">
        <ele>1696.6</ele>
        <time>2014-10-01T10:02:33Z</time>
      </trkpt>
      <trkpt lat="42.3030130" lon="-6.7095390">
        <ele>1696.8</ele>
        <time>2014-10-01T10:02:34Z</time>
      </trkpt>
      <trkpt lat="42.3030300" lon="-6.7095740">
        <ele>1697.1</ele>
        <time>2014-10-01T10:02:35Z</time>
      </trkpt>
      <trkpt lat="42.3030400" lon="-6.7096080">
        <ele>1697.3</ele>
        <time>2014-10-01T10:02:36Z</time>
      </trkpt>
      <trkpt lat="42.3030520" lon="-6.7096480">
        <ele>1697.5</ele>
        <time>2014-10-01T10:02:37Z</time>
      </trkpt>
      <trkpt lat="42.3030650" lon="-6.7096870">
        <ele>1697.7</ele>
        <time>2014-10-01T10:02:38Z</time>
      </trkpt>
      <trkpt lat="42.3030770" lon="-6.7097340">
        <ele>1698.0</ele>
        <time>2014-10-01T10:02:39Z</time>
      </trkpt>
      <trkpt lat="42.3030910" lon="-6.7097750">
        <ele>1698.2</ele>
        <time>2014-10-01T10:02:40Z</time>
      </trkpt>
      <trkpt lat="42.3031070" lon="-6.7098160">
        <ele>1698.4</ele>
        <time>2014-10-01T10:02:41Z</time>
      </trkpt>
      <trkpt lat="42.3031220" lon="-6.7098560">
        <ele>1698.7</ele>
        <time>2014-10-01T10:02:42Z</time>
      </trkpt>
      <trkpt lat="42.3031490" lon="-6.7099200">
        <ele>1699.1</ele>
        <time>2014-10-01T10:02:44Z</time>
      </trkpt>
      <trkpt lat="42.3031630" lon="-6.7099520">
        <ele>1699.4</ele>
        <time>2014-10-01T10:02:45Z</time>
      </trkpt>
      <trkpt lat="42.3031890" lon="-6.7100120">
        <ele>1700.0</ele>
        <time>2014-10-01T10:02:47Z</time>
      </trkpt>
      <trkpt lat="42.3032020" lon="-6.7100470">
        <ele>1700.3</ele>
        <time>2014-10-01T10:02:48Z</time>
      </trkpt>
      <trkpt lat="42.3032270" lon="-6.7101000">
        <ele>1700.8</ele>
        <time>2014-10-01T10:02:50Z</time>
      </trkpt>
      <trkpt lat="42.3032620" lon="-6.7101570">
        <ele>1701.5</ele>
        <time>2014-10-01T10:02:52Z</time>
      </trkpt>
      <trkpt lat="42.3032830" lon="-6.7101840">
        <ele>1701.8</ele>
        <time>2014-10-01T10:02:53Z</time>
      </trkpt>
      <trkpt lat="42.3033030" lon="-6.7102110">
        <ele>1702.1</ele>
        <time>2014-10-01T10:02:54Z</time>
      </trkpt>
      <trkpt lat="42.3033240" lon="-6.7102360">
        <ele>1702.4</ele>
        <time>2014-10-01T10:02:55Z</time>
      </trkpt>
      <trkpt lat="42.3033630" lon="-6.7102830">
        <ele>1703.0</ele>
        <time>2014-10-01T10:02:57Z</time>
      </trkpt>
      <trkpt lat="42.3033930" lon="-6.7103230">
        <ele>1703.4</ele>
        <time>2014-10-01T10:02:59Z</time>
      </trkpt>
      <trkpt lat="42.3034240" lon="-6.7103610">
        <ele>1703.8</ele>
        <time>2014-10-01T10:03:01Z</time>
      </trkpt>
      <trkpt lat="42.3034640" lon="-6.7104010">
        <ele>1704.3</ele>
        <time>2014-10-01T10:03:03Z</time>
      </trkpt>
      <trkpt lat="42.3035010" lon="-6.7104370">
        <ele>1704.7</ele>
        <time>2014-10-01T10:03:05Z</time>
      </trkpt>
      <trkpt lat="42.3035360" lon="-6.7104770">
        <ele>1705.1</ele>
        <time>2014-10-01T10:03:07Z</time>
      </trkpt>
      <trkpt lat="42.3035730" lon="-6.7105150">
        <ele>1705.4</ele>
        <time>2014-10-01T10:03:09Z</time>
      </trkpt>
      <trkpt lat="42.3036110" lon="-6.7105470">
        <ele>1705.8</ele>
        <time>2014-10-01T10:03:11Z</time>
      </trkpt>
      <trkpt lat="42.3036480" lon="-6.7105820">
        <ele>1706.2</ele>
        <time>2014-10-01T10:03:13Z</time>
      </trkpt>
      <trkpt lat="42.3036860" lon="-6.7106150">
        <ele>1706.5</ele>
        <time>2014-10-01T10:03:15Z</time>
      </trkpt>
      <trkpt lat="42.3037180" lon="-6.7106450">
        <ele>1706.8</ele>
        <time>2014-10-01T10:03:17Z</time>
      </trkpt>
      <trkpt lat="42.3037560" lon="-6.7106800">
        <ele>1707.2</ele>
        <time>2014-10-01T10:03:19Z</time>
      </trkpt>
      <trkpt lat="42.3037880" lon="-6.7107080">
        <ele>1707.5</ele>
        <time>2014-10-01T10:03:21Z</time>
      </trkpt>
      <trkpt lat="42.3038260" lon="-6.7107420">
        <ele>1707.9</ele>
        <time>2014-10-01T10:03:23Z</time>
      </trkpt>
      <trkpt lat="42.3038650" lon="-6.7107720">
        <ele>1708.2</ele>
        <time>2014-10-01T10:03:25Z</time>
      </trkpt>
      <trkpt lat="42.3039010" lon="-6.7108010">
        <ele>1708.5</ele>
        <time>2014-10-01T10:03:27Z</time>
      </trkpt>
      <trkpt lat="42.3039370" lon="-6.7108360">
        <ele>1708.8</ele>
        <time>2014-10-01T10:03:29Z</time>
      </trkpt>
      <trkpt lat="42.3039760" lon="-6.7108660">
        <ele>1709.1</ele>
        <time>2014-10-01T10:03:31Z</time>
      </trkpt>
      <trkpt lat="42.3040100" lon="-6.7108930">
        <ele>1709.4</ele>
        <time>2014-10-01T10:03:33Z</time>
      </trkpt>
      <trkpt lat="42.3040460" lon="-6.7109250">
        <ele>1709.7</ele>
        <time>2014-10-01T10:03:35Z</time>
      </trkpt>
      <trkpt lat="42.3040830" lon="-6.7109620">
        <ele>1710.0</ele>
        <time>2014-10-01T10:03:37Z</time>
      </trkpt>
      <trkpt lat="42.3041170" lon="-6.7109960">
        <ele>1710.3</ele>
        <time>2014-10-01T10:03:39Z</time>
      </trkpt>
      <trkpt lat="42.3041560" lon="-6.7110310">
        <ele>1710.6</ele>
        <time>2014-10-01T10:03:41Z</time>
      </trkpt>
      <trkpt lat="42.3041810" lon="-6.7110470">
        <ele>1710.8</ele>
        <time>2014-10-01T10:03:42Z</time>
      </trkpt>
      <trkpt lat="42.3042040" lon="-6.7110660">
        <ele>1711.0</ele>
        <time>2014-10-01T10:03:43Z</time>
      </trkpt>
      <trkpt lat="42.3042290" lon="-6.7110840">
        <ele>1711.1</ele>
        <time>2014-10-01T10:03:44Z</time>
      </trkpt>
      <trkpt lat="42.3042550" lon="-6.7111040">
        <ele>1711.3</ele>
        <time>2014-10-01T10:03:45Z</time>
      </trkpt>
      <trkpt lat="42.3042830" lon="-6.7111270">
        <ele>1711.5</ele>
        <time>2014-10-01T10:03:46Z</time>
      </trkpt>
      <trkpt lat="42.3043220" lon="-6.7111680">
        <ele>1711.9</ele>
        <time>2014-10-01T10:03:48Z</time>
      </trkpt>
      <trkpt lat="42.3043570" lon="-6.7112020">
        <ele>1712.1</ele>
        <time>2014-10-01T10:03:50Z</time>
      </trkpt>
      <trkpt lat="42.3043990" lon="-6.7112400">
        <ele>1712.4</ele>
        <time>2014-10-01T10:03:52Z</time>
      </trkpt>
      <trkpt lat="42.3044460" lon="-6.7112770">
        <ele>1712.7</ele>
        <time>2014-10-01T10:03:54Z</time>
      </trkpt>
      <trkpt lat="42.3044710" lon="-6.7112980">
        <ele>1712.8</ele>
        <time>2014-10-01T10:03:55Z</time>
      </trkpt>
      <trkpt lat="42.3044950" lon="-6.7113200">
        <ele>1712.9</ele>
        <time>2014-10-01T10:03:56Z</time>
      </trkpt>
      <trkpt lat="42.3045190" lon="-6.7113400">
        <ele>1712.9</ele>
        <time>2014-10-01T10:03:57Z</time>
      </trkpt>
      <trkpt lat="42.3045450" lon="-6.7113620">
        <ele>1712.9</ele>
        <time>2014-10-01T10:03:58Z</time>
      </trkpt>
      <trkpt lat="42.3045730" lon="-6.7113850">
        <ele>1712.8</ele>
        <time>2014-10-01T10:03:59Z</time>
      </trkpt>
      <trkpt lat="42.3045990" lon="-6.7114120">
        <ele>1712.6</ele>
        <time>2014-10-01T10:04:00Z</time>
      </trkpt>
      <trkpt lat="42.3046270" lon="-6.7114390">
        <ele>1712.5</ele>
        <time>2014-10-01T10:04:01Z</time>
      </trkpt>
      <trkpt lat="42.3046510" lon="-6.7114610">
        <ele>1712.4</ele>
        <time>2014-10-01T10:04:02Z</time>
      </trkpt>
      <trkpt lat="42.3046780" lon="-6.7114860">
        <ele>1712.3</ele>
        <time>2014-10-01T10:04:03Z</time>
      </trkpt>
      <trkpt lat="42.3047060" lon="-6.7115120">
        <ele>1712.2</ele>
        <time>2014-10-01T10:04:04Z</time>
      </trkpt>
      <trkpt lat="42.3047360" lon="-6.7115390">
        <ele>1712.2</ele>
        <time>2014-10-01T10:04:05Z</time>
      </trkpt>
      <trkpt lat="42.3047670" lon="-6.7115670">
        <ele>1712.1</ele>
        <time>2014-10-01T10:04:06Z</time>
      </trkpt>
      <trkpt lat="42.3047980" lon="-6.7115960">
        <ele>1712.1</ele>
        <time>2014-10-01T10:04:07Z</time>
      </trkpt>
      <trkpt lat="42.3048270" lon="-6.7116240">
        <ele>1712.2</ele>
        <time>2014-10-01T10:04:08Z</time>
      </trkpt>
      <trkpt lat="42.3048540" lon="-6.7116530">
        <ele>1712.2</ele>
        <time>2014-10-01T10:04:09Z</time>
      </trkpt>
      <trkpt lat="42.3048800" lon="-6.7116820">
        <ele>1712.3</ele>
        <time>2014-10-01T10:04:10Z</time>
      </trkpt>
      <trkpt lat="42.3049070" lon="-6.7117130">
        <ele>1712.4</ele>
        <time>2014-10-01T10:04:11Z</time>
      </trkpt>
      <trkpt lat="42.3049330" lon="-6.7117470">
        <ele>1712.5</ele>
        <time>2014-10-01T10:04:12Z</time>
      </trkpt>
      <trkpt lat="42.3049560" lon="-6.7117770">
        <ele>1712.7</ele>
        <time>2014-10-01T10:04:13Z</time>
      </trkpt>
      <trkpt lat="42.3049830" lon="-6.7118090">
        <ele>1712.8</ele>
        <time>2014-10-01T10:04:14Z</time>
      </trkpt>
      <trkpt lat="42.3050090" lon="-6.7118430">
        <ele>1713.0</ele>
        <time>2014-10-01T10:04:15Z</time>
      </trkpt>
      <trkpt lat="42.3050330" lon="-6.7118760">
        <ele>1713.2</ele>
        <time>2014-10-01T10:04:16Z</time>
      </trkpt>
      <trkpt lat="42.3050580" lon="-6.7119100">
        <ele>1713.4</ele>
        <time>2014-10-01T10:04:17Z</time>
      </trkpt>
      <trkpt lat="42.3050820" lon="-6.7119470">
        <ele>1713.6</ele>
        <time>2014-10-01T10:04:18Z</time>
      </trkpt>
      <trkpt lat="42.3051060" lon="-6.7119830">
        <ele>1713.8</ele>
        <time>2014-10-01T10:04:19Z</time>
      </trkpt>
      <trkpt lat="42.3051250" lon="-6.7120140">
        <ele>1713.9</ele>
        <time>2014-10-01T10:04:20Z</time>
      </trkpt>
      <trkpt lat="42.3051470" lon="-6.7120500">
        <ele>1714.1</ele>
        <time>2014-10-01T10:04:21Z</time>
      </trkpt>
      <trkpt lat="42.3051700" lon="-6.7120900">
        <ele>1714.3</ele>
        <time>2014-10-01T10:04:22Z</time>
      </trkpt>
      <trkpt lat="42.3051930" lon="-6.7121330">
        <ele>1714.5</ele>
        <time>2014-10-01T10:04:23Z</time>
      </trkpt>
      <trkpt lat="42.3052150" lon="-6.7121740">
        <ele>1714.7</ele>
        <time>2014-10-01T10:04:24Z</time>
      </trkpt>
      <trkpt lat="42.3052360" lon="-6.7122200">
        <ele>1714.9</ele>
        <time>2014-10-01T10:04:25Z</time>
      </trkpt>
      <trkpt lat="42.3052570" lon="-6.7122680">
        <ele>1715.2</ele>
        <time>2014-10-01T10:04:26Z</time>
      </trkpt>
      <trkpt lat="42.3052760" lon="-6.7123130">
        <ele>1715.4</ele>
        <time>2014-10-01T10:04:27Z</time>
      </trkpt>
      <trkpt lat="42.3052950" lon="-6.7123570">
        <ele>1715.6</ele>
        <time>2014-10-01T10:04:28Z</time>
      </trkpt>
      <trkpt lat="42.3053150" lon="-6.7124030">
        <ele>1715.9</ele>
        <time>2014-10-01T10:04:29Z</time>
      </trkpt>
      <trkpt lat="42.3053350" lon="-6.7124500">
        <ele>1716.2</ele>
        <time>2014-10-01T10:04:30Z</time>
      </trkpt>
      <trkpt lat="42.3053530" lon="-6.7125020">
        <ele>1716.5</ele>
        <time>2014-10-01T10:04:31Z</time>
      </trkpt>
      <trkpt lat="42.3053710" lon="-6.7125540">
        <ele>1716.8</ele>
        <time>2014-10-01T10:04:32Z</time>
      </trkpt>
      <trkpt lat="42.3053930" lon="-6.7126050">
        <ele>1717.1</ele>
        <time>2014-10-01T10:04:33Z</time>
      </trkpt>
      <trkpt lat="42.3054100" lon="-6.7126560">
        <ele>1717.4</ele>
        <time>2014-10-01T10:04:34Z</time>
      </trkpt>
      <trkpt lat="42.3054280" lon="-6.7127040">
        <ele>1717.7</ele>
        <time>2014-10-01T10:04:35Z</time>
      </trkpt>
      <trkpt lat="42.3054510" lon="-6.7127500">
        <ele>1718.0</ele>
        <time>2014-10-01T10:04:36Z</time>
      </trkpt>
      <trkpt lat="42.3054730" lon="-6.7127910">
        <ele>1718.3</ele>
        <time>2014-10-01T10:04:37Z</time>
      </trkpt>
      <trkpt lat="42.3054930" lon="-6.7128320">
        <ele>1718.6</ele>
        <time>2014-10-01T10:04:38Z</time>
      </trkpt>
      <trkpt lat="42.3055120" lon="-6.7128920">
        <ele>1719.0</ele>
        <time>2014-10-01T10:04:39Z</time>
      </trkpt>
      <trkpt lat="42.3055330" lon="-6.7129510">
        <ele>1719.4</ele>
        <time>2014-10-01T10:04:40Z</time>
      </trkpt>
      <trkpt lat="42.3055530" lon="-6.7130080">
        <ele>1719.7</ele>
        <time>2014-10-01T10:04:41Z</time>
      </trkpt>
      <trkpt lat="42.3055680" lon="-6.7130540">
        <ele>1720.0</ele>
        <time>2014-10-01T10:04:42Z</time>
      </trkpt>
      <trkpt lat="42.3055830" lon="-6.7131040">
        <ele>1720.3</ele>
        <time>2014-10-01T10:04:43Z</time>
      </trkpt>
      <trkpt lat="42.3055980" lon="-6.7131460">
        <ele>1720.6</ele>
        <time>2014-10-01T10:04:44Z</time>
      </trkpt>
      <trkpt lat="42.3056180" lon="-6.7131900">
        <ele>1720.9</ele>
        <time>2014-10-01T10:04:45Z</time>
      </trkpt>
      <trkpt lat="42.3056310" lon="-6.7132280">
        <ele>1721.2</ele>
        <time>2014-10-01T10:04:46Z</time>
      </trkpt>
      <trkpt lat="42.3056500" lon="-6.7132660">
        <ele>1721.4</ele>
        <time>2014-10-01T10:04:47Z</time>
      </trkpt>
      <trkpt lat="42.3056680" lon="-6.7133080">
        <ele>1721.7</ele>
        <time>2014-10-01T10:04:48Z</time>
      </trkpt>
      <trkpt lat="42.3056820" lon="-6.7133770">
        <ele>1722.1</ele>
        <time>2014-10-01T10:04:49Z</time>
      </trkpt>
      <trkpt lat="42.3056530" lon="-6.7135050">
        <ele>1723.0</ele>
        <time>2014-10-01T10:04:50Z</time>
      </trkpt>
      <trkpt lat="42.3057050" lon="-6.7135310">
        <ele>1723.4</ele>
        <time>2014-10-01T10:04:51Z</time>
      </trkpt>
      <trkpt lat="42.3057280" lon="-6.7135490">
        <ele>1723.7</ele>
        <time>2014-10-01T10:04:52Z</time>
      </trkpt>
      <trkpt lat="42.3057680" lon="-6.7135510">
        <ele>1724.0</ele>
        <time>2014-10-01T10:04:53Z</time>
      </trkpt>
      <trkpt lat="42.3058040" lon="-6.7135590">
        <ele>1724.3</ele>
        <time>2014-10-01T10:04:54Z</time>
      </trkpt>
      <trkpt lat="42.3058480" lon="-6.7135760">
        <ele>1724.7</ele>
        <time>2014-10-01T10:04:55Z</time>
      </trkpt>
      <trkpt lat="42.3058810" lon="-6.7135970">
        <ele>1725.0</ele>
        <time>2014-10-01T10:04:56Z</time>
      </trkpt>
      <trkpt lat="42.3059090" lon="-6.7136180">
        <ele>1725.3</ele>
        <time>2014-10-01T10:04:57Z</time>
      </trkpt>
      <trkpt lat="42.3059390" lon="-6.7136370">
        <ele>1725.6</ele>
        <time>2014-10-01T10:04:58Z</time>
      </trkpt>
      <trkpt lat="42.3059660" lon="-6.7136510">
        <ele>1725.9</ele>
        <time>2014-10-01T10:04:59Z</time>
      </trkpt>
      <trkpt lat="42.3059960" lon="-6.7136750">
        <ele>1726.2</ele>
        <time>2014-10-01T10:05:00Z</time>
      </trkpt>
      <trkpt lat="42.3060210" lon="-6.7136990">
        <ele>1726.5</ele>
        <time>2014-10-01T10:05:01Z</time>
      </trkpt>
      <trkpt lat="42.3060470" lon="-6.7137280">
        <ele>1726.9</ele>
        <time>2014-10-01T10:05:02Z</time>
      </trkpt>
      <trkpt lat="42.3060780" lon="-6.7137590">
        <ele>1727.3</ele>
        <time>2014-10-01T10:05:03Z</time>
      </trkpt>
      <trkpt lat="42.3061040" lon="-6.7137830">
        <ele>1727.7</ele>
        <time>2014-10-01T10:05:04Z</time>
      </trkpt>
      <trkpt lat="42.3061310" lon="-6.7138040">
        <ele>1728.0</ele>
        <time>2014-10-01T10:05:05Z</time>
      </trkpt>
      <trkpt lat="42.3061560" lon="-6.7138210">
        <ele>1728.3</ele>
        <time>2014-10-01T10:05:06Z</time>
      </trkpt>
      <trkpt lat="42.3061850" lon="-6.7138450">
        <ele>1728.7</ele>
        <time>2014-10-01T10:05:07Z</time>
      </trkpt>
      <trkpt lat="42.3062110" lon="-6.7138640">
        <ele>1729.0</ele>
        <time>2014-10-01T10:05:08Z</time>
      </trkpt>
      <trkpt lat="42.3062360" lon="-6.7138820">
        <ele>1729.4</ele>
        <time>2014-10-01T10:05:09Z</time>
      </trkpt>
      <trkpt lat="42.3062590" lon="-6.7139040">
        <ele>1729.7</ele>
        <time>2014-10-01T10:05:10Z</time>
      </trkpt>
      <trkpt lat="42.3063020" lon="-6.7139440">
        <ele>1730.3</ele>
        <time>2014-10-01T10:05:12Z</time>
      </trkpt>
      <trkpt lat="42.3063270" lon="-6.7139650">
        <ele>1730.6</ele>
        <time>2014-10-01T10:05:13Z</time>
      </trkpt>
      <trkpt lat="42.3063690" lon="-6.7139990">
        <ele>1731.1</ele>
        <time>2014-10-01T10:05:15Z</time>
      </trkpt>
      <trkpt lat="42.3064100" lon="-6.7140420">
        <ele>1731.7</ele>
        <time>2014-10-01T10:05:17Z</time>
      </trkpt>
      <trkpt lat="42.3064530" lon="-6.7140820">
        <ele>1732.3</ele>
        <time>2014-10-01T10:05:19Z</time>
      </trkpt>
      <trkpt lat="42.3064760" lon="-6.7141020">
        <ele>1732.6</ele>
        <time>2014-10-01T10:05:20Z</time>
      </trkpt>
      <trkpt lat="42.3065200" lon="-6.7141410">
        <ele>1733.1</ele>
        <time>2014-10-01T10:05:22Z</time>
      </trkpt>
      <trkpt lat="42.3065430" lon="-6.7141630">
        <ele>1733.4</ele>
        <time>2014-10-01T10:05:23Z</time>
      </trkpt>
      <trkpt lat="42.3065670" lon="-6.7141840">
        <ele>1733.7</ele>
        <time>2014-10-01T10:05:24Z</time>
      </trkpt>
      <trkpt lat="42.3065890" lon="-6.7142050">
        <ele>1734.0</ele>
        <time>2014-10-01T10:05:25Z</time>
      </trkpt>
      <trkpt lat="42.3066270" lon="-6.7142410">
        <ele>1734.5</ele>
        <time>2014-10-01T10:05:27Z</time>
      </trkpt>
      <trkpt lat="42.3066660" lon="-6.7142790">
        <ele>1735.0</ele>
        <time>2014-10-01T10:05:29Z</time>
      </trkpt>
      <trkpt lat="42.3067100" lon="-6.7143200">
        <ele>1735.6</ele>
        <time>2014-10-01T10:05:31Z</time>
      </trkpt>
      <trkpt lat="42.3067330" lon="-6.7143440">
        <ele>1735.9</ele>
        <time>2014-10-01T10:05:32Z</time>
      </trkpt>
      <trkpt lat="42.3067560" lon="-6.7143670">
        <ele>1736.2</ele>
        <time>2014-10-01T10:05:33Z</time>
      </trkpt>
      <trkpt lat="42.3067790" lon="-6.7143890">
        <ele>1736.5</ele>
        <time>2014-10-01T10:05:34Z</time>
      </trkpt>
      <trkpt lat="42.3068030" lon="-6.7144110">
        <ele>1736.8</ele>
        <time>2014-10-01T10:05:35Z</time>
      </trkpt>
      <trkpt lat="42.3068480" lon="-6.7144520">
        <ele>1737.4</ele>
        <time>2014-10-01T10:05:37Z</time>
      </trkpt>
      <trkpt lat="42.3068920" lon="-6.7144950">
        <ele>1738.0</ele>
        <time>2014-10-01T10:05:39Z</time>
      </trkpt>
      <trkpt lat="42.3069320" lon="-6.7145330">
        <ele>1738.5</ele>
        <time>2014-10-01T10:05:41Z</time>
      </trkpt>
      <trkpt lat="42.3069700" lon="-6.7145710">
        <ele>1738.9</ele>
        <time>2014-10-01T10:05:43Z</time>
      </trkpt>
      <trkpt lat="42.3069920" lon="-6.7145930">
        <ele>1739.2</ele>
        <time>2014-10-01T10:05:44Z</time>
      </trkpt>
      <trkpt lat="42.3070320" lon="-6.7146350">
        <ele>1739.7</ele>
        <time>2014-10-01T10:05:46Z</time>
      </trkpt>
      <trkpt lat="42.3070530" lon="-6.7146580">
        <ele>1740.0</ele>
        <time>2014-10-01T10:05:47Z</time>
      </trkpt>
      <trkpt lat="42.3070900" lon="-6.7146990">
        <ele>1740.5</ele>
        <time>2014-10-01T10:05:49Z</time>
      </trkpt>
      <trkpt lat="42.3071310" lon="-6.7147400">
        <ele>1741.0</ele>
        <time>2014-10-01T10:05:51Z</time>
      </trkpt>
      <trkpt lat="42.3071710" lon="-6.7147870">
        <ele>1741.6</ele>
        <time>2014-10-01T10:05:53Z</time>
      </trkpt>
      <trkpt lat="42.3072100" lon="-6.7148310">
        <ele>1742.1</ele>
        <time>2014-10-01T10:05:55Z</time>
      </trkpt>
      <trkpt lat="42.3072320" lon="-6.7148570">
        <ele>1742.4</ele>
        <time>2014-10-01T10:05:56Z</time>
      </trkpt>
      <trkpt lat="42.3072530" lon="-6.7148810">
        <ele>1742.7</ele>
        <time>2014-10-01T10:05:57Z</time>
      </trkpt>
      <trkpt lat="42.3072940" lon="-6.7149250">
        <ele>1743.3</ele>
        <time>2014-10-01T10:05:59Z</time>
      </trkpt>
      <trkpt lat="42.3073310" lon="-6.7149660">
        <ele>1743.8</ele>
        <time>2014-10-01T10:06:01Z</time>
      </trkpt>
      <trkpt lat="42.3073510" lon="-6.7149920">
        <ele>1744.1</ele>
        <time>2014-10-01T10:06:02Z</time>
      </trkpt>
      <trkpt lat="42.3073860" lon="-6.7150400">
        <ele>1744.7</ele>
        <time>2014-10-01T10:06:04Z</time>
      </trkpt>
      <trkpt lat="42.3074210" lon="-6.7150870">
        <ele>1745.3</ele>
        <time>2014-10-01T10:06:06Z</time>
      </trkpt>
      <trkpt lat="42.3074610" lon="-6.7151350">
        <ele>1745.9</ele>
        <time>2014-10-01T10:06:08Z</time>
      </trkpt>
      <trkpt lat="42.3074950" lon="-6.7151750">
        <ele>1746.4</ele>
        <time>2014-10-01T10:06:10Z</time>
      </trkpt>
      <trkpt lat="42.3075220" lon="-6.7152080">
        <ele>1746.8</ele>
        <time>2014-10-01T10:06:12Z</time>
      </trkpt>
      <trkpt lat="42.3075550" lon="-6.7152480">
        <ele>1747.3</ele>
        <time>2014-10-01T10:06:14Z</time>
      </trkpt>
      <trkpt lat="42.3075760" lon="-6.7152730">
        <ele>1747.6</ele>
        <time>2014-10-01T10:06:15Z</time>
      </trkpt>
      <trkpt lat="42.3076130" lon="-6.7153140">
        <ele>1748.2</ele>
        <time>2014-10-01T10:06:17Z</time>
      </trkpt>
      <trkpt lat="42.3076520" lon="-6.7153460">
        <ele>1748.7</ele>
        <time>2014-10-01T10:06:19Z</time>
      </trkpt>
      <trkpt lat="42.3076950" lon="-6.7153830">
        <ele>1749.3</ele>
        <time>2014-10-01T10:06:21Z</time>
      </trkpt>
      <trkpt lat="42.3077360" lon="-6.7154210">
        <ele>1749.9</ele>
        <time>2014-10-01T10:06:23Z</time>
      </trkpt>
      <trkpt lat="42.3077800" lon="-6.7154500">
        <ele>1750.5</ele>
        <time>2014-10-01T10:06:25Z</time>
      </trkpt>
      <trkpt lat="42.3078330" lon="-6.7154730">
        <ele>1751.1</ele>
        <time>2014-10-01T10:06:27Z</time>
      </trkpt>
      <trkpt lat="42.3078610" lon="-6.7154820">
        <ele>1751.4</ele>
        <time>2014-10-01T10:06:28Z</time>
      </trkpt>
      <trkpt lat="42.3079150" lon="-6.7154960">
        <ele>1752.1</ele>
        <time>2014-10-01T10:06:30Z</time>
      </trkpt>
      <trkpt lat="42.3079430" lon="-6.7155060">
        <ele>1752.4</ele>
        <time>2014-10-01T10:06:31Z</time>
      </trkpt>
      <trkpt lat="42.3079720" lon="-6.7155150">
        <ele>1752.8</ele>
        <time>2014-10-01T10:06:32Z</time>
      </trkpt>
      <trkpt lat="42.3080030" lon="-6.7155220">
        <ele>1753.1</ele>
        <time>2014-10-01T10:06:33Z</time>
      </trkpt>
      <trkpt lat="42.3080300" lon="-6.7155270">
        <ele>1753.5</ele>
        <time>2014-10-01T10:06:34Z</time>
      </trkpt>
      <trkpt lat="42.3080830" lon="-6.7155460">
        <ele>1754.1</ele>
        <time>2014-10-01T10:06:36Z</time>
      </trkpt>
      <trkpt lat="42.3081100" lon="-6.7155560">
        <ele>1754.4</ele>
        <time>2014-10-01T10:06:37Z</time>
      </trkpt>
      <trkpt lat="42.3081450" lon="-6.7155730">
        <ele>1754.8</ele>
        <time>2014-10-01T10:06:39Z</time>
      </trkpt>
      <trkpt lat="42.3081880" lon="-6.7155900">
        <ele>1755.2</ele>
        <time>2014-10-01T10:06:41Z</time>
      </trkpt>
      <trkpt lat="42.3082150" lon="-6.7155960">
        <ele>1755.5</ele>
        <time>2014-10-01T10:06:42Z</time>
      </trkpt>
      <trkpt lat="42.3082430" lon="-6.7156010">
        <ele>1755.8</ele>
        <time>2014-10-01T10:06:43Z</time>
      </trkpt>
      <trkpt lat="42.3082960" lon="-6.7156120">
        <ele>1756.4</ele>
        <time>2014-10-01T10:06:45Z</time>
      </trkpt>
      <trkpt lat="42.3083490" lon="-6.7156180">
        <ele>1756.9</ele>
        <time>2014-10-01T10:06:47Z</time>
      </trkpt>
      <trkpt lat="42.3084010" lon="-6.7156240">
        <ele>1757.5</ele>
        <time>2014-10-01T10:06:49Z</time>
      </trkpt>
      <trkpt lat="42.3084490" lon="-6.7156340">
        <ele>1758.0</ele>
        <time>2014-10-01T10:06:51Z</time>
      </trkpt>
      <trkpt lat="42.3085000" lon="-6.7156420">
        <ele>1758.6</ele>
        <time>2014-10-01T10:06:53Z</time>
      </trkpt>
      <trkpt lat="42.3085480" lon="-6.7156520">
        <ele>1759.2</ele>
        <time>2014-10-01T10:06:55Z</time>
      </trkpt>
      <trkpt lat="42.3085970" lon="-6.7156590">
        <ele>1759.8</ele>
        <time>2014-10-01T10:06:57Z</time>
      </trkpt>
      <trkpt lat="42.3086500" lon="-6.7156730">
        <ele>1760.4</ele>
        <time>2014-10-01T10:06:59Z</time>
      </trkpt>
      <trkpt lat="42.3087040" lon="-6.7156930">
        <ele>1760.9</ele>
        <time>2014-10-01T10:07:01Z</time>
      </trkpt>
      <trkpt lat="42.3087310" lon="-6.7157030">
        <ele>1761.0</ele>
        <time>2014-10-01T10:07:02Z</time>
      </trkpt>
      <trkpt lat="42.3087590" lon="-6.7157150">
        <ele>1761.2</ele>
        <time>2014-10-01T10:07:03Z</time>
      </trkpt>
      <trkpt lat="42.3088080" lon="-6.7157370">
        <ele>1761.2</ele>
        <time>2014-10-01T10:07:05Z</time>
      </trkpt>
      <trkpt lat="42.3088550" lon="-6.7157650">
        <ele>1761.2</ele>
        <time>2014-10-01T10:07:07Z</time>
      </trkpt>
      <trkpt lat="42.3089010" lon="-6.7157960">
        <ele>1761.4</ele>
        <time>2014-10-01T10:07:09Z</time>
      </trkpt>
      <trkpt lat="42.3089480" lon="-6.7158250">
        <ele>1761.6</ele>
        <time>2014-10-01T10:07:11Z</time>
      </trkpt>
      <trkpt lat="42.3089920" lon="-6.7158610">
        <ele>1761.8</ele>
        <time>2014-10-01T10:07:13Z</time>
      </trkpt>
      <trkpt lat="42.3090170" lon="-6.7158810">
        <ele>1762.0</ele>
        <time>2014-10-01T10:07:14Z</time>
      </trkpt>
      <trkpt lat="42.3090420" lon="-6.7158990">
        <ele>1762.2</ele>
        <time>2014-10-01T10:07:15Z</time>
      </trkpt>
      <trkpt lat="42.3090670" lon="-6.7159170">
        <ele>1762.3</ele>
        <time>2014-10-01T10:07:16Z</time>
      </trkpt>
      <trkpt lat="42.3090900" lon="-6.7159360">
        <ele>1762.5</ele>
        <time>2014-10-01T10:07:17Z</time>
      </trkpt>
      <trkpt lat="42.3091140" lon="-6.7159560">
        <ele>1762.7</ele>
        <time>2014-10-01T10:07:18Z</time>
      </trkpt>
      <trkpt lat="42.3091550" lon="-6.7160000">
        <ele>1763.1</ele>
        <time>2014-10-01T10:07:20Z</time>
      </trkpt>
      <trkpt lat="42.3091750" lon="-6.7160240">
        <ele>1763.3</ele>
        <time>2014-10-01T10:07:21Z</time>
      </trkpt>
      <trkpt lat="42.3092150" lon="-6.7160720">
        <ele>1763.7</ele>
        <time>2014-10-01T10:07:23Z</time>
      </trkpt>
      <trkpt lat="42.3092360" lon="-6.7160960">
        <ele>1764.0</ele>
        <time>2014-10-01T10:07:24Z</time>
      </trkpt>
      <trkpt lat="42.3092550" lon="-6.7161220">
        <ele>1764.2</ele>
        <time>2014-10-01T10:07:25Z</time>
      </trkpt>
      <trkpt lat="42.3092900" lon="-6.7161710">
        <ele>1764.7</ele>
        <time>2014-10-01T10:07:27Z</time>
      </trkpt>
      <trkpt lat="42.3093220" lon="-6.7162220">
        <ele>1765.1</ele>
        <time>2014-10-01T10:07:29Z</time>
      </trkpt>
      <trkpt lat="42.3093520" lon="-6.7162780">
        <ele>1765.6</ele>
        <time>2014-10-01T10:07:31Z</time>
      </trkpt>
      <trkpt lat="42.3093680" lon="-6.7163080">
        <ele>1765.9</ele>
        <time>2014-10-01T10:07:32Z</time>
      </trkpt>
      <trkpt lat="42.3093850" lon="-6.7163370">
        <ele>1766.2</ele>
        <time>2014-10-01T10:07:33Z</time>
      </trkpt>
      <trkpt lat="42.3094010" lon="-6.7163660">
        <ele>1766.4</ele>
        <time>2014-10-01T10:07:34Z</time>
      </trkpt>
      <trkpt lat="42.3094340" lon="-6.7164200">
        <ele>1767.0</ele>
        <time>2014-10-01T10:07:36Z</time>
      </trkpt>
      <trkpt lat="42.3094650" lon="-6.7164740">
        <ele>1767.5</ele>
        <time>2014-10-01T10:07:38Z</time>
      </trkpt>
      <trkpt lat="42.3094940" lon="-6.7165300">
        <ele>1768.1</ele>
        <time>2014-10-01T10:07:40Z</time>
      </trkpt>
      <trkpt lat="42.3095230" lon="-6.7165840">
        <ele>1768.7</ele>
        <time>2014-10-01T10:07:42Z</time>
      </trkpt>
      <trkpt lat="42.3095550" lon="-6.7166390">
        <ele>1769.3</ele>
        <time>2014-10-01T10:07:44Z</time>
      </trkpt>
      <trkpt lat="42.3095810" lon="-6.7166960">
        <ele>1769.8</ele>
        <time>2014-10-01T10:07:46Z</time>
      </trkpt>
      <trkpt lat="42.3096040" lon="-6.7167540">
        <ele>1770.4</ele>
        <time>2014-10-01T10:07:48Z</time>
      </trkpt>
      <trkpt lat="42.3096290" lon="-6.7168030">
        <ele>1770.9</ele>
        <time>2014-10-01T10:07:50Z</time>
      </trkpt>
      <trkpt lat="42.3096580" lon="-6.7168530">
        <ele>1771.5</ele>
        <time>2014-10-01T10:07:52Z</time>
      </trkpt>
      <trkpt lat="42.3096850" lon="-6.7169030">
        <ele>1772.0</ele>
        <time>2014-10-01T10:07:54Z</time>
      </trkpt>
      <trkpt lat="42.3097120" lon="-6.7169550">
        <ele>1772.6</ele>
        <time>2014-10-01T10:07:56Z</time>
      </trkpt>
      <trkpt lat="42.3097410" lon="-6.7170090">
        <ele>1773.1</ele>
        <time>2014-10-01T10:07:58Z</time>
      </trkpt>
      <trkpt lat="42.3097680" lon="-6.7170600">
        <ele>1773.7</ele>
        <time>2014-10-01T10:08:00Z</time>
      </trkpt>
      <trkpt lat="42.3097950" lon="-6.7171100">
        <ele>1774.2</ele>
        <time>2014-10-01T10:08:02Z</time>
      </trkpt>
      <trkpt lat="42.3098240" lon="-6.7171590">
        <ele>1774.8</ele>
        <time>2014-10-01T10:08:04Z</time>
      </trkpt>
      <trkpt lat="42.3098540" lon="-6.7172110">
        <ele>1775.4</ele>
        <time>2014-10-01T10:08:06Z</time>
      </trkpt>
      <trkpt lat="42.3098860" lon="-6.7172690">
        <ele>1776.1</ele>
        <time>2014-10-01T10:08:08Z</time>
      </trkpt>
      <trkpt lat="42.3099150" lon="-6.7173260">
        <ele>1776.7</ele>
        <time>2014-10-01T10:08:10Z</time>
      </trkpt>
      <trkpt lat="42.3099430" lon="-6.7173820">
        <ele>1777.3</ele>
        <time>2014-10-01T10:08:12Z</time>
      </trkpt>
      <trkpt lat="42.3099720" lon="-6.7174370">
        <ele>1777.8</ele>
        <time>2014-10-01T10:08:14Z</time>
      </trkpt>
      <trkpt lat="42.3100000" lon="-6.7174910">
        <ele>1778.3</ele>
        <time>2014-10-01T10:08:16Z</time>
      </trkpt>
      <trkpt lat="42.3100270" lon="-6.7175440">
        <ele>1778.8</ele>
        <time>2014-10-01T10:08:18Z</time>
      </trkpt>
      <trkpt lat="42.3100560" lon="-6.7175980">
        <ele>1779.3</ele>
        <time>2014-10-01T10:08:20Z</time>
      </trkpt>
      <trkpt lat="42.3100860" lon="-6.7176530">
        <ele>1779.8</ele>
        <time>2014-10-01T10:08:22Z</time>
      </trkpt>
      <trkpt lat="42.3101150" lon="-6.7177050">
        <ele>1780.2</ele>
        <time>2014-10-01T10:08:24Z</time>
      </trkpt>
      <trkpt lat="42.3101440" lon="-6.7177590">
        <ele>1780.7</ele>
        <time>2014-10-01T10:08:26Z</time>
      </trkpt>
      <trkpt lat="42.3101740" lon="-6.7178110">
        <ele>1781.1</ele>
        <time>2014-10-01T10:08:28Z</time>
      </trkpt>
      <trkpt lat="42.3102030" lon="-6.7178610">
        <ele>1781.5</ele>
        <time>2014-10-01T10:08:30Z</time>
      </trkpt>
      <trkpt lat="42.3102320" lon="-6.7179140">
        <ele>1782.0</ele>
        <time>2014-10-01T10:08:32Z</time>
      </trkpt>
      <trkpt lat="42.3102590" lon="-6.7179670">
        <ele>1782.5</ele>
        <time>2014-10-01T10:08:34Z</time>
      </trkpt>
      <trkpt lat="42.3102870" lon="-6.7180130">
        <ele>1783.0</ele>
        <time>2014-10-01T10:08:36Z</time>
      </trkpt>
      <trkpt lat="42.3103120" lon="-6.7180670">
        <ele>1783.6</ele>
        <time>2014-10-01T10:08:38Z</time>
      </trkpt>
      <trkpt lat="42.3103370" lon="-6.7181160">
        <ele>1784.1</ele>
        <time>2014-10-01T10:08:40Z</time>
      </trkpt>
      <trkpt lat="42.3103620" lon="-6.7181670">
        <ele>1784.7</ele>
        <time>2014-10-01T10:08:42Z</time>
      </trkpt>
      <trkpt lat="42.3103890" lon="-6.7182220">
        <ele>1785.3</ele>
        <time>2014-10-01T10:08:44Z</time>
      </trkpt>
      <trkpt lat="42.3104130" lon="-6.7182710">
        <ele>1785.9</ele>
        <time>2014-10-01T10:08:46Z</time>
      </trkpt>
      <trkpt lat="42.3104370" lon="-6.7183170">
        <ele>1786.5</ele>
        <time>2014-10-01T10:08:48Z</time>
      </trkpt>
      <trkpt lat="42.3104580" lon="-6.7183650">
        <ele>1787.0</ele>
        <time>2014-10-01T10:08:50Z</time>
      </trkpt>
      <trkpt lat="42.3104800" lon="-6.7184140">
        <ele>1787.6</ele>
        <time>2014-10-01T10:08:52Z</time>
      </trkpt>
      <trkpt lat="42.3105060" lon="-6.7184610">
        <ele>1788.2</ele>
        <time>2014-10-01T10:08:54Z</time>
      </trkpt>
      <trkpt lat="42.3105320" lon="-6.7185070">
        <ele>1788.8</ele>
        <time>2014-10-01T10:08:56Z</time>
      </trkpt>
      <trkpt lat="42.3105510" lon="-6.7185340">
        <ele>1789.2</ele>
        <time>2014-10-01T10:08:57Z</time>
      </trkpt>
      <trkpt lat="42.3105760" lon="-6.7185810">
        <ele>1789.8</ele>
        <time>2014-10-01T10:08:59Z</time>
      </trkpt>
      <trkpt lat="42.3106030" lon="-6.7186250">
        <ele>1790.4</ele>
        <time>2014-10-01T10:09:01Z</time>
      </trkpt>
      <trkpt lat="42.3106280" lon="-6.7186670">
        <ele>1790.9</ele>
        <time>2014-10-01T10:09:03Z</time>
      </trkpt>
      <trkpt lat="42.3106540" lon="-6.7187190">
        <ele>1791.4</ele>
        <time>2014-10-01T10:09:05Z</time>
      </trkpt>
      <trkpt lat="42.3106780" lon="-6.7187640">
        <ele>1791.9</ele>
        <time>2014-10-01T10:09:07Z</time>
      </trkpt>
      <trkpt lat="42.3107050" lon="-6.7188130">
        <ele>1792.4</ele>
        <time>2014-10-01T10:09:09Z</time>
      </trkpt>
      <trkpt lat="42.3107280" lon="-6.7188640">
        <ele>1792.9</ele>
        <time>2014-10-01T10:09:11Z</time>
      </trkpt>
      <trkpt lat="42.3107530" lon="-6.7189190">
        <ele>1793.4</ele>
        <time>2014-10-01T10:09:13Z</time>
      </trkpt>
      <trkpt lat="42.3107830" lon="-6.7189720">
        <ele>1793.8</ele>
        <time>2014-10-01T10:09:15Z</time>
      </trkpt>
      <trkpt lat="42.3108160" lon="-6.7190140">
        <ele>1794.2</ele>
        <time>2014-10-01T10:09:17Z</time>
      </trkpt>
      <trkpt lat="42.3108550" lon="-6.7190650">
        <ele>1794.7</ele>
        <time>2014-10-01T10:09:19Z</time>
      </trkpt>
      <trkpt lat="42.3108910" lon="-6.7191170">
        <ele>1795.2</ele>
        <time>2014-10-01T10:09:21Z</time>
      </trkpt>
      <trkpt lat="42.3109210" lon="-6.7191640">
        <ele>1795.6</ele>
        <time>2014-10-01T10:09:23Z</time>
      </trkpt>
      <trkpt lat="42.3109510" lon="-6.7192230">
        <ele>1796.0</ele>
        <time>2014-10-01T10:09:25Z</time>
      </trkpt>
      <trkpt lat="42.3109820" lon="-6.7192780">
        <ele>1796.4</ele>
        <time>2014-10-01T10:09:27Z</time>
      </trkpt>
      <trkpt lat="42.3110140" lon="-6.7193340">
        <ele>1796.8</ele>
        <time>2014-10-01T10:09:29Z</time>
      </trkpt>
      <trkpt lat="42.3110470" lon="-6.7193910">
        <ele>1797.1</ele>
        <time>2014-10-01T10:09:31Z</time>
      </trkpt>
      <trkpt lat="42.3110640" lon="-6.7194190">
        <ele>1797.3</ele>
        <time>2014-10-01T10:09:32Z</time>
      </trkpt>
      <trkpt lat="42.3110820" lon="-6.7194480">
        <ele>1797.6</ele>
        <time>2014-10-01T10:09:33Z</time>
      </trkpt>
      <trkpt lat="42.3111010" lon="-6.7194760">
        <ele>1797.8</ele>
        <time>2014-10-01T10:09:34Z</time>
      </trkpt>
      <trkpt lat="42.3111190" lon="-6.7195040">
        <ele>1798.0</ele>
        <time>2014-10-01T10:09:35Z</time>
      </trkpt>
      <trkpt lat="42.3111380" lon="-6.7195340">
        <ele>1798.2</ele>
        <time>2014-10-01T10:09:36Z</time>
      </trkpt>
      <trkpt lat="42.3111550" lon="-6.7195630">
        <ele>1798.4</ele>
        <time>2014-10-01T10:09:37Z</time>
      </trkpt>
      <trkpt lat="42.3111730" lon="-6.7195940">
        <ele>1798.7</ele>
        <time>2014-10-01T10:09:38Z</time>
      </trkpt>
      <trkpt lat="42.3111940" lon="-6.7196260">
        <ele>1798.9</ele>
        <time>2014-10-01T10:09:39Z</time>
      </trkpt>
      <trkpt lat="42.3112140" lon="-6.7196560">
        <ele>1799.1</ele>
        <time>2014-10-01T10:09:40Z</time>
      </trkpt>
      <trkpt lat="42.3112330" lon="-6.7196860">
        <ele>1799.3</ele>
        <time>2014-10-01T10:09:41Z</time>
      </trkpt>
      <trkpt lat="42.3112530" lon="-6.7197160">
        <ele>1799.6</ele>
        <time>2014-10-01T10:09:42Z</time>
      </trkpt>
      <trkpt lat="42.3112730" lon="-6.7197470">
        <ele>1799.8</ele>
        <time>2014-10-01T10:09:43Z</time>
      </trkpt>
      <trkpt lat="42.3112930" lon="-6.7197780">
        <ele>1800.0</ele>
        <time>2014-10-01T10:09:44Z</time>
      </trkpt>
      <trkpt lat="42.3113150" lon="-6.7198080">
        <ele>1800.2</ele>
        <time>2014-10-01T10:09:45Z</time>
      </trkpt>
      <trkpt lat="42.3113380" lon="-6.7198420">
        <ele>1800.5</ele>
        <time>2014-10-01T10:09:46Z</time>
      </trkpt>
      <trkpt lat="42.3113610" lon="-6.7198770">
        <ele>1800.8</ele>
        <time>2014-10-01T10:09:47Z</time>
      </trkpt>
      <trkpt lat="42.3113830" lon="-6.7199130">
        <ele>1801.0</ele>
        <time>2014-10-01T10:09:48Z</time>
      </trkpt>
      <trkpt lat="42.3114070" lon="-6.7199480">
        <ele>1801.3</ele>
        <time>2014-10-01T10:09:49Z</time>
      </trkpt>
      <trkpt lat="42.3114280" lon="-6.7199810">
        <ele>1801.5</ele>
        <time>2014-10-01T10:09:50Z</time>
      </trkpt>
      <trkpt lat="42.3114490" lon="-6.7200150">
        <ele>1801.7</ele>
        <time>2014-10-01T10:09:51Z</time>
      </trkpt>
      <trkpt lat="42.3114700" lon="-6.7200470">
        <ele>1801.9</ele>
        <time>2014-10-01T10:09:52Z</time>
      </trkpt>
      <trkpt lat="42.3114920" lon="-6.7200800">
        <ele>1802.1</ele>
        <time>2014-10-01T10:09:53Z</time>
      </trkpt>
      <trkpt lat="42.3115150" lon="-6.7201130">
        <ele>1802.4</ele>
        <time>2014-10-01T10:09:54Z</time>
      </trkpt>
      <trkpt lat="42.3115360" lon="-6.7201440">
        <ele>1802.6</ele>
        <time>2014-10-01T10:09:55Z</time>
      </trkpt>
      <trkpt lat="42.3115580" lon="-6.7201750">
        <ele>1802.8</ele>
        <time>2014-10-01T10:09:56Z</time>
      </trkpt>
      <trkpt lat="42.3115810" lon="-6.7202030">
        <ele>1803.0</ele>
        <time>2014-10-01T10:09:57Z</time>
      </trkpt>
      <trkpt lat="42.3116020" lon="-6.7202340">
        <ele>1803.3</ele>
        <time>2014-10-01T10:09:58Z</time>
      </trkpt>
      <trkpt lat="42.3116250" lon="-6.7202650">
        <ele>1803.5</ele>
        <time>2014-10-01T10:09:59Z</time>
      </trkpt>
      <trkpt lat="42.3116450" lon="-6.7202990">
        <ele>1803.8</ele>
        <time>2014-10-01T10:10:00Z</time>
      </trkpt>
      <trkpt lat="42.3116670" lon="-6.7203330">
        <ele>1804.0</ele>
        <time>2014-10-01T10:10:01Z</time>
      </trkpt>
      <trkpt lat="42.3116900" lon="-6.7203670">
        <ele>1804.3</ele>
        <time>2014-10-01T10:10:02Z</time>
      </trkpt>
      <trkpt lat="42.3117110" lon="-6.7203980">
        <ele>1804.5</ele>
        <time>2014-10-01T10:10:03Z</time>
      </trkpt>
      <trkpt lat="42.3117340" lon="-6.7204290">
        <ele>1804.8</ele>
        <time>2014-10-01T10:10:04Z</time>
      </trkpt>
      <trkpt lat="42.3117560" lon="-6.7204610">
        <ele>1805.0</ele>
        <time>2014-10-01T10:10:05Z</time>
      </trkpt>
      <trkpt lat="42.3117780" lon="-6.7204920">
        <ele>1805.2</ele>
        <time>2014-10-01T10:10:06Z</time>
      </trkpt>
      <trkpt lat="42.3118000" lon="-6.7205230">
        <ele>1805.4</ele>
        <time>2014-10-01T10:10:07Z</time>
      </trkpt>
      <trkpt lat="42.3118230" lon="-6.7205540">
        <ele>1805.5</ele>
        <time>2014-10-01T10:10:08Z</time>
      </trkpt>
      <trkpt lat="42.3118460" lon="-6.7205850">
        <ele>1805.8</ele>
        <time>2014-10-01T10:10:09Z</time>
      </trkpt>
      <trkpt lat="42.3118680" lon="-6.7206160">
        <ele>1806.0</ele>
        <time>2014-10-01T10:10:10Z</time>
      </trkpt>
      <trkpt lat="42.3118910" lon="-6.7206480">
        <ele>1806.2</ele>
        <time>2014-10-01T10:10:11Z</time>
      </trkpt>
      <trkpt lat="42.3119140" lon="-6.7206800">
        <ele>1806.5</ele>
        <time>2014-10-01T10:10:12Z</time>
      </trkpt>
      <trkpt lat="42.3119360" lon="-6.7207110">
        <ele>1806.8</ele>
        <time>2014-10-01T10:10:13Z</time>
      </trkpt>
      <trkpt lat="42.3119590" lon="-6.7207420">
        <ele>1807.0</ele>
        <time>2014-10-01T10:10:14Z</time>
      </trkpt>
      <trkpt lat="42.3119820" lon="-6.7207760">
        <ele>1807.3</ele>
        <time>2014-10-01T10:10:15Z</time>
      </trkpt>
      <trkpt lat="42.3120040" lon="-6.7208090">
        <ele>1807.6</ele>
        <time>2014-10-01T10:10:16Z</time>
      </trkpt>
      <trkpt lat="42.3120280" lon="-6.7208420">
        <ele>1807.9</ele>
        <time>2014-10-01T10:10:17Z</time>
      </trkpt>
      <trkpt lat="42.3120520" lon="-6.7208750">
        <ele>1808.1</ele>
        <time>2014-10-01T10:10:18Z</time>
      </trkpt>
      <trkpt lat="42.3120750" lon="-6.7209060">
        <ele>1808.4</ele>
        <time>2014-10-01T10:10:19Z</time>
      </trkpt>
      <trkpt lat="42.3120970" lon="-6.7209370">
        <ele>1808.7</ele>
        <time>2014-10-01T10:10:20Z</time>
      </trkpt>
      <trkpt lat="42.3121210" lon="-6.7209720">
        <ele>1809.0</ele>
        <time>2014-10-01T10:10:21Z</time>
      </trkpt>
      <trkpt lat="42.3121460" lon="-6.7210040">
        <ele>1809.3</ele>
        <time>2014-10-01T10:10:22Z</time>
      </trkpt>
      <trkpt lat="42.3121700" lon="-6.7210380">
        <ele>1809.6</ele>
        <time>2014-10-01T10:10:23Z</time>
      </trkpt>
      <trkpt lat="42.3121930" lon="-6.7210720">
        <ele>1809.8</ele>
        <time>2014-10-01T10:10:24Z</time>
      </trkpt>
      <trkpt lat="42.3122180" lon="-6.7211060">
        <ele>1810.1</ele>
        <time>2014-10-01T10:10:25Z</time>
      </trkpt>
      <trkpt lat="42.3122430" lon="-6.7211400">
        <ele>1810.4</ele>
        <time>2014-10-01T10:10:26Z</time>
      </trkpt>
      <trkpt lat="42.3122670" lon="-6.7211720">
        <ele>1810.7</ele>
        <time>2014-10-01T10:10:27Z</time>
      </trkpt>
      <trkpt lat="42.3122900" lon="-6.7212050">
        <ele>1811.0</ele>
        <time>2014-10-01T10:10:28Z</time>
      </trkpt>
      <trkpt lat="42.3123140" lon="-6.7212390">
        <ele>1811.3</ele>
        <time>2014-10-01T10:10:29Z</time>
      </trkpt>
      <trkpt lat="42.3123390" lon="-6.7212740">
        <ele>1811.6</ele>
        <time>2014-10-01T10:10:30Z</time>
      </trkpt>
      <trkpt lat="42.3123630" lon="-6.7213080">
        <ele>1812.0</ele>
        <time>2014-10-01T10:10:31Z</time>
      </trkpt>
      <trkpt lat="42.3123880" lon="-6.7213440">
        <ele>1812.3</ele>
        <time>2014-10-01T10:10:32Z</time>
      </trkpt>
      <trkpt lat="42.3124120" lon="-6.7213810">
        <ele>1812.7</ele>
        <time>2014-10-01T10:10:33Z</time>
      </trkpt>
      <trkpt lat="42.3124340" lon="-6.7214150">
        <ele>1813.0</ele>
        <time>2014-10-01T10:10:34Z</time>
      </trkpt>
      <trkpt lat="42.3124560" lon="-6.7214480">
        <ele>1813.4</ele>
        <time>2014-10-01T10:10:35Z</time>
      </trkpt>
      <trkpt lat="42.3124810" lon="-6.7214840">
        <ele>1813.7</ele>
        <time>2014-10-01T10:10:36Z</time>
      </trkpt>
      <trkpt lat="42.3125030" lon="-6.7215160">
        <ele>1814.1</ele>
        <time>2014-10-01T10:10:37Z</time>
      </trkpt>
      <trkpt lat="42.3125250" lon="-6.7215470">
        <ele>1814.4</ele>
        <time>2014-10-01T10:10:38Z</time>
      </trkpt>
      <trkpt lat="42.3125470" lon="-6.7215770">
        <ele>1814.7</ele>
        <time>2014-10-01T10:10:39Z</time>
      </trkpt>
      <trkpt lat="42.3125660" lon="-6.7216050">
        <ele>1815.1</ele>
        <time>2014-10-01T10:10:40Z</time>
      </trkpt>
      <trkpt lat="42.3125860" lon="-6.7216340">
        <ele>1815.4</ele>
        <time>2014-10-01T10:10:41Z</time>
      </trkpt>
      <trkpt lat="42.3126230" lon="-6.7216960">
        <ele>1816.1</ele>
        <time>2014-10-01T10:10:43Z</time>
      </trkpt>
      <trkpt lat="42.3126450" lon="-6.7217320">
        <ele>1816.5</ele>
        <time>2014-10-01T10:10:44Z</time>
      </trkpt>
      <trkpt lat="42.3126660" lon="-6.7217700">
        <ele>1817.0</ele>
        <time>2014-10-01T10:10:45Z</time>
      </trkpt>
      <trkpt lat="42.3126810" lon="-6.7218030">
        <ele>1817.3</ele>
        <time>2014-10-01T10:10:46Z</time>
      </trkpt>
      <trkpt lat="42.3127060" lon="-6.7218610">
        <ele>1817.8</ele>
        <time>2014-10-01T10:10:48Z</time>
      </trkpt>
      <trkpt lat="42.3127280" lon="-6.7219210">
        <ele>1818.4</ele>
        <time>2014-10-01T10:10:50Z</time>
      </trkpt>
      <trkpt lat="42.3127390" lon="-6.7219540">
        <ele>1818.7</ele>
        <time>2014-10-01T10:10:51Z</time>
      </trkpt>
      <trkpt lat="42.3127500" lon="-6.7219880">
        <ele>1819.0</ele>
        <time>2014-10-01T10:10:52Z</time>
      </trkpt>
      <trkpt lat="42.3127600" lon="-6.7220230">
        <ele>1819.3</ele>
        <time>2014-10-01T10:10:53Z</time>
      </trkpt>
      <trkpt lat="42.3127770" lon="-6.7220890">
        <ele>1819.8</ele>
        <time>2014-10-01T10:10:55Z</time>
      </trkpt>
      <trkpt lat="42.3127850" lon="-6.7221240">
        <ele>1820.1</ele>
        <time>2014-10-01T10:10:56Z</time>
      </trkpt>
      <trkpt lat="42.3127990" lon="-6.7221940">
        <ele>1820.7</ele>
        <time>2014-10-01T10:10:58Z</time>
      </trkpt>
      <trkpt lat="42.3128060" lon="-6.7222330">
        <ele>1821.0</ele>
        <time>2014-10-01T10:10:59Z</time>
      </trkpt>
      <trkpt lat="42.3128110" lon="-6.7222720">
        <ele>1821.4</ele>
        <time>2014-10-01T10:11:00Z</time>
      </trkpt>
      <trkpt lat="42.3128170" lon="-6.7223110">
        <ele>1821.7</ele>
        <time>2014-10-01T10:11:01Z</time>
      </trkpt>
      <trkpt lat="42.3128230" lon="-6.7223510">
        <ele>1822.1</ele>
        <time>2014-10-01T10:11:02Z</time>
      </trkpt>
      <trkpt lat="42.3128280" lon="-6.7223890">
        <ele>1822.4</ele>
        <time>2014-10-01T10:11:03Z</time>
      </trkpt>
      <trkpt lat="42.3128310" lon="-6.7224270">
        <ele>1822.7</ele>
        <time>2014-10-01T10:11:04Z</time>
      </trkpt>
      <trkpt lat="42.3128350" lon="-6.7224680">
        <ele>1823.1</ele>
        <time>2014-10-01T10:11:05Z</time>
      </trkpt>
      <trkpt lat="42.3128390" lon="-6.7225110">
        <ele>1823.4</ele>
        <time>2014-10-01T10:11:06Z</time>
      </trkpt>
      <trkpt lat="42.3128430" lon="-6.7225510">
        <ele>1823.7</ele>
        <time>2014-10-01T10:11:07Z</time>
      </trkpt>
      <trkpt lat="42.3128460" lon="-6.7225880">
        <ele>1824.0</ele>
        <time>2014-10-01T10:11:08Z</time>
      </trkpt>
      <trkpt lat="42.3128510" lon="-6.7226630">
        <ele>1824.6</ele>
        <time>2014-10-01T10:11:10Z</time>
      </trkpt>
      <trkpt lat="42.3128500" lon="-6.7227000">
        <ele>1824.9</ele>
        <time>2014-10-01T10:11:11Z</time>
      </trkpt>
      <trkpt lat="42.3128500" lon="-6.7227390">
        <ele>1825.2</ele>
        <time>2014-10-01T10:11:12Z</time>
      </trkpt>
      <trkpt lat="42.3128520" lon="-6.7227790">
        <ele>1825.5</ele>
        <time>2014-10-01T10:11:13Z</time>
      </trkpt>
      <trkpt lat="42.3128550" lon="-6.7228210">
        <ele>1825.8</ele>
        <time>2014-10-01T10:11:14Z</time>
      </trkpt>
      <trkpt lat="42.3128580" lon="-6.7228620">
        <ele>1826.0</ele>
        <time>2014-10-01T10:11:15Z</time>
      </trkpt>
      <trkpt lat="42.3128620" lon="-6.7229030">
        <ele>1826.3</ele>
        <time>2014-10-01T10:11:16Z</time>
      </trkpt>
      <trkpt lat="42.3128660" lon="-6.7229440">
        <ele>1826.6</ele>
        <time>2014-10-01T10:11:17Z</time>
      </trkpt>
      <trkpt lat="42.3128670" lon="-6.7229850">
        <ele>1826.8</ele>
        <time>2014-10-01T10:11:18Z</time>
      </trkpt>
      <trkpt lat="42.3128680" lon="-6.7230560">
        <ele>1827.3</ele>
        <time>2014-10-01T10:11:20Z</time>
      </trkpt>
      <trkpt lat="42.3128670" lon="-6.7231350">
        <ele>1827.9</ele>
        <time>2014-10-01T10:11:22Z</time>
      </trkpt>
      <trkpt lat="42.3128670" lon="-6.7231760">
        <ele>1828.2</ele>
        <time>2014-10-01T10:11:23Z</time>
      </trkpt>
      <trkpt lat="42.3128680" lon="-6.7232140">
        <ele>1828.5</ele>
        <time>2014-10-01T10:11:24Z</time>
      </trkpt>
      <trkpt lat="42.3128660" lon="-6.7232530">
        <ele>1828.8</ele>
        <time>2014-10-01T10:11:25Z</time>
      </trkpt>
      <trkpt lat="42.3128620" lon="-6.7232950">
        <ele>1829.1</ele>
        <time>2014-10-01T10:11:26Z</time>
      </trkpt>
      <trkpt lat="42.3128610" lon="-6.7233350">
        <ele>1829.4</ele>
        <time>2014-10-01T10:11:27Z</time>
      </trkpt>
      <trkpt lat="42.3128610" lon="-6.7233730">
        <ele>1829.6</ele>
        <time>2014-10-01T10:11:28Z</time>
      </trkpt>
      <trkpt lat="42.3128610" lon="-6.7234460">
        <ele>1830.2</ele>
        <time>2014-10-01T10:11:30Z</time>
      </trkpt>
      <trkpt lat="42.3128580" lon="-6.7234850">
        <ele>1830.4</ele>
        <time>2014-10-01T10:11:31Z</time>
      </trkpt>
      <trkpt lat="42.3128580" lon="-6.7235250">
        <ele>1830.7</ele>
        <time>2014-10-01T10:11:32Z</time>
      </trkpt>
      <trkpt lat="42.3128610" lon="-6.7235970">
        <ele>1831.1</ele>
        <time>2014-10-01T10:11:34Z</time>
      </trkpt>
      <trkpt lat="42.3128610" lon="-6.7236690">
        <ele>1831.4</ele>
        <time>2014-10-01T10:11:36Z</time>
      </trkpt>
      <trkpt lat="42.3128610" lon="-6.7237150">
        <ele>1831.7</ele>
        <time>2014-10-01T10:11:37Z</time>
      </trkpt>
      <trkpt lat="42.3128620" lon="-6.7237550">
        <ele>1831.9</ele>
        <time>2014-10-01T10:11:38Z</time>
      </trkpt>
      <trkpt lat="42.3128640" lon="-6.7237950">
        <ele>1832.1</ele>
        <time>2014-10-01T10:11:39Z</time>
      </trkpt>
      <trkpt lat="42.3128700" lon="-6.7238700">
        <ele>1832.6</ele>
        <time>2014-10-01T10:11:41Z</time>
      </trkpt>
      <trkpt lat="42.3128840" lon="-6.7239380">
        <ele>1833.0</ele>
        <time>2014-10-01T10:11:43Z</time>
      </trkpt>
      <trkpt lat="42.3128900" lon="-6.7239780">
        <ele>1833.3</ele>
        <time>2014-10-01T10:11:44Z</time>
      </trkpt>
      <trkpt lat="42.3128940" lon="-6.7240190">
        <ele>1833.5</ele>
        <time>2014-10-01T10:11:45Z</time>
      </trkpt>
      <trkpt lat="42.3128980" lon="-6.7240590">
        <ele>1833.7</ele>
        <time>2014-10-01T10:11:46Z</time>
      </trkpt>
      <trkpt lat="42.3129000" lon="-6.7241040">
        <ele>1834.0</ele>
        <time>2014-10-01T10:11:47Z</time>
      </trkpt>
      <trkpt lat="42.3129010" lon="-6.7241450">
        <ele>1834.2</ele>
        <time>2014-10-01T10:11:48Z</time>
      </trkpt>
      <trkpt lat="42.3129010" lon="-6.7241910">
        <ele>1834.4</ele>
        <time>2014-10-01T10:11:49Z</time>
      </trkpt>
      <trkpt lat="42.3129040" lon="-6.7242390">
        <ele>1834.6</ele>
        <time>2014-10-01T10:11:50Z</time>
      </trkpt>
      <trkpt lat="42.3129060" lon="-6.7242890">
        <ele>1834.8</ele>
        <time>2014-10-01T10:11:51Z</time>
      </trkpt>
      <trkpt lat="42.3129080" lon="-6.7243440">
        <ele>1835.1</ele>
        <time>2014-10-01T10:11:52Z</time>
      </trkpt>
      <trkpt lat="42.3129100" lon="-6.7243950">
        <ele>1835.2</ele>
        <time>2014-10-01T10:11:53Z</time>
      </trkpt>
      <trkpt lat="42.3129140" lon="-6.7244420">
        <ele>1835.4</ele>
        <time>2014-10-01T10:11:54Z</time>
      </trkpt>
      <trkpt lat="42.3129170" lon="-6.7244890">
        <ele>1835.5</ele>
        <time>2014-10-01T10:11:55Z</time>
      </trkpt>
      <trkpt lat="42.3129200" lon="-6.7245380">
        <ele>1835.6</ele>
        <time>2014-10-01T10:11:56Z</time>
      </trkpt>
      <trkpt lat="42.3129230" lon="-6.7245900">
        <ele>1835.7</ele>
        <time>2014-10-01T10:11:57Z</time>
      </trkpt>
      <trkpt lat="42.3129290" lon="-6.7246370">
        <ele>1835.8</ele>
        <time>2014-10-01T10:11:58Z</time>
      </trkpt>
      <trkpt lat="42.3129350" lon="-6.7246810">
        <ele>1835.9</ele>
        <time>2014-10-01T10:11:59Z</time>
      </trkpt>
      <trkpt lat="42.3129350" lon="-6.7247260">
        <ele>1836.0</ele>
        <time>2014-10-01T10:12:00Z</time>
      </trkpt>
      <trkpt lat="42.3129270" lon="-6.7247760">
        <ele>1836.1</ele>
        <time>2014-10-01T10:12:01Z</time>
      </trkpt>
      <trkpt lat="42.3129270" lon="-6.7248230">
        <ele>1836.2</ele>
        <time>2014-10-01T10:12:02Z</time>
      </trkpt>
      <trkpt lat="42.3129270" lon="-6.7248710">
        <ele>1836.3</ele>
        <time>2014-10-01T10:12:03Z</time>
      </trkpt>
      <trkpt lat="42.3129320" lon="-6.7249240">
        <ele>1836.4</ele>
        <time>2014-10-01T10:12:04Z</time>
      </trkpt>
      <trkpt lat="42.3129400" lon="-6.7249810">
        <ele>1836.5</ele>
        <time>2014-10-01T10:12:05Z</time>
      </trkpt>
      <trkpt lat="42.3129490" lon="-6.7250460">
        <ele>1836.6</ele>
        <time>2014-10-01T10:12:06Z</time>
      </trkpt>
      <trkpt lat="42.3129590" lon="-6.7251100">
        <ele>1836.7</ele>
        <time>2014-10-01T10:12:07Z</time>
      </trkpt>
      <trkpt lat="42.3129700" lon="-6.7251690">
        <ele>1836.7</ele>
        <time>2014-10-01T10:12:08Z</time>
      </trkpt>
      <trkpt lat="42.3129820" lon="-6.7252280">
        <ele>1836.8</ele>
        <time>2014-10-01T10:12:09Z</time>
      </trkpt>
      <trkpt lat="42.3129950" lon="-6.7252890">
        <ele>1836.8</ele>
        <time>2014-10-01T10:12:10Z</time>
      </trkpt>
      <trkpt lat="42.3130080" lon="-6.7253500">
        <ele>1836.8</ele>
        <time>2014-10-01T10:12:11Z</time>
      </trkpt>
      <trkpt lat="42.3130220" lon="-6.7254110">
        <ele>1836.8</ele>
        <time>2014-10-01T10:12:12Z</time>
      </trkpt>
      <trkpt lat="42.3130370" lon="-6.7254750">
        <ele>1836.8</ele>
        <time>2014-10-01T10:12:13Z</time>
      </trkpt>
      <trkpt lat="42.3130510" lon="-6.7255390">
        <ele>1836.8</ele>
        <time>2014-10-01T10:12:14Z</time>
      </trkpt>
      <trkpt lat="42.3130640" lon="-6.7256030">
        <ele>1836.7</ele>
        <time>2014-10-01T10:12:15Z</time>
      </trkpt>
      <trkpt lat="42.3130780" lon="-6.7256720">
        <ele>1836.4</ele>
        <time>2014-10-01T10:12:16Z</time>
      </trkpt>
      <trkpt lat="42.3130920" lon="-6.7257420">
        <ele>1836.0</ele>
        <time>2014-10-01T10:12:17Z</time>
      </trkpt>
      <trkpt lat="42.3131070" lon="-6.7258130">
        <ele>1835.5</ele>
        <time>2014-10-01T10:12:18Z</time>
      </trkpt>
      <trkpt lat="42.3131210" lon="-6.7258820">
        <ele>1835.5</ele>
        <time>2014-10-01T10:12:19Z</time>
      </trkpt>
      <trkpt lat="42.3131340" lon="-6.7259480">
        <ele>1835.6</ele>
        <time>2014-10-01T10:12:20Z</time>
      </trkpt>
      <trkpt lat="42.3131510" lon="-6.7260120">
        <ele>1835.6</ele>
        <time>2014-10-01T10:12:21Z</time>
      </trkpt>
      <trkpt lat="42.3131690" lon="-6.7260690">
        <ele>1835.6</ele>
        <time>2014-10-01T10:12:22Z</time>
      </trkpt>
      <trkpt lat="42.3131900" lon="-6.7261290">
        <ele>1835.6</ele>
        <time>2014-10-01T10:12:23Z</time>
      </trkpt>
      <trkpt lat="42.3132120" lon="-6.7261910">
        <ele>1835.6</ele>
        <time>2014-10-01T10:12:24Z</time>
      </trkpt>
      <trkpt lat="42.3132330" lon="-6.7262560">
        <ele>1835.6</ele>
        <time>2014-10-01T10:12:25Z</time>
      </trkpt>
      <trkpt lat="42.3132520" lon="-6.7263210">
        <ele>1835.7</ele>
        <time>2014-10-01T10:12:26Z</time>
      </trkpt>
      <trkpt lat="42.3132730" lon="-6.7263890">
        <ele>1835.7</ele>
        <time>2014-10-01T10:12:27Z</time>
      </trkpt>
      <trkpt lat="42.3132900" lon="-6.7264610">
        <ele>1835.8</ele>
        <time>2014-10-01T10:12:28Z</time>
      </trkpt>
      <trkpt lat="42.3133040" lon="-6.7265390">
        <ele>1835.8</ele>
        <time>2014-10-01T10:12:29Z</time>
      </trkpt>
      <trkpt lat="42.3133220" lon="-6.7266150">
        <ele>1835.8</ele>
        <time>2014-10-01T10:12:30Z</time>
      </trkpt>
      <trkpt lat="42.3133420" lon="-6.7266820">
        <ele>1835.8</ele>
        <time>2014-10-01T10:12:31Z</time>
      </trkpt>
      <trkpt lat="42.3133660" lon="-6.7267450">
        <ele>1835.8</ele>
        <time>2014-10-01T10:12:32Z</time>
      </trkpt>
      <trkpt lat="42.3133870" lon="-6.7268160">
        <ele>1835.9</ele>
        <time>2014-10-01T10:12:33Z</time>
      </trkpt>
      <trkpt lat="42.3134110" lon="-6.7268920">
        <ele>1835.9</ele>
        <time>2014-10-01T10:12:34Z</time>
      </trkpt>
      <trkpt lat="42.3134340" lon="-6.7269680">
        <ele>1835.9</ele>
        <time>2014-10-01T10:12:35Z</time>
      </trkpt>
      <trkpt lat="42.3134550" lon="-6.7270420">
        <ele>1835.9</ele>
        <time>2014-10-01T10:12:36Z</time>
      </trkpt>
      <trkpt lat="42.3134760" lon="-6.7271150">
        <ele>1835.9</ele>
        <time>2014-10-01T10:12:37Z</time>
      </trkpt>
      <trkpt lat="42.3134980" lon="-6.7271870">
        <ele>1835.9</ele>
        <time>2014-10-01T10:12:38Z</time>
      </trkpt>
      <trkpt lat="42.3135200" lon="-6.7272600">
        <ele>1836.0</ele>
        <time>2014-10-01T10:12:39Z</time>
      </trkpt>
      <trkpt lat="42.3135420" lon="-6.7273350">
        <ele>1836.0</ele>
        <time>2014-10-01T10:12:40Z</time>
      </trkpt>
      <trkpt lat="42.3135640" lon="-6.7274070">
        <ele>1835.9</ele>
        <time>2014-10-01T10:12:41Z</time>
      </trkpt>
      <trkpt lat="42.3135850" lon="-6.7274810">
        <ele>1835.9</ele>
        <time>2014-10-01T10:12:42Z</time>
      </trkpt>
      <trkpt lat="42.3136050" lon="-6.7275540">
        <ele>1835.8</ele>
        <time>2014-10-01T10:12:43Z</time>
      </trkpt>
      <trkpt lat="42.3136280" lon="-6.7276280">
        <ele>1835.7</ele>
        <time>2014-10-01T10:12:44Z</time>
      </trkpt>
      <trkpt lat="42.3136510" lon="-6.7277040">
        <ele>1835.6</ele>
        <time>2014-10-01T10:12:45Z</time>
      </trkpt>
      <trkpt lat="42.3136740" lon="-6.7277800">
        <ele>1835.6</ele>
        <time>2014-10-01T10:12:46Z</time>
      </trkpt>
      <trkpt lat="42.3136940" lon="-6.7278550">
        <ele>1835.5</ele>
        <time>2014-10-01T10:12:47Z</time>
      </trkpt>
      <trkpt lat="42.3137150" lon="-6.7279330">
        <ele>1835.5</ele>
        <time>2014-10-01T10:12:48Z</time>
      </trkpt>
      <trkpt lat="42.3137360" lon="-6.7280130">
        <ele>1835.4</ele>
        <time>2014-10-01T10:12:49Z</time>
      </trkpt>
      <trkpt lat="42.3137570" lon="-6.7280950">
        <ele>1835.4</ele>
        <time>2014-10-01T10:12:50Z</time>
      </trkpt>
      <trkpt lat="42.3137770" lon="-6.7281800">
        <ele>1835.4</ele>
        <time>2014-10-01T10:12:51Z</time>
      </trkpt>
      <trkpt lat="42.3137960" lon="-6.7282590">
        <ele>1835.4</ele>
        <time>2014-10-01T10:12:52Z</time>
      </trkpt>
      <trkpt lat="42.3138150" lon="-6.7283410">
        <ele>1835.4</ele>
        <time>2014-10-01T10:12:53Z</time>
      </trkpt>
      <trkpt lat="42.3138320" lon="-6.7284240">
        <ele>1835.3</ele>
        <time>2014-10-01T10:12:54Z</time>
      </trkpt>
      <trkpt lat="42.3138490" lon="-6.7285050">
        <ele>1835.2</ele>
        <time>2014-10-01T10:12:55Z</time>
      </trkpt>
      <trkpt lat="42.3138640" lon="-6.7285890">
        <ele>1835.1</ele>
        <time>2014-10-01T10:12:56Z</time>
      </trkpt>
      <trkpt lat="42.3138800" lon="-6.7286770">
        <ele>1835.0</ele>
        <time>2014-10-01T10:12:57Z</time>
      </trkpt>
      <trkpt lat="42.3138940" lon="-6.7287660">
        <ele>1835.0</ele>
        <time>2014-10-01T10:12:58Z</time>
      </trkpt>
      <trkpt lat="42.3139070" lon="-6.7288560">
        <ele>1835.0</ele>
        <time>2014-10-01T10:12:59Z</time>
      </trkpt>
      <trkpt lat="42.3139160" lon="-6.7289410">
        <ele>1835.1</ele>
        <time>2014-10-01T10:13:00Z</time>
      </trkpt>
      <trkpt lat="42.3139250" lon="-6.7290310">
        <ele>1835.3</ele>
        <time>2014-10-01T10:13:01Z</time>
      </trkpt>
      <trkpt lat="42.3139340" lon="-6.7291160">
        <ele>1835.4</ele>
        <time>2014-10-01T10:13:02Z</time>
      </trkpt>
      <trkpt lat="42.3139390" lon="-6.7291990">
        <ele>1835.6</ele>
        <time>2014-10-01T10:13:03Z</time>
      </trkpt>
      <trkpt lat="42.3139440" lon="-6.7292830">
        <ele>1835.7</ele>
        <time>2014-10-01T10:13:04Z</time>
      </trkpt>
      <trkpt lat="42.3139450" lon="-6.7293630">
        <ele>1835.8</ele>
        <time>2014-10-01T10:13:05Z</time>
      </trkpt>
      <trkpt lat="42.3139440" lon="-6.7294390">
        <ele>1836.0</ele>
        <time>2014-10-01T10:13:06Z</time>
      </trkpt>
      <trkpt lat="42.3139430" lon="-6.7295150">
        <ele>1836.1</ele>
        <time>2014-10-01T10:13:07Z</time>
      </trkpt>
      <trkpt lat="42.3139420" lon="-6.7295930">
        <ele>1836.3</ele>
        <time>2014-10-01T10:13:08Z</time>
      </trkpt>
      <trkpt lat="42.3139380" lon="-6.7296710">
        <ele>1836.5</ele>
        <time>2014-10-01T10:13:09Z</time>
      </trkpt>
      <trkpt lat="42.3139350" lon="-6.7297470">
        <ele>1836.7</ele>
        <time>2014-10-01T10:13:10Z</time>
      </trkpt>
      <trkpt lat="42.3139280" lon="-6.7298210">
        <ele>1836.8</ele>
        <time>2014-10-01T10:13:11Z</time>
      </trkpt>
      <trkpt lat="42.3139200" lon="-6.7298950">
        <ele>1836.9</ele>
        <time>2014-10-01T10:13:12Z</time>
      </trkpt>
      <trkpt lat="42.3139100" lon="-6.7299710">
        <ele>1837.0</ele>
        <time>2014-10-01T10:13:13Z</time>
      </trkpt>
      <trkpt lat="42.3138990" lon="-6.7300490">
        <ele>1837.0</ele>
        <time>2014-10-01T10:13:14Z</time>
      </trkpt>
      <trkpt lat="42.3138860" lon="-6.7301250">
        <ele>1837.1</ele>
        <time>2014-10-01T10:13:15Z</time>
      </trkpt>
      <trkpt lat="42.3138740" lon="-6.7301960">
        <ele>1837.2</ele>
        <time>2014-10-01T10:13:16Z</time>
      </trkpt>
      <trkpt lat="42.3138610" lon="-6.7302710">
        <ele>1837.2</ele>
        <time>2014-10-01T10:13:17Z</time>
      </trkpt>
      <trkpt lat="42.3138500" lon="-6.7303450">
        <ele>1837.3</ele>
        <time>2014-10-01T10:13:18Z</time>
      </trkpt>
      <trkpt lat="42.3138370" lon="-6.7304160">
        <ele>1837.3</ele>
        <time>2014-10-01T10:13:19Z</time>
      </trkpt>
      <trkpt lat="42.3138230" lon="-6.7304860">
        <ele>1837.4</ele>
        <time>2014-10-01T10:13:20Z</time>
      </trkpt>
      <trkpt lat="42.3138070" lon="-6.7305540">
        <ele>1837.4</ele>
        <time>2014-10-01T10:13:21Z</time>
      </trkpt>
      <trkpt lat="42.3137900" lon="-6.7306170">
        <ele>1837.4</ele>
        <time>2014-10-01T10:13:22Z</time>
      </trkpt>
      <trkpt lat="42.3137730" lon="-6.7306770">
        <ele>1837.5</ele>
        <time>2014-10-01T10:13:23Z</time>
      </trkpt>
      <trkpt lat="42.3137570" lon="-6.7307350">
        <ele>1837.5</ele>
        <time>2014-10-01T10:13:24Z</time>
      </trkpt>
      <trkpt lat="42.3137410" lon="-6.7307920">
        <ele>1837.6</ele>
        <time>2014-10-01T10:13:25Z</time>
      </trkpt>
      <trkpt lat="42.3137300" lon="-6.7308500">
        <ele>1837.7</ele>
        <time>2014-10-01T10:13:26Z</time>
      </trkpt>
      <trkpt lat="42.3137210" lon="-6.7309110">
        <ele>1837.7</ele>
        <time>2014-10-01T10:13:27Z</time>
      </trkpt>
      <trkpt lat="42.3137140" lon="-6.7309730">
        <ele>1837.8</ele>
        <time>2014-10-01T10:13:28Z</time>
      </trkpt>
      <trkpt lat="42.3137070" lon="-6.7310390">
        <ele>1837.8</ele>
        <time>2014-10-01T10:13:29Z</time>
      </trkpt>
      <trkpt lat="42.3137040" lon="-6.7310880">
        <ele>1837.8</ele>
        <time>2014-10-01T10:13:30Z</time>
      </trkpt>
      <trkpt lat="42.3136970" lon="-6.7311330">
        <ele>1837.8</ele>
        <time>2014-10-01T10:13:31Z</time>
      </trkpt>
      <trkpt lat="42.3136900" lon="-6.7311760">
        <ele>1837.8</ele>
        <time>2014-10-01T10:13:32Z</time>
      </trkpt>
      <trkpt lat="42.3136800" lon="-6.7312380">
        <ele>1837.8</ele>
        <time>2014-10-01T10:13:34Z</time>
      </trkpt>
      <trkpt lat="42.3136760" lon="-6.7312910">
        <ele>1837.7</ele>
        <time>2014-10-01T10:13:37Z</time>
      </trkpt>
      <trkpt lat="42.3136880" lon="-6.7313580">
        <ele>1837.6</ele>
        <time>2014-10-01T10:13:39Z</time>
      </trkpt>
      <trkpt lat="42.3136770" lon="-6.7314130">
        <ele>1837.5</ele>
        <time>2014-10-01T10:13:40Z</time>
      </trkpt>
      <trkpt lat="42.3136650" lon="-6.7314650">
        <ele>1837.4</ele>
        <time>2014-10-01T10:13:41Z</time>
      </trkpt>
      <trkpt lat="42.3136250" lon="-6.7315100">
        <ele>1837.3</ele>
        <time>2014-10-01T10:13:43Z</time>
      </trkpt>
      <trkpt lat="42.3136060" lon="-6.7315470">
        <ele>1837.2</ele>
        <time>2014-10-01T10:13:44Z</time>
      </trkpt>
      <trkpt lat="42.3135910" lon="-6.7315840">
        <ele>1837.1</ele>
        <time>2014-10-01T10:13:45Z</time>
      </trkpt>
      <trkpt lat="42.3135790" lon="-6.7316190">
        <ele>1837.0</ele>
        <time>2014-10-01T10:13:46Z</time>
      </trkpt>
      <trkpt lat="42.3135670" lon="-6.7316590">
        <ele>1836.9</ele>
        <time>2014-10-01T10:13:47Z</time>
      </trkpt>
      <trkpt lat="42.3135560" lon="-6.7317070">
        <ele>1836.9</ele>
        <time>2014-10-01T10:13:48Z</time>
      </trkpt>
      <trkpt lat="42.3135470" lon="-6.7317610">
        <ele>1836.8</ele>
        <time>2014-10-01T10:13:49Z</time>
      </trkpt>
      <trkpt lat="42.3135390" lon="-6.7318150">
        <ele>1836.8</ele>
        <time>2014-10-01T10:13:50Z</time>
      </trkpt>
      <trkpt lat="42.3135300" lon="-6.7318790">
        <ele>1836.7</ele>
        <time>2014-10-01T10:13:51Z</time>
      </trkpt>
      <trkpt lat="42.3135180" lon="-6.7319530">
        <ele>1836.6</ele>
        <time>2014-10-01T10:13:52Z</time>
      </trkpt>
      <trkpt lat="42.3135060" lon="-6.7320200">
        <ele>1836.5</ele>
        <time>2014-10-01T10:13:53Z</time>
      </trkpt>
      <trkpt lat="42.3134940" lon="-6.7320820">
        <ele>1836.3</ele>
        <time>2014-10-01T10:13:54Z</time>
      </trkpt>
      <trkpt lat="42.3134810" lon="-6.7321460">
        <ele>1836.1</ele>
        <time>2014-10-01T10:13:55Z</time>
      </trkpt>
      <trkpt lat="42.3134660" lon="-6.7322200">
        <ele>1835.8</ele>
        <time>2014-10-01T10:13:56Z</time>
      </trkpt>
      <trkpt lat="42.3134490" lon="-6.7322950">
        <ele>1835.6</ele>
        <time>2014-10-01T10:13:57Z</time>
      </trkpt>
      <trkpt lat="42.3134200" lon="-6.7323640">
        <ele>1835.4</ele>
        <time>2014-10-01T10:13:58Z</time>
      </trkpt>
      <trkpt lat="42.3133920" lon="-6.7324430">
        <ele>1835.2</ele>
        <time>2014-10-01T10:13:59Z</time>
      </trkpt>
      <trkpt lat="42.3133670" lon="-6.7325220">
        <ele>1835.0</ele>
        <time>2014-10-01T10:14:00Z</time>
      </trkpt>
      <trkpt lat="42.3133500" lon="-6.7325980">
        <ele>1834.8</ele>
        <time>2014-10-01T10:14:01Z</time>
      </trkpt>
      <trkpt lat="42.3133380" lon="-6.7326650">
        <ele>1834.7</ele>
        <time>2014-10-01T10:14:02Z</time>
      </trkpt>
      <trkpt lat="42.3133270" lon="-6.7327190">
        <ele>1834.5</ele>
        <time>2014-10-01T10:14:03Z</time>
      </trkpt>
      <trkpt lat="42.3132910" lon="-6.7327300">
        <ele>1834.4</ele>
        <time>2014-10-01T10:14:05Z</time>
      </trkpt>
      <trkpt lat="42.3132680" lon="-6.7326560">
        <ele>1834.2</ele>
        <time>2014-10-01T10:14:07Z</time>
      </trkpt>
      <trkpt lat="42.3132560" lon="-6.7326050">
        <ele>1834.0</ele>
        <time>2014-10-01T10:14:08Z</time>
      </trkpt>
      <trkpt lat="42.3132450" lon="-6.7325540">
        <ele>1833.9</ele>
        <time>2014-10-01T10:14:09Z</time>
      </trkpt>
      <trkpt lat="42.3132350" lon="-6.7325020">
        <ele>1833.7</ele>
        <time>2014-10-01T10:14:10Z</time>
      </trkpt>
      <trkpt lat="42.3132250" lon="-6.7324580">
        <ele>1833.6</ele>
        <time>2014-10-01T10:14:11Z</time>
      </trkpt>
      <trkpt lat="42.3131950" lon="-6.7324220">
        <ele>1833.4</ele>
        <time>2014-10-01T10:14:13Z</time>
      </trkpt>
      <trkpt lat="42.3131700" lon="-6.7324000">
        <ele>1833.3</ele>
        <time>2014-10-01T10:14:15Z</time>
      </trkpt>
      <trkpt lat="42.3131980" lon="-6.7323840">
        <ele>1833.1</ele>
        <time>2014-10-01T10:14:31Z</time>
      </trkpt>
      <trkpt lat="42.3132280" lon="-6.7324080">
        <ele>1832.9</ele>
        <time>2014-10-01T10:14:33Z</time>
      </trkpt>
      <trkpt lat="42.3132260" lon="-6.7324500">
        <ele>1832.8</ele>
        <time>2014-10-01T10:14:35Z</time>
      </trkpt>
      <trkpt lat="42.3132160" lon="-6.7325110">
        <ele>1832.5</ele>
        <time>2014-10-01T10:14:37Z</time>
      </trkpt>
      <trkpt lat="42.3132100" lon="-6.7325570">
        <ele>1832.3</ele>
        <time>2014-10-01T10:14:38Z</time>
      </trkpt>
      <trkpt lat="42.3132030" lon="-6.7325970">
        <ele>1832.1</ele>
        <time>2014-10-01T10:14:39Z</time>
      </trkpt>
      <trkpt lat="42.3131970" lon="-6.7326430">
        <ele>1831.9</ele>
        <time>2014-10-01T10:14:40Z</time>
      </trkpt>
      <trkpt lat="42.3131890" lon="-6.7327080">
        <ele>1831.6</ele>
        <time>2014-10-01T10:14:41Z</time>
      </trkpt>
      <trkpt lat="42.3131820" lon="-6.7327720">
        <ele>1831.3</ele>
        <time>2014-10-01T10:14:42Z</time>
      </trkpt>
      <trkpt lat="42.3131770" lon="-6.7328310">
        <ele>1831.1</ele>
        <time>2014-10-01T10:14:43Z</time>
      </trkpt>
      <trkpt lat="42.3131720" lon="-6.7328910">
        <ele>1830.8</ele>
        <time>2014-10-01T10:14:44Z</time>
      </trkpt>
      <trkpt lat="42.3131680" lon="-6.7329450">
        <ele>1830.6</ele>
        <time>2014-10-01T10:14:45Z</time>
      </trkpt>
      <trkpt lat="42.3131630" lon="-6.7329900">
        <ele>1830.4</ele>
        <time>2014-10-01T10:14:46Z</time>
      </trkpt>
      <trkpt lat="42.3131590" lon="-6.7330290">
        <ele>1830.2</ele>
        <time>2014-10-01T10:14:47Z</time>
      </trkpt>
      <trkpt lat="42.3131700" lon="-6.7330800">
        <ele>1830.0</ele>
        <time>2014-10-01T10:14:49Z</time>
      </trkpt>
      <trkpt lat="42.3132020" lon="-6.7331190">
        <ele>1829.7</ele>
        <time>2014-10-01T10:14:51Z</time>
      </trkpt>
      <trkpt lat="42.3132250" lon="-6.7331460">
        <ele>1829.6</ele>
        <time>2014-10-01T10:14:52Z</time>
      </trkpt>
      <trkpt lat="42.3132440" lon="-6.7331860">
        <ele>1829.4</ele>
        <time>2014-10-01T10:14:54Z</time>
      </trkpt>
      <trkpt lat="42.3132580" lon="-6.7332620">
        <ele>1829.0</ele>
        <time>2014-10-01T10:14:56Z</time>
      </trkpt>
      <trkpt lat="42.3132590" lon="-6.7333140">
        <ele>1828.7</ele>
        <time>2014-10-01T10:14:57Z</time>
      </trkpt>
      <trkpt lat="42.3132600" lon="-6.7333670">
        <ele>1828.4</ele>
        <time>2014-10-01T10:14:58Z</time>
      </trkpt>
      <trkpt lat="42.3132590" lon="-6.7334300">
        <ele>1828.1</ele>
        <time>2014-10-01T10:14:59Z</time>
      </trkpt>
      <trkpt lat="42.3132560" lon="-6.7335030">
        <ele>1827.7</ele>
        <time>2014-10-01T10:15:00Z</time>
      </trkpt>
      <trkpt lat="42.3132530" lon="-6.7335860">
        <ele>1827.3</ele>
        <time>2014-10-01T10:15:01Z</time>
      </trkpt>
      <trkpt lat="42.3132500" lon="-6.7336680">
        <ele>1826.9</ele>
        <time>2014-10-01T10:15:02Z</time>
      </trkpt>
      <trkpt lat="42.3132520" lon="-6.7337400">
        <ele>1826.4</ele>
        <time>2014-10-01T10:15:03Z</time>
      </trkpt>
      <trkpt lat="42.3132560" lon="-6.7338280">
        <ele>1825.8</ele>
        <time>2014-10-01T10:15:04Z</time>
      </trkpt>
      <trkpt lat="42.3132640" lon="-6.7339230">
        <ele>1825.2</ele>
        <time>2014-10-01T10:15:05Z</time>
      </trkpt>
      <trkpt lat="42.3132770" lon="-6.7340240">
        <ele>1824.6</ele>
        <time>2014-10-01T10:15:06Z</time>
      </trkpt>
      <trkpt lat="42.3133080" lon="-6.7341330">
        <ele>1824.0</ele>
        <time>2014-10-01T10:15:07Z</time>
      </trkpt>
      <trkpt lat="42.3133360" lon="-6.7342340">
        <ele>1823.4</ele>
        <time>2014-10-01T10:15:08Z</time>
      </trkpt>
      <trkpt lat="42.3133660" lon="-6.7343330">
        <ele>1822.7</ele>
        <time>2014-10-01T10:15:09Z</time>
      </trkpt>
      <trkpt lat="42.3134030" lon="-6.7344430">
        <ele>1822.0</ele>
        <time>2014-10-01T10:15:10Z</time>
      </trkpt>
      <trkpt lat="42.3134480" lon="-6.7345470">
        <ele>1821.2</ele>
        <time>2014-10-01T10:15:11Z</time>
      </trkpt>
      <trkpt lat="42.3135010" lon="-6.7346380">
        <ele>1820.5</ele>
        <time>2014-10-01T10:15:12Z</time>
      </trkpt>
      <trkpt lat="42.3135650" lon="-6.7347100">
        <ele>1819.8</ele>
        <time>2014-10-01T10:15:13Z</time>
      </trkpt>
      <trkpt lat="42.3136200" lon="-6.7347740">
        <ele>1819.3</ele>
        <time>2014-10-01T10:15:14Z</time>
      </trkpt>
      <trkpt lat="42.3136660" lon="-6.7348280">
        <ele>1818.8</ele>
        <time>2014-10-01T10:15:15Z</time>
      </trkpt>
      <trkpt lat="42.3137110" lon="-6.7348830">
        <ele>1818.3</ele>
        <time>2014-10-01T10:15:16Z</time>
      </trkpt>
      <trkpt lat="42.3137600" lon="-6.7349350">
        <ele>1817.7</ele>
        <time>2014-10-01T10:15:17Z</time>
      </trkpt>
      <trkpt lat="42.3138110" lon="-6.7349820">
        <ele>1817.2</ele>
        <time>2014-10-01T10:15:18Z</time>
      </trkpt>
      <trkpt lat="42.3138630" lon="-6.7350230">
        <ele>1816.8</ele>
        <time>2014-10-01T10:15:19Z</time>
      </trkpt>
      <trkpt lat="42.3139190" lon="-6.7350620">
        <ele>1816.3</ele>
        <time>2014-10-01T10:15:20Z</time>
      </trkpt>
      <trkpt lat="42.3139710" lon="-6.7350940">
        <ele>1815.8</ele>
        <time>2014-10-01T10:15:21Z</time>
      </trkpt>
      <trkpt lat="42.3140150" lon="-6.7351190">
        <ele>1815.4</ele>
        <time>2014-10-01T10:15:22Z</time>
      </trkpt>
      <trkpt lat="42.3140550" lon="-6.7351400">
        <ele>1815.1</ele>
        <time>2014-10-01T10:15:23Z</time>
      </trkpt>
      <trkpt lat="42.3140920" lon="-6.7351560">
        <ele>1814.8</ele>
        <time>2014-10-01T10:15:24Z</time>
      </trkpt>
      <trkpt lat="42.3141260" lon="-6.7351670">
        <ele>1814.5</ele>
        <time>2014-10-01T10:15:25Z</time>
      </trkpt>
      <trkpt lat="42.3141610" lon="-6.7351770">
        <ele>1814.2</ele>
        <time>2014-10-01T10:15:26Z</time>
      </trkpt>
      <trkpt lat="42.3141990" lon="-6.7351860">
        <ele>1813.9</ele>
        <time>2014-10-01T10:15:27Z</time>
      </trkpt>
      <trkpt lat="42.3142460" lon="-6.7351960">
        <ele>1813.6</ele>
        <time>2014-10-01T10:15:28Z</time>
      </trkpt>
      <trkpt lat="42.3142860" lon="-6.7352050">
        <ele>1813.3</ele>
        <time>2014-10-01T10:15:29Z</time>
      </trkpt>
      <trkpt lat="42.3143330" lon="-6.7352140">
        <ele>1812.9</ele>
        <time>2014-10-01T10:15:30Z</time>
      </trkpt>
      <trkpt lat="42.3143850" lon="-6.7352270">
        <ele>1812.5</ele>
        <time>2014-10-01T10:15:31Z</time>
      </trkpt>
      <trkpt lat="42.3144460" lon="-6.7352390">
        <ele>1812.0</ele>
        <time>2014-10-01T10:15:32Z</time>
      </trkpt>
      <trkpt lat="42.3145110" lon="-6.7352490">
        <ele>1811.5</ele>
        <time>2014-10-01T10:15:33Z</time>
      </trkpt>
      <trkpt lat="42.3145850" lon="-6.7352590">
        <ele>1810.9</ele>
        <time>2014-10-01T10:15:34Z</time>
      </trkpt>
      <trkpt lat="42.3146570" lon="-6.7352700">
        <ele>1810.3</ele>
        <time>2014-10-01T10:15:35Z</time>
      </trkpt>
      <trkpt lat="42.3147270" lon="-6.7352770">
        <ele>1809.7</ele>
        <time>2014-10-01T10:15:36Z</time>
      </trkpt>
      <trkpt lat="42.3148040" lon="-6.7352860">
        <ele>1809.1</ele>
        <time>2014-10-01T10:15:37Z</time>
      </trkpt>
      <trkpt lat="42.3148900" lon="-6.7352990">
        <ele>1808.5</ele>
        <time>2014-10-01T10:15:38Z</time>
      </trkpt>
      <trkpt lat="42.3149830" lon="-6.7353070">
        <ele>1807.8</ele>
        <time>2014-10-01T10:15:39Z</time>
      </trkpt>
      <trkpt lat="42.3150830" lon="-6.7353120">
        <ele>1807.0</ele>
        <time>2014-10-01T10:15:40Z</time>
      </trkpt>
      <trkpt lat="42.3151860" lon="-6.7353100">
        <ele>1806.1</ele>
        <time>2014-10-01T10:15:41Z</time>
      </trkpt>
      <trkpt lat="42.3152950" lon="-6.7353000">
        <ele>1804.8</ele>
        <time>2014-10-01T10:15:42Z</time>
      </trkpt>
      <trkpt lat="42.3154070" lon="-6.7352850">
        <ele>1802.8</ele>
        <time>2014-10-01T10:15:43Z</time>
      </trkpt>
      <trkpt lat="42.3155190" lon="-6.7352670">
        <ele>1801.7</ele>
        <time>2014-10-01T10:15:44Z</time>
      </trkpt>
      <trkpt lat="42.3156510" lon="-6.7352300">
        <ele>1800.6</ele>
        <time>2014-10-01T10:15:45Z</time>
      </trkpt>
      <trkpt lat="42.3157740" lon="-6.7351900">
        <ele>1799.6</ele>
        <time>2014-10-01T10:15:46Z</time>
      </trkpt>
      <trkpt lat="42.3158920" lon="-6.7351480">
        <ele>1798.6</ele>
        <time>2014-10-01T10:15:47Z</time>
      </trkpt>
      <trkpt lat="42.3159930" lon="-6.7350790">
        <ele>1797.6</ele>
        <time>2014-10-01T10:15:48Z</time>
      </trkpt>
      <trkpt lat="42.3161070" lon="-6.7350150">
        <ele>1796.5</ele>
        <time>2014-10-01T10:15:49Z</time>
      </trkpt>
      <trkpt lat="42.3162170" lon="-6.7349570">
        <ele>1795.4</ele>
        <time>2014-10-01T10:15:50Z</time>
      </trkpt>
      <trkpt lat="42.3163300" lon="-6.7349090">
        <ele>1794.3</ele>
        <time>2014-10-01T10:15:51Z</time>
      </trkpt>
      <trkpt lat="42.3164560" lon="-6.7348620">
        <ele>1793.1</ele>
        <time>2014-10-01T10:15:52Z</time>
      </trkpt>
      <trkpt lat="42.3165840" lon="-6.7348250">
        <ele>1791.8</ele>
        <time>2014-10-01T10:15:53Z</time>
      </trkpt>
      <trkpt lat="42.3167070" lon="-6.7347910">
        <ele>1790.6</ele>
        <time>2014-10-01T10:15:54Z</time>
      </trkpt>
      <trkpt lat="42.3168450" lon="-6.7347560">
        <ele>1789.2</ele>
        <time>2014-10-01T10:15:55Z</time>
      </trkpt>
      <trkpt lat="42.3169920" lon="-6.7347240">
        <ele>1787.7</ele>
        <time>2014-10-01T10:15:56Z</time>
      </trkpt>
      <trkpt lat="42.3171400" lon="-6.7347010">
        <ele>1786.2</ele>
        <time>2014-10-01T10:15:57Z</time>
      </trkpt>
      <trkpt lat="42.3172930" lon="-6.7347200">
        <ele>1784.7</ele>
        <time>2014-10-01T10:15:58Z</time>
      </trkpt>
      <trkpt lat="42.3174540" lon="-6.7347410">
        <ele>1783.0</ele>
        <time>2014-10-01T10:15:59Z</time>
      </trkpt>
      <trkpt lat="42.3176040" lon="-6.7347830">
        <ele>1781.4</ele>
        <time>2014-10-01T10:16:00Z</time>
      </trkpt>
      <trkpt lat="42.3177530" lon="-6.7348290">
        <ele>1779.8</ele>
        <time>2014-10-01T10:16:01Z</time>
      </trkpt>
      <trkpt lat="42.3179000" lon="-6.7348960">
        <ele>1778.2</ele>
        <time>2014-10-01T10:16:02Z</time>
      </trkpt>
      <trkpt lat="42.3180460" lon="-6.7349700">
        <ele>1776.6</ele>
        <time>2014-10-01T10:16:03Z</time>
      </trkpt>
      <trkpt lat="42.3181910" lon="-6.7350460">
        <ele>1775.0</ele>
        <time>2014-10-01T10:16:04Z</time>
      </trkpt>
      <trkpt lat="42.3183370" lon="-6.7351240">
        <ele>1773.5</ele>
        <time>2014-10-01T10:16:05Z</time>
      </trkpt>
      <trkpt lat="42.3184790" lon="-6.7352180">
        <ele>1772.0</ele>
        <time>2014-10-01T10:16:06Z</time>
      </trkpt>
      <trkpt lat="42.3186060" lon="-6.7353610">
        <ele>1770.9</ele>
        <time>2014-10-01T10:16:07Z</time>
      </trkpt>
      <trkpt lat="42.3187440" lon="-6.7355240">
        <ele>1769.8</ele>
        <time>2014-10-01T10:16:08Z</time>
      </trkpt>
      <trkpt lat="42.3188730" lon="-6.7356930">
        <ele>1768.8</ele>
        <time>2014-10-01T10:16:09Z</time>
      </trkpt>
      <trkpt lat="42.3189790" lon="-6.7359010">
        <ele>1767.8</ele>
        <time>2014-10-01T10:16:10Z</time>
      </trkpt>
      <trkpt lat="42.3190670" lon="-6.7360920">
        <ele>1766.8</ele>
        <time>2014-10-01T10:16:11Z</time>
      </trkpt>
      <trkpt lat="42.3191470" lon="-6.7362750">
        <ele>1765.8</ele>
        <time>2014-10-01T10:16:12Z</time>
      </trkpt>
      <trkpt lat="42.3192350" lon="-6.7364640">
        <ele>1764.7</ele>
        <time>2014-10-01T10:16:13Z</time>
      </trkpt>
      <trkpt lat="42.3193140" lon="-6.7366360">
        <ele>1763.6</ele>
        <time>2014-10-01T10:16:14Z</time>
      </trkpt>
      <trkpt lat="42.3193930" lon="-6.7368140">
        <ele>1762.5</ele>
        <time>2014-10-01T10:16:15Z</time>
      </trkpt>
      <trkpt lat="42.3194750" lon="-6.7369910">
        <ele>1761.5</ele>
        <time>2014-10-01T10:16:16Z</time>
      </trkpt>
      <trkpt lat="42.3195570" lon="-6.7371690">
        <ele>1760.4</ele>
        <time>2014-10-01T10:16:17Z</time>
      </trkpt>
      <trkpt lat="42.3196450" lon="-6.7373450">
        <ele>1759.4</ele>
        <time>2014-10-01T10:16:18Z</time>
      </trkpt>
      <trkpt lat="42.3197360" lon="-6.7375160">
        <ele>1758.3</ele>
        <time>2014-10-01T10:16:19Z</time>
      </trkpt>
      <trkpt lat="42.3198240" lon="-6.7376810">
        <ele>1757.4</ele>
        <time>2014-10-01T10:16:20Z</time>
      </trkpt>
      <trkpt lat="42.3199150" lon="-6.7378410">
        <ele>1756.3</ele>
        <time>2014-10-01T10:16:21Z</time>
      </trkpt>
      <trkpt lat="42.3200030" lon="-6.7379980">
        <ele>1755.2</ele>
        <time>2014-10-01T10:16:22Z</time>
      </trkpt>
      <trkpt lat="42.3200880" lon="-6.7381580">
        <ele>1754.0</ele>
        <time>2014-10-01T10:16:23Z</time>
      </trkpt>
      <trkpt lat="42.3201680" lon="-6.7383240">
        <ele>1752.7</ele>
        <time>2014-10-01T10:16:24Z</time>
      </trkpt>
      <trkpt lat="42.3202400" lon="-6.7385010">
        <ele>1751.5</ele>
        <time>2014-10-01T10:16:25Z</time>
      </trkpt>
      <trkpt lat="42.3203070" lon="-6.7386830">
        <ele>1750.1</ele>
        <time>2014-10-01T10:16:26Z</time>
      </trkpt>
      <trkpt lat="42.3203650" lon="-6.7388660">
        <ele>1748.6</ele>
        <time>2014-10-01T10:16:27Z</time>
      </trkpt>
      <trkpt lat="42.3204170" lon="-6.7390520">
        <ele>1747.0</ele>
        <time>2014-10-01T10:16:28Z</time>
      </trkpt>
      <trkpt lat="42.3204660" lon="-6.7392410">
        <ele>1745.6</ele>
        <time>2014-10-01T10:16:29Z</time>
      </trkpt>
      <trkpt lat="42.3205100" lon="-6.7394340">
        <ele>1744.1</ele>
        <time>2014-10-01T10:16:30Z</time>
      </trkpt>
      <trkpt lat="42.3205520" lon="-6.7396350">
        <ele>1742.7</ele>
        <time>2014-10-01T10:16:31Z</time>
      </trkpt>
      <trkpt lat="42.3205900" lon="-6.7398400">
        <ele>1741.2</ele>
        <time>2014-10-01T10:16:32Z</time>
      </trkpt>
      <trkpt lat="42.3206230" lon="-6.7400650">
        <ele>1739.6</ele>
        <time>2014-10-01T10:16:33Z</time>
      </trkpt>
      <trkpt lat="42.3206460" lon="-6.7402860">
        <ele>1738.1</ele>
        <time>2014-10-01T10:16:34Z</time>
      </trkpt>
      <trkpt lat="42.3206690" lon="-6.7405150">
        <ele>1736.5</ele>
        <time>2014-10-01T10:16:35Z</time>
      </trkpt>
      <trkpt lat="42.3206920" lon="-6.7407350">
        <ele>1734.9</ele>
        <time>2014-10-01T10:16:36Z</time>
      </trkpt>
      <trkpt lat="42.3207090" lon="-6.7409590">
        <ele>1733.5</ele>
        <time>2014-10-01T10:16:37Z</time>
      </trkpt>
      <trkpt lat="42.3207210" lon="-6.7411830">
        <ele>1731.9</ele>
        <time>2014-10-01T10:16:38Z</time>
      </trkpt>
      <trkpt lat="42.3207270" lon="-6.7413980">
        <ele>1730.3</ele>
        <time>2014-10-01T10:16:39Z</time>
      </trkpt>
      <trkpt lat="42.3207290" lon="-6.7416160">
        <ele>1728.7</ele>
        <time>2014-10-01T10:16:40Z</time>
      </trkpt>
      <trkpt lat="42.3207270" lon="-6.7418430">
        <ele>1727.2</ele>
        <time>2014-10-01T10:16:41Z</time>
      </trkpt>
      <trkpt lat="42.3207230" lon="-6.7420780">
        <ele>1725.6</ele>
        <time>2014-10-01T10:16:42Z</time>
      </trkpt>
      <trkpt lat="42.3207180" lon="-6.7423140">
        <ele>1724.1</ele>
        <time>2014-10-01T10:16:43Z</time>
      </trkpt>
      <trkpt lat="42.3207150" lon="-6.7425500">
        <ele>1722.5</ele>
        <time>2014-10-01T10:16:44Z</time>
      </trkpt>
      <trkpt lat="42.3207140" lon="-6.7427830">
        <ele>1720.8</ele>
        <time>2014-10-01T10:16:45Z</time>
      </trkpt>
      <trkpt lat="42.3207200" lon="-6.7430220">
        <ele>1719.2</ele>
        <time>2014-10-01T10:16:46Z</time>
      </trkpt>
      <trkpt lat="42.3207300" lon="-6.7432590">
        <ele>1717.4</ele>
        <time>2014-10-01T10:16:47Z</time>
      </trkpt>
      <trkpt lat="42.3207470" lon="-6.7434910">
        <ele>1715.8</ele>
        <time>2014-10-01T10:16:48Z</time>
      </trkpt>
      <trkpt lat="42.3207700" lon="-6.7437180">
        <ele>1714.2</ele>
        <time>2014-10-01T10:16:49Z</time>
      </trkpt>
      <trkpt lat="42.3207980" lon="-6.7439430">
        <ele>1712.7</ele>
        <time>2014-10-01T10:16:50Z</time>
      </trkpt>
      <trkpt lat="42.3208250" lon="-6.7441730">
        <ele>1711.2</ele>
        <time>2014-10-01T10:16:51Z</time>
      </trkpt>
      <trkpt lat="42.3208600" lon="-6.7444000">
        <ele>1709.5</ele>
        <time>2014-10-01T10:16:52Z</time>
      </trkpt>
      <trkpt lat="42.3209050" lon="-6.7446290">
        <ele>1707.9</ele>
        <time>2014-10-01T10:16:53Z</time>
      </trkpt>
      <trkpt lat="42.3209570" lon="-6.7448520">
        <ele>1706.3</ele>
        <time>2014-10-01T10:16:54Z</time>
      </trkpt>
      <trkpt lat="42.3210110" lon="-6.7450740">
        <ele>1704.6</ele>
        <time>2014-10-01T10:16:55Z</time>
      </trkpt>
      <trkpt lat="42.3210640" lon="-6.7452940">
        <ele>1703.0</ele>
        <time>2014-10-01T10:16:56Z</time>
      </trkpt>
      <trkpt lat="42.3211190" lon="-6.7455080">
        <ele>1701.4</ele>
        <time>2014-10-01T10:16:57Z</time>
      </trkpt>
      <trkpt lat="42.3211720" lon="-6.7457250">
        <ele>1699.8</ele>
        <time>2014-10-01T10:16:58Z</time>
      </trkpt>
      <trkpt lat="42.3212230" lon="-6.7459470">
        <ele>1698.2</ele>
        <time>2014-10-01T10:16:59Z</time>
      </trkpt>
      <trkpt lat="42.3212730" lon="-6.7461580">
        <ele>1696.6</ele>
        <time>2014-10-01T10:17:00Z</time>
      </trkpt>
      <trkpt lat="42.3213210" lon="-6.7463760">
        <ele>1695.0</ele>
        <time>2014-10-01T10:17:01Z</time>
      </trkpt>
      <trkpt lat="42.3213690" lon="-6.7465940">
        <ele>1693.4</ele>
        <time>2014-10-01T10:17:02Z</time>
      </trkpt>
      <trkpt lat="42.3214180" lon="-6.7468170">
        <ele>1691.7</ele>
        <time>2014-10-01T10:17:03Z</time>
      </trkpt>
      <trkpt lat="42.3214730" lon="-6.7470360">
        <ele>1690.0</ele>
        <time>2014-10-01T10:17:04Z</time>
      </trkpt>
      <trkpt lat="42.3215290" lon="-6.7472570">
        <ele>1688.3</ele>
        <time>2014-10-01T10:17:05Z</time>
      </trkpt>
      <trkpt lat="42.3215870" lon="-6.7474790">
        <ele>1686.7</ele>
        <time>2014-10-01T10:17:06Z</time>
      </trkpt>
      <trkpt lat="42.3216460" lon="-6.7477010">
        <ele>1684.9</ele>
        <time>2014-10-01T10:17:07Z</time>
      </trkpt>
      <trkpt lat="42.3217040" lon="-6.7479220">
        <ele>1683.3</ele>
        <time>2014-10-01T10:17:08Z</time>
      </trkpt>
      <trkpt lat="42.3217570" lon="-6.7481410">
        <ele>1681.8</ele>
        <time>2014-10-01T10:17:09Z</time>
      </trkpt>
      <trkpt lat="42.3218100" lon="-6.7483560">
        <ele>1680.3</ele>
        <time>2014-10-01T10:17:10Z</time>
      </trkpt>
      <trkpt lat="42.3218680" lon="-6.7485790">
        <ele>1678.8</ele>
        <time>2014-10-01T10:17:11Z</time>
      </trkpt>
      <trkpt lat="42.3219330" lon="-6.7487990">
        <ele>1677.4</ele>
        <time>2014-10-01T10:17:12Z</time>
      </trkpt>
      <trkpt lat="42.3220020" lon="-6.7490040">
        <ele>1675.6</ele>
        <time>2014-10-01T10:17:13Z</time>
      </trkpt>
      <trkpt lat="42.3220740" lon="-6.7492120">
        <ele>1673.9</ele>
        <time>2014-10-01T10:17:14Z</time>
      </trkpt>
      <trkpt lat="42.3221520" lon="-6.7494190">
        <ele>1672.5</ele>
        <time>2014-10-01T10:17:15Z</time>
      </trkpt>
      <trkpt lat="42.3222350" lon="-6.7496250">
        <ele>1671.0</ele>
        <time>2014-10-01T10:17:16Z</time>
      </trkpt>
      <trkpt lat="42.3223240" lon="-6.7498320">
        <ele>1669.4</ele>
        <time>2014-10-01T10:17:17Z</time>
      </trkpt>
      <trkpt lat="42.3224190" lon="-6.7500410">
        <ele>1667.9</ele>
        <time>2014-10-01T10:17:18Z</time>
      </trkpt>
      <trkpt lat="42.3225190" lon="-6.7502430">
        <ele>1666.4</ele>
        <time>2014-10-01T10:17:19Z</time>
      </trkpt>
      <trkpt lat="42.3226280" lon="-6.7504260">
        <ele>1664.9</ele>
        <time>2014-10-01T10:17:20Z</time>
      </trkpt>
      <trkpt lat="42.3227380" lon="-6.7506090">
        <ele>1663.4</ele>
        <time>2014-10-01T10:17:21Z</time>
      </trkpt>
      <trkpt lat="42.3228520" lon="-6.7507980">
        <ele>1661.8</ele>
        <time>2014-10-01T10:17:22Z</time>
      </trkpt>
      <trkpt lat="42.3229690" lon="-6.7509800">
        <ele>1660.3</ele>
        <time>2014-10-01T10:17:23Z</time>
      </trkpt>
      <trkpt lat="42.3230920" lon="-6.7511550">
        <ele>1658.8</ele>
        <time>2014-10-01T10:17:24Z</time>
      </trkpt>
      <trkpt lat="42.3232150" lon="-6.7513080">
        <ele>1657.5</ele>
        <time>2014-10-01T10:17:25Z</time>
      </trkpt>
      <trkpt lat="42.3233520" lon="-6.7514590">
        <ele>1655.9</ele>
        <time>2014-10-01T10:17:26Z</time>
      </trkpt>
      <trkpt lat="42.3234860" lon="-6.7516090">
        <ele>1654.3</ele>
        <time>2014-10-01T10:17:27Z</time>
      </trkpt>
      <trkpt lat="42.3236210" lon="-6.7517600">
        <ele>1652.8</ele>
        <time>2014-10-01T10:17:28Z</time>
      </trkpt>
      <trkpt lat="42.3237590" lon="-6.7519130">
        <ele>1651.2</ele>
        <time>2014-10-01T10:17:29Z</time>
      </trkpt>
      <trkpt lat="42.3238870" lon="-6.7520820">
        <ele>1649.7</ele>
        <time>2014-10-01T10:17:30Z</time>
      </trkpt>
      <trkpt lat="42.3240090" lon="-6.7522550">
        <ele>1648.2</ele>
        <time>2014-10-01T10:17:31Z</time>
      </trkpt>
      <trkpt lat="42.3241170" lon="-6.7524440">
        <ele>1646.6</ele>
        <time>2014-10-01T10:17:32Z</time>
      </trkpt>
      <trkpt lat="42.3242100" lon="-6.7526470">
        <ele>1644.9</ele>
        <time>2014-10-01T10:17:33Z</time>
      </trkpt>
      <trkpt lat="42.3242910" lon="-6.7528650">
        <ele>1643.3</ele>
        <time>2014-10-01T10:17:34Z</time>
      </trkpt>
      <trkpt lat="42.3243600" lon="-6.7530900">
        <ele>1641.7</ele>
        <time>2014-10-01T10:17:35Z</time>
      </trkpt>
      <trkpt lat="42.3244180" lon="-6.7533210">
        <ele>1640.1</ele>
        <time>2014-10-01T10:17:36Z</time>
      </trkpt>
      <trkpt lat="42.3244640" lon="-6.7535600">
        <ele>1638.6</ele>
        <time>2014-10-01T10:17:37Z</time>
      </trkpt>
      <trkpt lat="42.3245010" lon="-6.7538000">
        <ele>1637.0</ele>
        <time>2014-10-01T10:17:38Z</time>
      </trkpt>
      <trkpt lat="42.3245290" lon="-6.7540470">
        <ele>1635.4</ele>
        <time>2014-10-01T10:17:39Z</time>
      </trkpt>
      <trkpt lat="42.3245480" lon="-6.7542990">
        <ele>1633.9</ele>
        <time>2014-10-01T10:17:40Z</time>
      </trkpt>
      <trkpt lat="42.3245650" lon="-6.7545450">
        <ele>1632.6</ele>
        <time>2014-10-01T10:17:41Z</time>
      </trkpt>
      <trkpt lat="42.3245810" lon="-6.7547750">
        <ele>1631.3</ele>
        <time>2014-10-01T10:17:42Z</time>
      </trkpt>
      <trkpt lat="42.3245970" lon="-6.7549820">
        <ele>1630.1</ele>
        <time>2014-10-01T10:17:43Z</time>
      </trkpt>
      <trkpt lat="42.3246200" lon="-6.7551740">
        <ele>1628.8</ele>
        <time>2014-10-01T10:17:44Z</time>
      </trkpt>
      <trkpt lat="42.3246850" lon="-6.7553590">
        <ele>1627.4</ele>
        <time>2014-10-01T10:17:45Z</time>
      </trkpt>
      <trkpt lat="42.3247540" lon="-6.7555340">
        <ele>1626.2</ele>
        <time>2014-10-01T10:17:46Z</time>
      </trkpt>
      <trkpt lat="42.3248540" lon="-6.7556760">
        <ele>1625.0</ele>
        <time>2014-10-01T10:17:47Z</time>
      </trkpt>
      <trkpt lat="42.3249620" lon="-6.7558170">
        <ele>1623.8</ele>
        <time>2014-10-01T10:17:48Z</time>
      </trkpt>
      <trkpt lat="42.3250750" lon="-6.7559620">
        <ele>1622.5</ele>
        <time>2014-10-01T10:17:49Z</time>
      </trkpt>
      <trkpt lat="42.3251800" lon="-6.7561170">
        <ele>1621.3</ele>
        <time>2014-10-01T10:17:50Z</time>
      </trkpt>
      <trkpt lat="42.3252810" lon="-6.7562910">
        <ele>1620.1</ele>
        <time>2014-10-01T10:17:51Z</time>
      </trkpt>
      <trkpt lat="42.3253650" lon="-6.7564660">
        <ele>1618.7</ele>
        <time>2014-10-01T10:17:52Z</time>
      </trkpt>
      <trkpt lat="42.3254440" lon="-6.7566530">
        <ele>1617.3</ele>
        <time>2014-10-01T10:17:53Z</time>
      </trkpt>
      <trkpt lat="42.3255130" lon="-6.7568420">
        <ele>1616.0</ele>
        <time>2014-10-01T10:17:54Z</time>
      </trkpt>
      <trkpt lat="42.3255780" lon="-6.7570310">
        <ele>1614.8</ele>
        <time>2014-10-01T10:17:55Z</time>
      </trkpt>
      <trkpt lat="42.3256400" lon="-6.7572280">
        <ele>1613.5</ele>
        <time>2014-10-01T10:17:56Z</time>
      </trkpt>
      <trkpt lat="42.3257000" lon="-6.7574270">
        <ele>1612.1</ele>
        <time>2014-10-01T10:17:57Z</time>
      </trkpt>
      <trkpt lat="42.3257610" lon="-6.7576380">
        <ele>1610.7</ele>
        <time>2014-10-01T10:17:58Z</time>
      </trkpt>
      <trkpt lat="42.3258170" lon="-6.7578470">
        <ele>1609.2</ele>
        <time>2014-10-01T10:17:59Z</time>
      </trkpt>
      <trkpt lat="42.3258690" lon="-6.7580610">
        <ele>1607.7</ele>
        <time>2014-10-01T10:18:00Z</time>
      </trkpt>
      <trkpt lat="42.3259170" lon="-6.7582690">
        <ele>1606.2</ele>
        <time>2014-10-01T10:18:01Z</time>
      </trkpt>
      <trkpt lat="42.3259630" lon="-6.7584820">
        <ele>1604.6</ele>
        <time>2014-10-01T10:18:02Z</time>
      </trkpt>
      <trkpt lat="42.3260080" lon="-6.7586980">
        <ele>1603.1</ele>
        <time>2014-10-01T10:18:03Z</time>
      </trkpt>
      <trkpt lat="42.3260510" lon="-6.7589180">
        <ele>1601.6</ele>
        <time>2014-10-01T10:18:04Z</time>
      </trkpt>
      <trkpt lat="42.3260950" lon="-6.7591430">
        <ele>1600.0</ele>
        <time>2014-10-01T10:18:05Z</time>
      </trkpt>
      <trkpt lat="42.3261340" lon="-6.7593730">
        <ele>1598.3</ele>
        <time>2014-10-01T10:18:06Z</time>
      </trkpt>
      <trkpt lat="42.3261740" lon="-6.7595970">
        <ele>1596.9</ele>
        <time>2014-10-01T10:18:07Z</time>
      </trkpt>
      <trkpt lat="42.3262170" lon="-6.7598290">
        <ele>1595.4</ele>
        <time>2014-10-01T10:18:08Z</time>
      </trkpt>
      <trkpt lat="42.3262660" lon="-6.7600650">
        <ele>1593.8</ele>
        <time>2014-10-01T10:18:09Z</time>
      </trkpt>
      <trkpt lat="42.3263260" lon="-6.7603030">
        <ele>1592.0</ele>
        <time>2014-10-01T10:18:10Z</time>
      </trkpt>
      <trkpt lat="42.3263950" lon="-6.7605280">
        <ele>1590.4</ele>
        <time>2014-10-01T10:18:11Z</time>
      </trkpt>
      <trkpt lat="42.3264830" lon="-6.7607380">
        <ele>1588.8</ele>
        <time>2014-10-01T10:18:12Z</time>
      </trkpt>
      <trkpt lat="42.3265750" lon="-6.7609410">
        <ele>1587.3</ele>
        <time>2014-10-01T10:18:13Z</time>
      </trkpt>
      <trkpt lat="42.3266640" lon="-6.7611400">
        <ele>1585.9</ele>
        <time>2014-10-01T10:18:14Z</time>
      </trkpt>
      <trkpt lat="42.3267610" lon="-6.7613340">
        <ele>1584.4</ele>
        <time>2014-10-01T10:18:15Z</time>
      </trkpt>
      <trkpt lat="42.3268720" lon="-6.7615160">
        <ele>1583.0</ele>
        <time>2014-10-01T10:18:16Z</time>
      </trkpt>
      <trkpt lat="42.3269870" lon="-6.7616890">
        <ele>1581.6</ele>
        <time>2014-10-01T10:18:17Z</time>
      </trkpt>
      <trkpt lat="42.3271050" lon="-6.7618490">
        <ele>1580.2</ele>
        <time>2014-10-01T10:18:18Z</time>
      </trkpt>
      <trkpt lat="42.3272260" lon="-6.7620070">
        <ele>1578.7</ele>
        <time>2014-10-01T10:18:19Z</time>
      </trkpt>
      <trkpt lat="42.3273540" lon="-6.7621630">
        <ele>1577.3</ele>
        <time>2014-10-01T10:18:20Z</time>
      </trkpt>
      <trkpt lat="42.3274860" lon="-6.7623210">
        <ele>1575.8</ele>
        <time>2014-10-01T10:18:21Z</time>
      </trkpt>
      <trkpt lat="42.3276240" lon="-6.7624700">
        <ele>1574.2</ele>
        <time>2014-10-01T10:18:22Z</time>
      </trkpt>
      <trkpt lat="42.3277670" lon="-6.7626210">
        <ele>1572.5</ele>
        <time>2014-10-01T10:18:23Z</time>
      </trkpt>
      <trkpt lat="42.3279090" lon="-6.7627640">
        <ele>1570.8</ele>
        <time>2014-10-01T10:18:24Z</time>
      </trkpt>
      <trkpt lat="42.3280590" lon="-6.7629010">
        <ele>1569.4</ele>
        <time>2014-10-01T10:18:25Z</time>
      </trkpt>
      <trkpt lat="42.3282120" lon="-6.7630210">
        <ele>1568.0</ele>
        <time>2014-10-01T10:18:26Z</time>
      </trkpt>
      <trkpt lat="42.3283670" lon="-6.7631250">
        <ele>1566.7</ele>
        <time>2014-10-01T10:18:27Z</time>
      </trkpt>
      <trkpt lat="42.3285380" lon="-6.7632150">
        <ele>1565.2</ele>
        <time>2014-10-01T10:18:28Z</time>
      </trkpt>
      <trkpt lat="42.3287170" lon="-6.7632330">
        <ele>1564.0</ele>
        <time>2014-10-01T10:18:29Z</time>
      </trkpt>
      <trkpt lat="42.3289010" lon="-6.7632410">
        <ele>1562.8</ele>
        <time>2014-10-01T10:18:30Z</time>
      </trkpt>
      <trkpt lat="42.3290770" lon="-6.7632000">
        <ele>1561.5</ele>
        <time>2014-10-01T10:18:31Z</time>
      </trkpt>
      <trkpt lat="42.3292470" lon="-6.7631430">
        <ele>1560.4</ele>
        <time>2014-10-01T10:18:32Z</time>
      </trkpt>
      <trkpt lat="42.3294100" lon="-6.7630800">
        <ele>1559.3</ele>
        <time>2014-10-01T10:18:33Z</time>
      </trkpt>
      <trkpt lat="42.3295860" lon="-6.7630150">
        <ele>1558.2</ele>
        <time>2014-10-01T10:18:34Z</time>
      </trkpt>
      <trkpt lat="42.3297490" lon="-6.7629360">
        <ele>1557.5</ele>
        <time>2014-10-01T10:18:35Z</time>
      </trkpt>
      <trkpt lat="42.3298800" lon="-6.7628370">
        <ele>1556.9</ele>
        <time>2014-10-01T10:18:36Z</time>
      </trkpt>
      <trkpt lat="42.3299560" lon="-6.7626460">
        <ele>1556.4</ele>
        <time>2014-10-01T10:18:37Z</time>
      </trkpt>
      <trkpt lat="42.3300210" lon="-6.7624610">
        <ele>1556.0</ele>
        <time>2014-10-01T10:18:38Z</time>
      </trkpt>
      <trkpt lat="42.3300440" lon="-6.7622750">
        <ele>1555.5</ele>
        <time>2014-10-01T10:18:39Z</time>
      </trkpt>
      <trkpt lat="42.3300580" lon="-6.7620890">
        <ele>1555.1</ele>
        <time>2014-10-01T10:18:40Z</time>
      </trkpt>
      <trkpt lat="42.3300750" lon="-6.7619100">
        <ele>1554.6</ele>
        <time>2014-10-01T10:18:41Z</time>
      </trkpt>
      <trkpt lat="42.3300980" lon="-6.7617350">
        <ele>1554.0</ele>
        <time>2014-10-01T10:18:42Z</time>
      </trkpt>
      <trkpt lat="42.3301260" lon="-6.7615490">
        <ele>1553.4</ele>
        <time>2014-10-01T10:18:43Z</time>
      </trkpt>
      <trkpt lat="42.3301520" lon="-6.7613620">
        <ele>1552.8</ele>
        <time>2014-10-01T10:18:44Z</time>
      </trkpt>
      <trkpt lat="42.3301810" lon="-6.7611910">
        <ele>1552.1</ele>
        <time>2014-10-01T10:18:45Z</time>
      </trkpt>
      <trkpt lat="42.3302070" lon="-6.7610280">
        <ele>1551.4</ele>
        <time>2014-10-01T10:18:46Z</time>
      </trkpt>
      <trkpt lat="42.3302350" lon="-6.7608650">
        <ele>1550.5</ele>
        <time>2014-10-01T10:18:47Z</time>
      </trkpt>
      <trkpt lat="42.3302630" lon="-6.7607020">
        <ele>1549.7</ele>
        <time>2014-10-01T10:18:48Z</time>
      </trkpt>
      <trkpt lat="42.3303000" lon="-6.7605380">
        <ele>1548.9</ele>
        <time>2014-10-01T10:18:49Z</time>
      </trkpt>
      <trkpt lat="42.3303420" lon="-6.7603860">
        <ele>1548.1</ele>
        <time>2014-10-01T10:18:50Z</time>
      </trkpt>
      <trkpt lat="42.3303890" lon="-6.7602400">
        <ele>1547.3</ele>
        <time>2014-10-01T10:18:51Z</time>
      </trkpt>
      <trkpt lat="42.3304380" lon="-6.7600970">
        <ele>1546.6</ele>
        <time>2014-10-01T10:18:52Z</time>
      </trkpt>
      <trkpt lat="42.3304900" lon="-6.7599550">
        <ele>1546.0</ele>
        <time>2014-10-01T10:18:53Z</time>
      </trkpt>
      <trkpt lat="42.3305410" lon="-6.7598150">
        <ele>1545.3</ele>
        <time>2014-10-01T10:18:54Z</time>
      </trkpt>
      <trkpt lat="42.3305960" lon="-6.7596740">
        <ele>1544.4</ele>
        <time>2014-10-01T10:18:55Z</time>
      </trkpt>
      <trkpt lat="42.3306730" lon="-6.7595540">
        <ele>1543.4</ele>
        <time>2014-10-01T10:18:56Z</time>
      </trkpt>
      <trkpt lat="42.3307420" lon="-6.7594590">
        <ele>1542.6</ele>
        <time>2014-10-01T10:18:57Z</time>
      </trkpt>
      <trkpt lat="42.3308460" lon="-6.7594140">
        <ele>1541.8</ele>
        <time>2014-10-01T10:18:58Z</time>
      </trkpt>
      <trkpt lat="42.3309460" lon="-6.7594330">
        <ele>1541.0</ele>
        <time>2014-10-01T10:18:59Z</time>
      </trkpt>
      <trkpt lat="42.3310530" lon="-6.7595070">
        <ele>1539.9</ele>
        <time>2014-10-01T10:19:00Z</time>
      </trkpt>
      <trkpt lat="42.3311450" lon="-6.7596270">
        <ele>1538.9</ele>
        <time>2014-10-01T10:19:01Z</time>
      </trkpt>
      <trkpt lat="42.3312450" lon="-6.7597660">
        <ele>1537.6</ele>
        <time>2014-10-01T10:19:02Z</time>
      </trkpt>
      <trkpt lat="42.3313310" lon="-6.7599110">
        <ele>1536.4</ele>
        <time>2014-10-01T10:19:03Z</time>
      </trkpt>
      <trkpt lat="42.3314060" lon="-6.7600540">
        <ele>1534.9</ele>
        <time>2014-10-01T10:19:04Z</time>
      </trkpt>
      <trkpt lat="42.3314850" lon="-6.7601970">
        <ele>1532.7</ele>
        <time>2014-10-01T10:19:05Z</time>
      </trkpt>
      <trkpt lat="42.3315650" lon="-6.7603360">
        <ele>1531.4</ele>
        <time>2014-10-01T10:19:06Z</time>
      </trkpt>
      <trkpt lat="42.3316510" lon="-6.7604800">
        <ele>1530.0</ele>
        <time>2014-10-01T10:19:07Z</time>
      </trkpt>
      <trkpt lat="42.3317390" lon="-6.7606160">
        <ele>1528.7</ele>
        <time>2014-10-01T10:19:08Z</time>
      </trkpt>
      <trkpt lat="42.3318290" lon="-6.7607460">
        <ele>1527.5</ele>
        <time>2014-10-01T10:19:09Z</time>
      </trkpt>
      <trkpt lat="42.3319310" lon="-6.7608870">
        <ele>1526.0</ele>
        <time>2014-10-01T10:19:10Z</time>
      </trkpt>
      <trkpt lat="42.3320310" lon="-6.7610220">
        <ele>1524.6</ele>
        <time>2014-10-01T10:19:11Z</time>
      </trkpt>
      <trkpt lat="42.3321340" lon="-6.7611570">
        <ele>1523.2</ele>
        <time>2014-10-01T10:19:12Z</time>
      </trkpt>
      <trkpt lat="42.3322360" lon="-6.7612870">
        <ele>1521.8</ele>
        <time>2014-10-01T10:19:13Z</time>
      </trkpt>
      <trkpt lat="42.3323420" lon="-6.7614230">
        <ele>1520.2</ele>
        <time>2014-10-01T10:19:14Z</time>
      </trkpt>
      <trkpt lat="42.3324570" lon="-6.7615740">
        <ele>1518.6</ele>
        <time>2014-10-01T10:19:15Z</time>
      </trkpt>
      <trkpt lat="42.3325710" lon="-6.7617280">
        <ele>1517.0</ele>
        <time>2014-10-01T10:19:16Z</time>
      </trkpt>
      <trkpt lat="42.3326830" lon="-6.7618890">
        <ele>1515.5</ele>
        <time>2014-10-01T10:19:17Z</time>
      </trkpt>
      <trkpt lat="42.3327910" lon="-6.7620470">
        <ele>1514.0</ele>
        <time>2014-10-01T10:19:18Z</time>
      </trkpt>
      <trkpt lat="42.3328950" lon="-6.7622110">
        <ele>1512.4</ele>
        <time>2014-10-01T10:19:19Z</time>
      </trkpt>
      <trkpt lat="42.3329950" lon="-6.7623750">
        <ele>1510.9</ele>
        <time>2014-10-01T10:19:20Z</time>
      </trkpt>
      <trkpt lat="42.3330930" lon="-6.7625360">
        <ele>1509.4</ele>
        <time>2014-10-01T10:19:21Z</time>
      </trkpt>
      <trkpt lat="42.3331930" lon="-6.7627080">
        <ele>1507.8</ele>
        <time>2014-10-01T10:19:22Z</time>
      </trkpt>
      <trkpt lat="42.3332930" lon="-6.7628800">
        <ele>1506.2</ele>
        <time>2014-10-01T10:19:23Z</time>
      </trkpt>
      <trkpt lat="42.3333940" lon="-6.7630460">
        <ele>1504.7</ele>
        <time>2014-10-01T10:19:24Z</time>
      </trkpt>
      <trkpt lat="42.3334950" lon="-6.7632120">
        <ele>1503.3</ele>
        <time>2014-10-01T10:19:25Z</time>
      </trkpt>
      <trkpt lat="42.3336060" lon="-6.7633730">
        <ele>1501.8</ele>
        <time>2014-10-01T10:19:26Z</time>
      </trkpt>
      <trkpt lat="42.3337220" lon="-6.7635180">
        <ele>1500.3</ele>
        <time>2014-10-01T10:19:27Z</time>
      </trkpt>
      <trkpt lat="42.3338650" lon="-6.7635950">
        <ele>1499.0</ele>
        <time>2014-10-01T10:19:28Z</time>
      </trkpt>
      <trkpt lat="42.3339950" lon="-6.7636100">
        <ele>1497.7</ele>
        <time>2014-10-01T10:19:29Z</time>
      </trkpt>
      <trkpt lat="42.3341310" lon="-6.7635700">
        <ele>1496.4</ele>
        <time>2014-10-01T10:19:30Z</time>
      </trkpt>
      <trkpt lat="42.3342580" lon="-6.7634880">
        <ele>1495.1</ele>
        <time>2014-10-01T10:19:31Z</time>
      </trkpt>
      <trkpt lat="42.3343840" lon="-6.7633910">
        <ele>1493.7</ele>
        <time>2014-10-01T10:19:32Z</time>
      </trkpt>
      <trkpt lat="42.3344960" lon="-6.7632590">
        <ele>1492.4</ele>
        <time>2014-10-01T10:19:33Z</time>
      </trkpt>
      <trkpt lat="42.3346020" lon="-6.7631130">
        <ele>1491.2</ele>
        <time>2014-10-01T10:19:34Z</time>
      </trkpt>
      <trkpt lat="42.3346740" lon="-6.7629410">
        <ele>1490.1</ele>
        <time>2014-10-01T10:19:35Z</time>
      </trkpt>
      <trkpt lat="42.3347420" lon="-6.7627690">
        <ele>1488.9</ele>
        <time>2014-10-01T10:19:36Z</time>
      </trkpt>
      <trkpt lat="42.3348130" lon="-6.7625910">
        <ele>1487.6</ele>
        <time>2014-10-01T10:19:37Z</time>
      </trkpt>
      <trkpt lat="42.3348930" lon="-6.7624250">
        <ele>1486.4</ele>
        <time>2014-10-01T10:19:38Z</time>
      </trkpt>
      <trkpt lat="42.3350000" lon="-6.7622990">
        <ele>1485.2</ele>
        <time>2014-10-01T10:19:39Z</time>
      </trkpt>
      <trkpt lat="42.3351030" lon="-6.7621910">
        <ele>1484.1</ele>
        <time>2014-10-01T10:19:40Z</time>
      </trkpt>
      <trkpt lat="42.3352290" lon="-6.7621300">
        <ele>1482.8</ele>
        <time>2014-10-01T10:19:41Z</time>
      </trkpt>
      <trkpt lat="42.3353620" lon="-6.7620750">
        <ele>1481.6</ele>
        <time>2014-10-01T10:19:42Z</time>
      </trkpt>
      <trkpt lat="42.3354900" lon="-6.7620370">
        <ele>1480.2</ele>
        <time>2014-10-01T10:19:43Z</time>
      </trkpt>
      <trkpt lat="42.3356240" lon="-6.7620140">
        <ele>1479.0</ele>
        <time>2014-10-01T10:19:44Z</time>
      </trkpt>
      <trkpt lat="42.3357680" lon="-6.7620000">
        <ele>1477.8</ele>
        <time>2014-10-01T10:19:45Z</time>
      </trkpt>
      <trkpt lat="42.3359180" lon="-6.7619900">
        <ele>1476.5</ele>
        <time>2014-10-01T10:19:46Z</time>
      </trkpt>
      <trkpt lat="42.3360750" lon="-6.7619810">
        <ele>1475.1</ele>
        <time>2014-10-01T10:19:47Z</time>
      </trkpt>
      <trkpt lat="42.3362350" lon="-6.7619700">
        <ele>1473.7</ele>
        <time>2014-10-01T10:19:48Z</time>
      </trkpt>
      <trkpt lat="42.3363900" lon="-6.7619660">
        <ele>1472.3</ele>
        <time>2014-10-01T10:19:49Z</time>
      </trkpt>
      <trkpt lat="42.3365480" lon="-6.7619620">
        <ele>1470.9</ele>
        <time>2014-10-01T10:19:50Z</time>
      </trkpt>
      <trkpt lat="42.3367010" lon="-6.7619670">
        <ele>1469.3</ele>
        <time>2014-10-01T10:19:51Z</time>
      </trkpt>
      <trkpt lat="42.3368530" lon="-6.7619760">
        <ele>1467.8</ele>
        <time>2014-10-01T10:19:52Z</time>
      </trkpt>
      <trkpt lat="42.3370040" lon="-6.7619890">
        <ele>1466.4</ele>
        <time>2014-10-01T10:19:53Z</time>
      </trkpt>
      <trkpt lat="42.3371540" lon="-6.7620050">
        <ele>1465.0</ele>
        <time>2014-10-01T10:19:54Z</time>
      </trkpt>
      <trkpt lat="42.3373030" lon="-6.7620220">
        <ele>1463.5</ele>
        <time>2014-10-01T10:19:55Z</time>
      </trkpt>
      <trkpt lat="42.3374540" lon="-6.7620440">
        <ele>1462.0</ele>
        <time>2014-10-01T10:19:56Z</time>
      </trkpt>
      <trkpt lat="42.3376040" lon="-6.7620760">
        <ele>1460.6</ele>
        <time>2014-10-01T10:19:57Z</time>
      </trkpt>
      <trkpt lat="42.3377510" lon="-6.7621710">
        <ele>1459.1</ele>
        <time>2014-10-01T10:19:58Z</time>
      </trkpt>
      <trkpt lat="42.3378960" lon="-6.7623150">
        <ele>1457.5</ele>
        <time>2014-10-01T10:19:59Z</time>
      </trkpt>
      <trkpt lat="42.3380250" lon="-6.7624670">
        <ele>1456.0</ele>
        <time>2014-10-01T10:20:00Z</time>
      </trkpt>
      <trkpt lat="42.3381180" lon="-6.7626550">
        <ele>1454.4</ele>
        <time>2014-10-01T10:20:01Z</time>
      </trkpt>
      <trkpt lat="42.3382130" lon="-6.7628460">
        <ele>1452.9</ele>
        <time>2014-10-01T10:20:02Z</time>
      </trkpt>
      <trkpt lat="42.3383070" lon="-6.7630240">
        <ele>1451.2</ele>
        <time>2014-10-01T10:20:03Z</time>
      </trkpt>
      <trkpt lat="42.3384060" lon="-6.7631950">
        <ele>1449.6</ele>
        <time>2014-10-01T10:20:04Z</time>
      </trkpt>
      <trkpt lat="42.3385100" lon="-6.7633540">
        <ele>1448.0</ele>
        <time>2014-10-01T10:20:05Z</time>
      </trkpt>
      <trkpt lat="42.3386230" lon="-6.7635040">
        <ele>1446.7</ele>
        <time>2014-10-01T10:20:06Z</time>
      </trkpt>
      <trkpt lat="42.3387460" lon="-6.7636480">
        <ele>1445.4</ele>
        <time>2014-10-01T10:20:07Z</time>
      </trkpt>
      <trkpt lat="42.3388760" lon="-6.7637870">
        <ele>1444.0</ele>
        <time>2014-10-01T10:20:08Z</time>
      </trkpt>
      <trkpt lat="42.3390100" lon="-6.7639180">
        <ele>1442.6</ele>
        <time>2014-10-01T10:20:09Z</time>
      </trkpt>
      <trkpt lat="42.3391510" lon="-6.7640480">
        <ele>1441.2</ele>
        <time>2014-10-01T10:20:10Z</time>
      </trkpt>
      <trkpt lat="42.3392960" lon="-6.7641700">
        <ele>1439.6</ele>
        <time>2014-10-01T10:20:11Z</time>
      </trkpt>
      <trkpt lat="42.3394450" lon="-6.7642920">
        <ele>1437.9</ele>
        <time>2014-10-01T10:20:12Z</time>
      </trkpt>
      <trkpt lat="42.3395910" lon="-6.7644070">
        <ele>1436.4</ele>
        <time>2014-10-01T10:20:13Z</time>
      </trkpt>
      <trkpt lat="42.3397350" lon="-6.7645170">
        <ele>1435.0</ele>
        <time>2014-10-01T10:20:14Z</time>
      </trkpt>
      <trkpt lat="42.3398700" lon="-6.7646210">
        <ele>1433.8</ele>
        <time>2014-10-01T10:20:15Z</time>
      </trkpt>
      <trkpt lat="42.3400070" lon="-6.7647280">
        <ele>1432.5</ele>
        <time>2014-10-01T10:20:16Z</time>
      </trkpt>
      <trkpt lat="42.3401510" lon="-6.7648340">
        <ele>1431.2</ele>
        <time>2014-10-01T10:20:17Z</time>
      </trkpt>
      <trkpt lat="42.3402830" lon="-6.7649160">
        <ele>1429.9</ele>
        <time>2014-10-01T10:20:18Z</time>
      </trkpt>
      <trkpt lat="42.3404060" lon="-6.7649810">
        <ele>1428.6</ele>
        <time>2014-10-01T10:20:19Z</time>
      </trkpt>
      <trkpt lat="42.3405150" lon="-6.7650380">
        <ele>1427.4</ele>
        <time>2014-10-01T10:20:20Z</time>
      </trkpt>
      <trkpt lat="42.3406070" lon="-6.7650920">
        <ele>1426.5</ele>
        <time>2014-10-01T10:20:21Z</time>
      </trkpt>
      <trkpt lat="42.3406770" lon="-6.7652020">
        <ele>1425.5</ele>
        <time>2014-10-01T10:20:22Z</time>
      </trkpt>
      <trkpt lat="42.3407080" lon="-6.7653270">
        <ele>1424.6</ele>
        <time>2014-10-01T10:20:23Z</time>
      </trkpt>
      <trkpt lat="42.3406890" lon="-6.7654510">
        <ele>1423.8</ele>
        <time>2014-10-01T10:20:24Z</time>
      </trkpt>
      <trkpt lat="42.3406620" lon="-6.7655860">
        <ele>1422.8</ele>
        <time>2014-10-01T10:20:25Z</time>
      </trkpt>
      <trkpt lat="42.3406270" lon="-6.7657240">
        <ele>1421.9</ele>
        <time>2014-10-01T10:20:26Z</time>
      </trkpt>
      <trkpt lat="42.3405870" lon="-6.7658680">
        <ele>1420.9</ele>
        <time>2014-10-01T10:20:27Z</time>
      </trkpt>
      <trkpt lat="42.3405400" lon="-6.7660090">
        <ele>1419.9</ele>
        <time>2014-10-01T10:20:28Z</time>
      </trkpt>
      <trkpt lat="42.3404860" lon="-6.7661550">
        <ele>1418.9</ele>
        <time>2014-10-01T10:20:29Z</time>
      </trkpt>
      <trkpt lat="42.3404310" lon="-6.7663030">
        <ele>1417.8</ele>
        <time>2014-10-01T10:20:30Z</time>
      </trkpt>
      <trkpt lat="42.3403700" lon="-6.7664550">
        <ele>1416.8</ele>
        <time>2014-10-01T10:20:31Z</time>
      </trkpt>
      <trkpt lat="42.3403040" lon="-6.7666160">
        <ele>1415.7</ele>
        <time>2014-10-01T10:20:32Z</time>
      </trkpt>
      <trkpt lat="42.3402380" lon="-6.7667790">
        <ele>1414.5</ele>
        <time>2014-10-01T10:20:33Z</time>
      </trkpt>
      <trkpt lat="42.3401730" lon="-6.7669480">
        <ele>1413.2</ele>
        <time>2014-10-01T10:20:34Z</time>
      </trkpt>
      <trkpt lat="42.3401170" lon="-6.7671190">
        <ele>1412.0</ele>
        <time>2014-10-01T10:20:35Z</time>
      </trkpt>
      <trkpt lat="42.3401000" lon="-6.7672910">
        <ele>1410.7</ele>
        <time>2014-10-01T10:20:36Z</time>
      </trkpt>
      <trkpt lat="42.3400930" lon="-6.7674640">
        <ele>1409.5</ele>
        <time>2014-10-01T10:20:37Z</time>
      </trkpt>
      <trkpt lat="42.3400990" lon="-6.7676400">
        <ele>1408.4</ele>
        <time>2014-10-01T10:20:38Z</time>
      </trkpt>
      <trkpt lat="42.3401140" lon="-6.7677990">
        <ele>1407.3</ele>
        <time>2014-10-01T10:20:39Z</time>
      </trkpt>
      <trkpt lat="42.3401230" lon="-6.7679480">
        <ele>1406.2</ele>
        <time>2014-10-01T10:20:40Z</time>
      </trkpt>
      <trkpt lat="42.3400860" lon="-6.7680430">
        <ele>1405.5</ele>
        <time>2014-10-01T10:20:41Z</time>
      </trkpt>
      <trkpt lat="42.3400120" lon="-6.7681250">
        <ele>1404.7</ele>
        <time>2014-10-01T10:20:42Z</time>
      </trkpt>
      <trkpt lat="42.3399360" lon="-6.7681370">
        <ele>1404.0</ele>
        <time>2014-10-01T10:20:43Z</time>
      </trkpt>
      <trkpt lat="42.3398640" lon="-6.7680850">
        <ele>1403.4</ele>
        <time>2014-10-01T10:20:44Z</time>
      </trkpt>
      <trkpt lat="42.3398000" lon="-6.7679890">
        <ele>1402.8</ele>
        <time>2014-10-01T10:20:45Z</time>
      </trkpt>
      <trkpt lat="42.3397410" lon="-6.7678650">
        <ele>1402.2</ele>
        <time>2014-10-01T10:20:46Z</time>
      </trkpt>
      <trkpt lat="42.3396930" lon="-6.7677420">
        <ele>1401.7</ele>
        <time>2014-10-01T10:20:47Z</time>
      </trkpt>
      <trkpt lat="42.3396490" lon="-6.7676200">
        <ele>1401.1</ele>
        <time>2014-10-01T10:20:48Z</time>
      </trkpt>
      <trkpt lat="42.3396050" lon="-6.7674970">
        <ele>1400.6</ele>
        <time>2014-10-01T10:20:49Z</time>
      </trkpt>
      <trkpt lat="42.3395640" lon="-6.7673650">
        <ele>1400.1</ele>
        <time>2014-10-01T10:20:50Z</time>
      </trkpt>
      <trkpt lat="42.3395270" lon="-6.7672310">
        <ele>1399.5</ele>
        <time>2014-10-01T10:20:51Z</time>
      </trkpt>
      <trkpt lat="42.3394950" lon="-6.7670870">
        <ele>1398.9</ele>
        <time>2014-10-01T10:20:52Z</time>
      </trkpt>
      <trkpt lat="42.3395040" lon="-6.7669280">
        <ele>1398.2</ele>
        <time>2014-10-01T10:20:53Z</time>
      </trkpt>
      <trkpt lat="42.3395190" lon="-6.7667680">
        <ele>1397.5</ele>
        <time>2014-10-01T10:20:54Z</time>
      </trkpt>
      <trkpt lat="42.3395540" lon="-6.7666250">
        <ele>1396.8</ele>
        <time>2014-10-01T10:20:55Z</time>
      </trkpt>
      <trkpt lat="42.3396220" lon="-6.7665050">
        <ele>1396.2</ele>
        <time>2014-10-01T10:20:56Z</time>
      </trkpt>
      <trkpt lat="42.3397060" lon="-6.7664120">
        <ele>1395.5</ele>
        <time>2014-10-01T10:20:57Z</time>
      </trkpt>
      <trkpt lat="42.3397500" lon="-6.7663040">
        <ele>1394.8</ele>
        <time>2014-10-01T10:20:58Z</time>
      </trkpt>
      <trkpt lat="42.3397570" lon="-6.7662060">
        <ele>1394.1</ele>
        <time>2014-10-01T10:20:59Z</time>
      </trkpt>
      <trkpt lat="42.3397220" lon="-6.7661420">
        <ele>1393.5</ele>
        <time>2014-10-01T10:21:00Z</time>
      </trkpt>
      <trkpt lat="42.3396660" lon="-6.7661100">
        <ele>1392.9</ele>
        <time>2014-10-01T10:21:01Z</time>
      </trkpt>
      <trkpt lat="42.3395960" lon="-6.7661220">
        <ele>1392.1</ele>
        <time>2014-10-01T10:21:02Z</time>
      </trkpt>
      <trkpt lat="42.3395100" lon="-6.7661650">
        <ele>1391.0</ele>
        <time>2014-10-01T10:21:03Z</time>
      </trkpt>
      <trkpt lat="42.3394400" lon="-6.7662400">
        <ele>1390.0</ele>
        <time>2014-10-01T10:21:04Z</time>
      </trkpt>
      <trkpt lat="42.3393410" lon="-6.7663220">
        <ele>1388.6</ele>
        <time>2014-10-01T10:21:05Z</time>
      </trkpt>
      <trkpt lat="42.3392540" lon="-6.7663860">
        <ele>1387.4</ele>
        <time>2014-10-01T10:21:06Z</time>
      </trkpt>
      <trkpt lat="42.3391460" lon="-6.7664270">
        <ele>1386.0</ele>
        <time>2014-10-01T10:21:07Z</time>
      </trkpt>
      <trkpt lat="42.3390360" lon="-6.7664640">
        <ele>1384.6</ele>
        <time>2014-10-01T10:21:08Z</time>
      </trkpt>
      <trkpt lat="42.3389090" lon="-6.7665010">
        <ele>1383.0</ele>
        <time>2014-10-01T10:21:09Z</time>
      </trkpt>
      <trkpt lat="42.3387780" lon="-6.7665410">
        <ele>1381.2</ele>
        <time>2014-10-01T10:21:10Z</time>
      </trkpt>
      <trkpt lat="42.3386460" lon="-6.7665930">
        <ele>1379.4</ele>
        <time>2014-10-01T10:21:11Z</time>
      </trkpt>
      <trkpt lat="42.3384940" lon="-6.7666770">
        <ele>1377.1</ele>
        <time>2014-10-01T10:21:12Z</time>
      </trkpt>
      <trkpt lat="42.3383630" lon="-6.7667930">
        <ele>1374.9</ele>
        <time>2014-10-01T10:21:13Z</time>
      </trkpt>
      <trkpt lat="42.3382360" lon="-6.7669130">
        <ele>1372.9</ele>
        <time>2014-10-01T10:21:14Z</time>
      </trkpt>
      <trkpt lat="42.3381020" lon="-6.7670440">
        <ele>1371.0</ele>
        <time>2014-10-01T10:21:15Z</time>
      </trkpt>
      <trkpt lat="42.3379670" lon="-6.7671720">
        <ele>1369.2</ele>
        <time>2014-10-01T10:21:16Z</time>
      </trkpt>
      <trkpt lat="42.3378360" lon="-6.7673090">
        <ele>1367.1</ele>
        <time>2014-10-01T10:21:17Z</time>
      </trkpt>
      <trkpt lat="42.3377140" lon="-6.7674560">
        <ele>1365.4</ele>
        <time>2014-10-01T10:21:18Z</time>
      </trkpt>
      <trkpt lat="42.3375840" lon="-6.7676310">
        <ele>1363.4</ele>
        <time>2014-10-01T10:21:19Z</time>
      </trkpt>
      <trkpt lat="42.3374660" lon="-6.7678290">
        <ele>1361.3</ele>
        <time>2014-10-01T10:21:20Z</time>
      </trkpt>
      <trkpt lat="42.3374000" lon="-6.7680480">
        <ele>1359.5</ele>
        <time>2014-10-01T10:21:21Z</time>
      </trkpt>
      <trkpt lat="42.3373340" lon="-6.7682610">
        <ele>1357.7</ele>
        <time>2014-10-01T10:21:22Z</time>
      </trkpt>
      <trkpt lat="42.3372630" lon="-6.7684750">
        <ele>1355.7</ele>
        <time>2014-10-01T10:21:23Z</time>
      </trkpt>
      <trkpt lat="42.3372320" lon="-6.7686710">
        <ele>1354.1</ele>
        <time>2014-10-01T10:21:24Z</time>
      </trkpt>
      <trkpt lat="42.3372100" lon="-6.7688740">
        <ele>1352.5</ele>
        <time>2014-10-01T10:21:25Z</time>
      </trkpt>
      <trkpt lat="42.3372190" lon="-6.7690990">
        <ele>1350.7</ele>
        <time>2014-10-01T10:21:26Z</time>
      </trkpt>
      <trkpt lat="42.3372330" lon="-6.7693220">
        <ele>1348.9</ele>
        <time>2014-10-01T10:21:27Z</time>
      </trkpt>
      <trkpt lat="42.3372760" lon="-6.7695470">
        <ele>1347.0</ele>
        <time>2014-10-01T10:21:28Z</time>
      </trkpt>
      <trkpt lat="42.3373260" lon="-6.7697730">
        <ele>1344.9</ele>
        <time>2014-10-01T10:21:29Z</time>
      </trkpt>
      <trkpt lat="42.3373850" lon="-6.7700090">
        <ele>1342.6</ele>
        <time>2014-10-01T10:21:30Z</time>
      </trkpt>
      <trkpt lat="42.3374430" lon="-6.7702330">
        <ele>1340.2</ele>
        <time>2014-10-01T10:21:31Z</time>
      </trkpt>
      <trkpt lat="42.3374860" lon="-6.7704550">
        <ele>1337.9</ele>
        <time>2014-10-01T10:21:32Z</time>
      </trkpt>
      <trkpt lat="42.3375010" lon="-6.7706790">
        <ele>1335.7</ele>
        <time>2014-10-01T10:21:33Z</time>
      </trkpt>
      <trkpt lat="42.3375060" lon="-6.7709000">
        <ele>1333.6</ele>
        <time>2014-10-01T10:21:34Z</time>
      </trkpt>
      <trkpt lat="42.3375150" lon="-6.7711300">
        <ele>1331.5</ele>
        <time>2014-10-01T10:21:35Z</time>
      </trkpt>
      <trkpt lat="42.3375310" lon="-6.7713740">
        <ele>1329.3</ele>
        <time>2014-10-01T10:21:36Z</time>
      </trkpt>
      <trkpt lat="42.3375550" lon="-6.7716210">
        <ele>1326.8</ele>
        <time>2014-10-01T10:21:37Z</time>
      </trkpt>
      <trkpt lat="42.3375670" lon="-6.7718660">
        <ele>1324.6</ele>
        <time>2014-10-01T10:21:38Z</time>
      </trkpt>
      <trkpt lat="42.3375470" lon="-6.7721100">
        <ele>1322.6</ele>
        <time>2014-10-01T10:21:39Z</time>
      </trkpt>
      <trkpt lat="42.3375040" lon="-6.7723380">
        <ele>1320.7</ele>
        <time>2014-10-01T10:21:40Z</time>
      </trkpt>
      <trkpt lat="42.3374400" lon="-6.7725540">
        <ele>1318.6</ele>
        <time>2014-10-01T10:21:41Z</time>
      </trkpt>
      <trkpt lat="42.3373570" lon="-6.7727630">
        <ele>1316.6</ele>
        <time>2014-10-01T10:21:42Z</time>
      </trkpt>
      <trkpt lat="42.3372790" lon="-6.7729760">
        <ele>1314.6</ele>
        <time>2014-10-01T10:21:43Z</time>
      </trkpt>
      <trkpt lat="42.3372080" lon="-6.7731930">
        <ele>1312.8</ele>
        <time>2014-10-01T10:21:44Z</time>
      </trkpt>
      <trkpt lat="42.3371420" lon="-6.7734280">
        <ele>1310.9</ele>
        <time>2014-10-01T10:21:45Z</time>
      </trkpt>
      <trkpt lat="42.3370910" lon="-6.7736660">
        <ele>1309.0</ele>
        <time>2014-10-01T10:21:46Z</time>
      </trkpt>
      <trkpt lat="42.3370380" lon="-6.7738980">
        <ele>1307.2</ele>
        <time>2014-10-01T10:21:47Z</time>
      </trkpt>
      <trkpt lat="42.3369870" lon="-6.7741320">
        <ele>1305.4</ele>
        <time>2014-10-01T10:21:48Z</time>
      </trkpt>
      <trkpt lat="42.3369470" lon="-6.7743630">
        <ele>1303.6</ele>
        <time>2014-10-01T10:21:49Z</time>
      </trkpt>
      <trkpt lat="42.3369100" lon="-6.7745920">
        <ele>1301.7</ele>
        <time>2014-10-01T10:21:50Z</time>
      </trkpt>
      <trkpt lat="42.3368740" lon="-6.7748240">
        <ele>1299.6</ele>
        <time>2014-10-01T10:21:51Z</time>
      </trkpt>
      <trkpt lat="42.3368430" lon="-6.7750630">
        <ele>1297.7</ele>
        <time>2014-10-01T10:21:52Z</time>
      </trkpt>
      <trkpt lat="42.3368170" lon="-6.7753010">
        <ele>1295.8</ele>
        <time>2014-10-01T10:21:53Z</time>
      </trkpt>
      <trkpt lat="42.3367970" lon="-6.7755450">
        <ele>1293.6</ele>
        <time>2014-10-01T10:21:54Z</time>
      </trkpt>
      <trkpt lat="42.3367830" lon="-6.7757910">
        <ele>1291.6</ele>
        <time>2014-10-01T10:21:55Z</time>
      </trkpt>
      <trkpt lat="42.3367670" lon="-6.7760410">
        <ele>1289.7</ele>
        <time>2014-10-01T10:21:56Z</time>
      </trkpt>
      <trkpt lat="42.3367580" lon="-6.7762800">
        <ele>1287.8</ele>
        <time>2014-10-01T10:21:57Z</time>
      </trkpt>
      <trkpt lat="42.3367560" lon="-6.7765200">
        <ele>1285.8</ele>
        <time>2014-10-01T10:21:58Z</time>
      </trkpt>
      <trkpt lat="42.3367550" lon="-6.7767580">
        <ele>1283.9</ele>
        <time>2014-10-01T10:21:59Z</time>
      </trkpt>
      <trkpt lat="42.3367550" lon="-6.7770000">
        <ele>1281.8</ele>
        <time>2014-10-01T10:22:00Z</time>
      </trkpt>
      <trkpt lat="42.3367550" lon="-6.7772460">
        <ele>1279.7</ele>
        <time>2014-10-01T10:22:01Z</time>
      </trkpt>
      <trkpt lat="42.3367520" lon="-6.7775060">
        <ele>1277.4</ele>
        <time>2014-10-01T10:22:02Z</time>
      </trkpt>
      <trkpt lat="42.3367490" lon="-6.7777570">
        <ele>1275.2</ele>
        <time>2014-10-01T10:22:03Z</time>
      </trkpt>
      <trkpt lat="42.3367450" lon="-6.7779960">
        <ele>1273.3</ele>
        <time>2014-10-01T10:22:04Z</time>
      </trkpt>
      <trkpt lat="42.3367330" lon="-6.7782330">
        <ele>1271.3</ele>
        <time>2014-10-01T10:22:05Z</time>
      </trkpt>
      <trkpt lat="42.3367110" lon="-6.7784720">
        <ele>1269.7</ele>
        <time>2014-10-01T10:22:06Z</time>
      </trkpt>
      <trkpt lat="42.3366760" lon="-6.7787110">
        <ele>1268.2</ele>
        <time>2014-10-01T10:22:07Z</time>
      </trkpt>
      <trkpt lat="42.3366310" lon="-6.7789460">
        <ele>1267.2</ele>
        <time>2014-10-01T10:22:08Z</time>
      </trkpt>
      <trkpt lat="42.3365840" lon="-6.7791670">
        <ele>1266.4</ele>
        <time>2014-10-01T10:22:09Z</time>
      </trkpt>
      <trkpt lat="42.3365430" lon="-6.7793580">
        <ele>1265.7</ele>
        <time>2014-10-01T10:22:10Z</time>
      </trkpt>
      <trkpt lat="42.3365070" lon="-6.7795230">
        <ele>1265.2</ele>
        <time>2014-10-01T10:22:11Z</time>
      </trkpt>
      <trkpt lat="42.3364780" lon="-6.7796820">
        <ele>1264.6</ele>
        <time>2014-10-01T10:22:12Z</time>
      </trkpt>
      <trkpt lat="42.3364470" lon="-6.7798350">
        <ele>1264.0</ele>
        <time>2014-10-01T10:22:13Z</time>
      </trkpt>
      <trkpt lat="42.3364150" lon="-6.7799930">
        <ele>1263.5</ele>
        <time>2014-10-01T10:22:14Z</time>
      </trkpt>
      <trkpt lat="42.3363790" lon="-6.7801500">
        <ele>1262.9</ele>
        <time>2014-10-01T10:22:15Z</time>
      </trkpt>
      <trkpt lat="42.3363440" lon="-6.7802980">
        <ele>1262.4</ele>
        <time>2014-10-01T10:22:16Z</time>
      </trkpt>
      <trkpt lat="42.3363140" lon="-6.7804490">
        <ele>1261.9</ele>
        <time>2014-10-01T10:22:17Z</time>
      </trkpt>
      <trkpt lat="42.3362840" lon="-6.7806160">
        <ele>1261.4</ele>
        <time>2014-10-01T10:22:18Z</time>
      </trkpt>
      <trkpt lat="42.3362810" lon="-6.7807810">
        <ele>1260.8</ele>
        <time>2014-10-01T10:22:19Z</time>
      </trkpt>
      <trkpt lat="42.3362790" lon="-6.7809460">
        <ele>1260.1</ele>
        <time>2014-10-01T10:22:20Z</time>
      </trkpt>
      <trkpt lat="42.3362880" lon="-6.7811110">
        <ele>1259.4</ele>
        <time>2014-10-01T10:22:21Z</time>
      </trkpt>
      <trkpt lat="42.3363050" lon="-6.7812650">
        <ele>1258.7</ele>
        <time>2014-10-01T10:22:22Z</time>
      </trkpt>
      <trkpt lat="42.3363280" lon="-6.7814220">
        <ele>1258.0</ele>
        <time>2014-10-01T10:22:23Z</time>
      </trkpt>
      <trkpt lat="42.3363560" lon="-6.7815790">
        <ele>1257.2</ele>
        <time>2014-10-01T10:22:24Z</time>
      </trkpt>
      <trkpt lat="42.3363920" lon="-6.7817380">
        <ele>1256.5</ele>
        <time>2014-10-01T10:22:25Z</time>
      </trkpt>
      <trkpt lat="42.3364550" lon="-6.7818840">
        <ele>1255.6</ele>
        <time>2014-10-01T10:22:26Z</time>
      </trkpt>
      <trkpt lat="42.3365230" lon="-6.7820260">
        <ele>1254.7</ele>
        <time>2014-10-01T10:22:27Z</time>
      </trkpt>
      <trkpt lat="42.3365920" lon="-6.7821570">
        <ele>1253.8</ele>
        <time>2014-10-01T10:22:28Z</time>
      </trkpt>
      <trkpt lat="42.3366890" lon="-6.7822600">
        <ele>1252.8</ele>
        <time>2014-10-01T10:22:29Z</time>
      </trkpt>
      <trkpt lat="42.3367860" lon="-6.7823560">
        <ele>1251.9</ele>
        <time>2014-10-01T10:22:30Z</time>
      </trkpt>
      <trkpt lat="42.3368840" lon="-6.7824390">
        <ele>1251.0</ele>
        <time>2014-10-01T10:22:31Z</time>
      </trkpt>
      <trkpt lat="42.3369970" lon="-6.7824810">
        <ele>1250.0</ele>
        <time>2014-10-01T10:22:32Z</time>
      </trkpt>
      <trkpt lat="42.3371100" lon="-6.7825170">
        <ele>1249.1</ele>
        <time>2014-10-01T10:22:33Z</time>
      </trkpt>
      <trkpt lat="42.3372250" lon="-6.7825510">
        <ele>1248.2</ele>
        <time>2014-10-01T10:22:34Z</time>
      </trkpt>
      <trkpt lat="42.3373490" lon="-6.7825890">
        <ele>1247.2</ele>
        <time>2014-10-01T10:22:35Z</time>
      </trkpt>
      <trkpt lat="42.3374810" lon="-6.7826340">
        <ele>1246.2</ele>
        <time>2014-10-01T10:22:36Z</time>
      </trkpt>
      <trkpt lat="42.3376190" lon="-6.7826930">
        <ele>1245.0</ele>
        <time>2014-10-01T10:22:37Z</time>
      </trkpt>
      <trkpt lat="42.3377370" lon="-6.7827910">
        <ele>1243.9</ele>
        <time>2014-10-01T10:22:38Z</time>
      </trkpt>
      <trkpt lat="42.3378630" lon="-6.7828970">
        <ele>1242.7</ele>
        <time>2014-10-01T10:22:39Z</time>
      </trkpt>
      <trkpt lat="42.3379790" lon="-6.7830040">
        <ele>1241.5</ele>
        <time>2014-10-01T10:22:40Z</time>
      </trkpt>
      <trkpt lat="42.3380920" lon="-6.7831120">
        <ele>1240.4</ele>
        <time>2014-10-01T10:22:41Z</time>
      </trkpt>
      <trkpt lat="42.3382030" lon="-6.7832180">
        <ele>1239.3</ele>
        <time>2014-10-01T10:22:42Z</time>
      </trkpt>
      <trkpt lat="42.3383130" lon="-6.7833240">
        <ele>1238.2</ele>
        <time>2014-10-01T10:22:43Z</time>
      </trkpt>
      <trkpt lat="42.3384240" lon="-6.7834320">
        <ele>1237.1</ele>
        <time>2014-10-01T10:22:44Z</time>
      </trkpt>
      <trkpt lat="42.3385360" lon="-6.7835350">
        <ele>1236.0</ele>
        <time>2014-10-01T10:22:45Z</time>
      </trkpt>
      <trkpt lat="42.3386500" lon="-6.7836420">
        <ele>1234.9</ele>
        <time>2014-10-01T10:22:46Z</time>
      </trkpt>
      <trkpt lat="42.3387610" lon="-6.7837530">
        <ele>1233.9</ele>
        <time>2014-10-01T10:22:47Z</time>
      </trkpt>
      <trkpt lat="42.3388670" lon="-6.7838700">
        <ele>1232.9</ele>
        <time>2014-10-01T10:22:48Z</time>
      </trkpt>
      <trkpt lat="42.3389670" lon="-6.7840030">
        <ele>1231.9</ele>
        <time>2014-10-01T10:22:49Z</time>
      </trkpt>
      <trkpt lat="42.3390540" lon="-6.7841400">
        <ele>1231.2</ele>
        <time>2014-10-01T10:22:50Z</time>
      </trkpt>
      <trkpt lat="42.3391400" lon="-6.7842870">
        <ele>1230.4</ele>
        <time>2014-10-01T10:22:51Z</time>
      </trkpt>
      <trkpt lat="42.3392140" lon="-6.7844170">
        <ele>1229.6</ele>
        <time>2014-10-01T10:22:52Z</time>
      </trkpt>
      <trkpt lat="42.3392900" lon="-6.7845460">
        <ele>1228.8</ele>
        <time>2014-10-01T10:22:53Z</time>
      </trkpt>
      <trkpt lat="42.3393850" lon="-6.7846300">
        <ele>1228.0</ele>
        <time>2014-10-01T10:22:54Z</time>
      </trkpt>
      <trkpt lat="42.3394930" lon="-6.7846820">
        <ele>1227.1</ele>
        <time>2014-10-01T10:22:55Z</time>
      </trkpt>
      <trkpt lat="42.3396070" lon="-6.7847010">
        <ele>1226.2</ele>
        <time>2014-10-01T10:22:56Z</time>
      </trkpt>
      <trkpt lat="42.3397130" lon="-6.7847080">
        <ele>1225.3</ele>
        <time>2014-10-01T10:22:57Z</time>
      </trkpt>
      <trkpt lat="42.3398340" lon="-6.7846980">
        <ele>1224.3</ele>
        <time>2014-10-01T10:22:58Z</time>
      </trkpt>
      <trkpt lat="42.3399410" lon="-6.7846790">
        <ele>1223.3</ele>
        <time>2014-10-01T10:22:59Z</time>
      </trkpt>
      <trkpt lat="42.3400510" lon="-6.7846540">
        <ele>1222.4</ele>
        <time>2014-10-01T10:23:00Z</time>
      </trkpt>
      <trkpt lat="42.3401710" lon="-6.7846110">
        <ele>1221.4</ele>
        <time>2014-10-01T10:23:01Z</time>
      </trkpt>
      <trkpt lat="42.3402770" lon="-6.7845700">
        <ele>1220.5</ele>
        <time>2014-10-01T10:23:02Z</time>
      </trkpt>
      <trkpt lat="42.3403980" lon="-6.7845370">
        <ele>1219.6</ele>
        <time>2014-10-01T10:23:03Z</time>
      </trkpt>
      <trkpt lat="42.3405110" lon="-6.7845460">
        <ele>1218.7</ele>
        <time>2014-10-01T10:23:04Z</time>
      </trkpt>
      <trkpt lat="42.3406270" lon="-6.7845970">
        <ele>1217.8</ele>
        <time>2014-10-01T10:23:05Z</time>
      </trkpt>
      <trkpt lat="42.3407220" lon="-6.7846940">
        <ele>1216.9</ele>
        <time>2014-10-01T10:23:06Z</time>
      </trkpt>
      <trkpt lat="42.3407860" lon="-6.7848220">
        <ele>1216.2</ele>
        <time>2014-10-01T10:23:07Z</time>
      </trkpt>
      <trkpt lat="42.3408120" lon="-6.7849700">
        <ele>1215.3</ele>
        <time>2014-10-01T10:23:08Z</time>
      </trkpt>
      <trkpt lat="42.3408040" lon="-6.7851300">
        <ele>1214.4</ele>
        <time>2014-10-01T10:23:09Z</time>
      </trkpt>
      <trkpt lat="42.3407890" lon="-6.7852860">
        <ele>1213.5</ele>
        <time>2014-10-01T10:23:10Z</time>
      </trkpt>
      <trkpt lat="42.3407680" lon="-6.7854480">
        <ele>1212.6</ele>
        <time>2014-10-01T10:23:11Z</time>
      </trkpt>
      <trkpt lat="42.3407410" lon="-6.7856100">
        <ele>1211.6</ele>
        <time>2014-10-01T10:23:12Z</time>
      </trkpt>
      <trkpt lat="42.3407140" lon="-6.7857660">
        <ele>1210.7</ele>
        <time>2014-10-01T10:23:13Z</time>
      </trkpt>
      <trkpt lat="42.3406880" lon="-6.7859320">
        <ele>1209.8</ele>
        <time>2014-10-01T10:23:14Z</time>
      </trkpt>
      <trkpt lat="42.3406600" lon="-6.7860960">
        <ele>1208.9</ele>
        <time>2014-10-01T10:23:15Z</time>
      </trkpt>
      <trkpt lat="42.3406330" lon="-6.7862570">
        <ele>1208.0</ele>
        <time>2014-10-01T10:23:16Z</time>
      </trkpt>
      <trkpt lat="42.3406110" lon="-6.7864220">
        <ele>1207.2</ele>
        <time>2014-10-01T10:23:17Z</time>
      </trkpt>
      <trkpt lat="42.3405930" lon="-6.7865950">
        <ele>1206.3</ele>
        <time>2014-10-01T10:23:18Z</time>
      </trkpt>
      <trkpt lat="42.3405850" lon="-6.7867650">
        <ele>1205.4</ele>
        <time>2014-10-01T10:23:19Z</time>
      </trkpt>
      <trkpt lat="42.3405870" lon="-6.7869370">
        <ele>1204.6</ele>
        <time>2014-10-01T10:23:20Z</time>
      </trkpt>
      <trkpt lat="42.3406180" lon="-6.7871170">
        <ele>1203.6</ele>
        <time>2014-10-01T10:23:21Z</time>
      </trkpt>
      <trkpt lat="42.3406500" lon="-6.7872990">
        <ele>1202.6</ele>
        <time>2014-10-01T10:23:22Z</time>
      </trkpt>
      <trkpt lat="42.3407080" lon="-6.7874590">
        <ele>1201.6</ele>
        <time>2014-10-01T10:23:23Z</time>
      </trkpt>
      <trkpt lat="42.3407670" lon="-6.7876190">
        <ele>1200.6</ele>
        <time>2014-10-01T10:23:24Z</time>
      </trkpt>
      <trkpt lat="42.3408380" lon="-6.7877760">
        <ele>1199.6</ele>
        <time>2014-10-01T10:23:25Z</time>
      </trkpt>
      <trkpt lat="42.3409340" lon="-6.7879100">
        <ele>1198.6</ele>
        <time>2014-10-01T10:23:26Z</time>
      </trkpt>
      <trkpt lat="42.3410330" lon="-6.7880370">
        <ele>1197.5</ele>
        <time>2014-10-01T10:23:27Z</time>
      </trkpt>
      <trkpt lat="42.3411370" lon="-6.7881560">
        <ele>1196.4</ele>
        <time>2014-10-01T10:23:28Z</time>
      </trkpt>
      <trkpt lat="42.3412440" lon="-6.7882650">
        <ele>1195.4</ele>
        <time>2014-10-01T10:23:29Z</time>
      </trkpt>
      <trkpt lat="42.3413570" lon="-6.7883650">
        <ele>1194.4</ele>
        <time>2014-10-01T10:23:30Z</time>
      </trkpt>
      <trkpt lat="42.3414720" lon="-6.7884580">
        <ele>1193.3</ele>
        <time>2014-10-01T10:23:31Z</time>
      </trkpt>
      <trkpt lat="42.3415900" lon="-6.7885500">
        <ele>1192.2</ele>
        <time>2014-10-01T10:23:32Z</time>
      </trkpt>
      <trkpt lat="42.3417070" lon="-6.7886410">
        <ele>1191.1</ele>
        <time>2014-10-01T10:23:33Z</time>
      </trkpt>
      <trkpt lat="42.3418270" lon="-6.7887410">
        <ele>1190.0</ele>
        <time>2014-10-01T10:23:34Z</time>
      </trkpt>
      <trkpt lat="42.3419480" lon="-6.7888310">
        <ele>1189.0</ele>
        <time>2014-10-01T10:23:35Z</time>
      </trkpt>
      <trkpt lat="42.3420720" lon="-6.7889190">
        <ele>1187.9</ele>
        <time>2014-10-01T10:23:36Z</time>
      </trkpt>
      <trkpt lat="42.3421980" lon="-6.7890030">
        <ele>1186.8</ele>
        <time>2014-10-01T10:23:37Z</time>
      </trkpt>
      <trkpt lat="42.3423190" lon="-6.7890740">
        <ele>1185.7</ele>
        <time>2014-10-01T10:23:38Z</time>
      </trkpt>
      <trkpt lat="42.3424320" lon="-6.7891280">
        <ele>1184.8</ele>
        <time>2014-10-01T10:23:39Z</time>
      </trkpt>
      <trkpt lat="42.3425510" lon="-6.7891770">
        <ele>1183.7</ele>
        <time>2014-10-01T10:23:40Z</time>
      </trkpt>
      <trkpt lat="42.3426870" lon="-6.7892360">
        <ele>1182.6</ele>
        <time>2014-10-01T10:23:41Z</time>
      </trkpt>
      <trkpt lat="42.3428290" lon="-6.7892990">
        <ele>1181.5</ele>
        <time>2014-10-01T10:23:42Z</time>
      </trkpt>
      <trkpt lat="42.3429700" lon="-6.7893610">
        <ele>1180.4</ele>
        <time>2014-10-01T10:23:43Z</time>
      </trkpt>
      <trkpt lat="42.3431170" lon="-6.7894240">
        <ele>1179.2</ele>
        <time>2014-10-01T10:23:44Z</time>
      </trkpt>
      <trkpt lat="42.3432580" lon="-6.7894920">
        <ele>1178.1</ele>
        <time>2014-10-01T10:23:45Z</time>
      </trkpt>
      <trkpt lat="42.3433810" lon="-6.7895970">
        <ele>1177.0</ele>
        <time>2014-10-01T10:23:46Z</time>
      </trkpt>
      <trkpt lat="42.3435110" lon="-6.7897170">
        <ele>1175.7</ele>
        <time>2014-10-01T10:23:47Z</time>
      </trkpt>
      <trkpt lat="42.3436300" lon="-6.7898410">
        <ele>1174.5</ele>
        <time>2014-10-01T10:23:48Z</time>
      </trkpt>
      <trkpt lat="42.3437200" lon="-6.7899820">
        <ele>1173.4</ele>
        <time>2014-10-01T10:23:49Z</time>
      </trkpt>
      <trkpt lat="42.3437710" lon="-6.7901330">
        <ele>1172.5</ele>
        <time>2014-10-01T10:23:50Z</time>
      </trkpt>
      <trkpt lat="42.3437980" lon="-6.7902990">
        <ele>1171.6</ele>
        <time>2014-10-01T10:23:51Z</time>
      </trkpt>
      <trkpt lat="42.3438180" lon="-6.7904790">
        <ele>1170.5</ele>
        <time>2014-10-01T10:23:52Z</time>
      </trkpt>
      <trkpt lat="42.3438260" lon="-6.7906580">
        <ele>1169.5</ele>
        <time>2014-10-01T10:23:53Z</time>
      </trkpt>
      <trkpt lat="42.3438210" lon="-6.7908320">
        <ele>1168.5</ele>
        <time>2014-10-01T10:23:54Z</time>
      </trkpt>
      <trkpt lat="42.3438140" lon="-6.7909980">
        <ele>1167.6</ele>
        <time>2014-10-01T10:23:55Z</time>
      </trkpt>
      <trkpt lat="42.3438020" lon="-6.7911750">
        <ele>1166.8</ele>
        <time>2014-10-01T10:23:56Z</time>
      </trkpt>
      <trkpt lat="42.3437880" lon="-6.7913550">
        <ele>1165.9</ele>
        <time>2014-10-01T10:23:57Z</time>
      </trkpt>
      <trkpt lat="42.3437710" lon="-6.7915370">
        <ele>1164.9</ele>
        <time>2014-10-01T10:23:58Z</time>
      </trkpt>
      <trkpt lat="42.3437550" lon="-6.7917310">
        <ele>1163.9</ele>
        <time>2014-10-01T10:23:59Z</time>
      </trkpt>
      <trkpt lat="42.3437420" lon="-6.7919160">
        <ele>1162.8</ele>
        <time>2014-10-01T10:24:00Z</time>
      </trkpt>
      <trkpt lat="42.3437360" lon="-6.7921040">
        <ele>1161.8</ele>
        <time>2014-10-01T10:24:01Z</time>
      </trkpt>
      <trkpt lat="42.3437390" lon="-6.7922970">
        <ele>1160.8</ele>
        <time>2014-10-01T10:24:02Z</time>
      </trkpt>
      <trkpt lat="42.3437520" lon="-6.7924910">
        <ele>1159.8</ele>
        <time>2014-10-01T10:24:03Z</time>
      </trkpt>
      <trkpt lat="42.3437700" lon="-6.7926800">
        <ele>1158.7</ele>
        <time>2014-10-01T10:24:04Z</time>
      </trkpt>
      <trkpt lat="42.3438000" lon="-6.7928730">
        <ele>1157.7</ele>
        <time>2014-10-01T10:24:05Z</time>
      </trkpt>
      <trkpt lat="42.3438390" lon="-6.7930670">
        <ele>1156.5</ele>
        <time>2014-10-01T10:24:06Z</time>
      </trkpt>
      <trkpt lat="42.3438810" lon="-6.7932340">
        <ele>1155.4</ele>
        <time>2014-10-01T10:24:07Z</time>
      </trkpt>
      <trkpt lat="42.3439290" lon="-6.7934180">
        <ele>1154.2</ele>
        <time>2014-10-01T10:24:08Z</time>
      </trkpt>
      <trkpt lat="42.3439840" lon="-6.7936030">
        <ele>1153.1</ele>
        <time>2014-10-01T10:24:09Z</time>
      </trkpt>
      <trkpt lat="42.3440410" lon="-6.7937810">
        <ele>1152.1</ele>
        <time>2014-10-01T10:24:10Z</time>
      </trkpt>
      <trkpt lat="42.3440990" lon="-6.7939580">
        <ele>1151.1</ele>
        <time>2014-10-01T10:24:11Z</time>
      </trkpt>
      <trkpt lat="42.3441520" lon="-6.7941280">
        <ele>1150.3</ele>
        <time>2014-10-01T10:24:12Z</time>
      </trkpt>
      <trkpt lat="42.3442100" lon="-6.7942980">
        <ele>1149.1</ele>
        <time>2014-10-01T10:24:13Z</time>
      </trkpt>
      <trkpt lat="42.3442780" lon="-6.7944620">
        <ele>1147.7</ele>
        <time>2014-10-01T10:24:14Z</time>
      </trkpt>
      <trkpt lat="42.3443810" lon="-6.7946030">
        <ele>1146.3</ele>
        <time>2014-10-01T10:24:15Z</time>
      </trkpt>
      <trkpt lat="42.3444790" lon="-6.7947270">
        <ele>1145.1</ele>
        <time>2014-10-01T10:24:16Z</time>
      </trkpt>
      <trkpt lat="42.3445890" lon="-6.7948460">
        <ele>1143.9</ele>
        <time>2014-10-01T10:24:17Z</time>
      </trkpt>
      <trkpt lat="42.3447030" lon="-6.7949570">
        <ele>1142.7</ele>
        <time>2014-10-01T10:24:18Z</time>
      </trkpt>
      <trkpt lat="42.3448070" lon="-6.7950600">
        <ele>1141.6</ele>
        <time>2014-10-01T10:24:19Z</time>
      </trkpt>
      <trkpt lat="42.3448980" lon="-6.7951610">
        <ele>1140.7</ele>
        <time>2014-10-01T10:24:20Z</time>
      </trkpt>
      <trkpt lat="42.3449590" lon="-6.7952760">
        <ele>1139.8</ele>
        <time>2014-10-01T10:24:21Z</time>
      </trkpt>
      <trkpt lat="42.3449980" lon="-6.7954160">
        <ele>1139.2</ele>
        <time>2014-10-01T10:24:22Z</time>
      </trkpt>
      <trkpt lat="42.3450110" lon="-6.7955560">
        <ele>1138.7</ele>
        <time>2014-10-01T10:24:23Z</time>
      </trkpt>
      <trkpt lat="42.3449890" lon="-6.7956860">
        <ele>1138.1</ele>
        <time>2014-10-01T10:24:24Z</time>
      </trkpt>
      <trkpt lat="42.3449650" lon="-6.7958210">
        <ele>1137.5</ele>
        <time>2014-10-01T10:24:25Z</time>
      </trkpt>
      <trkpt lat="42.3449320" lon="-6.7959680">
        <ele>1136.7</ele>
        <time>2014-10-01T10:24:26Z</time>
      </trkpt>
      <trkpt lat="42.3449040" lon="-6.7961110">
        <ele>1135.9</ele>
        <time>2014-10-01T10:24:27Z</time>
      </trkpt>
      <trkpt lat="42.3448810" lon="-6.7962580">
        <ele>1135.1</ele>
        <time>2014-10-01T10:24:28Z</time>
      </trkpt>
      <trkpt lat="42.3448950" lon="-6.7964100">
        <ele>1134.4</ele>
        <time>2014-10-01T10:24:29Z</time>
      </trkpt>
      <trkpt lat="42.3449170" lon="-6.7965670">
        <ele>1133.5</ele>
        <time>2014-10-01T10:24:30Z</time>
      </trkpt>
      <trkpt lat="42.3449780" lon="-6.7967090">
        <ele>1132.6</ele>
        <time>2014-10-01T10:24:31Z</time>
      </trkpt>
      <trkpt lat="42.3450440" lon="-6.7968480">
        <ele>1131.7</ele>
        <time>2014-10-01T10:24:32Z</time>
      </trkpt>
      <trkpt lat="42.3451200" lon="-6.7969810">
        <ele>1130.8</ele>
        <time>2014-10-01T10:24:33Z</time>
      </trkpt>
      <trkpt lat="42.3452000" lon="-6.7971200">
        <ele>1129.9</ele>
        <time>2014-10-01T10:24:34Z</time>
      </trkpt>
      <trkpt lat="42.3452740" lon="-6.7972540">
        <ele>1129.0</ele>
        <time>2014-10-01T10:24:35Z</time>
      </trkpt>
      <trkpt lat="42.3453340" lon="-6.7973910">
        <ele>1128.0</ele>
        <time>2014-10-01T10:24:36Z</time>
      </trkpt>
      <trkpt lat="42.3453650" lon="-6.7975570">
        <ele>1127.1</ele>
        <time>2014-10-01T10:24:37Z</time>
      </trkpt>
      <trkpt lat="42.3453860" lon="-6.7977240">
        <ele>1126.1</ele>
        <time>2014-10-01T10:24:38Z</time>
      </trkpt>
      <trkpt lat="42.3453580" lon="-6.7978910">
        <ele>1125.1</ele>
        <time>2014-10-01T10:24:39Z</time>
      </trkpt>
      <trkpt lat="42.3453020" lon="-6.7980450">
        <ele>1124.2</ele>
        <time>2014-10-01T10:24:40Z</time>
      </trkpt>
      <trkpt lat="42.3452320" lon="-6.7982010">
        <ele>1123.2</ele>
        <time>2014-10-01T10:24:41Z</time>
      </trkpt>
      <trkpt lat="42.3451530" lon="-6.7983470">
        <ele>1122.2</ele>
        <time>2014-10-01T10:24:42Z</time>
      </trkpt>
      <trkpt lat="42.3450670" lon="-6.7984770">
        <ele>1121.2</ele>
        <time>2014-10-01T10:24:43Z</time>
      </trkpt>
      <trkpt lat="42.3449810" lon="-6.7986090">
        <ele>1120.3</ele>
        <time>2014-10-01T10:24:44Z</time>
      </trkpt>
      <trkpt lat="42.3448920" lon="-6.7987440">
        <ele>1119.4</ele>
        <time>2014-10-01T10:24:45Z</time>
      </trkpt>
      <trkpt lat="42.3448000" lon="-6.7988740">
        <ele>1118.5</ele>
        <time>2014-10-01T10:24:46Z</time>
      </trkpt>
      <trkpt lat="42.3447090" lon="-6.7989980">
        <ele>1117.6</ele>
        <time>2014-10-01T10:24:47Z</time>
      </trkpt>
      <trkpt lat="42.3446180" lon="-6.7991220">
        <ele>1116.7</ele>
        <time>2014-10-01T10:24:48Z</time>
      </trkpt>
      <trkpt lat="42.3445260" lon="-6.7992500">
        <ele>1115.7</ele>
        <time>2014-10-01T10:24:49Z</time>
      </trkpt>
      <trkpt lat="42.3444360" lon="-6.7993780">
        <ele>1114.9</ele>
        <time>2014-10-01T10:24:50Z</time>
      </trkpt>
      <trkpt lat="42.3443500" lon="-6.7995060">
        <ele>1114.0</ele>
        <time>2014-10-01T10:24:51Z</time>
      </trkpt>
      <trkpt lat="42.3442650" lon="-6.7996400">
        <ele>1113.0</ele>
        <time>2014-10-01T10:24:52Z</time>
      </trkpt>
      <trkpt lat="42.3441740" lon="-6.7997790">
        <ele>1112.0</ele>
        <time>2014-10-01T10:24:53Z</time>
      </trkpt>
      <trkpt lat="42.3440970" lon="-6.7999330">
        <ele>1111.0</ele>
        <time>2014-10-01T10:24:54Z</time>
      </trkpt>
      <trkpt lat="42.3440440" lon="-6.8001000">
        <ele>1110.0</ele>
        <time>2014-10-01T10:24:55Z</time>
      </trkpt>
      <trkpt lat="42.3440010" lon="-6.8002650">
        <ele>1109.0</ele>
        <time>2014-10-01T10:24:56Z</time>
      </trkpt>
      <trkpt lat="42.3439610" lon="-6.8004370">
        <ele>1108.0</ele>
        <time>2014-10-01T10:24:57Z</time>
      </trkpt>
      <trkpt lat="42.3439250" lon="-6.8006100">
        <ele>1107.1</ele>
        <time>2014-10-01T10:24:58Z</time>
      </trkpt>
      <trkpt lat="42.3438930" lon="-6.8007810">
        <ele>1106.2</ele>
        <time>2014-10-01T10:24:59Z</time>
      </trkpt>
      <trkpt lat="42.3438600" lon="-6.8009520">
        <ele>1105.3</ele>
        <time>2014-10-01T10:25:00Z</time>
      </trkpt>
      <trkpt lat="42.3438310" lon="-6.8011170">
        <ele>1104.6</ele>
        <time>2014-10-01T10:25:01Z</time>
      </trkpt>
      <trkpt lat="42.3438010" lon="-6.8012890">
        <ele>1103.7</ele>
        <time>2014-10-01T10:25:02Z</time>
      </trkpt>
      <trkpt lat="42.3437740" lon="-6.8014640">
        <ele>1102.9</ele>
        <time>2014-10-01T10:25:03Z</time>
      </trkpt>
      <trkpt lat="42.3437540" lon="-6.8016360">
        <ele>1102.1</ele>
        <time>2014-10-01T10:25:04Z</time>
      </trkpt>
      <trkpt lat="42.3437450" lon="-6.8018080">
        <ele>1101.3</ele>
        <time>2014-10-01T10:25:05Z</time>
      </trkpt>
      <trkpt lat="42.3437460" lon="-6.8019760">
        <ele>1100.5</ele>
        <time>2014-10-01T10:25:06Z</time>
      </trkpt>
      <trkpt lat="42.3437770" lon="-6.8021320">
        <ele>1099.6</ele>
        <time>2014-10-01T10:25:07Z</time>
      </trkpt>
      <trkpt lat="42.3438040" lon="-6.8022980">
        <ele>1098.8</ele>
        <time>2014-10-01T10:25:08Z</time>
      </trkpt>
      <trkpt lat="42.3438340" lon="-6.8024670">
        <ele>1097.9</ele>
        <time>2014-10-01T10:25:09Z</time>
      </trkpt>
      <trkpt lat="42.3438660" lon="-6.8026350">
        <ele>1096.9</ele>
        <time>2014-10-01T10:25:10Z</time>
      </trkpt>
      <trkpt lat="42.3439030" lon="-6.8028040">
        <ele>1096.0</ele>
        <time>2014-10-01T10:25:11Z</time>
      </trkpt>
      <trkpt lat="42.3439400" lon="-6.8029740">
        <ele>1095.1</ele>
        <time>2014-10-01T10:25:12Z</time>
      </trkpt>
      <trkpt lat="42.3439760" lon="-6.8031380">
        <ele>1094.2</ele>
        <time>2014-10-01T10:25:13Z</time>
      </trkpt>
      <trkpt lat="42.3440110" lon="-6.8032960">
        <ele>1093.4</ele>
        <time>2014-10-01T10:25:14Z</time>
      </trkpt>
      <trkpt lat="42.3440500" lon="-6.8034610">
        <ele>1092.4</ele>
        <time>2014-10-01T10:25:15Z</time>
      </trkpt>
      <trkpt lat="42.3440900" lon="-6.8036330">
        <ele>1091.4</ele>
        <time>2014-10-01T10:25:16Z</time>
      </trkpt>
      <trkpt lat="42.3441290" lon="-6.8038000">
        <ele>1090.4</ele>
        <time>2014-10-01T10:25:17Z</time>
      </trkpt>
      <trkpt lat="42.3441680" lon="-6.8039660">
        <ele>1089.5</ele>
        <time>2014-10-01T10:25:18Z</time>
      </trkpt>
      <trkpt lat="42.3442090" lon="-6.8041350">
        <ele>1088.5</ele>
        <time>2014-10-01T10:25:19Z</time>
      </trkpt>
      <trkpt lat="42.3442480" lon="-6.8043010">
        <ele>1087.5</ele>
        <time>2014-10-01T10:25:20Z</time>
      </trkpt>
      <trkpt lat="42.3442880" lon="-6.8044640">
        <ele>1086.6</ele>
        <time>2014-10-01T10:25:21Z</time>
      </trkpt>
      <trkpt lat="42.3443320" lon="-6.8046260">
        <ele>1085.7</ele>
        <time>2014-10-01T10:25:22Z</time>
      </trkpt>
      <trkpt lat="42.3443780" lon="-6.8047830">
        <ele>1084.8</ele>
        <time>2014-10-01T10:25:23Z</time>
      </trkpt>
      <trkpt lat="42.3444310" lon="-6.8049390">
        <ele>1083.8</ele>
        <time>2014-10-01T10:25:24Z</time>
      </trkpt>
      <trkpt lat="42.3444900" lon="-6.8050950">
        <ele>1082.8</ele>
        <time>2014-10-01T10:25:25Z</time>
      </trkpt>
      <trkpt lat="42.3445530" lon="-6.8052570">
        <ele>1081.8</ele>
        <time>2014-10-01T10:25:26Z</time>
      </trkpt>
      <trkpt lat="42.3446180" lon="-6.8054200">
        <ele>1080.7</ele>
        <time>2014-10-01T10:25:27Z</time>
      </trkpt>
      <trkpt lat="42.3446800" lon="-6.8055800">
        <ele>1079.1</ele>
        <time>2014-10-01T10:25:28Z</time>
      </trkpt>
      <trkpt lat="42.3447470" lon="-6.8057360">
        <ele>1077.8</ele>
        <time>2014-10-01T10:25:29Z</time>
      </trkpt>
      <trkpt lat="42.3448130" lon="-6.8058920">
        <ele>1076.7</ele>
        <time>2014-10-01T10:25:30Z</time>
      </trkpt>
      <trkpt lat="42.3448860" lon="-6.8060570">
        <ele>1075.6</ele>
        <time>2014-10-01T10:25:31Z</time>
      </trkpt>
      <trkpt lat="42.3449560" lon="-6.8062150">
        <ele>1074.5</ele>
        <time>2014-10-01T10:25:32Z</time>
      </trkpt>
      <trkpt lat="42.3450290" lon="-6.8063770">
        <ele>1073.3</ele>
        <time>2014-10-01T10:25:33Z</time>
      </trkpt>
      <trkpt lat="42.3450960" lon="-6.8065230">
        <ele>1072.2</ele>
        <time>2014-10-01T10:25:34Z</time>
      </trkpt>
      <trkpt lat="42.3451600" lon="-6.8066700">
        <ele>1071.1</ele>
        <time>2014-10-01T10:25:35Z</time>
      </trkpt>
      <trkpt lat="42.3452220" lon="-6.8068130">
        <ele>1070.1</ele>
        <time>2014-10-01T10:25:36Z</time>
      </trkpt>
      <trkpt lat="42.3452870" lon="-6.8069670">
        <ele>1068.9</ele>
        <time>2014-10-01T10:25:37Z</time>
      </trkpt>
      <trkpt lat="42.3453490" lon="-6.8071130">
        <ele>1067.8</ele>
        <time>2014-10-01T10:25:38Z</time>
      </trkpt>
      <trkpt lat="42.3454150" lon="-6.8072750">
        <ele>1066.6</ele>
        <time>2014-10-01T10:25:39Z</time>
      </trkpt>
      <trkpt lat="42.3454780" lon="-6.8074280">
        <ele>1065.5</ele>
        <time>2014-10-01T10:25:40Z</time>
      </trkpt>
      <trkpt lat="42.3455440" lon="-6.8075850">
        <ele>1064.3</ele>
        <time>2014-10-01T10:25:41Z</time>
      </trkpt>
      <trkpt lat="42.3456050" lon="-6.8077430">
        <ele>1063.2</ele>
        <time>2014-10-01T10:25:42Z</time>
      </trkpt>
      <trkpt lat="42.3456620" lon="-6.8079110">
        <ele>1061.9</ele>
        <time>2014-10-01T10:25:43Z</time>
      </trkpt>
      <trkpt lat="42.3457110" lon="-6.8080800">
        <ele>1060.8</ele>
        <time>2014-10-01T10:25:44Z</time>
      </trkpt>
      <trkpt lat="42.3457610" lon="-6.8082440">
        <ele>1059.7</ele>
        <time>2014-10-01T10:25:45Z</time>
      </trkpt>
      <trkpt lat="42.3458100" lon="-6.8084080">
        <ele>1058.5</ele>
        <time>2014-10-01T10:25:46Z</time>
      </trkpt>
      <trkpt lat="42.3458580" lon="-6.8085750">
        <ele>1057.4</ele>
        <time>2014-10-01T10:25:47Z</time>
      </trkpt>
      <trkpt lat="42.3459060" lon="-6.8087430">
        <ele>1056.1</ele>
        <time>2014-10-01T10:25:48Z</time>
      </trkpt>
      <trkpt lat="42.3459610" lon="-6.8089180">
        <ele>1054.9</ele>
        <time>2014-10-01T10:25:49Z</time>
      </trkpt>
      <trkpt lat="42.3460180" lon="-6.8090800">
        <ele>1053.7</ele>
        <time>2014-10-01T10:25:50Z</time>
      </trkpt>
      <trkpt lat="42.3460750" lon="-6.8092260">
        <ele>1052.6</ele>
        <time>2014-10-01T10:25:51Z</time>
      </trkpt>
      <trkpt lat="42.3461410" lon="-6.8093760">
        <ele>1051.3</ele>
        <time>2014-10-01T10:25:52Z</time>
      </trkpt>
      <trkpt lat="42.3462130" lon="-6.8095290">
        <ele>1050.2</ele>
        <time>2014-10-01T10:25:53Z</time>
      </trkpt>
      <trkpt lat="42.3462860" lon="-6.8096830">
        <ele>1049.0</ele>
        <time>2014-10-01T10:25:54Z</time>
      </trkpt>
      <trkpt lat="42.3463610" lon="-6.8098450">
        <ele>1047.9</ele>
        <time>2014-10-01T10:25:55Z</time>
      </trkpt>
      <trkpt lat="42.3464300" lon="-6.8100020">
        <ele>1046.8</ele>
        <time>2014-10-01T10:25:56Z</time>
      </trkpt>
      <trkpt lat="42.3464640" lon="-6.8101690">
        <ele>1045.7</ele>
        <time>2014-10-01T10:25:57Z</time>
      </trkpt>
      <trkpt lat="42.3464930" lon="-6.8103290">
        <ele>1044.7</ele>
        <time>2014-10-01T10:25:58Z</time>
      </trkpt>
      <trkpt lat="42.3465180" lon="-6.8105010">
        <ele>1043.6</ele>
        <time>2014-10-01T10:25:59Z</time>
      </trkpt>
      <trkpt lat="42.3465390" lon="-6.8106770">
        <ele>1042.5</ele>
        <time>2014-10-01T10:26:00Z</time>
      </trkpt>
      <trkpt lat="42.3465600" lon="-6.8108550">
        <ele>1041.3</ele>
        <time>2014-10-01T10:26:01Z</time>
      </trkpt>
      <trkpt lat="42.3465900" lon="-6.8110200">
        <ele>1040.2</ele>
        <time>2014-10-01T10:26:02Z</time>
      </trkpt>
      <trkpt lat="42.3466520" lon="-6.8111810">
        <ele>1039.0</ele>
        <time>2014-10-01T10:26:03Z</time>
      </trkpt>
      <trkpt lat="42.3467180" lon="-6.8113290">
        <ele>1037.9</ele>
        <time>2014-10-01T10:26:04Z</time>
      </trkpt>
      <trkpt lat="42.3467920" lon="-6.8114780">
        <ele>1036.8</ele>
        <time>2014-10-01T10:26:05Z</time>
      </trkpt>
      <trkpt lat="42.3468670" lon="-6.8116250">
        <ele>1035.6</ele>
        <time>2014-10-01T10:26:06Z</time>
      </trkpt>
      <trkpt lat="42.3469440" lon="-6.8117740">
        <ele>1034.5</ele>
        <time>2014-10-01T10:26:07Z</time>
      </trkpt>
      <trkpt lat="42.3470210" lon="-6.8119240">
        <ele>1033.2</ele>
        <time>2014-10-01T10:26:08Z</time>
      </trkpt>
      <trkpt lat="42.3470990" lon="-6.8120770">
        <ele>1032.0</ele>
        <time>2014-10-01T10:26:09Z</time>
      </trkpt>
      <trkpt lat="42.3471780" lon="-6.8122290">
        <ele>1030.8</ele>
        <time>2014-10-01T10:26:10Z</time>
      </trkpt>
      <trkpt lat="42.3472560" lon="-6.8123790">
        <ele>1029.6</ele>
        <time>2014-10-01T10:26:11Z</time>
      </trkpt>
      <trkpt lat="42.3473340" lon="-6.8125250">
        <ele>1028.5</ele>
        <time>2014-10-01T10:26:12Z</time>
      </trkpt>
      <trkpt lat="42.3474060" lon="-6.8126660">
        <ele>1027.6</ele>
        <time>2014-10-01T10:26:13Z</time>
      </trkpt>
      <trkpt lat="42.3474820" lon="-6.8128060">
        <ele>1026.6</ele>
        <time>2014-10-01T10:26:14Z</time>
      </trkpt>
      <trkpt lat="42.3475630" lon="-6.8129550">
        <ele>1025.5</ele>
        <time>2014-10-01T10:26:15Z</time>
      </trkpt>
      <trkpt lat="42.3476420" lon="-6.8131010">
        <ele>1024.4</ele>
        <time>2014-10-01T10:26:16Z</time>
      </trkpt>
      <trkpt lat="42.3477190" lon="-6.8132380">
        <ele>1023.4</ele>
        <time>2014-10-01T10:26:17Z</time>
      </trkpt>
      <trkpt lat="42.3478010" lon="-6.8133850">
        <ele>1022.2</ele>
        <time>2014-10-01T10:26:18Z</time>
      </trkpt>
      <trkpt lat="42.3478800" lon="-6.8135310">
        <ele>1021.1</ele>
        <time>2014-10-01T10:26:19Z</time>
      </trkpt>
      <trkpt lat="42.3479620" lon="-6.8136800">
        <ele>1019.9</ele>
        <time>2014-10-01T10:26:20Z</time>
      </trkpt>
      <trkpt lat="42.3480420" lon="-6.8138260">
        <ele>1018.8</ele>
        <time>2014-10-01T10:26:21Z</time>
      </trkpt>
      <trkpt lat="42.3481390" lon="-6.8139370">
        <ele>1017.7</ele>
        <time>2014-10-01T10:26:22Z</time>
      </trkpt>
      <trkpt lat="42.3482410" lon="-6.8140420">
        <ele>1016.6</ele>
        <time>2014-10-01T10:26:23Z</time>
      </trkpt>
      <trkpt lat="42.3483610" lon="-6.8141070">
        <ele>1015.6</ele>
        <time>2014-10-01T10:26:24Z</time>
      </trkpt>
      <trkpt lat="42.3484800" lon="-6.8141590">
        <ele>1014.3</ele>
        <time>2014-10-01T10:26:25Z</time>
      </trkpt>
      <trkpt lat="42.3486040" lon="-6.8141640">
        <ele>1013.5</ele>
        <time>2014-10-01T10:26:26Z</time>
      </trkpt>
      <trkpt lat="42.3487320" lon="-6.8141500">
        <ele>1012.9</ele>
        <time>2014-10-01T10:26:27Z</time>
      </trkpt>
      <trkpt lat="42.3488670" lon="-6.8140800">
        <ele>1012.3</ele>
        <time>2014-10-01T10:26:28Z</time>
      </trkpt>
      <trkpt lat="42.3489860" lon="-6.8139980">
        <ele>1011.8</ele>
        <time>2014-10-01T10:26:29Z</time>
      </trkpt>
      <trkpt lat="42.3491050" lon="-6.8138990">
        <ele>1011.2</ele>
        <time>2014-10-01T10:26:30Z</time>
      </trkpt>
      <trkpt lat="42.3492160" lon="-6.8137980">
        <ele>1010.6</ele>
        <time>2014-10-01T10:26:31Z</time>
      </trkpt>
      <trkpt lat="42.3493210" lon="-6.8137020">
        <ele>1010.0</ele>
        <time>2014-10-01T10:26:32Z</time>
      </trkpt>
      <trkpt lat="42.3494460" lon="-6.8136440">
        <ele>1009.4</ele>
        <time>2014-10-01T10:26:33Z</time>
      </trkpt>
      <trkpt lat="42.3495620" lon="-6.8136410">
        <ele>1008.8</ele>
        <time>2014-10-01T10:26:34Z</time>
      </trkpt>
      <trkpt lat="42.3496760" lon="-6.8136910">
        <ele>1008.1</ele>
        <time>2014-10-01T10:26:35Z</time>
      </trkpt>
      <trkpt lat="42.3497510" lon="-6.8137810">
        <ele>1007.5</ele>
        <time>2014-10-01T10:26:36Z</time>
      </trkpt>
      <trkpt lat="42.3498410" lon="-6.8138780">
        <ele>1006.7</ele>
        <time>2014-10-01T10:26:37Z</time>
      </trkpt>
      <trkpt lat="42.3499240" lon="-6.8139610">
        <ele>1006.0</ele>
        <time>2014-10-01T10:26:38Z</time>
      </trkpt>
      <trkpt lat="42.3500220" lon="-6.8140470">
        <ele>1005.2</ele>
        <time>2014-10-01T10:26:39Z</time>
      </trkpt>
      <trkpt lat="42.3501170" lon="-6.8141180">
        <ele>1004.5</ele>
        <time>2014-10-01T10:26:40Z</time>
      </trkpt>
      <trkpt lat="42.3502230" lon="-6.8141890">
        <ele>1003.7</ele>
        <time>2014-10-01T10:26:41Z</time>
      </trkpt>
      <trkpt lat="42.3503370" lon="-6.8142570">
        <ele>1003.0</ele>
        <time>2014-10-01T10:26:42Z</time>
      </trkpt>
      <trkpt lat="42.3504550" lon="-6.8143250">
        <ele>1002.2</ele>
        <time>2014-10-01T10:26:43Z</time>
      </trkpt>
      <trkpt lat="42.3505760" lon="-6.8143940">
        <ele>1001.4</ele>
        <time>2014-10-01T10:26:44Z</time>
      </trkpt>
      <trkpt lat="42.3507030" lon="-6.8144690">
        <ele>1000.5</ele>
        <time>2014-10-01T10:26:45Z</time>
      </trkpt>
      <trkpt lat="42.3508260" lon="-6.8145440">
        <ele>999.7</ele>
        <time>2014-10-01T10:26:46Z</time>
      </trkpt>
      <trkpt lat="42.3509410" lon="-6.8146130">
        <ele>999.0</ele>
        <time>2014-10-01T10:26:47Z</time>
      </trkpt>
      <trkpt lat="42.3510560" lon="-6.8146850">
        <ele>998.2</ele>
        <time>2014-10-01T10:26:48Z</time>
      </trkpt>
      <trkpt lat="42.3511750" lon="-6.8147590">
        <ele>997.4</ele>
        <time>2014-10-01T10:26:49Z</time>
      </trkpt>
      <trkpt lat="42.3512870" lon="-6.8148360">
        <ele>996.6</ele>
        <time>2014-10-01T10:26:50Z</time>
      </trkpt>
      <trkpt lat="42.3513980" lon="-6.8149190">
        <ele>995.9</ele>
        <time>2014-10-01T10:26:51Z</time>
      </trkpt>
      <trkpt lat="42.3515110" lon="-6.8150100">
        <ele>995.2</ele>
        <time>2014-10-01T10:26:52Z</time>
      </trkpt>
      <trkpt lat="42.3516160" lon="-6.8151090">
        <ele>994.5</ele>
        <time>2014-10-01T10:26:53Z</time>
      </trkpt>
      <trkpt lat="42.3517050" lon="-6.8152420">
        <ele>993.7</ele>
        <time>2014-10-01T10:26:54Z</time>
      </trkpt>
      <trkpt lat="42.3517880" lon="-6.8153770">
        <ele>993.0</ele>
        <time>2014-10-01T10:26:55Z</time>
      </trkpt>
      <trkpt lat="42.3518650" lon="-6.8155150">
        <ele>992.2</ele>
        <time>2014-10-01T10:26:56Z</time>
      </trkpt>
      <trkpt lat="42.3519310" lon="-6.8156520">
        <ele>991.4</ele>
        <time>2014-10-01T10:26:57Z</time>
      </trkpt>
      <trkpt lat="42.3519930" lon="-6.8157930">
        <ele>990.6</ele>
        <time>2014-10-01T10:26:58Z</time>
      </trkpt>
      <trkpt lat="42.3520480" lon="-6.8159250">
        <ele>989.9</ele>
        <time>2014-10-01T10:26:59Z</time>
      </trkpt>
      <trkpt lat="42.3521110" lon="-6.8160770">
        <ele>988.9</ele>
        <time>2014-10-01T10:27:00Z</time>
      </trkpt>
      <trkpt lat="42.3521700" lon="-6.8162250">
        <ele>988.0</ele>
        <time>2014-10-01T10:27:01Z</time>
      </trkpt>
      <trkpt lat="42.3522320" lon="-6.8163690">
        <ele>987.1</ele>
        <time>2014-10-01T10:27:02Z</time>
      </trkpt>
      <trkpt lat="42.3523020" lon="-6.8165220">
        <ele>986.0</ele>
        <time>2014-10-01T10:27:03Z</time>
      </trkpt>
      <trkpt lat="42.3523790" lon="-6.8166720">
        <ele>985.0</ele>
        <time>2014-10-01T10:27:04Z</time>
      </trkpt>
      <trkpt lat="42.3524600" lon="-6.8168170">
        <ele>984.1</ele>
        <time>2014-10-01T10:27:05Z</time>
      </trkpt>
      <trkpt lat="42.3525440" lon="-6.8169520">
        <ele>983.3</ele>
        <time>2014-10-01T10:27:06Z</time>
      </trkpt>
      <trkpt lat="42.3526300" lon="-6.8170780">
        <ele>982.5</ele>
        <time>2014-10-01T10:27:07Z</time>
      </trkpt>
      <trkpt lat="42.3527130" lon="-6.8172000">
        <ele>981.7</ele>
        <time>2014-10-01T10:27:08Z</time>
      </trkpt>
      <trkpt lat="42.3527990" lon="-6.8173190">
        <ele>980.8</ele>
        <time>2014-10-01T10:27:09Z</time>
      </trkpt>
      <trkpt lat="42.3528870" lon="-6.8174390">
        <ele>979.9</ele>
        <time>2014-10-01T10:27:10Z</time>
      </trkpt>
      <trkpt lat="42.3529710" lon="-6.8175640">
        <ele>979.1</ele>
        <time>2014-10-01T10:27:11Z</time>
      </trkpt>
      <trkpt lat="42.3530550" lon="-6.8176960">
        <ele>978.2</ele>
        <time>2014-10-01T10:27:12Z</time>
      </trkpt>
      <trkpt lat="42.3531350" lon="-6.8178390">
        <ele>977.3</ele>
        <time>2014-10-01T10:27:13Z</time>
      </trkpt>
      <trkpt lat="42.3532040" lon="-6.8179830">
        <ele>976.4</ele>
        <time>2014-10-01T10:27:14Z</time>
      </trkpt>
      <trkpt lat="42.3532450" lon="-6.8181490">
        <ele>975.5</ele>
        <time>2014-10-01T10:27:15Z</time>
      </trkpt>
      <trkpt lat="42.3532800" lon="-6.8183080">
        <ele>974.6</ele>
        <time>2014-10-01T10:27:16Z</time>
      </trkpt>
      <trkpt lat="42.3533050" lon="-6.8184730">
        <ele>973.7</ele>
        <time>2014-10-01T10:27:17Z</time>
      </trkpt>
      <trkpt lat="42.3532960" lon="-6.8186450">
        <ele>972.7</ele>
        <time>2014-10-01T10:27:18Z</time>
      </trkpt>
      <trkpt lat="42.3532830" lon="-6.8188190">
        <ele>971.7</ele>
        <time>2014-10-01T10:27:19Z</time>
      </trkpt>
      <trkpt lat="42.3532640" lon="-6.8189880">
        <ele>970.8</ele>
        <time>2014-10-01T10:27:20Z</time>
      </trkpt>
      <trkpt lat="42.3532420" lon="-6.8191660">
        <ele>969.8</ele>
        <time>2014-10-01T10:27:21Z</time>
      </trkpt>
      <trkpt lat="42.3532160" lon="-6.8193290">
        <ele>969.0</ele>
        <time>2014-10-01T10:27:22Z</time>
      </trkpt>
      <trkpt lat="42.3531860" lon="-6.8194970">
        <ele>968.2</ele>
        <time>2014-10-01T10:27:23Z</time>
      </trkpt>
      <trkpt lat="42.3531590" lon="-6.8196650">
        <ele>967.4</ele>
        <time>2014-10-01T10:27:24Z</time>
      </trkpt>
      <trkpt lat="42.3531380" lon="-6.8198380">
        <ele>966.6</ele>
        <time>2014-10-01T10:27:25Z</time>
      </trkpt>
      <trkpt lat="42.3531160" lon="-6.8200090">
        <ele>965.8</ele>
        <time>2014-10-01T10:27:26Z</time>
      </trkpt>
      <trkpt lat="42.3530940" lon="-6.8201860">
        <ele>964.9</ele>
        <time>2014-10-01T10:27:27Z</time>
      </trkpt>
      <trkpt lat="42.3530790" lon="-6.8203550">
        <ele>964.2</ele>
        <time>2014-10-01T10:27:28Z</time>
      </trkpt>
      <trkpt lat="42.3530640" lon="-6.8205290">
        <ele>963.4</ele>
        <time>2014-10-01T10:27:29Z</time>
      </trkpt>
      <trkpt lat="42.3530540" lon="-6.8207100">
        <ele>962.5</ele>
        <time>2014-10-01T10:27:30Z</time>
      </trkpt>
      <trkpt lat="42.3530470" lon="-6.8208890">
        <ele>961.6</ele>
        <time>2014-10-01T10:27:31Z</time>
      </trkpt>
      <trkpt lat="42.3530430" lon="-6.8210640">
        <ele>960.8</ele>
        <time>2014-10-01T10:27:32Z</time>
      </trkpt>
      <trkpt lat="42.3530460" lon="-6.8212360">
        <ele>960.0</ele>
        <time>2014-10-01T10:27:33Z</time>
      </trkpt>
      <trkpt lat="42.3530990" lon="-6.8213960">
        <ele>959.1</ele>
        <time>2014-10-01T10:27:34Z</time>
      </trkpt>
      <trkpt lat="42.3531750" lon="-6.8215190">
        <ele>958.2</ele>
        <time>2014-10-01T10:27:35Z</time>
      </trkpt>
      <trkpt lat="42.3532670" lon="-6.8216100">
        <ele>957.2</ele>
        <time>2014-10-01T10:27:36Z</time>
      </trkpt>
      <trkpt lat="42.3533660" lon="-6.8217040">
        <ele>956.2</ele>
        <time>2014-10-01T10:27:37Z</time>
      </trkpt>
      <trkpt lat="42.3534810" lon="-6.8217150">
        <ele>955.4</ele>
        <time>2014-10-01T10:27:38Z</time>
      </trkpt>
      <trkpt lat="42.3535990" lon="-6.8217110">
        <ele>954.6</ele>
        <time>2014-10-01T10:27:39Z</time>
      </trkpt>
      <trkpt lat="42.3537180" lon="-6.8216850">
        <ele>953.8</ele>
        <time>2014-10-01T10:27:40Z</time>
      </trkpt>
      <trkpt lat="42.3538350" lon="-6.8216220">
        <ele>953.0</ele>
        <time>2014-10-01T10:27:41Z</time>
      </trkpt>
      <trkpt lat="42.3539600" lon="-6.8215550">
        <ele>952.0</ele>
        <time>2014-10-01T10:27:42Z</time>
      </trkpt>
      <trkpt lat="42.3540820" lon="-6.8214830">
        <ele>951.1</ele>
        <time>2014-10-01T10:27:43Z</time>
      </trkpt>
      <trkpt lat="42.3542050" lon="-6.8213890">
        <ele>950.1</ele>
        <time>2014-10-01T10:27:44Z</time>
      </trkpt>
      <trkpt lat="42.3543190" lon="-6.8212690">
        <ele>949.0</ele>
        <time>2014-10-01T10:27:45Z</time>
      </trkpt>
      <trkpt lat="42.3544350" lon="-6.8211480">
        <ele>947.9</ele>
        <time>2014-10-01T10:27:46Z</time>
      </trkpt>
      <trkpt lat="42.3545450" lon="-6.8210260">
        <ele>946.9</ele>
        <time>2014-10-01T10:27:47Z</time>
      </trkpt>
      <trkpt lat="42.3546530" lon="-6.8209000">
        <ele>945.9</ele>
        <time>2014-10-01T10:27:48Z</time>
      </trkpt>
      <trkpt lat="42.3547600" lon="-6.8207680">
        <ele>944.9</ele>
        <time>2014-10-01T10:27:49Z</time>
      </trkpt>
      <trkpt lat="42.3548640" lon="-6.8206400">
        <ele>944.1</ele>
        <time>2014-10-01T10:27:50Z</time>
      </trkpt>
      <trkpt lat="42.3549610" lon="-6.8205120">
        <ele>943.2</ele>
        <time>2014-10-01T10:27:51Z</time>
      </trkpt>
      <trkpt lat="42.3550490" lon="-6.8203830">
        <ele>942.3</ele>
        <time>2014-10-01T10:27:52Z</time>
      </trkpt>
      <trkpt lat="42.3551370" lon="-6.8202500">
        <ele>941.4</ele>
        <time>2014-10-01T10:27:53Z</time>
      </trkpt>
      <trkpt lat="42.3552200" lon="-6.8200970">
        <ele>940.5</ele>
        <time>2014-10-01T10:27:54Z</time>
      </trkpt>
      <trkpt lat="42.3552810" lon="-6.8199320">
        <ele>939.7</ele>
        <time>2014-10-01T10:27:55Z</time>
      </trkpt>
      <trkpt lat="42.3553380" lon="-6.8197780">
        <ele>938.9</ele>
        <time>2014-10-01T10:27:56Z</time>
      </trkpt>
      <trkpt lat="42.3554210" lon="-6.8196500">
        <ele>938.1</ele>
        <time>2014-10-01T10:27:57Z</time>
      </trkpt>
      <trkpt lat="42.3555100" lon="-6.8195340">
        <ele>937.3</ele>
        <time>2014-10-01T10:27:58Z</time>
      </trkpt>
      <trkpt lat="42.3556380" lon="-6.8194590">
        <ele>936.4</ele>
        <time>2014-10-01T10:27:59Z</time>
      </trkpt>
      <trkpt lat="42.3557460" lon="-6.8193910">
        <ele>935.7</ele>
        <time>2014-10-01T10:28:00Z</time>
      </trkpt>
      <trkpt lat="42.3558520" lon="-6.8193340">
        <ele>934.9</ele>
        <time>2014-10-01T10:28:01Z</time>
      </trkpt>
      <trkpt lat="42.3559660" lon="-6.8192750">
        <ele>934.0</ele>
        <time>2014-10-01T10:28:02Z</time>
      </trkpt>
      <trkpt lat="42.3560850" lon="-6.8192060">
        <ele>933.1</ele>
        <time>2014-10-01T10:28:03Z</time>
      </trkpt>
      <trkpt lat="42.3562080" lon="-6.8191220">
        <ele>932.0</ele>
        <time>2014-10-01T10:28:04Z</time>
      </trkpt>
      <trkpt lat="42.3563220" lon="-6.8189980">
        <ele>930.9</ele>
        <time>2014-10-01T10:28:05Z</time>
      </trkpt>
      <trkpt lat="42.3564300" lon="-6.8188460">
        <ele>929.7</ele>
        <time>2014-10-01T10:28:06Z</time>
      </trkpt>
      <trkpt lat="42.3565190" lon="-6.8186840">
        <ele>928.5</ele>
        <time>2014-10-01T10:28:07Z</time>
      </trkpt>
      <trkpt lat="42.3566010" lon="-6.8185190">
        <ele>927.4</ele>
        <time>2014-10-01T10:28:08Z</time>
      </trkpt>
      <trkpt lat="42.3566550" lon="-6.8183350">
        <ele>926.2</ele>
        <time>2014-10-01T10:28:09Z</time>
      </trkpt>
      <trkpt lat="42.3567060" lon="-6.8181510">
        <ele>925.1</ele>
        <time>2014-10-01T10:28:10Z</time>
      </trkpt>
      <trkpt lat="42.3567370" lon="-6.8179610">
        <ele>924.0</ele>
        <time>2014-10-01T10:28:11Z</time>
      </trkpt>
      <trkpt lat="42.3567570" lon="-6.8177660">
        <ele>922.9</ele>
        <time>2014-10-01T10:28:12Z</time>
      </trkpt>
      <trkpt lat="42.3567740" lon="-6.8175720">
        <ele>921.8</ele>
        <time>2014-10-01T10:28:13Z</time>
      </trkpt>
      <trkpt lat="42.3567960" lon="-6.8173890">
        <ele>920.6</ele>
        <time>2014-10-01T10:28:14Z</time>
      </trkpt>
      <trkpt lat="42.3568330" lon="-6.8172140">
        <ele>919.6</ele>
        <time>2014-10-01T10:28:15Z</time>
      </trkpt>
      <trkpt lat="42.3568840" lon="-6.8170430">
        <ele>918.5</ele>
        <time>2014-10-01T10:28:16Z</time>
      </trkpt>
      <trkpt lat="42.3569680" lon="-6.8168910">
        <ele>917.3</ele>
        <time>2014-10-01T10:28:17Z</time>
      </trkpt>
      <trkpt lat="42.3570440" lon="-6.8167430">
        <ele>916.2</ele>
        <time>2014-10-01T10:28:18Z</time>
      </trkpt>
      <trkpt lat="42.3571140" lon="-6.8165860">
        <ele>915.1</ele>
        <time>2014-10-01T10:28:19Z</time>
      </trkpt>
      <trkpt lat="42.3571840" lon="-6.8164140">
        <ele>913.9</ele>
        <time>2014-10-01T10:28:20Z</time>
      </trkpt>
      <trkpt lat="42.3572520" lon="-6.8162420">
        <ele>912.8</ele>
        <time>2014-10-01T10:28:21Z</time>
      </trkpt>
      <trkpt lat="42.3573030" lon="-6.8160530">
        <ele>911.6</ele>
        <time>2014-10-01T10:28:22Z</time>
      </trkpt>
      <trkpt lat="42.3573520" lon="-6.8158720">
        <ele>910.6</ele>
        <time>2014-10-01T10:28:23Z</time>
      </trkpt>
      <trkpt lat="42.3573960" lon="-6.8157050">
        <ele>909.6</ele>
        <time>2014-10-01T10:28:24Z</time>
      </trkpt>
      <trkpt lat="42.3574420" lon="-6.8155500">
        <ele>908.7</ele>
        <time>2014-10-01T10:28:25Z</time>
      </trkpt>
      <trkpt lat="42.3574880" lon="-6.8154080">
        <ele>907.9</ele>
        <time>2014-10-01T10:28:26Z</time>
      </trkpt>
      <trkpt lat="42.3575990" lon="-6.8153290">
        <ele>907.1</ele>
        <time>2014-10-01T10:28:27Z</time>
      </trkpt>
      <trkpt lat="42.3577030" lon="-6.8152920">
        <ele>906.5</ele>
        <time>2014-10-01T10:28:28Z</time>
      </trkpt>
      <trkpt lat="42.3577920" lon="-6.8152980">
        <ele>905.9</ele>
        <time>2014-10-01T10:28:29Z</time>
      </trkpt>
      <trkpt lat="42.3578830" lon="-6.8153710">
        <ele>905.3</ele>
        <time>2014-10-01T10:28:30Z</time>
      </trkpt>
      <trkpt lat="42.3579630" lon="-6.8154770">
        <ele>904.7</ele>
        <time>2014-10-01T10:28:31Z</time>
      </trkpt>
      <trkpt lat="42.3580600" lon="-6.8155940">
        <ele>903.9</ele>
        <time>2014-10-01T10:28:32Z</time>
      </trkpt>
      <trkpt lat="42.3581510" lon="-6.8157230">
        <ele>903.2</ele>
        <time>2014-10-01T10:28:33Z</time>
      </trkpt>
      <trkpt lat="42.3582420" lon="-6.8158590">
        <ele>902.4</ele>
        <time>2014-10-01T10:28:34Z</time>
      </trkpt>
      <trkpt lat="42.3583290" lon="-6.8159990">
        <ele>901.7</ele>
        <time>2014-10-01T10:28:35Z</time>
      </trkpt>
      <trkpt lat="42.3584140" lon="-6.8161360">
        <ele>901.0</ele>
        <time>2014-10-01T10:28:36Z</time>
      </trkpt>
      <trkpt lat="42.3584970" lon="-6.8162770">
        <ele>900.2</ele>
        <time>2014-10-01T10:28:37Z</time>
      </trkpt>
      <trkpt lat="42.3585830" lon="-6.8164180">
        <ele>899.5</ele>
        <time>2014-10-01T10:28:38Z</time>
      </trkpt>
      <trkpt lat="42.3586710" lon="-6.8165560">
        <ele>898.7</ele>
        <time>2014-10-01T10:28:39Z</time>
      </trkpt>
      <trkpt lat="42.3587550" lon="-6.8166880">
        <ele>898.0</ele>
        <time>2014-10-01T10:28:40Z</time>
      </trkpt>
      <trkpt lat="42.3588340" lon="-6.8168220">
        <ele>897.3</ele>
        <time>2014-10-01T10:28:41Z</time>
      </trkpt>
      <trkpt lat="42.3589070" lon="-6.8169520">
        <ele>896.6</ele>
        <time>2014-10-01T10:28:42Z</time>
      </trkpt>
      <trkpt lat="42.3589810" lon="-6.8170830">
        <ele>895.9</ele>
        <time>2014-10-01T10:28:43Z</time>
      </trkpt>
      <trkpt lat="42.3590580" lon="-6.8172150">
        <ele>895.1</ele>
        <time>2014-10-01T10:28:44Z</time>
      </trkpt>
      <trkpt lat="42.3591360" lon="-6.8173490">
        <ele>894.4</ele>
        <time>2014-10-01T10:28:45Z</time>
      </trkpt>
      <trkpt lat="42.3592140" lon="-6.8174790">
        <ele>893.7</ele>
        <time>2014-10-01T10:28:46Z</time>
      </trkpt>
      <trkpt lat="42.3592910" lon="-6.8176100">
        <ele>893.0</ele>
        <time>2014-10-01T10:28:47Z</time>
      </trkpt>
      <trkpt lat="42.3593650" lon="-6.8177390">
        <ele>892.3</ele>
        <time>2014-10-01T10:28:48Z</time>
      </trkpt>
      <trkpt lat="42.3594380" lon="-6.8178690">
        <ele>891.5</ele>
        <time>2014-10-01T10:28:49Z</time>
      </trkpt>
      <trkpt lat="42.3595070" lon="-6.8180060">
        <ele>890.7</ele>
        <time>2014-10-01T10:28:50Z</time>
      </trkpt>
      <trkpt lat="42.3595680" lon="-6.8181510">
        <ele>889.8</ele>
        <time>2014-10-01T10:28:51Z</time>
      </trkpt>
      <trkpt lat="42.3596250" lon="-6.8183070">
        <ele>888.8</ele>
        <time>2014-10-01T10:28:52Z</time>
      </trkpt>
      <trkpt lat="42.3596460" lon="-6.8184760">
        <ele>887.9</ele>
        <time>2014-10-01T10:28:53Z</time>
      </trkpt>
      <trkpt lat="42.3596610" lon="-6.8186460">
        <ele>886.9</ele>
        <time>2014-10-01T10:28:54Z</time>
      </trkpt>
      <trkpt lat="42.3596670" lon="-6.8188200">
        <ele>886.0</ele>
        <time>2014-10-01T10:28:55Z</time>
      </trkpt>
      <trkpt lat="42.3596650" lon="-6.8189930">
        <ele>885.0</ele>
        <time>2014-10-01T10:28:56Z</time>
      </trkpt>
      <trkpt lat="42.3596600" lon="-6.8191670">
        <ele>884.1</ele>
        <time>2014-10-01T10:28:57Z</time>
      </trkpt>
      <trkpt lat="42.3596550" lon="-6.8193380">
        <ele>883.2</ele>
        <time>2014-10-01T10:28:58Z</time>
      </trkpt>
      <trkpt lat="42.3596470" lon="-6.8195150">
        <ele>882.2</ele>
        <time>2014-10-01T10:28:59Z</time>
      </trkpt>
      <trkpt lat="42.3596430" lon="-6.8196940">
        <ele>881.2</ele>
        <time>2014-10-01T10:29:00Z</time>
      </trkpt>
      <trkpt lat="42.3596360" lon="-6.8198740">
        <ele>880.3</ele>
        <time>2014-10-01T10:29:01Z</time>
      </trkpt>
      <trkpt lat="42.3596280" lon="-6.8200520">
        <ele>879.4</ele>
        <time>2014-10-01T10:29:02Z</time>
      </trkpt>
      <trkpt lat="42.3596170" lon="-6.8202310">
        <ele>878.4</ele>
        <time>2014-10-01T10:29:03Z</time>
      </trkpt>
      <trkpt lat="42.3596040" lon="-6.8204100">
        <ele>877.5</ele>
        <time>2014-10-01T10:29:04Z</time>
      </trkpt>
      <trkpt lat="42.3595880" lon="-6.8205870">
        <ele>876.5</ele>
        <time>2014-10-01T10:29:05Z</time>
      </trkpt>
      <trkpt lat="42.3595730" lon="-6.8207620">
        <ele>875.6</ele>
        <time>2014-10-01T10:29:06Z</time>
      </trkpt>
      <trkpt lat="42.3595600" lon="-6.8209250">
        <ele>874.8</ele>
        <time>2014-10-01T10:29:07Z</time>
      </trkpt>
      <trkpt lat="42.3595480" lon="-6.8210910">
        <ele>873.8</ele>
        <time>2014-10-01T10:29:08Z</time>
      </trkpt>
      <trkpt lat="42.3595390" lon="-6.8212540">
        <ele>872.9</ele>
        <time>2014-10-01T10:29:09Z</time>
      </trkpt>
      <trkpt lat="42.3595290" lon="-6.8214260">
        <ele>871.9</ele>
        <time>2014-10-01T10:29:10Z</time>
      </trkpt>
      <trkpt lat="42.3595500" lon="-6.8215920">
        <ele>871.0</ele>
        <time>2014-10-01T10:29:11Z</time>
      </trkpt>
      <trkpt lat="42.3596170" lon="-6.8217370">
        <ele>870.1</ele>
        <time>2014-10-01T10:29:12Z</time>
      </trkpt>
      <trkpt lat="42.3597080" lon="-6.8218350">
        <ele>869.2</ele>
        <time>2014-10-01T10:29:13Z</time>
      </trkpt>
      <trkpt lat="42.3598100" lon="-6.8219270">
        <ele>868.3</ele>
        <time>2014-10-01T10:29:14Z</time>
      </trkpt>
      <trkpt lat="42.3599290" lon="-6.8219830">
        <ele>867.3</ele>
        <time>2014-10-01T10:29:15Z</time>
      </trkpt>
      <trkpt lat="42.3600440" lon="-6.8220250">
        <ele>866.4</ele>
        <time>2014-10-01T10:29:16Z</time>
      </trkpt>
      <trkpt lat="42.3601720" lon="-6.8220680">
        <ele>865.3</ele>
        <time>2014-10-01T10:29:17Z</time>
      </trkpt>
      <trkpt lat="42.3602970" lon="-6.8221080">
        <ele>864.3</ele>
        <time>2014-10-01T10:29:18Z</time>
      </trkpt>
      <trkpt lat="42.3604170" lon="-6.8221450">
        <ele>863.4</ele>
        <time>2014-10-01T10:29:19Z</time>
      </trkpt>
      <trkpt lat="42.3605370" lon="-6.8221840">
        <ele>862.5</ele>
        <time>2014-10-01T10:29:20Z</time>
      </trkpt>
      <trkpt lat="42.3606590" lon="-6.8222320">
        <ele>861.5</ele>
        <time>2014-10-01T10:29:21Z</time>
      </trkpt>
      <trkpt lat="42.3607910" lon="-6.8222930">
        <ele>860.4</ele>
        <time>2014-10-01T10:29:22Z</time>
      </trkpt>
      <trkpt lat="42.3609170" lon="-6.8223590">
        <ele>859.4</ele>
        <time>2014-10-01T10:29:23Z</time>
      </trkpt>
      <trkpt lat="42.3610460" lon="-6.8224270">
        <ele>858.5</ele>
        <time>2014-10-01T10:29:24Z</time>
      </trkpt>
      <trkpt lat="42.3611700" lon="-6.8224930">
        <ele>857.6</ele>
        <time>2014-10-01T10:29:25Z</time>
      </trkpt>
      <trkpt lat="42.3612950" lon="-6.8225540">
        <ele>856.9</ele>
        <time>2014-10-01T10:29:26Z</time>
      </trkpt>
      <trkpt lat="42.3614230" lon="-6.8226100">
        <ele>856.0</ele>
        <time>2014-10-01T10:29:27Z</time>
      </trkpt>
      <trkpt lat="42.3615550" lon="-6.8226230">
        <ele>855.2</ele>
        <time>2014-10-01T10:29:28Z</time>
      </trkpt>
      <trkpt lat="42.3616840" lon="-6.8225950">
        <ele>854.3</ele>
        <time>2014-10-01T10:29:29Z</time>
      </trkpt>
      <trkpt lat="42.3617990" lon="-6.8225530">
        <ele>853.4</ele>
        <time>2014-10-01T10:29:30Z</time>
      </trkpt>
      <trkpt lat="42.3619030" lon="-6.8224550">
        <ele>852.4</ele>
        <time>2014-10-01T10:29:31Z</time>
      </trkpt>
      <trkpt lat="42.3620240" lon="-6.8223450">
        <ele>851.3</ele>
        <time>2014-10-01T10:29:32Z</time>
      </trkpt>
      <trkpt lat="42.3621380" lon="-6.8222370">
        <ele>850.2</ele>
        <time>2014-10-01T10:29:33Z</time>
      </trkpt>
      <trkpt lat="42.3622550" lon="-6.8221280">
        <ele>849.1</ele>
        <time>2014-10-01T10:29:34Z</time>
      </trkpt>
      <trkpt lat="42.3623690" lon="-6.8220200">
        <ele>848.0</ele>
        <time>2014-10-01T10:29:35Z</time>
      </trkpt>
      <trkpt lat="42.3624900" lon="-6.8219210">
        <ele>847.0</ele>
        <time>2014-10-01T10:29:36Z</time>
      </trkpt>
      <trkpt lat="42.3626130" lon="-6.8218360">
        <ele>846.2</ele>
        <time>2014-10-01T10:29:37Z</time>
      </trkpt>
      <trkpt lat="42.3627360" lon="-6.8217610">
        <ele>845.3</ele>
        <time>2014-10-01T10:29:38Z</time>
      </trkpt>
      <trkpt lat="42.3628540" lon="-6.8216900">
        <ele>844.5</ele>
        <time>2014-10-01T10:29:39Z</time>
      </trkpt>
      <trkpt lat="42.3630020" lon="-6.8215980">
        <ele>843.3</ele>
        <time>2014-10-01T10:29:40Z</time>
      </trkpt>
      <trkpt lat="42.3631360" lon="-6.8215020">
        <ele>842.1</ele>
        <time>2014-10-01T10:29:41Z</time>
      </trkpt>
      <trkpt lat="42.3632680" lon="-6.8213820">
        <ele>841.0</ele>
        <time>2014-10-01T10:29:42Z</time>
      </trkpt>
      <trkpt lat="42.3633640" lon="-6.8212100">
        <ele>839.9</ele>
        <time>2014-10-01T10:29:43Z</time>
      </trkpt>
      <trkpt lat="42.3634510" lon="-6.8210520">
        <ele>838.9</ele>
        <time>2014-10-01T10:29:44Z</time>
      </trkpt>
      <trkpt lat="42.3635370" lon="-6.8208930">
        <ele>837.9</ele>
        <time>2014-10-01T10:29:45Z</time>
      </trkpt>
      <trkpt lat="42.3635880" lon="-6.8207230">
        <ele>836.9</ele>
        <time>2014-10-01T10:29:46Z</time>
      </trkpt>
      <trkpt lat="42.3635970" lon="-6.8205290">
        <ele>835.9</ele>
        <time>2014-10-01T10:29:47Z</time>
      </trkpt>
      <trkpt lat="42.3635910" lon="-6.8203200">
        <ele>834.8</ele>
        <time>2014-10-01T10:29:48Z</time>
      </trkpt>
      <trkpt lat="42.3635940" lon="-6.8201260">
        <ele>833.9</ele>
        <time>2014-10-01T10:29:49Z</time>
      </trkpt>
      <trkpt lat="42.3635880" lon="-6.8199300">
        <ele>833.0</ele>
        <time>2014-10-01T10:29:50Z</time>
      </trkpt>
      <trkpt lat="42.3635740" lon="-6.8197240">
        <ele>831.7</ele>
        <time>2014-10-01T10:29:51Z</time>
      </trkpt>
      <trkpt lat="42.3635610" lon="-6.8195170">
        <ele>830.4</ele>
        <time>2014-10-01T10:29:52Z</time>
      </trkpt>
      <trkpt lat="42.3635460" lon="-6.8193420">
        <ele>829.6</ele>
        <time>2014-10-01T10:29:53Z</time>
      </trkpt>
      <trkpt lat="42.3635340" lon="-6.8191680">
        <ele>828.8</ele>
        <time>2014-10-01T10:29:54Z</time>
      </trkpt>
      <trkpt lat="42.3635280" lon="-6.8189970">
        <ele>828.3</ele>
        <time>2014-10-01T10:29:55Z</time>
      </trkpt>
      <trkpt lat="42.3635270" lon="-6.8188280">
        <ele>827.8</ele>
        <time>2014-10-01T10:29:56Z</time>
      </trkpt>
      <trkpt lat="42.3635350" lon="-6.8186580">
        <ele>827.4</ele>
        <time>2014-10-01T10:29:57Z</time>
      </trkpt>
      <trkpt lat="42.3635720" lon="-6.8184960">
        <ele>826.8</ele>
        <time>2014-10-01T10:29:58Z</time>
      </trkpt>
      <trkpt lat="42.3636150" lon="-6.8183310">
        <ele>826.2</ele>
        <time>2014-10-01T10:29:59Z</time>
      </trkpt>
      <trkpt lat="42.3636980" lon="-6.8181810">
        <ele>825.8</ele>
        <time>2014-10-01T10:30:00Z</time>
      </trkpt>
      <trkpt lat="42.3637820" lon="-6.8180530">
        <ele>825.6</ele>
        <time>2014-10-01T10:30:01Z</time>
      </trkpt>
      <trkpt lat="42.3639020" lon="-6.8179870">
        <ele>825.4</ele>
        <time>2014-10-01T10:30:02Z</time>
      </trkpt>
      <trkpt lat="42.3640140" lon="-6.8179730">
        <ele>825.4</ele>
        <time>2014-10-01T10:30:03Z</time>
      </trkpt>
      <trkpt lat="42.3641260" lon="-6.8179760">
        <ele>825.6</ele>
        <time>2014-10-01T10:30:04Z</time>
      </trkpt>
      <trkpt lat="42.3642310" lon="-6.8180320">
        <ele>825.9</ele>
        <time>2014-10-01T10:30:05Z</time>
      </trkpt>
      <trkpt lat="42.3643310" lon="-6.8180980">
        <ele>826.3</ele>
        <time>2014-10-01T10:30:06Z</time>
      </trkpt>
      <trkpt lat="42.3644280" lon="-6.8181730">
        <ele>826.8</ele>
        <time>2014-10-01T10:30:07Z</time>
      </trkpt>
      <trkpt lat="42.3645230" lon="-6.8182540">
        <ele>827.3</ele>
        <time>2014-10-01T10:30:08Z</time>
      </trkpt>
      <trkpt lat="42.3646070" lon="-6.8183340">
        <ele>827.8</ele>
        <time>2014-10-01T10:30:09Z</time>
      </trkpt>
      <trkpt lat="42.3646890" lon="-6.8184140">
        <ele>828.1</ele>
        <time>2014-10-01T10:30:10Z</time>
      </trkpt>
      <trkpt lat="42.3647670" lon="-6.8184910">
        <ele>828.4</ele>
        <time>2014-10-01T10:30:11Z</time>
      </trkpt>
      <trkpt lat="42.3648490" lon="-6.8185590">
        <ele>828.6</ele>
        <time>2014-10-01T10:30:12Z</time>
      </trkpt>
      <trkpt lat="42.3649480" lon="-6.8185960">
        <ele>828.7</ele>
        <time>2014-10-01T10:30:13Z</time>
      </trkpt>
      <trkpt lat="42.3650510" lon="-6.8186260">
        <ele>828.7</ele>
        <time>2014-10-01T10:30:14Z</time>
      </trkpt>
      <trkpt lat="42.3651360" lon="-6.8186430">
        <ele>828.7</ele>
        <time>2014-10-01T10:30:15Z</time>
      </trkpt>
      <trkpt lat="42.3652160" lon="-6.8186530">
        <ele>828.7</ele>
        <time>2014-10-01T10:30:16Z</time>
      </trkpt>
      <trkpt lat="42.3652810" lon="-6.8186590">
        <ele>828.7</ele>
        <time>2014-10-01T10:30:17Z</time>
      </trkpt>
      <trkpt lat="42.3653520" lon="-6.8186640">
        <ele>828.7</ele>
        <time>2014-10-01T10:30:18Z</time>
      </trkpt>
      <trkpt lat="42.3654350" lon="-6.8186680">
        <ele>828.7</ele>
        <time>2014-10-01T10:30:19Z</time>
      </trkpt>
      <trkpt lat="42.3655260" lon="-6.8186740">
        <ele>828.8</ele>
        <time>2014-10-01T10:30:20Z</time>
      </trkpt>
      <trkpt lat="42.3656200" lon="-6.8186830">
        <ele>828.9</ele>
        <time>2014-10-01T10:30:21Z</time>
      </trkpt>
      <trkpt lat="42.3656820" lon="-6.8187220">
        <ele>828.9</ele>
        <time>2014-10-01T10:30:22Z</time>
      </trkpt>
      <trkpt lat="42.3657550" lon="-6.8188160">
        <ele>829.0</ele>
        <time>2014-10-01T10:30:23Z</time>
      </trkpt>
      <trkpt lat="42.3658140" lon="-6.8189450">
        <ele>829.3</ele>
        <time>2014-10-01T10:30:24Z</time>
      </trkpt>
      <trkpt lat="42.3658510" lon="-6.8190860">
        <ele>829.6</ele>
        <time>2014-10-01T10:30:25Z</time>
      </trkpt>
      <trkpt lat="42.3658560" lon="-6.8192230">
        <ele>829.9</ele>
        <time>2014-10-01T10:30:26Z</time>
      </trkpt>
      <trkpt lat="42.3658500" lon="-6.8193550">
        <ele>830.2</ele>
        <time>2014-10-01T10:30:27Z</time>
      </trkpt>
      <trkpt lat="42.3658240" lon="-6.8194670">
        <ele>830.6</ele>
        <time>2014-10-01T10:30:28Z</time>
      </trkpt>
      <trkpt lat="42.3658110" lon="-6.8195620">
        <ele>831.1</ele>
        <time>2014-10-01T10:30:29Z</time>
      </trkpt>
      <trkpt lat="42.3657930" lon="-6.8196560">
        <ele>831.5</ele>
        <time>2014-10-01T10:30:30Z</time>
      </trkpt>
      <trkpt lat="42.3657760" lon="-6.8197450">
        <ele>831.9</ele>
        <time>2014-10-01T10:30:31Z</time>
      </trkpt>
      <trkpt lat="42.3657610" lon="-6.8198320">
        <ele>832.3</ele>
        <time>2014-10-01T10:30:32Z</time>
      </trkpt>
      <trkpt lat="42.3657490" lon="-6.8199180">
        <ele>832.6</ele>
        <time>2014-10-01T10:30:33Z</time>
      </trkpt>
      <trkpt lat="42.3657600" lon="-6.8199930">
        <ele>832.9</ele>
        <time>2014-10-01T10:30:34Z</time>
      </trkpt>
      <trkpt lat="42.3657750" lon="-6.8200600">
        <ele>833.3</ele>
        <time>2014-10-01T10:30:35Z</time>
      </trkpt>
      <trkpt lat="42.3658070" lon="-6.8201230">
        <ele>833.6</ele>
        <time>2014-10-01T10:30:36Z</time>
      </trkpt>
      <trkpt lat="42.3658370" lon="-6.8201810">
        <ele>833.9</ele>
        <time>2014-10-01T10:30:37Z</time>
      </trkpt>
      <trkpt lat="42.3658690" lon="-6.8202410">
        <ele>834.2</ele>
        <time>2014-10-01T10:30:38Z</time>
      </trkpt>
      <trkpt lat="42.3658960" lon="-6.8202970">
        <ele>834.5</ele>
        <time>2014-10-01T10:30:39Z</time>
      </trkpt>
      <trkpt lat="42.3659140" lon="-6.8203650">
        <ele>834.8</ele>
        <time>2014-10-01T10:30:40Z</time>
      </trkpt>
      <trkpt lat="42.3659270" lon="-6.8204430">
        <ele>835.1</ele>
        <time>2014-10-01T10:30:41Z</time>
      </trkpt>
      <trkpt lat="42.3659250" lon="-6.8205230">
        <ele>835.5</ele>
        <time>2014-10-01T10:30:42Z</time>
      </trkpt>
      <trkpt lat="42.3659080" lon="-6.8206070">
        <ele>835.8</ele>
        <time>2014-10-01T10:30:43Z</time>
      </trkpt>
      <trkpt lat="42.3658880" lon="-6.8206850">
        <ele>836.0</ele>
        <time>2014-10-01T10:30:44Z</time>
      </trkpt>
      <trkpt lat="42.3658660" lon="-6.8207560">
        <ele>836.3</ele>
        <time>2014-10-01T10:30:45Z</time>
      </trkpt>
      <trkpt lat="42.3658440" lon="-6.8208240">
        <ele>836.5</ele>
        <time>2014-10-01T10:30:46Z</time>
      </trkpt>
      <trkpt lat="42.3658210" lon="-6.8208910">
        <ele>836.7</ele>
        <time>2014-10-01T10:30:47Z</time>
      </trkpt>
      <trkpt lat="42.3657940" lon="-6.8209560">
        <ele>837.0</ele>
        <time>2014-10-01T10:30:48Z</time>
      </trkpt>
      <trkpt lat="42.3657650" lon="-6.8210240">
        <ele>837.3</ele>
        <time>2014-10-01T10:30:49Z</time>
      </trkpt>
      <trkpt lat="42.3657400" lon="-6.8210820">
        <ele>837.5</ele>
        <time>2014-10-01T10:30:50Z</time>
      </trkpt>
      <trkpt lat="42.3657150" lon="-6.8211400">
        <ele>837.8</ele>
        <time>2014-10-01T10:30:51Z</time>
      </trkpt>
      <trkpt lat="42.3656920" lon="-6.8211950">
        <ele>838.0</ele>
        <time>2014-10-01T10:30:52Z</time>
      </trkpt>
      <trkpt lat="42.3656660" lon="-6.8212590">
        <ele>838.4</ele>
        <time>2014-10-01T10:30:53Z</time>
      </trkpt>
      <trkpt lat="42.3656380" lon="-6.8213230">
        <ele>838.7</ele>
        <time>2014-10-01T10:30:54Z</time>
      </trkpt>
      <trkpt lat="42.3656090" lon="-6.8213890">
        <ele>839.0</ele>
        <time>2014-10-01T10:30:55Z</time>
      </trkpt>
      <trkpt lat="42.3655820" lon="-6.8214570">
        <ele>839.3</ele>
        <time>2014-10-01T10:30:56Z</time>
      </trkpt>
      <trkpt lat="42.3655550" lon="-6.8215300">
        <ele>839.6</ele>
        <time>2014-10-01T10:30:57Z</time>
      </trkpt>
      <trkpt lat="42.3655340" lon="-6.8215960">
        <ele>839.9</ele>
        <time>2014-10-01T10:30:58Z</time>
      </trkpt>
      <trkpt lat="42.3655120" lon="-6.8216670">
        <ele>840.3</ele>
        <time>2014-10-01T10:30:59Z</time>
      </trkpt>
      <trkpt lat="42.3654900" lon="-6.8217380">
        <ele>840.6</ele>
        <time>2014-10-01T10:31:00Z</time>
      </trkpt>
      <trkpt lat="42.3654700" lon="-6.8218090">
        <ele>840.9</ele>
        <time>2014-10-01T10:31:01Z</time>
      </trkpt>
      <trkpt lat="42.3654530" lon="-6.8218790">
        <ele>841.2</ele>
        <time>2014-10-01T10:31:02Z</time>
      </trkpt>
      <trkpt lat="42.3654360" lon="-6.8219500">
        <ele>841.5</ele>
        <time>2014-10-01T10:31:03Z</time>
      </trkpt>
      <trkpt lat="42.3654200" lon="-6.8220200">
        <ele>841.8</ele>
        <time>2014-10-01T10:31:04Z</time>
      </trkpt>
      <trkpt lat="42.3654040" lon="-6.8220970">
        <ele>842.1</ele>
        <time>2014-10-01T10:31:05Z</time>
      </trkpt>
      <trkpt lat="42.3653910" lon="-6.8221800">
        <ele>842.5</ele>
        <time>2014-10-01T10:31:06Z</time>
      </trkpt>
      <trkpt lat="42.3653800" lon="-6.8222570">
        <ele>842.8</ele>
        <time>2014-10-01T10:31:07Z</time>
      </trkpt>
      <trkpt lat="42.3653710" lon="-6.8223280">
        <ele>843.2</ele>
        <time>2014-10-01T10:31:08Z</time>
      </trkpt>
      <trkpt lat="42.3653650" lon="-6.8223920">
        <ele>843.5</ele>
        <time>2014-10-01T10:31:09Z</time>
      </trkpt>
      <trkpt lat="42.3653580" lon="-6.8224580">
        <ele>843.8</ele>
        <time>2014-10-01T10:31:10Z</time>
      </trkpt>
      <trkpt lat="42.3653550" lon="-6.8225240">
        <ele>844.1</ele>
        <time>2014-10-01T10:31:11Z</time>
      </trkpt>
      <trkpt lat="42.3653540" lon="-6.8225920">
        <ele>844.5</ele>
        <time>2014-10-01T10:31:12Z</time>
      </trkpt>
      <trkpt lat="42.3653540" lon="-6.8226540">
        <ele>844.8</ele>
        <time>2014-10-01T10:31:13Z</time>
      </trkpt>
      <trkpt lat="42.3653530" lon="-6.8227230">
        <ele>845.1</ele>
        <time>2014-10-01T10:31:14Z</time>
      </trkpt>
      <trkpt lat="42.3653550" lon="-6.8227940">
        <ele>845.4</ele>
        <time>2014-10-01T10:31:15Z</time>
      </trkpt>
      <trkpt lat="42.3653610" lon="-6.8228580">
        <ele>845.7</ele>
        <time>2014-10-01T10:31:16Z</time>
      </trkpt>
      <trkpt lat="42.3653690" lon="-6.8229250">
        <ele>845.9</ele>
        <time>2014-10-01T10:31:17Z</time>
      </trkpt>
      <trkpt lat="42.3653770" lon="-6.8229910">
        <ele>846.2</ele>
        <time>2014-10-01T10:31:18Z</time>
      </trkpt>
      <trkpt lat="42.3653840" lon="-6.8230600">
        <ele>846.5</ele>
        <time>2014-10-01T10:31:19Z</time>
      </trkpt>
      <trkpt lat="42.3653910" lon="-6.8231300">
        <ele>846.8</ele>
        <time>2014-10-01T10:31:20Z</time>
      </trkpt>
      <trkpt lat="42.3653960" lon="-6.8232050">
        <ele>847.1</ele>
        <time>2014-10-01T10:31:21Z</time>
      </trkpt>
      <trkpt lat="42.3653980" lon="-6.8232730">
        <ele>847.4</ele>
        <time>2014-10-01T10:31:22Z</time>
      </trkpt>
      <trkpt lat="42.3653880" lon="-6.8233410">
        <ele>847.7</ele>
        <time>2014-10-01T10:31:23Z</time>
      </trkpt>
      <trkpt lat="42.3653760" lon="-6.8234060">
        <ele>848.0</ele>
        <time>2014-10-01T10:31:24Z</time>
      </trkpt>
      <trkpt lat="42.3653630" lon="-6.8234750">
        <ele>848.3</ele>
        <time>2014-10-01T10:31:25Z</time>
      </trkpt>
      <trkpt lat="42.3653440" lon="-6.8235460">
        <ele>848.6</ele>
        <time>2014-10-01T10:31:26Z</time>
      </trkpt>
      <trkpt lat="42.3653210" lon="-6.8236030">
        <ele>848.8</ele>
        <time>2014-10-01T10:31:27Z</time>
      </trkpt>
      <trkpt lat="42.3652950" lon="-6.8236640">
        <ele>849.1</ele>
        <time>2014-10-01T10:31:28Z</time>
      </trkpt>
      <trkpt lat="42.3652680" lon="-6.8237280">
        <ele>849.4</ele>
        <time>2014-10-01T10:31:29Z</time>
      </trkpt>
      <trkpt lat="42.3652440" lon="-6.8237820">
        <ele>849.7</ele>
        <time>2014-10-01T10:31:30Z</time>
      </trkpt>
      <trkpt lat="42.3652170" lon="-6.8238410">
        <ele>850.0</ele>
        <time>2014-10-01T10:31:31Z</time>
      </trkpt>
      <trkpt lat="42.3651890" lon="-6.8239020">
        <ele>850.3</ele>
        <time>2014-10-01T10:31:32Z</time>
      </trkpt>
      <trkpt lat="42.3651650" lon="-6.8239500">
        <ele>850.5</ele>
        <time>2014-10-01T10:31:33Z</time>
      </trkpt>
      <trkpt lat="42.3651380" lon="-6.8240050">
        <ele>850.8</ele>
        <time>2014-10-01T10:31:34Z</time>
      </trkpt>
      <trkpt lat="42.3651080" lon="-6.8240700">
        <ele>851.1</ele>
        <time>2014-10-01T10:31:35Z</time>
      </trkpt>
      <trkpt lat="42.3650790" lon="-6.8241310">
        <ele>851.4</ele>
        <time>2014-10-01T10:31:36Z</time>
      </trkpt>
      <trkpt lat="42.3650490" lon="-6.8241940">
        <ele>851.6</ele>
        <time>2014-10-01T10:31:37Z</time>
      </trkpt>
      <trkpt lat="42.3650190" lon="-6.8242590">
        <ele>851.9</ele>
        <time>2014-10-01T10:31:38Z</time>
      </trkpt>
      <trkpt lat="42.3649940" lon="-6.8243230">
        <ele>852.1</ele>
        <time>2014-10-01T10:31:39Z</time>
      </trkpt>
      <trkpt lat="42.3649670" lon="-6.8243910">
        <ele>852.4</ele>
        <time>2014-10-01T10:31:40Z</time>
      </trkpt>
      <trkpt lat="42.3649410" lon="-6.8244650">
        <ele>852.7</ele>
        <time>2014-10-01T10:31:41Z</time>
      </trkpt>
      <trkpt lat="42.3649170" lon="-6.8245370">
        <ele>853.0</ele>
        <time>2014-10-01T10:31:42Z</time>
      </trkpt>
      <trkpt lat="42.3648940" lon="-6.8246100">
        <ele>853.3</ele>
        <time>2014-10-01T10:31:43Z</time>
      </trkpt>
      <trkpt lat="42.3648730" lon="-6.8246840">
        <ele>853.7</ele>
        <time>2014-10-01T10:31:44Z</time>
      </trkpt>
      <trkpt lat="42.3648560" lon="-6.8247550">
        <ele>854.0</ele>
        <time>2014-10-01T10:31:45Z</time>
      </trkpt>
      <trkpt lat="42.3648380" lon="-6.8248250">
        <ele>854.3</ele>
        <time>2014-10-01T10:31:46Z</time>
      </trkpt>
      <trkpt lat="42.3648220" lon="-6.8248920">
        <ele>854.5</ele>
        <time>2014-10-01T10:31:47Z</time>
      </trkpt>
      <trkpt lat="42.3648070" lon="-6.8249600">
        <ele>854.8</ele>
        <time>2014-10-01T10:31:48Z</time>
      </trkpt>
      <trkpt lat="42.3647900" lon="-6.8250310">
        <ele>854.9</ele>
        <time>2014-10-01T10:31:49Z</time>
      </trkpt>
      <trkpt lat="42.3647720" lon="-6.8251020">
        <ele>854.8</ele>
        <time>2014-10-01T10:31:50Z</time>
      </trkpt>
      <trkpt lat="42.3647560" lon="-6.8251630">
        <ele>854.4</ele>
        <time>2014-10-01T10:31:51Z</time>
      </trkpt>
      <trkpt lat="42.3647400" lon="-6.8252240">
        <ele>853.8</ele>
        <time>2014-10-01T10:31:52Z</time>
      </trkpt>
      <trkpt lat="42.3647220" lon="-6.8252880">
        <ele>853.8</ele>
        <time>2014-10-01T10:31:53Z</time>
      </trkpt>
      <trkpt lat="42.3647050" lon="-6.8253480">
        <ele>853.8</ele>
        <time>2014-10-01T10:31:54Z</time>
      </trkpt>
      <trkpt lat="42.3646870" lon="-6.8254080">
        <ele>853.9</ele>
        <time>2014-10-01T10:31:55Z</time>
      </trkpt>
      <trkpt lat="42.3646690" lon="-6.8254700">
        <ele>854.0</ele>
        <time>2014-10-01T10:31:56Z</time>
      </trkpt>
      <trkpt lat="42.3646510" lon="-6.8255320">
        <ele>854.1</ele>
        <time>2014-10-01T10:31:57Z</time>
      </trkpt>
      <trkpt lat="42.3646320" lon="-6.8256000">
        <ele>854.2</ele>
        <time>2014-10-01T10:31:58Z</time>
      </trkpt>
      <trkpt lat="42.3646150" lon="-6.8256690">
        <ele>854.3</ele>
        <time>2014-10-01T10:31:59Z</time>
      </trkpt>
      <trkpt lat="42.3645980" lon="-6.8257380">
        <ele>854.5</ele>
        <time>2014-10-01T10:32:00Z</time>
      </trkpt>
      <trkpt lat="42.3645820" lon="-6.8258030">
        <ele>854.7</ele>
        <time>2014-10-01T10:32:01Z</time>
      </trkpt>
      <trkpt lat="42.3645660" lon="-6.8258690">
        <ele>854.9</ele>
        <time>2014-10-01T10:32:02Z</time>
      </trkpt>
      <trkpt lat="42.3645480" lon="-6.8259320">
        <ele>855.0</ele>
        <time>2014-10-01T10:32:03Z</time>
      </trkpt>
      <trkpt lat="42.3645320" lon="-6.8259930">
        <ele>855.2</ele>
        <time>2014-10-01T10:32:04Z</time>
      </trkpt>
      <trkpt lat="42.3645170" lon="-6.8260520">
        <ele>855.4</ele>
        <time>2014-10-01T10:32:05Z</time>
      </trkpt>
      <trkpt lat="42.3645000" lon="-6.8261200">
        <ele>855.6</ele>
        <time>2014-10-01T10:32:06Z</time>
      </trkpt>
      <trkpt lat="42.3644870" lon="-6.8261840">
        <ele>855.8</ele>
        <time>2014-10-01T10:32:07Z</time>
      </trkpt>
      <trkpt lat="42.3644720" lon="-6.8262490">
        <ele>856.0</ele>
        <time>2014-10-01T10:32:08Z</time>
      </trkpt>
      <trkpt lat="42.3644560" lon="-6.8263160">
        <ele>856.2</ele>
        <time>2014-10-01T10:32:09Z</time>
      </trkpt>
      <trkpt lat="42.3644400" lon="-6.8263780">
        <ele>856.3</ele>
        <time>2014-10-01T10:32:10Z</time>
      </trkpt>
      <trkpt lat="42.3644270" lon="-6.8264430">
        <ele>856.5</ele>
        <time>2014-10-01T10:32:11Z</time>
      </trkpt>
      <trkpt lat="42.3644160" lon="-6.8265050">
        <ele>856.7</ele>
        <time>2014-10-01T10:32:12Z</time>
      </trkpt>
      <trkpt lat="42.3644040" lon="-6.8265660">
        <ele>856.9</ele>
        <time>2014-10-01T10:32:13Z</time>
      </trkpt>
      <trkpt lat="42.3643920" lon="-6.8266240">
        <ele>857.1</ele>
        <time>2014-10-01T10:32:14Z</time>
      </trkpt>
      <trkpt lat="42.3643800" lon="-6.8266810">
        <ele>857.2</ele>
        <time>2014-10-01T10:32:15Z</time>
      </trkpt>
      <trkpt lat="42.3643680" lon="-6.8267360">
        <ele>857.4</ele>
        <time>2014-10-01T10:32:16Z</time>
      </trkpt>
      <trkpt lat="42.3643550" lon="-6.8267960">
        <ele>857.5</ele>
        <time>2014-10-01T10:32:17Z</time>
      </trkpt>
      <trkpt lat="42.3643380" lon="-6.8268580">
        <ele>857.7</ele>
        <time>2014-10-01T10:32:18Z</time>
      </trkpt>
      <trkpt lat="42.3643210" lon="-6.8269190">
        <ele>857.8</ele>
        <time>2014-10-01T10:32:19Z</time>
      </trkpt>
      <trkpt lat="42.3643050" lon="-6.8269820">
        <ele>858.0</ele>
        <time>2014-10-01T10:32:20Z</time>
      </trkpt>
      <trkpt lat="42.3642890" lon="-6.8270400">
        <ele>858.1</ele>
        <time>2014-10-01T10:32:21Z</time>
      </trkpt>
      <trkpt lat="42.3642730" lon="-6.8270980">
        <ele>858.3</ele>
        <time>2014-10-01T10:32:22Z</time>
      </trkpt>
      <trkpt lat="42.3642550" lon="-6.8271580">
        <ele>858.4</ele>
        <time>2014-10-01T10:32:23Z</time>
      </trkpt>
      <trkpt lat="42.3642340" lon="-6.8272230">
        <ele>858.6</ele>
        <time>2014-10-01T10:32:24Z</time>
      </trkpt>
      <trkpt lat="42.3642120" lon="-6.8272880">
        <ele>858.7</ele>
        <time>2014-10-01T10:32:25Z</time>
      </trkpt>
      <trkpt lat="42.3641900" lon="-6.8273520">
        <ele>858.9</ele>
        <time>2014-10-01T10:32:26Z</time>
      </trkpt>
      <trkpt lat="42.3641640" lon="-6.8274180">
        <ele>859.0</ele>
        <time>2014-10-01T10:32:27Z</time>
      </trkpt>
      <trkpt lat="42.3641370" lon="-6.8274840">
        <ele>859.2</ele>
        <time>2014-10-01T10:32:28Z</time>
      </trkpt>
      <trkpt lat="42.3641110" lon="-6.8275440">
        <ele>859.4</ele>
        <time>2014-10-01T10:32:29Z</time>
      </trkpt>
      <trkpt lat="42.3640830" lon="-6.8276030">
        <ele>859.5</ele>
        <time>2014-10-01T10:32:30Z</time>
      </trkpt>
      <trkpt lat="42.3640490" lon="-6.8276670">
        <ele>859.7</ele>
        <time>2014-10-01T10:32:31Z</time>
      </trkpt>
      <trkpt lat="42.3640150" lon="-6.8277290">
        <ele>859.9</ele>
        <time>2014-10-01T10:32:32Z</time>
      </trkpt>
      <trkpt lat="42.3639780" lon="-6.8277910">
        <ele>860.0</ele>
        <time>2014-10-01T10:32:33Z</time>
      </trkpt>
      <trkpt lat="42.3639410" lon="-6.8278480">
        <ele>860.1</ele>
        <time>2014-10-01T10:32:34Z</time>
      </trkpt>
      <trkpt lat="42.3639060" lon="-6.8279020">
        <ele>860.2</ele>
        <time>2014-10-01T10:32:35Z</time>
      </trkpt>
      <trkpt lat="42.3638650" lon="-6.8279620">
        <ele>860.3</ele>
        <time>2014-10-01T10:32:36Z</time>
      </trkpt>
      <trkpt lat="42.3638260" lon="-6.8280170">
        <ele>860.3</ele>
        <time>2014-10-01T10:32:37Z</time>
      </trkpt>
      <trkpt lat="42.3637860" lon="-6.8280700">
        <ele>860.4</ele>
        <time>2014-10-01T10:32:38Z</time>
      </trkpt>
      <trkpt lat="42.3637430" lon="-6.8281260">
        <ele>860.5</ele>
        <time>2014-10-01T10:32:39Z</time>
      </trkpt>
      <trkpt lat="42.3637000" lon="-6.8281760">
        <ele>860.5</ele>
        <time>2014-10-01T10:32:40Z</time>
      </trkpt>
      <trkpt lat="42.3636520" lon="-6.8282280">
        <ele>860.5</ele>
        <time>2014-10-01T10:32:41Z</time>
      </trkpt>
      <trkpt lat="42.3636020" lon="-6.8282790">
        <ele>860.6</ele>
        <time>2014-10-01T10:32:42Z</time>
      </trkpt>
      <trkpt lat="42.3635540" lon="-6.8283290">
        <ele>860.7</ele>
        <time>2014-10-01T10:32:43Z</time>
      </trkpt>
      <trkpt lat="42.3635050" lon="-6.8283760">
        <ele>860.8</ele>
        <time>2014-10-01T10:32:44Z</time>
      </trkpt>
      <trkpt lat="42.3634560" lon="-6.8284200">
        <ele>860.9</ele>
        <time>2014-10-01T10:32:45Z</time>
      </trkpt>
      <trkpt lat="42.3634020" lon="-6.8284670">
        <ele>861.0</ele>
        <time>2014-10-01T10:32:46Z</time>
      </trkpt>
      <trkpt lat="42.3633510" lon="-6.8285110">
        <ele>861.0</ele>
        <time>2014-10-01T10:32:47Z</time>
      </trkpt>
      <trkpt lat="42.3633020" lon="-6.8285520">
        <ele>861.1</ele>
        <time>2014-10-01T10:32:48Z</time>
      </trkpt>
      <trkpt lat="42.3632540" lon="-6.8285920">
        <ele>861.2</ele>
        <time>2014-10-01T10:32:49Z</time>
      </trkpt>
      <trkpt lat="42.3632040" lon="-6.8286360">
        <ele>861.4</ele>
        <time>2014-10-01T10:32:50Z</time>
      </trkpt>
      <trkpt lat="42.3631530" lon="-6.8286820">
        <ele>861.4</ele>
        <time>2014-10-01T10:32:51Z</time>
      </trkpt>
      <trkpt lat="42.3631020" lon="-6.8287310">
        <ele>861.5</ele>
        <time>2014-10-01T10:32:52Z</time>
      </trkpt>
      <trkpt lat="42.3630520" lon="-6.8287840">
        <ele>861.6</ele>
        <time>2014-10-01T10:32:53Z</time>
      </trkpt>
      <trkpt lat="42.3630110" lon="-6.8288590">
        <ele>861.6</ele>
        <time>2014-10-01T10:32:54Z</time>
      </trkpt>
      <trkpt lat="42.3629780" lon="-6.8289310">
        <ele>861.7</ele>
        <time>2014-10-01T10:32:55Z</time>
      </trkpt>
      <trkpt lat="42.3629600" lon="-6.8290220">
        <ele>861.7</ele>
        <time>2014-10-01T10:32:56Z</time>
      </trkpt>
      <trkpt lat="42.3629550" lon="-6.8291030">
        <ele>861.6</ele>
        <time>2014-10-01T10:32:57Z</time>
      </trkpt>
      <trkpt lat="42.3629720" lon="-6.8291860">
        <ele>861.4</ele>
        <time>2014-10-01T10:32:58Z</time>
      </trkpt>
      <trkpt lat="42.3630040" lon="-6.8292750">
        <ele>861.2</ele>
        <time>2014-10-01T10:32:59Z</time>
      </trkpt>
      <trkpt lat="42.3630600" lon="-6.8293440">
        <ele>861.0</ele>
        <time>2014-10-01T10:33:00Z</time>
      </trkpt>
      <trkpt lat="42.3631160" lon="-6.8294050">
        <ele>860.8</ele>
        <time>2014-10-01T10:33:01Z</time>
      </trkpt>
      <trkpt lat="42.3631820" lon="-6.8294710">
        <ele>860.5</ele>
        <time>2014-10-01T10:33:02Z</time>
      </trkpt>
      <trkpt lat="42.3632490" lon="-6.8295300">
        <ele>860.3</ele>
        <time>2014-10-01T10:33:03Z</time>
      </trkpt>
      <trkpt lat="42.3633150" lon="-6.8295820">
        <ele>860.1</ele>
        <time>2014-10-01T10:33:04Z</time>
      </trkpt>
      <trkpt lat="42.3633870" lon="-6.8296290">
        <ele>859.8</ele>
        <time>2014-10-01T10:33:05Z</time>
      </trkpt>
      <trkpt lat="42.3634580" lon="-6.8296690">
        <ele>859.5</ele>
        <time>2014-10-01T10:33:06Z</time>
      </trkpt>
      <trkpt lat="42.3635340" lon="-6.8297040">
        <ele>859.2</ele>
        <time>2014-10-01T10:33:07Z</time>
      </trkpt>
      <trkpt lat="42.3636160" lon="-6.8297360">
        <ele>858.9</ele>
        <time>2014-10-01T10:33:08Z</time>
      </trkpt>
      <trkpt lat="42.3637000" lon="-6.8297590">
        <ele>858.5</ele>
        <time>2014-10-01T10:33:09Z</time>
      </trkpt>
      <trkpt lat="42.3637850" lon="-6.8297750">
        <ele>858.3</ele>
        <time>2014-10-01T10:33:10Z</time>
      </trkpt>
      <trkpt lat="42.3638730" lon="-6.8297840">
        <ele>857.9</ele>
        <time>2014-10-01T10:33:11Z</time>
      </trkpt>
      <trkpt lat="42.3639420" lon="-6.8297790">
        <ele>857.7</ele>
        <time>2014-10-01T10:33:12Z</time>
      </trkpt>
      <trkpt lat="42.3640370" lon="-6.8297740">
        <ele>857.3</ele>
        <time>2014-10-01T10:33:13Z</time>
      </trkpt>
      <trkpt lat="42.3641190" lon="-6.8297580">
        <ele>857.0</ele>
        <time>2014-10-01T10:33:14Z</time>
      </trkpt>
      <trkpt lat="42.3642000" lon="-6.8297360">
        <ele>856.7</ele>
        <time>2014-10-01T10:33:15Z</time>
      </trkpt>
      <trkpt lat="42.3642890" lon="-6.8297100">
        <ele>856.4</ele>
        <time>2014-10-01T10:33:16Z</time>
      </trkpt>
      <trkpt lat="42.3643870" lon="-6.8296780">
        <ele>856.0</ele>
        <time>2014-10-01T10:33:17Z</time>
      </trkpt>
      <trkpt lat="42.3644860" lon="-6.8296430">
        <ele>855.7</ele>
        <time>2014-10-01T10:33:18Z</time>
      </trkpt>
      <trkpt lat="42.3645900" lon="-6.8295820">
        <ele>855.4</ele>
        <time>2014-10-01T10:33:19Z</time>
      </trkpt>
      <trkpt lat="42.3646950" lon="-6.8295050">
        <ele>855.0</ele>
        <time>2014-10-01T10:33:20Z</time>
      </trkpt>
      <trkpt lat="42.3647870" lon="-6.8294320">
        <ele>854.7</ele>
        <time>2014-10-01T10:33:21Z</time>
      </trkpt>
      <trkpt lat="42.3648690" lon="-6.8293620">
        <ele>854.5</ele>
        <time>2014-10-01T10:33:22Z</time>
      </trkpt>
      <trkpt lat="42.3649650" lon="-6.8292850">
        <ele>854.4</ele>
        <time>2014-10-01T10:33:23Z</time>
      </trkpt>
      <trkpt lat="42.3650560" lon="-6.8292150">
        <ele>854.4</ele>
        <time>2014-10-01T10:33:24Z</time>
      </trkpt>
      <trkpt lat="42.3651370" lon="-6.8291530">
        <ele>854.6</ele>
        <time>2014-10-01T10:33:25Z</time>
      </trkpt>
      <trkpt lat="42.3652140" lon="-6.8290940">
        <ele>854.9</ele>
        <time>2014-10-01T10:33:26Z</time>
      </trkpt>
      <trkpt lat="42.3652880" lon="-6.8290410">
        <ele>855.2</ele>
        <time>2014-10-01T10:33:27Z</time>
      </trkpt>
      <trkpt lat="42.3653630" lon="-6.8289920">
        <ele>855.5</ele>
        <time>2014-10-01T10:33:28Z</time>
      </trkpt>
      <trkpt lat="42.3654370" lon="-6.8289440">
        <ele>855.8</ele>
        <time>2014-10-01T10:33:29Z</time>
      </trkpt>
      <trkpt lat="42.3655060" lon="-6.8289020">
        <ele>856.1</ele>
        <time>2014-10-01T10:33:30Z</time>
      </trkpt>
      <trkpt lat="42.3655710" lon="-6.8288640">
        <ele>856.4</ele>
        <time>2014-10-01T10:33:31Z</time>
      </trkpt>
      <trkpt lat="42.3656390" lon="-6.8288260">
        <ele>856.7</ele>
        <time>2014-10-01T10:33:32Z</time>
      </trkpt>
      <trkpt lat="42.3657000" lon="-6.8287920">
        <ele>857.1</ele>
        <time>2014-10-01T10:33:33Z</time>
      </trkpt>
      <trkpt lat="42.3657550" lon="-6.8287590">
        <ele>857.4</ele>
        <time>2014-10-01T10:33:34Z</time>
      </trkpt>
      <trkpt lat="42.3658090" lon="-6.8287260">
        <ele>857.8</ele>
        <time>2014-10-01T10:33:35Z</time>
      </trkpt>
      <trkpt lat="42.3658620" lon="-6.8286950">
        <ele>858.1</ele>
        <time>2014-10-01T10:33:36Z</time>
      </trkpt>
      <trkpt lat="42.3659090" lon="-6.8286660">
        <ele>858.3</ele>
        <time>2014-10-01T10:33:37Z</time>
      </trkpt>
      <trkpt lat="42.3659600" lon="-6.8286330">
        <ele>858.6</ele>
        <time>2014-10-01T10:33:38Z</time>
      </trkpt>
      <trkpt lat="42.3660140" lon="-6.8286000">
        <ele>858.8</ele>
        <time>2014-10-01T10:33:39Z</time>
      </trkpt>
      <trkpt lat="42.3660820" lon="-6.8285770">
        <ele>859.2</ele>
        <time>2014-10-01T10:33:40Z</time>
      </trkpt>
      <trkpt lat="42.3661210" lon="-6.8285490">
        <ele>859.4</ele>
        <time>2014-10-01T10:33:41Z</time>
      </trkpt>
      <trkpt lat="42.3661690" lon="-6.8285170">
        <ele>859.7</ele>
        <time>2014-10-01T10:33:42Z</time>
      </trkpt>
      <trkpt lat="42.3662100" lon="-6.8284900">
        <ele>859.9</ele>
        <time>2014-10-01T10:33:43Z</time>
      </trkpt>
      <trkpt lat="42.3662490" lon="-6.8284620">
        <ele>860.2</ele>
        <time>2014-10-01T10:33:44Z</time>
      </trkpt>
      <trkpt lat="42.3662940" lon="-6.8284320">
        <ele>860.5</ele>
        <time>2014-10-01T10:33:45Z</time>
      </trkpt>
      <trkpt lat="42.3663370" lon="-6.8284060">
        <ele>860.8</ele>
        <time>2014-10-01T10:33:46Z</time>
      </trkpt>
      <trkpt lat="42.3663820" lon="-6.8283790">
        <ele>861.1</ele>
        <time>2014-10-01T10:33:47Z</time>
      </trkpt>
      <trkpt lat="42.3664370" lon="-6.8283510">
        <ele>861.4</ele>
        <time>2014-10-01T10:33:48Z</time>
      </trkpt>
      <trkpt lat="42.3664820" lon="-6.8283290">
        <ele>861.7</ele>
        <time>2014-10-01T10:33:49Z</time>
      </trkpt>
      <trkpt lat="42.3665270" lon="-6.8283100">
        <ele>862.0</ele>
        <time>2014-10-01T10:33:50Z</time>
      </trkpt>
      <trkpt lat="42.3665700" lon="-6.8282910">
        <ele>862.3</ele>
        <time>2014-10-01T10:33:51Z</time>
      </trkpt>
      <trkpt lat="42.3666170" lon="-6.8282700">
        <ele>862.6</ele>
        <time>2014-10-01T10:33:52Z</time>
      </trkpt>
      <trkpt lat="42.3666570" lon="-6.8282510">
        <ele>862.9</ele>
        <time>2014-10-01T10:33:53Z</time>
      </trkpt>
      <trkpt lat="42.3666990" lon="-6.8282340">
        <ele>863.2</ele>
        <time>2014-10-01T10:33:54Z</time>
      </trkpt>
      <trkpt lat="42.3667440" lon="-6.8282170">
        <ele>863.5</ele>
        <time>2014-10-01T10:33:55Z</time>
      </trkpt>
      <trkpt lat="42.3667840" lon="-6.8282010">
        <ele>863.8</ele>
        <time>2014-10-01T10:33:56Z</time>
      </trkpt>
      <trkpt lat="42.3668310" lon="-6.8281860">
        <ele>864.1</ele>
        <time>2014-10-01T10:33:57Z</time>
      </trkpt>
      <trkpt lat="42.3668700" lon="-6.8281730">
        <ele>864.4</ele>
        <time>2014-10-01T10:33:58Z</time>
      </trkpt>
      <trkpt lat="42.3669130" lon="-6.8281610">
        <ele>864.6</ele>
        <time>2014-10-01T10:33:59Z</time>
      </trkpt>
      <trkpt lat="42.3669530" lon="-6.8281520">
        <ele>864.8</ele>
        <time>2014-10-01T10:34:00Z</time>
      </trkpt>
      <trkpt lat="42.3669940" lon="-6.8281430">
        <ele>865.0</ele>
        <time>2014-10-01T10:34:01Z</time>
      </trkpt>
      <trkpt lat="42.3670730" lon="-6.8281330">
        <ele>865.5</ele>
        <time>2014-10-01T10:34:02Z</time>
      </trkpt>
      <trkpt lat="42.3671710" lon="-6.8281270">
        <ele>866.0</ele>
        <time>2014-10-01T10:34:03Z</time>
      </trkpt>
      <trkpt lat="42.3672580" lon="-6.8281260">
        <ele>866.4</ele>
        <time>2014-10-01T10:34:04Z</time>
      </trkpt>
      <trkpt lat="42.3673420" lon="-6.8281290">
        <ele>866.8</ele>
        <time>2014-10-01T10:34:05Z</time>
      </trkpt>
      <trkpt lat="42.3673900" lon="-6.8281320">
        <ele>867.1</ele>
        <time>2014-10-01T10:34:06Z</time>
      </trkpt>
      <trkpt lat="42.3674490" lon="-6.8281380">
        <ele>867.3</ele>
        <time>2014-10-01T10:34:08Z</time>
      </trkpt>
      <trkpt lat="42.3674850" lon="-6.8281400">
        <ele>867.5</ele>
        <time>2014-10-01T10:34:09Z</time>
      </trkpt>
      <trkpt lat="42.3675260" lon="-6.8281400">
        <ele>867.7</ele>
        <time>2014-10-01T10:34:10Z</time>
      </trkpt>
      <trkpt lat="42.3675700" lon="-6.8281380">
        <ele>867.9</ele>
        <time>2014-10-01T10:34:11Z</time>
      </trkpt>
      <trkpt lat="42.3676140" lon="-6.8281350">
        <ele>868.0</ele>
        <time>2014-10-01T10:34:12Z</time>
      </trkpt>
      <trkpt lat="42.3676570" lon="-6.8281300">
        <ele>868.1</ele>
        <time>2014-10-01T10:34:13Z</time>
      </trkpt>
      <trkpt lat="42.3677060" lon="-6.8281220">
        <ele>868.1</ele>
        <time>2014-10-01T10:34:14Z</time>
      </trkpt>
      <trkpt lat="42.3677550" lon="-6.8281120">
        <ele>868.1</ele>
        <time>2014-10-01T10:34:15Z</time>
      </trkpt>
      <trkpt lat="42.3677980" lon="-6.8281010">
        <ele>868.2</ele>
        <time>2014-10-01T10:34:16Z</time>
      </trkpt>
      <trkpt lat="42.3678410" lon="-6.8280860">
        <ele>868.4</ele>
        <time>2014-10-01T10:34:17Z</time>
      </trkpt>
      <trkpt lat="42.3678940" lon="-6.8280660">
        <ele>868.6</ele>
        <time>2014-10-01T10:34:18Z</time>
      </trkpt>
      <trkpt lat="42.3679350" lon="-6.8280490">
        <ele>868.7</ele>
        <time>2014-10-01T10:34:19Z</time>
      </trkpt>
      <trkpt lat="42.3679670" lon="-6.8280240">
        <ele>868.9</ele>
        <time>2014-10-01T10:34:20Z</time>
      </trkpt>
      <trkpt lat="42.3680000" lon="-6.8279990">
        <ele>869.0</ele>
        <time>2014-10-01T10:34:21Z</time>
      </trkpt>
      <trkpt lat="42.3680380" lon="-6.8279690">
        <ele>869.2</ele>
        <time>2014-10-01T10:34:22Z</time>
      </trkpt>
      <trkpt lat="42.3680750" lon="-6.8279410">
        <ele>869.4</ele>
        <time>2014-10-01T10:34:23Z</time>
      </trkpt>
      <trkpt lat="42.3681180" lon="-6.8279120">
        <ele>869.6</ele>
        <time>2014-10-01T10:34:24Z</time>
      </trkpt>
      <trkpt lat="42.3681510" lon="-6.8278910">
        <ele>869.7</ele>
        <time>2014-10-01T10:34:25Z</time>
      </trkpt>
      <trkpt lat="42.3681910" lon="-6.8278630">
        <ele>869.9</ele>
        <time>2014-10-01T10:34:26Z</time>
      </trkpt>
      <trkpt lat="42.3682300" lon="-6.8278360">
        <ele>870.0</ele>
        <time>2014-10-01T10:34:27Z</time>
      </trkpt>
      <trkpt lat="42.3682710" lon="-6.8278070">
        <ele>870.1</ele>
        <time>2014-10-01T10:34:28Z</time>
      </trkpt>
      <trkpt lat="42.3683110" lon="-6.8277830">
        <ele>870.2</ele>
        <time>2014-10-01T10:34:29Z</time>
      </trkpt>
      <trkpt lat="42.3683480" lon="-6.8277630">
        <ele>870.3</ele>
        <time>2014-10-01T10:34:30Z</time>
      </trkpt>
      <trkpt lat="42.3683960" lon="-6.8277410">
        <ele>870.4</ele>
        <time>2014-10-01T10:34:31Z</time>
      </trkpt>
      <trkpt lat="42.3684330" lon="-6.8277290">
        <ele>870.5</ele>
        <time>2014-10-01T10:34:32Z</time>
      </trkpt>
      <trkpt lat="42.3684800" lon="-6.8277160">
        <ele>870.6</ele>
        <time>2014-10-01T10:34:33Z</time>
      </trkpt>
      <trkpt lat="42.3685280" lon="-6.8277050">
        <ele>870.6</ele>
        <time>2014-10-01T10:34:34Z</time>
      </trkpt>
      <trkpt lat="42.3685930" lon="-6.8276950">
        <ele>870.7</ele>
        <time>2014-10-01T10:34:35Z</time>
      </trkpt>
      <trkpt lat="42.3686540" lon="-6.8276870">
        <ele>870.8</ele>
        <time>2014-10-01T10:34:36Z</time>
      </trkpt>
      <trkpt lat="42.3687270" lon="-6.8276810">
        <ele>870.8</ele>
        <time>2014-10-01T10:34:37Z</time>
      </trkpt>
      <trkpt lat="42.3687980" lon="-6.8276710">
        <ele>870.7</ele>
        <time>2014-10-01T10:34:38Z</time>
      </trkpt>
      <trkpt lat="42.3688680" lon="-6.8276540">
        <ele>870.6</ele>
        <time>2014-10-01T10:34:39Z</time>
      </trkpt>
      <trkpt lat="42.3689410" lon="-6.8276090">
        <ele>870.2</ele>
        <time>2014-10-01T10:34:40Z</time>
      </trkpt>
      <trkpt lat="42.3690140" lon="-6.8275580">
        <ele>869.8</ele>
        <time>2014-10-01T10:34:41Z</time>
      </trkpt>
      <trkpt lat="42.3690800" lon="-6.8274770">
        <ele>869.3</ele>
        <time>2014-10-01T10:34:42Z</time>
      </trkpt>
      <trkpt lat="42.3691430" lon="-6.8273980">
        <ele>868.8</ele>
        <time>2014-10-01T10:34:43Z</time>
      </trkpt>
      <trkpt lat="42.3692080" lon="-6.8273220">
        <ele>868.4</ele>
        <time>2014-10-01T10:34:44Z</time>
      </trkpt>
      <trkpt lat="42.3692970" lon="-6.8272560">
        <ele>867.8</ele>
        <time>2014-10-01T10:34:45Z</time>
      </trkpt>
      <trkpt lat="42.3693810" lon="-6.8272010">
        <ele>867.2</ele>
        <time>2014-10-01T10:34:46Z</time>
      </trkpt>
      <trkpt lat="42.3694760" lon="-6.8271810">
        <ele>866.6</ele>
        <time>2014-10-01T10:34:47Z</time>
      </trkpt>
      <trkpt lat="42.3695600" lon="-6.8271750">
        <ele>866.0</ele>
        <time>2014-10-01T10:34:48Z</time>
      </trkpt>
      <trkpt lat="42.3696500" lon="-6.8272000">
        <ele>865.4</ele>
        <time>2014-10-01T10:34:49Z</time>
      </trkpt>
      <trkpt lat="42.3697470" lon="-6.8272280">
        <ele>864.6</ele>
        <time>2014-10-01T10:34:50Z</time>
      </trkpt>
      <trkpt lat="42.3698470" lon="-6.8272570">
        <ele>863.7</ele>
        <time>2014-10-01T10:34:51Z</time>
      </trkpt>
      <trkpt lat="42.3699610" lon="-6.8272620">
        <ele>862.7</ele>
        <time>2014-10-01T10:34:52Z</time>
      </trkpt>
      <trkpt lat="42.3700730" lon="-6.8272590">
        <ele>861.9</ele>
        <time>2014-10-01T10:34:53Z</time>
      </trkpt>
      <trkpt lat="42.3702020" lon="-6.8272410">
        <ele>860.9</ele>
        <time>2014-10-01T10:34:54Z</time>
      </trkpt>
      <trkpt lat="42.3703160" lon="-6.8272080">
        <ele>859.9</ele>
        <time>2014-10-01T10:34:55Z</time>
      </trkpt>
      <trkpt lat="42.3704520" lon="-6.8271650">
        <ele>858.8</ele>
        <time>2014-10-01T10:34:56Z</time>
      </trkpt>
      <trkpt lat="42.3705850" lon="-6.8271200">
        <ele>857.8</ele>
        <time>2014-10-01T10:34:57Z</time>
      </trkpt>
      <trkpt lat="42.3707160" lon="-6.8270590">
        <ele>856.6</ele>
        <time>2014-10-01T10:34:58Z</time>
      </trkpt>
      <trkpt lat="42.3708440" lon="-6.8270110">
        <ele>855.5</ele>
        <time>2014-10-01T10:34:59Z</time>
      </trkpt>
      <trkpt lat="42.3709540" lon="-6.8269700">
        <ele>854.7</ele>
        <time>2014-10-01T10:35:00Z</time>
      </trkpt>
      <trkpt lat="42.3711050" lon="-6.8269600">
        <ele>853.7</ele>
        <time>2014-10-01T10:35:01Z</time>
      </trkpt>
      <trkpt lat="42.3712400" lon="-6.8269970">
        <ele>853.0</ele>
        <time>2014-10-01T10:35:02Z</time>
      </trkpt>
      <trkpt lat="42.3713600" lon="-6.8270840">
        <ele>852.3</ele>
        <time>2014-10-01T10:35:03Z</time>
      </trkpt>
      <trkpt lat="42.3714460" lon="-6.8272050">
        <ele>851.5</ele>
        <time>2014-10-01T10:35:04Z</time>
      </trkpt>
      <trkpt lat="42.3715000" lon="-6.8273520">
        <ele>850.7</ele>
        <time>2014-10-01T10:35:05Z</time>
      </trkpt>
      <trkpt lat="42.3715330" lon="-6.8275200">
        <ele>849.7</ele>
        <time>2014-10-01T10:35:06Z</time>
      </trkpt>
      <trkpt lat="42.3715560" lon="-6.8276930">
        <ele>848.7</ele>
        <time>2014-10-01T10:35:07Z</time>
      </trkpt>
      <trkpt lat="42.3715680" lon="-6.8278680">
        <ele>847.5</ele>
        <time>2014-10-01T10:35:08Z</time>
      </trkpt>
      <trkpt lat="42.3715720" lon="-6.8280460">
        <ele>846.5</ele>
        <time>2014-10-01T10:35:09Z</time>
      </trkpt>
      <trkpt lat="42.3715720" lon="-6.8282180">
        <ele>845.5</ele>
        <time>2014-10-01T10:35:10Z</time>
      </trkpt>
      <trkpt lat="42.3715720" lon="-6.8283990">
        <ele>844.5</ele>
        <time>2014-10-01T10:35:11Z</time>
      </trkpt>
      <trkpt lat="42.3715650" lon="-6.8285840">
        <ele>843.6</ele>
        <time>2014-10-01T10:35:12Z</time>
      </trkpt>
      <trkpt lat="42.3715530" lon="-6.8287680">
        <ele>842.6</ele>
        <time>2014-10-01T10:35:13Z</time>
      </trkpt>
      <trkpt lat="42.3715390" lon="-6.8289540">
        <ele>841.6</ele>
        <time>2014-10-01T10:35:14Z</time>
      </trkpt>
      <trkpt lat="42.3715220" lon="-6.8291370">
        <ele>840.7</ele>
        <time>2014-10-01T10:35:15Z</time>
      </trkpt>
      <trkpt lat="42.3715040" lon="-6.8293200">
        <ele>839.8</ele>
        <time>2014-10-01T10:35:16Z</time>
      </trkpt>
      <trkpt lat="42.3714800" lon="-6.8294990">
        <ele>838.9</ele>
        <time>2014-10-01T10:35:17Z</time>
      </trkpt>
      <trkpt lat="42.3714480" lon="-6.8296790">
        <ele>838.0</ele>
        <time>2014-10-01T10:35:18Z</time>
      </trkpt>
      <trkpt lat="42.3714100" lon="-6.8298610">
        <ele>837.1</ele>
        <time>2014-10-01T10:35:19Z</time>
      </trkpt>
      <trkpt lat="42.3713670" lon="-6.8300380">
        <ele>836.1</ele>
        <time>2014-10-01T10:35:20Z</time>
      </trkpt>
      <trkpt lat="42.3713200" lon="-6.8302130">
        <ele>835.1</ele>
        <time>2014-10-01T10:35:21Z</time>
      </trkpt>
      <trkpt lat="42.3712720" lon="-6.8303940">
        <ele>834.2</ele>
        <time>2014-10-01T10:35:22Z</time>
      </trkpt>
      <trkpt lat="42.3712240" lon="-6.8305780">
        <ele>833.4</ele>
        <time>2014-10-01T10:35:23Z</time>
      </trkpt>
      <trkpt lat="42.3711800" lon="-6.8307580">
        <ele>832.6</ele>
        <time>2014-10-01T10:35:24Z</time>
      </trkpt>
      <trkpt lat="42.3711410" lon="-6.8309410">
        <ele>831.8</ele>
        <time>2014-10-01T10:35:25Z</time>
      </trkpt>
      <trkpt lat="42.3711080" lon="-6.8311210">
        <ele>831.1</ele>
        <time>2014-10-01T10:35:26Z</time>
      </trkpt>
      <trkpt lat="42.3710770" lon="-6.8313010">
        <ele>830.4</ele>
        <time>2014-10-01T10:35:27Z</time>
      </trkpt>
      <trkpt lat="42.3710510" lon="-6.8314830">
        <ele>829.7</ele>
        <time>2014-10-01T10:35:28Z</time>
      </trkpt>
      <trkpt lat="42.3710320" lon="-6.8316730">
        <ele>829.0</ele>
        <time>2014-10-01T10:35:29Z</time>
      </trkpt>
      <trkpt lat="42.3710230" lon="-6.8318630">
        <ele>828.3</ele>
        <time>2014-10-01T10:35:30Z</time>
      </trkpt>
      <trkpt lat="42.3710230" lon="-6.8320460">
        <ele>827.6</ele>
        <time>2014-10-01T10:35:31Z</time>
      </trkpt>
      <trkpt lat="42.3710270" lon="-6.8322210">
        <ele>827.0</ele>
        <time>2014-10-01T10:35:32Z</time>
      </trkpt>
      <trkpt lat="42.3710350" lon="-6.8323910">
        <ele>826.3</ele>
        <time>2014-10-01T10:35:33Z</time>
      </trkpt>
      <trkpt lat="42.3710620" lon="-6.8325660">
        <ele>825.6</ele>
        <time>2014-10-01T10:35:34Z</time>
      </trkpt>
      <trkpt lat="42.3711000" lon="-6.8327400">
        <ele>824.9</ele>
        <time>2014-10-01T10:35:35Z</time>
      </trkpt>
      <trkpt lat="42.3711890" lon="-6.8329030">
        <ele>824.0</ele>
        <time>2014-10-01T10:35:36Z</time>
      </trkpt>
      <trkpt lat="42.3712990" lon="-6.8330260">
        <ele>823.1</ele>
        <time>2014-10-01T10:35:37Z</time>
      </trkpt>
      <trkpt lat="42.3714210" lon="-6.8330970">
        <ele>822.2</ele>
        <time>2014-10-01T10:35:38Z</time>
      </trkpt>
      <trkpt lat="42.3715510" lon="-6.8331090">
        <ele>821.6</ele>
        <time>2014-10-01T10:35:39Z</time>
      </trkpt>
      <trkpt lat="42.3716740" lon="-6.8330770">
        <ele>821.0</ele>
        <time>2014-10-01T10:35:40Z</time>
      </trkpt>
      <trkpt lat="42.3717980" lon="-6.8330220">
        <ele>820.5</ele>
        <time>2014-10-01T10:35:41Z</time>
      </trkpt>
      <trkpt lat="42.3718960" lon="-6.8329120">
        <ele>820.1</ele>
        <time>2014-10-01T10:35:42Z</time>
      </trkpt>
      <trkpt lat="42.3719910" lon="-6.8328030">
        <ele>819.8</ele>
        <time>2014-10-01T10:35:43Z</time>
      </trkpt>
      <trkpt lat="42.3720900" lon="-6.8326880">
        <ele>819.5</ele>
        <time>2014-10-01T10:35:44Z</time>
      </trkpt>
      <trkpt lat="42.3721850" lon="-6.8325680">
        <ele>819.1</ele>
        <time>2014-10-01T10:35:45Z</time>
      </trkpt>
      <trkpt lat="42.3722880" lon="-6.8324530">
        <ele>818.7</ele>
        <time>2014-10-01T10:35:46Z</time>
      </trkpt>
      <trkpt lat="42.3724030" lon="-6.8323760">
        <ele>818.1</ele>
        <time>2014-10-01T10:35:47Z</time>
      </trkpt>
      <trkpt lat="42.3725160" lon="-6.8323040">
        <ele>817.5</ele>
        <time>2014-10-01T10:35:48Z</time>
      </trkpt>
      <trkpt lat="42.3726160" lon="-6.8322490">
        <ele>816.8</ele>
        <time>2014-10-01T10:35:49Z</time>
      </trkpt>
      <trkpt lat="42.3727220" lon="-6.8322010">
        <ele>816.2</ele>
        <time>2014-10-01T10:35:50Z</time>
      </trkpt>
      <trkpt lat="42.3728350" lon="-6.8321520">
        <ele>815.5</ele>
        <time>2014-10-01T10:35:51Z</time>
      </trkpt>
      <trkpt lat="42.3729510" lon="-6.8321070">
        <ele>814.8</ele>
        <time>2014-10-01T10:35:52Z</time>
      </trkpt>
      <trkpt lat="42.3730670" lon="-6.8320670">
        <ele>813.8</ele>
        <time>2014-10-01T10:35:53Z</time>
      </trkpt>
      <trkpt lat="42.3731780" lon="-6.8320410">
        <ele>813.3</ele>
        <time>2014-10-01T10:35:54Z</time>
      </trkpt>
      <trkpt lat="42.3732910" lon="-6.8320490">
        <ele>812.6</ele>
        <time>2014-10-01T10:35:55Z</time>
      </trkpt>
      <trkpt lat="42.3734120" lon="-6.8320600">
        <ele>811.9</ele>
        <time>2014-10-01T10:35:56Z</time>
      </trkpt>
      <trkpt lat="42.3735390" lon="-6.8320770">
        <ele>811.1</ele>
        <time>2014-10-01T10:35:57Z</time>
      </trkpt>
      <trkpt lat="42.3736650" lon="-6.8320980">
        <ele>810.1</ele>
        <time>2014-10-01T10:35:58Z</time>
      </trkpt>
      <trkpt lat="42.3737980" lon="-6.8321200">
        <ele>809.0</ele>
        <time>2014-10-01T10:35:59Z</time>
      </trkpt>
      <trkpt lat="42.3739290" lon="-6.8321460">
        <ele>807.9</ele>
        <time>2014-10-01T10:36:00Z</time>
      </trkpt>
      <trkpt lat="42.3740530" lon="-6.8321700">
        <ele>806.9</ele>
        <time>2014-10-01T10:36:01Z</time>
      </trkpt>
      <trkpt lat="42.3741740" lon="-6.8321950">
        <ele>805.9</ele>
        <time>2014-10-01T10:36:02Z</time>
      </trkpt>
      <trkpt lat="42.3742970" lon="-6.8322210">
        <ele>805.0</ele>
        <time>2014-10-01T10:36:03Z</time>
      </trkpt>
      <trkpt lat="42.3744130" lon="-6.8322510">
        <ele>804.2</ele>
        <time>2014-10-01T10:36:04Z</time>
      </trkpt>
      <trkpt lat="42.3745150" lon="-6.8323100">
        <ele>803.5</ele>
        <time>2014-10-01T10:36:05Z</time>
      </trkpt>
      <trkpt lat="42.3746080" lon="-6.8324000">
        <ele>802.8</ele>
        <time>2014-10-01T10:36:06Z</time>
      </trkpt>
      <trkpt lat="42.3746740" lon="-6.8325250">
        <ele>802.1</ele>
        <time>2014-10-01T10:36:07Z</time>
      </trkpt>
      <trkpt lat="42.3747140" lon="-6.8326620">
        <ele>801.4</ele>
        <time>2014-10-01T10:36:08Z</time>
      </trkpt>
      <trkpt lat="42.3747480" lon="-6.8328050">
        <ele>800.6</ele>
        <time>2014-10-01T10:36:09Z</time>
      </trkpt>
      <trkpt lat="42.3747760" lon="-6.8329500">
        <ele>799.8</ele>
        <time>2014-10-01T10:36:10Z</time>
      </trkpt>
      <trkpt lat="42.3747970" lon="-6.8330970">
        <ele>799.1</ele>
        <time>2014-10-01T10:36:11Z</time>
      </trkpt>
      <trkpt lat="42.3748120" lon="-6.8332420">
        <ele>798.3</ele>
        <time>2014-10-01T10:36:12Z</time>
      </trkpt>
      <trkpt lat="42.3748220" lon="-6.8333900">
        <ele>797.5</ele>
        <time>2014-10-01T10:36:13Z</time>
      </trkpt>
      <trkpt lat="42.3748330" lon="-6.8335350">
        <ele>796.8</ele>
        <time>2014-10-01T10:36:14Z</time>
      </trkpt>
      <trkpt lat="42.3748480" lon="-6.8336820">
        <ele>796.0</ele>
        <time>2014-10-01T10:36:15Z</time>
      </trkpt>
      <trkpt lat="42.3748620" lon="-6.8338250">
        <ele>795.3</ele>
        <time>2014-10-01T10:36:16Z</time>
      </trkpt>
      <trkpt lat="42.3748770" lon="-6.8339670">
        <ele>794.6</ele>
        <time>2014-10-01T10:36:17Z</time>
      </trkpt>
      <trkpt lat="42.3748910" lon="-6.8341140">
        <ele>793.9</ele>
        <time>2014-10-01T10:36:18Z</time>
      </trkpt>
      <trkpt lat="42.3749060" lon="-6.8342600">
        <ele>793.1</ele>
        <time>2014-10-01T10:36:19Z</time>
      </trkpt>
      <trkpt lat="42.3749270" lon="-6.8344090">
        <ele>792.3</ele>
        <time>2014-10-01T10:36:20Z</time>
      </trkpt>
      <trkpt lat="42.3749550" lon="-6.8345590">
        <ele>791.6</ele>
        <time>2014-10-01T10:36:21Z</time>
      </trkpt>
      <trkpt lat="42.3749880" lon="-6.8347030">
        <ele>790.8</ele>
        <time>2014-10-01T10:36:22Z</time>
      </trkpt>
      <trkpt lat="42.3750240" lon="-6.8348370">
        <ele>790.2</ele>
        <time>2014-10-01T10:36:23Z</time>
      </trkpt>
      <trkpt lat="42.3750830" lon="-6.8349490">
        <ele>789.5</ele>
        <time>2014-10-01T10:36:24Z</time>
      </trkpt>
      <trkpt lat="42.3751410" lon="-6.8350560">
        <ele>788.9</ele>
        <time>2014-10-01T10:36:25Z</time>
      </trkpt>
      <trkpt lat="42.3752050" lon="-6.8351640">
        <ele>788.2</ele>
        <time>2014-10-01T10:36:26Z</time>
      </trkpt>
      <trkpt lat="42.3752720" lon="-6.8352770">
        <ele>787.5</ele>
        <time>2014-10-01T10:36:27Z</time>
      </trkpt>
      <trkpt lat="42.3753470" lon="-6.8353940">
        <ele>786.8</ele>
        <time>2014-10-01T10:36:28Z</time>
      </trkpt>
      <trkpt lat="42.3754250" lon="-6.8355000">
        <ele>786.0</ele>
        <time>2014-10-01T10:36:29Z</time>
      </trkpt>
      <trkpt lat="42.3755130" lon="-6.8356080">
        <ele>785.2</ele>
        <time>2014-10-01T10:36:30Z</time>
      </trkpt>
      <trkpt lat="42.3756070" lon="-6.8357160">
        <ele>784.4</ele>
        <time>2014-10-01T10:36:31Z</time>
      </trkpt>
      <trkpt lat="42.3757200" lon="-6.8358410">
        <ele>783.5</ele>
        <time>2014-10-01T10:36:32Z</time>
      </trkpt>
      <trkpt lat="42.3758370" lon="-6.8359580">
        <ele>782.7</ele>
        <time>2014-10-01T10:36:33Z</time>
      </trkpt>
      <trkpt lat="42.3759580" lon="-6.8360740">
        <ele>781.8</ele>
        <time>2014-10-01T10:36:34Z</time>
      </trkpt>
      <trkpt lat="42.3760810" lon="-6.8361860">
        <ele>781.0</ele>
        <time>2014-10-01T10:36:35Z</time>
      </trkpt>
      <trkpt lat="42.3761900" lon="-6.8362840">
        <ele>780.2</ele>
        <time>2014-10-01T10:36:36Z</time>
      </trkpt>
      <trkpt lat="42.3763040" lon="-6.8363780">
        <ele>779.4</ele>
        <time>2014-10-01T10:36:37Z</time>
      </trkpt>
      <trkpt lat="42.3764230" lon="-6.8364760">
        <ele>778.6</ele>
        <time>2014-10-01T10:36:38Z</time>
      </trkpt>
      <trkpt lat="42.3765430" lon="-6.8365780">
        <ele>777.8</ele>
        <time>2014-10-01T10:36:39Z</time>
      </trkpt>
      <trkpt lat="42.3766660" lon="-6.8366770">
        <ele>777.0</ele>
        <time>2014-10-01T10:36:40Z</time>
      </trkpt>
      <trkpt lat="42.3767840" lon="-6.8367710">
        <ele>776.3</ele>
        <time>2014-10-01T10:36:41Z</time>
      </trkpt>
      <trkpt lat="42.3769020" lon="-6.8368580">
        <ele>775.5</ele>
        <time>2014-10-01T10:36:42Z</time>
      </trkpt>
      <trkpt lat="42.3770260" lon="-6.8369470">
        <ele>774.8</ele>
        <time>2014-10-01T10:36:43Z</time>
      </trkpt>
      <trkpt lat="42.3771480" lon="-6.8370290">
        <ele>774.0</ele>
        <time>2014-10-01T10:36:44Z</time>
      </trkpt>
      <trkpt lat="42.3772790" lon="-6.8371170">
        <ele>773.1</ele>
        <time>2014-10-01T10:36:45Z</time>
      </trkpt>
      <trkpt lat="42.3774040" lon="-6.8371940">
        <ele>772.1</ele>
        <time>2014-10-01T10:36:46Z</time>
      </trkpt>
      <trkpt lat="42.3775370" lon="-6.8372760">
        <ele>771.2</ele>
        <time>2014-10-01T10:36:47Z</time>
      </trkpt>
      <trkpt lat="42.3776720" lon="-6.8373510">
        <ele>770.3</ele>
        <time>2014-10-01T10:36:48Z</time>
      </trkpt>
      <trkpt lat="42.3778070" lon="-6.8374200">
        <ele>769.5</ele>
        <time>2014-10-01T10:36:49Z</time>
      </trkpt>
      <trkpt lat="42.3779360" lon="-6.8374750">
        <ele>768.7</ele>
        <time>2014-10-01T10:36:50Z</time>
      </trkpt>
      <trkpt lat="42.3780700" lon="-6.8375210">
        <ele>767.8</ele>
        <time>2014-10-01T10:36:51Z</time>
      </trkpt>
      <trkpt lat="42.3782100" lon="-6.8375570">
        <ele>767.0</ele>
        <time>2014-10-01T10:36:52Z</time>
      </trkpt>
      <trkpt lat="42.3783530" lon="-6.8375900">
        <ele>766.1</ele>
        <time>2014-10-01T10:36:53Z</time>
      </trkpt>
      <trkpt lat="42.3785000" lon="-6.8376210">
        <ele>765.2</ele>
        <time>2014-10-01T10:36:54Z</time>
      </trkpt>
      <trkpt lat="42.3786450" lon="-6.8376560">
        <ele>764.4</ele>
        <time>2014-10-01T10:36:55Z</time>
      </trkpt>
      <trkpt lat="42.3787880" lon="-6.8377040">
        <ele>763.6</ele>
        <time>2014-10-01T10:36:56Z</time>
      </trkpt>
      <trkpt lat="42.3789170" lon="-6.8377570">
        <ele>762.8</ele>
        <time>2014-10-01T10:36:57Z</time>
      </trkpt>
      <trkpt lat="42.3790410" lon="-6.8378220">
        <ele>762.1</ele>
        <time>2014-10-01T10:36:58Z</time>
      </trkpt>
      <trkpt lat="42.3791630" lon="-6.8379040">
        <ele>761.3</ele>
        <time>2014-10-01T10:36:59Z</time>
      </trkpt>
      <trkpt lat="42.3792830" lon="-6.8380020">
        <ele>760.5</ele>
        <time>2014-10-01T10:37:00Z</time>
      </trkpt>
      <trkpt lat="42.3793960" lon="-6.8381090">
        <ele>759.6</ele>
        <time>2014-10-01T10:37:01Z</time>
      </trkpt>
      <trkpt lat="42.3795080" lon="-6.8382320">
        <ele>758.7</ele>
        <time>2014-10-01T10:37:02Z</time>
      </trkpt>
      <trkpt lat="42.3796130" lon="-6.8383680">
        <ele>757.7</ele>
        <time>2014-10-01T10:37:03Z</time>
      </trkpt>
      <trkpt lat="42.3797120" lon="-6.8385090">
        <ele>756.8</ele>
        <time>2014-10-01T10:37:04Z</time>
      </trkpt>
      <trkpt lat="42.3798080" lon="-6.8386510">
        <ele>755.8</ele>
        <time>2014-10-01T10:37:05Z</time>
      </trkpt>
      <trkpt lat="42.3799010" lon="-6.8387900">
        <ele>754.9</ele>
        <time>2014-10-01T10:37:06Z</time>
      </trkpt>
      <trkpt lat="42.3799930" lon="-6.8389260">
        <ele>753.9</ele>
        <time>2014-10-01T10:37:07Z</time>
      </trkpt>
      <trkpt lat="42.3800890" lon="-6.8390600">
        <ele>752.7</ele>
        <time>2014-10-01T10:37:08Z</time>
      </trkpt>
      <trkpt lat="42.3801860" lon="-6.8391900">
        <ele>751.8</ele>
        <time>2014-10-01T10:37:09Z</time>
      </trkpt>
      <trkpt lat="42.3802840" lon="-6.8393150">
        <ele>750.9</ele>
        <time>2014-10-01T10:37:10Z</time>
      </trkpt>
      <trkpt lat="42.3803880" lon="-6.8394420">
        <ele>749.8</ele>
        <time>2014-10-01T10:37:11Z</time>
      </trkpt>
      <trkpt lat="42.3804940" lon="-6.8395720">
        <ele>748.8</ele>
        <time>2014-10-01T10:37:12Z</time>
      </trkpt>
      <trkpt lat="42.3806000" lon="-6.8397000">
        <ele>747.8</ele>
        <time>2014-10-01T10:37:13Z</time>
      </trkpt>
      <trkpt lat="42.3807070" lon="-6.8398290">
        <ele>746.8</ele>
        <time>2014-10-01T10:37:14Z</time>
      </trkpt>
      <trkpt lat="42.3808160" lon="-6.8399600">
        <ele>745.7</ele>
        <time>2014-10-01T10:37:15Z</time>
      </trkpt>
      <trkpt lat="42.3809270" lon="-6.8400860">
        <ele>744.7</ele>
        <time>2014-10-01T10:37:16Z</time>
      </trkpt>
      <trkpt lat="42.3810390" lon="-6.8402140">
        <ele>743.6</ele>
        <time>2014-10-01T10:37:17Z</time>
      </trkpt>
      <trkpt lat="42.3811540" lon="-6.8403340">
        <ele>742.6</ele>
        <time>2014-10-01T10:37:18Z</time>
      </trkpt>
      <trkpt lat="42.3812740" lon="-6.8404520">
        <ele>741.6</ele>
        <time>2014-10-01T10:37:19Z</time>
      </trkpt>
      <trkpt lat="42.3813850" lon="-6.8405600">
        <ele>740.6</ele>
        <time>2014-10-01T10:37:20Z</time>
      </trkpt>
      <trkpt lat="42.3815040" lon="-6.8406680">
        <ele>739.6</ele>
        <time>2014-10-01T10:37:21Z</time>
      </trkpt>
      <trkpt lat="42.3816210" lon="-6.8407710">
        <ele>738.6</ele>
        <time>2014-10-01T10:37:22Z</time>
      </trkpt>
      <trkpt lat="42.3817450" lon="-6.8408700">
        <ele>737.6</ele>
        <time>2014-10-01T10:37:23Z</time>
      </trkpt>
      <trkpt lat="42.3818740" lon="-6.8409720">
        <ele>736.5</ele>
        <time>2014-10-01T10:37:24Z</time>
      </trkpt>
      <trkpt lat="42.3820100" lon="-6.8410710">
        <ele>735.4</ele>
        <time>2014-10-01T10:37:25Z</time>
      </trkpt>
      <trkpt lat="42.3821580" lon="-6.8411270">
        <ele>734.3</ele>
        <time>2014-10-01T10:37:26Z</time>
      </trkpt>
      <trkpt lat="42.3823000" lon="-6.8411700">
        <ele>733.3</ele>
        <time>2014-10-01T10:37:27Z</time>
      </trkpt>
      <trkpt lat="42.3824420" lon="-6.8412010">
        <ele>732.4</ele>
        <time>2014-10-01T10:37:28Z</time>
      </trkpt>
      <trkpt lat="42.3825840" lon="-6.8412230">
        <ele>731.6</ele>
        <time>2014-10-01T10:37:29Z</time>
      </trkpt>
      <trkpt lat="42.3827230" lon="-6.8412340">
        <ele>730.8</ele>
        <time>2014-10-01T10:37:30Z</time>
      </trkpt>
      <trkpt lat="42.3828720" lon="-6.8412450">
        <ele>730.4</ele>
        <time>2014-10-01T10:37:31Z</time>
      </trkpt>
      <trkpt lat="42.3830220" lon="-6.8412550">
        <ele>729.2</ele>
        <time>2014-10-01T10:37:32Z</time>
      </trkpt>
      <trkpt lat="42.3831740" lon="-6.8412830">
        <ele>728.1</ele>
        <time>2014-10-01T10:37:33Z</time>
      </trkpt>
      <trkpt lat="42.3833210" lon="-6.8413270">
        <ele>727.0</ele>
        <time>2014-10-01T10:37:34Z</time>
      </trkpt>
      <trkpt lat="42.3834460" lon="-6.8414120">
        <ele>726.0</ele>
        <time>2014-10-01T10:37:35Z</time>
      </trkpt>
      <trkpt lat="42.3835650" lon="-6.8415020">
        <ele>725.0</ele>
        <time>2014-10-01T10:37:36Z</time>
      </trkpt>
      <trkpt lat="42.3836890" lon="-6.8416030">
        <ele>723.9</ele>
        <time>2014-10-01T10:37:37Z</time>
      </trkpt>
      <trkpt lat="42.3838080" lon="-6.8417130">
        <ele>723.6</ele>
        <time>2014-10-01T10:37:38Z</time>
      </trkpt>
      <trkpt lat="42.3839270" lon="-6.8418320">
        <ele>722.6</ele>
        <time>2014-10-01T10:37:39Z</time>
      </trkpt>
      <trkpt lat="42.3840400" lon="-6.8419520">
        <ele>721.6</ele>
        <time>2014-10-01T10:37:40Z</time>
      </trkpt>
      <trkpt lat="42.3841480" lon="-6.8420690">
        <ele>720.6</ele>
        <time>2014-10-01T10:37:41Z</time>
      </trkpt>
      <trkpt lat="42.3842580" lon="-6.8421880">
        <ele>719.6</ele>
        <time>2014-10-01T10:37:42Z</time>
      </trkpt>
      <trkpt lat="42.3843740" lon="-6.8423140">
        <ele>718.5</ele>
        <time>2014-10-01T10:37:43Z</time>
      </trkpt>
      <trkpt lat="42.3844850" lon="-6.8424310">
        <ele>717.4</ele>
        <time>2014-10-01T10:37:44Z</time>
      </trkpt>
      <trkpt lat="42.3845980" lon="-6.8425390">
        <ele>716.3</ele>
        <time>2014-10-01T10:37:45Z</time>
      </trkpt>
      <trkpt lat="42.3847150" lon="-6.8426370">
        <ele>715.2</ele>
        <time>2014-10-01T10:37:46Z</time>
      </trkpt>
      <trkpt lat="42.3848460" lon="-6.8426960">
        <ele>714.1</ele>
        <time>2014-10-01T10:37:47Z</time>
      </trkpt>
      <trkpt lat="42.3849790" lon="-6.8427470">
        <ele>713.0</ele>
        <time>2014-10-01T10:37:48Z</time>
      </trkpt>
      <trkpt lat="42.3851130" lon="-6.8427840">
        <ele>712.0</ele>
        <time>2014-10-01T10:37:49Z</time>
      </trkpt>
      <trkpt lat="42.3852520" lon="-6.8428070">
        <ele>710.9</ele>
        <time>2014-10-01T10:37:50Z</time>
      </trkpt>
      <trkpt lat="42.3853930" lon="-6.8428210">
        <ele>709.8</ele>
        <time>2014-10-01T10:37:51Z</time>
      </trkpt>
      <trkpt lat="42.3855320" lon="-6.8428320">
        <ele>708.6</ele>
        <time>2014-10-01T10:37:52Z</time>
      </trkpt>
      <trkpt lat="42.3856730" lon="-6.8428440">
        <ele>707.5</ele>
        <time>2014-10-01T10:37:53Z</time>
      </trkpt>
      <trkpt lat="42.3858170" lon="-6.8428610">
        <ele>706.3</ele>
        <time>2014-10-01T10:37:54Z</time>
      </trkpt>
      <trkpt lat="42.3859660" lon="-6.8428900">
        <ele>705.2</ele>
        <time>2014-10-01T10:37:55Z</time>
      </trkpt>
      <trkpt lat="42.3861060" lon="-6.8429300">
        <ele>704.1</ele>
        <time>2014-10-01T10:37:56Z</time>
      </trkpt>
      <trkpt lat="42.3862400" lon="-6.8429830">
        <ele>702.9</ele>
        <time>2014-10-01T10:37:57Z</time>
      </trkpt>
      <trkpt lat="42.3863680" lon="-6.8430480">
        <ele>701.8</ele>
        <time>2014-10-01T10:37:58Z</time>
      </trkpt>
      <trkpt lat="42.3865000" lon="-6.8431250">
        <ele>700.6</ele>
        <time>2014-10-01T10:37:59Z</time>
      </trkpt>
      <trkpt lat="42.3866360" lon="-6.8432100">
        <ele>699.4</ele>
        <time>2014-10-01T10:38:00Z</time>
      </trkpt>
      <trkpt lat="42.3867650" lon="-6.8432900">
        <ele>698.3</ele>
        <time>2014-10-01T10:38:01Z</time>
      </trkpt>
      <trkpt lat="42.3868890" lon="-6.8433720">
        <ele>697.2</ele>
        <time>2014-10-01T10:38:02Z</time>
      </trkpt>
      <trkpt lat="42.3870120" lon="-6.8434530">
        <ele>696.3</ele>
        <time>2014-10-01T10:38:03Z</time>
      </trkpt>
      <trkpt lat="42.3871340" lon="-6.8435340">
        <ele>695.4</ele>
        <time>2014-10-01T10:38:04Z</time>
      </trkpt>
      <trkpt lat="42.3872550" lon="-6.8436200">
        <ele>694.6</ele>
        <time>2014-10-01T10:38:05Z</time>
      </trkpt>
      <trkpt lat="42.3873840" lon="-6.8437090">
        <ele>693.5</ele>
        <time>2014-10-01T10:38:06Z</time>
      </trkpt>
      <trkpt lat="42.3875090" lon="-6.8437950">
        <ele>692.3</ele>
        <time>2014-10-01T10:38:07Z</time>
      </trkpt>
      <trkpt lat="42.3876250" lon="-6.8438770">
        <ele>691.2</ele>
        <time>2014-10-01T10:38:08Z</time>
      </trkpt>
      <trkpt lat="42.3877450" lon="-6.8439560">
        <ele>690.0</ele>
        <time>2014-10-01T10:38:09Z</time>
      </trkpt>
      <trkpt lat="42.3878680" lon="-6.8440350">
        <ele>688.7</ele>
        <time>2014-10-01T10:38:10Z</time>
      </trkpt>
      <trkpt lat="42.3879930" lon="-6.8441060">
        <ele>687.7</ele>
        <time>2014-10-01T10:38:11Z</time>
      </trkpt>
      <trkpt lat="42.3881290" lon="-6.8441680">
        <ele>686.8</ele>
        <time>2014-10-01T10:38:12Z</time>
      </trkpt>
      <trkpt lat="42.3882750" lon="-6.8441810">
        <ele>685.9</ele>
        <time>2014-10-01T10:38:13Z</time>
      </trkpt>
      <trkpt lat="42.3884190" lon="-6.8441830">
        <ele>684.9</ele>
        <time>2014-10-01T10:38:14Z</time>
      </trkpt>
      <trkpt lat="42.3885590" lon="-6.8441700">
        <ele>685.2</ele>
        <time>2014-10-01T10:38:15Z</time>
      </trkpt>
      <trkpt lat="42.3886960" lon="-6.8441460">
        <ele>684.6</ele>
        <time>2014-10-01T10:38:16Z</time>
      </trkpt>
      <trkpt lat="42.3888340" lon="-6.8441190">
        <ele>683.7</ele>
        <time>2014-10-01T10:38:17Z</time>
      </trkpt>
      <trkpt lat="42.3889740" lon="-6.8440560">
        <ele>682.8</ele>
        <time>2014-10-01T10:38:18Z</time>
      </trkpt>
      <trkpt lat="42.3891080" lon="-6.8440500">
        <ele>681.8</ele>
        <time>2014-10-01T10:38:19Z</time>
      </trkpt>
      <trkpt lat="42.3892260" lon="-6.8440900">
        <ele>680.8</ele>
        <time>2014-10-01T10:38:20Z</time>
      </trkpt>
      <trkpt lat="42.3893090" lon="-6.8441740">
        <ele>679.9</ele>
        <time>2014-10-01T10:38:21Z</time>
      </trkpt>
      <trkpt lat="42.3893690" lon="-6.8442990">
        <ele>678.9</ele>
        <time>2014-10-01T10:38:22Z</time>
      </trkpt>
      <trkpt lat="42.3893870" lon="-6.8444340">
        <ele>678.1</ele>
        <time>2014-10-01T10:38:23Z</time>
      </trkpt>
      <trkpt lat="42.3893650" lon="-6.8445590">
        <ele>677.1</ele>
        <time>2014-10-01T10:38:24Z</time>
      </trkpt>
      <trkpt lat="42.3892960" lon="-6.8446430">
        <ele>676.6</ele>
        <time>2014-10-01T10:38:25Z</time>
      </trkpt>
      <trkpt lat="42.3892070" lon="-6.8446960">
        <ele>676.0</ele>
        <time>2014-10-01T10:38:26Z</time>
      </trkpt>
      <trkpt lat="42.3891170" lon="-6.8447400">
        <ele>675.5</ele>
        <time>2014-10-01T10:38:27Z</time>
      </trkpt>
      <trkpt lat="42.3890170" lon="-6.8447770">
        <ele>674.9</ele>
        <time>2014-10-01T10:38:28Z</time>
      </trkpt>
      <trkpt lat="42.3889020" lon="-6.8448070">
        <ele>674.3</ele>
        <time>2014-10-01T10:38:29Z</time>
      </trkpt>
      <trkpt lat="42.3887870" lon="-6.8448310">
        <ele>673.7</ele>
        <time>2014-10-01T10:38:30Z</time>
      </trkpt>
      <trkpt lat="42.3886760" lon="-6.8448490">
        <ele>673.1</ele>
        <time>2014-10-01T10:38:31Z</time>
      </trkpt>
      <trkpt lat="42.3885630" lon="-6.8448680">
        <ele>672.4</ele>
        <time>2014-10-01T10:38:32Z</time>
      </trkpt>
      <trkpt lat="42.3884490" lon="-6.8448840">
        <ele>671.8</ele>
        <time>2014-10-01T10:38:33Z</time>
      </trkpt>
      <trkpt lat="42.3883370" lon="-6.8449040">
        <ele>671.2</ele>
        <time>2014-10-01T10:38:34Z</time>
      </trkpt>
      <trkpt lat="42.3882260" lon="-6.8449250">
        <ele>670.6</ele>
        <time>2014-10-01T10:38:35Z</time>
      </trkpt>
      <trkpt lat="42.3881160" lon="-6.8449480">
        <ele>670.0</ele>
        <time>2014-10-01T10:38:36Z</time>
      </trkpt>
      <trkpt lat="42.3879990" lon="-6.8449730">
        <ele>669.3</ele>
        <time>2014-10-01T10:38:37Z</time>
      </trkpt>
      <trkpt lat="42.3878840" lon="-6.8449960">
        <ele>668.6</ele>
        <time>2014-10-01T10:38:38Z</time>
      </trkpt>
      <trkpt lat="42.3877660" lon="-6.8450210">
        <ele>667.9</ele>
        <time>2014-10-01T10:38:39Z</time>
      </trkpt>
      <trkpt lat="42.3876520" lon="-6.8450460">
        <ele>667.1</ele>
        <time>2014-10-01T10:38:40Z</time>
      </trkpt>
      <trkpt lat="42.3875260" lon="-6.8450730">
        <ele>666.3</ele>
        <time>2014-10-01T10:38:41Z</time>
      </trkpt>
      <trkpt lat="42.3874040" lon="-6.8450990">
        <ele>665.5</ele>
        <time>2014-10-01T10:38:42Z</time>
      </trkpt>
      <trkpt lat="42.3872830" lon="-6.8451220">
        <ele>664.8</ele>
        <time>2014-10-01T10:38:43Z</time>
      </trkpt>
      <trkpt lat="42.3871620" lon="-6.8451520">
        <ele>664.0</ele>
        <time>2014-10-01T10:38:44Z</time>
      </trkpt>
      <trkpt lat="42.3870420" lon="-6.8451830">
        <ele>663.1</ele>
        <time>2014-10-01T10:38:45Z</time>
      </trkpt>
      <trkpt lat="42.3869220" lon="-6.8452230">
        <ele>662.3</ele>
        <time>2014-10-01T10:38:46Z</time>
      </trkpt>
      <trkpt lat="42.3868040" lon="-6.8452690">
        <ele>661.4</ele>
        <time>2014-10-01T10:38:47Z</time>
      </trkpt>
      <trkpt lat="42.3866900" lon="-6.8453180">
        <ele>660.6</ele>
        <time>2014-10-01T10:38:48Z</time>
      </trkpt>
      <trkpt lat="42.3865760" lon="-6.8453710">
        <ele>659.7</ele>
        <time>2014-10-01T10:38:49Z</time>
      </trkpt>
      <trkpt lat="42.3864650" lon="-6.8454240">
        <ele>658.9</ele>
        <time>2014-10-01T10:38:50Z</time>
      </trkpt>
      <trkpt lat="42.3863440" lon="-6.8454820">
        <ele>658.0</ele>
        <time>2014-10-01T10:38:51Z</time>
      </trkpt>
      <trkpt lat="42.3862270" lon="-6.8455370">
        <ele>657.3</ele>
        <time>2014-10-01T10:38:52Z</time>
      </trkpt>
      <trkpt lat="42.3861070" lon="-6.8455960">
        <ele>656.5</ele>
        <time>2014-10-01T10:38:53Z</time>
      </trkpt>
      <trkpt lat="42.3859800" lon="-6.8456760">
        <ele>655.9</ele>
        <time>2014-10-01T10:38:54Z</time>
      </trkpt>
      <trkpt lat="42.3858900" lon="-6.8458100">
        <ele>655.5</ele>
        <time>2014-10-01T10:38:55Z</time>
      </trkpt>
      <trkpt lat="42.3858260" lon="-6.8459660">
        <ele>655.4</ele>
        <time>2014-10-01T10:38:56Z</time>
      </trkpt>
      <trkpt lat="42.3857740" lon="-6.8461210">
        <ele>655.6</ele>
        <time>2014-10-01T10:38:57Z</time>
      </trkpt>
      <trkpt lat="42.3857640" lon="-6.8462760">
        <ele>655.9</ele>
        <time>2014-10-01T10:38:58Z</time>
      </trkpt>
      <trkpt lat="42.3857850" lon="-6.8464200">
        <ele>656.0</ele>
        <time>2014-10-01T10:38:59Z</time>
      </trkpt>
      <trkpt lat="42.3858390" lon="-6.8465490">
        <ele>656.1</ele>
        <time>2014-10-01T10:39:00Z</time>
      </trkpt>
      <trkpt lat="42.3859110" lon="-6.8466590">
        <ele>656.1</ele>
        <time>2014-10-01T10:39:01Z</time>
      </trkpt>
      <trkpt lat="42.3859940" lon="-6.8467670">
        <ele>655.9</ele>
        <time>2014-10-01T10:39:02Z</time>
      </trkpt>
      <trkpt lat="42.3860780" lon="-6.8468580">
        <ele>655.7</ele>
        <time>2014-10-01T10:39:03Z</time>
      </trkpt>
      <trkpt lat="42.3861590" lon="-6.8469380">
        <ele>655.5</ele>
        <time>2014-10-01T10:39:04Z</time>
      </trkpt>
      <trkpt lat="42.3862410" lon="-6.8470150">
        <ele>655.4</ele>
        <time>2014-10-01T10:39:05Z</time>
      </trkpt>
      <trkpt lat="42.3863230" lon="-6.8470930">
        <ele>655.2</ele>
        <time>2014-10-01T10:39:06Z</time>
      </trkpt>
      <trkpt lat="42.3864040" lon="-6.8471760">
        <ele>655.0</ele>
        <time>2014-10-01T10:39:07Z</time>
      </trkpt>
      <trkpt lat="42.3864890" lon="-6.8472630">
        <ele>654.7</ele>
        <time>2014-10-01T10:39:08Z</time>
      </trkpt>
      <trkpt lat="42.3865670" lon="-6.8473510">
        <ele>654.4</ele>
        <time>2014-10-01T10:39:09Z</time>
      </trkpt>
      <trkpt lat="42.3866500" lon="-6.8474500">
        <ele>654.1</ele>
        <time>2014-10-01T10:39:10Z</time>
      </trkpt>
      <trkpt lat="42.3867280" lon="-6.8475530">
        <ele>653.6</ele>
        <time>2014-10-01T10:39:11Z</time>
      </trkpt>
      <trkpt lat="42.3868020" lon="-6.8476580">
        <ele>653.2</ele>
        <time>2014-10-01T10:39:12Z</time>
      </trkpt>
      <trkpt lat="42.3868660" lon="-6.8477610">
        <ele>652.7</ele>
        <time>2014-10-01T10:39:13Z</time>
      </trkpt>
      <trkpt lat="42.3869290" lon="-6.8478780">
        <ele>652.2</ele>
        <time>2014-10-01T10:39:14Z</time>
      </trkpt>
      <trkpt lat="42.3869860" lon="-6.8480020">
        <ele>651.6</ele>
        <time>2014-10-01T10:39:15Z</time>
      </trkpt>
      <trkpt lat="42.3870220" lon="-6.8481390">
        <ele>650.9</ele>
        <time>2014-10-01T10:39:16Z</time>
      </trkpt>
      <trkpt lat="42.3870530" lon="-6.8482730">
        <ele>650.2</ele>
        <time>2014-10-01T10:39:17Z</time>
      </trkpt>
      <trkpt lat="42.3870790" lon="-6.8484160">
        <ele>649.5</ele>
        <time>2014-10-01T10:39:18Z</time>
      </trkpt>
      <trkpt lat="42.3870970" lon="-6.8485610">
        <ele>648.8</ele>
        <time>2014-10-01T10:39:19Z</time>
      </trkpt>
      <trkpt lat="42.3871090" lon="-6.8487150">
        <ele>648.1</ele>
        <time>2014-10-01T10:39:20Z</time>
      </trkpt>
      <trkpt lat="42.3870930" lon="-6.8488670">
        <ele>647.4</ele>
        <time>2014-10-01T10:39:21Z</time>
      </trkpt>
      <trkpt lat="42.3870760" lon="-6.8490290">
        <ele>646.7</ele>
        <time>2014-10-01T10:39:22Z</time>
      </trkpt>
      <trkpt lat="42.3870560" lon="-6.8491900">
        <ele>646.1</ele>
        <time>2014-10-01T10:39:23Z</time>
      </trkpt>
      <trkpt lat="42.3870310" lon="-6.8493470">
        <ele>645.4</ele>
        <time>2014-10-01T10:39:24Z</time>
      </trkpt>
      <trkpt lat="42.3870040" lon="-6.8494950">
        <ele>644.7</ele>
        <time>2014-10-01T10:39:25Z</time>
      </trkpt>
      <trkpt lat="42.3869720" lon="-6.8496400">
        <ele>644.2</ele>
        <time>2014-10-01T10:39:26Z</time>
      </trkpt>
      <trkpt lat="42.3869400" lon="-6.8497880">
        <ele>643.8</ele>
        <time>2014-10-01T10:39:27Z</time>
      </trkpt>
      <trkpt lat="42.3869050" lon="-6.8499400">
        <ele>643.3</ele>
        <time>2014-10-01T10:39:28Z</time>
      </trkpt>
      <trkpt lat="42.3868690" lon="-6.8501000">
        <ele>642.7</ele>
        <time>2014-10-01T10:39:29Z</time>
      </trkpt>
      <trkpt lat="42.3868360" lon="-6.8502560">
        <ele>642.2</ele>
        <time>2014-10-01T10:39:30Z</time>
      </trkpt>
      <trkpt lat="42.3868080" lon="-6.8504180">
        <ele>641.6</ele>
        <time>2014-10-01T10:39:31Z</time>
      </trkpt>
      <trkpt lat="42.3867880" lon="-6.8505810">
        <ele>641.0</ele>
        <time>2014-10-01T10:39:32Z</time>
      </trkpt>
      <trkpt lat="42.3867780" lon="-6.8507430">
        <ele>640.4</ele>
        <time>2014-10-01T10:39:33Z</time>
      </trkpt>
      <trkpt lat="42.3867780" lon="-6.8509090">
        <ele>639.9</ele>
        <time>2014-10-01T10:39:34Z</time>
      </trkpt>
      <trkpt lat="42.3867860" lon="-6.8510840">
        <ele>639.3</ele>
        <time>2014-10-01T10:39:35Z</time>
      </trkpt>
      <trkpt lat="42.3868000" lon="-6.8512660">
        <ele>638.7</ele>
        <time>2014-10-01T10:39:36Z</time>
      </trkpt>
      <trkpt lat="42.3868180" lon="-6.8514470">
        <ele>638.2</ele>
        <time>2014-10-01T10:39:37Z</time>
      </trkpt>
      <trkpt lat="42.3868420" lon="-6.8516180">
        <ele>637.7</ele>
        <time>2014-10-01T10:39:38Z</time>
      </trkpt>
      <trkpt lat="42.3868690" lon="-6.8517870">
        <ele>637.2</ele>
        <time>2014-10-01T10:39:39Z</time>
      </trkpt>
      <trkpt lat="42.3868950" lon="-6.8519570">
        <ele>636.8</ele>
        <time>2014-10-01T10:39:40Z</time>
      </trkpt>
      <trkpt lat="42.3869190" lon="-6.8521220">
        <ele>636.4</ele>
        <time>2014-10-01T10:39:41Z</time>
      </trkpt>
      <trkpt lat="42.3869390" lon="-6.8522850">
        <ele>636.1</ele>
        <time>2014-10-01T10:39:42Z</time>
      </trkpt>
      <trkpt lat="42.3869570" lon="-6.8524540">
        <ele>635.9</ele>
        <time>2014-10-01T10:39:43Z</time>
      </trkpt>
      <trkpt lat="42.3869700" lon="-6.8526220">
        <ele>635.6</ele>
        <time>2014-10-01T10:39:44Z</time>
      </trkpt>
      <trkpt lat="42.3869780" lon="-6.8527770">
        <ele>635.3</ele>
        <time>2014-10-01T10:39:45Z</time>
      </trkpt>
      <trkpt lat="42.3869860" lon="-6.8529270">
        <ele>635.1</ele>
        <time>2014-10-01T10:39:46Z</time>
      </trkpt>
      <trkpt lat="42.3869910" lon="-6.8530820">
        <ele>634.8</ele>
        <time>2014-10-01T10:39:47Z</time>
      </trkpt>
      <trkpt lat="42.3869970" lon="-6.8532300">
        <ele>634.6</ele>
        <time>2014-10-01T10:39:48Z</time>
      </trkpt>
      <trkpt lat="42.3870030" lon="-6.8533800">
        <ele>634.3</ele>
        <time>2014-10-01T10:39:49Z</time>
      </trkpt>
      <trkpt lat="42.3870060" lon="-6.8535280">
        <ele>634.0</ele>
        <time>2014-10-01T10:39:50Z</time>
      </trkpt>
      <trkpt lat="42.3870090" lon="-6.8536850">
        <ele>633.6</ele>
        <time>2014-10-01T10:39:51Z</time>
      </trkpt>
      <trkpt lat="42.3870120" lon="-6.8538370">
        <ele>633.3</ele>
        <time>2014-10-01T10:39:52Z</time>
      </trkpt>
      <trkpt lat="42.3870090" lon="-6.8539830">
        <ele>632.9</ele>
        <time>2014-10-01T10:39:53Z</time>
      </trkpt>
      <trkpt lat="42.3870070" lon="-6.8541300">
        <ele>632.4</ele>
        <time>2014-10-01T10:39:54Z</time>
      </trkpt>
      <trkpt lat="42.3870040" lon="-6.8542730">
        <ele>632.0</ele>
        <time>2014-10-01T10:39:55Z</time>
      </trkpt>
      <trkpt lat="42.3870020" lon="-6.8544250">
        <ele>631.5</ele>
        <time>2014-10-01T10:39:56Z</time>
      </trkpt>
      <trkpt lat="42.3869990" lon="-6.8545760">
        <ele>631.1</ele>
        <time>2014-10-01T10:39:57Z</time>
      </trkpt>
      <trkpt lat="42.3869950" lon="-6.8547350">
        <ele>630.6</ele>
        <time>2014-10-01T10:39:58Z</time>
      </trkpt>
      <trkpt lat="42.3869920" lon="-6.8548940">
        <ele>630.0</ele>
        <time>2014-10-01T10:39:59Z</time>
      </trkpt>
      <trkpt lat="42.3869900" lon="-6.8550450">
        <ele>629.5</ele>
        <time>2014-10-01T10:40:00Z</time>
      </trkpt>
      <trkpt lat="42.3869890" lon="-6.8552020">
        <ele>628.9</ele>
        <time>2014-10-01T10:40:01Z</time>
      </trkpt>
      <trkpt lat="42.3869890" lon="-6.8553620">
        <ele>628.4</ele>
        <time>2014-10-01T10:40:02Z</time>
      </trkpt>
      <trkpt lat="42.3869900" lon="-6.8555180">
        <ele>627.9</ele>
        <time>2014-10-01T10:40:03Z</time>
      </trkpt>
      <trkpt lat="42.3869910" lon="-6.8556760">
        <ele>627.4</ele>
        <time>2014-10-01T10:40:04Z</time>
      </trkpt>
      <trkpt lat="42.3869930" lon="-6.8558370">
        <ele>626.9</ele>
        <time>2014-10-01T10:40:05Z</time>
      </trkpt>
      <trkpt lat="42.3869940" lon="-6.8559980">
        <ele>626.4</ele>
        <time>2014-10-01T10:40:06Z</time>
      </trkpt>
      <trkpt lat="42.3869950" lon="-6.8561540">
        <ele>625.9</ele>
        <time>2014-10-01T10:40:07Z</time>
      </trkpt>
      <trkpt lat="42.3869940" lon="-6.8563090">
        <ele>625.4</ele>
        <time>2014-10-01T10:40:08Z</time>
      </trkpt>
      <trkpt lat="42.3869930" lon="-6.8564680">
        <ele>624.9</ele>
        <time>2014-10-01T10:40:09Z</time>
      </trkpt>
      <trkpt lat="42.3869900" lon="-6.8566350">
        <ele>624.4</ele>
        <time>2014-10-01T10:40:10Z</time>
      </trkpt>
      <trkpt lat="42.3869870" lon="-6.8567980">
        <ele>623.9</ele>
        <time>2014-10-01T10:40:11Z</time>
      </trkpt>
      <trkpt lat="42.3869850" lon="-6.8569640">
        <ele>623.4</ele>
        <time>2014-10-01T10:40:12Z</time>
      </trkpt>
      <trkpt lat="42.3869850" lon="-6.8571280">
        <ele>622.9</ele>
        <time>2014-10-01T10:40:13Z</time>
      </trkpt>
      <trkpt lat="42.3869860" lon="-6.8572850">
        <ele>622.4</ele>
        <time>2014-10-01T10:40:14Z</time>
      </trkpt>
      <trkpt lat="42.3869910" lon="-6.8574440">
        <ele>621.9</ele>
        <time>2014-10-01T10:40:15Z</time>
      </trkpt>
      <trkpt lat="42.3870010" lon="-6.8576040">
        <ele>621.4</ele>
        <time>2014-10-01T10:40:16Z</time>
      </trkpt>
      <trkpt lat="42.3870180" lon="-6.8577630">
        <ele>620.8</ele>
        <time>2014-10-01T10:40:17Z</time>
      </trkpt>
      <trkpt lat="42.3870420" lon="-6.8579180">
        <ele>620.2</ele>
        <time>2014-10-01T10:40:18Z</time>
      </trkpt>
      <trkpt lat="42.3870750" lon="-6.8580700">
        <ele>619.6</ele>
        <time>2014-10-01T10:40:19Z</time>
      </trkpt>
      <trkpt lat="42.3871120" lon="-6.8582220">
        <ele>618.9</ele>
        <time>2014-10-01T10:40:20Z</time>
      </trkpt>
      <trkpt lat="42.3871570" lon="-6.8583730">
        <ele>618.2</ele>
        <time>2014-10-01T10:40:21Z</time>
      </trkpt>
      <trkpt lat="42.3872080" lon="-6.8585180">
        <ele>617.4</ele>
        <time>2014-10-01T10:40:22Z</time>
      </trkpt>
      <trkpt lat="42.3872670" lon="-6.8586610">
        <ele>616.6</ele>
        <time>2014-10-01T10:40:23Z</time>
      </trkpt>
      <trkpt lat="42.3873330" lon="-6.8588040">
        <ele>615.7</ele>
        <time>2014-10-01T10:40:24Z</time>
      </trkpt>
      <trkpt lat="42.3874040" lon="-6.8589450">
        <ele>614.8</ele>
        <time>2014-10-01T10:40:25Z</time>
      </trkpt>
      <trkpt lat="42.3874750" lon="-6.8590840">
        <ele>613.8</ele>
        <time>2014-10-01T10:40:26Z</time>
      </trkpt>
      <trkpt lat="42.3875510" lon="-6.8592280">
        <ele>612.9</ele>
        <time>2014-10-01T10:40:27Z</time>
      </trkpt>
      <trkpt lat="42.3876280" lon="-6.8593720">
        <ele>611.9</ele>
        <time>2014-10-01T10:40:28Z</time>
      </trkpt>
      <trkpt lat="42.3877090" lon="-6.8595180">
        <ele>610.8</ele>
        <time>2014-10-01T10:40:29Z</time>
      </trkpt>
      <trkpt lat="42.3877870" lon="-6.8596610">
        <ele>609.7</ele>
        <time>2014-10-01T10:40:30Z</time>
      </trkpt>
      <trkpt lat="42.3878700" lon="-6.8598030">
        <ele>608.5</ele>
        <time>2014-10-01T10:40:31Z</time>
      </trkpt>
      <trkpt lat="42.3879510" lon="-6.8599490">
        <ele>607.5</ele>
        <time>2014-10-01T10:40:32Z</time>
      </trkpt>
      <trkpt lat="42.3880230" lon="-6.8600900">
        <ele>606.6</ele>
        <time>2014-10-01T10:40:33Z</time>
      </trkpt>
      <trkpt lat="42.3880910" lon="-6.8602240">
        <ele>605.8</ele>
        <time>2014-10-01T10:40:34Z</time>
      </trkpt>
      <trkpt lat="42.3881590" lon="-6.8603670">
        <ele>605.0</ele>
        <time>2014-10-01T10:40:35Z</time>
      </trkpt>
      <trkpt lat="42.3882170" lon="-6.8605130">
        <ele>604.3</ele>
        <time>2014-10-01T10:40:36Z</time>
      </trkpt>
      <trkpt lat="42.3882660" lon="-6.8606610">
        <ele>603.7</ele>
        <time>2014-10-01T10:40:37Z</time>
      </trkpt>
      <trkpt lat="42.3883050" lon="-6.8608180">
        <ele>603.1</ele>
        <time>2014-10-01T10:40:38Z</time>
      </trkpt>
      <trkpt lat="42.3883350" lon="-6.8609800">
        <ele>602.5</ele>
        <time>2014-10-01T10:40:39Z</time>
      </trkpt>
      <trkpt lat="42.3883570" lon="-6.8611500">
        <ele>602.1</ele>
        <time>2014-10-01T10:40:40Z</time>
      </trkpt>
      <trkpt lat="42.3883720" lon="-6.8613230">
        <ele>601.5</ele>
        <time>2014-10-01T10:40:41Z</time>
      </trkpt>
      <trkpt lat="42.3883810" lon="-6.8614960">
        <ele>600.7</ele>
        <time>2014-10-01T10:40:42Z</time>
      </trkpt>
      <trkpt lat="42.3883890" lon="-6.8616600">
        <ele>600.0</ele>
        <time>2014-10-01T10:40:43Z</time>
      </trkpt>
      <trkpt lat="42.3883980" lon="-6.8618250">
        <ele>599.4</ele>
        <time>2014-10-01T10:40:44Z</time>
      </trkpt>
      <trkpt lat="42.3884080" lon="-6.8619960">
        <ele>598.8</ele>
        <time>2014-10-01T10:40:45Z</time>
      </trkpt>
      <trkpt lat="42.3884160" lon="-6.8621650">
        <ele>598.1</ele>
        <time>2014-10-01T10:40:46Z</time>
      </trkpt>
      <trkpt lat="42.3884250" lon="-6.8623310">
        <ele>597.6</ele>
        <time>2014-10-01T10:40:47Z</time>
      </trkpt>
      <trkpt lat="42.3884340" lon="-6.8624980">
        <ele>597.1</ele>
        <time>2014-10-01T10:40:48Z</time>
      </trkpt>
      <trkpt lat="42.3884440" lon="-6.8626630">
        <ele>596.5</ele>
        <time>2014-10-01T10:40:49Z</time>
      </trkpt>
      <trkpt lat="42.3884560" lon="-6.8628320">
        <ele>595.8</ele>
        <time>2014-10-01T10:40:50Z</time>
      </trkpt>
      <trkpt lat="42.3884720" lon="-6.8629960">
        <ele>595.3</ele>
        <time>2014-10-01T10:40:51Z</time>
      </trkpt>
      <trkpt lat="42.3884890" lon="-6.8631610">
        <ele>595.0</ele>
        <time>2014-10-01T10:40:52Z</time>
      </trkpt>
      <trkpt lat="42.3885030" lon="-6.8633230">
        <ele>594.5</ele>
        <time>2014-10-01T10:40:53Z</time>
      </trkpt>
      <trkpt lat="42.3885130" lon="-6.8634820">
        <ele>594.0</ele>
        <time>2014-10-01T10:40:54Z</time>
      </trkpt>
      <trkpt lat="42.3885160" lon="-6.8636400">
        <ele>593.5</ele>
        <time>2014-10-01T10:40:55Z</time>
      </trkpt>
      <trkpt lat="42.3885140" lon="-6.8637970">
        <ele>593.1</ele>
        <time>2014-10-01T10:40:56Z</time>
      </trkpt>
      <trkpt lat="42.3885050" lon="-6.8639520">
        <ele>592.5</ele>
        <time>2014-10-01T10:40:57Z</time>
      </trkpt>
      <trkpt lat="42.3884910" lon="-6.8641090">
        <ele>592.0</ele>
        <time>2014-10-01T10:40:58Z</time>
      </trkpt>
      <trkpt lat="42.3884770" lon="-6.8642680">
        <ele>591.4</ele>
        <time>2014-10-01T10:40:59Z</time>
      </trkpt>
      <trkpt lat="42.3884610" lon="-6.8644330">
        <ele>590.9</ele>
        <time>2014-10-01T10:41:00Z</time>
      </trkpt>
      <trkpt lat="42.3884460" lon="-6.8645930">
        <ele>590.4</ele>
        <time>2014-10-01T10:41:01Z</time>
      </trkpt>
      <trkpt lat="42.3884340" lon="-6.8647560">
        <ele>589.9</ele>
        <time>2014-10-01T10:41:02Z</time>
      </trkpt>
      <trkpt lat="42.3884250" lon="-6.8649210">
        <ele>589.4</ele>
        <time>2014-10-01T10:41:03Z</time>
      </trkpt>
      <trkpt lat="42.3884210" lon="-6.8650890">
        <ele>588.9</ele>
        <time>2014-10-01T10:41:04Z</time>
      </trkpt>
      <trkpt lat="42.3884190" lon="-6.8652580">
        <ele>588.4</ele>
        <time>2014-10-01T10:41:05Z</time>
      </trkpt>
      <trkpt lat="42.3884230" lon="-6.8654270">
        <ele>587.9</ele>
        <time>2014-10-01T10:41:06Z</time>
      </trkpt>
      <trkpt lat="42.3884350" lon="-6.8655850">
        <ele>587.4</ele>
        <time>2014-10-01T10:41:07Z</time>
      </trkpt>
      <trkpt lat="42.3884530" lon="-6.8657330">
        <ele>587.0</ele>
        <time>2014-10-01T10:41:08Z</time>
      </trkpt>
      <trkpt lat="42.3884750" lon="-6.8658880">
        <ele>586.5</ele>
        <time>2014-10-01T10:41:09Z</time>
      </trkpt>
      <trkpt lat="42.3885000" lon="-6.8660340">
        <ele>586.1</ele>
        <time>2014-10-01T10:41:10Z</time>
      </trkpt>
      <trkpt lat="42.3885310" lon="-6.8661900">
        <ele>585.7</ele>
        <time>2014-10-01T10:41:11Z</time>
      </trkpt>
      <trkpt lat="42.3885640" lon="-6.8663430">
        <ele>585.2</ele>
        <time>2014-10-01T10:41:12Z</time>
      </trkpt>
      <trkpt lat="42.3885960" lon="-6.8665010">
        <ele>584.7</ele>
        <time>2014-10-01T10:41:13Z</time>
      </trkpt>
      <trkpt lat="42.3886280" lon="-6.8666450">
        <ele>584.2</ele>
        <time>2014-10-01T10:41:14Z</time>
      </trkpt>
      <trkpt lat="42.3886630" lon="-6.8667950">
        <ele>583.8</ele>
        <time>2014-10-01T10:41:15Z</time>
      </trkpt>
      <trkpt lat="42.3887010" lon="-6.8669510">
        <ele>583.4</ele>
        <time>2014-10-01T10:41:16Z</time>
      </trkpt>
      <trkpt lat="42.3887360" lon="-6.8670920">
        <ele>583.0</ele>
        <time>2014-10-01T10:41:17Z</time>
      </trkpt>
      <trkpt lat="42.3887700" lon="-6.8672340">
        <ele>582.6</ele>
        <time>2014-10-01T10:41:18Z</time>
      </trkpt>
      <trkpt lat="42.3888020" lon="-6.8673770">
        <ele>582.2</ele>
        <time>2014-10-01T10:41:19Z</time>
      </trkpt>
      <trkpt lat="42.3888390" lon="-6.8675300">
        <ele>581.8</ele>
        <time>2014-10-01T10:41:20Z</time>
      </trkpt>
      <trkpt lat="42.3888790" lon="-6.8676930">
        <ele>581.4</ele>
        <time>2014-10-01T10:41:21Z</time>
      </trkpt>
      <trkpt lat="42.3889170" lon="-6.8678480">
        <ele>580.8</ele>
        <time>2014-10-01T10:41:22Z</time>
      </trkpt>
      <trkpt lat="42.3889550" lon="-6.8680000">
        <ele>580.2</ele>
        <time>2014-10-01T10:41:23Z</time>
      </trkpt>
      <trkpt lat="42.3889940" lon="-6.8681570">
        <ele>579.5</ele>
        <time>2014-10-01T10:41:24Z</time>
      </trkpt>
      <trkpt lat="42.3890280" lon="-6.8683090">
        <ele>578.8</ele>
        <time>2014-10-01T10:41:25Z</time>
      </trkpt>
      <trkpt lat="42.3890630" lon="-6.8684650">
        <ele>577.9</ele>
        <time>2014-10-01T10:41:26Z</time>
      </trkpt>
      <trkpt lat="42.3891000" lon="-6.8686250">
        <ele>577.0</ele>
        <time>2014-10-01T10:41:27Z</time>
      </trkpt>
      <trkpt lat="42.3891360" lon="-6.8687860">
        <ele>576.1</ele>
        <time>2014-10-01T10:41:28Z</time>
      </trkpt>
      <trkpt lat="42.3891760" lon="-6.8689560">
        <ele>575.1</ele>
        <time>2014-10-01T10:41:29Z</time>
      </trkpt>
      <trkpt lat="42.3892150" lon="-6.8691240">
        <ele>574.2</ele>
        <time>2014-10-01T10:41:30Z</time>
      </trkpt>
      <trkpt lat="42.3892540" lon="-6.8692980">
        <ele>573.3</ele>
        <time>2014-10-01T10:41:31Z</time>
      </trkpt>
      <trkpt lat="42.3892930" lon="-6.8694590">
        <ele>572.5</ele>
        <time>2014-10-01T10:41:32Z</time>
      </trkpt>
      <trkpt lat="42.3893330" lon="-6.8696270">
        <ele>571.6</ele>
        <time>2014-10-01T10:41:33Z</time>
      </trkpt>
      <trkpt lat="42.3893730" lon="-6.8697970">
        <ele>570.7</ele>
        <time>2014-10-01T10:41:34Z</time>
      </trkpt>
      <trkpt lat="42.3894120" lon="-6.8699680">
        <ele>570.0</ele>
        <time>2014-10-01T10:41:35Z</time>
      </trkpt>
      <trkpt lat="42.3894480" lon="-6.8701400">
        <ele>569.4</ele>
        <time>2014-10-01T10:41:36Z</time>
      </trkpt>
      <trkpt lat="42.3894800" lon="-6.8703090">
        <ele>568.8</ele>
        <time>2014-10-01T10:41:37Z</time>
      </trkpt>
      <trkpt lat="42.3895040" lon="-6.8704720">
        <ele>568.2</ele>
        <time>2014-10-01T10:41:38Z</time>
      </trkpt>
      <trkpt lat="42.3895170" lon="-6.8706380">
        <ele>567.8</ele>
        <time>2014-10-01T10:41:39Z</time>
      </trkpt>
      <trkpt lat="42.3895040" lon="-6.8708190">
        <ele>567.4</ele>
        <time>2014-10-01T10:41:40Z</time>
      </trkpt>
      <trkpt lat="42.3894890" lon="-6.8709970">
        <ele>567.2</ele>
        <time>2014-10-01T10:41:41Z</time>
      </trkpt>
      <trkpt lat="42.3894720" lon="-6.8711750">
        <ele>566.9</ele>
        <time>2014-10-01T10:41:42Z</time>
      </trkpt>
      <trkpt lat="42.3894560" lon="-6.8713490">
        <ele>566.7</ele>
        <time>2014-10-01T10:41:43Z</time>
      </trkpt>
      <trkpt lat="42.3894300" lon="-6.8715140">
        <ele>566.4</ele>
        <time>2014-10-01T10:41:44Z</time>
      </trkpt>
      <trkpt lat="42.3894010" lon="-6.8716720">
        <ele>566.2</ele>
        <time>2014-10-01T10:41:45Z</time>
      </trkpt>
      <trkpt lat="42.3893710" lon="-6.8718260">
        <ele>566.0</ele>
        <time>2014-10-01T10:41:46Z</time>
      </trkpt>
      <trkpt lat="42.3893400" lon="-6.8719800">
        <ele>565.7</ele>
        <time>2014-10-01T10:41:47Z</time>
      </trkpt>
      <trkpt lat="42.3893080" lon="-6.8721280">
        <ele>565.4</ele>
        <time>2014-10-01T10:41:48Z</time>
      </trkpt>
      <trkpt lat="42.3892800" lon="-6.8722750">
        <ele>565.0</ele>
        <time>2014-10-01T10:41:49Z</time>
      </trkpt>
      <trkpt lat="42.3892560" lon="-6.8724240">
        <ele>564.6</ele>
        <time>2014-10-01T10:41:50Z</time>
      </trkpt>
      <trkpt lat="42.3892310" lon="-6.8725750">
        <ele>564.2</ele>
        <time>2014-10-01T10:41:51Z</time>
      </trkpt>
      <trkpt lat="42.3892010" lon="-6.8727220">
        <ele>563.7</ele>
        <time>2014-10-01T10:41:52Z</time>
      </trkpt>
      <trkpt lat="42.3891680" lon="-6.8728660">
        <ele>563.1</ele>
        <time>2014-10-01T10:41:53Z</time>
      </trkpt>
      <trkpt lat="42.3891330" lon="-6.8730100">
        <ele>562.5</ele>
        <time>2014-10-01T10:41:54Z</time>
      </trkpt>
      <trkpt lat="42.3890910" lon="-6.8731580">
        <ele>561.8</ele>
        <time>2014-10-01T10:41:55Z</time>
      </trkpt>
      <trkpt lat="42.3890470" lon="-6.8733050">
        <ele>561.2</ele>
        <time>2014-10-01T10:41:56Z</time>
      </trkpt>
      <trkpt lat="42.3890000" lon="-6.8734360">
        <ele>560.5</ele>
        <time>2014-10-01T10:41:57Z</time>
      </trkpt>
      <trkpt lat="42.3889500" lon="-6.8735670">
        <ele>559.8</ele>
        <time>2014-10-01T10:41:58Z</time>
      </trkpt>
      <trkpt lat="42.3888960" lon="-6.8737030">
        <ele>559.1</ele>
        <time>2014-10-01T10:41:59Z</time>
      </trkpt>
      <trkpt lat="42.3888400" lon="-6.8738390">
        <ele>558.4</ele>
        <time>2014-10-01T10:42:00Z</time>
      </trkpt>
      <trkpt lat="42.3887840" lon="-6.8739750">
        <ele>557.7</ele>
        <time>2014-10-01T10:42:01Z</time>
      </trkpt>
      <trkpt lat="42.3887220" lon="-6.8741160">
        <ele>556.9</ele>
        <time>2014-10-01T10:42:02Z</time>
      </trkpt>
      <trkpt lat="42.3886600" lon="-6.8742600">
        <ele>555.7</ele>
        <time>2014-10-01T10:42:03Z</time>
      </trkpt>
      <trkpt lat="42.3886000" lon="-6.8744010">
        <ele>555.0</ele>
        <time>2014-10-01T10:42:04Z</time>
      </trkpt>
      <trkpt lat="42.3885370" lon="-6.8745490">
        <ele>554.3</ele>
        <time>2014-10-01T10:42:05Z</time>
      </trkpt>
      <trkpt lat="42.3884750" lon="-6.8746980">
        <ele>553.6</ele>
        <time>2014-10-01T10:42:06Z</time>
      </trkpt>
      <trkpt lat="42.3884160" lon="-6.8748420">
        <ele>553.0</ele>
        <time>2014-10-01T10:42:07Z</time>
      </trkpt>
      <trkpt lat="42.3883570" lon="-6.8749910">
        <ele>552.4</ele>
        <time>2014-10-01T10:42:08Z</time>
      </trkpt>
      <trkpt lat="42.3882970" lon="-6.8751420">
        <ele>551.9</ele>
        <time>2014-10-01T10:42:09Z</time>
      </trkpt>
      <trkpt lat="42.3882360" lon="-6.8752910">
        <ele>551.6</ele>
        <time>2014-10-01T10:42:10Z</time>
      </trkpt>
      <trkpt lat="42.3881780" lon="-6.8754360">
        <ele>551.3</ele>
        <time>2014-10-01T10:42:11Z</time>
      </trkpt>
      <trkpt lat="42.3881230" lon="-6.8755780">
        <ele>551.0</ele>
        <time>2014-10-01T10:42:12Z</time>
      </trkpt>
      <trkpt lat="42.3880730" lon="-6.8757130">
        <ele>550.7</ele>
        <time>2014-10-01T10:42:13Z</time>
      </trkpt>
      <trkpt lat="42.3880240" lon="-6.8758450">
        <ele>550.4</ele>
        <time>2014-10-01T10:42:14Z</time>
      </trkpt>
      <trkpt lat="42.3879730" lon="-6.8759760">
        <ele>550.2</ele>
        <time>2014-10-01T10:42:15Z</time>
      </trkpt>
      <trkpt lat="42.3879220" lon="-6.8761070">
        <ele>549.9</ele>
        <time>2014-10-01T10:42:16Z</time>
      </trkpt>
      <trkpt lat="42.3878680" lon="-6.8762420">
        <ele>549.7</ele>
        <time>2014-10-01T10:42:17Z</time>
      </trkpt>
      <trkpt lat="42.3878100" lon="-6.8763720">
        <ele>549.4</ele>
        <time>2014-10-01T10:42:18Z</time>
      </trkpt>
      <trkpt lat="42.3877540" lon="-6.8765000">
        <ele>549.1</ele>
        <time>2014-10-01T10:42:19Z</time>
      </trkpt>
      <trkpt lat="42.3876980" lon="-6.8766250">
        <ele>548.8</ele>
        <time>2014-10-01T10:42:20Z</time>
      </trkpt>
      <trkpt lat="42.3876380" lon="-6.8767560">
        <ele>548.5</ele>
        <time>2014-10-01T10:42:21Z</time>
      </trkpt>
      <trkpt lat="42.3875790" lon="-6.8768800">
        <ele>548.1</ele>
        <time>2014-10-01T10:42:22Z</time>
      </trkpt>
      <trkpt lat="42.3875190" lon="-6.8770100">
        <ele>547.7</ele>
        <time>2014-10-01T10:42:23Z</time>
      </trkpt>
      <trkpt lat="42.3874590" lon="-6.8771400">
        <ele>547.5</ele>
        <time>2014-10-01T10:42:24Z</time>
      </trkpt>
      <trkpt lat="42.3874000" lon="-6.8772700">
        <ele>547.2</ele>
        <time>2014-10-01T10:42:25Z</time>
      </trkpt>
      <trkpt lat="42.3873410" lon="-6.8774030">
        <ele>546.8</ele>
        <time>2014-10-01T10:42:26Z</time>
      </trkpt>
      <trkpt lat="42.3872890" lon="-6.8775360">
        <ele>546.4</ele>
        <time>2014-10-01T10:42:27Z</time>
      </trkpt>
      <trkpt lat="42.3872440" lon="-6.8776710">
        <ele>545.9</ele>
        <time>2014-10-01T10:42:28Z</time>
      </trkpt>
      <trkpt lat="42.3872040" lon="-6.8778160">
        <ele>545.4</ele>
        <time>2014-10-01T10:42:29Z</time>
      </trkpt>
      <trkpt lat="42.3871950" lon="-6.8779710">
        <ele>544.7</ele>
        <time>2014-10-01T10:42:30Z</time>
      </trkpt>
      <trkpt lat="42.3871840" lon="-6.8781320">
        <ele>544.0</ele>
        <time>2014-10-01T10:42:31Z</time>
      </trkpt>
      <trkpt lat="42.3871860" lon="-6.8782850">
        <ele>543.2</ele>
        <time>2014-10-01T10:42:32Z</time>
      </trkpt>
      <trkpt lat="42.3871960" lon="-6.8784480">
        <ele>542.4</ele>
        <time>2014-10-01T10:42:33Z</time>
      </trkpt>
      <trkpt lat="42.3872440" lon="-6.8786000">
        <ele>541.7</ele>
        <time>2014-10-01T10:42:34Z</time>
      </trkpt>
      <trkpt lat="42.3872980" lon="-6.8787510">
        <ele>540.9</ele>
        <time>2014-10-01T10:42:35Z</time>
      </trkpt>
      <trkpt lat="42.3873650" lon="-6.8789070">
        <ele>540.1</ele>
        <time>2014-10-01T10:42:36Z</time>
      </trkpt>
      <trkpt lat="42.3874360" lon="-6.8790580">
        <ele>539.4</ele>
        <time>2014-10-01T10:42:37Z</time>
      </trkpt>
      <trkpt lat="42.3875130" lon="-6.8791960">
        <ele>538.7</ele>
        <time>2014-10-01T10:42:38Z</time>
      </trkpt>
      <trkpt lat="42.3876040" lon="-6.8793350">
        <ele>537.9</ele>
        <time>2014-10-01T10:42:39Z</time>
      </trkpt>
      <trkpt lat="42.3877010" lon="-6.8794570">
        <ele>537.2</ele>
        <time>2014-10-01T10:42:40Z</time>
      </trkpt>
      <trkpt lat="42.3877930" lon="-6.8795680">
        <ele>536.5</ele>
        <time>2014-10-01T10:42:41Z</time>
      </trkpt>
      <trkpt lat="42.3878910" lon="-6.8796770">
        <ele>535.7</ele>
        <time>2014-10-01T10:42:42Z</time>
      </trkpt>
      <trkpt lat="42.3879950" lon="-6.8797880">
        <ele>534.9</ele>
        <time>2014-10-01T10:42:43Z</time>
      </trkpt>
      <trkpt lat="42.3880970" lon="-6.8798940">
        <ele>534.0</ele>
        <time>2014-10-01T10:42:44Z</time>
      </trkpt>
      <trkpt lat="42.3881940" lon="-6.8799950">
        <ele>533.1</ele>
        <time>2014-10-01T10:42:45Z</time>
      </trkpt>
      <trkpt lat="42.3882890" lon="-6.8800990">
        <ele>532.2</ele>
        <time>2014-10-01T10:42:46Z</time>
      </trkpt>
      <trkpt lat="42.3883900" lon="-6.8802140">
        <ele>531.4</ele>
        <time>2014-10-01T10:42:47Z</time>
      </trkpt>
      <trkpt lat="42.3884880" lon="-6.8803330">
        <ele>530.5</ele>
        <time>2014-10-01T10:42:48Z</time>
      </trkpt>
      <trkpt lat="42.3885830" lon="-6.8804570">
        <ele>529.7</ele>
        <time>2014-10-01T10:42:49Z</time>
      </trkpt>
      <trkpt lat="42.3886710" lon="-6.8805840">
        <ele>529.0</ele>
        <time>2014-10-01T10:42:50Z</time>
      </trkpt>
      <trkpt lat="42.3887330" lon="-6.8807350">
        <ele>528.2</ele>
        <time>2014-10-01T10:42:51Z</time>
      </trkpt>
      <trkpt lat="42.3887880" lon="-6.8808900">
        <ele>527.5</ele>
        <time>2014-10-01T10:42:52Z</time>
      </trkpt>
      <trkpt lat="42.3888160" lon="-6.8810570">
        <ele>526.8</ele>
        <time>2014-10-01T10:42:53Z</time>
      </trkpt>
      <trkpt lat="42.3888370" lon="-6.8812250">
        <ele>526.2</ele>
        <time>2014-10-01T10:42:54Z</time>
      </trkpt>
      <trkpt lat="42.3888260" lon="-6.8813870">
        <ele>525.7</ele>
        <time>2014-10-01T10:42:55Z</time>
      </trkpt>
      <trkpt lat="42.3888060" lon="-6.8815370">
        <ele>525.1</ele>
        <time>2014-10-01T10:42:56Z</time>
      </trkpt>
      <trkpt lat="42.3887790" lon="-6.8816830">
        <ele>524.5</ele>
        <time>2014-10-01T10:42:57Z</time>
      </trkpt>
      <trkpt lat="42.3887430" lon="-6.8818270">
        <ele>523.9</ele>
        <time>2014-10-01T10:42:58Z</time>
      </trkpt>
      <trkpt lat="42.3887010" lon="-6.8819700">
        <ele>523.2</ele>
        <time>2014-10-01T10:42:59Z</time>
      </trkpt>
      <trkpt lat="42.3886530" lon="-6.8821170">
        <ele>522.5</ele>
        <time>2014-10-01T10:43:00Z</time>
      </trkpt>
      <trkpt lat="42.3886040" lon="-6.8822520">
        <ele>521.8</ele>
        <time>2014-10-01T10:43:01Z</time>
      </trkpt>
      <trkpt lat="42.3885500" lon="-6.8823980">
        <ele>521.1</ele>
        <time>2014-10-01T10:43:02Z</time>
      </trkpt>
      <trkpt lat="42.3884970" lon="-6.8825390">
        <ele>520.5</ele>
        <time>2014-10-01T10:43:03Z</time>
      </trkpt>
      <trkpt lat="42.3884420" lon="-6.8826870">
        <ele>519.9</ele>
        <time>2014-10-01T10:43:04Z</time>
      </trkpt>
      <trkpt lat="42.3883960" lon="-6.8828470">
        <ele>519.3</ele>
        <time>2014-10-01T10:43:05Z</time>
      </trkpt>
      <trkpt lat="42.3883790" lon="-6.8830090">
        <ele>518.7</ele>
        <time>2014-10-01T10:43:06Z</time>
      </trkpt>
      <trkpt lat="42.3884070" lon="-6.8831480">
        <ele>518.1</ele>
        <time>2014-10-01T10:43:07Z</time>
      </trkpt>
      <trkpt lat="42.3884630" lon="-6.8832540">
        <ele>517.5</ele>
        <time>2014-10-01T10:43:08Z</time>
      </trkpt>
      <trkpt lat="42.3885460" lon="-6.8833370">
        <ele>516.8</ele>
        <time>2014-10-01T10:43:09Z</time>
      </trkpt>
      <trkpt lat="42.3886370" lon="-6.8834240">
        <ele>516.0</ele>
        <time>2014-10-01T10:43:10Z</time>
      </trkpt>
      <trkpt lat="42.3887430" lon="-6.8835320">
        <ele>515.0</ele>
        <time>2014-10-01T10:43:11Z</time>
      </trkpt>
      <trkpt lat="42.3888190" lon="-6.8836690">
        <ele>514.1</ele>
        <time>2014-10-01T10:43:12Z</time>
      </trkpt>
      <trkpt lat="42.3888640" lon="-6.8838220">
        <ele>513.4</ele>
        <time>2014-10-01T10:43:13Z</time>
      </trkpt>
      <trkpt lat="42.3889010" lon="-6.8839800">
        <ele>512.7</ele>
        <time>2014-10-01T10:43:14Z</time>
      </trkpt>
      <trkpt lat="42.3889030" lon="-6.8841490">
        <ele>512.1</ele>
        <time>2014-10-01T10:43:15Z</time>
      </trkpt>
      <trkpt lat="42.3888970" lon="-6.8843080">
        <ele>511.7</ele>
        <time>2014-10-01T10:43:16Z</time>
      </trkpt>
      <trkpt lat="42.3888610" lon="-6.8844570">
        <ele>511.2</ele>
        <time>2014-10-01T10:43:17Z</time>
      </trkpt>
      <trkpt lat="42.3888200" lon="-6.8846160">
        <ele>510.8</ele>
        <time>2014-10-01T10:43:18Z</time>
      </trkpt>
      <trkpt lat="42.3887750" lon="-6.8847630">
        <ele>510.4</ele>
        <time>2014-10-01T10:43:19Z</time>
      </trkpt>
      <trkpt lat="42.3887320" lon="-6.8848990">
        <ele>510.0</ele>
        <time>2014-10-01T10:43:20Z</time>
      </trkpt>
      <trkpt lat="42.3886950" lon="-6.8850240">
        <ele>509.5</ele>
        <time>2014-10-01T10:43:21Z</time>
      </trkpt>
      <trkpt lat="42.3886630" lon="-6.8851660">
        <ele>509.2</ele>
        <time>2014-10-01T10:43:22Z</time>
      </trkpt>
      <trkpt lat="42.3886680" lon="-6.8853080">
        <ele>509.0</ele>
        <time>2014-10-01T10:43:23Z</time>
      </trkpt>
      <trkpt lat="42.3886790" lon="-6.8854560">
        <ele>508.8</ele>
        <time>2014-10-01T10:43:24Z</time>
      </trkpt>
      <trkpt lat="42.3886970" lon="-6.8856110">
        <ele>508.6</ele>
        <time>2014-10-01T10:43:25Z</time>
      </trkpt>
      <trkpt lat="42.3887160" lon="-6.8857580">
        <ele>508.6</ele>
        <time>2014-10-01T10:43:26Z</time>
      </trkpt>
      <trkpt lat="42.3887420" lon="-6.8859000">
        <ele>508.2</ele>
        <time>2014-10-01T10:43:27Z</time>
      </trkpt>
      <trkpt lat="42.3887710" lon="-6.8860540">
        <ele>507.7</ele>
        <time>2014-10-01T10:43:28Z</time>
      </trkpt>
      <trkpt lat="42.3888030" lon="-6.8862030">
        <ele>507.2</ele>
        <time>2014-10-01T10:43:29Z</time>
      </trkpt>
      <trkpt lat="42.3888320" lon="-6.8863430">
        <ele>506.7</ele>
        <time>2014-10-01T10:43:30Z</time>
      </trkpt>
      <trkpt lat="42.3888640" lon="-6.8864800">
        <ele>506.2</ele>
        <time>2014-10-01T10:43:31Z</time>
      </trkpt>
      <trkpt lat="42.3888980" lon="-6.8866090">
        <ele>505.7</ele>
        <time>2014-10-01T10:43:32Z</time>
      </trkpt>
      <trkpt lat="42.3889360" lon="-6.8867470">
        <ele>505.1</ele>
        <time>2014-10-01T10:43:33Z</time>
      </trkpt>
      <trkpt lat="42.3889760" lon="-6.8868900">
        <ele>504.4</ele>
        <time>2014-10-01T10:43:34Z</time>
      </trkpt>
      <trkpt lat="42.3890210" lon="-6.8870350">
        <ele>503.7</ele>
        <time>2014-10-01T10:43:35Z</time>
      </trkpt>
      <trkpt lat="42.3890660" lon="-6.8871850">
        <ele>503.1</ele>
        <time>2014-10-01T10:43:36Z</time>
      </trkpt>
      <trkpt lat="42.3891100" lon="-6.8873270">
        <ele>502.6</ele>
        <time>2014-10-01T10:43:37Z</time>
      </trkpt>
      <trkpt lat="42.3891540" lon="-6.8874710">
        <ele>502.1</ele>
        <time>2014-10-01T10:43:38Z</time>
      </trkpt>
      <trkpt lat="42.3891980" lon="-6.8876180">
        <ele>501.6</ele>
        <time>2014-10-01T10:43:39Z</time>
      </trkpt>
      <trkpt lat="42.3892380" lon="-6.8877690">
        <ele>501.1</ele>
        <time>2014-10-01T10:43:40Z</time>
      </trkpt>
      <trkpt lat="42.3892730" lon="-6.8879130">
        <ele>500.7</ele>
        <time>2014-10-01T10:43:41Z</time>
      </trkpt>
      <trkpt lat="42.3893020" lon="-6.8880650">
        <ele>500.2</ele>
        <time>2014-10-01T10:43:42Z</time>
      </trkpt>
      <trkpt lat="42.3893030" lon="-6.8882190">
        <ele>499.8</ele>
        <time>2014-10-01T10:43:43Z</time>
      </trkpt>
      <trkpt lat="42.3892550" lon="-6.8883600">
        <ele>499.7</ele>
        <time>2014-10-01T10:43:44Z</time>
      </trkpt>
      <trkpt lat="42.3892130" lon="-6.8884850">
        <ele>499.8</ele>
        <time>2014-10-01T10:43:45Z</time>
      </trkpt>
      <trkpt lat="42.3891670" lon="-6.8886090">
        <ele>500.0</ele>
        <time>2014-10-01T10:43:46Z</time>
      </trkpt>
      <trkpt lat="42.3890860" lon="-6.8886850">
        <ele>500.2</ele>
        <time>2014-10-01T10:43:47Z</time>
      </trkpt>
      <trkpt lat="42.3890110" lon="-6.8887510">
        <ele>500.4</ele>
        <time>2014-10-01T10:43:48Z</time>
      </trkpt>
      <trkpt lat="42.3889260" lon="-6.8888170">
        <ele>500.8</ele>
        <time>2014-10-01T10:43:49Z</time>
      </trkpt>
      <trkpt lat="42.3888580" lon="-6.8888690">
        <ele>501.0</ele>
        <time>2014-10-01T10:43:50Z</time>
      </trkpt>
      <trkpt lat="42.3887820" lon="-6.8889320">
        <ele>501.3</ele>
        <time>2014-10-01T10:43:51Z</time>
      </trkpt>
      <trkpt lat="42.3886940" lon="-6.8890030">
        <ele>501.6</ele>
        <time>2014-10-01T10:43:52Z</time>
      </trkpt>
      <trkpt lat="42.3886110" lon="-6.8890900">
        <ele>501.9</ele>
        <time>2014-10-01T10:43:53Z</time>
      </trkpt>
      <trkpt lat="42.3885650" lon="-6.8891940">
        <ele>502.0</ele>
        <time>2014-10-01T10:43:54Z</time>
      </trkpt>
      <trkpt lat="42.3885550" lon="-6.8893110">
        <ele>502.1</ele>
        <time>2014-10-01T10:43:55Z</time>
      </trkpt>
      <trkpt lat="42.3885880" lon="-6.8894010">
        <ele>502.1</ele>
        <time>2014-10-01T10:43:56Z</time>
      </trkpt>
      <trkpt lat="42.3886240" lon="-6.8894680">
        <ele>502.2</ele>
        <time>2014-10-01T10:43:57Z</time>
      </trkpt>
      <trkpt lat="42.3886690" lon="-6.8895460">
        <ele>502.3</ele>
        <time>2014-10-01T10:43:58Z</time>
      </trkpt>
      <trkpt lat="42.3887190" lon="-6.8896440">
        <ele>502.4</ele>
        <time>2014-10-01T10:43:59Z</time>
      </trkpt>
      <trkpt lat="42.3887680" lon="-6.8897470">
        <ele>502.5</ele>
        <time>2014-10-01T10:44:00Z</time>
      </trkpt>
      <trkpt lat="42.3888140" lon="-6.8898290">
        <ele>502.6</ele>
        <time>2014-10-01T10:44:01Z</time>
      </trkpt>
      <trkpt lat="42.3888670" lon="-6.8899170">
        <ele>502.7</ele>
        <time>2014-10-01T10:44:02Z</time>
      </trkpt>
      <trkpt lat="42.3889220" lon="-6.8900010">
        <ele>502.8</ele>
        <time>2014-10-01T10:44:03Z</time>
      </trkpt>
      <trkpt lat="42.3889810" lon="-6.8900830">
        <ele>502.9</ele>
        <time>2014-10-01T10:44:04Z</time>
      </trkpt>
      <trkpt lat="42.3890370" lon="-6.8901570">
        <ele>503.0</ele>
        <time>2014-10-01T10:44:05Z</time>
      </trkpt>
      <trkpt lat="42.3890940" lon="-6.8902310">
        <ele>503.0</ele>
        <time>2014-10-01T10:44:06Z</time>
      </trkpt>
      <trkpt lat="42.3891480" lon="-6.8902970">
        <ele>503.1</ele>
        <time>2014-10-01T10:44:07Z</time>
      </trkpt>
      <trkpt lat="42.3892020" lon="-6.8903620">
        <ele>503.1</ele>
        <time>2014-10-01T10:44:08Z</time>
      </trkpt>
      <trkpt lat="42.3892600" lon="-6.8904270">
        <ele>503.1</ele>
        <time>2014-10-01T10:44:09Z</time>
      </trkpt>
      <trkpt lat="42.3893190" lon="-6.8904910">
        <ele>503.1</ele>
        <time>2014-10-01T10:44:10Z</time>
      </trkpt>
      <trkpt lat="42.3893820" lon="-6.8905590">
        <ele>503.1</ele>
        <time>2014-10-01T10:44:11Z</time>
      </trkpt>
      <trkpt lat="42.3894510" lon="-6.8906280">
        <ele>503.0</ele>
        <time>2014-10-01T10:44:12Z</time>
      </trkpt>
      <trkpt lat="42.3895190" lon="-6.8906950">
        <ele>502.9</ele>
        <time>2014-10-01T10:44:13Z</time>
      </trkpt>
      <trkpt lat="42.3895800" lon="-6.8907540">
        <ele>502.7</ele>
        <time>2014-10-01T10:44:14Z</time>
      </trkpt>
      <trkpt lat="42.3896340" lon="-6.8908110">
        <ele>502.6</ele>
        <time>2014-10-01T10:44:15Z</time>
      </trkpt>
      <trkpt lat="42.3896900" lon="-6.8908710">
        <ele>502.4</ele>
        <time>2014-10-01T10:44:16Z</time>
      </trkpt>
      <trkpt lat="42.3897490" lon="-6.8909370">
        <ele>502.0</ele>
        <time>2014-10-01T10:44:17Z</time>
      </trkpt>
      <trkpt lat="42.3898070" lon="-6.8910110">
        <ele>501.7</ele>
        <time>2014-10-01T10:44:18Z</time>
      </trkpt>
      <trkpt lat="42.3898660" lon="-6.8911010">
        <ele>501.2</ele>
        <time>2014-10-01T10:44:19Z</time>
      </trkpt>
      <trkpt lat="42.3899260" lon="-6.8911990">
        <ele>500.7</ele>
        <time>2014-10-01T10:44:20Z</time>
      </trkpt>
      <trkpt lat="42.3899780" lon="-6.8912930">
        <ele>500.1</ele>
        <time>2014-10-01T10:44:21Z</time>
      </trkpt>
      <trkpt lat="42.3900320" lon="-6.8914010">
        <ele>499.6</ele>
        <time>2014-10-01T10:44:22Z</time>
      </trkpt>
      <trkpt lat="42.3900900" lon="-6.8915170">
        <ele>499.0</ele>
        <time>2014-10-01T10:44:23Z</time>
      </trkpt>
      <trkpt lat="42.3901510" lon="-6.8916330">
        <ele>498.3</ele>
        <time>2014-10-01T10:44:24Z</time>
      </trkpt>
      <trkpt lat="42.3902130" lon="-6.8917460">
        <ele>497.8</ele>
        <time>2014-10-01T10:44:25Z</time>
      </trkpt>
      <trkpt lat="42.3902800" lon="-6.8918630">
        <ele>497.2</ele>
        <time>2014-10-01T10:44:26Z</time>
      </trkpt>
      <trkpt lat="42.3903460" lon="-6.8919870">
        <ele>496.6</ele>
        <time>2014-10-01T10:44:27Z</time>
      </trkpt>
      <trkpt lat="42.3904090" lon="-6.8921090">
        <ele>496.0</ele>
        <time>2014-10-01T10:44:28Z</time>
      </trkpt>
      <trkpt lat="42.3904720" lon="-6.8922310">
        <ele>495.4</ele>
        <time>2014-10-01T10:44:29Z</time>
      </trkpt>
      <trkpt lat="42.3905360" lon="-6.8923560">
        <ele>494.7</ele>
        <time>2014-10-01T10:44:30Z</time>
      </trkpt>
      <trkpt lat="42.3905970" lon="-6.8924800">
        <ele>494.0</ele>
        <time>2014-10-01T10:44:31Z</time>
      </trkpt>
      <trkpt lat="42.3906570" lon="-6.8926110">
        <ele>493.3</ele>
        <time>2014-10-01T10:44:32Z</time>
      </trkpt>
      <trkpt lat="42.3907190" lon="-6.8927520">
        <ele>492.6</ele>
        <time>2014-10-01T10:44:33Z</time>
      </trkpt>
      <trkpt lat="42.3907790" lon="-6.8928940">
        <ele>491.9</ele>
        <time>2014-10-01T10:44:34Z</time>
      </trkpt>
      <trkpt lat="42.3908390" lon="-6.8930350">
        <ele>491.2</ele>
        <time>2014-10-01T10:44:35Z</time>
      </trkpt>
      <trkpt lat="42.3909000" lon="-6.8931740">
        <ele>490.4</ele>
        <time>2014-10-01T10:44:36Z</time>
      </trkpt>
      <trkpt lat="42.3909620" lon="-6.8933160">
        <ele>489.6</ele>
        <time>2014-10-01T10:44:37Z</time>
      </trkpt>
      <trkpt lat="42.3910240" lon="-6.8934550">
        <ele>488.7</ele>
        <time>2014-10-01T10:44:38Z</time>
      </trkpt>
      <trkpt lat="42.3910840" lon="-6.8935970">
        <ele>487.9</ele>
        <time>2014-10-01T10:44:39Z</time>
      </trkpt>
      <trkpt lat="42.3911450" lon="-6.8937460">
        <ele>487.0</ele>
        <time>2014-10-01T10:44:40Z</time>
      </trkpt>
      <trkpt lat="42.3912070" lon="-6.8938960">
        <ele>486.1</ele>
        <time>2014-10-01T10:44:41Z</time>
      </trkpt>
      <trkpt lat="42.3912710" lon="-6.8940440">
        <ele>485.2</ele>
        <time>2014-10-01T10:44:42Z</time>
      </trkpt>
      <trkpt lat="42.3913350" lon="-6.8941940">
        <ele>484.2</ele>
        <time>2014-10-01T10:44:43Z</time>
      </trkpt>
      <trkpt lat="42.3913950" lon="-6.8943430">
        <ele>483.4</ele>
        <time>2014-10-01T10:44:44Z</time>
      </trkpt>
      <trkpt lat="42.3914560" lon="-6.8944910">
        <ele>482.6</ele>
        <time>2014-10-01T10:44:45Z</time>
      </trkpt>
      <trkpt lat="42.3915200" lon="-6.8946430">
        <ele>481.8</ele>
        <time>2014-10-01T10:44:46Z</time>
      </trkpt>
      <trkpt lat="42.3915820" lon="-6.8947930">
        <ele>481.1</ele>
        <time>2014-10-01T10:44:47Z</time>
      </trkpt>
      <trkpt lat="42.3916430" lon="-6.8949470">
        <ele>480.6</ele>
        <time>2014-10-01T10:44:48Z</time>
      </trkpt>
      <trkpt lat="42.3916980" lon="-6.8951030">
        <ele>480.3</ele>
        <time>2014-10-01T10:44:49Z</time>
      </trkpt>
      <trkpt lat="42.3917200" lon="-6.8952690">
        <ele>480.3</ele>
        <time>2014-10-01T10:44:50Z</time>
      </trkpt>
      <trkpt lat="42.3917330" lon="-6.8954240">
        <ele>480.4</ele>
        <time>2014-10-01T10:44:51Z</time>
      </trkpt>
      <trkpt lat="42.3917380" lon="-6.8955850">
        <ele>480.5</ele>
        <time>2014-10-01T10:44:52Z</time>
      </trkpt>
      <trkpt lat="42.3917410" lon="-6.8957380">
        <ele>480.6</ele>
        <time>2014-10-01T10:44:53Z</time>
      </trkpt>
      <trkpt lat="42.3917490" lon="-6.8958790">
        <ele>480.8</ele>
        <time>2014-10-01T10:44:54Z</time>
      </trkpt>
      <trkpt lat="42.3917820" lon="-6.8960060">
        <ele>481.0</ele>
        <time>2014-10-01T10:44:55Z</time>
      </trkpt>
      <trkpt lat="42.3918320" lon="-6.8961110">
        <ele>481.1</ele>
        <time>2014-10-01T10:44:56Z</time>
      </trkpt>
      <trkpt lat="42.3918920" lon="-6.8962250">
        <ele>481.3</ele>
        <time>2014-10-01T10:44:57Z</time>
      </trkpt>
      <trkpt lat="42.3919630" lon="-6.8963110">
        <ele>481.5</ele>
        <time>2014-10-01T10:44:58Z</time>
      </trkpt>
      <trkpt lat="42.3920320" lon="-6.8963860">
        <ele>481.7</ele>
        <time>2014-10-01T10:44:59Z</time>
      </trkpt>
      <trkpt lat="42.3921010" lon="-6.8964540">
        <ele>481.9</ele>
        <time>2014-10-01T10:45:00Z</time>
      </trkpt>
      <trkpt lat="42.3921690" lon="-6.8965180">
        <ele>482.1</ele>
        <time>2014-10-01T10:45:01Z</time>
      </trkpt>
      <trkpt lat="42.3922390" lon="-6.8965750">
        <ele>482.3</ele>
        <time>2014-10-01T10:45:02Z</time>
      </trkpt>
      <trkpt lat="42.3923060" lon="-6.8966260">
        <ele>482.5</ele>
        <time>2014-10-01T10:45:03Z</time>
      </trkpt>
      <trkpt lat="42.3923700" lon="-6.8966760">
        <ele>482.7</ele>
        <time>2014-10-01T10:45:04Z</time>
      </trkpt>
      <trkpt lat="42.3924370" lon="-6.8967280">
        <ele>482.8</ele>
        <time>2014-10-01T10:45:05Z</time>
      </trkpt>
      <trkpt lat="42.3925040" lon="-6.8967800">
        <ele>483.0</ele>
        <time>2014-10-01T10:45:06Z</time>
      </trkpt>
      <trkpt lat="42.3925650" lon="-6.8968340">
        <ele>483.1</ele>
        <time>2014-10-01T10:45:07Z</time>
      </trkpt>
      <trkpt lat="42.3926290" lon="-6.8968950">
        <ele>483.3</ele>
        <time>2014-10-01T10:45:08Z</time>
      </trkpt>
      <trkpt lat="42.3926970" lon="-6.8969660">
        <ele>483.6</ele>
        <time>2014-10-01T10:45:09Z</time>
      </trkpt>
      <trkpt lat="42.3927500" lon="-6.8970510">
        <ele>483.8</ele>
        <time>2014-10-01T10:45:10Z</time>
      </trkpt>
      <trkpt lat="42.3928030" lon="-6.8971390">
        <ele>484.1</ele>
        <time>2014-10-01T10:45:11Z</time>
      </trkpt>
      <trkpt lat="42.3928470" lon="-6.8972210">
        <ele>484.3</ele>
        <time>2014-10-01T10:45:12Z</time>
      </trkpt>
      <trkpt lat="42.3928850" lon="-6.8973040">
        <ele>484.5</ele>
        <time>2014-10-01T10:45:13Z</time>
      </trkpt>
      <trkpt lat="42.3929150" lon="-6.8973830">
        <ele>484.7</ele>
        <time>2014-10-01T10:45:14Z</time>
      </trkpt>
      <trkpt lat="42.3929330" lon="-6.8974750">
        <ele>484.9</ele>
        <time>2014-10-01T10:45:15Z</time>
      </trkpt>
      <trkpt lat="42.3929500" lon="-6.8975610">
        <ele>485.0</ele>
        <time>2014-10-01T10:45:16Z</time>
      </trkpt>
      <trkpt lat="42.3929630" lon="-6.8976530">
        <ele>485.1</ele>
        <time>2014-10-01T10:45:17Z</time>
      </trkpt>
      <trkpt lat="42.3929740" lon="-6.8977310">
        <ele>485.2</ele>
        <time>2014-10-01T10:45:18Z</time>
      </trkpt>
      <trkpt lat="42.3929820" lon="-6.8978120">
        <ele>485.3</ele>
        <time>2014-10-01T10:45:19Z</time>
      </trkpt>
      <trkpt lat="42.3929890" lon="-6.8978850">
        <ele>485.3</ele>
        <time>2014-10-01T10:45:20Z</time>
      </trkpt>
      <trkpt lat="42.3929960" lon="-6.8979710">
        <ele>485.4</ele>
        <time>2014-10-01T10:45:21Z</time>
      </trkpt>
      <trkpt lat="42.3930010" lon="-6.8980620">
        <ele>485.4</ele>
        <time>2014-10-01T10:45:22Z</time>
      </trkpt>
      <trkpt lat="42.3930090" lon="-6.8981550">
        <ele>485.4</ele>
        <time>2014-10-01T10:45:23Z</time>
      </trkpt>
      <trkpt lat="42.3930210" lon="-6.8982520">
        <ele>485.4</ele>
        <time>2014-10-01T10:45:24Z</time>
      </trkpt>
      <trkpt lat="42.3930500" lon="-6.8983350">
        <ele>485.4</ele>
        <time>2014-10-01T10:45:25Z</time>
      </trkpt>
      <trkpt lat="42.3930850" lon="-6.8984200">
        <ele>485.3</ele>
        <time>2014-10-01T10:45:26Z</time>
      </trkpt>
      <trkpt lat="42.3931360" lon="-6.8984940">
        <ele>485.2</ele>
        <time>2014-10-01T10:45:27Z</time>
      </trkpt>
      <trkpt lat="42.3931880" lon="-6.8985690">
        <ele>485.1</ele>
        <time>2014-10-01T10:45:28Z</time>
      </trkpt>
      <trkpt lat="42.3932380" lon="-6.8986330">
        <ele>485.0</ele>
        <time>2014-10-01T10:45:29Z</time>
      </trkpt>
      <trkpt lat="42.3932930" lon="-6.8987020">
        <ele>484.8</ele>
        <time>2014-10-01T10:45:30Z</time>
      </trkpt>
      <trkpt lat="42.3933490" lon="-6.8987660">
        <ele>484.7</ele>
        <time>2014-10-01T10:45:31Z</time>
      </trkpt>
      <trkpt lat="42.3934030" lon="-6.8988290">
        <ele>484.5</ele>
        <time>2014-10-01T10:45:32Z</time>
      </trkpt>
      <trkpt lat="42.3934690" lon="-6.8988980">
        <ele>484.3</ele>
        <time>2014-10-01T10:45:33Z</time>
      </trkpt>
      <trkpt lat="42.3935330" lon="-6.8989620">
        <ele>484.0</ele>
        <time>2014-10-01T10:45:34Z</time>
      </trkpt>
      <trkpt lat="42.3936030" lon="-6.8990250">
        <ele>483.7</ele>
        <time>2014-10-01T10:45:35Z</time>
      </trkpt>
      <trkpt lat="42.3936740" lon="-6.8990790">
        <ele>483.4</ele>
        <time>2014-10-01T10:45:36Z</time>
      </trkpt>
      <trkpt lat="42.3937500" lon="-6.8991330">
        <ele>483.2</ele>
        <time>2014-10-01T10:45:37Z</time>
      </trkpt>
      <trkpt lat="42.3938230" lon="-6.8991750">
        <ele>482.9</ele>
        <time>2014-10-01T10:45:38Z</time>
      </trkpt>
      <trkpt lat="42.3939000" lon="-6.8992080">
        <ele>482.7</ele>
        <time>2014-10-01T10:45:39Z</time>
      </trkpt>
      <trkpt lat="42.3939840" lon="-6.8992180">
        <ele>482.4</ele>
        <time>2014-10-01T10:45:40Z</time>
      </trkpt>
      <trkpt lat="42.3940740" lon="-6.8992250">
        <ele>482.0</ele>
        <time>2014-10-01T10:45:41Z</time>
      </trkpt>
      <trkpt lat="42.3941660" lon="-6.8992240">
        <ele>481.8</ele>
        <time>2014-10-01T10:45:42Z</time>
      </trkpt>
      <trkpt lat="42.3942590" lon="-6.8992180">
        <ele>481.6</ele>
        <time>2014-10-01T10:45:43Z</time>
      </trkpt>
      <trkpt lat="42.3943510" lon="-6.8992120">
        <ele>481.4</ele>
        <time>2014-10-01T10:45:44Z</time>
      </trkpt>
      <trkpt lat="42.3944380" lon="-6.8992010">
        <ele>481.2</ele>
        <time>2014-10-01T10:45:45Z</time>
      </trkpt>
      <trkpt lat="42.3945380" lon="-6.8991880">
        <ele>481.1</ele>
        <time>2014-10-01T10:45:46Z</time>
      </trkpt>
      <trkpt lat="42.3946330" lon="-6.8991750">
        <ele>480.9</ele>
        <time>2014-10-01T10:45:47Z</time>
      </trkpt>
      <trkpt lat="42.3947300" lon="-6.8991620">
        <ele>480.7</ele>
        <time>2014-10-01T10:45:48Z</time>
      </trkpt>
      <trkpt lat="42.3948190" lon="-6.8991500">
        <ele>480.5</ele>
        <time>2014-10-01T10:45:49Z</time>
      </trkpt>
      <trkpt lat="42.3949060" lon="-6.8991400">
        <ele>480.3</ele>
        <time>2014-10-01T10:45:50Z</time>
      </trkpt>
      <trkpt lat="42.3949940" lon="-6.8991330">
        <ele>480.2</ele>
        <time>2014-10-01T10:45:51Z</time>
      </trkpt>
      <trkpt lat="42.3950880" lon="-6.8991290">
        <ele>480.0</ele>
        <time>2014-10-01T10:45:52Z</time>
      </trkpt>
      <trkpt lat="42.3951800" lon="-6.8991300">
        <ele>479.7</ele>
        <time>2014-10-01T10:45:53Z</time>
      </trkpt>
      <trkpt lat="42.3952630" lon="-6.8991370">
        <ele>479.5</ele>
        <time>2014-10-01T10:45:54Z</time>
      </trkpt>
      <trkpt lat="42.3953520" lon="-6.8991550">
        <ele>479.4</ele>
        <time>2014-10-01T10:45:55Z</time>
      </trkpt>
      <trkpt lat="42.3954370" lon="-6.8991820">
        <ele>479.2</ele>
        <time>2014-10-01T10:45:56Z</time>
      </trkpt>
      <trkpt lat="42.3955240" lon="-6.8992400">
        <ele>478.9</ele>
        <time>2014-10-01T10:45:57Z</time>
      </trkpt>
      <trkpt lat="42.3956130" lon="-6.8993020">
        <ele>478.7</ele>
        <time>2014-10-01T10:45:58Z</time>
      </trkpt>
      <trkpt lat="42.3957030" lon="-6.8993750">
        <ele>478.4</ele>
        <time>2014-10-01T10:45:59Z</time>
      </trkpt>
      <trkpt lat="42.3957930" lon="-6.8994570">
        <ele>478.1</ele>
        <time>2014-10-01T10:46:00Z</time>
      </trkpt>
      <trkpt lat="42.3958770" lon="-6.8995440">
        <ele>477.7</ele>
        <time>2014-10-01T10:46:01Z</time>
      </trkpt>
      <trkpt lat="42.3959590" lon="-6.8996430">
        <ele>477.3</ele>
        <time>2014-10-01T10:46:02Z</time>
      </trkpt>
      <trkpt lat="42.3960210" lon="-6.8997640">
        <ele>476.8</ele>
        <time>2014-10-01T10:46:03Z</time>
      </trkpt>
      <trkpt lat="42.3960770" lon="-6.8998810">
        <ele>476.4</ele>
        <time>2014-10-01T10:46:04Z</time>
      </trkpt>
      <trkpt lat="42.3961250" lon="-6.8999950">
        <ele>476.0</ele>
        <time>2014-10-01T10:46:05Z</time>
      </trkpt>
      <trkpt lat="42.3961700" lon="-6.9001150">
        <ele>475.6</ele>
        <time>2014-10-01T10:46:06Z</time>
      </trkpt>
      <trkpt lat="42.3962110" lon="-6.9002410">
        <ele>475.3</ele>
        <time>2014-10-01T10:46:07Z</time>
      </trkpt>
      <trkpt lat="42.3962460" lon="-6.9003730">
        <ele>474.9</ele>
        <time>2014-10-01T10:46:08Z</time>
      </trkpt>
      <trkpt lat="42.3962740" lon="-6.9005040">
        <ele>474.5</ele>
        <time>2014-10-01T10:46:09Z</time>
      </trkpt>
      <trkpt lat="42.3962980" lon="-6.9006380">
        <ele>474.0</ele>
        <time>2014-10-01T10:46:10Z</time>
      </trkpt>
      <trkpt lat="42.3963220" lon="-6.9007770">
        <ele>473.4</ele>
        <time>2014-10-01T10:46:11Z</time>
      </trkpt>
      <trkpt lat="42.3963460" lon="-6.9009190">
        <ele>472.8</ele>
        <time>2014-10-01T10:46:12Z</time>
      </trkpt>
      <trkpt lat="42.3963680" lon="-6.9010800">
        <ele>472.1</ele>
        <time>2014-10-01T10:46:13Z</time>
      </trkpt>
      <trkpt lat="42.3964200" lon="-6.9012230">
        <ele>471.4</ele>
        <time>2014-10-01T10:46:14Z</time>
      </trkpt>
      <trkpt lat="42.3964780" lon="-6.9013600">
        <ele>470.6</ele>
        <time>2014-10-01T10:46:15Z</time>
      </trkpt>
      <trkpt lat="42.3965390" lon="-6.9014960">
        <ele>469.9</ele>
        <time>2014-10-01T10:46:16Z</time>
      </trkpt>
      <trkpt lat="42.3966080" lon="-6.9016310">
        <ele>469.1</ele>
        <time>2014-10-01T10:46:17Z</time>
      </trkpt>
      <trkpt lat="42.3966780" lon="-6.9017520">
        <ele>468.4</ele>
        <time>2014-10-01T10:46:18Z</time>
      </trkpt>
      <trkpt lat="42.3967540" lon="-6.9018750">
        <ele>467.6</ele>
        <time>2014-10-01T10:46:19Z</time>
      </trkpt>
      <trkpt lat="42.3968390" lon="-6.9019960">
        <ele>466.9</ele>
        <time>2014-10-01T10:46:20Z</time>
      </trkpt>
      <trkpt lat="42.3969260" lon="-6.9021120">
        <ele>466.1</ele>
        <time>2014-10-01T10:46:21Z</time>
      </trkpt>
      <trkpt lat="42.3970140" lon="-6.9022310">
        <ele>465.4</ele>
        <time>2014-10-01T10:46:22Z</time>
      </trkpt>
      <trkpt lat="42.3970950" lon="-6.9023500">
        <ele>464.6</ele>
        <time>2014-10-01T10:46:23Z</time>
      </trkpt>
      <trkpt lat="42.3971740" lon="-6.9024730">
        <ele>463.7</ele>
        <time>2014-10-01T10:46:24Z</time>
      </trkpt>
      <trkpt lat="42.3972530" lon="-6.9025940">
        <ele>462.9</ele>
        <time>2014-10-01T10:46:25Z</time>
      </trkpt>
      <trkpt lat="42.3973320" lon="-6.9027200">
        <ele>462.0</ele>
        <time>2014-10-01T10:46:26Z</time>
      </trkpt>
      <trkpt lat="42.3974100" lon="-6.9028480">
        <ele>461.2</ele>
        <time>2014-10-01T10:46:27Z</time>
      </trkpt>
      <trkpt lat="42.3974860" lon="-6.9029790">
        <ele>460.4</ele>
        <time>2014-10-01T10:46:28Z</time>
      </trkpt>
      <trkpt lat="42.3975600" lon="-6.9031110">
        <ele>459.6</ele>
        <time>2014-10-01T10:46:29Z</time>
      </trkpt>
      <trkpt lat="42.3976340" lon="-6.9032360">
        <ele>458.8</ele>
        <time>2014-10-01T10:46:30Z</time>
      </trkpt>
      <trkpt lat="42.3977100" lon="-6.9033630">
        <ele>457.9</ele>
        <time>2014-10-01T10:46:31Z</time>
      </trkpt>
      <trkpt lat="42.3977870" lon="-6.9034940">
        <ele>457.1</ele>
        <time>2014-10-01T10:46:32Z</time>
      </trkpt>
      <trkpt lat="42.3978610" lon="-6.9036270">
        <ele>456.3</ele>
        <time>2014-10-01T10:46:33Z</time>
      </trkpt>
      <trkpt lat="42.3979380" lon="-6.9037580">
        <ele>455.5</ele>
        <time>2014-10-01T10:46:34Z</time>
      </trkpt>
      <trkpt lat="42.3980240" lon="-6.9038850">
        <ele>454.6</ele>
        <time>2014-10-01T10:46:35Z</time>
      </trkpt>
      <trkpt lat="42.3981370" lon="-6.9039630">
        <ele>453.7</ele>
        <time>2014-10-01T10:46:36Z</time>
      </trkpt>
      <trkpt lat="42.3982280" lon="-6.9039800">
        <ele>453.0</ele>
        <time>2014-10-01T10:46:37Z</time>
      </trkpt>
      <trkpt lat="42.3983450" lon="-6.9039450">
        <ele>452.1</ele>
        <time>2014-10-01T10:46:38Z</time>
      </trkpt>
      <trkpt lat="42.3984580" lon="-6.9038890">
        <ele>451.0</ele>
        <time>2014-10-01T10:46:39Z</time>
      </trkpt>
      <trkpt lat="42.3985420" lon="-6.9037570">
        <ele>450.1</ele>
        <time>2014-10-01T10:46:40Z</time>
      </trkpt>
      <trkpt lat="42.3986110" lon="-6.9036050">
        <ele>449.2</ele>
        <time>2014-10-01T10:46:41Z</time>
      </trkpt>
      <trkpt lat="42.3987090" lon="-6.9035050">
        <ele>448.5</ele>
        <time>2014-10-01T10:46:42Z</time>
      </trkpt>
      <trkpt lat="42.3988260" lon="-6.9034680">
        <ele>447.9</ele>
        <time>2014-10-01T10:46:43Z</time>
      </trkpt>
      <trkpt lat="42.3989370" lon="-6.9034980">
        <ele>447.4</ele>
        <time>2014-10-01T10:46:44Z</time>
      </trkpt>
      <trkpt lat="42.3990260" lon="-6.9035720">
        <ele>446.9</ele>
        <time>2014-10-01T10:46:45Z</time>
      </trkpt>
      <trkpt lat="42.3991220" lon="-6.9036570">
        <ele>446.4</ele>
        <time>2014-10-01T10:46:46Z</time>
      </trkpt>
      <trkpt lat="42.3992260" lon="-6.9037480">
        <ele>445.7</ele>
        <time>2014-10-01T10:46:47Z</time>
      </trkpt>
      <trkpt lat="42.3993400" lon="-6.9038040">
        <ele>445.0</ele>
        <time>2014-10-01T10:46:48Z</time>
      </trkpt>
      <trkpt lat="42.3994550" lon="-6.9038530">
        <ele>444.3</ele>
        <time>2014-10-01T10:46:49Z</time>
      </trkpt>
      <trkpt lat="42.3995760" lon="-6.9038700">
        <ele>443.5</ele>
        <time>2014-10-01T10:46:50Z</time>
      </trkpt>
      <trkpt lat="42.3996900" lon="-6.9038840">
        <ele>442.8</ele>
        <time>2014-10-01T10:46:51Z</time>
      </trkpt>
      <trkpt lat="42.3998060" lon="-6.9038940">
        <ele>442.0</ele>
        <time>2014-10-01T10:46:52Z</time>
      </trkpt>
      <trkpt lat="42.3999220" lon="-6.9039020">
        <ele>441.2</ele>
        <time>2014-10-01T10:46:53Z</time>
      </trkpt>
      <trkpt lat="42.4000400" lon="-6.9039090">
        <ele>440.3</ele>
        <time>2014-10-01T10:46:54Z</time>
      </trkpt>
      <trkpt lat="42.4001680" lon="-6.9039190">
        <ele>439.4</ele>
        <time>2014-10-01T10:46:55Z</time>
      </trkpt>
      <trkpt lat="42.4003010" lon="-6.9039260">
        <ele>438.4</ele>
        <time>2014-10-01T10:46:56Z</time>
      </trkpt>
      <trkpt lat="42.4004380" lon="-6.9039330">
        <ele>437.4</ele>
        <time>2014-10-01T10:46:57Z</time>
      </trkpt>
      <trkpt lat="42.4005750" lon="-6.9039410">
        <ele>436.4</ele>
        <time>2014-10-01T10:46:58Z</time>
      </trkpt>
      <trkpt lat="42.4007090" lon="-6.9039500">
        <ele>435.5</ele>
        <time>2014-10-01T10:46:59Z</time>
      </trkpt>
      <trkpt lat="42.4008450" lon="-6.9039680">
        <ele>434.6</ele>
        <time>2014-10-01T10:47:00Z</time>
      </trkpt>
      <trkpt lat="42.4009760" lon="-6.9039970">
        <ele>433.7</ele>
        <time>2014-10-01T10:47:01Z</time>
      </trkpt>
      <trkpt lat="42.4010970" lon="-6.9040780">
        <ele>432.7</ele>
        <time>2014-10-01T10:47:02Z</time>
      </trkpt>
      <trkpt lat="42.4012160" lon="-6.9041710">
        <ele>431.7</ele>
        <time>2014-10-01T10:47:03Z</time>
      </trkpt>
      <trkpt lat="42.4013190" lon="-6.9042710">
        <ele>430.9</ele>
        <time>2014-10-01T10:47:04Z</time>
      </trkpt>
      <trkpt lat="42.4014220" lon="-6.9043840">
        <ele>430.2</ele>
        <time>2014-10-01T10:47:05Z</time>
      </trkpt>
      <trkpt lat="42.4015230" lon="-6.9045010">
        <ele>429.6</ele>
        <time>2014-10-01T10:47:06Z</time>
      </trkpt>
      <trkpt lat="42.4016220" lon="-6.9046230">
        <ele>428.9</ele>
        <time>2014-10-01T10:47:07Z</time>
      </trkpt>
      <trkpt lat="42.4017190" lon="-6.9047450">
        <ele>428.3</ele>
        <time>2014-10-01T10:47:08Z</time>
      </trkpt>
      <trkpt lat="42.4018130" lon="-6.9048680">
        <ele>427.6</ele>
        <time>2014-10-01T10:47:09Z</time>
      </trkpt>
      <trkpt lat="42.4019010" lon="-6.9049960">
        <ele>426.9</ele>
        <time>2014-10-01T10:47:10Z</time>
      </trkpt>
      <trkpt lat="42.4019670" lon="-6.9051490">
        <ele>426.1</ele>
        <time>2014-10-01T10:47:11Z</time>
      </trkpt>
      <trkpt lat="42.4020230" lon="-6.9052920">
        <ele>425.4</ele>
        <time>2014-10-01T10:47:12Z</time>
      </trkpt>
      <trkpt lat="42.4020740" lon="-6.9054440">
        <ele>424.6</ele>
        <time>2014-10-01T10:47:13Z</time>
      </trkpt>
      <trkpt lat="42.4021110" lon="-6.9055930">
        <ele>423.8</ele>
        <time>2014-10-01T10:47:14Z</time>
      </trkpt>
      <trkpt lat="42.4021410" lon="-6.9057460">
        <ele>423.0</ele>
        <time>2014-10-01T10:47:15Z</time>
      </trkpt>
      <trkpt lat="42.4021650" lon="-6.9059060">
        <ele>422.2</ele>
        <time>2014-10-01T10:47:16Z</time>
      </trkpt>
      <trkpt lat="42.4021840" lon="-6.9060670">
        <ele>421.4</ele>
        <time>2014-10-01T10:47:17Z</time>
      </trkpt>
      <trkpt lat="42.4022100" lon="-6.9062480">
        <ele>420.5</ele>
        <time>2014-10-01T10:47:18Z</time>
      </trkpt>
      <trkpt lat="42.4022410" lon="-6.9064060">
        <ele>419.7</ele>
        <time>2014-10-01T10:47:19Z</time>
      </trkpt>
      <trkpt lat="42.4022860" lon="-6.9065760">
        <ele>418.8</ele>
        <time>2014-10-01T10:47:20Z</time>
      </trkpt>
      <trkpt lat="42.4023650" lon="-6.9067260">
        <ele>417.8</ele>
        <time>2014-10-01T10:47:21Z</time>
      </trkpt>
      <trkpt lat="42.4024450" lon="-6.9068620">
        <ele>416.3</ele>
        <time>2014-10-01T10:47:22Z</time>
      </trkpt>
      <trkpt lat="42.4025450" lon="-6.9069620">
        <ele>415.4</ele>
        <time>2014-10-01T10:47:23Z</time>
      </trkpt>
      <trkpt lat="42.4026460" lon="-6.9070660">
        <ele>414.5</ele>
        <time>2014-10-01T10:47:24Z</time>
      </trkpt>
      <trkpt lat="42.4027490" lon="-6.9071700">
        <ele>413.8</ele>
        <time>2014-10-01T10:47:25Z</time>
      </trkpt>
      <trkpt lat="42.4028430" lon="-6.9072680">
        <ele>413.2</ele>
        <time>2014-10-01T10:47:26Z</time>
      </trkpt>
      <trkpt lat="42.4029470" lon="-6.9073620">
        <ele>412.5</ele>
        <time>2014-10-01T10:47:27Z</time>
      </trkpt>
      <trkpt lat="42.4030520" lon="-6.9074160">
        <ele>411.8</ele>
        <time>2014-10-01T10:47:28Z</time>
      </trkpt>
      <trkpt lat="42.4031570" lon="-6.9074590">
        <ele>411.2</ele>
        <time>2014-10-01T10:47:29Z</time>
      </trkpt>
      <trkpt lat="42.4032680" lon="-6.9074390">
        <ele>410.6</ele>
        <time>2014-10-01T10:47:30Z</time>
      </trkpt>
      <trkpt lat="42.4033890" lon="-6.9074040">
        <ele>410.0</ele>
        <time>2014-10-01T10:47:31Z</time>
      </trkpt>
      <trkpt lat="42.4035070" lon="-6.9073590">
        <ele>409.4</ele>
        <time>2014-10-01T10:47:32Z</time>
      </trkpt>
      <trkpt lat="42.4036330" lon="-6.9073070">
        <ele>408.8</ele>
        <time>2014-10-01T10:47:33Z</time>
      </trkpt>
      <trkpt lat="42.4037560" lon="-6.9072550">
        <ele>408.3</ele>
        <time>2014-10-01T10:47:34Z</time>
      </trkpt>
      <trkpt lat="42.4038800" lon="-6.9072140">
        <ele>408.0</ele>
        <time>2014-10-01T10:47:35Z</time>
      </trkpt>
      <trkpt lat="42.4040200" lon="-6.9071800">
        <ele>407.7</ele>
        <time>2014-10-01T10:47:36Z</time>
      </trkpt>
      <trkpt lat="42.4041260" lon="-6.9071510">
        <ele>407.6</ele>
        <time>2014-10-01T10:47:37Z</time>
      </trkpt>
      <trkpt lat="42.4042260" lon="-6.9071240">
        <ele>407.4</ele>
        <time>2014-10-01T10:47:38Z</time>
      </trkpt>
      <trkpt lat="42.4043270" lon="-6.9070850">
        <ele>407.3</ele>
        <time>2014-10-01T10:47:39Z</time>
      </trkpt>
      <trkpt lat="42.4044290" lon="-6.9070040">
        <ele>407.2</ele>
        <time>2014-10-01T10:47:40Z</time>
      </trkpt>
      <trkpt lat="42.4045320" lon="-6.9069160">
        <ele>407.0</ele>
        <time>2014-10-01T10:47:41Z</time>
      </trkpt>
      <trkpt lat="42.4046280" lon="-6.9068190">
        <ele>406.8</ele>
        <time>2014-10-01T10:47:42Z</time>
      </trkpt>
      <trkpt lat="42.4047170" lon="-6.9067140">
        <ele>406.5</ele>
        <time>2014-10-01T10:47:43Z</time>
      </trkpt>
      <trkpt lat="42.4048070" lon="-6.9066090">
        <ele>406.3</ele>
        <time>2014-10-01T10:47:44Z</time>
      </trkpt>
      <trkpt lat="42.4048930" lon="-6.9065120">
        <ele>406.0</ele>
        <time>2014-10-01T10:47:45Z</time>
      </trkpt>
      <trkpt lat="42.4049830" lon="-6.9064200">
        <ele>405.6</ele>
        <time>2014-10-01T10:47:46Z</time>
      </trkpt>
      <trkpt lat="42.4050750" lon="-6.9063360">
        <ele>405.2</ele>
        <time>2014-10-01T10:47:47Z</time>
      </trkpt>
      <trkpt lat="42.4051660" lon="-6.9062680">
        <ele>404.8</ele>
        <time>2014-10-01T10:47:48Z</time>
      </trkpt>
      <trkpt lat="42.4052650" lon="-6.9062340">
        <ele>404.3</ele>
        <time>2014-10-01T10:47:49Z</time>
      </trkpt>
      <trkpt lat="42.4053730" lon="-6.9062040">
        <ele>403.9</ele>
        <time>2014-10-01T10:47:50Z</time>
      </trkpt>
      <trkpt lat="42.4054730" lon="-6.9061890">
        <ele>403.4</ele>
        <time>2014-10-01T10:47:51Z</time>
      </trkpt>
      <trkpt lat="42.4055810" lon="-6.9062090">
        <ele>402.9</ele>
        <time>2014-10-01T10:47:52Z</time>
      </trkpt>
      <trkpt lat="42.4056890" lon="-6.9062340">
        <ele>402.3</ele>
        <time>2014-10-01T10:47:53Z</time>
      </trkpt>
      <trkpt lat="42.4057900" lon="-6.9062680">
        <ele>401.6</ele>
        <time>2014-10-01T10:47:54Z</time>
      </trkpt>
      <trkpt lat="42.4058930" lon="-6.9063120">
        <ele>401.0</ele>
        <time>2014-10-01T10:47:55Z</time>
      </trkpt>
      <trkpt lat="42.4059830" lon="-6.9063810">
        <ele>400.3</ele>
        <time>2014-10-01T10:47:56Z</time>
      </trkpt>
      <trkpt lat="42.4060850" lon="-6.9064650">
        <ele>399.4</ele>
        <time>2014-10-01T10:47:57Z</time>
      </trkpt>
      <trkpt lat="42.4061690" lon="-6.9065850">
        <ele>398.6</ele>
        <time>2014-10-01T10:47:58Z</time>
      </trkpt>
      <trkpt lat="42.4062500" lon="-6.9067140">
        <ele>397.7</ele>
        <time>2014-10-01T10:47:59Z</time>
      </trkpt>
      <trkpt lat="42.4063240" lon="-6.9068500">
        <ele>396.8</ele>
        <time>2014-10-01T10:48:00Z</time>
      </trkpt>
      <trkpt lat="42.4063880" lon="-6.9069850">
        <ele>396.0</ele>
        <time>2014-10-01T10:48:01Z</time>
      </trkpt>
      <trkpt lat="42.4064480" lon="-6.9071280">
        <ele>395.2</ele>
        <time>2014-10-01T10:48:02Z</time>
      </trkpt>
      <trkpt lat="42.4065150" lon="-6.9072760">
        <ele>394.4</ele>
        <time>2014-10-01T10:48:03Z</time>
      </trkpt>
      <trkpt lat="42.4066060" lon="-6.9073830">
        <ele>393.6</ele>
        <time>2014-10-01T10:48:04Z</time>
      </trkpt>
      <trkpt lat="42.4066760" lon="-6.9074290">
        <ele>393.0</ele>
        <time>2014-10-01T10:48:05Z</time>
      </trkpt>
      <trkpt lat="42.4067970" lon="-6.9074350">
        <ele>392.2</ele>
        <time>2014-10-01T10:48:06Z</time>
      </trkpt>
      <trkpt lat="42.4069080" lon="-6.9074360">
        <ele>391.4</ele>
        <time>2014-10-01T10:48:07Z</time>
      </trkpt>
      <trkpt lat="42.4070290" lon="-6.9073970">
        <ele>390.5</ele>
        <time>2014-10-01T10:48:08Z</time>
      </trkpt>
      <trkpt lat="42.4071500" lon="-6.9073590">
        <ele>389.7</ele>
        <time>2014-10-01T10:48:09Z</time>
      </trkpt>
      <trkpt lat="42.4072820" lon="-6.9073190">
        <ele>388.8</ele>
        <time>2014-10-01T10:48:10Z</time>
      </trkpt>
      <trkpt lat="42.4074110" lon="-6.9072730">
        <ele>387.9</ele>
        <time>2014-10-01T10:48:11Z</time>
      </trkpt>
      <trkpt lat="42.4075290" lon="-6.9072750">
        <ele>387.2</ele>
        <time>2014-10-01T10:48:12Z</time>
      </trkpt>
      <trkpt lat="42.4076380" lon="-6.9072780">
        <ele>386.4</ele>
        <time>2014-10-01T10:48:13Z</time>
      </trkpt>
      <trkpt lat="42.4077420" lon="-6.9073090">
        <ele>385.7</ele>
        <time>2014-10-01T10:48:14Z</time>
      </trkpt>
      <trkpt lat="42.4078470" lon="-6.9073420">
        <ele>384.9</ele>
        <time>2014-10-01T10:48:15Z</time>
      </trkpt>
      <trkpt lat="42.4079630" lon="-6.9073760">
        <ele>384.0</ele>
        <time>2014-10-01T10:48:16Z</time>
      </trkpt>
      <trkpt lat="42.4080820" lon="-6.9074110">
        <ele>383.2</ele>
        <time>2014-10-01T10:48:17Z</time>
      </trkpt>
      <trkpt lat="42.4081990" lon="-6.9074370">
        <ele>382.4</ele>
        <time>2014-10-01T10:48:18Z</time>
      </trkpt>
      <trkpt lat="42.4083210" lon="-6.9074830">
        <ele>381.5</ele>
        <time>2014-10-01T10:48:19Z</time>
      </trkpt>
      <trkpt lat="42.4084440" lon="-6.9075400">
        <ele>380.7</ele>
        <time>2014-10-01T10:48:20Z</time>
      </trkpt>
      <trkpt lat="42.4085560" lon="-6.9076340">
        <ele>379.8</ele>
        <time>2014-10-01T10:48:21Z</time>
      </trkpt>
      <trkpt lat="42.4086610" lon="-6.9077310">
        <ele>379.1</ele>
        <time>2014-10-01T10:48:22Z</time>
      </trkpt>
      <trkpt lat="42.4087580" lon="-6.9078250">
        <ele>378.3</ele>
        <time>2014-10-01T10:48:23Z</time>
      </trkpt>
      <trkpt lat="42.4088470" lon="-6.9079110">
        <ele>377.5</ele>
        <time>2014-10-01T10:48:24Z</time>
      </trkpt>
      <trkpt lat="42.4089510" lon="-6.9079910">
        <ele>376.7</ele>
        <time>2014-10-01T10:48:25Z</time>
      </trkpt>
      <trkpt lat="42.4090500" lon="-6.9080590">
        <ele>376.0</ele>
        <time>2014-10-01T10:48:26Z</time>
      </trkpt>
      <trkpt lat="42.4091660" lon="-6.9081400">
        <ele>375.1</ele>
        <time>2014-10-01T10:48:27Z</time>
      </trkpt>
      <trkpt lat="42.4092650" lon="-6.9082230">
        <ele>374.3</ele>
        <time>2014-10-01T10:48:28Z</time>
      </trkpt>
      <trkpt lat="42.4093380" lon="-6.9083460">
        <ele>373.4</ele>
        <time>2014-10-01T10:48:29Z</time>
      </trkpt>
      <trkpt lat="42.4094180" lon="-6.9084870">
        <ele>372.4</ele>
        <time>2014-10-01T10:48:30Z</time>
      </trkpt>
      <trkpt lat="42.4094980" lon="-6.9086440">
        <ele>371.2</ele>
        <time>2014-10-01T10:48:31Z</time>
      </trkpt>
      <trkpt lat="42.4095420" lon="-6.9088050">
        <ele>370.3</ele>
        <time>2014-10-01T10:48:32Z</time>
      </trkpt>
      <trkpt lat="42.4095760" lon="-6.9089530">
        <ele>369.4</ele>
        <time>2014-10-01T10:48:33Z</time>
      </trkpt>
      <trkpt lat="42.4096050" lon="-6.9090930">
        <ele>368.5</ele>
        <time>2014-10-01T10:48:34Z</time>
      </trkpt>
      <trkpt lat="42.4096340" lon="-6.9092260">
        <ele>367.8</ele>
        <time>2014-10-01T10:48:35Z</time>
      </trkpt>
      <trkpt lat="42.4096720" lon="-6.9093640">
        <ele>367.1</ele>
        <time>2014-10-01T10:48:36Z</time>
      </trkpt>
      <trkpt lat="42.4097380" lon="-6.9094890">
        <ele>366.5</ele>
        <time>2014-10-01T10:48:37Z</time>
      </trkpt>
      <trkpt lat="42.4098090" lon="-6.9096110">
        <ele>365.9</ele>
        <time>2014-10-01T10:48:38Z</time>
      </trkpt>
      <trkpt lat="42.4098890" lon="-6.9097310">
        <ele>365.4</ele>
        <time>2014-10-01T10:48:39Z</time>
      </trkpt>
      <trkpt lat="42.4099740" lon="-6.9098420">
        <ele>364.9</ele>
        <time>2014-10-01T10:48:40Z</time>
      </trkpt>
      <trkpt lat="42.4100630" lon="-6.9099480">
        <ele>364.3</ele>
        <time>2014-10-01T10:48:41Z</time>
      </trkpt>
      <trkpt lat="42.4101490" lon="-6.9100440">
        <ele>363.8</ele>
        <time>2014-10-01T10:48:42Z</time>
      </trkpt>
      <trkpt lat="42.4102420" lon="-6.9101440">
        <ele>363.2</ele>
        <time>2014-10-01T10:48:43Z</time>
      </trkpt>
      <trkpt lat="42.4103340" lon="-6.9102370">
        <ele>362.6</ele>
        <time>2014-10-01T10:48:44Z</time>
      </trkpt>
      <trkpt lat="42.4104240" lon="-6.9103300">
        <ele>362.0</ele>
        <time>2014-10-01T10:48:45Z</time>
      </trkpt>
      <trkpt lat="42.4105190" lon="-6.9104260">
        <ele>361.3</ele>
        <time>2014-10-01T10:48:46Z</time>
      </trkpt>
      <trkpt lat="42.4106150" lon="-6.9105180">
        <ele>360.6</ele>
        <time>2014-10-01T10:48:47Z</time>
      </trkpt>
      <trkpt lat="42.4107120" lon="-6.9106130">
        <ele>360.0</ele>
        <time>2014-10-01T10:48:48Z</time>
      </trkpt>
      <trkpt lat="42.4108100" lon="-6.9106990">
        <ele>359.4</ele>
        <time>2014-10-01T10:48:49Z</time>
      </trkpt>
      <trkpt lat="42.4109090" lon="-6.9107860">
        <ele>358.8</ele>
        <time>2014-10-01T10:48:50Z</time>
      </trkpt>
      <trkpt lat="42.4110080" lon="-6.9108750">
        <ele>358.2</ele>
        <time>2014-10-01T10:48:51Z</time>
      </trkpt>
      <trkpt lat="42.4111110" lon="-6.9109670">
        <ele>357.6</ele>
        <time>2014-10-01T10:48:52Z</time>
      </trkpt>
      <trkpt lat="42.4112150" lon="-6.9110620">
        <ele>357.1</ele>
        <time>2014-10-01T10:48:53Z</time>
      </trkpt>
      <trkpt lat="42.4113130" lon="-6.9111550">
        <ele>356.5</ele>
        <time>2014-10-01T10:48:54Z</time>
      </trkpt>
      <trkpt lat="42.4114040" lon="-6.9112460">
        <ele>356.0</ele>
        <time>2014-10-01T10:48:55Z</time>
      </trkpt>
      <trkpt lat="42.4114990" lon="-6.9113410">
        <ele>355.5</ele>
        <time>2014-10-01T10:48:56Z</time>
      </trkpt>
      <trkpt lat="42.4115910" lon="-6.9114390">
        <ele>355.0</ele>
        <time>2014-10-01T10:48:57Z</time>
      </trkpt>
      <trkpt lat="42.4116790" lon="-6.9115430">
        <ele>354.5</ele>
        <time>2014-10-01T10:48:58Z</time>
      </trkpt>
      <trkpt lat="42.4117630" lon="-6.9116500">
        <ele>353.9</ele>
        <time>2014-10-01T10:48:59Z</time>
      </trkpt>
      <trkpt lat="42.4118440" lon="-6.9117630">
        <ele>353.3</ele>
        <time>2014-10-01T10:49:00Z</time>
      </trkpt>
      <trkpt lat="42.4119280" lon="-6.9118840">
        <ele>352.7</ele>
        <time>2014-10-01T10:49:01Z</time>
      </trkpt>
      <trkpt lat="42.4120060" lon="-6.9120050">
        <ele>352.0</ele>
        <time>2014-10-01T10:49:02Z</time>
      </trkpt>
      <trkpt lat="42.4120810" lon="-6.9121290">
        <ele>351.3</ele>
        <time>2014-10-01T10:49:03Z</time>
      </trkpt>
      <trkpt lat="42.4121540" lon="-6.9122500">
        <ele>350.5</ele>
        <time>2014-10-01T10:49:04Z</time>
      </trkpt>
      <trkpt lat="42.4122240" lon="-6.9123770">
        <ele>349.7</ele>
        <time>2014-10-01T10:49:05Z</time>
      </trkpt>
      <trkpt lat="42.4122950" lon="-6.9125070">
        <ele>348.8</ele>
        <time>2014-10-01T10:49:06Z</time>
      </trkpt>
      <trkpt lat="42.4123650" lon="-6.9126410">
        <ele>347.9</ele>
        <time>2014-10-01T10:49:07Z</time>
      </trkpt>
      <trkpt lat="42.4124370" lon="-6.9127760">
        <ele>347.0</ele>
        <time>2014-10-01T10:49:08Z</time>
      </trkpt>
      <trkpt lat="42.4125150" lon="-6.9129080">
        <ele>346.2</ele>
        <time>2014-10-01T10:49:09Z</time>
      </trkpt>
      <trkpt lat="42.4126000" lon="-6.9130360">
        <ele>345.5</ele>
        <time>2014-10-01T10:49:10Z</time>
      </trkpt>
      <trkpt lat="42.4126890" lon="-6.9131600">
        <ele>345.0</ele>
        <time>2014-10-01T10:49:11Z</time>
      </trkpt>
      <trkpt lat="42.4127760" lon="-6.9132640">
        <ele>344.6</ele>
        <time>2014-10-01T10:49:12Z</time>
      </trkpt>
      <trkpt lat="42.4128420" lon="-6.9133350">
        <ele>344.3</ele>
        <time>2014-10-01T10:49:13Z</time>
      </trkpt>
      <trkpt lat="42.4128910" lon="-6.9133810">
        <ele>344.2</ele>
        <time>2014-10-01T10:49:14Z</time>
      </trkpt>
      <trkpt lat="42.4129260" lon="-6.9134070">
        <ele>344.1</ele>
        <time>2014-10-01T10:49:15Z</time>
      </trkpt>
      <trkpt lat="42.4129600" lon="-6.9134300">
        <ele>344.0</ele>
        <time>2014-10-01T10:49:16Z</time>
      </trkpt>
      <trkpt lat="42.4129910" lon="-6.9134500">
        <ele>343.7</ele>
        <time>2014-10-01T10:49:17Z</time>
      </trkpt>
      <trkpt lat="42.4130140" lon="-6.9134820">
        <ele>343.4</ele>
        <time>2014-10-01T10:49:18Z</time>
      </trkpt>
      <trkpt lat="42.4130180" lon="-6.9135250">
        <ele>342.7</ele>
        <time>2014-10-01T10:49:19Z</time>
      </trkpt>
      <trkpt lat="42.4130200" lon="-6.9135840">
        <ele>342.6</ele>
        <time>2014-10-01T10:49:20Z</time>
      </trkpt>
      <trkpt lat="42.4130160" lon="-6.9136380">
        <ele>342.6</ele>
        <time>2014-10-01T10:49:21Z</time>
      </trkpt>
      <trkpt lat="42.4130150" lon="-6.9136970">
        <ele>342.6</ele>
        <time>2014-10-01T10:49:22Z</time>
      </trkpt>
      <trkpt lat="42.4130110" lon="-6.9137560">
        <ele>342.6</ele>
        <time>2014-10-01T10:49:23Z</time>
      </trkpt>
      <trkpt lat="42.4130010" lon="-6.9138270">
        <ele>342.7</ele>
        <time>2014-10-01T10:49:24Z</time>
      </trkpt>
      <trkpt lat="42.4130060" lon="-6.9139040">
        <ele>342.6</ele>
        <time>2014-10-01T10:49:25Z</time>
      </trkpt>
      <trkpt lat="42.4130390" lon="-6.9139820">
        <ele>342.4</ele>
        <time>2014-10-01T10:49:26Z</time>
      </trkpt>
      <trkpt lat="42.4130580" lon="-6.9140520">
        <ele>342.2</ele>
        <time>2014-10-01T10:49:27Z</time>
      </trkpt>
      <trkpt lat="42.4130850" lon="-6.9141420">
        <ele>342.0</ele>
        <time>2014-10-01T10:49:28Z</time>
      </trkpt>
      <trkpt lat="42.4131130" lon="-6.9142350">
        <ele>341.8</ele>
        <time>2014-10-01T10:49:29Z</time>
      </trkpt>
      <trkpt lat="42.4131270" lon="-6.9143320">
        <ele>341.7</ele>
        <time>2014-10-01T10:49:30Z</time>
      </trkpt>
      <trkpt lat="42.4131430" lon="-6.9144350">
        <ele>341.5</ele>
        <time>2014-10-01T10:49:31Z</time>
      </trkpt>
      <trkpt lat="42.4131430" lon="-6.9145450">
        <ele>341.3</ele>
        <time>2014-10-01T10:49:32Z</time>
      </trkpt>
      <trkpt lat="42.4131420" lon="-6.9146560">
        <ele>341.2</ele>
        <time>2014-10-01T10:49:33Z</time>
      </trkpt>
      <trkpt lat="42.4131410" lon="-6.9147640">
        <ele>341.1</ele>
        <time>2014-10-01T10:49:34Z</time>
      </trkpt>
      <trkpt lat="42.4131360" lon="-6.9148730">
        <ele>341.0</ele>
        <time>2014-10-01T10:49:35Z</time>
      </trkpt>
      <trkpt lat="42.4131340" lon="-6.9149870">
        <ele>340.8</ele>
        <time>2014-10-01T10:49:36Z</time>
      </trkpt>
      <trkpt lat="42.4131310" lon="-6.9151020">
        <ele>340.7</ele>
        <time>2014-10-01T10:49:37Z</time>
      </trkpt>
      <trkpt lat="42.4131270" lon="-6.9152160">
        <ele>340.7</ele>
        <time>2014-10-01T10:49:38Z</time>
      </trkpt>
      <trkpt lat="42.4131190" lon="-6.9153320">
        <ele>340.6</ele>
        <time>2014-10-01T10:49:39Z</time>
      </trkpt>
      <trkpt lat="42.4131130" lon="-6.9154470">
        <ele>340.6</ele>
        <time>2014-10-01T10:49:40Z</time>
      </trkpt>
      <trkpt lat="42.4131050" lon="-6.9155610">
        <ele>340.6</ele>
        <time>2014-10-01T10:49:41Z</time>
      </trkpt>
      <trkpt lat="42.4130990" lon="-6.9156770">
        <ele>340.6</ele>
        <time>2014-10-01T10:49:42Z</time>
      </trkpt>
      <trkpt lat="42.4130960" lon="-6.9157930">
        <ele>340.7</ele>
        <time>2014-10-01T10:49:43Z</time>
      </trkpt>
      <trkpt lat="42.4130960" lon="-6.9159070">
        <ele>340.8</ele>
        <time>2014-10-01T10:49:44Z</time>
      </trkpt>
      <trkpt lat="42.4130950" lon="-6.9160200">
        <ele>340.9</ele>
        <time>2014-10-01T10:49:45Z</time>
      </trkpt>
      <trkpt lat="42.4130940" lon="-6.9161320">
        <ele>341.0</ele>
        <time>2014-10-01T10:49:46Z</time>
      </trkpt>
      <trkpt lat="42.4130930" lon="-6.9162440">
        <ele>341.1</ele>
        <time>2014-10-01T10:49:47Z</time>
      </trkpt>
      <trkpt lat="42.4130920" lon="-6.9163570">
        <ele>341.2</ele>
        <time>2014-10-01T10:49:48Z</time>
      </trkpt>
      <trkpt lat="42.4130940" lon="-6.9164700">
        <ele>341.3</ele>
        <time>2014-10-01T10:49:49Z</time>
      </trkpt>
      <trkpt lat="42.4130990" lon="-6.9165810">
        <ele>341.3</ele>
        <time>2014-10-01T10:49:50Z</time>
      </trkpt>
      <trkpt lat="42.4131080" lon="-6.9166880">
        <ele>341.4</ele>
        <time>2014-10-01T10:49:51Z</time>
      </trkpt>
      <trkpt lat="42.4131180" lon="-6.9167900">
        <ele>341.6</ele>
        <time>2014-10-01T10:49:52Z</time>
      </trkpt>
      <trkpt lat="42.4131310" lon="-6.9168890">
        <ele>341.7</ele>
        <time>2014-10-01T10:49:53Z</time>
      </trkpt>
      <trkpt lat="42.4131450" lon="-6.9169900">
        <ele>341.9</ele>
        <time>2014-10-01T10:49:54Z</time>
      </trkpt>
      <trkpt lat="42.4131590" lon="-6.9170920">
        <ele>342.0</ele>
        <time>2014-10-01T10:49:55Z</time>
      </trkpt>
      <trkpt lat="42.4131700" lon="-6.9171820">
        <ele>342.2</ele>
        <time>2014-10-01T10:49:56Z</time>
      </trkpt>
      <trkpt lat="42.4131800" lon="-6.9172760">
        <ele>342.3</ele>
        <time>2014-10-01T10:49:57Z</time>
      </trkpt>
      <trkpt lat="42.4131920" lon="-6.9173750">
        <ele>342.4</ele>
        <time>2014-10-01T10:49:58Z</time>
      </trkpt>
      <trkpt lat="42.4132030" lon="-6.9174770">
        <ele>342.6</ele>
        <time>2014-10-01T10:49:59Z</time>
      </trkpt>
      <trkpt lat="42.4132140" lon="-6.9175790">
        <ele>342.7</ele>
        <time>2014-10-01T10:50:00Z</time>
      </trkpt>
      <trkpt lat="42.4132280" lon="-6.9176820">
        <ele>342.8</ele>
        <time>2014-10-01T10:50:01Z</time>
      </trkpt>
      <trkpt lat="42.4132440" lon="-6.9177730">
        <ele>342.9</ele>
        <time>2014-10-01T10:50:02Z</time>
      </trkpt>
      <trkpt lat="42.4132620" lon="-6.9178630">
        <ele>343.0</ele>
        <time>2014-10-01T10:50:03Z</time>
      </trkpt>
      <trkpt lat="42.4132810" lon="-6.9179500">
        <ele>343.1</ele>
        <time>2014-10-01T10:50:04Z</time>
      </trkpt>
      <trkpt lat="42.4133030" lon="-6.9180360">
        <ele>343.3</ele>
        <time>2014-10-01T10:50:05Z</time>
      </trkpt>
      <trkpt lat="42.4133280" lon="-6.9181210">
        <ele>343.4</ele>
        <time>2014-10-01T10:50:06Z</time>
      </trkpt>
      <trkpt lat="42.4133550" lon="-6.9182060">
        <ele>343.5</ele>
        <time>2014-10-01T10:50:07Z</time>
      </trkpt>
      <trkpt lat="42.4133830" lon="-6.9182920">
        <ele>343.6</ele>
        <time>2014-10-01T10:50:08Z</time>
      </trkpt>
      <trkpt lat="42.4134140" lon="-6.9183700">
        <ele>343.8</ele>
        <time>2014-10-01T10:50:09Z</time>
      </trkpt>
      <trkpt lat="42.4134450" lon="-6.9184510">
        <ele>343.9</ele>
        <time>2014-10-01T10:50:10Z</time>
      </trkpt>
      <trkpt lat="42.4134810" lon="-6.9185420">
        <ele>344.1</ele>
        <time>2014-10-01T10:50:11Z</time>
      </trkpt>
      <trkpt lat="42.4135160" lon="-6.9186360">
        <ele>344.3</ele>
        <time>2014-10-01T10:50:12Z</time>
      </trkpt>
      <trkpt lat="42.4135530" lon="-6.9187330">
        <ele>344.5</ele>
        <time>2014-10-01T10:50:13Z</time>
      </trkpt>
      <trkpt lat="42.4135860" lon="-6.9188230">
        <ele>344.6</ele>
        <time>2014-10-01T10:50:14Z</time>
      </trkpt>
      <trkpt lat="42.4136180" lon="-6.9189130">
        <ele>344.8</ele>
        <time>2014-10-01T10:50:15Z</time>
      </trkpt>
      <trkpt lat="42.4136460" lon="-6.9189960">
        <ele>345.0</ele>
        <time>2014-10-01T10:50:16Z</time>
      </trkpt>
      <trkpt lat="42.4136750" lon="-6.9190730">
        <ele>345.2</ele>
        <time>2014-10-01T10:50:17Z</time>
      </trkpt>
      <trkpt lat="42.4137060" lon="-6.9191480">
        <ele>345.4</ele>
        <time>2014-10-01T10:50:18Z</time>
      </trkpt>
      <trkpt lat="42.4137380" lon="-6.9192260">
        <ele>345.6</ele>
        <time>2014-10-01T10:50:19Z</time>
      </trkpt>
      <trkpt lat="42.4137720" lon="-6.9193040">
        <ele>345.7</ele>
        <time>2014-10-01T10:50:20Z</time>
      </trkpt>
      <trkpt lat="42.4138050" lon="-6.9193850">
        <ele>345.9</ele>
        <time>2014-10-01T10:50:21Z</time>
      </trkpt>
      <trkpt lat="42.4138380" lon="-6.9194650">
        <ele>346.1</ele>
        <time>2014-10-01T10:50:22Z</time>
      </trkpt>
      <trkpt lat="42.4138710" lon="-6.9195480">
        <ele>346.3</ele>
        <time>2014-10-01T10:50:23Z</time>
      </trkpt>
      <trkpt lat="42.4139000" lon="-6.9196270">
        <ele>346.5</ele>
        <time>2014-10-01T10:50:24Z</time>
      </trkpt>
      <trkpt lat="42.4139290" lon="-6.9197080">
        <ele>346.7</ele>
        <time>2014-10-01T10:50:25Z</time>
      </trkpt>
      <trkpt lat="42.4139560" lon="-6.9197870">
        <ele>346.8</ele>
        <time>2014-10-01T10:50:26Z</time>
      </trkpt>
      <trkpt lat="42.4139820" lon="-6.9198650">
        <ele>347.0</ele>
        <time>2014-10-01T10:50:27Z</time>
      </trkpt>
      <trkpt lat="42.4140080" lon="-6.9199450">
        <ele>347.2</ele>
        <time>2014-10-01T10:50:28Z</time>
      </trkpt>
      <trkpt lat="42.4140340" lon="-6.9200240">
        <ele>347.4</ele>
        <time>2014-10-01T10:50:29Z</time>
      </trkpt>
      <trkpt lat="42.4140590" lon="-6.9201030">
        <ele>347.6</ele>
        <time>2014-10-01T10:50:30Z</time>
      </trkpt>
      <trkpt lat="42.4140850" lon="-6.9201850">
        <ele>347.8</ele>
        <time>2014-10-01T10:50:31Z</time>
      </trkpt>
      <trkpt lat="42.4141120" lon="-6.9202630">
        <ele>348.0</ele>
        <time>2014-10-01T10:50:32Z</time>
      </trkpt>
      <trkpt lat="42.4141430" lon="-6.9203450">
        <ele>348.1</ele>
        <time>2014-10-01T10:50:33Z</time>
      </trkpt>
      <trkpt lat="42.4141730" lon="-6.9204230">
        <ele>348.3</ele>
        <time>2014-10-01T10:50:34Z</time>
      </trkpt>
      <trkpt lat="42.4142030" lon="-6.9205030">
        <ele>348.5</ele>
        <time>2014-10-01T10:50:35Z</time>
      </trkpt>
      <trkpt lat="42.4142340" lon="-6.9205820">
        <ele>348.6</ele>
        <time>2014-10-01T10:50:36Z</time>
      </trkpt>
      <trkpt lat="42.4142640" lon="-6.9206610">
        <ele>348.8</ele>
        <time>2014-10-01T10:50:37Z</time>
      </trkpt>
      <trkpt lat="42.4142920" lon="-6.9207350">
        <ele>348.9</ele>
        <time>2014-10-01T10:50:38Z</time>
      </trkpt>
      <trkpt lat="42.4143210" lon="-6.9208050">
        <ele>349.1</ele>
        <time>2014-10-01T10:50:39Z</time>
      </trkpt>
      <trkpt lat="42.4143510" lon="-6.9208780">
        <ele>349.3</ele>
        <time>2014-10-01T10:50:40Z</time>
      </trkpt>
      <trkpt lat="42.4143830" lon="-6.9209550">
        <ele>349.5</ele>
        <time>2014-10-01T10:50:41Z</time>
      </trkpt>
      <trkpt lat="42.4144130" lon="-6.9210310">
        <ele>349.6</ele>
        <time>2014-10-01T10:50:42Z</time>
      </trkpt>
      <trkpt lat="42.4144430" lon="-6.9211110">
        <ele>349.8</ele>
        <time>2014-10-01T10:50:43Z</time>
      </trkpt>
      <trkpt lat="42.4144700" lon="-6.9211850">
        <ele>350.0</ele>
        <time>2014-10-01T10:50:44Z</time>
      </trkpt>
      <trkpt lat="42.4144960" lon="-6.9212590">
        <ele>350.1</ele>
        <time>2014-10-01T10:50:45Z</time>
      </trkpt>
      <trkpt lat="42.4145190" lon="-6.9213280">
        <ele>350.3</ele>
        <time>2014-10-01T10:50:46Z</time>
      </trkpt>
      <trkpt lat="42.4145420" lon="-6.9214010">
        <ele>350.5</ele>
        <time>2014-10-01T10:50:47Z</time>
      </trkpt>
      <trkpt lat="42.4145680" lon="-6.9214740">
        <ele>350.6</ele>
        <time>2014-10-01T10:50:48Z</time>
      </trkpt>
      <trkpt lat="42.4145900" lon="-6.9215470">
        <ele>350.8</ele>
        <time>2014-10-01T10:50:49Z</time>
      </trkpt>
      <trkpt lat="42.4146140" lon="-6.9216200">
        <ele>350.9</ele>
        <time>2014-10-01T10:50:50Z</time>
      </trkpt>
      <trkpt lat="42.4146380" lon="-6.9216920">
        <ele>351.1</ele>
        <time>2014-10-01T10:50:51Z</time>
      </trkpt>
      <trkpt lat="42.4146650" lon="-6.9217690">
        <ele>351.2</ele>
        <time>2014-10-01T10:50:52Z</time>
      </trkpt>
      <trkpt lat="42.4146940" lon="-6.9218460">
        <ele>351.3</ele>
        <time>2014-10-01T10:50:53Z</time>
      </trkpt>
      <trkpt lat="42.4147230" lon="-6.9219210">
        <ele>351.4</ele>
        <time>2014-10-01T10:50:54Z</time>
      </trkpt>
      <trkpt lat="42.4147570" lon="-6.9220070">
        <ele>351.7</ele>
        <time>2014-10-01T10:50:55Z</time>
      </trkpt>
      <trkpt lat="42.4147900" lon="-6.9220930">
        <ele>352.0</ele>
        <time>2014-10-01T10:50:56Z</time>
      </trkpt>
      <trkpt lat="42.4148180" lon="-6.9221670">
        <ele>352.3</ele>
        <time>2014-10-01T10:50:57Z</time>
      </trkpt>
      <trkpt lat="42.4148490" lon="-6.9222490">
        <ele>352.5</ele>
        <time>2014-10-01T10:50:58Z</time>
      </trkpt>
      <trkpt lat="42.4148820" lon="-6.9223320">
        <ele>352.7</ele>
        <time>2014-10-01T10:50:59Z</time>
      </trkpt>
      <trkpt lat="42.4149130" lon="-6.9224140">
        <ele>352.9</ele>
        <time>2014-10-01T10:51:00Z</time>
      </trkpt>
      <trkpt lat="42.4149420" lon="-6.9224920">
        <ele>353.1</ele>
        <time>2014-10-01T10:51:01Z</time>
      </trkpt>
      <trkpt lat="42.4149700" lon="-6.9225670">
        <ele>353.3</ele>
        <time>2014-10-01T10:51:02Z</time>
      </trkpt>
      <trkpt lat="42.4149950" lon="-6.9226400">
        <ele>353.5</ele>
        <time>2014-10-01T10:51:03Z</time>
      </trkpt>
      <trkpt lat="42.4150210" lon="-6.9227170">
        <ele>353.7</ele>
        <time>2014-10-01T10:51:04Z</time>
      </trkpt>
      <trkpt lat="42.4150440" lon="-6.9227980">
        <ele>353.8</ele>
        <time>2014-10-01T10:51:05Z</time>
      </trkpt>
      <trkpt lat="42.4150680" lon="-6.9228790">
        <ele>354.0</ele>
        <time>2014-10-01T10:51:06Z</time>
      </trkpt>
      <trkpt lat="42.4150900" lon="-6.9229590">
        <ele>354.1</ele>
        <time>2014-10-01T10:51:07Z</time>
      </trkpt>
      <trkpt lat="42.4151140" lon="-6.9230400">
        <ele>354.3</ele>
        <time>2014-10-01T10:51:08Z</time>
      </trkpt>
      <trkpt lat="42.4151390" lon="-6.9231170">
        <ele>354.4</ele>
        <time>2014-10-01T10:51:09Z</time>
      </trkpt>
      <trkpt lat="42.4151650" lon="-6.9231950">
        <ele>354.6</ele>
        <time>2014-10-01T10:51:10Z</time>
      </trkpt>
      <trkpt lat="42.4151910" lon="-6.9232750">
        <ele>354.7</ele>
        <time>2014-10-01T10:51:11Z</time>
      </trkpt>
      <trkpt lat="42.4152160" lon="-6.9233490">
        <ele>354.9</ele>
        <time>2014-10-01T10:51:12Z</time>
      </trkpt>
      <trkpt lat="42.4152390" lon="-6.9234230">
        <ele>355.0</ele>
        <time>2014-10-01T10:51:13Z</time>
      </trkpt>
      <trkpt lat="42.4152630" lon="-6.9235020">
        <ele>355.2</ele>
        <time>2014-10-01T10:51:14Z</time>
      </trkpt>
      <trkpt lat="42.4152880" lon="-6.9235850">
        <ele>355.4</ele>
        <time>2014-10-01T10:51:15Z</time>
      </trkpt>
      <trkpt lat="42.4153090" lon="-6.9236550">
        <ele>355.5</ele>
        <time>2014-10-01T10:51:16Z</time>
      </trkpt>
      <trkpt lat="42.4153310" lon="-6.9237290">
        <ele>355.7</ele>
        <time>2014-10-01T10:51:17Z</time>
      </trkpt>
      <trkpt lat="42.4153530" lon="-6.9238000">
        <ele>355.9</ele>
        <time>2014-10-01T10:51:18Z</time>
      </trkpt>
      <trkpt lat="42.4153770" lon="-6.9238760">
        <ele>356.0</ele>
        <time>2014-10-01T10:51:19Z</time>
      </trkpt>
      <trkpt lat="42.4154050" lon="-6.9239520">
        <ele>356.2</ele>
        <time>2014-10-01T10:51:20Z</time>
      </trkpt>
      <trkpt lat="42.4154320" lon="-6.9240150">
        <ele>356.4</ele>
        <time>2014-10-01T10:51:21Z</time>
      </trkpt>
      <trkpt lat="42.4154640" lon="-6.9240790">
        <ele>356.5</ele>
        <time>2014-10-01T10:51:22Z</time>
      </trkpt>
      <trkpt lat="42.4155010" lon="-6.9241460">
        <ele>356.7</ele>
        <time>2014-10-01T10:51:23Z</time>
      </trkpt>
      <trkpt lat="42.4155410" lon="-6.9242150">
        <ele>356.8</ele>
        <time>2014-10-01T10:51:24Z</time>
      </trkpt>
      <trkpt lat="42.4155860" lon="-6.9242880">
        <ele>357.0</ele>
        <time>2014-10-01T10:51:25Z</time>
      </trkpt>
      <trkpt lat="42.4156320" lon="-6.9243580">
        <ele>357.2</ele>
        <time>2014-10-01T10:51:26Z</time>
      </trkpt>
      <trkpt lat="42.4156740" lon="-6.9244250">
        <ele>357.3</ele>
        <time>2014-10-01T10:51:27Z</time>
      </trkpt>
      <trkpt lat="42.4157140" lon="-6.9244890">
        <ele>357.5</ele>
        <time>2014-10-01T10:51:28Z</time>
      </trkpt>
      <trkpt lat="42.4157540" lon="-6.9245540">
        <ele>357.6</ele>
        <time>2014-10-01T10:51:29Z</time>
      </trkpt>
      <trkpt lat="42.4157930" lon="-6.9246170">
        <ele>357.8</ele>
        <time>2014-10-01T10:51:30Z</time>
      </trkpt>
      <trkpt lat="42.4158290" lon="-6.9246800">
        <ele>357.9</ele>
        <time>2014-10-01T10:51:31Z</time>
      </trkpt>
      <trkpt lat="42.4158680" lon="-6.9247480">
        <ele>358.0</ele>
        <time>2014-10-01T10:51:32Z</time>
      </trkpt>
      <trkpt lat="42.4159090" lon="-6.9248180">
        <ele>358.1</ele>
        <time>2014-10-01T10:51:33Z</time>
      </trkpt>
      <trkpt lat="42.4159510" lon="-6.9248920">
        <ele>358.2</ele>
        <time>2014-10-01T10:51:34Z</time>
      </trkpt>
      <trkpt lat="42.4159940" lon="-6.9249650">
        <ele>358.2</ele>
        <time>2014-10-01T10:51:35Z</time>
      </trkpt>
      <trkpt lat="42.4160370" lon="-6.9250420">
        <ele>358.2</ele>
        <time>2014-10-01T10:51:36Z</time>
      </trkpt>
      <trkpt lat="42.4160780" lon="-6.9251170">
        <ele>358.2</ele>
        <time>2014-10-01T10:51:37Z</time>
      </trkpt>
      <trkpt lat="42.4161180" lon="-6.9251910">
        <ele>358.2</ele>
        <time>2014-10-01T10:51:38Z</time>
      </trkpt>
      <trkpt lat="42.4161540" lon="-6.9252580">
        <ele>358.2</ele>
        <time>2014-10-01T10:51:39Z</time>
      </trkpt>
      <trkpt lat="42.4161900" lon="-6.9253280">
        <ele>358.2</ele>
        <time>2014-10-01T10:51:40Z</time>
      </trkpt>
      <trkpt lat="42.4162290" lon="-6.9254100">
        <ele>358.3</ele>
        <time>2014-10-01T10:51:41Z</time>
      </trkpt>
      <trkpt lat="42.4162650" lon="-6.9254990">
        <ele>358.3</ele>
        <time>2014-10-01T10:51:42Z</time>
      </trkpt>
      <trkpt lat="42.4162860" lon="-6.9255960">
        <ele>358.3</ele>
        <time>2014-10-01T10:51:43Z</time>
      </trkpt>
      <trkpt lat="42.4163060" lon="-6.9256950">
        <ele>358.3</ele>
        <time>2014-10-01T10:51:44Z</time>
      </trkpt>
      <trkpt lat="42.4163230" lon="-6.9257980">
        <ele>358.2</ele>
        <time>2014-10-01T10:51:45Z</time>
      </trkpt>
      <trkpt lat="42.4163350" lon="-6.9258980">
        <ele>358.2</ele>
        <time>2014-10-01T10:51:46Z</time>
      </trkpt>
      <trkpt lat="42.4163430" lon="-6.9259970">
        <ele>358.1</ele>
        <time>2014-10-01T10:51:47Z</time>
      </trkpt>
      <trkpt lat="42.4163460" lon="-6.9260950">
        <ele>358.0</ele>
        <time>2014-10-01T10:51:48Z</time>
      </trkpt>
      <trkpt lat="42.4163510" lon="-6.9261900">
        <ele>357.9</ele>
        <time>2014-10-01T10:51:49Z</time>
      </trkpt>
      <trkpt lat="42.4163540" lon="-6.9262840">
        <ele>357.8</ele>
        <time>2014-10-01T10:51:50Z</time>
      </trkpt>
      <trkpt lat="42.4163560" lon="-6.9263820">
        <ele>357.7</ele>
        <time>2014-10-01T10:51:51Z</time>
      </trkpt>
      <trkpt lat="42.4163560" lon="-6.9264890">
        <ele>357.5</ele>
        <time>2014-10-01T10:51:52Z</time>
      </trkpt>
      <trkpt lat="42.4163540" lon="-6.9265980">
        <ele>357.4</ele>
        <time>2014-10-01T10:51:53Z</time>
      </trkpt>
      <trkpt lat="42.4163510" lon="-6.9267100">
        <ele>357.2</ele>
        <time>2014-10-01T10:51:54Z</time>
      </trkpt>
      <trkpt lat="42.4163440" lon="-6.9268250">
        <ele>357.0</ele>
        <time>2014-10-01T10:51:55Z</time>
      </trkpt>
      <trkpt lat="42.4163370" lon="-6.9269400">
        <ele>356.8</ele>
        <time>2014-10-01T10:51:56Z</time>
      </trkpt>
      <trkpt lat="42.4163300" lon="-6.9270600">
        <ele>356.6</ele>
        <time>2014-10-01T10:51:57Z</time>
      </trkpt>
      <trkpt lat="42.4163220" lon="-6.9271800">
        <ele>356.5</ele>
        <time>2014-10-01T10:51:58Z</time>
      </trkpt>
      <trkpt lat="42.4163150" lon="-6.9272960">
        <ele>356.3</ele>
        <time>2014-10-01T10:51:59Z</time>
      </trkpt>
      <trkpt lat="42.4163090" lon="-6.9274130">
        <ele>356.2</ele>
        <time>2014-10-01T10:52:00Z</time>
      </trkpt>
      <trkpt lat="42.4163020" lon="-6.9275310">
        <ele>356.0</ele>
        <time>2014-10-01T10:52:01Z</time>
      </trkpt>
      <trkpt lat="42.4162930" lon="-6.9276490">
        <ele>355.8</ele>
        <time>2014-10-01T10:52:02Z</time>
      </trkpt>
      <trkpt lat="42.4162800" lon="-6.9277630">
        <ele>355.5</ele>
        <time>2014-10-01T10:52:03Z</time>
      </trkpt>
      <trkpt lat="42.4162640" lon="-6.9278760">
        <ele>355.3</ele>
        <time>2014-10-01T10:52:04Z</time>
      </trkpt>
      <trkpt lat="42.4162440" lon="-6.9279890">
        <ele>355.1</ele>
        <time>2014-10-01T10:52:05Z</time>
      </trkpt>
      <trkpt lat="42.4162210" lon="-6.9281040">
        <ele>354.9</ele>
        <time>2014-10-01T10:52:06Z</time>
      </trkpt>
      <trkpt lat="42.4161960" lon="-6.9282290">
        <ele>354.6</ele>
        <time>2014-10-01T10:52:07Z</time>
      </trkpt>
      <trkpt lat="42.4161670" lon="-6.9283500">
        <ele>354.4</ele>
        <time>2014-10-01T10:52:08Z</time>
      </trkpt>
      <trkpt lat="42.4161350" lon="-6.9284760">
        <ele>354.1</ele>
        <time>2014-10-01T10:52:09Z</time>
      </trkpt>
      <trkpt lat="42.4161010" lon="-6.9286030">
        <ele>353.9</ele>
        <time>2014-10-01T10:52:10Z</time>
      </trkpt>
      <trkpt lat="42.4160720" lon="-6.9287190">
        <ele>353.7</ele>
        <time>2014-10-01T10:52:11Z</time>
      </trkpt>
      <trkpt lat="42.4160430" lon="-6.9288360">
        <ele>353.6</ele>
        <time>2014-10-01T10:52:12Z</time>
      </trkpt>
      <trkpt lat="42.4160110" lon="-6.9289560">
        <ele>353.3</ele>
        <time>2014-10-01T10:52:13Z</time>
      </trkpt>
      <trkpt lat="42.4159800" lon="-6.9290740">
        <ele>353.1</ele>
        <time>2014-10-01T10:52:14Z</time>
      </trkpt>
      <trkpt lat="42.4159480" lon="-6.9291940">
        <ele>352.9</ele>
        <time>2014-10-01T10:52:15Z</time>
      </trkpt>
      <trkpt lat="42.4159150" lon="-6.9293110">
        <ele>352.6</ele>
        <time>2014-10-01T10:52:16Z</time>
      </trkpt>
      <trkpt lat="42.4158830" lon="-6.9294310">
        <ele>352.4</ele>
        <time>2014-10-01T10:52:17Z</time>
      </trkpt>
      <trkpt lat="42.4158480" lon="-6.9295540">
        <ele>352.1</ele>
        <time>2014-10-01T10:52:18Z</time>
      </trkpt>
      <trkpt lat="42.4158110" lon="-6.9296770">
        <ele>351.9</ele>
        <time>2014-10-01T10:52:19Z</time>
      </trkpt>
      <trkpt lat="42.4157720" lon="-6.9297990">
        <ele>351.8</ele>
        <time>2014-10-01T10:52:20Z</time>
      </trkpt>
      <trkpt lat="42.4157320" lon="-6.9299220">
        <ele>351.6</ele>
        <time>2014-10-01T10:52:21Z</time>
      </trkpt>
      <trkpt lat="42.4156960" lon="-6.9300510">
        <ele>351.5</ele>
        <time>2014-10-01T10:52:22Z</time>
      </trkpt>
      <trkpt lat="42.4156640" lon="-6.9301760">
        <ele>351.3</ele>
        <time>2014-10-01T10:52:23Z</time>
      </trkpt>
      <trkpt lat="42.4156350" lon="-6.9302950">
        <ele>351.1</ele>
        <time>2014-10-01T10:52:24Z</time>
      </trkpt>
      <trkpt lat="42.4156050" lon="-6.9304170">
        <ele>351.0</ele>
        <time>2014-10-01T10:52:25Z</time>
      </trkpt>
      <trkpt lat="42.4155760" lon="-6.9305390">
        <ele>350.8</ele>
        <time>2014-10-01T10:52:26Z</time>
      </trkpt>
      <trkpt lat="42.4155440" lon="-6.9306650">
        <ele>350.6</ele>
        <time>2014-10-01T10:52:27Z</time>
      </trkpt>
      <trkpt lat="42.4155110" lon="-6.9307890">
        <ele>350.4</ele>
        <time>2014-10-01T10:52:28Z</time>
      </trkpt>
      <trkpt lat="42.4154730" lon="-6.9309160">
        <ele>350.2</ele>
        <time>2014-10-01T10:52:29Z</time>
      </trkpt>
      <trkpt lat="42.4154380" lon="-6.9310430">
        <ele>350.0</ele>
        <time>2014-10-01T10:52:30Z</time>
      </trkpt>
      <trkpt lat="42.4154060" lon="-6.9311700">
        <ele>349.8</ele>
        <time>2014-10-01T10:52:31Z</time>
      </trkpt>
      <trkpt lat="42.4153760" lon="-6.9312920">
        <ele>349.8</ele>
        <time>2014-10-01T10:52:32Z</time>
      </trkpt>
      <trkpt lat="42.4153450" lon="-6.9314160">
        <ele>349.7</ele>
        <time>2014-10-01T10:52:33Z</time>
      </trkpt>
      <trkpt lat="42.4153140" lon="-6.9315380">
        <ele>349.7</ele>
        <time>2014-10-01T10:52:34Z</time>
      </trkpt>
      <trkpt lat="42.4152750" lon="-6.9316620">
        <ele>349.8</ele>
        <time>2014-10-01T10:52:35Z</time>
      </trkpt>
      <trkpt lat="42.4152350" lon="-6.9317980">
        <ele>349.9</ele>
        <time>2014-10-01T10:52:36Z</time>
      </trkpt>
      <trkpt lat="42.4152030" lon="-6.9319320">
        <ele>349.9</ele>
        <time>2014-10-01T10:52:37Z</time>
      </trkpt>
      <trkpt lat="42.4151950" lon="-6.9320770">
        <ele>350.0</ele>
        <time>2014-10-01T10:52:38Z</time>
      </trkpt>
      <trkpt lat="42.4152120" lon="-6.9322100">
        <ele>350.0</ele>
        <time>2014-10-01T10:52:39Z</time>
      </trkpt>
      <trkpt lat="42.4152350" lon="-6.9323420">
        <ele>349.9</ele>
        <time>2014-10-01T10:52:40Z</time>
      </trkpt>
      <trkpt lat="42.4152640" lon="-6.9324670">
        <ele>349.9</ele>
        <time>2014-10-01T10:52:41Z</time>
      </trkpt>
      <trkpt lat="42.4152980" lon="-6.9325810">
        <ele>349.9</ele>
        <time>2014-10-01T10:52:42Z</time>
      </trkpt>
      <trkpt lat="42.4153320" lon="-6.9326800">
        <ele>349.9</ele>
        <time>2014-10-01T10:52:43Z</time>
      </trkpt>
      <trkpt lat="42.4153670" lon="-6.9327780">
        <ele>349.9</ele>
        <time>2014-10-01T10:52:44Z</time>
      </trkpt>
      <trkpt lat="42.4153990" lon="-6.9328870">
        <ele>349.9</ele>
        <time>2014-10-01T10:52:45Z</time>
      </trkpt>
      <trkpt lat="42.4154280" lon="-6.9330030">
        <ele>350.0</ele>
        <time>2014-10-01T10:52:46Z</time>
      </trkpt>
      <trkpt lat="42.4154510" lon="-6.9331170">
        <ele>350.1</ele>
        <time>2014-10-01T10:52:47Z</time>
      </trkpt>
      <trkpt lat="42.4154670" lon="-6.9332330">
        <ele>350.2</ele>
        <time>2014-10-01T10:52:48Z</time>
      </trkpt>
      <trkpt lat="42.4154780" lon="-6.9333490">
        <ele>350.3</ele>
        <time>2014-10-01T10:52:49Z</time>
      </trkpt>
      <trkpt lat="42.4154860" lon="-6.9334730">
        <ele>350.4</ele>
        <time>2014-10-01T10:52:50Z</time>
      </trkpt>
      <trkpt lat="42.4154920" lon="-6.9335920">
        <ele>350.5</ele>
        <time>2014-10-01T10:52:51Z</time>
      </trkpt>
      <trkpt lat="42.4154960" lon="-6.9337070">
        <ele>350.6</ele>
        <time>2014-10-01T10:52:52Z</time>
      </trkpt>
      <trkpt lat="42.4154990" lon="-6.9338170">
        <ele>350.7</ele>
        <time>2014-10-01T10:52:53Z</time>
      </trkpt>
      <trkpt lat="42.4155020" lon="-6.9339310">
        <ele>350.8</ele>
        <time>2014-10-01T10:52:54Z</time>
      </trkpt>
      <trkpt lat="42.4155020" lon="-6.9340490">
        <ele>351.0</ele>
        <time>2014-10-01T10:52:55Z</time>
      </trkpt>
      <trkpt lat="42.4155020" lon="-6.9341660">
        <ele>351.1</ele>
        <time>2014-10-01T10:52:56Z</time>
      </trkpt>
      <trkpt lat="42.4155000" lon="-6.9342790">
        <ele>351.2</ele>
        <time>2014-10-01T10:52:57Z</time>
      </trkpt>
      <trkpt lat="42.4154960" lon="-6.9343940">
        <ele>351.2</ele>
        <time>2014-10-01T10:52:58Z</time>
      </trkpt>
      <trkpt lat="42.4154900" lon="-6.9345100">
        <ele>351.3</ele>
        <time>2014-10-01T10:52:59Z</time>
      </trkpt>
      <trkpt lat="42.4154820" lon="-6.9346190">
        <ele>351.4</ele>
        <time>2014-10-01T10:53:00Z</time>
      </trkpt>
      <trkpt lat="42.4154720" lon="-6.9347290">
        <ele>351.5</ele>
        <time>2014-10-01T10:53:01Z</time>
      </trkpt>
      <trkpt lat="42.4154600" lon="-6.9348420">
        <ele>351.6</ele>
        <time>2014-10-01T10:53:02Z</time>
      </trkpt>
      <trkpt lat="42.4154470" lon="-6.9349530">
        <ele>351.7</ele>
        <time>2014-10-01T10:53:03Z</time>
      </trkpt>
      <trkpt lat="42.4154330" lon="-6.9350690">
        <ele>351.8</ele>
        <time>2014-10-01T10:53:04Z</time>
      </trkpt>
      <trkpt lat="42.4154210" lon="-6.9351790">
        <ele>351.9</ele>
        <time>2014-10-01T10:53:05Z</time>
      </trkpt>
      <trkpt lat="42.4154090" lon="-6.9352880">
        <ele>352.0</ele>
        <time>2014-10-01T10:53:06Z</time>
      </trkpt>
      <trkpt lat="42.4153990" lon="-6.9353950">
        <ele>352.2</ele>
        <time>2014-10-01T10:53:07Z</time>
      </trkpt>
      <trkpt lat="42.4153880" lon="-6.9355010">
        <ele>352.3</ele>
        <time>2014-10-01T10:53:08Z</time>
      </trkpt>
      <trkpt lat="42.4153770" lon="-6.9356020">
        <ele>352.4</ele>
        <time>2014-10-01T10:53:09Z</time>
      </trkpt>
      <trkpt lat="42.4153660" lon="-6.9357070">
        <ele>352.4</ele>
        <time>2014-10-01T10:53:10Z</time>
      </trkpt>
      <trkpt lat="42.4153560" lon="-6.9358180">
        <ele>352.5</ele>
        <time>2014-10-01T10:53:11Z</time>
      </trkpt>
      <trkpt lat="42.4153500" lon="-6.9359280">
        <ele>352.6</ele>
        <time>2014-10-01T10:53:12Z</time>
      </trkpt>
      <trkpt lat="42.4153470" lon="-6.9360310">
        <ele>352.6</ele>
        <time>2014-10-01T10:53:13Z</time>
      </trkpt>
      <trkpt lat="42.4153450" lon="-6.9361340">
        <ele>352.6</ele>
        <time>2014-10-01T10:53:14Z</time>
      </trkpt>
      <trkpt lat="42.4153450" lon="-6.9362420">
        <ele>352.6</ele>
        <time>2014-10-01T10:53:15Z</time>
      </trkpt>
      <trkpt lat="42.4153460" lon="-6.9363530">
        <ele>352.6</ele>
        <time>2014-10-01T10:53:16Z</time>
      </trkpt>
      <trkpt lat="42.4153470" lon="-6.9364660">
        <ele>352.6</ele>
        <time>2014-10-01T10:53:17Z</time>
      </trkpt>
      <trkpt lat="42.4153490" lon="-6.9365740">
        <ele>352.6</ele>
        <time>2014-10-01T10:53:18Z</time>
      </trkpt>
      <trkpt lat="42.4153490" lon="-6.9366800">
        <ele>352.6</ele>
        <time>2014-10-01T10:53:19Z</time>
      </trkpt>
      <trkpt lat="42.4153510" lon="-6.9367940">
        <ele>352.6</ele>
        <time>2014-10-01T10:53:20Z</time>
      </trkpt>
      <trkpt lat="42.4153540" lon="-6.9369120">
        <ele>352.6</ele>
        <time>2014-10-01T10:53:21Z</time>
      </trkpt>
      <trkpt lat="42.4153590" lon="-6.9370220">
        <ele>352.5</ele>
        <time>2014-10-01T10:53:22Z</time>
      </trkpt>
      <trkpt lat="42.4153630" lon="-6.9371310">
        <ele>352.5</ele>
        <time>2014-10-01T10:53:23Z</time>
      </trkpt>
      <trkpt lat="42.4153640" lon="-6.9372330">
        <ele>352.4</ele>
        <time>2014-10-01T10:53:24Z</time>
      </trkpt>
      <trkpt lat="42.4153640" lon="-6.9373520">
        <ele>352.3</ele>
        <time>2014-10-01T10:53:25Z</time>
      </trkpt>
      <trkpt lat="42.4153600" lon="-6.9374760">
        <ele>352.3</ele>
        <time>2014-10-01T10:53:26Z</time>
      </trkpt>
      <trkpt lat="42.4153570" lon="-6.9375980">
        <ele>352.2</ele>
        <time>2014-10-01T10:53:27Z</time>
      </trkpt>
      <trkpt lat="42.4153530" lon="-6.9377220">
        <ele>352.1</ele>
        <time>2014-10-01T10:53:28Z</time>
      </trkpt>
      <trkpt lat="42.4153490" lon="-6.9378430">
        <ele>352.0</ele>
        <time>2014-10-01T10:53:29Z</time>
      </trkpt>
      <trkpt lat="42.4153470" lon="-6.9379650">
        <ele>351.9</ele>
        <time>2014-10-01T10:53:30Z</time>
      </trkpt>
      <trkpt lat="42.4153450" lon="-6.9380820">
        <ele>351.9</ele>
        <time>2014-10-01T10:53:31Z</time>
      </trkpt>
      <trkpt lat="42.4153440" lon="-6.9382030">
        <ele>351.9</ele>
        <time>2014-10-01T10:53:32Z</time>
      </trkpt>
      <trkpt lat="42.4153450" lon="-6.9383240">
        <ele>351.9</ele>
        <time>2014-10-01T10:53:33Z</time>
      </trkpt>
      <trkpt lat="42.4153470" lon="-6.9384460">
        <ele>351.9</ele>
        <time>2014-10-01T10:53:34Z</time>
      </trkpt>
      <trkpt lat="42.4153480" lon="-6.9385610">
        <ele>351.8</ele>
        <time>2014-10-01T10:53:35Z</time>
      </trkpt>
      <trkpt lat="42.4153500" lon="-6.9386820">
        <ele>351.8</ele>
        <time>2014-10-01T10:53:36Z</time>
      </trkpt>
      <trkpt lat="42.4153510" lon="-6.9388010">
        <ele>351.8</ele>
        <time>2014-10-01T10:53:37Z</time>
      </trkpt>
      <trkpt lat="42.4153520" lon="-6.9389100">
        <ele>351.8</ele>
        <time>2014-10-01T10:53:38Z</time>
      </trkpt>
      <trkpt lat="42.4153530" lon="-6.9390120">
        <ele>351.9</ele>
        <time>2014-10-01T10:53:39Z</time>
      </trkpt>
      <trkpt lat="42.4153520" lon="-6.9391180">
        <ele>351.9</ele>
        <time>2014-10-01T10:53:40Z</time>
      </trkpt>
      <trkpt lat="42.4153500" lon="-6.9392260">
        <ele>352.0</ele>
        <time>2014-10-01T10:53:41Z</time>
      </trkpt>
      <trkpt lat="42.4153480" lon="-6.9393420">
        <ele>352.0</ele>
        <time>2014-10-01T10:53:42Z</time>
      </trkpt>
      <trkpt lat="42.4153460" lon="-6.9394690">
        <ele>352.0</ele>
        <time>2014-10-01T10:53:43Z</time>
      </trkpt>
      <trkpt lat="42.4153460" lon="-6.9395930">
        <ele>352.0</ele>
        <time>2014-10-01T10:53:44Z</time>
      </trkpt>
      <trkpt lat="42.4153460" lon="-6.9397180">
        <ele>352.1</ele>
        <time>2014-10-01T10:53:45Z</time>
      </trkpt>
      <trkpt lat="42.4153450" lon="-6.9398390">
        <ele>352.3</ele>
        <time>2014-10-01T10:53:46Z</time>
      </trkpt>
      <trkpt lat="42.4153430" lon="-6.9399560">
        <ele>352.5</ele>
        <time>2014-10-01T10:53:47Z</time>
      </trkpt>
      <trkpt lat="42.4153400" lon="-6.9400680">
        <ele>352.8</ele>
        <time>2014-10-01T10:53:48Z</time>
      </trkpt>
      <trkpt lat="42.4153360" lon="-6.9401690">
        <ele>353.0</ele>
        <time>2014-10-01T10:53:49Z</time>
      </trkpt>
      <trkpt lat="42.4153290" lon="-6.9402720">
        <ele>353.2</ele>
        <time>2014-10-01T10:53:50Z</time>
      </trkpt>
      <trkpt lat="42.4153240" lon="-6.9403750">
        <ele>353.5</ele>
        <time>2014-10-01T10:53:51Z</time>
      </trkpt>
      <trkpt lat="42.4153170" lon="-6.9404800">
        <ele>353.7</ele>
        <time>2014-10-01T10:53:52Z</time>
      </trkpt>
      <trkpt lat="42.4153100" lon="-6.9405880">
        <ele>353.9</ele>
        <time>2014-10-01T10:53:53Z</time>
      </trkpt>
      <trkpt lat="42.4153040" lon="-6.9406950">
        <ele>354.2</ele>
        <time>2014-10-01T10:53:54Z</time>
      </trkpt>
      <trkpt lat="42.4152980" lon="-6.9408010">
        <ele>354.4</ele>
        <time>2014-10-01T10:53:55Z</time>
      </trkpt>
      <trkpt lat="42.4152910" lon="-6.9409080">
        <ele>354.6</ele>
        <time>2014-10-01T10:53:56Z</time>
      </trkpt>
      <trkpt lat="42.4152850" lon="-6.9410150">
        <ele>354.7</ele>
        <time>2014-10-01T10:53:57Z</time>
      </trkpt>
      <trkpt lat="42.4152810" lon="-6.9411180">
        <ele>354.9</ele>
        <time>2014-10-01T10:53:58Z</time>
      </trkpt>
      <trkpt lat="42.4152780" lon="-6.9412190">
        <ele>355.0</ele>
        <time>2014-10-01T10:53:59Z</time>
      </trkpt>
      <trkpt lat="42.4152800" lon="-6.9413190">
        <ele>355.2</ele>
        <time>2014-10-01T10:54:00Z</time>
      </trkpt>
      <trkpt lat="42.4152830" lon="-6.9414220">
        <ele>355.3</ele>
        <time>2014-10-01T10:54:01Z</time>
      </trkpt>
      <trkpt lat="42.4152880" lon="-6.9415200">
        <ele>355.3</ele>
        <time>2014-10-01T10:54:02Z</time>
      </trkpt>
      <trkpt lat="42.4152930" lon="-6.9416210">
        <ele>355.3</ele>
        <time>2014-10-01T10:54:03Z</time>
      </trkpt>
      <trkpt lat="42.4153020" lon="-6.9417210">
        <ele>355.2</ele>
        <time>2014-10-01T10:54:04Z</time>
      </trkpt>
      <trkpt lat="42.4153110" lon="-6.9418240">
        <ele>355.1</ele>
        <time>2014-10-01T10:54:05Z</time>
      </trkpt>
      <trkpt lat="42.4153230" lon="-6.9419280">
        <ele>354.9</ele>
        <time>2014-10-01T10:54:06Z</time>
      </trkpt>
      <trkpt lat="42.4153360" lon="-6.9420380">
        <ele>354.7</ele>
        <time>2014-10-01T10:54:07Z</time>
      </trkpt>
      <trkpt lat="42.4153480" lon="-6.9421510">
        <ele>354.4</ele>
        <time>2014-10-01T10:54:08Z</time>
      </trkpt>
      <trkpt lat="42.4153570" lon="-6.9422660">
        <ele>354.1</ele>
        <time>2014-10-01T10:54:09Z</time>
      </trkpt>
      <trkpt lat="42.4153610" lon="-6.9423690">
        <ele>353.9</ele>
        <time>2014-10-01T10:54:10Z</time>
      </trkpt>
      <trkpt lat="42.4153580" lon="-6.9424730">
        <ele>353.7</ele>
        <time>2014-10-01T10:54:11Z</time>
      </trkpt>
      <trkpt lat="42.4153490" lon="-6.9425850">
        <ele>353.4</ele>
        <time>2014-10-01T10:54:12Z</time>
      </trkpt>
      <trkpt lat="42.4153340" lon="-6.9427020">
        <ele>353.0</ele>
        <time>2014-10-01T10:54:13Z</time>
      </trkpt>
      <trkpt lat="42.4153170" lon="-6.9428190">
        <ele>352.7</ele>
        <time>2014-10-01T10:54:14Z</time>
      </trkpt>
      <trkpt lat="42.4152980" lon="-6.9429370">
        <ele>352.3</ele>
        <time>2014-10-01T10:54:15Z</time>
      </trkpt>
      <trkpt lat="42.4152770" lon="-6.9430570">
        <ele>352.1</ele>
        <time>2014-10-01T10:54:16Z</time>
      </trkpt>
      <trkpt lat="42.4152560" lon="-6.9431800">
        <ele>351.8</ele>
        <time>2014-10-01T10:54:17Z</time>
      </trkpt>
      <trkpt lat="42.4152310" lon="-6.9433050">
        <ele>351.5</ele>
        <time>2014-10-01T10:54:18Z</time>
      </trkpt>
      <trkpt lat="42.4152060" lon="-6.9434310">
        <ele>351.3</ele>
        <time>2014-10-01T10:54:19Z</time>
      </trkpt>
      <trkpt lat="42.4151820" lon="-6.9435570">
        <ele>351.0</ele>
        <time>2014-10-01T10:54:20Z</time>
      </trkpt>
      <trkpt lat="42.4151570" lon="-6.9436880">
        <ele>350.7</ele>
        <time>2014-10-01T10:54:21Z</time>
      </trkpt>
      <trkpt lat="42.4151320" lon="-6.9438200">
        <ele>350.4</ele>
        <time>2014-10-01T10:54:22Z</time>
      </trkpt>
      <trkpt lat="42.4151090" lon="-6.9439460">
        <ele>350.1</ele>
        <time>2014-10-01T10:54:23Z</time>
      </trkpt>
      <trkpt lat="42.4150850" lon="-6.9440760">
        <ele>349.8</ele>
        <time>2014-10-01T10:54:24Z</time>
      </trkpt>
      <trkpt lat="42.4150600" lon="-6.9442100">
        <ele>349.4</ele>
        <time>2014-10-01T10:54:25Z</time>
      </trkpt>
      <trkpt lat="42.4150330" lon="-6.9443480">
        <ele>349.1</ele>
        <time>2014-10-01T10:54:26Z</time>
      </trkpt>
      <trkpt lat="42.4150070" lon="-6.9444790">
        <ele>348.7</ele>
        <time>2014-10-01T10:54:27Z</time>
      </trkpt>
      <trkpt lat="42.4149800" lon="-6.9446160">
        <ele>348.4</ele>
        <time>2014-10-01T10:54:28Z</time>
      </trkpt>
      <trkpt lat="42.4149540" lon="-6.9447530">
        <ele>348.2</ele>
        <time>2014-10-01T10:54:29Z</time>
      </trkpt>
      <trkpt lat="42.4149290" lon="-6.9448890">
        <ele>347.9</ele>
        <time>2014-10-01T10:54:30Z</time>
      </trkpt>
      <trkpt lat="42.4149050" lon="-6.9450180">
        <ele>347.7</ele>
        <time>2014-10-01T10:54:31Z</time>
      </trkpt>
      <trkpt lat="42.4148850" lon="-6.9451520">
        <ele>347.6</ele>
        <time>2014-10-01T10:54:32Z</time>
      </trkpt>
      <trkpt lat="42.4148740" lon="-6.9452820">
        <ele>347.5</ele>
        <time>2014-10-01T10:54:33Z</time>
      </trkpt>
      <trkpt lat="42.4148670" lon="-6.9454100">
        <ele>347.6</ele>
        <time>2014-10-01T10:54:34Z</time>
      </trkpt>
      <trkpt lat="42.4148600" lon="-6.9455460">
        <ele>347.7</ele>
        <time>2014-10-01T10:54:35Z</time>
      </trkpt>
      <trkpt lat="42.4148500" lon="-6.9456770">
        <ele>347.9</ele>
        <time>2014-10-01T10:54:36Z</time>
      </trkpt>
      <trkpt lat="42.4148140" lon="-6.9457990">
        <ele>348.3</ele>
        <time>2014-10-01T10:54:37Z</time>
      </trkpt>
      <trkpt lat="42.4147760" lon="-6.9459100">
        <ele>348.8</ele>
        <time>2014-10-01T10:54:38Z</time>
      </trkpt>
      <trkpt lat="42.4147310" lon="-6.9460300">
        <ele>349.4</ele>
        <time>2014-10-01T10:54:39Z</time>
      </trkpt>
      <trkpt lat="42.4146940" lon="-6.9461290">
        <ele>349.9</ele>
        <time>2014-10-01T10:54:40Z</time>
      </trkpt>
      <trkpt lat="42.4146660" lon="-6.9462260">
        <ele>350.4</ele>
        <time>2014-10-01T10:54:41Z</time>
      </trkpt>
      <trkpt lat="42.4146620" lon="-6.9463240">
        <ele>350.9</ele>
        <time>2014-10-01T10:54:42Z</time>
      </trkpt>
      <trkpt lat="42.4146590" lon="-6.9464230">
        <ele>351.3</ele>
        <time>2014-10-01T10:54:43Z</time>
      </trkpt>
      <trkpt lat="42.4146580" lon="-6.9465230">
        <ele>351.8</ele>
        <time>2014-10-01T10:54:44Z</time>
      </trkpt>
      <trkpt lat="42.4146580" lon="-6.9466250">
        <ele>352.4</ele>
        <time>2014-10-01T10:54:45Z</time>
      </trkpt>
      <trkpt lat="42.4146610" lon="-6.9467150">
        <ele>352.8</ele>
        <time>2014-10-01T10:54:46Z</time>
      </trkpt>
      <trkpt lat="42.4146640" lon="-6.9468040">
        <ele>353.3</ele>
        <time>2014-10-01T10:54:47Z</time>
      </trkpt>
      <trkpt lat="42.4146690" lon="-6.9468780">
        <ele>353.6</ele>
        <time>2014-10-01T10:54:48Z</time>
      </trkpt>
      <trkpt lat="42.4146690" lon="-6.9469630">
        <ele>353.9</ele>
        <time>2014-10-01T10:54:49Z</time>
      </trkpt>
      <trkpt lat="42.4146640" lon="-6.9470470">
        <ele>354.2</ele>
        <time>2014-10-01T10:54:50Z</time>
      </trkpt>
      <trkpt lat="42.4146460" lon="-6.9471200">
        <ele>354.4</ele>
        <time>2014-10-01T10:54:51Z</time>
      </trkpt>
      <trkpt lat="42.4146300" lon="-6.9471900">
        <ele>354.5</ele>
        <time>2014-10-01T10:54:52Z</time>
      </trkpt>
      <trkpt lat="42.4146120" lon="-6.9472710">
        <ele>354.6</ele>
        <time>2014-10-01T10:54:53Z</time>
      </trkpt>
      <trkpt lat="42.4145940" lon="-6.9473530">
        <ele>354.6</ele>
        <time>2014-10-01T10:54:54Z</time>
      </trkpt>
      <trkpt lat="42.4145760" lon="-6.9474380">
        <ele>354.6</ele>
        <time>2014-10-01T10:54:55Z</time>
      </trkpt>
      <trkpt lat="42.4145720" lon="-6.9475210">
        <ele>354.6</ele>
        <time>2014-10-01T10:54:56Z</time>
      </trkpt>
      <trkpt lat="42.4145720" lon="-6.9476100">
        <ele>354.5</ele>
        <time>2014-10-01T10:54:57Z</time>
      </trkpt>
      <trkpt lat="42.4145860" lon="-6.9477020">
        <ele>354.3</ele>
        <time>2014-10-01T10:54:58Z</time>
      </trkpt>
      <trkpt lat="42.4146010" lon="-6.9477930">
        <ele>354.1</ele>
        <time>2014-10-01T10:54:59Z</time>
      </trkpt>
      <trkpt lat="42.4146130" lon="-6.9478870">
        <ele>353.9</ele>
        <time>2014-10-01T10:55:00Z</time>
      </trkpt>
      <trkpt lat="42.4146220" lon="-6.9479820">
        <ele>353.6</ele>
        <time>2014-10-01T10:55:01Z</time>
      </trkpt>
      <trkpt lat="42.4146150" lon="-6.9480900">
        <ele>353.1</ele>
        <time>2014-10-01T10:55:02Z</time>
      </trkpt>
      <trkpt lat="42.4146060" lon="-6.9481970">
        <ele>352.7</ele>
        <time>2014-10-01T10:55:03Z</time>
      </trkpt>
      <trkpt lat="42.4145900" lon="-6.9482980">
        <ele>352.3</ele>
        <time>2014-10-01T10:55:04Z</time>
      </trkpt>
      <trkpt lat="42.4145660" lon="-6.9484030">
        <ele>351.9</ele>
        <time>2014-10-01T10:55:05Z</time>
      </trkpt>
      <trkpt lat="42.4145380" lon="-6.9485190">
        <ele>351.4</ele>
        <time>2014-10-01T10:55:06Z</time>
      </trkpt>
      <trkpt lat="42.4145100" lon="-6.9486380">
        <ele>350.9</ele>
        <time>2014-10-01T10:55:07Z</time>
      </trkpt>
      <trkpt lat="42.4145040" lon="-6.9487650">
        <ele>350.3</ele>
        <time>2014-10-01T10:55:08Z</time>
      </trkpt>
      <trkpt lat="42.4145050" lon="-6.9488980">
        <ele>349.6</ele>
        <time>2014-10-01T10:55:09Z</time>
      </trkpt>
      <trkpt lat="42.4145300" lon="-6.9490350">
        <ele>348.9</ele>
        <time>2014-10-01T10:55:10Z</time>
      </trkpt>
      <trkpt lat="42.4145580" lon="-6.9491720">
        <ele>348.2</ele>
        <time>2014-10-01T10:55:11Z</time>
      </trkpt>
      <trkpt lat="42.4145880" lon="-6.9493160">
        <ele>347.6</ele>
        <time>2014-10-01T10:55:12Z</time>
      </trkpt>
      <trkpt lat="42.4146190" lon="-6.9494650">
        <ele>347.0</ele>
        <time>2014-10-01T10:55:13Z</time>
      </trkpt>
      <trkpt lat="42.4146540" lon="-6.9496060">
        <ele>346.4</ele>
        <time>2014-10-01T10:55:14Z</time>
      </trkpt>
      <trkpt lat="42.4146920" lon="-6.9497420">
        <ele>345.8</ele>
        <time>2014-10-01T10:55:15Z</time>
      </trkpt>
      <trkpt lat="42.4147340" lon="-6.9498630">
        <ele>345.3</ele>
        <time>2014-10-01T10:55:16Z</time>
      </trkpt>
      <trkpt lat="42.4147820" lon="-6.9499940">
        <ele>344.9</ele>
        <time>2014-10-01T10:55:17Z</time>
      </trkpt>
      <trkpt lat="42.4148300" lon="-6.9501140">
        <ele>344.6</ele>
        <time>2014-10-01T10:55:18Z</time>
      </trkpt>
      <trkpt lat="42.4148810" lon="-6.9502420">
        <ele>344.3</ele>
        <time>2014-10-01T10:55:19Z</time>
      </trkpt>
      <trkpt lat="42.4149260" lon="-6.9503660">
        <ele>344.2</ele>
        <time>2014-10-01T10:55:20Z</time>
      </trkpt>
      <trkpt lat="42.4149680" lon="-6.9504880">
        <ele>344.1</ele>
        <time>2014-10-01T10:55:21Z</time>
      </trkpt>
      <trkpt lat="42.4150060" lon="-6.9506100">
        <ele>344.1</ele>
        <time>2014-10-01T10:55:22Z</time>
      </trkpt>
      <trkpt lat="42.4150410" lon="-6.9507290">
        <ele>344.2</ele>
        <time>2014-10-01T10:55:23Z</time>
      </trkpt>
      <trkpt lat="42.4150810" lon="-6.9508420">
        <ele>344.2</ele>
        <time>2014-10-01T10:55:24Z</time>
      </trkpt>
      <trkpt lat="42.4151350" lon="-6.9509350">
        <ele>344.1</ele>
        <time>2014-10-01T10:55:25Z</time>
      </trkpt>
      <trkpt lat="42.4151970" lon="-6.9510440">
        <ele>344.0</ele>
        <time>2014-10-01T10:55:26Z</time>
      </trkpt>
      <trkpt lat="42.4152570" lon="-6.9511650">
        <ele>344.0</ele>
        <time>2014-10-01T10:55:27Z</time>
      </trkpt>
      <trkpt lat="42.4152950" lon="-6.9513010">
        <ele>344.0</ele>
        <time>2014-10-01T10:55:28Z</time>
      </trkpt>
      <trkpt lat="42.4153290" lon="-6.9514370">
        <ele>344.1</ele>
        <time>2014-10-01T10:55:29Z</time>
      </trkpt>
      <trkpt lat="42.4153480" lon="-6.9515580">
        <ele>344.3</ele>
        <time>2014-10-01T10:55:30Z</time>
      </trkpt>
      <trkpt lat="42.4153660" lon="-6.9516950">
        <ele>344.5</ele>
        <time>2014-10-01T10:55:31Z</time>
      </trkpt>
      <trkpt lat="42.4153790" lon="-6.9518160">
        <ele>344.7</ele>
        <time>2014-10-01T10:55:32Z</time>
      </trkpt>
      <trkpt lat="42.4153910" lon="-6.9519400">
        <ele>345.0</ele>
        <time>2014-10-01T10:55:33Z</time>
      </trkpt>
      <trkpt lat="42.4154050" lon="-6.9520680">
        <ele>345.2</ele>
        <time>2014-10-01T10:55:34Z</time>
      </trkpt>
      <trkpt lat="42.4154150" lon="-6.9521910">
        <ele>345.6</ele>
        <time>2014-10-01T10:55:35Z</time>
      </trkpt>
      <trkpt lat="42.4154250" lon="-6.9523120">
        <ele>346.0</ele>
        <time>2014-10-01T10:55:36Z</time>
      </trkpt>
      <trkpt lat="42.4154330" lon="-6.9524330">
        <ele>346.5</ele>
        <time>2014-10-01T10:55:37Z</time>
      </trkpt>
      <trkpt lat="42.4154400" lon="-6.9525500">
        <ele>347.0</ele>
        <time>2014-10-01T10:55:38Z</time>
      </trkpt>
      <trkpt lat="42.4154420" lon="-6.9526640">
        <ele>347.6</ele>
        <time>2014-10-01T10:55:39Z</time>
      </trkpt>
      <trkpt lat="42.4154400" lon="-6.9527730">
        <ele>348.1</ele>
        <time>2014-10-01T10:55:40Z</time>
      </trkpt>
      <trkpt lat="42.4154320" lon="-6.9528750">
        <ele>348.5</ele>
        <time>2014-10-01T10:55:41Z</time>
      </trkpt>
      <trkpt lat="42.4154070" lon="-6.9529650">
        <ele>349.0</ele>
        <time>2014-10-01T10:55:42Z</time>
      </trkpt>
      <trkpt lat="42.4153780" lon="-6.9530440">
        <ele>349.4</ele>
        <time>2014-10-01T10:55:43Z</time>
      </trkpt>
      <trkpt lat="42.4153450" lon="-6.9531300">
        <ele>349.8</ele>
        <time>2014-10-01T10:55:44Z</time>
      </trkpt>
      <trkpt lat="42.4153120" lon="-6.9532090">
        <ele>350.3</ele>
        <time>2014-10-01T10:55:45Z</time>
      </trkpt>
      <trkpt lat="42.4152830" lon="-6.9532740">
        <ele>350.7</ele>
        <time>2014-10-01T10:55:46Z</time>
      </trkpt>
      <trkpt lat="42.4152510" lon="-6.9533370">
        <ele>351.1</ele>
        <time>2014-10-01T10:55:47Z</time>
      </trkpt>
      <trkpt lat="42.4152160" lon="-6.9533990">
        <ele>351.5</ele>
        <time>2014-10-01T10:55:48Z</time>
      </trkpt>
      <trkpt lat="42.4151800" lon="-6.9534600">
        <ele>351.8</ele>
        <time>2014-10-01T10:55:49Z</time>
      </trkpt>
      <trkpt lat="42.4151430" lon="-6.9535200">
        <ele>352.1</ele>
        <time>2014-10-01T10:55:50Z</time>
      </trkpt>
      <trkpt lat="42.4151030" lon="-6.9535840">
        <ele>352.5</ele>
        <time>2014-10-01T10:55:51Z</time>
      </trkpt>
      <trkpt lat="42.4150640" lon="-6.9536470">
        <ele>352.9</ele>
        <time>2014-10-01T10:55:52Z</time>
      </trkpt>
      <trkpt lat="42.4150300" lon="-6.9537000">
        <ele>353.2</ele>
        <time>2014-10-01T10:55:53Z</time>
      </trkpt>
      <trkpt lat="42.4149960" lon="-6.9537590">
        <ele>353.5</ele>
        <time>2014-10-01T10:55:54Z</time>
      </trkpt>
      <trkpt lat="42.4149640" lon="-6.9538160">
        <ele>353.9</ele>
        <time>2014-10-01T10:55:55Z</time>
      </trkpt>
      <trkpt lat="42.4149340" lon="-6.9538660">
        <ele>354.2</ele>
        <time>2014-10-01T10:55:56Z</time>
      </trkpt>
      <trkpt lat="42.4149040" lon="-6.9539150">
        <ele>354.5</ele>
        <time>2014-10-01T10:55:57Z</time>
      </trkpt>
      <trkpt lat="42.4148750" lon="-6.9539570">
        <ele>354.8</ele>
        <time>2014-10-01T10:55:58Z</time>
      </trkpt>
      <trkpt lat="42.4148440" lon="-6.9540000">
        <ele>355.1</ele>
        <time>2014-10-01T10:55:59Z</time>
      </trkpt>
      <trkpt lat="42.4148120" lon="-6.9540440">
        <ele>355.4</ele>
        <time>2014-10-01T10:56:00Z</time>
      </trkpt>
      <trkpt lat="42.4147790" lon="-6.9540840">
        <ele>355.6</ele>
        <time>2014-10-01T10:56:01Z</time>
      </trkpt>
      <trkpt lat="42.4147450" lon="-6.9541250">
        <ele>355.9</ele>
        <time>2014-10-01T10:56:02Z</time>
      </trkpt>
      <trkpt lat="42.4147120" lon="-6.9541650">
        <ele>356.2</ele>
        <time>2014-10-01T10:56:03Z</time>
      </trkpt>
      <trkpt lat="42.4146780" lon="-6.9542040">
        <ele>356.4</ele>
        <time>2014-10-01T10:56:04Z</time>
      </trkpt>
      <trkpt lat="42.4146410" lon="-6.9542470">
        <ele>356.7</ele>
        <time>2014-10-01T10:56:05Z</time>
      </trkpt>
      <trkpt lat="42.4146080" lon="-6.9542810">
        <ele>357.0</ele>
        <time>2014-10-01T10:56:06Z</time>
      </trkpt>
      <trkpt lat="42.4145720" lon="-6.9543170">
        <ele>357.2</ele>
        <time>2014-10-01T10:56:07Z</time>
      </trkpt>
      <trkpt lat="42.4145370" lon="-6.9543540">
        <ele>357.5</ele>
        <time>2014-10-01T10:56:08Z</time>
      </trkpt>
      <trkpt lat="42.4145010" lon="-6.9543970">
        <ele>357.7</ele>
        <time>2014-10-01T10:56:09Z</time>
      </trkpt>
      <trkpt lat="42.4144690" lon="-6.9544360">
        <ele>358.0</ele>
        <time>2014-10-01T10:56:10Z</time>
      </trkpt>
      <trkpt lat="42.4144390" lon="-6.9544740">
        <ele>358.1</ele>
        <time>2014-10-01T10:56:11Z</time>
      </trkpt>
      <trkpt lat="42.4144110" lon="-6.9545100">
        <ele>358.3</ele>
        <time>2014-10-01T10:56:12Z</time>
      </trkpt>
      <trkpt lat="42.4143800" lon="-6.9545460">
        <ele>358.4</ele>
        <time>2014-10-01T10:56:13Z</time>
      </trkpt>
      <trkpt lat="42.4143480" lon="-6.9545820">
        <ele>358.6</ele>
        <time>2014-10-01T10:56:14Z</time>
      </trkpt>
      <trkpt lat="42.4143130" lon="-6.9546200">
        <ele>358.7</ele>
        <time>2014-10-01T10:56:15Z</time>
      </trkpt>
      <trkpt lat="42.4142790" lon="-6.9546570">
        <ele>359.0</ele>
        <time>2014-10-01T10:56:16Z</time>
      </trkpt>
      <trkpt lat="42.4142460" lon="-6.9546870">
        <ele>359.2</ele>
        <time>2014-10-01T10:56:17Z</time>
      </trkpt>
      <trkpt lat="42.4142130" lon="-6.9547140">
        <ele>359.5</ele>
        <time>2014-10-01T10:56:18Z</time>
      </trkpt>
      <trkpt lat="42.4141790" lon="-6.9547420">
        <ele>359.8</ele>
        <time>2014-10-01T10:56:19Z</time>
      </trkpt>
      <trkpt lat="42.4141450" lon="-6.9547660">
        <ele>360.1</ele>
        <time>2014-10-01T10:56:20Z</time>
      </trkpt>
      <trkpt lat="42.4141090" lon="-6.9547910">
        <ele>360.4</ele>
        <time>2014-10-01T10:56:21Z</time>
      </trkpt>
      <trkpt lat="42.4140730" lon="-6.9548170">
        <ele>360.7</ele>
        <time>2014-10-01T10:56:22Z</time>
      </trkpt>
      <trkpt lat="42.4140360" lon="-6.9548440">
        <ele>360.9</ele>
        <time>2014-10-01T10:56:23Z</time>
      </trkpt>
      <trkpt lat="42.4140050" lon="-6.9548670">
        <ele>361.1</ele>
        <time>2014-10-01T10:56:24Z</time>
      </trkpt>
      <trkpt lat="42.4139730" lon="-6.9548900">
        <ele>361.3</ele>
        <time>2014-10-01T10:56:25Z</time>
      </trkpt>
      <trkpt lat="42.4139410" lon="-6.9549140">
        <ele>361.5</ele>
        <time>2014-10-01T10:56:26Z</time>
      </trkpt>
      <trkpt lat="42.4139070" lon="-6.9549390">
        <ele>361.8</ele>
        <time>2014-10-01T10:56:27Z</time>
      </trkpt>
      <trkpt lat="42.4138720" lon="-6.9549660">
        <ele>362.0</ele>
        <time>2014-10-01T10:56:28Z</time>
      </trkpt>
      <trkpt lat="42.4138350" lon="-6.9549920">
        <ele>362.3</ele>
        <time>2014-10-01T10:56:29Z</time>
      </trkpt>
      <trkpt lat="42.4137960" lon="-6.9550180">
        <ele>362.6</ele>
        <time>2014-10-01T10:56:30Z</time>
      </trkpt>
      <trkpt lat="42.4137580" lon="-6.9550430">
        <ele>362.9</ele>
        <time>2014-10-01T10:56:31Z</time>
      </trkpt>
      <trkpt lat="42.4137200" lon="-6.9550680">
        <ele>363.1</ele>
        <time>2014-10-01T10:56:32Z</time>
      </trkpt>
      <trkpt lat="42.4136790" lon="-6.9550910">
        <ele>363.4</ele>
        <time>2014-10-01T10:56:33Z</time>
      </trkpt>
      <trkpt lat="42.4136410" lon="-6.9551150">
        <ele>363.7</ele>
        <time>2014-10-01T10:56:34Z</time>
      </trkpt>
      <trkpt lat="42.4136030" lon="-6.9551430">
        <ele>364.0</ele>
        <time>2014-10-01T10:56:35Z</time>
      </trkpt>
      <trkpt lat="42.4135700" lon="-6.9551820">
        <ele>364.3</ele>
        <time>2014-10-01T10:56:36Z</time>
      </trkpt>
      <trkpt lat="42.4135410" lon="-6.9552250">
        <ele>364.5</ele>
        <time>2014-10-01T10:56:37Z</time>
      </trkpt>
      <trkpt lat="42.4135270" lon="-6.9552750">
        <ele>364.8</ele>
        <time>2014-10-01T10:56:38Z</time>
      </trkpt>
      <trkpt lat="42.4135150" lon="-6.9553340">
        <ele>365.1</ele>
        <time>2014-10-01T10:56:39Z</time>
      </trkpt>
      <trkpt lat="42.4135150" lon="-6.9553910">
        <ele>365.3</ele>
        <time>2014-10-01T10:56:40Z</time>
      </trkpt>
      <trkpt lat="42.4135170" lon="-6.9554570">
        <ele>365.6</ele>
        <time>2014-10-01T10:56:41Z</time>
      </trkpt>
      <trkpt lat="42.4135230" lon="-6.9555130">
        <ele>365.9</ele>
        <time>2014-10-01T10:56:42Z</time>
      </trkpt>
      <trkpt lat="42.4135300" lon="-6.9555680">
        <ele>366.1</ele>
        <time>2014-10-01T10:56:43Z</time>
      </trkpt>
      <trkpt lat="42.4135400" lon="-6.9556300">
        <ele>366.4</ele>
        <time>2014-10-01T10:56:44Z</time>
      </trkpt>
      <trkpt lat="42.4135530" lon="-6.9556970">
        <ele>366.7</ele>
        <time>2014-10-01T10:56:45Z</time>
      </trkpt>
      <trkpt lat="42.4135660" lon="-6.9557550">
        <ele>367.0</ele>
        <time>2014-10-01T10:56:46Z</time>
      </trkpt>
      <trkpt lat="42.4135790" lon="-6.9558080">
        <ele>367.2</ele>
        <time>2014-10-01T10:56:47Z</time>
      </trkpt>
      <trkpt lat="42.4135920" lon="-6.9558570">
        <ele>367.5</ele>
        <time>2014-10-01T10:56:48Z</time>
      </trkpt>
      <trkpt lat="42.4136030" lon="-6.9558950">
        <ele>367.7</ele>
        <time>2014-10-01T10:56:49Z</time>
      </trkpt>
      <trkpt lat="42.4136160" lon="-6.9559380">
        <ele>367.9</ele>
        <time>2014-10-01T10:56:50Z</time>
      </trkpt>
      <trkpt lat="42.4136310" lon="-6.9559880">
        <ele>368.1</ele>
        <time>2014-10-01T10:56:51Z</time>
      </trkpt>
      <trkpt lat="42.4136440" lon="-6.9560330">
        <ele>368.4</ele>
        <time>2014-10-01T10:56:52Z</time>
      </trkpt>
      <trkpt lat="42.4136550" lon="-6.9560760">
        <ele>368.6</ele>
        <time>2014-10-01T10:56:53Z</time>
      </trkpt>
      <trkpt lat="42.4136660" lon="-6.9561270">
        <ele>368.8</ele>
        <time>2014-10-01T10:56:54Z</time>
      </trkpt>
      <trkpt lat="42.4136740" lon="-6.9561770">
        <ele>369.1</ele>
        <time>2014-10-01T10:56:55Z</time>
      </trkpt>
      <trkpt lat="42.4136820" lon="-6.9562310">
        <ele>369.3</ele>
        <time>2014-10-01T10:56:56Z</time>
      </trkpt>
      <trkpt lat="42.4136880" lon="-6.9562820">
        <ele>369.5</ele>
        <time>2014-10-01T10:56:57Z</time>
      </trkpt>
      <trkpt lat="42.4136900" lon="-6.9563430">
        <ele>369.8</ele>
        <time>2014-10-01T10:56:58Z</time>
      </trkpt>
      <trkpt lat="42.4136910" lon="-6.9564000">
        <ele>370.0</ele>
        <time>2014-10-01T10:56:59Z</time>
      </trkpt>
      <trkpt lat="42.4136880" lon="-6.9564510">
        <ele>370.1</ele>
        <time>2014-10-01T10:57:00Z</time>
      </trkpt>
      <trkpt lat="42.4136850" lon="-6.9565040">
        <ele>370.3</ele>
        <time>2014-10-01T10:57:01Z</time>
      </trkpt>
      <trkpt lat="42.4136800" lon="-6.9565710">
        <ele>370.5</ele>
        <time>2014-10-01T10:57:02Z</time>
      </trkpt>
      <trkpt lat="42.4136740" lon="-6.9566350">
        <ele>370.6</ele>
        <time>2014-10-01T10:57:03Z</time>
      </trkpt>
      <trkpt lat="42.4136670" lon="-6.9566980">
        <ele>370.7</ele>
        <time>2014-10-01T10:57:04Z</time>
      </trkpt>
      <trkpt lat="42.4136590" lon="-6.9567600">
        <ele>370.8</ele>
        <time>2014-10-01T10:57:05Z</time>
      </trkpt>
      <trkpt lat="42.4136520" lon="-6.9568260">
        <ele>370.9</ele>
        <time>2014-10-01T10:57:06Z</time>
      </trkpt>
      <trkpt lat="42.4136440" lon="-6.9568910">
        <ele>371.0</ele>
        <time>2014-10-01T10:57:07Z</time>
      </trkpt>
      <trkpt lat="42.4136350" lon="-6.9569550">
        <ele>371.0</ele>
        <time>2014-10-01T10:57:08Z</time>
      </trkpt>
      <trkpt lat="42.4136250" lon="-6.9570270">
        <ele>371.0</ele>
        <time>2014-10-01T10:57:09Z</time>
      </trkpt>
      <trkpt lat="42.4136140" lon="-6.9571020">
        <ele>371.0</ele>
        <time>2014-10-01T10:57:10Z</time>
      </trkpt>
      <trkpt lat="42.4136000" lon="-6.9571780">
        <ele>371.0</ele>
        <time>2014-10-01T10:57:11Z</time>
      </trkpt>
      <trkpt lat="42.4135810" lon="-6.9572490">
        <ele>370.9</ele>
        <time>2014-10-01T10:57:12Z</time>
      </trkpt>
      <trkpt lat="42.4135480" lon="-6.9573160">
        <ele>370.9</ele>
        <time>2014-10-01T10:57:13Z</time>
      </trkpt>
      <trkpt lat="42.4135120" lon="-6.9573800">
        <ele>370.8</ele>
        <time>2014-10-01T10:57:14Z</time>
      </trkpt>
      <trkpt lat="42.4134730" lon="-6.9574380">
        <ele>370.8</ele>
        <time>2014-10-01T10:57:15Z</time>
      </trkpt>
      <trkpt lat="42.4134290" lon="-6.9575030">
        <ele>370.7</ele>
        <time>2014-10-01T10:57:16Z</time>
      </trkpt>
      <trkpt lat="42.4133790" lon="-6.9575540">
        <ele>370.6</ele>
        <time>2014-10-01T10:57:17Z</time>
      </trkpt>
      <trkpt lat="42.4133310" lon="-6.9576050">
        <ele>370.5</ele>
        <time>2014-10-01T10:57:18Z</time>
      </trkpt>
      <trkpt lat="42.4132790" lon="-6.9576590">
        <ele>370.4</ele>
        <time>2014-10-01T10:57:19Z</time>
      </trkpt>
      <trkpt lat="42.4132250" lon="-6.9577100">
        <ele>370.3</ele>
        <time>2014-10-01T10:57:20Z</time>
      </trkpt>
      <trkpt lat="42.4131710" lon="-6.9577640">
        <ele>370.2</ele>
        <time>2014-10-01T10:57:21Z</time>
      </trkpt>
      <trkpt lat="42.4131160" lon="-6.9578210">
        <ele>370.1</ele>
        <time>2014-10-01T10:57:22Z</time>
      </trkpt>
      <trkpt lat="42.4130630" lon="-6.9578820">
        <ele>370.0</ele>
        <time>2014-10-01T10:57:23Z</time>
      </trkpt>
      <trkpt lat="42.4130250" lon="-6.9579630">
        <ele>370.0</ele>
        <time>2014-10-01T10:57:24Z</time>
      </trkpt>
      <trkpt lat="42.4130030" lon="-6.9580530">
        <ele>369.9</ele>
        <time>2014-10-01T10:57:25Z</time>
      </trkpt>
      <trkpt lat="42.4129970" lon="-6.9581520">
        <ele>369.7</ele>
        <time>2014-10-01T10:57:26Z</time>
      </trkpt>
      <trkpt lat="42.4129950" lon="-6.9582460">
        <ele>369.5</ele>
        <time>2014-10-01T10:57:27Z</time>
      </trkpt>
      <trkpt lat="42.4129980" lon="-6.9583480">
        <ele>369.4</ele>
        <time>2014-10-01T10:57:28Z</time>
      </trkpt>
      <trkpt lat="42.4130060" lon="-6.9584580">
        <ele>369.4</ele>
        <time>2014-10-01T10:57:29Z</time>
      </trkpt>
      <trkpt lat="42.4130180" lon="-6.9585650">
        <ele>369.3</ele>
        <time>2014-10-01T10:57:30Z</time>
      </trkpt>
      <trkpt lat="42.4130320" lon="-6.9586680">
        <ele>369.3</ele>
        <time>2014-10-01T10:57:31Z</time>
      </trkpt>
      <trkpt lat="42.4130520" lon="-6.9587660">
        <ele>369.3</ele>
        <time>2014-10-01T10:57:32Z</time>
      </trkpt>
      <trkpt lat="42.4130750" lon="-6.9588640">
        <ele>369.3</ele>
        <time>2014-10-01T10:57:33Z</time>
      </trkpt>
      <trkpt lat="42.4131040" lon="-6.9589680">
        <ele>369.3</ele>
        <time>2014-10-01T10:57:34Z</time>
      </trkpt>
      <trkpt lat="42.4131370" lon="-6.9590660">
        <ele>369.2</ele>
        <time>2014-10-01T10:57:35Z</time>
      </trkpt>
      <trkpt lat="42.4131730" lon="-6.9591590">
        <ele>369.2</ele>
        <time>2014-10-01T10:57:36Z</time>
      </trkpt>
      <trkpt lat="42.4132120" lon="-6.9592490">
        <ele>369.2</ele>
        <time>2014-10-01T10:57:37Z</time>
      </trkpt>
      <trkpt lat="42.4132540" lon="-6.9593310">
        <ele>369.1</ele>
        <time>2014-10-01T10:57:38Z</time>
      </trkpt>
      <trkpt lat="42.4133010" lon="-6.9594190">
        <ele>369.1</ele>
        <time>2014-10-01T10:57:39Z</time>
      </trkpt>
      <trkpt lat="42.4133520" lon="-6.9595080">
        <ele>369.0</ele>
        <time>2014-10-01T10:57:40Z</time>
      </trkpt>
      <trkpt lat="42.4134030" lon="-6.9595910">
        <ele>369.0</ele>
        <time>2014-10-01T10:57:41Z</time>
      </trkpt>
      <trkpt lat="42.4134550" lon="-6.9596610">
        <ele>369.0</ele>
        <time>2014-10-01T10:57:42Z</time>
      </trkpt>
      <trkpt lat="42.4135110" lon="-6.9597250">
        <ele>368.9</ele>
        <time>2014-10-01T10:57:43Z</time>
      </trkpt>
      <trkpt lat="42.4135780" lon="-6.9597720">
        <ele>368.8</ele>
        <time>2014-10-01T10:57:44Z</time>
      </trkpt>
      <trkpt lat="42.4136410" lon="-6.9598120">
        <ele>368.7</ele>
        <time>2014-10-01T10:57:45Z</time>
      </trkpt>
      <trkpt lat="42.4137110" lon="-6.9598530">
        <ele>368.6</ele>
        <time>2014-10-01T10:57:46Z</time>
      </trkpt>
      <trkpt lat="42.4137860" lon="-6.9598950">
        <ele>368.4</ele>
        <time>2014-10-01T10:57:47Z</time>
      </trkpt>
      <trkpt lat="42.4138560" lon="-6.9599320">
        <ele>368.3</ele>
        <time>2014-10-01T10:57:48Z</time>
      </trkpt>
      <trkpt lat="42.4139340" lon="-6.9599700">
        <ele>368.2</ele>
        <time>2014-10-01T10:57:49Z</time>
      </trkpt>
      <trkpt lat="42.4140150" lon="-6.9600090">
        <ele>368.0</ele>
        <time>2014-10-01T10:57:50Z</time>
      </trkpt>
      <trkpt lat="42.4140990" lon="-6.9600510">
        <ele>367.9</ele>
        <time>2014-10-01T10:57:51Z</time>
      </trkpt>
      <trkpt lat="42.4141910" lon="-6.9601000">
        <ele>367.8</ele>
        <time>2014-10-01T10:57:52Z</time>
      </trkpt>
      <trkpt lat="42.4142770" lon="-6.9601520">
        <ele>367.7</ele>
        <time>2014-10-01T10:57:53Z</time>
      </trkpt>
      <trkpt lat="42.4143560" lon="-6.9602040">
        <ele>367.6</ele>
        <time>2014-10-01T10:57:54Z</time>
      </trkpt>
      <trkpt lat="42.4144330" lon="-6.9602630">
        <ele>367.6</ele>
        <time>2014-10-01T10:57:55Z</time>
      </trkpt>
      <trkpt lat="42.4145080" lon="-6.9603280">
        <ele>367.4</ele>
        <time>2014-10-01T10:57:56Z</time>
      </trkpt>
      <trkpt lat="42.4145670" lon="-6.9604120">
        <ele>367.2</ele>
        <time>2014-10-01T10:57:57Z</time>
      </trkpt>
      <trkpt lat="42.4146260" lon="-6.9604990">
        <ele>367.0</ele>
        <time>2014-10-01T10:57:58Z</time>
      </trkpt>
      <trkpt lat="42.4146870" lon="-6.9605980">
        <ele>366.8</ele>
        <time>2014-10-01T10:57:59Z</time>
      </trkpt>
      <trkpt lat="42.4147420" lon="-6.9607010">
        <ele>366.6</ele>
        <time>2014-10-01T10:58:00Z</time>
      </trkpt>
      <trkpt lat="42.4147960" lon="-6.9608110">
        <ele>366.3</ele>
        <time>2014-10-01T10:58:01Z</time>
      </trkpt>
      <trkpt lat="42.4148440" lon="-6.9609180">
        <ele>366.0</ele>
        <time>2014-10-01T10:58:02Z</time>
      </trkpt>
      <trkpt lat="42.4148890" lon="-6.9610320">
        <ele>365.8</ele>
        <time>2014-10-01T10:58:03Z</time>
      </trkpt>
      <trkpt lat="42.4149300" lon="-6.9611500">
        <ele>365.6</ele>
        <time>2014-10-01T10:58:04Z</time>
      </trkpt>
      <trkpt lat="42.4149750" lon="-6.9612810">
        <ele>365.4</ele>
        <time>2014-10-01T10:58:05Z</time>
      </trkpt>
      <trkpt lat="42.4150160" lon="-6.9614120">
        <ele>365.2</ele>
        <time>2014-10-01T10:58:06Z</time>
      </trkpt>
      <trkpt lat="42.4150550" lon="-6.9615400">
        <ele>365.1</ele>
        <time>2014-10-01T10:58:07Z</time>
      </trkpt>
      <trkpt lat="42.4150930" lon="-6.9616670">
        <ele>364.9</ele>
        <time>2014-10-01T10:58:08Z</time>
      </trkpt>
      <trkpt lat="42.4151270" lon="-6.9617970">
        <ele>364.6</ele>
        <time>2014-10-01T10:58:09Z</time>
      </trkpt>
      <trkpt lat="42.4151640" lon="-6.9619260">
        <ele>364.4</ele>
        <time>2014-10-01T10:58:10Z</time>
      </trkpt>
      <trkpt lat="42.4152010" lon="-6.9620580">
        <ele>364.1</ele>
        <time>2014-10-01T10:58:11Z</time>
      </trkpt>
      <trkpt lat="42.4152360" lon="-6.9621850">
        <ele>363.8</ele>
        <time>2014-10-01T10:58:12Z</time>
      </trkpt>
      <trkpt lat="42.4152690" lon="-6.9623190">
        <ele>363.5</ele>
        <time>2014-10-01T10:58:13Z</time>
      </trkpt>
      <trkpt lat="42.4152980" lon="-6.9624600">
        <ele>363.3</ele>
        <time>2014-10-01T10:58:14Z</time>
      </trkpt>
      <trkpt lat="42.4153160" lon="-6.9625950">
        <ele>363.1</ele>
        <time>2014-10-01T10:58:15Z</time>
      </trkpt>
      <trkpt lat="42.4153240" lon="-6.9627260">
        <ele>362.9</ele>
        <time>2014-10-01T10:58:16Z</time>
      </trkpt>
      <trkpt lat="42.4153250" lon="-6.9628530">
        <ele>362.7</ele>
        <time>2014-10-01T10:58:17Z</time>
      </trkpt>
      <trkpt lat="42.4153220" lon="-6.9629870">
        <ele>362.5</ele>
        <time>2014-10-01T10:58:18Z</time>
      </trkpt>
      <trkpt lat="42.4153140" lon="-6.9631260">
        <ele>362.2</ele>
        <time>2014-10-01T10:58:19Z</time>
      </trkpt>
      <trkpt lat="42.4152990" lon="-6.9632680">
        <ele>361.7</ele>
        <time>2014-10-01T10:58:20Z</time>
      </trkpt>
      <trkpt lat="42.4152590" lon="-6.9634150">
        <ele>361.5</ele>
        <time>2014-10-01T10:58:21Z</time>
      </trkpt>
      <trkpt lat="42.4151980" lon="-6.9635400">
        <ele>361.2</ele>
        <time>2014-10-01T10:58:22Z</time>
      </trkpt>
      <trkpt lat="42.4151230" lon="-6.9636380">
        <ele>361.0</ele>
        <time>2014-10-01T10:58:23Z</time>
      </trkpt>
      <trkpt lat="42.4150420" lon="-6.9637230">
        <ele>360.7</ele>
        <time>2014-10-01T10:58:24Z</time>
      </trkpt>
      <trkpt lat="42.4149570" lon="-6.9638000">
        <ele>360.4</ele>
        <time>2014-10-01T10:58:25Z</time>
      </trkpt>
      <trkpt lat="42.4148650" lon="-6.9638740">
        <ele>360.1</ele>
        <time>2014-10-01T10:58:26Z</time>
      </trkpt>
      <trkpt lat="42.4147760" lon="-6.9639390">
        <ele>359.9</ele>
        <time>2014-10-01T10:58:27Z</time>
      </trkpt>
      <trkpt lat="42.4146850" lon="-6.9640040">
        <ele>359.7</ele>
        <time>2014-10-01T10:58:28Z</time>
      </trkpt>
      <trkpt lat="42.4145950" lon="-6.9640660">
        <ele>359.5</ele>
        <time>2014-10-01T10:58:29Z</time>
      </trkpt>
      <trkpt lat="42.4145020" lon="-6.9641270">
        <ele>359.3</ele>
        <time>2014-10-01T10:58:30Z</time>
      </trkpt>
      <trkpt lat="42.4144090" lon="-6.9641920">
        <ele>359.0</ele>
        <time>2014-10-01T10:58:31Z</time>
      </trkpt>
      <trkpt lat="42.4143120" lon="-6.9642530">
        <ele>358.8</ele>
        <time>2014-10-01T10:58:32Z</time>
      </trkpt>
      <trkpt lat="42.4142130" lon="-6.9643060">
        <ele>358.5</ele>
        <time>2014-10-01T10:58:33Z</time>
      </trkpt>
      <trkpt lat="42.4141130" lon="-6.9643490">
        <ele>358.2</ele>
        <time>2014-10-01T10:58:34Z</time>
      </trkpt>
      <trkpt lat="42.4140160" lon="-6.9643830">
        <ele>357.8</ele>
        <time>2014-10-01T10:58:35Z</time>
      </trkpt>
      <trkpt lat="42.4139160" lon="-6.9644080">
        <ele>357.5</ele>
        <time>2014-10-01T10:58:36Z</time>
      </trkpt>
      <trkpt lat="42.4138140" lon="-6.9644280">
        <ele>357.2</ele>
        <time>2014-10-01T10:58:37Z</time>
      </trkpt>
      <trkpt lat="42.4137130" lon="-6.9644400">
        <ele>356.9</ele>
        <time>2014-10-01T10:58:38Z</time>
      </trkpt>
      <trkpt lat="42.4136140" lon="-6.9644210">
        <ele>356.7</ele>
        <time>2014-10-01T10:58:39Z</time>
      </trkpt>
      <trkpt lat="42.4135150" lon="-6.9643960">
        <ele>356.4</ele>
        <time>2014-10-01T10:58:40Z</time>
      </trkpt>
      <trkpt lat="42.4134130" lon="-6.9643630">
        <ele>356.1</ele>
        <time>2014-10-01T10:58:41Z</time>
      </trkpt>
      <trkpt lat="42.4133070" lon="-6.9643270">
        <ele>355.8</ele>
        <time>2014-10-01T10:58:42Z</time>
      </trkpt>
      <trkpt lat="42.4132010" lon="-6.9642910">
        <ele>355.5</ele>
        <time>2014-10-01T10:58:43Z</time>
      </trkpt>
      <trkpt lat="42.4130980" lon="-6.9642530">
        <ele>355.2</ele>
        <time>2014-10-01T10:58:44Z</time>
      </trkpt>
      <trkpt lat="42.4129980" lon="-6.9642160">
        <ele>354.9</ele>
        <time>2014-10-01T10:58:45Z</time>
      </trkpt>
      <trkpt lat="42.4129020" lon="-6.9641830">
        <ele>354.7</ele>
        <time>2014-10-01T10:58:46Z</time>
      </trkpt>
      <trkpt lat="42.4128060" lon="-6.9641500">
        <ele>354.6</ele>
        <time>2014-10-01T10:58:47Z</time>
      </trkpt>
      <trkpt lat="42.4127080" lon="-6.9641160">
        <ele>354.4</ele>
        <time>2014-10-01T10:58:48Z</time>
      </trkpt>
      <trkpt lat="42.4126110" lon="-6.9640820">
        <ele>354.1</ele>
        <time>2014-10-01T10:58:49Z</time>
      </trkpt>
      <trkpt lat="42.4125040" lon="-6.9640520">
        <ele>353.9</ele>
        <time>2014-10-01T10:58:50Z</time>
      </trkpt>
      <trkpt lat="42.4124010" lon="-6.9640280">
        <ele>353.8</ele>
        <time>2014-10-01T10:58:51Z</time>
      </trkpt>
      <trkpt lat="42.4122950" lon="-6.9640100">
        <ele>353.6</ele>
        <time>2014-10-01T10:58:52Z</time>
      </trkpt>
      <trkpt lat="42.4121970" lon="-6.9640010">
        <ele>353.4</ele>
        <time>2014-10-01T10:58:53Z</time>
      </trkpt>
      <trkpt lat="42.4120860" lon="-6.9640000">
        <ele>353.1</ele>
        <time>2014-10-01T10:58:54Z</time>
      </trkpt>
      <trkpt lat="42.4119780" lon="-6.9640340">
        <ele>352.8</ele>
        <time>2014-10-01T10:58:55Z</time>
      </trkpt>
      <trkpt lat="42.4118670" lon="-6.9640790">
        <ele>352.6</ele>
        <time>2014-10-01T10:58:56Z</time>
      </trkpt>
      <trkpt lat="42.4117610" lon="-6.9641240">
        <ele>352.5</ele>
        <time>2014-10-01T10:58:57Z</time>
      </trkpt>
      <trkpt lat="42.4116630" lon="-6.9641750">
        <ele>352.4</ele>
        <time>2014-10-01T10:58:58Z</time>
      </trkpt>
      <trkpt lat="42.4115690" lon="-6.9642320">
        <ele>352.3</ele>
        <time>2014-10-01T10:58:59Z</time>
      </trkpt>
      <trkpt lat="42.4114780" lon="-6.9642870">
        <ele>352.2</ele>
        <time>2014-10-01T10:59:00Z</time>
      </trkpt>
      <trkpt lat="42.4113880" lon="-6.9643440">
        <ele>352.1</ele>
        <time>2014-10-01T10:59:01Z</time>
      </trkpt>
      <trkpt lat="42.4113020" lon="-6.9643980">
        <ele>352.1</ele>
        <time>2014-10-01T10:59:02Z</time>
      </trkpt>
      <trkpt lat="42.4112200" lon="-6.9644510">
        <ele>352.1</ele>
        <time>2014-10-01T10:59:03Z</time>
      </trkpt>
      <trkpt lat="42.4111360" lon="-6.9645050">
        <ele>352.0</ele>
        <time>2014-10-01T10:59:04Z</time>
      </trkpt>
      <trkpt lat="42.4110530" lon="-6.9645570">
        <ele>352.0</ele>
        <time>2014-10-01T10:59:05Z</time>
      </trkpt>
      <trkpt lat="42.4109730" lon="-6.9646050">
        <ele>351.8</ele>
        <time>2014-10-01T10:59:06Z</time>
      </trkpt>
      <trkpt lat="42.4108940" lon="-6.9646510">
        <ele>351.5</ele>
        <time>2014-10-01T10:59:07Z</time>
      </trkpt>
      <trkpt lat="42.4108110" lon="-6.9647020">
        <ele>351.1</ele>
        <time>2014-10-01T10:59:08Z</time>
      </trkpt>
      <trkpt lat="42.4107270" lon="-6.9647530">
        <ele>350.7</ele>
        <time>2014-10-01T10:59:09Z</time>
      </trkpt>
      <trkpt lat="42.4106350" lon="-6.9648090">
        <ele>350.3</ele>
        <time>2014-10-01T10:59:10Z</time>
      </trkpt>
      <trkpt lat="42.4105440" lon="-6.9648710">
        <ele>349.9</ele>
        <time>2014-10-01T10:59:11Z</time>
      </trkpt>
      <trkpt lat="42.4104530" lon="-6.9649330">
        <ele>349.4</ele>
        <time>2014-10-01T10:59:12Z</time>
      </trkpt>
      <trkpt lat="42.4103600" lon="-6.9649910">
        <ele>348.9</ele>
        <time>2014-10-01T10:59:13Z</time>
      </trkpt>
      <trkpt lat="42.4102690" lon="-6.9650490">
        <ele>348.5</ele>
        <time>2014-10-01T10:59:14Z</time>
      </trkpt>
      <trkpt lat="42.4101770" lon="-6.9651040">
        <ele>348.0</ele>
        <time>2014-10-01T10:59:15Z</time>
      </trkpt>
      <trkpt lat="42.4100850" lon="-6.9651620">
        <ele>347.6</ele>
        <time>2014-10-01T10:59:16Z</time>
      </trkpt>
      <trkpt lat="42.4099910" lon="-6.9652210">
        <ele>347.1</ele>
        <time>2014-10-01T10:59:17Z</time>
      </trkpt>
      <trkpt lat="42.4098970" lon="-6.9652860">
        <ele>346.7</ele>
        <time>2014-10-01T10:59:18Z</time>
      </trkpt>
      <trkpt lat="42.4097980" lon="-6.9653620">
        <ele>346.2</ele>
        <time>2014-10-01T10:59:19Z</time>
      </trkpt>
      <trkpt lat="42.4097130" lon="-6.9654700">
        <ele>345.6</ele>
        <time>2014-10-01T10:59:20Z</time>
      </trkpt>
      <trkpt lat="42.4096320" lon="-6.9655820">
        <ele>345.0</ele>
        <time>2014-10-01T10:59:21Z</time>
      </trkpt>
      <trkpt lat="42.4095550" lon="-6.9656940">
        <ele>344.4</ele>
        <time>2014-10-01T10:59:22Z</time>
      </trkpt>
      <trkpt lat="42.4094810" lon="-6.9658060">
        <ele>343.9</ele>
        <time>2014-10-01T10:59:23Z</time>
      </trkpt>
      <trkpt lat="42.4094050" lon="-6.9659170">
        <ele>343.3</ele>
        <time>2014-10-01T10:59:24Z</time>
      </trkpt>
      <trkpt lat="42.4093270" lon="-6.9660330">
        <ele>342.7</ele>
        <time>2014-10-01T10:59:25Z</time>
      </trkpt>
      <trkpt lat="42.4092530" lon="-6.9661510">
        <ele>342.2</ele>
        <time>2014-10-01T10:59:26Z</time>
      </trkpt>
      <trkpt lat="42.4091820" lon="-6.9662760">
        <ele>341.7</ele>
        <time>2014-10-01T10:59:27Z</time>
      </trkpt>
      <trkpt lat="42.4091130" lon="-6.9664070">
        <ele>341.1</ele>
        <time>2014-10-01T10:59:28Z</time>
      </trkpt>
      <trkpt lat="42.4090530" lon="-6.9665440">
        <ele>340.6</ele>
        <time>2014-10-01T10:59:29Z</time>
      </trkpt>
      <trkpt lat="42.4090010" lon="-6.9666810">
        <ele>340.1</ele>
        <time>2014-10-01T10:59:30Z</time>
      </trkpt>
      <trkpt lat="42.4089530" lon="-6.9668210">
        <ele>339.7</ele>
        <time>2014-10-01T10:59:31Z</time>
      </trkpt>
      <trkpt lat="42.4089100" lon="-6.9669560">
        <ele>339.4</ele>
        <time>2014-10-01T10:59:32Z</time>
      </trkpt>
      <trkpt lat="42.4088640" lon="-6.9670940">
        <ele>339.3</ele>
        <time>2014-10-01T10:59:33Z</time>
      </trkpt>
      <trkpt lat="42.4088210" lon="-6.9672300">
        <ele>339.2</ele>
        <time>2014-10-01T10:59:34Z</time>
      </trkpt>
      <trkpt lat="42.4087760" lon="-6.9673680">
        <ele>339.2</ele>
        <time>2014-10-01T10:59:35Z</time>
      </trkpt>
      <trkpt lat="42.4087330" lon="-6.9675020">
        <ele>339.2</ele>
        <time>2014-10-01T10:59:36Z</time>
      </trkpt>
      <trkpt lat="42.4086900" lon="-6.9676340">
        <ele>339.3</ele>
        <time>2014-10-01T10:59:37Z</time>
      </trkpt>
      <trkpt lat="42.4086480" lon="-6.9677630">
        <ele>339.4</ele>
        <time>2014-10-01T10:59:38Z</time>
      </trkpt>
      <trkpt lat="42.4086060" lon="-6.9678920">
        <ele>339.6</ele>
        <time>2014-10-01T10:59:39Z</time>
      </trkpt>
      <trkpt lat="42.4085620" lon="-6.9680140">
        <ele>339.7</ele>
        <time>2014-10-01T10:59:40Z</time>
      </trkpt>
      <trkpt lat="42.4085140" lon="-6.9681360">
        <ele>339.7</ele>
        <time>2014-10-01T10:59:41Z</time>
      </trkpt>
      <trkpt lat="42.4084640" lon="-6.9682470">
        <ele>339.7</ele>
        <time>2014-10-01T10:59:42Z</time>
      </trkpt>
      <trkpt lat="42.4084110" lon="-6.9683540">
        <ele>339.7</ele>
        <time>2014-10-01T10:59:43Z</time>
      </trkpt>
      <trkpt lat="42.4083560" lon="-6.9684640">
        <ele>339.7</ele>
        <time>2014-10-01T10:59:44Z</time>
      </trkpt>
      <trkpt lat="42.4083090" lon="-6.9685790">
        <ele>339.7</ele>
        <time>2014-10-01T10:59:45Z</time>
      </trkpt>
      <trkpt lat="42.4082830" lon="-6.9687040">
        <ele>339.7</ele>
        <time>2014-10-01T10:59:46Z</time>
      </trkpt>
      <trkpt lat="42.4082630" lon="-6.9688230">
        <ele>339.8</ele>
        <time>2014-10-01T10:59:47Z</time>
      </trkpt>
      <trkpt lat="42.4082670" lon="-6.9689540">
        <ele>339.8</ele>
        <time>2014-10-01T10:59:48Z</time>
      </trkpt>
      <trkpt lat="42.4082740" lon="-6.9690720">
        <ele>339.7</ele>
        <time>2014-10-01T10:59:49Z</time>
      </trkpt>
      <trkpt lat="42.4083000" lon="-6.9691780">
        <ele>339.5</ele>
        <time>2014-10-01T10:59:50Z</time>
      </trkpt>
      <trkpt lat="42.4083330" lon="-6.9692970">
        <ele>339.2</ele>
        <time>2014-10-01T10:59:51Z</time>
      </trkpt>
      <trkpt lat="42.4083710" lon="-6.9694190">
        <ele>338.8</ele>
        <time>2014-10-01T10:59:52Z</time>
      </trkpt>
      <trkpt lat="42.4084070" lon="-6.9695470">
        <ele>338.4</ele>
        <time>2014-10-01T10:59:53Z</time>
      </trkpt>
      <trkpt lat="42.4084380" lon="-6.9696790">
        <ele>338.0</ele>
        <time>2014-10-01T10:59:54Z</time>
      </trkpt>
      <trkpt lat="42.4084620" lon="-6.9698140">
        <ele>337.6</ele>
        <time>2014-10-01T10:59:55Z</time>
      </trkpt>
      <trkpt lat="42.4084820" lon="-6.9699510">
        <ele>337.1</ele>
        <time>2014-10-01T10:59:56Z</time>
      </trkpt>
      <trkpt lat="42.4085030" lon="-6.9700920">
        <ele>336.5</ele>
        <time>2014-10-01T10:59:57Z</time>
      </trkpt>
      <trkpt lat="42.4085280" lon="-6.9702210">
        <ele>336.0</ele>
        <time>2014-10-01T10:59:58Z</time>
      </trkpt>
      <trkpt lat="42.4085740" lon="-6.9703530">
        <ele>335.4</ele>
        <time>2014-10-01T10:59:59Z</time>
      </trkpt>
      <trkpt lat="42.4086170" lon="-6.9704740">
        <ele>334.9</ele>
        <time>2014-10-01T11:00:00Z</time>
      </trkpt>
      <trkpt lat="42.4086540" lon="-6.9705900">
        <ele>334.4</ele>
        <time>2014-10-01T11:00:01Z</time>
      </trkpt>
      <trkpt lat="42.4086900" lon="-6.9707070">
        <ele>333.9</ele>
        <time>2014-10-01T11:00:02Z</time>
      </trkpt>
      <trkpt lat="42.4087260" lon="-6.9708250">
        <ele>333.4</ele>
        <time>2014-10-01T11:00:03Z</time>
      </trkpt>
      <trkpt lat="42.4087650" lon="-6.9709490">
        <ele>332.9</ele>
        <time>2014-10-01T11:00:04Z</time>
      </trkpt>
      <trkpt lat="42.4088020" lon="-6.9710680">
        <ele>332.6</ele>
        <time>2014-10-01T11:00:05Z</time>
      </trkpt>
      <trkpt lat="42.4088400" lon="-6.9711920">
        <ele>332.2</ele>
        <time>2014-10-01T11:00:06Z</time>
      </trkpt>
      <trkpt lat="42.4088790" lon="-6.9713170">
        <ele>331.9</ele>
        <time>2014-10-01T11:00:07Z</time>
      </trkpt>
      <trkpt lat="42.4089170" lon="-6.9714500">
        <ele>331.5</ele>
        <time>2014-10-01T11:00:08Z</time>
      </trkpt>
      <trkpt lat="42.4089520" lon="-6.9715910">
        <ele>331.1</ele>
        <time>2014-10-01T11:00:09Z</time>
      </trkpt>
      <trkpt lat="42.4089840" lon="-6.9717280">
        <ele>330.8</ele>
        <time>2014-10-01T11:00:10Z</time>
      </trkpt>
      <trkpt lat="42.4090160" lon="-6.9718630">
        <ele>330.6</ele>
        <time>2014-10-01T11:00:11Z</time>
      </trkpt>
      <trkpt lat="42.4090460" lon="-6.9719990">
        <ele>330.3</ele>
        <time>2014-10-01T11:00:12Z</time>
      </trkpt>
      <trkpt lat="42.4090740" lon="-6.9721300">
        <ele>330.2</ele>
        <time>2014-10-01T11:00:13Z</time>
      </trkpt>
      <trkpt lat="42.4091010" lon="-6.9722630">
        <ele>330.1</ele>
        <time>2014-10-01T11:00:14Z</time>
      </trkpt>
      <trkpt lat="42.4091260" lon="-6.9723920">
        <ele>330.0</ele>
        <time>2014-10-01T11:00:15Z</time>
      </trkpt>
      <trkpt lat="42.4091510" lon="-6.9725250">
        <ele>330.0</ele>
        <time>2014-10-01T11:00:16Z</time>
      </trkpt>
      <trkpt lat="42.4091780" lon="-6.9726600">
        <ele>329.9</ele>
        <time>2014-10-01T11:00:17Z</time>
      </trkpt>
      <trkpt lat="42.4092040" lon="-6.9727890">
        <ele>329.9</ele>
        <time>2014-10-01T11:00:18Z</time>
      </trkpt>
      <trkpt lat="42.4092310" lon="-6.9729150">
        <ele>329.9</ele>
        <time>2014-10-01T11:00:19Z</time>
      </trkpt>
      <trkpt lat="42.4092600" lon="-6.9730400">
        <ele>329.9</ele>
        <time>2014-10-01T11:00:20Z</time>
      </trkpt>
      <trkpt lat="42.4092880" lon="-6.9731620">
        <ele>329.9</ele>
        <time>2014-10-01T11:00:21Z</time>
      </trkpt>
      <trkpt lat="42.4093130" lon="-6.9732810">
        <ele>330.0</ele>
        <time>2014-10-01T11:00:22Z</time>
      </trkpt>
      <trkpt lat="42.4093390" lon="-6.9734010">
        <ele>330.0</ele>
        <time>2014-10-01T11:00:23Z</time>
      </trkpt>
      <trkpt lat="42.4093650" lon="-6.9735220">
        <ele>330.0</ele>
        <time>2014-10-01T11:00:24Z</time>
      </trkpt>
      <trkpt lat="42.4093930" lon="-6.9736330">
        <ele>330.1</ele>
        <time>2014-10-01T11:00:25Z</time>
      </trkpt>
      <trkpt lat="42.4094200" lon="-6.9737470">
        <ele>330.1</ele>
        <time>2014-10-01T11:00:26Z</time>
      </trkpt>
      <trkpt lat="42.4094480" lon="-6.9738620">
        <ele>330.1</ele>
        <time>2014-10-01T11:00:27Z</time>
      </trkpt>
      <trkpt lat="42.4094760" lon="-6.9739760">
        <ele>330.1</ele>
        <time>2014-10-01T11:00:28Z</time>
      </trkpt>
      <trkpt lat="42.4095000" lon="-6.9740890">
        <ele>330.1</ele>
        <time>2014-10-01T11:00:29Z</time>
      </trkpt>
      <trkpt lat="42.4095230" lon="-6.9741960">
        <ele>330.2</ele>
        <time>2014-10-01T11:00:30Z</time>
      </trkpt>
      <trkpt lat="42.4095470" lon="-6.9743090">
        <ele>330.2</ele>
        <time>2014-10-01T11:00:31Z</time>
      </trkpt>
      <trkpt lat="42.4095700" lon="-6.9744240">
        <ele>330.3</ele>
        <time>2014-10-01T11:00:32Z</time>
      </trkpt>
      <trkpt lat="42.4095960" lon="-6.9745400">
        <ele>330.3</ele>
        <time>2014-10-01T11:00:33Z</time>
      </trkpt>
      <trkpt lat="42.4096230" lon="-6.9746530">
        <ele>330.3</ele>
        <time>2014-10-01T11:00:34Z</time>
      </trkpt>
      <trkpt lat="42.4096540" lon="-6.9747700">
        <ele>330.4</ele>
        <time>2014-10-01T11:00:35Z</time>
      </trkpt>
      <trkpt lat="42.4096870" lon="-6.9748830">
        <ele>330.4</ele>
        <time>2014-10-01T11:00:36Z</time>
      </trkpt>
      <trkpt lat="42.4097220" lon="-6.9749900">
        <ele>330.4</ele>
        <time>2014-10-01T11:00:37Z</time>
      </trkpt>
      <trkpt lat="42.4097590" lon="-6.9751000">
        <ele>330.4</ele>
        <time>2014-10-01T11:00:38Z</time>
      </trkpt>
      <trkpt lat="42.4097990" lon="-6.9752110">
        <ele>330.5</ele>
        <time>2014-10-01T11:00:39Z</time>
      </trkpt>
      <trkpt lat="42.4098430" lon="-6.9753160">
        <ele>330.5</ele>
        <time>2014-10-01T11:00:40Z</time>
      </trkpt>
      <trkpt lat="42.4098840" lon="-6.9754130">
        <ele>330.6</ele>
        <time>2014-10-01T11:00:41Z</time>
      </trkpt>
      <trkpt lat="42.4099220" lon="-6.9755090">
        <ele>330.7</ele>
        <time>2014-10-01T11:00:42Z</time>
      </trkpt>
      <trkpt lat="42.4099590" lon="-6.9756030">
        <ele>330.8</ele>
        <time>2014-10-01T11:00:43Z</time>
      </trkpt>
      <trkpt lat="42.4099960" lon="-6.9756990">
        <ele>330.9</ele>
        <time>2014-10-01T11:00:44Z</time>
      </trkpt>
      <trkpt lat="42.4100320" lon="-6.9757930">
        <ele>331.0</ele>
        <time>2014-10-01T11:00:45Z</time>
      </trkpt>
      <trkpt lat="42.4100670" lon="-6.9758840">
        <ele>331.1</ele>
        <time>2014-10-01T11:00:46Z</time>
      </trkpt>
      <trkpt lat="42.4101030" lon="-6.9759730">
        <ele>331.2</ele>
        <time>2014-10-01T11:00:47Z</time>
      </trkpt>
      <trkpt lat="42.4101420" lon="-6.9760620">
        <ele>331.2</ele>
        <time>2014-10-01T11:00:48Z</time>
      </trkpt>
      <trkpt lat="42.4101820" lon="-6.9761490">
        <ele>331.2</ele>
        <time>2014-10-01T11:00:49Z</time>
      </trkpt>
      <trkpt lat="42.4102240" lon="-6.9762380">
        <ele>331.2</ele>
        <time>2014-10-01T11:00:50Z</time>
      </trkpt>
      <trkpt lat="42.4102660" lon="-6.9763290">
        <ele>331.1</ele>
        <time>2014-10-01T11:00:51Z</time>
      </trkpt>
      <trkpt lat="42.4103040" lon="-6.9764080">
        <ele>331.1</ele>
        <time>2014-10-01T11:00:52Z</time>
      </trkpt>
      <trkpt lat="42.4103410" lon="-6.9764830">
        <ele>331.1</ele>
        <time>2014-10-01T11:00:53Z</time>
      </trkpt>
      <trkpt lat="42.4103750" lon="-6.9765480">
        <ele>331.1</ele>
        <time>2014-10-01T11:00:54Z</time>
      </trkpt>
      <trkpt lat="42.4104100" lon="-6.9766110">
        <ele>331.1</ele>
        <time>2014-10-01T11:00:55Z</time>
      </trkpt>
      <trkpt lat="42.4104430" lon="-6.9766730">
        <ele>331.1</ele>
        <time>2014-10-01T11:00:56Z</time>
      </trkpt>
      <trkpt lat="42.4104780" lon="-6.9767310">
        <ele>331.1</ele>
        <time>2014-10-01T11:00:57Z</time>
      </trkpt>
      <trkpt lat="42.4105170" lon="-6.9767920">
        <ele>331.1</ele>
        <time>2014-10-01T11:00:58Z</time>
      </trkpt>
      <trkpt lat="42.4105560" lon="-6.9768510">
        <ele>331.1</ele>
        <time>2014-10-01T11:00:59Z</time>
      </trkpt>
      <trkpt lat="42.4106000" lon="-6.9769130">
        <ele>331.1</ele>
        <time>2014-10-01T11:01:00Z</time>
      </trkpt>
      <trkpt lat="42.4106400" lon="-6.9769650">
        <ele>331.1</ele>
        <time>2014-10-01T11:01:01Z</time>
      </trkpt>
      <trkpt lat="42.4106820" lon="-6.9770130">
        <ele>331.1</ele>
        <time>2014-10-01T11:01:02Z</time>
      </trkpt>
      <trkpt lat="42.4107240" lon="-6.9770570">
        <ele>331.0</ele>
        <time>2014-10-01T11:01:03Z</time>
      </trkpt>
      <trkpt lat="42.4107700" lon="-6.9771030">
        <ele>331.0</ele>
        <time>2014-10-01T11:01:04Z</time>
      </trkpt>
      <trkpt lat="42.4108130" lon="-6.9771440">
        <ele>331.0</ele>
        <time>2014-10-01T11:01:05Z</time>
      </trkpt>
      <trkpt lat="42.4108630" lon="-6.9771850">
        <ele>331.0</ele>
        <time>2014-10-01T11:01:06Z</time>
      </trkpt>
      <trkpt lat="42.4109110" lon="-6.9772240">
        <ele>330.9</ele>
        <time>2014-10-01T11:01:07Z</time>
      </trkpt>
      <trkpt lat="42.4109600" lon="-6.9772630">
        <ele>330.9</ele>
        <time>2014-10-01T11:01:08Z</time>
      </trkpt>
      <trkpt lat="42.4110100" lon="-6.9772980">
        <ele>330.8</ele>
        <time>2014-10-01T11:01:09Z</time>
      </trkpt>
      <trkpt lat="42.4110680" lon="-6.9773240">
        <ele>330.8</ele>
        <time>2014-10-01T11:01:10Z</time>
      </trkpt>
      <trkpt lat="42.4111220" lon="-6.9773460">
        <ele>330.7</ele>
        <time>2014-10-01T11:01:11Z</time>
      </trkpt>
      <trkpt lat="42.4111790" lon="-6.9773710">
        <ele>330.7</ele>
        <time>2014-10-01T11:01:12Z</time>
      </trkpt>
      <trkpt lat="42.4112410" lon="-6.9773950">
        <ele>330.6</ele>
        <time>2014-10-01T11:01:13Z</time>
      </trkpt>
      <trkpt lat="42.4113090" lon="-6.9774200">
        <ele>330.6</ele>
        <time>2014-10-01T11:01:14Z</time>
      </trkpt>
      <trkpt lat="42.4113700" lon="-6.9774420">
        <ele>330.5</ele>
        <time>2014-10-01T11:01:15Z</time>
      </trkpt>
      <trkpt lat="42.4114330" lon="-6.9774590">
        <ele>330.5</ele>
        <time>2014-10-01T11:01:16Z</time>
      </trkpt>
      <trkpt lat="42.4115010" lon="-6.9774750">
        <ele>330.4</ele>
        <time>2014-10-01T11:01:17Z</time>
      </trkpt>
      <trkpt lat="42.4115640" lon="-6.9774870">
        <ele>330.3</ele>
        <time>2014-10-01T11:01:18Z</time>
      </trkpt>
      <trkpt lat="42.4116370" lon="-6.9774980">
        <ele>330.2</ele>
        <time>2014-10-01T11:01:19Z</time>
      </trkpt>
      <trkpt lat="42.4117020" lon="-6.9775040">
        <ele>330.1</ele>
        <time>2014-10-01T11:01:20Z</time>
      </trkpt>
      <trkpt lat="42.4117670" lon="-6.9775080">
        <ele>330.1</ele>
        <time>2014-10-01T11:01:21Z</time>
      </trkpt>
      <trkpt lat="42.4118290" lon="-6.9775100">
        <ele>330.0</ele>
        <time>2014-10-01T11:01:22Z</time>
      </trkpt>
      <trkpt lat="42.4118910" lon="-6.9775070">
        <ele>330.0</ele>
        <time>2014-10-01T11:01:23Z</time>
      </trkpt>
      <trkpt lat="42.4119610" lon="-6.9775000">
        <ele>329.9</ele>
        <time>2014-10-01T11:01:24Z</time>
      </trkpt>
      <trkpt lat="42.4120290" lon="-6.9774890">
        <ele>329.9</ele>
        <time>2014-10-01T11:01:25Z</time>
      </trkpt>
      <trkpt lat="42.4120870" lon="-6.9774720">
        <ele>329.8</ele>
        <time>2014-10-01T11:01:26Z</time>
      </trkpt>
      <trkpt lat="42.4121450" lon="-6.9774530">
        <ele>329.7</ele>
        <time>2014-10-01T11:01:27Z</time>
      </trkpt>
      <trkpt lat="42.4121990" lon="-6.9774370">
        <ele>329.7</ele>
        <time>2014-10-01T11:01:28Z</time>
      </trkpt>
      <trkpt lat="42.4122510" lon="-6.9774240">
        <ele>329.6</ele>
        <time>2014-10-01T11:01:29Z</time>
      </trkpt>
      <trkpt lat="42.4123010" lon="-6.9774100">
        <ele>329.6</ele>
        <time>2014-10-01T11:01:30Z</time>
      </trkpt>
      <trkpt lat="42.4123470" lon="-6.9773940">
        <ele>329.6</ele>
        <time>2014-10-01T11:01:31Z</time>
      </trkpt>
      <trkpt lat="42.4123900" lon="-6.9773750">
        <ele>329.5</ele>
        <time>2014-10-01T11:01:32Z</time>
      </trkpt>
      <trkpt lat="42.4124230" lon="-6.9773510">
        <ele>329.5</ele>
        <time>2014-10-01T11:01:33Z</time>
      </trkpt>
      <trkpt lat="42.4124480" lon="-6.9773280">
        <ele>329.5</ele>
        <time>2014-10-01T11:01:34Z</time>
      </trkpt>
      <trkpt lat="42.4124860" lon="-6.9773280">
        <ele>329.5</ele>
        <time>2014-10-01T11:01:36Z</time>
      </trkpt>
      <trkpt lat="42.4124950" lon="-6.9773760">
        <ele>329.5</ele>
        <time>2014-10-01T11:01:38Z</time>
      </trkpt>
      <trkpt lat="42.4124560" lon="-6.9774020">
        <ele>329.5</ele>
        <time>2014-10-01T11:01:40Z</time>
      </trkpt>
      <trkpt lat="42.4124270" lon="-6.9774100">
        <ele>329.6</ele>
        <time>2014-10-01T11:01:41Z</time>
      </trkpt>
      <trkpt lat="42.4123710" lon="-6.9774260">
        <ele>329.6</ele>
        <time>2014-10-01T11:01:43Z</time>
      </trkpt>
      <trkpt lat="42.4123440" lon="-6.9774450">
        <ele>329.6</ele>
        <time>2014-10-01T11:01:44Z</time>
      </trkpt>
      <trkpt lat="42.4123190" lon="-6.9774650">
        <ele>329.6</ele>
        <time>2014-10-01T11:01:45Z</time>
      </trkpt>
      <trkpt lat="42.4122930" lon="-6.9774870">
        <ele>329.6</ele>
        <time>2014-10-01T11:01:46Z</time>
      </trkpt>
      <trkpt lat="42.4122680" lon="-6.9775200">
        <ele>329.5</ele>
        <time>2014-10-01T11:01:47Z</time>
      </trkpt>
      <trkpt lat="42.4122390" lon="-6.9775590">
        <ele>329.4</ele>
        <time>2014-10-01T11:01:48Z</time>
      </trkpt>
      <trkpt lat="42.4122190" lon="-6.9775940">
        <ele>329.4</ele>
        <time>2014-10-01T11:01:49Z</time>
      </trkpt>
      <trkpt lat="42.4121990" lon="-6.9776300">
        <ele>329.3</ele>
        <time>2014-10-01T11:01:50Z</time>
      </trkpt>
      <trkpt lat="42.4121780" lon="-6.9776670">
        <ele>329.3</ele>
        <time>2014-10-01T11:01:51Z</time>
      </trkpt>
      <trkpt lat="42.4121440" lon="-6.9777150">
        <ele>329.1</ele>
        <time>2014-10-01T11:01:52Z</time>
      </trkpt>
      <trkpt lat="42.4120990" lon="-6.9777720">
        <ele>329.0</ele>
        <time>2014-10-01T11:01:53Z</time>
      </trkpt>
      <trkpt lat="42.4120570" lon="-6.9778260">
        <ele>328.9</ele>
        <time>2014-10-01T11:01:54Z</time>
      </trkpt>
      <trkpt lat="42.4120260" lon="-6.9778730">
        <ele>328.8</ele>
        <time>2014-10-01T11:01:55Z</time>
      </trkpt>
      <trkpt lat="42.4120010" lon="-6.9779120">
        <ele>328.8</ele>
        <time>2014-10-01T11:01:56Z</time>
      </trkpt>
      <trkpt lat="42.4119830" lon="-6.9779470">
        <ele>328.8</ele>
        <time>2014-10-01T11:01:57Z</time>
      </trkpt>
      <trkpt lat="42.4119620" lon="-6.9779980">
        <ele>328.7</ele>
        <time>2014-10-01T11:01:59Z</time>
      </trkpt>
      <trkpt lat="42.4119430" lon="-6.9780240">
        <ele>328.7</ele>
        <time>2014-10-01T11:02:00Z</time>
      </trkpt>
      <trkpt lat="42.4119150" lon="-6.9780600">
        <ele>328.7</ele>
        <time>2014-10-01T11:02:02Z</time>
      </trkpt>
      <trkpt lat="42.4118770" lon="-6.9780970">
        <ele>328.7</ele>
        <time>2014-10-01T11:02:04Z</time>
      </trkpt>
      <trkpt lat="42.4118480" lon="-6.9780990">
        <ele>328.6</ele>
        <time>2014-10-01T11:02:07Z</time>
      </trkpt>
      <trkpt lat="42.4118020" lon="-6.9781490">
        <ele>328.6</ele>
        <time>2014-10-01T11:02:11Z</time>
      </trkpt>
      <trkpt lat="42.4117570" lon="-6.9781900">
        <ele>328.6</ele>
        <time>2014-10-01T11:02:13Z</time>
      </trkpt>
      <trkpt lat="42.4117230" lon="-6.9782150">
        <ele>328.6</ele>
        <time>2014-10-01T11:02:14Z</time>
      </trkpt>
      <trkpt lat="42.4116920" lon="-6.9782400">
        <ele>328.7</ele>
        <time>2014-10-01T11:02:15Z</time>
      </trkpt>
      <trkpt lat="42.4116610" lon="-6.9782690">
        <ele>328.7</ele>
        <time>2014-10-01T11:02:16Z</time>
      </trkpt>
      <trkpt lat="42.4116300" lon="-6.9782920">
        <ele>328.7</ele>
        <time>2014-10-01T11:02:17Z</time>
      </trkpt>
      <trkpt lat="42.4115880" lon="-6.9783100">
        <ele>328.8</ele>
        <time>2014-10-01T11:02:19Z</time>
      </trkpt>
      <trkpt lat="42.4114930" lon="-6.9783920">
        <ele>328.9</ele>
        <time>2014-10-01T11:02:24Z</time>
      </trkpt>
      <trkpt lat="42.4114000" lon="-6.9784750">
        <ele>329.2</ele>
        <time>2014-10-01T11:02:28Z</time>
      </trkpt>
      <trkpt lat="42.4113130" lon="-6.9785410">
        <ele>329.4</ele>
        <time>2014-10-01T11:02:30Z</time>
      </trkpt>
      <trkpt lat="42.4112650" lon="-6.9785780">
        <ele>329.5</ele>
        <time>2014-10-01T11:02:31Z</time>
      </trkpt>
      <trkpt lat="42.4112270" lon="-6.9786090">
        <ele>329.7</ele>
        <time>2014-10-01T11:02:32Z</time>
      </trkpt>
      <trkpt lat="42.4111860" lon="-6.9786420">
        <ele>329.8</ele>
        <time>2014-10-01T11:02:33Z</time>
      </trkpt>
      <trkpt lat="42.4111480" lon="-6.9786780">
        <ele>329.9</ele>
        <time>2014-10-01T11:02:34Z</time>
      </trkpt>
      <trkpt lat="42.4111080" lon="-6.9787130">
        <ele>330.1</ele>
        <time>2014-10-01T11:02:35Z</time>
      </trkpt>
      <trkpt lat="42.4110720" lon="-6.9787530">
        <ele>330.2</ele>
        <time>2014-10-01T11:02:36Z</time>
      </trkpt>
      <trkpt lat="42.4110510" lon="-6.9787930">
        <ele>330.3</ele>
        <time>2014-10-01T11:02:37Z</time>
      </trkpt>
      <trkpt lat="42.4110390" lon="-6.9788420">
        <ele>330.4</ele>
        <time>2014-10-01T11:02:39Z</time>
      </trkpt>
      <trkpt lat="42.4110310" lon="-6.9789020">
        <ele>330.4</ele>
        <time>2014-10-01T11:02:41Z</time>
      </trkpt>
      <trkpt lat="42.4110300" lon="-6.9789520">
        <ele>330.4</ele>
        <time>2014-10-01T11:02:42Z</time>
      </trkpt>
      <trkpt lat="42.4110410" lon="-6.9790190">
        <ele>330.4</ele>
        <time>2014-10-01T11:02:44Z</time>
      </trkpt>
      <trkpt lat="42.4110610" lon="-6.9790800">
        <ele>330.4</ele>
        <time>2014-10-01T11:02:46Z</time>
      </trkpt>
      <trkpt lat="42.4110750" lon="-6.9791140">
        <ele>330.4</ele>
        <time>2014-10-01T11:02:47Z</time>
      </trkpt>
      <trkpt lat="42.4110990" lon="-6.9791790">
        <ele>330.4</ele>
        <time>2014-10-01T11:02:49Z</time>
      </trkpt>
      <trkpt lat="42.4111220" lon="-6.9792250">
        <ele>330.4</ele>
        <time>2014-10-01T11:02:51Z</time>
      </trkpt>
      <trkpt lat="42.4111630" lon="-6.9793210">
        <ele>330.4</ele>
        <time>2014-10-01T11:02:59Z</time>
      </trkpt>
      <trkpt lat="42.4111460" lon="-6.9792960">
        <ele>330.4</ele>
        <time>2014-10-01T11:03:18Z</time>
      </trkpt>
      <trkpt lat="42.4111280" lon="-6.9792700">
        <ele>330.4</ele>
        <time>2014-10-01T11:06:54Z</time>
      </trkpt>
      <trkpt lat="42.4111100" lon="-6.9792450">
        <ele>330.4</ele>
        <time>2014-10-01T11:06:55Z</time>
      </trkpt>
      <trkpt lat="42.4110850" lon="-6.9793760">
        <ele>330.5</ele>
        <time>2014-10-01T11:06:56Z</time>
      </trkpt>
      <trkpt lat="42.4111100" lon="-6.9794200">
        <ele>330.5</ele>
        <time>2014-10-01T11:06:57Z</time>
      </trkpt>
      <trkpt lat="42.4111460" lon="-6.9794480">
        <ele>330.5</ele>
        <time>2014-10-01T11:06:59Z</time>
      </trkpt>
      <trkpt lat="42.4111700" lon="-6.9794680">
        <ele>330.5</ele>
        <time>2014-10-01T11:07:02Z</time>
      </trkpt>
      <trkpt lat="42.4111440" lon="-6.9794410">
        <ele>330.5</ele>
        <time>2014-10-01T11:07:13Z</time>
      </trkpt>
      <trkpt lat="42.4111380" lon="-6.9794040">
        <ele>330.5</ele>
        <time>2014-10-01T11:07:17Z</time>
      </trkpt>
      <trkpt lat="42.4110010" lon="-6.9791830">
        <ele>330.6</ele>
        <time>2014-10-01T11:22:02Z</time>
      </trkpt>
      <trkpt lat="42.4110320" lon="-6.9791460">
        <ele>330.6</ele>
        <time>2014-10-01T11:22:09Z</time>
      </trkpt>
      <trkpt lat="42.4110610" lon="-6.9791320">
        <ele>330.6</ele>
        <time>2014-10-01T11:22:10Z</time>
      </trkpt>
      <trkpt lat="42.4110860" lon="-6.9791130">
        <ele>330.6</ele>
        <time>2014-10-01T11:22:11Z</time>
      </trkpt>
      <trkpt lat="42.4111370" lon="-6.9790990">
        <ele>330.6</ele>
        <time>2014-10-01T11:22:13Z</time>
      </trkpt>
      <trkpt lat="42.4111890" lon="-6.9791630">
        <ele>330.6</ele>
        <time>2014-10-01T11:22:15Z</time>
      </trkpt>
      <trkpt lat="42.4112120" lon="-6.9792320">
        <ele>330.6</ele>
        <time>2014-10-01T11:22:29Z</time>
      </trkpt>
      <trkpt lat="42.4112360" lon="-6.9793010">
        <ele>330.6</ele>
        <time>2014-10-01T11:33:26Z</time>
      </trkpt>
      <trkpt lat="42.4112590" lon="-6.9793700">
        <ele>330.6</ele>
        <time>2014-10-01T11:33:28Z</time>
      </trkpt>
      <trkpt lat="42.4112350" lon="-6.9793450">
        <ele>330.6</ele>
        <time>2014-10-01T11:33:35Z</time>
      </trkpt>
      <trkpt lat="42.4112400" lon="-6.9793920">
        <ele>330.6</ele>
        <time>2014-10-01T11:34:02Z</time>
      </trkpt>
      <trkpt lat="42.4112580" lon="-6.9794310">
        <ele>330.6</ele>
        <time>2014-10-01T11:34:04Z</time>
      </trkpt>
      <trkpt lat="42.4112900" lon="-6.9794850">
        <ele>330.6</ele>
        <time>2014-10-01T11:34:06Z</time>
      </trkpt>
      <trkpt lat="42.4113180" lon="-6.9795240">
        <ele>330.6</ele>
        <time>2014-10-01T11:34:07Z</time>
      </trkpt>
      <trkpt lat="42.4113420" lon="-6.9795580">
        <ele>330.6</ele>
        <time>2014-10-01T11:34:08Z</time>
      </trkpt>
      <trkpt lat="42.4113660" lon="-6.9795940">
        <ele>330.6</ele>
        <time>2014-10-01T11:34:09Z</time>
      </trkpt>
      <trkpt lat="42.4113810" lon="-6.9796310">
        <ele>330.6</ele>
        <time>2014-10-01T11:34:10Z</time>
      </trkpt>
      <trkpt lat="42.4113960" lon="-6.9796730">
        <ele>330.6</ele>
        <time>2014-10-01T11:34:11Z</time>
      </trkpt>
      <trkpt lat="42.4114180" lon="-6.9797090">
        <ele>330.6</ele>
        <time>2014-10-01T11:34:12Z</time>
      </trkpt>
      <trkpt lat="42.4114380" lon="-6.9797430">
        <ele>330.6</ele>
        <time>2014-10-01T11:34:13Z</time>
      </trkpt>
      <trkpt lat="42.4114590" lon="-6.9797840">
        <ele>330.6</ele>
        <time>2014-10-01T11:34:14Z</time>
      </trkpt>
      <trkpt lat="42.4114800" lon="-6.9798270">
        <ele>330.6</ele>
        <time>2014-10-01T11:34:15Z</time>
      </trkpt>
      <trkpt lat="42.4115000" lon="-6.9798600">
        <ele>330.6</ele>
        <time>2014-10-01T11:34:16Z</time>
      </trkpt>
      <trkpt lat="42.4115160" lon="-6.9798940">
        <ele>330.6</ele>
        <time>2014-10-01T11:34:17Z</time>
      </trkpt>
      <trkpt lat="42.4115430" lon="-6.9799240">
        <ele>330.6</ele>
        <time>2014-10-01T11:34:19Z</time>
      </trkpt>
      <trkpt lat="42.4115880" lon="-6.9799240">
        <ele>330.6</ele>
        <time>2014-10-01T11:34:21Z</time>
      </trkpt>
      <trkpt lat="42.4116350" lon="-6.9799130">
        <ele>330.6</ele>
        <time>2014-10-01T11:34:23Z</time>
      </trkpt>
      <trkpt lat="42.4116790" lon="-6.9799080">
        <ele>330.6</ele>
        <time>2014-10-01T11:34:25Z</time>
      </trkpt>
      <trkpt lat="42.4117110" lon="-6.9799200">
        <ele>330.5</ele>
        <time>2014-10-01T11:34:26Z</time>
      </trkpt>
      <trkpt lat="42.4117380" lon="-6.9799470">
        <ele>330.4</ele>
        <time>2014-10-01T11:34:27Z</time>
      </trkpt>
      <trkpt lat="42.4117660" lon="-6.9799740">
        <ele>330.3</ele>
        <time>2014-10-01T11:34:28Z</time>
      </trkpt>
      <trkpt lat="42.4117880" lon="-6.9800030">
        <ele>330.2</ele>
        <time>2014-10-01T11:34:29Z</time>
      </trkpt>
      <trkpt lat="42.4118190" lon="-6.9800430">
        <ele>330.1</ele>
        <time>2014-10-01T11:34:30Z</time>
      </trkpt>
      <trkpt lat="42.4118450" lon="-6.9800830">
        <ele>329.9</ele>
        <time>2014-10-01T11:34:31Z</time>
      </trkpt>
      <trkpt lat="42.4118690" lon="-6.9801240">
        <ele>329.9</ele>
        <time>2014-10-01T11:34:32Z</time>
      </trkpt>
      <trkpt lat="42.4118910" lon="-6.9801570">
        <ele>329.8</ele>
        <time>2014-10-01T11:34:33Z</time>
      </trkpt>
      <trkpt lat="42.4119260" lon="-6.9801980">
        <ele>329.7</ele>
        <time>2014-10-01T11:34:34Z</time>
      </trkpt>
      <trkpt lat="42.4119630" lon="-6.9802400">
        <ele>329.7</ele>
        <time>2014-10-01T11:34:35Z</time>
      </trkpt>
      <trkpt lat="42.4119950" lon="-6.9802910">
        <ele>329.7</ele>
        <time>2014-10-01T11:34:36Z</time>
      </trkpt>
      <trkpt lat="42.4120310" lon="-6.9803460">
        <ele>329.7</ele>
        <time>2014-10-01T11:34:37Z</time>
      </trkpt>
      <trkpt lat="42.4120640" lon="-6.9804000">
        <ele>329.7</ele>
        <time>2014-10-01T11:34:38Z</time>
      </trkpt>
      <trkpt lat="42.4120840" lon="-6.9804640">
        <ele>329.7</ele>
        <time>2014-10-01T11:34:39Z</time>
      </trkpt>
      <trkpt lat="42.4121030" lon="-6.9805280">
        <ele>329.8</ele>
        <time>2014-10-01T11:34:40Z</time>
      </trkpt>
      <trkpt lat="42.4121160" lon="-6.9805870">
        <ele>329.8</ele>
        <time>2014-10-01T11:34:41Z</time>
      </trkpt>
      <trkpt lat="42.4121390" lon="-6.9806370">
        <ele>329.9</ele>
        <time>2014-10-01T11:34:42Z</time>
      </trkpt>
      <trkpt lat="42.4121640" lon="-6.9806930">
        <ele>329.9</ele>
        <time>2014-10-01T11:34:43Z</time>
      </trkpt>
      <trkpt lat="42.4121780" lon="-6.9807490">
        <ele>330.0</ele>
        <time>2014-10-01T11:34:44Z</time>
      </trkpt>
      <trkpt lat="42.4121780" lon="-6.9808070">
        <ele>330.1</ele>
        <time>2014-10-01T11:34:45Z</time>
      </trkpt>
      <trkpt lat="42.4121770" lon="-6.9808730">
        <ele>330.2</ele>
        <time>2014-10-01T11:34:46Z</time>
      </trkpt>
      <trkpt lat="42.4121730" lon="-6.9809360">
        <ele>330.3</ele>
        <time>2014-10-01T11:34:47Z</time>
      </trkpt>
      <trkpt lat="42.4121650" lon="-6.9809920">
        <ele>330.4</ele>
        <time>2014-10-01T11:34:48Z</time>
      </trkpt>
      <trkpt lat="42.4121570" lon="-6.9810470">
        <ele>330.5</ele>
        <time>2014-10-01T11:34:49Z</time>
      </trkpt>
      <trkpt lat="42.4121480" lon="-6.9811110">
        <ele>330.6</ele>
        <time>2014-10-01T11:34:50Z</time>
      </trkpt>
      <trkpt lat="42.4121450" lon="-6.9811730">
        <ele>330.8</ele>
        <time>2014-10-01T11:34:51Z</time>
      </trkpt>
      <trkpt lat="42.4121500" lon="-6.9812260">
        <ele>330.9</ele>
        <time>2014-10-01T11:34:52Z</time>
      </trkpt>
      <trkpt lat="42.4121560" lon="-6.9812800">
        <ele>331.1</ele>
        <time>2014-10-01T11:34:53Z</time>
      </trkpt>
      <trkpt lat="42.4121610" lon="-6.9813330">
        <ele>331.2</ele>
        <time>2014-10-01T11:34:54Z</time>
      </trkpt>
      <trkpt lat="42.4121710" lon="-6.9814000">
        <ele>331.4</ele>
        <time>2014-10-01T11:34:55Z</time>
      </trkpt>
      <trkpt lat="42.4121770" lon="-6.9814660">
        <ele>331.6</ele>
        <time>2014-10-01T11:34:56Z</time>
      </trkpt>
      <trkpt lat="42.4121830" lon="-6.9815270">
        <ele>331.8</ele>
        <time>2014-10-01T11:34:57Z</time>
      </trkpt>
      <trkpt lat="42.4121880" lon="-6.9815820">
        <ele>332.0</ele>
        <time>2014-10-01T11:34:58Z</time>
      </trkpt>
      <trkpt lat="42.4121930" lon="-6.9816380">
        <ele>332.3</ele>
        <time>2014-10-01T11:34:59Z</time>
      </trkpt>
      <trkpt lat="42.4122050" lon="-6.9816890">
        <ele>332.5</ele>
        <time>2014-10-01T11:35:00Z</time>
      </trkpt>
      <trkpt lat="42.4122150" lon="-6.9817470">
        <ele>332.7</ele>
        <time>2014-10-01T11:35:01Z</time>
      </trkpt>
      <trkpt lat="42.4122200" lon="-6.9818000">
        <ele>332.9</ele>
        <time>2014-10-01T11:35:02Z</time>
      </trkpt>
      <trkpt lat="42.4122260" lon="-6.9818480">
        <ele>333.1</ele>
        <time>2014-10-01T11:35:03Z</time>
      </trkpt>
      <trkpt lat="42.4122300" lon="-6.9818960">
        <ele>333.3</ele>
        <time>2014-10-01T11:35:04Z</time>
      </trkpt>
      <trkpt lat="42.4122340" lon="-6.9819470">
        <ele>333.5</ele>
        <time>2014-10-01T11:35:05Z</time>
      </trkpt>
      <trkpt lat="42.4122360" lon="-6.9819930">
        <ele>333.7</ele>
        <time>2014-10-01T11:35:06Z</time>
      </trkpt>
      <trkpt lat="42.4122360" lon="-6.9820320">
        <ele>333.8</ele>
        <time>2014-10-01T11:35:07Z</time>
      </trkpt>
      <trkpt lat="42.4122370" lon="-6.9820710">
        <ele>334.0</ele>
        <time>2014-10-01T11:35:08Z</time>
      </trkpt>
      <trkpt lat="42.4122340" lon="-6.9821200">
        <ele>334.2</ele>
        <time>2014-10-01T11:35:09Z</time>
      </trkpt>
      <trkpt lat="42.4122250" lon="-6.9821710">
        <ele>334.4</ele>
        <time>2014-10-01T11:35:10Z</time>
      </trkpt>
      <trkpt lat="42.4122100" lon="-6.9822410">
        <ele>334.6</ele>
        <time>2014-10-01T11:35:11Z</time>
      </trkpt>
      <trkpt lat="42.4121960" lon="-6.9822960">
        <ele>334.8</ele>
        <time>2014-10-01T11:35:12Z</time>
      </trkpt>
      <trkpt lat="42.4121820" lon="-6.9823420">
        <ele>334.9</ele>
        <time>2014-10-01T11:35:13Z</time>
      </trkpt>
      <trkpt lat="42.4121690" lon="-6.9823850">
        <ele>335.1</ele>
        <time>2014-10-01T11:35:14Z</time>
      </trkpt>
      <trkpt lat="42.4121550" lon="-6.9824330">
        <ele>335.2</ele>
        <time>2014-10-01T11:35:15Z</time>
      </trkpt>
      <trkpt lat="42.4121430" lon="-6.9824860">
        <ele>335.3</ele>
        <time>2014-10-01T11:35:16Z</time>
      </trkpt>
      <trkpt lat="42.4121310" lon="-6.9825330">
        <ele>335.4</ele>
        <time>2014-10-01T11:35:17Z</time>
      </trkpt>
      <trkpt lat="42.4121190" lon="-6.9825790">
        <ele>335.6</ele>
        <time>2014-10-01T11:35:18Z</time>
      </trkpt>
      <trkpt lat="42.4121070" lon="-6.9826260">
        <ele>335.7</ele>
        <time>2014-10-01T11:35:19Z</time>
      </trkpt>
      <trkpt lat="42.4120940" lon="-6.9826730">
        <ele>335.8</ele>
        <time>2014-10-01T11:35:20Z</time>
      </trkpt>
      <trkpt lat="42.4120830" lon="-6.9827210">
        <ele>336.0</ele>
        <time>2014-10-01T11:35:21Z</time>
      </trkpt>
      <trkpt lat="42.4120720" lon="-6.9827670">
        <ele>336.1</ele>
        <time>2014-10-01T11:35:22Z</time>
      </trkpt>
      <trkpt lat="42.4120630" lon="-6.9828110">
        <ele>336.3</ele>
        <time>2014-10-01T11:35:23Z</time>
      </trkpt>
      <trkpt lat="42.4120480" lon="-6.9828570">
        <ele>336.4</ele>
        <time>2014-10-01T11:35:24Z</time>
      </trkpt>
      <trkpt lat="42.4120310" lon="-6.9829050">
        <ele>336.6</ele>
        <time>2014-10-01T11:35:25Z</time>
      </trkpt>
      <trkpt lat="42.4120150" lon="-6.9829540">
        <ele>336.7</ele>
        <time>2014-10-01T11:35:26Z</time>
      </trkpt>
      <trkpt lat="42.4120040" lon="-6.9830050">
        <ele>336.8</ele>
        <time>2014-10-01T11:35:27Z</time>
      </trkpt>
      <trkpt lat="42.4119960" lon="-6.9830540">
        <ele>336.9</ele>
        <time>2014-10-01T11:35:28Z</time>
      </trkpt>
      <trkpt lat="42.4119920" lon="-6.9831110">
        <ele>337.0</ele>
        <time>2014-10-01T11:35:29Z</time>
      </trkpt>
      <trkpt lat="42.4119920" lon="-6.9831660">
        <ele>337.1</ele>
        <time>2014-10-01T11:35:30Z</time>
      </trkpt>
      <trkpt lat="42.4119930" lon="-6.9832170">
        <ele>337.1</ele>
        <time>2014-10-01T11:35:31Z</time>
      </trkpt>
      <trkpt lat="42.4119980" lon="-6.9832660">
        <ele>337.1</ele>
        <time>2014-10-01T11:35:32Z</time>
      </trkpt>
      <trkpt lat="42.4120010" lon="-6.9833230">
        <ele>337.0</ele>
        <time>2014-10-01T11:35:33Z</time>
      </trkpt>
      <trkpt lat="42.4120040" lon="-6.9833950">
        <ele>336.9</ele>
        <time>2014-10-01T11:35:34Z</time>
      </trkpt>
      <trkpt lat="42.4120030" lon="-6.9834790">
        <ele>336.7</ele>
        <time>2014-10-01T11:35:35Z</time>
      </trkpt>
      <trkpt lat="42.4120020" lon="-6.9835610">
        <ele>336.5</ele>
        <time>2014-10-01T11:35:36Z</time>
      </trkpt>
      <trkpt lat="42.4120030" lon="-6.9836410">
        <ele>336.3</ele>
        <time>2014-10-01T11:35:37Z</time>
      </trkpt>
      <trkpt lat="42.4120080" lon="-6.9837180">
        <ele>336.0</ele>
        <time>2014-10-01T11:35:38Z</time>
      </trkpt>
      <trkpt lat="42.4120150" lon="-6.9837910">
        <ele>335.8</ele>
        <time>2014-10-01T11:35:39Z</time>
      </trkpt>
      <trkpt lat="42.4120210" lon="-6.9838780">
        <ele>335.5</ele>
        <time>2014-10-01T11:35:40Z</time>
      </trkpt>
      <trkpt lat="42.4120230" lon="-6.9839790">
        <ele>335.1</ele>
        <time>2014-10-01T11:35:41Z</time>
      </trkpt>
      <trkpt lat="42.4120240" lon="-6.9840850">
        <ele>334.9</ele>
        <time>2014-10-01T11:35:42Z</time>
      </trkpt>
      <trkpt lat="42.4120210" lon="-6.9841900">
        <ele>334.7</ele>
        <time>2014-10-01T11:35:43Z</time>
      </trkpt>
      <trkpt lat="42.4120160" lon="-6.9843040">
        <ele>334.5</ele>
        <time>2014-10-01T11:35:44Z</time>
      </trkpt>
      <trkpt lat="42.4120080" lon="-6.9844080">
        <ele>334.5</ele>
        <time>2014-10-01T11:35:45Z</time>
      </trkpt>
      <trkpt lat="42.4119990" lon="-6.9844960">
        <ele>334.5</ele>
        <time>2014-10-01T11:35:46Z</time>
      </trkpt>
      <trkpt lat="42.4119930" lon="-6.9845670">
        <ele>334.5</ele>
        <time>2014-10-01T11:35:47Z</time>
      </trkpt>
      <trkpt lat="42.4119870" lon="-6.9846330">
        <ele>334.5</ele>
        <time>2014-10-01T11:35:48Z</time>
      </trkpt>
      <trkpt lat="42.4119810" lon="-6.9847030">
        <ele>334.6</ele>
        <time>2014-10-01T11:35:49Z</time>
      </trkpt>
      <trkpt lat="42.4119740" lon="-6.9847700">
        <ele>334.7</ele>
        <time>2014-10-01T11:35:50Z</time>
      </trkpt>
      <trkpt lat="42.4119690" lon="-6.9848320">
        <ele>334.8</ele>
        <time>2014-10-01T11:35:51Z</time>
      </trkpt>
      <trkpt lat="42.4119620" lon="-6.9849000">
        <ele>335.0</ele>
        <time>2014-10-01T11:35:52Z</time>
      </trkpt>
      <trkpt lat="42.4119570" lon="-6.9849600">
        <ele>335.2</ele>
        <time>2014-10-01T11:35:53Z</time>
      </trkpt>
      <trkpt lat="42.4119520" lon="-6.9850180">
        <ele>335.3</ele>
        <time>2014-10-01T11:35:54Z</time>
      </trkpt>
      <trkpt lat="42.4119460" lon="-6.9850810">
        <ele>335.5</ele>
        <time>2014-10-01T11:35:55Z</time>
      </trkpt>
      <trkpt lat="42.4119410" lon="-6.9851420">
        <ele>335.7</ele>
        <time>2014-10-01T11:35:56Z</time>
      </trkpt>
      <trkpt lat="42.4119340" lon="-6.9852100">
        <ele>336.0</ele>
        <time>2014-10-01T11:35:57Z</time>
      </trkpt>
      <trkpt lat="42.4119260" lon="-6.9852670">
        <ele>336.1</ele>
        <time>2014-10-01T11:35:58Z</time>
      </trkpt>
      <trkpt lat="42.4119180" lon="-6.9853180">
        <ele>336.3</ele>
        <time>2014-10-01T11:35:59Z</time>
      </trkpt>
      <trkpt lat="42.4119080" lon="-6.9853740">
        <ele>336.4</ele>
        <time>2014-10-01T11:36:00Z</time>
      </trkpt>
      <trkpt lat="42.4118970" lon="-6.9854300">
        <ele>336.5</ele>
        <time>2014-10-01T11:36:01Z</time>
      </trkpt>
      <trkpt lat="42.4118870" lon="-6.9854860">
        <ele>336.7</ele>
        <time>2014-10-01T11:36:02Z</time>
      </trkpt>
      <trkpt lat="42.4118780" lon="-6.9855400">
        <ele>336.8</ele>
        <time>2014-10-01T11:36:03Z</time>
      </trkpt>
      <trkpt lat="42.4118670" lon="-6.9856060">
        <ele>336.9</ele>
        <time>2014-10-01T11:36:04Z</time>
      </trkpt>
      <trkpt lat="42.4118560" lon="-6.9856830">
        <ele>337.1</ele>
        <time>2014-10-01T11:36:05Z</time>
      </trkpt>
      <trkpt lat="42.4118450" lon="-6.9857610">
        <ele>337.2</ele>
        <time>2014-10-01T11:36:06Z</time>
      </trkpt>
      <trkpt lat="42.4118360" lon="-6.9858380">
        <ele>337.4</ele>
        <time>2014-10-01T11:36:07Z</time>
      </trkpt>
      <trkpt lat="42.4118260" lon="-6.9859150">
        <ele>337.6</ele>
        <time>2014-10-01T11:36:08Z</time>
      </trkpt>
      <trkpt lat="42.4118170" lon="-6.9859830">
        <ele>337.8</ele>
        <time>2014-10-01T11:36:09Z</time>
      </trkpt>
      <trkpt lat="42.4118080" lon="-6.9860580">
        <ele>338.0</ele>
        <time>2014-10-01T11:36:10Z</time>
      </trkpt>
      <trkpt lat="42.4118010" lon="-6.9861220">
        <ele>338.2</ele>
        <time>2014-10-01T11:36:11Z</time>
      </trkpt>
      <trkpt lat="42.4117920" lon="-6.9861890">
        <ele>338.4</ele>
        <time>2014-10-01T11:36:12Z</time>
      </trkpt>
      <trkpt lat="42.4117830" lon="-6.9862550">
        <ele>338.6</ele>
        <time>2014-10-01T11:36:13Z</time>
      </trkpt>
      <trkpt lat="42.4117750" lon="-6.9863170">
        <ele>338.7</ele>
        <time>2014-10-01T11:36:14Z</time>
      </trkpt>
      <trkpt lat="42.4117710" lon="-6.9863780">
        <ele>338.8</ele>
        <time>2014-10-01T11:36:15Z</time>
      </trkpt>
      <trkpt lat="42.4117680" lon="-6.9864480">
        <ele>339.0</ele>
        <time>2014-10-01T11:36:16Z</time>
      </trkpt>
      <trkpt lat="42.4117670" lon="-6.9865180">
        <ele>339.1</ele>
        <time>2014-10-01T11:36:17Z</time>
      </trkpt>
      <trkpt lat="42.4117650" lon="-6.9865870">
        <ele>339.3</ele>
        <time>2014-10-01T11:36:18Z</time>
      </trkpt>
      <trkpt lat="42.4117660" lon="-6.9866570">
        <ele>339.4</ele>
        <time>2014-10-01T11:36:19Z</time>
      </trkpt>
      <trkpt lat="42.4117690" lon="-6.9867250">
        <ele>339.6</ele>
        <time>2014-10-01T11:36:20Z</time>
      </trkpt>
      <trkpt lat="42.4117720" lon="-6.9867950">
        <ele>339.8</ele>
        <time>2014-10-01T11:36:21Z</time>
      </trkpt>
      <trkpt lat="42.4117750" lon="-6.9868660">
        <ele>340.0</ele>
        <time>2014-10-01T11:36:22Z</time>
      </trkpt>
      <trkpt lat="42.4117750" lon="-6.9869340">
        <ele>340.3</ele>
        <time>2014-10-01T11:36:23Z</time>
      </trkpt>
      <trkpt lat="42.4117720" lon="-6.9870030">
        <ele>340.5</ele>
        <time>2014-10-01T11:36:24Z</time>
      </trkpt>
      <trkpt lat="42.4117670" lon="-6.9870730">
        <ele>340.8</ele>
        <time>2014-10-01T11:36:25Z</time>
      </trkpt>
      <trkpt lat="42.4117590" lon="-6.9871420">
        <ele>341.0</ele>
        <time>2014-10-01T11:36:26Z</time>
      </trkpt>
      <trkpt lat="42.4117510" lon="-6.9872070">
        <ele>341.2</ele>
        <time>2014-10-01T11:36:27Z</time>
      </trkpt>
      <trkpt lat="42.4117440" lon="-6.9872640">
        <ele>341.4</ele>
        <time>2014-10-01T11:36:28Z</time>
      </trkpt>
      <trkpt lat="42.4117390" lon="-6.9873090">
        <ele>341.5</ele>
        <time>2014-10-01T11:36:29Z</time>
      </trkpt>
      <trkpt lat="42.4117330" lon="-6.9873670">
        <ele>341.6</ele>
        <time>2014-10-01T11:36:30Z</time>
      </trkpt>
      <trkpt lat="42.4117260" lon="-6.9874170">
        <ele>341.7</ele>
        <time>2014-10-01T11:36:31Z</time>
      </trkpt>
      <trkpt lat="42.4117170" lon="-6.9874770">
        <ele>341.8</ele>
        <time>2014-10-01T11:36:32Z</time>
      </trkpt>
      <trkpt lat="42.4117060" lon="-6.9875410">
        <ele>341.8</ele>
        <time>2014-10-01T11:36:33Z</time>
      </trkpt>
      <trkpt lat="42.4116960" lon="-6.9876060">
        <ele>341.8</ele>
        <time>2014-10-01T11:36:34Z</time>
      </trkpt>
      <trkpt lat="42.4116860" lon="-6.9876690">
        <ele>341.9</ele>
        <time>2014-10-01T11:36:35Z</time>
      </trkpt>
      <trkpt lat="42.4116730" lon="-6.9877380">
        <ele>341.8</ele>
        <time>2014-10-01T11:36:36Z</time>
      </trkpt>
      <trkpt lat="42.4116600" lon="-6.9878080">
        <ele>341.8</ele>
        <time>2014-10-01T11:36:37Z</time>
      </trkpt>
      <trkpt lat="42.4116450" lon="-6.9878790">
        <ele>341.8</ele>
        <time>2014-10-01T11:36:38Z</time>
      </trkpt>
      <trkpt lat="42.4116290" lon="-6.9879470">
        <ele>341.7</ele>
        <time>2014-10-01T11:36:39Z</time>
      </trkpt>
      <trkpt lat="42.4116120" lon="-6.9880100">
        <ele>341.7</ele>
        <time>2014-10-01T11:36:40Z</time>
      </trkpt>
      <trkpt lat="42.4115950" lon="-6.9880740">
        <ele>341.6</ele>
        <time>2014-10-01T11:36:41Z</time>
      </trkpt>
      <trkpt lat="42.4115780" lon="-6.9881390">
        <ele>341.6</ele>
        <time>2014-10-01T11:36:42Z</time>
      </trkpt>
      <trkpt lat="42.4115600" lon="-6.9882060">
        <ele>341.5</ele>
        <time>2014-10-01T11:36:43Z</time>
      </trkpt>
      <trkpt lat="42.4115430" lon="-6.9882660">
        <ele>341.4</ele>
        <time>2014-10-01T11:36:44Z</time>
      </trkpt>
      <trkpt lat="42.4115240" lon="-6.9883260">
        <ele>341.2</ele>
        <time>2014-10-01T11:36:45Z</time>
      </trkpt>
      <trkpt lat="42.4115040" lon="-6.9883890">
        <ele>341.0</ele>
        <time>2014-10-01T11:36:46Z</time>
      </trkpt>
      <trkpt lat="42.4114850" lon="-6.9884490">
        <ele>340.7</ele>
        <time>2014-10-01T11:36:47Z</time>
      </trkpt>
      <trkpt lat="42.4114660" lon="-6.9885130">
        <ele>340.3</ele>
        <time>2014-10-01T11:36:48Z</time>
      </trkpt>
      <trkpt lat="42.4114460" lon="-6.9885900">
        <ele>339.8</ele>
        <time>2014-10-01T11:36:49Z</time>
      </trkpt>
      <trkpt lat="42.4114230" lon="-6.9886770">
        <ele>339.2</ele>
        <time>2014-10-01T11:36:50Z</time>
      </trkpt>
      <trkpt lat="42.4114000" lon="-6.9887690">
        <ele>338.9</ele>
        <time>2014-10-01T11:36:51Z</time>
      </trkpt>
      <trkpt lat="42.4113700" lon="-6.9888660">
        <ele>338.5</ele>
        <time>2014-10-01T11:36:52Z</time>
      </trkpt>
      <trkpt lat="42.4113360" lon="-6.9889650">
        <ele>338.3</ele>
        <time>2014-10-01T11:36:53Z</time>
      </trkpt>
      <trkpt lat="42.4112970" lon="-6.9890690">
        <ele>338.0</ele>
        <time>2014-10-01T11:36:54Z</time>
      </trkpt>
      <trkpt lat="42.4112560" lon="-6.9891740">
        <ele>337.7</ele>
        <time>2014-10-01T11:36:55Z</time>
      </trkpt>
      <trkpt lat="42.4112130" lon="-6.9892750">
        <ele>337.5</ele>
        <time>2014-10-01T11:36:56Z</time>
      </trkpt>
      <trkpt lat="42.4111660" lon="-6.9893810">
        <ele>337.2</ele>
        <time>2014-10-01T11:36:57Z</time>
      </trkpt>
      <trkpt lat="42.4111210" lon="-6.9894800">
        <ele>337.1</ele>
        <time>2014-10-01T11:36:58Z</time>
      </trkpt>
      <trkpt lat="42.4110710" lon="-6.9895820">
        <ele>336.9</ele>
        <time>2014-10-01T11:36:59Z</time>
      </trkpt>
      <trkpt lat="42.4110190" lon="-6.9896870">
        <ele>336.7</ele>
        <time>2014-10-01T11:37:00Z</time>
      </trkpt>
      <trkpt lat="42.4109690" lon="-6.9897890">
        <ele>336.5</ele>
        <time>2014-10-01T11:37:01Z</time>
      </trkpt>
      <trkpt lat="42.4109210" lon="-6.9898950">
        <ele>336.3</ele>
        <time>2014-10-01T11:37:02Z</time>
      </trkpt>
      <trkpt lat="42.4108780" lon="-6.9899990">
        <ele>336.0</ele>
        <time>2014-10-01T11:37:03Z</time>
      </trkpt>
      <trkpt lat="42.4108420" lon="-6.9900990">
        <ele>335.8</ele>
        <time>2014-10-01T11:37:04Z</time>
      </trkpt>
      <trkpt lat="42.4108090" lon="-6.9902010">
        <ele>335.6</ele>
        <time>2014-10-01T11:37:05Z</time>
      </trkpt>
      <trkpt lat="42.4107780" lon="-6.9903060">
        <ele>335.1</ele>
        <time>2014-10-01T11:37:06Z</time>
      </trkpt>
      <trkpt lat="42.4107460" lon="-6.9904130">
        <ele>334.5</ele>
        <time>2014-10-01T11:37:07Z</time>
      </trkpt>
      <trkpt lat="42.4107160" lon="-6.9905190">
        <ele>333.9</ele>
        <time>2014-10-01T11:37:08Z</time>
      </trkpt>
      <trkpt lat="42.4106870" lon="-6.9906240">
        <ele>333.3</ele>
        <time>2014-10-01T11:37:09Z</time>
      </trkpt>
      <trkpt lat="42.4106560" lon="-6.9907360">
        <ele>332.8</ele>
        <time>2014-10-01T11:37:10Z</time>
      </trkpt>
      <trkpt lat="42.4106200" lon="-6.9908520">
        <ele>332.4</ele>
        <time>2014-10-01T11:37:11Z</time>
      </trkpt>
      <trkpt lat="42.4105770" lon="-6.9909740">
        <ele>332.0</ele>
        <time>2014-10-01T11:37:12Z</time>
      </trkpt>
      <trkpt lat="42.4105320" lon="-6.9910950">
        <ele>331.8</ele>
        <time>2014-10-01T11:37:13Z</time>
      </trkpt>
      <trkpt lat="42.4104870" lon="-6.9912160">
        <ele>331.7</ele>
        <time>2014-10-01T11:37:14Z</time>
      </trkpt>
      <trkpt lat="42.4104420" lon="-6.9913270">
        <ele>331.7</ele>
        <time>2014-10-01T11:37:15Z</time>
      </trkpt>
      <trkpt lat="42.4103950" lon="-6.9914400">
        <ele>331.8</ele>
        <time>2014-10-01T11:37:16Z</time>
      </trkpt>
      <trkpt lat="42.4103450" lon="-6.9915510">
        <ele>332.0</ele>
        <time>2014-10-01T11:37:17Z</time>
      </trkpt>
      <trkpt lat="42.4102970" lon="-6.9916550">
        <ele>332.2</ele>
        <time>2014-10-01T11:37:18Z</time>
      </trkpt>
      <trkpt lat="42.4102530" lon="-6.9917580">
        <ele>332.6</ele>
        <time>2014-10-01T11:37:19Z</time>
      </trkpt>
      <trkpt lat="42.4102160" lon="-6.9918580">
        <ele>333.0</ele>
        <time>2014-10-01T11:37:20Z</time>
      </trkpt>
      <trkpt lat="42.4101840" lon="-6.9919500">
        <ele>333.3</ele>
        <time>2014-10-01T11:37:21Z</time>
      </trkpt>
      <trkpt lat="42.4101550" lon="-6.9920430">
        <ele>333.6</ele>
        <time>2014-10-01T11:37:22Z</time>
      </trkpt>
      <trkpt lat="42.4101330" lon="-6.9921250">
        <ele>333.8</ele>
        <time>2014-10-01T11:37:23Z</time>
      </trkpt>
      <trkpt lat="42.4101090" lon="-6.9922000">
        <ele>333.9</ele>
        <time>2014-10-01T11:37:24Z</time>
      </trkpt>
      <trkpt lat="42.4100740" lon="-6.9922660">
        <ele>333.9</ele>
        <time>2014-10-01T11:37:25Z</time>
      </trkpt>
      <trkpt lat="42.4100330" lon="-6.9923330">
        <ele>333.9</ele>
        <time>2014-10-01T11:37:26Z</time>
      </trkpt>
      <trkpt lat="42.4099920" lon="-6.9923920">
        <ele>333.9</ele>
        <time>2014-10-01T11:37:27Z</time>
      </trkpt>
      <trkpt lat="42.4099450" lon="-6.9924530">
        <ele>333.9</ele>
        <time>2014-10-01T11:37:28Z</time>
      </trkpt>
      <trkpt lat="42.4098970" lon="-6.9925170">
        <ele>333.9</ele>
        <time>2014-10-01T11:37:29Z</time>
      </trkpt>
      <trkpt lat="42.4098490" lon="-6.9925880">
        <ele>334.1</ele>
        <time>2014-10-01T11:37:30Z</time>
      </trkpt>
      <trkpt lat="42.4098050" lon="-6.9926670">
        <ele>334.3</ele>
        <time>2014-10-01T11:37:31Z</time>
      </trkpt>
      <trkpt lat="42.4097660" lon="-6.9927480">
        <ele>334.5</ele>
        <time>2014-10-01T11:37:32Z</time>
      </trkpt>
      <trkpt lat="42.4097430" lon="-6.9928350">
        <ele>334.7</ele>
        <time>2014-10-01T11:37:33Z</time>
      </trkpt>
      <trkpt lat="42.4097240" lon="-6.9929230">
        <ele>334.9</ele>
        <time>2014-10-01T11:37:34Z</time>
      </trkpt>
      <trkpt lat="42.4097110" lon="-6.9930020">
        <ele>334.9</ele>
        <time>2014-10-01T11:37:35Z</time>
      </trkpt>
      <trkpt lat="42.4097010" lon="-6.9930760">
        <ele>335.0</ele>
        <time>2014-10-01T11:37:36Z</time>
      </trkpt>
      <trkpt lat="42.4096890" lon="-6.9931610">
        <ele>335.0</ele>
        <time>2014-10-01T11:37:37Z</time>
      </trkpt>
      <trkpt lat="42.4096840" lon="-6.9932400">
        <ele>334.9</ele>
        <time>2014-10-01T11:37:38Z</time>
      </trkpt>
      <trkpt lat="42.4096810" lon="-6.9933210">
        <ele>334.8</ele>
        <time>2014-10-01T11:37:39Z</time>
      </trkpt>
      <trkpt lat="42.4096800" lon="-6.9934140">
        <ele>334.6</ele>
        <time>2014-10-01T11:37:40Z</time>
      </trkpt>
      <trkpt lat="42.4096820" lon="-6.9935090">
        <ele>334.4</ele>
        <time>2014-10-01T11:37:41Z</time>
      </trkpt>
      <trkpt lat="42.4096860" lon="-6.9936100">
        <ele>334.1</ele>
        <time>2014-10-01T11:37:42Z</time>
      </trkpt>
      <trkpt lat="42.4096930" lon="-6.9937030">
        <ele>333.6</ele>
        <time>2014-10-01T11:37:43Z</time>
      </trkpt>
      <trkpt lat="42.4097030" lon="-6.9937950">
        <ele>333.1</ele>
        <time>2014-10-01T11:37:44Z</time>
      </trkpt>
      <trkpt lat="42.4097090" lon="-6.9938840">
        <ele>332.6</ele>
        <time>2014-10-01T11:37:45Z</time>
      </trkpt>
      <trkpt lat="42.4096990" lon="-6.9939750">
        <ele>332.1</ele>
        <time>2014-10-01T11:37:46Z</time>
      </trkpt>
      <trkpt lat="42.4096850" lon="-6.9940720">
        <ele>331.5</ele>
        <time>2014-10-01T11:37:47Z</time>
      </trkpt>
      <trkpt lat="42.4096660" lon="-6.9941760">
        <ele>330.9</ele>
        <time>2014-10-01T11:37:48Z</time>
      </trkpt>
      <trkpt lat="42.4096410" lon="-6.9942870">
        <ele>330.3</ele>
        <time>2014-10-01T11:37:49Z</time>
      </trkpt>
      <trkpt lat="42.4096160" lon="-6.9944040">
        <ele>329.7</ele>
        <time>2014-10-01T11:37:50Z</time>
      </trkpt>
      <trkpt lat="42.4095930" lon="-6.9945350">
        <ele>329.3</ele>
        <time>2014-10-01T11:37:51Z</time>
      </trkpt>
      <trkpt lat="42.4095760" lon="-6.9946710">
        <ele>329.0</ele>
        <time>2014-10-01T11:37:52Z</time>
      </trkpt>
      <trkpt lat="42.4095670" lon="-6.9948050">
        <ele>328.9</ele>
        <time>2014-10-01T11:37:53Z</time>
      </trkpt>
      <trkpt lat="42.4095650" lon="-6.9949490">
        <ele>328.9</ele>
        <time>2014-10-01T11:37:54Z</time>
      </trkpt>
      <trkpt lat="42.4095700" lon="-6.9950940">
        <ele>328.9</ele>
        <time>2014-10-01T11:37:55Z</time>
      </trkpt>
      <trkpt lat="42.4095810" lon="-6.9952210">
        <ele>328.8</ele>
        <time>2014-10-01T11:37:56Z</time>
      </trkpt>
      <trkpt lat="42.4095960" lon="-6.9953310">
        <ele>328.7</ele>
        <time>2014-10-01T11:37:57Z</time>
      </trkpt>
      <trkpt lat="42.4096110" lon="-6.9954400">
        <ele>328.6</ele>
        <time>2014-10-01T11:37:58Z</time>
      </trkpt>
      <trkpt lat="42.4096220" lon="-6.9955530">
        <ele>328.4</ele>
        <time>2014-10-01T11:37:59Z</time>
      </trkpt>
      <trkpt lat="42.4096280" lon="-6.9956650">
        <ele>328.2</ele>
        <time>2014-10-01T11:38:00Z</time>
      </trkpt>
      <trkpt lat="42.4096330" lon="-6.9957780">
        <ele>327.8</ele>
        <time>2014-10-01T11:38:01Z</time>
      </trkpt>
      <trkpt lat="42.4096350" lon="-6.9958930">
        <ele>327.4</ele>
        <time>2014-10-01T11:38:02Z</time>
      </trkpt>
      <trkpt lat="42.4096320" lon="-6.9960170">
        <ele>327.0</ele>
        <time>2014-10-01T11:38:03Z</time>
      </trkpt>
      <trkpt lat="42.4096210" lon="-6.9961410">
        <ele>326.6</ele>
        <time>2014-10-01T11:38:04Z</time>
      </trkpt>
      <trkpt lat="42.4095860" lon="-6.9962640">
        <ele>326.3</ele>
        <time>2014-10-01T11:38:05Z</time>
      </trkpt>
      <trkpt lat="42.4095470" lon="-6.9963730">
        <ele>326.1</ele>
        <time>2014-10-01T11:38:06Z</time>
      </trkpt>
      <trkpt lat="42.4095040" lon="-6.9964900">
        <ele>326.0</ele>
        <time>2014-10-01T11:38:07Z</time>
      </trkpt>
      <trkpt lat="42.4094650" lon="-6.9965990">
        <ele>326.0</ele>
        <time>2014-10-01T11:38:08Z</time>
      </trkpt>
      <trkpt lat="42.4094200" lon="-6.9967130">
        <ele>326.1</ele>
        <time>2014-10-01T11:38:09Z</time>
      </trkpt>
      <trkpt lat="42.4093770" lon="-6.9968190">
        <ele>326.2</ele>
        <time>2014-10-01T11:38:10Z</time>
      </trkpt>
      <trkpt lat="42.4093340" lon="-6.9969250">
        <ele>326.3</ele>
        <time>2014-10-01T11:38:11Z</time>
      </trkpt>
      <trkpt lat="42.4092880" lon="-6.9970260">
        <ele>326.4</ele>
        <time>2014-10-01T11:38:12Z</time>
      </trkpt>
      <trkpt lat="42.4092410" lon="-6.9971240">
        <ele>326.5</ele>
        <time>2014-10-01T11:38:13Z</time>
      </trkpt>
      <trkpt lat="42.4091950" lon="-6.9972250">
        <ele>326.6</ele>
        <time>2014-10-01T11:38:14Z</time>
      </trkpt>
      <trkpt lat="42.4091550" lon="-6.9973250">
        <ele>326.4</ele>
        <time>2014-10-01T11:38:15Z</time>
      </trkpt>
      <trkpt lat="42.4091190" lon="-6.9974310">
        <ele>326.1</ele>
        <time>2014-10-01T11:38:16Z</time>
      </trkpt>
      <trkpt lat="42.4091060" lon="-6.9975420">
        <ele>325.6</ele>
        <time>2014-10-01T11:38:17Z</time>
      </trkpt>
      <trkpt lat="42.4091120" lon="-6.9976590">
        <ele>325.0</ele>
        <time>2014-10-01T11:38:18Z</time>
      </trkpt>
      <trkpt lat="42.4091450" lon="-6.9977810">
        <ele>324.3</ele>
        <time>2014-10-01T11:38:19Z</time>
      </trkpt>
      <trkpt lat="42.4091970" lon="-6.9978850">
        <ele>323.7</ele>
        <time>2014-10-01T11:38:20Z</time>
      </trkpt>
      <trkpt lat="42.4092610" lon="-6.9979840">
        <ele>323.3</ele>
        <time>2014-10-01T11:38:21Z</time>
      </trkpt>
      <trkpt lat="42.4093310" lon="-6.9980760">
        <ele>323.0</ele>
        <time>2014-10-01T11:38:22Z</time>
      </trkpt>
      <trkpt lat="42.4094040" lon="-6.9981700">
        <ele>322.8</ele>
        <time>2014-10-01T11:38:23Z</time>
      </trkpt>
      <trkpt lat="42.4094550" lon="-6.9982840">
        <ele>322.7</ele>
        <time>2014-10-01T11:38:24Z</time>
      </trkpt>
      <trkpt lat="42.4094980" lon="-6.9984030">
        <ele>322.7</ele>
        <time>2014-10-01T11:38:25Z</time>
      </trkpt>
      <trkpt lat="42.4095090" lon="-6.9985270">
        <ele>322.8</ele>
        <time>2014-10-01T11:38:26Z</time>
      </trkpt>
      <trkpt lat="42.4095160" lon="-6.9986460">
        <ele>322.8</ele>
        <time>2014-10-01T11:38:27Z</time>
      </trkpt>
      <trkpt lat="42.4095190" lon="-6.9987650">
        <ele>322.8</ele>
        <time>2014-10-01T11:38:28Z</time>
      </trkpt>
      <trkpt lat="42.4095200" lon="-6.9988860">
        <ele>322.8</ele>
        <time>2014-10-01T11:38:29Z</time>
      </trkpt>
      <trkpt lat="42.4095190" lon="-6.9990100">
        <ele>322.9</ele>
        <time>2014-10-01T11:38:30Z</time>
      </trkpt>
      <trkpt lat="42.4095200" lon="-6.9991280">
        <ele>322.9</ele>
        <time>2014-10-01T11:38:31Z</time>
      </trkpt>
      <trkpt lat="42.4095240" lon="-6.9992410">
        <ele>323.0</ele>
        <time>2014-10-01T11:38:32Z</time>
      </trkpt>
      <trkpt lat="42.4095260" lon="-6.9993550">
        <ele>323.1</ele>
        <time>2014-10-01T11:38:33Z</time>
      </trkpt>
      <trkpt lat="42.4095270" lon="-6.9994680">
        <ele>323.2</ele>
        <time>2014-10-01T11:38:34Z</time>
      </trkpt>
      <trkpt lat="42.4095270" lon="-6.9995810">
        <ele>323.2</ele>
        <time>2014-10-01T11:38:35Z</time>
      </trkpt>
      <trkpt lat="42.4095270" lon="-6.9996940">
        <ele>323.2</ele>
        <time>2014-10-01T11:38:36Z</time>
      </trkpt>
      <trkpt lat="42.4095260" lon="-6.9998030">
        <ele>323.4</ele>
        <time>2014-10-01T11:38:37Z</time>
      </trkpt>
      <trkpt lat="42.4095270" lon="-6.9999080">
        <ele>323.6</ele>
        <time>2014-10-01T11:38:38Z</time>
      </trkpt>
      <trkpt lat="42.4095280" lon="-7.0000120">
        <ele>323.7</ele>
        <time>2014-10-01T11:38:39Z</time>
      </trkpt>
      <trkpt lat="42.4095290" lon="-7.0001170">
        <ele>323.9</ele>
        <time>2014-10-01T11:38:40Z</time>
      </trkpt>
      <trkpt lat="42.4095470" lon="-7.0002140">
        <ele>324.0</ele>
        <time>2014-10-01T11:38:41Z</time>
      </trkpt>
      <trkpt lat="42.4095690" lon="-7.0003100">
        <ele>324.2</ele>
        <time>2014-10-01T11:38:42Z</time>
      </trkpt>
      <trkpt lat="42.4095930" lon="-7.0004020">
        <ele>324.3</ele>
        <time>2014-10-01T11:38:43Z</time>
      </trkpt>
      <trkpt lat="42.4096150" lon="-7.0004910">
        <ele>324.5</ele>
        <time>2014-10-01T11:38:44Z</time>
      </trkpt>
      <trkpt lat="42.4096380" lon="-7.0005820">
        <ele>324.7</ele>
        <time>2014-10-01T11:38:45Z</time>
      </trkpt>
      <trkpt lat="42.4096570" lon="-7.0006730">
        <ele>324.9</ele>
        <time>2014-10-01T11:38:46Z</time>
      </trkpt>
      <trkpt lat="42.4096760" lon="-7.0007620">
        <ele>325.1</ele>
        <time>2014-10-01T11:38:47Z</time>
      </trkpt>
      <trkpt lat="42.4096930" lon="-7.0008450">
        <ele>325.2</ele>
        <time>2014-10-01T11:38:48Z</time>
      </trkpt>
      <trkpt lat="42.4097100" lon="-7.0009270">
        <ele>325.2</ele>
        <time>2014-10-01T11:38:49Z</time>
      </trkpt>
      <trkpt lat="42.4097280" lon="-7.0010130">
        <ele>325.1</ele>
        <time>2014-10-01T11:38:50Z</time>
      </trkpt>
      <trkpt lat="42.4097480" lon="-7.0011070">
        <ele>324.9</ele>
        <time>2014-10-01T11:38:51Z</time>
      </trkpt>
      <trkpt lat="42.4097670" lon="-7.0012080">
        <ele>324.7</ele>
        <time>2014-10-01T11:38:52Z</time>
      </trkpt>
      <trkpt lat="42.4097840" lon="-7.0013160">
        <ele>324.3</ele>
        <time>2014-10-01T11:38:53Z</time>
      </trkpt>
      <trkpt lat="42.4097950" lon="-7.0014250">
        <ele>324.0</ele>
        <time>2014-10-01T11:38:54Z</time>
      </trkpt>
      <trkpt lat="42.4098010" lon="-7.0015330">
        <ele>323.6</ele>
        <time>2014-10-01T11:38:55Z</time>
      </trkpt>
      <trkpt lat="42.4098000" lon="-7.0016480">
        <ele>323.3</ele>
        <time>2014-10-01T11:38:56Z</time>
      </trkpt>
      <trkpt lat="42.4097930" lon="-7.0017690">
        <ele>323.0</ele>
        <time>2014-10-01T11:38:57Z</time>
      </trkpt>
      <trkpt lat="42.4097800" lon="-7.0018900">
        <ele>322.7</ele>
        <time>2014-10-01T11:38:58Z</time>
      </trkpt>
      <trkpt lat="42.4097680" lon="-7.0020130">
        <ele>322.4</ele>
        <time>2014-10-01T11:38:59Z</time>
      </trkpt>
      <trkpt lat="42.4097600" lon="-7.0021390">
        <ele>322.2</ele>
        <time>2014-10-01T11:39:00Z</time>
      </trkpt>
      <trkpt lat="42.4097600" lon="-7.0022650">
        <ele>321.9</ele>
        <time>2014-10-01T11:39:01Z</time>
      </trkpt>
      <trkpt lat="42.4097700" lon="-7.0023890">
        <ele>321.6</ele>
        <time>2014-10-01T11:39:02Z</time>
      </trkpt>
      <trkpt lat="42.4097990" lon="-7.0025060">
        <ele>321.4</ele>
        <time>2014-10-01T11:39:03Z</time>
      </trkpt>
      <trkpt lat="42.4098300" lon="-7.0026210">
        <ele>321.2</ele>
        <time>2014-10-01T11:39:04Z</time>
      </trkpt>
      <trkpt lat="42.4098640" lon="-7.0027370">
        <ele>321.0</ele>
        <time>2014-10-01T11:39:05Z</time>
      </trkpt>
      <trkpt lat="42.4098990" lon="-7.0028470">
        <ele>320.8</ele>
        <time>2014-10-01T11:39:06Z</time>
      </trkpt>
      <trkpt lat="42.4099360" lon="-7.0029590">
        <ele>320.6</ele>
        <time>2014-10-01T11:39:07Z</time>
      </trkpt>
      <trkpt lat="42.4099770" lon="-7.0030720">
        <ele>320.5</ele>
        <time>2014-10-01T11:39:08Z</time>
      </trkpt>
      <trkpt lat="42.4100170" lon="-7.0031840">
        <ele>320.4</ele>
        <time>2014-10-01T11:39:09Z</time>
      </trkpt>
      <trkpt lat="42.4100570" lon="-7.0032940">
        <ele>320.3</ele>
        <time>2014-10-01T11:39:10Z</time>
      </trkpt>
      <trkpt lat="42.4100960" lon="-7.0034050">
        <ele>320.3</ele>
        <time>2014-10-01T11:39:11Z</time>
      </trkpt>
      <trkpt lat="42.4101120" lon="-7.0035170">
        <ele>320.2</ele>
        <time>2014-10-01T11:39:12Z</time>
      </trkpt>
      <trkpt lat="42.4101250" lon="-7.0036210">
        <ele>320.1</ele>
        <time>2014-10-01T11:39:13Z</time>
      </trkpt>
      <trkpt lat="42.4101340" lon="-7.0037380">
        <ele>320.0</ele>
        <time>2014-10-01T11:39:14Z</time>
      </trkpt>
      <trkpt lat="42.4101390" lon="-7.0038560">
        <ele>319.8</ele>
        <time>2014-10-01T11:39:15Z</time>
      </trkpt>
      <trkpt lat="42.4101430" lon="-7.0039650">
        <ele>319.7</ele>
        <time>2014-10-01T11:39:16Z</time>
      </trkpt>
      <trkpt lat="42.4101480" lon="-7.0040840">
        <ele>319.5</ele>
        <time>2014-10-01T11:39:17Z</time>
      </trkpt>
      <trkpt lat="42.4101520" lon="-7.0042050">
        <ele>319.2</ele>
        <time>2014-10-01T11:39:18Z</time>
      </trkpt>
      <trkpt lat="42.4101560" lon="-7.0043290">
        <ele>318.9</ele>
        <time>2014-10-01T11:39:19Z</time>
      </trkpt>
      <trkpt lat="42.4101540" lon="-7.0044510">
        <ele>318.8</ele>
        <time>2014-10-01T11:39:20Z</time>
      </trkpt>
      <trkpt lat="42.4101490" lon="-7.0045710">
        <ele>318.6</ele>
        <time>2014-10-01T11:39:21Z</time>
      </trkpt>
      <trkpt lat="42.4101400" lon="-7.0046920">
        <ele>318.3</ele>
        <time>2014-10-01T11:39:22Z</time>
      </trkpt>
      <trkpt lat="42.4101300" lon="-7.0048140">
        <ele>318.1</ele>
        <time>2014-10-01T11:39:23Z</time>
      </trkpt>
      <trkpt lat="42.4101150" lon="-7.0049370">
        <ele>317.9</ele>
        <time>2014-10-01T11:39:24Z</time>
      </trkpt>
      <trkpt lat="42.4101010" lon="-7.0050630">
        <ele>317.8</ele>
        <time>2014-10-01T11:39:25Z</time>
      </trkpt>
      <trkpt lat="42.4100910" lon="-7.0051940">
        <ele>317.7</ele>
        <time>2014-10-01T11:39:26Z</time>
      </trkpt>
      <trkpt lat="42.4100860" lon="-7.0053260">
        <ele>317.7</ele>
        <time>2014-10-01T11:39:27Z</time>
      </trkpt>
      <trkpt lat="42.4100870" lon="-7.0054530">
        <ele>317.6</ele>
        <time>2014-10-01T11:39:28Z</time>
      </trkpt>
      <trkpt lat="42.4101120" lon="-7.0055620">
        <ele>317.6</ele>
        <time>2014-10-01T11:39:29Z</time>
      </trkpt>
      <trkpt lat="42.4101380" lon="-7.0056640">
        <ele>317.5</ele>
        <time>2014-10-01T11:39:30Z</time>
      </trkpt>
      <trkpt lat="42.4101680" lon="-7.0057640">
        <ele>317.4</ele>
        <time>2014-10-01T11:39:31Z</time>
      </trkpt>
      <trkpt lat="42.4102010" lon="-7.0058560">
        <ele>317.3</ele>
        <time>2014-10-01T11:39:32Z</time>
      </trkpt>
      <trkpt lat="42.4102350" lon="-7.0059330">
        <ele>317.3</ele>
        <time>2014-10-01T11:39:33Z</time>
      </trkpt>
      <trkpt lat="42.4102780" lon="-7.0059940">
        <ele>317.3</ele>
        <time>2014-10-01T11:39:34Z</time>
      </trkpt>
      <trkpt lat="42.4103210" lon="-7.0060520">
        <ele>317.2</ele>
        <time>2014-10-01T11:39:35Z</time>
      </trkpt>
      <trkpt lat="42.4103580" lon="-7.0060930">
        <ele>317.2</ele>
        <time>2014-10-01T11:39:36Z</time>
      </trkpt>
      <trkpt lat="42.4103880" lon="-7.0061240">
        <ele>317.1</ele>
        <time>2014-10-01T11:39:37Z</time>
      </trkpt>
      <trkpt lat="42.4104120" lon="-7.0061510">
        <ele>317.1</ele>
        <time>2014-10-01T11:39:38Z</time>
      </trkpt>
      <trkpt lat="42.4104550" lon="-7.0061940">
        <ele>317.0</ele>
        <time>2014-10-01T11:39:40Z</time>
      </trkpt>
      <trkpt lat="42.4105000" lon="-7.0062340">
        <ele>317.0</ele>
        <time>2014-10-01T11:39:42Z</time>
      </trkpt>
      <trkpt lat="42.4105250" lon="-7.0062580">
        <ele>317.0</ele>
        <time>2014-10-01T11:39:43Z</time>
      </trkpt>
      <trkpt lat="42.4105500" lon="-7.0062820">
        <ele>317.0</ele>
        <time>2014-10-01T11:39:44Z</time>
      </trkpt>
      <trkpt lat="42.4105770" lon="-7.0063080">
        <ele>316.9</ele>
        <time>2014-10-01T11:39:45Z</time>
      </trkpt>
      <trkpt lat="42.4106030" lon="-7.0063310">
        <ele>316.9</ele>
        <time>2014-10-01T11:39:46Z</time>
      </trkpt>
      <trkpt lat="42.4106300" lon="-7.0063530">
        <ele>316.9</ele>
        <time>2014-10-01T11:39:47Z</time>
      </trkpt>
      <trkpt lat="42.4106600" lon="-7.0063730">
        <ele>316.9</ele>
        <time>2014-10-01T11:39:48Z</time>
      </trkpt>
      <trkpt lat="42.4106920" lon="-7.0063940">
        <ele>316.9</ele>
        <time>2014-10-01T11:39:49Z</time>
      </trkpt>
      <trkpt lat="42.4107230" lon="-7.0064150">
        <ele>316.8</ele>
        <time>2014-10-01T11:39:50Z</time>
      </trkpt>
      <trkpt lat="42.4107540" lon="-7.0064370">
        <ele>316.8</ele>
        <time>2014-10-01T11:39:51Z</time>
      </trkpt>
      <trkpt lat="42.4107870" lon="-7.0064590">
        <ele>316.8</ele>
        <time>2014-10-01T11:39:52Z</time>
      </trkpt>
      <trkpt lat="42.4108200" lon="-7.0064810">
        <ele>316.8</ele>
        <time>2014-10-01T11:39:53Z</time>
      </trkpt>
      <trkpt lat="42.4108510" lon="-7.0064980">
        <ele>316.7</ele>
        <time>2014-10-01T11:39:54Z</time>
      </trkpt>
      <trkpt lat="42.4108830" lon="-7.0065120">
        <ele>316.7</ele>
        <time>2014-10-01T11:39:55Z</time>
      </trkpt>
      <trkpt lat="42.4109130" lon="-7.0065210">
        <ele>316.7</ele>
        <time>2014-10-01T11:39:56Z</time>
      </trkpt>
      <trkpt lat="42.4109420" lon="-7.0065290">
        <ele>316.6</ele>
        <time>2014-10-01T11:39:57Z</time>
      </trkpt>
      <trkpt lat="42.4109710" lon="-7.0065400">
        <ele>316.6</ele>
        <time>2014-10-01T11:39:58Z</time>
      </trkpt>
      <trkpt lat="42.4109990" lon="-7.0065510">
        <ele>316.6</ele>
        <time>2014-10-01T11:39:59Z</time>
      </trkpt>
      <trkpt lat="42.4110440" lon="-7.0065680">
        <ele>316.5</ele>
        <time>2014-10-01T11:40:01Z</time>
      </trkpt>
      <trkpt lat="42.4110820" lon="-7.0065840">
        <ele>316.5</ele>
        <time>2014-10-01T11:40:03Z</time>
      </trkpt>
      <trkpt lat="42.4111220" lon="-7.0066000">
        <ele>316.5</ele>
        <time>2014-10-01T11:40:05Z</time>
      </trkpt>
      <trkpt lat="42.4111650" lon="-7.0066210">
        <ele>316.4</ele>
        <time>2014-10-01T11:40:07Z</time>
      </trkpt>
      <trkpt lat="42.4111900" lon="-7.0066350">
        <ele>316.4</ele>
        <time>2014-10-01T11:40:08Z</time>
      </trkpt>
      <trkpt lat="42.4112190" lon="-7.0066510">
        <ele>316.4</ele>
        <time>2014-10-01T11:40:09Z</time>
      </trkpt>
      <trkpt lat="42.4112520" lon="-7.0066740">
        <ele>316.4</ele>
        <time>2014-10-01T11:40:10Z</time>
      </trkpt>
      <trkpt lat="42.4112840" lon="-7.0067030">
        <ele>316.4</ele>
        <time>2014-10-01T11:40:11Z</time>
      </trkpt>
      <trkpt lat="42.4113140" lon="-7.0067340">
        <ele>316.3</ele>
        <time>2014-10-01T11:40:12Z</time>
      </trkpt>
      <trkpt lat="42.4113420" lon="-7.0067680">
        <ele>316.3</ele>
        <time>2014-10-01T11:40:13Z</time>
      </trkpt>
      <trkpt lat="42.4113680" lon="-7.0068170">
        <ele>316.3</ele>
        <time>2014-10-01T11:40:14Z</time>
      </trkpt>
      <trkpt lat="42.4113950" lon="-7.0068680">
        <ele>316.3</ele>
        <time>2014-10-01T11:40:15Z</time>
      </trkpt>
      <trkpt lat="42.4114210" lon="-7.0069230">
        <ele>316.3</ele>
        <time>2014-10-01T11:40:16Z</time>
      </trkpt>
      <trkpt lat="42.4114390" lon="-7.0069910">
        <ele>316.3</ele>
        <time>2014-10-01T11:40:17Z</time>
      </trkpt>
      <trkpt lat="42.4114540" lon="-7.0070530">
        <ele>316.2</ele>
        <time>2014-10-01T11:40:18Z</time>
      </trkpt>
      <trkpt lat="42.4114670" lon="-7.0071250">
        <ele>316.2</ele>
        <time>2014-10-01T11:40:19Z</time>
      </trkpt>
      <trkpt lat="42.4114800" lon="-7.0072000">
        <ele>316.3</ele>
        <time>2014-10-01T11:40:20Z</time>
      </trkpt>
      <trkpt lat="42.4114880" lon="-7.0072820">
        <ele>316.2</ele>
        <time>2014-10-01T11:40:21Z</time>
      </trkpt>
      <trkpt lat="42.4114940" lon="-7.0073650">
        <ele>316.2</ele>
        <time>2014-10-01T11:40:22Z</time>
      </trkpt>
      <trkpt lat="42.4114970" lon="-7.0074510">
        <ele>316.2</ele>
        <time>2014-10-01T11:40:23Z</time>
      </trkpt>
      <trkpt lat="42.4114980" lon="-7.0075400">
        <ele>316.1</ele>
        <time>2014-10-01T11:40:24Z</time>
      </trkpt>
      <trkpt lat="42.4115000" lon="-7.0076290">
        <ele>316.1</ele>
        <time>2014-10-01T11:40:25Z</time>
      </trkpt>
      <trkpt lat="42.4115020" lon="-7.0077180">
        <ele>316.1</ele>
        <time>2014-10-01T11:40:26Z</time>
      </trkpt>
      <trkpt lat="42.4115030" lon="-7.0078090">
        <ele>316.1</ele>
        <time>2014-10-01T11:40:27Z</time>
      </trkpt>
      <trkpt lat="42.4115050" lon="-7.0078990">
        <ele>316.0</ele>
        <time>2014-10-01T11:40:28Z</time>
      </trkpt>
      <trkpt lat="42.4115050" lon="-7.0079900">
        <ele>316.0</ele>
        <time>2014-10-01T11:40:29Z</time>
      </trkpt>
      <trkpt lat="42.4115070" lon="-7.0080820">
        <ele>315.9</ele>
        <time>2014-10-01T11:40:30Z</time>
      </trkpt>
      <trkpt lat="42.4115070" lon="-7.0081770">
        <ele>315.9</ele>
        <time>2014-10-01T11:40:31Z</time>
      </trkpt>
      <trkpt lat="42.4115090" lon="-7.0082740">
        <ele>315.9</ele>
        <time>2014-10-01T11:40:32Z</time>
      </trkpt>
      <trkpt lat="42.4115140" lon="-7.0083700">
        <ele>315.9</ele>
        <time>2014-10-01T11:40:33Z</time>
      </trkpt>
      <trkpt lat="42.4115190" lon="-7.0084660">
        <ele>315.9</ele>
        <time>2014-10-01T11:40:34Z</time>
      </trkpt>
      <trkpt lat="42.4115240" lon="-7.0085630">
        <ele>315.8</ele>
        <time>2014-10-01T11:40:35Z</time>
      </trkpt>
      <trkpt lat="42.4115280" lon="-7.0086590">
        <ele>315.8</ele>
        <time>2014-10-01T11:40:36Z</time>
      </trkpt>
      <trkpt lat="42.4115300" lon="-7.0087550">
        <ele>315.8</ele>
        <time>2014-10-01T11:40:37Z</time>
      </trkpt>
      <trkpt lat="42.4115320" lon="-7.0088520">
        <ele>315.8</ele>
        <time>2014-10-01T11:40:38Z</time>
      </trkpt>
      <trkpt lat="42.4115310" lon="-7.0089490">
        <ele>315.8</ele>
        <time>2014-10-01T11:40:39Z</time>
      </trkpt>
      <trkpt lat="42.4115310" lon="-7.0090490">
        <ele>315.8</ele>
        <time>2014-10-01T11:40:40Z</time>
      </trkpt>
      <trkpt lat="42.4115330" lon="-7.0091470">
        <ele>315.7</ele>
        <time>2014-10-01T11:40:41Z</time>
      </trkpt>
      <trkpt lat="42.4115350" lon="-7.0092450">
        <ele>315.7</ele>
        <time>2014-10-01T11:40:42Z</time>
      </trkpt>
      <trkpt lat="42.4115370" lon="-7.0093420">
        <ele>315.7</ele>
        <time>2014-10-01T11:40:43Z</time>
      </trkpt>
      <trkpt lat="42.4115390" lon="-7.0094380">
        <ele>315.7</ele>
        <time>2014-10-01T11:40:44Z</time>
      </trkpt>
      <trkpt lat="42.4115360" lon="-7.0095340">
        <ele>315.6</ele>
        <time>2014-10-01T11:40:45Z</time>
      </trkpt>
      <trkpt lat="42.4115300" lon="-7.0096280">
        <ele>315.6</ele>
        <time>2014-10-01T11:40:46Z</time>
      </trkpt>
      <trkpt lat="42.4115210" lon="-7.0097230">
        <ele>315.6</ele>
        <time>2014-10-01T11:40:47Z</time>
      </trkpt>
      <trkpt lat="42.4115100" lon="-7.0098190">
        <ele>315.6</ele>
        <time>2014-10-01T11:40:48Z</time>
      </trkpt>
      <trkpt lat="42.4114960" lon="-7.0099140">
        <ele>315.6</ele>
        <time>2014-10-01T11:40:49Z</time>
      </trkpt>
      <trkpt lat="42.4114790" lon="-7.0100060">
        <ele>315.6</ele>
        <time>2014-10-01T11:40:50Z</time>
      </trkpt>
      <trkpt lat="42.4114610" lon="-7.0100960">
        <ele>315.6</ele>
        <time>2014-10-01T11:40:51Z</time>
      </trkpt>
      <trkpt lat="42.4114390" lon="-7.0101900">
        <ele>315.5</ele>
        <time>2014-10-01T11:40:52Z</time>
      </trkpt>
      <trkpt lat="42.4114170" lon="-7.0102790">
        <ele>315.5</ele>
        <time>2014-10-01T11:40:53Z</time>
      </trkpt>
      <trkpt lat="42.4113960" lon="-7.0103670">
        <ele>315.5</ele>
        <time>2014-10-01T11:40:54Z</time>
      </trkpt>
      <trkpt lat="42.4113730" lon="-7.0104580">
        <ele>315.5</ele>
        <time>2014-10-01T11:40:55Z</time>
      </trkpt>
      <trkpt lat="42.4113510" lon="-7.0105500">
        <ele>315.5</ele>
        <time>2014-10-01T11:40:56Z</time>
      </trkpt>
      <trkpt lat="42.4113280" lon="-7.0106400">
        <ele>315.5</ele>
        <time>2014-10-01T11:40:57Z</time>
      </trkpt>
      <trkpt lat="42.4113080" lon="-7.0107260">
        <ele>315.5</ele>
        <time>2014-10-01T11:40:58Z</time>
      </trkpt>
      <trkpt lat="42.4112880" lon="-7.0108090">
        <ele>315.5</ele>
        <time>2014-10-01T11:40:59Z</time>
      </trkpt>
      <trkpt lat="42.4112720" lon="-7.0108860">
        <ele>315.5</ele>
        <time>2014-10-01T11:41:00Z</time>
      </trkpt>
      <trkpt lat="42.4112610" lon="-7.0109610">
        <ele>315.5</ele>
        <time>2014-10-01T11:41:01Z</time>
      </trkpt>
      <trkpt lat="42.4112550" lon="-7.0110310">
        <ele>315.5</ele>
        <time>2014-10-01T11:41:02Z</time>
      </trkpt>
      <trkpt lat="42.4112490" lon="-7.0110910">
        <ele>315.5</ele>
        <time>2014-10-01T11:41:03Z</time>
      </trkpt>
      <trkpt lat="42.4112260" lon="-7.0111450">
        <ele>315.1</ele>
        <time>2014-10-01T11:41:04Z</time>
      </trkpt>
      <trkpt lat="42.4112040" lon="-7.0111930">
        <ele>315.1</ele>
        <time>2014-10-01T11:41:05Z</time>
      </trkpt>
      <trkpt lat="42.4111760" lon="-7.0112470">
        <ele>315.0</ele>
        <time>2014-10-01T11:41:06Z</time>
      </trkpt>
      <trkpt lat="42.4111490" lon="-7.0113030">
        <ele>315.0</ele>
        <time>2014-10-01T11:41:07Z</time>
      </trkpt>
      <trkpt lat="42.4111220" lon="-7.0113640">
        <ele>315.0</ele>
        <time>2014-10-01T11:41:08Z</time>
      </trkpt>
      <trkpt lat="42.4110980" lon="-7.0114250">
        <ele>314.9</ele>
        <time>2014-10-01T11:41:09Z</time>
      </trkpt>
      <trkpt lat="42.4110750" lon="-7.0114920">
        <ele>314.9</ele>
        <time>2014-10-01T11:41:10Z</time>
      </trkpt>
      <trkpt lat="42.4110520" lon="-7.0115670">
        <ele>314.9</ele>
        <time>2014-10-01T11:41:11Z</time>
      </trkpt>
      <trkpt lat="42.4110290" lon="-7.0116470">
        <ele>314.9</ele>
        <time>2014-10-01T11:41:12Z</time>
      </trkpt>
      <trkpt lat="42.4110080" lon="-7.0117270">
        <ele>314.8</ele>
        <time>2014-10-01T11:41:13Z</time>
      </trkpt>
      <trkpt lat="42.4109870" lon="-7.0118050">
        <ele>314.8</ele>
        <time>2014-10-01T11:41:14Z</time>
      </trkpt>
      <trkpt lat="42.4109650" lon="-7.0118880">
        <ele>314.8</ele>
        <time>2014-10-01T11:41:15Z</time>
      </trkpt>
      <trkpt lat="42.4109430" lon="-7.0119710">
        <ele>314.8</ele>
        <time>2014-10-01T11:41:16Z</time>
      </trkpt>
      <trkpt lat="42.4109250" lon="-7.0120480">
        <ele>314.8</ele>
        <time>2014-10-01T11:41:17Z</time>
      </trkpt>
      <trkpt lat="42.4109080" lon="-7.0121280">
        <ele>314.7</ele>
        <time>2014-10-01T11:41:18Z</time>
      </trkpt>
      <trkpt lat="42.4108900" lon="-7.0122120">
        <ele>314.7</ele>
        <time>2014-10-01T11:41:19Z</time>
      </trkpt>
      <trkpt lat="42.4108730" lon="-7.0123020">
        <ele>314.7</ele>
        <time>2014-10-01T11:41:20Z</time>
      </trkpt>
      <trkpt lat="42.4108560" lon="-7.0123930">
        <ele>314.6</ele>
        <time>2014-10-01T11:41:21Z</time>
      </trkpt>
      <trkpt lat="42.4108440" lon="-7.0124850">
        <ele>314.6</ele>
        <time>2014-10-01T11:41:22Z</time>
      </trkpt>
      <trkpt lat="42.4108340" lon="-7.0125780">
        <ele>314.6</ele>
        <time>2014-10-01T11:41:23Z</time>
      </trkpt>
      <trkpt lat="42.4108240" lon="-7.0126720">
        <ele>314.6</ele>
        <time>2014-10-01T11:41:24Z</time>
      </trkpt>
      <trkpt lat="42.4108160" lon="-7.0127640">
        <ele>314.6</ele>
        <time>2014-10-01T11:41:25Z</time>
      </trkpt>
      <trkpt lat="42.4108080" lon="-7.0128540">
        <ele>314.5</ele>
        <time>2014-10-01T11:41:26Z</time>
      </trkpt>
      <trkpt lat="42.4107980" lon="-7.0129440">
        <ele>314.5</ele>
        <time>2014-10-01T11:41:27Z</time>
      </trkpt>
      <trkpt lat="42.4107880" lon="-7.0130340">
        <ele>314.5</ele>
        <time>2014-10-01T11:41:28Z</time>
      </trkpt>
      <trkpt lat="42.4107800" lon="-7.0131240">
        <ele>314.5</ele>
        <time>2014-10-01T11:41:29Z</time>
      </trkpt>
      <trkpt lat="42.4107730" lon="-7.0132130">
        <ele>314.5</ele>
        <time>2014-10-01T11:41:30Z</time>
      </trkpt>
      <trkpt lat="42.4107680" lon="-7.0133070">
        <ele>314.5</ele>
        <time>2014-10-01T11:41:31Z</time>
      </trkpt>
      <trkpt lat="42.4107650" lon="-7.0133990">
        <ele>314.4</ele>
        <time>2014-10-01T11:41:32Z</time>
      </trkpt>
      <trkpt lat="42.4107630" lon="-7.0134860">
        <ele>314.4</ele>
        <time>2014-10-01T11:41:33Z</time>
      </trkpt>
      <trkpt lat="42.4107650" lon="-7.0135650">
        <ele>314.4</ele>
        <time>2014-10-01T11:41:34Z</time>
      </trkpt>
      <trkpt lat="42.4107660" lon="-7.0136450">
        <ele>314.3</ele>
        <time>2014-10-01T11:41:35Z</time>
      </trkpt>
      <trkpt lat="42.4107670" lon="-7.0137270">
        <ele>314.3</ele>
        <time>2014-10-01T11:41:36Z</time>
      </trkpt>
      <trkpt lat="42.4107680" lon="-7.0138130">
        <ele>314.3</ele>
        <time>2014-10-01T11:41:37Z</time>
      </trkpt>
      <trkpt lat="42.4107670" lon="-7.0139010">
        <ele>314.3</ele>
        <time>2014-10-01T11:41:38Z</time>
      </trkpt>
      <trkpt lat="42.4107630" lon="-7.0139880">
        <ele>314.2</ele>
        <time>2014-10-01T11:41:39Z</time>
      </trkpt>
      <trkpt lat="42.4107560" lon="-7.0140760">
        <ele>314.2</ele>
        <time>2014-10-01T11:41:40Z</time>
      </trkpt>
      <trkpt lat="42.4107500" lon="-7.0141630">
        <ele>314.2</ele>
        <time>2014-10-01T11:41:41Z</time>
      </trkpt>
      <trkpt lat="42.4107440" lon="-7.0142460">
        <ele>314.1</ele>
        <time>2014-10-01T11:41:42Z</time>
      </trkpt>
      <trkpt lat="42.4107390" lon="-7.0143280">
        <ele>314.1</ele>
        <time>2014-10-01T11:41:43Z</time>
      </trkpt>
      <trkpt lat="42.4107310" lon="-7.0144140">
        <ele>314.1</ele>
        <time>2014-10-01T11:41:44Z</time>
      </trkpt>
      <trkpt lat="42.4107240" lon="-7.0144930">
        <ele>314.0</ele>
        <time>2014-10-01T11:41:45Z</time>
      </trkpt>
      <trkpt lat="42.4107150" lon="-7.0145710">
        <ele>314.0</ele>
        <time>2014-10-01T11:41:46Z</time>
      </trkpt>
      <trkpt lat="42.4107060" lon="-7.0146510">
        <ele>314.0</ele>
        <time>2014-10-01T11:41:47Z</time>
      </trkpt>
      <trkpt lat="42.4106980" lon="-7.0147310">
        <ele>313.9</ele>
        <time>2014-10-01T11:41:48Z</time>
      </trkpt>
      <trkpt lat="42.4106930" lon="-7.0148100">
        <ele>313.9</ele>
        <time>2014-10-01T11:41:49Z</time>
      </trkpt>
      <trkpt lat="42.4106900" lon="-7.0148890">
        <ele>313.9</ele>
        <time>2014-10-01T11:41:50Z</time>
      </trkpt>
      <trkpt lat="42.4106890" lon="-7.0149660">
        <ele>313.9</ele>
        <time>2014-10-01T11:41:51Z</time>
      </trkpt>
      <trkpt lat="42.4106880" lon="-7.0150380">
        <ele>313.9</ele>
        <time>2014-10-01T11:41:52Z</time>
      </trkpt>
      <trkpt lat="42.4106900" lon="-7.0151140">
        <ele>313.9</ele>
        <time>2014-10-01T11:41:53Z</time>
      </trkpt>
      <trkpt lat="42.4107100" lon="-7.0151800">
        <ele>313.8</ele>
        <time>2014-10-01T11:41:54Z</time>
      </trkpt>
      <trkpt lat="42.4107430" lon="-7.0152330">
        <ele>313.8</ele>
        <time>2014-10-01T11:41:55Z</time>
      </trkpt>
      <trkpt lat="42.4107830" lon="-7.0152640">
        <ele>313.8</ele>
        <time>2014-10-01T11:41:56Z</time>
      </trkpt>
      <trkpt lat="42.4108140" lon="-7.0152910">
        <ele>313.8</ele>
        <time>2014-10-01T11:41:57Z</time>
      </trkpt>
      <trkpt lat="42.4107990" lon="-7.0153410">
        <ele>313.9</ele>
        <time>2014-10-01T11:41:59Z</time>
      </trkpt>
      <trkpt lat="42.4107680" lon="-7.0153300">
        <ele>313.9</ele>
        <time>2014-10-01T11:42:00Z</time>
      </trkpt>
      <trkpt lat="42.4107430" lon="-7.0153050">
        <ele>313.9</ele>
        <time>2014-10-01T11:42:01Z</time>
      </trkpt>
      <trkpt lat="42.4107200" lon="-7.0152740">
        <ele>313.9</ele>
        <time>2014-10-01T11:42:02Z</time>
      </trkpt>
      <trkpt lat="42.4107000" lon="-7.0152260">
        <ele>313.9</ele>
        <time>2014-10-01T11:42:03Z</time>
      </trkpt>
      <trkpt lat="42.4106760" lon="-7.0151620">
        <ele>313.9</ele>
        <time>2014-10-01T11:42:04Z</time>
      </trkpt>
      <trkpt lat="42.4106580" lon="-7.0150970">
        <ele>313.9</ele>
        <time>2014-10-01T11:42:05Z</time>
      </trkpt>
      <trkpt lat="42.4106460" lon="-7.0150290">
        <ele>313.9</ele>
        <time>2014-10-01T11:42:06Z</time>
      </trkpt>
      <trkpt lat="42.4106450" lon="-7.0149540">
        <ele>314.0</ele>
        <time>2014-10-01T11:42:07Z</time>
      </trkpt>
      <trkpt lat="42.4106470" lon="-7.0148800">
        <ele>314.0</ele>
        <time>2014-10-01T11:42:08Z</time>
      </trkpt>
      <trkpt lat="42.4106500" lon="-7.0148080">
        <ele>314.0</ele>
        <time>2014-10-01T11:42:09Z</time>
      </trkpt>
      <trkpt lat="42.4106540" lon="-7.0147370">
        <ele>314.1</ele>
        <time>2014-10-01T11:42:10Z</time>
      </trkpt>
      <trkpt lat="42.4106600" lon="-7.0146720">
        <ele>314.1</ele>
        <time>2014-10-01T11:42:11Z</time>
      </trkpt>
      <trkpt lat="42.4106680" lon="-7.0146060">
        <ele>314.1</ele>
        <time>2014-10-01T11:42:12Z</time>
      </trkpt>
      <trkpt lat="42.4106770" lon="-7.0145380">
        <ele>314.1</ele>
        <time>2014-10-01T11:42:13Z</time>
      </trkpt>
      <trkpt lat="42.4106860" lon="-7.0144660">
        <ele>314.1</ele>
        <time>2014-10-01T11:42:14Z</time>
      </trkpt>
      <trkpt lat="42.4106940" lon="-7.0143910">
        <ele>314.2</ele>
        <time>2014-10-01T11:42:15Z</time>
      </trkpt>
      <trkpt lat="42.4107010" lon="-7.0143180">
        <ele>314.2</ele>
        <time>2014-10-01T11:42:16Z</time>
      </trkpt>
      <trkpt lat="42.4107080" lon="-7.0142450">
        <ele>314.2</ele>
        <time>2014-10-01T11:42:17Z</time>
      </trkpt>
      <trkpt lat="42.4107140" lon="-7.0141720">
        <ele>314.2</ele>
        <time>2014-10-01T11:42:18Z</time>
      </trkpt>
      <trkpt lat="42.4107200" lon="-7.0140980">
        <ele>314.3</ele>
        <time>2014-10-01T11:42:19Z</time>
      </trkpt>
      <trkpt lat="42.4107260" lon="-7.0140240">
        <ele>314.3</ele>
        <time>2014-10-01T11:42:20Z</time>
      </trkpt>
      <trkpt lat="42.4107320" lon="-7.0139470">
        <ele>314.3</ele>
        <time>2014-10-01T11:42:21Z</time>
      </trkpt>
      <trkpt lat="42.4107380" lon="-7.0138710">
        <ele>314.3</ele>
        <time>2014-10-01T11:42:22Z</time>
      </trkpt>
      <trkpt lat="42.4107430" lon="-7.0137920">
        <ele>314.4</ele>
        <time>2014-10-01T11:42:23Z</time>
      </trkpt>
      <trkpt lat="42.4107470" lon="-7.0137160">
        <ele>314.4</ele>
        <time>2014-10-01T11:42:24Z</time>
      </trkpt>
      <trkpt lat="42.4107510" lon="-7.0136390">
        <ele>314.4</ele>
        <time>2014-10-01T11:42:25Z</time>
      </trkpt>
      <trkpt lat="42.4107550" lon="-7.0135620">
        <ele>314.4</ele>
        <time>2014-10-01T11:42:26Z</time>
      </trkpt>
      <trkpt lat="42.4107570" lon="-7.0134840">
        <ele>314.5</ele>
        <time>2014-10-01T11:42:27Z</time>
      </trkpt>
      <trkpt lat="42.4107580" lon="-7.0134050">
        <ele>314.5</ele>
        <time>2014-10-01T11:42:28Z</time>
      </trkpt>
      <trkpt lat="42.4107600" lon="-7.0133260">
        <ele>314.5</ele>
        <time>2014-10-01T11:42:29Z</time>
      </trkpt>
      <trkpt lat="42.4107620" lon="-7.0132480">
        <ele>314.5</ele>
        <time>2014-10-01T11:42:30Z</time>
      </trkpt>
      <trkpt lat="42.4107640" lon="-7.0131690">
        <ele>314.5</ele>
        <time>2014-10-01T11:42:31Z</time>
      </trkpt>
      <trkpt lat="42.4107680" lon="-7.0130910">
        <ele>314.5</ele>
        <time>2014-10-01T11:42:32Z</time>
      </trkpt>
      <trkpt lat="42.4107720" lon="-7.0130150">
        <ele>314.5</ele>
        <time>2014-10-01T11:42:33Z</time>
      </trkpt>
      <trkpt lat="42.4107780" lon="-7.0129370">
        <ele>314.6</ele>
        <time>2014-10-01T11:42:34Z</time>
      </trkpt>
      <trkpt lat="42.4107840" lon="-7.0128600">
        <ele>314.6</ele>
        <time>2014-10-01T11:42:35Z</time>
      </trkpt>
      <trkpt lat="42.4107890" lon="-7.0127870">
        <ele>314.6</ele>
        <time>2014-10-01T11:42:36Z</time>
      </trkpt>
      <trkpt lat="42.4107940" lon="-7.0127110">
        <ele>314.6</ele>
        <time>2014-10-01T11:42:37Z</time>
      </trkpt>
      <trkpt lat="42.4107990" lon="-7.0126380">
        <ele>314.6</ele>
        <time>2014-10-01T11:42:38Z</time>
      </trkpt>
      <trkpt lat="42.4108090" lon="-7.0125570">
        <ele>314.6</ele>
        <time>2014-10-01T11:42:39Z</time>
      </trkpt>
      <trkpt lat="42.4108190" lon="-7.0124750">
        <ele>314.6</ele>
        <time>2014-10-01T11:42:40Z</time>
      </trkpt>
      <trkpt lat="42.4108290" lon="-7.0123940">
        <ele>314.7</ele>
        <time>2014-10-01T11:42:41Z</time>
      </trkpt>
      <trkpt lat="42.4108400" lon="-7.0123120">
        <ele>314.7</ele>
        <time>2014-10-01T11:42:42Z</time>
      </trkpt>
      <trkpt lat="42.4108510" lon="-7.0122300">
        <ele>314.7</ele>
        <time>2014-10-01T11:42:43Z</time>
      </trkpt>
      <trkpt lat="42.4108640" lon="-7.0121500">
        <ele>314.7</ele>
        <time>2014-10-01T11:42:44Z</time>
      </trkpt>
      <trkpt lat="42.4108790" lon="-7.0120710">
        <ele>314.8</ele>
        <time>2014-10-01T11:42:45Z</time>
      </trkpt>
      <trkpt lat="42.4108950" lon="-7.0119930">
        <ele>314.8</ele>
        <time>2014-10-01T11:42:46Z</time>
      </trkpt>
      <trkpt lat="42.4109130" lon="-7.0119190">
        <ele>314.8</ele>
        <time>2014-10-01T11:42:47Z</time>
      </trkpt>
      <trkpt lat="42.4109330" lon="-7.0118470">
        <ele>314.8</ele>
        <time>2014-10-01T11:42:48Z</time>
      </trkpt>
      <trkpt lat="42.4109540" lon="-7.0117750">
        <ele>314.8</ele>
        <time>2014-10-01T11:42:49Z</time>
      </trkpt>
      <trkpt lat="42.4109760" lon="-7.0117020">
        <ele>314.8</ele>
        <time>2014-10-01T11:42:50Z</time>
      </trkpt>
      <trkpt lat="42.4109980" lon="-7.0116270">
        <ele>314.9</ele>
        <time>2014-10-01T11:42:51Z</time>
      </trkpt>
      <trkpt lat="42.4110190" lon="-7.0115490">
        <ele>314.9</ele>
        <time>2014-10-01T11:42:52Z</time>
      </trkpt>
      <trkpt lat="42.4110390" lon="-7.0114750">
        <ele>314.9</ele>
        <time>2014-10-01T11:42:53Z</time>
      </trkpt>
      <trkpt lat="42.4110570" lon="-7.0114000">
        <ele>315.0</ele>
        <time>2014-10-01T11:42:54Z</time>
      </trkpt>
      <trkpt lat="42.4110750" lon="-7.0113280">
        <ele>315.0</ele>
        <time>2014-10-01T11:42:55Z</time>
      </trkpt>
      <trkpt lat="42.4110930" lon="-7.0112550">
        <ele>315.0</ele>
        <time>2014-10-01T11:42:56Z</time>
      </trkpt>
      <trkpt lat="42.4111110" lon="-7.0111830">
        <ele>315.0</ele>
        <time>2014-10-01T11:42:57Z</time>
      </trkpt>
      <trkpt lat="42.4111270" lon="-7.0111100">
        <ele>315.2</ele>
        <time>2014-10-01T11:42:58Z</time>
      </trkpt>
      <trkpt lat="42.4111450" lon="-7.0110390">
        <ele>315.3</ele>
        <time>2014-10-01T11:42:59Z</time>
      </trkpt>
      <trkpt lat="42.4111640" lon="-7.0109690">
        <ele>315.5</ele>
        <time>2014-10-01T11:43:00Z</time>
      </trkpt>
      <trkpt lat="42.4111820" lon="-7.0109040">
        <ele>315.5</ele>
        <time>2014-10-01T11:43:01Z</time>
      </trkpt>
      <trkpt lat="42.4111980" lon="-7.0108490">
        <ele>315.5</ele>
        <time>2014-10-01T11:43:02Z</time>
      </trkpt>
      <trkpt lat="42.4112110" lon="-7.0108040">
        <ele>315.5</ele>
        <time>2014-10-01T11:43:03Z</time>
      </trkpt>
      <trkpt lat="42.4112230" lon="-7.0107630">
        <ele>315.5</ele>
        <time>2014-10-01T11:43:04Z</time>
      </trkpt>
      <trkpt lat="42.4112340" lon="-7.0107250">
        <ele>315.5</ele>
        <time>2014-10-01T11:43:05Z</time>
      </trkpt>
      <trkpt lat="42.4112570" lon="-7.0106860">
        <ele>315.5</ele>
        <time>2014-10-01T11:43:07Z</time>
      </trkpt>
      <trkpt lat="42.4112800" lon="-7.0106430">
        <ele>315.5</ele>
        <time>2014-10-01T11:43:09Z</time>
      </trkpt>
      <trkpt lat="42.4112850" lon="-7.0106040">
        <ele>315.5</ele>
        <time>2014-10-01T11:43:10Z</time>
      </trkpt>
      <trkpt lat="42.4112910" lon="-7.0105590">
        <ele>315.5</ele>
        <time>2014-10-01T11:43:11Z</time>
      </trkpt>
      <trkpt lat="42.4112980" lon="-7.0105220">
        <ele>315.5</ele>
        <time>2014-10-01T11:43:12Z</time>
      </trkpt>
      <trkpt lat="42.4113160" lon="-7.0104560">
        <ele>315.5</ele>
        <time>2014-10-01T11:43:14Z</time>
      </trkpt>
      <trkpt lat="42.4113210" lon="-7.0104030">
        <ele>315.5</ele>
        <time>2014-10-01T11:43:16Z</time>
      </trkpt>
      <trkpt lat="42.4113360" lon="-7.0103460">
        <ele>315.5</ele>
        <time>2014-10-01T11:43:41Z</time>
      </trkpt>
      <trkpt lat="42.4113620" lon="-7.0103070">
        <ele>315.5</ele>
        <time>2014-10-01T11:43:43Z</time>
      </trkpt>
      <trkpt lat="42.4113880" lon="-7.0102540">
        <ele>315.5</ele>
        <time>2014-10-01T11:43:45Z</time>
      </trkpt>
      <trkpt lat="42.4113990" lon="-7.0102170">
        <ele>315.5</ele>
        <time>2014-10-01T11:43:46Z</time>
      </trkpt>
      <trkpt lat="42.4114110" lon="-7.0101730">
        <ele>315.5</ele>
        <time>2014-10-01T11:43:47Z</time>
      </trkpt>
      <trkpt lat="42.4114210" lon="-7.0101290">
        <ele>315.5</ele>
        <time>2014-10-01T11:43:48Z</time>
      </trkpt>
      <trkpt lat="42.4114330" lon="-7.0100780">
        <ele>315.6</ele>
        <time>2014-10-01T11:43:49Z</time>
      </trkpt>
      <trkpt lat="42.4114440" lon="-7.0100250">
        <ele>315.6</ele>
        <time>2014-10-01T11:43:50Z</time>
      </trkpt>
      <trkpt lat="42.4114560" lon="-7.0099710">
        <ele>315.6</ele>
        <time>2014-10-01T11:43:51Z</time>
      </trkpt>
      <trkpt lat="42.4114690" lon="-7.0099020">
        <ele>315.6</ele>
        <time>2014-10-01T11:43:52Z</time>
      </trkpt>
      <trkpt lat="42.4114810" lon="-7.0098290">
        <ele>315.6</ele>
        <time>2014-10-01T11:43:53Z</time>
      </trkpt>
      <trkpt lat="42.4114900" lon="-7.0097520">
        <ele>315.6</ele>
        <time>2014-10-01T11:43:54Z</time>
      </trkpt>
      <trkpt lat="42.4114990" lon="-7.0096760">
        <ele>315.6</ele>
        <time>2014-10-01T11:43:55Z</time>
      </trkpt>
      <trkpt lat="42.4115050" lon="-7.0096070">
        <ele>315.6</ele>
        <time>2014-10-01T11:43:56Z</time>
      </trkpt>
      <trkpt lat="42.4115110" lon="-7.0095310">
        <ele>315.6</ele>
        <time>2014-10-01T11:43:57Z</time>
      </trkpt>
      <trkpt lat="42.4115160" lon="-7.0094560">
        <ele>315.6</ele>
        <time>2014-10-01T11:43:58Z</time>
      </trkpt>
      <trkpt lat="42.4115190" lon="-7.0093800">
        <ele>315.7</ele>
        <time>2014-10-01T11:43:59Z</time>
      </trkpt>
      <trkpt lat="42.4115190" lon="-7.0093060">
        <ele>315.7</ele>
        <time>2014-10-01T11:44:00Z</time>
      </trkpt>
      <trkpt lat="42.4115180" lon="-7.0092280">
        <ele>315.7</ele>
        <time>2014-10-01T11:44:01Z</time>
      </trkpt>
      <trkpt lat="42.4115150" lon="-7.0091460">
        <ele>315.7</ele>
        <time>2014-10-01T11:44:02Z</time>
      </trkpt>
      <trkpt lat="42.4115100" lon="-7.0090680">
        <ele>315.7</ele>
        <time>2014-10-01T11:44:03Z</time>
      </trkpt>
      <trkpt lat="42.4115060" lon="-7.0089890">
        <ele>315.8</ele>
        <time>2014-10-01T11:44:04Z</time>
      </trkpt>
      <trkpt lat="42.4115000" lon="-7.0089150">
        <ele>315.8</ele>
        <time>2014-10-01T11:44:05Z</time>
      </trkpt>
      <trkpt lat="42.4114960" lon="-7.0088360">
        <ele>315.8</ele>
        <time>2014-10-01T11:44:06Z</time>
      </trkpt>
      <trkpt lat="42.4114900" lon="-7.0087590">
        <ele>315.8</ele>
        <time>2014-10-01T11:44:07Z</time>
      </trkpt>
      <trkpt lat="42.4114840" lon="-7.0086780">
        <ele>315.8</ele>
        <time>2014-10-01T11:44:08Z</time>
      </trkpt>
      <trkpt lat="42.4114790" lon="-7.0085980">
        <ele>315.8</ele>
        <time>2014-10-01T11:44:09Z</time>
      </trkpt>
      <trkpt lat="42.4114760" lon="-7.0085160">
        <ele>315.8</ele>
        <time>2014-10-01T11:44:10Z</time>
      </trkpt>
      <trkpt lat="42.4114730" lon="-7.0084340">
        <ele>315.9</ele>
        <time>2014-10-01T11:44:11Z</time>
      </trkpt>
      <trkpt lat="42.4114700" lon="-7.0083520">
        <ele>315.9</ele>
        <time>2014-10-01T11:44:12Z</time>
      </trkpt>
      <trkpt lat="42.4114660" lon="-7.0082740">
        <ele>315.9</ele>
        <time>2014-10-01T11:44:13Z</time>
      </trkpt>
      <trkpt lat="42.4114620" lon="-7.0081950">
        <ele>315.9</ele>
        <time>2014-10-01T11:44:14Z</time>
      </trkpt>
      <trkpt lat="42.4114570" lon="-7.0081130">
        <ele>315.9</ele>
        <time>2014-10-01T11:44:15Z</time>
      </trkpt>
      <trkpt lat="42.4114540" lon="-7.0080360">
        <ele>316.0</ele>
        <time>2014-10-01T11:44:16Z</time>
      </trkpt>
      <trkpt lat="42.4114510" lon="-7.0079540">
        <ele>316.0</ele>
        <time>2014-10-01T11:44:17Z</time>
      </trkpt>
      <trkpt lat="42.4114480" lon="-7.0078710">
        <ele>316.0</ele>
        <time>2014-10-01T11:44:18Z</time>
      </trkpt>
      <trkpt lat="42.4114450" lon="-7.0077880">
        <ele>316.1</ele>
        <time>2014-10-01T11:44:19Z</time>
      </trkpt>
      <trkpt lat="42.4114420" lon="-7.0077080">
        <ele>316.1</ele>
        <time>2014-10-01T11:44:20Z</time>
      </trkpt>
      <trkpt lat="42.4114370" lon="-7.0076250">
        <ele>316.1</ele>
        <time>2014-10-01T11:44:21Z</time>
      </trkpt>
      <trkpt lat="42.4114330" lon="-7.0075430">
        <ele>316.1</ele>
        <time>2014-10-01T11:44:22Z</time>
      </trkpt>
      <trkpt lat="42.4114290" lon="-7.0074590">
        <ele>316.2</ele>
        <time>2014-10-01T11:44:23Z</time>
      </trkpt>
      <trkpt lat="42.4114260" lon="-7.0073730">
        <ele>316.2</ele>
        <time>2014-10-01T11:44:24Z</time>
      </trkpt>
      <trkpt lat="42.4114230" lon="-7.0072880">
        <ele>316.2</ele>
        <time>2014-10-01T11:44:25Z</time>
      </trkpt>
      <trkpt lat="42.4114200" lon="-7.0072050">
        <ele>316.3</ele>
        <time>2014-10-01T11:44:26Z</time>
      </trkpt>
      <trkpt lat="42.4114130" lon="-7.0071210">
        <ele>316.2</ele>
        <time>2014-10-01T11:44:27Z</time>
      </trkpt>
      <trkpt lat="42.4113940" lon="-7.0070360">
        <ele>316.3</ele>
        <time>2014-10-01T11:44:28Z</time>
      </trkpt>
      <trkpt lat="42.4113730" lon="-7.0069550">
        <ele>316.3</ele>
        <time>2014-10-01T11:44:29Z</time>
      </trkpt>
      <trkpt lat="42.4113470" lon="-7.0068790">
        <ele>316.3</ele>
        <time>2014-10-01T11:44:30Z</time>
      </trkpt>
      <trkpt lat="42.4113070" lon="-7.0068160">
        <ele>316.3</ele>
        <time>2014-10-01T11:44:31Z</time>
      </trkpt>
      <trkpt lat="42.4112640" lon="-7.0067600">
        <ele>316.3</ele>
        <time>2014-10-01T11:44:32Z</time>
      </trkpt>
      <trkpt lat="42.4112170" lon="-7.0067060">
        <ele>316.4</ele>
        <time>2014-10-01T11:44:33Z</time>
      </trkpt>
      <trkpt lat="42.4111610" lon="-7.0066730">
        <ele>316.4</ele>
        <time>2014-10-01T11:44:34Z</time>
      </trkpt>
      <trkpt lat="42.4111040" lon="-7.0066400">
        <ele>316.5</ele>
        <time>2014-10-01T11:44:35Z</time>
      </trkpt>
      <trkpt lat="42.4110460" lon="-7.0066130">
        <ele>316.5</ele>
        <time>2014-10-01T11:44:36Z</time>
      </trkpt>
      <trkpt lat="42.4109850" lon="-7.0065900">
        <ele>316.6</ele>
        <time>2014-10-01T11:44:37Z</time>
      </trkpt>
      <trkpt lat="42.4109210" lon="-7.0065660">
        <ele>316.6</ele>
        <time>2014-10-01T11:44:38Z</time>
      </trkpt>
      <trkpt lat="42.4108590" lon="-7.0065410">
        <ele>316.7</ele>
        <time>2014-10-01T11:44:39Z</time>
      </trkpt>
      <trkpt lat="42.4107980" lon="-7.0065120">
        <ele>316.8</ele>
        <time>2014-10-01T11:44:40Z</time>
      </trkpt>
      <trkpt lat="42.4107400" lon="-7.0064800">
        <ele>316.8</ele>
        <time>2014-10-01T11:44:41Z</time>
      </trkpt>
      <trkpt lat="42.4106800" lon="-7.0064450">
        <ele>316.8</ele>
        <time>2014-10-01T11:44:42Z</time>
      </trkpt>
      <trkpt lat="42.4106210" lon="-7.0064070">
        <ele>316.9</ele>
        <time>2014-10-01T11:44:43Z</time>
      </trkpt>
      <trkpt lat="42.4105640" lon="-7.0063680">
        <ele>316.9</ele>
        <time>2014-10-01T11:44:44Z</time>
      </trkpt>
      <trkpt lat="42.4105100" lon="-7.0063250">
        <ele>317.0</ele>
        <time>2014-10-01T11:44:45Z</time>
      </trkpt>
      <trkpt lat="42.4104590" lon="-7.0062800">
        <ele>317.0</ele>
        <time>2014-10-01T11:44:46Z</time>
      </trkpt>
      <trkpt lat="42.4104090" lon="-7.0062290">
        <ele>317.1</ele>
        <time>2014-10-01T11:44:47Z</time>
      </trkpt>
      <trkpt lat="42.4103580" lon="-7.0061740">
        <ele>317.1</ele>
        <time>2014-10-01T11:44:48Z</time>
      </trkpt>
      <trkpt lat="42.4103100" lon="-7.0061150">
        <ele>317.2</ele>
        <time>2014-10-01T11:44:49Z</time>
      </trkpt>
      <trkpt lat="42.4102660" lon="-7.0060550">
        <ele>317.2</ele>
        <time>2014-10-01T11:44:50Z</time>
      </trkpt>
      <trkpt lat="42.4102260" lon="-7.0059960">
        <ele>317.3</ele>
        <time>2014-10-01T11:44:51Z</time>
      </trkpt>
      <trkpt lat="42.4101890" lon="-7.0059400">
        <ele>317.3</ele>
        <time>2014-10-01T11:44:52Z</time>
      </trkpt>
      <trkpt lat="42.4101450" lon="-7.0059110">
        <ele>317.3</ele>
        <time>2014-10-01T11:44:53Z</time>
      </trkpt>
      <trkpt lat="42.4101010" lon="-7.0059130">
        <ele>317.3</ele>
        <time>2014-10-01T11:44:54Z</time>
      </trkpt>
      <trkpt lat="42.4100690" lon="-7.0059310">
        <ele>317.2</ele>
        <time>2014-10-01T11:44:55Z</time>
      </trkpt>
      <trkpt lat="42.4100500" lon="-7.0059690">
        <ele>317.2</ele>
        <time>2014-10-01T11:44:56Z</time>
      </trkpt>
      <trkpt lat="42.4100270" lon="-7.0060290">
        <ele>317.3</ele>
        <time>2014-10-01T11:44:57Z</time>
      </trkpt>
      <trkpt lat="42.4100020" lon="-7.0060980">
        <ele>317.3</ele>
        <time>2014-10-01T11:44:58Z</time>
      </trkpt>
      <trkpt lat="42.4099760" lon="-7.0061720">
        <ele>317.4</ele>
        <time>2014-10-01T11:44:59Z</time>
      </trkpt>
      <trkpt lat="42.4099490" lon="-7.0062470">
        <ele>317.4</ele>
        <time>2014-10-01T11:45:00Z</time>
      </trkpt>
      <trkpt lat="42.4099190" lon="-7.0063180">
        <ele>317.5</ele>
        <time>2014-10-01T11:45:01Z</time>
      </trkpt>
      <trkpt lat="42.4098880" lon="-7.0063840">
        <ele>317.5</ele>
        <time>2014-10-01T11:45:02Z</time>
      </trkpt>
      <trkpt lat="42.4098540" lon="-7.0064490">
        <ele>317.6</ele>
        <time>2014-10-01T11:45:03Z</time>
      </trkpt>
      <trkpt lat="42.4098180" lon="-7.0065140">
        <ele>317.7</ele>
        <time>2014-10-01T11:45:04Z</time>
      </trkpt>
      <trkpt lat="42.4097790" lon="-7.0065780">
        <ele>317.7</ele>
        <time>2014-10-01T11:45:05Z</time>
      </trkpt>
      <trkpt lat="42.4097380" lon="-7.0066380">
        <ele>317.7</ele>
        <time>2014-10-01T11:45:06Z</time>
      </trkpt>
      <trkpt lat="42.4096950" lon="-7.0066970">
        <ele>317.8</ele>
        <time>2014-10-01T11:45:07Z</time>
      </trkpt>
      <trkpt lat="42.4096500" lon="-7.0067550">
        <ele>317.8</ele>
        <time>2014-10-01T11:45:08Z</time>
      </trkpt>
      <trkpt lat="42.4096030" lon="-7.0068150">
        <ele>317.8</ele>
        <time>2014-10-01T11:45:09Z</time>
      </trkpt>
      <trkpt lat="42.4095560" lon="-7.0068730">
        <ele>317.9</ele>
        <time>2014-10-01T11:45:10Z</time>
      </trkpt>
      <trkpt lat="42.4095090" lon="-7.0069330">
        <ele>318.0</ele>
        <time>2014-10-01T11:45:11Z</time>
      </trkpt>
      <trkpt lat="42.4094620" lon="-7.0069940">
        <ele>318.1</ele>
        <time>2014-10-01T11:45:12Z</time>
      </trkpt>
      <trkpt lat="42.4094150" lon="-7.0070550">
        <ele>318.1</ele>
        <time>2014-10-01T11:45:13Z</time>
      </trkpt>
      <trkpt lat="42.4093690" lon="-7.0071140">
        <ele>318.2</ele>
        <time>2014-10-01T11:45:14Z</time>
      </trkpt>
      <trkpt lat="42.4093220" lon="-7.0071750">
        <ele>318.3</ele>
        <time>2014-10-01T11:45:15Z</time>
      </trkpt>
      <trkpt lat="42.4092760" lon="-7.0072350">
        <ele>318.4</ele>
        <time>2014-10-01T11:45:16Z</time>
      </trkpt>
      <trkpt lat="42.4092310" lon="-7.0072910">
        <ele>318.5</ele>
        <time>2014-10-01T11:45:17Z</time>
      </trkpt>
      <trkpt lat="42.4091860" lon="-7.0073470">
        <ele>318.7</ele>
        <time>2014-10-01T11:45:18Z</time>
      </trkpt>
      <trkpt lat="42.4091400" lon="-7.0074030">
        <ele>318.9</ele>
        <time>2014-10-01T11:45:19Z</time>
      </trkpt>
      <trkpt lat="42.4090940" lon="-7.0074570">
        <ele>319.1</ele>
        <time>2014-10-01T11:45:20Z</time>
      </trkpt>
      <trkpt lat="42.4090500" lon="-7.0075110">
        <ele>319.3</ele>
        <time>2014-10-01T11:45:21Z</time>
      </trkpt>
      <trkpt lat="42.4090090" lon="-7.0075650">
        <ele>319.6</ele>
        <time>2014-10-01T11:45:22Z</time>
      </trkpt>
      <trkpt lat="42.4089700" lon="-7.0076190">
        <ele>319.8</ele>
        <time>2014-10-01T11:45:23Z</time>
      </trkpt>
      <trkpt lat="42.4089310" lon="-7.0076760">
        <ele>320.1</ele>
        <time>2014-10-01T11:45:24Z</time>
      </trkpt>
      <trkpt lat="42.4088950" lon="-7.0077330">
        <ele>320.3</ele>
        <time>2014-10-01T11:45:25Z</time>
      </trkpt>
      <trkpt lat="42.4088620" lon="-7.0077920">
        <ele>320.5</ele>
        <time>2014-10-01T11:45:26Z</time>
      </trkpt>
      <trkpt lat="42.4088310" lon="-7.0078520">
        <ele>320.8</ele>
        <time>2014-10-01T11:45:27Z</time>
      </trkpt>
      <trkpt lat="42.4088040" lon="-7.0079120">
        <ele>321.0</ele>
        <time>2014-10-01T11:45:28Z</time>
      </trkpt>
      <trkpt lat="42.4087810" lon="-7.0079730">
        <ele>321.3</ele>
        <time>2014-10-01T11:45:29Z</time>
      </trkpt>
      <trkpt lat="42.4087600" lon="-7.0080350">
        <ele>321.5</ele>
        <time>2014-10-01T11:45:30Z</time>
      </trkpt>
      <trkpt lat="42.4087410" lon="-7.0080980">
        <ele>321.8</ele>
        <time>2014-10-01T11:45:31Z</time>
      </trkpt>
      <trkpt lat="42.4087240" lon="-7.0081550">
        <ele>322.1</ele>
        <time>2014-10-01T11:45:32Z</time>
      </trkpt>
      <trkpt lat="42.4087090" lon="-7.0082100">
        <ele>322.3</ele>
        <time>2014-10-01T11:45:33Z</time>
      </trkpt>
      <trkpt lat="42.4086940" lon="-7.0082650">
        <ele>322.6</ele>
        <time>2014-10-01T11:45:34Z</time>
      </trkpt>
      <trkpt lat="42.4086790" lon="-7.0083170">
        <ele>322.8</ele>
        <time>2014-10-01T11:45:35Z</time>
      </trkpt>
      <trkpt lat="42.4086640" lon="-7.0083760">
        <ele>323.1</ele>
        <time>2014-10-01T11:45:36Z</time>
      </trkpt>
      <trkpt lat="42.4086550" lon="-7.0084180">
        <ele>323.3</ele>
        <time>2014-10-01T11:45:37Z</time>
      </trkpt>
      <trkpt lat="42.4086420" lon="-7.0084740">
        <ele>323.6</ele>
        <time>2014-10-01T11:45:38Z</time>
      </trkpt>
      <trkpt lat="42.4086320" lon="-7.0085290">
        <ele>323.9</ele>
        <time>2014-10-01T11:45:39Z</time>
      </trkpt>
      <trkpt lat="42.4086240" lon="-7.0085820">
        <ele>324.1</ele>
        <time>2014-10-01T11:45:40Z</time>
      </trkpt>
      <trkpt lat="42.4086150" lon="-7.0086400">
        <ele>324.3</ele>
        <time>2014-10-01T11:45:41Z</time>
      </trkpt>
      <trkpt lat="42.4086070" lon="-7.0086910">
        <ele>324.5</ele>
        <time>2014-10-01T11:45:42Z</time>
      </trkpt>
      <trkpt lat="42.4085980" lon="-7.0087430">
        <ele>324.7</ele>
        <time>2014-10-01T11:45:43Z</time>
      </trkpt>
      <trkpt lat="42.4085900" lon="-7.0087980">
        <ele>324.8</ele>
        <time>2014-10-01T11:45:44Z</time>
      </trkpt>
      <trkpt lat="42.4085810" lon="-7.0088550">
        <ele>324.9</ele>
        <time>2014-10-01T11:45:45Z</time>
      </trkpt>
      <trkpt lat="42.4085700" lon="-7.0089160">
        <ele>325.0</ele>
        <time>2014-10-01T11:45:46Z</time>
      </trkpt>
      <trkpt lat="42.4085570" lon="-7.0089800">
        <ele>325.0</ele>
        <time>2014-10-01T11:45:47Z</time>
      </trkpt>
      <trkpt lat="42.4085440" lon="-7.0090370">
        <ele>325.0</ele>
        <time>2014-10-01T11:45:48Z</time>
      </trkpt>
      <trkpt lat="42.4085290" lon="-7.0091000">
        <ele>325.0</ele>
        <time>2014-10-01T11:45:49Z</time>
      </trkpt>
      <trkpt lat="42.4085090" lon="-7.0091650">
        <ele>324.9</ele>
        <time>2014-10-01T11:45:50Z</time>
      </trkpt>
      <trkpt lat="42.4084830" lon="-7.0092340">
        <ele>324.9</ele>
        <time>2014-10-01T11:45:51Z</time>
      </trkpt>
      <trkpt lat="42.4084520" lon="-7.0093070">
        <ele>324.8</ele>
        <time>2014-10-01T11:45:52Z</time>
      </trkpt>
      <trkpt lat="42.4084170" lon="-7.0093810">
        <ele>324.8</ele>
        <time>2014-10-01T11:45:53Z</time>
      </trkpt>
      <trkpt lat="42.4083800" lon="-7.0094530">
        <ele>324.8</ele>
        <time>2014-10-01T11:45:54Z</time>
      </trkpt>
      <trkpt lat="42.4083430" lon="-7.0095240">
        <ele>324.9</ele>
        <time>2014-10-01T11:45:55Z</time>
      </trkpt>
      <trkpt lat="42.4083050" lon="-7.0095950">
        <ele>325.1</ele>
        <time>2014-10-01T11:45:56Z</time>
      </trkpt>
      <trkpt lat="42.4082680" lon="-7.0096640">
        <ele>325.3</ele>
        <time>2014-10-01T11:45:57Z</time>
      </trkpt>
      <trkpt lat="42.4082320" lon="-7.0097350">
        <ele>325.6</ele>
        <time>2014-10-01T11:45:58Z</time>
      </trkpt>
      <trkpt lat="42.4082000" lon="-7.0098030">
        <ele>325.9</ele>
        <time>2014-10-01T11:45:59Z</time>
      </trkpt>
      <trkpt lat="42.4081710" lon="-7.0098650">
        <ele>326.2</ele>
        <time>2014-10-01T11:46:00Z</time>
      </trkpt>
      <trkpt lat="42.4081430" lon="-7.0099240">
        <ele>326.6</ele>
        <time>2014-10-01T11:46:01Z</time>
      </trkpt>
      <trkpt lat="42.4081150" lon="-7.0099840">
        <ele>326.9</ele>
        <time>2014-10-01T11:46:02Z</time>
      </trkpt>
      <trkpt lat="42.4080890" lon="-7.0100470">
        <ele>327.3</ele>
        <time>2014-10-01T11:46:03Z</time>
      </trkpt>
      <trkpt lat="42.4080650" lon="-7.0101090">
        <ele>327.6</ele>
        <time>2014-10-01T11:46:04Z</time>
      </trkpt>
      <trkpt lat="42.4080420" lon="-7.0101680">
        <ele>328.0</ele>
        <time>2014-10-01T11:46:05Z</time>
      </trkpt>
      <trkpt lat="42.4080240" lon="-7.0102240">
        <ele>328.4</ele>
        <time>2014-10-01T11:46:06Z</time>
      </trkpt>
      <trkpt lat="42.4080110" lon="-7.0102700">
        <ele>328.7</ele>
        <time>2014-10-01T11:46:07Z</time>
      </trkpt>
      <trkpt lat="42.4079980" lon="-7.0103180">
        <ele>329.0</ele>
        <time>2014-10-01T11:46:08Z</time>
      </trkpt>
      <trkpt lat="42.4079880" lon="-7.0103620">
        <ele>329.3</ele>
        <time>2014-10-01T11:46:09Z</time>
      </trkpt>
      <trkpt lat="42.4079810" lon="-7.0104020">
        <ele>329.6</ele>
        <time>2014-10-01T11:46:10Z</time>
      </trkpt>
      <trkpt lat="42.4079710" lon="-7.0104470">
        <ele>330.0</ele>
        <time>2014-10-01T11:46:11Z</time>
      </trkpt>
      <trkpt lat="42.4079620" lon="-7.0104880">
        <ele>330.3</ele>
        <time>2014-10-01T11:46:12Z</time>
      </trkpt>
      <trkpt lat="42.4079520" lon="-7.0105300">
        <ele>330.6</ele>
        <time>2014-10-01T11:46:13Z</time>
      </trkpt>
      <trkpt lat="42.4079380" lon="-7.0105760">
        <ele>331.0</ele>
        <time>2014-10-01T11:46:14Z</time>
      </trkpt>
      <trkpt lat="42.4079270" lon="-7.0106180">
        <ele>331.3</ele>
        <time>2014-10-01T11:46:15Z</time>
      </trkpt>
      <trkpt lat="42.4079160" lon="-7.0106540">
        <ele>331.5</ele>
        <time>2014-10-01T11:46:16Z</time>
      </trkpt>
      <trkpt lat="42.4079040" lon="-7.0106960">
        <ele>331.9</ele>
        <time>2014-10-01T11:46:17Z</time>
      </trkpt>
      <trkpt lat="42.4078920" lon="-7.0107390">
        <ele>332.2</ele>
        <time>2014-10-01T11:46:18Z</time>
      </trkpt>
      <trkpt lat="42.4078790" lon="-7.0107850">
        <ele>332.5</ele>
        <time>2014-10-01T11:46:19Z</time>
      </trkpt>
      <trkpt lat="42.4078700" lon="-7.0108230">
        <ele>332.8</ele>
        <time>2014-10-01T11:46:20Z</time>
      </trkpt>
      <trkpt lat="42.4078590" lon="-7.0108670">
        <ele>333.1</ele>
        <time>2014-10-01T11:46:21Z</time>
      </trkpt>
      <trkpt lat="42.4078480" lon="-7.0109120">
        <ele>333.5</ele>
        <time>2014-10-01T11:46:22Z</time>
      </trkpt>
      <trkpt lat="42.4078380" lon="-7.0109560">
        <ele>333.8</ele>
        <time>2014-10-01T11:46:23Z</time>
      </trkpt>
      <trkpt lat="42.4078290" lon="-7.0109960">
        <ele>334.1</ele>
        <time>2014-10-01T11:46:24Z</time>
      </trkpt>
      <trkpt lat="42.4078130" lon="-7.0110630">
        <ele>334.6</ele>
        <time>2014-10-01T11:46:26Z</time>
      </trkpt>
      <trkpt lat="42.4078010" lon="-7.0111010">
        <ele>335.0</ele>
        <time>2014-10-01T11:46:27Z</time>
      </trkpt>
      <trkpt lat="42.4077880" lon="-7.0111390">
        <ele>335.3</ele>
        <time>2014-10-01T11:46:28Z</time>
      </trkpt>
      <trkpt lat="42.4077720" lon="-7.0111870">
        <ele>335.6</ele>
        <time>2014-10-01T11:46:29Z</time>
      </trkpt>
      <trkpt lat="42.4077480" lon="-7.0112610">
        <ele>336.1</ele>
        <time>2014-10-01T11:46:31Z</time>
      </trkpt>
      <trkpt lat="42.4077360" lon="-7.0113080">
        <ele>336.3</ele>
        <time>2014-10-01T11:46:32Z</time>
      </trkpt>
      <trkpt lat="42.4077280" lon="-7.0113520">
        <ele>336.5</ele>
        <time>2014-10-01T11:46:33Z</time>
      </trkpt>
      <trkpt lat="42.4077200" lon="-7.0113970">
        <ele>336.6</ele>
        <time>2014-10-01T11:46:34Z</time>
      </trkpt>
      <trkpt lat="42.4077140" lon="-7.0114430">
        <ele>336.7</ele>
        <time>2014-10-01T11:46:35Z</time>
      </trkpt>
      <trkpt lat="42.4077080" lon="-7.0114900">
        <ele>336.8</ele>
        <time>2014-10-01T11:46:36Z</time>
      </trkpt>
      <trkpt lat="42.4077010" lon="-7.0115480">
        <ele>336.8</ele>
        <time>2014-10-01T11:46:37Z</time>
      </trkpt>
      <trkpt lat="42.4076940" lon="-7.0116040">
        <ele>336.8</ele>
        <time>2014-10-01T11:46:38Z</time>
      </trkpt>
      <trkpt lat="42.4076890" lon="-7.0116580">
        <ele>336.7</ele>
        <time>2014-10-01T11:46:39Z</time>
      </trkpt>
      <trkpt lat="42.4076850" lon="-7.0117170">
        <ele>336.7</ele>
        <time>2014-10-01T11:46:40Z</time>
      </trkpt>
      <trkpt lat="42.4076820" lon="-7.0117870">
        <ele>336.6</ele>
        <time>2014-10-01T11:46:41Z</time>
      </trkpt>
      <trkpt lat="42.4076820" lon="-7.0118600">
        <ele>336.5</ele>
        <time>2014-10-01T11:46:42Z</time>
      </trkpt>
      <trkpt lat="42.4076810" lon="-7.0119310">
        <ele>336.5</ele>
        <time>2014-10-01T11:46:43Z</time>
      </trkpt>
      <trkpt lat="42.4076820" lon="-7.0119980">
        <ele>336.5</ele>
        <time>2014-10-01T11:46:44Z</time>
      </trkpt>
      <trkpt lat="42.4076850" lon="-7.0120690">
        <ele>336.5</ele>
        <time>2014-10-01T11:46:45Z</time>
      </trkpt>
      <trkpt lat="42.4076900" lon="-7.0121450">
        <ele>336.5</ele>
        <time>2014-10-01T11:46:46Z</time>
      </trkpt>
      <trkpt lat="42.4076950" lon="-7.0122110">
        <ele>336.6</ele>
        <time>2014-10-01T11:46:47Z</time>
      </trkpt>
      <trkpt lat="42.4077030" lon="-7.0122880">
        <ele>336.7</ele>
        <time>2014-10-01T11:46:48Z</time>
      </trkpt>
      <trkpt lat="42.4077100" lon="-7.0123630">
        <ele>336.9</ele>
        <time>2014-10-01T11:46:49Z</time>
      </trkpt>
      <trkpt lat="42.4077160" lon="-7.0124320">
        <ele>337.0</ele>
        <time>2014-10-01T11:46:50Z</time>
      </trkpt>
      <trkpt lat="42.4077220" lon="-7.0125050">
        <ele>337.2</ele>
        <time>2014-10-01T11:46:51Z</time>
      </trkpt>
      <trkpt lat="42.4077260" lon="-7.0125700">
        <ele>337.4</ele>
        <time>2014-10-01T11:46:52Z</time>
      </trkpt>
      <trkpt lat="42.4077340" lon="-7.0126450">
        <ele>337.6</ele>
        <time>2014-10-01T11:46:53Z</time>
      </trkpt>
      <trkpt lat="42.4077440" lon="-7.0127090">
        <ele>337.8</ele>
        <time>2014-10-01T11:46:54Z</time>
      </trkpt>
      <trkpt lat="42.4077540" lon="-7.0127610">
        <ele>338.0</ele>
        <time>2014-10-01T11:46:55Z</time>
      </trkpt>
      <trkpt lat="42.4077680" lon="-7.0128080">
        <ele>338.1</ele>
        <time>2014-10-01T11:46:56Z</time>
      </trkpt>
      <trkpt lat="42.4077960" lon="-7.0128600">
        <ele>338.3</ele>
        <time>2014-10-01T11:46:57Z</time>
      </trkpt>
      <trkpt lat="42.4078280" lon="-7.0129210">
        <ele>338.4</ele>
        <time>2014-10-01T11:46:58Z</time>
      </trkpt>
      <trkpt lat="42.4078660" lon="-7.0129850">
        <ele>338.5</ele>
        <time>2014-10-01T11:46:59Z</time>
      </trkpt>
      <trkpt lat="42.4079000" lon="-7.0130370">
        <ele>338.6</ele>
        <time>2014-10-01T11:47:00Z</time>
      </trkpt>
      <trkpt lat="42.4079400" lon="-7.0130980">
        <ele>338.6</ele>
        <time>2014-10-01T11:47:01Z</time>
      </trkpt>
      <trkpt lat="42.4079740" lon="-7.0131540">
        <ele>338.6</ele>
        <time>2014-10-01T11:47:02Z</time>
      </trkpt>
      <trkpt lat="42.4080100" lon="-7.0132130">
        <ele>338.5</ele>
        <time>2014-10-01T11:47:03Z</time>
      </trkpt>
      <trkpt lat="42.4080460" lon="-7.0132710">
        <ele>338.5</ele>
        <time>2014-10-01T11:47:04Z</time>
      </trkpt>
      <trkpt lat="42.4080860" lon="-7.0133330">
        <ele>338.5</ele>
        <time>2014-10-01T11:47:05Z</time>
      </trkpt>
      <trkpt lat="42.4081260" lon="-7.0133960">
        <ele>338.4</ele>
        <time>2014-10-01T11:47:06Z</time>
      </trkpt>
      <trkpt lat="42.4081690" lon="-7.0134650">
        <ele>338.4</ele>
        <time>2014-10-01T11:47:07Z</time>
      </trkpt>
      <trkpt lat="42.4082120" lon="-7.0135350">
        <ele>338.4</ele>
        <time>2014-10-01T11:47:08Z</time>
      </trkpt>
      <trkpt lat="42.4082530" lon="-7.0136060">
        <ele>338.5</ele>
        <time>2014-10-01T11:47:09Z</time>
      </trkpt>
      <trkpt lat="42.4082940" lon="-7.0136800">
        <ele>338.6</ele>
        <time>2014-10-01T11:47:10Z</time>
      </trkpt>
      <trkpt lat="42.4083330" lon="-7.0137640">
        <ele>338.7</ele>
        <time>2014-10-01T11:47:11Z</time>
      </trkpt>
      <trkpt lat="42.4083540" lon="-7.0138570">
        <ele>338.8</ele>
        <time>2014-10-01T11:47:12Z</time>
      </trkpt>
      <trkpt lat="42.4083710" lon="-7.0139460">
        <ele>339.0</ele>
        <time>2014-10-01T11:47:13Z</time>
      </trkpt>
      <trkpt lat="42.4083860" lon="-7.0140260">
        <ele>339.2</ele>
        <time>2014-10-01T11:47:14Z</time>
      </trkpt>
      <trkpt lat="42.4083970" lon="-7.0141040">
        <ele>339.5</ele>
        <time>2014-10-01T11:47:15Z</time>
      </trkpt>
      <trkpt lat="42.4084030" lon="-7.0141760">
        <ele>339.8</ele>
        <time>2014-10-01T11:47:16Z</time>
      </trkpt>
      <trkpt lat="42.4083960" lon="-7.0142530">
        <ele>340.1</ele>
        <time>2014-10-01T11:47:17Z</time>
      </trkpt>
      <trkpt lat="42.4083900" lon="-7.0143250">
        <ele>340.3</ele>
        <time>2014-10-01T11:47:18Z</time>
      </trkpt>
      <trkpt lat="42.4083840" lon="-7.0143930">
        <ele>340.6</ele>
        <time>2014-10-01T11:47:19Z</time>
      </trkpt>
      <trkpt lat="42.4083780" lon="-7.0144620">
        <ele>340.9</ele>
        <time>2014-10-01T11:47:20Z</time>
      </trkpt>
      <trkpt lat="42.4083730" lon="-7.0145270">
        <ele>341.2</ele>
        <time>2014-10-01T11:47:21Z</time>
      </trkpt>
      <trkpt lat="42.4083670" lon="-7.0145950">
        <ele>341.5</ele>
        <time>2014-10-01T11:47:22Z</time>
      </trkpt>
      <trkpt lat="42.4083600" lon="-7.0146630">
        <ele>341.8</ele>
        <time>2014-10-01T11:47:23Z</time>
      </trkpt>
      <trkpt lat="42.4083530" lon="-7.0147310">
        <ele>342.1</ele>
        <time>2014-10-01T11:47:24Z</time>
      </trkpt>
      <trkpt lat="42.4083490" lon="-7.0147910">
        <ele>342.4</ele>
        <time>2014-10-01T11:47:25Z</time>
      </trkpt>
      <trkpt lat="42.4083440" lon="-7.0148510">
        <ele>342.7</ele>
        <time>2014-10-01T11:47:26Z</time>
      </trkpt>
      <trkpt lat="42.4083370" lon="-7.0149090">
        <ele>342.9</ele>
        <time>2014-10-01T11:47:27Z</time>
      </trkpt>
      <trkpt lat="42.4083310" lon="-7.0149680">
        <ele>343.2</ele>
        <time>2014-10-01T11:47:28Z</time>
      </trkpt>
      <trkpt lat="42.4083230" lon="-7.0150310">
        <ele>343.5</ele>
        <time>2014-10-01T11:47:29Z</time>
      </trkpt>
      <trkpt lat="42.4083190" lon="-7.0150930">
        <ele>343.9</ele>
        <time>2014-10-01T11:47:30Z</time>
      </trkpt>
      <trkpt lat="42.4083150" lon="-7.0151510">
        <ele>344.2</ele>
        <time>2014-10-01T11:47:31Z</time>
      </trkpt>
      <trkpt lat="42.4083120" lon="-7.0152070">
        <ele>344.6</ele>
        <time>2014-10-01T11:47:32Z</time>
      </trkpt>
      <trkpt lat="42.4083090" lon="-7.0152630">
        <ele>344.9</ele>
        <time>2014-10-01T11:47:33Z</time>
      </trkpt>
      <trkpt lat="42.4083070" lon="-7.0153160">
        <ele>345.3</ele>
        <time>2014-10-01T11:47:34Z</time>
      </trkpt>
      <trkpt lat="42.4083030" lon="-7.0153680">
        <ele>345.7</ele>
        <time>2014-10-01T11:47:35Z</time>
      </trkpt>
      <trkpt lat="42.4082990" lon="-7.0154150">
        <ele>346.0</ele>
        <time>2014-10-01T11:47:36Z</time>
      </trkpt>
      <trkpt lat="42.4082940" lon="-7.0154690">
        <ele>346.4</ele>
        <time>2014-10-01T11:47:37Z</time>
      </trkpt>
      <trkpt lat="42.4082910" lon="-7.0155150">
        <ele>346.8</ele>
        <time>2014-10-01T11:47:38Z</time>
      </trkpt>
      <trkpt lat="42.4082870" lon="-7.0155540">
        <ele>347.1</ele>
        <time>2014-10-01T11:47:39Z</time>
      </trkpt>
      <trkpt lat="42.4082810" lon="-7.0156050">
        <ele>347.5</ele>
        <time>2014-10-01T11:47:40Z</time>
      </trkpt>
      <trkpt lat="42.4082750" lon="-7.0156480">
        <ele>347.9</ele>
        <time>2014-10-01T11:47:41Z</time>
      </trkpt>
      <trkpt lat="42.4082700" lon="-7.0156910">
        <ele>348.2</ele>
        <time>2014-10-01T11:47:42Z</time>
      </trkpt>
      <trkpt lat="42.4082630" lon="-7.0157390">
        <ele>348.6</ele>
        <time>2014-10-01T11:47:43Z</time>
      </trkpt>
      <trkpt lat="42.4082570" lon="-7.0157790">
        <ele>349.0</ele>
        <time>2014-10-01T11:47:44Z</time>
      </trkpt>
      <trkpt lat="42.4082500" lon="-7.0158180">
        <ele>349.3</ele>
        <time>2014-10-01T11:47:45Z</time>
      </trkpt>
      <trkpt lat="42.4082430" lon="-7.0158590">
        <ele>349.7</ele>
        <time>2014-10-01T11:47:46Z</time>
      </trkpt>
      <trkpt lat="42.4082340" lon="-7.0159010">
        <ele>350.0</ele>
        <time>2014-10-01T11:47:47Z</time>
      </trkpt>
      <trkpt lat="42.4082260" lon="-7.0159400">
        <ele>350.4</ele>
        <time>2014-10-01T11:47:48Z</time>
      </trkpt>
      <trkpt lat="42.4082180" lon="-7.0159780">
        <ele>350.7</ele>
        <time>2014-10-01T11:47:49Z</time>
      </trkpt>
      <trkpt lat="42.4082100" lon="-7.0160150">
        <ele>351.0</ele>
        <time>2014-10-01T11:47:50Z</time>
      </trkpt>
      <trkpt lat="42.4081960" lon="-7.0160970">
        <ele>351.7</ele>
        <time>2014-10-01T11:47:52Z</time>
      </trkpt>
      <trkpt lat="42.4081900" lon="-7.0161380">
        <ele>352.1</ele>
        <time>2014-10-01T11:47:53Z</time>
      </trkpt>
      <trkpt lat="42.4081860" lon="-7.0161770">
        <ele>352.5</ele>
        <time>2014-10-01T11:47:54Z</time>
      </trkpt>
      <trkpt lat="42.4081820" lon="-7.0162190">
        <ele>352.9</ele>
        <time>2014-10-01T11:47:55Z</time>
      </trkpt>
      <trkpt lat="42.4081790" lon="-7.0162570">
        <ele>353.2</ele>
        <time>2014-10-01T11:47:56Z</time>
      </trkpt>
      <trkpt lat="42.4081710" lon="-7.0163280">
        <ele>353.9</ele>
        <time>2014-10-01T11:47:58Z</time>
      </trkpt>
      <trkpt lat="42.4081630" lon="-7.0163960">
        <ele>354.4</ele>
        <time>2014-10-01T11:48:00Z</time>
      </trkpt>
      <trkpt lat="42.4081570" lon="-7.0164690">
        <ele>354.9</ele>
        <time>2014-10-01T11:48:02Z</time>
      </trkpt>
      <trkpt lat="42.4081490" lon="-7.0165380">
        <ele>355.2</ele>
        <time>2014-10-01T11:48:04Z</time>
      </trkpt>
      <trkpt lat="42.4081410" lon="-7.0166010">
        <ele>355.4</ele>
        <time>2014-10-01T11:48:06Z</time>
      </trkpt>
      <trkpt lat="42.4081380" lon="-7.0166410">
        <ele>355.5</ele>
        <time>2014-10-01T11:48:07Z</time>
      </trkpt>
      <trkpt lat="42.4081330" lon="-7.0166860">
        <ele>355.4</ele>
        <time>2014-10-01T11:48:08Z</time>
      </trkpt>
      <trkpt lat="42.4081290" lon="-7.0167350">
        <ele>355.2</ele>
        <time>2014-10-01T11:48:09Z</time>
      </trkpt>
      <trkpt lat="42.4081250" lon="-7.0167980">
        <ele>355.0</ele>
        <time>2014-10-01T11:48:10Z</time>
      </trkpt>
      <trkpt lat="42.4081220" lon="-7.0168670">
        <ele>354.8</ele>
        <time>2014-10-01T11:48:11Z</time>
      </trkpt>
      <trkpt lat="42.4081220" lon="-7.0169540">
        <ele>354.4</ele>
        <time>2014-10-01T11:48:12Z</time>
      </trkpt>
      <trkpt lat="42.4081270" lon="-7.0170460">
        <ele>354.1</ele>
        <time>2014-10-01T11:48:13Z</time>
      </trkpt>
      <trkpt lat="42.4081370" lon="-7.0171360">
        <ele>353.7</ele>
        <time>2014-10-01T11:48:14Z</time>
      </trkpt>
      <trkpt lat="42.4081520" lon="-7.0172240">
        <ele>353.3</ele>
        <time>2014-10-01T11:48:15Z</time>
      </trkpt>
      <trkpt lat="42.4081740" lon="-7.0173100">
        <ele>352.8</ele>
        <time>2014-10-01T11:48:16Z</time>
      </trkpt>
      <trkpt lat="42.4082030" lon="-7.0173890">
        <ele>352.3</ele>
        <time>2014-10-01T11:48:17Z</time>
      </trkpt>
      <trkpt lat="42.4082520" lon="-7.0174690">
        <ele>351.6</ele>
        <time>2014-10-01T11:48:18Z</time>
      </trkpt>
      <trkpt lat="42.4083030" lon="-7.0175560">
        <ele>350.7</ele>
        <time>2014-10-01T11:48:19Z</time>
      </trkpt>
      <trkpt lat="42.4083530" lon="-7.0176600">
        <ele>349.6</ele>
        <time>2014-10-01T11:48:20Z</time>
      </trkpt>
      <trkpt lat="42.4084000" lon="-7.0177690">
        <ele>348.4</ele>
        <time>2014-10-01T11:48:21Z</time>
      </trkpt>
      <trkpt lat="42.4084420" lon="-7.0178940">
        <ele>347.0</ele>
        <time>2014-10-01T11:48:22Z</time>
      </trkpt>
      <trkpt lat="42.4084780" lon="-7.0180310">
        <ele>345.3</ele>
        <time>2014-10-01T11:48:23Z</time>
      </trkpt>
      <trkpt lat="42.4084920" lon="-7.0181920">
        <ele>343.5</ele>
        <time>2014-10-01T11:48:24Z</time>
      </trkpt>
      <trkpt lat="42.4085070" lon="-7.0183590">
        <ele>341.7</ele>
        <time>2014-10-01T11:48:25Z</time>
      </trkpt>
      <trkpt lat="42.4085230" lon="-7.0185420">
        <ele>339.8</ele>
        <time>2014-10-01T11:48:26Z</time>
      </trkpt>
      <trkpt lat="42.4085330" lon="-7.0187270">
        <ele>338.3</ele>
        <time>2014-10-01T11:48:27Z</time>
      </trkpt>
      <trkpt lat="42.4085410" lon="-7.0189060">
        <ele>337.2</ele>
        <time>2014-10-01T11:48:28Z</time>
      </trkpt>
      <trkpt lat="42.4085410" lon="-7.0190870">
        <ele>336.2</ele>
        <time>2014-10-01T11:48:29Z</time>
      </trkpt>
      <trkpt lat="42.4085110" lon="-7.0192680">
        <ele>335.3</ele>
        <time>2014-10-01T11:48:30Z</time>
      </trkpt>
      <trkpt lat="42.4084790" lon="-7.0194300">
        <ele>334.4</ele>
        <time>2014-10-01T11:48:31Z</time>
      </trkpt>
      <trkpt lat="42.4084470" lon="-7.0195950">
        <ele>333.4</ele>
        <time>2014-10-01T11:48:32Z</time>
      </trkpt>
      <trkpt lat="42.4084180" lon="-7.0197750">
        <ele>332.1</ele>
        <time>2014-10-01T11:48:33Z</time>
      </trkpt>
      <trkpt lat="42.4083960" lon="-7.0199610">
        <ele>330.7</ele>
        <time>2014-10-01T11:48:34Z</time>
      </trkpt>
      <trkpt lat="42.4083790" lon="-7.0201530">
        <ele>328.9</ele>
        <time>2014-10-01T11:48:35Z</time>
      </trkpt>
      <trkpt lat="42.4083670" lon="-7.0203440">
        <ele>327.2</ele>
        <time>2014-10-01T11:48:36Z</time>
      </trkpt>
      <trkpt lat="42.4083600" lon="-7.0205400">
        <ele>325.4</ele>
        <time>2014-10-01T11:48:37Z</time>
      </trkpt>
      <trkpt lat="42.4083620" lon="-7.0207410">
        <ele>323.7</ele>
        <time>2014-10-01T11:48:38Z</time>
      </trkpt>
      <trkpt lat="42.4083750" lon="-7.0209350">
        <ele>323.4</ele>
        <time>2014-10-01T11:48:39Z</time>
      </trkpt>
      <trkpt lat="42.4083910" lon="-7.0211130">
        <ele>323.1</ele>
        <time>2014-10-01T11:48:40Z</time>
      </trkpt>
      <trkpt lat="42.4084060" lon="-7.0212920">
        <ele>322.9</ele>
        <time>2014-10-01T11:48:41Z</time>
      </trkpt>
      <trkpt lat="42.4084200" lon="-7.0214680">
        <ele>322.7</ele>
        <time>2014-10-01T11:48:42Z</time>
      </trkpt>
      <trkpt lat="42.4084330" lon="-7.0216340">
        <ele>322.5</ele>
        <time>2014-10-01T11:48:43Z</time>
      </trkpt>
      <trkpt lat="42.4084450" lon="-7.0217960">
        <ele>322.3</ele>
        <time>2014-10-01T11:48:44Z</time>
      </trkpt>
      <trkpt lat="42.4084570" lon="-7.0219600">
        <ele>322.2</ele>
        <time>2014-10-01T11:48:45Z</time>
      </trkpt>
      <trkpt lat="42.4084680" lon="-7.0221120">
        <ele>322.1</ele>
        <time>2014-10-01T11:48:46Z</time>
      </trkpt>
      <trkpt lat="42.4084710" lon="-7.0222660">
        <ele>321.9</ele>
        <time>2014-10-01T11:48:47Z</time>
      </trkpt>
      <trkpt lat="42.4084680" lon="-7.0224120">
        <ele>321.8</ele>
        <time>2014-10-01T11:48:48Z</time>
      </trkpt>
      <trkpt lat="42.4084640" lon="-7.0225520">
        <ele>321.6</ele>
        <time>2014-10-01T11:48:49Z</time>
      </trkpt>
      <trkpt lat="42.4084630" lon="-7.0226980">
        <ele>321.5</ele>
        <time>2014-10-01T11:48:50Z</time>
      </trkpt>
      <trkpt lat="42.4084690" lon="-7.0228460">
        <ele>321.3</ele>
        <time>2014-10-01T11:48:51Z</time>
      </trkpt>
      <trkpt lat="42.4084840" lon="-7.0229930">
        <ele>321.3</ele>
        <time>2014-10-01T11:48:52Z</time>
      </trkpt>
      <trkpt lat="42.4085040" lon="-7.0231400">
        <ele>321.2</ele>
        <time>2014-10-01T11:48:53Z</time>
      </trkpt>
      <trkpt lat="42.4085280" lon="-7.0232680">
        <ele>321.2</ele>
        <time>2014-10-01T11:48:54Z</time>
      </trkpt>
      <trkpt lat="42.4085530" lon="-7.0233960">
        <ele>321.3</ele>
        <time>2014-10-01T11:48:55Z</time>
      </trkpt>
      <trkpt lat="42.4085690" lon="-7.0235230">
        <ele>321.5</ele>
        <time>2014-10-01T11:48:56Z</time>
      </trkpt>
      <trkpt lat="42.4085770" lon="-7.0236460">
        <ele>321.8</ele>
        <time>2014-10-01T11:48:57Z</time>
      </trkpt>
      <trkpt lat="42.4085800" lon="-7.0237820">
        <ele>322.3</ele>
        <time>2014-10-01T11:48:58Z</time>
      </trkpt>
      <trkpt lat="42.4085770" lon="-7.0239130">
        <ele>323.0</ele>
        <time>2014-10-01T11:48:59Z</time>
      </trkpt>
      <trkpt lat="42.4085740" lon="-7.0240390">
        <ele>323.6</ele>
        <time>2014-10-01T11:49:00Z</time>
      </trkpt>
      <trkpt lat="42.4085730" lon="-7.0241650">
        <ele>324.3</ele>
        <time>2014-10-01T11:49:01Z</time>
      </trkpt>
      <trkpt lat="42.4085760" lon="-7.0242700">
        <ele>324.8</ele>
        <time>2014-10-01T11:49:02Z</time>
      </trkpt>
      <trkpt lat="42.4085820" lon="-7.0243710">
        <ele>325.2</ele>
        <time>2014-10-01T11:49:03Z</time>
      </trkpt>
      <trkpt lat="42.4085920" lon="-7.0244700">
        <ele>325.5</ele>
        <time>2014-10-01T11:49:04Z</time>
      </trkpt>
      <trkpt lat="42.4086020" lon="-7.0245620">
        <ele>325.8</ele>
        <time>2014-10-01T11:49:05Z</time>
      </trkpt>
      <trkpt lat="42.4086130" lon="-7.0246480">
        <ele>326.1</ele>
        <time>2014-10-01T11:49:06Z</time>
      </trkpt>
      <trkpt lat="42.4086200" lon="-7.0247320">
        <ele>326.3</ele>
        <time>2014-10-01T11:49:07Z</time>
      </trkpt>
      <trkpt lat="42.4086110" lon="-7.0248240">
        <ele>326.7</ele>
        <time>2014-10-01T11:49:08Z</time>
      </trkpt>
      <trkpt lat="42.4085820" lon="-7.0249130">
        <ele>327.2</ele>
        <time>2014-10-01T11:49:09Z</time>
      </trkpt>
      <trkpt lat="42.4085370" lon="-7.0249790">
        <ele>327.7</ele>
        <time>2014-10-01T11:49:10Z</time>
      </trkpt>
      <trkpt lat="42.4084880" lon="-7.0250210">
        <ele>328.1</ele>
        <time>2014-10-01T11:49:11Z</time>
      </trkpt>
      <trkpt lat="42.4084420" lon="-7.0250600">
        <ele>328.6</ele>
        <time>2014-10-01T11:49:12Z</time>
      </trkpt>
      <trkpt lat="42.4084000" lon="-7.0250990">
        <ele>329.0</ele>
        <time>2014-10-01T11:49:13Z</time>
      </trkpt>
      <trkpt lat="42.4083600" lon="-7.0251370">
        <ele>329.3</ele>
        <time>2014-10-01T11:49:14Z</time>
      </trkpt>
      <trkpt lat="42.4083360" lon="-7.0251710">
        <ele>329.6</ele>
        <time>2014-10-01T11:49:15Z</time>
      </trkpt>
      <trkpt lat="42.4083130" lon="-7.0252050">
        <ele>329.9</ele>
        <time>2014-10-01T11:49:16Z</time>
      </trkpt>
      <trkpt lat="42.4082830" lon="-7.0252380">
        <ele>330.2</ele>
        <time>2014-10-01T11:49:17Z</time>
      </trkpt>
      <trkpt lat="42.4082400" lon="-7.0252530">
        <ele>330.5</ele>
        <time>2014-10-01T11:49:19Z</time>
      </trkpt>
      <trkpt lat="42.4081770" lon="-7.0252680">
        <ele>330.9</ele>
        <time>2014-10-01T11:49:21Z</time>
      </trkpt>
      <trkpt lat="42.4081360" lon="-7.0252790">
        <ele>331.1</ele>
        <time>2014-10-01T11:49:22Z</time>
      </trkpt>
      <trkpt lat="42.4081000" lon="-7.0252890">
        <ele>331.2</ele>
        <time>2014-10-01T11:49:23Z</time>
      </trkpt>
      <trkpt lat="42.4080630" lon="-7.0253000">
        <ele>331.3</ele>
        <time>2014-10-01T11:49:24Z</time>
      </trkpt>
      <trkpt lat="42.4080260" lon="-7.0253090">
        <ele>331.4</ele>
        <time>2014-10-01T11:49:25Z</time>
      </trkpt>
      <trkpt lat="42.4079970" lon="-7.0253110">
        <ele>331.6</ele>
        <time>2014-10-01T11:49:26Z</time>
      </trkpt>
      <trkpt lat="42.4079650" lon="-7.0253120">
        <ele>331.9</ele>
        <time>2014-10-01T11:49:27Z</time>
      </trkpt>
      <trkpt lat="42.4079320" lon="-7.0253100">
        <ele>332.3</ele>
        <time>2014-10-01T11:49:28Z</time>
      </trkpt>
      <trkpt lat="42.4078950" lon="-7.0253090">
        <ele>332.8</ele>
        <time>2014-10-01T11:49:29Z</time>
      </trkpt>
      <trkpt lat="42.4078640" lon="-7.0253090">
        <ele>333.2</ele>
        <time>2014-10-01T11:49:30Z</time>
      </trkpt>
      <trkpt lat="42.4078340" lon="-7.0253100">
        <ele>333.5</ele>
        <time>2014-10-01T11:49:31Z</time>
      </trkpt>
      <trkpt lat="42.4078080" lon="-7.0253270">
        <ele>333.9</ele>
        <time>2014-10-01T11:49:32Z</time>
      </trkpt>
      <trkpt lat="42.4077680" lon="-7.0253560">
        <ele>334.5</ele>
        <time>2014-10-01T11:49:34Z</time>
      </trkpt>
      <trkpt lat="42.4077380" lon="-7.0253790">
        <ele>335.0</ele>
        <time>2014-10-01T11:49:35Z</time>
      </trkpt>
      <trkpt lat="42.4077160" lon="-7.0254120">
        <ele>335.4</ele>
        <time>2014-10-01T11:49:36Z</time>
      </trkpt>
      <trkpt lat="42.4077020" lon="-7.0254470">
        <ele>335.8</ele>
        <time>2014-10-01T11:49:37Z</time>
      </trkpt>
      <trkpt lat="42.4077010" lon="-7.0254870">
        <ele>336.3</ele>
        <time>2014-10-01T11:49:38Z</time>
      </trkpt>
      <trkpt lat="42.4077160" lon="-7.0255270">
        <ele>334.3</ele>
        <time>2014-10-01T11:49:39Z</time>
      </trkpt>
      <trkpt lat="42.4077310" lon="-7.0255760">
        <ele>332.9</ele>
        <time>2014-10-01T11:49:40Z</time>
      </trkpt>
      <trkpt lat="42.4077320" lon="-7.0256330">
        <ele>331.9</ele>
        <time>2014-10-01T11:49:41Z</time>
      </trkpt>
      <trkpt lat="42.4077190" lon="-7.0256720">
        <ele>331.9</ele>
        <time>2014-10-01T11:49:42Z</time>
      </trkpt>
      <trkpt lat="42.4077000" lon="-7.0257190">
        <ele>331.9</ele>
        <time>2014-10-01T11:49:44Z</time>
      </trkpt>
      <trkpt lat="42.4076790" lon="-7.0257940">
        <ele>331.8</ele>
        <time>2014-10-01T11:49:46Z</time>
      </trkpt>
      <trkpt lat="42.4076680" lon="-7.0258340">
        <ele>331.7</ele>
        <time>2014-10-01T11:49:47Z</time>
      </trkpt>
      <trkpt lat="42.4076560" lon="-7.0258800">
        <ele>331.6</ele>
        <time>2014-10-01T11:49:48Z</time>
      </trkpt>
      <trkpt lat="42.4076400" lon="-7.0259390">
        <ele>331.4</ele>
        <time>2014-10-01T11:49:49Z</time>
      </trkpt>
      <trkpt lat="42.4076360" lon="-7.0260010">
        <ele>331.2</ele>
        <time>2014-10-01T11:49:50Z</time>
      </trkpt>
      <trkpt lat="42.4076310" lon="-7.0260670">
        <ele>331.0</ele>
        <time>2014-10-01T11:49:51Z</time>
      </trkpt>
      <trkpt lat="42.4076250" lon="-7.0261400">
        <ele>330.6</ele>
        <time>2014-10-01T11:49:52Z</time>
      </trkpt>
      <trkpt lat="42.4076190" lon="-7.0262210">
        <ele>330.2</ele>
        <time>2014-10-01T11:49:53Z</time>
      </trkpt>
      <trkpt lat="42.4076120" lon="-7.0263030">
        <ele>329.6</ele>
        <time>2014-10-01T11:49:54Z</time>
      </trkpt>
      <trkpt lat="42.4076070" lon="-7.0263830">
        <ele>329.0</ele>
        <time>2014-10-01T11:49:55Z</time>
      </trkpt>
      <trkpt lat="42.4076070" lon="-7.0264760">
        <ele>328.2</ele>
        <time>2014-10-01T11:49:56Z</time>
      </trkpt>
      <trkpt lat="42.4076090" lon="-7.0265780">
        <ele>327.4</ele>
        <time>2014-10-01T11:49:57Z</time>
      </trkpt>
      <trkpt lat="42.4076150" lon="-7.0266800">
        <ele>326.5</ele>
        <time>2014-10-01T11:49:58Z</time>
      </trkpt>
      <trkpt lat="42.4076260" lon="-7.0267940">
        <ele>325.7</ele>
        <time>2014-10-01T11:49:59Z</time>
      </trkpt>
      <trkpt lat="42.4076380" lon="-7.0269230">
        <ele>324.8</ele>
        <time>2014-10-01T11:50:00Z</time>
      </trkpt>
      <trkpt lat="42.4076490" lon="-7.0270500">
        <ele>324.0</ele>
        <time>2014-10-01T11:50:01Z</time>
      </trkpt>
      <trkpt lat="42.4076570" lon="-7.0271850">
        <ele>323.3</ele>
        <time>2014-10-01T11:50:02Z</time>
      </trkpt>
      <trkpt lat="42.4076420" lon="-7.0273250">
        <ele>322.6</ele>
        <time>2014-10-01T11:50:03Z</time>
      </trkpt>
      <trkpt lat="42.4076200" lon="-7.0274640">
        <ele>322.0</ele>
        <time>2014-10-01T11:50:04Z</time>
      </trkpt>
      <trkpt lat="42.4075780" lon="-7.0275900">
        <ele>321.5</ele>
        <time>2014-10-01T11:50:05Z</time>
      </trkpt>
      <trkpt lat="42.4075330" lon="-7.0277080">
        <ele>321.0</ele>
        <time>2014-10-01T11:50:06Z</time>
      </trkpt>
      <trkpt lat="42.4074880" lon="-7.0278240">
        <ele>320.3</ele>
        <time>2014-10-01T11:50:07Z</time>
      </trkpt>
      <trkpt lat="42.4074410" lon="-7.0279410">
        <ele>320.1</ele>
        <time>2014-10-01T11:50:08Z</time>
      </trkpt>
      <trkpt lat="42.4074020" lon="-7.0280600">
        <ele>320.0</ele>
        <time>2014-10-01T11:50:09Z</time>
      </trkpt>
      <trkpt lat="42.4073650" lon="-7.0281910">
        <ele>319.9</ele>
        <time>2014-10-01T11:50:10Z</time>
      </trkpt>
      <trkpt lat="42.4073340" lon="-7.0283220">
        <ele>319.8</ele>
        <time>2014-10-01T11:50:11Z</time>
      </trkpt>
      <trkpt lat="42.4073040" lon="-7.0284450">
        <ele>319.8</ele>
        <time>2014-10-01T11:50:12Z</time>
      </trkpt>
      <trkpt lat="42.4072690" lon="-7.0285670">
        <ele>319.7</ele>
        <time>2014-10-01T11:50:13Z</time>
      </trkpt>
      <trkpt lat="42.4072350" lon="-7.0286780">
        <ele>319.7</ele>
        <time>2014-10-01T11:50:14Z</time>
      </trkpt>
      <trkpt lat="42.4072060" lon="-7.0287730">
        <ele>319.7</ele>
        <time>2014-10-01T11:50:15Z</time>
      </trkpt>
      <trkpt lat="42.4071760" lon="-7.0288750">
        <ele>319.7</ele>
        <time>2014-10-01T11:50:16Z</time>
      </trkpt>
      <trkpt lat="42.4071510" lon="-7.0289860">
        <ele>319.7</ele>
        <time>2014-10-01T11:50:17Z</time>
      </trkpt>
      <trkpt lat="42.4071310" lon="-7.0291000">
        <ele>319.7</ele>
        <time>2014-10-01T11:50:18Z</time>
      </trkpt>
      <trkpt lat="42.4071130" lon="-7.0292130">
        <ele>319.6</ele>
        <time>2014-10-01T11:50:19Z</time>
      </trkpt>
      <trkpt lat="42.4070960" lon="-7.0293210">
        <ele>319.5</ele>
        <time>2014-10-01T11:50:20Z</time>
      </trkpt>
      <trkpt lat="42.4070780" lon="-7.0294290">
        <ele>319.5</ele>
        <time>2014-10-01T11:50:21Z</time>
      </trkpt>
      <trkpt lat="42.4070630" lon="-7.0295400">
        <ele>319.4</ele>
        <time>2014-10-01T11:50:22Z</time>
      </trkpt>
      <trkpt lat="42.4070700" lon="-7.0296490">
        <ele>319.4</ele>
        <time>2014-10-01T11:50:23Z</time>
      </trkpt>
      <trkpt lat="42.4070770" lon="-7.0297610">
        <ele>319.3</ele>
        <time>2014-10-01T11:50:24Z</time>
      </trkpt>
      <trkpt lat="42.4070880" lon="-7.0298720">
        <ele>319.2</ele>
        <time>2014-10-01T11:50:25Z</time>
      </trkpt>
      <trkpt lat="42.4071040" lon="-7.0299720">
        <ele>319.2</ele>
        <time>2014-10-01T11:50:26Z</time>
      </trkpt>
      <trkpt lat="42.4071250" lon="-7.0300750">
        <ele>319.1</ele>
        <time>2014-10-01T11:50:27Z</time>
      </trkpt>
      <trkpt lat="42.4071460" lon="-7.0301810">
        <ele>319.0</ele>
        <time>2014-10-01T11:50:28Z</time>
      </trkpt>
      <trkpt lat="42.4071650" lon="-7.0302910">
        <ele>319.0</ele>
        <time>2014-10-01T11:50:29Z</time>
      </trkpt>
      <trkpt lat="42.4071840" lon="-7.0304020">
        <ele>318.9</ele>
        <time>2014-10-01T11:50:30Z</time>
      </trkpt>
      <trkpt lat="42.4072030" lon="-7.0305030">
        <ele>318.9</ele>
        <time>2014-10-01T11:50:31Z</time>
      </trkpt>
      <trkpt lat="42.4072220" lon="-7.0306060">
        <ele>318.8</ele>
        <time>2014-10-01T11:50:32Z</time>
      </trkpt>
      <trkpt lat="42.4072440" lon="-7.0307050">
        <ele>318.8</ele>
        <time>2014-10-01T11:50:33Z</time>
      </trkpt>
      <trkpt lat="42.4072660" lon="-7.0308050">
        <ele>318.7</ele>
        <time>2014-10-01T11:50:34Z</time>
      </trkpt>
      <trkpt lat="42.4072870" lon="-7.0309120">
        <ele>318.7</ele>
        <time>2014-10-01T11:50:35Z</time>
      </trkpt>
      <trkpt lat="42.4073060" lon="-7.0310170">
        <ele>318.6</ele>
        <time>2014-10-01T11:50:36Z</time>
      </trkpt>
      <trkpt lat="42.4073230" lon="-7.0311230">
        <ele>318.6</ele>
        <time>2014-10-01T11:50:37Z</time>
      </trkpt>
      <trkpt lat="42.4073400" lon="-7.0312300">
        <ele>318.5</ele>
        <time>2014-10-01T11:50:38Z</time>
      </trkpt>
      <trkpt lat="42.4073540" lon="-7.0313400">
        <ele>318.4</ele>
        <time>2014-10-01T11:50:39Z</time>
      </trkpt>
      <trkpt lat="42.4073640" lon="-7.0314450">
        <ele>318.3</ele>
        <time>2014-10-01T11:50:40Z</time>
      </trkpt>
      <trkpt lat="42.4073700" lon="-7.0315530">
        <ele>318.2</ele>
        <time>2014-10-01T11:50:41Z</time>
      </trkpt>
      <trkpt lat="42.4073710" lon="-7.0316650">
        <ele>318.0</ele>
        <time>2014-10-01T11:50:42Z</time>
      </trkpt>
      <trkpt lat="42.4073690" lon="-7.0317720">
        <ele>317.9</ele>
        <time>2014-10-01T11:50:43Z</time>
      </trkpt>
      <trkpt lat="42.4073640" lon="-7.0318860">
        <ele>317.7</ele>
        <time>2014-10-01T11:50:44Z</time>
      </trkpt>
      <trkpt lat="42.4073580" lon="-7.0320030">
        <ele>317.6</ele>
        <time>2014-10-01T11:50:45Z</time>
      </trkpt>
      <trkpt lat="42.4073530" lon="-7.0321230">
        <ele>317.5</ele>
        <time>2014-10-01T11:50:46Z</time>
      </trkpt>
      <trkpt lat="42.4073480" lon="-7.0322450">
        <ele>317.3</ele>
        <time>2014-10-01T11:50:47Z</time>
      </trkpt>
      <trkpt lat="42.4073480" lon="-7.0323630">
        <ele>317.2</ele>
        <time>2014-10-01T11:50:48Z</time>
      </trkpt>
      <trkpt lat="42.4073480" lon="-7.0324740">
        <ele>317.2</ele>
        <time>2014-10-01T11:50:49Z</time>
      </trkpt>
      <trkpt lat="42.4073520" lon="-7.0325890">
        <ele>317.2</ele>
        <time>2014-10-01T11:50:50Z</time>
      </trkpt>
      <trkpt lat="42.4073560" lon="-7.0327060">
        <ele>317.1</ele>
        <time>2014-10-01T11:50:51Z</time>
      </trkpt>
      <trkpt lat="42.4073630" lon="-7.0328180">
        <ele>317.0</ele>
        <time>2014-10-01T11:50:52Z</time>
      </trkpt>
      <trkpt lat="42.4073710" lon="-7.0329310">
        <ele>316.9</ele>
        <time>2014-10-01T11:50:53Z</time>
      </trkpt>
      <trkpt lat="42.4073790" lon="-7.0330470">
        <ele>316.9</ele>
        <time>2014-10-01T11:50:54Z</time>
      </trkpt>
      <trkpt lat="42.4073870" lon="-7.0331650">
        <ele>316.8</ele>
        <time>2014-10-01T11:50:55Z</time>
      </trkpt>
      <trkpt lat="42.4073970" lon="-7.0332840">
        <ele>316.7</ele>
        <time>2014-10-01T11:50:56Z</time>
      </trkpt>
      <trkpt lat="42.4074070" lon="-7.0333990">
        <ele>316.6</ele>
        <time>2014-10-01T11:50:57Z</time>
      </trkpt>
      <trkpt lat="42.4074230" lon="-7.0335170">
        <ele>316.4</ele>
        <time>2014-10-01T11:50:58Z</time>
      </trkpt>
      <trkpt lat="42.4074410" lon="-7.0336320">
        <ele>316.2</ele>
        <time>2014-10-01T11:50:59Z</time>
      </trkpt>
      <trkpt lat="42.4074560" lon="-7.0337440">
        <ele>316.0</ele>
        <time>2014-10-01T11:51:00Z</time>
      </trkpt>
      <trkpt lat="42.4074520" lon="-7.0338640">
        <ele>315.8</ele>
        <time>2014-10-01T11:51:01Z</time>
      </trkpt>
      <trkpt lat="42.4074390" lon="-7.0339810">
        <ele>315.6</ele>
        <time>2014-10-01T11:51:02Z</time>
      </trkpt>
      <trkpt lat="42.4074020" lon="-7.0340900">
        <ele>315.5</ele>
        <time>2014-10-01T11:51:03Z</time>
      </trkpt>
      <trkpt lat="42.4073630" lon="-7.0341910">
        <ele>315.3</ele>
        <time>2014-10-01T11:51:04Z</time>
      </trkpt>
      <trkpt lat="42.4073200" lon="-7.0342960">
        <ele>315.2</ele>
        <time>2014-10-01T11:51:05Z</time>
      </trkpt>
      <trkpt lat="42.4072790" lon="-7.0344050">
        <ele>314.9</ele>
        <time>2014-10-01T11:51:06Z</time>
      </trkpt>
      <trkpt lat="42.4072590" lon="-7.0345210">
        <ele>314.7</ele>
        <time>2014-10-01T11:51:07Z</time>
      </trkpt>
      <trkpt lat="42.4072430" lon="-7.0346430">
        <ele>314.5</ele>
        <time>2014-10-01T11:51:08Z</time>
      </trkpt>
      <trkpt lat="42.4072360" lon="-7.0347650">
        <ele>314.4</ele>
        <time>2014-10-01T11:51:09Z</time>
      </trkpt>
      <trkpt lat="42.4072330" lon="-7.0348830">
        <ele>314.3</ele>
        <time>2014-10-01T11:51:10Z</time>
      </trkpt>
      <trkpt lat="42.4072290" lon="-7.0350040">
        <ele>314.2</ele>
        <time>2014-10-01T11:51:11Z</time>
      </trkpt>
      <trkpt lat="42.4072270" lon="-7.0351210">
        <ele>314.1</ele>
        <time>2014-10-01T11:51:12Z</time>
      </trkpt>
      <trkpt lat="42.4072210" lon="-7.0352400">
        <ele>314.0</ele>
        <time>2014-10-01T11:51:13Z</time>
      </trkpt>
      <trkpt lat="42.4072140" lon="-7.0353570">
        <ele>313.9</ele>
        <time>2014-10-01T11:51:14Z</time>
      </trkpt>
      <trkpt lat="42.4072060" lon="-7.0354740">
        <ele>313.8</ele>
        <time>2014-10-01T11:51:15Z</time>
      </trkpt>
      <trkpt lat="42.4071940" lon="-7.0355890">
        <ele>313.6</ele>
        <time>2014-10-01T11:51:16Z</time>
      </trkpt>
      <trkpt lat="42.4071780" lon="-7.0357000">
        <ele>313.5</ele>
        <time>2014-10-01T11:51:17Z</time>
      </trkpt>
      <trkpt lat="42.4071420" lon="-7.0358080">
        <ele>313.3</ele>
        <time>2014-10-01T11:51:18Z</time>
      </trkpt>
      <trkpt lat="42.4071030" lon="-7.0359120">
        <ele>313.1</ele>
        <time>2014-10-01T11:51:19Z</time>
      </trkpt>
      <trkpt lat="42.4070580" lon="-7.0360160">
        <ele>312.9</ele>
        <time>2014-10-01T11:51:20Z</time>
      </trkpt>
      <trkpt lat="42.4070070" lon="-7.0361150">
        <ele>312.7</ele>
        <time>2014-10-01T11:51:21Z</time>
      </trkpt>
      <trkpt lat="42.4069530" lon="-7.0362100">
        <ele>312.5</ele>
        <time>2014-10-01T11:51:22Z</time>
      </trkpt>
      <trkpt lat="42.4068960" lon="-7.0363010">
        <ele>312.3</ele>
        <time>2014-10-01T11:51:23Z</time>
      </trkpt>
      <trkpt lat="42.4068350" lon="-7.0363930">
        <ele>312.1</ele>
        <time>2014-10-01T11:51:24Z</time>
      </trkpt>
      <trkpt lat="42.4067720" lon="-7.0364860">
        <ele>311.9</ele>
        <time>2014-10-01T11:51:25Z</time>
      </trkpt>
      <trkpt lat="42.4067090" lon="-7.0365820">
        <ele>311.6</ele>
        <time>2014-10-01T11:51:26Z</time>
      </trkpt>
      <trkpt lat="42.4066500" lon="-7.0366810">
        <ele>311.5</ele>
        <time>2014-10-01T11:51:27Z</time>
      </trkpt>
      <trkpt lat="42.4065940" lon="-7.0367770">
        <ele>311.5</ele>
        <time>2014-10-01T11:51:28Z</time>
      </trkpt>
      <trkpt lat="42.4065400" lon="-7.0368700">
        <ele>311.5</ele>
        <time>2014-10-01T11:51:29Z</time>
      </trkpt>
      <trkpt lat="42.4064810" lon="-7.0369610">
        <ele>311.5</ele>
        <time>2014-10-01T11:51:30Z</time>
      </trkpt>
      <trkpt lat="42.4064180" lon="-7.0370500">
        <ele>311.5</ele>
        <time>2014-10-01T11:51:31Z</time>
      </trkpt>
      <trkpt lat="42.4063540" lon="-7.0371360">
        <ele>311.5</ele>
        <time>2014-10-01T11:51:32Z</time>
      </trkpt>
      <trkpt lat="42.4062890" lon="-7.0372200">
        <ele>311.6</ele>
        <time>2014-10-01T11:51:33Z</time>
      </trkpt>
      <trkpt lat="42.4062260" lon="-7.0373010">
        <ele>311.6</ele>
        <time>2014-10-01T11:51:34Z</time>
      </trkpt>
      <trkpt lat="42.4061630" lon="-7.0373790">
        <ele>311.5</ele>
        <time>2014-10-01T11:51:35Z</time>
      </trkpt>
      <trkpt lat="42.4061000" lon="-7.0374570">
        <ele>311.5</ele>
        <time>2014-10-01T11:51:36Z</time>
      </trkpt>
      <trkpt lat="42.4060400" lon="-7.0375420">
        <ele>311.5</ele>
        <time>2014-10-01T11:51:37Z</time>
      </trkpt>
      <trkpt lat="42.4059840" lon="-7.0376340">
        <ele>311.4</ele>
        <time>2014-10-01T11:51:38Z</time>
      </trkpt>
      <trkpt lat="42.4059350" lon="-7.0377280">
        <ele>311.4</ele>
        <time>2014-10-01T11:51:39Z</time>
      </trkpt>
      <trkpt lat="42.4058870" lon="-7.0378250">
        <ele>311.3</ele>
        <time>2014-10-01T11:51:40Z</time>
      </trkpt>
      <trkpt lat="42.4058400" lon="-7.0379190">
        <ele>311.2</ele>
        <time>2014-10-01T11:51:41Z</time>
      </trkpt>
      <trkpt lat="42.4057940" lon="-7.0380140">
        <ele>311.1</ele>
        <time>2014-10-01T11:51:42Z</time>
      </trkpt>
      <trkpt lat="42.4057480" lon="-7.0381090">
        <ele>311.0</ele>
        <time>2014-10-01T11:51:43Z</time>
      </trkpt>
      <trkpt lat="42.4057000" lon="-7.0381980">
        <ele>311.0</ele>
        <time>2014-10-01T11:51:44Z</time>
      </trkpt>
      <trkpt lat="42.4056510" lon="-7.0382820">
        <ele>310.9</ele>
        <time>2014-10-01T11:51:45Z</time>
      </trkpt>
      <trkpt lat="42.4055990" lon="-7.0383620">
        <ele>310.8</ele>
        <time>2014-10-01T11:51:46Z</time>
      </trkpt>
      <trkpt lat="42.4055450" lon="-7.0384390">
        <ele>310.7</ele>
        <time>2014-10-01T11:51:47Z</time>
      </trkpt>
      <trkpt lat="42.4054900" lon="-7.0385170">
        <ele>310.7</ele>
        <time>2014-10-01T11:51:48Z</time>
      </trkpt>
      <trkpt lat="42.4054340" lon="-7.0385940">
        <ele>310.6</ele>
        <time>2014-10-01T11:51:49Z</time>
      </trkpt>
      <trkpt lat="42.4053770" lon="-7.0386740">
        <ele>310.5</ele>
        <time>2014-10-01T11:51:50Z</time>
      </trkpt>
      <trkpt lat="42.4053210" lon="-7.0387580">
        <ele>310.3</ele>
        <time>2014-10-01T11:51:51Z</time>
      </trkpt>
      <trkpt lat="42.4052660" lon="-7.0388450">
        <ele>310.2</ele>
        <time>2014-10-01T11:51:52Z</time>
      </trkpt>
      <trkpt lat="42.4052140" lon="-7.0389370">
        <ele>310.3</ele>
        <time>2014-10-01T11:51:53Z</time>
      </trkpt>
      <trkpt lat="42.4051650" lon="-7.0390330">
        <ele>310.3</ele>
        <time>2014-10-01T11:51:54Z</time>
      </trkpt>
      <trkpt lat="42.4051180" lon="-7.0391300">
        <ele>310.3</ele>
        <time>2014-10-01T11:51:55Z</time>
      </trkpt>
      <trkpt lat="42.4050720" lon="-7.0392260">
        <ele>310.4</ele>
        <time>2014-10-01T11:51:56Z</time>
      </trkpt>
      <trkpt lat="42.4050240" lon="-7.0393170">
        <ele>310.4</ele>
        <time>2014-10-01T11:51:57Z</time>
      </trkpt>
      <trkpt lat="42.4049710" lon="-7.0394030">
        <ele>310.5</ele>
        <time>2014-10-01T11:51:58Z</time>
      </trkpt>
      <trkpt lat="42.4049020" lon="-7.0394710">
        <ele>310.6</ele>
        <time>2014-10-01T11:51:59Z</time>
      </trkpt>
      <trkpt lat="42.4048300" lon="-7.0395310">
        <ele>310.7</ele>
        <time>2014-10-01T11:52:00Z</time>
      </trkpt>
      <trkpt lat="42.4047610" lon="-7.0395810">
        <ele>310.9</ele>
        <time>2014-10-01T11:52:01Z</time>
      </trkpt>
      <trkpt lat="42.4046880" lon="-7.0396260">
        <ele>311.1</ele>
        <time>2014-10-01T11:52:02Z</time>
      </trkpt>
      <trkpt lat="42.4046170" lon="-7.0396690">
        <ele>311.3</ele>
        <time>2014-10-01T11:52:03Z</time>
      </trkpt>
      <trkpt lat="42.4045450" lon="-7.0397090">
        <ele>311.5</ele>
        <time>2014-10-01T11:52:04Z</time>
      </trkpt>
      <trkpt lat="42.4044820" lon="-7.0397420">
        <ele>311.8</ele>
        <time>2014-10-01T11:52:05Z</time>
      </trkpt>
      <trkpt lat="42.4044210" lon="-7.0397730">
        <ele>312.1</ele>
        <time>2014-10-01T11:52:06Z</time>
      </trkpt>
      <trkpt lat="42.4043590" lon="-7.0398050">
        <ele>312.3</ele>
        <time>2014-10-01T11:52:07Z</time>
      </trkpt>
      <trkpt lat="42.4043000" lon="-7.0398390">
        <ele>312.6</ele>
        <time>2014-10-01T11:52:08Z</time>
      </trkpt>
      <trkpt lat="42.4042410" lon="-7.0398790">
        <ele>312.9</ele>
        <time>2014-10-01T11:52:09Z</time>
      </trkpt>
      <trkpt lat="42.4041880" lon="-7.0399250">
        <ele>313.1</ele>
        <time>2014-10-01T11:52:10Z</time>
      </trkpt>
      <trkpt lat="42.4041400" lon="-7.0399730">
        <ele>313.2</ele>
        <time>2014-10-01T11:52:11Z</time>
      </trkpt>
      <trkpt lat="42.4041070" lon="-7.0400380">
        <ele>313.4</ele>
        <time>2014-10-01T11:52:12Z</time>
      </trkpt>
      <trkpt lat="42.4040810" lon="-7.0401020">
        <ele>313.5</ele>
        <time>2014-10-01T11:52:13Z</time>
      </trkpt>
      <trkpt lat="42.4040710" lon="-7.0401750">
        <ele>313.7</ele>
        <time>2014-10-01T11:52:14Z</time>
      </trkpt>
      <trkpt lat="42.4040590" lon="-7.0402460">
        <ele>313.7</ele>
        <time>2014-10-01T11:52:15Z</time>
      </trkpt>
      <trkpt lat="42.4040430" lon="-7.0403150">
        <ele>313.6</ele>
        <time>2014-10-01T11:52:16Z</time>
      </trkpt>
      <trkpt lat="42.4040270" lon="-7.0403810">
        <ele>313.5</ele>
        <time>2014-10-01T11:52:17Z</time>
      </trkpt>
      <trkpt lat="42.4040090" lon="-7.0404580">
        <ele>313.1</ele>
        <time>2014-10-01T11:52:18Z</time>
      </trkpt>
      <trkpt lat="42.4039900" lon="-7.0405440">
        <ele>312.7</ele>
        <time>2014-10-01T11:52:19Z</time>
      </trkpt>
      <trkpt lat="42.4039710" lon="-7.0406430">
        <ele>312.0</ele>
        <time>2014-10-01T11:52:20Z</time>
      </trkpt>
      <trkpt lat="42.4039500" lon="-7.0407510">
        <ele>311.3</ele>
        <time>2014-10-01T11:52:21Z</time>
      </trkpt>
      <trkpt lat="42.4039270" lon="-7.0408610">
        <ele>310.5</ele>
        <time>2014-10-01T11:52:22Z</time>
      </trkpt>
      <trkpt lat="42.4039010" lon="-7.0409720">
        <ele>309.6</ele>
        <time>2014-10-01T11:52:23Z</time>
      </trkpt>
      <trkpt lat="42.4038750" lon="-7.0410820">
        <ele>308.8</ele>
        <time>2014-10-01T11:52:24Z</time>
      </trkpt>
      <trkpt lat="42.4038470" lon="-7.0412060">
        <ele>308.0</ele>
        <time>2014-10-01T11:52:25Z</time>
      </trkpt>
      <trkpt lat="42.4038220" lon="-7.0413270">
        <ele>307.5</ele>
        <time>2014-10-01T11:52:26Z</time>
      </trkpt>
      <trkpt lat="42.4038230" lon="-7.0414450">
        <ele>307.2</ele>
        <time>2014-10-01T11:52:27Z</time>
      </trkpt>
      <trkpt lat="42.4038210" lon="-7.0415670">
        <ele>307.0</ele>
        <time>2014-10-01T11:52:28Z</time>
      </trkpt>
      <trkpt lat="42.4038150" lon="-7.0416870">
        <ele>307.0</ele>
        <time>2014-10-01T11:52:29Z</time>
      </trkpt>
      <trkpt lat="42.4038030" lon="-7.0417980">
        <ele>307.1</ele>
        <time>2014-10-01T11:52:30Z</time>
      </trkpt>
      <trkpt lat="42.4037900" lon="-7.0419040">
        <ele>307.3</ele>
        <time>2014-10-01T11:52:31Z</time>
      </trkpt>
      <trkpt lat="42.4037760" lon="-7.0420090">
        <ele>307.5</ele>
        <time>2014-10-01T11:52:32Z</time>
      </trkpt>
      <trkpt lat="42.4037600" lon="-7.0421150">
        <ele>307.7</ele>
        <time>2014-10-01T11:52:33Z</time>
      </trkpt>
      <trkpt lat="42.4037450" lon="-7.0422030">
        <ele>307.8</ele>
        <time>2014-10-01T11:52:34Z</time>
      </trkpt>
      <trkpt lat="42.4037330" lon="-7.0422900">
        <ele>308.0</ele>
        <time>2014-10-01T11:52:35Z</time>
      </trkpt>
      <trkpt lat="42.4037180" lon="-7.0423890">
        <ele>308.2</ele>
        <time>2014-10-01T11:52:36Z</time>
      </trkpt>
      <trkpt lat="42.4037010" lon="-7.0424910">
        <ele>308.4</ele>
        <time>2014-10-01T11:52:37Z</time>
      </trkpt>
      <trkpt lat="42.4036810" lon="-7.0425940">
        <ele>308.6</ele>
        <time>2014-10-01T11:52:38Z</time>
      </trkpt>
      <trkpt lat="42.4036590" lon="-7.0426940">
        <ele>308.9</ele>
        <time>2014-10-01T11:52:39Z</time>
      </trkpt>
      <trkpt lat="42.4036340" lon="-7.0427910">
        <ele>309.2</ele>
        <time>2014-10-01T11:52:40Z</time>
      </trkpt>
      <trkpt lat="42.4036120" lon="-7.0428830">
        <ele>309.5</ele>
        <time>2014-10-01T11:52:41Z</time>
      </trkpt>
      <trkpt lat="42.4035930" lon="-7.0429690">
        <ele>309.9</ele>
        <time>2014-10-01T11:52:42Z</time>
      </trkpt>
      <trkpt lat="42.4035770" lon="-7.0430490">
        <ele>310.2</ele>
        <time>2014-10-01T11:52:43Z</time>
      </trkpt>
      <trkpt lat="42.4035610" lon="-7.0431230">
        <ele>310.5</ele>
        <time>2014-10-01T11:52:44Z</time>
      </trkpt>
      <trkpt lat="42.4035430" lon="-7.0431980">
        <ele>310.8</ele>
        <time>2014-10-01T11:52:45Z</time>
      </trkpt>
      <trkpt lat="42.4035250" lon="-7.0432680">
        <ele>311.1</ele>
        <time>2014-10-01T11:52:46Z</time>
      </trkpt>
      <trkpt lat="42.4035090" lon="-7.0433340">
        <ele>311.4</ele>
        <time>2014-10-01T11:52:47Z</time>
      </trkpt>
      <trkpt lat="42.4034930" lon="-7.0433930">
        <ele>311.6</ele>
        <time>2014-10-01T11:52:48Z</time>
      </trkpt>
      <trkpt lat="42.4034730" lon="-7.0434590">
        <ele>311.9</ele>
        <time>2014-10-01T11:52:49Z</time>
      </trkpt>
      <trkpt lat="42.4034550" lon="-7.0435180">
        <ele>312.2</ele>
        <time>2014-10-01T11:52:50Z</time>
      </trkpt>
      <trkpt lat="42.4034360" lon="-7.0435810">
        <ele>312.5</ele>
        <time>2014-10-01T11:52:51Z</time>
      </trkpt>
      <trkpt lat="42.4034180" lon="-7.0436450">
        <ele>312.7</ele>
        <time>2014-10-01T11:52:52Z</time>
      </trkpt>
      <trkpt lat="42.4033990" lon="-7.0437110">
        <ele>313.1</ele>
        <time>2014-10-01T11:52:53Z</time>
      </trkpt>
      <trkpt lat="42.4033820" lon="-7.0437730">
        <ele>313.4</ele>
        <time>2014-10-01T11:52:54Z</time>
      </trkpt>
      <trkpt lat="42.4033670" lon="-7.0438310">
        <ele>313.7</ele>
        <time>2014-10-01T11:52:55Z</time>
      </trkpt>
      <trkpt lat="42.4033530" lon="-7.0438870">
        <ele>314.0</ele>
        <time>2014-10-01T11:52:56Z</time>
      </trkpt>
      <trkpt lat="42.4033380" lon="-7.0439450">
        <ele>314.3</ele>
        <time>2014-10-01T11:52:57Z</time>
      </trkpt>
      <trkpt lat="42.4033240" lon="-7.0440050">
        <ele>314.6</ele>
        <time>2014-10-01T11:52:58Z</time>
      </trkpt>
      <trkpt lat="42.4033110" lon="-7.0440590">
        <ele>314.9</ele>
        <time>2014-10-01T11:52:59Z</time>
      </trkpt>
      <trkpt lat="42.4033000" lon="-7.0441130">
        <ele>315.1</ele>
        <time>2014-10-01T11:53:00Z</time>
      </trkpt>
      <trkpt lat="42.4032860" lon="-7.0441700">
        <ele>315.4</ele>
        <time>2014-10-01T11:53:01Z</time>
      </trkpt>
      <trkpt lat="42.4032730" lon="-7.0442240">
        <ele>315.6</ele>
        <time>2014-10-01T11:53:02Z</time>
      </trkpt>
      <trkpt lat="42.4032620" lon="-7.0442730">
        <ele>315.8</ele>
        <time>2014-10-01T11:53:03Z</time>
      </trkpt>
      <trkpt lat="42.4032520" lon="-7.0443320">
        <ele>316.1</ele>
        <time>2014-10-01T11:53:04Z</time>
      </trkpt>
      <trkpt lat="42.4032450" lon="-7.0443870">
        <ele>316.3</ele>
        <time>2014-10-01T11:53:05Z</time>
      </trkpt>
      <trkpt lat="42.4032400" lon="-7.0444420">
        <ele>316.5</ele>
        <time>2014-10-01T11:53:06Z</time>
      </trkpt>
      <trkpt lat="42.4032370" lon="-7.0444940">
        <ele>316.7</ele>
        <time>2014-10-01T11:53:07Z</time>
      </trkpt>
      <trkpt lat="42.4032350" lon="-7.0445510">
        <ele>316.9</ele>
        <time>2014-10-01T11:53:08Z</time>
      </trkpt>
      <trkpt lat="42.4032320" lon="-7.0446110">
        <ele>317.1</ele>
        <time>2014-10-01T11:53:09Z</time>
      </trkpt>
      <trkpt lat="42.4032300" lon="-7.0446690">
        <ele>317.3</ele>
        <time>2014-10-01T11:53:10Z</time>
      </trkpt>
      <trkpt lat="42.4032280" lon="-7.0447250">
        <ele>317.4</ele>
        <time>2014-10-01T11:53:11Z</time>
      </trkpt>
      <trkpt lat="42.4032270" lon="-7.0447790">
        <ele>317.6</ele>
        <time>2014-10-01T11:53:12Z</time>
      </trkpt>
      <trkpt lat="42.4032280" lon="-7.0448360">
        <ele>317.8</ele>
        <time>2014-10-01T11:53:13Z</time>
      </trkpt>
      <trkpt lat="42.4032310" lon="-7.0448920">
        <ele>318.0</ele>
        <time>2014-10-01T11:53:14Z</time>
      </trkpt>
      <trkpt lat="42.4032350" lon="-7.0449490">
        <ele>318.2</ele>
        <time>2014-10-01T11:53:15Z</time>
      </trkpt>
      <trkpt lat="42.4032420" lon="-7.0450040">
        <ele>318.4</ele>
        <time>2014-10-01T11:53:16Z</time>
      </trkpt>
      <trkpt lat="42.4032490" lon="-7.0450620">
        <ele>318.6</ele>
        <time>2014-10-01T11:53:17Z</time>
      </trkpt>
      <trkpt lat="42.4032560" lon="-7.0451240">
        <ele>318.7</ele>
        <time>2014-10-01T11:53:18Z</time>
      </trkpt>
      <trkpt lat="42.4032620" lon="-7.0451860">
        <ele>318.9</ele>
        <time>2014-10-01T11:53:19Z</time>
      </trkpt>
      <trkpt lat="42.4032660" lon="-7.0452540">
        <ele>319.1</ele>
        <time>2014-10-01T11:53:20Z</time>
      </trkpt>
      <trkpt lat="42.4032680" lon="-7.0453180">
        <ele>319.3</ele>
        <time>2014-10-01T11:53:21Z</time>
      </trkpt>
      <trkpt lat="42.4032670" lon="-7.0453780">
        <ele>319.4</ele>
        <time>2014-10-01T11:53:22Z</time>
      </trkpt>
      <trkpt lat="42.4032640" lon="-7.0454380">
        <ele>319.6</ele>
        <time>2014-10-01T11:53:23Z</time>
      </trkpt>
      <trkpt lat="42.4032600" lon="-7.0454980">
        <ele>319.8</ele>
        <time>2014-10-01T11:53:24Z</time>
      </trkpt>
      <trkpt lat="42.4032540" lon="-7.0455580">
        <ele>320.0</ele>
        <time>2014-10-01T11:53:25Z</time>
      </trkpt>
      <trkpt lat="42.4032470" lon="-7.0456190">
        <ele>320.2</ele>
        <time>2014-10-01T11:53:26Z</time>
      </trkpt>
      <trkpt lat="42.4032400" lon="-7.0456810">
        <ele>320.4</ele>
        <time>2014-10-01T11:53:27Z</time>
      </trkpt>
      <trkpt lat="42.4032310" lon="-7.0457420">
        <ele>320.6</ele>
        <time>2014-10-01T11:53:28Z</time>
      </trkpt>
      <trkpt lat="42.4032210" lon="-7.0458030">
        <ele>320.8</ele>
        <time>2014-10-01T11:53:29Z</time>
      </trkpt>
      <trkpt lat="42.4032110" lon="-7.0458640">
        <ele>321.0</ele>
        <time>2014-10-01T11:53:30Z</time>
      </trkpt>
      <trkpt lat="42.4031980" lon="-7.0459240">
        <ele>321.1</ele>
        <time>2014-10-01T11:53:31Z</time>
      </trkpt>
      <trkpt lat="42.4031830" lon="-7.0459860">
        <ele>321.3</ele>
        <time>2014-10-01T11:53:32Z</time>
      </trkpt>
      <trkpt lat="42.4031570" lon="-7.0460440">
        <ele>321.5</ele>
        <time>2014-10-01T11:53:33Z</time>
      </trkpt>
      <trkpt lat="42.4031290" lon="-7.0461020">
        <ele>321.6</ele>
        <time>2014-10-01T11:53:34Z</time>
      </trkpt>
      <trkpt lat="42.4031020" lon="-7.0461590">
        <ele>321.8</ele>
        <time>2014-10-01T11:53:35Z</time>
      </trkpt>
      <trkpt lat="42.4030720" lon="-7.0462190">
        <ele>322.0</ele>
        <time>2014-10-01T11:53:36Z</time>
      </trkpt>
      <trkpt lat="42.4030440" lon="-7.0462800">
        <ele>322.2</ele>
        <time>2014-10-01T11:53:37Z</time>
      </trkpt>
      <trkpt lat="42.4030180" lon="-7.0463430">
        <ele>322.5</ele>
        <time>2014-10-01T11:53:38Z</time>
      </trkpt>
      <trkpt lat="42.4029970" lon="-7.0464010">
        <ele>322.7</ele>
        <time>2014-10-01T11:53:39Z</time>
      </trkpt>
      <trkpt lat="42.4029810" lon="-7.0464580">
        <ele>322.9</ele>
        <time>2014-10-01T11:53:40Z</time>
      </trkpt>
      <trkpt lat="42.4029660" lon="-7.0465160">
        <ele>323.2</ele>
        <time>2014-10-01T11:53:41Z</time>
      </trkpt>
      <trkpt lat="42.4029550" lon="-7.0465710">
        <ele>323.3</ele>
        <time>2014-10-01T11:53:42Z</time>
      </trkpt>
      <trkpt lat="42.4029440" lon="-7.0466240">
        <ele>323.5</ele>
        <time>2014-10-01T11:53:43Z</time>
      </trkpt>
      <trkpt lat="42.4029370" lon="-7.0466720">
        <ele>323.6</ele>
        <time>2014-10-01T11:53:44Z</time>
      </trkpt>
      <trkpt lat="42.4029330" lon="-7.0467230">
        <ele>323.7</ele>
        <time>2014-10-01T11:53:45Z</time>
      </trkpt>
      <trkpt lat="42.4029280" lon="-7.0467840">
        <ele>323.8</ele>
        <time>2014-10-01T11:53:46Z</time>
      </trkpt>
      <trkpt lat="42.4029250" lon="-7.0468420">
        <ele>323.8</ele>
        <time>2014-10-01T11:53:47Z</time>
      </trkpt>
      <trkpt lat="42.4029320" lon="-7.0469000">
        <ele>323.8</ele>
        <time>2014-10-01T11:53:48Z</time>
      </trkpt>
      <trkpt lat="42.4029540" lon="-7.0469630">
        <ele>323.7</ele>
        <time>2014-10-01T11:53:49Z</time>
      </trkpt>
      <trkpt lat="42.4029770" lon="-7.0470250">
        <ele>323.6</ele>
        <time>2014-10-01T11:53:50Z</time>
      </trkpt>
      <trkpt lat="42.4030020" lon="-7.0470840">
        <ele>323.4</ele>
        <time>2014-10-01T11:53:51Z</time>
      </trkpt>
      <trkpt lat="42.4030340" lon="-7.0471490">
        <ele>323.2</ele>
        <time>2014-10-01T11:53:52Z</time>
      </trkpt>
      <trkpt lat="42.4030700" lon="-7.0472150">
        <ele>322.9</ele>
        <time>2014-10-01T11:53:53Z</time>
      </trkpt>
      <trkpt lat="42.4031140" lon="-7.0472890">
        <ele>322.6</ele>
        <time>2014-10-01T11:53:54Z</time>
      </trkpt>
      <trkpt lat="42.4031740" lon="-7.0473570">
        <ele>322.3</ele>
        <time>2014-10-01T11:53:55Z</time>
      </trkpt>
      <trkpt lat="42.4032350" lon="-7.0474250">
        <ele>322.1</ele>
        <time>2014-10-01T11:53:56Z</time>
      </trkpt>
      <trkpt lat="42.4033010" lon="-7.0475010">
        <ele>321.9</ele>
        <time>2014-10-01T11:53:57Z</time>
      </trkpt>
      <trkpt lat="42.4033690" lon="-7.0475830">
        <ele>321.9</ele>
        <time>2014-10-01T11:53:58Z</time>
      </trkpt>
      <trkpt lat="42.4034160" lon="-7.0476650">
        <ele>322.0</ele>
        <time>2014-10-01T11:53:59Z</time>
      </trkpt>
      <trkpt lat="42.4034610" lon="-7.0477520">
        <ele>322.4</ele>
        <time>2014-10-01T11:54:00Z</time>
      </trkpt>
      <trkpt lat="42.4034870" lon="-7.0478420">
        <ele>322.9</ele>
        <time>2014-10-01T11:54:01Z</time>
      </trkpt>
      <trkpt lat="42.4035060" lon="-7.0479340">
        <ele>323.5</ele>
        <time>2014-10-01T11:54:02Z</time>
      </trkpt>
      <trkpt lat="42.4035030" lon="-7.0480200">
        <ele>324.1</ele>
        <time>2014-10-01T11:54:03Z</time>
      </trkpt>
      <trkpt lat="42.4034960" lon="-7.0481100">
        <ele>324.8</ele>
        <time>2014-10-01T11:54:04Z</time>
      </trkpt>
      <trkpt lat="42.4034860" lon="-7.0481850">
        <ele>325.5</ele>
        <time>2014-10-01T11:54:05Z</time>
      </trkpt>
      <trkpt lat="42.4034790" lon="-7.0482410">
        <ele>326.0</ele>
        <time>2014-10-01T11:54:06Z</time>
      </trkpt>
      <trkpt lat="42.4034750" lon="-7.0482850">
        <ele>326.4</ele>
        <time>2014-10-01T11:54:07Z</time>
      </trkpt>
      <trkpt lat="42.4034690" lon="-7.0483480">
        <ele>327.0</ele>
        <time>2014-10-01T11:54:08Z</time>
      </trkpt>
      <trkpt lat="42.4034620" lon="-7.0483980">
        <ele>327.5</ele>
        <time>2014-10-01T11:54:09Z</time>
      </trkpt>
      <trkpt lat="42.4034570" lon="-7.0484360">
        <ele>327.8</ele>
        <time>2014-10-01T11:54:10Z</time>
      </trkpt>
      <trkpt lat="42.4034510" lon="-7.0484730">
        <ele>328.2</ele>
        <time>2014-10-01T11:54:11Z</time>
      </trkpt>
      <trkpt lat="42.4034340" lon="-7.0485490">
        <ele>328.8</ele>
        <time>2014-10-01T11:54:13Z</time>
      </trkpt>
      <trkpt lat="42.4034210" lon="-7.0485870">
        <ele>329.1</ele>
        <time>2014-10-01T11:54:14Z</time>
      </trkpt>
      <trkpt lat="42.4034080" lon="-7.0486260">
        <ele>329.4</ele>
        <time>2014-10-01T11:54:15Z</time>
      </trkpt>
      <trkpt lat="42.4033930" lon="-7.0486660">
        <ele>329.6</ele>
        <time>2014-10-01T11:54:16Z</time>
      </trkpt>
      <trkpt lat="42.4033760" lon="-7.0487080">
        <ele>329.9</ele>
        <time>2014-10-01T11:54:17Z</time>
      </trkpt>
      <trkpt lat="42.4033590" lon="-7.0487470">
        <ele>330.2</ele>
        <time>2014-10-01T11:54:18Z</time>
      </trkpt>
      <trkpt lat="42.4033430" lon="-7.0487850">
        <ele>330.5</ele>
        <time>2014-10-01T11:54:19Z</time>
      </trkpt>
      <trkpt lat="42.4033240" lon="-7.0488230">
        <ele>330.8</ele>
        <time>2014-10-01T11:54:20Z</time>
      </trkpt>
      <trkpt lat="42.4033070" lon="-7.0488610">
        <ele>331.0</ele>
        <time>2014-10-01T11:54:21Z</time>
      </trkpt>
      <trkpt lat="42.4032930" lon="-7.0488950">
        <ele>331.2</ele>
        <time>2014-10-01T11:54:22Z</time>
      </trkpt>
      <trkpt lat="42.4032900" lon="-7.0489340">
        <ele>331.4</ele>
        <time>2014-10-01T11:54:23Z</time>
      </trkpt>
      <trkpt lat="42.4033040" lon="-7.0489770">
        <ele>331.7</ele>
        <time>2014-10-01T11:54:24Z</time>
      </trkpt>
      <trkpt lat="42.4033270" lon="-7.0490090">
        <ele>331.9</ele>
        <time>2014-10-01T11:54:25Z</time>
      </trkpt>
      <trkpt lat="42.4033550" lon="-7.0490310">
        <ele>332.1</ele>
        <time>2014-10-01T11:54:26Z</time>
      </trkpt>
      <trkpt lat="42.4033880" lon="-7.0490360">
        <ele>332.4</ele>
        <time>2014-10-01T11:54:27Z</time>
      </trkpt>
      <trkpt lat="42.4034280" lon="-7.0490370">
        <ele>332.6</ele>
        <time>2014-10-01T11:54:28Z</time>
      </trkpt>
      <trkpt lat="42.4034740" lon="-7.0490340">
        <ele>332.9</ele>
        <time>2014-10-01T11:54:29Z</time>
      </trkpt>
      <trkpt lat="42.4035090" lon="-7.0490270">
        <ele>333.2</ele>
        <time>2014-10-01T11:54:30Z</time>
      </trkpt>
      <trkpt lat="42.4035410" lon="-7.0490180">
        <ele>333.3</ele>
        <time>2014-10-01T11:54:31Z</time>
      </trkpt>
      <trkpt lat="42.4035740" lon="-7.0490110">
        <ele>333.5</ele>
        <time>2014-10-01T11:54:32Z</time>
      </trkpt>
      <trkpt lat="42.4036050" lon="-7.0490050">
        <ele>333.7</ele>
        <time>2014-10-01T11:54:33Z</time>
      </trkpt>
      <trkpt lat="42.4036350" lon="-7.0490030">
        <ele>333.9</ele>
        <time>2014-10-01T11:54:34Z</time>
      </trkpt>
      <trkpt lat="42.4036680" lon="-7.0490030">
        <ele>334.1</ele>
        <time>2014-10-01T11:54:35Z</time>
      </trkpt>
      <trkpt lat="42.4036970" lon="-7.0490060">
        <ele>334.2</ele>
        <time>2014-10-01T11:54:36Z</time>
      </trkpt>
      <trkpt lat="42.4037280" lon="-7.0490180">
        <ele>334.4</ele>
        <time>2014-10-01T11:54:37Z</time>
      </trkpt>
      <trkpt lat="42.4037640" lon="-7.0490380">
        <ele>334.6</ele>
        <time>2014-10-01T11:54:38Z</time>
      </trkpt>
      <trkpt lat="42.4037920" lon="-7.0490760">
        <ele>334.8</ele>
        <time>2014-10-01T11:54:39Z</time>
      </trkpt>
      <trkpt lat="42.4038140" lon="-7.0491130">
        <ele>334.9</ele>
        <time>2014-10-01T11:54:40Z</time>
      </trkpt>
      <trkpt lat="42.4038320" lon="-7.0491640">
        <ele>335.0</ele>
        <time>2014-10-01T11:54:41Z</time>
      </trkpt>
      <trkpt lat="42.4038440" lon="-7.0492080">
        <ele>334.9</ele>
        <time>2014-10-01T11:54:42Z</time>
      </trkpt>
      <trkpt lat="42.4038440" lon="-7.0492580">
        <ele>334.9</ele>
        <time>2014-10-01T11:54:43Z</time>
      </trkpt>
      <trkpt lat="42.4038420" lon="-7.0493170">
        <ele>334.7</ele>
        <time>2014-10-01T11:54:44Z</time>
      </trkpt>
      <trkpt lat="42.4038220" lon="-7.0494010">
        <ele>334.4</ele>
        <time>2014-10-01T11:54:45Z</time>
      </trkpt>
      <trkpt lat="42.4037990" lon="-7.0494880">
        <ele>334.0</ele>
        <time>2014-10-01T11:54:46Z</time>
      </trkpt>
      <trkpt lat="42.4037780" lon="-7.0495740">
        <ele>333.6</ele>
        <time>2014-10-01T11:54:47Z</time>
      </trkpt>
      <trkpt lat="42.4037740" lon="-7.0496520">
        <ele>333.3</ele>
        <time>2014-10-01T11:54:48Z</time>
      </trkpt>
      <trkpt lat="42.4037980" lon="-7.0497170">
        <ele>333.1</ele>
        <time>2014-10-01T11:54:49Z</time>
      </trkpt>
      <trkpt lat="42.4038390" lon="-7.0497700">
        <ele>333.0</ele>
        <time>2014-10-01T11:54:50Z</time>
      </trkpt>
      <trkpt lat="42.4038830" lon="-7.0498230">
        <ele>332.9</ele>
        <time>2014-10-01T11:54:51Z</time>
      </trkpt>
      <trkpt lat="42.4039320" lon="-7.0498760">
        <ele>332.9</ele>
        <time>2014-10-01T11:54:52Z</time>
      </trkpt>
      <trkpt lat="42.4039840" lon="-7.0499280">
        <ele>333.1</ele>
        <time>2014-10-01T11:54:53Z</time>
      </trkpt>
      <trkpt lat="42.4040370" lon="-7.0499730">
        <ele>333.3</ele>
        <time>2014-10-01T11:54:54Z</time>
      </trkpt>
      <trkpt lat="42.4040880" lon="-7.0500190">
        <ele>333.5</ele>
        <time>2014-10-01T11:54:55Z</time>
      </trkpt>
      <trkpt lat="42.4041370" lon="-7.0500580">
        <ele>333.7</ele>
        <time>2014-10-01T11:54:56Z</time>
      </trkpt>
      <trkpt lat="42.4041840" lon="-7.0501000">
        <ele>333.9</ele>
        <time>2014-10-01T11:54:57Z</time>
      </trkpt>
      <trkpt lat="42.4042250" lon="-7.0501400">
        <ele>334.1</ele>
        <time>2014-10-01T11:54:58Z</time>
      </trkpt>
      <trkpt lat="42.4042650" lon="-7.0501800">
        <ele>334.3</ele>
        <time>2014-10-01T11:54:59Z</time>
      </trkpt>
      <trkpt lat="42.4043060" lon="-7.0502200">
        <ele>334.5</ele>
        <time>2014-10-01T11:55:00Z</time>
      </trkpt>
      <trkpt lat="42.4043470" lon="-7.0502600">
        <ele>334.6</ele>
        <time>2014-10-01T11:55:01Z</time>
      </trkpt>
      <trkpt lat="42.4043840" lon="-7.0502960">
        <ele>334.7</ele>
        <time>2014-10-01T11:55:02Z</time>
      </trkpt>
      <trkpt lat="42.4044220" lon="-7.0503390">
        <ele>334.6</ele>
        <time>2014-10-01T11:55:03Z</time>
      </trkpt>
      <trkpt lat="42.4044650" lon="-7.0503850">
        <ele>334.4</ele>
        <time>2014-10-01T11:55:04Z</time>
      </trkpt>
      <trkpt lat="42.4045150" lon="-7.0504460">
        <ele>334.3</ele>
        <time>2014-10-01T11:55:05Z</time>
      </trkpt>
      <trkpt lat="42.4045650" lon="-7.0505120">
        <ele>334.5</ele>
        <time>2014-10-01T11:55:06Z</time>
      </trkpt>
      <trkpt lat="42.4046110" lon="-7.0505820">
        <ele>334.6</ele>
        <time>2014-10-01T11:55:07Z</time>
      </trkpt>
      <trkpt lat="42.4046480" lon="-7.0506460">
        <ele>334.7</ele>
        <time>2014-10-01T11:55:08Z</time>
      </trkpt>
      <trkpt lat="42.4046780" lon="-7.0507260">
        <ele>334.7</ele>
        <time>2014-10-01T11:55:09Z</time>
      </trkpt>
      <trkpt lat="42.4047050" lon="-7.0508030">
        <ele>334.8</ele>
        <time>2014-10-01T11:55:10Z</time>
      </trkpt>
      <trkpt lat="42.4047310" lon="-7.0508760">
        <ele>334.8</ele>
        <time>2014-10-01T11:55:11Z</time>
      </trkpt>
      <trkpt lat="42.4047590" lon="-7.0509470">
        <ele>334.8</ele>
        <time>2014-10-01T11:55:12Z</time>
      </trkpt>
      <trkpt lat="42.4047860" lon="-7.0510190">
        <ele>334.9</ele>
        <time>2014-10-01T11:55:13Z</time>
      </trkpt>
      <trkpt lat="42.4048130" lon="-7.0510880">
        <ele>334.9</ele>
        <time>2014-10-01T11:55:14Z</time>
      </trkpt>
      <trkpt lat="42.4048440" lon="-7.0511640">
        <ele>334.9</ele>
        <time>2014-10-01T11:55:15Z</time>
      </trkpt>
      <trkpt lat="42.4048820" lon="-7.0512470">
        <ele>335.0</ele>
        <time>2014-10-01T11:55:16Z</time>
      </trkpt>
      <trkpt lat="42.4049210" lon="-7.0513280">
        <ele>335.2</ele>
        <time>2014-10-01T11:55:17Z</time>
      </trkpt>
      <trkpt lat="42.4049620" lon="-7.0514090">
        <ele>335.4</ele>
        <time>2014-10-01T11:55:18Z</time>
      </trkpt>
      <trkpt lat="42.4050000" lon="-7.0514820">
        <ele>335.6</ele>
        <time>2014-10-01T11:55:19Z</time>
      </trkpt>
      <trkpt lat="42.4050350" lon="-7.0515480">
        <ele>335.8</ele>
        <time>2014-10-01T11:55:20Z</time>
      </trkpt>
      <trkpt lat="42.4050670" lon="-7.0516160">
        <ele>336.1</ele>
        <time>2014-10-01T11:55:21Z</time>
      </trkpt>
      <trkpt lat="42.4050930" lon="-7.0516840">
        <ele>336.4</ele>
        <time>2014-10-01T11:55:22Z</time>
      </trkpt>
      <trkpt lat="42.4051040" lon="-7.0517460">
        <ele>336.7</ele>
        <time>2014-10-01T11:55:23Z</time>
      </trkpt>
      <trkpt lat="42.4051260" lon="-7.0518120">
        <ele>336.9</ele>
        <time>2014-10-01T11:55:24Z</time>
      </trkpt>
      <trkpt lat="42.4051450" lon="-7.0518750">
        <ele>337.0</ele>
        <time>2014-10-01T11:55:25Z</time>
      </trkpt>
      <trkpt lat="42.4051660" lon="-7.0519310">
        <ele>337.1</ele>
        <time>2014-10-01T11:55:26Z</time>
      </trkpt>
      <trkpt lat="42.4051990" lon="-7.0519630">
        <ele>337.1</ele>
        <time>2014-10-01T11:55:27Z</time>
      </trkpt>
      <trkpt lat="42.4052380" lon="-7.0519960">
        <ele>337.1</ele>
        <time>2014-10-01T11:55:28Z</time>
      </trkpt>
      <trkpt lat="42.4052840" lon="-7.0520300">
        <ele>337.1</ele>
        <time>2014-10-01T11:55:29Z</time>
      </trkpt>
      <trkpt lat="42.4053380" lon="-7.0520710">
        <ele>337.0</ele>
        <time>2014-10-01T11:55:30Z</time>
      </trkpt>
      <trkpt lat="42.4054030" lon="-7.0521250">
        <ele>337.0</ele>
        <time>2014-10-01T11:55:31Z</time>
      </trkpt>
      <trkpt lat="42.4054610" lon="-7.0521770">
        <ele>337.1</ele>
        <time>2014-10-01T11:55:32Z</time>
      </trkpt>
      <trkpt lat="42.4055170" lon="-7.0522330">
        <ele>337.2</ele>
        <time>2014-10-01T11:55:33Z</time>
      </trkpt>
      <trkpt lat="42.4055630" lon="-7.0522850">
        <ele>337.3</ele>
        <time>2014-10-01T11:55:34Z</time>
      </trkpt>
      <trkpt lat="42.4056080" lon="-7.0523410">
        <ele>337.5</ele>
        <time>2014-10-01T11:55:35Z</time>
      </trkpt>
      <trkpt lat="42.4056480" lon="-7.0523940">
        <ele>337.6</ele>
        <time>2014-10-01T11:55:36Z</time>
      </trkpt>
      <trkpt lat="42.4056870" lon="-7.0524490">
        <ele>337.7</ele>
        <time>2014-10-01T11:55:37Z</time>
      </trkpt>
      <trkpt lat="42.4057240" lon="-7.0525010">
        <ele>337.7</ele>
        <time>2014-10-01T11:55:38Z</time>
      </trkpt>
      <trkpt lat="42.4057550" lon="-7.0525460">
        <ele>337.8</ele>
        <time>2014-10-01T11:55:39Z</time>
      </trkpt>
      <trkpt lat="42.4057900" lon="-7.0525920">
        <ele>337.7</ele>
        <time>2014-10-01T11:55:40Z</time>
      </trkpt>
      <trkpt lat="42.4058300" lon="-7.0526380">
        <ele>337.7</ele>
        <time>2014-10-01T11:55:41Z</time>
      </trkpt>
      <trkpt lat="42.4058570" lon="-7.0526750">
        <ele>337.7</ele>
        <time>2014-10-01T11:55:42Z</time>
      </trkpt>
      <trkpt lat="42.4058930" lon="-7.0527210">
        <ele>337.7</ele>
        <time>2014-10-01T11:55:43Z</time>
      </trkpt>
      <trkpt lat="42.4059340" lon="-7.0527740">
        <ele>337.8</ele>
        <time>2014-10-01T11:55:44Z</time>
      </trkpt>
      <trkpt lat="42.4059770" lon="-7.0528300">
        <ele>337.9</ele>
        <time>2014-10-01T11:55:45Z</time>
      </trkpt>
      <trkpt lat="42.4060180" lon="-7.0528840">
        <ele>338.0</ele>
        <time>2014-10-01T11:55:46Z</time>
      </trkpt>
      <trkpt lat="42.4060590" lon="-7.0529310">
        <ele>338.1</ele>
        <time>2014-10-01T11:55:47Z</time>
      </trkpt>
      <trkpt lat="42.4060990" lon="-7.0529740">
        <ele>338.2</ele>
        <time>2014-10-01T11:55:48Z</time>
      </trkpt>
      <trkpt lat="42.4061440" lon="-7.0530020">
        <ele>338.3</ele>
        <time>2014-10-01T11:55:49Z</time>
      </trkpt>
      <trkpt lat="42.4061890" lon="-7.0530250">
        <ele>338.4</ele>
        <time>2014-10-01T11:55:50Z</time>
      </trkpt>
      <trkpt lat="42.4062380" lon="-7.0530330">
        <ele>338.5</ele>
        <time>2014-10-01T11:55:51Z</time>
      </trkpt>
      <trkpt lat="42.4062820" lon="-7.0530420">
        <ele>338.5</ele>
        <time>2014-10-01T11:55:52Z</time>
      </trkpt>
      <trkpt lat="42.4063410" lon="-7.0530580">
        <ele>338.6</ele>
        <time>2014-10-01T11:55:53Z</time>
      </trkpt>
      <trkpt lat="42.4063900" lon="-7.0530850">
        <ele>338.6</ele>
        <time>2014-10-01T11:55:54Z</time>
      </trkpt>
      <trkpt lat="42.4064480" lon="-7.0531170">
        <ele>338.7</ele>
        <time>2014-10-01T11:55:55Z</time>
      </trkpt>
      <trkpt lat="42.4065090" lon="-7.0531530">
        <ele>338.8</ele>
        <time>2014-10-01T11:55:56Z</time>
      </trkpt>
      <trkpt lat="42.4065610" lon="-7.0531870">
        <ele>338.9</ele>
        <time>2014-10-01T11:55:57Z</time>
      </trkpt>
      <trkpt lat="42.4066110" lon="-7.0532250">
        <ele>339.2</ele>
        <time>2014-10-01T11:55:58Z</time>
      </trkpt>
      <trkpt lat="42.4066630" lon="-7.0532630">
        <ele>339.5</ele>
        <time>2014-10-01T11:55:59Z</time>
      </trkpt>
      <trkpt lat="42.4067100" lon="-7.0532970">
        <ele>339.8</ele>
        <time>2014-10-01T11:56:00Z</time>
      </trkpt>
      <trkpt lat="42.4067600" lon="-7.0533330">
        <ele>340.3</ele>
        <time>2014-10-01T11:56:01Z</time>
      </trkpt>
      <trkpt lat="42.4067950" lon="-7.0533630">
        <ele>340.6</ele>
        <time>2014-10-01T11:56:02Z</time>
      </trkpt>
      <trkpt lat="42.4068370" lon="-7.0533980">
        <ele>341.0</ele>
        <time>2014-10-01T11:56:03Z</time>
      </trkpt>
      <trkpt lat="42.4068690" lon="-7.0534310">
        <ele>341.4</ele>
        <time>2014-10-01T11:56:04Z</time>
      </trkpt>
      <trkpt lat="42.4068980" lon="-7.0534620">
        <ele>341.7</ele>
        <time>2014-10-01T11:56:05Z</time>
      </trkpt>
      <trkpt lat="42.4069230" lon="-7.0534920">
        <ele>342.0</ele>
        <time>2014-10-01T11:56:06Z</time>
      </trkpt>
      <trkpt lat="42.4069510" lon="-7.0535270">
        <ele>342.3</ele>
        <time>2014-10-01T11:56:07Z</time>
      </trkpt>
      <trkpt lat="42.4069820" lon="-7.0535730">
        <ele>342.7</ele>
        <time>2014-10-01T11:56:08Z</time>
      </trkpt>
      <trkpt lat="42.4070040" lon="-7.0536190">
        <ele>343.0</ele>
        <time>2014-10-01T11:56:09Z</time>
      </trkpt>
      <trkpt lat="42.4070200" lon="-7.0536610">
        <ele>343.1</ele>
        <time>2014-10-01T11:56:10Z</time>
      </trkpt>
      <trkpt lat="42.4070390" lon="-7.0537110">
        <ele>342.9</ele>
        <time>2014-10-01T11:56:11Z</time>
      </trkpt>
      <trkpt lat="42.4070510" lon="-7.0537740">
        <ele>343.3</ele>
        <time>2014-10-01T11:56:12Z</time>
      </trkpt>
      <trkpt lat="42.4070600" lon="-7.0538330">
        <ele>343.7</ele>
        <time>2014-10-01T11:56:13Z</time>
      </trkpt>
      <trkpt lat="42.4070680" lon="-7.0538880">
        <ele>344.2</ele>
        <time>2014-10-01T11:56:14Z</time>
      </trkpt>
      <trkpt lat="42.4070720" lon="-7.0539420">
        <ele>344.6</ele>
        <time>2014-10-01T11:56:15Z</time>
      </trkpt>
      <trkpt lat="42.4070750" lon="-7.0539910">
        <ele>345.0</ele>
        <time>2014-10-01T11:56:16Z</time>
      </trkpt>
      <trkpt lat="42.4070740" lon="-7.0540310">
        <ele>345.4</ele>
        <time>2014-10-01T11:56:17Z</time>
      </trkpt>
      <trkpt lat="42.4070750" lon="-7.0540820">
        <ele>345.9</ele>
        <time>2014-10-01T11:56:18Z</time>
      </trkpt>
      <trkpt lat="42.4070770" lon="-7.0541560">
        <ele>346.6</ele>
        <time>2014-10-01T11:56:20Z</time>
      </trkpt>
      <trkpt lat="42.4070800" lon="-7.0542150">
        <ele>347.1</ele>
        <time>2014-10-01T11:56:22Z</time>
      </trkpt>
      <trkpt lat="42.4070820" lon="-7.0542830">
        <ele>347.7</ele>
        <time>2014-10-01T11:56:24Z</time>
      </trkpt>
      <trkpt lat="42.4070820" lon="-7.0543190">
        <ele>348.0</ele>
        <time>2014-10-01T11:56:25Z</time>
      </trkpt>
      <trkpt lat="42.4070830" lon="-7.0543780">
        <ele>348.5</ele>
        <time>2014-10-01T11:56:27Z</time>
      </trkpt>
      <trkpt lat="42.4070870" lon="-7.0544480">
        <ele>349.0</ele>
        <time>2014-10-01T11:56:29Z</time>
      </trkpt>
      <trkpt lat="42.4070910" lon="-7.0545140">
        <ele>349.5</ele>
        <time>2014-10-01T11:56:31Z</time>
      </trkpt>
      <trkpt lat="42.4070930" lon="-7.0545510">
        <ele>349.7</ele>
        <time>2014-10-01T11:56:32Z</time>
      </trkpt>
      <trkpt lat="42.4070960" lon="-7.0545880">
        <ele>350.0</ele>
        <time>2014-10-01T11:56:33Z</time>
      </trkpt>
      <trkpt lat="42.4070990" lon="-7.0546350">
        <ele>350.3</ele>
        <time>2014-10-01T11:56:34Z</time>
      </trkpt>
      <trkpt lat="42.4071050" lon="-7.0547020">
        <ele>350.6</ele>
        <time>2014-10-01T11:56:36Z</time>
      </trkpt>
      <trkpt lat="42.4071100" lon="-7.0547490">
        <ele>350.9</ele>
        <time>2014-10-01T11:56:37Z</time>
      </trkpt>
      <trkpt lat="42.4071140" lon="-7.0547950">
        <ele>351.1</ele>
        <time>2014-10-01T11:56:38Z</time>
      </trkpt>
      <trkpt lat="42.4071150" lon="-7.0548750">
        <ele>351.5</ele>
        <time>2014-10-01T11:56:40Z</time>
      </trkpt>
      <trkpt lat="42.4071140" lon="-7.0549310">
        <ele>351.7</ele>
        <time>2014-10-01T11:56:41Z</time>
      </trkpt>
      <trkpt lat="42.4071140" lon="-7.0549870">
        <ele>351.9</ele>
        <time>2014-10-01T11:56:42Z</time>
      </trkpt>
      <trkpt lat="42.4071140" lon="-7.0550360">
        <ele>352.1</ele>
        <time>2014-10-01T11:56:43Z</time>
      </trkpt>
      <trkpt lat="42.4071160" lon="-7.0550820">
        <ele>352.3</ele>
        <time>2014-10-01T11:56:44Z</time>
      </trkpt>
      <trkpt lat="42.4071160" lon="-7.0551350">
        <ele>352.5</ele>
        <time>2014-10-01T11:56:45Z</time>
      </trkpt>
      <trkpt lat="42.4071190" lon="-7.0551790">
        <ele>352.6</ele>
        <time>2014-10-01T11:56:46Z</time>
      </trkpt>
      <trkpt lat="42.4071230" lon="-7.0552230">
        <ele>352.8</ele>
        <time>2014-10-01T11:56:47Z</time>
      </trkpt>
      <trkpt lat="42.4071280" lon="-7.0552720">
        <ele>352.9</ele>
        <time>2014-10-01T11:56:48Z</time>
      </trkpt>
      <trkpt lat="42.4071340" lon="-7.0553200">
        <ele>353.1</ele>
        <time>2014-10-01T11:56:49Z</time>
      </trkpt>
      <trkpt lat="42.4071400" lon="-7.0553730">
        <ele>353.3</ele>
        <time>2014-10-01T11:56:50Z</time>
      </trkpt>
      <trkpt lat="42.4071480" lon="-7.0554230">
        <ele>353.5</ele>
        <time>2014-10-01T11:56:51Z</time>
      </trkpt>
      <trkpt lat="42.4071570" lon="-7.0554700">
        <ele>353.6</ele>
        <time>2014-10-01T11:56:52Z</time>
      </trkpt>
      <trkpt lat="42.4071670" lon="-7.0555220">
        <ele>353.8</ele>
        <time>2014-10-01T11:56:53Z</time>
      </trkpt>
      <trkpt lat="42.4071780" lon="-7.0555780">
        <ele>353.9</ele>
        <time>2014-10-01T11:56:54Z</time>
      </trkpt>
      <trkpt lat="42.4071870" lon="-7.0556290">
        <ele>354.0</ele>
        <time>2014-10-01T11:56:55Z</time>
      </trkpt>
      <trkpt lat="42.4071970" lon="-7.0556740">
        <ele>354.2</ele>
        <time>2014-10-01T11:56:56Z</time>
      </trkpt>
      <trkpt lat="42.4072070" lon="-7.0557210">
        <ele>354.3</ele>
        <time>2014-10-01T11:56:57Z</time>
      </trkpt>
      <trkpt lat="42.4072180" lon="-7.0557730">
        <ele>354.4</ele>
        <time>2014-10-01T11:56:58Z</time>
      </trkpt>
      <trkpt lat="42.4072330" lon="-7.0558300">
        <ele>354.5</ele>
        <time>2014-10-01T11:56:59Z</time>
      </trkpt>
      <trkpt lat="42.4072450" lon="-7.0558800">
        <ele>354.7</ele>
        <time>2014-10-01T11:57:00Z</time>
      </trkpt>
      <trkpt lat="42.4072580" lon="-7.0559360">
        <ele>354.8</ele>
        <time>2014-10-01T11:57:01Z</time>
      </trkpt>
      <trkpt lat="42.4072690" lon="-7.0559990">
        <ele>355.0</ele>
        <time>2014-10-01T11:57:02Z</time>
      </trkpt>
      <trkpt lat="42.4072790" lon="-7.0560630">
        <ele>355.1</ele>
        <time>2014-10-01T11:57:03Z</time>
      </trkpt>
      <trkpt lat="42.4072870" lon="-7.0561270">
        <ele>355.3</ele>
        <time>2014-10-01T11:57:04Z</time>
      </trkpt>
      <trkpt lat="42.4072950" lon="-7.0561910">
        <ele>355.5</ele>
        <time>2014-10-01T11:57:05Z</time>
      </trkpt>
      <trkpt lat="42.4073030" lon="-7.0562440">
        <ele>355.6</ele>
        <time>2014-10-01T11:57:06Z</time>
      </trkpt>
      <trkpt lat="42.4073110" lon="-7.0562960">
        <ele>355.8</ele>
        <time>2014-10-01T11:57:07Z</time>
      </trkpt>
      <trkpt lat="42.4073220" lon="-7.0563490">
        <ele>355.9</ele>
        <time>2014-10-01T11:57:08Z</time>
      </trkpt>
      <trkpt lat="42.4073320" lon="-7.0564100">
        <ele>356.1</ele>
        <time>2014-10-01T11:57:09Z</time>
      </trkpt>
      <trkpt lat="42.4073410" lon="-7.0564710">
        <ele>356.3</ele>
        <time>2014-10-01T11:57:10Z</time>
      </trkpt>
      <trkpt lat="42.4073470" lon="-7.0565290">
        <ele>356.5</ele>
        <time>2014-10-01T11:57:11Z</time>
      </trkpt>
      <trkpt lat="42.4073530" lon="-7.0565850">
        <ele>356.7</ele>
        <time>2014-10-01T11:57:12Z</time>
      </trkpt>
      <trkpt lat="42.4073570" lon="-7.0566390">
        <ele>356.9</ele>
        <time>2014-10-01T11:57:13Z</time>
      </trkpt>
      <trkpt lat="42.4073600" lon="-7.0566920">
        <ele>357.2</ele>
        <time>2014-10-01T11:57:14Z</time>
      </trkpt>
      <trkpt lat="42.4073630" lon="-7.0567450">
        <ele>357.4</ele>
        <time>2014-10-01T11:57:15Z</time>
      </trkpt>
      <trkpt lat="42.4073680" lon="-7.0567940">
        <ele>357.7</ele>
        <time>2014-10-01T11:57:16Z</time>
      </trkpt>
      <trkpt lat="42.4073750" lon="-7.0568480">
        <ele>357.9</ele>
        <time>2014-10-01T11:57:17Z</time>
      </trkpt>
      <trkpt lat="42.4073850" lon="-7.0569060">
        <ele>358.1</ele>
        <time>2014-10-01T11:57:18Z</time>
      </trkpt>
      <trkpt lat="42.4073970" lon="-7.0569650">
        <ele>358.3</ele>
        <time>2014-10-01T11:57:19Z</time>
      </trkpt>
      <trkpt lat="42.4074090" lon="-7.0570220">
        <ele>358.5</ele>
        <time>2014-10-01T11:57:20Z</time>
      </trkpt>
      <trkpt lat="42.4074220" lon="-7.0570820">
        <ele>358.7</ele>
        <time>2014-10-01T11:57:21Z</time>
      </trkpt>
      <trkpt lat="42.4074340" lon="-7.0571440">
        <ele>358.9</ele>
        <time>2014-10-01T11:57:22Z</time>
      </trkpt>
      <trkpt lat="42.4074470" lon="-7.0572030">
        <ele>359.1</ele>
        <time>2014-10-01T11:57:23Z</time>
      </trkpt>
      <trkpt lat="42.4074600" lon="-7.0572620">
        <ele>359.3</ele>
        <time>2014-10-01T11:57:24Z</time>
      </trkpt>
      <trkpt lat="42.4074750" lon="-7.0573220">
        <ele>359.4</ele>
        <time>2014-10-01T11:57:25Z</time>
      </trkpt>
      <trkpt lat="42.4074900" lon="-7.0573810">
        <ele>359.6</ele>
        <time>2014-10-01T11:57:26Z</time>
      </trkpt>
      <trkpt lat="42.4075080" lon="-7.0574410">
        <ele>359.7</ele>
        <time>2014-10-01T11:57:27Z</time>
      </trkpt>
      <trkpt lat="42.4075240" lon="-7.0574990">
        <ele>359.8</ele>
        <time>2014-10-01T11:57:28Z</time>
      </trkpt>
      <trkpt lat="42.4075400" lon="-7.0575600">
        <ele>359.9</ele>
        <time>2014-10-01T11:57:29Z</time>
      </trkpt>
      <trkpt lat="42.4075560" lon="-7.0576220">
        <ele>360.0</ele>
        <time>2014-10-01T11:57:30Z</time>
      </trkpt>
      <trkpt lat="42.4075730" lon="-7.0576860">
        <ele>360.0</ele>
        <time>2014-10-01T11:57:31Z</time>
      </trkpt>
      <trkpt lat="42.4075900" lon="-7.0577500">
        <ele>360.1</ele>
        <time>2014-10-01T11:57:32Z</time>
      </trkpt>
      <trkpt lat="42.4076060" lon="-7.0578140">
        <ele>360.1</ele>
        <time>2014-10-01T11:57:33Z</time>
      </trkpt>
      <trkpt lat="42.4076220" lon="-7.0578790">
        <ele>360.1</ele>
        <time>2014-10-01T11:57:34Z</time>
      </trkpt>
      <trkpt lat="42.4076390" lon="-7.0579490">
        <ele>360.2</ele>
        <time>2014-10-01T11:57:35Z</time>
      </trkpt>
      <trkpt lat="42.4076550" lon="-7.0580200">
        <ele>360.2</ele>
        <time>2014-10-01T11:57:36Z</time>
      </trkpt>
      <trkpt lat="42.4076710" lon="-7.0580970">
        <ele>360.3</ele>
        <time>2014-10-01T11:57:37Z</time>
      </trkpt>
      <trkpt lat="42.4076870" lon="-7.0581680">
        <ele>360.3</ele>
        <time>2014-10-01T11:57:38Z</time>
      </trkpt>
      <trkpt lat="42.4077030" lon="-7.0582360">
        <ele>360.3</ele>
        <time>2014-10-01T11:57:39Z</time>
      </trkpt>
      <trkpt lat="42.4077200" lon="-7.0583050">
        <ele>360.4</ele>
        <time>2014-10-01T11:57:40Z</time>
      </trkpt>
      <trkpt lat="42.4077390" lon="-7.0583810">
        <ele>360.5</ele>
        <time>2014-10-01T11:57:41Z</time>
      </trkpt>
      <trkpt lat="42.4077590" lon="-7.0584570">
        <ele>360.5</ele>
        <time>2014-10-01T11:57:42Z</time>
      </trkpt>
      <trkpt lat="42.4077780" lon="-7.0585360">
        <ele>360.6</ele>
        <time>2014-10-01T11:57:43Z</time>
      </trkpt>
      <trkpt lat="42.4077960" lon="-7.0586130">
        <ele>360.7</ele>
        <time>2014-10-01T11:57:44Z</time>
      </trkpt>
      <trkpt lat="42.4078120" lon="-7.0586890">
        <ele>360.7</ele>
        <time>2014-10-01T11:57:45Z</time>
      </trkpt>
      <trkpt lat="42.4078280" lon="-7.0587690">
        <ele>360.8</ele>
        <time>2014-10-01T11:57:46Z</time>
      </trkpt>
      <trkpt lat="42.4078430" lon="-7.0588460">
        <ele>360.8</ele>
        <time>2014-10-01T11:57:47Z</time>
      </trkpt>
      <trkpt lat="42.4078600" lon="-7.0589340">
        <ele>360.9</ele>
        <time>2014-10-01T11:57:48Z</time>
      </trkpt>
      <trkpt lat="42.4078780" lon="-7.0590100">
        <ele>360.9</ele>
        <time>2014-10-01T11:57:49Z</time>
      </trkpt>
      <trkpt lat="42.4079000" lon="-7.0590830">
        <ele>361.0</ele>
        <time>2014-10-01T11:57:50Z</time>
      </trkpt>
      <trkpt lat="42.4079270" lon="-7.0591580">
        <ele>361.1</ele>
        <time>2014-10-01T11:57:51Z</time>
      </trkpt>
      <trkpt lat="42.4079550" lon="-7.0592360">
        <ele>361.2</ele>
        <time>2014-10-01T11:57:52Z</time>
      </trkpt>
      <trkpt lat="42.4079820" lon="-7.0593130">
        <ele>361.4</ele>
        <time>2014-10-01T11:57:53Z</time>
      </trkpt>
      <trkpt lat="42.4080080" lon="-7.0593890">
        <ele>361.6</ele>
        <time>2014-10-01T11:57:54Z</time>
      </trkpt>
      <trkpt lat="42.4080300" lon="-7.0594690">
        <ele>361.7</ele>
        <time>2014-10-01T11:57:55Z</time>
      </trkpt>
      <trkpt lat="42.4080490" lon="-7.0595510">
        <ele>361.9</ele>
        <time>2014-10-01T11:57:56Z</time>
      </trkpt>
      <trkpt lat="42.4080670" lon="-7.0596300">
        <ele>362.1</ele>
        <time>2014-10-01T11:57:57Z</time>
      </trkpt>
      <trkpt lat="42.4080860" lon="-7.0597150">
        <ele>362.3</ele>
        <time>2014-10-01T11:57:58Z</time>
      </trkpt>
      <trkpt lat="42.4081020" lon="-7.0598000">
        <ele>362.5</ele>
        <time>2014-10-01T11:57:59Z</time>
      </trkpt>
      <trkpt lat="42.4081160" lon="-7.0598790">
        <ele>362.7</ele>
        <time>2014-10-01T11:58:00Z</time>
      </trkpt>
      <trkpt lat="42.4081280" lon="-7.0599540">
        <ele>362.9</ele>
        <time>2014-10-01T11:58:01Z</time>
      </trkpt>
      <trkpt lat="42.4081420" lon="-7.0600320">
        <ele>363.1</ele>
        <time>2014-10-01T11:58:02Z</time>
      </trkpt>
      <trkpt lat="42.4081560" lon="-7.0601090">
        <ele>363.3</ele>
        <time>2014-10-01T11:58:03Z</time>
      </trkpt>
      <trkpt lat="42.4081720" lon="-7.0602000">
        <ele>363.5</ele>
        <time>2014-10-01T11:58:04Z</time>
      </trkpt>
      <trkpt lat="42.4081880" lon="-7.0602820">
        <ele>363.6</ele>
        <time>2014-10-01T11:58:05Z</time>
      </trkpt>
      <trkpt lat="42.4082040" lon="-7.0603590">
        <ele>363.8</ele>
        <time>2014-10-01T11:58:06Z</time>
      </trkpt>
      <trkpt lat="42.4082210" lon="-7.0604340">
        <ele>363.9</ele>
        <time>2014-10-01T11:58:07Z</time>
      </trkpt>
      <trkpt lat="42.4082400" lon="-7.0605120">
        <ele>364.1</ele>
        <time>2014-10-01T11:58:08Z</time>
      </trkpt>
      <trkpt lat="42.4082590" lon="-7.0605900">
        <ele>364.2</ele>
        <time>2014-10-01T11:58:09Z</time>
      </trkpt>
      <trkpt lat="42.4082760" lon="-7.0606690">
        <ele>364.4</ele>
        <time>2014-10-01T11:58:10Z</time>
      </trkpt>
      <trkpt lat="42.4082910" lon="-7.0607480">
        <ele>364.5</ele>
        <time>2014-10-01T11:58:11Z</time>
      </trkpt>
      <trkpt lat="42.4083030" lon="-7.0608290">
        <ele>364.6</ele>
        <time>2014-10-01T11:58:12Z</time>
      </trkpt>
      <trkpt lat="42.4083100" lon="-7.0609080">
        <ele>364.7</ele>
        <time>2014-10-01T11:58:13Z</time>
      </trkpt>
      <trkpt lat="42.4083130" lon="-7.0609870">
        <ele>364.8</ele>
        <time>2014-10-01T11:58:14Z</time>
      </trkpt>
      <trkpt lat="42.4083120" lon="-7.0610680">
        <ele>364.8</ele>
        <time>2014-10-01T11:58:15Z</time>
      </trkpt>
      <trkpt lat="42.4083060" lon="-7.0611500">
        <ele>364.8</ele>
        <time>2014-10-01T11:58:16Z</time>
      </trkpt>
      <trkpt lat="42.4082950" lon="-7.0612340">
        <ele>364.7</ele>
        <time>2014-10-01T11:58:17Z</time>
      </trkpt>
      <trkpt lat="42.4082800" lon="-7.0613240">
        <ele>364.5</ele>
        <time>2014-10-01T11:58:18Z</time>
      </trkpt>
      <trkpt lat="42.4082590" lon="-7.0614190">
        <ele>364.3</ele>
        <time>2014-10-01T11:58:19Z</time>
      </trkpt>
      <trkpt lat="42.4082340" lon="-7.0615080">
        <ele>364.1</ele>
        <time>2014-10-01T11:58:20Z</time>
      </trkpt>
      <trkpt lat="42.4082080" lon="-7.0616020">
        <ele>363.8</ele>
        <time>2014-10-01T11:58:21Z</time>
      </trkpt>
      <trkpt lat="42.4081810" lon="-7.0616950">
        <ele>363.5</ele>
        <time>2014-10-01T11:58:22Z</time>
      </trkpt>
      <trkpt lat="42.4081520" lon="-7.0617910">
        <ele>363.2</ele>
        <time>2014-10-01T11:58:23Z</time>
      </trkpt>
      <trkpt lat="42.4081210" lon="-7.0618910">
        <ele>362.9</ele>
        <time>2014-10-01T11:58:24Z</time>
      </trkpt>
      <trkpt lat="42.4080870" lon="-7.0619970">
        <ele>362.6</ele>
        <time>2014-10-01T11:58:25Z</time>
      </trkpt>
      <trkpt lat="42.4080520" lon="-7.0620980">
        <ele>362.2</ele>
        <time>2014-10-01T11:58:26Z</time>
      </trkpt>
      <trkpt lat="42.4080170" lon="-7.0621990">
        <ele>361.9</ele>
        <time>2014-10-01T11:58:27Z</time>
      </trkpt>
      <trkpt lat="42.4079810" lon="-7.0622980">
        <ele>361.6</ele>
        <time>2014-10-01T11:58:28Z</time>
      </trkpt>
      <trkpt lat="42.4079430" lon="-7.0623940">
        <ele>361.2</ele>
        <time>2014-10-01T11:58:29Z</time>
      </trkpt>
      <trkpt lat="42.4079040" lon="-7.0624930">
        <ele>360.8</ele>
        <time>2014-10-01T11:58:30Z</time>
      </trkpt>
      <trkpt lat="42.4078660" lon="-7.0625950">
        <ele>360.3</ele>
        <time>2014-10-01T11:58:31Z</time>
      </trkpt>
      <trkpt lat="42.4078320" lon="-7.0627000">
        <ele>359.6</ele>
        <time>2014-10-01T11:58:32Z</time>
      </trkpt>
      <trkpt lat="42.4078190" lon="-7.0628120">
        <ele>359.0</ele>
        <time>2014-10-01T11:58:33Z</time>
      </trkpt>
      <trkpt lat="42.4078100" lon="-7.0629310">
        <ele>358.2</ele>
        <time>2014-10-01T11:58:34Z</time>
      </trkpt>
      <trkpt lat="42.4078260" lon="-7.0630600">
        <ele>357.3</ele>
        <time>2014-10-01T11:58:35Z</time>
      </trkpt>
      <trkpt lat="42.4078470" lon="-7.0631890">
        <ele>356.5</ele>
        <time>2014-10-01T11:58:36Z</time>
      </trkpt>
      <trkpt lat="42.4078760" lon="-7.0633290">
        <ele>355.5</ele>
        <time>2014-10-01T11:58:37Z</time>
      </trkpt>
      <trkpt lat="42.4079050" lon="-7.0634810">
        <ele>354.5</ele>
        <time>2014-10-01T11:58:38Z</time>
      </trkpt>
      <trkpt lat="42.4078950" lon="-7.0636310">
        <ele>353.9</ele>
        <time>2014-10-01T11:58:39Z</time>
      </trkpt>
      <trkpt lat="42.4078580" lon="-7.0637700">
        <ele>353.3</ele>
        <time>2014-10-01T11:58:40Z</time>
      </trkpt>
      <trkpt lat="42.4078200" lon="-7.0638940">
        <ele>352.9</ele>
        <time>2014-10-01T11:58:41Z</time>
      </trkpt>
      <trkpt lat="42.4077820" lon="-7.0640230">
        <ele>352.5</ele>
        <time>2014-10-01T11:58:42Z</time>
      </trkpt>
      <trkpt lat="42.4077490" lon="-7.0641600">
        <ele>352.1</ele>
        <time>2014-10-01T11:58:43Z</time>
      </trkpt>
      <trkpt lat="42.4077420" lon="-7.0643060">
        <ele>351.8</ele>
        <time>2014-10-01T11:58:44Z</time>
      </trkpt>
      <trkpt lat="42.4077370" lon="-7.0644450">
        <ele>351.4</ele>
        <time>2014-10-01T11:58:45Z</time>
      </trkpt>
      <trkpt lat="42.4077310" lon="-7.0645840">
        <ele>351.0</ele>
        <time>2014-10-01T11:58:46Z</time>
      </trkpt>
      <trkpt lat="42.4077190" lon="-7.0647120">
        <ele>350.6</ele>
        <time>2014-10-01T11:58:47Z</time>
      </trkpt>
      <trkpt lat="42.4076820" lon="-7.0648480">
        <ele>350.2</ele>
        <time>2014-10-01T11:58:48Z</time>
      </trkpt>
      <trkpt lat="42.4076490" lon="-7.0649700">
        <ele>349.9</ele>
        <time>2014-10-01T11:58:49Z</time>
      </trkpt>
      <trkpt lat="42.4076110" lon="-7.0650990">
        <ele>349.6</ele>
        <time>2014-10-01T11:58:50Z</time>
      </trkpt>
      <trkpt lat="42.4075720" lon="-7.0652340">
        <ele>349.2</ele>
        <time>2014-10-01T11:58:51Z</time>
      </trkpt>
      <trkpt lat="42.4075320" lon="-7.0653670">
        <ele>348.7</ele>
        <time>2014-10-01T11:58:52Z</time>
      </trkpt>
      <trkpt lat="42.4074890" lon="-7.0655010">
        <ele>348.2</ele>
        <time>2014-10-01T11:58:53Z</time>
      </trkpt>
      <trkpt lat="42.4074410" lon="-7.0656280">
        <ele>347.6</ele>
        <time>2014-10-01T11:58:54Z</time>
      </trkpt>
      <trkpt lat="42.4073840" lon="-7.0657570">
        <ele>346.7</ele>
        <time>2014-10-01T11:58:55Z</time>
      </trkpt>
      <trkpt lat="42.4073240" lon="-7.0658860">
        <ele>345.8</ele>
        <time>2014-10-01T11:58:56Z</time>
      </trkpt>
      <trkpt lat="42.4072580" lon="-7.0660170">
        <ele>344.8</ele>
        <time>2014-10-01T11:58:57Z</time>
      </trkpt>
      <trkpt lat="42.4071910" lon="-7.0661510">
        <ele>343.8</ele>
        <time>2014-10-01T11:58:58Z</time>
      </trkpt>
      <trkpt lat="42.4071240" lon="-7.0662900">
        <ele>342.6</ele>
        <time>2014-10-01T11:58:59Z</time>
      </trkpt>
      <trkpt lat="42.4070580" lon="-7.0664290">
        <ele>341.5</ele>
        <time>2014-10-01T11:59:00Z</time>
      </trkpt>
      <trkpt lat="42.4069920" lon="-7.0665710">
        <ele>340.5</ele>
        <time>2014-10-01T11:59:01Z</time>
      </trkpt>
      <trkpt lat="42.4069280" lon="-7.0667060">
        <ele>339.6</ele>
        <time>2014-10-01T11:59:02Z</time>
      </trkpt>
      <trkpt lat="42.4068690" lon="-7.0668300">
        <ele>338.9</ele>
        <time>2014-10-01T11:59:03Z</time>
      </trkpt>
      <trkpt lat="42.4068120" lon="-7.0669440">
        <ele>338.3</ele>
        <time>2014-10-01T11:59:04Z</time>
      </trkpt>
      <trkpt lat="42.4067380" lon="-7.0670180">
        <ele>337.7</ele>
        <time>2014-10-01T11:59:05Z</time>
      </trkpt>
      <trkpt lat="42.4066490" lon="-7.0670620">
        <ele>337.0</ele>
        <time>2014-10-01T11:59:06Z</time>
      </trkpt>
      <trkpt lat="42.4065710" lon="-7.0670590">
        <ele>336.5</ele>
        <time>2014-10-01T11:59:07Z</time>
      </trkpt>
      <trkpt lat="42.4064960" lon="-7.0670510">
        <ele>336.0</ele>
        <time>2014-10-01T11:59:08Z</time>
      </trkpt>
      <trkpt lat="42.4064350" lon="-7.0670450">
        <ele>335.4</ele>
        <time>2014-10-01T11:59:09Z</time>
      </trkpt>
      <trkpt lat="42.4063770" lon="-7.0670730">
        <ele>334.7</ele>
        <time>2014-10-01T11:59:10Z</time>
      </trkpt>
      <trkpt lat="42.4063510" lon="-7.0671160">
        <ele>334.2</ele>
        <time>2014-10-01T11:59:11Z</time>
      </trkpt>
      <trkpt lat="42.4063390" lon="-7.0671850">
        <ele>333.5</ele>
        <time>2014-10-01T11:59:12Z</time>
      </trkpt>
      <trkpt lat="42.4063490" lon="-7.0672770">
        <ele>332.4</ele>
        <time>2014-10-01T11:59:13Z</time>
      </trkpt>
      <trkpt lat="42.4063700" lon="-7.0673770">
        <ele>331.0</ele>
        <time>2014-10-01T11:59:14Z</time>
      </trkpt>
      <trkpt lat="42.4063970" lon="-7.0674850">
        <ele>330.0</ele>
        <time>2014-10-01T11:59:15Z</time>
      </trkpt>
      <trkpt lat="42.4064280" lon="-7.0676020">
        <ele>328.9</ele>
        <time>2014-10-01T11:59:16Z</time>
      </trkpt>
      <trkpt lat="42.4064640" lon="-7.0677310">
        <ele>327.7</ele>
        <time>2014-10-01T11:59:17Z</time>
      </trkpt>
      <trkpt lat="42.4064980" lon="-7.0678670">
        <ele>326.5</ele>
        <time>2014-10-01T11:59:18Z</time>
      </trkpt>
      <trkpt lat="42.4065010" lon="-7.0680220">
        <ele>325.2</ele>
        <time>2014-10-01T11:59:19Z</time>
      </trkpt>
      <trkpt lat="42.4064930" lon="-7.0681800">
        <ele>324.0</ele>
        <time>2014-10-01T11:59:20Z</time>
      </trkpt>
      <trkpt lat="42.4064560" lon="-7.0683340">
        <ele>322.8</ele>
        <time>2014-10-01T11:59:21Z</time>
      </trkpt>
      <trkpt lat="42.4064150" lon="-7.0684910">
        <ele>321.7</ele>
        <time>2014-10-01T11:59:22Z</time>
      </trkpt>
      <trkpt lat="42.4063680" lon="-7.0686480">
        <ele>320.7</ele>
        <time>2014-10-01T11:59:23Z</time>
      </trkpt>
      <trkpt lat="42.4063150" lon="-7.0688170">
        <ele>319.5</ele>
        <time>2014-10-01T11:59:24Z</time>
      </trkpt>
      <trkpt lat="42.4062610" lon="-7.0689810">
        <ele>318.4</ele>
        <time>2014-10-01T11:59:25Z</time>
      </trkpt>
      <trkpt lat="42.4062080" lon="-7.0691410">
        <ele>317.5</ele>
        <time>2014-10-01T11:59:26Z</time>
      </trkpt>
      <trkpt lat="42.4061540" lon="-7.0692920">
        <ele>316.7</ele>
        <time>2014-10-01T11:59:27Z</time>
      </trkpt>
      <trkpt lat="42.4060960" lon="-7.0694410">
        <ele>316.0</ele>
        <time>2014-10-01T11:59:28Z</time>
      </trkpt>
      <trkpt lat="42.4060340" lon="-7.0695870">
        <ele>315.5</ele>
        <time>2014-10-01T11:59:29Z</time>
      </trkpt>
      <trkpt lat="42.4059690" lon="-7.0697480">
        <ele>315.2</ele>
        <time>2014-10-01T11:59:30Z</time>
      </trkpt>
      <trkpt lat="42.4059090" lon="-7.0699010">
        <ele>315.1</ele>
        <time>2014-10-01T11:59:31Z</time>
      </trkpt>
      <trkpt lat="42.4058520" lon="-7.0700520">
        <ele>315.1</ele>
        <time>2014-10-01T11:59:32Z</time>
      </trkpt>
      <trkpt lat="42.4058050" lon="-7.0701940">
        <ele>315.3</ele>
        <time>2014-10-01T11:59:33Z</time>
      </trkpt>
      <trkpt lat="42.4057740" lon="-7.0703140">
        <ele>315.3</ele>
        <time>2014-10-01T11:59:34Z</time>
      </trkpt>
      <trkpt lat="42.4057480" lon="-7.0704390">
        <ele>315.3</ele>
        <time>2014-10-01T11:59:35Z</time>
      </trkpt>
      <trkpt lat="42.4057260" lon="-7.0705680">
        <ele>315.2</ele>
        <time>2014-10-01T11:59:36Z</time>
      </trkpt>
      <trkpt lat="42.4057080" lon="-7.0706930">
        <ele>314.8</ele>
        <time>2014-10-01T11:59:37Z</time>
      </trkpt>
      <trkpt lat="42.4056880" lon="-7.0708200">
        <ele>314.1</ele>
        <time>2014-10-01T11:59:38Z</time>
      </trkpt>
      <trkpt lat="42.4056640" lon="-7.0709460">
        <ele>313.4</ele>
        <time>2014-10-01T11:59:39Z</time>
      </trkpt>
      <trkpt lat="42.4056340" lon="-7.0710650">
        <ele>312.6</ele>
        <time>2014-10-01T11:59:40Z</time>
      </trkpt>
      <trkpt lat="42.4055940" lon="-7.0711900">
        <ele>311.4</ele>
        <time>2014-10-01T11:59:41Z</time>
      </trkpt>
      <trkpt lat="42.4055480" lon="-7.0713190">
        <ele>310.2</ele>
        <time>2014-10-01T11:59:42Z</time>
      </trkpt>
      <trkpt lat="42.4054970" lon="-7.0714690">
        <ele>309.0</ele>
        <time>2014-10-01T11:59:43Z</time>
      </trkpt>
      <trkpt lat="42.4054480" lon="-7.0716280">
        <ele>308.0</ele>
        <time>2014-10-01T11:59:44Z</time>
      </trkpt>
      <trkpt lat="42.4054040" lon="-7.0717740">
        <ele>307.2</ele>
        <time>2014-10-01T11:59:45Z</time>
      </trkpt>
      <trkpt lat="42.4053570" lon="-7.0719170">
        <ele>306.7</ele>
        <time>2014-10-01T11:59:46Z</time>
      </trkpt>
      <trkpt lat="42.4053030" lon="-7.0720560">
        <ele>306.2</ele>
        <time>2014-10-01T11:59:47Z</time>
      </trkpt>
      <trkpt lat="42.4052430" lon="-7.0721920">
        <ele>305.6</ele>
        <time>2014-10-01T11:59:48Z</time>
      </trkpt>
      <trkpt lat="42.4051850" lon="-7.0723180">
        <ele>305.3</ele>
        <time>2014-10-01T11:59:49Z</time>
      </trkpt>
      <trkpt lat="42.4051250" lon="-7.0724460">
        <ele>304.9</ele>
        <time>2014-10-01T11:59:50Z</time>
      </trkpt>
      <trkpt lat="42.4050660" lon="-7.0725730">
        <ele>304.6</ele>
        <time>2014-10-01T11:59:51Z</time>
      </trkpt>
      <trkpt lat="42.4050100" lon="-7.0726970">
        <ele>304.4</ele>
        <time>2014-10-01T11:59:52Z</time>
      </trkpt>
      <trkpt lat="42.4049530" lon="-7.0728240">
        <ele>304.3</ele>
        <time>2014-10-01T11:59:53Z</time>
      </trkpt>
      <trkpt lat="42.4049010" lon="-7.0729420">
        <ele>304.2</ele>
        <time>2014-10-01T11:59:54Z</time>
      </trkpt>
      <trkpt lat="42.4048490" lon="-7.0730600">
        <ele>304.3</ele>
        <time>2014-10-01T11:59:55Z</time>
      </trkpt>
      <trkpt lat="42.4047970" lon="-7.0731790">
        <ele>304.4</ele>
        <time>2014-10-01T11:59:56Z</time>
      </trkpt>
      <trkpt lat="42.4047490" lon="-7.0732920">
        <ele>304.5</ele>
        <time>2014-10-01T11:59:57Z</time>
      </trkpt>
      <trkpt lat="42.4047030" lon="-7.0734020">
        <ele>304.7</ele>
        <time>2014-10-01T11:59:58Z</time>
      </trkpt>
      <trkpt lat="42.4046580" lon="-7.0735100">
        <ele>304.8</ele>
        <time>2014-10-01T11:59:59Z</time>
      </trkpt>
      <trkpt lat="42.4046160" lon="-7.0736130">
        <ele>304.9</ele>
        <time>2014-10-01T12:00:00Z</time>
      </trkpt>
      <trkpt lat="42.4045750" lon="-7.0737110">
        <ele>305.0</ele>
        <time>2014-10-01T12:00:01Z</time>
      </trkpt>
      <trkpt lat="42.4045420" lon="-7.0737990">
        <ele>305.0</ele>
        <time>2014-10-01T12:00:02Z</time>
      </trkpt>
      <trkpt lat="42.4045100" lon="-7.0738830">
        <ele>305.1</ele>
        <time>2014-10-01T12:00:03Z</time>
      </trkpt>
      <trkpt lat="42.4044770" lon="-7.0739630">
        <ele>305.1</ele>
        <time>2014-10-01T12:00:04Z</time>
      </trkpt>
      <trkpt lat="42.4044420" lon="-7.0740440">
        <ele>305.1</ele>
        <time>2014-10-01T12:00:05Z</time>
      </trkpt>
      <trkpt lat="42.4044060" lon="-7.0741220">
        <ele>305.2</ele>
        <time>2014-10-01T12:00:06Z</time>
      </trkpt>
      <trkpt lat="42.4043680" lon="-7.0741980">
        <ele>305.2</ele>
        <time>2014-10-01T12:00:07Z</time>
      </trkpt>
      <trkpt lat="42.4043300" lon="-7.0742750">
        <ele>305.3</ele>
        <time>2014-10-01T12:00:08Z</time>
      </trkpt>
      <trkpt lat="42.4042920" lon="-7.0743530">
        <ele>305.3</ele>
        <time>2014-10-01T12:00:09Z</time>
      </trkpt>
      <trkpt lat="42.4042550" lon="-7.0744310">
        <ele>305.3</ele>
        <time>2014-10-01T12:00:10Z</time>
      </trkpt>
      <trkpt lat="42.4042200" lon="-7.0745130">
        <ele>305.4</ele>
        <time>2014-10-01T12:00:11Z</time>
      </trkpt>
      <trkpt lat="42.4041850" lon="-7.0745970">
        <ele>305.4</ele>
        <time>2014-10-01T12:00:12Z</time>
      </trkpt>
      <trkpt lat="42.4041500" lon="-7.0746820">
        <ele>305.4</ele>
        <time>2014-10-01T12:00:13Z</time>
      </trkpt>
      <trkpt lat="42.4041180" lon="-7.0747660">
        <ele>305.5</ele>
        <time>2014-10-01T12:00:14Z</time>
      </trkpt>
      <trkpt lat="42.4040850" lon="-7.0748550">
        <ele>305.5</ele>
        <time>2014-10-01T12:00:15Z</time>
      </trkpt>
      <trkpt lat="42.4040540" lon="-7.0749410">
        <ele>305.6</ele>
        <time>2014-10-01T12:00:16Z</time>
      </trkpt>
      <trkpt lat="42.4040250" lon="-7.0750260">
        <ele>305.6</ele>
        <time>2014-10-01T12:00:17Z</time>
      </trkpt>
      <trkpt lat="42.4039920" lon="-7.0751150">
        <ele>305.6</ele>
        <time>2014-10-01T12:00:18Z</time>
      </trkpt>
      <trkpt lat="42.4039570" lon="-7.0752010">
        <ele>305.7</ele>
        <time>2014-10-01T12:00:19Z</time>
      </trkpt>
      <trkpt lat="42.4039220" lon="-7.0752860">
        <ele>305.7</ele>
        <time>2014-10-01T12:00:20Z</time>
      </trkpt>
      <trkpt lat="42.4038880" lon="-7.0753690">
        <ele>305.7</ele>
        <time>2014-10-01T12:00:21Z</time>
      </trkpt>
      <trkpt lat="42.4038550" lon="-7.0754550">
        <ele>305.7</ele>
        <time>2014-10-01T12:00:22Z</time>
      </trkpt>
      <trkpt lat="42.4038220" lon="-7.0755390">
        <ele>305.7</ele>
        <time>2014-10-01T12:00:23Z</time>
      </trkpt>
      <trkpt lat="42.4037890" lon="-7.0756240">
        <ele>305.7</ele>
        <time>2014-10-01T12:00:24Z</time>
      </trkpt>
      <trkpt lat="42.4037550" lon="-7.0757110">
        <ele>305.7</ele>
        <time>2014-10-01T12:00:25Z</time>
      </trkpt>
      <trkpt lat="42.4037200" lon="-7.0758000">
        <ele>305.7</ele>
        <time>2014-10-01T12:00:26Z</time>
      </trkpt>
      <trkpt lat="42.4036820" lon="-7.0758890">
        <ele>305.7</ele>
        <time>2014-10-01T12:00:27Z</time>
      </trkpt>
      <trkpt lat="42.4036450" lon="-7.0759780">
        <ele>305.7</ele>
        <time>2014-10-01T12:00:28Z</time>
      </trkpt>
      <trkpt lat="42.4036060" lon="-7.0760670">
        <ele>305.7</ele>
        <time>2014-10-01T12:00:29Z</time>
      </trkpt>
      <trkpt lat="42.4035690" lon="-7.0761540">
        <ele>305.8</ele>
        <time>2014-10-01T12:00:30Z</time>
      </trkpt>
      <trkpt lat="42.4035350" lon="-7.0762390">
        <ele>305.9</ele>
        <time>2014-10-01T12:00:31Z</time>
      </trkpt>
      <trkpt lat="42.4035000" lon="-7.0763230">
        <ele>306.0</ele>
        <time>2014-10-01T12:00:32Z</time>
      </trkpt>
      <trkpt lat="42.4034650" lon="-7.0764080">
        <ele>306.1</ele>
        <time>2014-10-01T12:00:33Z</time>
      </trkpt>
      <trkpt lat="42.4034300" lon="-7.0764940">
        <ele>306.1</ele>
        <time>2014-10-01T12:00:34Z</time>
      </trkpt>
      <trkpt lat="42.4033930" lon="-7.0765780">
        <ele>306.2</ele>
        <time>2014-10-01T12:00:35Z</time>
      </trkpt>
      <trkpt lat="42.4033570" lon="-7.0766630">
        <ele>306.2</ele>
        <time>2014-10-01T12:00:36Z</time>
      </trkpt>
      <trkpt lat="42.4033200" lon="-7.0767460">
        <ele>306.3</ele>
        <time>2014-10-01T12:00:37Z</time>
      </trkpt>
      <trkpt lat="42.4032820" lon="-7.0768320">
        <ele>306.3</ele>
        <time>2014-10-01T12:00:38Z</time>
      </trkpt>
      <trkpt lat="42.4032460" lon="-7.0769160">
        <ele>306.4</ele>
        <time>2014-10-01T12:00:39Z</time>
      </trkpt>
      <trkpt lat="42.4032100" lon="-7.0770050">
        <ele>306.4</ele>
        <time>2014-10-01T12:00:40Z</time>
      </trkpt>
      <trkpt lat="42.4031730" lon="-7.0770960">
        <ele>306.4</ele>
        <time>2014-10-01T12:00:41Z</time>
      </trkpt>
      <trkpt lat="42.4031390" lon="-7.0771780">
        <ele>306.3</ele>
        <time>2014-10-01T12:00:42Z</time>
      </trkpt>
      <trkpt lat="42.4031060" lon="-7.0772570">
        <ele>306.2</ele>
        <time>2014-10-01T12:00:43Z</time>
      </trkpt>
      <trkpt lat="42.4030720" lon="-7.0773390">
        <ele>306.0</ele>
        <time>2014-10-01T12:00:44Z</time>
      </trkpt>
      <trkpt lat="42.4030400" lon="-7.0774170">
        <ele>306.0</ele>
        <time>2014-10-01T12:00:45Z</time>
      </trkpt>
      <trkpt lat="42.4030080" lon="-7.0774940">
        <ele>306.1</ele>
        <time>2014-10-01T12:00:46Z</time>
      </trkpt>
      <trkpt lat="42.4029730" lon="-7.0775720">
        <ele>306.2</ele>
        <time>2014-10-01T12:00:47Z</time>
      </trkpt>
      <trkpt lat="42.4029570" lon="-7.0776450">
        <ele>306.2</ele>
        <time>2014-10-01T12:00:48Z</time>
      </trkpt>
      <trkpt lat="42.4029430" lon="-7.0777230">
        <ele>306.2</ele>
        <time>2014-10-01T12:00:49Z</time>
      </trkpt>
      <trkpt lat="42.4029300" lon="-7.0778000">
        <ele>306.1</ele>
        <time>2014-10-01T12:00:50Z</time>
      </trkpt>
      <trkpt lat="42.4028900" lon="-7.0778590">
        <ele>306.0</ele>
        <time>2014-10-01T12:00:51Z</time>
      </trkpt>
      <trkpt lat="42.4028470" lon="-7.0778750">
        <ele>305.9</ele>
        <time>2014-10-01T12:00:52Z</time>
      </trkpt>
      <trkpt lat="42.4027980" lon="-7.0778840">
        <ele>305.8</ele>
        <time>2014-10-01T12:00:53Z</time>
      </trkpt>
      <trkpt lat="42.4027380" lon="-7.0778920">
        <ele>305.7</ele>
        <time>2014-10-01T12:00:54Z</time>
      </trkpt>
      <trkpt lat="42.4026720" lon="-7.0779010">
        <ele>305.6</ele>
        <time>2014-10-01T12:00:55Z</time>
      </trkpt>
      <trkpt lat="42.4026000" lon="-7.0779100">
        <ele>305.5</ele>
        <time>2014-10-01T12:00:56Z</time>
      </trkpt>
      <trkpt lat="42.4025200" lon="-7.0779180">
        <ele>305.4</ele>
        <time>2014-10-01T12:00:57Z</time>
      </trkpt>
      <trkpt lat="42.4024470" lon="-7.0779320">
        <ele>305.4</ele>
        <time>2014-10-01T12:00:58Z</time>
      </trkpt>
      <trkpt lat="42.4023730" lon="-7.0779500">
        <ele>305.4</ele>
        <time>2014-10-01T12:00:59Z</time>
      </trkpt>
      <trkpt lat="42.4023050" lon="-7.0779670">
        <ele>305.4</ele>
        <time>2014-10-01T12:01:00Z</time>
      </trkpt>
      <trkpt lat="42.4022320" lon="-7.0779900">
        <ele>305.3</ele>
        <time>2014-10-01T12:01:01Z</time>
      </trkpt>
      <trkpt lat="42.4021600" lon="-7.0780190">
        <ele>305.3</ele>
        <time>2014-10-01T12:01:02Z</time>
      </trkpt>
      <trkpt lat="42.4020840" lon="-7.0780560">
        <ele>305.3</ele>
        <time>2014-10-01T12:01:03Z</time>
      </trkpt>
      <trkpt lat="42.4020060" lon="-7.0780990">
        <ele>305.2</ele>
        <time>2014-10-01T12:01:04Z</time>
      </trkpt>
      <trkpt lat="42.4019340" lon="-7.0781440">
        <ele>305.2</ele>
        <time>2014-10-01T12:01:05Z</time>
      </trkpt>
      <trkpt lat="42.4018630" lon="-7.0781900">
        <ele>305.2</ele>
        <time>2014-10-01T12:01:06Z</time>
      </trkpt>
      <trkpt lat="42.4017910" lon="-7.0782380">
        <ele>305.2</ele>
        <time>2014-10-01T12:01:07Z</time>
      </trkpt>
      <trkpt lat="42.4017230" lon="-7.0782790">
        <ele>305.2</ele>
        <time>2014-10-01T12:01:08Z</time>
      </trkpt>
      <trkpt lat="42.4016510" lon="-7.0783210">
        <ele>305.2</ele>
        <time>2014-10-01T12:01:09Z</time>
      </trkpt>
      <trkpt lat="42.4015770" lon="-7.0783580">
        <ele>305.2</ele>
        <time>2014-10-01T12:01:10Z</time>
      </trkpt>
      <trkpt lat="42.4015040" lon="-7.0783950">
        <ele>305.2</ele>
        <time>2014-10-01T12:01:11Z</time>
      </trkpt>
      <trkpt lat="42.4014300" lon="-7.0784270">
        <ele>305.2</ele>
        <time>2014-10-01T12:01:12Z</time>
      </trkpt>
      <trkpt lat="42.4013550" lon="-7.0784610">
        <ele>305.2</ele>
        <time>2014-10-01T12:01:13Z</time>
      </trkpt>
      <trkpt lat="42.4012810" lon="-7.0784980">
        <ele>305.2</ele>
        <time>2014-10-01T12:01:14Z</time>
      </trkpt>
      <trkpt lat="42.4012060" lon="-7.0785360">
        <ele>305.2</ele>
        <time>2014-10-01T12:01:15Z</time>
      </trkpt>
      <trkpt lat="42.4011320" lon="-7.0785720">
        <ele>305.2</ele>
        <time>2014-10-01T12:01:16Z</time>
      </trkpt>
      <trkpt lat="42.4010570" lon="-7.0786050">
        <ele>305.2</ele>
        <time>2014-10-01T12:01:17Z</time>
      </trkpt>
      <trkpt lat="42.4009800" lon="-7.0786380">
        <ele>305.3</ele>
        <time>2014-10-01T12:01:18Z</time>
      </trkpt>
      <trkpt lat="42.4009010" lon="-7.0786730">
        <ele>305.3</ele>
        <time>2014-10-01T12:01:19Z</time>
      </trkpt>
      <trkpt lat="42.4008220" lon="-7.0787100">
        <ele>305.3</ele>
        <time>2014-10-01T12:01:20Z</time>
      </trkpt>
      <trkpt lat="42.4007470" lon="-7.0787450">
        <ele>305.3</ele>
        <time>2014-10-01T12:01:21Z</time>
      </trkpt>
      <trkpt lat="42.4006720" lon="-7.0787820">
        <ele>305.3</ele>
        <time>2014-10-01T12:01:22Z</time>
      </trkpt>
      <trkpt lat="42.4005970" lon="-7.0788210">
        <ele>305.3</ele>
        <time>2014-10-01T12:01:23Z</time>
      </trkpt>
      <trkpt lat="42.4005210" lon="-7.0788660">
        <ele>305.3</ele>
        <time>2014-10-01T12:01:24Z</time>
      </trkpt>
      <trkpt lat="42.4004440" lon="-7.0789150">
        <ele>305.2</ele>
        <time>2014-10-01T12:01:25Z</time>
      </trkpt>
      <trkpt lat="42.4003670" lon="-7.0789670">
        <ele>305.2</ele>
        <time>2014-10-01T12:01:26Z</time>
      </trkpt>
      <trkpt lat="42.4002910" lon="-7.0790210">
        <ele>305.2</ele>
        <time>2014-10-01T12:01:27Z</time>
      </trkpt>
      <trkpt lat="42.4002170" lon="-7.0790810">
        <ele>305.2</ele>
        <time>2014-10-01T12:01:28Z</time>
      </trkpt>
      <trkpt lat="42.4001460" lon="-7.0791420">
        <ele>305.2</ele>
        <time>2014-10-01T12:01:29Z</time>
      </trkpt>
      <trkpt lat="42.4000760" lon="-7.0792110">
        <ele>305.2</ele>
        <time>2014-10-01T12:01:30Z</time>
      </trkpt>
      <trkpt lat="42.4000110" lon="-7.0792850">
        <ele>305.3</ele>
        <time>2014-10-01T12:01:31Z</time>
      </trkpt>
      <trkpt lat="42.3999540" lon="-7.0793610">
        <ele>305.3</ele>
        <time>2014-10-01T12:01:32Z</time>
      </trkpt>
      <trkpt lat="42.3999000" lon="-7.0794410">
        <ele>305.3</ele>
        <time>2014-10-01T12:01:33Z</time>
      </trkpt>
      <trkpt lat="42.3998470" lon="-7.0795230">
        <ele>305.3</ele>
        <time>2014-10-01T12:01:34Z</time>
      </trkpt>
      <trkpt lat="42.3997960" lon="-7.0796070">
        <ele>305.4</ele>
        <time>2014-10-01T12:01:35Z</time>
      </trkpt>
      <trkpt lat="42.3997440" lon="-7.0796900">
        <ele>305.4</ele>
        <time>2014-10-01T12:01:36Z</time>
      </trkpt>
      <trkpt lat="42.3996930" lon="-7.0797730">
        <ele>305.4</ele>
        <time>2014-10-01T12:01:37Z</time>
      </trkpt>
      <trkpt lat="42.3996420" lon="-7.0798550">
        <ele>305.4</ele>
        <time>2014-10-01T12:01:38Z</time>
      </trkpt>
      <trkpt lat="42.3995920" lon="-7.0799400">
        <ele>305.3</ele>
        <time>2014-10-01T12:01:39Z</time>
      </trkpt>
      <trkpt lat="42.3995410" lon="-7.0800250">
        <ele>305.3</ele>
        <time>2014-10-01T12:01:40Z</time>
      </trkpt>
      <trkpt lat="42.3994910" lon="-7.0801100">
        <ele>305.3</ele>
        <time>2014-10-01T12:01:41Z</time>
      </trkpt>
      <trkpt lat="42.3994400" lon="-7.0801970">
        <ele>305.3</ele>
        <time>2014-10-01T12:01:42Z</time>
      </trkpt>
      <trkpt lat="42.3993890" lon="-7.0802820">
        <ele>305.3</ele>
        <time>2014-10-01T12:01:43Z</time>
      </trkpt>
      <trkpt lat="42.3993360" lon="-7.0803680">
        <ele>305.2</ele>
        <time>2014-10-01T12:01:44Z</time>
      </trkpt>
      <trkpt lat="42.3992820" lon="-7.0804540">
        <ele>305.2</ele>
        <time>2014-10-01T12:01:45Z</time>
      </trkpt>
      <trkpt lat="42.3992270" lon="-7.0805380">
        <ele>305.2</ele>
        <time>2014-10-01T12:01:46Z</time>
      </trkpt>
      <trkpt lat="42.3991720" lon="-7.0806230">
        <ele>305.2</ele>
        <time>2014-10-01T12:01:47Z</time>
      </trkpt>
      <trkpt lat="42.3991170" lon="-7.0807070">
        <ele>305.2</ele>
        <time>2014-10-01T12:01:48Z</time>
      </trkpt>
      <trkpt lat="42.3990620" lon="-7.0807910">
        <ele>305.2</ele>
        <time>2014-10-01T12:01:49Z</time>
      </trkpt>
      <trkpt lat="42.3990060" lon="-7.0808760">
        <ele>305.2</ele>
        <time>2014-10-01T12:01:50Z</time>
      </trkpt>
      <trkpt lat="42.3989510" lon="-7.0809610">
        <ele>305.2</ele>
        <time>2014-10-01T12:01:51Z</time>
      </trkpt>
      <trkpt lat="42.3988960" lon="-7.0810450">
        <ele>305.2</ele>
        <time>2014-10-01T12:01:52Z</time>
      </trkpt>
      <trkpt lat="42.3988410" lon="-7.0811310">
        <ele>305.2</ele>
        <time>2014-10-01T12:01:53Z</time>
      </trkpt>
      <trkpt lat="42.3987850" lon="-7.0812180">
        <ele>305.2</ele>
        <time>2014-10-01T12:01:54Z</time>
      </trkpt>
      <trkpt lat="42.3987330" lon="-7.0813040">
        <ele>305.2</ele>
        <time>2014-10-01T12:01:55Z</time>
      </trkpt>
      <trkpt lat="42.3986800" lon="-7.0813890">
        <ele>305.3</ele>
        <time>2014-10-01T12:01:56Z</time>
      </trkpt>
      <trkpt lat="42.3986260" lon="-7.0814760">
        <ele>305.3</ele>
        <time>2014-10-01T12:01:57Z</time>
      </trkpt>
      <trkpt lat="42.3985720" lon="-7.0815620">
        <ele>305.3</ele>
        <time>2014-10-01T12:01:58Z</time>
      </trkpt>
      <trkpt lat="42.3985190" lon="-7.0816450">
        <ele>305.3</ele>
        <time>2014-10-01T12:01:59Z</time>
      </trkpt>
      <trkpt lat="42.3984670" lon="-7.0817280">
        <ele>305.2</ele>
        <time>2014-10-01T12:02:00Z</time>
      </trkpt>
      <trkpt lat="42.3984130" lon="-7.0818130">
        <ele>305.2</ele>
        <time>2014-10-01T12:02:01Z</time>
      </trkpt>
      <trkpt lat="42.3983570" lon="-7.0819010">
        <ele>305.2</ele>
        <time>2014-10-01T12:02:02Z</time>
      </trkpt>
      <trkpt lat="42.3983010" lon="-7.0819860">
        <ele>305.2</ele>
        <time>2014-10-01T12:02:03Z</time>
      </trkpt>
      <trkpt lat="42.3982460" lon="-7.0820720">
        <ele>305.2</ele>
        <time>2014-10-01T12:02:04Z</time>
      </trkpt>
      <trkpt lat="42.3981930" lon="-7.0821560">
        <ele>305.2</ele>
        <time>2014-10-01T12:02:05Z</time>
      </trkpt>
      <trkpt lat="42.3981410" lon="-7.0822400">
        <ele>305.2</ele>
        <time>2014-10-01T12:02:06Z</time>
      </trkpt>
      <trkpt lat="42.3980900" lon="-7.0823270">
        <ele>305.2</ele>
        <time>2014-10-01T12:02:07Z</time>
      </trkpt>
      <trkpt lat="42.3980400" lon="-7.0824190">
        <ele>305.2</ele>
        <time>2014-10-01T12:02:08Z</time>
      </trkpt>
      <trkpt lat="42.3979920" lon="-7.0825120">
        <ele>305.2</ele>
        <time>2014-10-01T12:02:09Z</time>
      </trkpt>
      <trkpt lat="42.3979490" lon="-7.0826020">
        <ele>305.2</ele>
        <time>2014-10-01T12:02:10Z</time>
      </trkpt>
      <trkpt lat="42.3979030" lon="-7.0826990">
        <ele>305.2</ele>
        <time>2014-10-01T12:02:11Z</time>
      </trkpt>
      <trkpt lat="42.3978620" lon="-7.0827890">
        <ele>305.2</ele>
        <time>2014-10-01T12:02:12Z</time>
      </trkpt>
      <trkpt lat="42.3978200" lon="-7.0828790">
        <ele>305.2</ele>
        <time>2014-10-01T12:02:13Z</time>
      </trkpt>
      <trkpt lat="42.3977770" lon="-7.0829710">
        <ele>305.2</ele>
        <time>2014-10-01T12:02:14Z</time>
      </trkpt>
      <trkpt lat="42.3977340" lon="-7.0830650">
        <ele>305.2</ele>
        <time>2014-10-01T12:02:15Z</time>
      </trkpt>
      <trkpt lat="42.3976910" lon="-7.0831610">
        <ele>305.2</ele>
        <time>2014-10-01T12:02:16Z</time>
      </trkpt>
      <trkpt lat="42.3976490" lon="-7.0832550">
        <ele>305.2</ele>
        <time>2014-10-01T12:02:17Z</time>
      </trkpt>
      <trkpt lat="42.3976060" lon="-7.0833480">
        <ele>305.2</ele>
        <time>2014-10-01T12:02:18Z</time>
      </trkpt>
      <trkpt lat="42.3975630" lon="-7.0834430">
        <ele>305.2</ele>
        <time>2014-10-01T12:02:19Z</time>
      </trkpt>
      <trkpt lat="42.3975180" lon="-7.0835400">
        <ele>305.0</ele>
        <time>2014-10-01T12:02:20Z</time>
      </trkpt>
      <trkpt lat="42.3974730" lon="-7.0836390">
        <ele>304.7</ele>
        <time>2014-10-01T12:02:21Z</time>
      </trkpt>
      <trkpt lat="42.3974280" lon="-7.0837360">
        <ele>304.7</ele>
        <time>2014-10-01T12:02:22Z</time>
      </trkpt>
      <trkpt lat="42.3973830" lon="-7.0838320">
        <ele>304.9</ele>
        <time>2014-10-01T12:02:23Z</time>
      </trkpt>
      <trkpt lat="42.3973350" lon="-7.0839270">
        <ele>305.1</ele>
        <time>2014-10-01T12:02:24Z</time>
      </trkpt>
      <trkpt lat="42.3972840" lon="-7.0840200">
        <ele>305.1</ele>
        <time>2014-10-01T12:02:25Z</time>
      </trkpt>
      <trkpt lat="42.3972320" lon="-7.0841090">
        <ele>305.1</ele>
        <time>2014-10-01T12:02:26Z</time>
      </trkpt>
      <trkpt lat="42.3971780" lon="-7.0841930">
        <ele>305.1</ele>
        <time>2014-10-01T12:02:27Z</time>
      </trkpt>
      <trkpt lat="42.3971170" lon="-7.0842790">
        <ele>305.1</ele>
        <time>2014-10-01T12:02:28Z</time>
      </trkpt>
      <trkpt lat="42.3970530" lon="-7.0843630">
        <ele>305.1</ele>
        <time>2014-10-01T12:02:29Z</time>
      </trkpt>
      <trkpt lat="42.3969860" lon="-7.0844450">
        <ele>305.1</ele>
        <time>2014-10-01T12:02:30Z</time>
      </trkpt>
      <trkpt lat="42.3969160" lon="-7.0845210">
        <ele>305.1</ele>
        <time>2014-10-01T12:02:31Z</time>
      </trkpt>
      <trkpt lat="42.3968450" lon="-7.0845920">
        <ele>305.1</ele>
        <time>2014-10-01T12:02:32Z</time>
      </trkpt>
      <trkpt lat="42.3967730" lon="-7.0846610">
        <ele>305.0</ele>
        <time>2014-10-01T12:02:33Z</time>
      </trkpt>
      <trkpt lat="42.3967000" lon="-7.0847260">
        <ele>305.0</ele>
        <time>2014-10-01T12:02:34Z</time>
      </trkpt>
      <trkpt lat="42.3966300" lon="-7.0847900">
        <ele>305.0</ele>
        <time>2014-10-01T12:02:35Z</time>
      </trkpt>
      <trkpt lat="42.3965560" lon="-7.0848530">
        <ele>305.0</ele>
        <time>2014-10-01T12:02:36Z</time>
      </trkpt>
      <trkpt lat="42.3964820" lon="-7.0849190">
        <ele>305.0</ele>
        <time>2014-10-01T12:02:37Z</time>
      </trkpt>
      <trkpt lat="42.3964110" lon="-7.0849840">
        <ele>305.0</ele>
        <time>2014-10-01T12:02:38Z</time>
      </trkpt>
      <trkpt lat="42.3963370" lon="-7.0850520">
        <ele>305.1</ele>
        <time>2014-10-01T12:02:39Z</time>
      </trkpt>
      <trkpt lat="42.3962640" lon="-7.0851200">
        <ele>305.1</ele>
        <time>2014-10-01T12:02:40Z</time>
      </trkpt>
      <trkpt lat="42.3961940" lon="-7.0851850">
        <ele>305.1</ele>
        <time>2014-10-01T12:02:41Z</time>
      </trkpt>
      <trkpt lat="42.3961240" lon="-7.0852500">
        <ele>305.0</ele>
        <time>2014-10-01T12:02:42Z</time>
      </trkpt>
      <trkpt lat="42.3960540" lon="-7.0853130">
        <ele>305.0</ele>
        <time>2014-10-01T12:02:43Z</time>
      </trkpt>
      <trkpt lat="42.3959830" lon="-7.0853760">
        <ele>305.0</ele>
        <time>2014-10-01T12:02:44Z</time>
      </trkpt>
      <trkpt lat="42.3959110" lon="-7.0854380">
        <ele>304.9</ele>
        <time>2014-10-01T12:02:45Z</time>
      </trkpt>
      <trkpt lat="42.3958340" lon="-7.0855050">
        <ele>304.9</ele>
        <time>2014-10-01T12:02:46Z</time>
      </trkpt>
      <trkpt lat="42.3957590" lon="-7.0855710">
        <ele>304.9</ele>
        <time>2014-10-01T12:02:47Z</time>
      </trkpt>
      <trkpt lat="42.3956870" lon="-7.0856360">
        <ele>304.9</ele>
        <time>2014-10-01T12:02:48Z</time>
      </trkpt>
      <trkpt lat="42.3956140" lon="-7.0857030">
        <ele>304.9</ele>
        <time>2014-10-01T12:02:49Z</time>
      </trkpt>
      <trkpt lat="42.3955420" lon="-7.0857700">
        <ele>304.9</ele>
        <time>2014-10-01T12:02:50Z</time>
      </trkpt>
      <trkpt lat="42.3954690" lon="-7.0858370">
        <ele>304.9</ele>
        <time>2014-10-01T12:02:51Z</time>
      </trkpt>
      <trkpt lat="42.3953980" lon="-7.0859030">
        <ele>304.9</ele>
        <time>2014-10-01T12:02:52Z</time>
      </trkpt>
      <trkpt lat="42.3953260" lon="-7.0859700">
        <ele>304.9</ele>
        <time>2014-10-01T12:02:53Z</time>
      </trkpt>
      <trkpt lat="42.3952560" lon="-7.0860360">
        <ele>304.9</ele>
        <time>2014-10-01T12:02:54Z</time>
      </trkpt>
      <trkpt lat="42.3951850" lon="-7.0861020">
        <ele>304.9</ele>
        <time>2014-10-01T12:02:55Z</time>
      </trkpt>
      <trkpt lat="42.3951140" lon="-7.0861690">
        <ele>304.9</ele>
        <time>2014-10-01T12:02:56Z</time>
      </trkpt>
      <trkpt lat="42.3950420" lon="-7.0862390">
        <ele>304.8</ele>
        <time>2014-10-01T12:02:57Z</time>
      </trkpt>
      <trkpt lat="42.3949710" lon="-7.0863060">
        <ele>304.9</ele>
        <time>2014-10-01T12:02:58Z</time>
      </trkpt>
      <trkpt lat="42.3949010" lon="-7.0863730">
        <ele>305.1</ele>
        <time>2014-10-01T12:02:59Z</time>
      </trkpt>
      <trkpt lat="42.3948300" lon="-7.0864380">
        <ele>305.1</ele>
        <time>2014-10-01T12:03:00Z</time>
      </trkpt>
      <trkpt lat="42.3947590" lon="-7.0865020">
        <ele>305.2</ele>
        <time>2014-10-01T12:03:01Z</time>
      </trkpt>
      <trkpt lat="42.3946890" lon="-7.0865660">
        <ele>305.2</ele>
        <time>2014-10-01T12:03:02Z</time>
      </trkpt>
      <trkpt lat="42.3946190" lon="-7.0866330">
        <ele>305.2</ele>
        <time>2014-10-01T12:03:03Z</time>
      </trkpt>
      <trkpt lat="42.3945460" lon="-7.0867020">
        <ele>305.2</ele>
        <time>2014-10-01T12:03:04Z</time>
      </trkpt>
      <trkpt lat="42.3944750" lon="-7.0867680">
        <ele>305.3</ele>
        <time>2014-10-01T12:03:05Z</time>
      </trkpt>
      <trkpt lat="42.3944050" lon="-7.0868330">
        <ele>305.3</ele>
        <time>2014-10-01T12:03:06Z</time>
      </trkpt>
      <trkpt lat="42.3943370" lon="-7.0868940">
        <ele>305.4</ele>
        <time>2014-10-01T12:03:07Z</time>
      </trkpt>
      <trkpt lat="42.3942660" lon="-7.0869580">
        <ele>305.5</ele>
        <time>2014-10-01T12:03:08Z</time>
      </trkpt>
      <trkpt lat="42.3941980" lon="-7.0870230">
        <ele>305.7</ele>
        <time>2014-10-01T12:03:09Z</time>
      </trkpt>
      <trkpt lat="42.3941310" lon="-7.0870860">
        <ele>306.0</ele>
        <time>2014-10-01T12:03:10Z</time>
      </trkpt>
      <trkpt lat="42.3940620" lon="-7.0871550">
        <ele>306.4</ele>
        <time>2014-10-01T12:03:11Z</time>
      </trkpt>
      <trkpt lat="42.3939950" lon="-7.0872200">
        <ele>306.9</ele>
        <time>2014-10-01T12:03:12Z</time>
      </trkpt>
      <trkpt lat="42.3939270" lon="-7.0872750">
        <ele>307.4</ele>
        <time>2014-10-01T12:03:13Z</time>
      </trkpt>
      <trkpt lat="42.3938530" lon="-7.0872870">
        <ele>307.9</ele>
        <time>2014-10-01T12:03:14Z</time>
      </trkpt>
      <trkpt lat="42.3937840" lon="-7.0872660">
        <ele>308.8</ele>
        <time>2014-10-01T12:03:15Z</time>
      </trkpt>
      <trkpt lat="42.3937210" lon="-7.0872390">
        <ele>309.3</ele>
        <time>2014-10-01T12:03:16Z</time>
      </trkpt>
      <trkpt lat="42.3936690" lon="-7.0872080">
        <ele>309.8</ele>
        <time>2014-10-01T12:03:17Z</time>
      </trkpt>
      <trkpt lat="42.3936190" lon="-7.0871820">
        <ele>310.2</ele>
        <time>2014-10-01T12:03:18Z</time>
      </trkpt>
      <trkpt lat="42.3935700" lon="-7.0871740">
        <ele>310.7</ele>
        <time>2014-10-01T12:03:19Z</time>
      </trkpt>
      <trkpt lat="42.3935180" lon="-7.0871650">
        <ele>311.2</ele>
        <time>2014-10-01T12:03:20Z</time>
      </trkpt>
      <trkpt lat="42.3934760" lon="-7.0871670">
        <ele>311.7</ele>
        <time>2014-10-01T12:03:21Z</time>
      </trkpt>
      <trkpt lat="42.3934520" lon="-7.0871840">
        <ele>312.0</ele>
        <time>2014-10-01T12:03:22Z</time>
      </trkpt>
      <trkpt lat="42.3934230" lon="-7.0872060">
        <ele>312.4</ele>
        <time>2014-10-01T12:03:23Z</time>
      </trkpt>
      <trkpt lat="42.3933800" lon="-7.0872500">
        <ele>313.0</ele>
        <time>2014-10-01T12:03:25Z</time>
      </trkpt>
      <trkpt lat="42.3933540" lon="-7.0872750">
        <ele>313.3</ele>
        <time>2014-10-01T12:03:26Z</time>
      </trkpt>
      <trkpt lat="42.3933300" lon="-7.0873020">
        <ele>313.6</ele>
        <time>2014-10-01T12:03:27Z</time>
      </trkpt>
      <trkpt lat="42.3933070" lon="-7.0873340">
        <ele>313.9</ele>
        <time>2014-10-01T12:03:28Z</time>
      </trkpt>
      <trkpt lat="42.3932880" lon="-7.0873700">
        <ele>314.2</ele>
        <time>2014-10-01T12:03:29Z</time>
      </trkpt>
      <trkpt lat="42.3932550" lon="-7.0874280">
        <ele>314.7</ele>
        <time>2014-10-01T12:03:31Z</time>
      </trkpt>
      <trkpt lat="42.3932360" lon="-7.0874620">
        <ele>315.0</ele>
        <time>2014-10-01T12:03:32Z</time>
      </trkpt>
      <trkpt lat="42.3932020" lon="-7.0875290">
        <ele>315.6</ele>
        <time>2014-10-01T12:03:34Z</time>
      </trkpt>
      <trkpt lat="42.3931770" lon="-7.0875730">
        <ele>316.0</ele>
        <time>2014-10-01T12:03:35Z</time>
      </trkpt>
      <trkpt lat="42.3931560" lon="-7.0876110">
        <ele>316.3</ele>
        <time>2014-10-01T12:03:36Z</time>
      </trkpt>
      <trkpt lat="42.3931360" lon="-7.0876460">
        <ele>316.6</ele>
        <time>2014-10-01T12:03:37Z</time>
      </trkpt>
      <trkpt lat="42.3931200" lon="-7.0876800">
        <ele>316.9</ele>
        <time>2014-10-01T12:03:38Z</time>
      </trkpt>
      <trkpt lat="42.3930950" lon="-7.0877390">
        <ele>317.4</ele>
        <time>2014-10-01T12:03:40Z</time>
      </trkpt>
      <trkpt lat="42.3930810" lon="-7.0877720">
        <ele>317.6</ele>
        <time>2014-10-01T12:03:41Z</time>
      </trkpt>
      <trkpt lat="42.3930670" lon="-7.0878060">
        <ele>317.9</ele>
        <time>2014-10-01T12:03:42Z</time>
      </trkpt>
      <trkpt lat="42.3930520" lon="-7.0878430">
        <ele>318.2</ele>
        <time>2014-10-01T12:03:43Z</time>
      </trkpt>
      <trkpt lat="42.3930340" lon="-7.0878810">
        <ele>318.5</ele>
        <time>2014-10-01T12:03:44Z</time>
      </trkpt>
      <trkpt lat="42.3930170" lon="-7.0879160">
        <ele>318.7</ele>
        <time>2014-10-01T12:03:45Z</time>
      </trkpt>
      <trkpt lat="42.3929980" lon="-7.0879530">
        <ele>319.0</ele>
        <time>2014-10-01T12:03:46Z</time>
      </trkpt>
      <trkpt lat="42.3929770" lon="-7.0879930">
        <ele>319.3</ele>
        <time>2014-10-01T12:03:47Z</time>
      </trkpt>
      <trkpt lat="42.3929560" lon="-7.0880290">
        <ele>319.6</ele>
        <time>2014-10-01T12:03:48Z</time>
      </trkpt>
      <trkpt lat="42.3929370" lon="-7.0880640">
        <ele>319.9</ele>
        <time>2014-10-01T12:03:49Z</time>
      </trkpt>
      <trkpt lat="42.3929160" lon="-7.0880970">
        <ele>320.2</ele>
        <time>2014-10-01T12:03:50Z</time>
      </trkpt>
      <trkpt lat="42.3928970" lon="-7.0881280">
        <ele>320.4</ele>
        <time>2014-10-01T12:03:51Z</time>
      </trkpt>
      <trkpt lat="42.3928780" lon="-7.0881570">
        <ele>320.7</ele>
        <time>2014-10-01T12:03:52Z</time>
      </trkpt>
      <trkpt lat="42.3928440" lon="-7.0882140">
        <ele>321.3</ele>
        <time>2014-10-01T12:03:54Z</time>
      </trkpt>
      <trkpt lat="42.3928270" lon="-7.0882430">
        <ele>321.6</ele>
        <time>2014-10-01T12:03:55Z</time>
      </trkpt>
      <trkpt lat="42.3927910" lon="-7.0883020">
        <ele>322.2</ele>
        <time>2014-10-01T12:03:57Z</time>
      </trkpt>
      <trkpt lat="42.3927740" lon="-7.0883310">
        <ele>322.5</ele>
        <time>2014-10-01T12:03:58Z</time>
      </trkpt>
      <trkpt lat="42.3927360" lon="-7.0883840">
        <ele>323.1</ele>
        <time>2014-10-01T12:04:00Z</time>
      </trkpt>
      <trkpt lat="42.3927150" lon="-7.0884120">
        <ele>323.4</ele>
        <time>2014-10-01T12:04:01Z</time>
      </trkpt>
      <trkpt lat="42.3926770" lon="-7.0884590">
        <ele>324.0</ele>
        <time>2014-10-01T12:04:03Z</time>
      </trkpt>
      <trkpt lat="42.3926370" lon="-7.0885070">
        <ele>324.6</ele>
        <time>2014-10-01T12:04:05Z</time>
      </trkpt>
      <trkpt lat="42.3925980" lon="-7.0885570">
        <ele>325.1</ele>
        <time>2014-10-01T12:04:07Z</time>
      </trkpt>
      <trkpt lat="42.3925760" lon="-7.0885810">
        <ele>325.4</ele>
        <time>2014-10-01T12:04:08Z</time>
      </trkpt>
      <trkpt lat="42.3925500" lon="-7.0886100">
        <ele>325.6</ele>
        <time>2014-10-01T12:04:09Z</time>
      </trkpt>
      <trkpt lat="42.3925240" lon="-7.0886380">
        <ele>325.6</ele>
        <time>2014-10-01T12:04:10Z</time>
      </trkpt>
      <trkpt lat="42.3924960" lon="-7.0886640">
        <ele>325.7</ele>
        <time>2014-10-01T12:04:11Z</time>
      </trkpt>
      <trkpt lat="42.3924700" lon="-7.0886880">
        <ele>326.0</ele>
        <time>2014-10-01T12:04:12Z</time>
      </trkpt>
      <trkpt lat="42.3924220" lon="-7.0887300">
        <ele>326.5</ele>
        <time>2014-10-01T12:04:14Z</time>
      </trkpt>
      <trkpt lat="42.3923940" lon="-7.0887520">
        <ele>326.8</ele>
        <time>2014-10-01T12:04:15Z</time>
      </trkpt>
      <trkpt lat="42.3923670" lon="-7.0887730">
        <ele>327.2</ele>
        <time>2014-10-01T12:04:16Z</time>
      </trkpt>
      <trkpt lat="42.3923410" lon="-7.0887940">
        <ele>327.5</ele>
        <time>2014-10-01T12:04:17Z</time>
      </trkpt>
      <trkpt lat="42.3923180" lon="-7.0888160">
        <ele>327.8</ele>
        <time>2014-10-01T12:04:18Z</time>
      </trkpt>
      <trkpt lat="42.3922940" lon="-7.0888370">
        <ele>328.1</ele>
        <time>2014-10-01T12:04:19Z</time>
      </trkpt>
      <trkpt lat="42.3922690" lon="-7.0888580">
        <ele>328.5</ele>
        <time>2014-10-01T12:04:20Z</time>
      </trkpt>
      <trkpt lat="42.3922210" lon="-7.0888930">
        <ele>329.1</ele>
        <time>2014-10-01T12:04:22Z</time>
      </trkpt>
      <trkpt lat="42.3921950" lon="-7.0889100">
        <ele>329.4</ele>
        <time>2014-10-01T12:04:23Z</time>
      </trkpt>
      <trkpt lat="42.3921690" lon="-7.0889280">
        <ele>329.7</ele>
        <time>2014-10-01T12:04:24Z</time>
      </trkpt>
      <trkpt lat="42.3921280" lon="-7.0889650">
        <ele>330.3</ele>
        <time>2014-10-01T12:04:26Z</time>
      </trkpt>
      <trkpt lat="42.3920840" lon="-7.0890110">
        <ele>330.8</ele>
        <time>2014-10-01T12:04:28Z</time>
      </trkpt>
      <trkpt lat="42.3920610" lon="-7.0890370">
        <ele>331.1</ele>
        <time>2014-10-01T12:04:29Z</time>
      </trkpt>
      <trkpt lat="42.3920380" lon="-7.0890660">
        <ele>331.4</ele>
        <time>2014-10-01T12:04:30Z</time>
      </trkpt>
      <trkpt lat="42.3919990" lon="-7.0891210">
        <ele>332.0</ele>
        <time>2014-10-01T12:04:32Z</time>
      </trkpt>
      <trkpt lat="42.3919810" lon="-7.0891500">
        <ele>332.3</ele>
        <time>2014-10-01T12:04:33Z</time>
      </trkpt>
      <trkpt lat="42.3919610" lon="-7.0891830">
        <ele>332.6</ele>
        <time>2014-10-01T12:04:34Z</time>
      </trkpt>
      <trkpt lat="42.3919270" lon="-7.0892350">
        <ele>333.1</ele>
        <time>2014-10-01T12:04:36Z</time>
      </trkpt>
      <trkpt lat="42.3918910" lon="-7.0892850">
        <ele>333.6</ele>
        <time>2014-10-01T12:04:38Z</time>
      </trkpt>
      <trkpt lat="42.3918540" lon="-7.0893330">
        <ele>334.1</ele>
        <time>2014-10-01T12:04:40Z</time>
      </trkpt>
      <trkpt lat="42.3918330" lon="-7.0893600">
        <ele>334.4</ele>
        <time>2014-10-01T12:04:41Z</time>
      </trkpt>
      <trkpt lat="42.3918120" lon="-7.0893870">
        <ele>334.7</ele>
        <time>2014-10-01T12:04:42Z</time>
      </trkpt>
      <trkpt lat="42.3917900" lon="-7.0894110">
        <ele>334.9</ele>
        <time>2014-10-01T12:04:43Z</time>
      </trkpt>
      <trkpt lat="42.3917690" lon="-7.0894350">
        <ele>335.1</ele>
        <time>2014-10-01T12:04:44Z</time>
      </trkpt>
      <trkpt lat="42.3917490" lon="-7.0894600">
        <ele>335.4</ele>
        <time>2014-10-01T12:04:45Z</time>
      </trkpt>
      <trkpt lat="42.3917280" lon="-7.0894860">
        <ele>335.6</ele>
        <time>2014-10-01T12:04:46Z</time>
      </trkpt>
      <trkpt lat="42.3917060" lon="-7.0895130">
        <ele>335.9</ele>
        <time>2014-10-01T12:04:47Z</time>
      </trkpt>
      <trkpt lat="42.3916830" lon="-7.0895390">
        <ele>336.1</ele>
        <time>2014-10-01T12:04:48Z</time>
      </trkpt>
      <trkpt lat="42.3916440" lon="-7.0895820">
        <ele>336.6</ele>
        <time>2014-10-01T12:04:50Z</time>
      </trkpt>
      <trkpt lat="42.3916200" lon="-7.0896050">
        <ele>336.8</ele>
        <time>2014-10-01T12:04:51Z</time>
      </trkpt>
      <trkpt lat="42.3915930" lon="-7.0896310">
        <ele>337.1</ele>
        <time>2014-10-01T12:04:52Z</time>
      </trkpt>
      <trkpt lat="42.3915670" lon="-7.0896570">
        <ele>337.4</ele>
        <time>2014-10-01T12:04:53Z</time>
      </trkpt>
      <trkpt lat="42.3915380" lon="-7.0896840">
        <ele>337.7</ele>
        <time>2014-10-01T12:04:54Z</time>
      </trkpt>
      <trkpt lat="42.3915110" lon="-7.0897050">
        <ele>338.0</ele>
        <time>2014-10-01T12:04:55Z</time>
      </trkpt>
      <trkpt lat="42.3914820" lon="-7.0897270">
        <ele>338.3</ele>
        <time>2014-10-01T12:04:56Z</time>
      </trkpt>
      <trkpt lat="42.3914530" lon="-7.0897460">
        <ele>338.6</ele>
        <time>2014-10-01T12:04:57Z</time>
      </trkpt>
      <trkpt lat="42.3914220" lon="-7.0897640">
        <ele>338.8</ele>
        <time>2014-10-01T12:04:58Z</time>
      </trkpt>
      <trkpt lat="42.3913940" lon="-7.0897780">
        <ele>339.1</ele>
        <time>2014-10-01T12:04:59Z</time>
      </trkpt>
      <trkpt lat="42.3913640" lon="-7.0897910">
        <ele>339.3</ele>
        <time>2014-10-01T12:05:00Z</time>
      </trkpt>
      <trkpt lat="42.3913320" lon="-7.0898030">
        <ele>339.6</ele>
        <time>2014-10-01T12:05:01Z</time>
      </trkpt>
      <trkpt lat="42.3913000" lon="-7.0898120">
        <ele>339.9</ele>
        <time>2014-10-01T12:05:02Z</time>
      </trkpt>
      <trkpt lat="42.3912690" lon="-7.0898200">
        <ele>340.1</ele>
        <time>2014-10-01T12:05:03Z</time>
      </trkpt>
      <trkpt lat="42.3912390" lon="-7.0898240">
        <ele>340.4</ele>
        <time>2014-10-01T12:05:04Z</time>
      </trkpt>
      <trkpt lat="42.3912110" lon="-7.0898270">
        <ele>340.6</ele>
        <time>2014-10-01T12:05:05Z</time>
      </trkpt>
      <trkpt lat="42.3911800" lon="-7.0898320">
        <ele>340.9</ele>
        <time>2014-10-01T12:05:06Z</time>
      </trkpt>
      <trkpt lat="42.3911480" lon="-7.0898380">
        <ele>341.2</ele>
        <time>2014-10-01T12:05:07Z</time>
      </trkpt>
      <trkpt lat="42.3911190" lon="-7.0898420">
        <ele>341.4</ele>
        <time>2014-10-01T12:05:08Z</time>
      </trkpt>
      <trkpt lat="42.3910910" lon="-7.0898460">
        <ele>341.6</ele>
        <time>2014-10-01T12:05:09Z</time>
      </trkpt>
      <trkpt lat="42.3910410" lon="-7.0898580">
        <ele>342.1</ele>
        <time>2014-10-01T12:05:11Z</time>
      </trkpt>
      <trkpt lat="42.3910130" lon="-7.0898670">
        <ele>342.3</ele>
        <time>2014-10-01T12:05:12Z</time>
      </trkpt>
      <trkpt lat="42.3909800" lon="-7.0898750">
        <ele>342.6</ele>
        <time>2014-10-01T12:05:13Z</time>
      </trkpt>
      <trkpt lat="42.3909480" lon="-7.0898820">
        <ele>342.9</ele>
        <time>2014-10-01T12:05:14Z</time>
      </trkpt>
      <trkpt lat="42.3909170" lon="-7.0898890">
        <ele>343.2</ele>
        <time>2014-10-01T12:05:15Z</time>
      </trkpt>
      <trkpt lat="42.3908850" lon="-7.0898980">
        <ele>343.5</ele>
        <time>2014-10-01T12:05:16Z</time>
      </trkpt>
      <trkpt lat="42.3908520" lon="-7.0899070">
        <ele>343.8</ele>
        <time>2014-10-01T12:05:17Z</time>
      </trkpt>
      <trkpt lat="42.3908230" lon="-7.0899170">
        <ele>344.1</ele>
        <time>2014-10-01T12:05:18Z</time>
      </trkpt>
      <trkpt lat="42.3907910" lon="-7.0899240">
        <ele>344.3</ele>
        <time>2014-10-01T12:05:19Z</time>
      </trkpt>
      <trkpt lat="42.3907540" lon="-7.0899340">
        <ele>344.6</ele>
        <time>2014-10-01T12:05:20Z</time>
      </trkpt>
      <trkpt lat="42.3907230" lon="-7.0899420">
        <ele>344.9</ele>
        <time>2014-10-01T12:05:21Z</time>
      </trkpt>
      <trkpt lat="42.3906920" lon="-7.0899480">
        <ele>345.2</ele>
        <time>2014-10-01T12:05:22Z</time>
      </trkpt>
      <trkpt lat="42.3906530" lon="-7.0899560">
        <ele>345.5</ele>
        <time>2014-10-01T12:05:23Z</time>
      </trkpt>
      <trkpt lat="42.3906150" lon="-7.0899650">
        <ele>345.8</ele>
        <time>2014-10-01T12:05:24Z</time>
      </trkpt>
      <trkpt lat="42.3905820" lon="-7.0899770">
        <ele>346.0</ele>
        <time>2014-10-01T12:05:25Z</time>
      </trkpt>
      <trkpt lat="42.3905450" lon="-7.0899920">
        <ele>346.3</ele>
        <time>2014-10-01T12:05:26Z</time>
      </trkpt>
      <trkpt lat="42.3905080" lon="-7.0900080">
        <ele>346.6</ele>
        <time>2014-10-01T12:05:27Z</time>
      </trkpt>
      <trkpt lat="42.3904760" lon="-7.0900270">
        <ele>346.8</ele>
        <time>2014-10-01T12:05:28Z</time>
      </trkpt>
      <trkpt lat="42.3904500" lon="-7.0900430">
        <ele>347.0</ele>
        <time>2014-10-01T12:05:29Z</time>
      </trkpt>
      <trkpt lat="42.3904050" lon="-7.0900770">
        <ele>347.3</ele>
        <time>2014-10-01T12:05:31Z</time>
      </trkpt>
      <trkpt lat="42.3903730" lon="-7.0900980">
        <ele>347.5</ele>
        <time>2014-10-01T12:05:32Z</time>
      </trkpt>
      <trkpt lat="42.3903390" lon="-7.0901190">
        <ele>347.7</ele>
        <time>2014-10-01T12:05:33Z</time>
      </trkpt>
      <trkpt lat="42.3903050" lon="-7.0901390">
        <ele>347.9</ele>
        <time>2014-10-01T12:05:34Z</time>
      </trkpt>
      <trkpt lat="42.3902710" lon="-7.0901590">
        <ele>348.0</ele>
        <time>2014-10-01T12:05:35Z</time>
      </trkpt>
      <trkpt lat="42.3902360" lon="-7.0901770">
        <ele>348.2</ele>
        <time>2014-10-01T12:05:36Z</time>
      </trkpt>
      <trkpt lat="42.3901950" lon="-7.0901980">
        <ele>348.3</ele>
        <time>2014-10-01T12:05:37Z</time>
      </trkpt>
      <trkpt lat="42.3901520" lon="-7.0902190">
        <ele>348.3</ele>
        <time>2014-10-01T12:05:38Z</time>
      </trkpt>
      <trkpt lat="42.3901040" lon="-7.0902440">
        <ele>348.3</ele>
        <time>2014-10-01T12:05:39Z</time>
      </trkpt>
      <trkpt lat="42.3900520" lon="-7.0902680">
        <ele>348.1</ele>
        <time>2014-10-01T12:05:40Z</time>
      </trkpt>
      <trkpt lat="42.3899990" lon="-7.0902930">
        <ele>347.8</ele>
        <time>2014-10-01T12:05:41Z</time>
      </trkpt>
      <trkpt lat="42.3899400" lon="-7.0903180">
        <ele>347.5</ele>
        <time>2014-10-01T12:05:42Z</time>
      </trkpt>
      <trkpt lat="42.3898760" lon="-7.0903420">
        <ele>347.2</ele>
        <time>2014-10-01T12:05:43Z</time>
      </trkpt>
      <trkpt lat="42.3898030" lon="-7.0903610">
        <ele>346.8</ele>
        <time>2014-10-01T12:05:44Z</time>
      </trkpt>
      <trkpt lat="42.3897260" lon="-7.0903720">
        <ele>346.3</ele>
        <time>2014-10-01T12:05:45Z</time>
      </trkpt>
      <trkpt lat="42.3896440" lon="-7.0903780">
        <ele>345.6</ele>
        <time>2014-10-01T12:05:46Z</time>
      </trkpt>
      <trkpt lat="42.3895590" lon="-7.0903860">
        <ele>345.0</ele>
        <time>2014-10-01T12:05:47Z</time>
      </trkpt>
      <trkpt lat="42.3894800" lon="-7.0904240">
        <ele>344.4</ele>
        <time>2014-10-01T12:05:48Z</time>
      </trkpt>
      <trkpt lat="42.3894020" lon="-7.0904720">
        <ele>343.7</ele>
        <time>2014-10-01T12:05:49Z</time>
      </trkpt>
      <trkpt lat="42.3893300" lon="-7.0905620">
        <ele>343.0</ele>
        <time>2014-10-01T12:05:50Z</time>
      </trkpt>
      <trkpt lat="42.3892610" lon="-7.0906620">
        <ele>342.2</ele>
        <time>2014-10-01T12:05:51Z</time>
      </trkpt>
      <trkpt lat="42.3892000" lon="-7.0907640">
        <ele>341.5</ele>
        <time>2014-10-01T12:05:52Z</time>
      </trkpt>
      <trkpt lat="42.3891380" lon="-7.0908670">
        <ele>340.7</ele>
        <time>2014-10-01T12:05:53Z</time>
      </trkpt>
      <trkpt lat="42.3890730" lon="-7.0909720">
        <ele>339.9</ele>
        <time>2014-10-01T12:05:54Z</time>
      </trkpt>
      <trkpt lat="42.3889950" lon="-7.0910770">
        <ele>338.8</ele>
        <time>2014-10-01T12:05:55Z</time>
      </trkpt>
      <trkpt lat="42.3889060" lon="-7.0911800">
        <ele>337.7</ele>
        <time>2014-10-01T12:05:56Z</time>
      </trkpt>
      <trkpt lat="42.3888130" lon="-7.0912660">
        <ele>336.6</ele>
        <time>2014-10-01T12:05:57Z</time>
      </trkpt>
      <trkpt lat="42.3887140" lon="-7.0913430">
        <ele>335.5</ele>
        <time>2014-10-01T12:05:58Z</time>
      </trkpt>
      <trkpt lat="42.3886050" lon="-7.0914170">
        <ele>334.2</ele>
        <time>2014-10-01T12:05:59Z</time>
      </trkpt>
      <trkpt lat="42.3884900" lon="-7.0914960">
        <ele>332.9</ele>
        <time>2014-10-01T12:06:00Z</time>
      </trkpt>
      <trkpt lat="42.3883720" lon="-7.0915890">
        <ele>331.6</ele>
        <time>2014-10-01T12:06:01Z</time>
      </trkpt>
      <trkpt lat="42.3882590" lon="-7.0916890">
        <ele>330.3</ele>
        <time>2014-10-01T12:06:02Z</time>
      </trkpt>
      <trkpt lat="42.3881480" lon="-7.0917860">
        <ele>329.0</ele>
        <time>2014-10-01T12:06:03Z</time>
      </trkpt>
      <trkpt lat="42.3880340" lon="-7.0918730">
        <ele>327.7</ele>
        <time>2014-10-01T12:06:04Z</time>
      </trkpt>
      <trkpt lat="42.3879140" lon="-7.0919550">
        <ele>326.4</ele>
        <time>2014-10-01T12:06:05Z</time>
      </trkpt>
      <trkpt lat="42.3877910" lon="-7.0920350">
        <ele>325.1</ele>
        <time>2014-10-01T12:06:06Z</time>
      </trkpt>
      <trkpt lat="42.3876660" lon="-7.0921180">
        <ele>323.8</ele>
        <time>2014-10-01T12:06:07Z</time>
      </trkpt>
      <trkpt lat="42.3875390" lon="-7.0922170">
        <ele>322.4</ele>
        <time>2014-10-01T12:06:08Z</time>
      </trkpt>
      <trkpt lat="42.3874130" lon="-7.0923300">
        <ele>321.1</ele>
        <time>2014-10-01T12:06:09Z</time>
      </trkpt>
      <trkpt lat="42.3872900" lon="-7.0924540">
        <ele>319.7</ele>
        <time>2014-10-01T12:06:10Z</time>
      </trkpt>
      <trkpt lat="42.3871760" lon="-7.0925760">
        <ele>318.5</ele>
        <time>2014-10-01T12:06:11Z</time>
      </trkpt>
      <trkpt lat="42.3870680" lon="-7.0926980">
        <ele>317.3</ele>
        <time>2014-10-01T12:06:12Z</time>
      </trkpt>
      <trkpt lat="42.3869600" lon="-7.0928230">
        <ele>316.1</ele>
        <time>2014-10-01T12:06:13Z</time>
      </trkpt>
      <trkpt lat="42.3868500" lon="-7.0929510">
        <ele>314.9</ele>
        <time>2014-10-01T12:06:14Z</time>
      </trkpt>
      <trkpt lat="42.3867430" lon="-7.0930780">
        <ele>313.6</ele>
        <time>2014-10-01T12:06:15Z</time>
      </trkpt>
      <trkpt lat="42.3866340" lon="-7.0932060">
        <ele>312.3</ele>
        <time>2014-10-01T12:06:16Z</time>
      </trkpt>
      <trkpt lat="42.3865250" lon="-7.0933330">
        <ele>311.2</ele>
        <time>2014-10-01T12:06:17Z</time>
      </trkpt>
      <trkpt lat="42.3864150" lon="-7.0934590">
        <ele>310.2</ele>
        <time>2014-10-01T12:06:18Z</time>
      </trkpt>
      <trkpt lat="42.3863030" lon="-7.0935850">
        <ele>309.1</ele>
        <time>2014-10-01T12:06:19Z</time>
      </trkpt>
      <trkpt lat="42.3861920" lon="-7.0937120">
        <ele>307.8</ele>
        <time>2014-10-01T12:06:20Z</time>
      </trkpt>
      <trkpt lat="42.3860880" lon="-7.0938460">
        <ele>306.6</ele>
        <time>2014-10-01T12:06:21Z</time>
      </trkpt>
      <trkpt lat="42.3859940" lon="-7.0939840">
        <ele>305.6</ele>
        <time>2014-10-01T12:06:22Z</time>
      </trkpt>
      <trkpt lat="42.3859050" lon="-7.0941360">
        <ele>304.5</ele>
        <time>2014-10-01T12:06:23Z</time>
      </trkpt>
      <trkpt lat="42.3858270" lon="-7.0942970">
        <ele>303.3</ele>
        <time>2014-10-01T12:06:24Z</time>
      </trkpt>
      <trkpt lat="42.3857570" lon="-7.0944680">
        <ele>302.1</ele>
        <time>2014-10-01T12:06:25Z</time>
      </trkpt>
      <trkpt lat="42.3856940" lon="-7.0946410">
        <ele>301.0</ele>
        <time>2014-10-01T12:06:26Z</time>
      </trkpt>
      <trkpt lat="42.3856300" lon="-7.0948060">
        <ele>299.9</ele>
        <time>2014-10-01T12:06:27Z</time>
      </trkpt>
      <trkpt lat="42.3855610" lon="-7.0949560">
        <ele>298.8</ele>
        <time>2014-10-01T12:06:28Z</time>
      </trkpt>
      <trkpt lat="42.3854580" lon="-7.0950790">
        <ele>297.8</ele>
        <time>2014-10-01T12:06:29Z</time>
      </trkpt>
      <trkpt lat="42.3853480" lon="-7.0951980">
        <ele>296.8</ele>
        <time>2014-10-01T12:06:30Z</time>
      </trkpt>
      <trkpt lat="42.3852390" lon="-7.0953100">
        <ele>296.2</ele>
        <time>2014-10-01T12:06:31Z</time>
      </trkpt>
      <trkpt lat="42.3851360" lon="-7.0954090">
        <ele>295.8</ele>
        <time>2014-10-01T12:06:32Z</time>
      </trkpt>
      <trkpt lat="42.3850320" lon="-7.0955060">
        <ele>295.5</ele>
        <time>2014-10-01T12:06:33Z</time>
      </trkpt>
      <trkpt lat="42.3849310" lon="-7.0955960">
        <ele>295.3</ele>
        <time>2014-10-01T12:06:34Z</time>
      </trkpt>
      <trkpt lat="42.3848320" lon="-7.0956850">
        <ele>295.3</ele>
        <time>2014-10-01T12:06:35Z</time>
      </trkpt>
      <trkpt lat="42.3847450" lon="-7.0957620">
        <ele>295.3</ele>
        <time>2014-10-01T12:06:36Z</time>
      </trkpt>
      <trkpt lat="42.3846630" lon="-7.0958320">
        <ele>295.4</ele>
        <time>2014-10-01T12:06:37Z</time>
      </trkpt>
      <trkpt lat="42.3845760" lon="-7.0959090">
        <ele>295.6</ele>
        <time>2014-10-01T12:06:38Z</time>
      </trkpt>
      <trkpt lat="42.3844890" lon="-7.0959850">
        <ele>295.9</ele>
        <time>2014-10-01T12:06:39Z</time>
      </trkpt>
      <trkpt lat="42.3844040" lon="-7.0960610">
        <ele>296.1</ele>
        <time>2014-10-01T12:06:40Z</time>
      </trkpt>
      <trkpt lat="42.3843260" lon="-7.0961310">
        <ele>296.4</ele>
        <time>2014-10-01T12:06:41Z</time>
      </trkpt>
      <trkpt lat="42.3842430" lon="-7.0961970">
        <ele>296.8</ele>
        <time>2014-10-01T12:06:42Z</time>
      </trkpt>
      <trkpt lat="42.3841620" lon="-7.0962550">
        <ele>297.2</ele>
        <time>2014-10-01T12:06:43Z</time>
      </trkpt>
      <trkpt lat="42.3840800" lon="-7.0963100">
        <ele>297.5</ele>
        <time>2014-10-01T12:06:44Z</time>
      </trkpt>
      <trkpt lat="42.3840010" lon="-7.0963570">
        <ele>297.9</ele>
        <time>2014-10-01T12:06:45Z</time>
      </trkpt>
      <trkpt lat="42.3839230" lon="-7.0964000">
        <ele>298.2</ele>
        <time>2014-10-01T12:06:46Z</time>
      </trkpt>
      <trkpt lat="42.3838480" lon="-7.0964410">
        <ele>298.7</ele>
        <time>2014-10-01T12:06:47Z</time>
      </trkpt>
      <trkpt lat="42.3837750" lon="-7.0964780">
        <ele>299.1</ele>
        <time>2014-10-01T12:06:48Z</time>
      </trkpt>
      <trkpt lat="42.3837050" lon="-7.0965120">
        <ele>299.5</ele>
        <time>2014-10-01T12:06:49Z</time>
      </trkpt>
      <trkpt lat="42.3836380" lon="-7.0965440">
        <ele>300.0</ele>
        <time>2014-10-01T12:06:50Z</time>
      </trkpt>
      <trkpt lat="42.3835720" lon="-7.0965760">
        <ele>300.4</ele>
        <time>2014-10-01T12:06:51Z</time>
      </trkpt>
      <trkpt lat="42.3835070" lon="-7.0966070">
        <ele>300.8</ele>
        <time>2014-10-01T12:06:52Z</time>
      </trkpt>
      <trkpt lat="42.3834460" lon="-7.0966360">
        <ele>301.2</ele>
        <time>2014-10-01T12:06:53Z</time>
      </trkpt>
      <trkpt lat="42.3833860" lon="-7.0966690">
        <ele>301.6</ele>
        <time>2014-10-01T12:06:54Z</time>
      </trkpt>
      <trkpt lat="42.3833310" lon="-7.0967040">
        <ele>302.0</ele>
        <time>2014-10-01T12:06:55Z</time>
      </trkpt>
      <trkpt lat="42.3832760" lon="-7.0967470">
        <ele>302.4</ele>
        <time>2014-10-01T12:06:56Z</time>
      </trkpt>
      <trkpt lat="42.3832310" lon="-7.0968030">
        <ele>302.8</ele>
        <time>2014-10-01T12:06:57Z</time>
      </trkpt>
      <trkpt lat="42.3831900" lon="-7.0968600">
        <ele>303.2</ele>
        <time>2014-10-01T12:06:58Z</time>
      </trkpt>
      <trkpt lat="42.3831580" lon="-7.0969290">
        <ele>303.5</ele>
        <time>2014-10-01T12:06:59Z</time>
      </trkpt>
      <trkpt lat="42.3831310" lon="-7.0969950">
        <ele>303.7</ele>
        <time>2014-10-01T12:07:00Z</time>
      </trkpt>
      <trkpt lat="42.3831140" lon="-7.0970700">
        <ele>303.8</ele>
        <time>2014-10-01T12:07:01Z</time>
      </trkpt>
      <trkpt lat="42.3830980" lon="-7.0971460">
        <ele>304.1</ele>
        <time>2014-10-01T12:07:02Z</time>
      </trkpt>
      <trkpt lat="42.3830820" lon="-7.0972210">
        <ele>304.6</ele>
        <time>2014-10-01T12:07:03Z</time>
      </trkpt>
      <trkpt lat="42.3830660" lon="-7.0972970">
        <ele>305.0</ele>
        <time>2014-10-01T12:07:04Z</time>
      </trkpt>
      <trkpt lat="42.3830530" lon="-7.0973600">
        <ele>305.3</ele>
        <time>2014-10-01T12:07:05Z</time>
      </trkpt>
      <trkpt lat="42.3830400" lon="-7.0974230">
        <ele>305.6</ele>
        <time>2014-10-01T12:07:06Z</time>
      </trkpt>
      <trkpt lat="42.3830270" lon="-7.0974790">
        <ele>305.8</ele>
        <time>2014-10-01T12:07:07Z</time>
      </trkpt>
      <trkpt lat="42.3830150" lon="-7.0975310">
        <ele>305.9</ele>
        <time>2014-10-01T12:07:08Z</time>
      </trkpt>
      <trkpt lat="42.3830040" lon="-7.0975780">
        <ele>305.9</ele>
        <time>2014-10-01T12:07:09Z</time>
      </trkpt>
      <trkpt lat="42.3829910" lon="-7.0976340">
        <ele>306.1</ele>
        <time>2014-10-01T12:07:10Z</time>
      </trkpt>
      <trkpt lat="42.3829770" lon="-7.0976940">
        <ele>306.3</ele>
        <time>2014-10-01T12:07:11Z</time>
      </trkpt>
      <trkpt lat="42.3829610" lon="-7.0977550">
        <ele>306.5</ele>
        <time>2014-10-01T12:07:12Z</time>
      </trkpt>
      <trkpt lat="42.3829390" lon="-7.0978240">
        <ele>306.6</ele>
        <time>2014-10-01T12:07:13Z</time>
      </trkpt>
      <trkpt lat="42.3829180" lon="-7.0978840">
        <ele>306.5</ele>
        <time>2014-10-01T12:07:14Z</time>
      </trkpt>
      <trkpt lat="42.3828930" lon="-7.0979510">
        <ele>306.4</ele>
        <time>2014-10-01T12:07:15Z</time>
      </trkpt>
      <trkpt lat="42.3828660" lon="-7.0980190">
        <ele>306.3</ele>
        <time>2014-10-01T12:07:16Z</time>
      </trkpt>
      <trkpt lat="42.3828360" lon="-7.0980900">
        <ele>306.2</ele>
        <time>2014-10-01T12:07:17Z</time>
      </trkpt>
      <trkpt lat="42.3828050" lon="-7.0981620">
        <ele>306.0</ele>
        <time>2014-10-01T12:07:18Z</time>
      </trkpt>
      <trkpt lat="42.3827710" lon="-7.0982380">
        <ele>305.8</ele>
        <time>2014-10-01T12:07:19Z</time>
      </trkpt>
      <trkpt lat="42.3827340" lon="-7.0983210">
        <ele>305.6</ele>
        <time>2014-10-01T12:07:20Z</time>
      </trkpt>
      <trkpt lat="42.3826970" lon="-7.0984070">
        <ele>305.2</ele>
        <time>2014-10-01T12:07:21Z</time>
      </trkpt>
      <trkpt lat="42.3826600" lon="-7.0984970">
        <ele>304.8</ele>
        <time>2014-10-01T12:07:22Z</time>
      </trkpt>
      <trkpt lat="42.3826220" lon="-7.0985890">
        <ele>304.4</ele>
        <time>2014-10-01T12:07:23Z</time>
      </trkpt>
      <trkpt lat="42.3825830" lon="-7.0986830">
        <ele>304.0</ele>
        <time>2014-10-01T12:07:24Z</time>
      </trkpt>
      <trkpt lat="42.3825410" lon="-7.0987810">
        <ele>303.5</ele>
        <time>2014-10-01T12:07:25Z</time>
      </trkpt>
      <trkpt lat="42.3824970" lon="-7.0988800">
        <ele>303.0</ele>
        <time>2014-10-01T12:07:26Z</time>
      </trkpt>
      <trkpt lat="42.3824510" lon="-7.0989840">
        <ele>302.4</ele>
        <time>2014-10-01T12:07:27Z</time>
      </trkpt>
      <trkpt lat="42.3824040" lon="-7.0990920">
        <ele>301.7</ele>
        <time>2014-10-01T12:07:28Z</time>
      </trkpt>
      <trkpt lat="42.3823580" lon="-7.0992060">
        <ele>301.1</ele>
        <time>2014-10-01T12:07:29Z</time>
      </trkpt>
      <trkpt lat="42.3823110" lon="-7.0993220">
        <ele>300.4</ele>
        <time>2014-10-01T12:07:30Z</time>
      </trkpt>
      <trkpt lat="42.3822630" lon="-7.0994390">
        <ele>299.7</ele>
        <time>2014-10-01T12:07:31Z</time>
      </trkpt>
      <trkpt lat="42.3822150" lon="-7.0995590">
        <ele>299.0</ele>
        <time>2014-10-01T12:07:32Z</time>
      </trkpt>
      <trkpt lat="42.3821640" lon="-7.0996810">
        <ele>298.4</ele>
        <time>2014-10-01T12:07:33Z</time>
      </trkpt>
      <trkpt lat="42.3821130" lon="-7.0998050">
        <ele>297.9</ele>
        <time>2014-10-01T12:07:34Z</time>
      </trkpt>
      <trkpt lat="42.3820640" lon="-7.0999310">
        <ele>297.4</ele>
        <time>2014-10-01T12:07:35Z</time>
      </trkpt>
      <trkpt lat="42.3820110" lon="-7.1000560">
        <ele>297.1</ele>
        <time>2014-10-01T12:07:36Z</time>
      </trkpt>
      <trkpt lat="42.3819520" lon="-7.1001740">
        <ele>296.9</ele>
        <time>2014-10-01T12:07:37Z</time>
      </trkpt>
      <trkpt lat="42.3818680" lon="-7.1002720">
        <ele>296.8</ele>
        <time>2014-10-01T12:07:38Z</time>
      </trkpt>
      <trkpt lat="42.3817840" lon="-7.1003620">
        <ele>296.9</ele>
        <time>2014-10-01T12:07:39Z</time>
      </trkpt>
      <trkpt lat="42.3816970" lon="-7.1004390">
        <ele>297.0</ele>
        <time>2014-10-01T12:07:40Z</time>
      </trkpt>
      <trkpt lat="42.3816100" lon="-7.1005070">
        <ele>297.3</ele>
        <time>2014-10-01T12:07:41Z</time>
      </trkpt>
      <trkpt lat="42.3815250" lon="-7.1005710">
        <ele>297.7</ele>
        <time>2014-10-01T12:07:42Z</time>
      </trkpt>
      <trkpt lat="42.3814510" lon="-7.1006300">
        <ele>298.1</ele>
        <time>2014-10-01T12:07:43Z</time>
      </trkpt>
      <trkpt lat="42.3813820" lon="-7.1006940">
        <ele>298.4</ele>
        <time>2014-10-01T12:07:44Z</time>
      </trkpt>
      <trkpt lat="42.3813200" lon="-7.1007590">
        <ele>298.8</ele>
        <time>2014-10-01T12:07:45Z</time>
      </trkpt>
      <trkpt lat="42.3812650" lon="-7.1008240">
        <ele>299.2</ele>
        <time>2014-10-01T12:07:46Z</time>
      </trkpt>
      <trkpt lat="42.3812120" lon="-7.1008920">
        <ele>299.6</ele>
        <time>2014-10-01T12:07:47Z</time>
      </trkpt>
      <trkpt lat="42.3811640" lon="-7.1009610">
        <ele>300.0</ele>
        <time>2014-10-01T12:07:48Z</time>
      </trkpt>
      <trkpt lat="42.3811220" lon="-7.1010300">
        <ele>300.4</ele>
        <time>2014-10-01T12:07:49Z</time>
      </trkpt>
      <trkpt lat="42.3810830" lon="-7.1010990">
        <ele>300.8</ele>
        <time>2014-10-01T12:07:50Z</time>
      </trkpt>
      <trkpt lat="42.3810450" lon="-7.1011670">
        <ele>301.1</ele>
        <time>2014-10-01T12:07:51Z</time>
      </trkpt>
      <trkpt lat="42.3810090" lon="-7.1012350">
        <ele>301.4</ele>
        <time>2014-10-01T12:07:52Z</time>
      </trkpt>
      <trkpt lat="42.3809760" lon="-7.1012970">
        <ele>301.8</ele>
        <time>2014-10-01T12:07:53Z</time>
      </trkpt>
      <trkpt lat="42.3809390" lon="-7.1013660">
        <ele>302.1</ele>
        <time>2014-10-01T12:07:54Z</time>
      </trkpt>
      <trkpt lat="42.3809050" lon="-7.1014300">
        <ele>302.4</ele>
        <time>2014-10-01T12:07:55Z</time>
      </trkpt>
      <trkpt lat="42.3808710" lon="-7.1014840">
        <ele>302.6</ele>
        <time>2014-10-01T12:07:56Z</time>
      </trkpt>
      <trkpt lat="42.3808320" lon="-7.1015450">
        <ele>302.8</ele>
        <time>2014-10-01T12:07:57Z</time>
      </trkpt>
      <trkpt lat="42.3807900" lon="-7.1016060">
        <ele>302.8</ele>
        <time>2014-10-01T12:07:58Z</time>
      </trkpt>
      <trkpt lat="42.3807450" lon="-7.1016620">
        <ele>302.8</ele>
        <time>2014-10-01T12:07:59Z</time>
      </trkpt>
      <trkpt lat="42.3807000" lon="-7.1017110">
        <ele>302.8</ele>
        <time>2014-10-01T12:08:00Z</time>
      </trkpt>
      <trkpt lat="42.3806500" lon="-7.1017630">
        <ele>302.7</ele>
        <time>2014-10-01T12:08:01Z</time>
      </trkpt>
      <trkpt lat="42.3805930" lon="-7.1018210">
        <ele>302.5</ele>
        <time>2014-10-01T12:08:02Z</time>
      </trkpt>
      <trkpt lat="42.3805320" lon="-7.1018840">
        <ele>302.3</ele>
        <time>2014-10-01T12:08:03Z</time>
      </trkpt>
      <trkpt lat="42.3804720" lon="-7.1019520">
        <ele>302.1</ele>
        <time>2014-10-01T12:08:04Z</time>
      </trkpt>
      <trkpt lat="42.3804160" lon="-7.1020220">
        <ele>301.8</ele>
        <time>2014-10-01T12:08:05Z</time>
      </trkpt>
      <trkpt lat="42.3803590" lon="-7.1021000">
        <ele>301.6</ele>
        <time>2014-10-01T12:08:06Z</time>
      </trkpt>
      <trkpt lat="42.3803060" lon="-7.1021830">
        <ele>301.4</ele>
        <time>2014-10-01T12:08:07Z</time>
      </trkpt>
      <trkpt lat="42.3802680" lon="-7.1022800">
        <ele>301.3</ele>
        <time>2014-10-01T12:08:08Z</time>
      </trkpt>
      <trkpt lat="42.3802350" lon="-7.1023760">
        <ele>301.3</ele>
        <time>2014-10-01T12:08:09Z</time>
      </trkpt>
      <trkpt lat="42.3802080" lon="-7.1024770">
        <ele>301.2</ele>
        <time>2014-10-01T12:08:10Z</time>
      </trkpt>
      <trkpt lat="42.3802010" lon="-7.1025810">
        <ele>301.0</ele>
        <time>2014-10-01T12:08:11Z</time>
      </trkpt>
      <trkpt lat="42.3802010" lon="-7.1026830">
        <ele>300.6</ele>
        <time>2014-10-01T12:08:12Z</time>
      </trkpt>
      <trkpt lat="42.3802070" lon="-7.1027990">
        <ele>299.9</ele>
        <time>2014-10-01T12:08:13Z</time>
      </trkpt>
      <trkpt lat="42.3802340" lon="-7.1029240">
        <ele>299.2</ele>
        <time>2014-10-01T12:08:14Z</time>
      </trkpt>
      <trkpt lat="42.3802620" lon="-7.1030510">
        <ele>298.4</ele>
        <time>2014-10-01T12:08:15Z</time>
      </trkpt>
      <trkpt lat="42.3802900" lon="-7.1031780">
        <ele>297.8</ele>
        <time>2014-10-01T12:08:16Z</time>
      </trkpt>
      <trkpt lat="42.3803210" lon="-7.1033090">
        <ele>297.3</ele>
        <time>2014-10-01T12:08:17Z</time>
      </trkpt>
      <trkpt lat="42.3803500" lon="-7.1034260">
        <ele>297.0</ele>
        <time>2014-10-01T12:08:18Z</time>
      </trkpt>
      <trkpt lat="42.3803780" lon="-7.1035460">
        <ele>296.8</ele>
        <time>2014-10-01T12:08:19Z</time>
      </trkpt>
      <trkpt lat="42.3803990" lon="-7.1036640">
        <ele>296.7</ele>
        <time>2014-10-01T12:08:20Z</time>
      </trkpt>
      <trkpt lat="42.3803950" lon="-7.1037900">
        <ele>296.6</ele>
        <time>2014-10-01T12:08:21Z</time>
      </trkpt>
      <trkpt lat="42.3803850" lon="-7.1039130">
        <ele>296.5</ele>
        <time>2014-10-01T12:08:22Z</time>
      </trkpt>
      <trkpt lat="42.3803500" lon="-7.1040250">
        <ele>296.5</ele>
        <time>2014-10-01T12:08:23Z</time>
      </trkpt>
      <trkpt lat="42.3803110" lon="-7.1041460">
        <ele>296.5</ele>
        <time>2014-10-01T12:08:24Z</time>
      </trkpt>
      <trkpt lat="42.3802720" lon="-7.1042550">
        <ele>296.6</ele>
        <time>2014-10-01T12:08:25Z</time>
      </trkpt>
      <trkpt lat="42.3802330" lon="-7.1043700">
        <ele>296.8</ele>
        <time>2014-10-01T12:08:26Z</time>
      </trkpt>
      <trkpt lat="42.3801980" lon="-7.1044810">
        <ele>297.0</ele>
        <time>2014-10-01T12:08:27Z</time>
      </trkpt>
      <trkpt lat="42.3801680" lon="-7.1045880">
        <ele>297.1</ele>
        <time>2014-10-01T12:08:28Z</time>
      </trkpt>
      <trkpt lat="42.3801430" lon="-7.1046930">
        <ele>297.3</ele>
        <time>2014-10-01T12:08:29Z</time>
      </trkpt>
      <trkpt lat="42.3801240" lon="-7.1047960">
        <ele>297.6</ele>
        <time>2014-10-01T12:08:30Z</time>
      </trkpt>
      <trkpt lat="42.3801070" lon="-7.1048980">
        <ele>297.9</ele>
        <time>2014-10-01T12:08:31Z</time>
      </trkpt>
      <trkpt lat="42.3800930" lon="-7.1049980">
        <ele>298.2</ele>
        <time>2014-10-01T12:08:32Z</time>
      </trkpt>
      <trkpt lat="42.3800810" lon="-7.1050990">
        <ele>298.5</ele>
        <time>2014-10-01T12:08:33Z</time>
      </trkpt>
      <trkpt lat="42.3800740" lon="-7.1051890">
        <ele>298.8</ele>
        <time>2014-10-01T12:08:34Z</time>
      </trkpt>
      <trkpt lat="42.3800690" lon="-7.1052890">
        <ele>299.1</ele>
        <time>2014-10-01T12:08:35Z</time>
      </trkpt>
      <trkpt lat="42.3800690" lon="-7.1053800">
        <ele>299.3</ele>
        <time>2014-10-01T12:08:36Z</time>
      </trkpt>
      <trkpt lat="42.3800710" lon="-7.1054660">
        <ele>299.6</ele>
        <time>2014-10-01T12:08:37Z</time>
      </trkpt>
      <trkpt lat="42.3800780" lon="-7.1055680">
        <ele>299.9</ele>
        <time>2014-10-01T12:08:38Z</time>
      </trkpt>
      <trkpt lat="42.3800900" lon="-7.1056540">
        <ele>300.2</ele>
        <time>2014-10-01T12:08:39Z</time>
      </trkpt>
      <trkpt lat="42.3801040" lon="-7.1057390">
        <ele>300.6</ele>
        <time>2014-10-01T12:08:40Z</time>
      </trkpt>
      <trkpt lat="42.3801230" lon="-7.1058250">
        <ele>301.0</ele>
        <time>2014-10-01T12:08:41Z</time>
      </trkpt>
      <trkpt lat="42.3801460" lon="-7.1059090">
        <ele>301.3</ele>
        <time>2014-10-01T12:08:42Z</time>
      </trkpt>
      <trkpt lat="42.3801730" lon="-7.1059840">
        <ele>301.6</ele>
        <time>2014-10-01T12:08:43Z</time>
      </trkpt>
      <trkpt lat="42.3802160" lon="-7.1060540">
        <ele>301.8</ele>
        <time>2014-10-01T12:08:44Z</time>
      </trkpt>
      <trkpt lat="42.3802550" lon="-7.1061160">
        <ele>302.0</ele>
        <time>2014-10-01T12:08:45Z</time>
      </trkpt>
      <trkpt lat="42.3802940" lon="-7.1061700">
        <ele>302.1</ele>
        <time>2014-10-01T12:08:46Z</time>
      </trkpt>
      <trkpt lat="42.3803340" lon="-7.1062320">
        <ele>302.1</ele>
        <time>2014-10-01T12:08:47Z</time>
      </trkpt>
      <trkpt lat="42.3803740" lon="-7.1062930">
        <ele>302.1</ele>
        <time>2014-10-01T12:08:48Z</time>
      </trkpt>
      <trkpt lat="42.3804150" lon="-7.1063580">
        <ele>301.9</ele>
        <time>2014-10-01T12:08:49Z</time>
      </trkpt>
      <trkpt lat="42.3804600" lon="-7.1064300">
        <ele>301.8</ele>
        <time>2014-10-01T12:08:50Z</time>
      </trkpt>
      <trkpt lat="42.3805080" lon="-7.1065060">
        <ele>301.6</ele>
        <time>2014-10-01T12:08:51Z</time>
      </trkpt>
      <trkpt lat="42.3805590" lon="-7.1065840">
        <ele>301.3</ele>
        <time>2014-10-01T12:08:52Z</time>
      </trkpt>
      <trkpt lat="42.3806090" lon="-7.1066610">
        <ele>301.0</ele>
        <time>2014-10-01T12:08:53Z</time>
      </trkpt>
      <trkpt lat="42.3806620" lon="-7.1067430">
        <ele>300.7</ele>
        <time>2014-10-01T12:08:54Z</time>
      </trkpt>
      <trkpt lat="42.3807170" lon="-7.1068290">
        <ele>300.3</ele>
        <time>2014-10-01T12:08:55Z</time>
      </trkpt>
      <trkpt lat="42.3807650" lon="-7.1069120">
        <ele>300.0</ele>
        <time>2014-10-01T12:08:56Z</time>
      </trkpt>
      <trkpt lat="42.3808140" lon="-7.1070000">
        <ele>299.7</ele>
        <time>2014-10-01T12:08:57Z</time>
      </trkpt>
      <trkpt lat="42.3808600" lon="-7.1070890">
        <ele>299.3</ele>
        <time>2014-10-01T12:08:58Z</time>
      </trkpt>
      <trkpt lat="42.3809080" lon="-7.1071880">
        <ele>299.0</ele>
        <time>2014-10-01T12:08:59Z</time>
      </trkpt>
      <trkpt lat="42.3809510" lon="-7.1072880">
        <ele>298.4</ele>
        <time>2014-10-01T12:09:00Z</time>
      </trkpt>
      <trkpt lat="42.3809890" lon="-7.1073840">
        <ele>297.8</ele>
        <time>2014-10-01T12:09:01Z</time>
      </trkpt>
      <trkpt lat="42.3810260" lon="-7.1074830">
        <ele>297.7</ele>
        <time>2014-10-01T12:09:02Z</time>
      </trkpt>
      <trkpt lat="42.3810650" lon="-7.1075870">
        <ele>297.5</ele>
        <time>2014-10-01T12:09:03Z</time>
      </trkpt>
      <trkpt lat="42.3810980" lon="-7.1076910">
        <ele>297.3</ele>
        <time>2014-10-01T12:09:04Z</time>
      </trkpt>
      <trkpt lat="42.3811260" lon="-7.1078050">
        <ele>297.1</ele>
        <time>2014-10-01T12:09:05Z</time>
      </trkpt>
      <trkpt lat="42.3811350" lon="-7.1079350">
        <ele>296.9</ele>
        <time>2014-10-01T12:09:06Z</time>
      </trkpt>
      <trkpt lat="42.3811410" lon="-7.1080670">
        <ele>296.8</ele>
        <time>2014-10-01T12:09:07Z</time>
      </trkpt>
      <trkpt lat="42.3811150" lon="-7.1081970">
        <ele>296.7</ele>
        <time>2014-10-01T12:09:08Z</time>
      </trkpt>
      <trkpt lat="42.3810860" lon="-7.1083220">
        <ele>296.7</ele>
        <time>2014-10-01T12:09:09Z</time>
      </trkpt>
      <trkpt lat="42.3810560" lon="-7.1084350">
        <ele>296.8</ele>
        <time>2014-10-01T12:09:10Z</time>
      </trkpt>
      <trkpt lat="42.3810240" lon="-7.1085460">
        <ele>297.0</ele>
        <time>2014-10-01T12:09:11Z</time>
      </trkpt>
      <trkpt lat="42.3809920" lon="-7.1086540">
        <ele>297.3</ele>
        <time>2014-10-01T12:09:12Z</time>
      </trkpt>
      <trkpt lat="42.3809600" lon="-7.1087590">
        <ele>297.5</ele>
        <time>2014-10-01T12:09:13Z</time>
      </trkpt>
      <trkpt lat="42.3809290" lon="-7.1088640">
        <ele>297.8</ele>
        <time>2014-10-01T12:09:14Z</time>
      </trkpt>
      <trkpt lat="42.3808940" lon="-7.1089640">
        <ele>298.1</ele>
        <time>2014-10-01T12:09:15Z</time>
      </trkpt>
      <trkpt lat="42.3808600" lon="-7.1090580">
        <ele>298.5</ele>
        <time>2014-10-01T12:09:16Z</time>
      </trkpt>
      <trkpt lat="42.3808220" lon="-7.1091450">
        <ele>298.8</ele>
        <time>2014-10-01T12:09:17Z</time>
      </trkpt>
      <trkpt lat="42.3807850" lon="-7.1092270">
        <ele>299.2</ele>
        <time>2014-10-01T12:09:18Z</time>
      </trkpt>
      <trkpt lat="42.3807490" lon="-7.1093040">
        <ele>299.5</ele>
        <time>2014-10-01T12:09:19Z</time>
      </trkpt>
      <trkpt lat="42.3807150" lon="-7.1093790">
        <ele>299.8</ele>
        <time>2014-10-01T12:09:20Z</time>
      </trkpt>
      <trkpt lat="42.3806810" lon="-7.1094530">
        <ele>300.1</ele>
        <time>2014-10-01T12:09:21Z</time>
      </trkpt>
      <trkpt lat="42.3806460" lon="-7.1095320">
        <ele>300.4</ele>
        <time>2014-10-01T12:09:22Z</time>
      </trkpt>
      <trkpt lat="42.3806130" lon="-7.1096110">
        <ele>300.6</ele>
        <time>2014-10-01T12:09:23Z</time>
      </trkpt>
      <trkpt lat="42.3805860" lon="-7.1096820">
        <ele>300.8</ele>
        <time>2014-10-01T12:09:24Z</time>
      </trkpt>
      <trkpt lat="42.3805630" lon="-7.1097480">
        <ele>301.0</ele>
        <time>2014-10-01T12:09:25Z</time>
      </trkpt>
      <trkpt lat="42.3805410" lon="-7.1098150">
        <ele>301.2</ele>
        <time>2014-10-01T12:09:26Z</time>
      </trkpt>
      <trkpt lat="42.3805200" lon="-7.1098920">
        <ele>301.3</ele>
        <time>2014-10-01T12:09:27Z</time>
      </trkpt>
      <trkpt lat="42.3804980" lon="-7.1099720">
        <ele>301.5</ele>
        <time>2014-10-01T12:09:28Z</time>
      </trkpt>
      <trkpt lat="42.3804790" lon="-7.1100470">
        <ele>301.6</ele>
        <time>2014-10-01T12:09:29Z</time>
      </trkpt>
      <trkpt lat="42.3804600" lon="-7.1101290">
        <ele>301.7</ele>
        <time>2014-10-01T12:09:30Z</time>
      </trkpt>
      <trkpt lat="42.3804410" lon="-7.1102060">
        <ele>301.8</ele>
        <time>2014-10-01T12:09:31Z</time>
      </trkpt>
      <trkpt lat="42.3804210" lon="-7.1102900">
        <ele>301.8</ele>
        <time>2014-10-01T12:09:32Z</time>
      </trkpt>
      <trkpt lat="42.3804010" lon="-7.1103770">
        <ele>301.9</ele>
        <time>2014-10-01T12:09:33Z</time>
      </trkpt>
      <trkpt lat="42.3803780" lon="-7.1104640">
        <ele>302.0</ele>
        <time>2014-10-01T12:09:34Z</time>
      </trkpt>
      <trkpt lat="42.3803520" lon="-7.1105540">
        <ele>302.1</ele>
        <time>2014-10-01T12:09:35Z</time>
      </trkpt>
      <trkpt lat="42.3803260" lon="-7.1106390">
        <ele>302.2</ele>
        <time>2014-10-01T12:09:36Z</time>
      </trkpt>
      <trkpt lat="42.3802990" lon="-7.1107230">
        <ele>302.3</ele>
        <time>2014-10-01T12:09:37Z</time>
      </trkpt>
      <trkpt lat="42.3802730" lon="-7.1108050">
        <ele>302.4</ele>
        <time>2014-10-01T12:09:38Z</time>
      </trkpt>
      <trkpt lat="42.3802430" lon="-7.1108910">
        <ele>302.6</ele>
        <time>2014-10-01T12:09:39Z</time>
      </trkpt>
      <trkpt lat="42.3802140" lon="-7.1109740">
        <ele>303.0</ele>
        <time>2014-10-01T12:09:40Z</time>
      </trkpt>
      <trkpt lat="42.3801840" lon="-7.1110590">
        <ele>303.3</ele>
        <time>2014-10-01T12:09:41Z</time>
      </trkpt>
      <trkpt lat="42.3801570" lon="-7.1111380">
        <ele>303.6</ele>
        <time>2014-10-01T12:09:42Z</time>
      </trkpt>
      <trkpt lat="42.3801330" lon="-7.1112050">
        <ele>303.8</ele>
        <time>2014-10-01T12:09:43Z</time>
      </trkpt>
      <trkpt lat="42.3801100" lon="-7.1112740">
        <ele>304.0</ele>
        <time>2014-10-01T12:09:44Z</time>
      </trkpt>
      <trkpt lat="42.3800890" lon="-7.1113440">
        <ele>304.1</ele>
        <time>2014-10-01T12:09:45Z</time>
      </trkpt>
      <trkpt lat="42.3800680" lon="-7.1114150">
        <ele>304.3</ele>
        <time>2014-10-01T12:09:46Z</time>
      </trkpt>
      <trkpt lat="42.3800500" lon="-7.1114860">
        <ele>304.4</ele>
        <time>2014-10-01T12:09:47Z</time>
      </trkpt>
      <trkpt lat="42.3800350" lon="-7.1115610">
        <ele>304.5</ele>
        <time>2014-10-01T12:09:48Z</time>
      </trkpt>
      <trkpt lat="42.3800210" lon="-7.1116360">
        <ele>304.5</ele>
        <time>2014-10-01T12:09:49Z</time>
      </trkpt>
      <trkpt lat="42.3800080" lon="-7.1117090">
        <ele>304.6</ele>
        <time>2014-10-01T12:09:50Z</time>
      </trkpt>
      <trkpt lat="42.3799940" lon="-7.1117950">
        <ele>304.6</ele>
        <time>2014-10-01T12:09:51Z</time>
      </trkpt>
      <trkpt lat="42.3799790" lon="-7.1118860">
        <ele>304.5</ele>
        <time>2014-10-01T12:09:52Z</time>
      </trkpt>
      <trkpt lat="42.3799670" lon="-7.1119720">
        <ele>304.3</ele>
        <time>2014-10-01T12:09:53Z</time>
      </trkpt>
      <trkpt lat="42.3799530" lon="-7.1120630">
        <ele>304.2</ele>
        <time>2014-10-01T12:09:54Z</time>
      </trkpt>
      <trkpt lat="42.3799370" lon="-7.1121650">
        <ele>304.0</ele>
        <time>2014-10-01T12:09:55Z</time>
      </trkpt>
      <trkpt lat="42.3799210" lon="-7.1122640">
        <ele>303.8</ele>
        <time>2014-10-01T12:09:56Z</time>
      </trkpt>
      <trkpt lat="42.3799050" lon="-7.1123630">
        <ele>303.6</ele>
        <time>2014-10-01T12:09:57Z</time>
      </trkpt>
      <trkpt lat="42.3798920" lon="-7.1124600">
        <ele>303.4</ele>
        <time>2014-10-01T12:09:58Z</time>
      </trkpt>
      <trkpt lat="42.3798770" lon="-7.1125660">
        <ele>303.1</ele>
        <time>2014-10-01T12:09:59Z</time>
      </trkpt>
      <trkpt lat="42.3798660" lon="-7.1126690">
        <ele>302.9</ele>
        <time>2014-10-01T12:10:00Z</time>
      </trkpt>
      <trkpt lat="42.3798540" lon="-7.1127750">
        <ele>302.6</ele>
        <time>2014-10-01T12:10:01Z</time>
      </trkpt>
      <trkpt lat="42.3798430" lon="-7.1128790">
        <ele>302.4</ele>
        <time>2014-10-01T12:10:02Z</time>
      </trkpt>
      <trkpt lat="42.3798330" lon="-7.1129910">
        <ele>302.1</ele>
        <time>2014-10-01T12:10:03Z</time>
      </trkpt>
      <trkpt lat="42.3798230" lon="-7.1131040">
        <ele>301.8</ele>
        <time>2014-10-01T12:10:04Z</time>
      </trkpt>
      <trkpt lat="42.3798160" lon="-7.1132170">
        <ele>301.5</ele>
        <time>2014-10-01T12:10:05Z</time>
      </trkpt>
      <trkpt lat="42.3798080" lon="-7.1133340">
        <ele>301.3</ele>
        <time>2014-10-01T12:10:06Z</time>
      </trkpt>
      <trkpt lat="42.3798000" lon="-7.1134470">
        <ele>301.1</ele>
        <time>2014-10-01T12:10:07Z</time>
      </trkpt>
      <trkpt lat="42.3797900" lon="-7.1135590">
        <ele>300.9</ele>
        <time>2014-10-01T12:10:08Z</time>
      </trkpt>
      <trkpt lat="42.3797760" lon="-7.1136700">
        <ele>300.7</ele>
        <time>2014-10-01T12:10:09Z</time>
      </trkpt>
      <trkpt lat="42.3797580" lon="-7.1137820">
        <ele>300.6</ele>
        <time>2014-10-01T12:10:10Z</time>
      </trkpt>
      <trkpt lat="42.3797380" lon="-7.1138910">
        <ele>300.5</ele>
        <time>2014-10-01T12:10:11Z</time>
      </trkpt>
      <trkpt lat="42.3797180" lon="-7.1140000">
        <ele>300.4</ele>
        <time>2014-10-01T12:10:12Z</time>
      </trkpt>
      <trkpt lat="42.3796960" lon="-7.1141120">
        <ele>300.2</ele>
        <time>2014-10-01T12:10:13Z</time>
      </trkpt>
      <trkpt lat="42.3796790" lon="-7.1142240">
        <ele>300.1</ele>
        <time>2014-10-01T12:10:14Z</time>
      </trkpt>
      <trkpt lat="42.3796690" lon="-7.1143410">
        <ele>300.0</ele>
        <time>2014-10-01T12:10:15Z</time>
      </trkpt>
      <trkpt lat="42.3796920" lon="-7.1144550">
        <ele>299.9</ele>
        <time>2014-10-01T12:10:16Z</time>
      </trkpt>
      <trkpt lat="42.3797170" lon="-7.1145650">
        <ele>299.7</ele>
        <time>2014-10-01T12:10:17Z</time>
      </trkpt>
      <trkpt lat="42.3797430" lon="-7.1146700">
        <ele>299.6</ele>
        <time>2014-10-01T12:10:18Z</time>
      </trkpt>
      <trkpt lat="42.3797740" lon="-7.1147750">
        <ele>299.9</ele>
        <time>2014-10-01T12:10:19Z</time>
      </trkpt>
      <trkpt lat="42.3798080" lon="-7.1148750">
        <ele>300.4</ele>
        <time>2014-10-01T12:10:20Z</time>
      </trkpt>
      <trkpt lat="42.3798430" lon="-7.1149740">
        <ele>300.8</ele>
        <time>2014-10-01T12:10:21Z</time>
      </trkpt>
      <trkpt lat="42.3798740" lon="-7.1150650">
        <ele>301.2</ele>
        <time>2014-10-01T12:10:22Z</time>
      </trkpt>
      <trkpt lat="42.3799020" lon="-7.1151490">
        <ele>301.7</ele>
        <time>2014-10-01T12:10:23Z</time>
      </trkpt>
      <trkpt lat="42.3799270" lon="-7.1152290">
        <ele>302.1</ele>
        <time>2014-10-01T12:10:24Z</time>
      </trkpt>
      <trkpt lat="42.3799540" lon="-7.1153090">
        <ele>302.5</ele>
        <time>2014-10-01T12:10:25Z</time>
      </trkpt>
      <trkpt lat="42.3799810" lon="-7.1153850">
        <ele>302.8</ele>
        <time>2014-10-01T12:10:26Z</time>
      </trkpt>
      <trkpt lat="42.3800080" lon="-7.1154600">
        <ele>303.2</ele>
        <time>2014-10-01T12:10:27Z</time>
      </trkpt>
      <trkpt lat="42.3800320" lon="-7.1155320">
        <ele>303.5</ele>
        <time>2014-10-01T12:10:28Z</time>
      </trkpt>
      <trkpt lat="42.3800550" lon="-7.1156060">
        <ele>303.9</ele>
        <time>2014-10-01T12:10:29Z</time>
      </trkpt>
      <trkpt lat="42.3800750" lon="-7.1156730">
        <ele>304.2</ele>
        <time>2014-10-01T12:10:30Z</time>
      </trkpt>
      <trkpt lat="42.3800960" lon="-7.1157420">
        <ele>304.5</ele>
        <time>2014-10-01T12:10:31Z</time>
      </trkpt>
      <trkpt lat="42.3801170" lon="-7.1158080">
        <ele>304.8</ele>
        <time>2014-10-01T12:10:32Z</time>
      </trkpt>
      <trkpt lat="42.3801380" lon="-7.1158730">
        <ele>305.0</ele>
        <time>2014-10-01T12:10:33Z</time>
      </trkpt>
      <trkpt lat="42.3801590" lon="-7.1159330">
        <ele>305.2</ele>
        <time>2014-10-01T12:10:34Z</time>
      </trkpt>
      <trkpt lat="42.3801780" lon="-7.1160010">
        <ele>305.3</ele>
        <time>2014-10-01T12:10:35Z</time>
      </trkpt>
      <trkpt lat="42.3801960" lon="-7.1160750">
        <ele>305.4</ele>
        <time>2014-10-01T12:10:36Z</time>
      </trkpt>
      <trkpt lat="42.3802130" lon="-7.1161560">
        <ele>305.4</ele>
        <time>2014-10-01T12:10:37Z</time>
      </trkpt>
      <trkpt lat="42.3802290" lon="-7.1162360">
        <ele>305.3</ele>
        <time>2014-10-01T12:10:38Z</time>
      </trkpt>
      <trkpt lat="42.3802420" lon="-7.1163190">
        <ele>305.1</ele>
        <time>2014-10-01T12:10:39Z</time>
      </trkpt>
      <trkpt lat="42.3802540" lon="-7.1164100">
        <ele>305.0</ele>
        <time>2014-10-01T12:10:40Z</time>
      </trkpt>
      <trkpt lat="42.3802630" lon="-7.1164990">
        <ele>304.9</ele>
        <time>2014-10-01T12:10:41Z</time>
      </trkpt>
      <trkpt lat="42.3802720" lon="-7.1165910">
        <ele>304.8</ele>
        <time>2014-10-01T12:10:42Z</time>
      </trkpt>
      <trkpt lat="42.3802790" lon="-7.1166900">
        <ele>304.7</ele>
        <time>2014-10-01T12:10:43Z</time>
      </trkpt>
      <trkpt lat="42.3802890" lon="-7.1167900">
        <ele>304.6</ele>
        <time>2014-10-01T12:10:44Z</time>
      </trkpt>
      <trkpt lat="42.3802990" lon="-7.1168910">
        <ele>304.5</ele>
        <time>2014-10-01T12:10:45Z</time>
      </trkpt>
      <trkpt lat="42.3803110" lon="-7.1169890">
        <ele>304.4</ele>
        <time>2014-10-01T12:10:46Z</time>
      </trkpt>
      <trkpt lat="42.3803220" lon="-7.1170840">
        <ele>304.3</ele>
        <time>2014-10-01T12:10:47Z</time>
      </trkpt>
      <trkpt lat="42.3803320" lon="-7.1171810">
        <ele>304.1</ele>
        <time>2014-10-01T12:10:48Z</time>
      </trkpt>
      <trkpt lat="42.3803410" lon="-7.1172820">
        <ele>304.0</ele>
        <time>2014-10-01T12:10:49Z</time>
      </trkpt>
      <trkpt lat="42.3803450" lon="-7.1173770">
        <ele>303.8</ele>
        <time>2014-10-01T12:10:50Z</time>
      </trkpt>
      <trkpt lat="42.3803460" lon="-7.1174860">
        <ele>303.6</ele>
        <time>2014-10-01T12:10:51Z</time>
      </trkpt>
      <trkpt lat="42.3803420" lon="-7.1176010">
        <ele>303.3</ele>
        <time>2014-10-01T12:10:52Z</time>
      </trkpt>
      <trkpt lat="42.3803340" lon="-7.1177180">
        <ele>303.0</ele>
        <time>2014-10-01T12:10:53Z</time>
      </trkpt>
      <trkpt lat="42.3803200" lon="-7.1178390">
        <ele>302.7</ele>
        <time>2014-10-01T12:10:54Z</time>
      </trkpt>
      <trkpt lat="42.3803070" lon="-7.1179560">
        <ele>302.4</ele>
        <time>2014-10-01T12:10:55Z</time>
      </trkpt>
      <trkpt lat="42.3802940" lon="-7.1180770">
        <ele>302.2</ele>
        <time>2014-10-01T12:10:56Z</time>
      </trkpt>
      <trkpt lat="42.3802830" lon="-7.1181990">
        <ele>302.0</ele>
        <time>2014-10-01T12:10:57Z</time>
      </trkpt>
      <trkpt lat="42.3802770" lon="-7.1183170">
        <ele>301.9</ele>
        <time>2014-10-01T12:10:58Z</time>
      </trkpt>
      <trkpt lat="42.3802750" lon="-7.1184360">
        <ele>301.9</ele>
        <time>2014-10-01T12:10:59Z</time>
      </trkpt>
      <trkpt lat="42.3802770" lon="-7.1185510">
        <ele>301.8</ele>
        <time>2014-10-01T12:11:00Z</time>
      </trkpt>
      <trkpt lat="42.3802810" lon="-7.1186660">
        <ele>301.9</ele>
        <time>2014-10-01T12:11:01Z</time>
      </trkpt>
      <trkpt lat="42.3802840" lon="-7.1187720">
        <ele>302.4</ele>
        <time>2014-10-01T12:11:02Z</time>
      </trkpt>
      <trkpt lat="42.3802880" lon="-7.1188760">
        <ele>302.6</ele>
        <time>2014-10-01T12:11:03Z</time>
      </trkpt>
      <trkpt lat="42.3802930" lon="-7.1189760">
        <ele>302.8</ele>
        <time>2014-10-01T12:11:04Z</time>
      </trkpt>
      <trkpt lat="42.3802990" lon="-7.1190760">
        <ele>302.9</ele>
        <time>2014-10-01T12:11:05Z</time>
      </trkpt>
      <trkpt lat="42.3803070" lon="-7.1191780">
        <ele>303.1</ele>
        <time>2014-10-01T12:11:06Z</time>
      </trkpt>
      <trkpt lat="42.3803170" lon="-7.1192780">
        <ele>303.3</ele>
        <time>2014-10-01T12:11:07Z</time>
      </trkpt>
      <trkpt lat="42.3803290" lon="-7.1193730">
        <ele>303.5</ele>
        <time>2014-10-01T12:11:08Z</time>
      </trkpt>
      <trkpt lat="42.3803580" lon="-7.1194650">
        <ele>303.8</ele>
        <time>2014-10-01T12:11:09Z</time>
      </trkpt>
      <trkpt lat="42.3803850" lon="-7.1195460">
        <ele>304.1</ele>
        <time>2014-10-01T12:11:10Z</time>
      </trkpt>
      <trkpt lat="42.3804250" lon="-7.1196140">
        <ele>304.3</ele>
        <time>2014-10-01T12:11:11Z</time>
      </trkpt>
      <trkpt lat="42.3804670" lon="-7.1196790">
        <ele>304.6</ele>
        <time>2014-10-01T12:11:12Z</time>
      </trkpt>
      <trkpt lat="42.3805100" lon="-7.1197390">
        <ele>304.9</ele>
        <time>2014-10-01T12:11:13Z</time>
      </trkpt>
      <trkpt lat="42.3805540" lon="-7.1197990">
        <ele>305.1</ele>
        <time>2014-10-01T12:11:14Z</time>
      </trkpt>
      <trkpt lat="42.3805950" lon="-7.1198630">
        <ele>305.3</ele>
        <time>2014-10-01T12:11:15Z</time>
      </trkpt>
      <trkpt lat="42.3806210" lon="-7.1199390">
        <ele>305.5</ele>
        <time>2014-10-01T12:11:16Z</time>
      </trkpt>
      <trkpt lat="42.3806450" lon="-7.1200150">
        <ele>305.5</ele>
        <time>2014-10-01T12:11:17Z</time>
      </trkpt>
      <trkpt lat="42.3806660" lon="-7.1200850">
        <ele>305.6</ele>
        <time>2014-10-01T12:11:18Z</time>
      </trkpt>
      <trkpt lat="42.3806850" lon="-7.1201650">
        <ele>305.6</ele>
        <time>2014-10-01T12:11:19Z</time>
      </trkpt>
      <trkpt lat="42.3807030" lon="-7.1202510">
        <ele>305.6</ele>
        <time>2014-10-01T12:11:20Z</time>
      </trkpt>
      <trkpt lat="42.3807170" lon="-7.1203400">
        <ele>305.6</ele>
        <time>2014-10-01T12:11:21Z</time>
      </trkpt>
      <trkpt lat="42.3807290" lon="-7.1204280">
        <ele>305.6</ele>
        <time>2014-10-01T12:11:22Z</time>
      </trkpt>
      <trkpt lat="42.3807380" lon="-7.1205140">
        <ele>305.7</ele>
        <time>2014-10-01T12:11:23Z</time>
      </trkpt>
      <trkpt lat="42.3807470" lon="-7.1206050">
        <ele>305.7</ele>
        <time>2014-10-01T12:11:24Z</time>
      </trkpt>
      <trkpt lat="42.3807560" lon="-7.1206940">
        <ele>305.7</ele>
        <time>2014-10-01T12:11:25Z</time>
      </trkpt>
      <trkpt lat="42.3807630" lon="-7.1207860">
        <ele>305.8</ele>
        <time>2014-10-01T12:11:26Z</time>
      </trkpt>
      <trkpt lat="42.3807700" lon="-7.1208760">
        <ele>305.8</ele>
        <time>2014-10-01T12:11:27Z</time>
      </trkpt>
      <trkpt lat="42.3807760" lon="-7.1209640">
        <ele>305.8</ele>
        <time>2014-10-01T12:11:28Z</time>
      </trkpt>
      <trkpt lat="42.3807830" lon="-7.1210510">
        <ele>305.8</ele>
        <time>2014-10-01T12:11:29Z</time>
      </trkpt>
      <trkpt lat="42.3807900" lon="-7.1211380">
        <ele>305.8</ele>
        <time>2014-10-01T12:11:30Z</time>
      </trkpt>
      <trkpt lat="42.3807990" lon="-7.1212240">
        <ele>305.8</ele>
        <time>2014-10-01T12:11:31Z</time>
      </trkpt>
      <trkpt lat="42.3808090" lon="-7.1213130">
        <ele>305.9</ele>
        <time>2014-10-01T12:11:32Z</time>
      </trkpt>
      <trkpt lat="42.3808140" lon="-7.1214040">
        <ele>306.0</ele>
        <time>2014-10-01T12:11:33Z</time>
      </trkpt>
      <trkpt lat="42.3808130" lon="-7.1214960">
        <ele>306.1</ele>
        <time>2014-10-01T12:11:34Z</time>
      </trkpt>
      <trkpt lat="42.3807920" lon="-7.1215850">
        <ele>306.3</ele>
        <time>2014-10-01T12:11:35Z</time>
      </trkpt>
      <trkpt lat="42.3807680" lon="-7.1216660">
        <ele>306.4</ele>
        <time>2014-10-01T12:11:36Z</time>
      </trkpt>
      <trkpt lat="42.3807410" lon="-7.1217360">
        <ele>306.5</ele>
        <time>2014-10-01T12:11:37Z</time>
      </trkpt>
      <trkpt lat="42.3807110" lon="-7.1218010">
        <ele>306.5</ele>
        <time>2014-10-01T12:11:38Z</time>
      </trkpt>
      <trkpt lat="42.3806750" lon="-7.1218680">
        <ele>306.9</ele>
        <time>2014-10-01T12:11:39Z</time>
      </trkpt>
      <trkpt lat="42.3806350" lon="-7.1219380">
        <ele>307.3</ele>
        <time>2014-10-01T12:11:40Z</time>
      </trkpt>
      <trkpt lat="42.3805950" lon="-7.1220060">
        <ele>307.6</ele>
        <time>2014-10-01T12:11:41Z</time>
      </trkpt>
      <trkpt lat="42.3805580" lon="-7.1220720">
        <ele>308.0</ele>
        <time>2014-10-01T12:11:42Z</time>
      </trkpt>
      <trkpt lat="42.3805230" lon="-7.1221420">
        <ele>308.3</ele>
        <time>2014-10-01T12:11:43Z</time>
      </trkpt>
      <trkpt lat="42.3804920" lon="-7.1222150">
        <ele>308.7</ele>
        <time>2014-10-01T12:11:44Z</time>
      </trkpt>
      <trkpt lat="42.3804690" lon="-7.1222830">
        <ele>309.0</ele>
        <time>2014-10-01T12:11:45Z</time>
      </trkpt>
      <trkpt lat="42.3804480" lon="-7.1223540">
        <ele>309.4</ele>
        <time>2014-10-01T12:11:46Z</time>
      </trkpt>
      <trkpt lat="42.3804400" lon="-7.1224270">
        <ele>309.7</ele>
        <time>2014-10-01T12:11:47Z</time>
      </trkpt>
      <trkpt lat="42.3804330" lon="-7.1224970">
        <ele>310.0</ele>
        <time>2014-10-01T12:11:48Z</time>
      </trkpt>
      <trkpt lat="42.3804280" lon="-7.1225660">
        <ele>310.3</ele>
        <time>2014-10-01T12:11:49Z</time>
      </trkpt>
      <trkpt lat="42.3804240" lon="-7.1226400">
        <ele>310.5</ele>
        <time>2014-10-01T12:11:50Z</time>
      </trkpt>
      <trkpt lat="42.3804240" lon="-7.1227150">
        <ele>310.8</ele>
        <time>2014-10-01T12:11:51Z</time>
      </trkpt>
      <trkpt lat="42.3804270" lon="-7.1227910">
        <ele>311.0</ele>
        <time>2014-10-01T12:11:52Z</time>
      </trkpt>
      <trkpt lat="42.3804330" lon="-7.1228620">
        <ele>311.1</ele>
        <time>2014-10-01T12:11:53Z</time>
      </trkpt>
      <trkpt lat="42.3804400" lon="-7.1229240">
        <ele>311.4</ele>
        <time>2014-10-01T12:11:54Z</time>
      </trkpt>
      <trkpt lat="42.3804510" lon="-7.1229870">
        <ele>311.7</ele>
        <time>2014-10-01T12:11:55Z</time>
      </trkpt>
      <trkpt lat="42.3804620" lon="-7.1230460">
        <ele>312.0</ele>
        <time>2014-10-01T12:11:56Z</time>
      </trkpt>
      <trkpt lat="42.3804730" lon="-7.1231070">
        <ele>312.3</ele>
        <time>2014-10-01T12:11:57Z</time>
      </trkpt>
      <trkpt lat="42.3804880" lon="-7.1231800">
        <ele>312.6</ele>
        <time>2014-10-01T12:11:58Z</time>
      </trkpt>
      <trkpt lat="42.3805020" lon="-7.1232400">
        <ele>312.9</ele>
        <time>2014-10-01T12:11:59Z</time>
      </trkpt>
      <trkpt lat="42.3805180" lon="-7.1232990">
        <ele>313.1</ele>
        <time>2014-10-01T12:12:00Z</time>
      </trkpt>
      <trkpt lat="42.3805330" lon="-7.1233580">
        <ele>313.3</ele>
        <time>2014-10-01T12:12:01Z</time>
      </trkpt>
      <trkpt lat="42.3805480" lon="-7.1234200">
        <ele>313.5</ele>
        <time>2014-10-01T12:12:02Z</time>
      </trkpt>
      <trkpt lat="42.3805640" lon="-7.1234870">
        <ele>313.8</ele>
        <time>2014-10-01T12:12:03Z</time>
      </trkpt>
      <trkpt lat="42.3805760" lon="-7.1235440">
        <ele>314.0</ele>
        <time>2014-10-01T12:12:04Z</time>
      </trkpt>
      <trkpt lat="42.3805880" lon="-7.1236000">
        <ele>314.2</ele>
        <time>2014-10-01T12:12:05Z</time>
      </trkpt>
      <trkpt lat="42.3805990" lon="-7.1236570">
        <ele>314.4</ele>
        <time>2014-10-01T12:12:06Z</time>
      </trkpt>
      <trkpt lat="42.3806090" lon="-7.1237160">
        <ele>314.6</ele>
        <time>2014-10-01T12:12:07Z</time>
      </trkpt>
      <trkpt lat="42.3806150" lon="-7.1237760">
        <ele>314.8</ele>
        <time>2014-10-01T12:12:08Z</time>
      </trkpt>
      <trkpt lat="42.3806200" lon="-7.1238420">
        <ele>314.9</ele>
        <time>2014-10-01T12:12:09Z</time>
      </trkpt>
      <trkpt lat="42.3806250" lon="-7.1239140">
        <ele>315.1</ele>
        <time>2014-10-01T12:12:10Z</time>
      </trkpt>
      <trkpt lat="42.3806290" lon="-7.1239780">
        <ele>315.3</ele>
        <time>2014-10-01T12:12:11Z</time>
      </trkpt>
      <trkpt lat="42.3806330" lon="-7.1240500">
        <ele>315.4</ele>
        <time>2014-10-01T12:12:12Z</time>
      </trkpt>
      <trkpt lat="42.3806360" lon="-7.1241090">
        <ele>315.6</ele>
        <time>2014-10-01T12:12:13Z</time>
      </trkpt>
      <trkpt lat="42.3806420" lon="-7.1241760">
        <ele>315.7</ele>
        <time>2014-10-01T12:12:14Z</time>
      </trkpt>
      <trkpt lat="42.3806520" lon="-7.1242420">
        <ele>315.8</ele>
        <time>2014-10-01T12:12:15Z</time>
      </trkpt>
      <trkpt lat="42.3806640" lon="-7.1243070">
        <ele>315.9</ele>
        <time>2014-10-01T12:12:16Z</time>
      </trkpt>
      <trkpt lat="42.3806780" lon="-7.1243650">
        <ele>316.0</ele>
        <time>2014-10-01T12:12:17Z</time>
      </trkpt>
      <trkpt lat="42.3806980" lon="-7.1244310">
        <ele>316.0</ele>
        <time>2014-10-01T12:12:18Z</time>
      </trkpt>
      <trkpt lat="42.3807200" lon="-7.1244960">
        <ele>316.1</ele>
        <time>2014-10-01T12:12:19Z</time>
      </trkpt>
      <trkpt lat="42.3807430" lon="-7.1245610">
        <ele>316.1</ele>
        <time>2014-10-01T12:12:20Z</time>
      </trkpt>
      <trkpt lat="42.3807690" lon="-7.1246220">
        <ele>316.1</ele>
        <time>2014-10-01T12:12:21Z</time>
      </trkpt>
      <trkpt lat="42.3807980" lon="-7.1246900">
        <ele>316.1</ele>
        <time>2014-10-01T12:12:22Z</time>
      </trkpt>
      <trkpt lat="42.3808280" lon="-7.1247640">
        <ele>316.0</ele>
        <time>2014-10-01T12:12:23Z</time>
      </trkpt>
      <trkpt lat="42.3808590" lon="-7.1248390">
        <ele>316.0</ele>
        <time>2014-10-01T12:12:24Z</time>
      </trkpt>
      <trkpt lat="42.3808920" lon="-7.1249090">
        <ele>315.8</ele>
        <time>2014-10-01T12:12:25Z</time>
      </trkpt>
      <trkpt lat="42.3809260" lon="-7.1249770">
        <ele>315.3</ele>
        <time>2014-10-01T12:12:26Z</time>
      </trkpt>
      <trkpt lat="42.3809650" lon="-7.1250440">
        <ele>314.8</ele>
        <time>2014-10-01T12:12:27Z</time>
      </trkpt>
      <trkpt lat="42.3810110" lon="-7.1251170">
        <ele>314.3</ele>
        <time>2014-10-01T12:12:28Z</time>
      </trkpt>
      <trkpt lat="42.3810590" lon="-7.1251870">
        <ele>313.7</ele>
        <time>2014-10-01T12:12:29Z</time>
      </trkpt>
      <trkpt lat="42.3811130" lon="-7.1252630">
        <ele>313.1</ele>
        <time>2014-10-01T12:12:30Z</time>
      </trkpt>
      <trkpt lat="42.3811710" lon="-7.1253450">
        <ele>312.4</ele>
        <time>2014-10-01T12:12:31Z</time>
      </trkpt>
      <trkpt lat="42.3812270" lon="-7.1254270">
        <ele>311.7</ele>
        <time>2014-10-01T12:12:32Z</time>
      </trkpt>
      <trkpt lat="42.3812860" lon="-7.1255140">
        <ele>311.0</ele>
        <time>2014-10-01T12:12:33Z</time>
      </trkpt>
      <trkpt lat="42.3813490" lon="-7.1256110">
        <ele>310.2</ele>
        <time>2014-10-01T12:12:34Z</time>
      </trkpt>
      <trkpt lat="42.3814100" lon="-7.1257110">
        <ele>309.3</ele>
        <time>2014-10-01T12:12:35Z</time>
      </trkpt>
      <trkpt lat="42.3814750" lon="-7.1258180">
        <ele>308.4</ele>
        <time>2014-10-01T12:12:36Z</time>
      </trkpt>
      <trkpt lat="42.3815390" lon="-7.1259150">
        <ele>307.5</ele>
        <time>2014-10-01T12:12:37Z</time>
      </trkpt>
      <trkpt lat="42.3816190" lon="-7.1259800">
        <ele>306.5</ele>
        <time>2014-10-01T12:12:38Z</time>
      </trkpt>
      <trkpt lat="42.3817180" lon="-7.1260230">
        <ele>305.7</ele>
        <time>2014-10-01T12:12:39Z</time>
      </trkpt>
      <trkpt lat="42.3818140" lon="-7.1260670">
        <ele>304.9</ele>
        <time>2014-10-01T12:12:40Z</time>
      </trkpt>
      <trkpt lat="42.3819070" lon="-7.1261070">
        <ele>304.2</ele>
        <time>2014-10-01T12:12:41Z</time>
      </trkpt>
      <trkpt lat="42.3820050" lon="-7.1261510">
        <ele>303.8</ele>
        <time>2014-10-01T12:12:42Z</time>
      </trkpt>
      <trkpt lat="42.3820730" lon="-7.1262040">
        <ele>303.9</ele>
        <time>2014-10-01T12:12:43Z</time>
      </trkpt>
      <trkpt lat="42.3821300" lon="-7.1262520">
        <ele>303.9</ele>
        <time>2014-10-01T12:12:44Z</time>
      </trkpt>
      <trkpt lat="42.3821850" lon="-7.1262920">
        <ele>303.8</ele>
        <time>2014-10-01T12:12:45Z</time>
      </trkpt>
      <trkpt lat="42.3822440" lon="-7.1262750">
        <ele>303.5</ele>
        <time>2014-10-01T12:12:46Z</time>
      </trkpt>
      <trkpt lat="42.3823060" lon="-7.1262510">
        <ele>303.2</ele>
        <time>2014-10-01T12:12:47Z</time>
      </trkpt>
      <trkpt lat="42.3823740" lon="-7.1262170">
        <ele>302.9</ele>
        <time>2014-10-01T12:12:48Z</time>
      </trkpt>
      <trkpt lat="42.3824510" lon="-7.1261830">
        <ele>302.6</ele>
        <time>2014-10-01T12:12:49Z</time>
      </trkpt>
      <trkpt lat="42.3825340" lon="-7.1261810">
        <ele>302.6</ele>
        <time>2014-10-01T12:12:50Z</time>
      </trkpt>
      <trkpt lat="42.3826110" lon="-7.1261870">
        <ele>302.5</ele>
        <time>2014-10-01T12:12:51Z</time>
      </trkpt>
      <trkpt lat="42.3826730" lon="-7.1262160">
        <ele>302.5</ele>
        <time>2014-10-01T12:12:52Z</time>
      </trkpt>
      <trkpt lat="42.3827260" lon="-7.1262440">
        <ele>302.4</ele>
        <time>2014-10-01T12:12:53Z</time>
      </trkpt>
      <trkpt lat="42.3827790" lon="-7.1262750">
        <ele>302.4</ele>
        <time>2014-10-01T12:12:54Z</time>
      </trkpt>
      <trkpt lat="42.3828470" lon="-7.1263130">
        <ele>302.4</ele>
        <time>2014-10-01T12:12:55Z</time>
      </trkpt>
      <trkpt lat="42.3828930" lon="-7.1263560">
        <ele>302.3</ele>
        <time>2014-10-01T12:12:56Z</time>
      </trkpt>
      <trkpt lat="42.3829540" lon="-7.1264070">
        <ele>302.3</ele>
        <time>2014-10-01T12:12:57Z</time>
      </trkpt>
      <trkpt lat="42.3830170" lon="-7.1264630">
        <ele>302.3</ele>
        <time>2014-10-01T12:12:58Z</time>
      </trkpt>
      <trkpt lat="42.3830730" lon="-7.1265130">
        <ele>302.3</ele>
        <time>2014-10-01T12:12:59Z</time>
      </trkpt>
      <trkpt lat="42.3831350" lon="-7.1265610">
        <ele>302.3</ele>
        <time>2014-10-01T12:13:00Z</time>
      </trkpt>
      <trkpt lat="42.3832020" lon="-7.1265910">
        <ele>302.3</ele>
        <time>2014-10-01T12:13:01Z</time>
      </trkpt>
      <trkpt lat="42.3832600" lon="-7.1266210">
        <ele>302.4</ele>
        <time>2014-10-01T12:13:02Z</time>
      </trkpt>
      <trkpt lat="42.3833220" lon="-7.1266490">
        <ele>302.5</ele>
        <time>2014-10-01T12:13:03Z</time>
      </trkpt>
      <trkpt lat="42.3833800" lon="-7.1266750">
        <ele>302.5</ele>
        <time>2014-10-01T12:13:04Z</time>
      </trkpt>
      <trkpt lat="42.3834430" lon="-7.1266990">
        <ele>302.6</ele>
        <time>2014-10-01T12:13:05Z</time>
      </trkpt>
      <trkpt lat="42.3835120" lon="-7.1267210">
        <ele>302.7</ele>
        <time>2014-10-01T12:13:06Z</time>
      </trkpt>
      <trkpt lat="42.3835760" lon="-7.1267350">
        <ele>302.8</ele>
        <time>2014-10-01T12:13:07Z</time>
      </trkpt>
      <trkpt lat="42.3836390" lon="-7.1267440">
        <ele>302.8</ele>
        <time>2014-10-01T12:13:08Z</time>
      </trkpt>
      <trkpt lat="42.3836990" lon="-7.1267500">
        <ele>302.9</ele>
        <time>2014-10-01T12:13:09Z</time>
      </trkpt>
      <trkpt lat="42.3837620" lon="-7.1267580">
        <ele>302.9</ele>
        <time>2014-10-01T12:13:10Z</time>
      </trkpt>
      <trkpt lat="42.3838280" lon="-7.1267670">
        <ele>302.8</ele>
        <time>2014-10-01T12:13:11Z</time>
      </trkpt>
      <trkpt lat="42.3838880" lon="-7.1267770">
        <ele>302.8</ele>
        <time>2014-10-01T12:13:12Z</time>
      </trkpt>
      <trkpt lat="42.3839580" lon="-7.1267920">
        <ele>302.8</ele>
        <time>2014-10-01T12:13:13Z</time>
      </trkpt>
      <trkpt lat="42.3840270" lon="-7.1268080">
        <ele>302.8</ele>
        <time>2014-10-01T12:13:14Z</time>
      </trkpt>
      <trkpt lat="42.3840890" lon="-7.1268220">
        <ele>302.8</ele>
        <time>2014-10-01T12:13:15Z</time>
      </trkpt>
      <trkpt lat="42.3841620" lon="-7.1268410">
        <ele>302.7</ele>
        <time>2014-10-01T12:13:16Z</time>
      </trkpt>
      <trkpt lat="42.3842300" lon="-7.1268600">
        <ele>302.7</ele>
        <time>2014-10-01T12:13:17Z</time>
      </trkpt>
      <trkpt lat="42.3842940" lon="-7.1268770">
        <ele>302.7</ele>
        <time>2014-10-01T12:13:18Z</time>
      </trkpt>
      <trkpt lat="42.3843600" lon="-7.1268890">
        <ele>302.7</ele>
        <time>2014-10-01T12:13:19Z</time>
      </trkpt>
      <trkpt lat="42.3844250" lon="-7.1269030">
        <ele>302.6</ele>
        <time>2014-10-01T12:13:20Z</time>
      </trkpt>
      <trkpt lat="42.3844900" lon="-7.1269190">
        <ele>302.6</ele>
        <time>2014-10-01T12:13:21Z</time>
      </trkpt>
      <trkpt lat="42.3845510" lon="-7.1269320">
        <ele>302.6</ele>
        <time>2014-10-01T12:13:22Z</time>
      </trkpt>
      <trkpt lat="42.3846110" lon="-7.1269450">
        <ele>302.6</ele>
        <time>2014-10-01T12:13:23Z</time>
      </trkpt>
      <trkpt lat="42.3846780" lon="-7.1269560">
        <ele>302.6</ele>
        <time>2014-10-01T12:13:24Z</time>
      </trkpt>
      <trkpt lat="42.3847490" lon="-7.1269680">
        <ele>302.7</ele>
        <time>2014-10-01T12:13:25Z</time>
      </trkpt>
      <trkpt lat="42.3848200" lon="-7.1269770">
        <ele>302.7</ele>
        <time>2014-10-01T12:13:26Z</time>
      </trkpt>
      <trkpt lat="42.3848940" lon="-7.1269890">
        <ele>302.7</ele>
        <time>2014-10-01T12:13:27Z</time>
      </trkpt>
      <trkpt lat="42.3849590" lon="-7.1270030">
        <ele>302.7</ele>
        <time>2014-10-01T12:13:28Z</time>
      </trkpt>
      <trkpt lat="42.3850150" lon="-7.1270200">
        <ele>302.7</ele>
        <time>2014-10-01T12:13:29Z</time>
      </trkpt>
      <trkpt lat="42.3850730" lon="-7.1270390">
        <ele>302.7</ele>
        <time>2014-10-01T12:13:30Z</time>
      </trkpt>
      <trkpt lat="42.3851430" lon="-7.1270590">
        <ele>302.7</ele>
        <time>2014-10-01T12:13:31Z</time>
      </trkpt>
      <trkpt lat="42.3852120" lon="-7.1270840">
        <ele>302.7</ele>
        <time>2014-10-01T12:13:32Z</time>
      </trkpt>
      <trkpt lat="42.3852730" lon="-7.1271090">
        <ele>302.7</ele>
        <time>2014-10-01T12:13:33Z</time>
      </trkpt>
      <trkpt lat="42.3853360" lon="-7.1271330">
        <ele>302.7</ele>
        <time>2014-10-01T12:13:34Z</time>
      </trkpt>
      <trkpt lat="42.3854030" lon="-7.1271610">
        <ele>302.7</ele>
        <time>2014-10-01T12:13:35Z</time>
      </trkpt>
      <trkpt lat="42.3854750" lon="-7.1271950">
        <ele>302.7</ele>
        <time>2014-10-01T12:13:36Z</time>
      </trkpt>
      <trkpt lat="42.3855450" lon="-7.1272310">
        <ele>302.7</ele>
        <time>2014-10-01T12:13:37Z</time>
      </trkpt>
      <trkpt lat="42.3856150" lon="-7.1272670">
        <ele>302.7</ele>
        <time>2014-10-01T12:13:38Z</time>
      </trkpt>
      <trkpt lat="42.3856840" lon="-7.1273060">
        <ele>302.7</ele>
        <time>2014-10-01T12:13:39Z</time>
      </trkpt>
      <trkpt lat="42.3857530" lon="-7.1273440">
        <ele>302.7</ele>
        <time>2014-10-01T12:13:40Z</time>
      </trkpt>
      <trkpt lat="42.3858220" lon="-7.1273810">
        <ele>302.7</ele>
        <time>2014-10-01T12:13:41Z</time>
      </trkpt>
      <trkpt lat="42.3858980" lon="-7.1274210">
        <ele>302.6</ele>
        <time>2014-10-01T12:13:42Z</time>
      </trkpt>
      <trkpt lat="42.3859690" lon="-7.1274570">
        <ele>302.5</ele>
        <time>2014-10-01T12:13:43Z</time>
      </trkpt>
      <trkpt lat="42.3860410" lon="-7.1274980">
        <ele>302.2</ele>
        <time>2014-10-01T12:13:44Z</time>
      </trkpt>
      <trkpt lat="42.3861130" lon="-7.1275390">
        <ele>302.1</ele>
        <time>2014-10-01T12:13:45Z</time>
      </trkpt>
      <trkpt lat="42.3861870" lon="-7.1275870">
        <ele>302.0</ele>
        <time>2014-10-01T12:13:46Z</time>
      </trkpt>
      <trkpt lat="42.3862710" lon="-7.1276420">
        <ele>301.7</ele>
        <time>2014-10-01T12:13:47Z</time>
      </trkpt>
      <trkpt lat="42.3863480" lon="-7.1276970">
        <ele>301.5</ele>
        <time>2014-10-01T12:13:48Z</time>
      </trkpt>
      <trkpt lat="42.3864280" lon="-7.1277580">
        <ele>301.2</ele>
        <time>2014-10-01T12:13:49Z</time>
      </trkpt>
      <trkpt lat="42.3865060" lon="-7.1278230">
        <ele>300.9</ele>
        <time>2014-10-01T12:13:50Z</time>
      </trkpt>
      <trkpt lat="42.3865800" lon="-7.1278840">
        <ele>300.6</ele>
        <time>2014-10-01T12:13:51Z</time>
      </trkpt>
      <trkpt lat="42.3866530" lon="-7.1279400">
        <ele>300.3</ele>
        <time>2014-10-01T12:13:52Z</time>
      </trkpt>
      <trkpt lat="42.3867280" lon="-7.1279990">
        <ele>300.1</ele>
        <time>2014-10-01T12:13:53Z</time>
      </trkpt>
      <trkpt lat="42.3868040" lon="-7.1280620">
        <ele>299.8</ele>
        <time>2014-10-01T12:13:54Z</time>
      </trkpt>
      <trkpt lat="42.3868790" lon="-7.1281210">
        <ele>299.5</ele>
        <time>2014-10-01T12:13:55Z</time>
      </trkpt>
      <trkpt lat="42.3869540" lon="-7.1281800">
        <ele>299.1</ele>
        <time>2014-10-01T12:13:56Z</time>
      </trkpt>
      <trkpt lat="42.3870270" lon="-7.1282390">
        <ele>299.0</ele>
        <time>2014-10-01T12:13:57Z</time>
      </trkpt>
      <trkpt lat="42.3870980" lon="-7.1282960">
        <ele>298.9</ele>
        <time>2014-10-01T12:13:58Z</time>
      </trkpt>
      <trkpt lat="42.3871670" lon="-7.1283500">
        <ele>298.9</ele>
        <time>2014-10-01T12:13:59Z</time>
      </trkpt>
      <trkpt lat="42.3872390" lon="-7.1284040">
        <ele>298.8</ele>
        <time>2014-10-01T12:14:00Z</time>
      </trkpt>
      <trkpt lat="42.3873110" lon="-7.1284560">
        <ele>298.7</ele>
        <time>2014-10-01T12:14:01Z</time>
      </trkpt>
      <trkpt lat="42.3873850" lon="-7.1285100">
        <ele>298.6</ele>
        <time>2014-10-01T12:14:02Z</time>
      </trkpt>
      <trkpt lat="42.3874590" lon="-7.1285690">
        <ele>298.5</ele>
        <time>2014-10-01T12:14:03Z</time>
      </trkpt>
      <trkpt lat="42.3875300" lon="-7.1286350">
        <ele>298.4</ele>
        <time>2014-10-01T12:14:04Z</time>
      </trkpt>
      <trkpt lat="42.3875770" lon="-7.1287290">
        <ele>298.5</ele>
        <time>2014-10-01T12:14:05Z</time>
      </trkpt>
      <trkpt lat="42.3875960" lon="-7.1288460">
        <ele>298.6</ele>
        <time>2014-10-01T12:14:06Z</time>
      </trkpt>
      <trkpt lat="42.3875750" lon="-7.1289640">
        <ele>298.7</ele>
        <time>2014-10-01T12:14:07Z</time>
      </trkpt>
      <trkpt lat="42.3875340" lon="-7.1290600">
        <ele>298.7</ele>
        <time>2014-10-01T12:14:08Z</time>
      </trkpt>
      <trkpt lat="42.3874850" lon="-7.1291580">
        <ele>298.8</ele>
        <time>2014-10-01T12:14:09Z</time>
      </trkpt>
      <trkpt lat="42.3874280" lon="-7.1292580">
        <ele>298.8</ele>
        <time>2014-10-01T12:14:10Z</time>
      </trkpt>
      <trkpt lat="42.3873750" lon="-7.1293500">
        <ele>298.9</ele>
        <time>2014-10-01T12:14:11Z</time>
      </trkpt>
      <trkpt lat="42.3873270" lon="-7.1294300">
        <ele>298.9</ele>
        <time>2014-10-01T12:14:12Z</time>
      </trkpt>
      <trkpt lat="42.3872810" lon="-7.1295090">
        <ele>298.9</ele>
        <time>2014-10-01T12:14:13Z</time>
      </trkpt>
      <trkpt lat="42.3872370" lon="-7.1295840">
        <ele>298.9</ele>
        <time>2014-10-01T12:14:14Z</time>
      </trkpt>
      <trkpt lat="42.3871900" lon="-7.1296640">
        <ele>298.9</ele>
        <time>2014-10-01T12:14:15Z</time>
      </trkpt>
      <trkpt lat="42.3871430" lon="-7.1297430">
        <ele>298.9</ele>
        <time>2014-10-01T12:14:16Z</time>
      </trkpt>
      <trkpt lat="42.3870960" lon="-7.1298240">
        <ele>298.9</ele>
        <time>2014-10-01T12:14:17Z</time>
      </trkpt>
      <trkpt lat="42.3870480" lon="-7.1299090">
        <ele>298.9</ele>
        <time>2014-10-01T12:14:18Z</time>
      </trkpt>
      <trkpt lat="42.3870010" lon="-7.1299950">
        <ele>299.0</ele>
        <time>2014-10-01T12:14:19Z</time>
      </trkpt>
      <trkpt lat="42.3869520" lon="-7.1300840">
        <ele>299.0</ele>
        <time>2014-10-01T12:14:20Z</time>
      </trkpt>
      <trkpt lat="42.3869070" lon="-7.1301720">
        <ele>299.0</ele>
        <time>2014-10-01T12:14:21Z</time>
      </trkpt>
      <trkpt lat="42.3868640" lon="-7.1302640">
        <ele>299.1</ele>
        <time>2014-10-01T12:14:22Z</time>
      </trkpt>
      <trkpt lat="42.3868240" lon="-7.1303600">
        <ele>299.1</ele>
        <time>2014-10-01T12:14:23Z</time>
      </trkpt>
      <trkpt lat="42.3867860" lon="-7.1304560">
        <ele>299.1</ele>
        <time>2014-10-01T12:14:24Z</time>
      </trkpt>
      <trkpt lat="42.3867520" lon="-7.1305460">
        <ele>299.2</ele>
        <time>2014-10-01T12:14:25Z</time>
      </trkpt>
      <trkpt lat="42.3867220" lon="-7.1306310">
        <ele>299.3</ele>
        <time>2014-10-01T12:14:26Z</time>
      </trkpt>
      <trkpt lat="42.3867080" lon="-7.1307200">
        <ele>299.5</ele>
        <time>2014-10-01T12:14:27Z</time>
      </trkpt>
      <trkpt lat="42.3866950" lon="-7.1308090">
        <ele>300.4</ele>
        <time>2014-10-01T12:14:28Z</time>
      </trkpt>
      <trkpt lat="42.3866810" lon="-7.1309010">
        <ele>300.0</ele>
        <time>2014-10-01T12:14:29Z</time>
      </trkpt>
      <trkpt lat="42.3866630" lon="-7.1309960">
        <ele>299.7</ele>
        <time>2014-10-01T12:14:30Z</time>
      </trkpt>
      <trkpt lat="42.3866290" lon="-7.1310850">
        <ele>299.5</ele>
        <time>2014-10-01T12:14:31Z</time>
      </trkpt>
      <trkpt lat="42.3865930" lon="-7.1311670">
        <ele>299.2</ele>
        <time>2014-10-01T12:14:32Z</time>
      </trkpt>
      <trkpt lat="42.3865510" lon="-7.1312500">
        <ele>298.9</ele>
        <time>2014-10-01T12:14:33Z</time>
      </trkpt>
      <trkpt lat="42.3865050" lon="-7.1313340">
        <ele>298.7</ele>
        <time>2014-10-01T12:14:34Z</time>
      </trkpt>
      <trkpt lat="42.3864530" lon="-7.1314190">
        <ele>298.7</ele>
        <time>2014-10-01T12:14:35Z</time>
      </trkpt>
      <trkpt lat="42.3863990" lon="-7.1315050">
        <ele>298.7</ele>
        <time>2014-10-01T12:14:36Z</time>
      </trkpt>
      <trkpt lat="42.3863450" lon="-7.1315920">
        <ele>298.8</ele>
        <time>2014-10-01T12:14:37Z</time>
      </trkpt>
      <trkpt lat="42.3862920" lon="-7.1316800">
        <ele>298.8</ele>
        <time>2014-10-01T12:14:38Z</time>
      </trkpt>
      <trkpt lat="42.3862370" lon="-7.1317670">
        <ele>298.8</ele>
        <time>2014-10-01T12:14:39Z</time>
      </trkpt>
      <trkpt lat="42.3861820" lon="-7.1318590">
        <ele>298.9</ele>
        <time>2014-10-01T12:14:40Z</time>
      </trkpt>
      <trkpt lat="42.3861300" lon="-7.1319540">
        <ele>298.9</ele>
        <time>2014-10-01T12:14:41Z</time>
      </trkpt>
      <trkpt lat="42.3860800" lon="-7.1320490">
        <ele>298.9</ele>
        <time>2014-10-01T12:14:42Z</time>
      </trkpt>
      <trkpt lat="42.3860340" lon="-7.1321460">
        <ele>298.9</ele>
        <time>2014-10-01T12:14:43Z</time>
      </trkpt>
      <trkpt lat="42.3859900" lon="-7.1322470">
        <ele>298.9</ele>
        <time>2014-10-01T12:14:44Z</time>
      </trkpt>
      <trkpt lat="42.3859480" lon="-7.1323510">
        <ele>298.9</ele>
        <time>2014-10-01T12:14:45Z</time>
      </trkpt>
      <trkpt lat="42.3859090" lon="-7.1324550">
        <ele>299.0</ele>
        <time>2014-10-01T12:14:46Z</time>
      </trkpt>
      <trkpt lat="42.3858720" lon="-7.1325620">
        <ele>299.1</ele>
        <time>2014-10-01T12:14:47Z</time>
      </trkpt>
      <trkpt lat="42.3858380" lon="-7.1326700">
        <ele>299.1</ele>
        <time>2014-10-01T12:14:48Z</time>
      </trkpt>
      <trkpt lat="42.3858040" lon="-7.1327770">
        <ele>299.2</ele>
        <time>2014-10-01T12:14:49Z</time>
      </trkpt>
      <trkpt lat="42.3857750" lon="-7.1328830">
        <ele>299.1</ele>
        <time>2014-10-01T12:14:50Z</time>
      </trkpt>
      <trkpt lat="42.3857450" lon="-7.1329880">
        <ele>299.1</ele>
        <time>2014-10-01T12:14:51Z</time>
      </trkpt>
      <trkpt lat="42.3857170" lon="-7.1330960">
        <ele>299.1</ele>
        <time>2014-10-01T12:14:52Z</time>
      </trkpt>
      <trkpt lat="42.3856870" lon="-7.1332090">
        <ele>299.1</ele>
        <time>2014-10-01T12:14:53Z</time>
      </trkpt>
      <trkpt lat="42.3856570" lon="-7.1333190">
        <ele>299.1</ele>
        <time>2014-10-01T12:14:54Z</time>
      </trkpt>
      <trkpt lat="42.3856270" lon="-7.1334300">
        <ele>299.1</ele>
        <time>2014-10-01T12:14:55Z</time>
      </trkpt>
      <trkpt lat="42.3855980" lon="-7.1335390">
        <ele>299.2</ele>
        <time>2014-10-01T12:14:56Z</time>
      </trkpt>
      <trkpt lat="42.3855690" lon="-7.1336480">
        <ele>299.2</ele>
        <time>2014-10-01T12:14:57Z</time>
      </trkpt>
      <trkpt lat="42.3855370" lon="-7.1337580">
        <ele>299.3</ele>
        <time>2014-10-01T12:14:58Z</time>
      </trkpt>
      <trkpt lat="42.3855030" lon="-7.1338670">
        <ele>299.3</ele>
        <time>2014-10-01T12:14:59Z</time>
      </trkpt>
      <trkpt lat="42.3854690" lon="-7.1339770">
        <ele>299.4</ele>
        <time>2014-10-01T12:15:00Z</time>
      </trkpt>
      <trkpt lat="42.3854350" lon="-7.1340840">
        <ele>299.4</ele>
        <time>2014-10-01T12:15:01Z</time>
      </trkpt>
      <trkpt lat="42.3853990" lon="-7.1341910">
        <ele>299.5</ele>
        <time>2014-10-01T12:15:02Z</time>
      </trkpt>
      <trkpt lat="42.3853620" lon="-7.1342980">
        <ele>299.5</ele>
        <time>2014-10-01T12:15:03Z</time>
      </trkpt>
      <trkpt lat="42.3853230" lon="-7.1344050">
        <ele>299.5</ele>
        <time>2014-10-01T12:15:04Z</time>
      </trkpt>
      <trkpt lat="42.3852810" lon="-7.1345110">
        <ele>299.5</ele>
        <time>2014-10-01T12:15:05Z</time>
      </trkpt>
      <trkpt lat="42.3852370" lon="-7.1346150">
        <ele>299.5</ele>
        <time>2014-10-01T12:15:06Z</time>
      </trkpt>
      <trkpt lat="42.3851890" lon="-7.1347170">
        <ele>299.6</ele>
        <time>2014-10-01T12:15:07Z</time>
      </trkpt>
      <trkpt lat="42.3851380" lon="-7.1348170">
        <ele>299.6</ele>
        <time>2014-10-01T12:15:08Z</time>
      </trkpt>
      <trkpt lat="42.3850830" lon="-7.1349130">
        <ele>299.6</ele>
        <time>2014-10-01T12:15:09Z</time>
      </trkpt>
      <trkpt lat="42.3850270" lon="-7.1350090">
        <ele>299.7</ele>
        <time>2014-10-01T12:15:10Z</time>
      </trkpt>
      <trkpt lat="42.3849690" lon="-7.1351000">
        <ele>299.7</ele>
        <time>2014-10-01T12:15:11Z</time>
      </trkpt>
      <trkpt lat="42.3849090" lon="-7.1351890">
        <ele>299.7</ele>
        <time>2014-10-01T12:15:12Z</time>
      </trkpt>
      <trkpt lat="42.3848480" lon="-7.1352740">
        <ele>299.6</ele>
        <time>2014-10-01T12:15:13Z</time>
      </trkpt>
      <trkpt lat="42.3847830" lon="-7.1353600">
        <ele>299.6</ele>
        <time>2014-10-01T12:15:14Z</time>
      </trkpt>
      <trkpt lat="42.3847170" lon="-7.1354440">
        <ele>299.5</ele>
        <time>2014-10-01T12:15:15Z</time>
      </trkpt>
      <trkpt lat="42.3846490" lon="-7.1355270">
        <ele>299.4</ele>
        <time>2014-10-01T12:15:16Z</time>
      </trkpt>
      <trkpt lat="42.3845790" lon="-7.1356060">
        <ele>299.3</ele>
        <time>2014-10-01T12:15:17Z</time>
      </trkpt>
      <trkpt lat="42.3845060" lon="-7.1356810">
        <ele>299.3</ele>
        <time>2014-10-01T12:15:18Z</time>
      </trkpt>
      <trkpt lat="42.3844300" lon="-7.1357520">
        <ele>299.2</ele>
        <time>2014-10-01T12:15:19Z</time>
      </trkpt>
      <trkpt lat="42.3843520" lon="-7.1358200">
        <ele>299.1</ele>
        <time>2014-10-01T12:15:20Z</time>
      </trkpt>
      <trkpt lat="42.3842720" lon="-7.1358870">
        <ele>299.0</ele>
        <time>2014-10-01T12:15:21Z</time>
      </trkpt>
      <trkpt lat="42.3841840" lon="-7.1359550">
        <ele>298.9</ele>
        <time>2014-10-01T12:15:22Z</time>
      </trkpt>
      <trkpt lat="42.3840990" lon="-7.1360170">
        <ele>298.8</ele>
        <time>2014-10-01T12:15:23Z</time>
      </trkpt>
      <trkpt lat="42.3840110" lon="-7.1360740">
        <ele>298.7</ele>
        <time>2014-10-01T12:15:24Z</time>
      </trkpt>
      <trkpt lat="42.3839230" lon="-7.1361260">
        <ele>298.6</ele>
        <time>2014-10-01T12:15:25Z</time>
      </trkpt>
      <trkpt lat="42.3838330" lon="-7.1361740">
        <ele>298.6</ele>
        <time>2014-10-01T12:15:26Z</time>
      </trkpt>
      <trkpt lat="42.3837450" lon="-7.1362160">
        <ele>298.5</ele>
        <time>2014-10-01T12:15:27Z</time>
      </trkpt>
      <trkpt lat="42.3836540" lon="-7.1362550">
        <ele>298.4</ele>
        <time>2014-10-01T12:15:28Z</time>
      </trkpt>
      <trkpt lat="42.3835630" lon="-7.1362910">
        <ele>298.3</ele>
        <time>2014-10-01T12:15:29Z</time>
      </trkpt>
      <trkpt lat="42.3834750" lon="-7.1363190">
        <ele>298.3</ele>
        <time>2014-10-01T12:15:30Z</time>
      </trkpt>
      <trkpt lat="42.3833820" lon="-7.1363460">
        <ele>298.2</ele>
        <time>2014-10-01T12:15:31Z</time>
      </trkpt>
      <trkpt lat="42.3832920" lon="-7.1363650">
        <ele>298.1</ele>
        <time>2014-10-01T12:15:32Z</time>
      </trkpt>
      <trkpt lat="42.3832000" lon="-7.1363830">
        <ele>298.1</ele>
        <time>2014-10-01T12:15:33Z</time>
      </trkpt>
      <trkpt lat="42.3831130" lon="-7.1363960">
        <ele>298.1</ele>
        <time>2014-10-01T12:15:34Z</time>
      </trkpt>
      <trkpt lat="42.3830220" lon="-7.1364070">
        <ele>298.0</ele>
        <time>2014-10-01T12:15:35Z</time>
      </trkpt>
      <trkpt lat="42.3829270" lon="-7.1364200">
        <ele>298.0</ele>
        <time>2014-10-01T12:15:36Z</time>
      </trkpt>
      <trkpt lat="42.3828360" lon="-7.1364330">
        <ele>298.0</ele>
        <time>2014-10-01T12:15:37Z</time>
      </trkpt>
      <trkpt lat="42.3827510" lon="-7.1364370">
        <ele>298.0</ele>
        <time>2014-10-01T12:15:38Z</time>
      </trkpt>
      <trkpt lat="42.3826610" lon="-7.1364450">
        <ele>298.0</ele>
        <time>2014-10-01T12:15:39Z</time>
      </trkpt>
      <trkpt lat="42.3825740" lon="-7.1364460">
        <ele>298.0</ele>
        <time>2014-10-01T12:15:40Z</time>
      </trkpt>
      <trkpt lat="42.3824840" lon="-7.1364480">
        <ele>298.0</ele>
        <time>2014-10-01T12:15:41Z</time>
      </trkpt>
      <trkpt lat="42.3823940" lon="-7.1364490">
        <ele>298.1</ele>
        <time>2014-10-01T12:15:42Z</time>
      </trkpt>
      <trkpt lat="42.3823050" lon="-7.1364510">
        <ele>298.2</ele>
        <time>2014-10-01T12:15:43Z</time>
      </trkpt>
      <trkpt lat="42.3822210" lon="-7.1364480">
        <ele>298.2</ele>
        <time>2014-10-01T12:15:44Z</time>
      </trkpt>
      <trkpt lat="42.3821380" lon="-7.1364440">
        <ele>298.3</ele>
        <time>2014-10-01T12:15:45Z</time>
      </trkpt>
      <trkpt lat="42.3820570" lon="-7.1364360">
        <ele>298.4</ele>
        <time>2014-10-01T12:15:46Z</time>
      </trkpt>
      <trkpt lat="42.3819740" lon="-7.1364290">
        <ele>298.4</ele>
        <time>2014-10-01T12:15:47Z</time>
      </trkpt>
      <trkpt lat="42.3818950" lon="-7.1364190">
        <ele>298.5</ele>
        <time>2014-10-01T12:15:48Z</time>
      </trkpt>
      <trkpt lat="42.3818130" lon="-7.1364090">
        <ele>298.7</ele>
        <time>2014-10-01T12:15:49Z</time>
      </trkpt>
      <trkpt lat="42.3817330" lon="-7.1363980">
        <ele>298.8</ele>
        <time>2014-10-01T12:15:50Z</time>
      </trkpt>
      <trkpt lat="42.3816540" lon="-7.1363860">
        <ele>299.0</ele>
        <time>2014-10-01T12:15:51Z</time>
      </trkpt>
      <trkpt lat="42.3815780" lon="-7.1363710">
        <ele>299.1</ele>
        <time>2014-10-01T12:15:52Z</time>
      </trkpt>
      <trkpt lat="42.3815030" lon="-7.1363560">
        <ele>299.3</ele>
        <time>2014-10-01T12:15:53Z</time>
      </trkpt>
      <trkpt lat="42.3814280" lon="-7.1363390">
        <ele>299.5</ele>
        <time>2014-10-01T12:15:54Z</time>
      </trkpt>
      <trkpt lat="42.3813530" lon="-7.1363230">
        <ele>299.7</ele>
        <time>2014-10-01T12:15:55Z</time>
      </trkpt>
      <trkpt lat="42.3812800" lon="-7.1363080">
        <ele>299.9</ele>
        <time>2014-10-01T12:15:56Z</time>
      </trkpt>
      <trkpt lat="42.3812090" lon="-7.1362930">
        <ele>300.1</ele>
        <time>2014-10-01T12:15:57Z</time>
      </trkpt>
      <trkpt lat="42.3811370" lon="-7.1362750">
        <ele>300.3</ele>
        <time>2014-10-01T12:15:58Z</time>
      </trkpt>
      <trkpt lat="42.3810680" lon="-7.1362600">
        <ele>300.4</ele>
        <time>2014-10-01T12:15:59Z</time>
      </trkpt>
      <trkpt lat="42.3809990" lon="-7.1362440">
        <ele>300.7</ele>
        <time>2014-10-01T12:16:00Z</time>
      </trkpt>
      <trkpt lat="42.3809310" lon="-7.1362280">
        <ele>300.9</ele>
        <time>2014-10-01T12:16:01Z</time>
      </trkpt>
      <trkpt lat="42.3808600" lon="-7.1362100">
        <ele>301.1</ele>
        <time>2014-10-01T12:16:02Z</time>
      </trkpt>
      <trkpt lat="42.3807940" lon="-7.1361940">
        <ele>301.3</ele>
        <time>2014-10-01T12:16:03Z</time>
      </trkpt>
      <trkpt lat="42.3807300" lon="-7.1361760">
        <ele>301.5</ele>
        <time>2014-10-01T12:16:04Z</time>
      </trkpt>
      <trkpt lat="42.3806630" lon="-7.1361580">
        <ele>301.7</ele>
        <time>2014-10-01T12:16:05Z</time>
      </trkpt>
      <trkpt lat="42.3805950" lon="-7.1361420">
        <ele>301.9</ele>
        <time>2014-10-01T12:16:06Z</time>
      </trkpt>
      <trkpt lat="42.3805290" lon="-7.1361260">
        <ele>302.1</ele>
        <time>2014-10-01T12:16:07Z</time>
      </trkpt>
      <trkpt lat="42.3804620" lon="-7.1361090">
        <ele>302.3</ele>
        <time>2014-10-01T12:16:08Z</time>
      </trkpt>
      <trkpt lat="42.3803980" lon="-7.1360910">
        <ele>302.5</ele>
        <time>2014-10-01T12:16:09Z</time>
      </trkpt>
      <trkpt lat="42.3803340" lon="-7.1360750">
        <ele>302.6</ele>
        <time>2014-10-01T12:16:10Z</time>
      </trkpt>
      <trkpt lat="42.3802690" lon="-7.1360610">
        <ele>302.8</ele>
        <time>2014-10-01T12:16:11Z</time>
      </trkpt>
      <trkpt lat="42.3802060" lon="-7.1360520">
        <ele>303.0</ele>
        <time>2014-10-01T12:16:12Z</time>
      </trkpt>
      <trkpt lat="42.3801410" lon="-7.1360470">
        <ele>303.1</ele>
        <time>2014-10-01T12:16:13Z</time>
      </trkpt>
      <trkpt lat="42.3800750" lon="-7.1360440">
        <ele>303.3</ele>
        <time>2014-10-01T12:16:14Z</time>
      </trkpt>
      <trkpt lat="42.3800080" lon="-7.1360430">
        <ele>303.4</ele>
        <time>2014-10-01T12:16:15Z</time>
      </trkpt>
      <trkpt lat="42.3799460" lon="-7.1360430">
        <ele>303.6</ele>
        <time>2014-10-01T12:16:16Z</time>
      </trkpt>
      <trkpt lat="42.3798850" lon="-7.1360410">
        <ele>303.7</ele>
        <time>2014-10-01T12:16:17Z</time>
      </trkpt>
      <trkpt lat="42.3798240" lon="-7.1360430">
        <ele>303.9</ele>
        <time>2014-10-01T12:16:18Z</time>
      </trkpt>
      <trkpt lat="42.3797660" lon="-7.1360450">
        <ele>304.0</ele>
        <time>2014-10-01T12:16:19Z</time>
      </trkpt>
      <trkpt lat="42.3797060" lon="-7.1360500">
        <ele>304.2</ele>
        <time>2014-10-01T12:16:20Z</time>
      </trkpt>
      <trkpt lat="42.3796440" lon="-7.1360590">
        <ele>304.4</ele>
        <time>2014-10-01T12:16:21Z</time>
      </trkpt>
      <trkpt lat="42.3795810" lon="-7.1360720">
        <ele>304.6</ele>
        <time>2014-10-01T12:16:22Z</time>
      </trkpt>
      <trkpt lat="42.3795200" lon="-7.1360830">
        <ele>304.8</ele>
        <time>2014-10-01T12:16:23Z</time>
      </trkpt>
      <trkpt lat="42.3794600" lon="-7.1360960">
        <ele>305.0</ele>
        <time>2014-10-01T12:16:24Z</time>
      </trkpt>
      <trkpt lat="42.3794020" lon="-7.1361080">
        <ele>305.2</ele>
        <time>2014-10-01T12:16:25Z</time>
      </trkpt>
      <trkpt lat="42.3793450" lon="-7.1361190">
        <ele>305.4</ele>
        <time>2014-10-01T12:16:26Z</time>
      </trkpt>
      <trkpt lat="42.3792820" lon="-7.1361330">
        <ele>305.7</ele>
        <time>2014-10-01T12:16:27Z</time>
      </trkpt>
      <trkpt lat="42.3792280" lon="-7.1361460">
        <ele>305.9</ele>
        <time>2014-10-01T12:16:28Z</time>
      </trkpt>
      <trkpt lat="42.3791700" lon="-7.1361600">
        <ele>306.2</ele>
        <time>2014-10-01T12:16:29Z</time>
      </trkpt>
      <trkpt lat="42.3791130" lon="-7.1361740">
        <ele>306.4</ele>
        <time>2014-10-01T12:16:30Z</time>
      </trkpt>
      <trkpt lat="42.3790600" lon="-7.1361900">
        <ele>306.7</ele>
        <time>2014-10-01T12:16:31Z</time>
      </trkpt>
      <trkpt lat="42.3790120" lon="-7.1362080">
        <ele>306.9</ele>
        <time>2014-10-01T12:16:32Z</time>
      </trkpt>
      <trkpt lat="42.3789590" lon="-7.1362260">
        <ele>307.1</ele>
        <time>2014-10-01T12:16:33Z</time>
      </trkpt>
      <trkpt lat="42.3789040" lon="-7.1362500">
        <ele>307.3</ele>
        <time>2014-10-01T12:16:34Z</time>
      </trkpt>
      <trkpt lat="42.3788480" lon="-7.1362750">
        <ele>307.6</ele>
        <time>2014-10-01T12:16:35Z</time>
      </trkpt>
      <trkpt lat="42.3787990" lon="-7.1362930">
        <ele>307.8</ele>
        <time>2014-10-01T12:16:36Z</time>
      </trkpt>
      <trkpt lat="42.3787560" lon="-7.1363080">
        <ele>308.1</ele>
        <time>2014-10-01T12:16:37Z</time>
      </trkpt>
      <trkpt lat="42.3787130" lon="-7.1363220">
        <ele>308.3</ele>
        <time>2014-10-01T12:16:38Z</time>
      </trkpt>
      <trkpt lat="42.3786690" lon="-7.1363390">
        <ele>308.5</ele>
        <time>2014-10-01T12:16:39Z</time>
      </trkpt>
      <trkpt lat="42.3786200" lon="-7.1363560">
        <ele>308.8</ele>
        <time>2014-10-01T12:16:40Z</time>
      </trkpt>
      <trkpt lat="42.3785700" lon="-7.1363730">
        <ele>309.1</ele>
        <time>2014-10-01T12:16:41Z</time>
      </trkpt>
      <trkpt lat="42.3785210" lon="-7.1363890">
        <ele>309.5</ele>
        <time>2014-10-01T12:16:42Z</time>
      </trkpt>
      <trkpt lat="42.3784710" lon="-7.1364070">
        <ele>309.8</ele>
        <time>2014-10-01T12:16:43Z</time>
      </trkpt>
      <trkpt lat="42.3784220" lon="-7.1364240">
        <ele>310.1</ele>
        <time>2014-10-01T12:16:44Z</time>
      </trkpt>
      <trkpt lat="42.3783710" lon="-7.1364370">
        <ele>310.5</ele>
        <time>2014-10-01T12:16:45Z</time>
      </trkpt>
      <trkpt lat="42.3783250" lon="-7.1364470">
        <ele>310.8</ele>
        <time>2014-10-01T12:16:46Z</time>
      </trkpt>
      <trkpt lat="42.3782820" lon="-7.1364560">
        <ele>311.1</ele>
        <time>2014-10-01T12:16:47Z</time>
      </trkpt>
      <trkpt lat="42.3782370" lon="-7.1364680">
        <ele>311.4</ele>
        <time>2014-10-01T12:16:48Z</time>
      </trkpt>
      <trkpt lat="42.3781920" lon="-7.1364800">
        <ele>311.7</ele>
        <time>2014-10-01T12:16:49Z</time>
      </trkpt>
      <trkpt lat="42.3781470" lon="-7.1364910">
        <ele>311.9</ele>
        <time>2014-10-01T12:16:50Z</time>
      </trkpt>
      <trkpt lat="42.3781040" lon="-7.1365020">
        <ele>312.2</ele>
        <time>2014-10-01T12:16:51Z</time>
      </trkpt>
      <trkpt lat="42.3780610" lon="-7.1365110">
        <ele>312.5</ele>
        <time>2014-10-01T12:16:52Z</time>
      </trkpt>
      <trkpt lat="42.3780180" lon="-7.1365210">
        <ele>312.7</ele>
        <time>2014-10-01T12:16:53Z</time>
      </trkpt>
      <trkpt lat="42.3779760" lon="-7.1365300">
        <ele>313.0</ele>
        <time>2014-10-01T12:16:54Z</time>
      </trkpt>
      <trkpt lat="42.3779330" lon="-7.1365360">
        <ele>313.2</ele>
        <time>2014-10-01T12:16:55Z</time>
      </trkpt>
      <trkpt lat="42.3778860" lon="-7.1365460">
        <ele>313.5</ele>
        <time>2014-10-01T12:16:56Z</time>
      </trkpt>
      <trkpt lat="42.3778380" lon="-7.1365560">
        <ele>313.8</ele>
        <time>2014-10-01T12:16:57Z</time>
      </trkpt>
      <trkpt lat="42.3777970" lon="-7.1365600">
        <ele>314.1</ele>
        <time>2014-10-01T12:16:58Z</time>
      </trkpt>
      <trkpt lat="42.3777520" lon="-7.1365640">
        <ele>314.4</ele>
        <time>2014-10-01T12:16:59Z</time>
      </trkpt>
      <trkpt lat="42.3777100" lon="-7.1365680">
        <ele>314.6</ele>
        <time>2014-10-01T12:17:00Z</time>
      </trkpt>
      <trkpt lat="42.3776640" lon="-7.1365740">
        <ele>314.9</ele>
        <time>2014-10-01T12:17:01Z</time>
      </trkpt>
      <trkpt lat="42.3776270" lon="-7.1365790">
        <ele>315.2</ele>
        <time>2014-10-01T12:17:02Z</time>
      </trkpt>
      <trkpt lat="42.3775890" lon="-7.1365840">
        <ele>315.4</ele>
        <time>2014-10-01T12:17:03Z</time>
      </trkpt>
      <trkpt lat="42.3775480" lon="-7.1365880">
        <ele>315.6</ele>
        <time>2014-10-01T12:17:04Z</time>
      </trkpt>
      <trkpt lat="42.3775070" lon="-7.1365910">
        <ele>315.9</ele>
        <time>2014-10-01T12:17:05Z</time>
      </trkpt>
      <trkpt lat="42.3774620" lon="-7.1365950">
        <ele>316.2</ele>
        <time>2014-10-01T12:17:06Z</time>
      </trkpt>
      <trkpt lat="42.3774160" lon="-7.1365990">
        <ele>316.5</ele>
        <time>2014-10-01T12:17:07Z</time>
      </trkpt>
      <trkpt lat="42.3773740" lon="-7.1366020">
        <ele>316.7</ele>
        <time>2014-10-01T12:17:08Z</time>
      </trkpt>
      <trkpt lat="42.3773350" lon="-7.1366040">
        <ele>317.0</ele>
        <time>2014-10-01T12:17:09Z</time>
      </trkpt>
      <trkpt lat="42.3772910" lon="-7.1366060">
        <ele>317.2</ele>
        <time>2014-10-01T12:17:10Z</time>
      </trkpt>
      <trkpt lat="42.3772480" lon="-7.1366100">
        <ele>317.4</ele>
        <time>2014-10-01T12:17:11Z</time>
      </trkpt>
      <trkpt lat="42.3772080" lon="-7.1366110">
        <ele>317.5</ele>
        <time>2014-10-01T12:17:12Z</time>
      </trkpt>
      <trkpt lat="42.3771580" lon="-7.1366150">
        <ele>317.7</ele>
        <time>2014-10-01T12:17:13Z</time>
      </trkpt>
      <trkpt lat="42.3771070" lon="-7.1366170">
        <ele>317.8</ele>
        <time>2014-10-01T12:17:14Z</time>
      </trkpt>
      <trkpt lat="42.3770590" lon="-7.1366200">
        <ele>318.0</ele>
        <time>2014-10-01T12:17:15Z</time>
      </trkpt>
      <trkpt lat="42.3770130" lon="-7.1366220">
        <ele>318.3</ele>
        <time>2014-10-01T12:17:16Z</time>
      </trkpt>
      <trkpt lat="42.3769700" lon="-7.1366230">
        <ele>318.5</ele>
        <time>2014-10-01T12:17:17Z</time>
      </trkpt>
      <trkpt lat="42.3769240" lon="-7.1366240">
        <ele>318.7</ele>
        <time>2014-10-01T12:17:18Z</time>
      </trkpt>
      <trkpt lat="42.3768760" lon="-7.1366270">
        <ele>318.9</ele>
        <time>2014-10-01T12:17:19Z</time>
      </trkpt>
      <trkpt lat="42.3768270" lon="-7.1366300">
        <ele>319.2</ele>
        <time>2014-10-01T12:17:20Z</time>
      </trkpt>
      <trkpt lat="42.3767750" lon="-7.1366340">
        <ele>319.4</ele>
        <time>2014-10-01T12:17:21Z</time>
      </trkpt>
      <trkpt lat="42.3767220" lon="-7.1366370">
        <ele>319.6</ele>
        <time>2014-10-01T12:17:22Z</time>
      </trkpt>
      <trkpt lat="42.3766660" lon="-7.1366390">
        <ele>319.8</ele>
        <time>2014-10-01T12:17:23Z</time>
      </trkpt>
      <trkpt lat="42.3766100" lon="-7.1366380">
        <ele>320.0</ele>
        <time>2014-10-01T12:17:24Z</time>
      </trkpt>
      <trkpt lat="42.3765540" lon="-7.1366360">
        <ele>320.2</ele>
        <time>2014-10-01T12:17:25Z</time>
      </trkpt>
      <trkpt lat="42.3764980" lon="-7.1366340">
        <ele>320.3</ele>
        <time>2014-10-01T12:17:26Z</time>
      </trkpt>
      <trkpt lat="42.3764410" lon="-7.1366350">
        <ele>320.5</ele>
        <time>2014-10-01T12:17:27Z</time>
      </trkpt>
      <trkpt lat="42.3763840" lon="-7.1366370">
        <ele>320.7</ele>
        <time>2014-10-01T12:17:28Z</time>
      </trkpt>
      <trkpt lat="42.3763280" lon="-7.1366400">
        <ele>320.9</ele>
        <time>2014-10-01T12:17:29Z</time>
      </trkpt>
      <trkpt lat="42.3762700" lon="-7.1366430">
        <ele>321.0</ele>
        <time>2014-10-01T12:17:30Z</time>
      </trkpt>
      <trkpt lat="42.3762090" lon="-7.1366450">
        <ele>321.2</ele>
        <time>2014-10-01T12:17:31Z</time>
      </trkpt>
      <trkpt lat="42.3761480" lon="-7.1366460">
        <ele>321.3</ele>
        <time>2014-10-01T12:17:32Z</time>
      </trkpt>
      <trkpt lat="42.3760870" lon="-7.1366460">
        <ele>321.5</ele>
        <time>2014-10-01T12:17:33Z</time>
      </trkpt>
      <trkpt lat="42.3760250" lon="-7.1366490">
        <ele>321.6</ele>
        <time>2014-10-01T12:17:34Z</time>
      </trkpt>
      <trkpt lat="42.3759600" lon="-7.1366540">
        <ele>321.6</ele>
        <time>2014-10-01T12:17:35Z</time>
      </trkpt>
      <trkpt lat="42.3758940" lon="-7.1366590">
        <ele>321.7</ele>
        <time>2014-10-01T12:17:36Z</time>
      </trkpt>
      <trkpt lat="42.3758280" lon="-7.1366680">
        <ele>321.7</ele>
        <time>2014-10-01T12:17:37Z</time>
      </trkpt>
      <trkpt lat="42.3757580" lon="-7.1366790">
        <ele>321.8</ele>
        <time>2014-10-01T12:17:38Z</time>
      </trkpt>
      <trkpt lat="42.3756880" lon="-7.1366920">
        <ele>321.8</ele>
        <time>2014-10-01T12:17:39Z</time>
      </trkpt>
      <trkpt lat="42.3756180" lon="-7.1367050">
        <ele>321.9</ele>
        <time>2014-10-01T12:17:40Z</time>
      </trkpt>
      <trkpt lat="42.3755500" lon="-7.1367180">
        <ele>321.9</ele>
        <time>2014-10-01T12:17:41Z</time>
      </trkpt>
      <trkpt lat="42.3754810" lon="-7.1367320">
        <ele>322.0</ele>
        <time>2014-10-01T12:17:42Z</time>
      </trkpt>
      <trkpt lat="42.3754130" lon="-7.1367440">
        <ele>322.1</ele>
        <time>2014-10-01T12:17:43Z</time>
      </trkpt>
      <trkpt lat="42.3753390" lon="-7.1367580">
        <ele>322.1</ele>
        <time>2014-10-01T12:17:44Z</time>
      </trkpt>
      <trkpt lat="42.3752610" lon="-7.1367750">
        <ele>322.2</ele>
        <time>2014-10-01T12:17:45Z</time>
      </trkpt>
      <trkpt lat="42.3751850" lon="-7.1367890">
        <ele>322.4</ele>
        <time>2014-10-01T12:17:46Z</time>
      </trkpt>
      <trkpt lat="42.3751110" lon="-7.1368050">
        <ele>322.5</ele>
        <time>2014-10-01T12:17:47Z</time>
      </trkpt>
      <trkpt lat="42.3750390" lon="-7.1368200">
        <ele>322.7</ele>
        <time>2014-10-01T12:17:48Z</time>
      </trkpt>
      <trkpt lat="42.3749640" lon="-7.1368340">
        <ele>322.8</ele>
        <time>2014-10-01T12:17:49Z</time>
      </trkpt>
      <trkpt lat="42.3748910" lon="-7.1368500">
        <ele>322.9</ele>
        <time>2014-10-01T12:17:50Z</time>
      </trkpt>
      <trkpt lat="42.3748210" lon="-7.1368670">
        <ele>323.0</ele>
        <time>2014-10-01T12:17:51Z</time>
      </trkpt>
      <trkpt lat="42.3747480" lon="-7.1368860">
        <ele>323.1</ele>
        <time>2014-10-01T12:17:52Z</time>
      </trkpt>
      <trkpt lat="42.3746760" lon="-7.1369050">
        <ele>323.2</ele>
        <time>2014-10-01T12:17:53Z</time>
      </trkpt>
      <trkpt lat="42.3746070" lon="-7.1369270">
        <ele>323.3</ele>
        <time>2014-10-01T12:17:54Z</time>
      </trkpt>
      <trkpt lat="42.3745410" lon="-7.1369470">
        <ele>323.6</ele>
        <time>2014-10-01T12:17:55Z</time>
      </trkpt>
      <trkpt lat="42.3744770" lon="-7.1369690">
        <ele>323.9</ele>
        <time>2014-10-01T12:17:56Z</time>
      </trkpt>
      <trkpt lat="42.3744150" lon="-7.1369960">
        <ele>324.2</ele>
        <time>2014-10-01T12:17:57Z</time>
      </trkpt>
      <trkpt lat="42.3743540" lon="-7.1370260">
        <ele>324.5</ele>
        <time>2014-10-01T12:17:58Z</time>
      </trkpt>
      <trkpt lat="42.3742940" lon="-7.1370580">
        <ele>324.8</ele>
        <time>2014-10-01T12:17:59Z</time>
      </trkpt>
      <trkpt lat="42.3742390" lon="-7.1370890">
        <ele>325.1</ele>
        <time>2014-10-01T12:18:00Z</time>
      </trkpt>
      <trkpt lat="42.3741840" lon="-7.1371210">
        <ele>325.4</ele>
        <time>2014-10-01T12:18:01Z</time>
      </trkpt>
      <trkpt lat="42.3741310" lon="-7.1371560">
        <ele>325.7</ele>
        <time>2014-10-01T12:18:02Z</time>
      </trkpt>
      <trkpt lat="42.3740770" lon="-7.1371920">
        <ele>326.0</ele>
        <time>2014-10-01T12:18:03Z</time>
      </trkpt>
      <trkpt lat="42.3740300" lon="-7.1372240">
        <ele>326.3</ele>
        <time>2014-10-01T12:18:04Z</time>
      </trkpt>
      <trkpt lat="42.3739850" lon="-7.1372540">
        <ele>326.5</ele>
        <time>2014-10-01T12:18:05Z</time>
      </trkpt>
      <trkpt lat="42.3739390" lon="-7.1372830">
        <ele>326.8</ele>
        <time>2014-10-01T12:18:06Z</time>
      </trkpt>
      <trkpt lat="42.3738950" lon="-7.1373120">
        <ele>327.0</ele>
        <time>2014-10-01T12:18:07Z</time>
      </trkpt>
      <trkpt lat="42.3738450" lon="-7.1373470">
        <ele>327.3</ele>
        <time>2014-10-01T12:18:08Z</time>
      </trkpt>
      <trkpt lat="42.3737970" lon="-7.1373800">
        <ele>327.5</ele>
        <time>2014-10-01T12:18:09Z</time>
      </trkpt>
      <trkpt lat="42.3737500" lon="-7.1374150">
        <ele>327.8</ele>
        <time>2014-10-01T12:18:10Z</time>
      </trkpt>
      <trkpt lat="42.3736990" lon="-7.1374500">
        <ele>328.1</ele>
        <time>2014-10-01T12:18:11Z</time>
      </trkpt>
      <trkpt lat="42.3736540" lon="-7.1374810">
        <ele>328.4</ele>
        <time>2014-10-01T12:18:12Z</time>
      </trkpt>
      <trkpt lat="42.3736100" lon="-7.1375110">
        <ele>328.6</ele>
        <time>2014-10-01T12:18:13Z</time>
      </trkpt>
      <trkpt lat="42.3735630" lon="-7.1375460">
        <ele>328.9</ele>
        <time>2014-10-01T12:18:14Z</time>
      </trkpt>
      <trkpt lat="42.3735230" lon="-7.1375780">
        <ele>329.2</ele>
        <time>2014-10-01T12:18:15Z</time>
      </trkpt>
      <trkpt lat="42.3734800" lon="-7.1376100">
        <ele>329.4</ele>
        <time>2014-10-01T12:18:16Z</time>
      </trkpt>
      <trkpt lat="42.3734360" lon="-7.1376440">
        <ele>329.7</ele>
        <time>2014-10-01T12:18:17Z</time>
      </trkpt>
      <trkpt lat="42.3733940" lon="-7.1376760">
        <ele>329.9</ele>
        <time>2014-10-01T12:18:18Z</time>
      </trkpt>
      <trkpt lat="42.3733550" lon="-7.1377100">
        <ele>330.2</ele>
        <time>2014-10-01T12:18:19Z</time>
      </trkpt>
      <trkpt lat="42.3733150" lon="-7.1377450">
        <ele>330.4</ele>
        <time>2014-10-01T12:18:20Z</time>
      </trkpt>
      <trkpt lat="42.3732750" lon="-7.1377820">
        <ele>330.7</ele>
        <time>2014-10-01T12:18:21Z</time>
      </trkpt>
      <trkpt lat="42.3732330" lon="-7.1378190">
        <ele>331.0</ele>
        <time>2014-10-01T12:18:22Z</time>
      </trkpt>
      <trkpt lat="42.3732000" lon="-7.1378530">
        <ele>331.2</ele>
        <time>2014-10-01T12:18:23Z</time>
      </trkpt>
      <trkpt lat="42.3731630" lon="-7.1378900">
        <ele>331.4</ele>
        <time>2014-10-01T12:18:24Z</time>
      </trkpt>
      <trkpt lat="42.3731270" lon="-7.1379270">
        <ele>331.7</ele>
        <time>2014-10-01T12:18:25Z</time>
      </trkpt>
      <trkpt lat="42.3730910" lon="-7.1379670">
        <ele>331.9</ele>
        <time>2014-10-01T12:18:26Z</time>
      </trkpt>
      <trkpt lat="42.3730530" lon="-7.1380100">
        <ele>332.2</ele>
        <time>2014-10-01T12:18:27Z</time>
      </trkpt>
      <trkpt lat="42.3730190" lon="-7.1380500">
        <ele>332.4</ele>
        <time>2014-10-01T12:18:28Z</time>
      </trkpt>
      <trkpt lat="42.3729860" lon="-7.1380860">
        <ele>332.6</ele>
        <time>2014-10-01T12:18:29Z</time>
      </trkpt>
      <trkpt lat="42.3729540" lon="-7.1381210">
        <ele>332.9</ele>
        <time>2014-10-01T12:18:30Z</time>
      </trkpt>
      <trkpt lat="42.3729170" lon="-7.1381600">
        <ele>333.3</ele>
        <time>2014-10-01T12:18:31Z</time>
      </trkpt>
      <trkpt lat="42.3728800" lon="-7.1381990">
        <ele>333.6</ele>
        <time>2014-10-01T12:18:32Z</time>
      </trkpt>
      <trkpt lat="42.3728440" lon="-7.1382380">
        <ele>333.9</ele>
        <time>2014-10-01T12:18:33Z</time>
      </trkpt>
      <trkpt lat="42.3728080" lon="-7.1382760">
        <ele>334.2</ele>
        <time>2014-10-01T12:18:34Z</time>
      </trkpt>
      <trkpt lat="42.3727740" lon="-7.1383130">
        <ele>334.5</ele>
        <time>2014-10-01T12:18:35Z</time>
      </trkpt>
      <trkpt lat="42.3727410" lon="-7.1383510">
        <ele>334.8</ele>
        <time>2014-10-01T12:18:36Z</time>
      </trkpt>
      <trkpt lat="42.3727060" lon="-7.1383890">
        <ele>335.1</ele>
        <time>2014-10-01T12:18:37Z</time>
      </trkpt>
      <trkpt lat="42.3726720" lon="-7.1384230">
        <ele>335.4</ele>
        <time>2014-10-01T12:18:38Z</time>
      </trkpt>
      <trkpt lat="42.3726370" lon="-7.1384550">
        <ele>335.7</ele>
        <time>2014-10-01T12:18:39Z</time>
      </trkpt>
      <trkpt lat="42.3726040" lon="-7.1384850">
        <ele>335.9</ele>
        <time>2014-10-01T12:18:40Z</time>
      </trkpt>
      <trkpt lat="42.3725690" lon="-7.1385160">
        <ele>336.2</ele>
        <time>2014-10-01T12:18:41Z</time>
      </trkpt>
      <trkpt lat="42.3725340" lon="-7.1385480">
        <ele>336.5</ele>
        <time>2014-10-01T12:18:42Z</time>
      </trkpt>
      <trkpt lat="42.3724940" lon="-7.1385830">
        <ele>336.8</ele>
        <time>2014-10-01T12:18:43Z</time>
      </trkpt>
      <trkpt lat="42.3724560" lon="-7.1386150">
        <ele>337.1</ele>
        <time>2014-10-01T12:18:44Z</time>
      </trkpt>
      <trkpt lat="42.3724180" lon="-7.1386460">
        <ele>337.4</ele>
        <time>2014-10-01T12:18:45Z</time>
      </trkpt>
      <trkpt lat="42.3723790" lon="-7.1386780">
        <ele>337.7</ele>
        <time>2014-10-01T12:18:46Z</time>
      </trkpt>
      <trkpt lat="42.3723390" lon="-7.1387120">
        <ele>338.0</ele>
        <time>2014-10-01T12:18:47Z</time>
      </trkpt>
      <trkpt lat="42.3722990" lon="-7.1387440">
        <ele>338.3</ele>
        <time>2014-10-01T12:18:48Z</time>
      </trkpt>
      <trkpt lat="42.3722610" lon="-7.1387740">
        <ele>338.6</ele>
        <time>2014-10-01T12:18:49Z</time>
      </trkpt>
      <trkpt lat="42.3722220" lon="-7.1388040">
        <ele>338.9</ele>
        <time>2014-10-01T12:18:50Z</time>
      </trkpt>
      <trkpt lat="42.3721820" lon="-7.1388370">
        <ele>339.2</ele>
        <time>2014-10-01T12:18:51Z</time>
      </trkpt>
      <trkpt lat="42.3721410" lon="-7.1388720">
        <ele>339.6</ele>
        <time>2014-10-01T12:18:52Z</time>
      </trkpt>
      <trkpt lat="42.3721010" lon="-7.1389030">
        <ele>339.9</ele>
        <time>2014-10-01T12:18:53Z</time>
      </trkpt>
      <trkpt lat="42.3720620" lon="-7.1389320">
        <ele>340.1</ele>
        <time>2014-10-01T12:18:54Z</time>
      </trkpt>
      <trkpt lat="42.3720220" lon="-7.1389600">
        <ele>340.4</ele>
        <time>2014-10-01T12:18:55Z</time>
      </trkpt>
      <trkpt lat="42.3719790" lon="-7.1389930">
        <ele>340.8</ele>
        <time>2014-10-01T12:18:56Z</time>
      </trkpt>
      <trkpt lat="42.3719370" lon="-7.1390240">
        <ele>341.1</ele>
        <time>2014-10-01T12:18:57Z</time>
      </trkpt>
      <trkpt lat="42.3718980" lon="-7.1390560">
        <ele>341.4</ele>
        <time>2014-10-01T12:18:58Z</time>
      </trkpt>
      <trkpt lat="42.3718670" lon="-7.1390820">
        <ele>341.7</ele>
        <time>2014-10-01T12:18:59Z</time>
      </trkpt>
      <trkpt lat="42.3718420" lon="-7.1391190">
        <ele>341.9</ele>
        <time>2014-10-01T12:19:00Z</time>
      </trkpt>
      <trkpt lat="42.3718330" lon="-7.1391650">
        <ele>341.9</ele>
        <time>2014-10-01T12:19:01Z</time>
      </trkpt>
      <trkpt lat="42.3718240" lon="-7.1392210">
        <ele>342.0</ele>
        <time>2014-10-01T12:19:02Z</time>
      </trkpt>
      <trkpt lat="42.3718190" lon="-7.1392790">
        <ele>342.0</ele>
        <time>2014-10-01T12:19:03Z</time>
      </trkpt>
      <trkpt lat="42.3718160" lon="-7.1393400">
        <ele>342.0</ele>
        <time>2014-10-01T12:19:04Z</time>
      </trkpt>
      <trkpt lat="42.3718140" lon="-7.1394060">
        <ele>341.9</ele>
        <time>2014-10-01T12:19:05Z</time>
      </trkpt>
      <trkpt lat="42.3718110" lon="-7.1394710">
        <ele>341.8</ele>
        <time>2014-10-01T12:19:06Z</time>
      </trkpt>
      <trkpt lat="42.3718050" lon="-7.1395390">
        <ele>341.8</ele>
        <time>2014-10-01T12:19:07Z</time>
      </trkpt>
      <trkpt lat="42.3717880" lon="-7.1396020">
        <ele>341.7</ele>
        <time>2014-10-01T12:19:08Z</time>
      </trkpt>
      <trkpt lat="42.3717700" lon="-7.1396650">
        <ele>341.9</ele>
        <time>2014-10-01T12:19:09Z</time>
      </trkpt>
      <trkpt lat="42.3717480" lon="-7.1397250">
        <ele>342.3</ele>
        <time>2014-10-01T12:19:10Z</time>
      </trkpt>
      <trkpt lat="42.3717220" lon="-7.1397850">
        <ele>342.6</ele>
        <time>2014-10-01T12:19:11Z</time>
      </trkpt>
      <trkpt lat="42.3716980" lon="-7.1398370">
        <ele>342.8</ele>
        <time>2014-10-01T12:19:12Z</time>
      </trkpt>
      <trkpt lat="42.3716740" lon="-7.1398880">
        <ele>343.0</ele>
        <time>2014-10-01T12:19:13Z</time>
      </trkpt>
      <trkpt lat="42.3716480" lon="-7.1399410">
        <ele>343.3</ele>
        <time>2014-10-01T12:19:14Z</time>
      </trkpt>
      <trkpt lat="42.3716230" lon="-7.1399920">
        <ele>343.5</ele>
        <time>2014-10-01T12:19:15Z</time>
      </trkpt>
      <trkpt lat="42.3715980" lon="-7.1400390">
        <ele>343.8</ele>
        <time>2014-10-01T12:19:16Z</time>
      </trkpt>
      <trkpt lat="42.3715720" lon="-7.1400840">
        <ele>344.0</ele>
        <time>2014-10-01T12:19:17Z</time>
      </trkpt>
      <trkpt lat="42.3715440" lon="-7.1401320">
        <ele>344.3</ele>
        <time>2014-10-01T12:19:18Z</time>
      </trkpt>
      <trkpt lat="42.3715190" lon="-7.1401730">
        <ele>344.5</ele>
        <time>2014-10-01T12:19:19Z</time>
      </trkpt>
      <trkpt lat="42.3714970" lon="-7.1402070">
        <ele>344.6</ele>
        <time>2014-10-01T12:19:20Z</time>
      </trkpt>
      <trkpt lat="42.3714660" lon="-7.1402520">
        <ele>344.9</ele>
        <time>2014-10-01T12:19:21Z</time>
      </trkpt>
      <trkpt lat="42.3714300" lon="-7.1402960">
        <ele>345.1</ele>
        <time>2014-10-01T12:19:22Z</time>
      </trkpt>
      <trkpt lat="42.3713920" lon="-7.1403380">
        <ele>345.4</ele>
        <time>2014-10-01T12:19:23Z</time>
      </trkpt>
      <trkpt lat="42.3713530" lon="-7.1403770">
        <ele>345.7</ele>
        <time>2014-10-01T12:19:24Z</time>
      </trkpt>
      <trkpt lat="42.3713150" lon="-7.1404110">
        <ele>345.9</ele>
        <time>2014-10-01T12:19:25Z</time>
      </trkpt>
      <trkpt lat="42.3712760" lon="-7.1404410">
        <ele>346.1</ele>
        <time>2014-10-01T12:19:26Z</time>
      </trkpt>
      <trkpt lat="42.3712350" lon="-7.1404690">
        <ele>346.4</ele>
        <time>2014-10-01T12:19:27Z</time>
      </trkpt>
      <trkpt lat="42.3711950" lon="-7.1404930">
        <ele>346.6</ele>
        <time>2014-10-01T12:19:28Z</time>
      </trkpt>
      <trkpt lat="42.3711540" lon="-7.1405160">
        <ele>346.9</ele>
        <time>2014-10-01T12:19:29Z</time>
      </trkpt>
      <trkpt lat="42.3711130" lon="-7.1405420">
        <ele>347.1</ele>
        <time>2014-10-01T12:19:30Z</time>
      </trkpt>
      <trkpt lat="42.3710710" lon="-7.1405680">
        <ele>347.4</ele>
        <time>2014-10-01T12:19:31Z</time>
      </trkpt>
      <trkpt lat="42.3710320" lon="-7.1405910">
        <ele>347.6</ele>
        <time>2014-10-01T12:19:32Z</time>
      </trkpt>
      <trkpt lat="42.3709930" lon="-7.1406120">
        <ele>347.8</ele>
        <time>2014-10-01T12:19:33Z</time>
      </trkpt>
      <trkpt lat="42.3709470" lon="-7.1406320">
        <ele>348.1</ele>
        <time>2014-10-01T12:19:34Z</time>
      </trkpt>
      <trkpt lat="42.3709050" lon="-7.1406470">
        <ele>348.3</ele>
        <time>2014-10-01T12:19:35Z</time>
      </trkpt>
      <trkpt lat="42.3708570" lon="-7.1406640">
        <ele>348.5</ele>
        <time>2014-10-01T12:19:36Z</time>
      </trkpt>
      <trkpt lat="42.3708140" lon="-7.1406790">
        <ele>348.8</ele>
        <time>2014-10-01T12:19:37Z</time>
      </trkpt>
      <trkpt lat="42.3707690" lon="-7.1406920">
        <ele>349.0</ele>
        <time>2014-10-01T12:19:38Z</time>
      </trkpt>
      <trkpt lat="42.3707300" lon="-7.1407040">
        <ele>349.2</ele>
        <time>2014-10-01T12:19:39Z</time>
      </trkpt>
      <trkpt lat="42.3706880" lon="-7.1407140">
        <ele>349.4</ele>
        <time>2014-10-01T12:19:40Z</time>
      </trkpt>
      <trkpt lat="42.3706450" lon="-7.1407220">
        <ele>349.6</ele>
        <time>2014-10-01T12:19:41Z</time>
      </trkpt>
      <trkpt lat="42.3706010" lon="-7.1407290">
        <ele>349.8</ele>
        <time>2014-10-01T12:19:42Z</time>
      </trkpt>
      <trkpt lat="42.3705530" lon="-7.1407360">
        <ele>350.1</ele>
        <time>2014-10-01T12:19:43Z</time>
      </trkpt>
      <trkpt lat="42.3705030" lon="-7.1407430">
        <ele>350.3</ele>
        <time>2014-10-01T12:19:44Z</time>
      </trkpt>
      <trkpt lat="42.3704580" lon="-7.1407480">
        <ele>350.5</ele>
        <time>2014-10-01T12:19:45Z</time>
      </trkpt>
      <trkpt lat="42.3704150" lon="-7.1407580">
        <ele>350.7</ele>
        <time>2014-10-01T12:19:46Z</time>
      </trkpt>
      <trkpt lat="42.3703740" lon="-7.1407630">
        <ele>350.9</ele>
        <time>2014-10-01T12:19:47Z</time>
      </trkpt>
      <trkpt lat="42.3703240" lon="-7.1407690">
        <ele>351.2</ele>
        <time>2014-10-01T12:19:48Z</time>
      </trkpt>
      <trkpt lat="42.3702760" lon="-7.1407730">
        <ele>351.5</ele>
        <time>2014-10-01T12:19:49Z</time>
      </trkpt>
      <trkpt lat="42.3702320" lon="-7.1407750">
        <ele>351.7</ele>
        <time>2014-10-01T12:19:50Z</time>
      </trkpt>
      <trkpt lat="42.3701950" lon="-7.1407740">
        <ele>352.0</ele>
        <time>2014-10-01T12:19:51Z</time>
      </trkpt>
      <trkpt lat="42.3701580" lon="-7.1407720">
        <ele>352.2</ele>
        <time>2014-10-01T12:19:52Z</time>
      </trkpt>
      <trkpt lat="42.3701170" lon="-7.1407690">
        <ele>352.4</ele>
        <time>2014-10-01T12:19:53Z</time>
      </trkpt>
      <trkpt lat="42.3700710" lon="-7.1407630">
        <ele>352.7</ele>
        <time>2014-10-01T12:19:54Z</time>
      </trkpt>
      <trkpt lat="42.3700280" lon="-7.1407540">
        <ele>352.9</ele>
        <time>2014-10-01T12:19:55Z</time>
      </trkpt>
      <trkpt lat="42.3699840" lon="-7.1407470">
        <ele>353.2</ele>
        <time>2014-10-01T12:19:56Z</time>
      </trkpt>
      <trkpt lat="42.3699400" lon="-7.1407380">
        <ele>353.4</ele>
        <time>2014-10-01T12:19:57Z</time>
      </trkpt>
      <trkpt lat="42.3698970" lon="-7.1407290">
        <ele>353.6</ele>
        <time>2014-10-01T12:19:58Z</time>
      </trkpt>
      <trkpt lat="42.3698550" lon="-7.1407150">
        <ele>353.9</ele>
        <time>2014-10-01T12:19:59Z</time>
      </trkpt>
      <trkpt lat="42.3698160" lon="-7.1407000">
        <ele>354.1</ele>
        <time>2014-10-01T12:20:00Z</time>
      </trkpt>
      <trkpt lat="42.3697770" lon="-7.1406850">
        <ele>354.3</ele>
        <time>2014-10-01T12:20:01Z</time>
      </trkpt>
      <trkpt lat="42.3697380" lon="-7.1406690">
        <ele>354.5</ele>
        <time>2014-10-01T12:20:02Z</time>
      </trkpt>
      <trkpt lat="42.3696990" lon="-7.1406520">
        <ele>354.7</ele>
        <time>2014-10-01T12:20:03Z</time>
      </trkpt>
      <trkpt lat="42.3696620" lon="-7.1406340">
        <ele>354.9</ele>
        <time>2014-10-01T12:20:04Z</time>
      </trkpt>
      <trkpt lat="42.3696260" lon="-7.1406130">
        <ele>355.1</ele>
        <time>2014-10-01T12:20:05Z</time>
      </trkpt>
      <trkpt lat="42.3695870" lon="-7.1405900">
        <ele>355.3</ele>
        <time>2014-10-01T12:20:06Z</time>
      </trkpt>
      <trkpt lat="42.3695500" lon="-7.1405670">
        <ele>355.5</ele>
        <time>2014-10-01T12:20:07Z</time>
      </trkpt>
      <trkpt lat="42.3695110" lon="-7.1405490">
        <ele>355.8</ele>
        <time>2014-10-01T12:20:08Z</time>
      </trkpt>
      <trkpt lat="42.3694740" lon="-7.1405320">
        <ele>356.0</ele>
        <time>2014-10-01T12:20:09Z</time>
      </trkpt>
      <trkpt lat="42.3694350" lon="-7.1405190">
        <ele>356.2</ele>
        <time>2014-10-01T12:20:10Z</time>
      </trkpt>
      <trkpt lat="42.3693960" lon="-7.1405050">
        <ele>356.4</ele>
        <time>2014-10-01T12:20:11Z</time>
      </trkpt>
      <trkpt lat="42.3693590" lon="-7.1404900">
        <ele>356.6</ele>
        <time>2014-10-01T12:20:12Z</time>
      </trkpt>
      <trkpt lat="42.3693220" lon="-7.1404750">
        <ele>356.8</ele>
        <time>2014-10-01T12:20:13Z</time>
      </trkpt>
      <trkpt lat="42.3692840" lon="-7.1404630">
        <ele>357.0</ele>
        <time>2014-10-01T12:20:14Z</time>
      </trkpt>
      <trkpt lat="42.3692470" lon="-7.1404540">
        <ele>357.2</ele>
        <time>2014-10-01T12:20:15Z</time>
      </trkpt>
      <trkpt lat="42.3692080" lon="-7.1404440">
        <ele>357.5</ele>
        <time>2014-10-01T12:20:16Z</time>
      </trkpt>
      <trkpt lat="42.3691680" lon="-7.1404360">
        <ele>357.7</ele>
        <time>2014-10-01T12:20:17Z</time>
      </trkpt>
      <trkpt lat="42.3691270" lon="-7.1404270">
        <ele>357.9</ele>
        <time>2014-10-01T12:20:18Z</time>
      </trkpt>
      <trkpt lat="42.3690880" lon="-7.1404210">
        <ele>358.1</ele>
        <time>2014-10-01T12:20:19Z</time>
      </trkpt>
      <trkpt lat="42.3690510" lon="-7.1404140">
        <ele>358.3</ele>
        <time>2014-10-01T12:20:20Z</time>
      </trkpt>
      <trkpt lat="42.3690170" lon="-7.1404070">
        <ele>358.5</ele>
        <time>2014-10-01T12:20:21Z</time>
      </trkpt>
      <trkpt lat="42.3689730" lon="-7.1403960">
        <ele>358.8</ele>
        <time>2014-10-01T12:20:22Z</time>
      </trkpt>
      <trkpt lat="42.3689230" lon="-7.1403850">
        <ele>359.1</ele>
        <time>2014-10-01T12:20:23Z</time>
      </trkpt>
      <trkpt lat="42.3688700" lon="-7.1403730">
        <ele>359.4</ele>
        <time>2014-10-01T12:20:24Z</time>
      </trkpt>
      <trkpt lat="42.3688250" lon="-7.1403630">
        <ele>359.6</ele>
        <time>2014-10-01T12:20:25Z</time>
      </trkpt>
      <trkpt lat="42.3687840" lon="-7.1403540">
        <ele>359.9</ele>
        <time>2014-10-01T12:20:26Z</time>
      </trkpt>
      <trkpt lat="42.3687420" lon="-7.1403440">
        <ele>360.1</ele>
        <time>2014-10-01T12:20:27Z</time>
      </trkpt>
      <trkpt lat="42.3687000" lon="-7.1403330">
        <ele>360.4</ele>
        <time>2014-10-01T12:20:28Z</time>
      </trkpt>
      <trkpt lat="42.3686640" lon="-7.1403220">
        <ele>360.6</ele>
        <time>2014-10-01T12:20:29Z</time>
      </trkpt>
      <trkpt lat="42.3686260" lon="-7.1403100">
        <ele>360.8</ele>
        <time>2014-10-01T12:20:30Z</time>
      </trkpt>
      <trkpt lat="42.3685840" lon="-7.1402970">
        <ele>361.1</ele>
        <time>2014-10-01T12:20:31Z</time>
      </trkpt>
      <trkpt lat="42.3685450" lon="-7.1402870">
        <ele>361.3</ele>
        <time>2014-10-01T12:20:32Z</time>
      </trkpt>
      <trkpt lat="42.3685070" lon="-7.1402790">
        <ele>361.6</ele>
        <time>2014-10-01T12:20:33Z</time>
      </trkpt>
      <trkpt lat="42.3684610" lon="-7.1402700">
        <ele>361.8</ele>
        <time>2014-10-01T12:20:34Z</time>
      </trkpt>
      <trkpt lat="42.3684170" lon="-7.1402620">
        <ele>362.1</ele>
        <time>2014-10-01T12:20:35Z</time>
      </trkpt>
      <trkpt lat="42.3683700" lon="-7.1402550">
        <ele>362.4</ele>
        <time>2014-10-01T12:20:36Z</time>
      </trkpt>
      <trkpt lat="42.3683210" lon="-7.1402470">
        <ele>362.7</ele>
        <time>2014-10-01T12:20:37Z</time>
      </trkpt>
      <trkpt lat="42.3682790" lon="-7.1402400">
        <ele>362.9</ele>
        <time>2014-10-01T12:20:38Z</time>
      </trkpt>
      <trkpt lat="42.3682390" lon="-7.1402350">
        <ele>363.1</ele>
        <time>2014-10-01T12:20:39Z</time>
      </trkpt>
      <trkpt lat="42.3682020" lon="-7.1402280">
        <ele>363.3</ele>
        <time>2014-10-01T12:20:40Z</time>
      </trkpt>
      <trkpt lat="42.3681610" lon="-7.1402230">
        <ele>363.5</ele>
        <time>2014-10-01T12:20:41Z</time>
      </trkpt>
      <trkpt lat="42.3681200" lon="-7.1402180">
        <ele>363.8</ele>
        <time>2014-10-01T12:20:42Z</time>
      </trkpt>
      <trkpt lat="42.3680750" lon="-7.1402100">
        <ele>364.0</ele>
        <time>2014-10-01T12:20:43Z</time>
      </trkpt>
      <trkpt lat="42.3680330" lon="-7.1402040">
        <ele>364.2</ele>
        <time>2014-10-01T12:20:44Z</time>
      </trkpt>
      <trkpt lat="42.3679890" lon="-7.1401970">
        <ele>364.4</ele>
        <time>2014-10-01T12:20:45Z</time>
      </trkpt>
      <trkpt lat="42.3679440" lon="-7.1401910">
        <ele>364.7</ele>
        <time>2014-10-01T12:20:46Z</time>
      </trkpt>
      <trkpt lat="42.3679040" lon="-7.1401860">
        <ele>364.9</ele>
        <time>2014-10-01T12:20:47Z</time>
      </trkpt>
      <trkpt lat="42.3678620" lon="-7.1401820">
        <ele>365.1</ele>
        <time>2014-10-01T12:20:48Z</time>
      </trkpt>
      <trkpt lat="42.3678210" lon="-7.1401780">
        <ele>365.3</ele>
        <time>2014-10-01T12:20:49Z</time>
      </trkpt>
      <trkpt lat="42.3677780" lon="-7.1401750">
        <ele>365.5</ele>
        <time>2014-10-01T12:20:50Z</time>
      </trkpt>
      <trkpt lat="42.3677380" lon="-7.1401730">
        <ele>365.7</ele>
        <time>2014-10-01T12:20:51Z</time>
      </trkpt>
      <trkpt lat="42.3677000" lon="-7.1401720">
        <ele>365.9</ele>
        <time>2014-10-01T12:20:52Z</time>
      </trkpt>
      <trkpt lat="42.3676640" lon="-7.1401710">
        <ele>366.1</ele>
        <time>2014-10-01T12:20:53Z</time>
      </trkpt>
      <trkpt lat="42.3676280" lon="-7.1401700">
        <ele>366.3</ele>
        <time>2014-10-01T12:20:54Z</time>
      </trkpt>
      <trkpt lat="42.3675930" lon="-7.1401710">
        <ele>366.5</ele>
        <time>2014-10-01T12:20:55Z</time>
      </trkpt>
      <trkpt lat="42.3675560" lon="-7.1401740">
        <ele>366.7</ele>
        <time>2014-10-01T12:20:56Z</time>
      </trkpt>
      <trkpt lat="42.3675160" lon="-7.1401810">
        <ele>366.9</ele>
        <time>2014-10-01T12:20:57Z</time>
      </trkpt>
      <trkpt lat="42.3674720" lon="-7.1401910">
        <ele>367.2</ele>
        <time>2014-10-01T12:20:58Z</time>
      </trkpt>
      <trkpt lat="42.3674290" lon="-7.1402020">
        <ele>367.4</ele>
        <time>2014-10-01T12:20:59Z</time>
      </trkpt>
      <trkpt lat="42.3673840" lon="-7.1402110">
        <ele>367.7</ele>
        <time>2014-10-01T12:21:00Z</time>
      </trkpt>
      <trkpt lat="42.3673420" lon="-7.1402210">
        <ele>367.9</ele>
        <time>2014-10-01T12:21:01Z</time>
      </trkpt>
      <trkpt lat="42.3672990" lon="-7.1402310">
        <ele>368.1</ele>
        <time>2014-10-01T12:21:02Z</time>
      </trkpt>
      <trkpt lat="42.3672530" lon="-7.1402420">
        <ele>368.4</ele>
        <time>2014-10-01T12:21:03Z</time>
      </trkpt>
      <trkpt lat="42.3672060" lon="-7.1402510">
        <ele>368.7</ele>
        <time>2014-10-01T12:21:04Z</time>
      </trkpt>
      <trkpt lat="42.3671660" lon="-7.1402590">
        <ele>368.9</ele>
        <time>2014-10-01T12:21:05Z</time>
      </trkpt>
      <trkpt lat="42.3671240" lon="-7.1402650">
        <ele>369.1</ele>
        <time>2014-10-01T12:21:06Z</time>
      </trkpt>
      <trkpt lat="42.3670820" lon="-7.1402700">
        <ele>369.4</ele>
        <time>2014-10-01T12:21:07Z</time>
      </trkpt>
      <trkpt lat="42.3670420" lon="-7.1402740">
        <ele>369.6</ele>
        <time>2014-10-01T12:21:08Z</time>
      </trkpt>
      <trkpt lat="42.3670070" lon="-7.1402780">
        <ele>369.9</ele>
        <time>2014-10-01T12:21:09Z</time>
      </trkpt>
      <trkpt lat="42.3669710" lon="-7.1402800">
        <ele>370.1</ele>
        <time>2014-10-01T12:21:10Z</time>
      </trkpt>
      <trkpt lat="42.3669310" lon="-7.1402850">
        <ele>370.3</ele>
        <time>2014-10-01T12:21:11Z</time>
      </trkpt>
      <trkpt lat="42.3668960" lon="-7.1402910">
        <ele>370.5</ele>
        <time>2014-10-01T12:21:12Z</time>
      </trkpt>
      <trkpt lat="42.3668570" lon="-7.1402970">
        <ele>370.4</ele>
        <time>2014-10-01T12:21:13Z</time>
      </trkpt>
      <trkpt lat="42.3668140" lon="-7.1403050">
        <ele>370.5</ele>
        <time>2014-10-01T12:21:14Z</time>
      </trkpt>
      <trkpt lat="42.3667710" lon="-7.1403120">
        <ele>370.6</ele>
        <time>2014-10-01T12:21:15Z</time>
      </trkpt>
      <trkpt lat="42.3667270" lon="-7.1403190">
        <ele>370.7</ele>
        <time>2014-10-01T12:21:16Z</time>
      </trkpt>
      <trkpt lat="42.3666810" lon="-7.1403250">
        <ele>370.9</ele>
        <time>2014-10-01T12:21:17Z</time>
      </trkpt>
      <trkpt lat="42.3666300" lon="-7.1403310">
        <ele>371.1</ele>
        <time>2014-10-01T12:21:18Z</time>
      </trkpt>
      <trkpt lat="42.3665850" lon="-7.1403370">
        <ele>371.3</ele>
        <time>2014-10-01T12:21:19Z</time>
      </trkpt>
      <trkpt lat="42.3665340" lon="-7.1403440">
        <ele>371.4</ele>
        <time>2014-10-01T12:21:20Z</time>
      </trkpt>
      <trkpt lat="42.3664940" lon="-7.1403500">
        <ele>371.6</ele>
        <time>2014-10-01T12:21:21Z</time>
      </trkpt>
      <trkpt lat="42.3664530" lon="-7.1403550">
        <ele>371.8</ele>
        <time>2014-10-01T12:21:22Z</time>
      </trkpt>
      <trkpt lat="42.3664130" lon="-7.1403600">
        <ele>371.9</ele>
        <time>2014-10-01T12:21:23Z</time>
      </trkpt>
      <trkpt lat="42.3663690" lon="-7.1403690">
        <ele>372.1</ele>
        <time>2014-10-01T12:21:24Z</time>
      </trkpt>
      <trkpt lat="42.3663240" lon="-7.1403770">
        <ele>372.3</ele>
        <time>2014-10-01T12:21:25Z</time>
      </trkpt>
      <trkpt lat="42.3662770" lon="-7.1403840">
        <ele>372.5</ele>
        <time>2014-10-01T12:21:26Z</time>
      </trkpt>
      <trkpt lat="42.3662360" lon="-7.1403890">
        <ele>372.7</ele>
        <time>2014-10-01T12:21:27Z</time>
      </trkpt>
      <trkpt lat="42.3661950" lon="-7.1403950">
        <ele>372.9</ele>
        <time>2014-10-01T12:21:28Z</time>
      </trkpt>
      <trkpt lat="42.3661540" lon="-7.1404020">
        <ele>373.0</ele>
        <time>2014-10-01T12:21:29Z</time>
      </trkpt>
      <trkpt lat="42.3661120" lon="-7.1404100">
        <ele>373.2</ele>
        <time>2014-10-01T12:21:30Z</time>
      </trkpt>
      <trkpt lat="42.3660750" lon="-7.1404170">
        <ele>373.4</ele>
        <time>2014-10-01T12:21:31Z</time>
      </trkpt>
      <trkpt lat="42.3660310" lon="-7.1404250">
        <ele>373.6</ele>
        <time>2014-10-01T12:21:32Z</time>
      </trkpt>
      <trkpt lat="42.3659880" lon="-7.1404330">
        <ele>373.8</ele>
        <time>2014-10-01T12:21:33Z</time>
      </trkpt>
      <trkpt lat="42.3659430" lon="-7.1404430">
        <ele>374.1</ele>
        <time>2014-10-01T12:21:34Z</time>
      </trkpt>
      <trkpt lat="42.3658960" lon="-7.1404560">
        <ele>374.3</ele>
        <time>2014-10-01T12:21:35Z</time>
      </trkpt>
      <trkpt lat="42.3658440" lon="-7.1404750">
        <ele>374.6</ele>
        <time>2014-10-01T12:21:36Z</time>
      </trkpt>
      <trkpt lat="42.3658010" lon="-7.1404970">
        <ele>374.7</ele>
        <time>2014-10-01T12:21:37Z</time>
      </trkpt>
      <trkpt lat="42.3657630" lon="-7.1405170">
        <ele>374.9</ele>
        <time>2014-10-01T12:21:38Z</time>
      </trkpt>
      <trkpt lat="42.3657280" lon="-7.1405400">
        <ele>375.2</ele>
        <time>2014-10-01T12:21:39Z</time>
      </trkpt>
      <trkpt lat="42.3656900" lon="-7.1405630">
        <ele>375.5</ele>
        <time>2014-10-01T12:21:40Z</time>
      </trkpt>
      <trkpt lat="42.3656510" lon="-7.1405870">
        <ele>375.8</ele>
        <time>2014-10-01T12:21:41Z</time>
      </trkpt>
      <trkpt lat="42.3656100" lon="-7.1406120">
        <ele>376.1</ele>
        <time>2014-10-01T12:21:42Z</time>
      </trkpt>
      <trkpt lat="42.3655690" lon="-7.1406350">
        <ele>376.4</ele>
        <time>2014-10-01T12:21:43Z</time>
      </trkpt>
      <trkpt lat="42.3655300" lon="-7.1406540">
        <ele>376.7</ele>
        <time>2014-10-01T12:21:44Z</time>
      </trkpt>
      <trkpt lat="42.3654950" lon="-7.1406700">
        <ele>377.0</ele>
        <time>2014-10-01T12:21:45Z</time>
      </trkpt>
      <trkpt lat="42.3654560" lon="-7.1406900">
        <ele>377.3</ele>
        <time>2014-10-01T12:21:46Z</time>
      </trkpt>
      <trkpt lat="42.3654200" lon="-7.1407060">
        <ele>377.5</ele>
        <time>2014-10-01T12:21:47Z</time>
      </trkpt>
      <trkpt lat="42.3653830" lon="-7.1407200">
        <ele>377.8</ele>
        <time>2014-10-01T12:21:48Z</time>
      </trkpt>
      <trkpt lat="42.3653440" lon="-7.1407330">
        <ele>377.9</ele>
        <time>2014-10-01T12:21:49Z</time>
      </trkpt>
      <trkpt lat="42.3653070" lon="-7.1407440">
        <ele>378.1</ele>
        <time>2014-10-01T12:21:50Z</time>
      </trkpt>
      <trkpt lat="42.3652730" lon="-7.1407520">
        <ele>378.2</ele>
        <time>2014-10-01T12:21:51Z</time>
      </trkpt>
      <trkpt lat="42.3652350" lon="-7.1407590">
        <ele>378.4</ele>
        <time>2014-10-01T12:21:52Z</time>
      </trkpt>
      <trkpt lat="42.3651950" lon="-7.1407640">
        <ele>378.5</ele>
        <time>2014-10-01T12:21:53Z</time>
      </trkpt>
      <trkpt lat="42.3651530" lon="-7.1407670">
        <ele>378.7</ele>
        <time>2014-10-01T12:21:54Z</time>
      </trkpt>
      <trkpt lat="42.3651040" lon="-7.1407720">
        <ele>379.0</ele>
        <time>2014-10-01T12:21:55Z</time>
      </trkpt>
      <trkpt lat="42.3650520" lon="-7.1407750">
        <ele>379.2</ele>
        <time>2014-10-01T12:21:56Z</time>
      </trkpt>
      <trkpt lat="42.3650030" lon="-7.1407780">
        <ele>379.5</ele>
        <time>2014-10-01T12:21:57Z</time>
      </trkpt>
      <trkpt lat="42.3649580" lon="-7.1407810">
        <ele>379.7</ele>
        <time>2014-10-01T12:21:58Z</time>
      </trkpt>
      <trkpt lat="42.3649160" lon="-7.1407840">
        <ele>379.9</ele>
        <time>2014-10-01T12:21:59Z</time>
      </trkpt>
      <trkpt lat="42.3648750" lon="-7.1407840">
        <ele>380.0</ele>
        <time>2014-10-01T12:22:00Z</time>
      </trkpt>
      <trkpt lat="42.3648320" lon="-7.1407850">
        <ele>380.2</ele>
        <time>2014-10-01T12:22:01Z</time>
      </trkpt>
      <trkpt lat="42.3647930" lon="-7.1407840">
        <ele>380.4</ele>
        <time>2014-10-01T12:22:02Z</time>
      </trkpt>
      <trkpt lat="42.3647550" lon="-7.1407840">
        <ele>380.5</ele>
        <time>2014-10-01T12:22:03Z</time>
      </trkpt>
      <trkpt lat="42.3647150" lon="-7.1407840">
        <ele>380.7</ele>
        <time>2014-10-01T12:22:04Z</time>
      </trkpt>
      <trkpt lat="42.3646730" lon="-7.1407840">
        <ele>380.9</ele>
        <time>2014-10-01T12:22:05Z</time>
      </trkpt>
      <trkpt lat="42.3646290" lon="-7.1407860">
        <ele>381.1</ele>
        <time>2014-10-01T12:22:06Z</time>
      </trkpt>
      <trkpt lat="42.3645830" lon="-7.1407880">
        <ele>381.3</ele>
        <time>2014-10-01T12:22:07Z</time>
      </trkpt>
      <trkpt lat="42.3645360" lon="-7.1407940">
        <ele>381.6</ele>
        <time>2014-10-01T12:22:08Z</time>
      </trkpt>
      <trkpt lat="42.3644940" lon="-7.1407990">
        <ele>381.8</ele>
        <time>2014-10-01T12:22:09Z</time>
      </trkpt>
      <trkpt lat="42.3644480" lon="-7.1408070">
        <ele>382.0</ele>
        <time>2014-10-01T12:22:10Z</time>
      </trkpt>
      <trkpt lat="42.3644020" lon="-7.1408150">
        <ele>382.2</ele>
        <time>2014-10-01T12:22:11Z</time>
      </trkpt>
      <trkpt lat="42.3643600" lon="-7.1408240">
        <ele>382.5</ele>
        <time>2014-10-01T12:22:12Z</time>
      </trkpt>
      <trkpt lat="42.3643140" lon="-7.1408360">
        <ele>382.7</ele>
        <time>2014-10-01T12:22:13Z</time>
      </trkpt>
      <trkpt lat="42.3642720" lon="-7.1408490">
        <ele>382.9</ele>
        <time>2014-10-01T12:22:14Z</time>
      </trkpt>
      <trkpt lat="42.3642280" lon="-7.1408640">
        <ele>383.2</ele>
        <time>2014-10-01T12:22:15Z</time>
      </trkpt>
      <trkpt lat="42.3641830" lon="-7.1408840">
        <ele>383.4</ele>
        <time>2014-10-01T12:22:16Z</time>
      </trkpt>
      <trkpt lat="42.3641410" lon="-7.1409050">
        <ele>383.7</ele>
        <time>2014-10-01T12:22:17Z</time>
      </trkpt>
      <trkpt lat="42.3641020" lon="-7.1409290">
        <ele>384.0</ele>
        <time>2014-10-01T12:22:18Z</time>
      </trkpt>
      <trkpt lat="42.3640600" lon="-7.1409560">
        <ele>384.3</ele>
        <time>2014-10-01T12:22:19Z</time>
      </trkpt>
      <trkpt lat="42.3640190" lon="-7.1409820">
        <ele>384.5</ele>
        <time>2014-10-01T12:22:20Z</time>
      </trkpt>
      <trkpt lat="42.3639810" lon="-7.1410060">
        <ele>384.7</ele>
        <time>2014-10-01T12:22:21Z</time>
      </trkpt>
      <trkpt lat="42.3639500" lon="-7.1410260">
        <ele>384.9</ele>
        <time>2014-10-01T12:22:22Z</time>
      </trkpt>
      <trkpt lat="42.3639140" lon="-7.1410460">
        <ele>385.1</ele>
        <time>2014-10-01T12:22:23Z</time>
      </trkpt>
      <trkpt lat="42.3638820" lon="-7.1410670">
        <ele>385.3</ele>
        <time>2014-10-01T12:22:24Z</time>
      </trkpt>
      <trkpt lat="42.3638460" lon="-7.1410890">
        <ele>385.5</ele>
        <time>2014-10-01T12:22:25Z</time>
      </trkpt>
      <trkpt lat="42.3638090" lon="-7.1411120">
        <ele>385.7</ele>
        <time>2014-10-01T12:22:26Z</time>
      </trkpt>
      <trkpt lat="42.3637600" lon="-7.1411440">
        <ele>386.0</ele>
        <time>2014-10-01T12:22:27Z</time>
      </trkpt>
      <trkpt lat="42.3637180" lon="-7.1411710">
        <ele>386.3</ele>
        <time>2014-10-01T12:22:28Z</time>
      </trkpt>
      <trkpt lat="42.3636750" lon="-7.1411980">
        <ele>386.5</ele>
        <time>2014-10-01T12:22:29Z</time>
      </trkpt>
      <trkpt lat="42.3636320" lon="-7.1412250">
        <ele>386.8</ele>
        <time>2014-10-01T12:22:30Z</time>
      </trkpt>
      <trkpt lat="42.3635880" lon="-7.1412510">
        <ele>387.1</ele>
        <time>2014-10-01T12:22:31Z</time>
      </trkpt>
      <trkpt lat="42.3635480" lon="-7.1412740">
        <ele>387.3</ele>
        <time>2014-10-01T12:22:32Z</time>
      </trkpt>
      <trkpt lat="42.3635070" lon="-7.1412980">
        <ele>387.5</ele>
        <time>2014-10-01T12:22:33Z</time>
      </trkpt>
      <trkpt lat="42.3634660" lon="-7.1413230">
        <ele>387.7</ele>
        <time>2014-10-01T12:22:34Z</time>
      </trkpt>
      <trkpt lat="42.3634240" lon="-7.1413470">
        <ele>388.0</ele>
        <time>2014-10-01T12:22:35Z</time>
      </trkpt>
      <trkpt lat="42.3633850" lon="-7.1413710">
        <ele>388.2</ele>
        <time>2014-10-01T12:22:36Z</time>
      </trkpt>
      <trkpt lat="42.3633520" lon="-7.1413910">
        <ele>388.3</ele>
        <time>2014-10-01T12:22:37Z</time>
      </trkpt>
      <trkpt lat="42.3633140" lon="-7.1414140">
        <ele>388.5</ele>
        <time>2014-10-01T12:22:38Z</time>
      </trkpt>
      <trkpt lat="42.3632790" lon="-7.1414340">
        <ele>388.7</ele>
        <time>2014-10-01T12:22:39Z</time>
      </trkpt>
      <trkpt lat="42.3632460" lon="-7.1414550">
        <ele>388.9</ele>
        <time>2014-10-01T12:22:40Z</time>
      </trkpt>
      <trkpt lat="42.3632110" lon="-7.1414750">
        <ele>389.1</ele>
        <time>2014-10-01T12:22:41Z</time>
      </trkpt>
      <trkpt lat="42.3631770" lon="-7.1414940">
        <ele>389.3</ele>
        <time>2014-10-01T12:22:42Z</time>
      </trkpt>
      <trkpt lat="42.3631410" lon="-7.1415140">
        <ele>389.5</ele>
        <time>2014-10-01T12:22:43Z</time>
      </trkpt>
      <trkpt lat="42.3631070" lon="-7.1415360">
        <ele>389.7</ele>
        <time>2014-10-01T12:22:44Z</time>
      </trkpt>
      <trkpt lat="42.3630730" lon="-7.1415570">
        <ele>390.0</ele>
        <time>2014-10-01T12:22:45Z</time>
      </trkpt>
      <trkpt lat="42.3630330" lon="-7.1415850">
        <ele>390.2</ele>
        <time>2014-10-01T12:22:46Z</time>
      </trkpt>
      <trkpt lat="42.3629860" lon="-7.1416190">
        <ele>390.5</ele>
        <time>2014-10-01T12:22:47Z</time>
      </trkpt>
      <trkpt lat="42.3629410" lon="-7.1416520">
        <ele>390.8</ele>
        <time>2014-10-01T12:22:48Z</time>
      </trkpt>
      <trkpt lat="42.3629000" lon="-7.1416810">
        <ele>391.1</ele>
        <time>2014-10-01T12:22:49Z</time>
      </trkpt>
      <trkpt lat="42.3628610" lon="-7.1417080">
        <ele>391.3</ele>
        <time>2014-10-01T12:22:50Z</time>
      </trkpt>
      <trkpt lat="42.3628240" lon="-7.1417360">
        <ele>391.6</ele>
        <time>2014-10-01T12:22:51Z</time>
      </trkpt>
      <trkpt lat="42.3627860" lon="-7.1417640">
        <ele>391.8</ele>
        <time>2014-10-01T12:22:52Z</time>
      </trkpt>
      <trkpt lat="42.3627490" lon="-7.1417920">
        <ele>392.1</ele>
        <time>2014-10-01T12:22:53Z</time>
      </trkpt>
      <trkpt lat="42.3627110" lon="-7.1418200">
        <ele>392.3</ele>
        <time>2014-10-01T12:22:54Z</time>
      </trkpt>
      <trkpt lat="42.3626730" lon="-7.1418480">
        <ele>392.5</ele>
        <time>2014-10-01T12:22:55Z</time>
      </trkpt>
      <trkpt lat="42.3626400" lon="-7.1418740">
        <ele>392.8</ele>
        <time>2014-10-01T12:22:56Z</time>
      </trkpt>
      <trkpt lat="42.3626060" lon="-7.1418990">
        <ele>393.0</ele>
        <time>2014-10-01T12:22:57Z</time>
      </trkpt>
      <trkpt lat="42.3625740" lon="-7.1419240">
        <ele>393.2</ele>
        <time>2014-10-01T12:22:58Z</time>
      </trkpt>
      <trkpt lat="42.3625400" lon="-7.1419500">
        <ele>393.4</ele>
        <time>2014-10-01T12:22:59Z</time>
      </trkpt>
      <trkpt lat="42.3625040" lon="-7.1419730">
        <ele>393.7</ele>
        <time>2014-10-01T12:23:00Z</time>
      </trkpt>
      <trkpt lat="42.3624680" lon="-7.1419930">
        <ele>394.0</ele>
        <time>2014-10-01T12:23:01Z</time>
      </trkpt>
      <trkpt lat="42.3624290" lon="-7.1420120">
        <ele>394.2</ele>
        <time>2014-10-01T12:23:02Z</time>
      </trkpt>
      <trkpt lat="42.3623860" lon="-7.1420240">
        <ele>394.5</ele>
        <time>2014-10-01T12:23:03Z</time>
      </trkpt>
      <trkpt lat="42.3623450" lon="-7.1420330">
        <ele>394.8</ele>
        <time>2014-10-01T12:23:04Z</time>
      </trkpt>
      <trkpt lat="42.3623020" lon="-7.1420400">
        <ele>395.0</ele>
        <time>2014-10-01T12:23:05Z</time>
      </trkpt>
      <trkpt lat="42.3622590" lon="-7.1420450">
        <ele>395.3</ele>
        <time>2014-10-01T12:23:06Z</time>
      </trkpt>
      <trkpt lat="42.3622160" lon="-7.1420480">
        <ele>395.5</ele>
        <time>2014-10-01T12:23:07Z</time>
      </trkpt>
      <trkpt lat="42.3621700" lon="-7.1420500">
        <ele>395.8</ele>
        <time>2014-10-01T12:23:08Z</time>
      </trkpt>
      <trkpt lat="42.3621310" lon="-7.1420480">
        <ele>396.0</ele>
        <time>2014-10-01T12:23:09Z</time>
      </trkpt>
      <trkpt lat="42.3620920" lon="-7.1420460">
        <ele>396.2</ele>
        <time>2014-10-01T12:23:10Z</time>
      </trkpt>
      <trkpt lat="42.3620550" lon="-7.1420420">
        <ele>396.4</ele>
        <time>2014-10-01T12:23:11Z</time>
      </trkpt>
      <trkpt lat="42.3620190" lon="-7.1420380">
        <ele>396.6</ele>
        <time>2014-10-01T12:23:12Z</time>
      </trkpt>
      <trkpt lat="42.3619800" lon="-7.1420320">
        <ele>396.8</ele>
        <time>2014-10-01T12:23:13Z</time>
      </trkpt>
      <trkpt lat="42.3619380" lon="-7.1420270">
        <ele>397.0</ele>
        <time>2014-10-01T12:23:14Z</time>
      </trkpt>
      <trkpt lat="42.3618970" lon="-7.1420230">
        <ele>397.3</ele>
        <time>2014-10-01T12:23:15Z</time>
      </trkpt>
      <trkpt lat="42.3618590" lon="-7.1420200">
        <ele>397.4</ele>
        <time>2014-10-01T12:23:16Z</time>
      </trkpt>
      <trkpt lat="42.3618220" lon="-7.1420150">
        <ele>397.6</ele>
        <time>2014-10-01T12:23:17Z</time>
      </trkpt>
      <trkpt lat="42.3617820" lon="-7.1420100">
        <ele>397.8</ele>
        <time>2014-10-01T12:23:18Z</time>
      </trkpt>
      <trkpt lat="42.3617420" lon="-7.1420050">
        <ele>398.1</ele>
        <time>2014-10-01T12:23:19Z</time>
      </trkpt>
      <trkpt lat="42.3617010" lon="-7.1420000">
        <ele>398.3</ele>
        <time>2014-10-01T12:23:20Z</time>
      </trkpt>
      <trkpt lat="42.3616590" lon="-7.1419940">
        <ele>398.6</ele>
        <time>2014-10-01T12:23:21Z</time>
      </trkpt>
      <trkpt lat="42.3616190" lon="-7.1419870">
        <ele>398.9</ele>
        <time>2014-10-01T12:23:22Z</time>
      </trkpt>
      <trkpt lat="42.3615780" lon="-7.1419790">
        <ele>399.1</ele>
        <time>2014-10-01T12:23:23Z</time>
      </trkpt>
      <trkpt lat="42.3615380" lon="-7.1419730">
        <ele>399.4</ele>
        <time>2014-10-01T12:23:24Z</time>
      </trkpt>
      <trkpt lat="42.3614960" lon="-7.1419650">
        <ele>399.6</ele>
        <time>2014-10-01T12:23:25Z</time>
      </trkpt>
      <trkpt lat="42.3614560" lon="-7.1419590">
        <ele>399.9</ele>
        <time>2014-10-01T12:23:26Z</time>
      </trkpt>
      <trkpt lat="42.3614150" lon="-7.1419540">
        <ele>400.1</ele>
        <time>2014-10-01T12:23:27Z</time>
      </trkpt>
      <trkpt lat="42.3613740" lon="-7.1419480">
        <ele>400.4</ele>
        <time>2014-10-01T12:23:28Z</time>
      </trkpt>
      <trkpt lat="42.3613340" lon="-7.1419390">
        <ele>400.6</ele>
        <time>2014-10-01T12:23:29Z</time>
      </trkpt>
      <trkpt lat="42.3612940" lon="-7.1419340">
        <ele>400.9</ele>
        <time>2014-10-01T12:23:30Z</time>
      </trkpt>
      <trkpt lat="42.3612550" lon="-7.1419350">
        <ele>401.2</ele>
        <time>2014-10-01T12:23:31Z</time>
      </trkpt>
      <trkpt lat="42.3612140" lon="-7.1419370">
        <ele>401.4</ele>
        <time>2014-10-01T12:23:32Z</time>
      </trkpt>
      <trkpt lat="42.3611740" lon="-7.1419490">
        <ele>401.7</ele>
        <time>2014-10-01T12:23:33Z</time>
      </trkpt>
      <trkpt lat="42.3611350" lon="-7.1419600">
        <ele>401.9</ele>
        <time>2014-10-01T12:23:34Z</time>
      </trkpt>
      <trkpt lat="42.3610900" lon="-7.1419730">
        <ele>402.1</ele>
        <time>2014-10-01T12:23:35Z</time>
      </trkpt>
      <trkpt lat="42.3610440" lon="-7.1419830">
        <ele>402.2</ele>
        <time>2014-10-01T12:23:36Z</time>
      </trkpt>
      <trkpt lat="42.3610020" lon="-7.1419960">
        <ele>402.4</ele>
        <time>2014-10-01T12:23:37Z</time>
      </trkpt>
      <trkpt lat="42.3609580" lon="-7.1420110">
        <ele>402.6</ele>
        <time>2014-10-01T12:23:38Z</time>
      </trkpt>
      <trkpt lat="42.3609140" lon="-7.1420270">
        <ele>402.9</ele>
        <time>2014-10-01T12:23:39Z</time>
      </trkpt>
      <trkpt lat="42.3608710" lon="-7.1420430">
        <ele>403.1</ele>
        <time>2014-10-01T12:23:40Z</time>
      </trkpt>
      <trkpt lat="42.3608270" lon="-7.1420610">
        <ele>403.4</ele>
        <time>2014-10-01T12:23:41Z</time>
      </trkpt>
      <trkpt lat="42.3607870" lon="-7.1420740">
        <ele>403.6</ele>
        <time>2014-10-01T12:23:42Z</time>
      </trkpt>
      <trkpt lat="42.3607510" lon="-7.1420870">
        <ele>403.8</ele>
        <time>2014-10-01T12:23:43Z</time>
      </trkpt>
      <trkpt lat="42.3607170" lon="-7.1421020">
        <ele>404.0</ele>
        <time>2014-10-01T12:23:44Z</time>
      </trkpt>
      <trkpt lat="42.3606820" lon="-7.1421200">
        <ele>404.2</ele>
        <time>2014-10-01T12:23:45Z</time>
      </trkpt>
      <trkpt lat="42.3606430" lon="-7.1421410">
        <ele>404.4</ele>
        <time>2014-10-01T12:23:46Z</time>
      </trkpt>
      <trkpt lat="42.3606040" lon="-7.1421640">
        <ele>404.7</ele>
        <time>2014-10-01T12:23:47Z</time>
      </trkpt>
      <trkpt lat="42.3605680" lon="-7.1421850">
        <ele>404.9</ele>
        <time>2014-10-01T12:23:48Z</time>
      </trkpt>
      <trkpt lat="42.3605260" lon="-7.1422070">
        <ele>405.1</ele>
        <time>2014-10-01T12:23:49Z</time>
      </trkpt>
      <trkpt lat="42.3604850" lon="-7.1422240">
        <ele>405.3</ele>
        <time>2014-10-01T12:23:50Z</time>
      </trkpt>
      <trkpt lat="42.3604460" lon="-7.1422410">
        <ele>405.6</ele>
        <time>2014-10-01T12:23:51Z</time>
      </trkpt>
      <trkpt lat="42.3604050" lon="-7.1422600">
        <ele>405.8</ele>
        <time>2014-10-01T12:23:52Z</time>
      </trkpt>
      <trkpt lat="42.3603670" lon="-7.1422810">
        <ele>406.0</ele>
        <time>2014-10-01T12:23:53Z</time>
      </trkpt>
      <trkpt lat="42.3603300" lon="-7.1422970">
        <ele>406.2</ele>
        <time>2014-10-01T12:23:54Z</time>
      </trkpt>
      <trkpt lat="42.3602980" lon="-7.1423120">
        <ele>406.4</ele>
        <time>2014-10-01T12:23:55Z</time>
      </trkpt>
      <trkpt lat="42.3602570" lon="-7.1423320">
        <ele>406.7</ele>
        <time>2014-10-01T12:23:56Z</time>
      </trkpt>
      <trkpt lat="42.3602160" lon="-7.1423540">
        <ele>406.9</ele>
        <time>2014-10-01T12:23:57Z</time>
      </trkpt>
      <trkpt lat="42.3601760" lon="-7.1423760">
        <ele>407.1</ele>
        <time>2014-10-01T12:23:58Z</time>
      </trkpt>
      <trkpt lat="42.3601400" lon="-7.1423950">
        <ele>407.3</ele>
        <time>2014-10-01T12:23:59Z</time>
      </trkpt>
      <trkpt lat="42.3601070" lon="-7.1424120">
        <ele>407.5</ele>
        <time>2014-10-01T12:24:00Z</time>
      </trkpt>
      <trkpt lat="42.3600720" lon="-7.1424280">
        <ele>407.7</ele>
        <time>2014-10-01T12:24:01Z</time>
      </trkpt>
      <trkpt lat="42.3600340" lon="-7.1424450">
        <ele>407.9</ele>
        <time>2014-10-01T12:24:02Z</time>
      </trkpt>
      <trkpt lat="42.3599930" lon="-7.1424610">
        <ele>408.1</ele>
        <time>2014-10-01T12:24:03Z</time>
      </trkpt>
      <trkpt lat="42.3599590" lon="-7.1424770">
        <ele>408.3</ele>
        <time>2014-10-01T12:24:04Z</time>
      </trkpt>
      <trkpt lat="42.3599250" lon="-7.1424930">
        <ele>408.5</ele>
        <time>2014-10-01T12:24:05Z</time>
      </trkpt>
      <trkpt lat="42.3598900" lon="-7.1425110">
        <ele>408.7</ele>
        <time>2014-10-01T12:24:06Z</time>
      </trkpt>
      <trkpt lat="42.3598530" lon="-7.1425280">
        <ele>408.9</ele>
        <time>2014-10-01T12:24:07Z</time>
      </trkpt>
      <trkpt lat="42.3598130" lon="-7.1425480">
        <ele>409.2</ele>
        <time>2014-10-01T12:24:08Z</time>
      </trkpt>
      <trkpt lat="42.3597700" lon="-7.1425680">
        <ele>409.4</ele>
        <time>2014-10-01T12:24:09Z</time>
      </trkpt>
      <trkpt lat="42.3597270" lon="-7.1425860">
        <ele>409.7</ele>
        <time>2014-10-01T12:24:10Z</time>
      </trkpt>
      <trkpt lat="42.3596860" lon="-7.1426020">
        <ele>409.9</ele>
        <time>2014-10-01T12:24:11Z</time>
      </trkpt>
      <trkpt lat="42.3596450" lon="-7.1426180">
        <ele>410.1</ele>
        <time>2014-10-01T12:24:12Z</time>
      </trkpt>
      <trkpt lat="42.3596010" lon="-7.1426330">
        <ele>410.4</ele>
        <time>2014-10-01T12:24:13Z</time>
      </trkpt>
      <trkpt lat="42.3595580" lon="-7.1426500">
        <ele>410.6</ele>
        <time>2014-10-01T12:24:14Z</time>
      </trkpt>
      <trkpt lat="42.3595160" lon="-7.1426670">
        <ele>410.9</ele>
        <time>2014-10-01T12:24:15Z</time>
      </trkpt>
      <trkpt lat="42.3594760" lon="-7.1426840">
        <ele>411.1</ele>
        <time>2014-10-01T12:24:16Z</time>
      </trkpt>
      <trkpt lat="42.3594370" lon="-7.1426990">
        <ele>411.4</ele>
        <time>2014-10-01T12:24:17Z</time>
      </trkpt>
      <trkpt lat="42.3593990" lon="-7.1427140">
        <ele>411.6</ele>
        <time>2014-10-01T12:24:18Z</time>
      </trkpt>
      <trkpt lat="42.3593600" lon="-7.1427290">
        <ele>411.8</ele>
        <time>2014-10-01T12:24:19Z</time>
      </trkpt>
      <trkpt lat="42.3593200" lon="-7.1427450">
        <ele>412.1</ele>
        <time>2014-10-01T12:24:20Z</time>
      </trkpt>
      <trkpt lat="42.3592780" lon="-7.1427590">
        <ele>412.3</ele>
        <time>2014-10-01T12:24:21Z</time>
      </trkpt>
      <trkpt lat="42.3592440" lon="-7.1427750">
        <ele>412.6</ele>
        <time>2014-10-01T12:24:22Z</time>
      </trkpt>
      <trkpt lat="42.3592070" lon="-7.1427920">
        <ele>412.8</ele>
        <time>2014-10-01T12:24:23Z</time>
      </trkpt>
      <trkpt lat="42.3591710" lon="-7.1428110">
        <ele>413.0</ele>
        <time>2014-10-01T12:24:24Z</time>
      </trkpt>
      <trkpt lat="42.3591330" lon="-7.1428300">
        <ele>413.2</ele>
        <time>2014-10-01T12:24:25Z</time>
      </trkpt>
      <trkpt lat="42.3590920" lon="-7.1428520">
        <ele>413.5</ele>
        <time>2014-10-01T12:24:26Z</time>
      </trkpt>
      <trkpt lat="42.3590470" lon="-7.1428740">
        <ele>413.7</ele>
        <time>2014-10-01T12:24:27Z</time>
      </trkpt>
      <trkpt lat="42.3590030" lon="-7.1428970">
        <ele>414.0</ele>
        <time>2014-10-01T12:24:28Z</time>
      </trkpt>
      <trkpt lat="42.3589600" lon="-7.1429220">
        <ele>414.2</ele>
        <time>2014-10-01T12:24:29Z</time>
      </trkpt>
      <trkpt lat="42.3589220" lon="-7.1429460">
        <ele>414.5</ele>
        <time>2014-10-01T12:24:30Z</time>
      </trkpt>
      <trkpt lat="42.3588900" lon="-7.1429720">
        <ele>414.7</ele>
        <time>2014-10-01T12:24:31Z</time>
      </trkpt>
      <trkpt lat="42.3588530" lon="-7.1429990">
        <ele>414.9</ele>
        <time>2014-10-01T12:24:32Z</time>
      </trkpt>
      <trkpt lat="42.3588160" lon="-7.1430250">
        <ele>415.2</ele>
        <time>2014-10-01T12:24:33Z</time>
      </trkpt>
      <trkpt lat="42.3587790" lon="-7.1430510">
        <ele>415.4</ele>
        <time>2014-10-01T12:24:34Z</time>
      </trkpt>
      <trkpt lat="42.3587420" lon="-7.1430790">
        <ele>415.6</ele>
        <time>2014-10-01T12:24:35Z</time>
      </trkpt>
      <trkpt lat="42.3587030" lon="-7.1431090">
        <ele>415.9</ele>
        <time>2014-10-01T12:24:36Z</time>
      </trkpt>
      <trkpt lat="42.3586670" lon="-7.1431400">
        <ele>416.1</ele>
        <time>2014-10-01T12:24:37Z</time>
      </trkpt>
      <trkpt lat="42.3586360" lon="-7.1431690">
        <ele>416.3</ele>
        <time>2014-10-01T12:24:38Z</time>
      </trkpt>
      <trkpt lat="42.3586020" lon="-7.1432030">
        <ele>416.6</ele>
        <time>2014-10-01T12:24:39Z</time>
      </trkpt>
      <trkpt lat="42.3585640" lon="-7.1432390">
        <ele>416.8</ele>
        <time>2014-10-01T12:24:40Z</time>
      </trkpt>
      <trkpt lat="42.3585250" lon="-7.1432760">
        <ele>417.1</ele>
        <time>2014-10-01T12:24:41Z</time>
      </trkpt>
      <trkpt lat="42.3584900" lon="-7.1433150">
        <ele>417.4</ele>
        <time>2014-10-01T12:24:42Z</time>
      </trkpt>
      <trkpt lat="42.3584560" lon="-7.1433540">
        <ele>417.6</ele>
        <time>2014-10-01T12:24:43Z</time>
      </trkpt>
      <trkpt lat="42.3584250" lon="-7.1433900">
        <ele>417.8</ele>
        <time>2014-10-01T12:24:44Z</time>
      </trkpt>
      <trkpt lat="42.3583930" lon="-7.1434290">
        <ele>418.1</ele>
        <time>2014-10-01T12:24:45Z</time>
      </trkpt>
      <trkpt lat="42.3583610" lon="-7.1434680">
        <ele>418.3</ele>
        <time>2014-10-01T12:24:46Z</time>
      </trkpt>
      <trkpt lat="42.3583310" lon="-7.1435100">
        <ele>418.5</ele>
        <time>2014-10-01T12:24:47Z</time>
      </trkpt>
      <trkpt lat="42.3583030" lon="-7.1435530">
        <ele>418.8</ele>
        <time>2014-10-01T12:24:48Z</time>
      </trkpt>
      <trkpt lat="42.3582740" lon="-7.1435980">
        <ele>419.0</ele>
        <time>2014-10-01T12:24:49Z</time>
      </trkpt>
      <trkpt lat="42.3582460" lon="-7.1436420">
        <ele>419.2</ele>
        <time>2014-10-01T12:24:50Z</time>
      </trkpt>
      <trkpt lat="42.3582190" lon="-7.1436850">
        <ele>419.5</ele>
        <time>2014-10-01T12:24:51Z</time>
      </trkpt>
      <trkpt lat="42.3581930" lon="-7.1437280">
        <ele>419.7</ele>
        <time>2014-10-01T12:24:52Z</time>
      </trkpt>
      <trkpt lat="42.3581680" lon="-7.1437760">
        <ele>420.0</ele>
        <time>2014-10-01T12:24:53Z</time>
      </trkpt>
      <trkpt lat="42.3581460" lon="-7.1438230">
        <ele>420.3</ele>
        <time>2014-10-01T12:24:54Z</time>
      </trkpt>
      <trkpt lat="42.3581220" lon="-7.1438770">
        <ele>420.6</ele>
        <time>2014-10-01T12:24:55Z</time>
      </trkpt>
      <trkpt lat="42.3581010" lon="-7.1439230">
        <ele>420.8</ele>
        <time>2014-10-01T12:24:56Z</time>
      </trkpt>
      <trkpt lat="42.3580750" lon="-7.1439740">
        <ele>421.1</ele>
        <time>2014-10-01T12:24:57Z</time>
      </trkpt>
      <trkpt lat="42.3580520" lon="-7.1440220">
        <ele>421.3</ele>
        <time>2014-10-01T12:24:58Z</time>
      </trkpt>
      <trkpt lat="42.3580290" lon="-7.1440700">
        <ele>421.6</ele>
        <time>2014-10-01T12:24:59Z</time>
      </trkpt>
      <trkpt lat="42.3580060" lon="-7.1441180">
        <ele>421.9</ele>
        <time>2014-10-01T12:25:00Z</time>
      </trkpt>
      <trkpt lat="42.3579870" lon="-7.1441560">
        <ele>422.1</ele>
        <time>2014-10-01T12:25:01Z</time>
      </trkpt>
      <trkpt lat="42.3579700" lon="-7.1441900">
        <ele>422.3</ele>
        <time>2014-10-01T12:25:02Z</time>
      </trkpt>
      <trkpt lat="42.3579460" lon="-7.1442360">
        <ele>422.6</ele>
        <time>2014-10-01T12:25:03Z</time>
      </trkpt>
      <trkpt lat="42.3579200" lon="-7.1442730">
        <ele>422.9</ele>
        <time>2014-10-01T12:25:04Z</time>
      </trkpt>
      <trkpt lat="42.3578950" lon="-7.1443050">
        <ele>423.1</ele>
        <time>2014-10-01T12:25:05Z</time>
      </trkpt>
      <trkpt lat="42.3578640" lon="-7.1443400">
        <ele>423.3</ele>
        <time>2014-10-01T12:25:06Z</time>
      </trkpt>
      <trkpt lat="42.3578300" lon="-7.1443790">
        <ele>423.6</ele>
        <time>2014-10-01T12:25:07Z</time>
      </trkpt>
      <trkpt lat="42.3577970" lon="-7.1444140">
        <ele>423.8</ele>
        <time>2014-10-01T12:25:08Z</time>
      </trkpt>
      <trkpt lat="42.3577600" lon="-7.1444450">
        <ele>424.1</ele>
        <time>2014-10-01T12:25:09Z</time>
      </trkpt>
      <trkpt lat="42.3577230" lon="-7.1444780">
        <ele>424.3</ele>
        <time>2014-10-01T12:25:10Z</time>
      </trkpt>
      <trkpt lat="42.3576860" lon="-7.1445070">
        <ele>424.6</ele>
        <time>2014-10-01T12:25:11Z</time>
      </trkpt>
      <trkpt lat="42.3576490" lon="-7.1445350">
        <ele>424.8</ele>
        <time>2014-10-01T12:25:12Z</time>
      </trkpt>
      <trkpt lat="42.3576190" lon="-7.1445590">
        <ele>425.0</ele>
        <time>2014-10-01T12:25:13Z</time>
      </trkpt>
      <trkpt lat="42.3575920" lon="-7.1445820">
        <ele>425.2</ele>
        <time>2014-10-01T12:25:14Z</time>
      </trkpt>
      <trkpt lat="42.3575570" lon="-7.1446060">
        <ele>425.4</ele>
        <time>2014-10-01T12:25:15Z</time>
      </trkpt>
      <trkpt lat="42.3575180" lon="-7.1446340">
        <ele>425.7</ele>
        <time>2014-10-01T12:25:16Z</time>
      </trkpt>
      <trkpt lat="42.3574800" lon="-7.1446630">
        <ele>426.0</ele>
        <time>2014-10-01T12:25:17Z</time>
      </trkpt>
      <trkpt lat="42.3574480" lon="-7.1446910">
        <ele>426.2</ele>
        <time>2014-10-01T12:25:18Z</time>
      </trkpt>
      <trkpt lat="42.3574180" lon="-7.1447190">
        <ele>426.5</ele>
        <time>2014-10-01T12:25:19Z</time>
      </trkpt>
      <trkpt lat="42.3573890" lon="-7.1447470">
        <ele>426.7</ele>
        <time>2014-10-01T12:25:20Z</time>
      </trkpt>
      <trkpt lat="42.3573610" lon="-7.1447770">
        <ele>426.9</ele>
        <time>2014-10-01T12:25:21Z</time>
      </trkpt>
      <trkpt lat="42.3573310" lon="-7.1448090">
        <ele>427.2</ele>
        <time>2014-10-01T12:25:22Z</time>
      </trkpt>
      <trkpt lat="42.3573010" lon="-7.1448440">
        <ele>427.4</ele>
        <time>2014-10-01T12:25:23Z</time>
      </trkpt>
      <trkpt lat="42.3572750" lon="-7.1448870">
        <ele>427.7</ele>
        <time>2014-10-01T12:25:24Z</time>
      </trkpt>
      <trkpt lat="42.3572480" lon="-7.1449320">
        <ele>428.0</ele>
        <time>2014-10-01T12:25:25Z</time>
      </trkpt>
      <trkpt lat="42.3572270" lon="-7.1449790">
        <ele>428.3</ele>
        <time>2014-10-01T12:25:26Z</time>
      </trkpt>
      <trkpt lat="42.3572070" lon="-7.1450250">
        <ele>428.5</ele>
        <time>2014-10-01T12:25:27Z</time>
      </trkpt>
      <trkpt lat="42.3571880" lon="-7.1450710">
        <ele>428.7</ele>
        <time>2014-10-01T12:25:28Z</time>
      </trkpt>
      <trkpt lat="42.3571700" lon="-7.1451170">
        <ele>429.0</ele>
        <time>2014-10-01T12:25:29Z</time>
      </trkpt>
      <trkpt lat="42.3571550" lon="-7.1451630">
        <ele>429.2</ele>
        <time>2014-10-01T12:25:30Z</time>
      </trkpt>
      <trkpt lat="42.3571430" lon="-7.1452060">
        <ele>429.4</ele>
        <time>2014-10-01T12:25:31Z</time>
      </trkpt>
      <trkpt lat="42.3571310" lon="-7.1452540">
        <ele>429.7</ele>
        <time>2014-10-01T12:25:32Z</time>
      </trkpt>
      <trkpt lat="42.3571200" lon="-7.1453070">
        <ele>429.9</ele>
        <time>2014-10-01T12:25:33Z</time>
      </trkpt>
      <trkpt lat="42.3571060" lon="-7.1453600">
        <ele>430.2</ele>
        <time>2014-10-01T12:25:34Z</time>
      </trkpt>
      <trkpt lat="42.3570940" lon="-7.1454140">
        <ele>430.5</ele>
        <time>2014-10-01T12:25:35Z</time>
      </trkpt>
      <trkpt lat="42.3570840" lon="-7.1454670">
        <ele>430.7</ele>
        <time>2014-10-01T12:25:36Z</time>
      </trkpt>
      <trkpt lat="42.3570710" lon="-7.1455190">
        <ele>430.9</ele>
        <time>2014-10-01T12:25:37Z</time>
      </trkpt>
      <trkpt lat="42.3570580" lon="-7.1455670">
        <ele>431.2</ele>
        <time>2014-10-01T12:25:38Z</time>
      </trkpt>
      <trkpt lat="42.3570460" lon="-7.1456120">
        <ele>431.4</ele>
        <time>2014-10-01T12:25:39Z</time>
      </trkpt>
      <trkpt lat="42.3570330" lon="-7.1456560">
        <ele>431.6</ele>
        <time>2014-10-01T12:25:40Z</time>
      </trkpt>
      <trkpt lat="42.3570180" lon="-7.1456990">
        <ele>431.8</ele>
        <time>2014-10-01T12:25:41Z</time>
      </trkpt>
      <trkpt lat="42.3570030" lon="-7.1457400">
        <ele>432.0</ele>
        <time>2014-10-01T12:25:42Z</time>
      </trkpt>
      <trkpt lat="42.3569860" lon="-7.1457870">
        <ele>432.2</ele>
        <time>2014-10-01T12:25:43Z</time>
      </trkpt>
      <trkpt lat="42.3569670" lon="-7.1458370">
        <ele>432.4</ele>
        <time>2014-10-01T12:25:44Z</time>
      </trkpt>
      <trkpt lat="42.3569470" lon="-7.1458850">
        <ele>432.6</ele>
        <time>2014-10-01T12:25:45Z</time>
      </trkpt>
      <trkpt lat="42.3569270" lon="-7.1459280">
        <ele>432.8</ele>
        <time>2014-10-01T12:25:46Z</time>
      </trkpt>
      <trkpt lat="42.3569020" lon="-7.1459700">
        <ele>433.1</ele>
        <time>2014-10-01T12:25:47Z</time>
      </trkpt>
      <trkpt lat="42.3568730" lon="-7.1460100">
        <ele>433.3</ele>
        <time>2014-10-01T12:25:48Z</time>
      </trkpt>
      <trkpt lat="42.3568430" lon="-7.1460560">
        <ele>433.5</ele>
        <time>2014-10-01T12:25:49Z</time>
      </trkpt>
      <trkpt lat="42.3568140" lon="-7.1460980">
        <ele>433.7</ele>
        <time>2014-10-01T12:25:50Z</time>
      </trkpt>
      <trkpt lat="42.3567840" lon="-7.1461430">
        <ele>434.0</ele>
        <time>2014-10-01T12:25:51Z</time>
      </trkpt>
      <trkpt lat="42.3567550" lon="-7.1461890">
        <ele>434.2</ele>
        <time>2014-10-01T12:25:52Z</time>
      </trkpt>
      <trkpt lat="42.3567260" lon="-7.1462310">
        <ele>434.4</ele>
        <time>2014-10-01T12:25:53Z</time>
      </trkpt>
      <trkpt lat="42.3567020" lon="-7.1462650">
        <ele>434.6</ele>
        <time>2014-10-01T12:25:54Z</time>
      </trkpt>
      <trkpt lat="42.3566730" lon="-7.1463060">
        <ele>434.9</ele>
        <time>2014-10-01T12:25:55Z</time>
      </trkpt>
      <trkpt lat="42.3566420" lon="-7.1463540">
        <ele>435.1</ele>
        <time>2014-10-01T12:25:56Z</time>
      </trkpt>
      <trkpt lat="42.3566130" lon="-7.1464000">
        <ele>435.4</ele>
        <time>2014-10-01T12:25:57Z</time>
      </trkpt>
      <trkpt lat="42.3565860" lon="-7.1464430">
        <ele>435.6</ele>
        <time>2014-10-01T12:25:58Z</time>
      </trkpt>
      <trkpt lat="42.3565560" lon="-7.1464910">
        <ele>435.9</ele>
        <time>2014-10-01T12:25:59Z</time>
      </trkpt>
      <trkpt lat="42.3565300" lon="-7.1465350">
        <ele>436.1</ele>
        <time>2014-10-01T12:26:00Z</time>
      </trkpt>
      <trkpt lat="42.3564980" lon="-7.1465800">
        <ele>436.3</ele>
        <time>2014-10-01T12:26:01Z</time>
      </trkpt>
      <trkpt lat="42.3564690" lon="-7.1466200">
        <ele>436.5</ele>
        <time>2014-10-01T12:26:02Z</time>
      </trkpt>
      <trkpt lat="42.3564380" lon="-7.1466600">
        <ele>436.8</ele>
        <time>2014-10-01T12:26:03Z</time>
      </trkpt>
      <trkpt lat="42.3564040" lon="-7.1466990">
        <ele>437.0</ele>
        <time>2014-10-01T12:26:04Z</time>
      </trkpt>
      <trkpt lat="42.3563740" lon="-7.1467370">
        <ele>437.2</ele>
        <time>2014-10-01T12:26:05Z</time>
      </trkpt>
      <trkpt lat="42.3563470" lon="-7.1467710">
        <ele>437.4</ele>
        <time>2014-10-01T12:26:06Z</time>
      </trkpt>
      <trkpt lat="42.3563180" lon="-7.1468100">
        <ele>437.6</ele>
        <time>2014-10-01T12:26:07Z</time>
      </trkpt>
      <trkpt lat="42.3562920" lon="-7.1468480">
        <ele>437.8</ele>
        <time>2014-10-01T12:26:08Z</time>
      </trkpt>
      <trkpt lat="42.3562640" lon="-7.1468830">
        <ele>438.0</ele>
        <time>2014-10-01T12:26:09Z</time>
      </trkpt>
      <trkpt lat="42.3562360" lon="-7.1469200">
        <ele>438.2</ele>
        <time>2014-10-01T12:26:10Z</time>
      </trkpt>
      <trkpt lat="42.3562100" lon="-7.1469530">
        <ele>438.4</ele>
        <time>2014-10-01T12:26:11Z</time>
      </trkpt>
      <trkpt lat="42.3561850" lon="-7.1469880">
        <ele>438.5</ele>
        <time>2014-10-01T12:26:12Z</time>
      </trkpt>
      <trkpt lat="42.3561560" lon="-7.1470240">
        <ele>438.7</ele>
        <time>2014-10-01T12:26:13Z</time>
      </trkpt>
      <trkpt lat="42.3561280" lon="-7.1470620">
        <ele>439.0</ele>
        <time>2014-10-01T12:26:14Z</time>
      </trkpt>
      <trkpt lat="42.3561000" lon="-7.1470960">
        <ele>439.2</ele>
        <time>2014-10-01T12:26:15Z</time>
      </trkpt>
      <trkpt lat="42.3560710" lon="-7.1471340">
        <ele>439.4</ele>
        <time>2014-10-01T12:26:16Z</time>
      </trkpt>
      <trkpt lat="42.3560420" lon="-7.1471730">
        <ele>439.6</ele>
        <time>2014-10-01T12:26:17Z</time>
      </trkpt>
      <trkpt lat="42.3560090" lon="-7.1472200">
        <ele>439.8</ele>
        <time>2014-10-01T12:26:18Z</time>
      </trkpt>
      <trkpt lat="42.3559780" lon="-7.1472630">
        <ele>440.1</ele>
        <time>2014-10-01T12:26:19Z</time>
      </trkpt>
      <trkpt lat="42.3559510" lon="-7.1472960">
        <ele>440.3</ele>
        <time>2014-10-01T12:26:20Z</time>
      </trkpt>
      <trkpt lat="42.3559210" lon="-7.1473340">
        <ele>440.5</ele>
        <time>2014-10-01T12:26:21Z</time>
      </trkpt>
      <trkpt lat="42.3558850" lon="-7.1473780">
        <ele>440.8</ele>
        <time>2014-10-01T12:26:22Z</time>
      </trkpt>
      <trkpt lat="42.3558510" lon="-7.1474180">
        <ele>441.0</ele>
        <time>2014-10-01T12:26:23Z</time>
      </trkpt>
      <trkpt lat="42.3558200" lon="-7.1474520">
        <ele>441.3</ele>
        <time>2014-10-01T12:26:24Z</time>
      </trkpt>
      <trkpt lat="42.3557910" lon="-7.1474850">
        <ele>441.5</ele>
        <time>2014-10-01T12:26:25Z</time>
      </trkpt>
      <trkpt lat="42.3557580" lon="-7.1475180">
        <ele>441.7</ele>
        <time>2014-10-01T12:26:26Z</time>
      </trkpt>
      <trkpt lat="42.3557180" lon="-7.1475570">
        <ele>442.0</ele>
        <time>2014-10-01T12:26:27Z</time>
      </trkpt>
      <trkpt lat="42.3556780" lon="-7.1475960">
        <ele>442.3</ele>
        <time>2014-10-01T12:26:28Z</time>
      </trkpt>
      <trkpt lat="42.3556410" lon="-7.1476310">
        <ele>442.5</ele>
        <time>2014-10-01T12:26:29Z</time>
      </trkpt>
      <trkpt lat="42.3556030" lon="-7.1476640">
        <ele>442.8</ele>
        <time>2014-10-01T12:26:30Z</time>
      </trkpt>
      <trkpt lat="42.3555730" lon="-7.1476920">
        <ele>443.0</ele>
        <time>2014-10-01T12:26:31Z</time>
      </trkpt>
      <trkpt lat="42.3555400" lon="-7.1477210">
        <ele>443.3</ele>
        <time>2014-10-01T12:26:32Z</time>
      </trkpt>
      <trkpt lat="42.3555040" lon="-7.1477510">
        <ele>443.5</ele>
        <time>2014-10-01T12:26:33Z</time>
      </trkpt>
      <trkpt lat="42.3554710" lon="-7.1477760">
        <ele>443.8</ele>
        <time>2014-10-01T12:26:34Z</time>
      </trkpt>
      <trkpt lat="42.3554360" lon="-7.1478050">
        <ele>444.0</ele>
        <time>2014-10-01T12:26:35Z</time>
      </trkpt>
      <trkpt lat="42.3554050" lon="-7.1478330">
        <ele>444.2</ele>
        <time>2014-10-01T12:26:36Z</time>
      </trkpt>
      <trkpt lat="42.3553750" lon="-7.1478580">
        <ele>444.5</ele>
        <time>2014-10-01T12:26:37Z</time>
      </trkpt>
      <trkpt lat="42.3553440" lon="-7.1478840">
        <ele>444.7</ele>
        <time>2014-10-01T12:26:38Z</time>
      </trkpt>
      <trkpt lat="42.3553100" lon="-7.1479140">
        <ele>444.9</ele>
        <time>2014-10-01T12:26:39Z</time>
      </trkpt>
      <trkpt lat="42.3552740" lon="-7.1479470">
        <ele>445.2</ele>
        <time>2014-10-01T12:26:40Z</time>
      </trkpt>
      <trkpt lat="42.3552390" lon="-7.1479830">
        <ele>445.5</ele>
        <time>2014-10-01T12:26:41Z</time>
      </trkpt>
      <trkpt lat="42.3552060" lon="-7.1480160">
        <ele>445.7</ele>
        <time>2014-10-01T12:26:42Z</time>
      </trkpt>
      <trkpt lat="42.3551730" lon="-7.1480520">
        <ele>446.0</ele>
        <time>2014-10-01T12:26:43Z</time>
      </trkpt>
      <trkpt lat="42.3551430" lon="-7.1480870">
        <ele>446.6</ele>
        <time>2014-10-01T12:26:44Z</time>
      </trkpt>
      <trkpt lat="42.3551130" lon="-7.1481230">
        <ele>447.7</ele>
        <time>2014-10-01T12:26:45Z</time>
      </trkpt>
      <trkpt lat="42.3550800" lon="-7.1481610">
        <ele>448.7</ele>
        <time>2014-10-01T12:26:46Z</time>
      </trkpt>
      <trkpt lat="42.3550490" lon="-7.1482000">
        <ele>449.5</ele>
        <time>2014-10-01T12:26:47Z</time>
      </trkpt>
      <trkpt lat="42.3550190" lon="-7.1482410">
        <ele>450.1</ele>
        <time>2014-10-01T12:26:48Z</time>
      </trkpt>
      <trkpt lat="42.3549920" lon="-7.1482820">
        <ele>450.6</ele>
        <time>2014-10-01T12:26:49Z</time>
      </trkpt>
      <trkpt lat="42.3549680" lon="-7.1483200">
        <ele>450.9</ele>
        <time>2014-10-01T12:26:50Z</time>
      </trkpt>
      <trkpt lat="42.3549420" lon="-7.1483630">
        <ele>451.2</ele>
        <time>2014-10-01T12:26:51Z</time>
      </trkpt>
      <trkpt lat="42.3549160" lon="-7.1484120">
        <ele>451.5</ele>
        <time>2014-10-01T12:26:52Z</time>
      </trkpt>
      <trkpt lat="42.3548930" lon="-7.1484580">
        <ele>451.7</ele>
        <time>2014-10-01T12:26:53Z</time>
      </trkpt>
      <trkpt lat="42.3548670" lon="-7.1485080">
        <ele>452.0</ele>
        <time>2014-10-01T12:26:54Z</time>
      </trkpt>
      <trkpt lat="42.3548410" lon="-7.1485600">
        <ele>452.2</ele>
        <time>2014-10-01T12:26:55Z</time>
      </trkpt>
      <trkpt lat="42.3548180" lon="-7.1486080">
        <ele>452.4</ele>
        <time>2014-10-01T12:26:56Z</time>
      </trkpt>
      <trkpt lat="42.3547980" lon="-7.1486540">
        <ele>452.6</ele>
        <time>2014-10-01T12:26:57Z</time>
      </trkpt>
      <trkpt lat="42.3547770" lon="-7.1487010">
        <ele>452.8</ele>
        <time>2014-10-01T12:26:58Z</time>
      </trkpt>
      <trkpt lat="42.3547570" lon="-7.1487500">
        <ele>453.0</ele>
        <time>2014-10-01T12:26:59Z</time>
      </trkpt>
      <trkpt lat="42.3547380" lon="-7.1487970">
        <ele>453.2</ele>
        <time>2014-10-01T12:27:00Z</time>
      </trkpt>
      <trkpt lat="42.3547170" lon="-7.1488420">
        <ele>453.5</ele>
        <time>2014-10-01T12:27:01Z</time>
      </trkpt>
      <trkpt lat="42.3546970" lon="-7.1488890">
        <ele>453.7</ele>
        <time>2014-10-01T12:27:02Z</time>
      </trkpt>
      <trkpt lat="42.3546740" lon="-7.1489420">
        <ele>454.0</ele>
        <time>2014-10-01T12:27:03Z</time>
      </trkpt>
      <trkpt lat="42.3546500" lon="-7.1489980">
        <ele>454.3</ele>
        <time>2014-10-01T12:27:04Z</time>
      </trkpt>
      <trkpt lat="42.3546250" lon="-7.1490520">
        <ele>454.6</ele>
        <time>2014-10-01T12:27:05Z</time>
      </trkpt>
      <trkpt lat="42.3546020" lon="-7.1490980">
        <ele>454.8</ele>
        <time>2014-10-01T12:27:06Z</time>
      </trkpt>
      <trkpt lat="42.3545800" lon="-7.1491460">
        <ele>455.0</ele>
        <time>2014-10-01T12:27:07Z</time>
      </trkpt>
      <trkpt lat="42.3545590" lon="-7.1491920">
        <ele>455.2</ele>
        <time>2014-10-01T12:27:08Z</time>
      </trkpt>
      <trkpt lat="42.3545370" lon="-7.1492390">
        <ele>455.5</ele>
        <time>2014-10-01T12:27:09Z</time>
      </trkpt>
      <trkpt lat="42.3545170" lon="-7.1492880">
        <ele>455.7</ele>
        <time>2014-10-01T12:27:10Z</time>
      </trkpt>
      <trkpt lat="42.3544970" lon="-7.1493370">
        <ele>455.9</ele>
        <time>2014-10-01T12:27:11Z</time>
      </trkpt>
      <trkpt lat="42.3544780" lon="-7.1493820">
        <ele>456.1</ele>
        <time>2014-10-01T12:27:12Z</time>
      </trkpt>
      <trkpt lat="42.3544560" lon="-7.1494320">
        <ele>456.4</ele>
        <time>2014-10-01T12:27:13Z</time>
      </trkpt>
      <trkpt lat="42.3544370" lon="-7.1494800">
        <ele>456.6</ele>
        <time>2014-10-01T12:27:14Z</time>
      </trkpt>
      <trkpt lat="42.3544200" lon="-7.1495270">
        <ele>456.8</ele>
        <time>2014-10-01T12:27:15Z</time>
      </trkpt>
      <trkpt lat="42.3544000" lon="-7.1495750">
        <ele>457.0</ele>
        <time>2014-10-01T12:27:16Z</time>
      </trkpt>
      <trkpt lat="42.3543790" lon="-7.1496270">
        <ele>457.3</ele>
        <time>2014-10-01T12:27:17Z</time>
      </trkpt>
      <trkpt lat="42.3543550" lon="-7.1496790">
        <ele>457.5</ele>
        <time>2014-10-01T12:27:18Z</time>
      </trkpt>
      <trkpt lat="42.3543350" lon="-7.1497180">
        <ele>457.8</ele>
        <time>2014-10-01T12:27:19Z</time>
      </trkpt>
      <trkpt lat="42.3543130" lon="-7.1497610">
        <ele>458.0</ele>
        <time>2014-10-01T12:27:20Z</time>
      </trkpt>
      <trkpt lat="42.3542890" lon="-7.1498060">
        <ele>458.3</ele>
        <time>2014-10-01T12:27:21Z</time>
      </trkpt>
      <trkpt lat="42.3542610" lon="-7.1498510">
        <ele>458.5</ele>
        <time>2014-10-01T12:27:22Z</time>
      </trkpt>
      <trkpt lat="42.3542270" lon="-7.1499010">
        <ele>458.9</ele>
        <time>2014-10-01T12:27:23Z</time>
      </trkpt>
      <trkpt lat="42.3541960" lon="-7.1499460">
        <ele>459.1</ele>
        <time>2014-10-01T12:27:24Z</time>
      </trkpt>
      <trkpt lat="42.3541670" lon="-7.1499810">
        <ele>459.3</ele>
        <time>2014-10-01T12:27:25Z</time>
      </trkpt>
      <trkpt lat="42.3541360" lon="-7.1500100">
        <ele>459.5</ele>
        <time>2014-10-01T12:27:26Z</time>
      </trkpt>
      <trkpt lat="42.3541090" lon="-7.1500290">
        <ele>459.7</ele>
        <time>2014-10-01T12:27:27Z</time>
      </trkpt>
      <trkpt lat="42.3540730" lon="-7.1500500">
        <ele>459.9</ele>
        <time>2014-10-01T12:27:28Z</time>
      </trkpt>
      <trkpt lat="42.3540290" lon="-7.1500680">
        <ele>460.2</ele>
        <time>2014-10-01T12:27:29Z</time>
      </trkpt>
      <trkpt lat="42.3539880" lon="-7.1500800">
        <ele>460.4</ele>
        <time>2014-10-01T12:27:30Z</time>
      </trkpt>
      <trkpt lat="42.3539430" lon="-7.1500870">
        <ele>460.6</ele>
        <time>2014-10-01T12:27:31Z</time>
      </trkpt>
      <trkpt lat="42.3538960" lon="-7.1500900">
        <ele>460.7</ele>
        <time>2014-10-01T12:27:32Z</time>
      </trkpt>
      <trkpt lat="42.3538540" lon="-7.1500880">
        <ele>460.9</ele>
        <time>2014-10-01T12:27:33Z</time>
      </trkpt>
      <trkpt lat="42.3538080" lon="-7.1500830">
        <ele>461.1</ele>
        <time>2014-10-01T12:27:34Z</time>
      </trkpt>
      <trkpt lat="42.3537620" lon="-7.1500790">
        <ele>461.3</ele>
        <time>2014-10-01T12:27:35Z</time>
      </trkpt>
      <trkpt lat="42.3537190" lon="-7.1500730">
        <ele>461.4</ele>
        <time>2014-10-01T12:27:36Z</time>
      </trkpt>
      <trkpt lat="42.3536790" lon="-7.1500610">
        <ele>461.6</ele>
        <time>2014-10-01T12:27:37Z</time>
      </trkpt>
      <trkpt lat="42.3536370" lon="-7.1500480">
        <ele>461.8</ele>
        <time>2014-10-01T12:27:38Z</time>
      </trkpt>
      <trkpt lat="42.3535950" lon="-7.1500410">
        <ele>461.9</ele>
        <time>2014-10-01T12:27:39Z</time>
      </trkpt>
      <trkpt lat="42.3535520" lon="-7.1500360">
        <ele>462.1</ele>
        <time>2014-10-01T12:27:40Z</time>
      </trkpt>
      <trkpt lat="42.3535090" lon="-7.1500320">
        <ele>462.3</ele>
        <time>2014-10-01T12:27:41Z</time>
      </trkpt>
      <trkpt lat="42.3534680" lon="-7.1500300">
        <ele>462.5</ele>
        <time>2014-10-01T12:27:42Z</time>
      </trkpt>
      <trkpt lat="42.3534250" lon="-7.1500290">
        <ele>462.7</ele>
        <time>2014-10-01T12:27:43Z</time>
      </trkpt>
      <trkpt lat="42.3533820" lon="-7.1500300">
        <ele>463.0</ele>
        <time>2014-10-01T12:27:44Z</time>
      </trkpt>
      <trkpt lat="42.3533410" lon="-7.1500300">
        <ele>463.2</ele>
        <time>2014-10-01T12:27:45Z</time>
      </trkpt>
      <trkpt lat="42.3532990" lon="-7.1500330">
        <ele>463.4</ele>
        <time>2014-10-01T12:27:46Z</time>
      </trkpt>
      <trkpt lat="42.3532590" lon="-7.1500350">
        <ele>463.6</ele>
        <time>2014-10-01T12:27:47Z</time>
      </trkpt>
      <trkpt lat="42.3532170" lon="-7.1500410">
        <ele>463.9</ele>
        <time>2014-10-01T12:27:48Z</time>
      </trkpt>
      <trkpt lat="42.3531760" lon="-7.1500470">
        <ele>464.1</ele>
        <time>2014-10-01T12:27:49Z</time>
      </trkpt>
      <trkpt lat="42.3531370" lon="-7.1500560">
        <ele>464.4</ele>
        <time>2014-10-01T12:27:50Z</time>
      </trkpt>
      <trkpt lat="42.3530980" lon="-7.1500640">
        <ele>464.6</ele>
        <time>2014-10-01T12:27:51Z</time>
      </trkpt>
      <trkpt lat="42.3530580" lon="-7.1500720">
        <ele>464.8</ele>
        <time>2014-10-01T12:27:52Z</time>
      </trkpt>
      <trkpt lat="42.3530160" lon="-7.1500840">
        <ele>465.0</ele>
        <time>2014-10-01T12:27:53Z</time>
      </trkpt>
      <trkpt lat="42.3529760" lon="-7.1500980">
        <ele>465.2</ele>
        <time>2014-10-01T12:27:54Z</time>
      </trkpt>
      <trkpt lat="42.3529400" lon="-7.1501100">
        <ele>465.4</ele>
        <time>2014-10-01T12:27:55Z</time>
      </trkpt>
      <trkpt lat="42.3529040" lon="-7.1501230">
        <ele>465.6</ele>
        <time>2014-10-01T12:27:56Z</time>
      </trkpt>
      <trkpt lat="42.3528650" lon="-7.1501370">
        <ele>465.8</ele>
        <time>2014-10-01T12:27:57Z</time>
      </trkpt>
      <trkpt lat="42.3528270" lon="-7.1501500">
        <ele>465.9</ele>
        <time>2014-10-01T12:27:58Z</time>
      </trkpt>
      <trkpt lat="42.3527860" lon="-7.1501650">
        <ele>466.1</ele>
        <time>2014-10-01T12:27:59Z</time>
      </trkpt>
      <trkpt lat="42.3527440" lon="-7.1501790">
        <ele>466.4</ele>
        <time>2014-10-01T12:28:00Z</time>
      </trkpt>
      <trkpt lat="42.3527030" lon="-7.1501890">
        <ele>466.6</ele>
        <time>2014-10-01T12:28:01Z</time>
      </trkpt>
      <trkpt lat="42.3526610" lon="-7.1501980">
        <ele>466.8</ele>
        <time>2014-10-01T12:28:02Z</time>
      </trkpt>
      <trkpt lat="42.3526190" lon="-7.1502040">
        <ele>467.0</ele>
        <time>2014-10-01T12:28:03Z</time>
      </trkpt>
      <trkpt lat="42.3525780" lon="-7.1502110">
        <ele>467.2</ele>
        <time>2014-10-01T12:28:04Z</time>
      </trkpt>
      <trkpt lat="42.3525380" lon="-7.1502150">
        <ele>467.4</ele>
        <time>2014-10-01T12:28:05Z</time>
      </trkpt>
      <trkpt lat="42.3524990" lon="-7.1502190">
        <ele>467.6</ele>
        <time>2014-10-01T12:28:06Z</time>
      </trkpt>
      <trkpt lat="42.3524590" lon="-7.1502240">
        <ele>467.9</ele>
        <time>2014-10-01T12:28:07Z</time>
      </trkpt>
      <trkpt lat="42.3524210" lon="-7.1502290">
        <ele>468.1</ele>
        <time>2014-10-01T12:28:08Z</time>
      </trkpt>
      <trkpt lat="42.3523820" lon="-7.1502340">
        <ele>468.3</ele>
        <time>2014-10-01T12:28:09Z</time>
      </trkpt>
      <trkpt lat="42.3523410" lon="-7.1502400">
        <ele>468.5</ele>
        <time>2014-10-01T12:28:10Z</time>
      </trkpt>
      <trkpt lat="42.3523000" lon="-7.1502430">
        <ele>468.7</ele>
        <time>2014-10-01T12:28:11Z</time>
      </trkpt>
      <trkpt lat="42.3522600" lon="-7.1502450">
        <ele>468.9</ele>
        <time>2014-10-01T12:28:12Z</time>
      </trkpt>
      <trkpt lat="42.3522190" lon="-7.1502450">
        <ele>469.1</ele>
        <time>2014-10-01T12:28:13Z</time>
      </trkpt>
      <trkpt lat="42.3521780" lon="-7.1502470">
        <ele>469.3</ele>
        <time>2014-10-01T12:28:14Z</time>
      </trkpt>
      <trkpt lat="42.3521360" lon="-7.1502500">
        <ele>469.5</ele>
        <time>2014-10-01T12:28:15Z</time>
      </trkpt>
      <trkpt lat="42.3520960" lon="-7.1502560">
        <ele>469.7</ele>
        <time>2014-10-01T12:28:16Z</time>
      </trkpt>
      <trkpt lat="42.3520560" lon="-7.1502660">
        <ele>470.0</ele>
        <time>2014-10-01T12:28:17Z</time>
      </trkpt>
      <trkpt lat="42.3520140" lon="-7.1502810">
        <ele>470.2</ele>
        <time>2014-10-01T12:28:18Z</time>
      </trkpt>
      <trkpt lat="42.3519710" lon="-7.1502980">
        <ele>470.4</ele>
        <time>2014-10-01T12:28:19Z</time>
      </trkpt>
      <trkpt lat="42.3519310" lon="-7.1503180">
        <ele>470.7</ele>
        <time>2014-10-01T12:28:20Z</time>
      </trkpt>
      <trkpt lat="42.3518890" lon="-7.1503420">
        <ele>470.9</ele>
        <time>2014-10-01T12:28:21Z</time>
      </trkpt>
      <trkpt lat="42.3518470" lon="-7.1503670">
        <ele>471.2</ele>
        <time>2014-10-01T12:28:22Z</time>
      </trkpt>
      <trkpt lat="42.3518030" lon="-7.1503950">
        <ele>471.4</ele>
        <time>2014-10-01T12:28:23Z</time>
      </trkpt>
      <trkpt lat="42.3517620" lon="-7.1504230">
        <ele>471.7</ele>
        <time>2014-10-01T12:28:24Z</time>
      </trkpt>
      <trkpt lat="42.3517240" lon="-7.1504520">
        <ele>471.9</ele>
        <time>2014-10-01T12:28:25Z</time>
      </trkpt>
      <trkpt lat="42.3516920" lon="-7.1504820">
        <ele>472.1</ele>
        <time>2014-10-01T12:28:26Z</time>
      </trkpt>
      <trkpt lat="42.3516600" lon="-7.1505160">
        <ele>472.3</ele>
        <time>2014-10-01T12:28:27Z</time>
      </trkpt>
      <trkpt lat="42.3516310" lon="-7.1505550">
        <ele>472.5</ele>
        <time>2014-10-01T12:28:28Z</time>
      </trkpt>
      <trkpt lat="42.3516030" lon="-7.1506000">
        <ele>472.8</ele>
        <time>2014-10-01T12:28:29Z</time>
      </trkpt>
      <trkpt lat="42.3515780" lon="-7.1506470">
        <ele>473.0</ele>
        <time>2014-10-01T12:28:30Z</time>
      </trkpt>
      <trkpt lat="42.3515570" lon="-7.1506960">
        <ele>473.2</ele>
        <time>2014-10-01T12:28:31Z</time>
      </trkpt>
      <trkpt lat="42.3515390" lon="-7.1507440">
        <ele>473.4</ele>
        <time>2014-10-01T12:28:32Z</time>
      </trkpt>
      <trkpt lat="42.3515210" lon="-7.1507930">
        <ele>473.6</ele>
        <time>2014-10-01T12:28:33Z</time>
      </trkpt>
      <trkpt lat="42.3515030" lon="-7.1508460">
        <ele>473.8</ele>
        <time>2014-10-01T12:28:34Z</time>
      </trkpt>
      <trkpt lat="42.3514840" lon="-7.1509000">
        <ele>474.0</ele>
        <time>2014-10-01T12:28:35Z</time>
      </trkpt>
      <trkpt lat="42.3514670" lon="-7.1509500">
        <ele>474.2</ele>
        <time>2014-10-01T12:28:36Z</time>
      </trkpt>
      <trkpt lat="42.3514500" lon="-7.1510010">
        <ele>474.4</ele>
        <time>2014-10-01T12:28:37Z</time>
      </trkpt>
      <trkpt lat="42.3514320" lon="-7.1510550">
        <ele>474.6</ele>
        <time>2014-10-01T12:28:38Z</time>
      </trkpt>
      <trkpt lat="42.3514130" lon="-7.1511070">
        <ele>474.8</ele>
        <time>2014-10-01T12:28:39Z</time>
      </trkpt>
      <trkpt lat="42.3513960" lon="-7.1511590">
        <ele>475.0</ele>
        <time>2014-10-01T12:28:40Z</time>
      </trkpt>
      <trkpt lat="42.3513790" lon="-7.1512150">
        <ele>475.2</ele>
        <time>2014-10-01T12:28:41Z</time>
      </trkpt>
      <trkpt lat="42.3513630" lon="-7.1512710">
        <ele>475.4</ele>
        <time>2014-10-01T12:28:42Z</time>
      </trkpt>
      <trkpt lat="42.3513470" lon="-7.1513250">
        <ele>475.6</ele>
        <time>2014-10-01T12:28:43Z</time>
      </trkpt>
      <trkpt lat="42.3513300" lon="-7.1513800">
        <ele>475.8</ele>
        <time>2014-10-01T12:28:44Z</time>
      </trkpt>
      <trkpt lat="42.3513120" lon="-7.1514340">
        <ele>476.0</ele>
        <time>2014-10-01T12:28:45Z</time>
      </trkpt>
      <trkpt lat="42.3512930" lon="-7.1514880">
        <ele>476.2</ele>
        <time>2014-10-01T12:28:46Z</time>
      </trkpt>
      <trkpt lat="42.3512750" lon="-7.1515380">
        <ele>476.4</ele>
        <time>2014-10-01T12:28:47Z</time>
      </trkpt>
      <trkpt lat="42.3512560" lon="-7.1515900">
        <ele>476.6</ele>
        <time>2014-10-01T12:28:48Z</time>
      </trkpt>
      <trkpt lat="42.3512430" lon="-7.1516380">
        <ele>476.8</ele>
        <time>2014-10-01T12:28:49Z</time>
      </trkpt>
      <trkpt lat="42.3512310" lon="-7.1516820">
        <ele>477.0</ele>
        <time>2014-10-01T12:28:50Z</time>
      </trkpt>
      <trkpt lat="42.3512170" lon="-7.1517280">
        <ele>477.2</ele>
        <time>2014-10-01T12:28:51Z</time>
      </trkpt>
      <trkpt lat="42.3512010" lon="-7.1517790">
        <ele>477.4</ele>
        <time>2014-10-01T12:28:52Z</time>
      </trkpt>
      <trkpt lat="42.3511830" lon="-7.1518310">
        <ele>477.6</ele>
        <time>2014-10-01T12:28:53Z</time>
      </trkpt>
      <trkpt lat="42.3511650" lon="-7.1518840">
        <ele>477.8</ele>
        <time>2014-10-01T12:28:54Z</time>
      </trkpt>
      <trkpt lat="42.3511470" lon="-7.1519380">
        <ele>478.0</ele>
        <time>2014-10-01T12:28:55Z</time>
      </trkpt>
      <trkpt lat="42.3511300" lon="-7.1519880">
        <ele>478.2</ele>
        <time>2014-10-01T12:28:56Z</time>
      </trkpt>
      <trkpt lat="42.3511140" lon="-7.1520400">
        <ele>478.4</ele>
        <time>2014-10-01T12:28:57Z</time>
      </trkpt>
      <trkpt lat="42.3510990" lon="-7.1520900">
        <ele>478.6</ele>
        <time>2014-10-01T12:28:58Z</time>
      </trkpt>
      <trkpt lat="42.3510850" lon="-7.1521400">
        <ele>478.7</ele>
        <time>2014-10-01T12:28:59Z</time>
      </trkpt>
      <trkpt lat="42.3510710" lon="-7.1521900">
        <ele>478.9</ele>
        <time>2014-10-01T12:29:00Z</time>
      </trkpt>
      <trkpt lat="42.3510580" lon="-7.1522390">
        <ele>479.1</ele>
        <time>2014-10-01T12:29:01Z</time>
      </trkpt>
      <trkpt lat="42.3510430" lon="-7.1522930">
        <ele>479.3</ele>
        <time>2014-10-01T12:29:02Z</time>
      </trkpt>
      <trkpt lat="42.3510270" lon="-7.1523460">
        <ele>479.5</ele>
        <time>2014-10-01T12:29:03Z</time>
      </trkpt>
      <trkpt lat="42.3510100" lon="-7.1523980">
        <ele>479.7</ele>
        <time>2014-10-01T12:29:04Z</time>
      </trkpt>
      <trkpt lat="42.3509940" lon="-7.1524460">
        <ele>479.9</ele>
        <time>2014-10-01T12:29:05Z</time>
      </trkpt>
      <trkpt lat="42.3509780" lon="-7.1524970">
        <ele>480.1</ele>
        <time>2014-10-01T12:29:06Z</time>
      </trkpt>
      <trkpt lat="42.3509610" lon="-7.1525460">
        <ele>480.4</ele>
        <time>2014-10-01T12:29:07Z</time>
      </trkpt>
      <trkpt lat="42.3509440" lon="-7.1525950">
        <ele>480.6</ele>
        <time>2014-10-01T12:29:08Z</time>
      </trkpt>
      <trkpt lat="42.3509250" lon="-7.1526430">
        <ele>480.8</ele>
        <time>2014-10-01T12:29:09Z</time>
      </trkpt>
      <trkpt lat="42.3509060" lon="-7.1526930">
        <ele>481.0</ele>
        <time>2014-10-01T12:29:10Z</time>
      </trkpt>
      <trkpt lat="42.3508840" lon="-7.1527460">
        <ele>481.2</ele>
        <time>2014-10-01T12:29:11Z</time>
      </trkpt>
      <trkpt lat="42.3508650" lon="-7.1527970">
        <ele>481.5</ele>
        <time>2014-10-01T12:29:12Z</time>
      </trkpt>
      <trkpt lat="42.3508430" lon="-7.1528490">
        <ele>481.7</ele>
        <time>2014-10-01T12:29:13Z</time>
      </trkpt>
      <trkpt lat="42.3508240" lon="-7.1528970">
        <ele>481.9</ele>
        <time>2014-10-01T12:29:14Z</time>
      </trkpt>
      <trkpt lat="42.3508050" lon="-7.1529480">
        <ele>482.1</ele>
        <time>2014-10-01T12:29:15Z</time>
      </trkpt>
      <trkpt lat="42.3507850" lon="-7.1530010">
        <ele>482.3</ele>
        <time>2014-10-01T12:29:16Z</time>
      </trkpt>
      <trkpt lat="42.3507630" lon="-7.1530510">
        <ele>482.5</ele>
        <time>2014-10-01T12:29:17Z</time>
      </trkpt>
      <trkpt lat="42.3507450" lon="-7.1531010">
        <ele>482.7</ele>
        <time>2014-10-01T12:29:18Z</time>
      </trkpt>
      <trkpt lat="42.3507250" lon="-7.1531450">
        <ele>482.9</ele>
        <time>2014-10-01T12:29:19Z</time>
      </trkpt>
      <trkpt lat="42.3507050" lon="-7.1531930">
        <ele>483.1</ele>
        <time>2014-10-01T12:29:20Z</time>
      </trkpt>
      <trkpt lat="42.3506850" lon="-7.1532390">
        <ele>483.3</ele>
        <time>2014-10-01T12:29:21Z</time>
      </trkpt>
      <trkpt lat="42.3506630" lon="-7.1532890">
        <ele>483.5</ele>
        <time>2014-10-01T12:29:22Z</time>
      </trkpt>
      <trkpt lat="42.3506420" lon="-7.1533350">
        <ele>483.7</ele>
        <time>2014-10-01T12:29:23Z</time>
      </trkpt>
      <trkpt lat="42.3506210" lon="-7.1533820">
        <ele>483.9</ele>
        <time>2014-10-01T12:29:24Z</time>
      </trkpt>
      <trkpt lat="42.3505990" lon="-7.1534310">
        <ele>484.1</ele>
        <time>2014-10-01T12:29:25Z</time>
      </trkpt>
      <trkpt lat="42.3505760" lon="-7.1534820">
        <ele>484.4</ele>
        <time>2014-10-01T12:29:26Z</time>
      </trkpt>
      <trkpt lat="42.3505530" lon="-7.1535300">
        <ele>484.7</ele>
        <time>2014-10-01T12:29:27Z</time>
      </trkpt>
      <trkpt lat="42.3505320" lon="-7.1535740">
        <ele>484.9</ele>
        <time>2014-10-01T12:29:28Z</time>
      </trkpt>
      <trkpt lat="42.3505080" lon="-7.1536200">
        <ele>485.1</ele>
        <time>2014-10-01T12:29:29Z</time>
      </trkpt>
      <trkpt lat="42.3504850" lon="-7.1536690">
        <ele>485.4</ele>
        <time>2014-10-01T12:29:30Z</time>
      </trkpt>
      <trkpt lat="42.3504600" lon="-7.1537220">
        <ele>485.6</ele>
        <time>2014-10-01T12:29:31Z</time>
      </trkpt>
      <trkpt lat="42.3504370" lon="-7.1537730">
        <ele>485.9</ele>
        <time>2014-10-01T12:29:32Z</time>
      </trkpt>
      <trkpt lat="42.3504160" lon="-7.1538180">
        <ele>486.1</ele>
        <time>2014-10-01T12:29:33Z</time>
      </trkpt>
      <trkpt lat="42.3503930" lon="-7.1538590">
        <ele>486.3</ele>
        <time>2014-10-01T12:29:34Z</time>
      </trkpt>
      <trkpt lat="42.3503690" lon="-7.1539030">
        <ele>486.5</ele>
        <time>2014-10-01T12:29:35Z</time>
      </trkpt>
      <trkpt lat="42.3503440" lon="-7.1539470">
        <ele>486.7</ele>
        <time>2014-10-01T12:29:36Z</time>
      </trkpt>
      <trkpt lat="42.3503190" lon="-7.1539910">
        <ele>486.9</ele>
        <time>2014-10-01T12:29:37Z</time>
      </trkpt>
      <trkpt lat="42.3502940" lon="-7.1540360">
        <ele>487.1</ele>
        <time>2014-10-01T12:29:38Z</time>
      </trkpt>
      <trkpt lat="42.3502680" lon="-7.1540770">
        <ele>487.3</ele>
        <time>2014-10-01T12:29:39Z</time>
      </trkpt>
      <trkpt lat="42.3502440" lon="-7.1541200">
        <ele>487.5</ele>
        <time>2014-10-01T12:29:40Z</time>
      </trkpt>
      <trkpt lat="42.3502190" lon="-7.1541650">
        <ele>487.7</ele>
        <time>2014-10-01T12:29:41Z</time>
      </trkpt>
      <trkpt lat="42.3501940" lon="-7.1542070">
        <ele>487.9</ele>
        <time>2014-10-01T12:29:42Z</time>
      </trkpt>
      <trkpt lat="42.3501710" lon="-7.1542480">
        <ele>488.1</ele>
        <time>2014-10-01T12:29:43Z</time>
      </trkpt>
      <trkpt lat="42.3501460" lon="-7.1542930">
        <ele>488.3</ele>
        <time>2014-10-01T12:29:44Z</time>
      </trkpt>
      <trkpt lat="42.3501200" lon="-7.1543410">
        <ele>488.5</ele>
        <time>2014-10-01T12:29:45Z</time>
      </trkpt>
      <trkpt lat="42.3500940" lon="-7.1543850">
        <ele>488.8</ele>
        <time>2014-10-01T12:29:46Z</time>
      </trkpt>
      <trkpt lat="42.3500690" lon="-7.1544270">
        <ele>489.0</ele>
        <time>2014-10-01T12:29:47Z</time>
      </trkpt>
      <trkpt lat="42.3500430" lon="-7.1544720">
        <ele>489.2</ele>
        <time>2014-10-01T12:29:48Z</time>
      </trkpt>
      <trkpt lat="42.3500160" lon="-7.1545190">
        <ele>489.5</ele>
        <time>2014-10-01T12:29:49Z</time>
      </trkpt>
      <trkpt lat="42.3499900" lon="-7.1545620">
        <ele>489.7</ele>
        <time>2014-10-01T12:29:50Z</time>
      </trkpt>
      <trkpt lat="42.3499650" lon="-7.1546060">
        <ele>490.0</ele>
        <time>2014-10-01T12:29:51Z</time>
      </trkpt>
      <trkpt lat="42.3499390" lon="-7.1546500">
        <ele>490.2</ele>
        <time>2014-10-01T12:29:52Z</time>
      </trkpt>
      <trkpt lat="42.3499130" lon="-7.1546980">
        <ele>490.4</ele>
        <time>2014-10-01T12:29:53Z</time>
      </trkpt>
      <trkpt lat="42.3498860" lon="-7.1547410">
        <ele>490.7</ele>
        <time>2014-10-01T12:29:54Z</time>
      </trkpt>
      <trkpt lat="42.3498610" lon="-7.1547830">
        <ele>490.9</ele>
        <time>2014-10-01T12:29:55Z</time>
      </trkpt>
      <trkpt lat="42.3498370" lon="-7.1548270">
        <ele>491.2</ele>
        <time>2014-10-01T12:29:56Z</time>
      </trkpt>
      <trkpt lat="42.3498140" lon="-7.1548680">
        <ele>491.4</ele>
        <time>2014-10-01T12:29:57Z</time>
      </trkpt>
      <trkpt lat="42.3497890" lon="-7.1549120">
        <ele>491.7</ele>
        <time>2014-10-01T12:29:58Z</time>
      </trkpt>
      <trkpt lat="42.3497620" lon="-7.1549600">
        <ele>492.0</ele>
        <time>2014-10-01T12:29:59Z</time>
      </trkpt>
      <trkpt lat="42.3497350" lon="-7.1550060">
        <ele>492.4</ele>
        <time>2014-10-01T12:30:00Z</time>
      </trkpt>
      <trkpt lat="42.3497080" lon="-7.1550480">
        <ele>492.7</ele>
        <time>2014-10-01T12:30:01Z</time>
      </trkpt>
      <trkpt lat="42.3496800" lon="-7.1550900">
        <ele>493.0</ele>
        <time>2014-10-01T12:30:02Z</time>
      </trkpt>
      <trkpt lat="42.3496520" lon="-7.1551310">
        <ele>493.3</ele>
        <time>2014-10-01T12:30:03Z</time>
      </trkpt>
      <trkpt lat="42.3496250" lon="-7.1551770">
        <ele>493.6</ele>
        <time>2014-10-01T12:30:04Z</time>
      </trkpt>
      <trkpt lat="42.3495980" lon="-7.1552230">
        <ele>493.9</ele>
        <time>2014-10-01T12:30:05Z</time>
      </trkpt>
      <trkpt lat="42.3495710" lon="-7.1552690">
        <ele>494.2</ele>
        <time>2014-10-01T12:30:06Z</time>
      </trkpt>
      <trkpt lat="42.3495470" lon="-7.1553160">
        <ele>494.5</ele>
        <time>2014-10-01T12:30:07Z</time>
      </trkpt>
      <trkpt lat="42.3495240" lon="-7.1553640">
        <ele>494.8</ele>
        <time>2014-10-01T12:30:08Z</time>
      </trkpt>
      <trkpt lat="42.3495000" lon="-7.1554140">
        <ele>495.1</ele>
        <time>2014-10-01T12:30:09Z</time>
      </trkpt>
      <trkpt lat="42.3494790" lon="-7.1554620">
        <ele>495.3</ele>
        <time>2014-10-01T12:30:10Z</time>
      </trkpt>
      <trkpt lat="42.3494570" lon="-7.1555030">
        <ele>495.5</ele>
        <time>2014-10-01T12:30:11Z</time>
      </trkpt>
      <trkpt lat="42.3494320" lon="-7.1555510">
        <ele>495.8</ele>
        <time>2014-10-01T12:30:12Z</time>
      </trkpt>
      <trkpt lat="42.3494090" lon="-7.1556020">
        <ele>496.1</ele>
        <time>2014-10-01T12:30:13Z</time>
      </trkpt>
      <trkpt lat="42.3493880" lon="-7.1556470">
        <ele>496.3</ele>
        <time>2014-10-01T12:30:14Z</time>
      </trkpt>
      <trkpt lat="42.3493660" lon="-7.1556940">
        <ele>496.6</ele>
        <time>2014-10-01T12:30:15Z</time>
      </trkpt>
      <trkpt lat="42.3493470" lon="-7.1557400">
        <ele>496.8</ele>
        <time>2014-10-01T12:30:16Z</time>
      </trkpt>
      <trkpt lat="42.3493270" lon="-7.1557910">
        <ele>497.0</ele>
        <time>2014-10-01T12:30:17Z</time>
      </trkpt>
      <trkpt lat="42.3493100" lon="-7.1558440">
        <ele>497.3</ele>
        <time>2014-10-01T12:30:18Z</time>
      </trkpt>
      <trkpt lat="42.3492970" lon="-7.1559010">
        <ele>497.5</ele>
        <time>2014-10-01T12:30:19Z</time>
      </trkpt>
      <trkpt lat="42.3492850" lon="-7.1559560">
        <ele>497.7</ele>
        <time>2014-10-01T12:30:20Z</time>
      </trkpt>
      <trkpt lat="42.3492750" lon="-7.1560110">
        <ele>498.0</ele>
        <time>2014-10-01T12:30:21Z</time>
      </trkpt>
      <trkpt lat="42.3492650" lon="-7.1560650">
        <ele>498.3</ele>
        <time>2014-10-01T12:30:22Z</time>
      </trkpt>
      <trkpt lat="42.3492540" lon="-7.1561190">
        <ele>498.5</ele>
        <time>2014-10-01T12:30:23Z</time>
      </trkpt>
      <trkpt lat="42.3492440" lon="-7.1561740">
        <ele>498.8</ele>
        <time>2014-10-01T12:30:24Z</time>
      </trkpt>
      <trkpt lat="42.3492370" lon="-7.1562230">
        <ele>499.0</ele>
        <time>2014-10-01T12:30:25Z</time>
      </trkpt>
      <trkpt lat="42.3492300" lon="-7.1562720">
        <ele>499.3</ele>
        <time>2014-10-01T12:30:26Z</time>
      </trkpt>
      <trkpt lat="42.3492260" lon="-7.1563250">
        <ele>499.5</ele>
        <time>2014-10-01T12:30:27Z</time>
      </trkpt>
      <trkpt lat="42.3492260" lon="-7.1563710">
        <ele>499.7</ele>
        <time>2014-10-01T12:30:28Z</time>
      </trkpt>
      <trkpt lat="42.3492250" lon="-7.1564190">
        <ele>500.0</ele>
        <time>2014-10-01T12:30:29Z</time>
      </trkpt>
      <trkpt lat="42.3492260" lon="-7.1564690">
        <ele>500.2</ele>
        <time>2014-10-01T12:30:30Z</time>
      </trkpt>
      <trkpt lat="42.3492270" lon="-7.1565190">
        <ele>500.4</ele>
        <time>2014-10-01T12:30:31Z</time>
      </trkpt>
      <trkpt lat="42.3492290" lon="-7.1565810">
        <ele>500.7</ele>
        <time>2014-10-01T12:30:32Z</time>
      </trkpt>
      <trkpt lat="42.3492340" lon="-7.1566360">
        <ele>500.9</ele>
        <time>2014-10-01T12:30:33Z</time>
      </trkpt>
      <trkpt lat="42.3492390" lon="-7.1566940">
        <ele>501.2</ele>
        <time>2014-10-01T12:30:34Z</time>
      </trkpt>
      <trkpt lat="42.3492490" lon="-7.1567500">
        <ele>501.4</ele>
        <time>2014-10-01T12:30:35Z</time>
      </trkpt>
      <trkpt lat="42.3492580" lon="-7.1568040">
        <ele>501.7</ele>
        <time>2014-10-01T12:30:36Z</time>
      </trkpt>
      <trkpt lat="42.3492670" lon="-7.1568590">
        <ele>502.0</ele>
        <time>2014-10-01T12:30:37Z</time>
      </trkpt>
      <trkpt lat="42.3492740" lon="-7.1569140">
        <ele>502.2</ele>
        <time>2014-10-01T12:30:38Z</time>
      </trkpt>
      <trkpt lat="42.3492800" lon="-7.1569670">
        <ele>502.4</ele>
        <time>2014-10-01T12:30:39Z</time>
      </trkpt>
      <trkpt lat="42.3492880" lon="-7.1570200">
        <ele>502.7</ele>
        <time>2014-10-01T12:30:40Z</time>
      </trkpt>
      <trkpt lat="42.3492930" lon="-7.1570690">
        <ele>502.9</ele>
        <time>2014-10-01T12:30:41Z</time>
      </trkpt>
      <trkpt lat="42.3493010" lon="-7.1571160">
        <ele>503.1</ele>
        <time>2014-10-01T12:30:42Z</time>
      </trkpt>
      <trkpt lat="42.3493100" lon="-7.1571670">
        <ele>503.3</ele>
        <time>2014-10-01T12:30:43Z</time>
      </trkpt>
      <trkpt lat="42.3493190" lon="-7.1572150">
        <ele>503.5</ele>
        <time>2014-10-01T12:30:44Z</time>
      </trkpt>
      <trkpt lat="42.3493250" lon="-7.1572630">
        <ele>503.7</ele>
        <time>2014-10-01T12:30:45Z</time>
      </trkpt>
      <trkpt lat="42.3493300" lon="-7.1573110">
        <ele>503.9</ele>
        <time>2014-10-01T12:30:46Z</time>
      </trkpt>
      <trkpt lat="42.3493360" lon="-7.1573630">
        <ele>504.2</ele>
        <time>2014-10-01T12:30:47Z</time>
      </trkpt>
      <trkpt lat="42.3493440" lon="-7.1574160">
        <ele>504.4</ele>
        <time>2014-10-01T12:30:48Z</time>
      </trkpt>
      <trkpt lat="42.3493530" lon="-7.1574680">
        <ele>504.6</ele>
        <time>2014-10-01T12:30:49Z</time>
      </trkpt>
      <trkpt lat="42.3493640" lon="-7.1575200">
        <ele>504.9</ele>
        <time>2014-10-01T12:30:50Z</time>
      </trkpt>
      <trkpt lat="42.3493740" lon="-7.1575730">
        <ele>505.1</ele>
        <time>2014-10-01T12:30:51Z</time>
      </trkpt>
      <trkpt lat="42.3493830" lon="-7.1576280">
        <ele>505.4</ele>
        <time>2014-10-01T12:30:52Z</time>
      </trkpt>
      <trkpt lat="42.3493940" lon="-7.1576810">
        <ele>505.6</ele>
        <time>2014-10-01T12:30:53Z</time>
      </trkpt>
      <trkpt lat="42.3494020" lon="-7.1577370">
        <ele>505.9</ele>
        <time>2014-10-01T12:30:54Z</time>
      </trkpt>
      <trkpt lat="42.3494120" lon="-7.1577920">
        <ele>506.1</ele>
        <time>2014-10-01T12:30:55Z</time>
      </trkpt>
      <trkpt lat="42.3494230" lon="-7.1578500">
        <ele>506.4</ele>
        <time>2014-10-01T12:30:56Z</time>
      </trkpt>
      <trkpt lat="42.3494310" lon="-7.1579080">
        <ele>506.7</ele>
        <time>2014-10-01T12:30:57Z</time>
      </trkpt>
      <trkpt lat="42.3494410" lon="-7.1579630">
        <ele>506.9</ele>
        <time>2014-10-01T12:30:58Z</time>
      </trkpt>
      <trkpt lat="42.3494530" lon="-7.1580160">
        <ele>507.2</ele>
        <time>2014-10-01T12:30:59Z</time>
      </trkpt>
      <trkpt lat="42.3494620" lon="-7.1580720">
        <ele>507.4</ele>
        <time>2014-10-01T12:31:00Z</time>
      </trkpt>
      <trkpt lat="42.3494720" lon="-7.1581240">
        <ele>507.7</ele>
        <time>2014-10-01T12:31:01Z</time>
      </trkpt>
      <trkpt lat="42.3494780" lon="-7.1581800">
        <ele>507.9</ele>
        <time>2014-10-01T12:31:02Z</time>
      </trkpt>
      <trkpt lat="42.3494880" lon="-7.1582330">
        <ele>508.2</ele>
        <time>2014-10-01T12:31:03Z</time>
      </trkpt>
      <trkpt lat="42.3494960" lon="-7.1582870">
        <ele>508.5</ele>
        <time>2014-10-01T12:31:04Z</time>
      </trkpt>
      <trkpt lat="42.3495010" lon="-7.1583450">
        <ele>508.8</ele>
        <time>2014-10-01T12:31:05Z</time>
      </trkpt>
      <trkpt lat="42.3495020" lon="-7.1584020">
        <ele>509.1</ele>
        <time>2014-10-01T12:31:06Z</time>
      </trkpt>
      <trkpt lat="42.3495020" lon="-7.1584560">
        <ele>509.4</ele>
        <time>2014-10-01T12:31:07Z</time>
      </trkpt>
      <trkpt lat="42.3494980" lon="-7.1585000">
        <ele>509.6</ele>
        <time>2014-10-01T12:31:08Z</time>
      </trkpt>
      <trkpt lat="42.3494910" lon="-7.1585470">
        <ele>509.8</ele>
        <time>2014-10-01T12:31:09Z</time>
      </trkpt>
      <trkpt lat="42.3494750" lon="-7.1585990">
        <ele>510.1</ele>
        <time>2014-10-01T12:31:10Z</time>
      </trkpt>
      <trkpt lat="42.3494530" lon="-7.1586500">
        <ele>510.4</ele>
        <time>2014-10-01T12:31:11Z</time>
      </trkpt>
      <trkpt lat="42.3494250" lon="-7.1587000">
        <ele>510.6</ele>
        <time>2014-10-01T12:31:12Z</time>
      </trkpt>
      <trkpt lat="42.3493940" lon="-7.1587420">
        <ele>510.8</ele>
        <time>2014-10-01T12:31:13Z</time>
      </trkpt>
      <trkpt lat="42.3493610" lon="-7.1587780">
        <ele>511.1</ele>
        <time>2014-10-01T12:31:14Z</time>
      </trkpt>
      <trkpt lat="42.3493200" lon="-7.1588100">
        <ele>511.3</ele>
        <time>2014-10-01T12:31:15Z</time>
      </trkpt>
      <trkpt lat="42.3492800" lon="-7.1588310">
        <ele>511.5</ele>
        <time>2014-10-01T12:31:16Z</time>
      </trkpt>
      <trkpt lat="42.3492420" lon="-7.1588460">
        <ele>511.7</ele>
        <time>2014-10-01T12:31:17Z</time>
      </trkpt>
      <trkpt lat="42.3492020" lon="-7.1588590">
        <ele>511.9</ele>
        <time>2014-10-01T12:31:18Z</time>
      </trkpt>
      <trkpt lat="42.3491580" lon="-7.1588670">
        <ele>512.2</ele>
        <time>2014-10-01T12:31:19Z</time>
      </trkpt>
      <trkpt lat="42.3491130" lon="-7.1588700">
        <ele>512.4</ele>
        <time>2014-10-01T12:31:20Z</time>
      </trkpt>
      <trkpt lat="42.3490680" lon="-7.1588700">
        <ele>512.6</ele>
        <time>2014-10-01T12:31:21Z</time>
      </trkpt>
      <trkpt lat="42.3490280" lon="-7.1588640">
        <ele>512.8</ele>
        <time>2014-10-01T12:31:22Z</time>
      </trkpt>
      <trkpt lat="42.3489860" lon="-7.1588540">
        <ele>512.9</ele>
        <time>2014-10-01T12:31:23Z</time>
      </trkpt>
      <trkpt lat="42.3489410" lon="-7.1588400">
        <ele>512.6</ele>
        <time>2014-10-01T12:31:24Z</time>
      </trkpt>
      <trkpt lat="42.3488990" lon="-7.1588230">
        <ele>512.5</ele>
        <time>2014-10-01T12:31:25Z</time>
      </trkpt>
      <trkpt lat="42.3488580" lon="-7.1588070">
        <ele>512.7</ele>
        <time>2014-10-01T12:31:26Z</time>
      </trkpt>
      <trkpt lat="42.3488190" lon="-7.1587890">
        <ele>512.9</ele>
        <time>2014-10-01T12:31:27Z</time>
      </trkpt>
      <trkpt lat="42.3487800" lon="-7.1587700">
        <ele>513.0</ele>
        <time>2014-10-01T12:31:28Z</time>
      </trkpt>
      <trkpt lat="42.3487420" lon="-7.1587470">
        <ele>513.2</ele>
        <time>2014-10-01T12:31:29Z</time>
      </trkpt>
      <trkpt lat="42.3487040" lon="-7.1587240">
        <ele>513.3</ele>
        <time>2014-10-01T12:31:30Z</time>
      </trkpt>
      <trkpt lat="42.3486680" lon="-7.1587000">
        <ele>513.5</ele>
        <time>2014-10-01T12:31:31Z</time>
      </trkpt>
      <trkpt lat="42.3486280" lon="-7.1586750">
        <ele>513.6</ele>
        <time>2014-10-01T12:31:32Z</time>
      </trkpt>
      <trkpt lat="42.3485880" lon="-7.1586500">
        <ele>513.8</ele>
        <time>2014-10-01T12:31:33Z</time>
      </trkpt>
      <trkpt lat="42.3485510" lon="-7.1586260">
        <ele>514.0</ele>
        <time>2014-10-01T12:31:34Z</time>
      </trkpt>
      <trkpt lat="42.3485100" lon="-7.1586000">
        <ele>514.2</ele>
        <time>2014-10-01T12:31:35Z</time>
      </trkpt>
      <trkpt lat="42.3484640" lon="-7.1585700">
        <ele>514.5</ele>
        <time>2014-10-01T12:31:36Z</time>
      </trkpt>
      <trkpt lat="42.3484220" lon="-7.1585430">
        <ele>514.7</ele>
        <time>2014-10-01T12:31:37Z</time>
      </trkpt>
      <trkpt lat="42.3483830" lon="-7.1585210">
        <ele>514.9</ele>
        <time>2014-10-01T12:31:38Z</time>
      </trkpt>
      <trkpt lat="42.3483420" lon="-7.1584960">
        <ele>515.2</ele>
        <time>2014-10-01T12:31:39Z</time>
      </trkpt>
      <trkpt lat="42.3483010" lon="-7.1584750">
        <ele>515.4</ele>
        <time>2014-10-01T12:31:40Z</time>
      </trkpt>
      <trkpt lat="42.3482600" lon="-7.1584530">
        <ele>515.6</ele>
        <time>2014-10-01T12:31:41Z</time>
      </trkpt>
      <trkpt lat="42.3482190" lon="-7.1584330">
        <ele>515.8</ele>
        <time>2014-10-01T12:31:42Z</time>
      </trkpt>
      <trkpt lat="42.3481780" lon="-7.1584130">
        <ele>516.1</ele>
        <time>2014-10-01T12:31:43Z</time>
      </trkpt>
      <trkpt lat="42.3481350" lon="-7.1583920">
        <ele>516.3</ele>
        <time>2014-10-01T12:31:44Z</time>
      </trkpt>
      <trkpt lat="42.3480930" lon="-7.1583750">
        <ele>516.5</ele>
        <time>2014-10-01T12:31:45Z</time>
      </trkpt>
      <trkpt lat="42.3480510" lon="-7.1583630">
        <ele>516.8</ele>
        <time>2014-10-01T12:31:46Z</time>
      </trkpt>
      <trkpt lat="42.3480100" lon="-7.1583510">
        <ele>517.0</ele>
        <time>2014-10-01T12:31:47Z</time>
      </trkpt>
      <trkpt lat="42.3479670" lon="-7.1583400">
        <ele>517.2</ele>
        <time>2014-10-01T12:31:48Z</time>
      </trkpt>
      <trkpt lat="42.3479230" lon="-7.1583320">
        <ele>517.4</ele>
        <time>2014-10-01T12:31:49Z</time>
      </trkpt>
      <trkpt lat="42.3478800" lon="-7.1583270">
        <ele>517.7</ele>
        <time>2014-10-01T12:31:50Z</time>
      </trkpt>
      <trkpt lat="42.3478370" lon="-7.1583220">
        <ele>517.9</ele>
        <time>2014-10-01T12:31:51Z</time>
      </trkpt>
      <trkpt lat="42.3477950" lon="-7.1583150">
        <ele>518.1</ele>
        <time>2014-10-01T12:31:52Z</time>
      </trkpt>
      <trkpt lat="42.3477510" lon="-7.1583100">
        <ele>518.3</ele>
        <time>2014-10-01T12:31:53Z</time>
      </trkpt>
      <trkpt lat="42.3477050" lon="-7.1583050">
        <ele>518.5</ele>
        <time>2014-10-01T12:31:54Z</time>
      </trkpt>
      <trkpt lat="42.3476620" lon="-7.1583000">
        <ele>518.8</ele>
        <time>2014-10-01T12:31:55Z</time>
      </trkpt>
      <trkpt lat="42.3476210" lon="-7.1582940">
        <ele>519.0</ele>
        <time>2014-10-01T12:31:56Z</time>
      </trkpt>
      <trkpt lat="42.3475800" lon="-7.1582900">
        <ele>519.2</ele>
        <time>2014-10-01T12:31:57Z</time>
      </trkpt>
      <trkpt lat="42.3475390" lon="-7.1582900">
        <ele>519.4</ele>
        <time>2014-10-01T12:31:58Z</time>
      </trkpt>
      <trkpt lat="42.3474970" lon="-7.1582930">
        <ele>519.6</ele>
        <time>2014-10-01T12:31:59Z</time>
      </trkpt>
      <trkpt lat="42.3474540" lon="-7.1583010">
        <ele>519.8</ele>
        <time>2014-10-01T12:32:00Z</time>
      </trkpt>
      <trkpt lat="42.3474110" lon="-7.1583110">
        <ele>520.1</ele>
        <time>2014-10-01T12:32:01Z</time>
      </trkpt>
      <trkpt lat="42.3473650" lon="-7.1583210">
        <ele>520.3</ele>
        <time>2014-10-01T12:32:02Z</time>
      </trkpt>
      <trkpt lat="42.3473240" lon="-7.1583290">
        <ele>520.6</ele>
        <time>2014-10-01T12:32:03Z</time>
      </trkpt>
      <trkpt lat="42.3472830" lon="-7.1583370">
        <ele>520.8</ele>
        <time>2014-10-01T12:32:04Z</time>
      </trkpt>
      <trkpt lat="42.3472400" lon="-7.1583450">
        <ele>521.0</ele>
        <time>2014-10-01T12:32:05Z</time>
      </trkpt>
      <trkpt lat="42.3471960" lon="-7.1583600">
        <ele>521.3</ele>
        <time>2014-10-01T12:32:06Z</time>
      </trkpt>
      <trkpt lat="42.3471510" lon="-7.1583760">
        <ele>521.5</ele>
        <time>2014-10-01T12:32:07Z</time>
      </trkpt>
      <trkpt lat="42.3471030" lon="-7.1583940">
        <ele>521.7</ele>
        <time>2014-10-01T12:32:08Z</time>
      </trkpt>
      <trkpt lat="42.3470580" lon="-7.1584110">
        <ele>521.9</ele>
        <time>2014-10-01T12:32:09Z</time>
      </trkpt>
      <trkpt lat="42.3470150" lon="-7.1584250">
        <ele>522.1</ele>
        <time>2014-10-01T12:32:10Z</time>
      </trkpt>
      <trkpt lat="42.3469750" lon="-7.1584480">
        <ele>522.3</ele>
        <time>2014-10-01T12:32:11Z</time>
      </trkpt>
      <trkpt lat="42.3469390" lon="-7.1584650">
        <ele>522.5</ele>
        <time>2014-10-01T12:32:12Z</time>
      </trkpt>
      <trkpt lat="42.3469060" lon="-7.1584820">
        <ele>522.7</ele>
        <time>2014-10-01T12:32:13Z</time>
      </trkpt>
      <trkpt lat="42.3468700" lon="-7.1585050">
        <ele>522.9</ele>
        <time>2014-10-01T12:32:14Z</time>
      </trkpt>
      <trkpt lat="42.3468350" lon="-7.1585290">
        <ele>523.0</ele>
        <time>2014-10-01T12:32:15Z</time>
      </trkpt>
      <trkpt lat="42.3467960" lon="-7.1585550">
        <ele>523.3</ele>
        <time>2014-10-01T12:32:16Z</time>
      </trkpt>
      <trkpt lat="42.3467550" lon="-7.1585850">
        <ele>523.5</ele>
        <time>2014-10-01T12:32:17Z</time>
      </trkpt>
      <trkpt lat="42.3467240" lon="-7.1586120">
        <ele>523.7</ele>
        <time>2014-10-01T12:32:18Z</time>
      </trkpt>
      <trkpt lat="42.3466850" lon="-7.1586450">
        <ele>523.9</ele>
        <time>2014-10-01T12:32:19Z</time>
      </trkpt>
      <trkpt lat="42.3466450" lon="-7.1586760">
        <ele>524.1</ele>
        <time>2014-10-01T12:32:20Z</time>
      </trkpt>
      <trkpt lat="42.3466040" lon="-7.1587080">
        <ele>524.4</ele>
        <time>2014-10-01T12:32:21Z</time>
      </trkpt>
      <trkpt lat="42.3465670" lon="-7.1587430">
        <ele>524.6</ele>
        <time>2014-10-01T12:32:22Z</time>
      </trkpt>
      <trkpt lat="42.3465340" lon="-7.1587760">
        <ele>524.8</ele>
        <time>2014-10-01T12:32:23Z</time>
      </trkpt>
      <trkpt lat="42.3465030" lon="-7.1588090">
        <ele>525.1</ele>
        <time>2014-10-01T12:32:24Z</time>
      </trkpt>
      <trkpt lat="42.3464690" lon="-7.1588460">
        <ele>525.3</ele>
        <time>2014-10-01T12:32:25Z</time>
      </trkpt>
      <trkpt lat="42.3464390" lon="-7.1588830">
        <ele>525.5</ele>
        <time>2014-10-01T12:32:26Z</time>
      </trkpt>
      <trkpt lat="42.3464080" lon="-7.1589230">
        <ele>525.7</ele>
        <time>2014-10-01T12:32:27Z</time>
      </trkpt>
      <trkpt lat="42.3463780" lon="-7.1589640">
        <ele>526.0</ele>
        <time>2014-10-01T12:32:28Z</time>
      </trkpt>
      <trkpt lat="42.3463410" lon="-7.1590290">
        <ele>526.3</ele>
        <time>2014-10-01T12:32:29Z</time>
      </trkpt>
      <trkpt lat="42.3463100" lon="-7.1590810">
        <ele>526.5</ele>
        <time>2014-10-01T12:32:30Z</time>
      </trkpt>
      <trkpt lat="42.3462800" lon="-7.1591300">
        <ele>526.8</ele>
        <time>2014-10-01T12:32:31Z</time>
      </trkpt>
      <trkpt lat="42.3462500" lon="-7.1591790">
        <ele>527.1</ele>
        <time>2014-10-01T12:32:32Z</time>
      </trkpt>
      <trkpt lat="42.3462230" lon="-7.1592290">
        <ele>527.3</ele>
        <time>2014-10-01T12:32:33Z</time>
      </trkpt>
      <trkpt lat="42.3461970" lon="-7.1592760">
        <ele>527.5</ele>
        <time>2014-10-01T12:32:34Z</time>
      </trkpt>
      <trkpt lat="42.3461760" lon="-7.1593210">
        <ele>527.8</ele>
        <time>2014-10-01T12:32:35Z</time>
      </trkpt>
      <trkpt lat="42.3461560" lon="-7.1593710">
        <ele>528.0</ele>
        <time>2014-10-01T12:32:36Z</time>
      </trkpt>
      <trkpt lat="42.3461430" lon="-7.1594240">
        <ele>528.3</ele>
        <time>2014-10-01T12:32:37Z</time>
      </trkpt>
      <trkpt lat="42.3461410" lon="-7.1594790">
        <ele>528.5</ele>
        <time>2014-10-01T12:32:38Z</time>
      </trkpt>
      <trkpt lat="42.3461450" lon="-7.1595360">
        <ele>528.8</ele>
        <time>2014-10-01T12:32:39Z</time>
      </trkpt>
      <trkpt lat="42.3461520" lon="-7.1595910">
        <ele>529.0</ele>
        <time>2014-10-01T12:32:40Z</time>
      </trkpt>
      <trkpt lat="42.3461580" lon="-7.1596530">
        <ele>529.3</ele>
        <time>2014-10-01T12:32:41Z</time>
      </trkpt>
      <trkpt lat="42.3461640" lon="-7.1597110">
        <ele>529.5</ele>
        <time>2014-10-01T12:32:42Z</time>
      </trkpt>
      <trkpt lat="42.3461680" lon="-7.1597730">
        <ele>529.8</ele>
        <time>2014-10-01T12:32:43Z</time>
      </trkpt>
      <trkpt lat="42.3461720" lon="-7.1598270">
        <ele>530.0</ele>
        <time>2014-10-01T12:32:44Z</time>
      </trkpt>
      <trkpt lat="42.3461790" lon="-7.1598810">
        <ele>530.3</ele>
        <time>2014-10-01T12:32:45Z</time>
      </trkpt>
      <trkpt lat="42.3461900" lon="-7.1599300">
        <ele>530.6</ele>
        <time>2014-10-01T12:32:46Z</time>
      </trkpt>
      <trkpt lat="42.3462010" lon="-7.1599820">
        <ele>530.8</ele>
        <time>2014-10-01T12:32:47Z</time>
      </trkpt>
      <trkpt lat="42.3462100" lon="-7.1600330">
        <ele>531.1</ele>
        <time>2014-10-01T12:32:48Z</time>
      </trkpt>
      <trkpt lat="42.3462210" lon="-7.1600820">
        <ele>531.3</ele>
        <time>2014-10-01T12:32:49Z</time>
      </trkpt>
      <trkpt lat="42.3462270" lon="-7.1601310">
        <ele>531.5</ele>
        <time>2014-10-01T12:32:50Z</time>
      </trkpt>
      <trkpt lat="42.3462340" lon="-7.1601810">
        <ele>531.7</ele>
        <time>2014-10-01T12:32:51Z</time>
      </trkpt>
      <trkpt lat="42.3462450" lon="-7.1602360">
        <ele>532.0</ele>
        <time>2014-10-01T12:32:52Z</time>
      </trkpt>
      <trkpt lat="42.3462570" lon="-7.1602910">
        <ele>532.2</ele>
        <time>2014-10-01T12:32:53Z</time>
      </trkpt>
      <trkpt lat="42.3462710" lon="-7.1603430">
        <ele>532.5</ele>
        <time>2014-10-01T12:32:54Z</time>
      </trkpt>
      <trkpt lat="42.3462830" lon="-7.1603970">
        <ele>532.7</ele>
        <time>2014-10-01T12:32:55Z</time>
      </trkpt>
      <trkpt lat="42.3462940" lon="-7.1604530">
        <ele>532.9</ele>
        <time>2014-10-01T12:32:56Z</time>
      </trkpt>
      <trkpt lat="42.3463050" lon="-7.1605060">
        <ele>533.1</ele>
        <time>2014-10-01T12:32:57Z</time>
      </trkpt>
      <trkpt lat="42.3463180" lon="-7.1605490">
        <ele>533.3</ele>
        <time>2014-10-01T12:32:58Z</time>
      </trkpt>
      <trkpt lat="42.3463260" lon="-7.1605970">
        <ele>533.5</ele>
        <time>2014-10-01T12:32:59Z</time>
      </trkpt>
      <trkpt lat="42.3463360" lon="-7.1606560">
        <ele>533.7</ele>
        <time>2014-10-01T12:33:00Z</time>
      </trkpt>
      <trkpt lat="42.3463440" lon="-7.1607260">
        <ele>534.0</ele>
        <time>2014-10-01T12:33:01Z</time>
      </trkpt>
      <trkpt lat="42.3463520" lon="-7.1607820">
        <ele>534.2</ele>
        <time>2014-10-01T12:33:02Z</time>
      </trkpt>
      <trkpt lat="42.3463630" lon="-7.1608360">
        <ele>534.5</ele>
        <time>2014-10-01T12:33:03Z</time>
      </trkpt>
      <trkpt lat="42.3463740" lon="-7.1608910">
        <ele>534.7</ele>
        <time>2014-10-01T12:33:04Z</time>
      </trkpt>
      <trkpt lat="42.3463840" lon="-7.1609470">
        <ele>535.0</ele>
        <time>2014-10-01T12:33:05Z</time>
      </trkpt>
      <trkpt lat="42.3463940" lon="-7.1609980">
        <ele>535.2</ele>
        <time>2014-10-01T12:33:06Z</time>
      </trkpt>
      <trkpt lat="42.3464060" lon="-7.1610500">
        <ele>535.4</ele>
        <time>2014-10-01T12:33:07Z</time>
      </trkpt>
      <trkpt lat="42.3464170" lon="-7.1611040">
        <ele>535.6</ele>
        <time>2014-10-01T12:33:08Z</time>
      </trkpt>
      <trkpt lat="42.3464280" lon="-7.1611590">
        <ele>535.9</ele>
        <time>2014-10-01T12:33:09Z</time>
      </trkpt>
      <trkpt lat="42.3464380" lon="-7.1612110">
        <ele>536.1</ele>
        <time>2014-10-01T12:33:10Z</time>
      </trkpt>
      <trkpt lat="42.3464510" lon="-7.1612680">
        <ele>536.4</ele>
        <time>2014-10-01T12:33:11Z</time>
      </trkpt>
      <trkpt lat="42.3464600" lon="-7.1613220">
        <ele>536.6</ele>
        <time>2014-10-01T12:33:12Z</time>
      </trkpt>
      <trkpt lat="42.3464690" lon="-7.1613810">
        <ele>536.8</ele>
        <time>2014-10-01T12:33:13Z</time>
      </trkpt>
      <trkpt lat="42.3464820" lon="-7.1614390">
        <ele>537.1</ele>
        <time>2014-10-01T12:33:14Z</time>
      </trkpt>
      <trkpt lat="42.3464940" lon="-7.1614940">
        <ele>537.3</ele>
        <time>2014-10-01T12:33:15Z</time>
      </trkpt>
      <trkpt lat="42.3465030" lon="-7.1615450">
        <ele>537.5</ele>
        <time>2014-10-01T12:33:16Z</time>
      </trkpt>
      <trkpt lat="42.3465120" lon="-7.1615920">
        <ele>537.7</ele>
        <time>2014-10-01T12:33:17Z</time>
      </trkpt>
      <trkpt lat="42.3465220" lon="-7.1616490">
        <ele>538.0</ele>
        <time>2014-10-01T12:33:18Z</time>
      </trkpt>
      <trkpt lat="42.3465280" lon="-7.1617110">
        <ele>538.2</ele>
        <time>2014-10-01T12:33:19Z</time>
      </trkpt>
      <trkpt lat="42.3465330" lon="-7.1617740">
        <ele>538.4</ele>
        <time>2014-10-01T12:33:20Z</time>
      </trkpt>
      <trkpt lat="42.3465360" lon="-7.1618330">
        <ele>538.6</ele>
        <time>2014-10-01T12:33:21Z</time>
      </trkpt>
      <trkpt lat="42.3465430" lon="-7.1618830">
        <ele>538.8</ele>
        <time>2014-10-01T12:33:22Z</time>
      </trkpt>
      <trkpt lat="42.3465480" lon="-7.1619310">
        <ele>538.9</ele>
        <time>2014-10-01T12:33:23Z</time>
      </trkpt>
      <trkpt lat="42.3465560" lon="-7.1619900">
        <ele>539.1</ele>
        <time>2014-10-01T12:33:24Z</time>
      </trkpt>
      <trkpt lat="42.3465610" lon="-7.1620450">
        <ele>539.2</ele>
        <time>2014-10-01T12:33:25Z</time>
      </trkpt>
      <trkpt lat="42.3465660" lon="-7.1621030">
        <ele>539.2</ele>
        <time>2014-10-01T12:33:26Z</time>
      </trkpt>
      <trkpt lat="42.3465730" lon="-7.1621630">
        <ele>539.2</ele>
        <time>2014-10-01T12:33:27Z</time>
      </trkpt>
      <trkpt lat="42.3465750" lon="-7.1622190">
        <ele>539.1</ele>
        <time>2014-10-01T12:33:28Z</time>
      </trkpt>
      <trkpt lat="42.3465760" lon="-7.1622850">
        <ele>539.1</ele>
        <time>2014-10-01T12:33:29Z</time>
      </trkpt>
      <trkpt lat="42.3465690" lon="-7.1623530">
        <ele>539.1</ele>
        <time>2014-10-01T12:33:30Z</time>
      </trkpt>
      <trkpt lat="42.3465620" lon="-7.1624270">
        <ele>539.0</ele>
        <time>2014-10-01T12:33:31Z</time>
      </trkpt>
      <trkpt lat="42.3465540" lon="-7.1624950">
        <ele>539.0</ele>
        <time>2014-10-01T12:33:32Z</time>
      </trkpt>
      <trkpt lat="42.3465450" lon="-7.1625720">
        <ele>538.8</ele>
        <time>2014-10-01T12:33:33Z</time>
      </trkpt>
      <trkpt lat="42.3465340" lon="-7.1626470">
        <ele>538.7</ele>
        <time>2014-10-01T12:33:34Z</time>
      </trkpt>
      <trkpt lat="42.3465190" lon="-7.1627300">
        <ele>538.5</ele>
        <time>2014-10-01T12:33:35Z</time>
      </trkpt>
      <trkpt lat="42.3465040" lon="-7.1628250">
        <ele>538.3</ele>
        <time>2014-10-01T12:33:36Z</time>
      </trkpt>
      <trkpt lat="42.3464980" lon="-7.1629140">
        <ele>538.2</ele>
        <time>2014-10-01T12:33:37Z</time>
      </trkpt>
      <trkpt lat="42.3464840" lon="-7.1630140">
        <ele>537.7</ele>
        <time>2014-10-01T12:33:38Z</time>
      </trkpt>
      <trkpt lat="42.3464790" lon="-7.1631250">
        <ele>537.2</ele>
        <time>2014-10-01T12:33:39Z</time>
      </trkpt>
      <trkpt lat="42.3464780" lon="-7.1632350">
        <ele>536.7</ele>
        <time>2014-10-01T12:33:40Z</time>
      </trkpt>
      <trkpt lat="42.3464800" lon="-7.1633440">
        <ele>536.3</ele>
        <time>2014-10-01T12:33:41Z</time>
      </trkpt>
      <trkpt lat="42.3464840" lon="-7.1634540">
        <ele>535.8</ele>
        <time>2014-10-01T12:33:42Z</time>
      </trkpt>
      <trkpt lat="42.3464880" lon="-7.1635660">
        <ele>535.5</ele>
        <time>2014-10-01T12:33:43Z</time>
      </trkpt>
      <trkpt lat="42.3464960" lon="-7.1636840">
        <ele>535.1</ele>
        <time>2014-10-01T12:33:44Z</time>
      </trkpt>
      <trkpt lat="42.3465040" lon="-7.1637920">
        <ele>534.6</ele>
        <time>2014-10-01T12:33:45Z</time>
      </trkpt>
      <trkpt lat="42.3465090" lon="-7.1639020">
        <ele>534.2</ele>
        <time>2014-10-01T12:33:46Z</time>
      </trkpt>
      <trkpt lat="42.3465140" lon="-7.1640190">
        <ele>533.8</ele>
        <time>2014-10-01T12:33:47Z</time>
      </trkpt>
      <trkpt lat="42.3465160" lon="-7.1641360">
        <ele>533.4</ele>
        <time>2014-10-01T12:33:48Z</time>
      </trkpt>
      <trkpt lat="42.3465180" lon="-7.1642530">
        <ele>533.1</ele>
        <time>2014-10-01T12:33:49Z</time>
      </trkpt>
      <trkpt lat="42.3465200" lon="-7.1643760">
        <ele>532.8</ele>
        <time>2014-10-01T12:33:50Z</time>
      </trkpt>
      <trkpt lat="42.3465230" lon="-7.1645020">
        <ele>532.5</ele>
        <time>2014-10-01T12:33:51Z</time>
      </trkpt>
      <trkpt lat="42.3465250" lon="-7.1646250">
        <ele>532.2</ele>
        <time>2014-10-01T12:33:52Z</time>
      </trkpt>
      <trkpt lat="42.3465270" lon="-7.1647560">
        <ele>532.0</ele>
        <time>2014-10-01T12:33:53Z</time>
      </trkpt>
      <trkpt lat="42.3465300" lon="-7.1648790">
        <ele>531.7</ele>
        <time>2014-10-01T12:33:54Z</time>
      </trkpt>
      <trkpt lat="42.3465320" lon="-7.1650080">
        <ele>531.5</ele>
        <time>2014-10-01T12:33:55Z</time>
      </trkpt>
      <trkpt lat="42.3465350" lon="-7.1651310">
        <ele>531.2</ele>
        <time>2014-10-01T12:33:56Z</time>
      </trkpt>
      <trkpt lat="42.3465360" lon="-7.1652560">
        <ele>530.9</ele>
        <time>2014-10-01T12:33:57Z</time>
      </trkpt>
      <trkpt lat="42.3465300" lon="-7.1653780">
        <ele>530.6</ele>
        <time>2014-10-01T12:33:58Z</time>
      </trkpt>
      <trkpt lat="42.3465190" lon="-7.1655040">
        <ele>530.3</ele>
        <time>2014-10-01T12:33:59Z</time>
      </trkpt>
      <trkpt lat="42.3464980" lon="-7.1656330">
        <ele>529.8</ele>
        <time>2014-10-01T12:34:00Z</time>
      </trkpt>
      <trkpt lat="42.3464700" lon="-7.1657540">
        <ele>529.5</ele>
        <time>2014-10-01T12:34:01Z</time>
      </trkpt>
      <trkpt lat="42.3464390" lon="-7.1658790">
        <ele>529.0</ele>
        <time>2014-10-01T12:34:02Z</time>
      </trkpt>
      <trkpt lat="42.3464060" lon="-7.1660060">
        <ele>528.6</ele>
        <time>2014-10-01T12:34:03Z</time>
      </trkpt>
      <trkpt lat="42.3463770" lon="-7.1661320">
        <ele>528.2</ele>
        <time>2014-10-01T12:34:04Z</time>
      </trkpt>
      <trkpt lat="42.3463490" lon="-7.1662550">
        <ele>527.9</ele>
        <time>2014-10-01T12:34:05Z</time>
      </trkpt>
      <trkpt lat="42.3463240" lon="-7.1663820">
        <ele>527.5</ele>
        <time>2014-10-01T12:34:06Z</time>
      </trkpt>
      <trkpt lat="42.3463020" lon="-7.1665090">
        <ele>527.1</ele>
        <time>2014-10-01T12:34:07Z</time>
      </trkpt>
      <trkpt lat="42.3462830" lon="-7.1666400">
        <ele>526.6</ele>
        <time>2014-10-01T12:34:08Z</time>
      </trkpt>
      <trkpt lat="42.3462740" lon="-7.1667750">
        <ele>526.3</ele>
        <time>2014-10-01T12:34:09Z</time>
      </trkpt>
      <trkpt lat="42.3462720" lon="-7.1669140">
        <ele>526.0</ele>
        <time>2014-10-01T12:34:10Z</time>
      </trkpt>
      <trkpt lat="42.3462760" lon="-7.1670530">
        <ele>525.8</ele>
        <time>2014-10-01T12:34:11Z</time>
      </trkpt>
      <trkpt lat="42.3463090" lon="-7.1671820">
        <ele>525.7</ele>
        <time>2014-10-01T12:34:12Z</time>
      </trkpt>
      <trkpt lat="42.3463450" lon="-7.1673140">
        <ele>525.5</ele>
        <time>2014-10-01T12:34:13Z</time>
      </trkpt>
      <trkpt lat="42.3463820" lon="-7.1674390">
        <ele>525.5</ele>
        <time>2014-10-01T12:34:14Z</time>
      </trkpt>
      <trkpt lat="42.3464200" lon="-7.1675650">
        <ele>525.5</ele>
        <time>2014-10-01T12:34:15Z</time>
      </trkpt>
      <trkpt lat="42.3464610" lon="-7.1676850">
        <ele>525.5</ele>
        <time>2014-10-01T12:34:16Z</time>
      </trkpt>
      <trkpt lat="42.3465010" lon="-7.1678080">
        <ele>525.6</ele>
        <time>2014-10-01T12:34:17Z</time>
      </trkpt>
      <trkpt lat="42.3465410" lon="-7.1679300">
        <ele>525.7</ele>
        <time>2014-10-01T12:34:18Z</time>
      </trkpt>
      <trkpt lat="42.3465730" lon="-7.1680480">
        <ele>525.7</ele>
        <time>2014-10-01T12:34:19Z</time>
      </trkpt>
      <trkpt lat="42.3466010" lon="-7.1681610">
        <ele>525.8</ele>
        <time>2014-10-01T12:34:20Z</time>
      </trkpt>
      <trkpt lat="42.3466190" lon="-7.1682650">
        <ele>525.9</ele>
        <time>2014-10-01T12:34:21Z</time>
      </trkpt>
      <trkpt lat="42.3466320" lon="-7.1683690">
        <ele>526.0</ele>
        <time>2014-10-01T12:34:22Z</time>
      </trkpt>
      <trkpt lat="42.3466400" lon="-7.1684720">
        <ele>526.1</ele>
        <time>2014-10-01T12:34:23Z</time>
      </trkpt>
      <trkpt lat="42.3466410" lon="-7.1685790">
        <ele>526.3</ele>
        <time>2014-10-01T12:34:24Z</time>
      </trkpt>
      <trkpt lat="42.3466380" lon="-7.1686840">
        <ele>526.4</ele>
        <time>2014-10-01T12:34:25Z</time>
      </trkpt>
      <trkpt lat="42.3466310" lon="-7.1687880">
        <ele>526.5</ele>
        <time>2014-10-01T12:34:26Z</time>
      </trkpt>
      <trkpt lat="42.3466220" lon="-7.1688940">
        <ele>526.6</ele>
        <time>2014-10-01T12:34:27Z</time>
      </trkpt>
      <trkpt lat="42.3466100" lon="-7.1689940">
        <ele>526.8</ele>
        <time>2014-10-01T12:34:28Z</time>
      </trkpt>
      <trkpt lat="42.3465940" lon="-7.1690960">
        <ele>526.9</ele>
        <time>2014-10-01T12:34:29Z</time>
      </trkpt>
      <trkpt lat="42.3465750" lon="-7.1692020">
        <ele>527.1</ele>
        <time>2014-10-01T12:34:30Z</time>
      </trkpt>
      <trkpt lat="42.3465520" lon="-7.1693040">
        <ele>527.2</ele>
        <time>2014-10-01T12:34:31Z</time>
      </trkpt>
      <trkpt lat="42.3465160" lon="-7.1693980">
        <ele>527.4</ele>
        <time>2014-10-01T12:34:32Z</time>
      </trkpt>
      <trkpt lat="42.3464780" lon="-7.1694890">
        <ele>527.5</ele>
        <time>2014-10-01T12:34:33Z</time>
      </trkpt>
      <trkpt lat="42.3464390" lon="-7.1695690">
        <ele>527.7</ele>
        <time>2014-10-01T12:34:34Z</time>
      </trkpt>
      <trkpt lat="42.3463970" lon="-7.1696460">
        <ele>528.0</ele>
        <time>2014-10-01T12:34:35Z</time>
      </trkpt>
      <trkpt lat="42.3463540" lon="-7.1697100">
        <ele>528.3</ele>
        <time>2014-10-01T12:34:36Z</time>
      </trkpt>
      <trkpt lat="42.3463050" lon="-7.1697730">
        <ele>528.6</ele>
        <time>2014-10-01T12:34:37Z</time>
      </trkpt>
      <trkpt lat="42.3462430" lon="-7.1698260">
        <ele>528.9</ele>
        <time>2014-10-01T12:34:38Z</time>
      </trkpt>
      <trkpt lat="42.3461820" lon="-7.1698760">
        <ele>529.3</ele>
        <time>2014-10-01T12:34:39Z</time>
      </trkpt>
      <trkpt lat="42.3461210" lon="-7.1699210">
        <ele>529.6</ele>
        <time>2014-10-01T12:34:40Z</time>
      </trkpt>
      <trkpt lat="42.3460620" lon="-7.1699590">
        <ele>529.9</ele>
        <time>2014-10-01T12:34:41Z</time>
      </trkpt>
      <trkpt lat="42.3460060" lon="-7.1699870">
        <ele>530.2</ele>
        <time>2014-10-01T12:34:42Z</time>
      </trkpt>
      <trkpt lat="42.3459430" lon="-7.1700200">
        <ele>530.5</ele>
        <time>2014-10-01T12:34:43Z</time>
      </trkpt>
      <trkpt lat="42.3458780" lon="-7.1700510">
        <ele>530.8</ele>
        <time>2014-10-01T12:34:44Z</time>
      </trkpt>
      <trkpt lat="42.3458150" lon="-7.1700800">
        <ele>531.1</ele>
        <time>2014-10-01T12:34:45Z</time>
      </trkpt>
      <trkpt lat="42.3457570" lon="-7.1701030">
        <ele>531.3</ele>
        <time>2014-10-01T12:34:46Z</time>
      </trkpt>
      <trkpt lat="42.3457030" lon="-7.1701260">
        <ele>531.5</ele>
        <time>2014-10-01T12:34:47Z</time>
      </trkpt>
      <trkpt lat="42.3456410" lon="-7.1701550">
        <ele>531.8</ele>
        <time>2014-10-01T12:34:48Z</time>
      </trkpt>
      <trkpt lat="42.3455820" lon="-7.1701800">
        <ele>532.0</ele>
        <time>2014-10-01T12:34:49Z</time>
      </trkpt>
      <trkpt lat="42.3455270" lon="-7.1702040">
        <ele>532.1</ele>
        <time>2014-10-01T12:34:50Z</time>
      </trkpt>
      <trkpt lat="42.3454740" lon="-7.1702250">
        <ele>532.2</ele>
        <time>2014-10-01T12:34:51Z</time>
      </trkpt>
      <trkpt lat="42.3454250" lon="-7.1702460">
        <ele>532.3</ele>
        <time>2014-10-01T12:34:52Z</time>
      </trkpt>
      <trkpt lat="42.3453720" lon="-7.1702720">
        <ele>532.4</ele>
        <time>2014-10-01T12:34:53Z</time>
      </trkpt>
      <trkpt lat="42.3453150" lon="-7.1703050">
        <ele>532.4</ele>
        <time>2014-10-01T12:34:54Z</time>
      </trkpt>
      <trkpt lat="42.3452650" lon="-7.1703400">
        <ele>532.4</ele>
        <time>2014-10-01T12:34:55Z</time>
      </trkpt>
      <trkpt lat="42.3452050" lon="-7.1703830">
        <ele>532.4</ele>
        <time>2014-10-01T12:34:56Z</time>
      </trkpt>
      <trkpt lat="42.3451380" lon="-7.1704330">
        <ele>532.4</ele>
        <time>2014-10-01T12:34:57Z</time>
      </trkpt>
      <trkpt lat="42.3450820" lon="-7.1704840">
        <ele>532.4</ele>
        <time>2014-10-01T12:34:58Z</time>
      </trkpt>
      <trkpt lat="42.3450230" lon="-7.1705380">
        <ele>532.3</ele>
        <time>2014-10-01T12:34:59Z</time>
      </trkpt>
      <trkpt lat="42.3449620" lon="-7.1705950">
        <ele>532.2</ele>
        <time>2014-10-01T12:35:00Z</time>
      </trkpt>
      <trkpt lat="42.3449030" lon="-7.1706500">
        <ele>532.2</ele>
        <time>2014-10-01T12:35:01Z</time>
      </trkpt>
      <trkpt lat="42.3448410" lon="-7.1707080">
        <ele>532.1</ele>
        <time>2014-10-01T12:35:02Z</time>
      </trkpt>
      <trkpt lat="42.3447780" lon="-7.1707690">
        <ele>531.9</ele>
        <time>2014-10-01T12:35:03Z</time>
      </trkpt>
      <trkpt lat="42.3447140" lon="-7.1708310">
        <ele>531.7</ele>
        <time>2014-10-01T12:35:04Z</time>
      </trkpt>
      <trkpt lat="42.3446480" lon="-7.1708970">
        <ele>531.4</ele>
        <time>2014-10-01T12:35:05Z</time>
      </trkpt>
      <trkpt lat="42.3445790" lon="-7.1709660">
        <ele>531.1</ele>
        <time>2014-10-01T12:35:06Z</time>
      </trkpt>
      <trkpt lat="42.3445100" lon="-7.1710370">
        <ele>530.7</ele>
        <time>2014-10-01T12:35:07Z</time>
      </trkpt>
      <trkpt lat="42.3444390" lon="-7.1711110">
        <ele>530.4</ele>
        <time>2014-10-01T12:35:08Z</time>
      </trkpt>
      <trkpt lat="42.3443690" lon="-7.1711860">
        <ele>530.0</ele>
        <time>2014-10-01T12:35:09Z</time>
      </trkpt>
      <trkpt lat="42.3442950" lon="-7.1712690">
        <ele>529.6</ele>
        <time>2014-10-01T12:35:10Z</time>
      </trkpt>
      <trkpt lat="42.3442190" lon="-7.1713610">
        <ele>529.1</ele>
        <time>2014-10-01T12:35:11Z</time>
      </trkpt>
      <trkpt lat="42.3441450" lon="-7.1714600">
        <ele>528.6</ele>
        <time>2014-10-01T12:35:12Z</time>
      </trkpt>
      <trkpt lat="42.3440720" lon="-7.1715670">
        <ele>528.1</ele>
        <time>2014-10-01T12:35:13Z</time>
      </trkpt>
      <trkpt lat="42.3440040" lon="-7.1716810">
        <ele>527.6</ele>
        <time>2014-10-01T12:35:14Z</time>
      </trkpt>
      <trkpt lat="42.3439440" lon="-7.1718010">
        <ele>527.0</ele>
        <time>2014-10-01T12:35:15Z</time>
      </trkpt>
      <trkpt lat="42.3439030" lon="-7.1719420">
        <ele>526.5</ele>
        <time>2014-10-01T12:35:16Z</time>
      </trkpt>
      <trkpt lat="42.3438690" lon="-7.1720840">
        <ele>525.9</ele>
        <time>2014-10-01T12:35:17Z</time>
      </trkpt>
      <trkpt lat="42.3438450" lon="-7.1722270">
        <ele>525.3</ele>
        <time>2014-10-01T12:35:18Z</time>
      </trkpt>
      <trkpt lat="42.3438250" lon="-7.1723760">
        <ele>524.8</ele>
        <time>2014-10-01T12:35:19Z</time>
      </trkpt>
      <trkpt lat="42.3438090" lon="-7.1725290">
        <ele>524.2</ele>
        <time>2014-10-01T12:35:20Z</time>
      </trkpt>
      <trkpt lat="42.3437950" lon="-7.1726830">
        <ele>523.6</ele>
        <time>2014-10-01T12:35:21Z</time>
      </trkpt>
      <trkpt lat="42.3437810" lon="-7.1728370">
        <ele>523.0</ele>
        <time>2014-10-01T12:35:22Z</time>
      </trkpt>
      <trkpt lat="42.3437680" lon="-7.1729940">
        <ele>522.5</ele>
        <time>2014-10-01T12:35:23Z</time>
      </trkpt>
      <trkpt lat="42.3437520" lon="-7.1731510">
        <ele>521.9</ele>
        <time>2014-10-01T12:35:24Z</time>
      </trkpt>
      <trkpt lat="42.3437390" lon="-7.1733110">
        <ele>521.4</ele>
        <time>2014-10-01T12:35:25Z</time>
      </trkpt>
      <trkpt lat="42.3437290" lon="-7.1734730">
        <ele>520.8</ele>
        <time>2014-10-01T12:35:26Z</time>
      </trkpt>
      <trkpt lat="42.3437490" lon="-7.1736390">
        <ele>520.1</ele>
        <time>2014-10-01T12:35:27Z</time>
      </trkpt>
      <trkpt lat="42.3437800" lon="-7.1738030">
        <ele>519.4</ele>
        <time>2014-10-01T12:35:28Z</time>
      </trkpt>
      <trkpt lat="42.3438500" lon="-7.1739500">
        <ele>518.7</ele>
        <time>2014-10-01T12:35:29Z</time>
      </trkpt>
      <trkpt lat="42.3439210" lon="-7.1740910">
        <ele>518.0</ele>
        <time>2014-10-01T12:35:30Z</time>
      </trkpt>
      <trkpt lat="42.3439970" lon="-7.1742250">
        <ele>517.2</ele>
        <time>2014-10-01T12:35:31Z</time>
      </trkpt>
      <trkpt lat="42.3440680" lon="-7.1743400">
        <ele>516.4</ele>
        <time>2014-10-01T12:35:32Z</time>
      </trkpt>
      <trkpt lat="42.3441370" lon="-7.1744460">
        <ele>515.8</ele>
        <time>2014-10-01T12:35:33Z</time>
      </trkpt>
      <trkpt lat="42.3442170" lon="-7.1745560">
        <ele>515.1</ele>
        <time>2014-10-01T12:35:34Z</time>
      </trkpt>
      <trkpt lat="42.3443040" lon="-7.1746610">
        <ele>514.5</ele>
        <time>2014-10-01T12:35:35Z</time>
      </trkpt>
      <trkpt lat="42.3443940" lon="-7.1747630">
        <ele>513.8</ele>
        <time>2014-10-01T12:35:36Z</time>
      </trkpt>
      <trkpt lat="42.3444810" lon="-7.1748550">
        <ele>513.2</ele>
        <time>2014-10-01T12:35:37Z</time>
      </trkpt>
      <trkpt lat="42.3445710" lon="-7.1749310">
        <ele>512.6</ele>
        <time>2014-10-01T12:35:38Z</time>
      </trkpt>
      <trkpt lat="42.3446640" lon="-7.1749980">
        <ele>511.9</ele>
        <time>2014-10-01T12:35:39Z</time>
      </trkpt>
      <trkpt lat="42.3447660" lon="-7.1750710">
        <ele>511.3</ele>
        <time>2014-10-01T12:35:40Z</time>
      </trkpt>
      <trkpt lat="42.3448630" lon="-7.1751410">
        <ele>510.6</ele>
        <time>2014-10-01T12:35:41Z</time>
      </trkpt>
      <trkpt lat="42.3449620" lon="-7.1752070">
        <ele>510.0</ele>
        <time>2014-10-01T12:35:42Z</time>
      </trkpt>
      <trkpt lat="42.3450670" lon="-7.1752740">
        <ele>509.5</ele>
        <time>2014-10-01T12:35:43Z</time>
      </trkpt>
      <trkpt lat="42.3451670" lon="-7.1753470">
        <ele>509.0</ele>
        <time>2014-10-01T12:35:44Z</time>
      </trkpt>
      <trkpt lat="42.3452360" lon="-7.1754680">
        <ele>508.6</ele>
        <time>2014-10-01T12:35:45Z</time>
      </trkpt>
      <trkpt lat="42.3452760" lon="-7.1756060">
        <ele>508.4</ele>
        <time>2014-10-01T12:35:46Z</time>
      </trkpt>
      <trkpt lat="42.3452680" lon="-7.1757350">
        <ele>508.2</ele>
        <time>2014-10-01T12:35:47Z</time>
      </trkpt>
      <trkpt lat="42.3452150" lon="-7.1758180">
        <ele>508.0</ele>
        <time>2014-10-01T12:35:48Z</time>
      </trkpt>
      <trkpt lat="42.3451470" lon="-7.1758420">
        <ele>508.0</ele>
        <time>2014-10-01T12:35:49Z</time>
      </trkpt>
      <trkpt lat="42.3450750" lon="-7.1758590">
        <ele>508.0</ele>
        <time>2014-10-01T12:35:50Z</time>
      </trkpt>
      <trkpt lat="42.3449960" lon="-7.1758550">
        <ele>508.2</ele>
        <time>2014-10-01T12:35:51Z</time>
      </trkpt>
      <trkpt lat="42.3449150" lon="-7.1758480">
        <ele>508.5</ele>
        <time>2014-10-01T12:35:52Z</time>
      </trkpt>
      <trkpt lat="42.3448370" lon="-7.1758400">
        <ele>508.8</ele>
        <time>2014-10-01T12:35:53Z</time>
      </trkpt>
      <trkpt lat="42.3447630" lon="-7.1758340">
        <ele>509.1</ele>
        <time>2014-10-01T12:35:54Z</time>
      </trkpt>
      <trkpt lat="42.3446930" lon="-7.1758280">
        <ele>509.4</ele>
        <time>2014-10-01T12:35:55Z</time>
      </trkpt>
      <trkpt lat="42.3446190" lon="-7.1758210">
        <ele>509.7</ele>
        <time>2014-10-01T12:35:56Z</time>
      </trkpt>
      <trkpt lat="42.3445480" lon="-7.1758140">
        <ele>510.1</ele>
        <time>2014-10-01T12:35:57Z</time>
      </trkpt>
      <trkpt lat="42.3444810" lon="-7.1758090">
        <ele>510.5</ele>
        <time>2014-10-01T12:35:58Z</time>
      </trkpt>
      <trkpt lat="42.3444170" lon="-7.1758070">
        <ele>510.9</ele>
        <time>2014-10-01T12:35:59Z</time>
      </trkpt>
      <trkpt lat="42.3443570" lon="-7.1758070">
        <ele>511.3</ele>
        <time>2014-10-01T12:36:00Z</time>
      </trkpt>
      <trkpt lat="42.3442960" lon="-7.1758060">
        <ele>511.8</ele>
        <time>2014-10-01T12:36:01Z</time>
      </trkpt>
      <trkpt lat="42.3442360" lon="-7.1758050">
        <ele>512.2</ele>
        <time>2014-10-01T12:36:02Z</time>
      </trkpt>
      <trkpt lat="42.3441780" lon="-7.1758060">
        <ele>512.6</ele>
        <time>2014-10-01T12:36:03Z</time>
      </trkpt>
      <trkpt lat="42.3441190" lon="-7.1758050">
        <ele>513.1</ele>
        <time>2014-10-01T12:36:04Z</time>
      </trkpt>
      <trkpt lat="42.3440640" lon="-7.1758060">
        <ele>513.5</ele>
        <time>2014-10-01T12:36:05Z</time>
      </trkpt>
      <trkpt lat="42.3440120" lon="-7.1758080">
        <ele>514.0</ele>
        <time>2014-10-01T12:36:06Z</time>
      </trkpt>
      <trkpt lat="42.3439600" lon="-7.1758100">
        <ele>514.4</ele>
        <time>2014-10-01T12:36:07Z</time>
      </trkpt>
      <trkpt lat="42.3439060" lon="-7.1758110">
        <ele>514.8</ele>
        <time>2014-10-01T12:36:08Z</time>
      </trkpt>
      <trkpt lat="42.3438490" lon="-7.1758150">
        <ele>515.2</ele>
        <time>2014-10-01T12:36:09Z</time>
      </trkpt>
      <trkpt lat="42.3437920" lon="-7.1758270">
        <ele>515.7</ele>
        <time>2014-10-01T12:36:10Z</time>
      </trkpt>
      <trkpt lat="42.3437440" lon="-7.1758520">
        <ele>516.0</ele>
        <time>2014-10-01T12:36:11Z</time>
      </trkpt>
      <trkpt lat="42.3436950" lon="-7.1758800">
        <ele>516.5</ele>
        <time>2014-10-01T12:36:12Z</time>
      </trkpt>
      <trkpt lat="42.3436600" lon="-7.1759170">
        <ele>516.8</ele>
        <time>2014-10-01T12:36:13Z</time>
      </trkpt>
      <trkpt lat="42.3436280" lon="-7.1759590">
        <ele>517.1</ele>
        <time>2014-10-01T12:36:14Z</time>
      </trkpt>
      <trkpt lat="42.3436040" lon="-7.1760110">
        <ele>517.5</ele>
        <time>2014-10-01T12:36:15Z</time>
      </trkpt>
      <trkpt lat="42.3435830" lon="-7.1760630">
        <ele>517.8</ele>
        <time>2014-10-01T12:36:16Z</time>
      </trkpt>
      <trkpt lat="42.3435740" lon="-7.1761180">
        <ele>518.1</ele>
        <time>2014-10-01T12:36:17Z</time>
      </trkpt>
      <trkpt lat="42.3435680" lon="-7.1761710">
        <ele>518.4</ele>
        <time>2014-10-01T12:36:18Z</time>
      </trkpt>
      <trkpt lat="42.3435630" lon="-7.1762300">
        <ele>518.7</ele>
        <time>2014-10-01T12:36:19Z</time>
      </trkpt>
      <trkpt lat="42.3435610" lon="-7.1762900">
        <ele>519.0</ele>
        <time>2014-10-01T12:36:20Z</time>
      </trkpt>
      <trkpt lat="42.3435610" lon="-7.1763410">
        <ele>519.2</ele>
        <time>2014-10-01T12:36:21Z</time>
      </trkpt>
      <trkpt lat="42.3435650" lon="-7.1763920">
        <ele>519.4</ele>
        <time>2014-10-01T12:36:22Z</time>
      </trkpt>
      <trkpt lat="42.3435710" lon="-7.1764490">
        <ele>519.7</ele>
        <time>2014-10-01T12:36:23Z</time>
      </trkpt>
      <trkpt lat="42.3435790" lon="-7.1765020">
        <ele>519.9</ele>
        <time>2014-10-01T12:36:24Z</time>
      </trkpt>
      <trkpt lat="42.3435900" lon="-7.1765600">
        <ele>520.1</ele>
        <time>2014-10-01T12:36:25Z</time>
      </trkpt>
      <trkpt lat="42.3435990" lon="-7.1766150">
        <ele>520.3</ele>
        <time>2014-10-01T12:36:26Z</time>
      </trkpt>
      <trkpt lat="42.3436110" lon="-7.1766720">
        <ele>520.5</ele>
        <time>2014-10-01T12:36:27Z</time>
      </trkpt>
      <trkpt lat="42.3436240" lon="-7.1767250">
        <ele>520.7</ele>
        <time>2014-10-01T12:36:28Z</time>
      </trkpt>
      <trkpt lat="42.3436390" lon="-7.1767770">
        <ele>520.8</ele>
        <time>2014-10-01T12:36:29Z</time>
      </trkpt>
      <trkpt lat="42.3436530" lon="-7.1768310">
        <ele>521.0</ele>
        <time>2014-10-01T12:36:30Z</time>
      </trkpt>
      <trkpt lat="42.3436670" lon="-7.1768850">
        <ele>521.0</ele>
        <time>2014-10-01T12:36:31Z</time>
      </trkpt>
      <trkpt lat="42.3436820" lon="-7.1769440">
        <ele>521.0</ele>
        <time>2014-10-01T12:36:32Z</time>
      </trkpt>
      <trkpt lat="42.3436980" lon="-7.1770050">
        <ele>521.0</ele>
        <time>2014-10-01T12:36:33Z</time>
      </trkpt>
      <trkpt lat="42.3437150" lon="-7.1770690">
        <ele>521.0</ele>
        <time>2014-10-01T12:36:34Z</time>
      </trkpt>
      <trkpt lat="42.3437300" lon="-7.1771340">
        <ele>521.0</ele>
        <time>2014-10-01T12:36:35Z</time>
      </trkpt>
      <trkpt lat="42.3437420" lon="-7.1771910">
        <ele>521.0</ele>
        <time>2014-10-01T12:36:36Z</time>
      </trkpt>
      <trkpt lat="42.3437600" lon="-7.1772570">
        <ele>521.0</ele>
        <time>2014-10-01T12:36:37Z</time>
      </trkpt>
      <trkpt lat="42.3437800" lon="-7.1773200">
        <ele>521.0</ele>
        <time>2014-10-01T12:36:38Z</time>
      </trkpt>
      <trkpt lat="42.3438030" lon="-7.1773870">
        <ele>521.0</ele>
        <time>2014-10-01T12:36:39Z</time>
      </trkpt>
      <trkpt lat="42.3438270" lon="-7.1774550">
        <ele>521.0</ele>
        <time>2014-10-01T12:36:40Z</time>
      </trkpt>
      <trkpt lat="42.3438510" lon="-7.1775160">
        <ele>520.9</ele>
        <time>2014-10-01T12:36:41Z</time>
      </trkpt>
      <trkpt lat="42.3438760" lon="-7.1775810">
        <ele>520.9</ele>
        <time>2014-10-01T12:36:42Z</time>
      </trkpt>
      <trkpt lat="42.3439050" lon="-7.1776500">
        <ele>520.9</ele>
        <time>2014-10-01T12:36:43Z</time>
      </trkpt>
      <trkpt lat="42.3439360" lon="-7.1777260">
        <ele>520.9</ele>
        <time>2014-10-01T12:36:44Z</time>
      </trkpt>
      <trkpt lat="42.3439700" lon="-7.1777990">
        <ele>520.8</ele>
        <time>2014-10-01T12:36:45Z</time>
      </trkpt>
      <trkpt lat="42.3440020" lon="-7.1778690">
        <ele>520.8</ele>
        <time>2014-10-01T12:36:46Z</time>
      </trkpt>
      <trkpt lat="42.3440320" lon="-7.1779380">
        <ele>520.8</ele>
        <time>2014-10-01T12:36:47Z</time>
      </trkpt>
      <trkpt lat="42.3440640" lon="-7.1780090">
        <ele>520.7</ele>
        <time>2014-10-01T12:36:48Z</time>
      </trkpt>
      <trkpt lat="42.3440960" lon="-7.1780830">
        <ele>520.7</ele>
        <time>2014-10-01T12:36:49Z</time>
      </trkpt>
      <trkpt lat="42.3441290" lon="-7.1781600">
        <ele>520.7</ele>
        <time>2014-10-01T12:36:50Z</time>
      </trkpt>
      <trkpt lat="42.3441670" lon="-7.1782390">
        <ele>520.7</ele>
        <time>2014-10-01T12:36:51Z</time>
      </trkpt>
      <trkpt lat="42.3442050" lon="-7.1783190">
        <ele>520.7</ele>
        <time>2014-10-01T12:36:52Z</time>
      </trkpt>
      <trkpt lat="42.3442410" lon="-7.1783970">
        <ele>520.7</ele>
        <time>2014-10-01T12:36:53Z</time>
      </trkpt>
      <trkpt lat="42.3442760" lon="-7.1784690">
        <ele>520.7</ele>
        <time>2014-10-01T12:36:54Z</time>
      </trkpt>
      <trkpt lat="42.3443170" lon="-7.1785410">
        <ele>520.8</ele>
        <time>2014-10-01T12:36:55Z</time>
      </trkpt>
      <trkpt lat="42.3443590" lon="-7.1786120">
        <ele>520.8</ele>
        <time>2014-10-01T12:36:56Z</time>
      </trkpt>
      <trkpt lat="42.3444000" lon="-7.1786770">
        <ele>520.8</ele>
        <time>2014-10-01T12:36:57Z</time>
      </trkpt>
      <trkpt lat="42.3444400" lon="-7.1787410">
        <ele>520.9</ele>
        <time>2014-10-01T12:36:58Z</time>
      </trkpt>
      <trkpt lat="42.3444800" lon="-7.1787990">
        <ele>521.0</ele>
        <time>2014-10-01T12:36:59Z</time>
      </trkpt>
      <trkpt lat="42.3445250" lon="-7.1788600">
        <ele>521.0</ele>
        <time>2014-10-01T12:37:00Z</time>
      </trkpt>
      <trkpt lat="42.3445680" lon="-7.1789170">
        <ele>521.1</ele>
        <time>2014-10-01T12:37:01Z</time>
      </trkpt>
      <trkpt lat="42.3446160" lon="-7.1789770">
        <ele>521.2</ele>
        <time>2014-10-01T12:37:02Z</time>
      </trkpt>
      <trkpt lat="42.3446620" lon="-7.1790320">
        <ele>521.4</ele>
        <time>2014-10-01T12:37:03Z</time>
      </trkpt>
      <trkpt lat="42.3447040" lon="-7.1790850">
        <ele>521.5</ele>
        <time>2014-10-01T12:37:04Z</time>
      </trkpt>
      <trkpt lat="42.3447450" lon="-7.1791400">
        <ele>521.6</ele>
        <time>2014-10-01T12:37:05Z</time>
      </trkpt>
      <trkpt lat="42.3447860" lon="-7.1791920">
        <ele>521.7</ele>
        <time>2014-10-01T12:37:06Z</time>
      </trkpt>
      <trkpt lat="42.3448280" lon="-7.1792500">
        <ele>521.9</ele>
        <time>2014-10-01T12:37:07Z</time>
      </trkpt>
      <trkpt lat="42.3448470" lon="-7.1793250">
        <ele>522.0</ele>
        <time>2014-10-01T12:37:08Z</time>
      </trkpt>
      <trkpt lat="42.3448410" lon="-7.1794180">
        <ele>522.1</ele>
        <time>2014-10-01T12:37:09Z</time>
      </trkpt>
      <trkpt lat="42.3448160" lon="-7.1795040">
        <ele>522.2</ele>
        <time>2014-10-01T12:37:10Z</time>
      </trkpt>
      <trkpt lat="42.3447690" lon="-7.1795610">
        <ele>522.3</ele>
        <time>2014-10-01T12:37:11Z</time>
      </trkpt>
      <trkpt lat="42.3447150" lon="-7.1795940">
        <ele>522.4</ele>
        <time>2014-10-01T12:37:12Z</time>
      </trkpt>
      <trkpt lat="42.3446630" lon="-7.1796050">
        <ele>522.5</ele>
        <time>2014-10-01T12:37:13Z</time>
      </trkpt>
      <trkpt lat="42.3446040" lon="-7.1796110">
        <ele>522.6</ele>
        <time>2014-10-01T12:37:14Z</time>
      </trkpt>
      <trkpt lat="42.3445440" lon="-7.1796100">
        <ele>522.7</ele>
        <time>2014-10-01T12:37:15Z</time>
      </trkpt>
      <trkpt lat="42.3444830" lon="-7.1795900">
        <ele>522.9</ele>
        <time>2014-10-01T12:37:16Z</time>
      </trkpt>
      <trkpt lat="42.3444280" lon="-7.1795700">
        <ele>523.0</ele>
        <time>2014-10-01T12:37:17Z</time>
      </trkpt>
      <trkpt lat="42.3443720" lon="-7.1795450">
        <ele>523.2</ele>
        <time>2014-10-01T12:37:18Z</time>
      </trkpt>
      <trkpt lat="42.3443180" lon="-7.1795200">
        <ele>523.3</ele>
        <time>2014-10-01T12:37:19Z</time>
      </trkpt>
      <trkpt lat="42.3442620" lon="-7.1794950">
        <ele>523.5</ele>
        <time>2014-10-01T12:37:20Z</time>
      </trkpt>
      <trkpt lat="42.3442080" lon="-7.1794680">
        <ele>523.7</ele>
        <time>2014-10-01T12:37:21Z</time>
      </trkpt>
      <trkpt lat="42.3441580" lon="-7.1794400">
        <ele>523.9</ele>
        <time>2014-10-01T12:37:22Z</time>
      </trkpt>
      <trkpt lat="42.3441100" lon="-7.1794120">
        <ele>524.1</ele>
        <time>2014-10-01T12:37:23Z</time>
      </trkpt>
      <trkpt lat="42.3440620" lon="-7.1793830">
        <ele>524.3</ele>
        <time>2014-10-01T12:37:24Z</time>
      </trkpt>
      <trkpt lat="42.3440150" lon="-7.1793550">
        <ele>524.5</ele>
        <time>2014-10-01T12:37:25Z</time>
      </trkpt>
      <trkpt lat="42.3439720" lon="-7.1793250">
        <ele>524.7</ele>
        <time>2014-10-01T12:37:26Z</time>
      </trkpt>
      <trkpt lat="42.3439280" lon="-7.1792960">
        <ele>525.0</ele>
        <time>2014-10-01T12:37:27Z</time>
      </trkpt>
      <trkpt lat="42.3438870" lon="-7.1792650">
        <ele>525.3</ele>
        <time>2014-10-01T12:37:28Z</time>
      </trkpt>
      <trkpt lat="42.3438520" lon="-7.1792380">
        <ele>525.5</ele>
        <time>2014-10-01T12:37:29Z</time>
      </trkpt>
      <trkpt lat="42.3438100" lon="-7.1792070">
        <ele>525.8</ele>
        <time>2014-10-01T12:37:30Z</time>
      </trkpt>
      <trkpt lat="42.3437690" lon="-7.1791760">
        <ele>526.1</ele>
        <time>2014-10-01T12:37:31Z</time>
      </trkpt>
      <trkpt lat="42.3437310" lon="-7.1791490">
        <ele>526.3</ele>
        <time>2014-10-01T12:37:32Z</time>
      </trkpt>
      <trkpt lat="42.3436950" lon="-7.1791260">
        <ele>526.6</ele>
        <time>2014-10-01T12:37:33Z</time>
      </trkpt>
      <trkpt lat="42.3436580" lon="-7.1791000">
        <ele>526.8</ele>
        <time>2014-10-01T12:37:34Z</time>
      </trkpt>
      <trkpt lat="42.3436180" lon="-7.1790700">
        <ele>527.1</ele>
        <time>2014-10-01T12:37:35Z</time>
      </trkpt>
      <trkpt lat="42.3435780" lon="-7.1790390">
        <ele>527.4</ele>
        <time>2014-10-01T12:37:36Z</time>
      </trkpt>
      <trkpt lat="42.3435410" lon="-7.1790100">
        <ele>527.6</ele>
        <time>2014-10-01T12:37:37Z</time>
      </trkpt>
      <trkpt lat="42.3435030" lon="-7.1789800">
        <ele>527.9</ele>
        <time>2014-10-01T12:37:38Z</time>
      </trkpt>
      <trkpt lat="42.3434660" lon="-7.1789510">
        <ele>528.1</ele>
        <time>2014-10-01T12:37:39Z</time>
      </trkpt>
      <trkpt lat="42.3434340" lon="-7.1789260">
        <ele>528.3</ele>
        <time>2014-10-01T12:37:40Z</time>
      </trkpt>
      <trkpt lat="42.3434010" lon="-7.1789010">
        <ele>528.5</ele>
        <time>2014-10-01T12:37:41Z</time>
      </trkpt>
      <trkpt lat="42.3433630" lon="-7.1788740">
        <ele>528.8</ele>
        <time>2014-10-01T12:37:42Z</time>
      </trkpt>
      <trkpt lat="42.3433300" lon="-7.1788500">
        <ele>529.0</ele>
        <time>2014-10-01T12:37:43Z</time>
      </trkpt>
      <trkpt lat="42.3432960" lon="-7.1788260">
        <ele>529.2</ele>
        <time>2014-10-01T12:37:44Z</time>
      </trkpt>
      <trkpt lat="42.3432640" lon="-7.1788040">
        <ele>529.4</ele>
        <time>2014-10-01T12:37:45Z</time>
      </trkpt>
      <trkpt lat="42.3432320" lon="-7.1787840">
        <ele>529.6</ele>
        <time>2014-10-01T12:37:46Z</time>
      </trkpt>
      <trkpt lat="42.3431990" lon="-7.1787630">
        <ele>529.8</ele>
        <time>2014-10-01T12:37:47Z</time>
      </trkpt>
      <trkpt lat="42.3431720" lon="-7.1787440">
        <ele>530.0</ele>
        <time>2014-10-01T12:37:48Z</time>
      </trkpt>
      <trkpt lat="42.3431420" lon="-7.1787250">
        <ele>530.2</ele>
        <time>2014-10-01T12:37:49Z</time>
      </trkpt>
      <trkpt lat="42.3431080" lon="-7.1787060">
        <ele>530.4</ele>
        <time>2014-10-01T12:37:50Z</time>
      </trkpt>
      <trkpt lat="42.3430720" lon="-7.1786900">
        <ele>530.6</ele>
        <time>2014-10-01T12:37:51Z</time>
      </trkpt>
      <trkpt lat="42.3430340" lon="-7.1786750">
        <ele>530.8</ele>
        <time>2014-10-01T12:37:52Z</time>
      </trkpt>
      <trkpt lat="42.3429940" lon="-7.1786580">
        <ele>531.1</ele>
        <time>2014-10-01T12:37:53Z</time>
      </trkpt>
      <trkpt lat="42.3429560" lon="-7.1786450">
        <ele>531.3</ele>
        <time>2014-10-01T12:37:54Z</time>
      </trkpt>
      <trkpt lat="42.3429180" lon="-7.1786350">
        <ele>531.5</ele>
        <time>2014-10-01T12:37:55Z</time>
      </trkpt>
      <trkpt lat="42.3428830" lon="-7.1786280">
        <ele>531.7</ele>
        <time>2014-10-01T12:37:56Z</time>
      </trkpt>
      <trkpt lat="42.3428440" lon="-7.1786200">
        <ele>531.9</ele>
        <time>2014-10-01T12:37:57Z</time>
      </trkpt>
      <trkpt lat="42.3428090" lon="-7.1786130">
        <ele>532.0</ele>
        <time>2014-10-01T12:37:58Z</time>
      </trkpt>
      <trkpt lat="42.3427680" lon="-7.1786080">
        <ele>532.3</ele>
        <time>2014-10-01T12:37:59Z</time>
      </trkpt>
      <trkpt lat="42.3427250" lon="-7.1786050">
        <ele>532.5</ele>
        <time>2014-10-01T12:38:00Z</time>
      </trkpt>
      <trkpt lat="42.3426870" lon="-7.1786040">
        <ele>532.7</ele>
        <time>2014-10-01T12:38:01Z</time>
      </trkpt>
      <trkpt lat="42.3426470" lon="-7.1786080">
        <ele>532.9</ele>
        <time>2014-10-01T12:38:02Z</time>
      </trkpt>
      <trkpt lat="42.3426060" lon="-7.1786140">
        <ele>533.2</ele>
        <time>2014-10-01T12:38:03Z</time>
      </trkpt>
      <trkpt lat="42.3425680" lon="-7.1786210">
        <ele>533.4</ele>
        <time>2014-10-01T12:38:04Z</time>
      </trkpt>
      <trkpt lat="42.3425320" lon="-7.1786240">
        <ele>533.6</ele>
        <time>2014-10-01T12:38:05Z</time>
      </trkpt>
      <trkpt lat="42.3424980" lon="-7.1786260">
        <ele>533.7</ele>
        <time>2014-10-01T12:38:06Z</time>
      </trkpt>
      <trkpt lat="42.3424600" lon="-7.1786210">
        <ele>533.9</ele>
        <time>2014-10-01T12:38:07Z</time>
      </trkpt>
      <trkpt lat="42.3424250" lon="-7.1786140">
        <ele>534.1</ele>
        <time>2014-10-01T12:38:08Z</time>
      </trkpt>
      <trkpt lat="42.3423880" lon="-7.1785900">
        <ele>534.3</ele>
        <time>2014-10-01T12:38:09Z</time>
      </trkpt>
      <trkpt lat="42.3423500" lon="-7.1785640">
        <ele>534.5</ele>
        <time>2014-10-01T12:38:10Z</time>
      </trkpt>
      <trkpt lat="42.3423100" lon="-7.1785350">
        <ele>534.7</ele>
        <time>2014-10-01T12:38:11Z</time>
      </trkpt>
      <trkpt lat="42.3422740" lon="-7.1785070">
        <ele>534.9</ele>
        <time>2014-10-01T12:38:12Z</time>
      </trkpt>
      <trkpt lat="42.3422400" lon="-7.1784760">
        <ele>535.0</ele>
        <time>2014-10-01T12:38:13Z</time>
      </trkpt>
      <trkpt lat="42.3422030" lon="-7.1784360">
        <ele>535.2</ele>
        <time>2014-10-01T12:38:14Z</time>
      </trkpt>
      <trkpt lat="42.3421700" lon="-7.1783940">
        <ele>535.4</ele>
        <time>2014-10-01T12:38:15Z</time>
      </trkpt>
      <trkpt lat="42.3421380" lon="-7.1783500">
        <ele>535.6</ele>
        <time>2014-10-01T12:38:16Z</time>
      </trkpt>
      <trkpt lat="42.3421090" lon="-7.1783050">
        <ele>535.8</ele>
        <time>2014-10-01T12:38:17Z</time>
      </trkpt>
      <trkpt lat="42.3420870" lon="-7.1782660">
        <ele>536.1</ele>
        <time>2014-10-01T12:38:18Z</time>
      </trkpt>
      <trkpt lat="42.3420630" lon="-7.1782270">
        <ele>536.3</ele>
        <time>2014-10-01T12:38:19Z</time>
      </trkpt>
      <trkpt lat="42.3420390" lon="-7.1781850">
        <ele>536.5</ele>
        <time>2014-10-01T12:38:20Z</time>
      </trkpt>
      <trkpt lat="42.3420110" lon="-7.1781380">
        <ele>536.8</ele>
        <time>2014-10-01T12:38:21Z</time>
      </trkpt>
      <trkpt lat="42.3419840" lon="-7.1780930">
        <ele>537.0</ele>
        <time>2014-10-01T12:38:22Z</time>
      </trkpt>
      <trkpt lat="42.3419580" lon="-7.1780540">
        <ele>537.2</ele>
        <time>2014-10-01T12:38:23Z</time>
      </trkpt>
      <trkpt lat="42.3419320" lon="-7.1780150">
        <ele>537.4</ele>
        <time>2014-10-01T12:38:24Z</time>
      </trkpt>
      <trkpt lat="42.3419050" lon="-7.1779750">
        <ele>537.7</ele>
        <time>2014-10-01T12:38:25Z</time>
      </trkpt>
      <trkpt lat="42.3418790" lon="-7.1779370">
        <ele>537.9</ele>
        <time>2014-10-01T12:38:26Z</time>
      </trkpt>
      <trkpt lat="42.3418540" lon="-7.1779010">
        <ele>538.1</ele>
        <time>2014-10-01T12:38:27Z</time>
      </trkpt>
      <trkpt lat="42.3418280" lon="-7.1778620">
        <ele>538.3</ele>
        <time>2014-10-01T12:38:28Z</time>
      </trkpt>
      <trkpt lat="42.3418000" lon="-7.1778160">
        <ele>538.6</ele>
        <time>2014-10-01T12:38:29Z</time>
      </trkpt>
      <trkpt lat="42.3417740" lon="-7.1777750">
        <ele>538.8</ele>
        <time>2014-10-01T12:38:30Z</time>
      </trkpt>
      <trkpt lat="42.3417500" lon="-7.1777370">
        <ele>539.1</ele>
        <time>2014-10-01T12:38:31Z</time>
      </trkpt>
      <trkpt lat="42.3417240" lon="-7.1776970">
        <ele>539.3</ele>
        <time>2014-10-01T12:38:32Z</time>
      </trkpt>
      <trkpt lat="42.3416990" lon="-7.1776570">
        <ele>539.5</ele>
        <time>2014-10-01T12:38:33Z</time>
      </trkpt>
      <trkpt lat="42.3416740" lon="-7.1776210">
        <ele>539.8</ele>
        <time>2014-10-01T12:38:34Z</time>
      </trkpt>
      <trkpt lat="42.3416470" lon="-7.1775810">
        <ele>540.0</ele>
        <time>2014-10-01T12:38:35Z</time>
      </trkpt>
      <trkpt lat="42.3416200" lon="-7.1775430">
        <ele>540.3</ele>
        <time>2014-10-01T12:38:36Z</time>
      </trkpt>
      <trkpt lat="42.3415920" lon="-7.1775060">
        <ele>540.5</ele>
        <time>2014-10-01T12:38:37Z</time>
      </trkpt>
      <trkpt lat="42.3415630" lon="-7.1774650">
        <ele>540.7</ele>
        <time>2014-10-01T12:38:38Z</time>
      </trkpt>
      <trkpt lat="42.3415350" lon="-7.1774260">
        <ele>541.0</ele>
        <time>2014-10-01T12:38:39Z</time>
      </trkpt>
      <trkpt lat="42.3415090" lon="-7.1773890">
        <ele>541.2</ele>
        <time>2014-10-01T12:38:40Z</time>
      </trkpt>
      <trkpt lat="42.3414800" lon="-7.1773470">
        <ele>541.4</ele>
        <time>2014-10-01T12:38:41Z</time>
      </trkpt>
      <trkpt lat="42.3414550" lon="-7.1773110">
        <ele>541.6</ele>
        <time>2014-10-01T12:38:42Z</time>
      </trkpt>
      <trkpt lat="42.3414290" lon="-7.1772780">
        <ele>541.8</ele>
        <time>2014-10-01T12:38:43Z</time>
      </trkpt>
      <trkpt lat="42.3414030" lon="-7.1772500">
        <ele>542.0</ele>
        <time>2014-10-01T12:38:44Z</time>
      </trkpt>
      <trkpt lat="42.3413730" lon="-7.1772170">
        <ele>542.2</ele>
        <time>2014-10-01T12:38:45Z</time>
      </trkpt>
      <trkpt lat="42.3413420" lon="-7.1771850">
        <ele>542.4</ele>
        <time>2014-10-01T12:38:46Z</time>
      </trkpt>
      <trkpt lat="42.3413100" lon="-7.1771560">
        <ele>542.6</ele>
        <time>2014-10-01T12:38:47Z</time>
      </trkpt>
      <trkpt lat="42.3412780" lon="-7.1771290">
        <ele>542.9</ele>
        <time>2014-10-01T12:38:48Z</time>
      </trkpt>
      <trkpt lat="42.3412470" lon="-7.1771020">
        <ele>543.1</ele>
        <time>2014-10-01T12:38:49Z</time>
      </trkpt>
      <trkpt lat="42.3412160" lon="-7.1770760">
        <ele>543.3</ele>
        <time>2014-10-01T12:38:50Z</time>
      </trkpt>
      <trkpt lat="42.3411810" lon="-7.1770510">
        <ele>543.5</ele>
        <time>2014-10-01T12:38:51Z</time>
      </trkpt>
      <trkpt lat="42.3411450" lon="-7.1770250">
        <ele>543.7</ele>
        <time>2014-10-01T12:38:52Z</time>
      </trkpt>
      <trkpt lat="42.3411110" lon="-7.1770050">
        <ele>543.9</ele>
        <time>2014-10-01T12:38:53Z</time>
      </trkpt>
      <trkpt lat="42.3410730" lon="-7.1769850">
        <ele>544.1</ele>
        <time>2014-10-01T12:38:54Z</time>
      </trkpt>
      <trkpt lat="42.3410370" lon="-7.1769690">
        <ele>544.3</ele>
        <time>2014-10-01T12:38:55Z</time>
      </trkpt>
      <trkpt lat="42.3409990" lon="-7.1769560">
        <ele>544.5</ele>
        <time>2014-10-01T12:38:56Z</time>
      </trkpt>
      <trkpt lat="42.3409600" lon="-7.1769430">
        <ele>544.8</ele>
        <time>2014-10-01T12:38:57Z</time>
      </trkpt>
      <trkpt lat="42.3409210" lon="-7.1769290">
        <ele>545.0</ele>
        <time>2014-10-01T12:38:58Z</time>
      </trkpt>
      <trkpt lat="42.3408820" lon="-7.1769160">
        <ele>545.2</ele>
        <time>2014-10-01T12:38:59Z</time>
      </trkpt>
      <trkpt lat="42.3408420" lon="-7.1769010">
        <ele>545.4</ele>
        <time>2014-10-01T12:39:00Z</time>
      </trkpt>
      <trkpt lat="42.3408020" lon="-7.1768890">
        <ele>545.5</ele>
        <time>2014-10-01T12:39:01Z</time>
      </trkpt>
      <trkpt lat="42.3407630" lon="-7.1768770">
        <ele>545.7</ele>
        <time>2014-10-01T12:39:02Z</time>
      </trkpt>
      <trkpt lat="42.3407230" lon="-7.1768630">
        <ele>546.0</ele>
        <time>2014-10-01T12:39:03Z</time>
      </trkpt>
      <trkpt lat="42.3406820" lon="-7.1768500">
        <ele>546.2</ele>
        <time>2014-10-01T12:39:04Z</time>
      </trkpt>
      <trkpt lat="42.3406430" lon="-7.1768350">
        <ele>546.4</ele>
        <time>2014-10-01T12:39:05Z</time>
      </trkpt>
      <trkpt lat="42.3406060" lon="-7.1768210">
        <ele>546.7</ele>
        <time>2014-10-01T12:39:06Z</time>
      </trkpt>
      <trkpt lat="42.3405670" lon="-7.1768080">
        <ele>546.9</ele>
        <time>2014-10-01T12:39:07Z</time>
      </trkpt>
      <trkpt lat="42.3405320" lon="-7.1767970">
        <ele>547.1</ele>
        <time>2014-10-01T12:39:08Z</time>
      </trkpt>
      <trkpt lat="42.3404940" lon="-7.1767830">
        <ele>547.3</ele>
        <time>2014-10-01T12:39:09Z</time>
      </trkpt>
      <trkpt lat="42.3404560" lon="-7.1767710">
        <ele>547.6</ele>
        <time>2014-10-01T12:39:10Z</time>
      </trkpt>
      <trkpt lat="42.3404170" lon="-7.1767570">
        <ele>547.8</ele>
        <time>2014-10-01T12:39:11Z</time>
      </trkpt>
      <trkpt lat="42.3403780" lon="-7.1767430">
        <ele>548.0</ele>
        <time>2014-10-01T12:39:12Z</time>
      </trkpt>
      <trkpt lat="42.3403400" lon="-7.1767280">
        <ele>548.3</ele>
        <time>2014-10-01T12:39:13Z</time>
      </trkpt>
      <trkpt lat="42.3403010" lon="-7.1767130">
        <ele>548.5</ele>
        <time>2014-10-01T12:39:14Z</time>
      </trkpt>
      <trkpt lat="42.3402600" lon="-7.1766970">
        <ele>548.8</ele>
        <time>2014-10-01T12:39:15Z</time>
      </trkpt>
      <trkpt lat="42.3402210" lon="-7.1766800">
        <ele>549.1</ele>
        <time>2014-10-01T12:39:16Z</time>
      </trkpt>
      <trkpt lat="42.3401820" lon="-7.1766640">
        <ele>549.3</ele>
        <time>2014-10-01T12:39:17Z</time>
      </trkpt>
      <trkpt lat="42.3401450" lon="-7.1766480">
        <ele>549.5</ele>
        <time>2014-10-01T12:39:18Z</time>
      </trkpt>
      <trkpt lat="42.3401060" lon="-7.1766330">
        <ele>549.7</ele>
        <time>2014-10-01T12:39:19Z</time>
      </trkpt>
      <trkpt lat="42.3400690" lon="-7.1766210">
        <ele>549.9</ele>
        <time>2014-10-01T12:39:20Z</time>
      </trkpt>
      <trkpt lat="42.3400280" lon="-7.1766070">
        <ele>550.0</ele>
        <time>2014-10-01T12:39:21Z</time>
      </trkpt>
      <trkpt lat="42.3399870" lon="-7.1765980">
        <ele>550.2</ele>
        <time>2014-10-01T12:39:22Z</time>
      </trkpt>
      <trkpt lat="42.3399470" lon="-7.1765900">
        <ele>550.4</ele>
        <time>2014-10-01T12:39:23Z</time>
      </trkpt>
      <trkpt lat="42.3399040" lon="-7.1765850">
        <ele>550.7</ele>
        <time>2014-10-01T12:39:24Z</time>
      </trkpt>
      <trkpt lat="42.3398610" lon="-7.1765850">
        <ele>550.9</ele>
        <time>2014-10-01T12:39:25Z</time>
      </trkpt>
      <trkpt lat="42.3398170" lon="-7.1765870">
        <ele>551.1</ele>
        <time>2014-10-01T12:39:26Z</time>
      </trkpt>
      <trkpt lat="42.3397730" lon="-7.1765950">
        <ele>551.4</ele>
        <time>2014-10-01T12:39:27Z</time>
      </trkpt>
      <trkpt lat="42.3397290" lon="-7.1766150">
        <ele>551.7</ele>
        <time>2014-10-01T12:39:28Z</time>
      </trkpt>
      <trkpt lat="42.3396890" lon="-7.1766360">
        <ele>552.0</ele>
        <time>2014-10-01T12:39:29Z</time>
      </trkpt>
      <trkpt lat="42.3396470" lon="-7.1766590">
        <ele>552.2</ele>
        <time>2014-10-01T12:39:30Z</time>
      </trkpt>
      <trkpt lat="42.3396110" lon="-7.1766820">
        <ele>552.5</ele>
        <time>2014-10-01T12:39:31Z</time>
      </trkpt>
      <trkpt lat="42.3395730" lon="-7.1767050">
        <ele>552.7</ele>
        <time>2014-10-01T12:39:32Z</time>
      </trkpt>
      <trkpt lat="42.3395400" lon="-7.1767270">
        <ele>552.9</ele>
        <time>2014-10-01T12:39:33Z</time>
      </trkpt>
      <trkpt lat="42.3395040" lon="-7.1767500">
        <ele>553.2</ele>
        <time>2014-10-01T12:39:34Z</time>
      </trkpt>
      <trkpt lat="42.3394640" lon="-7.1767750">
        <ele>553.4</ele>
        <time>2014-10-01T12:39:35Z</time>
      </trkpt>
      <trkpt lat="42.3394250" lon="-7.1768020">
        <ele>553.7</ele>
        <time>2014-10-01T12:39:36Z</time>
      </trkpt>
      <trkpt lat="42.3393880" lon="-7.1768280">
        <ele>553.9</ele>
        <time>2014-10-01T12:39:37Z</time>
      </trkpt>
      <trkpt lat="42.3393530" lon="-7.1768510">
        <ele>554.2</ele>
        <time>2014-10-01T12:39:38Z</time>
      </trkpt>
      <trkpt lat="42.3393180" lon="-7.1768740">
        <ele>554.4</ele>
        <time>2014-10-01T12:39:39Z</time>
      </trkpt>
      <trkpt lat="42.3392860" lon="-7.1768950">
        <ele>554.7</ele>
        <time>2014-10-01T12:39:40Z</time>
      </trkpt>
      <trkpt lat="42.3392510" lon="-7.1769190">
        <ele>554.9</ele>
        <time>2014-10-01T12:39:41Z</time>
      </trkpt>
      <trkpt lat="42.3392140" lon="-7.1769440">
        <ele>555.2</ele>
        <time>2014-10-01T12:39:42Z</time>
      </trkpt>
      <trkpt lat="42.3391760" lon="-7.1769700">
        <ele>555.4</ele>
        <time>2014-10-01T12:39:43Z</time>
      </trkpt>
      <trkpt lat="42.3391400" lon="-7.1769960">
        <ele>555.7</ele>
        <time>2014-10-01T12:39:44Z</time>
      </trkpt>
      <trkpt lat="42.3391010" lon="-7.1770220">
        <ele>556.0</ele>
        <time>2014-10-01T12:39:45Z</time>
      </trkpt>
      <trkpt lat="42.3390590" lon="-7.1770480">
        <ele>556.3</ele>
        <time>2014-10-01T12:39:46Z</time>
      </trkpt>
      <trkpt lat="42.3390190" lon="-7.1770720">
        <ele>556.6</ele>
        <time>2014-10-01T12:39:47Z</time>
      </trkpt>
      <trkpt lat="42.3389840" lon="-7.1770960">
        <ele>556.8</ele>
        <time>2014-10-01T12:39:48Z</time>
      </trkpt>
      <trkpt lat="42.3389480" lon="-7.1771190">
        <ele>557.1</ele>
        <time>2014-10-01T12:39:49Z</time>
      </trkpt>
      <trkpt lat="42.3389110" lon="-7.1771420">
        <ele>557.4</ele>
        <time>2014-10-01T12:39:50Z</time>
      </trkpt>
      <trkpt lat="42.3388750" lon="-7.1771650">
        <ele>557.7</ele>
        <time>2014-10-01T12:39:51Z</time>
      </trkpt>
      <trkpt lat="42.3388330" lon="-7.1771900">
        <ele>558.0</ele>
        <time>2014-10-01T12:39:52Z</time>
      </trkpt>
      <trkpt lat="42.3387950" lon="-7.1772150">
        <ele>558.3</ele>
        <time>2014-10-01T12:39:53Z</time>
      </trkpt>
      <trkpt lat="42.3387650" lon="-7.1772340">
        <ele>558.5</ele>
        <time>2014-10-01T12:39:54Z</time>
      </trkpt>
      <trkpt lat="42.3387290" lon="-7.1772570">
        <ele>558.8</ele>
        <time>2014-10-01T12:39:55Z</time>
      </trkpt>
      <trkpt lat="42.3386920" lon="-7.1772810">
        <ele>559.1</ele>
        <time>2014-10-01T12:39:56Z</time>
      </trkpt>
      <trkpt lat="42.3386550" lon="-7.1773060">
        <ele>559.4</ele>
        <time>2014-10-01T12:39:57Z</time>
      </trkpt>
      <trkpt lat="42.3386180" lon="-7.1773310">
        <ele>559.7</ele>
        <time>2014-10-01T12:39:58Z</time>
      </trkpt>
      <trkpt lat="42.3385800" lon="-7.1773580">
        <ele>560.0</ele>
        <time>2014-10-01T12:39:59Z</time>
      </trkpt>
      <trkpt lat="42.3385430" lon="-7.1773860">
        <ele>560.3</ele>
        <time>2014-10-01T12:40:00Z</time>
      </trkpt>
      <trkpt lat="42.3385070" lon="-7.1774160">
        <ele>560.5</ele>
        <time>2014-10-01T12:40:01Z</time>
      </trkpt>
      <trkpt lat="42.3384730" lon="-7.1774480">
        <ele>560.8</ele>
        <time>2014-10-01T12:40:02Z</time>
      </trkpt>
      <trkpt lat="42.3384420" lon="-7.1774800">
        <ele>561.0</ele>
        <time>2014-10-01T12:40:03Z</time>
      </trkpt>
      <trkpt lat="42.3384120" lon="-7.1775140">
        <ele>561.2</ele>
        <time>2014-10-01T12:40:04Z</time>
      </trkpt>
      <trkpt lat="42.3383810" lon="-7.1775490">
        <ele>561.5</ele>
        <time>2014-10-01T12:40:05Z</time>
      </trkpt>
      <trkpt lat="42.3383530" lon="-7.1775830">
        <ele>561.7</ele>
        <time>2014-10-01T12:40:06Z</time>
      </trkpt>
      <trkpt lat="42.3383260" lon="-7.1776170">
        <ele>561.9</ele>
        <time>2014-10-01T12:40:07Z</time>
      </trkpt>
      <trkpt lat="42.3382990" lon="-7.1776530">
        <ele>562.1</ele>
        <time>2014-10-01T12:40:08Z</time>
      </trkpt>
      <trkpt lat="42.3382740" lon="-7.1776870">
        <ele>562.3</ele>
        <time>2014-10-01T12:40:09Z</time>
      </trkpt>
      <trkpt lat="42.3382490" lon="-7.1777230">
        <ele>562.5</ele>
        <time>2014-10-01T12:40:10Z</time>
      </trkpt>
      <trkpt lat="42.3382250" lon="-7.1777580">
        <ele>562.7</ele>
        <time>2014-10-01T12:40:11Z</time>
      </trkpt>
      <trkpt lat="42.3382020" lon="-7.1777930">
        <ele>562.9</ele>
        <time>2014-10-01T12:40:12Z</time>
      </trkpt>
      <trkpt lat="42.3381780" lon="-7.1778310">
        <ele>563.1</ele>
        <time>2014-10-01T12:40:13Z</time>
      </trkpt>
      <trkpt lat="42.3381530" lon="-7.1778700">
        <ele>563.3</ele>
        <time>2014-10-01T12:40:14Z</time>
      </trkpt>
      <trkpt lat="42.3381260" lon="-7.1779120">
        <ele>563.5</ele>
        <time>2014-10-01T12:40:15Z</time>
      </trkpt>
      <trkpt lat="42.3381000" lon="-7.1779500">
        <ele>563.7</ele>
        <time>2014-10-01T12:40:16Z</time>
      </trkpt>
      <trkpt lat="42.3380700" lon="-7.1779940">
        <ele>563.9</ele>
        <time>2014-10-01T12:40:17Z</time>
      </trkpt>
      <trkpt lat="42.3380450" lon="-7.1780370">
        <ele>564.1</ele>
        <time>2014-10-01T12:40:18Z</time>
      </trkpt>
      <trkpt lat="42.3380200" lon="-7.1780810">
        <ele>564.3</ele>
        <time>2014-10-01T12:40:19Z</time>
      </trkpt>
      <trkpt lat="42.3379980" lon="-7.1781220">
        <ele>564.4</ele>
        <time>2014-10-01T12:40:20Z</time>
      </trkpt>
      <trkpt lat="42.3379750" lon="-7.1781670">
        <ele>564.6</ele>
        <time>2014-10-01T12:40:21Z</time>
      </trkpt>
      <trkpt lat="42.3379540" lon="-7.1782130">
        <ele>564.8</ele>
        <time>2014-10-01T12:40:22Z</time>
      </trkpt>
      <trkpt lat="42.3379300" lon="-7.1782600">
        <ele>565.0</ele>
        <time>2014-10-01T12:40:23Z</time>
      </trkpt>
      <trkpt lat="42.3379060" lon="-7.1783120">
        <ele>565.1</ele>
        <time>2014-10-01T12:40:24Z</time>
      </trkpt>
      <trkpt lat="42.3378830" lon="-7.1783650">
        <ele>565.3</ele>
        <time>2014-10-01T12:40:25Z</time>
      </trkpt>
      <trkpt lat="42.3378590" lon="-7.1784190">
        <ele>565.4</ele>
        <time>2014-10-01T12:40:26Z</time>
      </trkpt>
      <trkpt lat="42.3378380" lon="-7.1784740">
        <ele>565.5</ele>
        <time>2014-10-01T12:40:27Z</time>
      </trkpt>
      <trkpt lat="42.3378190" lon="-7.1785290">
        <ele>565.5</ele>
        <time>2014-10-01T12:40:28Z</time>
      </trkpt>
      <trkpt lat="42.3378020" lon="-7.1785830">
        <ele>565.5</ele>
        <time>2014-10-01T12:40:29Z</time>
      </trkpt>
      <trkpt lat="42.3377850" lon="-7.1786430">
        <ele>565.5</ele>
        <time>2014-10-01T12:40:30Z</time>
      </trkpt>
      <trkpt lat="42.3377670" lon="-7.1787050">
        <ele>565.4</ele>
        <time>2014-10-01T12:40:31Z</time>
      </trkpt>
      <trkpt lat="42.3377510" lon="-7.1787700">
        <ele>565.3</ele>
        <time>2014-10-01T12:40:32Z</time>
      </trkpt>
      <trkpt lat="42.3377450" lon="-7.1788430">
        <ele>565.2</ele>
        <time>2014-10-01T12:40:33Z</time>
      </trkpt>
      <trkpt lat="42.3377380" lon="-7.1789210">
        <ele>565.0</ele>
        <time>2014-10-01T12:40:34Z</time>
      </trkpt>
      <trkpt lat="42.3377330" lon="-7.1789970">
        <ele>564.8</ele>
        <time>2014-10-01T12:40:35Z</time>
      </trkpt>
      <trkpt lat="42.3377270" lon="-7.1790770">
        <ele>564.5</ele>
        <time>2014-10-01T12:40:36Z</time>
      </trkpt>
      <trkpt lat="42.3377210" lon="-7.1791650">
        <ele>564.3</ele>
        <time>2014-10-01T12:40:37Z</time>
      </trkpt>
      <trkpt lat="42.3377150" lon="-7.1792520">
        <ele>564.0</ele>
        <time>2014-10-01T12:40:38Z</time>
      </trkpt>
      <trkpt lat="42.3377080" lon="-7.1793390">
        <ele>563.7</ele>
        <time>2014-10-01T12:40:39Z</time>
      </trkpt>
      <trkpt lat="42.3377000" lon="-7.1794250">
        <ele>563.3</ele>
        <time>2014-10-01T12:40:40Z</time>
      </trkpt>
      <trkpt lat="42.3376940" lon="-7.1795160">
        <ele>563.0</ele>
        <time>2014-10-01T12:40:41Z</time>
      </trkpt>
      <trkpt lat="42.3376880" lon="-7.1796080">
        <ele>562.6</ele>
        <time>2014-10-01T12:40:42Z</time>
      </trkpt>
      <trkpt lat="42.3376810" lon="-7.1797040">
        <ele>562.3</ele>
        <time>2014-10-01T12:40:43Z</time>
      </trkpt>
      <trkpt lat="42.3376740" lon="-7.1798030">
        <ele>561.9</ele>
        <time>2014-10-01T12:40:44Z</time>
      </trkpt>
      <trkpt lat="42.3376650" lon="-7.1799030">
        <ele>561.6</ele>
        <time>2014-10-01T12:40:45Z</time>
      </trkpt>
      <trkpt lat="42.3376540" lon="-7.1800060">
        <ele>561.2</ele>
        <time>2014-10-01T12:40:46Z</time>
      </trkpt>
      <trkpt lat="42.3376410" lon="-7.1801160">
        <ele>560.8</ele>
        <time>2014-10-01T12:40:47Z</time>
      </trkpt>
      <trkpt lat="42.3376270" lon="-7.1802320">
        <ele>560.3</ele>
        <time>2014-10-01T12:40:48Z</time>
      </trkpt>
      <trkpt lat="42.3376140" lon="-7.1803450">
        <ele>559.9</ele>
        <time>2014-10-01T12:40:49Z</time>
      </trkpt>
      <trkpt lat="42.3375980" lon="-7.1804640">
        <ele>559.4</ele>
        <time>2014-10-01T12:40:50Z</time>
      </trkpt>
      <trkpt lat="42.3375810" lon="-7.1805800">
        <ele>559.0</ele>
        <time>2014-10-01T12:40:51Z</time>
      </trkpt>
      <trkpt lat="42.3375600" lon="-7.1806990">
        <ele>558.7</ele>
        <time>2014-10-01T12:40:52Z</time>
      </trkpt>
      <trkpt lat="42.3375340" lon="-7.1808200">
        <ele>558.4</ele>
        <time>2014-10-01T12:40:53Z</time>
      </trkpt>
      <trkpt lat="42.3375040" lon="-7.1809410">
        <ele>557.9</ele>
        <time>2014-10-01T12:40:54Z</time>
      </trkpt>
      <trkpt lat="42.3374690" lon="-7.1810610">
        <ele>557.5</ele>
        <time>2014-10-01T12:40:55Z</time>
      </trkpt>
      <trkpt lat="42.3374310" lon="-7.1811820">
        <ele>557.0</ele>
        <time>2014-10-01T12:40:56Z</time>
      </trkpt>
      <trkpt lat="42.3373900" lon="-7.1812990">
        <ele>556.5</ele>
        <time>2014-10-01T12:40:57Z</time>
      </trkpt>
      <trkpt lat="42.3373440" lon="-7.1814210">
        <ele>556.1</ele>
        <time>2014-10-01T12:40:58Z</time>
      </trkpt>
      <trkpt lat="42.3372960" lon="-7.1815430">
        <ele>555.6</ele>
        <time>2014-10-01T12:40:59Z</time>
      </trkpt>
      <trkpt lat="42.3372450" lon="-7.1816650">
        <ele>555.2</ele>
        <time>2014-10-01T12:41:00Z</time>
      </trkpt>
      <trkpt lat="42.3371950" lon="-7.1817830">
        <ele>554.7</ele>
        <time>2014-10-01T12:41:01Z</time>
      </trkpt>
      <trkpt lat="42.3371440" lon="-7.1819050">
        <ele>554.3</ele>
        <time>2014-10-01T12:41:02Z</time>
      </trkpt>
      <trkpt lat="42.3370930" lon="-7.1820240">
        <ele>553.8</ele>
        <time>2014-10-01T12:41:03Z</time>
      </trkpt>
      <trkpt lat="42.3370420" lon="-7.1821470">
        <ele>553.4</ele>
        <time>2014-10-01T12:41:04Z</time>
      </trkpt>
      <trkpt lat="42.3369900" lon="-7.1822730">
        <ele>552.9</ele>
        <time>2014-10-01T12:41:05Z</time>
      </trkpt>
      <trkpt lat="42.3369360" lon="-7.1824020">
        <ele>552.5</ele>
        <time>2014-10-01T12:41:06Z</time>
      </trkpt>
      <trkpt lat="42.3368810" lon="-7.1825280">
        <ele>552.1</ele>
        <time>2014-10-01T12:41:07Z</time>
      </trkpt>
      <trkpt lat="42.3368290" lon="-7.1826510">
        <ele>551.7</ele>
        <time>2014-10-01T12:41:08Z</time>
      </trkpt>
      <trkpt lat="42.3367760" lon="-7.1827790">
        <ele>551.4</ele>
        <time>2014-10-01T12:41:09Z</time>
      </trkpt>
      <trkpt lat="42.3367210" lon="-7.1829100">
        <ele>551.0</ele>
        <time>2014-10-01T12:41:10Z</time>
      </trkpt>
      <trkpt lat="42.3366650" lon="-7.1830480">
        <ele>550.6</ele>
        <time>2014-10-01T12:41:11Z</time>
      </trkpt>
      <trkpt lat="42.3366150" lon="-7.1831880">
        <ele>550.2</ele>
        <time>2014-10-01T12:41:12Z</time>
      </trkpt>
      <trkpt lat="42.3365700" lon="-7.1833350">
        <ele>549.7</ele>
        <time>2014-10-01T12:41:13Z</time>
      </trkpt>
      <trkpt lat="42.3365620" lon="-7.1834860">
        <ele>549.3</ele>
        <time>2014-10-01T12:41:14Z</time>
      </trkpt>
      <trkpt lat="42.3365660" lon="-7.1836360">
        <ele>548.7</ele>
        <time>2014-10-01T12:41:15Z</time>
      </trkpt>
      <trkpt lat="42.3365780" lon="-7.1837840">
        <ele>548.1</ele>
        <time>2014-10-01T12:41:16Z</time>
      </trkpt>
      <trkpt lat="42.3366220" lon="-7.1839320">
        <ele>547.4</ele>
        <time>2014-10-01T12:41:17Z</time>
      </trkpt>
      <trkpt lat="42.3366710" lon="-7.1840810">
        <ele>546.5</ele>
        <time>2014-10-01T12:41:18Z</time>
      </trkpt>
      <trkpt lat="42.3367470" lon="-7.1841960">
        <ele>545.6</ele>
        <time>2014-10-01T12:41:19Z</time>
      </trkpt>
      <trkpt lat="42.3368270" lon="-7.1843110">
        <ele>544.7</ele>
        <time>2014-10-01T12:41:20Z</time>
      </trkpt>
      <trkpt lat="42.3369080" lon="-7.1844190">
        <ele>543.9</ele>
        <time>2014-10-01T12:41:21Z</time>
      </trkpt>
      <trkpt lat="42.3369870" lon="-7.1845320">
        <ele>543.0</ele>
        <time>2014-10-01T12:41:22Z</time>
      </trkpt>
      <trkpt lat="42.3370550" lon="-7.1846530">
        <ele>542.2</ele>
        <time>2014-10-01T12:41:23Z</time>
      </trkpt>
      <trkpt lat="42.3370960" lon="-7.1848120">
        <ele>541.3</ele>
        <time>2014-10-01T12:41:24Z</time>
      </trkpt>
      <trkpt lat="42.3371060" lon="-7.1849750">
        <ele>540.7</ele>
        <time>2014-10-01T12:41:25Z</time>
      </trkpt>
      <trkpt lat="42.3370800" lon="-7.1851400">
        <ele>540.1</ele>
        <time>2014-10-01T12:41:26Z</time>
      </trkpt>
      <trkpt lat="42.3370180" lon="-7.1852770">
        <ele>539.5</ele>
        <time>2014-10-01T12:41:27Z</time>
      </trkpt>
      <trkpt lat="42.3369370" lon="-7.1853870">
        <ele>539.1</ele>
        <time>2014-10-01T12:41:28Z</time>
      </trkpt>
      <trkpt lat="42.3368500" lon="-7.1854950">
        <ele>538.7</ele>
        <time>2014-10-01T12:41:29Z</time>
      </trkpt>
      <trkpt lat="42.3367610" lon="-7.1856040">
        <ele>538.2</ele>
        <time>2014-10-01T12:41:30Z</time>
      </trkpt>
      <trkpt lat="42.3366710" lon="-7.1857110">
        <ele>537.8</ele>
        <time>2014-10-01T12:41:31Z</time>
      </trkpt>
      <trkpt lat="42.3365800" lon="-7.1858310">
        <ele>537.2</ele>
        <time>2014-10-01T12:41:32Z</time>
      </trkpt>
      <trkpt lat="42.3365190" lon="-7.1859830">
        <ele>536.7</ele>
        <time>2014-10-01T12:41:33Z</time>
      </trkpt>
      <trkpt lat="42.3364920" lon="-7.1861400">
        <ele>536.1</ele>
        <time>2014-10-01T12:41:34Z</time>
      </trkpt>
      <trkpt lat="42.3364740" lon="-7.1862950">
        <ele>535.6</ele>
        <time>2014-10-01T12:41:35Z</time>
      </trkpt>
      <trkpt lat="42.3364950" lon="-7.1864480">
        <ele>534.9</ele>
        <time>2014-10-01T12:41:36Z</time>
      </trkpt>
      <trkpt lat="42.3365160" lon="-7.1866060">
        <ele>534.2</ele>
        <time>2014-10-01T12:41:37Z</time>
      </trkpt>
      <trkpt lat="42.3365440" lon="-7.1867650">
        <ele>533.5</ele>
        <time>2014-10-01T12:41:38Z</time>
      </trkpt>
      <trkpt lat="42.3365770" lon="-7.1869140">
        <ele>532.9</ele>
        <time>2014-10-01T12:41:39Z</time>
      </trkpt>
      <trkpt lat="42.3366300" lon="-7.1870800">
        <ele>532.2</ele>
        <time>2014-10-01T12:41:40Z</time>
      </trkpt>
      <trkpt lat="42.3366880" lon="-7.1872450">
        <ele>531.5</ele>
        <time>2014-10-01T12:41:41Z</time>
      </trkpt>
      <trkpt lat="42.3367420" lon="-7.1874010">
        <ele>530.8</ele>
        <time>2014-10-01T12:41:42Z</time>
      </trkpt>
      <trkpt lat="42.3367970" lon="-7.1875510">
        <ele>530.2</ele>
        <time>2014-10-01T12:41:43Z</time>
      </trkpt>
      <trkpt lat="42.3368440" lon="-7.1876850">
        <ele>529.6</ele>
        <time>2014-10-01T12:41:44Z</time>
      </trkpt>
      <trkpt lat="42.3368890" lon="-7.1878190">
        <ele>529.1</ele>
        <time>2014-10-01T12:41:45Z</time>
      </trkpt>
      <trkpt lat="42.3369370" lon="-7.1879580">
        <ele>528.6</ele>
        <time>2014-10-01T12:41:46Z</time>
      </trkpt>
      <trkpt lat="42.3369930" lon="-7.1881050">
        <ele>528.0</ele>
        <time>2014-10-01T12:41:47Z</time>
      </trkpt>
      <trkpt lat="42.3370490" lon="-7.1882500">
        <ele>527.5</ele>
        <time>2014-10-01T12:41:48Z</time>
      </trkpt>
      <trkpt lat="42.3371040" lon="-7.1883920">
        <ele>526.9</ele>
        <time>2014-10-01T12:41:49Z</time>
      </trkpt>
      <trkpt lat="42.3371520" lon="-7.1885260">
        <ele>526.4</ele>
        <time>2014-10-01T12:41:50Z</time>
      </trkpt>
      <trkpt lat="42.3371950" lon="-7.1886630">
        <ele>525.8</ele>
        <time>2014-10-01T12:41:51Z</time>
      </trkpt>
      <trkpt lat="42.3372380" lon="-7.1888040">
        <ele>525.3</ele>
        <time>2014-10-01T12:41:52Z</time>
      </trkpt>
      <trkpt lat="42.3372490" lon="-7.1889570">
        <ele>524.6</ele>
        <time>2014-10-01T12:41:53Z</time>
      </trkpt>
      <trkpt lat="42.3372190" lon="-7.1891000">
        <ele>524.0</ele>
        <time>2014-10-01T12:41:54Z</time>
      </trkpt>
      <trkpt lat="42.3371510" lon="-7.1892000">
        <ele>523.5</ele>
        <time>2014-10-01T12:41:55Z</time>
      </trkpt>
      <trkpt lat="42.3370540" lon="-7.1892430">
        <ele>523.0</ele>
        <time>2014-10-01T12:41:56Z</time>
      </trkpt>
      <trkpt lat="42.3369370" lon="-7.1892460">
        <ele>522.3</ele>
        <time>2014-10-01T12:41:57Z</time>
      </trkpt>
      <trkpt lat="42.3368110" lon="-7.1892400">
        <ele>521.5</ele>
        <time>2014-10-01T12:41:58Z</time>
      </trkpt>
      <trkpt lat="42.3366890" lon="-7.1892280">
        <ele>520.8</ele>
        <time>2014-10-01T12:41:59Z</time>
      </trkpt>
      <trkpt lat="42.3365700" lon="-7.1892220">
        <ele>520.1</ele>
        <time>2014-10-01T12:42:00Z</time>
      </trkpt>
      <trkpt lat="42.3364560" lon="-7.1892350">
        <ele>519.4</ele>
        <time>2014-10-01T12:42:01Z</time>
      </trkpt>
      <trkpt lat="42.3363400" lon="-7.1892630">
        <ele>518.8</ele>
        <time>2014-10-01T12:42:02Z</time>
      </trkpt>
      <trkpt lat="42.3362250" lon="-7.1892970">
        <ele>518.1</ele>
        <time>2014-10-01T12:42:03Z</time>
      </trkpt>
      <trkpt lat="42.3361100" lon="-7.1893310">
        <ele>517.6</ele>
        <time>2014-10-01T12:42:04Z</time>
      </trkpt>
      <trkpt lat="42.3359990" lon="-7.1893630">
        <ele>517.0</ele>
        <time>2014-10-01T12:42:05Z</time>
      </trkpt>
      <trkpt lat="42.3358820" lon="-7.1894020">
        <ele>516.5</ele>
        <time>2014-10-01T12:42:06Z</time>
      </trkpt>
      <trkpt lat="42.3357710" lon="-7.1894370">
        <ele>516.0</ele>
        <time>2014-10-01T12:42:07Z</time>
      </trkpt>
      <trkpt lat="42.3356610" lon="-7.1894780">
        <ele>515.6</ele>
        <time>2014-10-01T12:42:08Z</time>
      </trkpt>
      <trkpt lat="42.3355520" lon="-7.1895210">
        <ele>515.2</ele>
        <time>2014-10-01T12:42:09Z</time>
      </trkpt>
      <trkpt lat="42.3354440" lon="-7.1895710">
        <ele>514.7</ele>
        <time>2014-10-01T12:42:10Z</time>
      </trkpt>
      <trkpt lat="42.3353500" lon="-7.1896500">
        <ele>514.2</ele>
        <time>2014-10-01T12:42:11Z</time>
      </trkpt>
      <trkpt lat="42.3352530" lon="-7.1897370">
        <ele>513.8</ele>
        <time>2014-10-01T12:42:12Z</time>
      </trkpt>
      <trkpt lat="42.3351600" lon="-7.1898380">
        <ele>513.3</ele>
        <time>2014-10-01T12:42:13Z</time>
      </trkpt>
      <trkpt lat="42.3350650" lon="-7.1899530">
        <ele>512.6</ele>
        <time>2014-10-01T12:42:14Z</time>
      </trkpt>
      <trkpt lat="42.3349980" lon="-7.1900950">
        <ele>512.0</ele>
        <time>2014-10-01T12:42:15Z</time>
      </trkpt>
      <trkpt lat="42.3349370" lon="-7.1902360">
        <ele>511.3</ele>
        <time>2014-10-01T12:42:16Z</time>
      </trkpt>
      <trkpt lat="42.3348860" lon="-7.1903790">
        <ele>510.7</ele>
        <time>2014-10-01T12:42:17Z</time>
      </trkpt>
      <trkpt lat="42.3348420" lon="-7.1905320">
        <ele>510.0</ele>
        <time>2014-10-01T12:42:18Z</time>
      </trkpt>
      <trkpt lat="42.3348020" lon="-7.1906840">
        <ele>509.3</ele>
        <time>2014-10-01T12:42:19Z</time>
      </trkpt>
      <trkpt lat="42.3347650" lon="-7.1908330">
        <ele>508.6</ele>
        <time>2014-10-01T12:42:20Z</time>
      </trkpt>
      <trkpt lat="42.3347300" lon="-7.1909800">
        <ele>508.0</ele>
        <time>2014-10-01T12:42:21Z</time>
      </trkpt>
      <trkpt lat="42.3346940" lon="-7.1911270">
        <ele>507.4</ele>
        <time>2014-10-01T12:42:22Z</time>
      </trkpt>
      <trkpt lat="42.3346590" lon="-7.1912780">
        <ele>506.8</ele>
        <time>2014-10-01T12:42:23Z</time>
      </trkpt>
      <trkpt lat="42.3346240" lon="-7.1914320">
        <ele>506.1</ele>
        <time>2014-10-01T12:42:24Z</time>
      </trkpt>
      <trkpt lat="42.3345850" lon="-7.1915840">
        <ele>505.5</ele>
        <time>2014-10-01T12:42:25Z</time>
      </trkpt>
      <trkpt lat="42.3345490" lon="-7.1917340">
        <ele>505.0</ele>
        <time>2014-10-01T12:42:26Z</time>
      </trkpt>
      <trkpt lat="42.3345350" lon="-7.1918980">
        <ele>504.4</ele>
        <time>2014-10-01T12:42:27Z</time>
      </trkpt>
      <trkpt lat="42.3345660" lon="-7.1920580">
        <ele>503.9</ele>
        <time>2014-10-01T12:42:28Z</time>
      </trkpt>
      <trkpt lat="42.3346240" lon="-7.1921970">
        <ele>503.6</ele>
        <time>2014-10-01T12:42:29Z</time>
      </trkpt>
      <trkpt lat="42.3347060" lon="-7.1923140">
        <ele>503.3</ele>
        <time>2014-10-01T12:42:30Z</time>
      </trkpt>
      <trkpt lat="42.3347910" lon="-7.1924100">
        <ele>503.0</ele>
        <time>2014-10-01T12:42:31Z</time>
      </trkpt>
      <trkpt lat="42.3348820" lon="-7.1924900">
        <ele>502.7</ele>
        <time>2014-10-01T12:42:32Z</time>
      </trkpt>
      <trkpt lat="42.3349730" lon="-7.1925560">
        <ele>502.5</ele>
        <time>2014-10-01T12:42:33Z</time>
      </trkpt>
      <trkpt lat="42.3350740" lon="-7.1926270">
        <ele>502.4</ele>
        <time>2014-10-01T12:42:34Z</time>
      </trkpt>
      <trkpt lat="42.3351740" lon="-7.1926940">
        <ele>502.3</ele>
        <time>2014-10-01T12:42:35Z</time>
      </trkpt>
      <trkpt lat="42.3352700" lon="-7.1927620">
        <ele>502.2</ele>
        <time>2014-10-01T12:42:36Z</time>
      </trkpt>
      <trkpt lat="42.3353670" lon="-7.1928300">
        <ele>502.1</ele>
        <time>2014-10-01T12:42:37Z</time>
      </trkpt>
      <trkpt lat="42.3354610" lon="-7.1928980">
        <ele>502.1</ele>
        <time>2014-10-01T12:42:38Z</time>
      </trkpt>
      <trkpt lat="42.3355500" lon="-7.1929620">
        <ele>502.1</ele>
        <time>2014-10-01T12:42:39Z</time>
      </trkpt>
      <trkpt lat="42.3356350" lon="-7.1930220">
        <ele>502.0</ele>
        <time>2014-10-01T12:42:40Z</time>
      </trkpt>
      <trkpt lat="42.3357250" lon="-7.1930820">
        <ele>502.0</ele>
        <time>2014-10-01T12:42:41Z</time>
      </trkpt>
      <trkpt lat="42.3358100" lon="-7.1931380">
        <ele>502.0</ele>
        <time>2014-10-01T12:42:42Z</time>
      </trkpt>
      <trkpt lat="42.3358930" lon="-7.1931880">
        <ele>502.0</ele>
        <time>2014-10-01T12:42:43Z</time>
      </trkpt>
      <trkpt lat="42.3359850" lon="-7.1932420">
        <ele>502.0</ele>
        <time>2014-10-01T12:42:44Z</time>
      </trkpt>
      <trkpt lat="42.3360640" lon="-7.1932890">
        <ele>502.0</ele>
        <time>2014-10-01T12:42:45Z</time>
      </trkpt>
      <trkpt lat="42.3361460" lon="-7.1933320">
        <ele>501.9</ele>
        <time>2014-10-01T12:42:46Z</time>
      </trkpt>
      <trkpt lat="42.3362260" lon="-7.1933740">
        <ele>501.8</ele>
        <time>2014-10-01T12:42:47Z</time>
      </trkpt>
      <trkpt lat="42.3363020" lon="-7.1934080">
        <ele>501.8</ele>
        <time>2014-10-01T12:42:48Z</time>
      </trkpt>
      <trkpt lat="42.3363810" lon="-7.1934390">
        <ele>501.7</ele>
        <time>2014-10-01T12:42:49Z</time>
      </trkpt>
      <trkpt lat="42.3364610" lon="-7.1934710">
        <ele>501.7</ele>
        <time>2014-10-01T12:42:50Z</time>
      </trkpt>
      <trkpt lat="42.3365370" lon="-7.1935010">
        <ele>501.7</ele>
        <time>2014-10-01T12:42:51Z</time>
      </trkpt>
      <trkpt lat="42.3366160" lon="-7.1935350">
        <ele>501.6</ele>
        <time>2014-10-01T12:42:52Z</time>
      </trkpt>
      <trkpt lat="42.3366970" lon="-7.1935760">
        <ele>501.7</ele>
        <time>2014-10-01T12:42:53Z</time>
      </trkpt>
      <trkpt lat="42.3367710" lon="-7.1936220">
        <ele>501.7</ele>
        <time>2014-10-01T12:42:54Z</time>
      </trkpt>
      <trkpt lat="42.3368290" lon="-7.1936840">
        <ele>501.7</ele>
        <time>2014-10-01T12:42:55Z</time>
      </trkpt>
      <trkpt lat="42.3368710" lon="-7.1937640">
        <ele>501.7</ele>
        <time>2014-10-01T12:42:56Z</time>
      </trkpt>
      <trkpt lat="42.3369120" lon="-7.1938520">
        <ele>501.7</ele>
        <time>2014-10-01T12:42:57Z</time>
      </trkpt>
      <trkpt lat="42.3369450" lon="-7.1939340">
        <ele>501.7</ele>
        <time>2014-10-01T12:42:58Z</time>
      </trkpt>
      <trkpt lat="42.3369710" lon="-7.1940030">
        <ele>501.6</ele>
        <time>2014-10-01T12:42:59Z</time>
      </trkpt>
      <trkpt lat="42.3369950" lon="-7.1940740">
        <ele>501.6</ele>
        <time>2014-10-01T12:43:00Z</time>
      </trkpt>
      <trkpt lat="42.3370150" lon="-7.1941350">
        <ele>501.5</ele>
        <time>2014-10-01T12:43:01Z</time>
      </trkpt>
      <trkpt lat="42.3370370" lon="-7.1942060">
        <ele>501.5</ele>
        <time>2014-10-01T12:43:02Z</time>
      </trkpt>
      <trkpt lat="42.3370550" lon="-7.1942780">
        <ele>501.4</ele>
        <time>2014-10-01T12:43:03Z</time>
      </trkpt>
      <trkpt lat="42.3370700" lon="-7.1943460">
        <ele>501.3</ele>
        <time>2014-10-01T12:43:04Z</time>
      </trkpt>
      <trkpt lat="42.3370860" lon="-7.1944130">
        <ele>501.3</ele>
        <time>2014-10-01T12:43:05Z</time>
      </trkpt>
      <trkpt lat="42.3371020" lon="-7.1944760">
        <ele>501.2</ele>
        <time>2014-10-01T12:43:06Z</time>
      </trkpt>
      <trkpt lat="42.3371180" lon="-7.1945400">
        <ele>501.1</ele>
        <time>2014-10-01T12:43:07Z</time>
      </trkpt>
      <trkpt lat="42.3371330" lon="-7.1946000">
        <ele>501.1</ele>
        <time>2014-10-01T12:43:08Z</time>
      </trkpt>
      <trkpt lat="42.3371440" lon="-7.1946600">
        <ele>501.1</ele>
        <time>2014-10-01T12:43:09Z</time>
      </trkpt>
      <trkpt lat="42.3371560" lon="-7.1947320">
        <ele>501.1</ele>
        <time>2014-10-01T12:43:10Z</time>
      </trkpt>
      <trkpt lat="42.3371660" lon="-7.1948050">
        <ele>501.1</ele>
        <time>2014-10-01T12:43:11Z</time>
      </trkpt>
      <trkpt lat="42.3371740" lon="-7.1948750">
        <ele>501.1</ele>
        <time>2014-10-01T12:43:12Z</time>
      </trkpt>
      <trkpt lat="42.3371800" lon="-7.1949470">
        <ele>501.1</ele>
        <time>2014-10-01T12:43:13Z</time>
      </trkpt>
      <trkpt lat="42.3371900" lon="-7.1950190">
        <ele>501.1</ele>
        <time>2014-10-01T12:43:14Z</time>
      </trkpt>
      <trkpt lat="42.3372010" lon="-7.1950880">
        <ele>501.1</ele>
        <time>2014-10-01T12:43:15Z</time>
      </trkpt>
      <trkpt lat="42.3372120" lon="-7.1951540">
        <ele>501.1</ele>
        <time>2014-10-01T12:43:16Z</time>
      </trkpt>
      <trkpt lat="42.3372200" lon="-7.1952110">
        <ele>501.2</ele>
        <time>2014-10-01T12:43:17Z</time>
      </trkpt>
      <trkpt lat="42.3372420" lon="-7.1952700">
        <ele>501.2</ele>
        <time>2014-10-01T12:43:18Z</time>
      </trkpt>
      <trkpt lat="42.3372640" lon="-7.1953360">
        <ele>501.2</ele>
        <time>2014-10-01T12:43:19Z</time>
      </trkpt>
      <trkpt lat="42.3372960" lon="-7.1954230">
        <ele>501.1</ele>
        <time>2014-10-01T12:43:20Z</time>
      </trkpt>
      <trkpt lat="42.3373120" lon="-7.1955020">
        <ele>501.1</ele>
        <time>2014-10-01T12:43:21Z</time>
      </trkpt>
      <trkpt lat="42.3373250" lon="-7.1955680">
        <ele>501.0</ele>
        <time>2014-10-01T12:43:22Z</time>
      </trkpt>
      <trkpt lat="42.3373410" lon="-7.1956310">
        <ele>501.0</ele>
        <time>2014-10-01T12:43:23Z</time>
      </trkpt>
      <trkpt lat="42.3373630" lon="-7.1957020">
        <ele>500.9</ele>
        <time>2014-10-01T12:43:24Z</time>
      </trkpt>
      <trkpt lat="42.3373860" lon="-7.1957680">
        <ele>500.8</ele>
        <time>2014-10-01T12:43:25Z</time>
      </trkpt>
      <trkpt lat="42.3374120" lon="-7.1958420">
        <ele>500.8</ele>
        <time>2014-10-01T12:43:26Z</time>
      </trkpt>
      <trkpt lat="42.3374350" lon="-7.1959100">
        <ele>500.7</ele>
        <time>2014-10-01T12:43:27Z</time>
      </trkpt>
      <trkpt lat="42.3374680" lon="-7.1959840">
        <ele>500.6</ele>
        <time>2014-10-01T12:43:28Z</time>
      </trkpt>
      <trkpt lat="42.3375020" lon="-7.1960590">
        <ele>500.4</ele>
        <time>2014-10-01T12:43:29Z</time>
      </trkpt>
      <trkpt lat="42.3375430" lon="-7.1961390">
        <ele>500.3</ele>
        <time>2014-10-01T12:43:30Z</time>
      </trkpt>
      <trkpt lat="42.3375880" lon="-7.1962170">
        <ele>500.2</ele>
        <time>2014-10-01T12:43:31Z</time>
      </trkpt>
      <trkpt lat="42.3376340" lon="-7.1962990">
        <ele>500.1</ele>
        <time>2014-10-01T12:43:32Z</time>
      </trkpt>
      <trkpt lat="42.3376750" lon="-7.1963750">
        <ele>500.0</ele>
        <time>2014-10-01T12:43:33Z</time>
      </trkpt>
      <trkpt lat="42.3377140" lon="-7.1964450">
        <ele>499.9</ele>
        <time>2014-10-01T12:43:34Z</time>
      </trkpt>
      <trkpt lat="42.3377490" lon="-7.1965120">
        <ele>499.9</ele>
        <time>2014-10-01T12:43:35Z</time>
      </trkpt>
      <trkpt lat="42.3377820" lon="-7.1965880">
        <ele>499.8</ele>
        <time>2014-10-01T12:43:36Z</time>
      </trkpt>
      <trkpt lat="42.3378170" lon="-7.1966800">
        <ele>499.7</ele>
        <time>2014-10-01T12:43:37Z</time>
      </trkpt>
      <trkpt lat="42.3378460" lon="-7.1967720">
        <ele>499.7</ele>
        <time>2014-10-01T12:43:38Z</time>
      </trkpt>
      <trkpt lat="42.3378700" lon="-7.1968590">
        <ele>499.7</ele>
        <time>2014-10-01T12:43:39Z</time>
      </trkpt>
      <trkpt lat="42.3378790" lon="-7.1969570">
        <ele>499.6</ele>
        <time>2014-10-01T12:43:40Z</time>
      </trkpt>
      <trkpt lat="42.3378620" lon="-7.1970760">
        <ele>499.6</ele>
        <time>2014-10-01T12:43:41Z</time>
      </trkpt>
      <trkpt lat="42.3378430" lon="-7.1971920">
        <ele>499.7</ele>
        <time>2014-10-01T12:43:42Z</time>
      </trkpt>
      <trkpt lat="42.3378170" lon="-7.1973120">
        <ele>499.7</ele>
        <time>2014-10-01T12:43:43Z</time>
      </trkpt>
      <trkpt lat="42.3377830" lon="-7.1974240">
        <ele>499.7</ele>
        <time>2014-10-01T12:43:44Z</time>
      </trkpt>
      <trkpt lat="42.3377380" lon="-7.1975140">
        <ele>499.7</ele>
        <time>2014-10-01T12:43:45Z</time>
      </trkpt>
      <trkpt lat="42.3376870" lon="-7.1976000">
        <ele>499.6</ele>
        <time>2014-10-01T12:43:46Z</time>
      </trkpt>
      <trkpt lat="42.3376360" lon="-7.1976810">
        <ele>499.6</ele>
        <time>2014-10-01T12:43:47Z</time>
      </trkpt>
      <trkpt lat="42.3375830" lon="-7.1977550">
        <ele>499.5</ele>
        <time>2014-10-01T12:43:48Z</time>
      </trkpt>
      <trkpt lat="42.3375230" lon="-7.1978270">
        <ele>499.4</ele>
        <time>2014-10-01T12:43:49Z</time>
      </trkpt>
      <trkpt lat="42.3374600" lon="-7.1978920">
        <ele>499.3</ele>
        <time>2014-10-01T12:43:50Z</time>
      </trkpt>
      <trkpt lat="42.3373990" lon="-7.1979410">
        <ele>499.2</ele>
        <time>2014-10-01T12:43:51Z</time>
      </trkpt>
      <trkpt lat="42.3373350" lon="-7.1979710">
        <ele>499.1</ele>
        <time>2014-10-01T12:43:52Z</time>
      </trkpt>
      <trkpt lat="42.3372690" lon="-7.1980030">
        <ele>499.0</ele>
        <time>2014-10-01T12:43:53Z</time>
      </trkpt>
      <trkpt lat="42.3372050" lon="-7.1980360">
        <ele>499.0</ele>
        <time>2014-10-01T12:43:54Z</time>
      </trkpt>
      <trkpt lat="42.3371380" lon="-7.1980650">
        <ele>499.0</ele>
        <time>2014-10-01T12:43:55Z</time>
      </trkpt>
      <trkpt lat="42.3370740" lon="-7.1980890">
        <ele>499.0</ele>
        <time>2014-10-01T12:43:56Z</time>
      </trkpt>
      <trkpt lat="42.3370080" lon="-7.1981090">
        <ele>498.8</ele>
        <time>2014-10-01T12:43:57Z</time>
      </trkpt>
      <trkpt lat="42.3369390" lon="-7.1981230">
        <ele>498.6</ele>
        <time>2014-10-01T12:43:58Z</time>
      </trkpt>
      <trkpt lat="42.3368670" lon="-7.1981360">
        <ele>498.4</ele>
        <time>2014-10-01T12:43:59Z</time>
      </trkpt>
      <trkpt lat="42.3367970" lon="-7.1981510">
        <ele>498.3</ele>
        <time>2014-10-01T12:44:00Z</time>
      </trkpt>
      <trkpt lat="42.3367260" lon="-7.1981660">
        <ele>498.2</ele>
        <time>2014-10-01T12:44:01Z</time>
      </trkpt>
      <trkpt lat="42.3366640" lon="-7.1981760">
        <ele>498.1</ele>
        <time>2014-10-01T12:44:02Z</time>
      </trkpt>
      <trkpt lat="42.3365800" lon="-7.1981890">
        <ele>498.1</ele>
        <time>2014-10-01T12:44:03Z</time>
      </trkpt>
      <trkpt lat="42.3365040" lon="-7.1982260">
        <ele>498.0</ele>
        <time>2014-10-01T12:44:04Z</time>
      </trkpt>
      <trkpt lat="42.3364310" lon="-7.1982790">
        <ele>498.0</ele>
        <time>2014-10-01T12:44:05Z</time>
      </trkpt>
      <trkpt lat="42.3363760" lon="-7.1983500">
        <ele>498.0</ele>
        <time>2014-10-01T12:44:06Z</time>
      </trkpt>
      <trkpt lat="42.3363580" lon="-7.1984270">
        <ele>497.9</ele>
        <time>2014-10-01T12:44:07Z</time>
      </trkpt>
      <trkpt lat="42.3363640" lon="-7.1985070">
        <ele>497.8</ele>
        <time>2014-10-01T12:44:08Z</time>
      </trkpt>
      <trkpt lat="42.3363800" lon="-7.1985920">
        <ele>497.7</ele>
        <time>2014-10-01T12:44:09Z</time>
      </trkpt>
      <trkpt lat="42.3364140" lon="-7.1986750">
        <ele>497.5</ele>
        <time>2014-10-01T12:44:10Z</time>
      </trkpt>
      <trkpt lat="42.3364510" lon="-7.1987610">
        <ele>497.3</ele>
        <time>2014-10-01T12:44:11Z</time>
      </trkpt>
      <trkpt lat="42.3364900" lon="-7.1988490">
        <ele>497.1</ele>
        <time>2014-10-01T12:44:12Z</time>
      </trkpt>
      <trkpt lat="42.3365310" lon="-7.1989340">
        <ele>496.9</ele>
        <time>2014-10-01T12:44:13Z</time>
      </trkpt>
      <trkpt lat="42.3365690" lon="-7.1990110">
        <ele>496.8</ele>
        <time>2014-10-01T12:44:14Z</time>
      </trkpt>
      <trkpt lat="42.3366110" lon="-7.1990940">
        <ele>496.8</ele>
        <time>2014-10-01T12:44:15Z</time>
      </trkpt>
      <trkpt lat="42.3366390" lon="-7.1991870">
        <ele>496.8</ele>
        <time>2014-10-01T12:44:16Z</time>
      </trkpt>
      <trkpt lat="42.3366640" lon="-7.1992800">
        <ele>496.8</ele>
        <time>2014-10-01T12:44:17Z</time>
      </trkpt>
      <trkpt lat="42.3366870" lon="-7.1993750">
        <ele>496.8</ele>
        <time>2014-10-01T12:44:18Z</time>
      </trkpt>
      <trkpt lat="42.3367040" lon="-7.1994680">
        <ele>496.8</ele>
        <time>2014-10-01T12:44:19Z</time>
      </trkpt>
      <trkpt lat="42.3367230" lon="-7.1995580">
        <ele>496.8</ele>
        <time>2014-10-01T12:44:20Z</time>
      </trkpt>
      <trkpt lat="42.3367400" lon="-7.1996500">
        <ele>496.8</ele>
        <time>2014-10-01T12:44:21Z</time>
      </trkpt>
      <trkpt lat="42.3367520" lon="-7.1997320">
        <ele>496.8</ele>
        <time>2014-10-01T12:44:22Z</time>
      </trkpt>
      <trkpt lat="42.3367660" lon="-7.1998150">
        <ele>496.8</ele>
        <time>2014-10-01T12:44:23Z</time>
      </trkpt>
      <trkpt lat="42.3367840" lon="-7.1999350">
        <ele>496.8</ele>
        <time>2014-10-01T12:44:24Z</time>
      </trkpt>
      <trkpt lat="42.3368180" lon="-7.2000350">
        <ele>496.8</ele>
        <time>2014-10-01T12:44:25Z</time>
      </trkpt>
      <trkpt lat="42.3368520" lon="-7.2001300">
        <ele>496.8</ele>
        <time>2014-10-01T12:44:26Z</time>
      </trkpt>
      <trkpt lat="42.3368890" lon="-7.2002140">
        <ele>496.8</ele>
        <time>2014-10-01T12:44:27Z</time>
      </trkpt>
      <trkpt lat="42.3369270" lon="-7.2002910">
        <ele>496.8</ele>
        <time>2014-10-01T12:44:28Z</time>
      </trkpt>
      <trkpt lat="42.3369820" lon="-7.2003540">
        <ele>496.8</ele>
        <time>2014-10-01T12:44:29Z</time>
      </trkpt>
      <trkpt lat="42.3370350" lon="-7.2004100">
        <ele>496.8</ele>
        <time>2014-10-01T12:44:30Z</time>
      </trkpt>
      <trkpt lat="42.3370990" lon="-7.2004440">
        <ele>496.8</ele>
        <time>2014-10-01T12:44:31Z</time>
      </trkpt>
      <trkpt lat="42.3371630" lon="-7.2004750">
        <ele>496.8</ele>
        <time>2014-10-01T12:44:32Z</time>
      </trkpt>
      <trkpt lat="42.3372240" lon="-7.2005020">
        <ele>496.8</ele>
        <time>2014-10-01T12:44:33Z</time>
      </trkpt>
      <trkpt lat="42.3372900" lon="-7.2005290">
        <ele>496.7</ele>
        <time>2014-10-01T12:44:34Z</time>
      </trkpt>
      <trkpt lat="42.3373560" lon="-7.2005550">
        <ele>496.7</ele>
        <time>2014-10-01T12:44:35Z</time>
      </trkpt>
      <trkpt lat="42.3374200" lon="-7.2005810">
        <ele>496.7</ele>
        <time>2014-10-01T12:44:36Z</time>
      </trkpt>
      <trkpt lat="42.3374860" lon="-7.2006120">
        <ele>496.6</ele>
        <time>2014-10-01T12:44:37Z</time>
      </trkpt>
      <trkpt lat="42.3375520" lon="-7.2006420">
        <ele>496.6</ele>
        <time>2014-10-01T12:44:38Z</time>
      </trkpt>
      <trkpt lat="42.3376110" lon="-7.2006730">
        <ele>496.6</ele>
        <time>2014-10-01T12:44:39Z</time>
      </trkpt>
      <trkpt lat="42.3376690" lon="-7.2007100">
        <ele>496.6</ele>
        <time>2014-10-01T12:44:40Z</time>
      </trkpt>
      <trkpt lat="42.3377330" lon="-7.2007540">
        <ele>496.7</ele>
        <time>2014-10-01T12:44:41Z</time>
      </trkpt>
      <trkpt lat="42.3377940" lon="-7.2008030">
        <ele>496.7</ele>
        <time>2014-10-01T12:44:42Z</time>
      </trkpt>
      <trkpt lat="42.3378580" lon="-7.2008560">
        <ele>496.7</ele>
        <time>2014-10-01T12:44:43Z</time>
      </trkpt>
      <trkpt lat="42.3379130" lon="-7.2009080">
        <ele>496.8</ele>
        <time>2014-10-01T12:44:44Z</time>
      </trkpt>
      <trkpt lat="42.3379720" lon="-7.2009690">
        <ele>496.8</ele>
        <time>2014-10-01T12:44:45Z</time>
      </trkpt>
      <trkpt lat="42.3380280" lon="-7.2010420">
        <ele>496.9</ele>
        <time>2014-10-01T12:44:46Z</time>
      </trkpt>
      <trkpt lat="42.3380470" lon="-7.2011490">
        <ele>496.9</ele>
        <time>2014-10-01T12:44:47Z</time>
      </trkpt>
      <trkpt lat="42.3380700" lon="-7.2012480">
        <ele>497.0</ele>
        <time>2014-10-01T12:44:48Z</time>
      </trkpt>
      <trkpt lat="42.3381000" lon="-7.2013390">
        <ele>497.0</ele>
        <time>2014-10-01T12:44:49Z</time>
      </trkpt>
      <trkpt lat="42.3381360" lon="-7.2014240">
        <ele>497.0</ele>
        <time>2014-10-01T12:44:50Z</time>
      </trkpt>
      <trkpt lat="42.3381740" lon="-7.2015050">
        <ele>497.0</ele>
        <time>2014-10-01T12:44:51Z</time>
      </trkpt>
      <trkpt lat="42.3382230" lon="-7.2015750">
        <ele>497.0</ele>
        <time>2014-10-01T12:44:52Z</time>
      </trkpt>
      <trkpt lat="42.3382790" lon="-7.2016270">
        <ele>497.0</ele>
        <time>2014-10-01T12:44:53Z</time>
      </trkpt>
      <trkpt lat="42.3383330" lon="-7.2016800">
        <ele>496.9</ele>
        <time>2014-10-01T12:44:54Z</time>
      </trkpt>
      <trkpt lat="42.3383880" lon="-7.2017290">
        <ele>496.8</ele>
        <time>2014-10-01T12:44:55Z</time>
      </trkpt>
      <trkpt lat="42.3384440" lon="-7.2017760">
        <ele>496.7</ele>
        <time>2014-10-01T12:44:56Z</time>
      </trkpt>
      <trkpt lat="42.3384990" lon="-7.2018150">
        <ele>496.6</ele>
        <time>2014-10-01T12:44:57Z</time>
      </trkpt>
      <trkpt lat="42.3385540" lon="-7.2018340">
        <ele>496.5</ele>
        <time>2014-10-01T12:44:58Z</time>
      </trkpt>
      <trkpt lat="42.3386140" lon="-7.2018550">
        <ele>496.4</ele>
        <time>2014-10-01T12:44:59Z</time>
      </trkpt>
      <trkpt lat="42.3386730" lon="-7.2018770">
        <ele>496.2</ele>
        <time>2014-10-01T12:45:00Z</time>
      </trkpt>
      <trkpt lat="42.3387380" lon="-7.2019040">
        <ele>495.9</ele>
        <time>2014-10-01T12:45:01Z</time>
      </trkpt>
      <trkpt lat="42.3388060" lon="-7.2019310">
        <ele>495.6</ele>
        <time>2014-10-01T12:45:02Z</time>
      </trkpt>
      <trkpt lat="42.3388680" lon="-7.2019600">
        <ele>495.3</ele>
        <time>2014-10-01T12:45:03Z</time>
      </trkpt>
      <trkpt lat="42.3389320" lon="-7.2019910">
        <ele>495.0</ele>
        <time>2014-10-01T12:45:04Z</time>
      </trkpt>
      <trkpt lat="42.3390000" lon="-7.2020190">
        <ele>494.7</ele>
        <time>2014-10-01T12:45:05Z</time>
      </trkpt>
      <trkpt lat="42.3390740" lon="-7.2020510">
        <ele>494.4</ele>
        <time>2014-10-01T12:45:06Z</time>
      </trkpt>
      <trkpt lat="42.3391550" lon="-7.2020920">
        <ele>494.0</ele>
        <time>2014-10-01T12:45:07Z</time>
      </trkpt>
      <trkpt lat="42.3392370" lon="-7.2021350">
        <ele>493.6</ele>
        <time>2014-10-01T12:45:08Z</time>
      </trkpt>
      <trkpt lat="42.3393230" lon="-7.2021870">
        <ele>493.2</ele>
        <time>2014-10-01T12:45:09Z</time>
      </trkpt>
      <trkpt lat="42.3394110" lon="-7.2022410">
        <ele>492.8</ele>
        <time>2014-10-01T12:45:10Z</time>
      </trkpt>
      <trkpt lat="42.3394950" lon="-7.2022910">
        <ele>492.4</ele>
        <time>2014-10-01T12:45:11Z</time>
      </trkpt>
      <trkpt lat="42.3395760" lon="-7.2023380">
        <ele>492.0</ele>
        <time>2014-10-01T12:45:12Z</time>
      </trkpt>
      <trkpt lat="42.3396560" lon="-7.2023820">
        <ele>491.7</ele>
        <time>2014-10-01T12:45:13Z</time>
      </trkpt>
      <trkpt lat="42.3397370" lon="-7.2024250">
        <ele>491.3</ele>
        <time>2014-10-01T12:45:14Z</time>
      </trkpt>
      <trkpt lat="42.3398200" lon="-7.2024680">
        <ele>490.9</ele>
        <time>2014-10-01T12:45:15Z</time>
      </trkpt>
      <trkpt lat="42.3399040" lon="-7.2025160">
        <ele>490.5</ele>
        <time>2014-10-01T12:45:16Z</time>
      </trkpt>
      <trkpt lat="42.3399900" lon="-7.2025670">
        <ele>490.1</ele>
        <time>2014-10-01T12:45:17Z</time>
      </trkpt>
      <trkpt lat="42.3400810" lon="-7.2026200">
        <ele>489.7</ele>
        <time>2014-10-01T12:45:18Z</time>
      </trkpt>
      <trkpt lat="42.3401720" lon="-7.2026680">
        <ele>489.2</ele>
        <time>2014-10-01T12:45:19Z</time>
      </trkpt>
      <trkpt lat="42.3402620" lon="-7.2027150">
        <ele>488.8</ele>
        <time>2014-10-01T12:45:20Z</time>
      </trkpt>
      <trkpt lat="42.3403570" lon="-7.2027640">
        <ele>488.3</ele>
        <time>2014-10-01T12:45:21Z</time>
      </trkpt>
      <trkpt lat="42.3404530" lon="-7.2028140">
        <ele>487.9</ele>
        <time>2014-10-01T12:45:22Z</time>
      </trkpt>
      <trkpt lat="42.3405460" lon="-7.2028570">
        <ele>487.4</ele>
        <time>2014-10-01T12:45:23Z</time>
      </trkpt>
      <trkpt lat="42.3406430" lon="-7.2029020">
        <ele>486.9</ele>
        <time>2014-10-01T12:45:24Z</time>
      </trkpt>
      <trkpt lat="42.3407410" lon="-7.2029430">
        <ele>486.4</ele>
        <time>2014-10-01T12:45:25Z</time>
      </trkpt>
      <trkpt lat="42.3408430" lon="-7.2029810">
        <ele>486.0</ele>
        <time>2014-10-01T12:45:26Z</time>
      </trkpt>
      <trkpt lat="42.3409410" lon="-7.2030160">
        <ele>485.6</ele>
        <time>2014-10-01T12:45:27Z</time>
      </trkpt>
      <trkpt lat="42.3410400" lon="-7.2030470">
        <ele>485.2</ele>
        <time>2014-10-01T12:45:28Z</time>
      </trkpt>
      <trkpt lat="42.3411360" lon="-7.2030780">
        <ele>484.9</ele>
        <time>2014-10-01T12:45:29Z</time>
      </trkpt>
      <trkpt lat="42.3412300" lon="-7.2031120">
        <ele>484.5</ele>
        <time>2014-10-01T12:45:30Z</time>
      </trkpt>
      <trkpt lat="42.3413110" lon="-7.2031800">
        <ele>484.2</ele>
        <time>2014-10-01T12:45:31Z</time>
      </trkpt>
      <trkpt lat="42.3413730" lon="-7.2032820">
        <ele>483.8</ele>
        <time>2014-10-01T12:45:32Z</time>
      </trkpt>
      <trkpt lat="42.3413950" lon="-7.2034030">
        <ele>483.4</ele>
        <time>2014-10-01T12:45:33Z</time>
      </trkpt>
      <trkpt lat="42.3414110" lon="-7.2035030">
        <ele>483.2</ele>
        <time>2014-10-01T12:45:34Z</time>
      </trkpt>
      <trkpt lat="42.3413730" lon="-7.2036050">
        <ele>483.1</ele>
        <time>2014-10-01T12:45:35Z</time>
      </trkpt>
      <trkpt lat="42.3413010" lon="-7.2036820">
        <ele>483.1</ele>
        <time>2014-10-01T12:45:36Z</time>
      </trkpt>
      <trkpt lat="42.3412130" lon="-7.2037090">
        <ele>483.0</ele>
        <time>2014-10-01T12:45:37Z</time>
      </trkpt>
      <trkpt lat="42.3411180" lon="-7.2037280">
        <ele>482.6</ele>
        <time>2014-10-01T12:45:38Z</time>
      </trkpt>
      <trkpt lat="42.3410250" lon="-7.2037450">
        <ele>482.0</ele>
        <time>2014-10-01T12:45:39Z</time>
      </trkpt>
      <trkpt lat="42.3409280" lon="-7.2037560">
        <ele>481.4</ele>
        <time>2014-10-01T12:45:40Z</time>
      </trkpt>
      <trkpt lat="42.3408360" lon="-7.2037690">
        <ele>480.8</ele>
        <time>2014-10-01T12:45:41Z</time>
      </trkpt>
      <trkpt lat="42.3407380" lon="-7.2037750">
        <ele>480.2</ele>
        <time>2014-10-01T12:45:42Z</time>
      </trkpt>
      <trkpt lat="42.3406350" lon="-7.2037780">
        <ele>479.5</ele>
        <time>2014-10-01T12:45:43Z</time>
      </trkpt>
      <trkpt lat="42.3405330" lon="-7.2037620">
        <ele>478.9</ele>
        <time>2014-10-01T12:45:44Z</time>
      </trkpt>
      <trkpt lat="42.3404310" lon="-7.2037460">
        <ele>478.2</ele>
        <time>2014-10-01T12:45:45Z</time>
      </trkpt>
      <trkpt lat="42.3403220" lon="-7.2037300">
        <ele>477.6</ele>
        <time>2014-10-01T12:45:46Z</time>
      </trkpt>
      <trkpt lat="42.3402200" lon="-7.2037290">
        <ele>476.9</ele>
        <time>2014-10-01T12:45:47Z</time>
      </trkpt>
      <trkpt lat="42.3401140" lon="-7.2037360">
        <ele>476.4</ele>
        <time>2014-10-01T12:45:48Z</time>
      </trkpt>
      <trkpt lat="42.3400220" lon="-7.2037510">
        <ele>475.8</ele>
        <time>2014-10-01T12:45:49Z</time>
      </trkpt>
      <trkpt lat="42.3399240" lon="-7.2037700">
        <ele>475.1</ele>
        <time>2014-10-01T12:45:50Z</time>
      </trkpt>
      <trkpt lat="42.3398300" lon="-7.2037970">
        <ele>474.5</ele>
        <time>2014-10-01T12:45:51Z</time>
      </trkpt>
      <trkpt lat="42.3397320" lon="-7.2038250">
        <ele>473.8</ele>
        <time>2014-10-01T12:45:52Z</time>
      </trkpt>
      <trkpt lat="42.3396310" lon="-7.2038550">
        <ele>473.1</ele>
        <time>2014-10-01T12:45:53Z</time>
      </trkpt>
      <trkpt lat="42.3395230" lon="-7.2038870">
        <ele>472.3</ele>
        <time>2014-10-01T12:45:54Z</time>
      </trkpt>
      <trkpt lat="42.3394140" lon="-7.2039140">
        <ele>471.6</ele>
        <time>2014-10-01T12:45:55Z</time>
      </trkpt>
      <trkpt lat="42.3393010" lon="-7.2039370">
        <ele>471.0</ele>
        <time>2014-10-01T12:45:56Z</time>
      </trkpt>
      <trkpt lat="42.3391920" lon="-7.2039530">
        <ele>470.4</ele>
        <time>2014-10-01T12:45:57Z</time>
      </trkpt>
      <trkpt lat="42.3390780" lon="-7.2039590">
        <ele>469.7</ele>
        <time>2014-10-01T12:45:58Z</time>
      </trkpt>
      <trkpt lat="42.3389620" lon="-7.2039520">
        <ele>469.0</ele>
        <time>2014-10-01T12:45:59Z</time>
      </trkpt>
      <trkpt lat="42.3388530" lon="-7.2039080">
        <ele>468.4</ele>
        <time>2014-10-01T12:46:00Z</time>
      </trkpt>
      <trkpt lat="42.3387470" lon="-7.2038600">
        <ele>467.6</ele>
        <time>2014-10-01T12:46:01Z</time>
      </trkpt>
      <trkpt lat="42.3386450" lon="-7.2038140">
        <ele>466.9</ele>
        <time>2014-10-01T12:46:02Z</time>
      </trkpt>
      <trkpt lat="42.3385400" lon="-7.2037750">
        <ele>466.2</ele>
        <time>2014-10-01T12:46:03Z</time>
      </trkpt>
      <trkpt lat="42.3384360" lon="-7.2037480">
        <ele>465.5</ele>
        <time>2014-10-01T12:46:04Z</time>
      </trkpt>
      <trkpt lat="42.3383270" lon="-7.2037270">
        <ele>464.8</ele>
        <time>2014-10-01T12:46:05Z</time>
      </trkpt>
      <trkpt lat="42.3382170" lon="-7.2037050">
        <ele>464.2</ele>
        <time>2014-10-01T12:46:06Z</time>
      </trkpt>
      <trkpt lat="42.3381130" lon="-7.2036750">
        <ele>463.6</ele>
        <time>2014-10-01T12:46:07Z</time>
      </trkpt>
      <trkpt lat="42.3380120" lon="-7.2036340">
        <ele>463.1</ele>
        <time>2014-10-01T12:46:08Z</time>
      </trkpt>
      <trkpt lat="42.3379140" lon="-7.2035880">
        <ele>462.5</ele>
        <time>2014-10-01T12:46:09Z</time>
      </trkpt>
      <trkpt lat="42.3378220" lon="-7.2035450">
        <ele>461.9</ele>
        <time>2014-10-01T12:46:10Z</time>
      </trkpt>
      <trkpt lat="42.3377280" lon="-7.2035070">
        <ele>461.3</ele>
        <time>2014-10-01T12:46:11Z</time>
      </trkpt>
      <trkpt lat="42.3376280" lon="-7.2034650">
        <ele>460.7</ele>
        <time>2014-10-01T12:46:12Z</time>
      </trkpt>
      <trkpt lat="42.3375270" lon="-7.2034280">
        <ele>460.1</ele>
        <time>2014-10-01T12:46:13Z</time>
      </trkpt>
      <trkpt lat="42.3374300" lon="-7.2033930">
        <ele>459.6</ele>
        <time>2014-10-01T12:46:14Z</time>
      </trkpt>
      <trkpt lat="42.3373320" lon="-7.2033600">
        <ele>459.1</ele>
        <time>2014-10-01T12:46:15Z</time>
      </trkpt>
      <trkpt lat="42.3372370" lon="-7.2033310">
        <ele>458.6</ele>
        <time>2014-10-01T12:46:16Z</time>
      </trkpt>
      <trkpt lat="42.3371460" lon="-7.2033050">
        <ele>458.1</ele>
        <time>2014-10-01T12:46:17Z</time>
      </trkpt>
      <trkpt lat="42.3370510" lon="-7.2032760">
        <ele>457.5</ele>
        <time>2014-10-01T12:46:18Z</time>
      </trkpt>
      <trkpt lat="42.3369550" lon="-7.2032510">
        <ele>456.9</ele>
        <time>2014-10-01T12:46:19Z</time>
      </trkpt>
      <trkpt lat="42.3368620" lon="-7.2032260">
        <ele>456.2</ele>
        <time>2014-10-01T12:46:20Z</time>
      </trkpt>
      <trkpt lat="42.3367640" lon="-7.2032060">
        <ele>455.6</ele>
        <time>2014-10-01T12:46:21Z</time>
      </trkpt>
      <trkpt lat="42.3366680" lon="-7.2031910">
        <ele>455.0</ele>
        <time>2014-10-01T12:46:22Z</time>
      </trkpt>
      <trkpt lat="42.3365730" lon="-7.2031840">
        <ele>454.4</ele>
        <time>2014-10-01T12:46:23Z</time>
      </trkpt>
      <trkpt lat="42.3364860" lon="-7.2031820">
        <ele>453.8</ele>
        <time>2014-10-01T12:46:24Z</time>
      </trkpt>
      <trkpt lat="42.3363920" lon="-7.2031820">
        <ele>453.2</ele>
        <time>2014-10-01T12:46:25Z</time>
      </trkpt>
      <trkpt lat="42.3362800" lon="-7.2031850">
        <ele>452.5</ele>
        <time>2014-10-01T12:46:26Z</time>
      </trkpt>
      <trkpt lat="42.3361750" lon="-7.2031880">
        <ele>451.9</ele>
        <time>2014-10-01T12:46:27Z</time>
      </trkpt>
      <trkpt lat="42.3360690" lon="-7.2031940">
        <ele>451.3</ele>
        <time>2014-10-01T12:46:28Z</time>
      </trkpt>
      <trkpt lat="42.3359610" lon="-7.2032030">
        <ele>450.6</ele>
        <time>2014-10-01T12:46:29Z</time>
      </trkpt>
      <trkpt lat="42.3358510" lon="-7.2032120">
        <ele>450.0</ele>
        <time>2014-10-01T12:46:30Z</time>
      </trkpt>
      <trkpt lat="42.3357470" lon="-7.2032270">
        <ele>449.3</ele>
        <time>2014-10-01T12:46:31Z</time>
      </trkpt>
      <trkpt lat="42.3356430" lon="-7.2032430">
        <ele>448.7</ele>
        <time>2014-10-01T12:46:32Z</time>
      </trkpt>
      <trkpt lat="42.3355440" lon="-7.2032590">
        <ele>448.0</ele>
        <time>2014-10-01T12:46:33Z</time>
      </trkpt>
      <trkpt lat="42.3354290" lon="-7.2032690">
        <ele>447.3</ele>
        <time>2014-10-01T12:46:34Z</time>
      </trkpt>
      <trkpt lat="42.3353110" lon="-7.2032680">
        <ele>446.6</ele>
        <time>2014-10-01T12:46:35Z</time>
      </trkpt>
      <trkpt lat="42.3351970" lon="-7.2032340">
        <ele>445.9</ele>
        <time>2014-10-01T12:46:36Z</time>
      </trkpt>
      <trkpt lat="42.3350800" lon="-7.2031930">
        <ele>445.1</ele>
        <time>2014-10-01T12:46:37Z</time>
      </trkpt>
      <trkpt lat="42.3349640" lon="-7.2031400">
        <ele>444.6</ele>
        <time>2014-10-01T12:46:38Z</time>
      </trkpt>
      <trkpt lat="42.3348700" lon="-7.2030500">
        <ele>444.0</ele>
        <time>2014-10-01T12:46:39Z</time>
      </trkpt>
      <trkpt lat="42.3347820" lon="-7.2029520">
        <ele>443.4</ele>
        <time>2014-10-01T12:46:40Z</time>
      </trkpt>
      <trkpt lat="42.3347040" lon="-7.2028480">
        <ele>442.8</ele>
        <time>2014-10-01T12:46:41Z</time>
      </trkpt>
      <trkpt lat="42.3346320" lon="-7.2027380">
        <ele>442.2</ele>
        <time>2014-10-01T12:46:42Z</time>
      </trkpt>
      <trkpt lat="42.3345640" lon="-7.2026190">
        <ele>441.6</ele>
        <time>2014-10-01T12:46:43Z</time>
      </trkpt>
      <trkpt lat="42.3344910" lon="-7.2024960">
        <ele>440.9</ele>
        <time>2014-10-01T12:46:44Z</time>
      </trkpt>
      <trkpt lat="42.3344170" lon="-7.2023700">
        <ele>440.2</ele>
        <time>2014-10-01T12:46:45Z</time>
      </trkpt>
      <trkpt lat="42.3343400" lon="-7.2022470">
        <ele>439.6</ele>
        <time>2014-10-01T12:46:46Z</time>
      </trkpt>
      <trkpt lat="42.3342610" lon="-7.2021290">
        <ele>438.9</ele>
        <time>2014-10-01T12:46:47Z</time>
      </trkpt>
      <trkpt lat="42.3341810" lon="-7.2020170">
        <ele>438.3</ele>
        <time>2014-10-01T12:46:48Z</time>
      </trkpt>
      <trkpt lat="42.3340980" lon="-7.2019050">
        <ele>437.6</ele>
        <time>2014-10-01T12:46:49Z</time>
      </trkpt>
      <trkpt lat="42.3340160" lon="-7.2018020">
        <ele>437.0</ele>
        <time>2014-10-01T12:46:50Z</time>
      </trkpt>
      <trkpt lat="42.3339300" lon="-7.2016980">
        <ele>436.4</ele>
        <time>2014-10-01T12:46:51Z</time>
      </trkpt>
      <trkpt lat="42.3338410" lon="-7.2015970">
        <ele>435.7</ele>
        <time>2014-10-01T12:46:52Z</time>
      </trkpt>
      <trkpt lat="42.3337490" lon="-7.2015010">
        <ele>435.0</ele>
        <time>2014-10-01T12:46:53Z</time>
      </trkpt>
      <trkpt lat="42.3336450" lon="-7.2014430">
        <ele>434.2</ele>
        <time>2014-10-01T12:46:54Z</time>
      </trkpt>
      <trkpt lat="42.3335340" lon="-7.2013900">
        <ele>433.4</ele>
        <time>2014-10-01T12:46:55Z</time>
      </trkpt>
      <trkpt lat="42.3334160" lon="-7.2013770">
        <ele>432.6</ele>
        <time>2014-10-01T12:46:56Z</time>
      </trkpt>
      <trkpt lat="42.3333030" lon="-7.2013840">
        <ele>431.8</ele>
        <time>2014-10-01T12:46:57Z</time>
      </trkpt>
      <trkpt lat="42.3331890" lon="-7.2014410">
        <ele>430.9</ele>
        <time>2014-10-01T12:46:58Z</time>
      </trkpt>
      <trkpt lat="42.3330830" lon="-7.2015070">
        <ele>430.1</ele>
        <time>2014-10-01T12:46:59Z</time>
      </trkpt>
      <trkpt lat="42.3329800" lon="-7.2016100">
        <ele>429.1</ele>
        <time>2014-10-01T12:47:00Z</time>
      </trkpt>
      <trkpt lat="42.3328770" lon="-7.2017180">
        <ele>428.2</ele>
        <time>2014-10-01T12:47:01Z</time>
      </trkpt>
      <trkpt lat="42.3327720" lon="-7.2018430">
        <ele>427.3</ele>
        <time>2014-10-01T12:47:02Z</time>
      </trkpt>
      <trkpt lat="42.3326630" lon="-7.2019630">
        <ele>426.5</ele>
        <time>2014-10-01T12:47:03Z</time>
      </trkpt>
      <trkpt lat="42.3325680" lon="-7.2020680">
        <ele>425.8</ele>
        <time>2014-10-01T12:47:04Z</time>
      </trkpt>
      <trkpt lat="42.3324720" lon="-7.2021680">
        <ele>425.1</ele>
        <time>2014-10-01T12:47:05Z</time>
      </trkpt>
      <trkpt lat="42.3323790" lon="-7.2022650">
        <ele>424.5</ele>
        <time>2014-10-01T12:47:06Z</time>
      </trkpt>
      <trkpt lat="42.3322880" lon="-7.2023530">
        <ele>423.8</ele>
        <time>2014-10-01T12:47:07Z</time>
      </trkpt>
      <trkpt lat="42.3321890" lon="-7.2024480">
        <ele>423.1</ele>
        <time>2014-10-01T12:47:08Z</time>
      </trkpt>
      <trkpt lat="42.3320900" lon="-7.2025480">
        <ele>422.5</ele>
        <time>2014-10-01T12:47:09Z</time>
      </trkpt>
      <trkpt lat="42.3319880" lon="-7.2026650">
        <ele>421.8</ele>
        <time>2014-10-01T12:47:10Z</time>
      </trkpt>
      <trkpt lat="42.3318940" lon="-7.2027680">
        <ele>421.1</ele>
        <time>2014-10-01T12:47:11Z</time>
      </trkpt>
      <trkpt lat="42.3318040" lon="-7.2028650">
        <ele>420.5</ele>
        <time>2014-10-01T12:47:12Z</time>
      </trkpt>
      <trkpt lat="42.3317120" lon="-7.2029660">
        <ele>419.8</ele>
        <time>2014-10-01T12:47:13Z</time>
      </trkpt>
      <trkpt lat="42.3316140" lon="-7.2030710">
        <ele>419.0</ele>
        <time>2014-10-01T12:47:14Z</time>
      </trkpt>
      <trkpt lat="42.3315150" lon="-7.2031720">
        <ele>418.3</ele>
        <time>2014-10-01T12:47:15Z</time>
      </trkpt>
      <trkpt lat="42.3314240" lon="-7.2032530">
        <ele>417.6</ele>
        <time>2014-10-01T12:47:16Z</time>
      </trkpt>
      <trkpt lat="42.3313300" lon="-7.2033280">
        <ele>417.0</ele>
        <time>2014-10-01T12:47:17Z</time>
      </trkpt>
      <trkpt lat="42.3312420" lon="-7.2033980">
        <ele>416.3</ele>
        <time>2014-10-01T12:47:18Z</time>
      </trkpt>
      <trkpt lat="42.3311520" lon="-7.2034720">
        <ele>415.6</ele>
        <time>2014-10-01T12:47:19Z</time>
      </trkpt>
      <trkpt lat="42.3310500" lon="-7.2035680">
        <ele>414.9</ele>
        <time>2014-10-01T12:47:20Z</time>
      </trkpt>
      <trkpt lat="42.3309520" lon="-7.2036600">
        <ele>414.1</ele>
        <time>2014-10-01T12:47:21Z</time>
      </trkpt>
      <trkpt lat="42.3308550" lon="-7.2037540">
        <ele>413.4</ele>
        <time>2014-10-01T12:47:22Z</time>
      </trkpt>
      <trkpt lat="42.3307610" lon="-7.2038450">
        <ele>412.7</ele>
        <time>2014-10-01T12:47:23Z</time>
      </trkpt>
      <trkpt lat="42.3306740" lon="-7.2039310">
        <ele>412.0</ele>
        <time>2014-10-01T12:47:24Z</time>
      </trkpt>
      <trkpt lat="42.3305900" lon="-7.2040030">
        <ele>411.5</ele>
        <time>2014-10-01T12:47:25Z</time>
      </trkpt>
      <trkpt lat="42.3305010" lon="-7.2040650">
        <ele>410.9</ele>
        <time>2014-10-01T12:47:26Z</time>
      </trkpt>
      <trkpt lat="42.3304060" lon="-7.2041240">
        <ele>410.2</ele>
        <time>2014-10-01T12:47:27Z</time>
      </trkpt>
      <trkpt lat="42.3303100" lon="-7.2041830">
        <ele>409.6</ele>
        <time>2014-10-01T12:47:28Z</time>
      </trkpt>
      <trkpt lat="42.3302050" lon="-7.2042410">
        <ele>408.9</ele>
        <time>2014-10-01T12:47:29Z</time>
      </trkpt>
      <trkpt lat="42.3301090" lon="-7.2042870">
        <ele>408.2</ele>
        <time>2014-10-01T12:47:30Z</time>
      </trkpt>
      <trkpt lat="42.3300100" lon="-7.2043270">
        <ele>407.6</ele>
        <time>2014-10-01T12:47:31Z</time>
      </trkpt>
      <trkpt lat="42.3299080" lon="-7.2043610">
        <ele>407.0</ele>
        <time>2014-10-01T12:47:32Z</time>
      </trkpt>
      <trkpt lat="42.3297980" lon="-7.2043940">
        <ele>406.4</ele>
        <time>2014-10-01T12:47:33Z</time>
      </trkpt>
      <trkpt lat="42.3296820" lon="-7.2044240">
        <ele>405.6</ele>
        <time>2014-10-01T12:47:34Z</time>
      </trkpt>
      <trkpt lat="42.3295700" lon="-7.2044480">
        <ele>404.9</ele>
        <time>2014-10-01T12:47:35Z</time>
      </trkpt>
      <trkpt lat="42.3294610" lon="-7.2044610">
        <ele>404.3</ele>
        <time>2014-10-01T12:47:36Z</time>
      </trkpt>
      <trkpt lat="42.3293540" lon="-7.2044640">
        <ele>403.6</ele>
        <time>2014-10-01T12:47:37Z</time>
      </trkpt>
      <trkpt lat="42.3292430" lon="-7.2044610">
        <ele>403.0</ele>
        <time>2014-10-01T12:47:38Z</time>
      </trkpt>
      <trkpt lat="42.3291380" lon="-7.2044500">
        <ele>402.4</ele>
        <time>2014-10-01T12:47:39Z</time>
      </trkpt>
      <trkpt lat="42.3290200" lon="-7.2044340">
        <ele>401.8</ele>
        <time>2014-10-01T12:47:40Z</time>
      </trkpt>
      <trkpt lat="42.3289120" lon="-7.2044170">
        <ele>401.3</ele>
        <time>2014-10-01T12:47:41Z</time>
      </trkpt>
      <trkpt lat="42.3288080" lon="-7.2044060">
        <ele>400.8</ele>
        <time>2014-10-01T12:47:42Z</time>
      </trkpt>
      <trkpt lat="42.3287000" lon="-7.2043970">
        <ele>400.2</ele>
        <time>2014-10-01T12:47:43Z</time>
      </trkpt>
      <trkpt lat="42.3285910" lon="-7.2043890">
        <ele>399.5</ele>
        <time>2014-10-01T12:47:44Z</time>
      </trkpt>
      <trkpt lat="42.3284810" lon="-7.2043780">
        <ele>398.8</ele>
        <time>2014-10-01T12:47:45Z</time>
      </trkpt>
      <trkpt lat="42.3283690" lon="-7.2043670">
        <ele>398.1</ele>
        <time>2014-10-01T12:47:46Z</time>
      </trkpt>
      <trkpt lat="42.3282580" lon="-7.2043630">
        <ele>397.3</ele>
        <time>2014-10-01T12:47:47Z</time>
      </trkpt>
      <trkpt lat="42.3281430" lon="-7.2043620">
        <ele>396.6</ele>
        <time>2014-10-01T12:47:48Z</time>
      </trkpt>
      <trkpt lat="42.3280310" lon="-7.2043620">
        <ele>395.9</ele>
        <time>2014-10-01T12:47:49Z</time>
      </trkpt>
      <trkpt lat="42.3279100" lon="-7.2043630">
        <ele>395.1</ele>
        <time>2014-10-01T12:47:50Z</time>
      </trkpt>
      <trkpt lat="42.3278020" lon="-7.2043620">
        <ele>394.5</ele>
        <time>2014-10-01T12:47:51Z</time>
      </trkpt>
      <trkpt lat="42.3276880" lon="-7.2043600">
        <ele>393.8</ele>
        <time>2014-10-01T12:47:52Z</time>
      </trkpt>
      <trkpt lat="42.3275760" lon="-7.2043590">
        <ele>393.1</ele>
        <time>2014-10-01T12:47:53Z</time>
      </trkpt>
      <trkpt lat="42.3274580" lon="-7.2043530">
        <ele>392.5</ele>
        <time>2014-10-01T12:47:54Z</time>
      </trkpt>
      <trkpt lat="42.3273450" lon="-7.2043560">
        <ele>391.9</ele>
        <time>2014-10-01T12:47:55Z</time>
      </trkpt>
      <trkpt lat="42.3272280" lon="-7.2043530">
        <ele>391.2</ele>
        <time>2014-10-01T12:47:56Z</time>
      </trkpt>
      <trkpt lat="42.3271100" lon="-7.2043580">
        <ele>390.5</ele>
        <time>2014-10-01T12:47:57Z</time>
      </trkpt>
      <trkpt lat="42.3269860" lon="-7.2043690">
        <ele>389.8</ele>
        <time>2014-10-01T12:47:58Z</time>
      </trkpt>
      <trkpt lat="42.3268580" lon="-7.2043950">
        <ele>389.0</ele>
        <time>2014-10-01T12:47:59Z</time>
      </trkpt>
      <trkpt lat="42.3267260" lon="-7.2045190">
        <ele>388.1</ele>
        <time>2014-10-01T12:48:00Z</time>
      </trkpt>
      <trkpt lat="42.3266280" lon="-7.2046760">
        <ele>387.3</ele>
        <time>2014-10-01T12:48:01Z</time>
      </trkpt>
      <trkpt lat="42.3265620" lon="-7.2048470">
        <ele>386.5</ele>
        <time>2014-10-01T12:48:02Z</time>
      </trkpt>
      <trkpt lat="42.3265250" lon="-7.2050320">
        <ele>385.8</ele>
        <time>2014-10-01T12:48:03Z</time>
      </trkpt>
      <trkpt lat="42.3265190" lon="-7.2052120">
        <ele>385.1</ele>
        <time>2014-10-01T12:48:04Z</time>
      </trkpt>
      <trkpt lat="42.3265160" lon="-7.2053940">
        <ele>384.3</ele>
        <time>2014-10-01T12:48:05Z</time>
      </trkpt>
      <trkpt lat="42.3265170" lon="-7.2055850">
        <ele>383.5</ele>
        <time>2014-10-01T12:48:06Z</time>
      </trkpt>
      <trkpt lat="42.3265210" lon="-7.2057660">
        <ele>382.7</ele>
        <time>2014-10-01T12:48:07Z</time>
      </trkpt>
      <trkpt lat="42.3265310" lon="-7.2059420">
        <ele>381.9</ele>
        <time>2014-10-01T12:48:08Z</time>
      </trkpt>
      <trkpt lat="42.3265440" lon="-7.2061130">
        <ele>381.1</ele>
        <time>2014-10-01T12:48:09Z</time>
      </trkpt>
      <trkpt lat="42.3265640" lon="-7.2062700">
        <ele>380.3</ele>
        <time>2014-10-01T12:48:10Z</time>
      </trkpt>
      <trkpt lat="42.3266170" lon="-7.2064310">
        <ele>379.6</ele>
        <time>2014-10-01T12:48:11Z</time>
      </trkpt>
      <trkpt lat="42.3266740" lon="-7.2065840">
        <ele>378.7</ele>
        <time>2014-10-01T12:48:12Z</time>
      </trkpt>
      <trkpt lat="42.3267360" lon="-7.2067360">
        <ele>377.8</ele>
        <time>2014-10-01T12:48:13Z</time>
      </trkpt>
      <trkpt lat="42.3268010" lon="-7.2068820">
        <ele>376.9</ele>
        <time>2014-10-01T12:48:14Z</time>
      </trkpt>
      <trkpt lat="42.3268700" lon="-7.2070340">
        <ele>376.0</ele>
        <time>2014-10-01T12:48:15Z</time>
      </trkpt>
      <trkpt lat="42.3269500" lon="-7.2071950">
        <ele>375.0</ele>
        <time>2014-10-01T12:48:16Z</time>
      </trkpt>
      <trkpt lat="42.3270210" lon="-7.2073420">
        <ele>374.2</ele>
        <time>2014-10-01T12:48:17Z</time>
      </trkpt>
      <trkpt lat="42.3270930" lon="-7.2074830">
        <ele>373.5</ele>
        <time>2014-10-01T12:48:18Z</time>
      </trkpt>
      <trkpt lat="42.3271670" lon="-7.2076280">
        <ele>372.8</ele>
        <time>2014-10-01T12:48:19Z</time>
      </trkpt>
      <trkpt lat="42.3272390" lon="-7.2077710">
        <ele>372.0</ele>
        <time>2014-10-01T12:48:20Z</time>
      </trkpt>
      <trkpt lat="42.3273110" lon="-7.2079100">
        <ele>371.3</ele>
        <time>2014-10-01T12:48:21Z</time>
      </trkpt>
      <trkpt lat="42.3273830" lon="-7.2080480">
        <ele>370.6</ele>
        <time>2014-10-01T12:48:22Z</time>
      </trkpt>
      <trkpt lat="42.3274560" lon="-7.2081820">
        <ele>370.1</ele>
        <time>2014-10-01T12:48:23Z</time>
      </trkpt>
      <trkpt lat="42.3275370" lon="-7.2083190">
        <ele>369.4</ele>
        <time>2014-10-01T12:48:24Z</time>
      </trkpt>
      <trkpt lat="42.3276370" lon="-7.2084200">
        <ele>368.7</ele>
        <time>2014-10-01T12:48:25Z</time>
      </trkpt>
      <trkpt lat="42.3277430" lon="-7.2085170">
        <ele>367.9</ele>
        <time>2014-10-01T12:48:26Z</time>
      </trkpt>
      <trkpt lat="42.3278590" lon="-7.2085720">
        <ele>367.1</ele>
        <time>2014-10-01T12:48:27Z</time>
      </trkpt>
      <trkpt lat="42.3279770" lon="-7.2086300">
        <ele>366.3</ele>
        <time>2014-10-01T12:48:28Z</time>
      </trkpt>
      <trkpt lat="42.3280930" lon="-7.2086780">
        <ele>365.6</ele>
        <time>2014-10-01T12:48:29Z</time>
      </trkpt>
      <trkpt lat="42.3282060" lon="-7.2087220">
        <ele>364.8</ele>
        <time>2014-10-01T12:48:30Z</time>
      </trkpt>
      <trkpt lat="42.3283230" lon="-7.2087650">
        <ele>364.2</ele>
        <time>2014-10-01T12:48:31Z</time>
      </trkpt>
      <trkpt lat="42.3284410" lon="-7.2088120">
        <ele>363.5</ele>
        <time>2014-10-01T12:48:32Z</time>
      </trkpt>
      <trkpt lat="42.3285580" lon="-7.2088640">
        <ele>362.9</ele>
        <time>2014-10-01T12:48:33Z</time>
      </trkpt>
      <trkpt lat="42.3286690" lon="-7.2089200">
        <ele>362.5</ele>
        <time>2014-10-01T12:48:34Z</time>
      </trkpt>
      <trkpt lat="42.3287760" lon="-7.2089840">
        <ele>361.9</ele>
        <time>2014-10-01T12:48:35Z</time>
      </trkpt>
      <trkpt lat="42.3288810" lon="-7.2090560">
        <ele>361.3</ele>
        <time>2014-10-01T12:48:36Z</time>
      </trkpt>
      <trkpt lat="42.3289850" lon="-7.2091340">
        <ele>360.5</ele>
        <time>2014-10-01T12:48:37Z</time>
      </trkpt>
      <trkpt lat="42.3290860" lon="-7.2092200">
        <ele>359.8</ele>
        <time>2014-10-01T12:48:38Z</time>
      </trkpt>
      <trkpt lat="42.3291680" lon="-7.2093360">
        <ele>359.1</ele>
        <time>2014-10-01T12:48:39Z</time>
      </trkpt>
      <trkpt lat="42.3292440" lon="-7.2094590">
        <ele>358.4</ele>
        <time>2014-10-01T12:48:40Z</time>
      </trkpt>
      <trkpt lat="42.3292870" lon="-7.2096020">
        <ele>357.9</ele>
        <time>2014-10-01T12:48:41Z</time>
      </trkpt>
      <trkpt lat="42.3293270" lon="-7.2097420">
        <ele>357.4</ele>
        <time>2014-10-01T12:48:42Z</time>
      </trkpt>
      <trkpt lat="42.3293680" lon="-7.2098850">
        <ele>356.8</ele>
        <time>2014-10-01T12:48:43Z</time>
      </trkpt>
      <trkpt lat="42.3294130" lon="-7.2100310">
        <ele>356.2</ele>
        <time>2014-10-01T12:48:44Z</time>
      </trkpt>
      <trkpt lat="42.3294650" lon="-7.2101790">
        <ele>355.6</ele>
        <time>2014-10-01T12:48:45Z</time>
      </trkpt>
      <trkpt lat="42.3295240" lon="-7.2103190">
        <ele>355.1</ele>
        <time>2014-10-01T12:48:46Z</time>
      </trkpt>
      <trkpt lat="42.3296020" lon="-7.2104330">
        <ele>354.4</ele>
        <time>2014-10-01T12:48:47Z</time>
      </trkpt>
      <trkpt lat="42.3296820" lon="-7.2105440">
        <ele>353.8</ele>
        <time>2014-10-01T12:48:48Z</time>
      </trkpt>
      <trkpt lat="42.3297610" lon="-7.2106530">
        <ele>353.1</ele>
        <time>2014-10-01T12:48:49Z</time>
      </trkpt>
      <trkpt lat="42.3298350" lon="-7.2107670">
        <ele>352.5</ele>
        <time>2014-10-01T12:48:50Z</time>
      </trkpt>
      <trkpt lat="42.3298850" lon="-7.2109030">
        <ele>351.9</ele>
        <time>2014-10-01T12:48:51Z</time>
      </trkpt>
      <trkpt lat="42.3299110" lon="-7.2110570">
        <ele>351.3</ele>
        <time>2014-10-01T12:48:52Z</time>
      </trkpt>
      <trkpt lat="42.3299300" lon="-7.2112140">
        <ele>350.6</ele>
        <time>2014-10-01T12:48:53Z</time>
      </trkpt>
      <trkpt lat="42.3299410" lon="-7.2113660">
        <ele>350.0</ele>
        <time>2014-10-01T12:48:54Z</time>
      </trkpt>
      <trkpt lat="42.3299450" lon="-7.2115150">
        <ele>349.3</ele>
        <time>2014-10-01T12:48:55Z</time>
      </trkpt>
      <trkpt lat="42.3299480" lon="-7.2116560">
        <ele>348.6</ele>
        <time>2014-10-01T12:48:56Z</time>
      </trkpt>
      <trkpt lat="42.3299550" lon="-7.2118070">
        <ele>347.8</ele>
        <time>2014-10-01T12:48:57Z</time>
      </trkpt>
      <trkpt lat="42.3299740" lon="-7.2119600">
        <ele>347.0</ele>
        <time>2014-10-01T12:48:58Z</time>
      </trkpt>
      <trkpt lat="42.3300270" lon="-7.2121020">
        <ele>346.2</ele>
        <time>2014-10-01T12:48:59Z</time>
      </trkpt>
      <trkpt lat="42.3300850" lon="-7.2122470">
        <ele>345.3</ele>
        <time>2014-10-01T12:49:00Z</time>
      </trkpt>
      <trkpt lat="42.3301500" lon="-7.2123850">
        <ele>344.4</ele>
        <time>2014-10-01T12:49:01Z</time>
      </trkpt>
      <trkpt lat="42.3302380" lon="-7.2125040">
        <ele>343.6</ele>
        <time>2014-10-01T12:49:02Z</time>
      </trkpt>
      <trkpt lat="42.3303270" lon="-7.2126090">
        <ele>342.7</ele>
        <time>2014-10-01T12:49:03Z</time>
      </trkpt>
      <trkpt lat="42.3304360" lon="-7.2126910">
        <ele>341.8</ele>
        <time>2014-10-01T12:49:04Z</time>
      </trkpt>
      <trkpt lat="42.3305480" lon="-7.2127630">
        <ele>340.8</ele>
        <time>2014-10-01T12:49:05Z</time>
      </trkpt>
      <trkpt lat="42.3306600" lon="-7.2128210">
        <ele>339.8</ele>
        <time>2014-10-01T12:49:06Z</time>
      </trkpt>
      <trkpt lat="42.3307850" lon="-7.2128690">
        <ele>338.6</ele>
        <time>2014-10-01T12:49:07Z</time>
      </trkpt>
      <trkpt lat="42.3309080" lon="-7.2129120">
        <ele>337.5</ele>
        <time>2014-10-01T12:49:08Z</time>
      </trkpt>
      <trkpt lat="42.3310310" lon="-7.2129520">
        <ele>336.4</ele>
        <time>2014-10-01T12:49:09Z</time>
      </trkpt>
      <trkpt lat="42.3311560" lon="-7.2129910">
        <ele>335.5</ele>
        <time>2014-10-01T12:49:10Z</time>
      </trkpt>
      <trkpt lat="42.3312830" lon="-7.2130320">
        <ele>334.5</ele>
        <time>2014-10-01T12:49:11Z</time>
      </trkpt>
      <trkpt lat="42.3314090" lon="-7.2130890">
        <ele>333.4</ele>
        <time>2014-10-01T12:49:12Z</time>
      </trkpt>
      <trkpt lat="42.3315340" lon="-7.2131550">
        <ele>332.4</ele>
        <time>2014-10-01T12:49:13Z</time>
      </trkpt>
      <trkpt lat="42.3316590" lon="-7.2132270">
        <ele>331.3</ele>
        <time>2014-10-01T12:49:14Z</time>
      </trkpt>
      <trkpt lat="42.3317910" lon="-7.2133040">
        <ele>330.2</ele>
        <time>2014-10-01T12:49:15Z</time>
      </trkpt>
      <trkpt lat="42.3319270" lon="-7.2133780">
        <ele>329.0</ele>
        <time>2014-10-01T12:49:16Z</time>
      </trkpt>
      <trkpt lat="42.3320670" lon="-7.2134370">
        <ele>327.9</ele>
        <time>2014-10-01T12:49:17Z</time>
      </trkpt>
      <trkpt lat="42.3322140" lon="-7.2134470">
        <ele>326.7</ele>
        <time>2014-10-01T12:49:18Z</time>
      </trkpt>
      <trkpt lat="42.3323610" lon="-7.2134550">
        <ele>325.6</ele>
        <time>2014-10-01T12:49:19Z</time>
      </trkpt>
      <trkpt lat="42.3325050" lon="-7.2134560">
        <ele>324.5</ele>
        <time>2014-10-01T12:49:20Z</time>
      </trkpt>
      <trkpt lat="42.3326490" lon="-7.2134570">
        <ele>323.4</ele>
        <time>2014-10-01T12:49:21Z</time>
      </trkpt>
      <trkpt lat="42.3327900" lon="-7.2134620">
        <ele>322.2</ele>
        <time>2014-10-01T12:49:22Z</time>
      </trkpt>
      <trkpt lat="42.3329300" lon="-7.2134750">
        <ele>321.1</ele>
        <time>2014-10-01T12:49:23Z</time>
      </trkpt>
      <trkpt lat="42.3330670" lon="-7.2134970">
        <ele>320.0</ele>
        <time>2014-10-01T12:49:24Z</time>
      </trkpt>
      <trkpt lat="42.3332020" lon="-7.2135230">
        <ele>318.9</ele>
        <time>2014-10-01T12:49:25Z</time>
      </trkpt>
      <trkpt lat="42.3333360" lon="-7.2135580">
        <ele>317.6</ele>
        <time>2014-10-01T12:49:26Z</time>
      </trkpt>
      <trkpt lat="42.3334690" lon="-7.2135930">
        <ele>316.2</ele>
        <time>2014-10-01T12:49:27Z</time>
      </trkpt>
      <trkpt lat="42.3335940" lon="-7.2136300">
        <ele>314.8</ele>
        <time>2014-10-01T12:49:28Z</time>
      </trkpt>
      <trkpt lat="42.3337040" lon="-7.2137060">
        <ele>313.3</ele>
        <time>2014-10-01T12:49:29Z</time>
      </trkpt>
      <trkpt lat="42.3337960" lon="-7.2138200">
        <ele>311.6</ele>
        <time>2014-10-01T12:49:30Z</time>
      </trkpt>
      <trkpt lat="42.3338560" lon="-7.2139620">
        <ele>310.3</ele>
        <time>2014-10-01T12:49:31Z</time>
      </trkpt>
      <trkpt lat="42.3338760" lon="-7.2141310">
        <ele>309.6</ele>
        <time>2014-10-01T12:49:32Z</time>
      </trkpt>
      <trkpt lat="42.3338610" lon="-7.2143040">
        <ele>309.7</ele>
        <time>2014-10-01T12:49:33Z</time>
      </trkpt>
      <trkpt lat="42.3338410" lon="-7.2144700">
        <ele>309.9</ele>
        <time>2014-10-01T12:49:34Z</time>
      </trkpt>
      <trkpt lat="42.3338140" lon="-7.2146150">
        <ele>310.3</ele>
        <time>2014-10-01T12:49:35Z</time>
      </trkpt>
      <trkpt lat="42.3337780" lon="-7.2147430">
        <ele>310.9</ele>
        <time>2014-10-01T12:49:36Z</time>
      </trkpt>
      <trkpt lat="42.3337150" lon="-7.2148390">
        <ele>311.5</ele>
        <time>2014-10-01T12:49:37Z</time>
      </trkpt>
      <trkpt lat="42.3336320" lon="-7.2149080">
        <ele>311.5</ele>
        <time>2014-10-01T12:49:38Z</time>
      </trkpt>
      <trkpt lat="42.3335420" lon="-7.2149390">
        <ele>311.7</ele>
        <time>2014-10-01T12:49:39Z</time>
      </trkpt>
      <trkpt lat="42.3334530" lon="-7.2149430">
        <ele>311.9</ele>
        <time>2014-10-01T12:49:40Z</time>
      </trkpt>
      <trkpt lat="42.3333640" lon="-7.2149380">
        <ele>312.2</ele>
        <time>2014-10-01T12:49:41Z</time>
      </trkpt>
      <trkpt lat="42.3332780" lon="-7.2149220">
        <ele>312.5</ele>
        <time>2014-10-01T12:49:42Z</time>
      </trkpt>
      <trkpt lat="42.3331960" lon="-7.2148810">
        <ele>312.8</ele>
        <time>2014-10-01T12:49:43Z</time>
      </trkpt>
      <trkpt lat="42.3331170" lon="-7.2148410">
        <ele>313.1</ele>
        <time>2014-10-01T12:49:44Z</time>
      </trkpt>
      <trkpt lat="42.3330430" lon="-7.2148060">
        <ele>313.4</ele>
        <time>2014-10-01T12:49:45Z</time>
      </trkpt>
      <trkpt lat="42.3329720" lon="-7.2147790">
        <ele>313.8</ele>
        <time>2014-10-01T12:49:46Z</time>
      </trkpt>
      <trkpt lat="42.3329050" lon="-7.2147580">
        <ele>314.1</ele>
        <time>2014-10-01T12:49:47Z</time>
      </trkpt>
      <trkpt lat="42.3328400" lon="-7.2147420">
        <ele>314.4</ele>
        <time>2014-10-01T12:49:48Z</time>
      </trkpt>
      <trkpt lat="42.3327790" lon="-7.2147290">
        <ele>314.8</ele>
        <time>2014-10-01T12:49:49Z</time>
      </trkpt>
      <trkpt lat="42.3327210" lon="-7.2147170">
        <ele>315.1</ele>
        <time>2014-10-01T12:49:50Z</time>
      </trkpt>
      <trkpt lat="42.3326690" lon="-7.2147120">
        <ele>315.4</ele>
        <time>2014-10-01T12:49:51Z</time>
      </trkpt>
      <trkpt lat="42.3326210" lon="-7.2147090">
        <ele>315.6</ele>
        <time>2014-10-01T12:49:52Z</time>
      </trkpt>
      <trkpt lat="42.3325720" lon="-7.2147060">
        <ele>315.9</ele>
        <time>2014-10-01T12:49:53Z</time>
      </trkpt>
      <trkpt lat="42.3325290" lon="-7.2147030">
        <ele>316.1</ele>
        <time>2014-10-01T12:49:54Z</time>
      </trkpt>
      <trkpt lat="42.3324860" lon="-7.2147020">
        <ele>316.3</ele>
        <time>2014-10-01T12:49:55Z</time>
      </trkpt>
      <trkpt lat="42.3324400" lon="-7.2147020">
        <ele>316.6</ele>
        <time>2014-10-01T12:49:56Z</time>
      </trkpt>
      <trkpt lat="42.3323940" lon="-7.2147040">
        <ele>316.8</ele>
        <time>2014-10-01T12:49:57Z</time>
      </trkpt>
      <trkpt lat="42.3323500" lon="-7.2147100">
        <ele>317.0</ele>
        <time>2014-10-01T12:49:58Z</time>
      </trkpt>
      <trkpt lat="42.3323120" lon="-7.2147150">
        <ele>317.2</ele>
        <time>2014-10-01T12:49:59Z</time>
      </trkpt>
      <trkpt lat="42.3322710" lon="-7.2147200">
        <ele>317.4</ele>
        <time>2014-10-01T12:50:00Z</time>
      </trkpt>
      <trkpt lat="42.3322270" lon="-7.2147260">
        <ele>317.7</ele>
        <time>2014-10-01T12:50:01Z</time>
      </trkpt>
      <trkpt lat="42.3321830" lon="-7.2147320">
        <ele>317.9</ele>
        <time>2014-10-01T12:50:02Z</time>
      </trkpt>
      <trkpt lat="42.3321410" lon="-7.2147370">
        <ele>318.2</ele>
        <time>2014-10-01T12:50:03Z</time>
      </trkpt>
      <trkpt lat="42.3321020" lon="-7.2147430">
        <ele>318.4</ele>
        <time>2014-10-01T12:50:04Z</time>
      </trkpt>
      <trkpt lat="42.3320610" lon="-7.2147480">
        <ele>318.6</ele>
        <time>2014-10-01T12:50:05Z</time>
      </trkpt>
      <trkpt lat="42.3320210" lon="-7.2147540">
        <ele>318.8</ele>
        <time>2014-10-01T12:50:06Z</time>
      </trkpt>
      <trkpt lat="42.3319850" lon="-7.2147600">
        <ele>319.0</ele>
        <time>2014-10-01T12:50:07Z</time>
      </trkpt>
      <trkpt lat="42.3319490" lon="-7.2147660">
        <ele>319.2</ele>
        <time>2014-10-01T12:50:08Z</time>
      </trkpt>
      <trkpt lat="42.3319110" lon="-7.2147740">
        <ele>319.4</ele>
        <time>2014-10-01T12:50:09Z</time>
      </trkpt>
      <trkpt lat="42.3318720" lon="-7.2147820">
        <ele>319.6</ele>
        <time>2014-10-01T12:50:10Z</time>
      </trkpt>
      <trkpt lat="42.3318330" lon="-7.2147900">
        <ele>319.8</ele>
        <time>2014-10-01T12:50:11Z</time>
      </trkpt>
      <trkpt lat="42.3317930" lon="-7.2147960">
        <ele>320.0</ele>
        <time>2014-10-01T12:50:12Z</time>
      </trkpt>
      <trkpt lat="42.3317540" lon="-7.2148010">
        <ele>320.2</ele>
        <time>2014-10-01T12:50:13Z</time>
      </trkpt>
      <trkpt lat="42.3317150" lon="-7.2148030">
        <ele>320.4</ele>
        <time>2014-10-01T12:50:14Z</time>
      </trkpt>
      <trkpt lat="42.3316790" lon="-7.2148050">
        <ele>320.5</ele>
        <time>2014-10-01T12:50:15Z</time>
      </trkpt>
      <trkpt lat="42.3316430" lon="-7.2148040">
        <ele>320.7</ele>
        <time>2014-10-01T12:50:16Z</time>
      </trkpt>
      <trkpt lat="42.3316060" lon="-7.2148040">
        <ele>320.9</ele>
        <time>2014-10-01T12:50:17Z</time>
      </trkpt>
      <trkpt lat="42.3315690" lon="-7.2148010">
        <ele>321.1</ele>
        <time>2014-10-01T12:50:18Z</time>
      </trkpt>
      <trkpt lat="42.3315300" lon="-7.2147980">
        <ele>321.2</ele>
        <time>2014-10-01T12:50:19Z</time>
      </trkpt>
      <trkpt lat="42.3314830" lon="-7.2147930">
        <ele>321.5</ele>
        <time>2014-10-01T12:50:20Z</time>
      </trkpt>
      <trkpt lat="42.3314400" lon="-7.2147880">
        <ele>321.7</ele>
        <time>2014-10-01T12:50:21Z</time>
      </trkpt>
      <trkpt lat="42.3313960" lon="-7.2147840">
        <ele>321.9</ele>
        <time>2014-10-01T12:50:22Z</time>
      </trkpt>
      <trkpt lat="42.3313560" lon="-7.2147800">
        <ele>322.1</ele>
        <time>2014-10-01T12:50:23Z</time>
      </trkpt>
      <trkpt lat="42.3313150" lon="-7.2147780">
        <ele>322.3</ele>
        <time>2014-10-01T12:50:24Z</time>
      </trkpt>
      <trkpt lat="42.3312820" lon="-7.2147760">
        <ele>322.5</ele>
        <time>2014-10-01T12:50:25Z</time>
      </trkpt>
      <trkpt lat="42.3312450" lon="-7.2147730">
        <ele>322.7</ele>
        <time>2014-10-01T12:50:26Z</time>
      </trkpt>
      <trkpt lat="42.3312050" lon="-7.2147670">
        <ele>322.9</ele>
        <time>2014-10-01T12:50:27Z</time>
      </trkpt>
      <trkpt lat="42.3311600" lon="-7.2147600">
        <ele>323.2</ele>
        <time>2014-10-01T12:50:28Z</time>
      </trkpt>
      <trkpt lat="42.3311250" lon="-7.2147550">
        <ele>323.4</ele>
        <time>2014-10-01T12:50:29Z</time>
      </trkpt>
      <trkpt lat="42.3310920" lon="-7.2147520">
        <ele>323.6</ele>
        <time>2014-10-01T12:50:30Z</time>
      </trkpt>
      <trkpt lat="42.3310580" lon="-7.2147470">
        <ele>323.8</ele>
        <time>2014-10-01T12:50:31Z</time>
      </trkpt>
      <trkpt lat="42.3310230" lon="-7.2147400">
        <ele>324.0</ele>
        <time>2014-10-01T12:50:32Z</time>
      </trkpt>
      <trkpt lat="42.3309870" lon="-7.2147330">
        <ele>324.2</ele>
        <time>2014-10-01T12:50:33Z</time>
      </trkpt>
      <trkpt lat="42.3309510" lon="-7.2147280">
        <ele>324.4</ele>
        <time>2014-10-01T12:50:34Z</time>
      </trkpt>
      <trkpt lat="42.3309070" lon="-7.2147230">
        <ele>324.7</ele>
        <time>2014-10-01T12:50:35Z</time>
      </trkpt>
      <trkpt lat="42.3308670" lon="-7.2147190">
        <ele>324.9</ele>
        <time>2014-10-01T12:50:36Z</time>
      </trkpt>
      <trkpt lat="42.3308200" lon="-7.2147130">
        <ele>325.2</ele>
        <time>2014-10-01T12:50:37Z</time>
      </trkpt>
      <trkpt lat="42.3307860" lon="-7.2147100">
        <ele>325.4</ele>
        <time>2014-10-01T12:50:38Z</time>
      </trkpt>
      <trkpt lat="42.3307490" lon="-7.2147070">
        <ele>325.7</ele>
        <time>2014-10-01T12:50:39Z</time>
      </trkpt>
      <trkpt lat="42.3307080" lon="-7.2147030">
        <ele>326.0</ele>
        <time>2014-10-01T12:50:40Z</time>
      </trkpt>
      <trkpt lat="42.3306670" lon="-7.2146990">
        <ele>326.2</ele>
        <time>2014-10-01T12:50:41Z</time>
      </trkpt>
      <trkpt lat="42.3306270" lon="-7.2146930">
        <ele>326.5</ele>
        <time>2014-10-01T12:50:42Z</time>
      </trkpt>
      <trkpt lat="42.3305960" lon="-7.2146910">
        <ele>326.7</ele>
        <time>2014-10-01T12:50:43Z</time>
      </trkpt>
      <trkpt lat="42.3305430" lon="-7.2146890">
        <ele>327.0</ele>
        <time>2014-10-01T12:50:45Z</time>
      </trkpt>
      <trkpt lat="42.3305120" lon="-7.2146880">
        <ele>327.2</ele>
        <time>2014-10-01T12:50:46Z</time>
      </trkpt>
      <trkpt lat="42.3304780" lon="-7.2146860">
        <ele>327.5</ele>
        <time>2014-10-01T12:50:47Z</time>
      </trkpt>
      <trkpt lat="42.3304410" lon="-7.2146840">
        <ele>327.7</ele>
        <time>2014-10-01T12:50:48Z</time>
      </trkpt>
      <trkpt lat="42.3304010" lon="-7.2146790">
        <ele>328.0</ele>
        <time>2014-10-01T12:50:49Z</time>
      </trkpt>
      <trkpt lat="42.3303640" lon="-7.2146720">
        <ele>328.3</ele>
        <time>2014-10-01T12:50:50Z</time>
      </trkpt>
      <trkpt lat="42.3303320" lon="-7.2146550">
        <ele>328.5</ele>
        <time>2014-10-01T12:50:51Z</time>
      </trkpt>
      <trkpt lat="42.3303000" lon="-7.2146370">
        <ele>328.7</ele>
        <time>2014-10-01T12:50:52Z</time>
      </trkpt>
      <trkpt lat="42.3302690" lon="-7.2146170">
        <ele>328.9</ele>
        <time>2014-10-01T12:50:53Z</time>
      </trkpt>
      <trkpt lat="42.3302340" lon="-7.2145890">
        <ele>329.2</ele>
        <time>2014-10-01T12:50:54Z</time>
      </trkpt>
      <trkpt lat="42.3302020" lon="-7.2145610">
        <ele>329.4</ele>
        <time>2014-10-01T12:50:55Z</time>
      </trkpt>
      <trkpt lat="42.3301690" lon="-7.2145320">
        <ele>329.6</ele>
        <time>2014-10-01T12:50:56Z</time>
      </trkpt>
      <trkpt lat="42.3301380" lon="-7.2145060">
        <ele>329.8</ele>
        <time>2014-10-01T12:50:57Z</time>
      </trkpt>
      <trkpt lat="42.3301040" lon="-7.2144760">
        <ele>330.0</ele>
        <time>2014-10-01T12:50:58Z</time>
      </trkpt>
      <trkpt lat="42.3300670" lon="-7.2144440">
        <ele>330.2</ele>
        <time>2014-10-01T12:50:59Z</time>
      </trkpt>
      <trkpt lat="42.3300330" lon="-7.2144130">
        <ele>330.4</ele>
        <time>2014-10-01T12:51:00Z</time>
      </trkpt>
      <trkpt lat="42.3299980" lon="-7.2143830">
        <ele>330.6</ele>
        <time>2014-10-01T12:51:01Z</time>
      </trkpt>
      <trkpt lat="42.3299660" lon="-7.2143560">
        <ele>330.8</ele>
        <time>2014-10-01T12:51:02Z</time>
      </trkpt>
      <trkpt lat="42.3299330" lon="-7.2143310">
        <ele>331.0</ele>
        <time>2014-10-01T12:51:03Z</time>
      </trkpt>
      <trkpt lat="42.3299000" lon="-7.2143100">
        <ele>331.1</ele>
        <time>2014-10-01T12:51:04Z</time>
      </trkpt>
      <trkpt lat="42.3298620" lon="-7.2142870">
        <ele>331.3</ele>
        <time>2014-10-01T12:51:05Z</time>
      </trkpt>
      <trkpt lat="42.3298260" lon="-7.2142670">
        <ele>331.5</ele>
        <time>2014-10-01T12:51:06Z</time>
      </trkpt>
      <trkpt lat="42.3297970" lon="-7.2142530">
        <ele>331.7</ele>
        <time>2014-10-01T12:51:07Z</time>
      </trkpt>
      <trkpt lat="42.3297590" lon="-7.2142340">
        <ele>331.9</ele>
        <time>2014-10-01T12:51:08Z</time>
      </trkpt>
      <trkpt lat="42.3297180" lon="-7.2142140">
        <ele>332.1</ele>
        <time>2014-10-01T12:51:09Z</time>
      </trkpt>
      <trkpt lat="42.3296820" lon="-7.2141950">
        <ele>332.3</ele>
        <time>2014-10-01T12:51:10Z</time>
      </trkpt>
      <trkpt lat="42.3296450" lon="-7.2141760">
        <ele>332.5</ele>
        <time>2014-10-01T12:51:11Z</time>
      </trkpt>
      <trkpt lat="42.3296130" lon="-7.2141580">
        <ele>332.7</ele>
        <time>2014-10-01T12:51:12Z</time>
      </trkpt>
      <trkpt lat="42.3295830" lon="-7.2141410">
        <ele>332.9</ele>
        <time>2014-10-01T12:51:13Z</time>
      </trkpt>
      <trkpt lat="42.3295500" lon="-7.2141210">
        <ele>333.1</ele>
        <time>2014-10-01T12:51:14Z</time>
      </trkpt>
      <trkpt lat="42.3295150" lon="-7.2141020">
        <ele>333.3</ele>
        <time>2014-10-01T12:51:15Z</time>
      </trkpt>
      <trkpt lat="42.3294810" lon="-7.2140860">
        <ele>333.5</ele>
        <time>2014-10-01T12:51:16Z</time>
      </trkpt>
      <trkpt lat="42.3294440" lon="-7.2140720">
        <ele>333.7</ele>
        <time>2014-10-01T12:51:17Z</time>
      </trkpt>
      <trkpt lat="42.3294090" lon="-7.2140590">
        <ele>333.9</ele>
        <time>2014-10-01T12:51:18Z</time>
      </trkpt>
      <trkpt lat="42.3293710" lon="-7.2140450">
        <ele>334.1</ele>
        <time>2014-10-01T12:51:19Z</time>
      </trkpt>
      <trkpt lat="42.3293370" lon="-7.2140330">
        <ele>334.3</ele>
        <time>2014-10-01T12:51:20Z</time>
      </trkpt>
      <trkpt lat="42.3292990" lon="-7.2140250">
        <ele>334.6</ele>
        <time>2014-10-01T12:51:21Z</time>
      </trkpt>
      <trkpt lat="42.3292600" lon="-7.2140160">
        <ele>334.8</ele>
        <time>2014-10-01T12:51:22Z</time>
      </trkpt>
      <trkpt lat="42.3292250" lon="-7.2140110">
        <ele>335.0</ele>
        <time>2014-10-01T12:51:23Z</time>
      </trkpt>
      <trkpt lat="42.3291910" lon="-7.2140060">
        <ele>335.2</ele>
        <time>2014-10-01T12:51:24Z</time>
      </trkpt>
      <trkpt lat="42.3291560" lon="-7.2139990">
        <ele>335.4</ele>
        <time>2014-10-01T12:51:25Z</time>
      </trkpt>
      <trkpt lat="42.3291220" lon="-7.2139920">
        <ele>335.6</ele>
        <time>2014-10-01T12:51:26Z</time>
      </trkpt>
      <trkpt lat="42.3290830" lon="-7.2139840">
        <ele>335.8</ele>
        <time>2014-10-01T12:51:27Z</time>
      </trkpt>
      <trkpt lat="42.3290430" lon="-7.2139780">
        <ele>336.0</ele>
        <time>2014-10-01T12:51:28Z</time>
      </trkpt>
      <trkpt lat="42.3290100" lon="-7.2139760">
        <ele>336.2</ele>
        <time>2014-10-01T12:51:29Z</time>
      </trkpt>
      <trkpt lat="42.3289780" lon="-7.2139730">
        <ele>336.4</ele>
        <time>2014-10-01T12:51:30Z</time>
      </trkpt>
      <trkpt lat="42.3289480" lon="-7.2139710">
        <ele>336.6</ele>
        <time>2014-10-01T12:51:31Z</time>
      </trkpt>
      <trkpt lat="42.3289110" lon="-7.2139680">
        <ele>336.8</ele>
        <time>2014-10-01T12:51:32Z</time>
      </trkpt>
      <trkpt lat="42.3288710" lon="-7.2139680">
        <ele>337.1</ele>
        <time>2014-10-01T12:51:33Z</time>
      </trkpt>
      <trkpt lat="42.3288340" lon="-7.2139860">
        <ele>337.3</ele>
        <time>2014-10-01T12:51:34Z</time>
      </trkpt>
      <trkpt lat="42.3287960" lon="-7.2140010">
        <ele>337.5</ele>
        <time>2014-10-01T12:51:35Z</time>
      </trkpt>
      <trkpt lat="42.3287560" lon="-7.2140030">
        <ele>337.8</ele>
        <time>2014-10-01T12:51:36Z</time>
      </trkpt>
      <trkpt lat="42.3287180" lon="-7.2139990">
        <ele>338.0</ele>
        <time>2014-10-01T12:51:37Z</time>
      </trkpt>
      <trkpt lat="42.3286820" lon="-7.2139850">
        <ele>338.1</ele>
        <time>2014-10-01T12:51:38Z</time>
      </trkpt>
      <trkpt lat="42.3286430" lon="-7.2139720">
        <ele>338.3</ele>
        <time>2014-10-01T12:51:39Z</time>
      </trkpt>
      <trkpt lat="42.3286090" lon="-7.2139450">
        <ele>338.5</ele>
        <time>2014-10-01T12:51:40Z</time>
      </trkpt>
      <trkpt lat="42.3285760" lon="-7.2139090">
        <ele>338.6</ele>
        <time>2014-10-01T12:51:41Z</time>
      </trkpt>
      <trkpt lat="42.3285510" lon="-7.2138630">
        <ele>338.7</ele>
        <time>2014-10-01T12:51:42Z</time>
      </trkpt>
      <trkpt lat="42.3285260" lon="-7.2138120">
        <ele>338.9</ele>
        <time>2014-10-01T12:51:43Z</time>
      </trkpt>
      <trkpt lat="42.3285000" lon="-7.2137600">
        <ele>339.1</ele>
        <time>2014-10-01T12:51:44Z</time>
      </trkpt>
      <trkpt lat="42.3284740" lon="-7.2137040">
        <ele>339.2</ele>
        <time>2014-10-01T12:51:45Z</time>
      </trkpt>
      <trkpt lat="42.3284510" lon="-7.2136490">
        <ele>339.4</ele>
        <time>2014-10-01T12:51:46Z</time>
      </trkpt>
      <trkpt lat="42.3284290" lon="-7.2135960">
        <ele>339.6</ele>
        <time>2014-10-01T12:51:47Z</time>
      </trkpt>
      <trkpt lat="42.3284030" lon="-7.2135430">
        <ele>339.7</ele>
        <time>2014-10-01T12:51:48Z</time>
      </trkpt>
      <trkpt lat="42.3283710" lon="-7.2134980">
        <ele>339.9</ele>
        <time>2014-10-01T12:51:49Z</time>
      </trkpt>
      <trkpt lat="42.3283360" lon="-7.2134510">
        <ele>340.1</ele>
        <time>2014-10-01T12:51:50Z</time>
      </trkpt>
      <trkpt lat="42.3283020" lon="-7.2134090">
        <ele>340.3</ele>
        <time>2014-10-01T12:51:51Z</time>
      </trkpt>
      <trkpt lat="42.3282670" lon="-7.2133680">
        <ele>340.5</ele>
        <time>2014-10-01T12:51:52Z</time>
      </trkpt>
      <trkpt lat="42.3282350" lon="-7.2133290">
        <ele>340.7</ele>
        <time>2014-10-01T12:51:53Z</time>
      </trkpt>
      <trkpt lat="42.3282010" lon="-7.2132920">
        <ele>341.0</ele>
        <time>2014-10-01T12:51:54Z</time>
      </trkpt>
      <trkpt lat="42.3281670" lon="-7.2132550">
        <ele>341.2</ele>
        <time>2014-10-01T12:51:55Z</time>
      </trkpt>
      <trkpt lat="42.3281310" lon="-7.2132180">
        <ele>341.4</ele>
        <time>2014-10-01T12:51:56Z</time>
      </trkpt>
      <trkpt lat="42.3280960" lon="-7.2131850">
        <ele>341.7</ele>
        <time>2014-10-01T12:51:57Z</time>
      </trkpt>
      <trkpt lat="42.3280620" lon="-7.2131540">
        <ele>341.9</ele>
        <time>2014-10-01T12:51:58Z</time>
      </trkpt>
      <trkpt lat="42.3280280" lon="-7.2131260">
        <ele>342.1</ele>
        <time>2014-10-01T12:51:59Z</time>
      </trkpt>
      <trkpt lat="42.3279930" lon="-7.2130960">
        <ele>342.3</ele>
        <time>2014-10-01T12:52:00Z</time>
      </trkpt>
      <trkpt lat="42.3279550" lon="-7.2130640">
        <ele>342.6</ele>
        <time>2014-10-01T12:52:01Z</time>
      </trkpt>
      <trkpt lat="42.3279150" lon="-7.2130320">
        <ele>342.8</ele>
        <time>2014-10-01T12:52:02Z</time>
      </trkpt>
      <trkpt lat="42.3278770" lon="-7.2130000">
        <ele>343.1</ele>
        <time>2014-10-01T12:52:03Z</time>
      </trkpt>
      <trkpt lat="42.3278400" lon="-7.2129680">
        <ele>343.3</ele>
        <time>2014-10-01T12:52:04Z</time>
      </trkpt>
      <trkpt lat="42.3278030" lon="-7.2129360">
        <ele>343.6</ele>
        <time>2014-10-01T12:52:05Z</time>
      </trkpt>
      <trkpt lat="42.3277660" lon="-7.2129050">
        <ele>343.9</ele>
        <time>2014-10-01T12:52:06Z</time>
      </trkpt>
      <trkpt lat="42.3277280" lon="-7.2128750">
        <ele>344.2</ele>
        <time>2014-10-01T12:52:07Z</time>
      </trkpt>
      <trkpt lat="42.3276880" lon="-7.2128460">
        <ele>344.4</ele>
        <time>2014-10-01T12:52:08Z</time>
      </trkpt>
      <trkpt lat="42.3276510" lon="-7.2128220">
        <ele>344.7</ele>
        <time>2014-10-01T12:52:09Z</time>
      </trkpt>
      <trkpt lat="42.3276120" lon="-7.2128010">
        <ele>344.9</ele>
        <time>2014-10-01T12:52:10Z</time>
      </trkpt>
      <trkpt lat="42.3275690" lon="-7.2127910">
        <ele>345.1</ele>
        <time>2014-10-01T12:52:11Z</time>
      </trkpt>
      <trkpt lat="42.3275330" lon="-7.2127830">
        <ele>345.3</ele>
        <time>2014-10-01T12:52:12Z</time>
      </trkpt>
      <trkpt lat="42.3274940" lon="-7.2127740">
        <ele>345.5</ele>
        <time>2014-10-01T12:52:13Z</time>
      </trkpt>
      <trkpt lat="42.3274520" lon="-7.2127670">
        <ele>345.7</ele>
        <time>2014-10-01T12:52:14Z</time>
      </trkpt>
      <trkpt lat="42.3274120" lon="-7.2127630">
        <ele>345.9</ele>
        <time>2014-10-01T12:52:15Z</time>
      </trkpt>
      <trkpt lat="42.3273730" lon="-7.2127630">
        <ele>346.1</ele>
        <time>2014-10-01T12:52:16Z</time>
      </trkpt>
      <trkpt lat="42.3273340" lon="-7.2127650">
        <ele>346.4</ele>
        <time>2014-10-01T12:52:17Z</time>
      </trkpt>
      <trkpt lat="42.3272950" lon="-7.2127660">
        <ele>346.5</ele>
        <time>2014-10-01T12:52:18Z</time>
      </trkpt>
      <trkpt lat="42.3272600" lon="-7.2127690">
        <ele>346.4</ele>
        <time>2014-10-01T12:52:19Z</time>
      </trkpt>
      <trkpt lat="42.3272290" lon="-7.2127700">
        <ele>346.4</ele>
        <time>2014-10-01T12:52:20Z</time>
      </trkpt>
      <trkpt lat="42.3271910" lon="-7.2127730">
        <ele>346.4</ele>
        <time>2014-10-01T12:52:21Z</time>
      </trkpt>
      <trkpt lat="42.3271530" lon="-7.2127740">
        <ele>346.4</ele>
        <time>2014-10-01T12:52:22Z</time>
      </trkpt>
      <trkpt lat="42.3271180" lon="-7.2127740">
        <ele>346.5</ele>
        <time>2014-10-01T12:52:23Z</time>
      </trkpt>
      <trkpt lat="42.3270830" lon="-7.2127740">
        <ele>346.5</ele>
        <time>2014-10-01T12:52:24Z</time>
      </trkpt>
      <trkpt lat="42.3270470" lon="-7.2127730">
        <ele>346.6</ele>
        <time>2014-10-01T12:52:25Z</time>
      </trkpt>
      <trkpt lat="42.3270140" lon="-7.2127740">
        <ele>346.7</ele>
        <time>2014-10-01T12:52:26Z</time>
      </trkpt>
      <trkpt lat="42.3269770" lon="-7.2127710">
        <ele>346.8</ele>
        <time>2014-10-01T12:52:27Z</time>
      </trkpt>
      <trkpt lat="42.3269410" lon="-7.2127650">
        <ele>347.0</ele>
        <time>2014-10-01T12:52:28Z</time>
      </trkpt>
      <trkpt lat="42.3269060" lon="-7.2127530">
        <ele>347.1</ele>
        <time>2014-10-01T12:52:29Z</time>
      </trkpt>
      <trkpt lat="42.3268740" lon="-7.2127260">
        <ele>347.3</ele>
        <time>2014-10-01T12:52:30Z</time>
      </trkpt>
      <trkpt lat="42.3268400" lon="-7.2126950">
        <ele>347.5</ele>
        <time>2014-10-01T12:52:31Z</time>
      </trkpt>
      <trkpt lat="42.3268080" lon="-7.2126600">
        <ele>347.8</ele>
        <time>2014-10-01T12:52:32Z</time>
      </trkpt>
      <trkpt lat="42.3267700" lon="-7.2126190">
        <ele>348.0</ele>
        <time>2014-10-01T12:52:33Z</time>
      </trkpt>
      <trkpt lat="42.3267340" lon="-7.2125780">
        <ele>348.3</ele>
        <time>2014-10-01T12:52:34Z</time>
      </trkpt>
      <trkpt lat="42.3267020" lon="-7.2125420">
        <ele>348.5</ele>
        <time>2014-10-01T12:52:35Z</time>
      </trkpt>
      <trkpt lat="42.3266720" lon="-7.2125130">
        <ele>348.7</ele>
        <time>2014-10-01T12:52:36Z</time>
      </trkpt>
      <trkpt lat="42.3266410" lon="-7.2124860">
        <ele>348.9</ele>
        <time>2014-10-01T12:52:37Z</time>
      </trkpt>
      <trkpt lat="42.3266110" lon="-7.2124620">
        <ele>349.1</ele>
        <time>2014-10-01T12:52:38Z</time>
      </trkpt>
      <trkpt lat="42.3265830" lon="-7.2124450">
        <ele>349.3</ele>
        <time>2014-10-01T12:52:39Z</time>
      </trkpt>
      <trkpt lat="42.3265530" lon="-7.2124260">
        <ele>349.5</ele>
        <time>2014-10-01T12:52:40Z</time>
      </trkpt>
      <trkpt lat="42.3265200" lon="-7.2124050">
        <ele>349.7</ele>
        <time>2014-10-01T12:52:41Z</time>
      </trkpt>
      <trkpt lat="42.3264880" lon="-7.2123870">
        <ele>349.9</ele>
        <time>2014-10-01T12:52:42Z</time>
      </trkpt>
      <trkpt lat="42.3264510" lon="-7.2123600">
        <ele>350.2</ele>
        <time>2014-10-01T12:52:43Z</time>
      </trkpt>
      <trkpt lat="42.3264110" lon="-7.2123310">
        <ele>350.5</ele>
        <time>2014-10-01T12:52:44Z</time>
      </trkpt>
      <trkpt lat="42.3263740" lon="-7.2123030">
        <ele>350.8</ele>
        <time>2014-10-01T12:52:45Z</time>
      </trkpt>
      <trkpt lat="42.3263400" lon="-7.2122780">
        <ele>351.0</ele>
        <time>2014-10-01T12:52:46Z</time>
      </trkpt>
      <trkpt lat="42.3263100" lon="-7.2122580">
        <ele>351.2</ele>
        <time>2014-10-01T12:52:47Z</time>
      </trkpt>
      <trkpt lat="42.3262780" lon="-7.2122380">
        <ele>351.5</ele>
        <time>2014-10-01T12:52:48Z</time>
      </trkpt>
      <trkpt lat="42.3262470" lon="-7.2122190">
        <ele>351.7</ele>
        <time>2014-10-01T12:52:49Z</time>
      </trkpt>
      <trkpt lat="42.3262180" lon="-7.2122030">
        <ele>351.9</ele>
        <time>2014-10-01T12:52:50Z</time>
      </trkpt>
      <trkpt lat="42.3261900" lon="-7.2121880">
        <ele>352.1</ele>
        <time>2014-10-01T12:52:51Z</time>
      </trkpt>
      <trkpt lat="42.3261540" lon="-7.2121690">
        <ele>352.4</ele>
        <time>2014-10-01T12:52:52Z</time>
      </trkpt>
      <trkpt lat="42.3261160" lon="-7.2121470">
        <ele>352.6</ele>
        <time>2014-10-01T12:52:53Z</time>
      </trkpt>
      <trkpt lat="42.3260740" lon="-7.2121250">
        <ele>352.9</ele>
        <time>2014-10-01T12:52:54Z</time>
      </trkpt>
      <trkpt lat="42.3260340" lon="-7.2121030">
        <ele>353.3</ele>
        <time>2014-10-01T12:52:55Z</time>
      </trkpt>
      <trkpt lat="42.3259940" lon="-7.2120810">
        <ele>353.6</ele>
        <time>2014-10-01T12:52:56Z</time>
      </trkpt>
      <trkpt lat="42.3259560" lon="-7.2120610">
        <ele>353.9</ele>
        <time>2014-10-01T12:52:57Z</time>
      </trkpt>
      <trkpt lat="42.3259200" lon="-7.2120430">
        <ele>354.2</ele>
        <time>2014-10-01T12:52:58Z</time>
      </trkpt>
      <trkpt lat="42.3258840" lon="-7.2120250">
        <ele>354.5</ele>
        <time>2014-10-01T12:52:59Z</time>
      </trkpt>
      <trkpt lat="42.3258490" lon="-7.2120060">
        <ele>354.8</ele>
        <time>2014-10-01T12:53:00Z</time>
      </trkpt>
      <trkpt lat="42.3258170" lon="-7.2119890">
        <ele>355.1</ele>
        <time>2014-10-01T12:53:01Z</time>
      </trkpt>
      <trkpt lat="42.3257880" lon="-7.2119760">
        <ele>355.3</ele>
        <time>2014-10-01T12:53:02Z</time>
      </trkpt>
      <trkpt lat="42.3257540" lon="-7.2119600">
        <ele>355.6</ele>
        <time>2014-10-01T12:53:03Z</time>
      </trkpt>
      <trkpt lat="42.3257210" lon="-7.2119490">
        <ele>355.8</ele>
        <time>2014-10-01T12:53:04Z</time>
      </trkpt>
      <trkpt lat="42.3256810" lon="-7.2119400">
        <ele>356.1</ele>
        <time>2014-10-01T12:53:05Z</time>
      </trkpt>
      <trkpt lat="42.3256450" lon="-7.2119470">
        <ele>356.3</ele>
        <time>2014-10-01T12:53:06Z</time>
      </trkpt>
      <trkpt lat="42.3256040" lon="-7.2119590">
        <ele>356.5</ele>
        <time>2014-10-01T12:53:07Z</time>
      </trkpt>
      <trkpt lat="42.3255730" lon="-7.2119850">
        <ele>356.7</ele>
        <time>2014-10-01T12:53:08Z</time>
      </trkpt>
      <trkpt lat="42.3255410" lon="-7.2120150">
        <ele>356.8</ele>
        <time>2014-10-01T12:53:09Z</time>
      </trkpt>
      <trkpt lat="42.3255110" lon="-7.2120680">
        <ele>356.9</ele>
        <time>2014-10-01T12:53:10Z</time>
      </trkpt>
      <trkpt lat="42.3254770" lon="-7.2121260">
        <ele>357.0</ele>
        <time>2014-10-01T12:53:11Z</time>
      </trkpt>
      <trkpt lat="42.3254610" lon="-7.2121840">
        <ele>357.1</ele>
        <time>2014-10-01T12:53:12Z</time>
      </trkpt>
      <trkpt lat="42.3254390" lon="-7.2122320">
        <ele>357.1</ele>
        <time>2014-10-01T12:53:13Z</time>
      </trkpt>
      <trkpt lat="42.3254160" lon="-7.2122780">
        <ele>357.2</ele>
        <time>2014-10-01T12:53:14Z</time>
      </trkpt>
      <trkpt lat="42.3253930" lon="-7.2123230">
        <ele>357.2</ele>
        <time>2014-10-01T12:53:15Z</time>
      </trkpt>
      <trkpt lat="42.3253730" lon="-7.2123630">
        <ele>357.3</ele>
        <time>2014-10-01T12:53:16Z</time>
      </trkpt>
      <trkpt lat="42.3253550" lon="-7.2123980">
        <ele>357.4</ele>
        <time>2014-10-01T12:53:17Z</time>
      </trkpt>
      <trkpt lat="42.3253310" lon="-7.2124420">
        <ele>357.5</ele>
        <time>2014-10-01T12:53:18Z</time>
      </trkpt>
      <trkpt lat="42.3253080" lon="-7.2124840">
        <ele>357.6</ele>
        <time>2014-10-01T12:53:19Z</time>
      </trkpt>
      <trkpt lat="42.3252830" lon="-7.2125250">
        <ele>357.7</ele>
        <time>2014-10-01T12:53:20Z</time>
      </trkpt>
      <trkpt lat="42.3252560" lon="-7.2125640">
        <ele>357.8</ele>
        <time>2014-10-01T12:53:21Z</time>
      </trkpt>
      <trkpt lat="42.3252250" lon="-7.2126000">
        <ele>358.0</ele>
        <time>2014-10-01T12:53:22Z</time>
      </trkpt>
      <trkpt lat="42.3251930" lon="-7.2126250">
        <ele>358.2</ele>
        <time>2014-10-01T12:53:23Z</time>
      </trkpt>
      <trkpt lat="42.3251590" lon="-7.2126540">
        <ele>358.3</ele>
        <time>2014-10-01T12:53:24Z</time>
      </trkpt>
      <trkpt lat="42.3251280" lon="-7.2126820">
        <ele>358.5</ele>
        <time>2014-10-01T12:53:25Z</time>
      </trkpt>
      <trkpt lat="42.3250940" lon="-7.2127120">
        <ele>358.7</ele>
        <time>2014-10-01T12:53:26Z</time>
      </trkpt>
      <trkpt lat="42.3250580" lon="-7.2127420">
        <ele>358.9</ele>
        <time>2014-10-01T12:53:27Z</time>
      </trkpt>
      <trkpt lat="42.3250220" lon="-7.2127700">
        <ele>359.1</ele>
        <time>2014-10-01T12:53:28Z</time>
      </trkpt>
      <trkpt lat="42.3249900" lon="-7.2127940">
        <ele>359.3</ele>
        <time>2014-10-01T12:53:29Z</time>
      </trkpt>
      <trkpt lat="42.3249540" lon="-7.2128200">
        <ele>359.5</ele>
        <time>2014-10-01T12:53:30Z</time>
      </trkpt>
      <trkpt lat="42.3249210" lon="-7.2128440">
        <ele>359.7</ele>
        <time>2014-10-01T12:53:31Z</time>
      </trkpt>
      <trkpt lat="42.3248890" lon="-7.2128670">
        <ele>359.9</ele>
        <time>2014-10-01T12:53:32Z</time>
      </trkpt>
      <trkpt lat="42.3248560" lon="-7.2128910">
        <ele>360.1</ele>
        <time>2014-10-01T12:53:33Z</time>
      </trkpt>
      <trkpt lat="42.3248230" lon="-7.2129140">
        <ele>360.3</ele>
        <time>2014-10-01T12:53:34Z</time>
      </trkpt>
      <trkpt lat="42.3247850" lon="-7.2129380">
        <ele>360.5</ele>
        <time>2014-10-01T12:53:35Z</time>
      </trkpt>
      <trkpt lat="42.3247520" lon="-7.2129590">
        <ele>360.7</ele>
        <time>2014-10-01T12:53:36Z</time>
      </trkpt>
      <trkpt lat="42.3247190" lon="-7.2129780">
        <ele>360.9</ele>
        <time>2014-10-01T12:53:37Z</time>
      </trkpt>
      <trkpt lat="42.3246880" lon="-7.2129960">
        <ele>361.1</ele>
        <time>2014-10-01T12:53:38Z</time>
      </trkpt>
      <trkpt lat="42.3246540" lon="-7.2130150">
        <ele>361.3</ele>
        <time>2014-10-01T12:53:39Z</time>
      </trkpt>
      <trkpt lat="42.3246220" lon="-7.2130330">
        <ele>361.5</ele>
        <time>2014-10-01T12:53:40Z</time>
      </trkpt>
      <trkpt lat="42.3245800" lon="-7.2130530">
        <ele>361.7</ele>
        <time>2014-10-01T12:53:41Z</time>
      </trkpt>
      <trkpt lat="42.3245370" lon="-7.2130720">
        <ele>361.9</ele>
        <time>2014-10-01T12:53:42Z</time>
      </trkpt>
      <trkpt lat="42.3244930" lon="-7.2130890">
        <ele>362.2</ele>
        <time>2014-10-01T12:53:43Z</time>
      </trkpt>
      <trkpt lat="42.3244490" lon="-7.2131020">
        <ele>362.4</ele>
        <time>2014-10-01T12:53:44Z</time>
      </trkpt>
      <trkpt lat="42.3244060" lon="-7.2131100">
        <ele>362.7</ele>
        <time>2014-10-01T12:53:45Z</time>
      </trkpt>
      <trkpt lat="42.3243610" lon="-7.2131150">
        <ele>362.9</ele>
        <time>2014-10-01T12:53:46Z</time>
      </trkpt>
      <trkpt lat="42.3243130" lon="-7.2131190">
        <ele>363.2</ele>
        <time>2014-10-01T12:53:47Z</time>
      </trkpt>
      <trkpt lat="42.3242690" lon="-7.2131220">
        <ele>363.4</ele>
        <time>2014-10-01T12:53:48Z</time>
      </trkpt>
      <trkpt lat="42.3242290" lon="-7.2131210">
        <ele>363.7</ele>
        <time>2014-10-01T12:53:49Z</time>
      </trkpt>
      <trkpt lat="42.3241890" lon="-7.2131200">
        <ele>363.9</ele>
        <time>2014-10-01T12:53:50Z</time>
      </trkpt>
      <trkpt lat="42.3241490" lon="-7.2131170">
        <ele>364.1</ele>
        <time>2014-10-01T12:53:51Z</time>
      </trkpt>
      <trkpt lat="42.3241080" lon="-7.2131130">
        <ele>364.4</ele>
        <time>2014-10-01T12:53:52Z</time>
      </trkpt>
      <trkpt lat="42.3240680" lon="-7.2131100">
        <ele>364.6</ele>
        <time>2014-10-01T12:53:53Z</time>
      </trkpt>
      <trkpt lat="42.3240280" lon="-7.2131060">
        <ele>364.8</ele>
        <time>2014-10-01T12:53:54Z</time>
      </trkpt>
      <trkpt lat="42.3239870" lon="-7.2131010">
        <ele>365.0</ele>
        <time>2014-10-01T12:53:55Z</time>
      </trkpt>
      <trkpt lat="42.3239460" lon="-7.2130950">
        <ele>365.3</ele>
        <time>2014-10-01T12:53:56Z</time>
      </trkpt>
      <trkpt lat="42.3239010" lon="-7.2130900">
        <ele>365.5</ele>
        <time>2014-10-01T12:53:57Z</time>
      </trkpt>
      <trkpt lat="42.3238580" lon="-7.2130830">
        <ele>365.7</ele>
        <time>2014-10-01T12:53:58Z</time>
      </trkpt>
      <trkpt lat="42.3238170" lon="-7.2130760">
        <ele>366.0</ele>
        <time>2014-10-01T12:53:59Z</time>
      </trkpt>
      <trkpt lat="42.3237760" lon="-7.2130700">
        <ele>366.2</ele>
        <time>2014-10-01T12:54:00Z</time>
      </trkpt>
      <trkpt lat="42.3237360" lon="-7.2130640">
        <ele>366.4</ele>
        <time>2014-10-01T12:54:01Z</time>
      </trkpt>
      <trkpt lat="42.3236950" lon="-7.2130590">
        <ele>366.7</ele>
        <time>2014-10-01T12:54:02Z</time>
      </trkpt>
      <trkpt lat="42.3236540" lon="-7.2130540">
        <ele>366.9</ele>
        <time>2014-10-01T12:54:03Z</time>
      </trkpt>
      <trkpt lat="42.3236140" lon="-7.2130470">
        <ele>367.1</ele>
        <time>2014-10-01T12:54:04Z</time>
      </trkpt>
      <trkpt lat="42.3235730" lon="-7.2130410">
        <ele>367.4</ele>
        <time>2014-10-01T12:54:05Z</time>
      </trkpt>
      <trkpt lat="42.3235310" lon="-7.2130330">
        <ele>367.6</ele>
        <time>2014-10-01T12:54:06Z</time>
      </trkpt>
      <trkpt lat="42.3234890" lon="-7.2130250">
        <ele>367.8</ele>
        <time>2014-10-01T12:54:07Z</time>
      </trkpt>
      <trkpt lat="42.3234480" lon="-7.2130180">
        <ele>368.1</ele>
        <time>2014-10-01T12:54:08Z</time>
      </trkpt>
      <trkpt lat="42.3234070" lon="-7.2130100">
        <ele>368.3</ele>
        <time>2014-10-01T12:54:09Z</time>
      </trkpt>
      <trkpt lat="42.3233660" lon="-7.2130030">
        <ele>368.5</ele>
        <time>2014-10-01T12:54:10Z</time>
      </trkpt>
      <trkpt lat="42.3233250" lon="-7.2129950">
        <ele>368.8</ele>
        <time>2014-10-01T12:54:11Z</time>
      </trkpt>
      <trkpt lat="42.3232840" lon="-7.2129870">
        <ele>369.1</ele>
        <time>2014-10-01T12:54:12Z</time>
      </trkpt>
      <trkpt lat="42.3232410" lon="-7.2129770">
        <ele>369.3</ele>
        <time>2014-10-01T12:54:13Z</time>
      </trkpt>
      <trkpt lat="42.3231990" lon="-7.2129680">
        <ele>369.6</ele>
        <time>2014-10-01T12:54:14Z</time>
      </trkpt>
      <trkpt lat="42.3231580" lon="-7.2129610">
        <ele>369.9</ele>
        <time>2014-10-01T12:54:15Z</time>
      </trkpt>
      <trkpt lat="42.3231180" lon="-7.2129540">
        <ele>370.1</ele>
        <time>2014-10-01T12:54:16Z</time>
      </trkpt>
      <trkpt lat="42.3230780" lon="-7.2129480">
        <ele>370.3</ele>
        <time>2014-10-01T12:54:17Z</time>
      </trkpt>
      <trkpt lat="42.3230330" lon="-7.2129430">
        <ele>370.6</ele>
        <time>2014-10-01T12:54:18Z</time>
      </trkpt>
      <trkpt lat="42.3229930" lon="-7.2129370">
        <ele>370.8</ele>
        <time>2014-10-01T12:54:19Z</time>
      </trkpt>
      <trkpt lat="42.3229500" lon="-7.2129320">
        <ele>371.1</ele>
        <time>2014-10-01T12:54:20Z</time>
      </trkpt>
      <trkpt lat="42.3229080" lon="-7.2129260">
        <ele>371.3</ele>
        <time>2014-10-01T12:54:21Z</time>
      </trkpt>
      <trkpt lat="42.3228680" lon="-7.2129180">
        <ele>371.6</ele>
        <time>2014-10-01T12:54:22Z</time>
      </trkpt>
      <trkpt lat="42.3228270" lon="-7.2129110">
        <ele>371.8</ele>
        <time>2014-10-01T12:54:23Z</time>
      </trkpt>
      <trkpt lat="42.3227840" lon="-7.2129040">
        <ele>372.1</ele>
        <time>2014-10-01T12:54:24Z</time>
      </trkpt>
      <trkpt lat="42.3227470" lon="-7.2128990">
        <ele>372.3</ele>
        <time>2014-10-01T12:54:25Z</time>
      </trkpt>
      <trkpt lat="42.3227060" lon="-7.2128940">
        <ele>372.6</ele>
        <time>2014-10-01T12:54:26Z</time>
      </trkpt>
      <trkpt lat="42.3226700" lon="-7.2128890">
        <ele>372.8</ele>
        <time>2014-10-01T12:54:27Z</time>
      </trkpt>
      <trkpt lat="42.3226330" lon="-7.2128840">
        <ele>373.1</ele>
        <time>2014-10-01T12:54:28Z</time>
      </trkpt>
      <trkpt lat="42.3225940" lon="-7.2128810">
        <ele>373.3</ele>
        <time>2014-10-01T12:54:29Z</time>
      </trkpt>
      <trkpt lat="42.3225540" lon="-7.2128810">
        <ele>373.6</ele>
        <time>2014-10-01T12:54:30Z</time>
      </trkpt>
      <trkpt lat="42.3225130" lon="-7.2128840">
        <ele>373.8</ele>
        <time>2014-10-01T12:54:31Z</time>
      </trkpt>
      <trkpt lat="42.3224720" lon="-7.2128880">
        <ele>374.1</ele>
        <time>2014-10-01T12:54:32Z</time>
      </trkpt>
      <trkpt lat="42.3224340" lon="-7.2128910">
        <ele>374.4</ele>
        <time>2014-10-01T12:54:33Z</time>
      </trkpt>
      <trkpt lat="42.3223970" lon="-7.2128950">
        <ele>374.6</ele>
        <time>2014-10-01T12:54:34Z</time>
      </trkpt>
      <trkpt lat="42.3223590" lon="-7.2129030">
        <ele>374.9</ele>
        <time>2014-10-01T12:54:35Z</time>
      </trkpt>
      <trkpt lat="42.3223240" lon="-7.2129150">
        <ele>375.1</ele>
        <time>2014-10-01T12:54:36Z</time>
      </trkpt>
      <trkpt lat="42.3222860" lon="-7.2129380">
        <ele>375.3</ele>
        <time>2014-10-01T12:54:37Z</time>
      </trkpt>
      <trkpt lat="42.3222530" lon="-7.2129590">
        <ele>375.6</ele>
        <time>2014-10-01T12:54:38Z</time>
      </trkpt>
      <trkpt lat="42.3222150" lon="-7.2129850">
        <ele>375.8</ele>
        <time>2014-10-01T12:54:39Z</time>
      </trkpt>
      <trkpt lat="42.3221800" lon="-7.2130130">
        <ele>376.1</ele>
        <time>2014-10-01T12:54:40Z</time>
      </trkpt>
      <trkpt lat="42.3221370" lon="-7.2130510">
        <ele>376.4</ele>
        <time>2014-10-01T12:54:41Z</time>
      </trkpt>
      <trkpt lat="42.3221020" lon="-7.2130890">
        <ele>376.7</ele>
        <time>2014-10-01T12:54:42Z</time>
      </trkpt>
      <trkpt lat="42.3220640" lon="-7.2131310">
        <ele>377.0</ele>
        <time>2014-10-01T12:54:43Z</time>
      </trkpt>
      <trkpt lat="42.3220260" lon="-7.2131720">
        <ele>377.3</ele>
        <time>2014-10-01T12:54:44Z</time>
      </trkpt>
      <trkpt lat="42.3219890" lon="-7.2132120">
        <ele>377.6</ele>
        <time>2014-10-01T12:54:45Z</time>
      </trkpt>
      <trkpt lat="42.3219530" lon="-7.2132500">
        <ele>377.8</ele>
        <time>2014-10-01T12:54:46Z</time>
      </trkpt>
      <trkpt lat="42.3219200" lon="-7.2132870">
        <ele>378.1</ele>
        <time>2014-10-01T12:54:47Z</time>
      </trkpt>
      <trkpt lat="42.3218920" lon="-7.2133280">
        <ele>378.3</ele>
        <time>2014-10-01T12:54:48Z</time>
      </trkpt>
      <trkpt lat="42.3218610" lon="-7.2133690">
        <ele>378.6</ele>
        <time>2014-10-01T12:54:49Z</time>
      </trkpt>
      <trkpt lat="42.3218330" lon="-7.2134120">
        <ele>378.9</ele>
        <time>2014-10-01T12:54:50Z</time>
      </trkpt>
      <trkpt lat="42.3218090" lon="-7.2134540">
        <ele>379.2</ele>
        <time>2014-10-01T12:54:51Z</time>
      </trkpt>
      <trkpt lat="42.3217840" lon="-7.2134920">
        <ele>379.4</ele>
        <time>2014-10-01T12:54:52Z</time>
      </trkpt>
      <trkpt lat="42.3217620" lon="-7.2135300">
        <ele>379.6</ele>
        <time>2014-10-01T12:54:53Z</time>
      </trkpt>
      <trkpt lat="42.3217390" lon="-7.2135680">
        <ele>379.9</ele>
        <time>2014-10-01T12:54:54Z</time>
      </trkpt>
      <trkpt lat="42.3217140" lon="-7.2136100">
        <ele>380.1</ele>
        <time>2014-10-01T12:54:55Z</time>
      </trkpt>
      <trkpt lat="42.3216890" lon="-7.2136500">
        <ele>380.4</ele>
        <time>2014-10-01T12:54:56Z</time>
      </trkpt>
      <trkpt lat="42.3216640" lon="-7.2136940">
        <ele>380.7</ele>
        <time>2014-10-01T12:54:57Z</time>
      </trkpt>
      <trkpt lat="42.3216400" lon="-7.2137370">
        <ele>380.9</ele>
        <time>2014-10-01T12:54:58Z</time>
      </trkpt>
      <trkpt lat="42.3216160" lon="-7.2137800">
        <ele>381.2</ele>
        <time>2014-10-01T12:54:59Z</time>
      </trkpt>
      <trkpt lat="42.3215910" lon="-7.2138230">
        <ele>381.5</ele>
        <time>2014-10-01T12:55:00Z</time>
      </trkpt>
      <trkpt lat="42.3215680" lon="-7.2138680">
        <ele>381.8</ele>
        <time>2014-10-01T12:55:01Z</time>
      </trkpt>
      <trkpt lat="42.3215460" lon="-7.2139130">
        <ele>382.0</ele>
        <time>2014-10-01T12:55:02Z</time>
      </trkpt>
      <trkpt lat="42.3215270" lon="-7.2139590">
        <ele>382.3</ele>
        <time>2014-10-01T12:55:03Z</time>
      </trkpt>
      <trkpt lat="42.3215100" lon="-7.2140090">
        <ele>382.6</ele>
        <time>2014-10-01T12:55:04Z</time>
      </trkpt>
      <trkpt lat="42.3214920" lon="-7.2140590">
        <ele>382.9</ele>
        <time>2014-10-01T12:55:05Z</time>
      </trkpt>
      <trkpt lat="42.3214800" lon="-7.2141120">
        <ele>383.3</ele>
        <time>2014-10-01T12:55:06Z</time>
      </trkpt>
      <trkpt lat="42.3214700" lon="-7.2141680">
        <ele>383.6</ele>
        <time>2014-10-01T12:55:07Z</time>
      </trkpt>
      <trkpt lat="42.3214600" lon="-7.2142180">
        <ele>383.9</ele>
        <time>2014-10-01T12:55:08Z</time>
      </trkpt>
      <trkpt lat="42.3214560" lon="-7.2142670">
        <ele>384.2</ele>
        <time>2014-10-01T12:55:09Z</time>
      </trkpt>
      <trkpt lat="42.3214550" lon="-7.2143180">
        <ele>384.5</ele>
        <time>2014-10-01T12:55:10Z</time>
      </trkpt>
      <trkpt lat="42.3214610" lon="-7.2143730">
        <ele>384.9</ele>
        <time>2014-10-01T12:55:11Z</time>
      </trkpt>
      <trkpt lat="42.3214680" lon="-7.2144250">
        <ele>385.2</ele>
        <time>2014-10-01T12:55:12Z</time>
      </trkpt>
      <trkpt lat="42.3214740" lon="-7.2144710">
        <ele>385.5</ele>
        <time>2014-10-01T12:55:13Z</time>
      </trkpt>
      <trkpt lat="42.3214780" lon="-7.2145150">
        <ele>385.8</ele>
        <time>2014-10-01T12:55:14Z</time>
      </trkpt>
      <trkpt lat="42.3214810" lon="-7.2145590">
        <ele>386.0</ele>
        <time>2014-10-01T12:55:15Z</time>
      </trkpt>
      <trkpt lat="42.3214820" lon="-7.2146080">
        <ele>386.3</ele>
        <time>2014-10-01T12:55:16Z</time>
      </trkpt>
      <trkpt lat="42.3214760" lon="-7.2146580">
        <ele>386.5</ele>
        <time>2014-10-01T12:55:17Z</time>
      </trkpt>
      <trkpt lat="42.3214650" lon="-7.2147060">
        <ele>386.7</ele>
        <time>2014-10-01T12:55:18Z</time>
      </trkpt>
      <trkpt lat="42.3214480" lon="-7.2147540">
        <ele>386.9</ele>
        <time>2014-10-01T12:55:19Z</time>
      </trkpt>
      <trkpt lat="42.3214300" lon="-7.2148010">
        <ele>387.1</ele>
        <time>2014-10-01T12:55:20Z</time>
      </trkpt>
      <trkpt lat="42.3214020" lon="-7.2148440">
        <ele>387.3</ele>
        <time>2014-10-01T12:55:21Z</time>
      </trkpt>
      <trkpt lat="42.3213670" lon="-7.2148810">
        <ele>387.6</ele>
        <time>2014-10-01T12:55:22Z</time>
      </trkpt>
      <trkpt lat="42.3213260" lon="-7.2149070">
        <ele>387.8</ele>
        <time>2014-10-01T12:55:23Z</time>
      </trkpt>
      <trkpt lat="42.3212830" lon="-7.2149250">
        <ele>388.1</ele>
        <time>2014-10-01T12:55:24Z</time>
      </trkpt>
      <trkpt lat="42.3212410" lon="-7.2149410">
        <ele>388.3</ele>
        <time>2014-10-01T12:55:25Z</time>
      </trkpt>
      <trkpt lat="42.3212000" lon="-7.2149550">
        <ele>388.6</ele>
        <time>2014-10-01T12:55:26Z</time>
      </trkpt>
      <trkpt lat="42.3211600" lon="-7.2149710">
        <ele>389.0</ele>
        <time>2014-10-01T12:55:27Z</time>
      </trkpt>
      <trkpt lat="42.3211140" lon="-7.2149890">
        <ele>389.4</ele>
        <time>2014-10-01T12:55:28Z</time>
      </trkpt>
      <trkpt lat="42.3210750" lon="-7.2150110">
        <ele>389.8</ele>
        <time>2014-10-01T12:55:29Z</time>
      </trkpt>
      <trkpt lat="42.3210370" lon="-7.2150370">
        <ele>390.2</ele>
        <time>2014-10-01T12:55:30Z</time>
      </trkpt>
      <trkpt lat="42.3209980" lon="-7.2150620">
        <ele>390.7</ele>
        <time>2014-10-01T12:55:31Z</time>
      </trkpt>
      <trkpt lat="42.3209640" lon="-7.2150870">
        <ele>391.1</ele>
        <time>2014-10-01T12:55:32Z</time>
      </trkpt>
      <trkpt lat="42.3209210" lon="-7.2151150">
        <ele>391.7</ele>
        <time>2014-10-01T12:55:33Z</time>
      </trkpt>
      <trkpt lat="42.3208860" lon="-7.2151400">
        <ele>392.2</ele>
        <time>2014-10-01T12:55:34Z</time>
      </trkpt>
      <trkpt lat="42.3208490" lon="-7.2151720">
        <ele>392.7</ele>
        <time>2014-10-01T12:55:35Z</time>
      </trkpt>
      <trkpt lat="42.3208190" lon="-7.2152100">
        <ele>393.2</ele>
        <time>2014-10-01T12:55:36Z</time>
      </trkpt>
      <trkpt lat="42.3207990" lon="-7.2152520">
        <ele>393.6</ele>
        <time>2014-10-01T12:55:37Z</time>
      </trkpt>
      <trkpt lat="42.3207880" lon="-7.2152880">
        <ele>393.9</ele>
        <time>2014-10-01T12:55:38Z</time>
      </trkpt>
      <trkpt lat="42.3207800" lon="-7.2153270">
        <ele>394.2</ele>
        <time>2014-10-01T12:55:39Z</time>
      </trkpt>
      <trkpt lat="42.3207670" lon="-7.2153810">
        <ele>394.7</ele>
        <time>2014-10-01T12:55:41Z</time>
      </trkpt>
      <trkpt lat="42.3207580" lon="-7.2154160">
        <ele>395.0</ele>
        <time>2014-10-01T12:55:42Z</time>
      </trkpt>
      <trkpt lat="42.3207390" lon="-7.2154570">
        <ele>395.3</ele>
        <time>2014-10-01T12:55:43Z</time>
      </trkpt>
      <trkpt lat="42.3207110" lon="-7.2154930">
        <ele>395.6</ele>
        <time>2014-10-01T12:55:44Z</time>
      </trkpt>
      <trkpt lat="42.3206780" lon="-7.2155250">
        <ele>395.7</ele>
        <time>2014-10-01T12:55:45Z</time>
      </trkpt>
      <trkpt lat="42.3206410" lon="-7.2155530">
        <ele>395.7</ele>
        <time>2014-10-01T12:55:46Z</time>
      </trkpt>
      <trkpt lat="42.3205960" lon="-7.2155830">
        <ele>395.7</ele>
        <time>2014-10-01T12:55:47Z</time>
      </trkpt>
      <trkpt lat="42.3205450" lon="-7.2156200">
        <ele>395.4</ele>
        <time>2014-10-01T12:55:48Z</time>
      </trkpt>
      <trkpt lat="42.3204900" lon="-7.2156520">
        <ele>395.2</ele>
        <time>2014-10-01T12:55:49Z</time>
      </trkpt>
      <trkpt lat="42.3204340" lon="-7.2156920">
        <ele>395.0</ele>
        <time>2014-10-01T12:55:50Z</time>
      </trkpt>
      <trkpt lat="42.3203680" lon="-7.2157270">
        <ele>394.7</ele>
        <time>2014-10-01T12:55:51Z</time>
      </trkpt>
      <trkpt lat="42.3202920" lon="-7.2157640">
        <ele>394.3</ele>
        <time>2014-10-01T12:55:52Z</time>
      </trkpt>
      <trkpt lat="42.3202170" lon="-7.2158000">
        <ele>394.0</ele>
        <time>2014-10-01T12:55:53Z</time>
      </trkpt>
      <trkpt lat="42.3201330" lon="-7.2158480">
        <ele>393.5</ele>
        <time>2014-10-01T12:55:54Z</time>
      </trkpt>
      <trkpt lat="42.3200680" lon="-7.2159090">
        <ele>393.1</ele>
        <time>2014-10-01T12:55:55Z</time>
      </trkpt>
      <trkpt lat="42.3200100" lon="-7.2160100">
        <ele>392.3</ele>
        <time>2014-10-01T12:55:56Z</time>
      </trkpt>
      <trkpt lat="42.3199820" lon="-7.2161230">
        <ele>391.4</ele>
        <time>2014-10-01T12:55:57Z</time>
      </trkpt>
      <trkpt lat="42.3199570" lon="-7.2162550">
        <ele>390.3</ele>
        <time>2014-10-01T12:55:58Z</time>
      </trkpt>
      <trkpt lat="42.3199360" lon="-7.2163900">
        <ele>389.1</ele>
        <time>2014-10-01T12:55:59Z</time>
      </trkpt>
      <trkpt lat="42.3199180" lon="-7.2165260">
        <ele>388.1</ele>
        <time>2014-10-01T12:56:00Z</time>
      </trkpt>
      <trkpt lat="42.3199020" lon="-7.2166640">
        <ele>387.1</ele>
        <time>2014-10-01T12:56:01Z</time>
      </trkpt>
      <trkpt lat="42.3198880" lon="-7.2168110">
        <ele>386.1</ele>
        <time>2014-10-01T12:56:02Z</time>
      </trkpt>
      <trkpt lat="42.3198740" lon="-7.2169620">
        <ele>385.1</ele>
        <time>2014-10-01T12:56:03Z</time>
      </trkpt>
      <trkpt lat="42.3198620" lon="-7.2171130">
        <ele>384.2</ele>
        <time>2014-10-01T12:56:04Z</time>
      </trkpt>
      <trkpt lat="42.3198510" lon="-7.2172640">
        <ele>383.3</ele>
        <time>2014-10-01T12:56:05Z</time>
      </trkpt>
      <trkpt lat="42.3198390" lon="-7.2173980">
        <ele>382.6</ele>
        <time>2014-10-01T12:56:06Z</time>
      </trkpt>
      <trkpt lat="42.3198390" lon="-7.2175250">
        <ele>381.9</ele>
        <time>2014-10-01T12:56:07Z</time>
      </trkpt>
      <trkpt lat="42.3198760" lon="-7.2176490">
        <ele>381.2</ele>
        <time>2014-10-01T12:56:08Z</time>
      </trkpt>
      <trkpt lat="42.3199130" lon="-7.2177670">
        <ele>380.4</ele>
        <time>2014-10-01T12:56:09Z</time>
      </trkpt>
      <trkpt lat="42.3199450" lon="-7.2178830">
        <ele>379.5</ele>
        <time>2014-10-01T12:56:10Z</time>
      </trkpt>
      <trkpt lat="42.3199420" lon="-7.2180150">
        <ele>378.6</ele>
        <time>2014-10-01T12:56:11Z</time>
      </trkpt>
      <trkpt lat="42.3199080" lon="-7.2181470">
        <ele>377.8</ele>
        <time>2014-10-01T12:56:12Z</time>
      </trkpt>
      <trkpt lat="42.3198760" lon="-7.2182790">
        <ele>377.3</ele>
        <time>2014-10-01T12:56:13Z</time>
      </trkpt>
      <trkpt lat="42.3198430" lon="-7.2184140">
        <ele>376.9</ele>
        <time>2014-10-01T12:56:14Z</time>
      </trkpt>
      <trkpt lat="42.3198120" lon="-7.2185280">
        <ele>376.7</ele>
        <time>2014-10-01T12:56:15Z</time>
      </trkpt>
      <trkpt lat="42.3197610" lon="-7.2186200">
        <ele>376.3</ele>
        <time>2014-10-01T12:56:16Z</time>
      </trkpt>
      <trkpt lat="42.3197090" lon="-7.2186980">
        <ele>375.7</ele>
        <time>2014-10-01T12:56:17Z</time>
      </trkpt>
      <trkpt lat="42.3196330" lon="-7.2187330">
        <ele>375.0</ele>
        <time>2014-10-01T12:56:18Z</time>
      </trkpt>
      <trkpt lat="42.3195540" lon="-7.2187180">
        <ele>374.3</ele>
        <time>2014-10-01T12:56:19Z</time>
      </trkpt>
      <trkpt lat="42.3194770" lon="-7.2186700">
        <ele>373.6</ele>
        <time>2014-10-01T12:56:20Z</time>
      </trkpt>
      <trkpt lat="42.3194100" lon="-7.2185990">
        <ele>373.0</ele>
        <time>2014-10-01T12:56:21Z</time>
      </trkpt>
      <trkpt lat="42.3193470" lon="-7.2185280">
        <ele>372.5</ele>
        <time>2014-10-01T12:56:22Z</time>
      </trkpt>
      <trkpt lat="42.3192920" lon="-7.2184490">
        <ele>372.1</ele>
        <time>2014-10-01T12:56:23Z</time>
      </trkpt>
      <trkpt lat="42.3192370" lon="-7.2183580">
        <ele>371.6</ele>
        <time>2014-10-01T12:56:24Z</time>
      </trkpt>
      <trkpt lat="42.3191980" lon="-7.2182460">
        <ele>371.2</ele>
        <time>2014-10-01T12:56:25Z</time>
      </trkpt>
      <trkpt lat="42.3191590" lon="-7.2181240">
        <ele>370.8</ele>
        <time>2014-10-01T12:56:26Z</time>
      </trkpt>
      <trkpt lat="42.3191260" lon="-7.2179950">
        <ele>370.4</ele>
        <time>2014-10-01T12:56:27Z</time>
      </trkpt>
      <trkpt lat="42.3191030" lon="-7.2178650">
        <ele>369.9</ele>
        <time>2014-10-01T12:56:28Z</time>
      </trkpt>
      <trkpt lat="42.3191010" lon="-7.2177260">
        <ele>369.5</ele>
        <time>2014-10-01T12:56:29Z</time>
      </trkpt>
      <trkpt lat="42.3191020" lon="-7.2175820">
        <ele>369.0</ele>
        <time>2014-10-01T12:56:30Z</time>
      </trkpt>
      <trkpt lat="42.3191050" lon="-7.2174330">
        <ele>368.4</ele>
        <time>2014-10-01T12:56:31Z</time>
      </trkpt>
      <trkpt lat="42.3191160" lon="-7.2172790">
        <ele>367.9</ele>
        <time>2014-10-01T12:56:32Z</time>
      </trkpt>
      <trkpt lat="42.3191180" lon="-7.2171480">
        <ele>367.0</ele>
        <time>2014-10-01T12:56:33Z</time>
      </trkpt>
      <trkpt lat="42.3190890" lon="-7.2170320">
        <ele>365.4</ele>
        <time>2014-10-01T12:56:34Z</time>
      </trkpt>
      <trkpt lat="42.3190610" lon="-7.2169670">
        <ele>364.3</ele>
        <time>2014-10-01T12:56:35Z</time>
      </trkpt>
      <trkpt lat="42.3190170" lon="-7.2169330">
        <ele>363.8</ele>
        <time>2014-10-01T12:56:36Z</time>
      </trkpt>
      <trkpt lat="42.3189640" lon="-7.2169240">
        <ele>363.4</ele>
        <time>2014-10-01T12:56:37Z</time>
      </trkpt>
      <trkpt lat="42.3189100" lon="-7.2169180">
        <ele>363.1</ele>
        <time>2014-10-01T12:56:38Z</time>
      </trkpt>
      <trkpt lat="42.3188550" lon="-7.2169150">
        <ele>362.9</ele>
        <time>2014-10-01T12:56:39Z</time>
      </trkpt>
      <trkpt lat="42.3187940" lon="-7.2169140">
        <ele>362.9</ele>
        <time>2014-10-01T12:56:40Z</time>
      </trkpt>
      <trkpt lat="42.3187340" lon="-7.2169120">
        <ele>363.0</ele>
        <time>2014-10-01T12:56:41Z</time>
      </trkpt>
      <trkpt lat="42.3186740" lon="-7.2169090">
        <ele>363.2</ele>
        <time>2014-10-01T12:56:42Z</time>
      </trkpt>
      <trkpt lat="42.3186160" lon="-7.2169090">
        <ele>363.5</ele>
        <time>2014-10-01T12:56:43Z</time>
      </trkpt>
      <trkpt lat="42.3185610" lon="-7.2169120">
        <ele>363.8</ele>
        <time>2014-10-01T12:56:44Z</time>
      </trkpt>
      <trkpt lat="42.3185090" lon="-7.2169150">
        <ele>364.1</ele>
        <time>2014-10-01T12:56:45Z</time>
      </trkpt>
      <trkpt lat="42.3184620" lon="-7.2169170">
        <ele>364.4</ele>
        <time>2014-10-01T12:56:46Z</time>
      </trkpt>
      <trkpt lat="42.3184130" lon="-7.2169040">
        <ele>364.8</ele>
        <time>2014-10-01T12:56:47Z</time>
      </trkpt>
      <trkpt lat="42.3183760" lon="-7.2168890">
        <ele>365.1</ele>
        <time>2014-10-01T12:56:48Z</time>
      </trkpt>
      <trkpt lat="42.3183380" lon="-7.2168700">
        <ele>365.4</ele>
        <time>2014-10-01T12:56:49Z</time>
      </trkpt>
      <trkpt lat="42.3182950" lon="-7.2168470">
        <ele>365.8</ele>
        <time>2014-10-01T12:56:50Z</time>
      </trkpt>
      <trkpt lat="42.3182540" lon="-7.2168230">
        <ele>366.1</ele>
        <time>2014-10-01T12:56:51Z</time>
      </trkpt>
      <trkpt lat="42.3182170" lon="-7.2167970">
        <ele>366.5</ele>
        <time>2014-10-01T12:56:52Z</time>
      </trkpt>
      <trkpt lat="42.3181880" lon="-7.2167730">
        <ele>366.7</ele>
        <time>2014-10-01T12:56:53Z</time>
      </trkpt>
      <trkpt lat="42.3181530" lon="-7.2167440">
        <ele>367.1</ele>
        <time>2014-10-01T12:56:54Z</time>
      </trkpt>
      <trkpt lat="42.3181180" lon="-7.2167150">
        <ele>367.4</ele>
        <time>2014-10-01T12:56:55Z</time>
      </trkpt>
      <trkpt lat="42.3180870" lon="-7.2166880">
        <ele>367.8</ele>
        <time>2014-10-01T12:56:56Z</time>
      </trkpt>
      <trkpt lat="42.3180610" lon="-7.2166620">
        <ele>368.0</ele>
        <time>2014-10-01T12:56:57Z</time>
      </trkpt>
      <trkpt lat="42.3180350" lon="-7.2166380">
        <ele>368.3</ele>
        <time>2014-10-01T12:56:58Z</time>
      </trkpt>
      <trkpt lat="42.3180060" lon="-7.2166290">
        <ele>368.5</ele>
        <time>2014-10-01T12:56:59Z</time>
      </trkpt>
      <trkpt lat="42.3179690" lon="-7.2166210">
        <ele>368.7</ele>
        <time>2014-10-01T12:57:00Z</time>
      </trkpt>
      <trkpt lat="42.3179300" lon="-7.2166140">
        <ele>369.0</ele>
        <time>2014-10-01T12:57:01Z</time>
      </trkpt>
      <trkpt lat="42.3178920" lon="-7.2166120">
        <ele>369.2</ele>
        <time>2014-10-01T12:57:02Z</time>
      </trkpt>
      <trkpt lat="42.3178600" lon="-7.2166120">
        <ele>369.4</ele>
        <time>2014-10-01T12:57:03Z</time>
      </trkpt>
      <trkpt lat="42.3178270" lon="-7.2166150">
        <ele>369.7</ele>
        <time>2014-10-01T12:57:04Z</time>
      </trkpt>
      <trkpt lat="42.3177900" lon="-7.2166180">
        <ele>369.9</ele>
        <time>2014-10-01T12:57:05Z</time>
      </trkpt>
      <trkpt lat="42.3177540" lon="-7.2166230">
        <ele>370.2</ele>
        <time>2014-10-01T12:57:06Z</time>
      </trkpt>
      <trkpt lat="42.3177130" lon="-7.2166270">
        <ele>370.5</ele>
        <time>2014-10-01T12:57:07Z</time>
      </trkpt>
      <trkpt lat="42.3176700" lon="-7.2166300">
        <ele>370.8</ele>
        <time>2014-10-01T12:57:08Z</time>
      </trkpt>
      <trkpt lat="42.3176310" lon="-7.2166310">
        <ele>371.0</ele>
        <time>2014-10-01T12:57:09Z</time>
      </trkpt>
      <trkpt lat="42.3175920" lon="-7.2166300">
        <ele>371.2</ele>
        <time>2014-10-01T12:57:10Z</time>
      </trkpt>
      <trkpt lat="42.3175550" lon="-7.2166300">
        <ele>371.4</ele>
        <time>2014-10-01T12:57:11Z</time>
      </trkpt>
      <trkpt lat="42.3175180" lon="-7.2166270">
        <ele>371.5</ele>
        <time>2014-10-01T12:57:12Z</time>
      </trkpt>
      <trkpt lat="42.3174780" lon="-7.2166220">
        <ele>371.5</ele>
        <time>2014-10-01T12:57:13Z</time>
      </trkpt>
      <trkpt lat="42.3174380" lon="-7.2166110">
        <ele>371.5</ele>
        <time>2014-10-01T12:57:14Z</time>
      </trkpt>
      <trkpt lat="42.3174010" lon="-7.2165980">
        <ele>371.6</ele>
        <time>2014-10-01T12:57:15Z</time>
      </trkpt>
      <trkpt lat="42.3173670" lon="-7.2165840">
        <ele>371.6</ele>
        <time>2014-10-01T12:57:16Z</time>
      </trkpt>
      <trkpt lat="42.3173240" lon="-7.2165610">
        <ele>371.6</ele>
        <time>2014-10-01T12:57:17Z</time>
      </trkpt>
      <trkpt lat="42.3172800" lon="-7.2165330">
        <ele>371.6</ele>
        <time>2014-10-01T12:57:18Z</time>
      </trkpt>
      <trkpt lat="42.3172320" lon="-7.2165010">
        <ele>371.6</ele>
        <time>2014-10-01T12:57:19Z</time>
      </trkpt>
      <trkpt lat="42.3171920" lon="-7.2164670">
        <ele>371.6</ele>
        <time>2014-10-01T12:57:20Z</time>
      </trkpt>
      <trkpt lat="42.3171500" lon="-7.2164280">
        <ele>371.7</ele>
        <time>2014-10-01T12:57:21Z</time>
      </trkpt>
      <trkpt lat="42.3171060" lon="-7.2163900">
        <ele>371.8</ele>
        <time>2014-10-01T12:57:22Z</time>
      </trkpt>
      <trkpt lat="42.3170620" lon="-7.2163550">
        <ele>371.9</ele>
        <time>2014-10-01T12:57:23Z</time>
      </trkpt>
      <trkpt lat="42.3170160" lon="-7.2163250">
        <ele>372.0</ele>
        <time>2014-10-01T12:57:24Z</time>
      </trkpt>
      <trkpt lat="42.3169700" lon="-7.2162970">
        <ele>372.1</ele>
        <time>2014-10-01T12:57:25Z</time>
      </trkpt>
      <trkpt lat="42.3169200" lon="-7.2162710">
        <ele>372.2</ele>
        <time>2014-10-01T12:57:26Z</time>
      </trkpt>
      <trkpt lat="42.3168710" lon="-7.2162480">
        <ele>372.3</ele>
        <time>2014-10-01T12:57:27Z</time>
      </trkpt>
      <trkpt lat="42.3168200" lon="-7.2162260">
        <ele>372.4</ele>
        <time>2014-10-01T12:57:28Z</time>
      </trkpt>
      <trkpt lat="42.3167690" lon="-7.2162080">
        <ele>372.6</ele>
        <time>2014-10-01T12:57:29Z</time>
      </trkpt>
      <trkpt lat="42.3167190" lon="-7.2161920">
        <ele>372.8</ele>
        <time>2014-10-01T12:57:30Z</time>
      </trkpt>
      <trkpt lat="42.3166750" lon="-7.2161790">
        <ele>373.1</ele>
        <time>2014-10-01T12:57:31Z</time>
      </trkpt>
      <trkpt lat="42.3166340" lon="-7.2161680">
        <ele>373.4</ele>
        <time>2014-10-01T12:57:32Z</time>
      </trkpt>
      <trkpt lat="42.3165990" lon="-7.2161580">
        <ele>373.6</ele>
        <time>2014-10-01T12:57:33Z</time>
      </trkpt>
      <trkpt lat="42.3165650" lon="-7.2161480">
        <ele>373.9</ele>
        <time>2014-10-01T12:57:34Z</time>
      </trkpt>
      <trkpt lat="42.3165300" lon="-7.2161380">
        <ele>374.2</ele>
        <time>2014-10-01T12:57:35Z</time>
      </trkpt>
      <trkpt lat="42.3164950" lon="-7.2161270">
        <ele>374.5</ele>
        <time>2014-10-01T12:57:36Z</time>
      </trkpt>
      <trkpt lat="42.3164610" lon="-7.2161160">
        <ele>374.8</ele>
        <time>2014-10-01T12:57:37Z</time>
      </trkpt>
      <trkpt lat="42.3164260" lon="-7.2161040">
        <ele>375.0</ele>
        <time>2014-10-01T12:57:38Z</time>
      </trkpt>
      <trkpt lat="42.3163930" lon="-7.2160900">
        <ele>375.3</ele>
        <time>2014-10-01T12:57:39Z</time>
      </trkpt>
      <trkpt lat="42.3163590" lon="-7.2160750">
        <ele>375.6</ele>
        <time>2014-10-01T12:57:40Z</time>
      </trkpt>
      <trkpt lat="42.3163280" lon="-7.2160590">
        <ele>375.9</ele>
        <time>2014-10-01T12:57:41Z</time>
      </trkpt>
      <trkpt lat="42.3163030" lon="-7.2160450">
        <ele>376.1</ele>
        <time>2014-10-01T12:57:42Z</time>
      </trkpt>
      <trkpt lat="42.3162750" lon="-7.2160290">
        <ele>376.3</ele>
        <time>2014-10-01T12:57:43Z</time>
      </trkpt>
      <trkpt lat="42.3162470" lon="-7.2160130">
        <ele>376.6</ele>
        <time>2014-10-01T12:57:44Z</time>
      </trkpt>
      <trkpt lat="42.3162170" lon="-7.2159970">
        <ele>376.8</ele>
        <time>2014-10-01T12:57:45Z</time>
      </trkpt>
      <trkpt lat="42.3161850" lon="-7.2159820">
        <ele>377.1</ele>
        <time>2014-10-01T12:57:46Z</time>
      </trkpt>
      <trkpt lat="42.3161540" lon="-7.2159660">
        <ele>377.3</ele>
        <time>2014-10-01T12:57:47Z</time>
      </trkpt>
      <trkpt lat="42.3161290" lon="-7.2159520">
        <ele>377.5</ele>
        <time>2014-10-01T12:57:48Z</time>
      </trkpt>
      <trkpt lat="42.3160970" lon="-7.2159370">
        <ele>377.7</ele>
        <time>2014-10-01T12:57:49Z</time>
      </trkpt>
      <trkpt lat="42.3160670" lon="-7.2159210">
        <ele>377.9</ele>
        <time>2014-10-01T12:57:50Z</time>
      </trkpt>
      <trkpt lat="42.3160410" lon="-7.2159070">
        <ele>378.1</ele>
        <time>2014-10-01T12:57:51Z</time>
      </trkpt>
      <trkpt lat="42.3160140" lon="-7.2158930">
        <ele>378.3</ele>
        <time>2014-10-01T12:57:52Z</time>
      </trkpt>
      <trkpt lat="42.3159860" lon="-7.2158790">
        <ele>378.5</ele>
        <time>2014-10-01T12:57:53Z</time>
      </trkpt>
      <trkpt lat="42.3159570" lon="-7.2158650">
        <ele>378.7</ele>
        <time>2014-10-01T12:57:54Z</time>
      </trkpt>
      <trkpt lat="42.3159260" lon="-7.2158520">
        <ele>379.0</ele>
        <time>2014-10-01T12:57:55Z</time>
      </trkpt>
      <trkpt lat="42.3158970" lon="-7.2158430">
        <ele>379.2</ele>
        <time>2014-10-01T12:57:56Z</time>
      </trkpt>
      <trkpt lat="42.3158680" lon="-7.2158330">
        <ele>379.5</ele>
        <time>2014-10-01T12:57:57Z</time>
      </trkpt>
      <trkpt lat="42.3158400" lon="-7.2158210">
        <ele>379.7</ele>
        <time>2014-10-01T12:57:58Z</time>
      </trkpt>
      <trkpt lat="42.3158130" lon="-7.2158100">
        <ele>380.0</ele>
        <time>2014-10-01T12:57:59Z</time>
      </trkpt>
      <trkpt lat="42.3157850" lon="-7.2157970">
        <ele>380.2</ele>
        <time>2014-10-01T12:58:00Z</time>
      </trkpt>
      <trkpt lat="42.3157540" lon="-7.2157850">
        <ele>380.5</ele>
        <time>2014-10-01T12:58:01Z</time>
      </trkpt>
      <trkpt lat="42.3157260" lon="-7.2157750">
        <ele>380.7</ele>
        <time>2014-10-01T12:58:02Z</time>
      </trkpt>
      <trkpt lat="42.3156980" lon="-7.2157700">
        <ele>380.9</ele>
        <time>2014-10-01T12:58:03Z</time>
      </trkpt>
      <trkpt lat="42.3156690" lon="-7.2157650">
        <ele>381.1</ele>
        <time>2014-10-01T12:58:04Z</time>
      </trkpt>
      <trkpt lat="42.3156390" lon="-7.2157590">
        <ele>381.3</ele>
        <time>2014-10-01T12:58:05Z</time>
      </trkpt>
      <trkpt lat="42.3155840" lon="-7.2157490">
        <ele>381.7</ele>
        <time>2014-10-01T12:58:07Z</time>
      </trkpt>
      <trkpt lat="42.3155530" lon="-7.2157450">
        <ele>381.9</ele>
        <time>2014-10-01T12:58:08Z</time>
      </trkpt>
      <trkpt lat="42.3155180" lon="-7.2157450">
        <ele>382.1</ele>
        <time>2014-10-01T12:58:09Z</time>
      </trkpt>
      <trkpt lat="42.3154900" lon="-7.2157460">
        <ele>382.3</ele>
        <time>2014-10-01T12:58:10Z</time>
      </trkpt>
      <trkpt lat="42.3154410" lon="-7.2157590">
        <ele>382.7</ele>
        <time>2014-10-01T12:58:12Z</time>
      </trkpt>
      <trkpt lat="42.3154110" lon="-7.2157730">
        <ele>383.0</ele>
        <time>2014-10-01T12:58:13Z</time>
      </trkpt>
      <trkpt lat="42.3153880" lon="-7.2157940">
        <ele>383.2</ele>
        <time>2014-10-01T12:58:14Z</time>
      </trkpt>
      <trkpt lat="42.3153610" lon="-7.2158180">
        <ele>383.5</ele>
        <time>2014-10-01T12:58:15Z</time>
      </trkpt>
      <trkpt lat="42.3153360" lon="-7.2158430">
        <ele>383.7</ele>
        <time>2014-10-01T12:58:16Z</time>
      </trkpt>
      <trkpt lat="42.3153020" lon="-7.2158840">
        <ele>384.1</ele>
        <time>2014-10-01T12:58:18Z</time>
      </trkpt>
      <trkpt lat="42.3152850" lon="-7.2159140">
        <ele>384.3</ele>
        <time>2014-10-01T12:58:19Z</time>
      </trkpt>
      <trkpt lat="42.3152700" lon="-7.2159460">
        <ele>384.6</ele>
        <time>2014-10-01T12:58:20Z</time>
      </trkpt>
      <trkpt lat="42.3152520" lon="-7.2159850">
        <ele>384.9</ele>
        <time>2014-10-01T12:58:21Z</time>
      </trkpt>
      <trkpt lat="42.3152310" lon="-7.2160310">
        <ele>385.2</ele>
        <time>2014-10-01T12:58:22Z</time>
      </trkpt>
      <trkpt lat="42.3152060" lon="-7.2160810">
        <ele>385.6</ele>
        <time>2014-10-01T12:58:23Z</time>
      </trkpt>
      <trkpt lat="42.3151850" lon="-7.2161290">
        <ele>385.8</ele>
        <time>2014-10-01T12:58:24Z</time>
      </trkpt>
      <trkpt lat="42.3151660" lon="-7.2161700">
        <ele>386.1</ele>
        <time>2014-10-01T12:58:25Z</time>
      </trkpt>
      <trkpt lat="42.3151510" lon="-7.2162020">
        <ele>386.2</ele>
        <time>2014-10-01T12:58:26Z</time>
      </trkpt>
      <trkpt lat="42.3151340" lon="-7.2162360">
        <ele>386.4</ele>
        <time>2014-10-01T12:58:27Z</time>
      </trkpt>
      <trkpt lat="42.3151140" lon="-7.2162730">
        <ele>386.6</ele>
        <time>2014-10-01T12:58:28Z</time>
      </trkpt>
      <trkpt lat="42.3150910" lon="-7.2163150">
        <ele>386.8</ele>
        <time>2014-10-01T12:58:29Z</time>
      </trkpt>
      <trkpt lat="42.3150700" lon="-7.2163510">
        <ele>387.0</ele>
        <time>2014-10-01T12:58:30Z</time>
      </trkpt>
      <trkpt lat="42.3150500" lon="-7.2163860">
        <ele>387.2</ele>
        <time>2014-10-01T12:58:31Z</time>
      </trkpt>
      <trkpt lat="42.3150300" lon="-7.2164210">
        <ele>387.5</ele>
        <time>2014-10-01T12:58:32Z</time>
      </trkpt>
      <trkpt lat="42.3150100" lon="-7.2164560">
        <ele>387.7</ele>
        <time>2014-10-01T12:58:33Z</time>
      </trkpt>
      <trkpt lat="42.3149890" lon="-7.2164930">
        <ele>387.9</ele>
        <time>2014-10-01T12:58:34Z</time>
      </trkpt>
      <trkpt lat="42.3149690" lon="-7.2165250">
        <ele>388.1</ele>
        <time>2014-10-01T12:58:35Z</time>
      </trkpt>
      <trkpt lat="42.3149470" lon="-7.2165560">
        <ele>388.3</ele>
        <time>2014-10-01T12:58:36Z</time>
      </trkpt>
      <trkpt lat="42.3149240" lon="-7.2165870">
        <ele>388.5</ele>
        <time>2014-10-01T12:58:37Z</time>
      </trkpt>
      <trkpt lat="42.3149040" lon="-7.2166170">
        <ele>388.7</ele>
        <time>2014-10-01T12:58:38Z</time>
      </trkpt>
      <trkpt lat="42.3148840" lon="-7.2166470">
        <ele>388.9</ele>
        <time>2014-10-01T12:58:39Z</time>
      </trkpt>
      <trkpt lat="42.3148640" lon="-7.2166760">
        <ele>389.0</ele>
        <time>2014-10-01T12:58:40Z</time>
      </trkpt>
      <trkpt lat="42.3148430" lon="-7.2167060">
        <ele>389.2</ele>
        <time>2014-10-01T12:58:41Z</time>
      </trkpt>
      <trkpt lat="42.3148190" lon="-7.2167360">
        <ele>389.3</ele>
        <time>2014-10-01T12:58:42Z</time>
      </trkpt>
      <trkpt lat="42.3147730" lon="-7.2167850">
        <ele>389.6</ele>
        <time>2014-10-01T12:58:44Z</time>
      </trkpt>
      <trkpt lat="42.3147460" lon="-7.2168120">
        <ele>389.8</ele>
        <time>2014-10-01T12:58:45Z</time>
      </trkpt>
      <trkpt lat="42.3147210" lon="-7.2168370">
        <ele>389.9</ele>
        <time>2014-10-01T12:58:46Z</time>
      </trkpt>
      <trkpt lat="42.3146940" lon="-7.2168630">
        <ele>390.1</ele>
        <time>2014-10-01T12:58:47Z</time>
      </trkpt>
      <trkpt lat="42.3146620" lon="-7.2168960">
        <ele>390.3</ele>
        <time>2014-10-01T12:58:48Z</time>
      </trkpt>
      <trkpt lat="42.3146340" lon="-7.2169240">
        <ele>390.5</ele>
        <time>2014-10-01T12:58:49Z</time>
      </trkpt>
      <trkpt lat="42.3146100" lon="-7.2169480">
        <ele>390.7</ele>
        <time>2014-10-01T12:58:50Z</time>
      </trkpt>
      <trkpt lat="42.3145820" lon="-7.2169720">
        <ele>391.0</ele>
        <time>2014-10-01T12:58:51Z</time>
      </trkpt>
      <trkpt lat="42.3145540" lon="-7.2169970">
        <ele>391.3</ele>
        <time>2014-10-01T12:58:52Z</time>
      </trkpt>
      <trkpt lat="42.3145270" lon="-7.2170210">
        <ele>391.5</ele>
        <time>2014-10-01T12:58:53Z</time>
      </trkpt>
      <trkpt lat="42.3145020" lon="-7.2170440">
        <ele>391.8</ele>
        <time>2014-10-01T12:58:54Z</time>
      </trkpt>
      <trkpt lat="42.3144740" lon="-7.2170720">
        <ele>392.0</ele>
        <time>2014-10-01T12:58:55Z</time>
      </trkpt>
      <trkpt lat="42.3144460" lon="-7.2171000">
        <ele>392.3</ele>
        <time>2014-10-01T12:58:56Z</time>
      </trkpt>
      <trkpt lat="42.3144140" lon="-7.2171300">
        <ele>392.7</ele>
        <time>2014-10-01T12:58:57Z</time>
      </trkpt>
      <trkpt lat="42.3143790" lon="-7.2171610">
        <ele>393.0</ele>
        <time>2014-10-01T12:58:58Z</time>
      </trkpt>
      <trkpt lat="42.3143430" lon="-7.2171820">
        <ele>393.3</ele>
        <time>2014-10-01T12:58:59Z</time>
      </trkpt>
      <trkpt lat="42.3143060" lon="-7.2171990">
        <ele>393.6</ele>
        <time>2014-10-01T12:59:00Z</time>
      </trkpt>
      <trkpt lat="42.3142710" lon="-7.2172120">
        <ele>393.9</ele>
        <time>2014-10-01T12:59:01Z</time>
      </trkpt>
      <trkpt lat="42.3142340" lon="-7.2172230">
        <ele>394.1</ele>
        <time>2014-10-01T12:59:02Z</time>
      </trkpt>
      <trkpt lat="42.3141930" lon="-7.2172230">
        <ele>394.4</ele>
        <time>2014-10-01T12:59:03Z</time>
      </trkpt>
      <trkpt lat="42.3141580" lon="-7.2172200">
        <ele>394.6</ele>
        <time>2014-10-01T12:59:04Z</time>
      </trkpt>
      <trkpt lat="42.3141250" lon="-7.2172140">
        <ele>394.8</ele>
        <time>2014-10-01T12:59:05Z</time>
      </trkpt>
      <trkpt lat="42.3140920" lon="-7.2172050">
        <ele>394.9</ele>
        <time>2014-10-01T12:59:06Z</time>
      </trkpt>
      <trkpt lat="42.3140590" lon="-7.2171930">
        <ele>395.1</ele>
        <time>2014-10-01T12:59:07Z</time>
      </trkpt>
      <trkpt lat="42.3140250" lon="-7.2171820">
        <ele>395.3</ele>
        <time>2014-10-01T12:59:08Z</time>
      </trkpt>
      <trkpt lat="42.3139930" lon="-7.2171700">
        <ele>395.4</ele>
        <time>2014-10-01T12:59:09Z</time>
      </trkpt>
      <trkpt lat="42.3139610" lon="-7.2171560">
        <ele>395.6</ele>
        <time>2014-10-01T12:59:10Z</time>
      </trkpt>
      <trkpt lat="42.3139290" lon="-7.2171430">
        <ele>395.8</ele>
        <time>2014-10-01T12:59:11Z</time>
      </trkpt>
      <trkpt lat="42.3138960" lon="-7.2171310">
        <ele>396.0</ele>
        <time>2014-10-01T12:59:12Z</time>
      </trkpt>
      <trkpt lat="42.3138670" lon="-7.2171180">
        <ele>396.1</ele>
        <time>2014-10-01T12:59:13Z</time>
      </trkpt>
      <trkpt lat="42.3138380" lon="-7.2171060">
        <ele>396.3</ele>
        <time>2014-10-01T12:59:14Z</time>
      </trkpt>
      <trkpt lat="42.3138050" lon="-7.2170930">
        <ele>396.5</ele>
        <time>2014-10-01T12:59:15Z</time>
      </trkpt>
      <trkpt lat="42.3137720" lon="-7.2170790">
        <ele>396.7</ele>
        <time>2014-10-01T12:59:16Z</time>
      </trkpt>
      <trkpt lat="42.3137460" lon="-7.2170670">
        <ele>396.9</ele>
        <time>2014-10-01T12:59:17Z</time>
      </trkpt>
      <trkpt lat="42.3136970" lon="-7.2170410">
        <ele>397.3</ele>
        <time>2014-10-01T12:59:19Z</time>
      </trkpt>
      <trkpt lat="42.3136690" lon="-7.2170270">
        <ele>397.5</ele>
        <time>2014-10-01T12:59:20Z</time>
      </trkpt>
      <trkpt lat="42.3136400" lon="-7.2170130">
        <ele>397.7</ele>
        <time>2014-10-01T12:59:21Z</time>
      </trkpt>
      <trkpt lat="42.3136120" lon="-7.2169990">
        <ele>398.0</ele>
        <time>2014-10-01T12:59:22Z</time>
      </trkpt>
      <trkpt lat="42.3135830" lon="-7.2169840">
        <ele>398.2</ele>
        <time>2014-10-01T12:59:23Z</time>
      </trkpt>
      <trkpt lat="42.3135520" lon="-7.2169690">
        <ele>398.5</ele>
        <time>2014-10-01T12:59:24Z</time>
      </trkpt>
      <trkpt lat="42.3135180" lon="-7.2169540">
        <ele>398.7</ele>
        <time>2014-10-01T12:59:25Z</time>
      </trkpt>
      <trkpt lat="42.3134840" lon="-7.2169410">
        <ele>399.0</ele>
        <time>2014-10-01T12:59:26Z</time>
      </trkpt>
      <trkpt lat="42.3134510" lon="-7.2169270">
        <ele>399.2</ele>
        <time>2014-10-01T12:59:27Z</time>
      </trkpt>
      <trkpt lat="42.3134180" lon="-7.2169120">
        <ele>399.4</ele>
        <time>2014-10-01T12:59:28Z</time>
      </trkpt>
      <trkpt lat="42.3133870" lon="-7.2168960">
        <ele>399.6</ele>
        <time>2014-10-01T12:59:29Z</time>
      </trkpt>
      <trkpt lat="42.3133560" lon="-7.2168760">
        <ele>399.9</ele>
        <time>2014-10-01T12:59:30Z</time>
      </trkpt>
      <trkpt lat="42.3133270" lon="-7.2168580">
        <ele>400.1</ele>
        <time>2014-10-01T12:59:31Z</time>
      </trkpt>
      <trkpt lat="42.3132990" lon="-7.2168360">
        <ele>400.4</ele>
        <time>2014-10-01T12:59:32Z</time>
      </trkpt>
      <trkpt lat="42.3132700" lon="-7.2168140">
        <ele>400.6</ele>
        <time>2014-10-01T12:59:33Z</time>
      </trkpt>
      <trkpt lat="42.3132420" lon="-7.2167890">
        <ele>400.9</ele>
        <time>2014-10-01T12:59:34Z</time>
      </trkpt>
      <trkpt lat="42.3132130" lon="-7.2167620">
        <ele>401.2</ele>
        <time>2014-10-01T12:59:35Z</time>
      </trkpt>
      <trkpt lat="42.3131830" lon="-7.2167350">
        <ele>401.5</ele>
        <time>2014-10-01T12:59:36Z</time>
      </trkpt>
      <trkpt lat="42.3131560" lon="-7.2167060">
        <ele>401.8</ele>
        <time>2014-10-01T12:59:37Z</time>
      </trkpt>
      <trkpt lat="42.3131270" lon="-7.2166750">
        <ele>402.1</ele>
        <time>2014-10-01T12:59:38Z</time>
      </trkpt>
      <trkpt lat="42.3131010" lon="-7.2166430">
        <ele>402.4</ele>
        <time>2014-10-01T12:59:39Z</time>
      </trkpt>
      <trkpt lat="42.3130810" lon="-7.2166020">
        <ele>402.6</ele>
        <time>2014-10-01T12:59:40Z</time>
      </trkpt>
      <trkpt lat="42.3130600" lon="-7.2165600">
        <ele>402.9</ele>
        <time>2014-10-01T12:59:41Z</time>
      </trkpt>
      <trkpt lat="42.3130390" lon="-7.2165150">
        <ele>403.1</ele>
        <time>2014-10-01T12:59:42Z</time>
      </trkpt>
      <trkpt lat="42.3130180" lon="-7.2164710">
        <ele>403.4</ele>
        <time>2014-10-01T12:59:43Z</time>
      </trkpt>
      <trkpt lat="42.3129990" lon="-7.2164260">
        <ele>403.7</ele>
        <time>2014-10-01T12:59:44Z</time>
      </trkpt>
      <trkpt lat="42.3129810" lon="-7.2163830">
        <ele>404.0</ele>
        <time>2014-10-01T12:59:45Z</time>
      </trkpt>
      <trkpt lat="42.3129630" lon="-7.2163330">
        <ele>404.3</ele>
        <time>2014-10-01T12:59:46Z</time>
      </trkpt>
      <trkpt lat="42.3129460" lon="-7.2162870">
        <ele>404.6</ele>
        <time>2014-10-01T12:59:47Z</time>
      </trkpt>
      <trkpt lat="42.3129310" lon="-7.2162440">
        <ele>404.8</ele>
        <time>2014-10-01T12:59:48Z</time>
      </trkpt>
      <trkpt lat="42.3129150" lon="-7.2162000">
        <ele>405.0</ele>
        <time>2014-10-01T12:59:49Z</time>
      </trkpt>
      <trkpt lat="42.3128990" lon="-7.2161600">
        <ele>405.2</ele>
        <time>2014-10-01T12:59:50Z</time>
      </trkpt>
      <trkpt lat="42.3128790" lon="-7.2161200">
        <ele>405.5</ele>
        <time>2014-10-01T12:59:51Z</time>
      </trkpt>
      <trkpt lat="42.3128640" lon="-7.2160880">
        <ele>405.6</ele>
        <time>2014-10-01T12:59:52Z</time>
      </trkpt>
      <trkpt lat="42.3128440" lon="-7.2160530">
        <ele>405.8</ele>
        <time>2014-10-01T12:59:53Z</time>
      </trkpt>
      <trkpt lat="42.3128240" lon="-7.2160190">
        <ele>406.1</ele>
        <time>2014-10-01T12:59:54Z</time>
      </trkpt>
      <trkpt lat="42.3128000" lon="-7.2159840">
        <ele>406.3</ele>
        <time>2014-10-01T12:59:55Z</time>
      </trkpt>
      <trkpt lat="42.3127800" lon="-7.2159510">
        <ele>406.5</ele>
        <time>2014-10-01T12:59:56Z</time>
      </trkpt>
      <trkpt lat="42.3127620" lon="-7.2159170">
        <ele>406.7</ele>
        <time>2014-10-01T12:59:57Z</time>
      </trkpt>
      <trkpt lat="42.3127430" lon="-7.2158790">
        <ele>406.9</ele>
        <time>2014-10-01T12:59:58Z</time>
      </trkpt>
      <trkpt lat="42.3127260" lon="-7.2158410">
        <ele>407.2</ele>
        <time>2014-10-01T12:59:59Z</time>
      </trkpt>
      <trkpt lat="42.3127090" lon="-7.2158030">
        <ele>407.4</ele>
        <time>2014-10-01T13:00:00Z</time>
      </trkpt>
      <trkpt lat="42.3126890" lon="-7.2157590">
        <ele>407.6</ele>
        <time>2014-10-01T13:00:01Z</time>
      </trkpt>
      <trkpt lat="42.3126690" lon="-7.2157210">
        <ele>407.8</ele>
        <time>2014-10-01T13:00:02Z</time>
      </trkpt>
      <trkpt lat="42.3126490" lon="-7.2156790">
        <ele>408.1</ele>
        <time>2014-10-01T13:00:03Z</time>
      </trkpt>
      <trkpt lat="42.3126310" lon="-7.2156420">
        <ele>408.3</ele>
        <time>2014-10-01T13:00:04Z</time>
      </trkpt>
      <trkpt lat="42.3126130" lon="-7.2156040">
        <ele>408.4</ele>
        <time>2014-10-01T13:00:05Z</time>
      </trkpt>
      <trkpt lat="42.3125940" lon="-7.2155660">
        <ele>408.6</ele>
        <time>2014-10-01T13:00:06Z</time>
      </trkpt>
      <trkpt lat="42.3125740" lon="-7.2155270">
        <ele>408.8</ele>
        <time>2014-10-01T13:00:07Z</time>
      </trkpt>
      <trkpt lat="42.3125560" lon="-7.2154920">
        <ele>409.0</ele>
        <time>2014-10-01T13:00:08Z</time>
      </trkpt>
      <trkpt lat="42.3125380" lon="-7.2154590">
        <ele>409.2</ele>
        <time>2014-10-01T13:00:09Z</time>
      </trkpt>
      <trkpt lat="42.3125200" lon="-7.2154250">
        <ele>409.4</ele>
        <time>2014-10-01T13:00:10Z</time>
      </trkpt>
      <trkpt lat="42.3124990" lon="-7.2153870">
        <ele>409.6</ele>
        <time>2014-10-01T13:00:11Z</time>
      </trkpt>
      <trkpt lat="42.3124780" lon="-7.2153530">
        <ele>409.9</ele>
        <time>2014-10-01T13:00:12Z</time>
      </trkpt>
      <trkpt lat="42.3124560" lon="-7.2153230">
        <ele>410.1</ele>
        <time>2014-10-01T13:00:13Z</time>
      </trkpt>
      <trkpt lat="42.3124340" lon="-7.2152940">
        <ele>410.3</ele>
        <time>2014-10-01T13:00:14Z</time>
      </trkpt>
      <trkpt lat="42.3124040" lon="-7.2152750">
        <ele>410.6</ele>
        <time>2014-10-01T13:00:15Z</time>
      </trkpt>
      <trkpt lat="42.3123750" lon="-7.2152560">
        <ele>410.8</ele>
        <time>2014-10-01T13:00:16Z</time>
      </trkpt>
      <trkpt lat="42.3123430" lon="-7.2152360">
        <ele>411.1</ele>
        <time>2014-10-01T13:00:17Z</time>
      </trkpt>
      <trkpt lat="42.3123040" lon="-7.2152180">
        <ele>411.4</ele>
        <time>2014-10-01T13:00:18Z</time>
      </trkpt>
      <trkpt lat="42.3122690" lon="-7.2152020">
        <ele>411.7</ele>
        <time>2014-10-01T13:00:19Z</time>
      </trkpt>
      <trkpt lat="42.3122360" lon="-7.2151890">
        <ele>411.9</ele>
        <time>2014-10-01T13:00:20Z</time>
      </trkpt>
      <trkpt lat="42.3122020" lon="-7.2151790">
        <ele>412.1</ele>
        <time>2014-10-01T13:00:21Z</time>
      </trkpt>
      <trkpt lat="42.3121690" lon="-7.2151690">
        <ele>412.3</ele>
        <time>2014-10-01T13:00:22Z</time>
      </trkpt>
      <trkpt lat="42.3121360" lon="-7.2151600">
        <ele>412.5</ele>
        <time>2014-10-01T13:00:23Z</time>
      </trkpt>
      <trkpt lat="42.3121000" lon="-7.2151500">
        <ele>412.7</ele>
        <time>2014-10-01T13:00:24Z</time>
      </trkpt>
      <trkpt lat="42.3120700" lon="-7.2151440">
        <ele>412.9</ele>
        <time>2014-10-01T13:00:25Z</time>
      </trkpt>
      <trkpt lat="42.3120380" lon="-7.2151360">
        <ele>413.1</ele>
        <time>2014-10-01T13:00:26Z</time>
      </trkpt>
      <trkpt lat="42.3120050" lon="-7.2151290">
        <ele>413.3</ele>
        <time>2014-10-01T13:00:27Z</time>
      </trkpt>
      <trkpt lat="42.3119640" lon="-7.2151220">
        <ele>413.5</ele>
        <time>2014-10-01T13:00:28Z</time>
      </trkpt>
      <trkpt lat="42.3119220" lon="-7.2151150">
        <ele>413.8</ele>
        <time>2014-10-01T13:00:29Z</time>
      </trkpt>
      <trkpt lat="42.3118820" lon="-7.2151080">
        <ele>414.1</ele>
        <time>2014-10-01T13:00:30Z</time>
      </trkpt>
      <trkpt lat="42.3118430" lon="-7.2151030">
        <ele>414.3</ele>
        <time>2014-10-01T13:00:31Z</time>
      </trkpt>
      <trkpt lat="42.3118110" lon="-7.2151000">
        <ele>414.5</ele>
        <time>2014-10-01T13:00:32Z</time>
      </trkpt>
      <trkpt lat="42.3117770" lon="-7.2150960">
        <ele>414.8</ele>
        <time>2014-10-01T13:00:33Z</time>
      </trkpt>
      <trkpt lat="42.3117420" lon="-7.2150930">
        <ele>415.0</ele>
        <time>2014-10-01T13:00:34Z</time>
      </trkpt>
      <trkpt lat="42.3117110" lon="-7.2150910">
        <ele>415.2</ele>
        <time>2014-10-01T13:00:35Z</time>
      </trkpt>
      <trkpt lat="42.3116800" lon="-7.2150970">
        <ele>415.4</ele>
        <time>2014-10-01T13:00:36Z</time>
      </trkpt>
      <trkpt lat="42.3116440" lon="-7.2151020">
        <ele>415.6</ele>
        <time>2014-10-01T13:00:37Z</time>
      </trkpt>
      <trkpt lat="42.3116130" lon="-7.2151070">
        <ele>415.7</ele>
        <time>2014-10-01T13:00:38Z</time>
      </trkpt>
      <trkpt lat="42.3115750" lon="-7.2151110">
        <ele>415.8</ele>
        <time>2014-10-01T13:00:39Z</time>
      </trkpt>
      <trkpt lat="42.3115450" lon="-7.2151250">
        <ele>415.7</ele>
        <time>2014-10-01T13:00:40Z</time>
      </trkpt>
      <trkpt lat="42.3115150" lon="-7.2151420">
        <ele>415.8</ele>
        <time>2014-10-01T13:00:41Z</time>
      </trkpt>
      <trkpt lat="42.3114870" lon="-7.2151600">
        <ele>416.0</ele>
        <time>2014-10-01T13:00:42Z</time>
      </trkpt>
      <trkpt lat="42.3114520" lon="-7.2151820">
        <ele>416.3</ele>
        <time>2014-10-01T13:00:43Z</time>
      </trkpt>
      <trkpt lat="42.3114180" lon="-7.2152040">
        <ele>416.6</ele>
        <time>2014-10-01T13:00:44Z</time>
      </trkpt>
      <trkpt lat="42.3113840" lon="-7.2152290">
        <ele>416.9</ele>
        <time>2014-10-01T13:00:45Z</time>
      </trkpt>
      <trkpt lat="42.3113520" lon="-7.2152540">
        <ele>417.1</ele>
        <time>2014-10-01T13:00:46Z</time>
      </trkpt>
      <trkpt lat="42.3113220" lon="-7.2152800">
        <ele>417.4</ele>
        <time>2014-10-01T13:00:47Z</time>
      </trkpt>
      <trkpt lat="42.3112990" lon="-7.2153060">
        <ele>417.6</ele>
        <time>2014-10-01T13:00:48Z</time>
      </trkpt>
      <trkpt lat="42.3112720" lon="-7.2153350">
        <ele>417.9</ele>
        <time>2014-10-01T13:00:49Z</time>
      </trkpt>
      <trkpt lat="42.3112340" lon="-7.2153860">
        <ele>418.3</ele>
        <time>2014-10-01T13:00:51Z</time>
      </trkpt>
      <trkpt lat="42.3112090" lon="-7.2154190">
        <ele>418.6</ele>
        <time>2014-10-01T13:00:52Z</time>
      </trkpt>
      <trkpt lat="42.3111790" lon="-7.2154550">
        <ele>418.9</ele>
        <time>2014-10-01T13:00:53Z</time>
      </trkpt>
      <trkpt lat="42.3111500" lon="-7.2154910">
        <ele>419.2</ele>
        <time>2014-10-01T13:00:54Z</time>
      </trkpt>
      <trkpt lat="42.3111280" lon="-7.2155190">
        <ele>419.5</ele>
        <time>2014-10-01T13:00:55Z</time>
      </trkpt>
      <trkpt lat="42.3111000" lon="-7.2155480">
        <ele>419.7</ele>
        <time>2014-10-01T13:00:56Z</time>
      </trkpt>
      <trkpt lat="42.3110570" lon="-7.2155910">
        <ele>420.1</ele>
        <time>2014-10-01T13:00:58Z</time>
      </trkpt>
      <trkpt lat="42.3110070" lon="-7.2156350">
        <ele>420.5</ele>
        <time>2014-10-01T13:01:00Z</time>
      </trkpt>
      <trkpt lat="42.3109790" lon="-7.2156570">
        <ele>420.7</ele>
        <time>2014-10-01T13:01:01Z</time>
      </trkpt>
      <trkpt lat="42.3109490" lon="-7.2156750">
        <ele>420.9</ele>
        <time>2014-10-01T13:01:02Z</time>
      </trkpt>
      <trkpt lat="42.3109160" lon="-7.2156950">
        <ele>421.2</ele>
        <time>2014-10-01T13:01:03Z</time>
      </trkpt>
      <trkpt lat="42.3108820" lon="-7.2157140">
        <ele>421.4</ele>
        <time>2014-10-01T13:01:04Z</time>
      </trkpt>
      <trkpt lat="42.3108450" lon="-7.2157330">
        <ele>421.6</ele>
        <time>2014-10-01T13:01:05Z</time>
      </trkpt>
      <trkpt lat="42.3108120" lon="-7.2157480">
        <ele>421.9</ele>
        <time>2014-10-01T13:01:06Z</time>
      </trkpt>
      <trkpt lat="42.3107770" lon="-7.2157670">
        <ele>422.1</ele>
        <time>2014-10-01T13:01:07Z</time>
      </trkpt>
      <trkpt lat="42.3107500" lon="-7.2157800">
        <ele>422.3</ele>
        <time>2014-10-01T13:01:08Z</time>
      </trkpt>
      <trkpt lat="42.3107230" lon="-7.2157900">
        <ele>422.5</ele>
        <time>2014-10-01T13:01:09Z</time>
      </trkpt>
      <trkpt lat="42.3106910" lon="-7.2158010">
        <ele>422.7</ele>
        <time>2014-10-01T13:01:10Z</time>
      </trkpt>
      <trkpt lat="42.3106560" lon="-7.2158130">
        <ele>422.9</ele>
        <time>2014-10-01T13:01:11Z</time>
      </trkpt>
      <trkpt lat="42.3106220" lon="-7.2158240">
        <ele>423.1</ele>
        <time>2014-10-01T13:01:12Z</time>
      </trkpt>
      <trkpt lat="42.3105830" lon="-7.2158360">
        <ele>423.4</ele>
        <time>2014-10-01T13:01:13Z</time>
      </trkpt>
      <trkpt lat="42.3105510" lon="-7.2158470">
        <ele>423.6</ele>
        <time>2014-10-01T13:01:14Z</time>
      </trkpt>
      <trkpt lat="42.3105240" lon="-7.2158560">
        <ele>423.7</ele>
        <time>2014-10-01T13:01:15Z</time>
      </trkpt>
      <trkpt lat="42.3104950" lon="-7.2158670">
        <ele>424.0</ele>
        <time>2014-10-01T13:01:16Z</time>
      </trkpt>
      <trkpt lat="42.3104630" lon="-7.2158810">
        <ele>424.2</ele>
        <time>2014-10-01T13:01:17Z</time>
      </trkpt>
      <trkpt lat="42.3104290" lon="-7.2158970">
        <ele>424.4</ele>
        <time>2014-10-01T13:01:18Z</time>
      </trkpt>
      <trkpt lat="42.3104010" lon="-7.2159130">
        <ele>424.6</ele>
        <time>2014-10-01T13:01:19Z</time>
      </trkpt>
      <trkpt lat="42.3103710" lon="-7.2159340">
        <ele>424.9</ele>
        <time>2014-10-01T13:01:20Z</time>
      </trkpt>
      <trkpt lat="42.3103470" lon="-7.2159510">
        <ele>425.1</ele>
        <time>2014-10-01T13:01:21Z</time>
      </trkpt>
      <trkpt lat="42.3103190" lon="-7.2159730">
        <ele>425.3</ele>
        <time>2014-10-01T13:01:22Z</time>
      </trkpt>
      <trkpt lat="42.3102880" lon="-7.2159970">
        <ele>425.5</ele>
        <time>2014-10-01T13:01:23Z</time>
      </trkpt>
      <trkpt lat="42.3102550" lon="-7.2160190">
        <ele>425.8</ele>
        <time>2014-10-01T13:01:24Z</time>
      </trkpt>
      <trkpt lat="42.3102210" lon="-7.2160410">
        <ele>426.0</ele>
        <time>2014-10-01T13:01:25Z</time>
      </trkpt>
      <trkpt lat="42.3101850" lon="-7.2160620">
        <ele>426.3</ele>
        <time>2014-10-01T13:01:26Z</time>
      </trkpt>
      <trkpt lat="42.3101580" lon="-7.2160810">
        <ele>426.5</ele>
        <time>2014-10-01T13:01:27Z</time>
      </trkpt>
      <trkpt lat="42.3101310" lon="-7.2161030">
        <ele>426.8</ele>
        <time>2014-10-01T13:01:28Z</time>
      </trkpt>
      <trkpt lat="42.3101050" lon="-7.2161230">
        <ele>427.0</ele>
        <time>2014-10-01T13:01:29Z</time>
      </trkpt>
      <trkpt lat="42.3100770" lon="-7.2161450">
        <ele>427.2</ele>
        <time>2014-10-01T13:01:30Z</time>
      </trkpt>
      <trkpt lat="42.3100490" lon="-7.2161710">
        <ele>427.4</ele>
        <time>2014-10-01T13:01:31Z</time>
      </trkpt>
      <trkpt lat="42.3100210" lon="-7.2161980">
        <ele>427.7</ele>
        <time>2014-10-01T13:01:32Z</time>
      </trkpt>
      <trkpt lat="42.3099920" lon="-7.2162270">
        <ele>427.9</ele>
        <time>2014-10-01T13:01:33Z</time>
      </trkpt>
      <trkpt lat="42.3099660" lon="-7.2162540">
        <ele>428.1</ele>
        <time>2014-10-01T13:01:34Z</time>
      </trkpt>
      <trkpt lat="42.3099430" lon="-7.2162810">
        <ele>428.2</ele>
        <time>2014-10-01T13:01:35Z</time>
      </trkpt>
      <trkpt lat="42.3099220" lon="-7.2163070">
        <ele>428.4</ele>
        <time>2014-10-01T13:01:36Z</time>
      </trkpt>
      <trkpt lat="42.3098980" lon="-7.2163350">
        <ele>428.6</ele>
        <time>2014-10-01T13:01:37Z</time>
      </trkpt>
      <trkpt lat="42.3098760" lon="-7.2163640">
        <ele>428.8</ele>
        <time>2014-10-01T13:01:38Z</time>
      </trkpt>
      <trkpt lat="42.3098540" lon="-7.2163920">
        <ele>429.0</ele>
        <time>2014-10-01T13:01:39Z</time>
      </trkpt>
      <trkpt lat="42.3098330" lon="-7.2164210">
        <ele>429.2</ele>
        <time>2014-10-01T13:01:40Z</time>
      </trkpt>
      <trkpt lat="42.3098100" lon="-7.2164550">
        <ele>429.4</ele>
        <time>2014-10-01T13:01:41Z</time>
      </trkpt>
      <trkpt lat="42.3097920" lon="-7.2164880">
        <ele>429.6</ele>
        <time>2014-10-01T13:01:42Z</time>
      </trkpt>
      <trkpt lat="42.3097750" lon="-7.2165200">
        <ele>429.8</ele>
        <time>2014-10-01T13:01:43Z</time>
      </trkpt>
      <trkpt lat="42.3097540" lon="-7.2165530">
        <ele>430.1</ele>
        <time>2014-10-01T13:01:44Z</time>
      </trkpt>
      <trkpt lat="42.3097290" lon="-7.2165940">
        <ele>430.3</ele>
        <time>2014-10-01T13:01:45Z</time>
      </trkpt>
      <trkpt lat="42.3097100" lon="-7.2166320">
        <ele>430.5</ele>
        <time>2014-10-01T13:01:46Z</time>
      </trkpt>
      <trkpt lat="42.3096910" lon="-7.2166710">
        <ele>430.7</ele>
        <time>2014-10-01T13:01:47Z</time>
      </trkpt>
      <trkpt lat="42.3096690" lon="-7.2167100">
        <ele>430.9</ele>
        <time>2014-10-01T13:01:48Z</time>
      </trkpt>
      <trkpt lat="42.3096460" lon="-7.2167470">
        <ele>431.1</ele>
        <time>2014-10-01T13:01:49Z</time>
      </trkpt>
      <trkpt lat="42.3096300" lon="-7.2167830">
        <ele>431.2</ele>
        <time>2014-10-01T13:01:50Z</time>
      </trkpt>
      <trkpt lat="42.3096130" lon="-7.2168220">
        <ele>431.4</ele>
        <time>2014-10-01T13:01:51Z</time>
      </trkpt>
      <trkpt lat="42.3095930" lon="-7.2168570">
        <ele>431.6</ele>
        <time>2014-10-01T13:01:52Z</time>
      </trkpt>
      <trkpt lat="42.3095740" lon="-7.2169010">
        <ele>431.9</ele>
        <time>2014-10-01T13:01:53Z</time>
      </trkpt>
      <trkpt lat="42.3095600" lon="-7.2169400">
        <ele>432.2</ele>
        <time>2014-10-01T13:01:54Z</time>
      </trkpt>
      <trkpt lat="42.3095390" lon="-7.2169850">
        <ele>432.4</ele>
        <time>2014-10-01T13:01:55Z</time>
      </trkpt>
      <trkpt lat="42.3095190" lon="-7.2170330">
        <ele>432.7</ele>
        <time>2014-10-01T13:01:56Z</time>
      </trkpt>
      <trkpt lat="42.3095080" lon="-7.2170760">
        <ele>432.9</ele>
        <time>2014-10-01T13:01:57Z</time>
      </trkpt>
      <trkpt lat="42.3094950" lon="-7.2171240">
        <ele>433.2</ele>
        <time>2014-10-01T13:01:58Z</time>
      </trkpt>
      <trkpt lat="42.3094820" lon="-7.2171670">
        <ele>433.4</ele>
        <time>2014-10-01T13:01:59Z</time>
      </trkpt>
      <trkpt lat="42.3094700" lon="-7.2172070">
        <ele>433.6</ele>
        <time>2014-10-01T13:02:00Z</time>
      </trkpt>
      <trkpt lat="42.3094560" lon="-7.2172490">
        <ele>433.9</ele>
        <time>2014-10-01T13:02:01Z</time>
      </trkpt>
      <trkpt lat="42.3094460" lon="-7.2172900">
        <ele>434.1</ele>
        <time>2014-10-01T13:02:02Z</time>
      </trkpt>
      <trkpt lat="42.3094390" lon="-7.2173350">
        <ele>434.4</ele>
        <time>2014-10-01T13:02:03Z</time>
      </trkpt>
      <trkpt lat="42.3094270" lon="-7.2173780">
        <ele>434.6</ele>
        <time>2014-10-01T13:02:04Z</time>
      </trkpt>
      <trkpt lat="42.3094100" lon="-7.2174200">
        <ele>434.9</ele>
        <time>2014-10-01T13:02:05Z</time>
      </trkpt>
      <trkpt lat="42.3093910" lon="-7.2174580">
        <ele>435.2</ele>
        <time>2014-10-01T13:02:06Z</time>
      </trkpt>
      <trkpt lat="42.3093690" lon="-7.2174940">
        <ele>435.4</ele>
        <time>2014-10-01T13:02:07Z</time>
      </trkpt>
      <trkpt lat="42.3093520" lon="-7.2175260">
        <ele>435.7</ele>
        <time>2014-10-01T13:02:08Z</time>
      </trkpt>
      <trkpt lat="42.3093300" lon="-7.2175560">
        <ele>435.9</ele>
        <time>2014-10-01T13:02:09Z</time>
      </trkpt>
      <trkpt lat="42.3093080" lon="-7.2175850">
        <ele>436.1</ele>
        <time>2014-10-01T13:02:10Z</time>
      </trkpt>
      <trkpt lat="42.3092840" lon="-7.2176120">
        <ele>436.2</ele>
        <time>2014-10-01T13:02:11Z</time>
      </trkpt>
      <trkpt lat="42.3092620" lon="-7.2176440">
        <ele>436.4</ele>
        <time>2014-10-01T13:02:12Z</time>
      </trkpt>
      <trkpt lat="42.3092360" lon="-7.2176730">
        <ele>436.6</ele>
        <time>2014-10-01T13:02:13Z</time>
      </trkpt>
      <trkpt lat="42.3092050" lon="-7.2177040">
        <ele>436.9</ele>
        <time>2014-10-01T13:02:14Z</time>
      </trkpt>
      <trkpt lat="42.3091820" lon="-7.2177300">
        <ele>437.0</ele>
        <time>2014-10-01T13:02:15Z</time>
      </trkpt>
      <trkpt lat="42.3091580" lon="-7.2177530">
        <ele>437.2</ele>
        <time>2014-10-01T13:02:16Z</time>
      </trkpt>
      <trkpt lat="42.3091170" lon="-7.2177950">
        <ele>437.5</ele>
        <time>2014-10-01T13:02:18Z</time>
      </trkpt>
      <trkpt lat="42.3090890" lon="-7.2178190">
        <ele>437.7</ele>
        <time>2014-10-01T13:02:19Z</time>
      </trkpt>
      <trkpt lat="42.3090580" lon="-7.2178490">
        <ele>438.0</ele>
        <time>2014-10-01T13:02:20Z</time>
      </trkpt>
      <trkpt lat="42.3090340" lon="-7.2178740">
        <ele>438.1</ele>
        <time>2014-10-01T13:02:21Z</time>
      </trkpt>
      <trkpt lat="42.3090100" lon="-7.2179010">
        <ele>438.3</ele>
        <time>2014-10-01T13:02:22Z</time>
      </trkpt>
      <trkpt lat="42.3089850" lon="-7.2179270">
        <ele>438.5</ele>
        <time>2014-10-01T13:02:23Z</time>
      </trkpt>
      <trkpt lat="42.3089620" lon="-7.2179520">
        <ele>438.7</ele>
        <time>2014-10-01T13:02:24Z</time>
      </trkpt>
      <trkpt lat="42.3089160" lon="-7.2179930">
        <ele>439.0</ele>
        <time>2014-10-01T13:02:26Z</time>
      </trkpt>
      <trkpt lat="42.3088860" lon="-7.2180120">
        <ele>439.2</ele>
        <time>2014-10-01T13:02:27Z</time>
      </trkpt>
      <trkpt lat="42.3088550" lon="-7.2180260">
        <ele>439.4</ele>
        <time>2014-10-01T13:02:28Z</time>
      </trkpt>
      <trkpt lat="42.3088220" lon="-7.2180370">
        <ele>439.6</ele>
        <time>2014-10-01T13:02:29Z</time>
      </trkpt>
      <trkpt lat="42.3087870" lon="-7.2180520">
        <ele>439.8</ele>
        <time>2014-10-01T13:02:30Z</time>
      </trkpt>
      <trkpt lat="42.3087560" lon="-7.2180680">
        <ele>440.0</ele>
        <time>2014-10-01T13:02:31Z</time>
      </trkpt>
      <trkpt lat="42.3087210" lon="-7.2180860">
        <ele>440.2</ele>
        <time>2014-10-01T13:02:32Z</time>
      </trkpt>
      <trkpt lat="42.3086770" lon="-7.2181090">
        <ele>440.5</ele>
        <time>2014-10-01T13:02:33Z</time>
      </trkpt>
      <trkpt lat="42.3086340" lon="-7.2181250">
        <ele>440.8</ele>
        <time>2014-10-01T13:02:34Z</time>
      </trkpt>
      <trkpt lat="42.3085970" lon="-7.2181410">
        <ele>441.0</ele>
        <time>2014-10-01T13:02:35Z</time>
      </trkpt>
      <trkpt lat="42.3085680" lon="-7.2181580">
        <ele>441.2</ele>
        <time>2014-10-01T13:02:36Z</time>
      </trkpt>
      <trkpt lat="42.3085350" lon="-7.2181800">
        <ele>441.5</ele>
        <time>2014-10-01T13:02:37Z</time>
      </trkpt>
      <trkpt lat="42.3084980" lon="-7.2181990">
        <ele>441.7</ele>
        <time>2014-10-01T13:02:38Z</time>
      </trkpt>
      <trkpt lat="42.3084630" lon="-7.2182200">
        <ele>442.0</ele>
        <time>2014-10-01T13:02:39Z</time>
      </trkpt>
      <trkpt lat="42.3084270" lon="-7.2182400">
        <ele>442.2</ele>
        <time>2014-10-01T13:02:40Z</time>
      </trkpt>
      <trkpt lat="42.3083940" lon="-7.2182610">
        <ele>442.4</ele>
        <time>2014-10-01T13:02:41Z</time>
      </trkpt>
      <trkpt lat="42.3083600" lon="-7.2182810">
        <ele>442.6</ele>
        <time>2014-10-01T13:02:42Z</time>
      </trkpt>
      <trkpt lat="42.3083230" lon="-7.2183030">
        <ele>442.8</ele>
        <time>2014-10-01T13:02:43Z</time>
      </trkpt>
      <trkpt lat="42.3082890" lon="-7.2183230">
        <ele>443.0</ele>
        <time>2014-10-01T13:02:44Z</time>
      </trkpt>
      <trkpt lat="42.3082560" lon="-7.2183360">
        <ele>443.2</ele>
        <time>2014-10-01T13:02:45Z</time>
      </trkpt>
      <trkpt lat="42.3082230" lon="-7.2183410">
        <ele>443.4</ele>
        <time>2014-10-01T13:02:46Z</time>
      </trkpt>
      <trkpt lat="42.3081860" lon="-7.2183420">
        <ele>443.6</ele>
        <time>2014-10-01T13:02:47Z</time>
      </trkpt>
      <trkpt lat="42.3081450" lon="-7.2183380">
        <ele>443.8</ele>
        <time>2014-10-01T13:02:48Z</time>
      </trkpt>
      <trkpt lat="42.3081020" lon="-7.2183310">
        <ele>444.0</ele>
        <time>2014-10-01T13:02:49Z</time>
      </trkpt>
      <trkpt lat="42.3080610" lon="-7.2183190">
        <ele>444.2</ele>
        <time>2014-10-01T13:02:50Z</time>
      </trkpt>
      <trkpt lat="42.3080240" lon="-7.2183020">
        <ele>444.4</ele>
        <time>2014-10-01T13:02:51Z</time>
      </trkpt>
      <trkpt lat="42.3079930" lon="-7.2182800">
        <ele>444.6</ele>
        <time>2014-10-01T13:02:52Z</time>
      </trkpt>
      <trkpt lat="42.3079590" lon="-7.2182580">
        <ele>444.8</ele>
        <time>2014-10-01T13:02:53Z</time>
      </trkpt>
      <trkpt lat="42.3079270" lon="-7.2182370">
        <ele>445.0</ele>
        <time>2014-10-01T13:02:54Z</time>
      </trkpt>
      <trkpt lat="42.3078910" lon="-7.2182170">
        <ele>445.2</ele>
        <time>2014-10-01T13:02:55Z</time>
      </trkpt>
      <trkpt lat="42.3078590" lon="-7.2182000">
        <ele>445.4</ele>
        <time>2014-10-01T13:02:56Z</time>
      </trkpt>
      <trkpt lat="42.3078270" lon="-7.2181850">
        <ele>445.6</ele>
        <time>2014-10-01T13:02:57Z</time>
      </trkpt>
      <trkpt lat="42.3077970" lon="-7.2181730">
        <ele>445.8</ele>
        <time>2014-10-01T13:02:58Z</time>
      </trkpt>
      <trkpt lat="42.3077660" lon="-7.2181620">
        <ele>445.9</ele>
        <time>2014-10-01T13:02:59Z</time>
      </trkpt>
      <trkpt lat="42.3077310" lon="-7.2181600">
        <ele>446.1</ele>
        <time>2014-10-01T13:03:00Z</time>
      </trkpt>
      <trkpt lat="42.3076970" lon="-7.2181730">
        <ele>446.3</ele>
        <time>2014-10-01T13:03:01Z</time>
      </trkpt>
      <trkpt lat="42.3076720" lon="-7.2182060">
        <ele>446.5</ele>
        <time>2014-10-01T13:03:02Z</time>
      </trkpt>
      <trkpt lat="42.3076640" lon="-7.2182530">
        <ele>446.7</ele>
        <time>2014-10-01T13:03:03Z</time>
      </trkpt>
      <trkpt lat="42.3076690" lon="-7.2183000">
        <ele>447.3</ele>
        <time>2014-10-01T13:03:04Z</time>
      </trkpt>
      <trkpt lat="42.3076840" lon="-7.2183340">
        <ele>447.5</ele>
        <time>2014-10-01T13:03:05Z</time>
      </trkpt>
      <trkpt lat="42.3077050" lon="-7.2183590">
        <ele>447.7</ele>
        <time>2014-10-01T13:03:06Z</time>
      </trkpt>
      <trkpt lat="42.3077280" lon="-7.2183800">
        <ele>447.9</ele>
        <time>2014-10-01T13:03:07Z</time>
      </trkpt>
      <trkpt lat="42.3077550" lon="-7.2183980">
        <ele>448.1</ele>
        <time>2014-10-01T13:03:08Z</time>
      </trkpt>
      <trkpt lat="42.3077860" lon="-7.2184150">
        <ele>448.4</ele>
        <time>2014-10-01T13:03:09Z</time>
      </trkpt>
      <trkpt lat="42.3078210" lon="-7.2184330">
        <ele>448.6</ele>
        <time>2014-10-01T13:03:10Z</time>
      </trkpt>
      <trkpt lat="42.3078490" lon="-7.2184470">
        <ele>448.9</ele>
        <time>2014-10-01T13:03:11Z</time>
      </trkpt>
      <trkpt lat="42.3078840" lon="-7.2184600">
        <ele>449.1</ele>
        <time>2014-10-01T13:03:12Z</time>
      </trkpt>
      <trkpt lat="42.3079200" lon="-7.2184740">
        <ele>449.4</ele>
        <time>2014-10-01T13:03:13Z</time>
      </trkpt>
      <trkpt lat="42.3079620" lon="-7.2184870">
        <ele>449.7</ele>
        <time>2014-10-01T13:03:14Z</time>
      </trkpt>
      <trkpt lat="42.3080010" lon="-7.2184990">
        <ele>450.0</ele>
        <time>2014-10-01T13:03:15Z</time>
      </trkpt>
      <trkpt lat="42.3080430" lon="-7.2185110">
        <ele>450.3</ele>
        <time>2014-10-01T13:03:16Z</time>
      </trkpt>
      <trkpt lat="42.3080860" lon="-7.2185240">
        <ele>450.6</ele>
        <time>2014-10-01T13:03:17Z</time>
      </trkpt>
      <trkpt lat="42.3081240" lon="-7.2185290">
        <ele>450.8</ele>
        <time>2014-10-01T13:03:18Z</time>
      </trkpt>
      <trkpt lat="42.3081590" lon="-7.2185280">
        <ele>451.1</ele>
        <time>2014-10-01T13:03:19Z</time>
      </trkpt>
      <trkpt lat="42.3081930" lon="-7.2185260">
        <ele>451.3</ele>
        <time>2014-10-01T13:03:20Z</time>
      </trkpt>
      <trkpt lat="42.3082290" lon="-7.2185230">
        <ele>451.6</ele>
        <time>2014-10-01T13:03:21Z</time>
      </trkpt>
      <trkpt lat="42.3082700" lon="-7.2185170">
        <ele>452.0</ele>
        <time>2014-10-01T13:03:22Z</time>
      </trkpt>
      <trkpt lat="42.3083090" lon="-7.2185030">
        <ele>452.3</ele>
        <time>2014-10-01T13:03:23Z</time>
      </trkpt>
      <trkpt lat="42.3083470" lon="-7.2184870">
        <ele>452.6</ele>
        <time>2014-10-01T13:03:24Z</time>
      </trkpt>
      <trkpt lat="42.3083860" lon="-7.2184690">
        <ele>452.9</ele>
        <time>2014-10-01T13:03:25Z</time>
      </trkpt>
      <trkpt lat="42.3084210" lon="-7.2184510">
        <ele>453.2</ele>
        <time>2014-10-01T13:03:26Z</time>
      </trkpt>
      <trkpt lat="42.3084550" lon="-7.2184380">
        <ele>453.5</ele>
        <time>2014-10-01T13:03:27Z</time>
      </trkpt>
      <trkpt lat="42.3084890" lon="-7.2184250">
        <ele>453.8</ele>
        <time>2014-10-01T13:03:28Z</time>
      </trkpt>
      <trkpt lat="42.3085200" lon="-7.2184160">
        <ele>454.1</ele>
        <time>2014-10-01T13:03:29Z</time>
      </trkpt>
      <trkpt lat="42.3085520" lon="-7.2184050">
        <ele>454.4</ele>
        <time>2014-10-01T13:03:30Z</time>
      </trkpt>
      <trkpt lat="42.3085840" lon="-7.2183920">
        <ele>454.7</ele>
        <time>2014-10-01T13:03:31Z</time>
      </trkpt>
      <trkpt lat="42.3086150" lon="-7.2183800">
        <ele>455.0</ele>
        <time>2014-10-01T13:03:32Z</time>
      </trkpt>
      <trkpt lat="42.3086450" lon="-7.2183680">
        <ele>455.3</ele>
        <time>2014-10-01T13:03:33Z</time>
      </trkpt>
      <trkpt lat="42.3086740" lon="-7.2183550">
        <ele>455.5</ele>
        <time>2014-10-01T13:03:34Z</time>
      </trkpt>
      <trkpt lat="42.3087010" lon="-7.2183410">
        <ele>455.8</ele>
        <time>2014-10-01T13:03:35Z</time>
      </trkpt>
      <trkpt lat="42.3087300" lon="-7.2183310">
        <ele>456.1</ele>
        <time>2014-10-01T13:03:36Z</time>
      </trkpt>
      <trkpt lat="42.3087580" lon="-7.2183180">
        <ele>456.4</ele>
        <time>2014-10-01T13:03:37Z</time>
      </trkpt>
      <trkpt lat="42.3087870" lon="-7.2183040">
        <ele>456.6</ele>
        <time>2014-10-01T13:03:38Z</time>
      </trkpt>
      <trkpt lat="42.3088190" lon="-7.2182940">
        <ele>456.9</ele>
        <time>2014-10-01T13:03:39Z</time>
      </trkpt>
      <trkpt lat="42.3088560" lon="-7.2182830">
        <ele>457.3</ele>
        <time>2014-10-01T13:03:40Z</time>
      </trkpt>
      <trkpt lat="42.3088900" lon="-7.2182710">
        <ele>457.6</ele>
        <time>2014-10-01T13:03:41Z</time>
      </trkpt>
      <trkpt lat="42.3089200" lon="-7.2182610">
        <ele>457.9</ele>
        <time>2014-10-01T13:03:42Z</time>
      </trkpt>
      <trkpt lat="42.3089490" lon="-7.2182470">
        <ele>458.1</ele>
        <time>2014-10-01T13:03:43Z</time>
      </trkpt>
      <trkpt lat="42.3089790" lon="-7.2182330">
        <ele>458.4</ele>
        <time>2014-10-01T13:03:44Z</time>
      </trkpt>
      <trkpt lat="42.3090060" lon="-7.2182180">
        <ele>458.7</ele>
        <time>2014-10-01T13:03:45Z</time>
      </trkpt>
      <trkpt lat="42.3090310" lon="-7.2182030">
        <ele>458.9</ele>
        <time>2014-10-01T13:03:46Z</time>
      </trkpt>
      <trkpt lat="42.3090600" lon="-7.2181840">
        <ele>459.2</ele>
        <time>2014-10-01T13:03:47Z</time>
      </trkpt>
      <trkpt lat="42.3090960" lon="-7.2181620">
        <ele>459.5</ele>
        <time>2014-10-01T13:03:48Z</time>
      </trkpt>
      <trkpt lat="42.3091440" lon="-7.2181360">
        <ele>460.0</ele>
        <time>2014-10-01T13:03:50Z</time>
      </trkpt>
      <trkpt lat="42.3091700" lon="-7.2181180">
        <ele>460.2</ele>
        <time>2014-10-01T13:03:51Z</time>
      </trkpt>
      <trkpt lat="42.3091960" lon="-7.2180980">
        <ele>460.5</ele>
        <time>2014-10-01T13:03:52Z</time>
      </trkpt>
      <trkpt lat="42.3092440" lon="-7.2180600">
        <ele>461.0</ele>
        <time>2014-10-01T13:03:54Z</time>
      </trkpt>
      <trkpt lat="42.3092740" lon="-7.2180440">
        <ele>461.3</ele>
        <time>2014-10-01T13:03:55Z</time>
      </trkpt>
      <trkpt lat="42.3092990" lon="-7.2180290">
        <ele>461.6</ele>
        <time>2014-10-01T13:03:56Z</time>
      </trkpt>
      <trkpt lat="42.3093460" lon="-7.2180050">
        <ele>462.0</ele>
        <time>2014-10-01T13:03:58Z</time>
      </trkpt>
      <trkpt lat="42.3094040" lon="-7.2179870">
        <ele>462.6</ele>
        <time>2014-10-01T13:04:00Z</time>
      </trkpt>
      <trkpt lat="42.3094400" lon="-7.2179720">
        <ele>462.9</ele>
        <time>2014-10-01T13:04:01Z</time>
      </trkpt>
      <trkpt lat="42.3094740" lon="-7.2179600">
        <ele>463.2</ele>
        <time>2014-10-01T13:04:02Z</time>
      </trkpt>
      <trkpt lat="42.3095030" lon="-7.2179490">
        <ele>463.5</ele>
        <time>2014-10-01T13:04:03Z</time>
      </trkpt>
      <trkpt lat="42.3095300" lon="-7.2179400">
        <ele>463.7</ele>
        <time>2014-10-01T13:04:04Z</time>
      </trkpt>
      <trkpt lat="42.3095790" lon="-7.2179190">
        <ele>464.2</ele>
        <time>2014-10-01T13:04:06Z</time>
      </trkpt>
      <trkpt lat="42.3096060" lon="-7.2179050">
        <ele>464.5</ele>
        <time>2014-10-01T13:04:07Z</time>
      </trkpt>
      <trkpt lat="42.3096310" lon="-7.2178890">
        <ele>464.7</ele>
        <time>2014-10-01T13:04:08Z</time>
      </trkpt>
      <trkpt lat="42.3096630" lon="-7.2178720">
        <ele>465.1</ele>
        <time>2014-10-01T13:04:09Z</time>
      </trkpt>
      <trkpt lat="42.3096920" lon="-7.2178540">
        <ele>465.4</ele>
        <time>2014-10-01T13:04:10Z</time>
      </trkpt>
      <trkpt lat="42.3097210" lon="-7.2178300">
        <ele>465.7</ele>
        <time>2014-10-01T13:04:11Z</time>
      </trkpt>
      <trkpt lat="42.3097460" lon="-7.2178000">
        <ele>466.0</ele>
        <time>2014-10-01T13:04:12Z</time>
      </trkpt>
      <trkpt lat="42.3097680" lon="-7.2177790">
        <ele>466.3</ele>
        <time>2014-10-01T13:04:13Z</time>
      </trkpt>
      <trkpt lat="42.3098080" lon="-7.2177270">
        <ele>466.8</ele>
        <time>2014-10-01T13:04:15Z</time>
      </trkpt>
      <trkpt lat="42.3098280" lon="-7.2176970">
        <ele>467.0</ele>
        <time>2014-10-01T13:04:16Z</time>
      </trkpt>
      <trkpt lat="42.3098500" lon="-7.2176640">
        <ele>467.3</ele>
        <time>2014-10-01T13:04:17Z</time>
      </trkpt>
      <trkpt lat="42.3098690" lon="-7.2176290">
        <ele>467.6</ele>
        <time>2014-10-01T13:04:18Z</time>
      </trkpt>
      <trkpt lat="42.3098910" lon="-7.2175940">
        <ele>467.9</ele>
        <time>2014-10-01T13:04:19Z</time>
      </trkpt>
      <trkpt lat="42.3099140" lon="-7.2175590">
        <ele>468.2</ele>
        <time>2014-10-01T13:04:20Z</time>
      </trkpt>
      <trkpt lat="42.3099450" lon="-7.2175190">
        <ele>468.6</ele>
        <time>2014-10-01T13:04:22Z</time>
      </trkpt>
      <trkpt lat="42.3099820" lon="-7.2174680">
        <ele>469.2</ele>
        <time>2014-10-01T13:04:24Z</time>
      </trkpt>
      <trkpt lat="42.3100030" lon="-7.2174410">
        <ele>469.4</ele>
        <time>2014-10-01T13:04:25Z</time>
      </trkpt>
      <trkpt lat="42.3100280" lon="-7.2174090">
        <ele>469.8</ele>
        <time>2014-10-01T13:04:26Z</time>
      </trkpt>
      <trkpt lat="42.3100530" lon="-7.2173780">
        <ele>470.1</ele>
        <time>2014-10-01T13:04:27Z</time>
      </trkpt>
      <trkpt lat="42.3100750" lon="-7.2173490">
        <ele>470.3</ele>
        <time>2014-10-01T13:04:28Z</time>
      </trkpt>
      <trkpt lat="42.3100990" lon="-7.2173190">
        <ele>470.6</ele>
        <time>2014-10-01T13:04:29Z</time>
      </trkpt>
      <trkpt lat="42.3101240" lon="-7.2172920">
        <ele>470.9</ele>
        <time>2014-10-01T13:04:30Z</time>
      </trkpt>
      <trkpt lat="42.3101490" lon="-7.2172660">
        <ele>471.2</ele>
        <time>2014-10-01T13:04:31Z</time>
      </trkpt>
      <trkpt lat="42.3101710" lon="-7.2172430">
        <ele>471.4</ele>
        <time>2014-10-01T13:04:32Z</time>
      </trkpt>
      <trkpt lat="42.3101950" lon="-7.2172130">
        <ele>471.7</ele>
        <time>2014-10-01T13:04:33Z</time>
      </trkpt>
      <trkpt lat="42.3102170" lon="-7.2171830">
        <ele>472.0</ele>
        <time>2014-10-01T13:04:34Z</time>
      </trkpt>
      <trkpt lat="42.3102380" lon="-7.2171520">
        <ele>472.2</ele>
        <time>2014-10-01T13:04:35Z</time>
      </trkpt>
      <trkpt lat="42.3102590" lon="-7.2171230">
        <ele>472.5</ele>
        <time>2014-10-01T13:04:36Z</time>
      </trkpt>
      <trkpt lat="42.3102820" lon="-7.2170910">
        <ele>472.7</ele>
        <time>2014-10-01T13:04:37Z</time>
      </trkpt>
      <trkpt lat="42.3103020" lon="-7.2170540">
        <ele>473.0</ele>
        <time>2014-10-01T13:04:38Z</time>
      </trkpt>
      <trkpt lat="42.3103240" lon="-7.2170200">
        <ele>473.3</ele>
        <time>2014-10-01T13:04:39Z</time>
      </trkpt>
      <trkpt lat="42.3103470" lon="-7.2169890">
        <ele>473.6</ele>
        <time>2014-10-01T13:04:40Z</time>
      </trkpt>
      <trkpt lat="42.3103700" lon="-7.2169600">
        <ele>473.8</ele>
        <time>2014-10-01T13:04:41Z</time>
      </trkpt>
      <trkpt lat="42.3103950" lon="-7.2169360">
        <ele>474.1</ele>
        <time>2014-10-01T13:04:42Z</time>
      </trkpt>
      <trkpt lat="42.3104380" lon="-7.2168930">
        <ele>474.6</ele>
        <time>2014-10-01T13:04:44Z</time>
      </trkpt>
      <trkpt lat="42.3104680" lon="-7.2168730">
        <ele>474.8</ele>
        <time>2014-10-01T13:04:45Z</time>
      </trkpt>
      <trkpt lat="42.3105150" lon="-7.2168360">
        <ele>475.3</ele>
        <time>2014-10-01T13:04:47Z</time>
      </trkpt>
      <trkpt lat="42.3105460" lon="-7.2168070">
        <ele>475.6</ele>
        <time>2014-10-01T13:04:48Z</time>
      </trkpt>
      <trkpt lat="42.3105850" lon="-7.2167730">
        <ele>476.0</ele>
        <time>2014-10-01T13:04:49Z</time>
      </trkpt>
      <trkpt lat="42.3106220" lon="-7.2167460">
        <ele>476.4</ele>
        <time>2014-10-01T13:04:50Z</time>
      </trkpt>
      <trkpt lat="42.3106510" lon="-7.2167270">
        <ele>476.7</ele>
        <time>2014-10-01T13:04:51Z</time>
      </trkpt>
      <trkpt lat="42.3106810" lon="-7.2167150">
        <ele>477.0</ele>
        <time>2014-10-01T13:04:52Z</time>
      </trkpt>
      <trkpt lat="42.3107100" lon="-7.2167010">
        <ele>477.2</ele>
        <time>2014-10-01T13:04:53Z</time>
      </trkpt>
      <trkpt lat="42.3107410" lon="-7.2166900">
        <ele>477.5</ele>
        <time>2014-10-01T13:04:54Z</time>
      </trkpt>
      <trkpt lat="42.3107770" lon="-7.2166750">
        <ele>477.8</ele>
        <time>2014-10-01T13:04:55Z</time>
      </trkpt>
      <trkpt lat="42.3108090" lon="-7.2166580">
        <ele>478.1</ele>
        <time>2014-10-01T13:04:56Z</time>
      </trkpt>
      <trkpt lat="42.3108400" lon="-7.2166480">
        <ele>478.3</ele>
        <time>2014-10-01T13:04:57Z</time>
      </trkpt>
      <trkpt lat="42.3108680" lon="-7.2166280">
        <ele>478.6</ele>
        <time>2014-10-01T13:04:58Z</time>
      </trkpt>
      <trkpt lat="42.3108990" lon="-7.2166130">
        <ele>478.9</ele>
        <time>2014-10-01T13:04:59Z</time>
      </trkpt>
      <trkpt lat="42.3109300" lon="-7.2166000">
        <ele>479.2</ele>
        <time>2014-10-01T13:05:00Z</time>
      </trkpt>
      <trkpt lat="42.3109610" lon="-7.2165910">
        <ele>479.5</ele>
        <time>2014-10-01T13:05:01Z</time>
      </trkpt>
      <trkpt lat="42.3109910" lon="-7.2165820">
        <ele>479.8</ele>
        <time>2014-10-01T13:05:02Z</time>
      </trkpt>
      <trkpt lat="42.3110200" lon="-7.2165730">
        <ele>480.1</ele>
        <time>2014-10-01T13:05:03Z</time>
      </trkpt>
      <trkpt lat="42.3110480" lon="-7.2165610">
        <ele>480.3</ele>
        <time>2014-10-01T13:05:04Z</time>
      </trkpt>
      <trkpt lat="42.3110800" lon="-7.2165470">
        <ele>480.6</ele>
        <time>2014-10-01T13:05:05Z</time>
      </trkpt>
      <trkpt lat="42.3111090" lon="-7.2165360">
        <ele>480.9</ele>
        <time>2014-10-01T13:05:06Z</time>
      </trkpt>
      <trkpt lat="42.3111440" lon="-7.2165310">
        <ele>481.2</ele>
        <time>2014-10-01T13:05:07Z</time>
      </trkpt>
      <trkpt lat="42.3111710" lon="-7.2165260">
        <ele>481.4</ele>
        <time>2014-10-01T13:05:08Z</time>
      </trkpt>
      <trkpt lat="42.3112210" lon="-7.2165140">
        <ele>481.9</ele>
        <time>2014-10-01T13:05:10Z</time>
      </trkpt>
      <trkpt lat="42.3112480" lon="-7.2165020">
        <ele>482.1</ele>
        <time>2014-10-01T13:05:11Z</time>
      </trkpt>
      <trkpt lat="42.3112770" lon="-7.2164940">
        <ele>482.3</ele>
        <time>2014-10-01T13:05:12Z</time>
      </trkpt>
      <trkpt lat="42.3113070" lon="-7.2164870">
        <ele>482.6</ele>
        <time>2014-10-01T13:05:13Z</time>
      </trkpt>
      <trkpt lat="42.3113370" lon="-7.2164750">
        <ele>482.8</ele>
        <time>2014-10-01T13:05:14Z</time>
      </trkpt>
      <trkpt lat="42.3113710" lon="-7.2164650">
        <ele>483.1</ele>
        <time>2014-10-01T13:05:15Z</time>
      </trkpt>
      <trkpt lat="42.3114030" lon="-7.2164510">
        <ele>483.4</ele>
        <time>2014-10-01T13:05:16Z</time>
      </trkpt>
      <trkpt lat="42.3114340" lon="-7.2164410">
        <ele>483.7</ele>
        <time>2014-10-01T13:05:17Z</time>
      </trkpt>
      <trkpt lat="42.3114620" lon="-7.2164310">
        <ele>483.9</ele>
        <time>2014-10-01T13:05:18Z</time>
      </trkpt>
      <trkpt lat="42.3114910" lon="-7.2164190">
        <ele>484.2</ele>
        <time>2014-10-01T13:05:19Z</time>
      </trkpt>
      <trkpt lat="42.3115180" lon="-7.2164120">
        <ele>484.4</ele>
        <time>2014-10-01T13:05:20Z</time>
      </trkpt>
      <trkpt lat="42.3115450" lon="-7.2164070">
        <ele>484.6</ele>
        <time>2014-10-01T13:05:21Z</time>
      </trkpt>
      <trkpt lat="42.3115790" lon="-7.2164020">
        <ele>484.9</ele>
        <time>2014-10-01T13:05:22Z</time>
      </trkpt>
      <trkpt lat="42.3116190" lon="-7.2164030">
        <ele>485.3</ele>
        <time>2014-10-01T13:05:23Z</time>
      </trkpt>
      <trkpt lat="42.3116580" lon="-7.2164030">
        <ele>485.6</ele>
        <time>2014-10-01T13:05:24Z</time>
      </trkpt>
      <trkpt lat="42.3116950" lon="-7.2164060">
        <ele>485.9</ele>
        <time>2014-10-01T13:05:25Z</time>
      </trkpt>
      <trkpt lat="42.3117280" lon="-7.2164130">
        <ele>486.2</ele>
        <time>2014-10-01T13:05:26Z</time>
      </trkpt>
      <trkpt lat="42.3117590" lon="-7.2164230">
        <ele>486.5</ele>
        <time>2014-10-01T13:05:27Z</time>
      </trkpt>
      <trkpt lat="42.3117910" lon="-7.2164360">
        <ele>486.8</ele>
        <time>2014-10-01T13:05:28Z</time>
      </trkpt>
      <trkpt lat="42.3118230" lon="-7.2164550">
        <ele>487.1</ele>
        <time>2014-10-01T13:05:29Z</time>
      </trkpt>
      <trkpt lat="42.3118500" lon="-7.2164730">
        <ele>487.3</ele>
        <time>2014-10-01T13:05:30Z</time>
      </trkpt>
      <trkpt lat="42.3118770" lon="-7.2164930">
        <ele>487.6</ele>
        <time>2014-10-01T13:05:31Z</time>
      </trkpt>
      <trkpt lat="42.3119050" lon="-7.2165210">
        <ele>487.9</ele>
        <time>2014-10-01T13:05:32Z</time>
      </trkpt>
      <trkpt lat="42.3119300" lon="-7.2165550">
        <ele>488.2</ele>
        <time>2014-10-01T13:05:33Z</time>
      </trkpt>
      <trkpt lat="42.3119530" lon="-7.2165860">
        <ele>488.4</ele>
        <time>2014-10-01T13:05:34Z</time>
      </trkpt>
      <trkpt lat="42.3119730" lon="-7.2166210">
        <ele>488.7</ele>
        <time>2014-10-01T13:05:35Z</time>
      </trkpt>
      <trkpt lat="42.3119920" lon="-7.2166610">
        <ele>489.0</ele>
        <time>2014-10-01T13:05:36Z</time>
      </trkpt>
      <trkpt lat="42.3120050" lon="-7.2166990">
        <ele>489.3</ele>
        <time>2014-10-01T13:05:37Z</time>
      </trkpt>
      <trkpt lat="42.3120200" lon="-7.2167400">
        <ele>489.6</ele>
        <time>2014-10-01T13:05:38Z</time>
      </trkpt>
      <trkpt lat="42.3120330" lon="-7.2167760">
        <ele>489.9</ele>
        <time>2014-10-01T13:05:39Z</time>
      </trkpt>
      <trkpt lat="42.3120450" lon="-7.2168490">
        <ele>490.4</ele>
        <time>2014-10-01T13:05:41Z</time>
      </trkpt>
      <trkpt lat="42.3120530" lon="-7.2168860">
        <ele>490.7</ele>
        <time>2014-10-01T13:05:42Z</time>
      </trkpt>
      <trkpt lat="42.3120590" lon="-7.2169300">
        <ele>491.0</ele>
        <time>2014-10-01T13:05:43Z</time>
      </trkpt>
      <trkpt lat="42.3120620" lon="-7.2169720">
        <ele>491.2</ele>
        <time>2014-10-01T13:05:44Z</time>
      </trkpt>
      <trkpt lat="42.3120640" lon="-7.2170140">
        <ele>491.5</ele>
        <time>2014-10-01T13:05:45Z</time>
      </trkpt>
      <trkpt lat="42.3120640" lon="-7.2170540">
        <ele>491.8</ele>
        <time>2014-10-01T13:05:46Z</time>
      </trkpt>
      <trkpt lat="42.3120650" lon="-7.2171190">
        <ele>492.2</ele>
        <time>2014-10-01T13:05:48Z</time>
      </trkpt>
      <trkpt lat="42.3120630" lon="-7.2171910">
        <ele>492.7</ele>
        <time>2014-10-01T13:05:50Z</time>
      </trkpt>
      <trkpt lat="42.3120720" lon="-7.2172580">
        <ele>493.2</ele>
        <time>2014-10-01T13:05:52Z</time>
      </trkpt>
      <trkpt lat="42.3120880" lon="-7.2172960">
        <ele>493.5</ele>
        <time>2014-10-01T13:05:53Z</time>
      </trkpt>
      <trkpt lat="42.3120960" lon="-7.2173660">
        <ele>494.0</ele>
        <time>2014-10-01T13:05:55Z</time>
      </trkpt>
      <trkpt lat="42.3121010" lon="-7.2174060">
        <ele>494.3</ele>
        <time>2014-10-01T13:05:56Z</time>
      </trkpt>
      <trkpt lat="42.3121120" lon="-7.2174500">
        <ele>494.6</ele>
        <time>2014-10-01T13:05:57Z</time>
      </trkpt>
      <trkpt lat="42.3121250" lon="-7.2175240">
        <ele>495.2</ele>
        <time>2014-10-01T13:05:59Z</time>
      </trkpt>
      <trkpt lat="42.3121400" lon="-7.2175950">
        <ele>495.7</ele>
        <time>2014-10-01T13:06:01Z</time>
      </trkpt>
      <trkpt lat="42.3121530" lon="-7.2176630">
        <ele>496.2</ele>
        <time>2014-10-01T13:06:03Z</time>
      </trkpt>
      <trkpt lat="42.3121650" lon="-7.2177030">
        <ele>496.6</ele>
        <time>2014-10-01T13:06:04Z</time>
      </trkpt>
      <trkpt lat="42.3121740" lon="-7.2177370">
        <ele>496.8</ele>
        <time>2014-10-01T13:06:05Z</time>
      </trkpt>
      <trkpt lat="42.3121850" lon="-7.2177710">
        <ele>497.1</ele>
        <time>2014-10-01T13:06:06Z</time>
      </trkpt>
      <trkpt lat="42.3122010" lon="-7.2178100">
        <ele>497.4</ele>
        <time>2014-10-01T13:06:07Z</time>
      </trkpt>
      <trkpt lat="42.3122130" lon="-7.2178490">
        <ele>497.6</ele>
        <time>2014-10-01T13:06:08Z</time>
      </trkpt>
      <trkpt lat="42.3122340" lon="-7.2179190">
        <ele>498.2</ele>
        <time>2014-10-01T13:06:10Z</time>
      </trkpt>
      <trkpt lat="42.3122380" lon="-7.2179590">
        <ele>498.4</ele>
        <time>2014-10-01T13:06:11Z</time>
      </trkpt>
      <trkpt lat="42.3122470" lon="-7.2179980">
        <ele>498.7</ele>
        <time>2014-10-01T13:06:12Z</time>
      </trkpt>
      <trkpt lat="42.3122570" lon="-7.2180360">
        <ele>499.0</ele>
        <time>2014-10-01T13:06:13Z</time>
      </trkpt>
      <trkpt lat="42.3122630" lon="-7.2180780">
        <ele>499.3</ele>
        <time>2014-10-01T13:06:14Z</time>
      </trkpt>
      <trkpt lat="42.3122760" lon="-7.2181150">
        <ele>499.5</ele>
        <time>2014-10-01T13:06:15Z</time>
      </trkpt>
      <trkpt lat="42.3122850" lon="-7.2181520">
        <ele>499.8</ele>
        <time>2014-10-01T13:06:16Z</time>
      </trkpt>
      <trkpt lat="42.3122980" lon="-7.2181920">
        <ele>500.1</ele>
        <time>2014-10-01T13:06:17Z</time>
      </trkpt>
      <trkpt lat="42.3123110" lon="-7.2182250">
        <ele>500.3</ele>
        <time>2014-10-01T13:06:18Z</time>
      </trkpt>
      <trkpt lat="42.3123270" lon="-7.2182590">
        <ele>500.6</ele>
        <time>2014-10-01T13:06:19Z</time>
      </trkpt>
      <trkpt lat="42.3123390" lon="-7.2182920">
        <ele>500.9</ele>
        <time>2014-10-01T13:06:20Z</time>
      </trkpt>
      <trkpt lat="42.3123540" lon="-7.2183240">
        <ele>501.1</ele>
        <time>2014-10-01T13:06:21Z</time>
      </trkpt>
      <trkpt lat="42.3123710" lon="-7.2183610">
        <ele>501.4</ele>
        <time>2014-10-01T13:06:22Z</time>
      </trkpt>
      <trkpt lat="42.3123920" lon="-7.2183960">
        <ele>501.7</ele>
        <time>2014-10-01T13:06:23Z</time>
      </trkpt>
      <trkpt lat="42.3124140" lon="-7.2184270">
        <ele>502.0</ele>
        <time>2014-10-01T13:06:24Z</time>
      </trkpt>
      <trkpt lat="42.3124410" lon="-7.2184540">
        <ele>502.3</ele>
        <time>2014-10-01T13:06:25Z</time>
      </trkpt>
      <trkpt lat="42.3124670" lon="-7.2184770">
        <ele>502.6</ele>
        <time>2014-10-01T13:06:26Z</time>
      </trkpt>
      <trkpt lat="42.3124960" lon="-7.2185020">
        <ele>502.9</ele>
        <time>2014-10-01T13:06:27Z</time>
      </trkpt>
      <trkpt lat="42.3125300" lon="-7.2185210">
        <ele>503.2</ele>
        <time>2014-10-01T13:06:28Z</time>
      </trkpt>
      <trkpt lat="42.3125720" lon="-7.2185420">
        <ele>503.5</ele>
        <time>2014-10-01T13:06:29Z</time>
      </trkpt>
      <trkpt lat="42.3126170" lon="-7.2185600">
        <ele>503.9</ele>
        <time>2014-10-01T13:06:30Z</time>
      </trkpt>
      <trkpt lat="42.3126590" lon="-7.2185730">
        <ele>504.2</ele>
        <time>2014-10-01T13:06:31Z</time>
      </trkpt>
      <trkpt lat="42.3126920" lon="-7.2185820">
        <ele>504.5</ele>
        <time>2014-10-01T13:06:32Z</time>
      </trkpt>
      <trkpt lat="42.3127300" lon="-7.2185900">
        <ele>504.8</ele>
        <time>2014-10-01T13:06:33Z</time>
      </trkpt>
      <trkpt lat="42.3127670" lon="-7.2185970">
        <ele>505.1</ele>
        <time>2014-10-01T13:06:34Z</time>
      </trkpt>
      <trkpt lat="42.3128020" lon="-7.2186020">
        <ele>505.3</ele>
        <time>2014-10-01T13:06:35Z</time>
      </trkpt>
      <trkpt lat="42.3128340" lon="-7.2186040">
        <ele>505.6</ele>
        <time>2014-10-01T13:06:36Z</time>
      </trkpt>
      <trkpt lat="42.3128690" lon="-7.2186060">
        <ele>505.9</ele>
        <time>2014-10-01T13:06:37Z</time>
      </trkpt>
      <trkpt lat="42.3129070" lon="-7.2186080">
        <ele>506.2</ele>
        <time>2014-10-01T13:06:38Z</time>
      </trkpt>
      <trkpt lat="42.3129440" lon="-7.2186090">
        <ele>506.5</ele>
        <time>2014-10-01T13:06:39Z</time>
      </trkpt>
      <trkpt lat="42.3129730" lon="-7.2186110">
        <ele>506.7</ele>
        <time>2014-10-01T13:06:40Z</time>
      </trkpt>
      <trkpt lat="42.3130040" lon="-7.2186130">
        <ele>506.9</ele>
        <time>2014-10-01T13:06:41Z</time>
      </trkpt>
      <trkpt lat="42.3130340" lon="-7.2186170">
        <ele>507.2</ele>
        <time>2014-10-01T13:06:42Z</time>
      </trkpt>
      <trkpt lat="42.3130630" lon="-7.2186210">
        <ele>507.4</ele>
        <time>2014-10-01T13:06:43Z</time>
      </trkpt>
      <trkpt lat="42.3130930" lon="-7.2186290">
        <ele>507.6</ele>
        <time>2014-10-01T13:06:44Z</time>
      </trkpt>
      <trkpt lat="42.3131260" lon="-7.2186380">
        <ele>507.9</ele>
        <time>2014-10-01T13:06:45Z</time>
      </trkpt>
      <trkpt lat="42.3131620" lon="-7.2186480">
        <ele>508.2</ele>
        <time>2014-10-01T13:06:46Z</time>
      </trkpt>
      <trkpt lat="42.3131970" lon="-7.2186570">
        <ele>508.5</ele>
        <time>2014-10-01T13:06:47Z</time>
      </trkpt>
      <trkpt lat="42.3132310" lon="-7.2186680">
        <ele>508.7</ele>
        <time>2014-10-01T13:06:48Z</time>
      </trkpt>
      <trkpt lat="42.3132640" lon="-7.2186800">
        <ele>509.0</ele>
        <time>2014-10-01T13:06:49Z</time>
      </trkpt>
      <trkpt lat="42.3132940" lon="-7.2186910">
        <ele>509.3</ele>
        <time>2014-10-01T13:06:50Z</time>
      </trkpt>
      <trkpt lat="42.3133240" lon="-7.2187050">
        <ele>509.5</ele>
        <time>2014-10-01T13:06:51Z</time>
      </trkpt>
      <trkpt lat="42.3133540" lon="-7.2187210">
        <ele>509.8</ele>
        <time>2014-10-01T13:06:52Z</time>
      </trkpt>
      <trkpt lat="42.3133830" lon="-7.2187390">
        <ele>510.0</ele>
        <time>2014-10-01T13:06:53Z</time>
      </trkpt>
      <trkpt lat="42.3134100" lon="-7.2187560">
        <ele>510.2</ele>
        <time>2014-10-01T13:06:54Z</time>
      </trkpt>
      <trkpt lat="42.3134370" lon="-7.2187760">
        <ele>510.5</ele>
        <time>2014-10-01T13:06:55Z</time>
      </trkpt>
      <trkpt lat="42.3134680" lon="-7.2187940">
        <ele>510.7</ele>
        <time>2014-10-01T13:06:56Z</time>
      </trkpt>
      <trkpt lat="42.3135010" lon="-7.2188070">
        <ele>511.0</ele>
        <time>2014-10-01T13:06:57Z</time>
      </trkpt>
      <trkpt lat="42.3135360" lon="-7.2188220">
        <ele>511.2</ele>
        <time>2014-10-01T13:06:58Z</time>
      </trkpt>
      <trkpt lat="42.3135700" lon="-7.2188360">
        <ele>511.5</ele>
        <time>2014-10-01T13:06:59Z</time>
      </trkpt>
      <trkpt lat="42.3136020" lon="-7.2188500">
        <ele>511.8</ele>
        <time>2014-10-01T13:07:00Z</time>
      </trkpt>
      <trkpt lat="42.3136330" lon="-7.2188610">
        <ele>512.1</ele>
        <time>2014-10-01T13:07:01Z</time>
      </trkpt>
      <trkpt lat="42.3136640" lon="-7.2188720">
        <ele>512.3</ele>
        <time>2014-10-01T13:07:02Z</time>
      </trkpt>
      <trkpt lat="42.3136990" lon="-7.2188810">
        <ele>512.6</ele>
        <time>2014-10-01T13:07:03Z</time>
      </trkpt>
      <trkpt lat="42.3137350" lon="-7.2188920">
        <ele>512.9</ele>
        <time>2014-10-01T13:07:04Z</time>
      </trkpt>
      <trkpt lat="42.3137750" lon="-7.2189030">
        <ele>513.3</ele>
        <time>2014-10-01T13:07:05Z</time>
      </trkpt>
      <trkpt lat="42.3138080" lon="-7.2189140">
        <ele>513.6</ele>
        <time>2014-10-01T13:07:06Z</time>
      </trkpt>
      <trkpt lat="42.3138470" lon="-7.2189290">
        <ele>514.0</ele>
        <time>2014-10-01T13:07:07Z</time>
      </trkpt>
      <trkpt lat="42.3138880" lon="-7.2189460">
        <ele>514.3</ele>
        <time>2014-10-01T13:07:08Z</time>
      </trkpt>
      <trkpt lat="42.3139230" lon="-7.2189600">
        <ele>514.7</ele>
        <time>2014-10-01T13:07:09Z</time>
      </trkpt>
      <trkpt lat="42.3139510" lon="-7.2189730">
        <ele>514.9</ele>
        <time>2014-10-01T13:07:10Z</time>
      </trkpt>
      <trkpt lat="42.3139980" lon="-7.2190030">
        <ele>515.4</ele>
        <time>2014-10-01T13:07:12Z</time>
      </trkpt>
      <trkpt lat="42.3140480" lon="-7.2190380">
        <ele>515.9</ele>
        <time>2014-10-01T13:07:14Z</time>
      </trkpt>
      <trkpt lat="42.3140750" lon="-7.2190540">
        <ele>516.2</ele>
        <time>2014-10-01T13:07:15Z</time>
      </trkpt>
      <trkpt lat="42.3141060" lon="-7.2190670">
        <ele>516.4</ele>
        <time>2014-10-01T13:07:16Z</time>
      </trkpt>
      <trkpt lat="42.3141400" lon="-7.2190830">
        <ele>516.7</ele>
        <time>2014-10-01T13:07:17Z</time>
      </trkpt>
      <trkpt lat="42.3141740" lon="-7.2190990">
        <ele>517.1</ele>
        <time>2014-10-01T13:07:18Z</time>
      </trkpt>
      <trkpt lat="42.3142090" lon="-7.2191140">
        <ele>517.4</ele>
        <time>2014-10-01T13:07:19Z</time>
      </trkpt>
      <trkpt lat="42.3142410" lon="-7.2191280">
        <ele>517.7</ele>
        <time>2014-10-01T13:07:20Z</time>
      </trkpt>
      <trkpt lat="42.3142720" lon="-7.2191370">
        <ele>518.0</ele>
        <time>2014-10-01T13:07:21Z</time>
      </trkpt>
      <trkpt lat="42.3143040" lon="-7.2191460">
        <ele>518.3</ele>
        <time>2014-10-01T13:07:22Z</time>
      </trkpt>
      <trkpt lat="42.3143400" lon="-7.2191510">
        <ele>518.6</ele>
        <time>2014-10-01T13:07:23Z</time>
      </trkpt>
      <trkpt lat="42.3143680" lon="-7.2191520">
        <ele>518.9</ele>
        <time>2014-10-01T13:07:24Z</time>
      </trkpt>
      <trkpt lat="42.3143960" lon="-7.2191510">
        <ele>519.1</ele>
        <time>2014-10-01T13:07:25Z</time>
      </trkpt>
      <trkpt lat="42.3144490" lon="-7.2191480">
        <ele>519.6</ele>
        <time>2014-10-01T13:07:27Z</time>
      </trkpt>
      <trkpt lat="42.3144780" lon="-7.2191450">
        <ele>519.9</ele>
        <time>2014-10-01T13:07:28Z</time>
      </trkpt>
      <trkpt lat="42.3145340" lon="-7.2191360">
        <ele>520.5</ele>
        <time>2014-10-01T13:07:30Z</time>
      </trkpt>
      <trkpt lat="42.3145650" lon="-7.2191310">
        <ele>520.8</ele>
        <time>2014-10-01T13:07:31Z</time>
      </trkpt>
      <trkpt lat="42.3145960" lon="-7.2191260">
        <ele>521.0</ele>
        <time>2014-10-01T13:07:32Z</time>
      </trkpt>
      <trkpt lat="42.3146270" lon="-7.2191160">
        <ele>521.3</ele>
        <time>2014-10-01T13:07:33Z</time>
      </trkpt>
      <trkpt lat="42.3146580" lon="-7.2191080">
        <ele>521.6</ele>
        <time>2014-10-01T13:07:34Z</time>
      </trkpt>
      <trkpt lat="42.3146890" lon="-7.2190990">
        <ele>521.9</ele>
        <time>2014-10-01T13:07:35Z</time>
      </trkpt>
      <trkpt lat="42.3147200" lon="-7.2190890">
        <ele>522.0</ele>
        <time>2014-10-01T13:07:36Z</time>
      </trkpt>
      <trkpt lat="42.3147520" lon="-7.2190790">
        <ele>522.1</ele>
        <time>2014-10-01T13:07:37Z</time>
      </trkpt>
      <trkpt lat="42.3147830" lon="-7.2190690">
        <ele>522.2</ele>
        <time>2014-10-01T13:07:38Z</time>
      </trkpt>
      <trkpt lat="42.3148120" lon="-7.2190590">
        <ele>522.4</ele>
        <time>2014-10-01T13:07:39Z</time>
      </trkpt>
      <trkpt lat="42.3148610" lon="-7.2190350">
        <ele>522.6</ele>
        <time>2014-10-01T13:07:41Z</time>
      </trkpt>
      <trkpt lat="42.3149070" lon="-7.2190170">
        <ele>522.8</ele>
        <time>2014-10-01T13:07:43Z</time>
      </trkpt>
      <trkpt lat="42.3149390" lon="-7.2190020">
        <ele>522.9</ele>
        <time>2014-10-01T13:07:44Z</time>
      </trkpt>
      <trkpt lat="42.3149690" lon="-7.2189880">
        <ele>523.0</ele>
        <time>2014-10-01T13:07:45Z</time>
      </trkpt>
      <trkpt lat="42.3150020" lon="-7.2189740">
        <ele>523.2</ele>
        <time>2014-10-01T13:07:46Z</time>
      </trkpt>
      <trkpt lat="42.3150330" lon="-7.2189610">
        <ele>523.3</ele>
        <time>2014-10-01T13:07:47Z</time>
      </trkpt>
      <trkpt lat="42.3150590" lon="-7.2189480">
        <ele>523.4</ele>
        <time>2014-10-01T13:07:48Z</time>
      </trkpt>
      <trkpt lat="42.3150900" lon="-7.2189320">
        <ele>523.5</ele>
        <time>2014-10-01T13:07:49Z</time>
      </trkpt>
      <trkpt lat="42.3151250" lon="-7.2189120">
        <ele>523.6</ele>
        <time>2014-10-01T13:07:50Z</time>
      </trkpt>
      <trkpt lat="42.3151580" lon="-7.2188900">
        <ele>523.7</ele>
        <time>2014-10-01T13:07:51Z</time>
      </trkpt>
      <trkpt lat="42.3151890" lon="-7.2188720">
        <ele>523.8</ele>
        <time>2014-10-01T13:07:52Z</time>
      </trkpt>
      <trkpt lat="42.3152160" lon="-7.2188520">
        <ele>523.9</ele>
        <time>2014-10-01T13:07:53Z</time>
      </trkpt>
      <trkpt lat="42.3152600" lon="-7.2188130">
        <ele>524.0</ele>
        <time>2014-10-01T13:07:55Z</time>
      </trkpt>
      <trkpt lat="42.3152820" lon="-7.2187900">
        <ele>524.1</ele>
        <time>2014-10-01T13:07:56Z</time>
      </trkpt>
      <trkpt lat="42.3153030" lon="-7.2187620">
        <ele>524.2</ele>
        <time>2014-10-01T13:07:57Z</time>
      </trkpt>
      <trkpt lat="42.3153270" lon="-7.2187290">
        <ele>524.3</ele>
        <time>2014-10-01T13:07:58Z</time>
      </trkpt>
      <trkpt lat="42.3153480" lon="-7.2186990">
        <ele>524.4</ele>
        <time>2014-10-01T13:07:59Z</time>
      </trkpt>
      <trkpt lat="42.3153710" lon="-7.2186630">
        <ele>524.5</ele>
        <time>2014-10-01T13:08:00Z</time>
      </trkpt>
      <trkpt lat="42.3153930" lon="-7.2186280">
        <ele>524.6</ele>
        <time>2014-10-01T13:08:01Z</time>
      </trkpt>
      <trkpt lat="42.3154170" lon="-7.2185900">
        <ele>524.7</ele>
        <time>2014-10-01T13:08:02Z</time>
      </trkpt>
      <trkpt lat="42.3154400" lon="-7.2185480">
        <ele>524.8</ele>
        <time>2014-10-01T13:08:03Z</time>
      </trkpt>
      <trkpt lat="42.3154600" lon="-7.2185130">
        <ele>524.9</ele>
        <time>2014-10-01T13:08:04Z</time>
      </trkpt>
      <trkpt lat="42.3154790" lon="-7.2184840">
        <ele>525.0</ele>
        <time>2014-10-01T13:08:05Z</time>
      </trkpt>
      <trkpt lat="42.3155160" lon="-7.2184320">
        <ele>525.2</ele>
        <time>2014-10-01T13:08:07Z</time>
      </trkpt>
      <trkpt lat="42.3155360" lon="-7.2184040">
        <ele>525.3</ele>
        <time>2014-10-01T13:08:08Z</time>
      </trkpt>
      <trkpt lat="42.3155580" lon="-7.2183780">
        <ele>525.4</ele>
        <time>2014-10-01T13:08:09Z</time>
      </trkpt>
      <trkpt lat="42.3156040" lon="-7.2183350">
        <ele>525.6</ele>
        <time>2014-10-01T13:08:11Z</time>
      </trkpt>
      <trkpt lat="42.3156300" lon="-7.2183210">
        <ele>525.7</ele>
        <time>2014-10-01T13:08:12Z</time>
      </trkpt>
      <trkpt lat="42.3156590" lon="-7.2183080">
        <ele>525.8</ele>
        <time>2014-10-01T13:08:13Z</time>
      </trkpt>
      <trkpt lat="42.3156910" lon="-7.2183050">
        <ele>525.9</ele>
        <time>2014-10-01T13:08:14Z</time>
      </trkpt>
      <trkpt lat="42.3157320" lon="-7.2183050">
        <ele>526.1</ele>
        <time>2014-10-01T13:08:15Z</time>
      </trkpt>
      <trkpt lat="42.3157690" lon="-7.2183100">
        <ele>526.3</ele>
        <time>2014-10-01T13:08:16Z</time>
      </trkpt>
      <trkpt lat="42.3158080" lon="-7.2183240">
        <ele>526.4</ele>
        <time>2014-10-01T13:08:17Z</time>
      </trkpt>
      <trkpt lat="42.3158430" lon="-7.2183400">
        <ele>526.6</ele>
        <time>2014-10-01T13:08:18Z</time>
      </trkpt>
      <trkpt lat="42.3158760" lon="-7.2183600">
        <ele>526.7</ele>
        <time>2014-10-01T13:08:19Z</time>
      </trkpt>
      <trkpt lat="42.3159070" lon="-7.2183830">
        <ele>526.9</ele>
        <time>2014-10-01T13:08:20Z</time>
      </trkpt>
      <trkpt lat="42.3159340" lon="-7.2184040">
        <ele>527.0</ele>
        <time>2014-10-01T13:08:21Z</time>
      </trkpt>
      <trkpt lat="42.3159600" lon="-7.2184250">
        <ele>527.1</ele>
        <time>2014-10-01T13:08:22Z</time>
      </trkpt>
      <trkpt lat="42.3159850" lon="-7.2184470">
        <ele>527.2</ele>
        <time>2014-10-01T13:08:23Z</time>
      </trkpt>
      <trkpt lat="42.3160100" lon="-7.2184680">
        <ele>527.4</ele>
        <time>2014-10-01T13:08:24Z</time>
      </trkpt>
      <trkpt lat="42.3160320" lon="-7.2184880">
        <ele>527.4</ele>
        <time>2014-10-01T13:08:25Z</time>
      </trkpt>
      <trkpt lat="42.3160740" lon="-7.2185330">
        <ele>527.6</ele>
        <time>2014-10-01T13:08:27Z</time>
      </trkpt>
      <trkpt lat="42.3160970" lon="-7.2185600">
        <ele>527.7</ele>
        <time>2014-10-01T13:08:28Z</time>
      </trkpt>
      <trkpt lat="42.3161230" lon="-7.2185850">
        <ele>527.8</ele>
        <time>2014-10-01T13:08:29Z</time>
      </trkpt>
      <trkpt lat="42.3161460" lon="-7.2186050">
        <ele>527.9</ele>
        <time>2014-10-01T13:08:30Z</time>
      </trkpt>
      <trkpt lat="42.3161670" lon="-7.2186300">
        <ele>528.0</ele>
        <time>2014-10-01T13:08:31Z</time>
      </trkpt>
      <trkpt lat="42.3161890" lon="-7.2186580">
        <ele>528.1</ele>
        <time>2014-10-01T13:08:32Z</time>
      </trkpt>
      <trkpt lat="42.3162130" lon="-7.2186900">
        <ele>528.2</ele>
        <time>2014-10-01T13:08:33Z</time>
      </trkpt>
      <trkpt lat="42.3162360" lon="-7.2187230">
        <ele>528.4</ele>
        <time>2014-10-01T13:08:34Z</time>
      </trkpt>
      <trkpt lat="42.3162570" lon="-7.2187540">
        <ele>528.5</ele>
        <time>2014-10-01T13:08:35Z</time>
      </trkpt>
      <trkpt lat="42.3162770" lon="-7.2187790">
        <ele>528.6</ele>
        <time>2014-10-01T13:08:36Z</time>
      </trkpt>
      <trkpt lat="42.3162960" lon="-7.2188080">
        <ele>528.7</ele>
        <time>2014-10-01T13:08:37Z</time>
      </trkpt>
      <trkpt lat="42.3163330" lon="-7.2188590">
        <ele>529.0</ele>
        <time>2014-10-01T13:08:39Z</time>
      </trkpt>
      <trkpt lat="42.3163550" lon="-7.2188860">
        <ele>529.1</ele>
        <time>2014-10-01T13:08:40Z</time>
      </trkpt>
      <trkpt lat="42.3163810" lon="-7.2189170">
        <ele>529.3</ele>
        <time>2014-10-01T13:08:41Z</time>
      </trkpt>
      <trkpt lat="42.3164120" lon="-7.2189470">
        <ele>529.4</ele>
        <time>2014-10-01T13:08:42Z</time>
      </trkpt>
      <trkpt lat="42.3164420" lon="-7.2189760">
        <ele>529.6</ele>
        <time>2014-10-01T13:08:43Z</time>
      </trkpt>
      <trkpt lat="42.3164770" lon="-7.2190030">
        <ele>529.7</ele>
        <time>2014-10-01T13:08:44Z</time>
      </trkpt>
      <trkpt lat="42.3165090" lon="-7.2190250">
        <ele>529.9</ele>
        <time>2014-10-01T13:08:45Z</time>
      </trkpt>
      <trkpt lat="42.3165390" lon="-7.2190500">
        <ele>530.1</ele>
        <time>2014-10-01T13:08:46Z</time>
      </trkpt>
      <trkpt lat="42.3165680" lon="-7.2190700">
        <ele>530.2</ele>
        <time>2014-10-01T13:08:47Z</time>
      </trkpt>
      <trkpt lat="42.3165970" lon="-7.2190910">
        <ele>530.4</ele>
        <time>2014-10-01T13:08:48Z</time>
      </trkpt>
      <trkpt lat="42.3166250" lon="-7.2191140">
        <ele>530.5</ele>
        <time>2014-10-01T13:08:49Z</time>
      </trkpt>
      <trkpt lat="42.3166500" lon="-7.2191380">
        <ele>530.7</ele>
        <time>2014-10-01T13:08:50Z</time>
      </trkpt>
      <trkpt lat="42.3166740" lon="-7.2191600">
        <ele>530.8</ele>
        <time>2014-10-01T13:08:51Z</time>
      </trkpt>
      <trkpt lat="42.3166990" lon="-7.2191790">
        <ele>530.9</ele>
        <time>2014-10-01T13:08:52Z</time>
      </trkpt>
      <trkpt lat="42.3167260" lon="-7.2191970">
        <ele>531.0</ele>
        <time>2014-10-01T13:08:53Z</time>
      </trkpt>
      <trkpt lat="42.3167530" lon="-7.2192180">
        <ele>531.1</ele>
        <time>2014-10-01T13:08:54Z</time>
      </trkpt>
      <trkpt lat="42.3167810" lon="-7.2192380">
        <ele>531.2</ele>
        <time>2014-10-01T13:08:55Z</time>
      </trkpt>
      <trkpt lat="42.3168090" lon="-7.2192560">
        <ele>531.3</ele>
        <time>2014-10-01T13:08:56Z</time>
      </trkpt>
      <trkpt lat="42.3168370" lon="-7.2192810">
        <ele>531.4</ele>
        <time>2014-10-01T13:08:57Z</time>
      </trkpt>
      <trkpt lat="42.3168610" lon="-7.2193010">
        <ele>531.6</ele>
        <time>2014-10-01T13:08:58Z</time>
      </trkpt>
      <trkpt lat="42.3168850" lon="-7.2193250">
        <ele>531.7</ele>
        <time>2014-10-01T13:08:59Z</time>
      </trkpt>
      <trkpt lat="42.3169140" lon="-7.2193550">
        <ele>531.9</ele>
        <time>2014-10-01T13:09:00Z</time>
      </trkpt>
      <trkpt lat="42.3169450" lon="-7.2193880">
        <ele>532.0</ele>
        <time>2014-10-01T13:09:01Z</time>
      </trkpt>
      <trkpt lat="42.3169710" lon="-7.2194220">
        <ele>532.2</ele>
        <time>2014-10-01T13:09:02Z</time>
      </trkpt>
      <trkpt lat="42.3169970" lon="-7.2194520">
        <ele>532.4</ele>
        <time>2014-10-01T13:09:03Z</time>
      </trkpt>
      <trkpt lat="42.3170210" lon="-7.2194850">
        <ele>532.5</ele>
        <time>2014-10-01T13:09:04Z</time>
      </trkpt>
      <trkpt lat="42.3170420" lon="-7.2195190">
        <ele>532.6</ele>
        <time>2014-10-01T13:09:05Z</time>
      </trkpt>
      <trkpt lat="42.3170580" lon="-7.2195510">
        <ele>532.7</ele>
        <time>2014-10-01T13:09:06Z</time>
      </trkpt>
      <trkpt lat="42.3170700" lon="-7.2195890">
        <ele>532.8</ele>
        <time>2014-10-01T13:09:07Z</time>
      </trkpt>
      <trkpt lat="42.3170770" lon="-7.2196310">
        <ele>532.9</ele>
        <time>2014-10-01T13:09:08Z</time>
      </trkpt>
      <trkpt lat="42.3170860" lon="-7.2196800">
        <ele>533.1</ele>
        <time>2014-10-01T13:09:09Z</time>
      </trkpt>
      <trkpt lat="42.3170870" lon="-7.2197300">
        <ele>533.2</ele>
        <time>2014-10-01T13:09:10Z</time>
      </trkpt>
      <trkpt lat="42.3170780" lon="-7.2198060">
        <ele>533.4</ele>
        <time>2014-10-01T13:09:12Z</time>
      </trkpt>
      <trkpt lat="42.3170690" lon="-7.2198510">
        <ele>533.5</ele>
        <time>2014-10-01T13:09:13Z</time>
      </trkpt>
      <trkpt lat="42.3170540" lon="-7.2198920">
        <ele>533.6</ele>
        <time>2014-10-01T13:09:14Z</time>
      </trkpt>
      <trkpt lat="42.3170410" lon="-7.2199320">
        <ele>533.7</ele>
        <time>2014-10-01T13:09:15Z</time>
      </trkpt>
      <trkpt lat="42.3170230" lon="-7.2199990">
        <ele>533.9</ele>
        <time>2014-10-01T13:09:17Z</time>
      </trkpt>
      <trkpt lat="42.3170150" lon="-7.2200380">
        <ele>534.0</ele>
        <time>2014-10-01T13:09:18Z</time>
      </trkpt>
      <trkpt lat="42.3170030" lon="-7.2200790">
        <ele>534.1</ele>
        <time>2014-10-01T13:09:19Z</time>
      </trkpt>
      <trkpt lat="42.3169920" lon="-7.2201270">
        <ele>534.3</ele>
        <time>2014-10-01T13:09:20Z</time>
      </trkpt>
      <trkpt lat="42.3169830" lon="-7.2201700">
        <ele>534.4</ele>
        <time>2014-10-01T13:09:21Z</time>
      </trkpt>
      <trkpt lat="42.3169760" lon="-7.2202130">
        <ele>534.5</ele>
        <time>2014-10-01T13:09:22Z</time>
      </trkpt>
      <trkpt lat="42.3169680" lon="-7.2202500">
        <ele>534.6</ele>
        <time>2014-10-01T13:09:23Z</time>
      </trkpt>
      <trkpt lat="42.3169570" lon="-7.2202840">
        <ele>534.7</ele>
        <time>2014-10-01T13:09:24Z</time>
      </trkpt>
      <trkpt lat="42.3169400" lon="-7.2203590">
        <ele>534.9</ele>
        <time>2014-10-01T13:09:26Z</time>
      </trkpt>
      <trkpt lat="42.3169190" lon="-7.2204250">
        <ele>535.1</ele>
        <time>2014-10-01T13:09:28Z</time>
      </trkpt>
      <trkpt lat="42.3169050" lon="-7.2204580">
        <ele>535.2</ele>
        <time>2014-10-01T13:09:29Z</time>
      </trkpt>
      <trkpt lat="42.3168890" lon="-7.2204920">
        <ele>535.4</ele>
        <time>2014-10-01T13:09:30Z</time>
      </trkpt>
      <trkpt lat="42.3168740" lon="-7.2205270">
        <ele>535.5</ele>
        <time>2014-10-01T13:09:31Z</time>
      </trkpt>
      <trkpt lat="42.3168590" lon="-7.2205590">
        <ele>535.6</ele>
        <time>2014-10-01T13:09:32Z</time>
      </trkpt>
      <trkpt lat="42.3168430" lon="-7.2205960">
        <ele>535.8</ele>
        <time>2014-10-01T13:09:33Z</time>
      </trkpt>
      <trkpt lat="42.3168260" lon="-7.2206380">
        <ele>536.0</ele>
        <time>2014-10-01T13:09:34Z</time>
      </trkpt>
      <trkpt lat="42.3168160" lon="-7.2206720">
        <ele>536.1</ele>
        <time>2014-10-01T13:09:35Z</time>
      </trkpt>
      <trkpt lat="42.3168060" lon="-7.2207090">
        <ele>536.2</ele>
        <time>2014-10-01T13:09:36Z</time>
      </trkpt>
      <trkpt lat="42.3167970" lon="-7.2207450">
        <ele>536.4</ele>
        <time>2014-10-01T13:09:37Z</time>
      </trkpt>
      <trkpt lat="42.3167880" lon="-7.2208130">
        <ele>536.6</ele>
        <time>2014-10-01T13:09:39Z</time>
      </trkpt>
      <trkpt lat="42.3167800" lon="-7.2208510">
        <ele>536.7</ele>
        <time>2014-10-01T13:09:40Z</time>
      </trkpt>
      <trkpt lat="42.3167680" lon="-7.2208930">
        <ele>536.9</ele>
        <time>2014-10-01T13:09:41Z</time>
      </trkpt>
      <trkpt lat="42.3167600" lon="-7.2209310">
        <ele>537.0</ele>
        <time>2014-10-01T13:09:42Z</time>
      </trkpt>
      <trkpt lat="42.3167570" lon="-7.2209760">
        <ele>537.1</ele>
        <time>2014-10-01T13:09:43Z</time>
      </trkpt>
      <trkpt lat="42.3167510" lon="-7.2210190">
        <ele>537.2</ele>
        <time>2014-10-01T13:09:44Z</time>
      </trkpt>
      <trkpt lat="42.3167420" lon="-7.2210590">
        <ele>537.3</ele>
        <time>2014-10-01T13:09:45Z</time>
      </trkpt>
      <trkpt lat="42.3167320" lon="-7.2210980">
        <ele>537.4</ele>
        <time>2014-10-01T13:09:46Z</time>
      </trkpt>
      <trkpt lat="42.3167260" lon="-7.2211350">
        <ele>537.5</ele>
        <time>2014-10-01T13:09:47Z</time>
      </trkpt>
      <trkpt lat="42.3167190" lon="-7.2211740">
        <ele>537.6</ele>
        <time>2014-10-01T13:09:48Z</time>
      </trkpt>
      <trkpt lat="42.3167120" lon="-7.2212130">
        <ele>537.7</ele>
        <time>2014-10-01T13:09:49Z</time>
      </trkpt>
      <trkpt lat="42.3167110" lon="-7.2212510">
        <ele>537.8</ele>
        <time>2014-10-01T13:09:50Z</time>
      </trkpt>
      <trkpt lat="42.3167080" lon="-7.2212890">
        <ele>538.0</ele>
        <time>2014-10-01T13:09:51Z</time>
      </trkpt>
      <trkpt lat="42.3167020" lon="-7.2213290">
        <ele>538.1</ele>
        <time>2014-10-01T13:09:52Z</time>
      </trkpt>
      <trkpt lat="42.3167030" lon="-7.2213650">
        <ele>538.2</ele>
        <time>2014-10-01T13:09:53Z</time>
      </trkpt>
      <trkpt lat="42.3167050" lon="-7.2214060">
        <ele>538.3</ele>
        <time>2014-10-01T13:09:54Z</time>
      </trkpt>
      <trkpt lat="42.3167050" lon="-7.2214530">
        <ele>538.5</ele>
        <time>2014-10-01T13:09:55Z</time>
      </trkpt>
      <trkpt lat="42.3167050" lon="-7.2215000">
        <ele>538.6</ele>
        <time>2014-10-01T13:09:56Z</time>
      </trkpt>
      <trkpt lat="42.3167010" lon="-7.2215430">
        <ele>538.7</ele>
        <time>2014-10-01T13:09:57Z</time>
      </trkpt>
      <trkpt lat="42.3166960" lon="-7.2215800">
        <ele>538.8</ele>
        <time>2014-10-01T13:09:58Z</time>
      </trkpt>
      <trkpt lat="42.3167000" lon="-7.2216180">
        <ele>538.9</ele>
        <time>2014-10-01T13:09:59Z</time>
      </trkpt>
      <trkpt lat="42.3167010" lon="-7.2216900">
        <ele>539.1</ele>
        <time>2014-10-01T13:10:01Z</time>
      </trkpt>
      <trkpt lat="42.3166970" lon="-7.2217300">
        <ele>539.2</ele>
        <time>2014-10-01T13:10:02Z</time>
      </trkpt>
      <trkpt lat="42.3166970" lon="-7.2217710">
        <ele>539.3</ele>
        <time>2014-10-01T13:10:03Z</time>
      </trkpt>
      <trkpt lat="42.3166950" lon="-7.2218120">
        <ele>539.4</ele>
        <time>2014-10-01T13:10:04Z</time>
      </trkpt>
      <trkpt lat="42.3166950" lon="-7.2218510">
        <ele>539.5</ele>
        <time>2014-10-01T13:10:05Z</time>
      </trkpt>
      <trkpt lat="42.3166930" lon="-7.2218910">
        <ele>539.6</ele>
        <time>2014-10-01T13:10:06Z</time>
      </trkpt>
      <trkpt lat="42.3166920" lon="-7.2219390">
        <ele>539.7</ele>
        <time>2014-10-01T13:10:07Z</time>
      </trkpt>
      <trkpt lat="42.3166910" lon="-7.2219840">
        <ele>539.8</ele>
        <time>2014-10-01T13:10:08Z</time>
      </trkpt>
      <trkpt lat="42.3166890" lon="-7.2220300">
        <ele>539.9</ele>
        <time>2014-10-01T13:10:09Z</time>
      </trkpt>
      <trkpt lat="42.3166850" lon="-7.2220720">
        <ele>540.0</ele>
        <time>2014-10-01T13:10:10Z</time>
      </trkpt>
      <trkpt lat="42.3166870" lon="-7.2221180">
        <ele>540.1</ele>
        <time>2014-10-01T13:10:11Z</time>
      </trkpt>
      <trkpt lat="42.3166850" lon="-7.2221570">
        <ele>540.2</ele>
        <time>2014-10-01T13:10:12Z</time>
      </trkpt>
      <trkpt lat="42.3166820" lon="-7.2221950">
        <ele>540.3</ele>
        <time>2014-10-01T13:10:13Z</time>
      </trkpt>
      <trkpt lat="42.3166830" lon="-7.2222400">
        <ele>540.4</ele>
        <time>2014-10-01T13:10:14Z</time>
      </trkpt>
      <trkpt lat="42.3166830" lon="-7.2222900">
        <ele>540.5</ele>
        <time>2014-10-01T13:10:15Z</time>
      </trkpt>
      <trkpt lat="42.3166770" lon="-7.2223350">
        <ele>540.6</ele>
        <time>2014-10-01T13:10:16Z</time>
      </trkpt>
      <trkpt lat="42.3166780" lon="-7.2223740">
        <ele>540.7</ele>
        <time>2014-10-01T13:10:17Z</time>
      </trkpt>
      <trkpt lat="42.3166780" lon="-7.2224160">
        <ele>540.9</ele>
        <time>2014-10-01T13:10:18Z</time>
      </trkpt>
      <trkpt lat="42.3166800" lon="-7.2224710">
        <ele>541.0</ele>
        <time>2014-10-01T13:10:19Z</time>
      </trkpt>
      <trkpt lat="42.3166750" lon="-7.2225230">
        <ele>541.2</ele>
        <time>2014-10-01T13:10:20Z</time>
      </trkpt>
      <trkpt lat="42.3166750" lon="-7.2225790">
        <ele>541.4</ele>
        <time>2014-10-01T13:10:21Z</time>
      </trkpt>
      <trkpt lat="42.3166740" lon="-7.2226250">
        <ele>541.5</ele>
        <time>2014-10-01T13:10:22Z</time>
      </trkpt>
      <trkpt lat="42.3166700" lon="-7.2226760">
        <ele>541.7</ele>
        <time>2014-10-01T13:10:23Z</time>
      </trkpt>
      <trkpt lat="42.3166710" lon="-7.2227180">
        <ele>541.8</ele>
        <time>2014-10-01T13:10:24Z</time>
      </trkpt>
      <trkpt lat="42.3166740" lon="-7.2227550">
        <ele>541.9</ele>
        <time>2014-10-01T13:10:25Z</time>
      </trkpt>
      <trkpt lat="42.3166770" lon="-7.2227970">
        <ele>542.0</ele>
        <time>2014-10-01T13:10:26Z</time>
      </trkpt>
      <trkpt lat="42.3166800" lon="-7.2228380">
        <ele>542.1</ele>
        <time>2014-10-01T13:10:27Z</time>
      </trkpt>
      <trkpt lat="42.3166850" lon="-7.2228860">
        <ele>542.2</ele>
        <time>2014-10-01T13:10:28Z</time>
      </trkpt>
      <trkpt lat="42.3166870" lon="-7.2229390">
        <ele>542.3</ele>
        <time>2014-10-01T13:10:29Z</time>
      </trkpt>
      <trkpt lat="42.3166880" lon="-7.2229880">
        <ele>542.5</ele>
        <time>2014-10-01T13:10:30Z</time>
      </trkpt>
      <trkpt lat="42.3166930" lon="-7.2230330">
        <ele>542.6</ele>
        <time>2014-10-01T13:10:31Z</time>
      </trkpt>
      <trkpt lat="42.3167020" lon="-7.2230680">
        <ele>542.7</ele>
        <time>2014-10-01T13:10:32Z</time>
      </trkpt>
      <trkpt lat="42.3167110" lon="-7.2231030">
        <ele>542.8</ele>
        <time>2014-10-01T13:10:33Z</time>
      </trkpt>
      <trkpt lat="42.3167190" lon="-7.2231520">
        <ele>542.9</ele>
        <time>2014-10-01T13:10:35Z</time>
      </trkpt>
      <trkpt lat="42.3167340" lon="-7.2232260">
        <ele>543.2</ele>
        <time>2014-10-01T13:10:37Z</time>
      </trkpt>
      <trkpt lat="42.3167340" lon="-7.2232720">
        <ele>543.3</ele>
        <time>2014-10-01T13:10:38Z</time>
      </trkpt>
      <trkpt lat="42.3167360" lon="-7.2233230">
        <ele>543.5</ele>
        <time>2014-10-01T13:10:39Z</time>
      </trkpt>
      <trkpt lat="42.3167360" lon="-7.2233720">
        <ele>543.6</ele>
        <time>2014-10-01T13:10:40Z</time>
      </trkpt>
      <trkpt lat="42.3167260" lon="-7.2234140">
        <ele>543.8</ele>
        <time>2014-10-01T13:10:41Z</time>
      </trkpt>
      <trkpt lat="42.3167150" lon="-7.2234540">
        <ele>543.9</ele>
        <time>2014-10-01T13:10:42Z</time>
      </trkpt>
      <trkpt lat="42.3167040" lon="-7.2234870">
        <ele>544.0</ele>
        <time>2014-10-01T13:10:43Z</time>
      </trkpt>
      <trkpt lat="42.3166750" lon="-7.2235440">
        <ele>544.2</ele>
        <time>2014-10-01T13:10:45Z</time>
      </trkpt>
      <trkpt lat="42.3166360" lon="-7.2235920">
        <ele>544.4</ele>
        <time>2014-10-01T13:10:47Z</time>
      </trkpt>
      <trkpt lat="42.3166050" lon="-7.2236150">
        <ele>544.5</ele>
        <time>2014-10-01T13:10:48Z</time>
      </trkpt>
      <trkpt lat="42.3165790" lon="-7.2236340">
        <ele>544.6</ele>
        <time>2014-10-01T13:10:49Z</time>
      </trkpt>
      <trkpt lat="42.3165520" lon="-7.2236540">
        <ele>544.7</ele>
        <time>2014-10-01T13:10:50Z</time>
      </trkpt>
      <trkpt lat="42.3165220" lon="-7.2236730">
        <ele>544.8</ele>
        <time>2014-10-01T13:10:51Z</time>
      </trkpt>
      <trkpt lat="42.3164930" lon="-7.2236940">
        <ele>544.9</ele>
        <time>2014-10-01T13:10:52Z</time>
      </trkpt>
      <trkpt lat="42.3164640" lon="-7.2237120">
        <ele>545.0</ele>
        <time>2014-10-01T13:10:53Z</time>
      </trkpt>
      <trkpt lat="42.3164310" lon="-7.2237290">
        <ele>545.1</ele>
        <time>2014-10-01T13:10:54Z</time>
      </trkpt>
      <trkpt lat="42.3164000" lon="-7.2237460">
        <ele>545.2</ele>
        <time>2014-10-01T13:10:55Z</time>
      </trkpt>
      <trkpt lat="42.3163700" lon="-7.2237610">
        <ele>545.3</ele>
        <time>2014-10-01T13:10:56Z</time>
      </trkpt>
      <trkpt lat="42.3163380" lon="-7.2237770">
        <ele>545.4</ele>
        <time>2014-10-01T13:10:57Z</time>
      </trkpt>
      <trkpt lat="42.3163050" lon="-7.2237950">
        <ele>545.6</ele>
        <time>2014-10-01T13:10:58Z</time>
      </trkpt>
      <trkpt lat="42.3162750" lon="-7.2238130">
        <ele>545.7</ele>
        <time>2014-10-01T13:10:59Z</time>
      </trkpt>
      <trkpt lat="42.3162460" lon="-7.2238300">
        <ele>545.8</ele>
        <time>2014-10-01T13:11:00Z</time>
      </trkpt>
      <trkpt lat="42.3162160" lon="-7.2238470">
        <ele>545.9</ele>
        <time>2014-10-01T13:11:01Z</time>
      </trkpt>
      <trkpt lat="42.3161880" lon="-7.2238650">
        <ele>546.1</ele>
        <time>2014-10-01T13:11:02Z</time>
      </trkpt>
      <trkpt lat="42.3161580" lon="-7.2238850">
        <ele>546.2</ele>
        <time>2014-10-01T13:11:03Z</time>
      </trkpt>
      <trkpt lat="42.3161330" lon="-7.2239070">
        <ele>546.3</ele>
        <time>2014-10-01T13:11:04Z</time>
      </trkpt>
      <trkpt lat="42.3161080" lon="-7.2239310">
        <ele>546.5</ele>
        <time>2014-10-01T13:11:05Z</time>
      </trkpt>
      <trkpt lat="42.3160850" lon="-7.2239540">
        <ele>546.6</ele>
        <time>2014-10-01T13:11:06Z</time>
      </trkpt>
      <trkpt lat="42.3160620" lon="-7.2239790">
        <ele>546.8</ele>
        <time>2014-10-01T13:11:07Z</time>
      </trkpt>
      <trkpt lat="42.3160380" lon="-7.2240040">
        <ele>546.9</ele>
        <time>2014-10-01T13:11:08Z</time>
      </trkpt>
      <trkpt lat="42.3160170" lon="-7.2240260">
        <ele>547.0</ele>
        <time>2014-10-01T13:11:09Z</time>
      </trkpt>
      <trkpt lat="42.3159960" lon="-7.2240490">
        <ele>547.1</ele>
        <time>2014-10-01T13:11:10Z</time>
      </trkpt>
      <trkpt lat="42.3159520" lon="-7.2240940">
        <ele>547.3</ele>
        <time>2014-10-01T13:11:12Z</time>
      </trkpt>
      <trkpt lat="42.3159110" lon="-7.2241390">
        <ele>547.5</ele>
        <time>2014-10-01T13:11:14Z</time>
      </trkpt>
      <trkpt lat="42.3158820" lon="-7.2241660">
        <ele>547.7</ele>
        <time>2014-10-01T13:11:15Z</time>
      </trkpt>
      <trkpt lat="42.3158610" lon="-7.2241920">
        <ele>547.8</ele>
        <time>2014-10-01T13:11:16Z</time>
      </trkpt>
      <trkpt lat="42.3158390" lon="-7.2242170">
        <ele>547.9</ele>
        <time>2014-10-01T13:11:17Z</time>
      </trkpt>
      <trkpt lat="42.3158160" lon="-7.2242480">
        <ele>548.0</ele>
        <time>2014-10-01T13:11:18Z</time>
      </trkpt>
      <trkpt lat="42.3157940" lon="-7.2242840">
        <ele>548.2</ele>
        <time>2014-10-01T13:11:19Z</time>
      </trkpt>
      <trkpt lat="42.3157770" lon="-7.2243130">
        <ele>548.3</ele>
        <time>2014-10-01T13:11:20Z</time>
      </trkpt>
      <trkpt lat="42.3157590" lon="-7.2243430">
        <ele>548.4</ele>
        <time>2014-10-01T13:11:21Z</time>
      </trkpt>
      <trkpt lat="42.3157390" lon="-7.2243700">
        <ele>548.5</ele>
        <time>2014-10-01T13:11:22Z</time>
      </trkpt>
      <trkpt lat="42.3157020" lon="-7.2244180">
        <ele>548.7</ele>
        <time>2014-10-01T13:11:24Z</time>
      </trkpt>
      <trkpt lat="42.3156830" lon="-7.2244510">
        <ele>548.8</ele>
        <time>2014-10-01T13:11:25Z</time>
      </trkpt>
      <trkpt lat="42.3156610" lon="-7.2244890">
        <ele>548.9</ele>
        <time>2014-10-01T13:11:26Z</time>
      </trkpt>
      <trkpt lat="42.3156340" lon="-7.2245250">
        <ele>549.0</ele>
        <time>2014-10-01T13:11:27Z</time>
      </trkpt>
      <trkpt lat="42.3156080" lon="-7.2245530">
        <ele>549.2</ele>
        <time>2014-10-01T13:11:28Z</time>
      </trkpt>
      <trkpt lat="42.3155840" lon="-7.2245720">
        <ele>549.3</ele>
        <time>2014-10-01T13:11:29Z</time>
      </trkpt>
      <trkpt lat="42.3155560" lon="-7.2245870">
        <ele>549.4</ele>
        <time>2014-10-01T13:11:30Z</time>
      </trkpt>
      <trkpt lat="42.3155200" lon="-7.2245930">
        <ele>549.5</ele>
        <time>2014-10-01T13:11:31Z</time>
      </trkpt>
      <trkpt lat="42.3154780" lon="-7.2245890">
        <ele>549.7</ele>
        <time>2014-10-01T13:11:32Z</time>
      </trkpt>
      <trkpt lat="42.3154440" lon="-7.2245680">
        <ele>549.8</ele>
        <time>2014-10-01T13:11:33Z</time>
      </trkpt>
      <trkpt lat="42.3154210" lon="-7.2245310">
        <ele>549.9</ele>
        <time>2014-10-01T13:11:34Z</time>
      </trkpt>
      <trkpt lat="42.3154070" lon="-7.2244900">
        <ele>550.0</ele>
        <time>2014-10-01T13:11:35Z</time>
      </trkpt>
      <trkpt lat="42.3154030" lon="-7.2244440">
        <ele>550.2</ele>
        <time>2014-10-01T13:11:36Z</time>
      </trkpt>
      <trkpt lat="42.3154070" lon="-7.2244010">
        <ele>550.3</ele>
        <time>2014-10-01T13:11:37Z</time>
      </trkpt>
      <trkpt lat="42.3154170" lon="-7.2243630">
        <ele>550.4</ele>
        <time>2014-10-01T13:11:38Z</time>
      </trkpt>
      <trkpt lat="42.3154320" lon="-7.2243250">
        <ele>550.5</ele>
        <time>2014-10-01T13:11:39Z</time>
      </trkpt>
      <trkpt lat="42.3154560" lon="-7.2242870">
        <ele>550.6</ele>
        <time>2014-10-01T13:11:40Z</time>
      </trkpt>
      <trkpt lat="42.3154800" lon="-7.2242530">
        <ele>550.7</ele>
        <time>2014-10-01T13:11:41Z</time>
      </trkpt>
      <trkpt lat="42.3155070" lon="-7.2242200">
        <ele>550.8</ele>
        <time>2014-10-01T13:11:42Z</time>
      </trkpt>
      <trkpt lat="42.3155330" lon="-7.2241870">
        <ele>550.9</ele>
        <time>2014-10-01T13:11:43Z</time>
      </trkpt>
      <trkpt lat="42.3155600" lon="-7.2241550">
        <ele>551.1</ele>
        <time>2014-10-01T13:11:44Z</time>
      </trkpt>
      <trkpt lat="42.3155820" lon="-7.2241260">
        <ele>551.2</ele>
        <time>2014-10-01T13:11:45Z</time>
      </trkpt>
      <trkpt lat="42.3156160" lon="-7.2240990">
        <ele>551.3</ele>
        <time>2014-10-01T13:11:46Z</time>
      </trkpt>
      <trkpt lat="42.3156460" lon="-7.2240700">
        <ele>551.4</ele>
        <time>2014-10-01T13:11:47Z</time>
      </trkpt>
      <trkpt lat="42.3156710" lon="-7.2240370">
        <ele>551.5</ele>
        <time>2014-10-01T13:11:48Z</time>
      </trkpt>
      <trkpt lat="42.3156930" lon="-7.2240040">
        <ele>551.6</ele>
        <time>2014-10-01T13:11:49Z</time>
      </trkpt>
      <trkpt lat="42.3157180" lon="-7.2239740">
        <ele>551.7</ele>
        <time>2014-10-01T13:11:50Z</time>
      </trkpt>
      <trkpt lat="42.3157420" lon="-7.2239440">
        <ele>551.8</ele>
        <time>2014-10-01T13:11:51Z</time>
      </trkpt>
      <trkpt lat="42.3157660" lon="-7.2239160">
        <ele>551.9</ele>
        <time>2014-10-01T13:11:52Z</time>
      </trkpt>
      <trkpt lat="42.3157900" lon="-7.2238890">
        <ele>552.1</ele>
        <time>2014-10-01T13:11:53Z</time>
      </trkpt>
      <trkpt lat="42.3158110" lon="-7.2238560">
        <ele>552.2</ele>
        <time>2014-10-01T13:11:54Z</time>
      </trkpt>
      <trkpt lat="42.3158360" lon="-7.2238220">
        <ele>552.3</ele>
        <time>2014-10-01T13:11:55Z</time>
      </trkpt>
      <trkpt lat="42.3158580" lon="-7.2237830">
        <ele>552.4</ele>
        <time>2014-10-01T13:11:56Z</time>
      </trkpt>
      <trkpt lat="42.3158800" lon="-7.2237550">
        <ele>552.6</ele>
        <time>2014-10-01T13:11:57Z</time>
      </trkpt>
      <trkpt lat="42.3158990" lon="-7.2237260">
        <ele>552.7</ele>
        <time>2014-10-01T13:11:58Z</time>
      </trkpt>
      <trkpt lat="42.3159370" lon="-7.2236680">
        <ele>552.9</ele>
        <time>2014-10-01T13:12:00Z</time>
      </trkpt>
      <trkpt lat="42.3159610" lon="-7.2236380">
        <ele>553.0</ele>
        <time>2014-10-01T13:12:01Z</time>
      </trkpt>
      <trkpt lat="42.3159850" lon="-7.2236150">
        <ele>553.1</ele>
        <time>2014-10-01T13:12:02Z</time>
      </trkpt>
      <trkpt lat="42.3160140" lon="-7.2235880">
        <ele>553.2</ele>
        <time>2014-10-01T13:12:03Z</time>
      </trkpt>
      <trkpt lat="42.3160430" lon="-7.2235580">
        <ele>553.3</ele>
        <time>2014-10-01T13:12:04Z</time>
      </trkpt>
      <trkpt lat="42.3160660" lon="-7.2235330">
        <ele>553.4</ele>
        <time>2014-10-01T13:12:05Z</time>
      </trkpt>
      <trkpt lat="42.3161070" lon="-7.2234940">
        <ele>553.6</ele>
        <time>2014-10-01T13:12:07Z</time>
      </trkpt>
      <trkpt lat="42.3161320" lon="-7.2234750">
        <ele>553.7</ele>
        <time>2014-10-01T13:12:08Z</time>
      </trkpt>
      <trkpt lat="42.3161600" lon="-7.2234520">
        <ele>553.8</ele>
        <time>2014-10-01T13:12:09Z</time>
      </trkpt>
      <trkpt lat="42.3161850" lon="-7.2234300">
        <ele>553.9</ele>
        <time>2014-10-01T13:12:10Z</time>
      </trkpt>
      <trkpt lat="42.3162110" lon="-7.2234100">
        <ele>554.1</ele>
        <time>2014-10-01T13:12:11Z</time>
      </trkpt>
      <trkpt lat="42.3162430" lon="-7.2233890">
        <ele>554.2</ele>
        <time>2014-10-01T13:12:12Z</time>
      </trkpt>
      <trkpt lat="42.3162710" lon="-7.2233650">
        <ele>554.3</ele>
        <time>2014-10-01T13:12:13Z</time>
      </trkpt>
      <trkpt lat="42.3162960" lon="-7.2233310">
        <ele>554.4</ele>
        <time>2014-10-01T13:12:14Z</time>
      </trkpt>
      <trkpt lat="42.3163170" lon="-7.2232950">
        <ele>554.5</ele>
        <time>2014-10-01T13:12:15Z</time>
      </trkpt>
      <trkpt lat="42.3163390" lon="-7.2232590">
        <ele>554.5</ele>
        <time>2014-10-01T13:12:16Z</time>
      </trkpt>
      <trkpt lat="42.3163480" lon="-7.2232170">
        <ele>554.4</ele>
        <time>2014-10-01T13:12:17Z</time>
      </trkpt>
      <trkpt lat="42.3163560" lon="-7.2231440">
        <ele>554.3</ele>
        <time>2014-10-01T13:12:19Z</time>
      </trkpt>
      <trkpt lat="42.3163580" lon="-7.2231050">
        <ele>554.6</ele>
        <time>2014-10-01T13:12:20Z</time>
      </trkpt>
      <trkpt lat="42.3163550" lon="-7.2230600">
        <ele>554.9</ele>
        <time>2014-10-01T13:12:21Z</time>
      </trkpt>
      <trkpt lat="42.3163510" lon="-7.2230140">
        <ele>555.3</ele>
        <time>2014-10-01T13:12:22Z</time>
      </trkpt>
      <trkpt lat="42.3163460" lon="-7.2229630">
        <ele>555.6</ele>
        <time>2014-10-01T13:12:23Z</time>
      </trkpt>
      <trkpt lat="42.3163380" lon="-7.2229100">
        <ele>556.0</ele>
        <time>2014-10-01T13:12:24Z</time>
      </trkpt>
      <trkpt lat="42.3163280" lon="-7.2228610">
        <ele>556.4</ele>
        <time>2014-10-01T13:12:25Z</time>
      </trkpt>
      <trkpt lat="42.3163260" lon="-7.2228120">
        <ele>556.8</ele>
        <time>2014-10-01T13:12:26Z</time>
      </trkpt>
      <trkpt lat="42.3163210" lon="-7.2227630">
        <ele>557.1</ele>
        <time>2014-10-01T13:12:27Z</time>
      </trkpt>
      <trkpt lat="42.3163200" lon="-7.2227090">
        <ele>557.5</ele>
        <time>2014-10-01T13:12:28Z</time>
      </trkpt>
      <trkpt lat="42.3163220" lon="-7.2226520">
        <ele>557.9</ele>
        <time>2014-10-01T13:12:29Z</time>
      </trkpt>
      <trkpt lat="42.3163220" lon="-7.2226000">
        <ele>558.3</ele>
        <time>2014-10-01T13:12:30Z</time>
      </trkpt>
      <trkpt lat="42.3163210" lon="-7.2225430">
        <ele>558.6</ele>
        <time>2014-10-01T13:12:31Z</time>
      </trkpt>
      <trkpt lat="42.3163190" lon="-7.2224820">
        <ele>559.0</ele>
        <time>2014-10-01T13:12:32Z</time>
      </trkpt>
      <trkpt lat="42.3163150" lon="-7.2224250">
        <ele>559.3</ele>
        <time>2014-10-01T13:12:33Z</time>
      </trkpt>
      <trkpt lat="42.3163090" lon="-7.2223730">
        <ele>559.5</ele>
        <time>2014-10-01T13:12:34Z</time>
      </trkpt>
      <trkpt lat="42.3163080" lon="-7.2223190">
        <ele>559.8</ele>
        <time>2014-10-01T13:12:35Z</time>
      </trkpt>
      <trkpt lat="42.3163080" lon="-7.2222610">
        <ele>560.1</ele>
        <time>2014-10-01T13:12:36Z</time>
      </trkpt>
      <trkpt lat="42.3163100" lon="-7.2221980">
        <ele>560.5</ele>
        <time>2014-10-01T13:12:37Z</time>
      </trkpt>
      <trkpt lat="42.3163060" lon="-7.2221310">
        <ele>561.0</ele>
        <time>2014-10-01T13:12:38Z</time>
      </trkpt>
      <trkpt lat="42.3163040" lon="-7.2220710">
        <ele>561.4</ele>
        <time>2014-10-01T13:12:39Z</time>
      </trkpt>
      <trkpt lat="42.3162960" lon="-7.2220120">
        <ele>561.8</ele>
        <time>2014-10-01T13:12:40Z</time>
      </trkpt>
      <trkpt lat="42.3162860" lon="-7.2219530">
        <ele>562.2</ele>
        <time>2014-10-01T13:12:41Z</time>
      </trkpt>
      <trkpt lat="42.3162700" lon="-7.2218940">
        <ele>562.6</ele>
        <time>2014-10-01T13:12:42Z</time>
      </trkpt>
      <trkpt lat="42.3162510" lon="-7.2218300">
        <ele>563.0</ele>
        <time>2014-10-01T13:12:43Z</time>
      </trkpt>
      <trkpt lat="42.3162310" lon="-7.2217770">
        <ele>563.3</ele>
        <time>2014-10-01T13:12:44Z</time>
      </trkpt>
      <trkpt lat="42.3162090" lon="-7.2217230">
        <ele>563.7</ele>
        <time>2014-10-01T13:12:45Z</time>
      </trkpt>
      <trkpt lat="42.3161850" lon="-7.2216730">
        <ele>564.0</ele>
        <time>2014-10-01T13:12:46Z</time>
      </trkpt>
      <trkpt lat="42.3161560" lon="-7.2216180">
        <ele>564.4</ele>
        <time>2014-10-01T13:12:47Z</time>
      </trkpt>
      <trkpt lat="42.3161220" lon="-7.2215690">
        <ele>564.8</ele>
        <time>2014-10-01T13:12:48Z</time>
      </trkpt>
      <trkpt lat="42.3160880" lon="-7.2215280">
        <ele>565.2</ele>
        <time>2014-10-01T13:12:49Z</time>
      </trkpt>
      <trkpt lat="42.3160500" lon="-7.2214890">
        <ele>565.5</ele>
        <time>2014-10-01T13:12:50Z</time>
      </trkpt>
      <trkpt lat="42.3160140" lon="-7.2214580">
        <ele>565.9</ele>
        <time>2014-10-01T13:12:51Z</time>
      </trkpt>
      <trkpt lat="42.3159740" lon="-7.2214220">
        <ele>566.3</ele>
        <time>2014-10-01T13:12:52Z</time>
      </trkpt>
      <trkpt lat="42.3159300" lon="-7.2213880">
        <ele>566.8</ele>
        <time>2014-10-01T13:12:53Z</time>
      </trkpt>
      <trkpt lat="42.3158910" lon="-7.2213560">
        <ele>567.2</ele>
        <time>2014-10-01T13:12:54Z</time>
      </trkpt>
      <trkpt lat="42.3158500" lon="-7.2213240">
        <ele>567.6</ele>
        <time>2014-10-01T13:12:55Z</time>
      </trkpt>
      <trkpt lat="42.3158090" lon="-7.2212900">
        <ele>568.1</ele>
        <time>2014-10-01T13:12:56Z</time>
      </trkpt>
      <trkpt lat="42.3157670" lon="-7.2212610">
        <ele>568.5</ele>
        <time>2014-10-01T13:12:57Z</time>
      </trkpt>
      <trkpt lat="42.3157240" lon="-7.2212370">
        <ele>569.0</ele>
        <time>2014-10-01T13:12:58Z</time>
      </trkpt>
      <trkpt lat="42.3156830" lon="-7.2212160">
        <ele>569.5</ele>
        <time>2014-10-01T13:12:59Z</time>
      </trkpt>
      <trkpt lat="42.3156410" lon="-7.2212020">
        <ele>570.0</ele>
        <time>2014-10-01T13:13:00Z</time>
      </trkpt>
      <trkpt lat="42.3155960" lon="-7.2211910">
        <ele>570.5</ele>
        <time>2014-10-01T13:13:01Z</time>
      </trkpt>
      <trkpt lat="42.3155510" lon="-7.2211850">
        <ele>571.1</ele>
        <time>2014-10-01T13:13:02Z</time>
      </trkpt>
      <trkpt lat="42.3155050" lon="-7.2211880">
        <ele>571.6</ele>
        <time>2014-10-01T13:13:03Z</time>
      </trkpt>
      <trkpt lat="42.3154570" lon="-7.2211890">
        <ele>572.2</ele>
        <time>2014-10-01T13:13:04Z</time>
      </trkpt>
      <trkpt lat="42.3154110" lon="-7.2211900">
        <ele>572.7</ele>
        <time>2014-10-01T13:13:05Z</time>
      </trkpt>
      <trkpt lat="42.3153710" lon="-7.2211930">
        <ele>573.2</ele>
        <time>2014-10-01T13:13:06Z</time>
      </trkpt>
      <trkpt lat="42.3153300" lon="-7.2212000">
        <ele>573.7</ele>
        <time>2014-10-01T13:13:07Z</time>
      </trkpt>
      <trkpt lat="42.3152900" lon="-7.2212080">
        <ele>574.1</ele>
        <time>2014-10-01T13:13:08Z</time>
      </trkpt>
      <trkpt lat="42.3152500" lon="-7.2212140">
        <ele>574.6</ele>
        <time>2014-10-01T13:13:09Z</time>
      </trkpt>
      <trkpt lat="42.3152100" lon="-7.2212230">
        <ele>575.0</ele>
        <time>2014-10-01T13:13:10Z</time>
      </trkpt>
      <trkpt lat="42.3151710" lon="-7.2212330">
        <ele>575.5</ele>
        <time>2014-10-01T13:13:11Z</time>
      </trkpt>
      <trkpt lat="42.3151330" lon="-7.2212420">
        <ele>575.9</ele>
        <time>2014-10-01T13:13:12Z</time>
      </trkpt>
      <trkpt lat="42.3150920" lon="-7.2212520">
        <ele>576.4</ele>
        <time>2014-10-01T13:13:13Z</time>
      </trkpt>
      <trkpt lat="42.3150480" lon="-7.2212620">
        <ele>576.9</ele>
        <time>2014-10-01T13:13:14Z</time>
      </trkpt>
      <trkpt lat="42.3150060" lon="-7.2212670">
        <ele>577.5</ele>
        <time>2014-10-01T13:13:15Z</time>
      </trkpt>
      <trkpt lat="42.3149670" lon="-7.2212730">
        <ele>577.9</ele>
        <time>2014-10-01T13:13:16Z</time>
      </trkpt>
      <trkpt lat="42.3149230" lon="-7.2212830">
        <ele>578.5</ele>
        <time>2014-10-01T13:13:17Z</time>
      </trkpt>
      <trkpt lat="42.3148760" lon="-7.2212910">
        <ele>579.1</ele>
        <time>2014-10-01T13:13:18Z</time>
      </trkpt>
      <trkpt lat="42.3148400" lon="-7.2213050">
        <ele>579.6</ele>
        <time>2014-10-01T13:13:19Z</time>
      </trkpt>
      <trkpt lat="42.3148050" lon="-7.2213170">
        <ele>580.0</ele>
        <time>2014-10-01T13:13:20Z</time>
      </trkpt>
      <trkpt lat="42.3147680" lon="-7.2213310">
        <ele>580.5</ele>
        <time>2014-10-01T13:13:21Z</time>
      </trkpt>
      <trkpt lat="42.3147320" lon="-7.2213430">
        <ele>580.9</ele>
        <time>2014-10-01T13:13:22Z</time>
      </trkpt>
      <trkpt lat="42.3146990" lon="-7.2213550">
        <ele>581.3</ele>
        <time>2014-10-01T13:13:23Z</time>
      </trkpt>
      <trkpt lat="42.3146610" lon="-7.2213700">
        <ele>581.8</ele>
        <time>2014-10-01T13:13:24Z</time>
      </trkpt>
      <trkpt lat="42.3146250" lon="-7.2213780">
        <ele>582.1</ele>
        <time>2014-10-01T13:13:25Z</time>
      </trkpt>
      <trkpt lat="42.3145850" lon="-7.2213870">
        <ele>582.5</ele>
        <time>2014-10-01T13:13:26Z</time>
      </trkpt>
      <trkpt lat="42.3145450" lon="-7.2213960">
        <ele>582.9</ele>
        <time>2014-10-01T13:13:27Z</time>
      </trkpt>
      <trkpt lat="42.3145040" lon="-7.2214040">
        <ele>583.3</ele>
        <time>2014-10-01T13:13:28Z</time>
      </trkpt>
      <trkpt lat="42.3144630" lon="-7.2214110">
        <ele>583.7</ele>
        <time>2014-10-01T13:13:29Z</time>
      </trkpt>
      <trkpt lat="42.3144210" lon="-7.2214180">
        <ele>584.1</ele>
        <time>2014-10-01T13:13:30Z</time>
      </trkpt>
      <trkpt lat="42.3143790" lon="-7.2214240">
        <ele>584.5</ele>
        <time>2014-10-01T13:13:31Z</time>
      </trkpt>
      <trkpt lat="42.3143360" lon="-7.2214310">
        <ele>585.0</ele>
        <time>2014-10-01T13:13:32Z</time>
      </trkpt>
      <trkpt lat="42.3142940" lon="-7.2214400">
        <ele>585.4</ele>
        <time>2014-10-01T13:13:33Z</time>
      </trkpt>
      <trkpt lat="42.3142570" lon="-7.2214410">
        <ele>585.8</ele>
        <time>2014-10-01T13:13:34Z</time>
      </trkpt>
      <trkpt lat="42.3142220" lon="-7.2214440">
        <ele>586.2</ele>
        <time>2014-10-01T13:13:35Z</time>
      </trkpt>
      <trkpt lat="42.3141880" lon="-7.2214520">
        <ele>586.5</ele>
        <time>2014-10-01T13:13:36Z</time>
      </trkpt>
      <trkpt lat="42.3141460" lon="-7.2214630">
        <ele>587.0</ele>
        <time>2014-10-01T13:13:37Z</time>
      </trkpt>
      <trkpt lat="42.3141020" lon="-7.2214800">
        <ele>587.6</ele>
        <time>2014-10-01T13:13:38Z</time>
      </trkpt>
      <trkpt lat="42.3140590" lon="-7.2214940">
        <ele>588.1</ele>
        <time>2014-10-01T13:13:39Z</time>
      </trkpt>
      <trkpt lat="42.3140190" lon="-7.2215020">
        <ele>588.6</ele>
        <time>2014-10-01T13:13:40Z</time>
      </trkpt>
      <trkpt lat="42.3139820" lon="-7.2215140">
        <ele>589.1</ele>
        <time>2014-10-01T13:13:41Z</time>
      </trkpt>
      <trkpt lat="42.3139410" lon="-7.2215320">
        <ele>589.7</ele>
        <time>2014-10-01T13:13:42Z</time>
      </trkpt>
      <trkpt lat="42.3139090" lon="-7.2215510">
        <ele>590.2</ele>
        <time>2014-10-01T13:13:43Z</time>
      </trkpt>
      <trkpt lat="42.3138830" lon="-7.2215720">
        <ele>590.6</ele>
        <time>2014-10-01T13:13:44Z</time>
      </trkpt>
      <trkpt lat="42.3138600" lon="-7.2216010">
        <ele>591.1</ele>
        <time>2014-10-01T13:13:45Z</time>
      </trkpt>
      <trkpt lat="42.3138340" lon="-7.2216370">
        <ele>591.6</ele>
        <time>2014-10-01T13:13:46Z</time>
      </trkpt>
      <trkpt lat="42.3138010" lon="-7.2217000">
        <ele>592.4</ele>
        <time>2014-10-01T13:13:48Z</time>
      </trkpt>
      <trkpt lat="42.3137940" lon="-7.2217380">
        <ele>592.8</ele>
        <time>2014-10-01T13:13:49Z</time>
      </trkpt>
      <trkpt lat="42.3137910" lon="-7.2217750">
        <ele>593.1</ele>
        <time>2014-10-01T13:13:50Z</time>
      </trkpt>
      <trkpt lat="42.3137880" lon="-7.2218150">
        <ele>593.5</ele>
        <time>2014-10-01T13:13:51Z</time>
      </trkpt>
      <trkpt lat="42.3137870" lon="-7.2218610">
        <ele>593.9</ele>
        <time>2014-10-01T13:13:52Z</time>
      </trkpt>
      <trkpt lat="42.3137850" lon="-7.2219170">
        <ele>594.5</ele>
        <time>2014-10-01T13:13:53Z</time>
      </trkpt>
      <trkpt lat="42.3137870" lon="-7.2219730">
        <ele>594.6</ele>
        <time>2014-10-01T13:13:54Z</time>
      </trkpt>
      <trkpt lat="42.3137930" lon="-7.2220340">
        <ele>594.8</ele>
        <time>2014-10-01T13:13:55Z</time>
      </trkpt>
      <trkpt lat="42.3138010" lon="-7.2220860">
        <ele>595.0</ele>
        <time>2014-10-01T13:13:56Z</time>
      </trkpt>
      <trkpt lat="42.3138080" lon="-7.2221400">
        <ele>595.2</ele>
        <time>2014-10-01T13:13:57Z</time>
      </trkpt>
      <trkpt lat="42.3138180" lon="-7.2221990">
        <ele>595.4</ele>
        <time>2014-10-01T13:13:58Z</time>
      </trkpt>
      <trkpt lat="42.3138230" lon="-7.2222600">
        <ele>595.6</ele>
        <time>2014-10-01T13:13:59Z</time>
      </trkpt>
      <trkpt lat="42.3138310" lon="-7.2223160">
        <ele>595.8</ele>
        <time>2014-10-01T13:14:00Z</time>
      </trkpt>
      <trkpt lat="42.3138380" lon="-7.2223660">
        <ele>596.0</ele>
        <time>2014-10-01T13:14:01Z</time>
      </trkpt>
      <trkpt lat="42.3138430" lon="-7.2224190">
        <ele>596.2</ele>
        <time>2014-10-01T13:14:02Z</time>
      </trkpt>
      <trkpt lat="42.3138520" lon="-7.2224680">
        <ele>596.3</ele>
        <time>2014-10-01T13:14:03Z</time>
      </trkpt>
      <trkpt lat="42.3138560" lon="-7.2225190">
        <ele>596.5</ele>
        <time>2014-10-01T13:14:04Z</time>
      </trkpt>
      <trkpt lat="42.3138650" lon="-7.2225720">
        <ele>596.7</ele>
        <time>2014-10-01T13:14:05Z</time>
      </trkpt>
      <trkpt lat="42.3138690" lon="-7.2226220">
        <ele>596.8</ele>
        <time>2014-10-01T13:14:06Z</time>
      </trkpt>
      <trkpt lat="42.3138740" lon="-7.2226720">
        <ele>597.0</ele>
        <time>2014-10-01T13:14:07Z</time>
      </trkpt>
      <trkpt lat="42.3138800" lon="-7.2227200">
        <ele>597.1</ele>
        <time>2014-10-01T13:14:08Z</time>
      </trkpt>
      <trkpt lat="42.3138870" lon="-7.2227730">
        <ele>597.3</ele>
        <time>2014-10-01T13:14:09Z</time>
      </trkpt>
      <trkpt lat="42.3138950" lon="-7.2228230">
        <ele>597.5</ele>
        <time>2014-10-01T13:14:10Z</time>
      </trkpt>
      <trkpt lat="42.3139000" lon="-7.2228710">
        <ele>597.7</ele>
        <time>2014-10-01T13:14:11Z</time>
      </trkpt>
      <trkpt lat="42.3139020" lon="-7.2229210">
        <ele>597.8</ele>
        <time>2014-10-01T13:14:12Z</time>
      </trkpt>
      <trkpt lat="42.3139060" lon="-7.2229780">
        <ele>598.0</ele>
        <time>2014-10-01T13:14:13Z</time>
      </trkpt>
      <trkpt lat="42.3139120" lon="-7.2230340">
        <ele>598.2</ele>
        <time>2014-10-01T13:14:14Z</time>
      </trkpt>
      <trkpt lat="42.3139170" lon="-7.2230830">
        <ele>598.4</ele>
        <time>2014-10-01T13:14:15Z</time>
      </trkpt>
      <trkpt lat="42.3139230" lon="-7.2231410">
        <ele>598.6</ele>
        <time>2014-10-01T13:14:16Z</time>
      </trkpt>
      <trkpt lat="42.3139300" lon="-7.2232030">
        <ele>598.9</ele>
        <time>2014-10-01T13:14:17Z</time>
      </trkpt>
      <trkpt lat="42.3139350" lon="-7.2232570">
        <ele>599.1</ele>
        <time>2014-10-01T13:14:18Z</time>
      </trkpt>
      <trkpt lat="42.3139400" lon="-7.2233050">
        <ele>599.2</ele>
        <time>2014-10-01T13:14:19Z</time>
      </trkpt>
      <trkpt lat="42.3139420" lon="-7.2233590">
        <ele>599.4</ele>
        <time>2014-10-01T13:14:20Z</time>
      </trkpt>
      <trkpt lat="42.3139390" lon="-7.2234120">
        <ele>599.6</ele>
        <time>2014-10-01T13:14:21Z</time>
      </trkpt>
      <trkpt lat="42.3139340" lon="-7.2234670">
        <ele>599.8</ele>
        <time>2014-10-01T13:14:22Z</time>
      </trkpt>
      <trkpt lat="42.3139240" lon="-7.2235220">
        <ele>600.0</ele>
        <time>2014-10-01T13:14:23Z</time>
      </trkpt>
      <trkpt lat="42.3139180" lon="-7.2235740">
        <ele>600.2</ele>
        <time>2014-10-01T13:14:24Z</time>
      </trkpt>
      <trkpt lat="42.3139110" lon="-7.2236170">
        <ele>600.4</ele>
        <time>2014-10-01T13:14:25Z</time>
      </trkpt>
      <trkpt lat="42.3138980" lon="-7.2236680">
        <ele>600.6</ele>
        <time>2014-10-01T13:14:26Z</time>
      </trkpt>
      <trkpt lat="42.3138850" lon="-7.2237150">
        <ele>600.8</ele>
        <time>2014-10-01T13:14:27Z</time>
      </trkpt>
      <trkpt lat="42.3138690" lon="-7.2237590">
        <ele>601.0</ele>
        <time>2014-10-01T13:14:28Z</time>
      </trkpt>
      <trkpt lat="42.3138530" lon="-7.2237980">
        <ele>601.2</ele>
        <time>2014-10-01T13:14:29Z</time>
      </trkpt>
      <trkpt lat="42.3138310" lon="-7.2238360">
        <ele>601.4</ele>
        <time>2014-10-01T13:14:30Z</time>
      </trkpt>
      <trkpt lat="42.3138180" lon="-7.2238760">
        <ele>601.5</ele>
        <time>2014-10-01T13:14:31Z</time>
      </trkpt>
      <trkpt lat="42.3138030" lon="-7.2239230">
        <ele>601.7</ele>
        <time>2014-10-01T13:14:32Z</time>
      </trkpt>
      <trkpt lat="42.3137830" lon="-7.2239700">
        <ele>601.9</ele>
        <time>2014-10-01T13:14:33Z</time>
      </trkpt>
      <trkpt lat="42.3137650" lon="-7.2240120">
        <ele>602.1</ele>
        <time>2014-10-01T13:14:34Z</time>
      </trkpt>
      <trkpt lat="42.3137400" lon="-7.2240550">
        <ele>602.3</ele>
        <time>2014-10-01T13:14:35Z</time>
      </trkpt>
      <trkpt lat="42.3137200" lon="-7.2241000">
        <ele>602.5</ele>
        <time>2014-10-01T13:14:36Z</time>
      </trkpt>
      <trkpt lat="42.3136960" lon="-7.2241430">
        <ele>602.8</ele>
        <time>2014-10-01T13:14:37Z</time>
      </trkpt>
      <trkpt lat="42.3136750" lon="-7.2241860">
        <ele>603.0</ele>
        <time>2014-10-01T13:14:38Z</time>
      </trkpt>
      <trkpt lat="42.3136560" lon="-7.2242280">
        <ele>603.3</ele>
        <time>2014-10-01T13:14:39Z</time>
      </trkpt>
      <trkpt lat="42.3136430" lon="-7.2242690">
        <ele>603.5</ele>
        <time>2014-10-01T13:14:40Z</time>
      </trkpt>
      <trkpt lat="42.3136270" lon="-7.2243080">
        <ele>603.7</ele>
        <time>2014-10-01T13:14:41Z</time>
      </trkpt>
      <trkpt lat="42.3136090" lon="-7.2243470">
        <ele>604.0</ele>
        <time>2014-10-01T13:14:42Z</time>
      </trkpt>
      <trkpt lat="42.3135870" lon="-7.2243860">
        <ele>604.2</ele>
        <time>2014-10-01T13:14:43Z</time>
      </trkpt>
      <trkpt lat="42.3135670" lon="-7.2244270">
        <ele>604.5</ele>
        <time>2014-10-01T13:14:44Z</time>
      </trkpt>
      <trkpt lat="42.3135490" lon="-7.2244600">
        <ele>604.7</ele>
        <time>2014-10-01T13:14:45Z</time>
      </trkpt>
      <trkpt lat="42.3135300" lon="-7.2244910">
        <ele>604.9</ele>
        <time>2014-10-01T13:14:46Z</time>
      </trkpt>
      <trkpt lat="42.3135150" lon="-7.2245310">
        <ele>605.1</ele>
        <time>2014-10-01T13:14:47Z</time>
      </trkpt>
      <trkpt lat="42.3135050" lon="-7.2245750">
        <ele>605.4</ele>
        <time>2014-10-01T13:14:48Z</time>
      </trkpt>
      <trkpt lat="42.3134920" lon="-7.2246160">
        <ele>605.6</ele>
        <time>2014-10-01T13:14:49Z</time>
      </trkpt>
      <trkpt lat="42.3134750" lon="-7.2246570">
        <ele>605.8</ele>
        <time>2014-10-01T13:14:50Z</time>
      </trkpt>
      <trkpt lat="42.3134490" lon="-7.2246940">
        <ele>606.1</ele>
        <time>2014-10-01T13:14:51Z</time>
      </trkpt>
      <trkpt lat="42.3134280" lon="-7.2247420">
        <ele>606.4</ele>
        <time>2014-10-01T13:14:52Z</time>
      </trkpt>
      <trkpt lat="42.3134120" lon="-7.2247890">
        <ele>606.7</ele>
        <time>2014-10-01T13:14:53Z</time>
      </trkpt>
      <trkpt lat="42.3133900" lon="-7.2248330">
        <ele>607.0</ele>
        <time>2014-10-01T13:14:54Z</time>
      </trkpt>
      <trkpt lat="42.3133730" lon="-7.2248760">
        <ele>607.2</ele>
        <time>2014-10-01T13:14:55Z</time>
      </trkpt>
      <trkpt lat="42.3133550" lon="-7.2249160">
        <ele>607.5</ele>
        <time>2014-10-01T13:14:56Z</time>
      </trkpt>
      <trkpt lat="42.3133410" lon="-7.2249560">
        <ele>607.7</ele>
        <time>2014-10-01T13:14:57Z</time>
      </trkpt>
      <trkpt lat="42.3133300" lon="-7.2249940">
        <ele>607.9</ele>
        <time>2014-10-01T13:14:58Z</time>
      </trkpt>
      <trkpt lat="42.3133110" lon="-7.2250340">
        <ele>608.1</ele>
        <time>2014-10-01T13:14:59Z</time>
      </trkpt>
      <trkpt lat="42.3132950" lon="-7.2250770">
        <ele>608.3</ele>
        <time>2014-10-01T13:15:00Z</time>
      </trkpt>
      <trkpt lat="42.3132730" lon="-7.2251360">
        <ele>608.6</ele>
        <time>2014-10-01T13:15:01Z</time>
      </trkpt>
      <trkpt lat="42.3132550" lon="-7.2251910">
        <ele>608.9</ele>
        <time>2014-10-01T13:15:02Z</time>
      </trkpt>
      <trkpt lat="42.3132350" lon="-7.2252400">
        <ele>609.2</ele>
        <time>2014-10-01T13:15:03Z</time>
      </trkpt>
      <trkpt lat="42.3132150" lon="-7.2252840">
        <ele>609.4</ele>
        <time>2014-10-01T13:15:04Z</time>
      </trkpt>
      <trkpt lat="42.3131990" lon="-7.2253240">
        <ele>609.7</ele>
        <time>2014-10-01T13:15:05Z</time>
      </trkpt>
      <trkpt lat="42.3131800" lon="-7.2253580">
        <ele>609.9</ele>
        <time>2014-10-01T13:15:06Z</time>
      </trkpt>
      <trkpt lat="42.3131680" lon="-7.2253920">
        <ele>610.1</ele>
        <time>2014-10-01T13:15:07Z</time>
      </trkpt>
      <trkpt lat="42.3131380" lon="-7.2254560">
        <ele>610.6</ele>
        <time>2014-10-01T13:15:09Z</time>
      </trkpt>
      <trkpt lat="42.3131220" lon="-7.2254910">
        <ele>610.8</ele>
        <time>2014-10-01T13:15:10Z</time>
      </trkpt>
      <trkpt lat="42.3131070" lon="-7.2255300">
        <ele>611.0</ele>
        <time>2014-10-01T13:15:11Z</time>
      </trkpt>
      <trkpt lat="42.3130890" lon="-7.2255720">
        <ele>611.3</ele>
        <time>2014-10-01T13:15:12Z</time>
      </trkpt>
      <trkpt lat="42.3130760" lon="-7.2256140">
        <ele>611.5</ele>
        <time>2014-10-01T13:15:13Z</time>
      </trkpt>
      <trkpt lat="42.3130620" lon="-7.2256540">
        <ele>611.8</ele>
        <time>2014-10-01T13:15:14Z</time>
      </trkpt>
      <trkpt lat="42.3130530" lon="-7.2256880">
        <ele>611.9</ele>
        <time>2014-10-01T13:15:15Z</time>
      </trkpt>
      <trkpt lat="42.3130370" lon="-7.2257590">
        <ele>612.3</ele>
        <time>2014-10-01T13:15:17Z</time>
      </trkpt>
      <trkpt lat="42.3130250" lon="-7.2257970">
        <ele>612.5</ele>
        <time>2014-10-01T13:15:18Z</time>
      </trkpt>
      <trkpt lat="42.3130130" lon="-7.2258340">
        <ele>612.8</ele>
        <time>2014-10-01T13:15:19Z</time>
      </trkpt>
      <trkpt lat="42.3129990" lon="-7.2258710">
        <ele>613.0</ele>
        <time>2014-10-01T13:15:20Z</time>
      </trkpt>
      <trkpt lat="42.3129830" lon="-7.2259080">
        <ele>613.2</ele>
        <time>2014-10-01T13:15:21Z</time>
      </trkpt>
      <trkpt lat="42.3129710" lon="-7.2259470">
        <ele>613.4</ele>
        <time>2014-10-01T13:15:22Z</time>
      </trkpt>
      <trkpt lat="42.3129620" lon="-7.2259870">
        <ele>613.6</ele>
        <time>2014-10-01T13:15:23Z</time>
      </trkpt>
      <trkpt lat="42.3129460" lon="-7.2260260">
        <ele>613.9</ele>
        <time>2014-10-01T13:15:24Z</time>
      </trkpt>
      <trkpt lat="42.3129320" lon="-7.2260610">
        <ele>614.1</ele>
        <time>2014-10-01T13:15:25Z</time>
      </trkpt>
      <trkpt lat="42.3129170" lon="-7.2261010">
        <ele>614.3</ele>
        <time>2014-10-01T13:15:26Z</time>
      </trkpt>
      <trkpt lat="42.3129010" lon="-7.2261400">
        <ele>614.5</ele>
        <time>2014-10-01T13:15:27Z</time>
      </trkpt>
      <trkpt lat="42.3128850" lon="-7.2261790">
        <ele>614.8</ele>
        <time>2014-10-01T13:15:28Z</time>
      </trkpt>
      <trkpt lat="42.3128710" lon="-7.2262180">
        <ele>615.0</ele>
        <time>2014-10-01T13:15:29Z</time>
      </trkpt>
      <trkpt lat="42.3128560" lon="-7.2262560">
        <ele>615.2</ele>
        <time>2014-10-01T13:15:30Z</time>
      </trkpt>
      <trkpt lat="42.3128380" lon="-7.2262890">
        <ele>615.4</ele>
        <time>2014-10-01T13:15:31Z</time>
      </trkpt>
      <trkpt lat="42.3128210" lon="-7.2263200">
        <ele>615.6</ele>
        <time>2014-10-01T13:15:32Z</time>
      </trkpt>
      <trkpt lat="42.3128030" lon="-7.2263500">
        <ele>615.8</ele>
        <time>2014-10-01T13:15:33Z</time>
      </trkpt>
      <trkpt lat="42.3127800" lon="-7.2263830">
        <ele>616.1</ele>
        <time>2014-10-01T13:15:34Z</time>
      </trkpt>
      <trkpt lat="42.3127540" lon="-7.2264150">
        <ele>616.3</ele>
        <time>2014-10-01T13:15:35Z</time>
      </trkpt>
      <trkpt lat="42.3127260" lon="-7.2264400">
        <ele>616.6</ele>
        <time>2014-10-01T13:15:36Z</time>
      </trkpt>
      <trkpt lat="42.3126980" lon="-7.2264630">
        <ele>616.8</ele>
        <time>2014-10-01T13:15:37Z</time>
      </trkpt>
      <trkpt lat="42.3126680" lon="-7.2264870">
        <ele>617.1</ele>
        <time>2014-10-01T13:15:38Z</time>
      </trkpt>
      <trkpt lat="42.3126410" lon="-7.2265080">
        <ele>617.3</ele>
        <time>2014-10-01T13:15:39Z</time>
      </trkpt>
      <trkpt lat="42.3126110" lon="-7.2265260">
        <ele>617.6</ele>
        <time>2014-10-01T13:15:40Z</time>
      </trkpt>
      <trkpt lat="42.3125790" lon="-7.2265400">
        <ele>617.8</ele>
        <time>2014-10-01T13:15:41Z</time>
      </trkpt>
      <trkpt lat="42.3125430" lon="-7.2265520">
        <ele>618.0</ele>
        <time>2014-10-01T13:15:42Z</time>
      </trkpt>
      <trkpt lat="42.3125040" lon="-7.2265570">
        <ele>618.3</ele>
        <time>2014-10-01T13:15:43Z</time>
      </trkpt>
      <trkpt lat="42.3124720" lon="-7.2265620">
        <ele>618.5</ele>
        <time>2014-10-01T13:15:44Z</time>
      </trkpt>
      <trkpt lat="42.3124410" lon="-7.2265610">
        <ele>618.7</ele>
        <time>2014-10-01T13:15:45Z</time>
      </trkpt>
      <trkpt lat="42.3124070" lon="-7.2265600">
        <ele>618.9</ele>
        <time>2014-10-01T13:15:46Z</time>
      </trkpt>
      <trkpt lat="42.3123730" lon="-7.2265600">
        <ele>619.1</ele>
        <time>2014-10-01T13:15:47Z</time>
      </trkpt>
      <trkpt lat="42.3123390" lon="-7.2265570">
        <ele>619.4</ele>
        <time>2014-10-01T13:15:48Z</time>
      </trkpt>
      <trkpt lat="42.3123040" lon="-7.2265530">
        <ele>619.6</ele>
        <time>2014-10-01T13:15:49Z</time>
      </trkpt>
      <trkpt lat="42.3122650" lon="-7.2265430">
        <ele>619.9</ele>
        <time>2014-10-01T13:15:50Z</time>
      </trkpt>
      <trkpt lat="42.3122290" lon="-7.2265330">
        <ele>620.1</ele>
        <time>2014-10-01T13:15:51Z</time>
      </trkpt>
      <trkpt lat="42.3121980" lon="-7.2265220">
        <ele>620.4</ele>
        <time>2014-10-01T13:15:52Z</time>
      </trkpt>
      <trkpt lat="42.3121700" lon="-7.2265130">
        <ele>620.6</ele>
        <time>2014-10-01T13:15:53Z</time>
      </trkpt>
      <trkpt lat="42.3121430" lon="-7.2265050">
        <ele>620.8</ele>
        <time>2014-10-01T13:15:54Z</time>
      </trkpt>
      <trkpt lat="42.3121140" lon="-7.2264950">
        <ele>621.0</ele>
        <time>2014-10-01T13:15:55Z</time>
      </trkpt>
      <trkpt lat="42.3120830" lon="-7.2264830">
        <ele>621.2</ele>
        <time>2014-10-01T13:15:56Z</time>
      </trkpt>
      <trkpt lat="42.3120540" lon="-7.2264670">
        <ele>621.5</ele>
        <time>2014-10-01T13:15:57Z</time>
      </trkpt>
      <trkpt lat="42.3120230" lon="-7.2264480">
        <ele>621.8</ele>
        <time>2014-10-01T13:15:58Z</time>
      </trkpt>
      <trkpt lat="42.3119950" lon="-7.2264300">
        <ele>622.0</ele>
        <time>2014-10-01T13:15:59Z</time>
      </trkpt>
      <trkpt lat="42.3119610" lon="-7.2264070">
        <ele>622.3</ele>
        <time>2014-10-01T13:16:00Z</time>
      </trkpt>
      <trkpt lat="42.3119350" lon="-7.2263890">
        <ele>622.5</ele>
        <time>2014-10-01T13:16:01Z</time>
      </trkpt>
      <trkpt lat="42.3118860" lon="-7.2263520">
        <ele>622.9</ele>
        <time>2014-10-01T13:16:03Z</time>
      </trkpt>
      <trkpt lat="42.3118610" lon="-7.2263290">
        <ele>623.1</ele>
        <time>2014-10-01T13:16:04Z</time>
      </trkpt>
      <trkpt lat="42.3118350" lon="-7.2263040">
        <ele>623.4</ele>
        <time>2014-10-01T13:16:05Z</time>
      </trkpt>
      <trkpt lat="42.3118090" lon="-7.2262820">
        <ele>623.6</ele>
        <time>2014-10-01T13:16:06Z</time>
      </trkpt>
      <trkpt lat="42.3117820" lon="-7.2262590">
        <ele>623.8</ele>
        <time>2014-10-01T13:16:07Z</time>
      </trkpt>
      <trkpt lat="42.3117580" lon="-7.2262370">
        <ele>624.0</ele>
        <time>2014-10-01T13:16:08Z</time>
      </trkpt>
      <trkpt lat="42.3117330" lon="-7.2262150">
        <ele>624.3</ele>
        <time>2014-10-01T13:16:09Z</time>
      </trkpt>
      <trkpt lat="42.3117090" lon="-7.2261930">
        <ele>624.5</ele>
        <time>2014-10-01T13:16:10Z</time>
      </trkpt>
      <trkpt lat="42.3116850" lon="-7.2261710">
        <ele>624.7</ele>
        <time>2014-10-01T13:16:11Z</time>
      </trkpt>
      <trkpt lat="42.3116610" lon="-7.2261490">
        <ele>624.9</ele>
        <time>2014-10-01T13:16:12Z</time>
      </trkpt>
      <trkpt lat="42.3116350" lon="-7.2261280">
        <ele>625.1</ele>
        <time>2014-10-01T13:16:13Z</time>
      </trkpt>
      <trkpt lat="42.3116090" lon="-7.2261050">
        <ele>625.3</ele>
        <time>2014-10-01T13:16:14Z</time>
      </trkpt>
      <trkpt lat="42.3115860" lon="-7.2260830">
        <ele>625.4</ele>
        <time>2014-10-01T13:16:15Z</time>
      </trkpt>
      <trkpt lat="42.3115610" lon="-7.2260630">
        <ele>625.6</ele>
        <time>2014-10-01T13:16:16Z</time>
      </trkpt>
      <trkpt lat="42.3115340" lon="-7.2260430">
        <ele>625.8</ele>
        <time>2014-10-01T13:16:17Z</time>
      </trkpt>
      <trkpt lat="42.3115070" lon="-7.2260240">
        <ele>626.0</ele>
        <time>2014-10-01T13:16:18Z</time>
      </trkpt>
      <trkpt lat="42.3114790" lon="-7.2260010">
        <ele>626.2</ele>
        <time>2014-10-01T13:16:19Z</time>
      </trkpt>
      <trkpt lat="42.3114530" lon="-7.2259790">
        <ele>626.4</ele>
        <time>2014-10-01T13:16:20Z</time>
      </trkpt>
      <trkpt lat="42.3114270" lon="-7.2259590">
        <ele>626.6</ele>
        <time>2014-10-01T13:16:21Z</time>
      </trkpt>
      <trkpt lat="42.3114010" lon="-7.2259380">
        <ele>626.8</ele>
        <time>2014-10-01T13:16:22Z</time>
      </trkpt>
      <trkpt lat="42.3113760" lon="-7.2259160">
        <ele>627.0</ele>
        <time>2014-10-01T13:16:23Z</time>
      </trkpt>
      <trkpt lat="42.3113510" lon="-7.2258920">
        <ele>627.2</ele>
        <time>2014-10-01T13:16:24Z</time>
      </trkpt>
      <trkpt lat="42.3113270" lon="-7.2258680">
        <ele>627.4</ele>
        <time>2014-10-01T13:16:25Z</time>
      </trkpt>
      <trkpt lat="42.3113010" lon="-7.2258460">
        <ele>627.6</ele>
        <time>2014-10-01T13:16:26Z</time>
      </trkpt>
      <trkpt lat="42.3112730" lon="-7.2258280">
        <ele>627.9</ele>
        <time>2014-10-01T13:16:27Z</time>
      </trkpt>
      <trkpt lat="42.3112470" lon="-7.2258110">
        <ele>628.1</ele>
        <time>2014-10-01T13:16:28Z</time>
      </trkpt>
      <trkpt lat="42.3112220" lon="-7.2257890">
        <ele>628.3</ele>
        <time>2014-10-01T13:16:29Z</time>
      </trkpt>
      <trkpt lat="42.3111940" lon="-7.2257650">
        <ele>628.5</ele>
        <time>2014-10-01T13:16:30Z</time>
      </trkpt>
      <trkpt lat="42.3111660" lon="-7.2257420">
        <ele>628.8</ele>
        <time>2014-10-01T13:16:31Z</time>
      </trkpt>
      <trkpt lat="42.3111340" lon="-7.2257170">
        <ele>629.0</ele>
        <time>2014-10-01T13:16:32Z</time>
      </trkpt>
      <trkpt lat="42.3111040" lon="-7.2256920">
        <ele>629.3</ele>
        <time>2014-10-01T13:16:33Z</time>
      </trkpt>
      <trkpt lat="42.3110780" lon="-7.2256690">
        <ele>629.5</ele>
        <time>2014-10-01T13:16:34Z</time>
      </trkpt>
      <trkpt lat="42.3110510" lon="-7.2256460">
        <ele>629.8</ele>
        <time>2014-10-01T13:16:35Z</time>
      </trkpt>
      <trkpt lat="42.3110220" lon="-7.2256240">
        <ele>630.0</ele>
        <time>2014-10-01T13:16:36Z</time>
      </trkpt>
      <trkpt lat="42.3109930" lon="-7.2256010">
        <ele>630.3</ele>
        <time>2014-10-01T13:16:37Z</time>
      </trkpt>
      <trkpt lat="42.3109660" lon="-7.2255770">
        <ele>630.5</ele>
        <time>2014-10-01T13:16:38Z</time>
      </trkpt>
      <trkpt lat="42.3109410" lon="-7.2255540">
        <ele>630.8</ele>
        <time>2014-10-01T13:16:39Z</time>
      </trkpt>
      <trkpt lat="42.3109160" lon="-7.2255300">
        <ele>631.0</ele>
        <time>2014-10-01T13:16:40Z</time>
      </trkpt>
      <trkpt lat="42.3108880" lon="-7.2255080">
        <ele>631.2</ele>
        <time>2014-10-01T13:16:41Z</time>
      </trkpt>
      <trkpt lat="42.3108610" lon="-7.2254850">
        <ele>631.4</ele>
        <time>2014-10-01T13:16:42Z</time>
      </trkpt>
      <trkpt lat="42.3108330" lon="-7.2254630">
        <ele>631.6</ele>
        <time>2014-10-01T13:16:43Z</time>
      </trkpt>
      <trkpt lat="42.3108070" lon="-7.2254400">
        <ele>631.8</ele>
        <time>2014-10-01T13:16:44Z</time>
      </trkpt>
      <trkpt lat="42.3107810" lon="-7.2254170">
        <ele>632.1</ele>
        <time>2014-10-01T13:16:45Z</time>
      </trkpt>
      <trkpt lat="42.3107550" lon="-7.2253940">
        <ele>632.3</ele>
        <time>2014-10-01T13:16:46Z</time>
      </trkpt>
      <trkpt lat="42.3107300" lon="-7.2253750">
        <ele>632.5</ele>
        <time>2014-10-01T13:16:47Z</time>
      </trkpt>
      <trkpt lat="42.3107050" lon="-7.2253550">
        <ele>632.7</ele>
        <time>2014-10-01T13:16:48Z</time>
      </trkpt>
      <trkpt lat="42.3106780" lon="-7.2253330">
        <ele>632.9</ele>
        <time>2014-10-01T13:16:49Z</time>
      </trkpt>
      <trkpt lat="42.3106490" lon="-7.2253110">
        <ele>633.1</ele>
        <time>2014-10-01T13:16:50Z</time>
      </trkpt>
      <trkpt lat="42.3106220" lon="-7.2252930">
        <ele>633.3</ele>
        <time>2014-10-01T13:16:51Z</time>
      </trkpt>
      <trkpt lat="42.3105940" lon="-7.2252700">
        <ele>633.5</ele>
        <time>2014-10-01T13:16:52Z</time>
      </trkpt>
      <trkpt lat="42.3105660" lon="-7.2252490">
        <ele>633.8</ele>
        <time>2014-10-01T13:16:53Z</time>
      </trkpt>
      <trkpt lat="42.3105350" lon="-7.2252260">
        <ele>634.0</ele>
        <time>2014-10-01T13:16:54Z</time>
      </trkpt>
      <trkpt lat="42.3105100" lon="-7.2252110">
        <ele>634.2</ele>
        <time>2014-10-01T13:16:55Z</time>
      </trkpt>
      <trkpt lat="42.3104800" lon="-7.2251970">
        <ele>634.3</ele>
        <time>2014-10-01T13:16:56Z</time>
      </trkpt>
      <trkpt lat="42.3104530" lon="-7.2251860">
        <ele>634.5</ele>
        <time>2014-10-01T13:16:57Z</time>
      </trkpt>
      <trkpt lat="42.3104200" lon="-7.2251780">
        <ele>634.6</ele>
        <time>2014-10-01T13:16:58Z</time>
      </trkpt>
      <trkpt lat="42.3103860" lon="-7.2251760">
        <ele>634.8</ele>
        <time>2014-10-01T13:16:59Z</time>
      </trkpt>
      <trkpt lat="42.3103480" lon="-7.2251830">
        <ele>635.0</ele>
        <time>2014-10-01T13:17:00Z</time>
      </trkpt>
      <trkpt lat="42.3103140" lon="-7.2252010">
        <ele>635.1</ele>
        <time>2014-10-01T13:17:01Z</time>
      </trkpt>
      <trkpt lat="42.3102770" lon="-7.2252280">
        <ele>635.2</ele>
        <time>2014-10-01T13:17:02Z</time>
      </trkpt>
      <trkpt lat="42.3102420" lon="-7.2252630">
        <ele>635.2</ele>
        <time>2014-10-01T13:17:03Z</time>
      </trkpt>
      <trkpt lat="42.3102120" lon="-7.2253010">
        <ele>635.2</ele>
        <time>2014-10-01T13:17:04Z</time>
      </trkpt>
      <trkpt lat="42.3101840" lon="-7.2253420">
        <ele>635.2</ele>
        <time>2014-10-01T13:17:05Z</time>
      </trkpt>
      <trkpt lat="42.3101610" lon="-7.2253860">
        <ele>635.3</ele>
        <time>2014-10-01T13:17:06Z</time>
      </trkpt>
      <trkpt lat="42.3101390" lon="-7.2254340">
        <ele>635.5</ele>
        <time>2014-10-01T13:17:07Z</time>
      </trkpt>
      <trkpt lat="42.3101140" lon="-7.2254780">
        <ele>635.6</ele>
        <time>2014-10-01T13:17:08Z</time>
      </trkpt>
      <trkpt lat="42.3100900" lon="-7.2255210">
        <ele>635.7</ele>
        <time>2014-10-01T13:17:09Z</time>
      </trkpt>
      <trkpt lat="42.3100730" lon="-7.2255650">
        <ele>635.9</ele>
        <time>2014-10-01T13:17:10Z</time>
      </trkpt>
      <trkpt lat="42.3100570" lon="-7.2256050">
        <ele>636.0</ele>
        <time>2014-10-01T13:17:11Z</time>
      </trkpt>
      <trkpt lat="42.3100410" lon="-7.2256420">
        <ele>636.1</ele>
        <time>2014-10-01T13:17:12Z</time>
      </trkpt>
      <trkpt lat="42.3100220" lon="-7.2256860">
        <ele>636.2</ele>
        <time>2014-10-01T13:17:13Z</time>
      </trkpt>
      <trkpt lat="42.3100050" lon="-7.2257210">
        <ele>636.3</ele>
        <time>2014-10-01T13:17:14Z</time>
      </trkpt>
      <trkpt lat="42.3099970" lon="-7.2257590">
        <ele>636.3</ele>
        <time>2014-10-01T13:17:15Z</time>
      </trkpt>
      <trkpt lat="42.3099890" lon="-7.2257960">
        <ele>636.4</ele>
        <time>2014-10-01T13:17:16Z</time>
      </trkpt>
      <trkpt lat="42.3099790" lon="-7.2258380">
        <ele>636.5</ele>
        <time>2014-10-01T13:17:17Z</time>
      </trkpt>
      <trkpt lat="42.3099710" lon="-7.2258880">
        <ele>636.8</ele>
        <time>2014-10-01T13:17:18Z</time>
      </trkpt>
      <trkpt lat="42.3099610" lon="-7.2259480">
        <ele>637.0</ele>
        <time>2014-10-01T13:17:19Z</time>
      </trkpt>
      <trkpt lat="42.3099490" lon="-7.2260060">
        <ele>637.3</ele>
        <time>2014-10-01T13:17:20Z</time>
      </trkpt>
      <trkpt lat="42.3099410" lon="-7.2260710">
        <ele>637.5</ele>
        <time>2014-10-01T13:17:21Z</time>
      </trkpt>
      <trkpt lat="42.3099350" lon="-7.2261350">
        <ele>637.6</ele>
        <time>2014-10-01T13:17:22Z</time>
      </trkpt>
      <trkpt lat="42.3099310" lon="-7.2261960">
        <ele>637.8</ele>
        <time>2014-10-01T13:17:23Z</time>
      </trkpt>
      <trkpt lat="42.3099240" lon="-7.2262640">
        <ele>637.9</ele>
        <time>2014-10-01T13:17:24Z</time>
      </trkpt>
      <trkpt lat="42.3099160" lon="-7.2263450">
        <ele>638.1</ele>
        <time>2014-10-01T13:17:25Z</time>
      </trkpt>
      <trkpt lat="42.3099110" lon="-7.2264210">
        <ele>638.2</ele>
        <time>2014-10-01T13:17:26Z</time>
      </trkpt>
      <trkpt lat="42.3099030" lon="-7.2264970">
        <ele>638.3</ele>
        <time>2014-10-01T13:17:27Z</time>
      </trkpt>
      <trkpt lat="42.3098880" lon="-7.2265780">
        <ele>638.4</ele>
        <time>2014-10-01T13:17:28Z</time>
      </trkpt>
      <trkpt lat="42.3098810" lon="-7.2266550">
        <ele>638.5</ele>
        <time>2014-10-01T13:17:29Z</time>
      </trkpt>
      <trkpt lat="42.3098730" lon="-7.2267380">
        <ele>638.7</ele>
        <time>2014-10-01T13:17:30Z</time>
      </trkpt>
      <trkpt lat="42.3098690" lon="-7.2268210">
        <ele>638.9</ele>
        <time>2014-10-01T13:17:31Z</time>
      </trkpt>
      <trkpt lat="42.3098670" lon="-7.2269010">
        <ele>639.1</ele>
        <time>2014-10-01T13:17:32Z</time>
      </trkpt>
      <trkpt lat="42.3098680" lon="-7.2269780">
        <ele>639.3</ele>
        <time>2014-10-01T13:17:33Z</time>
      </trkpt>
      <trkpt lat="42.3098730" lon="-7.2270540">
        <ele>639.6</ele>
        <time>2014-10-01T13:17:34Z</time>
      </trkpt>
      <trkpt lat="42.3098780" lon="-7.2271390">
        <ele>639.9</ele>
        <time>2014-10-01T13:17:35Z</time>
      </trkpt>
      <trkpt lat="42.3098830" lon="-7.2272090">
        <ele>640.1</ele>
        <time>2014-10-01T13:17:36Z</time>
      </trkpt>
      <trkpt lat="42.3098860" lon="-7.2272830">
        <ele>640.3</ele>
        <time>2014-10-01T13:17:37Z</time>
      </trkpt>
      <trkpt lat="42.3098870" lon="-7.2273550">
        <ele>640.5</ele>
        <time>2014-10-01T13:17:38Z</time>
      </trkpt>
      <trkpt lat="42.3098870" lon="-7.2274150">
        <ele>640.7</ele>
        <time>2014-10-01T13:17:39Z</time>
      </trkpt>
      <trkpt lat="42.3098860" lon="-7.2274780">
        <ele>640.8</ele>
        <time>2014-10-01T13:17:40Z</time>
      </trkpt>
      <trkpt lat="42.3098860" lon="-7.2275470">
        <ele>641.0</ele>
        <time>2014-10-01T13:17:41Z</time>
      </trkpt>
      <trkpt lat="42.3098860" lon="-7.2276160">
        <ele>641.2</ele>
        <time>2014-10-01T13:17:42Z</time>
      </trkpt>
      <trkpt lat="42.3098810" lon="-7.2276810">
        <ele>641.3</ele>
        <time>2014-10-01T13:17:43Z</time>
      </trkpt>
      <trkpt lat="42.3098760" lon="-7.2277450">
        <ele>641.5</ele>
        <time>2014-10-01T13:17:44Z</time>
      </trkpt>
      <trkpt lat="42.3098670" lon="-7.2278180">
        <ele>641.7</ele>
        <time>2014-10-01T13:17:45Z</time>
      </trkpt>
      <trkpt lat="42.3098540" lon="-7.2279000">
        <ele>641.9</ele>
        <time>2014-10-01T13:17:46Z</time>
      </trkpt>
      <trkpt lat="42.3098390" lon="-7.2279850">
        <ele>642.1</ele>
        <time>2014-10-01T13:17:47Z</time>
      </trkpt>
      <trkpt lat="42.3098240" lon="-7.2280520">
        <ele>642.3</ele>
        <time>2014-10-01T13:17:48Z</time>
      </trkpt>
      <trkpt lat="42.3098060" lon="-7.2281240">
        <ele>642.5</ele>
        <time>2014-10-01T13:17:49Z</time>
      </trkpt>
      <trkpt lat="42.3097920" lon="-7.2282010">
        <ele>642.8</ele>
        <time>2014-10-01T13:17:50Z</time>
      </trkpt>
      <trkpt lat="42.3097760" lon="-7.2282740">
        <ele>643.0</ele>
        <time>2014-10-01T13:17:51Z</time>
      </trkpt>
      <trkpt lat="42.3097780" lon="-7.2283490">
        <ele>643.0</ele>
        <time>2014-10-01T13:17:52Z</time>
      </trkpt>
      <trkpt lat="42.3097960" lon="-7.2284260">
        <ele>643.0</ele>
        <time>2014-10-01T13:17:53Z</time>
      </trkpt>
      <trkpt lat="42.3098220" lon="-7.2284950">
        <ele>642.9</ele>
        <time>2014-10-01T13:17:54Z</time>
      </trkpt>
      <trkpt lat="42.3098620" lon="-7.2285520">
        <ele>642.8</ele>
        <time>2014-10-01T13:17:55Z</time>
      </trkpt>
      <trkpt lat="42.3099150" lon="-7.2285950">
        <ele>642.8</ele>
        <time>2014-10-01T13:17:56Z</time>
      </trkpt>
      <trkpt lat="42.3099680" lon="-7.2286120">
        <ele>642.8</ele>
        <time>2014-10-01T13:17:57Z</time>
      </trkpt>
      <trkpt lat="42.3100240" lon="-7.2286120">
        <ele>642.8</ele>
        <time>2014-10-01T13:17:58Z</time>
      </trkpt>
      <trkpt lat="42.3100790" lon="-7.2286030">
        <ele>642.8</ele>
        <time>2014-10-01T13:17:59Z</time>
      </trkpt>
      <trkpt lat="42.3101350" lon="-7.2285870">
        <ele>642.8</ele>
        <time>2014-10-01T13:18:00Z</time>
      </trkpt>
      <trkpt lat="42.3101930" lon="-7.2285680">
        <ele>642.9</ele>
        <time>2014-10-01T13:18:01Z</time>
      </trkpt>
      <trkpt lat="42.3102480" lon="-7.2285530">
        <ele>642.9</ele>
        <time>2014-10-01T13:18:02Z</time>
      </trkpt>
      <trkpt lat="42.3103010" lon="-7.2285440">
        <ele>643.0</ele>
        <time>2014-10-01T13:18:03Z</time>
      </trkpt>
      <trkpt lat="42.3103510" lon="-7.2285420">
        <ele>643.1</ele>
        <time>2014-10-01T13:18:04Z</time>
      </trkpt>
      <trkpt lat="42.3104070" lon="-7.2285480">
        <ele>643.3</ele>
        <time>2014-10-01T13:18:05Z</time>
      </trkpt>
      <trkpt lat="42.3104630" lon="-7.2285660">
        <ele>643.5</ele>
        <time>2014-10-01T13:18:06Z</time>
      </trkpt>
      <trkpt lat="42.3105130" lon="-7.2285940">
        <ele>643.6</ele>
        <time>2014-10-01T13:18:07Z</time>
      </trkpt>
      <trkpt lat="42.3105580" lon="-7.2286300">
        <ele>643.8</ele>
        <time>2014-10-01T13:18:08Z</time>
      </trkpt>
      <trkpt lat="42.3105930" lon="-7.2286720">
        <ele>644.0</ele>
        <time>2014-10-01T13:18:09Z</time>
      </trkpt>
      <trkpt lat="42.3106200" lon="-7.2287200">
        <ele>644.1</ele>
        <time>2014-10-01T13:18:10Z</time>
      </trkpt>
      <trkpt lat="42.3106390" lon="-7.2287690">
        <ele>644.3</ele>
        <time>2014-10-01T13:18:11Z</time>
      </trkpt>
      <trkpt lat="42.3106570" lon="-7.2288300">
        <ele>644.4</ele>
        <time>2014-10-01T13:18:12Z</time>
      </trkpt>
      <trkpt lat="42.3106720" lon="-7.2288970">
        <ele>644.6</ele>
        <time>2014-10-01T13:18:13Z</time>
      </trkpt>
      <trkpt lat="42.3106800" lon="-7.2289630">
        <ele>644.8</ele>
        <time>2014-10-01T13:18:14Z</time>
      </trkpt>
      <trkpt lat="42.3106860" lon="-7.2290290">
        <ele>644.9</ele>
        <time>2014-10-01T13:18:15Z</time>
      </trkpt>
      <trkpt lat="42.3106910" lon="-7.2290950">
        <ele>645.0</ele>
        <time>2014-10-01T13:18:16Z</time>
      </trkpt>
      <trkpt lat="42.3106940" lon="-7.2291610">
        <ele>645.2</ele>
        <time>2014-10-01T13:18:17Z</time>
      </trkpt>
      <trkpt lat="42.3106960" lon="-7.2292220">
        <ele>645.3</ele>
        <time>2014-10-01T13:18:18Z</time>
      </trkpt>
      <trkpt lat="42.3106990" lon="-7.2292840">
        <ele>645.4</ele>
        <time>2014-10-01T13:18:19Z</time>
      </trkpt>
      <trkpt lat="42.3106990" lon="-7.2293450">
        <ele>645.5</ele>
        <time>2014-10-01T13:18:20Z</time>
      </trkpt>
      <trkpt lat="42.3107010" lon="-7.2294070">
        <ele>645.6</ele>
        <time>2014-10-01T13:18:21Z</time>
      </trkpt>
      <trkpt lat="42.3107060" lon="-7.2294690">
        <ele>645.7</ele>
        <time>2014-10-01T13:18:22Z</time>
      </trkpt>
      <trkpt lat="42.3107030" lon="-7.2295260">
        <ele>645.7</ele>
        <time>2014-10-01T13:18:23Z</time>
      </trkpt>
      <trkpt lat="42.3107020" lon="-7.2295850">
        <ele>645.8</ele>
        <time>2014-10-01T13:18:24Z</time>
      </trkpt>
      <trkpt lat="42.3107060" lon="-7.2296440">
        <ele>645.8</ele>
        <time>2014-10-01T13:18:25Z</time>
      </trkpt>
      <trkpt lat="42.3107090" lon="-7.2297070">
        <ele>645.9</ele>
        <time>2014-10-01T13:18:26Z</time>
      </trkpt>
      <trkpt lat="42.3107100" lon="-7.2297700">
        <ele>645.9</ele>
        <time>2014-10-01T13:18:27Z</time>
      </trkpt>
      <trkpt lat="42.3107110" lon="-7.2298310">
        <ele>646.0</ele>
        <time>2014-10-01T13:18:28Z</time>
      </trkpt>
      <trkpt lat="42.3107100" lon="-7.2298960">
        <ele>646.0</ele>
        <time>2014-10-01T13:18:29Z</time>
      </trkpt>
      <trkpt lat="42.3107150" lon="-7.2299640">
        <ele>646.0</ele>
        <time>2014-10-01T13:18:30Z</time>
      </trkpt>
      <trkpt lat="42.3107150" lon="-7.2300340">
        <ele>646.1</ele>
        <time>2014-10-01T13:18:31Z</time>
      </trkpt>
      <trkpt lat="42.3107210" lon="-7.2301010">
        <ele>646.0</ele>
        <time>2014-10-01T13:18:32Z</time>
      </trkpt>
      <trkpt lat="42.3107310" lon="-7.2301660">
        <ele>646.0</ele>
        <time>2014-10-01T13:18:33Z</time>
      </trkpt>
      <trkpt lat="42.3107430" lon="-7.2302330">
        <ele>646.0</ele>
        <time>2014-10-01T13:18:34Z</time>
      </trkpt>
      <trkpt lat="42.3107490" lon="-7.2303030">
        <ele>646.0</ele>
        <time>2014-10-01T13:18:35Z</time>
      </trkpt>
      <trkpt lat="42.3107590" lon="-7.2303760">
        <ele>646.0</ele>
        <time>2014-10-01T13:18:36Z</time>
      </trkpt>
      <trkpt lat="42.3107660" lon="-7.2304420">
        <ele>646.1</ele>
        <time>2014-10-01T13:18:37Z</time>
      </trkpt>
      <trkpt lat="42.3107740" lon="-7.2305110">
        <ele>646.1</ele>
        <time>2014-10-01T13:18:38Z</time>
      </trkpt>
      <trkpt lat="42.3107850" lon="-7.2305880">
        <ele>646.2</ele>
        <time>2014-10-01T13:18:39Z</time>
      </trkpt>
      <trkpt lat="42.3107980" lon="-7.2306560">
        <ele>646.3</ele>
        <time>2014-10-01T13:18:40Z</time>
      </trkpt>
      <trkpt lat="42.3108140" lon="-7.2307290">
        <ele>646.3</ele>
        <time>2014-10-01T13:18:41Z</time>
      </trkpt>
      <trkpt lat="42.3108300" lon="-7.2307990">
        <ele>646.4</ele>
        <time>2014-10-01T13:18:42Z</time>
      </trkpt>
      <trkpt lat="42.3108450" lon="-7.2308710">
        <ele>646.4</ele>
        <time>2014-10-01T13:18:43Z</time>
      </trkpt>
      <trkpt lat="42.3108590" lon="-7.2309500">
        <ele>646.4</ele>
        <time>2014-10-01T13:18:44Z</time>
      </trkpt>
      <trkpt lat="42.3108740" lon="-7.2310270">
        <ele>646.5</ele>
        <time>2014-10-01T13:18:45Z</time>
      </trkpt>
      <trkpt lat="42.3108850" lon="-7.2310940">
        <ele>646.5</ele>
        <time>2014-10-01T13:18:46Z</time>
      </trkpt>
      <trkpt lat="42.3108980" lon="-7.2311590">
        <ele>646.5</ele>
        <time>2014-10-01T13:18:47Z</time>
      </trkpt>
      <trkpt lat="42.3109080" lon="-7.2312070">
        <ele>646.6</ele>
        <time>2014-10-01T13:18:48Z</time>
      </trkpt>
      <trkpt lat="42.3109120" lon="-7.2312660">
        <ele>646.6</ele>
        <time>2014-10-01T13:18:49Z</time>
      </trkpt>
      <trkpt lat="42.3109200" lon="-7.2313340">
        <ele>646.7</ele>
        <time>2014-10-01T13:18:50Z</time>
      </trkpt>
      <trkpt lat="42.3109190" lon="-7.2313960">
        <ele>646.7</ele>
        <time>2014-10-01T13:18:51Z</time>
      </trkpt>
      <trkpt lat="42.3109220" lon="-7.2314510">
        <ele>646.7</ele>
        <time>2014-10-01T13:18:52Z</time>
      </trkpt>
      <trkpt lat="42.3109260" lon="-7.2315270">
        <ele>646.8</ele>
        <time>2014-10-01T13:18:53Z</time>
      </trkpt>
      <trkpt lat="42.3109270" lon="-7.2316120">
        <ele>646.7</ele>
        <time>2014-10-01T13:18:54Z</time>
      </trkpt>
      <trkpt lat="42.3109270" lon="-7.2317090">
        <ele>646.8</ele>
        <time>2014-10-01T13:18:55Z</time>
      </trkpt>
      <trkpt lat="42.3109130" lon="-7.2318060">
        <ele>646.9</ele>
        <time>2014-10-01T13:18:56Z</time>
      </trkpt>
      <trkpt lat="42.3108940" lon="-7.2318920">
        <ele>647.2</ele>
        <time>2014-10-01T13:18:57Z</time>
      </trkpt>
      <trkpt lat="42.3108770" lon="-7.2319700">
        <ele>647.3</ele>
        <time>2014-10-01T13:18:58Z</time>
      </trkpt>
      <trkpt lat="42.3108660" lon="-7.2320390">
        <ele>647.5</ele>
        <time>2014-10-01T13:18:59Z</time>
      </trkpt>
      <trkpt lat="42.3108580" lon="-7.2321070">
        <ele>647.7</ele>
        <time>2014-10-01T13:19:00Z</time>
      </trkpt>
      <trkpt lat="42.3108500" lon="-7.2321660">
        <ele>647.8</ele>
        <time>2014-10-01T13:19:01Z</time>
      </trkpt>
      <trkpt lat="42.3108400" lon="-7.2322240">
        <ele>648.0</ele>
        <time>2014-10-01T13:19:02Z</time>
      </trkpt>
      <trkpt lat="42.3108280" lon="-7.2322780">
        <ele>648.1</ele>
        <time>2014-10-01T13:19:03Z</time>
      </trkpt>
      <trkpt lat="42.3108160" lon="-7.2323290">
        <ele>648.3</ele>
        <time>2014-10-01T13:19:04Z</time>
      </trkpt>
      <trkpt lat="42.3108020" lon="-7.2323800">
        <ele>648.5</ele>
        <time>2014-10-01T13:19:05Z</time>
      </trkpt>
      <trkpt lat="42.3107890" lon="-7.2324260">
        <ele>648.7</ele>
        <time>2014-10-01T13:19:06Z</time>
      </trkpt>
      <trkpt lat="42.3107800" lon="-7.2324660">
        <ele>648.8</ele>
        <time>2014-10-01T13:19:07Z</time>
      </trkpt>
      <trkpt lat="42.3107670" lon="-7.2325080">
        <ele>649.0</ele>
        <time>2014-10-01T13:19:08Z</time>
      </trkpt>
      <trkpt lat="42.3107450" lon="-7.2325820">
        <ele>649.2</ele>
        <time>2014-10-01T13:19:10Z</time>
      </trkpt>
      <trkpt lat="42.3107300" lon="-7.2326320">
        <ele>649.4</ele>
        <time>2014-10-01T13:19:11Z</time>
      </trkpt>
      <trkpt lat="42.3107110" lon="-7.2326780">
        <ele>649.6</ele>
        <time>2014-10-01T13:19:12Z</time>
      </trkpt>
      <trkpt lat="42.3106900" lon="-7.2327230">
        <ele>649.7</ele>
        <time>2014-10-01T13:19:13Z</time>
      </trkpt>
      <trkpt lat="42.3106720" lon="-7.2327610">
        <ele>649.9</ele>
        <time>2014-10-01T13:19:14Z</time>
      </trkpt>
      <trkpt lat="42.3106500" lon="-7.2328020">
        <ele>650.0</ele>
        <time>2014-10-01T13:19:15Z</time>
      </trkpt>
      <trkpt lat="42.3106290" lon="-7.2328350">
        <ele>650.1</ele>
        <time>2014-10-01T13:19:16Z</time>
      </trkpt>
      <trkpt lat="42.3106090" lon="-7.2328610">
        <ele>650.2</ele>
        <time>2014-10-01T13:19:17Z</time>
      </trkpt>
      <trkpt lat="42.3105890" lon="-7.2328930">
        <ele>650.4</ele>
        <time>2014-10-01T13:19:18Z</time>
      </trkpt>
      <trkpt lat="42.3105660" lon="-7.2329350">
        <ele>650.5</ele>
        <time>2014-10-01T13:19:19Z</time>
      </trkpt>
      <trkpt lat="42.3105420" lon="-7.2329740">
        <ele>650.6</ele>
        <time>2014-10-01T13:19:20Z</time>
      </trkpt>
      <trkpt lat="42.3105150" lon="-7.2330170">
        <ele>650.7</ele>
        <time>2014-10-01T13:19:21Z</time>
      </trkpt>
      <trkpt lat="42.3104870" lon="-7.2330630">
        <ele>650.8</ele>
        <time>2014-10-01T13:19:22Z</time>
      </trkpt>
      <trkpt lat="42.3104600" lon="-7.2331030">
        <ele>650.9</ele>
        <time>2014-10-01T13:19:23Z</time>
      </trkpt>
      <trkpt lat="42.3104370" lon="-7.2331400">
        <ele>650.9</ele>
        <time>2014-10-01T13:19:24Z</time>
      </trkpt>
      <trkpt lat="42.3104090" lon="-7.2331760">
        <ele>651.4</ele>
        <time>2014-10-01T13:19:25Z</time>
      </trkpt>
      <trkpt lat="42.3103860" lon="-7.2332110">
        <ele>651.8</ele>
        <time>2014-10-01T13:19:26Z</time>
      </trkpt>
      <trkpt lat="42.3103630" lon="-7.2332570">
        <ele>652.3</ele>
        <time>2014-10-01T13:19:27Z</time>
      </trkpt>
      <trkpt lat="42.3103490" lon="-7.2333060">
        <ele>652.7</ele>
        <time>2014-10-01T13:19:28Z</time>
      </trkpt>
      <trkpt lat="42.3103300" lon="-7.2333580">
        <ele>653.1</ele>
        <time>2014-10-01T13:19:29Z</time>
      </trkpt>
      <trkpt lat="42.3103220" lon="-7.2334090">
        <ele>653.5</ele>
        <time>2014-10-01T13:19:30Z</time>
      </trkpt>
      <trkpt lat="42.3103200" lon="-7.2334590">
        <ele>653.9</ele>
        <time>2014-10-01T13:19:31Z</time>
      </trkpt>
      <trkpt lat="42.3103190" lon="-7.2335130">
        <ele>654.3</ele>
        <time>2014-10-01T13:19:32Z</time>
      </trkpt>
      <trkpt lat="42.3103130" lon="-7.2335700">
        <ele>654.7</ele>
        <time>2014-10-01T13:19:33Z</time>
      </trkpt>
      <trkpt lat="42.3103120" lon="-7.2336280">
        <ele>655.1</ele>
        <time>2014-10-01T13:19:34Z</time>
      </trkpt>
      <trkpt lat="42.3103090" lon="-7.2336830">
        <ele>655.2</ele>
        <time>2014-10-01T13:19:35Z</time>
      </trkpt>
      <trkpt lat="42.3103110" lon="-7.2337370">
        <ele>655.2</ele>
        <time>2014-10-01T13:19:36Z</time>
      </trkpt>
      <trkpt lat="42.3103040" lon="-7.2337860">
        <ele>655.2</ele>
        <time>2014-10-01T13:19:37Z</time>
      </trkpt>
      <trkpt lat="42.3102930" lon="-7.2338330">
        <ele>655.2</ele>
        <time>2014-10-01T13:19:38Z</time>
      </trkpt>
      <trkpt lat="42.3102710" lon="-7.2338740">
        <ele>655.2</ele>
        <time>2014-10-01T13:19:39Z</time>
      </trkpt>
      <trkpt lat="42.3102360" lon="-7.2339080">
        <ele>655.5</ele>
        <time>2014-10-01T13:19:40Z</time>
      </trkpt>
      <trkpt lat="42.3102010" lon="-7.2339240">
        <ele>655.9</ele>
        <time>2014-10-01T13:19:41Z</time>
      </trkpt>
      <trkpt lat="42.3101690" lon="-7.2339370">
        <ele>656.3</ele>
        <time>2014-10-01T13:19:42Z</time>
      </trkpt>
      <trkpt lat="42.3101350" lon="-7.2339460">
        <ele>656.7</ele>
        <time>2014-10-01T13:19:43Z</time>
      </trkpt>
      <trkpt lat="42.3101000" lon="-7.2339460">
        <ele>657.1</ele>
        <time>2014-10-01T13:19:44Z</time>
      </trkpt>
      <trkpt lat="42.3100660" lon="-7.2339580">
        <ele>657.6</ele>
        <time>2014-10-01T13:19:45Z</time>
      </trkpt>
      <trkpt lat="42.3100330" lon="-7.2339630">
        <ele>658.0</ele>
        <time>2014-10-01T13:19:46Z</time>
      </trkpt>
      <trkpt lat="42.3099890" lon="-7.2339770">
        <ele>658.6</ele>
        <time>2014-10-01T13:19:48Z</time>
      </trkpt>
      <trkpt lat="42.3099550" lon="-7.2339880">
        <ele>659.0</ele>
        <time>2014-10-01T13:19:49Z</time>
      </trkpt>
      <trkpt lat="42.3099210" lon="-7.2340030">
        <ele>659.1</ele>
        <time>2014-10-01T13:19:50Z</time>
      </trkpt>
      <trkpt lat="42.3098900" lon="-7.2340170">
        <ele>659.2</ele>
        <time>2014-10-01T13:19:51Z</time>
      </trkpt>
      <trkpt lat="42.3098590" lon="-7.2340330">
        <ele>659.2</ele>
        <time>2014-10-01T13:19:52Z</time>
      </trkpt>
      <trkpt lat="42.3098280" lon="-7.2340440">
        <ele>659.3</ele>
        <time>2014-10-01T13:19:53Z</time>
      </trkpt>
      <trkpt lat="42.3097980" lon="-7.2340560">
        <ele>659.4</ele>
        <time>2014-10-01T13:19:54Z</time>
      </trkpt>
      <trkpt lat="42.3097660" lon="-7.2340670">
        <ele>659.6</ele>
        <time>2014-10-01T13:19:55Z</time>
      </trkpt>
      <trkpt lat="42.3097340" lon="-7.2340800">
        <ele>659.8</ele>
        <time>2014-10-01T13:19:56Z</time>
      </trkpt>
      <trkpt lat="42.3096970" lon="-7.2340930">
        <ele>660.2</ele>
        <time>2014-10-01T13:19:57Z</time>
      </trkpt>
      <trkpt lat="42.3096610" lon="-7.2341050">
        <ele>660.4</ele>
        <time>2014-10-01T13:19:58Z</time>
      </trkpt>
      <trkpt lat="42.3096240" lon="-7.2341170">
        <ele>660.7</ele>
        <time>2014-10-01T13:19:59Z</time>
      </trkpt>
      <trkpt lat="42.3095870" lon="-7.2341270">
        <ele>661.0</ele>
        <time>2014-10-01T13:20:00Z</time>
      </trkpt>
      <trkpt lat="42.3095520" lon="-7.2341390">
        <ele>661.3</ele>
        <time>2014-10-01T13:20:01Z</time>
      </trkpt>
      <trkpt lat="42.3095230" lon="-7.2341620">
        <ele>661.5</ele>
        <time>2014-10-01T13:20:02Z</time>
      </trkpt>
      <trkpt lat="42.3094980" lon="-7.2341890">
        <ele>661.8</ele>
        <time>2014-10-01T13:20:03Z</time>
      </trkpt>
      <trkpt lat="42.3094700" lon="-7.2342190">
        <ele>662.1</ele>
        <time>2014-10-01T13:20:04Z</time>
      </trkpt>
      <trkpt lat="42.3094450" lon="-7.2342570">
        <ele>662.4</ele>
        <time>2014-10-01T13:20:05Z</time>
      </trkpt>
      <trkpt lat="42.3094230" lon="-7.2343020">
        <ele>662.7</ele>
        <time>2014-10-01T13:20:06Z</time>
      </trkpt>
      <trkpt lat="42.3094050" lon="-7.2343430">
        <ele>663.0</ele>
        <time>2014-10-01T13:20:07Z</time>
      </trkpt>
      <trkpt lat="42.3093910" lon="-7.2343800">
        <ele>663.3</ele>
        <time>2014-10-01T13:20:08Z</time>
      </trkpt>
      <trkpt lat="42.3093770" lon="-7.2344530">
        <ele>663.8</ele>
        <time>2014-10-01T13:20:10Z</time>
      </trkpt>
      <trkpt lat="42.3093650" lon="-7.2345320">
        <ele>664.3</ele>
        <time>2014-10-01T13:20:12Z</time>
      </trkpt>
      <trkpt lat="42.3093540" lon="-7.2345790">
        <ele>664.7</ele>
        <time>2014-10-01T13:20:13Z</time>
      </trkpt>
      <trkpt lat="42.3093400" lon="-7.2346200">
        <ele>665.0</ele>
        <time>2014-10-01T13:20:14Z</time>
      </trkpt>
      <trkpt lat="42.3093260" lon="-7.2346560">
        <ele>665.3</ele>
        <time>2014-10-01T13:20:15Z</time>
      </trkpt>
      <trkpt lat="42.3093150" lon="-7.2346930">
        <ele>665.5</ele>
        <time>2014-10-01T13:20:16Z</time>
      </trkpt>
      <trkpt lat="42.3092990" lon="-7.2347530">
        <ele>666.0</ele>
        <time>2014-10-01T13:20:18Z</time>
      </trkpt>
      <trkpt lat="42.3092790" lon="-7.2348130">
        <ele>666.5</ele>
        <time>2014-10-01T13:20:20Z</time>
      </trkpt>
      <trkpt lat="42.3092670" lon="-7.2348480">
        <ele>666.7</ele>
        <time>2014-10-01T13:20:21Z</time>
      </trkpt>
      <trkpt lat="42.3092470" lon="-7.2348800">
        <ele>667.0</ele>
        <time>2014-10-01T13:20:22Z</time>
      </trkpt>
      <trkpt lat="42.3092330" lon="-7.2349410">
        <ele>667.5</ele>
        <time>2014-10-01T13:20:24Z</time>
      </trkpt>
      <trkpt lat="42.3092010" lon="-7.2349850">
        <ele>667.9</ele>
        <time>2014-10-01T13:20:26Z</time>
      </trkpt>
      <trkpt lat="42.3091690" lon="-7.2350060">
        <ele>668.2</ele>
        <time>2014-10-01T13:20:27Z</time>
      </trkpt>
      <trkpt lat="42.3091230" lon="-7.2350200">
        <ele>668.6</ele>
        <time>2014-10-01T13:20:28Z</time>
      </trkpt>
      <trkpt lat="42.3090720" lon="-7.2350150">
        <ele>668.6</ele>
        <time>2014-10-01T13:20:29Z</time>
      </trkpt>
      <trkpt lat="42.3090260" lon="-7.2350020">
        <ele>667.9</ele>
        <time>2014-10-01T13:20:30Z</time>
      </trkpt>
      <trkpt lat="42.3089820" lon="-7.2349790">
        <ele>668.0</ele>
        <time>2014-10-01T13:20:31Z</time>
      </trkpt>
      <trkpt lat="42.3089440" lon="-7.2349540">
        <ele>668.1</ele>
        <time>2014-10-01T13:20:32Z</time>
      </trkpt>
      <trkpt lat="42.3089050" lon="-7.2349270">
        <ele>668.1</ele>
        <time>2014-10-01T13:20:33Z</time>
      </trkpt>
      <trkpt lat="42.3088710" lon="-7.2348900">
        <ele>668.1</ele>
        <time>2014-10-01T13:20:34Z</time>
      </trkpt>
      <trkpt lat="42.3088320" lon="-7.2348500">
        <ele>668.1</ele>
        <time>2014-10-01T13:20:35Z</time>
      </trkpt>
      <trkpt lat="42.3087830" lon="-7.2348080">
        <ele>667.9</ele>
        <time>2014-10-01T13:20:36Z</time>
      </trkpt>
      <trkpt lat="42.3087350" lon="-7.2347610">
        <ele>667.8</ele>
        <time>2014-10-01T13:20:37Z</time>
      </trkpt>
      <trkpt lat="42.3086970" lon="-7.2347140">
        <ele>667.7</ele>
        <time>2014-10-01T13:20:38Z</time>
      </trkpt>
      <trkpt lat="42.3086610" lon="-7.2346620">
        <ele>667.6</ele>
        <time>2014-10-01T13:20:39Z</time>
      </trkpt>
      <trkpt lat="42.3086140" lon="-7.2346120">
        <ele>667.5</ele>
        <time>2014-10-01T13:20:40Z</time>
      </trkpt>
      <trkpt lat="42.3085720" lon="-7.2345660">
        <ele>667.5</ele>
        <time>2014-10-01T13:20:41Z</time>
      </trkpt>
      <trkpt lat="42.3085330" lon="-7.2345120">
        <ele>667.5</ele>
        <time>2014-10-01T13:20:42Z</time>
      </trkpt>
      <trkpt lat="42.3084970" lon="-7.2344470">
        <ele>667.5</ele>
        <time>2014-10-01T13:20:43Z</time>
      </trkpt>
      <trkpt lat="42.3084650" lon="-7.2343680">
        <ele>667.5</ele>
        <time>2014-10-01T13:20:44Z</time>
      </trkpt>
      <trkpt lat="42.3084420" lon="-7.2342870">
        <ele>667.6</ele>
        <time>2014-10-01T13:20:45Z</time>
      </trkpt>
      <trkpt lat="42.3084290" lon="-7.2342100">
        <ele>667.6</ele>
        <time>2014-10-01T13:20:46Z</time>
      </trkpt>
      <trkpt lat="42.3084240" lon="-7.2341420">
        <ele>667.7</ele>
        <time>2014-10-01T13:20:47Z</time>
      </trkpt>
      <trkpt lat="42.3084280" lon="-7.2340760">
        <ele>667.8</ele>
        <time>2014-10-01T13:20:48Z</time>
      </trkpt>
      <trkpt lat="42.3084360" lon="-7.2340090">
        <ele>667.9</ele>
        <time>2014-10-01T13:20:49Z</time>
      </trkpt>
      <trkpt lat="42.3084410" lon="-7.2339420">
        <ele>668.0</ele>
        <time>2014-10-01T13:20:50Z</time>
      </trkpt>
      <trkpt lat="42.3084450" lon="-7.2338710">
        <ele>668.2</ele>
        <time>2014-10-01T13:20:51Z</time>
      </trkpt>
      <trkpt lat="42.3084550" lon="-7.2338080">
        <ele>668.3</ele>
        <time>2014-10-01T13:20:52Z</time>
      </trkpt>
      <trkpt lat="42.3084590" lon="-7.2337510">
        <ele>668.5</ele>
        <time>2014-10-01T13:20:53Z</time>
      </trkpt>
      <trkpt lat="42.3084620" lon="-7.2336910">
        <ele>668.7</ele>
        <time>2014-10-01T13:20:54Z</time>
      </trkpt>
      <trkpt lat="42.3084660" lon="-7.2336310">
        <ele>668.9</ele>
        <time>2014-10-01T13:20:55Z</time>
      </trkpt>
      <trkpt lat="42.3084660" lon="-7.2335690">
        <ele>669.1</ele>
        <time>2014-10-01T13:20:56Z</time>
      </trkpt>
      <trkpt lat="42.3084660" lon="-7.2335080">
        <ele>669.2</ele>
        <time>2014-10-01T13:20:57Z</time>
      </trkpt>
      <trkpt lat="42.3084670" lon="-7.2334530">
        <ele>669.4</ele>
        <time>2014-10-01T13:20:58Z</time>
      </trkpt>
      <trkpt lat="42.3084680" lon="-7.2333990">
        <ele>669.5</ele>
        <time>2014-10-01T13:20:59Z</time>
      </trkpt>
      <trkpt lat="42.3084730" lon="-7.2333410">
        <ele>669.5</ele>
        <time>2014-10-01T13:21:00Z</time>
      </trkpt>
      <trkpt lat="42.3084770" lon="-7.2332810">
        <ele>669.6</ele>
        <time>2014-10-01T13:21:01Z</time>
      </trkpt>
      <trkpt lat="42.3084790" lon="-7.2332190">
        <ele>669.6</ele>
        <time>2014-10-01T13:21:02Z</time>
      </trkpt>
      <trkpt lat="42.3084770" lon="-7.2331570">
        <ele>669.7</ele>
        <time>2014-10-01T13:21:03Z</time>
      </trkpt>
      <trkpt lat="42.3084750" lon="-7.2330930">
        <ele>669.7</ele>
        <time>2014-10-01T13:21:04Z</time>
      </trkpt>
      <trkpt lat="42.3084720" lon="-7.2330300">
        <ele>669.8</ele>
        <time>2014-10-01T13:21:05Z</time>
      </trkpt>
      <trkpt lat="42.3084670" lon="-7.2329660">
        <ele>669.8</ele>
        <time>2014-10-01T13:21:06Z</time>
      </trkpt>
      <trkpt lat="42.3084600" lon="-7.2329000">
        <ele>669.9</ele>
        <time>2014-10-01T13:21:07Z</time>
      </trkpt>
      <trkpt lat="42.3084520" lon="-7.2328310">
        <ele>670.0</ele>
        <time>2014-10-01T13:21:08Z</time>
      </trkpt>
      <trkpt lat="42.3084420" lon="-7.2327700">
        <ele>670.1</ele>
        <time>2014-10-01T13:21:09Z</time>
      </trkpt>
      <trkpt lat="42.3084290" lon="-7.2327090">
        <ele>670.2</ele>
        <time>2014-10-01T13:21:10Z</time>
      </trkpt>
      <trkpt lat="42.3084150" lon="-7.2326490">
        <ele>670.3</ele>
        <time>2014-10-01T13:21:11Z</time>
      </trkpt>
      <trkpt lat="42.3084010" lon="-7.2325930">
        <ele>670.4</ele>
        <time>2014-10-01T13:21:12Z</time>
      </trkpt>
      <trkpt lat="42.3083840" lon="-7.2325360">
        <ele>670.5</ele>
        <time>2014-10-01T13:21:13Z</time>
      </trkpt>
      <trkpt lat="42.3083680" lon="-7.2324790">
        <ele>670.6</ele>
        <time>2014-10-01T13:21:14Z</time>
      </trkpt>
      <trkpt lat="42.3083490" lon="-7.2324150">
        <ele>670.7</ele>
        <time>2014-10-01T13:21:15Z</time>
      </trkpt>
      <trkpt lat="42.3083310" lon="-7.2323580">
        <ele>670.8</ele>
        <time>2014-10-01T13:21:16Z</time>
      </trkpt>
      <trkpt lat="42.3083130" lon="-7.2323060">
        <ele>670.9</ele>
        <time>2014-10-01T13:21:17Z</time>
      </trkpt>
      <trkpt lat="42.3082950" lon="-7.2322490">
        <ele>671.1</ele>
        <time>2014-10-01T13:21:18Z</time>
      </trkpt>
      <trkpt lat="42.3082730" lon="-7.2321930">
        <ele>671.2</ele>
        <time>2014-10-01T13:21:19Z</time>
      </trkpt>
      <trkpt lat="42.3082500" lon="-7.2321370">
        <ele>671.4</ele>
        <time>2014-10-01T13:21:20Z</time>
      </trkpt>
      <trkpt lat="42.3082270" lon="-7.2320900">
        <ele>671.6</ele>
        <time>2014-10-01T13:21:21Z</time>
      </trkpt>
      <trkpt lat="42.3082070" lon="-7.2320400">
        <ele>671.7</ele>
        <time>2014-10-01T13:21:22Z</time>
      </trkpt>
      <trkpt lat="42.3081860" lon="-7.2319950">
        <ele>671.9</ele>
        <time>2014-10-01T13:21:23Z</time>
      </trkpt>
      <trkpt lat="42.3081640" lon="-7.2319490">
        <ele>672.0</ele>
        <time>2014-10-01T13:21:24Z</time>
      </trkpt>
      <trkpt lat="42.3081310" lon="-7.2318950">
        <ele>672.0</ele>
        <time>2014-10-01T13:21:25Z</time>
      </trkpt>
      <trkpt lat="42.3080960" lon="-7.2318470">
        <ele>672.1</ele>
        <time>2014-10-01T13:21:26Z</time>
      </trkpt>
      <trkpt lat="42.3080600" lon="-7.2317900">
        <ele>672.1</ele>
        <time>2014-10-01T13:21:27Z</time>
      </trkpt>
      <trkpt lat="42.3080220" lon="-7.2317340">
        <ele>672.2</ele>
        <time>2014-10-01T13:21:28Z</time>
      </trkpt>
      <trkpt lat="42.3079820" lon="-7.2316790">
        <ele>672.2</ele>
        <time>2014-10-01T13:21:29Z</time>
      </trkpt>
      <trkpt lat="42.3079400" lon="-7.2316210">
        <ele>672.0</ele>
        <time>2014-10-01T13:21:30Z</time>
      </trkpt>
      <trkpt lat="42.3078970" lon="-7.2315660">
        <ele>671.8</ele>
        <time>2014-10-01T13:21:31Z</time>
      </trkpt>
      <trkpt lat="42.3078540" lon="-7.2315170">
        <ele>671.7</ele>
        <time>2014-10-01T13:21:32Z</time>
      </trkpt>
      <trkpt lat="42.3078090" lon="-7.2314640">
        <ele>671.5</ele>
        <time>2014-10-01T13:21:33Z</time>
      </trkpt>
      <trkpt lat="42.3077620" lon="-7.2314100">
        <ele>671.3</ele>
        <time>2014-10-01T13:21:34Z</time>
      </trkpt>
      <trkpt lat="42.3077100" lon="-7.2313540">
        <ele>671.1</ele>
        <time>2014-10-01T13:21:35Z</time>
      </trkpt>
      <trkpt lat="42.3076590" lon="-7.2312980">
        <ele>670.9</ele>
        <time>2014-10-01T13:21:36Z</time>
      </trkpt>
      <trkpt lat="42.3076070" lon="-7.2312400">
        <ele>670.6</ele>
        <time>2014-10-01T13:21:37Z</time>
      </trkpt>
      <trkpt lat="42.3075530" lon="-7.2311810">
        <ele>670.3</ele>
        <time>2014-10-01T13:21:38Z</time>
      </trkpt>
      <trkpt lat="42.3074990" lon="-7.2311220">
        <ele>670.1</ele>
        <time>2014-10-01T13:21:39Z</time>
      </trkpt>
      <trkpt lat="42.3074400" lon="-7.2310610">
        <ele>669.8</ele>
        <time>2014-10-01T13:21:40Z</time>
      </trkpt>
      <trkpt lat="42.3073810" lon="-7.2309980">
        <ele>669.5</ele>
        <time>2014-10-01T13:21:41Z</time>
      </trkpt>
      <trkpt lat="42.3073260" lon="-7.2309340">
        <ele>669.3</ele>
        <time>2014-10-01T13:21:42Z</time>
      </trkpt>
      <trkpt lat="42.3072710" lon="-7.2308700">
        <ele>669.0</ele>
        <time>2014-10-01T13:21:43Z</time>
      </trkpt>
      <trkpt lat="42.3072140" lon="-7.2308080">
        <ele>668.6</ele>
        <time>2014-10-01T13:21:44Z</time>
      </trkpt>
      <trkpt lat="42.3071540" lon="-7.2307470">
        <ele>668.3</ele>
        <time>2014-10-01T13:21:45Z</time>
      </trkpt>
      <trkpt lat="42.3070910" lon="-7.2306880">
        <ele>667.9</ele>
        <time>2014-10-01T13:21:46Z</time>
      </trkpt>
      <trkpt lat="42.3070270" lon="-7.2306310">
        <ele>667.5</ele>
        <time>2014-10-01T13:21:47Z</time>
      </trkpt>
      <trkpt lat="42.3069630" lon="-7.2305800">
        <ele>667.2</ele>
        <time>2014-10-01T13:21:48Z</time>
      </trkpt>
      <trkpt lat="42.3068960" lon="-7.2305260">
        <ele>666.9</ele>
        <time>2014-10-01T13:21:49Z</time>
      </trkpt>
      <trkpt lat="42.3068250" lon="-7.2304740">
        <ele>666.6</ele>
        <time>2014-10-01T13:21:50Z</time>
      </trkpt>
      <trkpt lat="42.3067520" lon="-7.2304270">
        <ele>666.2</ele>
        <time>2014-10-01T13:21:51Z</time>
      </trkpt>
      <trkpt lat="42.3066760" lon="-7.2303870">
        <ele>666.0</ele>
        <time>2014-10-01T13:21:52Z</time>
      </trkpt>
      <trkpt lat="42.3066010" lon="-7.2303550">
        <ele>665.7</ele>
        <time>2014-10-01T13:21:53Z</time>
      </trkpt>
      <trkpt lat="42.3065230" lon="-7.2303240">
        <ele>665.5</ele>
        <time>2014-10-01T13:21:54Z</time>
      </trkpt>
      <trkpt lat="42.3064500" lon="-7.2302940">
        <ele>665.3</ele>
        <time>2014-10-01T13:21:55Z</time>
      </trkpt>
      <trkpt lat="42.3063740" lon="-7.2302600">
        <ele>665.3</ele>
        <time>2014-10-01T13:21:56Z</time>
      </trkpt>
      <trkpt lat="42.3063030" lon="-7.2302230">
        <ele>665.3</ele>
        <time>2014-10-01T13:21:57Z</time>
      </trkpt>
      <trkpt lat="42.3062390" lon="-7.2301790">
        <ele>665.4</ele>
        <time>2014-10-01T13:21:58Z</time>
      </trkpt>
      <trkpt lat="42.3061850" lon="-7.2301120">
        <ele>665.5</ele>
        <time>2014-10-01T13:21:59Z</time>
      </trkpt>
      <trkpt lat="42.3061350" lon="-7.2300490">
        <ele>665.7</ele>
        <time>2014-10-01T13:22:00Z</time>
      </trkpt>
      <trkpt lat="42.3060910" lon="-7.2299870">
        <ele>665.9</ele>
        <time>2014-10-01T13:22:01Z</time>
      </trkpt>
      <trkpt lat="42.3060450" lon="-7.2299160">
        <ele>666.2</ele>
        <time>2014-10-01T13:22:02Z</time>
      </trkpt>
      <trkpt lat="42.3060020" lon="-7.2298450">
        <ele>666.6</ele>
        <time>2014-10-01T13:22:03Z</time>
      </trkpt>
      <trkpt lat="42.3059600" lon="-7.2297730">
        <ele>667.0</ele>
        <time>2014-10-01T13:22:04Z</time>
      </trkpt>
      <trkpt lat="42.3059220" lon="-7.2297080">
        <ele>667.3</ele>
        <time>2014-10-01T13:22:05Z</time>
      </trkpt>
      <trkpt lat="42.3058850" lon="-7.2296460">
        <ele>667.6</ele>
        <time>2014-10-01T13:22:06Z</time>
      </trkpt>
      <trkpt lat="42.3058490" lon="-7.2295870">
        <ele>667.9</ele>
        <time>2014-10-01T13:22:07Z</time>
      </trkpt>
      <trkpt lat="42.3058160" lon="-7.2295330">
        <ele>668.2</ele>
        <time>2014-10-01T13:22:08Z</time>
      </trkpt>
      <trkpt lat="42.3057850" lon="-7.2294820">
        <ele>668.6</ele>
        <time>2014-10-01T13:22:09Z</time>
      </trkpt>
      <trkpt lat="42.3057560" lon="-7.2294340">
        <ele>669.0</ele>
        <time>2014-10-01T13:22:10Z</time>
      </trkpt>
      <trkpt lat="42.3057300" lon="-7.2293910">
        <ele>669.4</ele>
        <time>2014-10-01T13:22:11Z</time>
      </trkpt>
      <trkpt lat="42.3057070" lon="-7.2293540">
        <ele>669.9</ele>
        <time>2014-10-01T13:22:12Z</time>
      </trkpt>
      <trkpt lat="42.3056830" lon="-7.2293180">
        <ele>670.3</ele>
        <time>2014-10-01T13:22:13Z</time>
      </trkpt>
      <trkpt lat="42.3056600" lon="-7.2292880">
        <ele>670.7</ele>
        <time>2014-10-01T13:22:14Z</time>
      </trkpt>
      <trkpt lat="42.3056360" lon="-7.2292540">
        <ele>671.1</ele>
        <time>2014-10-01T13:22:15Z</time>
      </trkpt>
      <trkpt lat="42.3056130" lon="-7.2292240">
        <ele>671.6</ele>
        <time>2014-10-01T13:22:16Z</time>
      </trkpt>
      <trkpt lat="42.3055920" lon="-7.2291960">
        <ele>671.9</ele>
        <time>2014-10-01T13:22:17Z</time>
      </trkpt>
      <trkpt lat="42.3055720" lon="-7.2291670">
        <ele>672.3</ele>
        <time>2014-10-01T13:22:18Z</time>
      </trkpt>
      <trkpt lat="42.3055510" lon="-7.2291350">
        <ele>672.7</ele>
        <time>2014-10-01T13:22:19Z</time>
      </trkpt>
      <trkpt lat="42.3055310" lon="-7.2291080">
        <ele>673.1</ele>
        <time>2014-10-01T13:22:20Z</time>
      </trkpt>
      <trkpt lat="42.3055120" lon="-7.2290820">
        <ele>673.4</ele>
        <time>2014-10-01T13:22:21Z</time>
      </trkpt>
      <trkpt lat="42.3054920" lon="-7.2290550">
        <ele>673.7</ele>
        <time>2014-10-01T13:22:22Z</time>
      </trkpt>
      <trkpt lat="42.3054710" lon="-7.2290310">
        <ele>674.1</ele>
        <time>2014-10-01T13:22:23Z</time>
      </trkpt>
      <trkpt lat="42.3054310" lon="-7.2289790">
        <ele>674.7</ele>
        <time>2014-10-01T13:22:25Z</time>
      </trkpt>
      <trkpt lat="42.3054110" lon="-7.2289500">
        <ele>675.1</ele>
        <time>2014-10-01T13:22:26Z</time>
      </trkpt>
      <trkpt lat="42.3053910" lon="-7.2289250">
        <ele>675.4</ele>
        <time>2014-10-01T13:22:27Z</time>
      </trkpt>
      <trkpt lat="42.3053670" lon="-7.2288970">
        <ele>675.7</ele>
        <time>2014-10-01T13:22:28Z</time>
      </trkpt>
      <trkpt lat="42.3053460" lon="-7.2288700">
        <ele>676.1</ele>
        <time>2014-10-01T13:22:29Z</time>
      </trkpt>
      <trkpt lat="42.3053240" lon="-7.2288420">
        <ele>676.4</ele>
        <time>2014-10-01T13:22:30Z</time>
      </trkpt>
      <trkpt lat="42.3052830" lon="-7.2287950">
        <ele>677.0</ele>
        <time>2014-10-01T13:22:32Z</time>
      </trkpt>
      <trkpt lat="42.3052420" lon="-7.2287480">
        <ele>677.5</ele>
        <time>2014-10-01T13:22:34Z</time>
      </trkpt>
      <trkpt lat="42.3052040" lon="-7.2287030">
        <ele>678.1</ele>
        <time>2014-10-01T13:22:36Z</time>
      </trkpt>
      <trkpt lat="42.3051830" lon="-7.2286780">
        <ele>678.4</ele>
        <time>2014-10-01T13:22:37Z</time>
      </trkpt>
      <trkpt lat="42.3051610" lon="-7.2286530">
        <ele>678.7</ele>
        <time>2014-10-01T13:22:38Z</time>
      </trkpt>
      <trkpt lat="42.3051380" lon="-7.2286290">
        <ele>679.0</ele>
        <time>2014-10-01T13:22:39Z</time>
      </trkpt>
      <trkpt lat="42.3051150" lon="-7.2286060">
        <ele>679.3</ele>
        <time>2014-10-01T13:22:40Z</time>
      </trkpt>
      <trkpt lat="42.3050930" lon="-7.2285840">
        <ele>679.6</ele>
        <time>2014-10-01T13:22:41Z</time>
      </trkpt>
      <trkpt lat="42.3050710" lon="-7.2285620">
        <ele>679.8</ele>
        <time>2014-10-01T13:22:42Z</time>
      </trkpt>
      <trkpt lat="42.3050290" lon="-7.2285200">
        <ele>680.3</ele>
        <time>2014-10-01T13:22:44Z</time>
      </trkpt>
      <trkpt lat="42.3049860" lon="-7.2284870">
        <ele>680.8</ele>
        <time>2014-10-01T13:22:46Z</time>
      </trkpt>
      <trkpt lat="42.3049400" lon="-7.2284480">
        <ele>681.3</ele>
        <time>2014-10-01T13:22:48Z</time>
      </trkpt>
      <trkpt lat="42.3048950" lon="-7.2284060">
        <ele>681.8</ele>
        <time>2014-10-01T13:22:50Z</time>
      </trkpt>
      <trkpt lat="42.3048500" lon="-7.2283660">
        <ele>682.2</ele>
        <time>2014-10-01T13:22:52Z</time>
      </trkpt>
      <trkpt lat="42.3048070" lon="-7.2283260">
        <ele>682.7</ele>
        <time>2014-10-01T13:22:54Z</time>
      </trkpt>
      <trkpt lat="42.3047840" lon="-7.2283050">
        <ele>682.9</ele>
        <time>2014-10-01T13:22:55Z</time>
      </trkpt>
      <trkpt lat="42.3047610" lon="-7.2282850">
        <ele>683.1</ele>
        <time>2014-10-01T13:22:56Z</time>
      </trkpt>
      <trkpt lat="42.3047370" lon="-7.2282640">
        <ele>683.4</ele>
        <time>2014-10-01T13:22:57Z</time>
      </trkpt>
      <trkpt lat="42.3047150" lon="-7.2282430">
        <ele>683.6</ele>
        <time>2014-10-01T13:22:58Z</time>
      </trkpt>
      <trkpt lat="42.3046860" lon="-7.2282160">
        <ele>683.9</ele>
        <time>2014-10-01T13:22:59Z</time>
      </trkpt>
      <trkpt lat="42.3046570" lon="-7.2281880">
        <ele>684.1</ele>
        <time>2014-10-01T13:23:00Z</time>
      </trkpt>
      <trkpt lat="42.3046210" lon="-7.2281580">
        <ele>684.3</ele>
        <time>2014-10-01T13:23:01Z</time>
      </trkpt>
      <trkpt lat="42.3045870" lon="-7.2281280">
        <ele>684.6</ele>
        <time>2014-10-01T13:23:02Z</time>
      </trkpt>
      <trkpt lat="42.3045550" lon="-7.2280990">
        <ele>684.8</ele>
        <time>2014-10-01T13:23:03Z</time>
      </trkpt>
      <trkpt lat="42.3045220" lon="-7.2280710">
        <ele>685.0</ele>
        <time>2014-10-01T13:23:04Z</time>
      </trkpt>
      <trkpt lat="42.3044900" lon="-7.2280440">
        <ele>685.2</ele>
        <time>2014-10-01T13:23:05Z</time>
      </trkpt>
      <trkpt lat="42.3044580" lon="-7.2280150">
        <ele>685.4</ele>
        <time>2014-10-01T13:23:06Z</time>
      </trkpt>
      <trkpt lat="42.3044260" lon="-7.2279870">
        <ele>685.6</ele>
        <time>2014-10-01T13:23:07Z</time>
      </trkpt>
      <trkpt lat="42.3043940" lon="-7.2279600">
        <ele>685.8</ele>
        <time>2014-10-01T13:23:08Z</time>
      </trkpt>
      <trkpt lat="42.3043620" lon="-7.2279350">
        <ele>686.0</ele>
        <time>2014-10-01T13:23:09Z</time>
      </trkpt>
      <trkpt lat="42.3043320" lon="-7.2279120">
        <ele>686.2</ele>
        <time>2014-10-01T13:23:10Z</time>
      </trkpt>
      <trkpt lat="42.3043010" lon="-7.2278890">
        <ele>686.4</ele>
        <time>2014-10-01T13:23:11Z</time>
      </trkpt>
      <trkpt lat="42.3042710" lon="-7.2278660">
        <ele>686.6</ele>
        <time>2014-10-01T13:23:12Z</time>
      </trkpt>
      <trkpt lat="42.3042420" lon="-7.2278460">
        <ele>686.8</ele>
        <time>2014-10-01T13:23:13Z</time>
      </trkpt>
      <trkpt lat="42.3042130" lon="-7.2278270">
        <ele>686.9</ele>
        <time>2014-10-01T13:23:14Z</time>
      </trkpt>
      <trkpt lat="42.3041810" lon="-7.2278080">
        <ele>687.1</ele>
        <time>2014-10-01T13:23:15Z</time>
      </trkpt>
      <trkpt lat="42.3041460" lon="-7.2277910">
        <ele>687.3</ele>
        <time>2014-10-01T13:23:16Z</time>
      </trkpt>
      <trkpt lat="42.3041150" lon="-7.2277740">
        <ele>687.5</ele>
        <time>2014-10-01T13:23:17Z</time>
      </trkpt>
      <trkpt lat="42.3040820" lon="-7.2277560">
        <ele>687.7</ele>
        <time>2014-10-01T13:23:18Z</time>
      </trkpt>
      <trkpt lat="42.3040500" lon="-7.2277390">
        <ele>687.9</ele>
        <time>2014-10-01T13:23:19Z</time>
      </trkpt>
      <trkpt lat="42.3040180" lon="-7.2277240">
        <ele>688.1</ele>
        <time>2014-10-01T13:23:20Z</time>
      </trkpt>
      <trkpt lat="42.3039840" lon="-7.2277100">
        <ele>688.3</ele>
        <time>2014-10-01T13:23:21Z</time>
      </trkpt>
      <trkpt lat="42.3039480" lon="-7.2276970">
        <ele>688.5</ele>
        <time>2014-10-01T13:23:22Z</time>
      </trkpt>
      <trkpt lat="42.3039090" lon="-7.2276880">
        <ele>688.7</ele>
        <time>2014-10-01T13:23:23Z</time>
      </trkpt>
      <trkpt lat="42.3038730" lon="-7.2276840">
        <ele>688.9</ele>
        <time>2014-10-01T13:23:24Z</time>
      </trkpt>
      <trkpt lat="42.3038380" lon="-7.2276840">
        <ele>689.1</ele>
        <time>2014-10-01T13:23:25Z</time>
      </trkpt>
      <trkpt lat="42.3037990" lon="-7.2276860">
        <ele>689.4</ele>
        <time>2014-10-01T13:23:26Z</time>
      </trkpt>
      <trkpt lat="42.3037600" lon="-7.2276890">
        <ele>689.6</ele>
        <time>2014-10-01T13:23:27Z</time>
      </trkpt>
      <trkpt lat="42.3037200" lon="-7.2276920">
        <ele>689.8</ele>
        <time>2014-10-01T13:23:28Z</time>
      </trkpt>
      <trkpt lat="42.3036770" lon="-7.2276950">
        <ele>690.1</ele>
        <time>2014-10-01T13:23:29Z</time>
      </trkpt>
      <trkpt lat="42.3036380" lon="-7.2276980">
        <ele>690.3</ele>
        <time>2014-10-01T13:23:30Z</time>
      </trkpt>
      <trkpt lat="42.3036010" lon="-7.2277010">
        <ele>690.5</ele>
        <time>2014-10-01T13:23:31Z</time>
      </trkpt>
      <trkpt lat="42.3035660" lon="-7.2277070">
        <ele>690.6</ele>
        <time>2014-10-01T13:23:32Z</time>
      </trkpt>
      <trkpt lat="42.3035300" lon="-7.2277120">
        <ele>690.8</ele>
        <time>2014-10-01T13:23:33Z</time>
      </trkpt>
      <trkpt lat="42.3034920" lon="-7.2277180">
        <ele>691.0</ele>
        <time>2014-10-01T13:23:34Z</time>
      </trkpt>
      <trkpt lat="42.3034540" lon="-7.2277230">
        <ele>691.2</ele>
        <time>2014-10-01T13:23:35Z</time>
      </trkpt>
      <trkpt lat="42.3034170" lon="-7.2277290">
        <ele>691.3</ele>
        <time>2014-10-01T13:23:36Z</time>
      </trkpt>
      <trkpt lat="42.3033790" lon="-7.2277380">
        <ele>691.5</ele>
        <time>2014-10-01T13:23:37Z</time>
      </trkpt>
      <trkpt lat="42.3033390" lon="-7.2277600">
        <ele>691.7</ele>
        <time>2014-10-01T13:23:38Z</time>
      </trkpt>
      <trkpt lat="42.3033010" lon="-7.2277840">
        <ele>691.9</ele>
        <time>2014-10-01T13:23:39Z</time>
      </trkpt>
      <trkpt lat="42.3032630" lon="-7.2278110">
        <ele>692.3</ele>
        <time>2014-10-01T13:23:40Z</time>
      </trkpt>
      <trkpt lat="42.3032290" lon="-7.2278380">
        <ele>692.6</ele>
        <time>2014-10-01T13:23:41Z</time>
      </trkpt>
      <trkpt lat="42.3031930" lon="-7.2278650">
        <ele>692.8</ele>
        <time>2014-10-01T13:23:42Z</time>
      </trkpt>
      <trkpt lat="42.3031580" lon="-7.2278910">
        <ele>693.1</ele>
        <time>2014-10-01T13:23:43Z</time>
      </trkpt>
      <trkpt lat="42.3031210" lon="-7.2279190">
        <ele>693.4</ele>
        <time>2014-10-01T13:23:44Z</time>
      </trkpt>
      <trkpt lat="42.3030900" lon="-7.2279470">
        <ele>693.7</ele>
        <time>2014-10-01T13:23:45Z</time>
      </trkpt>
      <trkpt lat="42.3030450" lon="-7.2279900">
        <ele>694.2</ele>
        <time>2014-10-01T13:23:47Z</time>
      </trkpt>
      <trkpt lat="42.3030100" lon="-7.2280320">
        <ele>694.6</ele>
        <time>2014-10-01T13:23:49Z</time>
      </trkpt>
      <trkpt lat="42.3029850" lon="-7.2280760">
        <ele>694.9</ele>
        <time>2014-10-01T13:23:51Z</time>
      </trkpt>
      <trkpt lat="42.3029610" lon="-7.2281210">
        <ele>695.3</ele>
        <time>2014-10-01T13:23:53Z</time>
      </trkpt>
      <trkpt lat="42.3029370" lon="-7.2281650">
        <ele>695.6</ele>
        <time>2014-10-01T13:23:55Z</time>
      </trkpt>
      <trkpt lat="42.3029110" lon="-7.2282120">
        <ele>696.0</ele>
        <time>2014-10-01T13:23:57Z</time>
      </trkpt>
      <trkpt lat="42.3028840" lon="-7.2282600">
        <ele>696.4</ele>
        <time>2014-10-01T13:23:59Z</time>
      </trkpt>
      <trkpt lat="42.3028580" lon="-7.2283100">
        <ele>696.9</ele>
        <time>2014-10-01T13:24:01Z</time>
      </trkpt>
      <trkpt lat="42.3028350" lon="-7.2283640">
        <ele>697.3</ele>
        <time>2014-10-01T13:24:03Z</time>
      </trkpt>
      <trkpt lat="42.3028110" lon="-7.2284200">
        <ele>697.8</ele>
        <time>2014-10-01T13:24:05Z</time>
      </trkpt>
      <trkpt lat="42.3027880" lon="-7.2284670">
        <ele>698.2</ele>
        <time>2014-10-01T13:24:07Z</time>
      </trkpt>
      <trkpt lat="42.3027650" lon="-7.2285130">
        <ele>698.6</ele>
        <time>2014-10-01T13:24:09Z</time>
      </trkpt>
      <trkpt lat="42.3027400" lon="-7.2285630">
        <ele>699.0</ele>
        <time>2014-10-01T13:24:11Z</time>
      </trkpt>
      <trkpt lat="42.3027110" lon="-7.2286140">
        <ele>699.5</ele>
        <time>2014-10-01T13:24:13Z</time>
      </trkpt>
      <trkpt lat="42.3026830" lon="-7.2286540">
        <ele>699.9</ele>
        <time>2014-10-01T13:24:15Z</time>
      </trkpt>
      <trkpt lat="42.3026550" lon="-7.2286880">
        <ele>700.2</ele>
        <time>2014-10-01T13:24:17Z</time>
      </trkpt>
      <trkpt lat="42.3026190" lon="-7.2287280">
        <ele>700.7</ele>
        <time>2014-10-01T13:24:19Z</time>
      </trkpt>
      <trkpt lat="42.3025840" lon="-7.2287700">
        <ele>701.1</ele>
        <time>2014-10-01T13:24:21Z</time>
      </trkpt>
      <trkpt lat="42.3025460" lon="-7.2288110">
        <ele>701.4</ele>
        <time>2014-10-01T13:24:23Z</time>
      </trkpt>
      <trkpt lat="42.3025070" lon="-7.2288470">
        <ele>701.8</ele>
        <time>2014-10-01T13:24:25Z</time>
      </trkpt>
      <trkpt lat="42.3024630" lon="-7.2288780">
        <ele>702.1</ele>
        <time>2014-10-01T13:24:27Z</time>
      </trkpt>
      <trkpt lat="42.3024380" lon="-7.2288920">
        <ele>702.3</ele>
        <time>2014-10-01T13:24:28Z</time>
      </trkpt>
      <trkpt lat="42.3024120" lon="-7.2289060">
        <ele>702.5</ele>
        <time>2014-10-01T13:24:29Z</time>
      </trkpt>
      <trkpt lat="42.3023850" lon="-7.2289200">
        <ele>702.7</ele>
        <time>2014-10-01T13:24:30Z</time>
      </trkpt>
      <trkpt lat="42.3023390" lon="-7.2289450">
        <ele>703.0</ele>
        <time>2014-10-01T13:24:32Z</time>
      </trkpt>
      <trkpt lat="42.3023140" lon="-7.2289570">
        <ele>703.2</ele>
        <time>2014-10-01T13:24:33Z</time>
      </trkpt>
      <trkpt lat="42.3022810" lon="-7.2289720">
        <ele>703.3</ele>
        <time>2014-10-01T13:24:34Z</time>
      </trkpt>
      <trkpt lat="42.3022530" lon="-7.2289860">
        <ele>703.5</ele>
        <time>2014-10-01T13:24:35Z</time>
      </trkpt>
      <trkpt lat="42.3022050" lon="-7.2290070">
        <ele>703.7</ele>
        <time>2014-10-01T13:24:37Z</time>
      </trkpt>
      <trkpt lat="42.3021510" lon="-7.2290220">
        <ele>703.9</ele>
        <time>2014-10-01T13:24:39Z</time>
      </trkpt>
      <trkpt lat="42.3021030" lon="-7.2290300">
        <ele>704.1</ele>
        <time>2014-10-01T13:24:41Z</time>
      </trkpt>
      <trkpt lat="42.3020740" lon="-7.2290350">
        <ele>704.2</ele>
        <time>2014-10-01T13:24:42Z</time>
      </trkpt>
      <trkpt lat="42.3020390" lon="-7.2290430">
        <ele>704.3</ele>
        <time>2014-10-01T13:24:43Z</time>
      </trkpt>
      <trkpt lat="42.3020090" lon="-7.2290530">
        <ele>704.5</ele>
        <time>2014-10-01T13:24:44Z</time>
      </trkpt>
      <trkpt lat="42.3019770" lon="-7.2290630">
        <ele>704.6</ele>
        <time>2014-10-01T13:24:45Z</time>
      </trkpt>
      <trkpt lat="42.3019440" lon="-7.2290740">
        <ele>704.8</ele>
        <time>2014-10-01T13:24:46Z</time>
      </trkpt>
      <trkpt lat="42.3019130" lon="-7.2290830">
        <ele>704.9</ele>
        <time>2014-10-01T13:24:47Z</time>
      </trkpt>
      <trkpt lat="42.3018840" lon="-7.2290870">
        <ele>705.1</ele>
        <time>2014-10-01T13:24:48Z</time>
      </trkpt>
      <trkpt lat="42.3018530" lon="-7.2290910">
        <ele>705.2</ele>
        <time>2014-10-01T13:24:49Z</time>
      </trkpt>
      <trkpt lat="42.3018210" lon="-7.2290960">
        <ele>705.4</ele>
        <time>2014-10-01T13:24:50Z</time>
      </trkpt>
      <trkpt lat="42.3017890" lon="-7.2291020">
        <ele>705.8</ele>
        <time>2014-10-01T13:24:51Z</time>
      </trkpt>
      <trkpt lat="42.3017560" lon="-7.2291100">
        <ele>706.3</ele>
        <time>2014-10-01T13:24:52Z</time>
      </trkpt>
      <trkpt lat="42.3017240" lon="-7.2291190">
        <ele>706.7</ele>
        <time>2014-10-01T13:24:53Z</time>
      </trkpt>
      <trkpt lat="42.3016940" lon="-7.2291270">
        <ele>707.0</ele>
        <time>2014-10-01T13:24:54Z</time>
      </trkpt>
      <trkpt lat="42.3016450" lon="-7.2291420">
        <ele>707.6</ele>
        <time>2014-10-01T13:24:56Z</time>
      </trkpt>
      <trkpt lat="42.3016140" lon="-7.2291510">
        <ele>708.0</ele>
        <time>2014-10-01T13:24:57Z</time>
      </trkpt>
      <trkpt lat="42.3015820" lon="-7.2291600">
        <ele>708.4</ele>
        <time>2014-10-01T13:24:58Z</time>
      </trkpt>
      <trkpt lat="42.3015500" lon="-7.2291700">
        <ele>708.7</ele>
        <time>2014-10-01T13:24:59Z</time>
      </trkpt>
      <trkpt lat="42.3015190" lon="-7.2291780">
        <ele>709.1</ele>
        <time>2014-10-01T13:25:00Z</time>
      </trkpt>
      <trkpt lat="42.3014920" lon="-7.2291860">
        <ele>709.4</ele>
        <time>2014-10-01T13:25:01Z</time>
      </trkpt>
      <trkpt lat="42.3014630" lon="-7.2291930">
        <ele>709.7</ele>
        <time>2014-10-01T13:25:02Z</time>
      </trkpt>
      <trkpt lat="42.3014290" lon="-7.2291990">
        <ele>710.1</ele>
        <time>2014-10-01T13:25:03Z</time>
      </trkpt>
      <trkpt lat="42.3013960" lon="-7.2292050">
        <ele>710.5</ele>
        <time>2014-10-01T13:25:04Z</time>
      </trkpt>
      <trkpt lat="42.3013660" lon="-7.2292110">
        <ele>710.9</ele>
        <time>2014-10-01T13:25:05Z</time>
      </trkpt>
      <trkpt lat="42.3013380" lon="-7.2292170">
        <ele>711.2</ele>
        <time>2014-10-01T13:25:06Z</time>
      </trkpt>
      <trkpt lat="42.3013060" lon="-7.2292250">
        <ele>711.6</ele>
        <time>2014-10-01T13:25:07Z</time>
      </trkpt>
      <trkpt lat="42.3012670" lon="-7.2292350">
        <ele>712.0</ele>
        <time>2014-10-01T13:25:08Z</time>
      </trkpt>
      <trkpt lat="42.3012260" lon="-7.2292480">
        <ele>712.4</ele>
        <time>2014-10-01T13:25:09Z</time>
      </trkpt>
      <trkpt lat="42.3011940" lon="-7.2292600">
        <ele>712.7</ele>
        <time>2014-10-01T13:25:10Z</time>
      </trkpt>
      <trkpt lat="42.3011650" lon="-7.2292720">
        <ele>713.0</ele>
        <time>2014-10-01T13:25:11Z</time>
      </trkpt>
      <trkpt lat="42.3011340" lon="-7.2292860">
        <ele>713.3</ele>
        <time>2014-10-01T13:25:12Z</time>
      </trkpt>
      <trkpt lat="42.3010860" lon="-7.2293050">
        <ele>713.8</ele>
        <time>2014-10-01T13:25:14Z</time>
      </trkpt>
      <trkpt lat="42.3010600" lon="-7.2293180">
        <ele>714.1</ele>
        <time>2014-10-01T13:25:15Z</time>
      </trkpt>
      <trkpt lat="42.3010100" lon="-7.2293470">
        <ele>714.7</ele>
        <time>2014-10-01T13:25:17Z</time>
      </trkpt>
      <trkpt lat="42.3009840" lon="-7.2293660">
        <ele>715.0</ele>
        <time>2014-10-01T13:25:18Z</time>
      </trkpt>
      <trkpt lat="42.3009380" lon="-7.2294050">
        <ele>715.6</ele>
        <time>2014-10-01T13:25:20Z</time>
      </trkpt>
      <trkpt lat="42.3009170" lon="-7.2294280">
        <ele>715.9</ele>
        <time>2014-10-01T13:25:21Z</time>
      </trkpt>
      <trkpt lat="42.3008960" lon="-7.2294510">
        <ele>716.2</ele>
        <time>2014-10-01T13:25:22Z</time>
      </trkpt>
      <trkpt lat="42.3008750" lon="-7.2294760">
        <ele>716.6</ele>
        <time>2014-10-01T13:25:23Z</time>
      </trkpt>
      <trkpt lat="42.3008390" lon="-7.2295270">
        <ele>717.2</ele>
        <time>2014-10-01T13:25:25Z</time>
      </trkpt>
      <trkpt lat="42.3008020" lon="-7.2295850">
        <ele>717.8</ele>
        <time>2014-10-01T13:25:27Z</time>
      </trkpt>
      <trkpt lat="42.3007840" lon="-7.2296180">
        <ele>718.2</ele>
        <time>2014-10-01T13:25:28Z</time>
      </trkpt>
      <trkpt lat="42.3007670" lon="-7.2296510">
        <ele>718.5</ele>
        <time>2014-10-01T13:25:29Z</time>
      </trkpt>
      <trkpt lat="42.3007350" lon="-7.2297120">
        <ele>719.1</ele>
        <time>2014-10-01T13:25:31Z</time>
      </trkpt>
      <trkpt lat="42.3007030" lon="-7.2297710">
        <ele>719.7</ele>
        <time>2014-10-01T13:25:33Z</time>
      </trkpt>
      <trkpt lat="42.3006870" lon="-7.2298010">
        <ele>720.0</ele>
        <time>2014-10-01T13:25:34Z</time>
      </trkpt>
      <trkpt lat="42.3006590" lon="-7.2298570">
        <ele>720.6</ele>
        <time>2014-10-01T13:25:36Z</time>
      </trkpt>
      <trkpt lat="42.3006300" lon="-7.2299120">
        <ele>721.2</ele>
        <time>2014-10-01T13:25:38Z</time>
      </trkpt>
      <trkpt lat="42.3006040" lon="-7.2299630">
        <ele>721.7</ele>
        <time>2014-10-01T13:25:40Z</time>
      </trkpt>
      <trkpt lat="42.3005750" lon="-7.2300100">
        <ele>722.2</ele>
        <time>2014-10-01T13:25:42Z</time>
      </trkpt>
      <trkpt lat="42.3005470" lon="-7.2300520">
        <ele>722.6</ele>
        <time>2014-10-01T13:25:44Z</time>
      </trkpt>
      <trkpt lat="42.3005210" lon="-7.2300940">
        <ele>723.1</ele>
        <time>2014-10-01T13:25:46Z</time>
      </trkpt>
      <trkpt lat="42.3004950" lon="-7.2301370">
        <ele>723.6</ele>
        <time>2014-10-01T13:25:48Z</time>
      </trkpt>
      <trkpt lat="42.3004660" lon="-7.2301840">
        <ele>724.1</ele>
        <time>2014-10-01T13:25:50Z</time>
      </trkpt>
      <trkpt lat="42.3004350" lon="-7.2302300">
        <ele>724.6</ele>
        <time>2014-10-01T13:25:52Z</time>
      </trkpt>
      <trkpt lat="42.3004060" lon="-7.2302740">
        <ele>725.1</ele>
        <time>2014-10-01T13:25:54Z</time>
      </trkpt>
      <trkpt lat="42.3003770" lon="-7.2303170">
        <ele>725.6</ele>
        <time>2014-10-01T13:25:56Z</time>
      </trkpt>
      <trkpt lat="42.3003420" lon="-7.2303610">
        <ele>726.1</ele>
        <time>2014-10-01T13:25:58Z</time>
      </trkpt>
      <trkpt lat="42.3003140" lon="-7.2303970">
        <ele>726.5</ele>
        <time>2014-10-01T13:26:00Z</time>
      </trkpt>
      <trkpt lat="42.3002800" lon="-7.2304310">
        <ele>726.9</ele>
        <time>2014-10-01T13:26:02Z</time>
      </trkpt>
      <trkpt lat="42.3002440" lon="-7.2304630">
        <ele>727.4</ele>
        <time>2014-10-01T13:26:04Z</time>
      </trkpt>
      <trkpt lat="42.3002070" lon="-7.2304910">
        <ele>727.8</ele>
        <time>2014-10-01T13:26:06Z</time>
      </trkpt>
      <trkpt lat="42.3001720" lon="-7.2305070">
        <ele>728.2</ele>
        <time>2014-10-01T13:26:08Z</time>
      </trkpt>
      <trkpt lat="42.3001360" lon="-7.2305210">
        <ele>728.6</ele>
        <time>2014-10-01T13:26:10Z</time>
      </trkpt>
      <trkpt lat="42.3000870" lon="-7.2305390">
        <ele>729.1</ele>
        <time>2014-10-01T13:26:12Z</time>
      </trkpt>
      <trkpt lat="42.3000590" lon="-7.2305470">
        <ele>729.4</ele>
        <time>2014-10-01T13:26:13Z</time>
      </trkpt>
      <trkpt lat="42.3000100" lon="-7.2305510">
        <ele>729.9</ele>
        <time>2014-10-01T13:26:15Z</time>
      </trkpt>
      <trkpt lat="42.2999610" lon="-7.2305480">
        <ele>730.4</ele>
        <time>2014-10-01T13:26:17Z</time>
      </trkpt>
      <trkpt lat="42.2999130" lon="-7.2305440">
        <ele>731.0</ele>
        <time>2014-10-01T13:26:19Z</time>
      </trkpt>
      <trkpt lat="42.2998690" lon="-7.2305350">
        <ele>731.5</ele>
        <time>2014-10-01T13:26:21Z</time>
      </trkpt>
      <trkpt lat="42.2998270" lon="-7.2305220">
        <ele>731.9</ele>
        <time>2014-10-01T13:26:23Z</time>
      </trkpt>
      <trkpt lat="42.2997890" lon="-7.2305040">
        <ele>732.4</ele>
        <time>2014-10-01T13:26:25Z</time>
      </trkpt>
      <trkpt lat="42.2997510" lon="-7.2304780">
        <ele>732.9</ele>
        <time>2014-10-01T13:26:27Z</time>
      </trkpt>
      <trkpt lat="42.2997170" lon="-7.2304510">
        <ele>733.3</ele>
        <time>2014-10-01T13:26:29Z</time>
      </trkpt>
      <trkpt lat="42.2996850" lon="-7.2304130">
        <ele>733.8</ele>
        <time>2014-10-01T13:26:31Z</time>
      </trkpt>
      <trkpt lat="42.2996560" lon="-7.2303650">
        <ele>734.2</ele>
        <time>2014-10-01T13:26:33Z</time>
      </trkpt>
      <trkpt lat="42.2996290" lon="-7.2303200">
        <ele>734.7</ele>
        <time>2014-10-01T13:26:35Z</time>
      </trkpt>
      <trkpt lat="42.2996070" lon="-7.2302730">
        <ele>735.1</ele>
        <time>2014-10-01T13:26:37Z</time>
      </trkpt>
      <trkpt lat="42.2995890" lon="-7.2302240">
        <ele>735.6</ele>
        <time>2014-10-01T13:26:39Z</time>
      </trkpt>
      <trkpt lat="42.2995730" lon="-7.2301710">
        <ele>736.0</ele>
        <time>2014-10-01T13:26:41Z</time>
      </trkpt>
      <trkpt lat="42.2995580" lon="-7.2301120">
        <ele>736.5</ele>
        <time>2014-10-01T13:26:43Z</time>
      </trkpt>
      <trkpt lat="42.2995440" lon="-7.2300560">
        <ele>737.0</ele>
        <time>2014-10-01T13:26:45Z</time>
      </trkpt>
      <trkpt lat="42.2995290" lon="-7.2299950">
        <ele>737.5</ele>
        <time>2014-10-01T13:26:47Z</time>
      </trkpt>
      <trkpt lat="42.2995140" lon="-7.2299350">
        <ele>738.1</ele>
        <time>2014-10-01T13:26:49Z</time>
      </trkpt>
      <trkpt lat="42.2995010" lon="-7.2298880">
        <ele>738.5</ele>
        <time>2014-10-01T13:26:51Z</time>
      </trkpt>
      <trkpt lat="42.2994870" lon="-7.2298310">
        <ele>739.0</ele>
        <time>2014-10-01T13:26:53Z</time>
      </trkpt>
      <trkpt lat="42.2994780" lon="-7.2297730">
        <ele>739.5</ele>
        <time>2014-10-01T13:26:55Z</time>
      </trkpt>
      <trkpt lat="42.2994700" lon="-7.2297140">
        <ele>740.0</ele>
        <time>2014-10-01T13:26:57Z</time>
      </trkpt>
      <trkpt lat="42.2994650" lon="-7.2296550">
        <ele>740.5</ele>
        <time>2014-10-01T13:26:59Z</time>
      </trkpt>
      <trkpt lat="42.2994560" lon="-7.2295950">
        <ele>741.1</ele>
        <time>2014-10-01T13:27:01Z</time>
      </trkpt>
      <trkpt lat="42.2994440" lon="-7.2295390">
        <ele>741.6</ele>
        <time>2014-10-01T13:27:03Z</time>
      </trkpt>
      <trkpt lat="42.2994300" lon="-7.2294930">
        <ele>742.0</ele>
        <time>2014-10-01T13:27:05Z</time>
      </trkpt>
      <trkpt lat="42.2994170" lon="-7.2294490">
        <ele>742.4</ele>
        <time>2014-10-01T13:27:07Z</time>
      </trkpt>
      <trkpt lat="42.2994030" lon="-7.2293880">
        <ele>743.0</ele>
        <time>2014-10-01T13:27:09Z</time>
      </trkpt>
      <trkpt lat="42.2993930" lon="-7.2293390">
        <ele>743.4</ele>
        <time>2014-10-01T13:27:11Z</time>
      </trkpt>
      <trkpt lat="42.2993810" lon="-7.2292850">
        <ele>743.9</ele>
        <time>2014-10-01T13:27:13Z</time>
      </trkpt>
      <trkpt lat="42.2993740" lon="-7.2292330">
        <ele>744.3</ele>
        <time>2014-10-01T13:27:15Z</time>
      </trkpt>
      <trkpt lat="42.2993650" lon="-7.2291710">
        <ele>744.9</ele>
        <time>2014-10-01T13:27:17Z</time>
      </trkpt>
      <trkpt lat="42.2993550" lon="-7.2291040">
        <ele>745.4</ele>
        <time>2014-10-01T13:27:19Z</time>
      </trkpt>
      <trkpt lat="42.2993440" lon="-7.2290420">
        <ele>746.0</ele>
        <time>2014-10-01T13:27:21Z</time>
      </trkpt>
      <trkpt lat="42.2993340" lon="-7.2289910">
        <ele>746.4</ele>
        <time>2014-10-01T13:27:23Z</time>
      </trkpt>
      <trkpt lat="42.2993250" lon="-7.2289470">
        <ele>746.8</ele>
        <time>2014-10-01T13:27:25Z</time>
      </trkpt>
      <trkpt lat="42.2993120" lon="-7.2288940">
        <ele>747.3</ele>
        <time>2014-10-01T13:27:27Z</time>
      </trkpt>
      <trkpt lat="42.2992990" lon="-7.2288430">
        <ele>747.8</ele>
        <time>2014-10-01T13:27:29Z</time>
      </trkpt>
      <trkpt lat="42.2992850" lon="-7.2288000">
        <ele>748.2</ele>
        <time>2014-10-01T13:27:31Z</time>
      </trkpt>
      <trkpt lat="42.2992660" lon="-7.2287530">
        <ele>748.7</ele>
        <time>2014-10-01T13:27:33Z</time>
      </trkpt>
      <trkpt lat="42.2992420" lon="-7.2287070">
        <ele>749.2</ele>
        <time>2014-10-01T13:27:35Z</time>
      </trkpt>
      <trkpt lat="42.2992140" lon="-7.2286590">
        <ele>749.8</ele>
        <time>2014-10-01T13:27:37Z</time>
      </trkpt>
      <trkpt lat="42.2991850" lon="-7.2286200">
        <ele>750.3</ele>
        <time>2014-10-01T13:27:39Z</time>
      </trkpt>
      <trkpt lat="42.2991520" lon="-7.2285870">
        <ele>750.8</ele>
        <time>2014-10-01T13:27:41Z</time>
      </trkpt>
      <trkpt lat="42.2991150" lon="-7.2285550">
        <ele>751.3</ele>
        <time>2014-10-01T13:27:43Z</time>
      </trkpt>
      <trkpt lat="42.2990740" lon="-7.2285300">
        <ele>751.9</ele>
        <time>2014-10-01T13:27:45Z</time>
      </trkpt>
      <trkpt lat="42.2990340" lon="-7.2285140">
        <ele>752.4</ele>
        <time>2014-10-01T13:27:47Z</time>
      </trkpt>
      <trkpt lat="42.2989910" lon="-7.2285060">
        <ele>752.9</ele>
        <time>2014-10-01T13:27:49Z</time>
      </trkpt>
      <trkpt lat="42.2989450" lon="-7.2285060">
        <ele>753.5</ele>
        <time>2014-10-01T13:27:51Z</time>
      </trkpt>
      <trkpt lat="42.2989030" lon="-7.2285130">
        <ele>754.0</ele>
        <time>2014-10-01T13:27:53Z</time>
      </trkpt>
      <trkpt lat="42.2988630" lon="-7.2285250">
        <ele>754.5</ele>
        <time>2014-10-01T13:27:55Z</time>
      </trkpt>
      <trkpt lat="42.2988280" lon="-7.2285510">
        <ele>754.9</ele>
        <time>2014-10-01T13:27:57Z</time>
      </trkpt>
      <trkpt lat="42.2987830" lon="-7.2285980">
        <ele>755.5</ele>
        <time>2014-10-01T13:27:59Z</time>
      </trkpt>
      <trkpt lat="42.2987590" lon="-7.2286220">
        <ele>755.8</ele>
        <time>2014-10-01T13:28:00Z</time>
      </trkpt>
      <trkpt lat="42.2987360" lon="-7.2286480">
        <ele>756.0</ele>
        <time>2014-10-01T13:28:01Z</time>
      </trkpt>
      <trkpt lat="42.2987130" lon="-7.2286740">
        <ele>756.3</ele>
        <time>2014-10-01T13:28:02Z</time>
      </trkpt>
      <trkpt lat="42.2986770" lon="-7.2287200">
        <ele>756.8</ele>
        <time>2014-10-01T13:28:04Z</time>
      </trkpt>
      <trkpt lat="42.2986400" lon="-7.2287680">
        <ele>757.2</ele>
        <time>2014-10-01T13:28:06Z</time>
      </trkpt>
      <trkpt lat="42.2986200" lon="-7.2287950">
        <ele>757.4</ele>
        <time>2014-10-01T13:28:07Z</time>
      </trkpt>
      <trkpt lat="42.2986000" lon="-7.2288260">
        <ele>757.7</ele>
        <time>2014-10-01T13:28:08Z</time>
      </trkpt>
      <trkpt lat="42.2985800" lon="-7.2288560">
        <ele>757.9</ele>
        <time>2014-10-01T13:28:09Z</time>
      </trkpt>
      <trkpt lat="42.2985590" lon="-7.2288860">
        <ele>758.1</ele>
        <time>2014-10-01T13:28:10Z</time>
      </trkpt>
      <trkpt lat="42.2985250" lon="-7.2289350">
        <ele>758.5</ele>
        <time>2014-10-01T13:28:12Z</time>
      </trkpt>
      <trkpt lat="42.2984870" lon="-7.2289880">
        <ele>759.0</ele>
        <time>2014-10-01T13:28:14Z</time>
      </trkpt>
      <trkpt lat="42.2984570" lon="-7.2290340">
        <ele>759.3</ele>
        <time>2014-10-01T13:28:16Z</time>
      </trkpt>
      <trkpt lat="42.2984230" lon="-7.2290850">
        <ele>759.7</ele>
        <time>2014-10-01T13:28:18Z</time>
      </trkpt>
      <trkpt lat="42.2983950" lon="-7.2291320">
        <ele>760.1</ele>
        <time>2014-10-01T13:28:20Z</time>
      </trkpt>
      <trkpt lat="42.2983670" lon="-7.2291800">
        <ele>760.5</ele>
        <time>2014-10-01T13:28:22Z</time>
      </trkpt>
      <trkpt lat="42.2983470" lon="-7.2292100">
        <ele>760.7</ele>
        <time>2014-10-01T13:28:23Z</time>
      </trkpt>
      <trkpt lat="42.2983270" lon="-7.2292390">
        <ele>760.9</ele>
        <time>2014-10-01T13:28:24Z</time>
      </trkpt>
      <trkpt lat="42.2983080" lon="-7.2292660">
        <ele>761.2</ele>
        <time>2014-10-01T13:28:25Z</time>
      </trkpt>
      <trkpt lat="42.2982710" lon="-7.2293160">
        <ele>761.6</ele>
        <time>2014-10-01T13:28:27Z</time>
      </trkpt>
      <trkpt lat="42.2982490" lon="-7.2293440">
        <ele>761.8</ele>
        <time>2014-10-01T13:28:28Z</time>
      </trkpt>
      <trkpt lat="42.2982290" lon="-7.2293720">
        <ele>762.0</ele>
        <time>2014-10-01T13:28:29Z</time>
      </trkpt>
      <trkpt lat="42.2981890" lon="-7.2294180">
        <ele>762.4</ele>
        <time>2014-10-01T13:28:31Z</time>
      </trkpt>
      <trkpt lat="42.2981500" lon="-7.2294640">
        <ele>762.8</ele>
        <time>2014-10-01T13:28:33Z</time>
      </trkpt>
      <trkpt lat="42.2981090" lon="-7.2295110">
        <ele>763.2</ele>
        <time>2014-10-01T13:28:35Z</time>
      </trkpt>
      <trkpt lat="42.2980880" lon="-7.2295370">
        <ele>763.4</ele>
        <time>2014-10-01T13:28:36Z</time>
      </trkpt>
      <trkpt lat="42.2980680" lon="-7.2295630">
        <ele>763.6</ele>
        <time>2014-10-01T13:28:37Z</time>
      </trkpt>
      <trkpt lat="42.2980350" lon="-7.2296110">
        <ele>763.9</ele>
        <time>2014-10-01T13:28:39Z</time>
      </trkpt>
      <trkpt lat="42.2979950" lon="-7.2296640">
        <ele>764.3</ele>
        <time>2014-10-01T13:28:41Z</time>
      </trkpt>
      <trkpt lat="42.2979500" lon="-7.2297060">
        <ele>764.7</ele>
        <time>2014-10-01T13:28:43Z</time>
      </trkpt>
      <trkpt lat="42.2979260" lon="-7.2297270">
        <ele>764.9</ele>
        <time>2014-10-01T13:28:44Z</time>
      </trkpt>
      <trkpt lat="42.2978800" lon="-7.2297640">
        <ele>765.3</ele>
        <time>2014-10-01T13:28:46Z</time>
      </trkpt>
      <trkpt lat="42.2978550" lon="-7.2297830">
        <ele>765.5</ele>
        <time>2014-10-01T13:28:47Z</time>
      </trkpt>
      <trkpt lat="42.2978050" lon="-7.2298150">
        <ele>765.8</ele>
        <time>2014-10-01T13:28:49Z</time>
      </trkpt>
      <trkpt lat="42.2977740" lon="-7.2298290">
        <ele>766.0</ele>
        <time>2014-10-01T13:28:50Z</time>
      </trkpt>
      <trkpt lat="42.2977400" lon="-7.2298400">
        <ele>766.2</ele>
        <time>2014-10-01T13:28:51Z</time>
      </trkpt>
      <trkpt lat="42.2977110" lon="-7.2298510">
        <ele>766.4</ele>
        <time>2014-10-01T13:28:52Z</time>
      </trkpt>
      <trkpt lat="42.2976820" lon="-7.2298630">
        <ele>766.5</ele>
        <time>2014-10-01T13:28:53Z</time>
      </trkpt>
      <trkpt lat="42.2976510" lon="-7.2298740">
        <ele>766.7</ele>
        <time>2014-10-01T13:28:54Z</time>
      </trkpt>
      <trkpt lat="42.2976220" lon="-7.2298830">
        <ele>766.8</ele>
        <time>2014-10-01T13:28:55Z</time>
      </trkpt>
      <trkpt lat="42.2975900" lon="-7.2298920">
        <ele>767.0</ele>
        <time>2014-10-01T13:28:56Z</time>
      </trkpt>
      <trkpt lat="42.2975590" lon="-7.2298990">
        <ele>767.1</ele>
        <time>2014-10-01T13:28:57Z</time>
      </trkpt>
      <trkpt lat="42.2975270" lon="-7.2299020">
        <ele>767.3</ele>
        <time>2014-10-01T13:28:58Z</time>
      </trkpt>
      <trkpt lat="42.2974950" lon="-7.2299050">
        <ele>767.4</ele>
        <time>2014-10-01T13:28:59Z</time>
      </trkpt>
      <trkpt lat="42.2974610" lon="-7.2299080">
        <ele>767.5</ele>
        <time>2014-10-01T13:29:00Z</time>
      </trkpt>
      <trkpt lat="42.2974270" lon="-7.2299120">
        <ele>767.7</ele>
        <time>2014-10-01T13:29:01Z</time>
      </trkpt>
      <trkpt lat="42.2973950" lon="-7.2299150">
        <ele>767.9</ele>
        <time>2014-10-01T13:29:02Z</time>
      </trkpt>
      <trkpt lat="42.2973640" lon="-7.2299190">
        <ele>768.2</ele>
        <time>2014-10-01T13:29:03Z</time>
      </trkpt>
      <trkpt lat="42.2973300" lon="-7.2299210">
        <ele>768.5</ele>
        <time>2014-10-01T13:29:04Z</time>
      </trkpt>
      <trkpt lat="42.2972980" lon="-7.2299200">
        <ele>768.8</ele>
        <time>2014-10-01T13:29:05Z</time>
      </trkpt>
      <trkpt lat="42.2972680" lon="-7.2299190">
        <ele>769.0</ele>
        <time>2014-10-01T13:29:06Z</time>
      </trkpt>
      <trkpt lat="42.2972280" lon="-7.2299190">
        <ele>769.4</ele>
        <time>2014-10-01T13:29:07Z</time>
      </trkpt>
      <trkpt lat="42.2971880" lon="-7.2299210">
        <ele>769.7</ele>
        <time>2014-10-01T13:29:08Z</time>
      </trkpt>
      <trkpt lat="42.2971560" lon="-7.2299210">
        <ele>770.0</ele>
        <time>2014-10-01T13:29:09Z</time>
      </trkpt>
      <trkpt lat="42.2971050" lon="-7.2299130">
        <ele>770.4</ele>
        <time>2014-10-01T13:29:11Z</time>
      </trkpt>
      <trkpt lat="42.2970760" lon="-7.2299120">
        <ele>770.7</ele>
        <time>2014-10-01T13:29:12Z</time>
      </trkpt>
      <trkpt lat="42.2970440" lon="-7.2299100">
        <ele>770.9</ele>
        <time>2014-10-01T13:29:13Z</time>
      </trkpt>
      <trkpt lat="42.2970140" lon="-7.2299080">
        <ele>771.2</ele>
        <time>2014-10-01T13:29:14Z</time>
      </trkpt>
      <trkpt lat="42.2969840" lon="-7.2299060">
        <ele>771.5</ele>
        <time>2014-10-01T13:29:15Z</time>
      </trkpt>
      <trkpt lat="42.2969560" lon="-7.2299030">
        <ele>771.7</ele>
        <time>2014-10-01T13:29:16Z</time>
      </trkpt>
      <trkpt lat="42.2969260" lon="-7.2298980">
        <ele>772.0</ele>
        <time>2014-10-01T13:29:17Z</time>
      </trkpt>
      <trkpt lat="42.2968710" lon="-7.2298870">
        <ele>772.5</ele>
        <time>2014-10-01T13:29:19Z</time>
      </trkpt>
      <trkpt lat="42.2968410" lon="-7.2298800">
        <ele>772.8</ele>
        <time>2014-10-01T13:29:20Z</time>
      </trkpt>
      <trkpt lat="42.2968100" lon="-7.2298710">
        <ele>773.1</ele>
        <time>2014-10-01T13:29:21Z</time>
      </trkpt>
      <trkpt lat="42.2967810" lon="-7.2298620">
        <ele>773.4</ele>
        <time>2014-10-01T13:29:22Z</time>
      </trkpt>
      <trkpt lat="42.2967520" lon="-7.2298570">
        <ele>773.7</ele>
        <time>2014-10-01T13:29:23Z</time>
      </trkpt>
      <trkpt lat="42.2967250" lon="-7.2298540">
        <ele>774.0</ele>
        <time>2014-10-01T13:29:24Z</time>
      </trkpt>
      <trkpt lat="42.2966720" lon="-7.2298520">
        <ele>774.6</ele>
        <time>2014-10-01T13:29:26Z</time>
      </trkpt>
      <trkpt lat="42.2966420" lon="-7.2298520">
        <ele>774.9</ele>
        <time>2014-10-01T13:29:27Z</time>
      </trkpt>
      <trkpt lat="42.2966130" lon="-7.2298510">
        <ele>775.2</ele>
        <time>2014-10-01T13:29:28Z</time>
      </trkpt>
      <trkpt lat="42.2965860" lon="-7.2298510">
        <ele>775.5</ele>
        <time>2014-10-01T13:29:29Z</time>
      </trkpt>
      <trkpt lat="42.2965330" lon="-7.2298480">
        <ele>776.0</ele>
        <time>2014-10-01T13:29:31Z</time>
      </trkpt>
      <trkpt lat="42.2964870" lon="-7.2298370">
        <ele>776.5</ele>
        <time>2014-10-01T13:29:33Z</time>
      </trkpt>
      <trkpt lat="42.2964400" lon="-7.2298260">
        <ele>777.0</ele>
        <time>2014-10-01T13:29:35Z</time>
      </trkpt>
      <trkpt lat="42.2963880" lon="-7.2298180">
        <ele>777.6</ele>
        <time>2014-10-01T13:29:37Z</time>
      </trkpt>
      <trkpt lat="42.2963410" lon="-7.2298120">
        <ele>778.2</ele>
        <time>2014-10-01T13:29:39Z</time>
      </trkpt>
      <trkpt lat="42.2962930" lon="-7.2298060">
        <ele>778.8</ele>
        <time>2014-10-01T13:29:41Z</time>
      </trkpt>
      <trkpt lat="42.2962460" lon="-7.2298010">
        <ele>779.4</ele>
        <time>2014-10-01T13:29:43Z</time>
      </trkpt>
      <trkpt lat="42.2961940" lon="-7.2297950">
        <ele>780.0</ele>
        <time>2014-10-01T13:29:45Z</time>
      </trkpt>
      <trkpt lat="42.2961660" lon="-7.2297920">
        <ele>780.3</ele>
        <time>2014-10-01T13:29:46Z</time>
      </trkpt>
      <trkpt lat="42.2961370" lon="-7.2297880">
        <ele>780.7</ele>
        <time>2014-10-01T13:29:47Z</time>
      </trkpt>
      <trkpt lat="42.2961090" lon="-7.2297840">
        <ele>781.0</ele>
        <time>2014-10-01T13:29:48Z</time>
      </trkpt>
      <trkpt lat="42.2960620" lon="-7.2297800">
        <ele>781.6</ele>
        <time>2014-10-01T13:29:50Z</time>
      </trkpt>
      <trkpt lat="42.2960130" lon="-7.2297750">
        <ele>782.1</ele>
        <time>2014-10-01T13:29:52Z</time>
      </trkpt>
      <trkpt lat="42.2959740" lon="-7.2297690">
        <ele>782.6</ele>
        <time>2014-10-01T13:29:54Z</time>
      </trkpt>
      <trkpt lat="42.2959380" lon="-7.2297630">
        <ele>783.0</ele>
        <time>2014-10-01T13:29:56Z</time>
      </trkpt>
      <trkpt lat="42.2958970" lon="-7.2297550">
        <ele>783.5</ele>
        <time>2014-10-01T13:29:58Z</time>
      </trkpt>
      <trkpt lat="42.2958520" lon="-7.2297470">
        <ele>784.1</ele>
        <time>2014-10-01T13:30:00Z</time>
      </trkpt>
      <trkpt lat="42.2958080" lon="-7.2297360">
        <ele>784.6</ele>
        <time>2014-10-01T13:30:02Z</time>
      </trkpt>
      <trkpt lat="42.2957640" lon="-7.2297180">
        <ele>785.1</ele>
        <time>2014-10-01T13:30:04Z</time>
      </trkpt>
      <trkpt lat="42.2957170" lon="-7.2297010">
        <ele>785.7</ele>
        <time>2014-10-01T13:30:06Z</time>
      </trkpt>
      <trkpt lat="42.2956690" lon="-7.2296850">
        <ele>786.2</ele>
        <time>2014-10-01T13:30:08Z</time>
      </trkpt>
      <trkpt lat="42.2956230" lon="-7.2296700">
        <ele>786.7</ele>
        <time>2014-10-01T13:30:10Z</time>
      </trkpt>
      <trkpt lat="42.2955750" lon="-7.2296510">
        <ele>787.3</ele>
        <time>2014-10-01T13:30:12Z</time>
      </trkpt>
      <trkpt lat="42.2955490" lon="-7.2296400">
        <ele>787.6</ele>
        <time>2014-10-01T13:30:13Z</time>
      </trkpt>
      <trkpt lat="42.2954980" lon="-7.2296180">
        <ele>788.1</ele>
        <time>2014-10-01T13:30:15Z</time>
      </trkpt>
      <trkpt lat="42.2954720" lon="-7.2296060">
        <ele>788.4</ele>
        <time>2014-10-01T13:30:16Z</time>
      </trkpt>
      <trkpt lat="42.2954200" lon="-7.2295860">
        <ele>788.9</ele>
        <time>2014-10-01T13:30:18Z</time>
      </trkpt>
      <trkpt lat="42.2953700" lon="-7.2295690">
        <ele>789.4</ele>
        <time>2014-10-01T13:30:20Z</time>
      </trkpt>
      <trkpt lat="42.2953440" lon="-7.2295560">
        <ele>789.6</ele>
        <time>2014-10-01T13:30:21Z</time>
      </trkpt>
      <trkpt lat="42.2952940" lon="-7.2295270">
        <ele>790.1</ele>
        <time>2014-10-01T13:30:23Z</time>
      </trkpt>
      <trkpt lat="42.2952690" lon="-7.2295140">
        <ele>790.3</ele>
        <time>2014-10-01T13:30:24Z</time>
      </trkpt>
      <trkpt lat="42.2952430" lon="-7.2294990">
        <ele>790.6</ele>
        <time>2014-10-01T13:30:25Z</time>
      </trkpt>
      <trkpt lat="42.2951910" lon="-7.2294720">
        <ele>791.0</ele>
        <time>2014-10-01T13:30:27Z</time>
      </trkpt>
      <trkpt lat="42.2951620" lon="-7.2294580">
        <ele>791.3</ele>
        <time>2014-10-01T13:30:28Z</time>
      </trkpt>
      <trkpt lat="42.2951350" lon="-7.2294450">
        <ele>791.5</ele>
        <time>2014-10-01T13:30:29Z</time>
      </trkpt>
      <trkpt lat="42.2951060" lon="-7.2294310">
        <ele>791.8</ele>
        <time>2014-10-01T13:30:30Z</time>
      </trkpt>
      <trkpt lat="42.2950780" lon="-7.2294200">
        <ele>792.0</ele>
        <time>2014-10-01T13:30:31Z</time>
      </trkpt>
      <trkpt lat="42.2950510" lon="-7.2294080">
        <ele>792.3</ele>
        <time>2014-10-01T13:30:32Z</time>
      </trkpt>
      <trkpt lat="42.2950230" lon="-7.2293960">
        <ele>792.5</ele>
        <time>2014-10-01T13:30:33Z</time>
      </trkpt>
      <trkpt lat="42.2949730" lon="-7.2293720">
        <ele>793.0</ele>
        <time>2014-10-01T13:30:35Z</time>
      </trkpt>
      <trkpt lat="42.2949460" lon="-7.2293600">
        <ele>793.3</ele>
        <time>2014-10-01T13:30:36Z</time>
      </trkpt>
      <trkpt lat="42.2949210" lon="-7.2293450">
        <ele>793.5</ele>
        <time>2014-10-01T13:30:37Z</time>
      </trkpt>
      <trkpt lat="42.2948930" lon="-7.2293310">
        <ele>793.8</ele>
        <time>2014-10-01T13:30:38Z</time>
      </trkpt>
      <trkpt lat="42.2948650" lon="-7.2293160">
        <ele>794.1</ele>
        <time>2014-10-01T13:30:39Z</time>
      </trkpt>
      <trkpt lat="42.2948380" lon="-7.2293030">
        <ele>794.3</ele>
        <time>2014-10-01T13:30:40Z</time>
      </trkpt>
      <trkpt lat="42.2948110" lon="-7.2292910">
        <ele>794.6</ele>
        <time>2014-10-01T13:30:41Z</time>
      </trkpt>
      <trkpt lat="42.2947620" lon="-7.2292660">
        <ele>795.1</ele>
        <time>2014-10-01T13:30:43Z</time>
      </trkpt>
      <trkpt lat="42.2947330" lon="-7.2292530">
        <ele>795.4</ele>
        <time>2014-10-01T13:30:44Z</time>
      </trkpt>
      <trkpt lat="42.2947070" lon="-7.2292420">
        <ele>795.6</ele>
        <time>2014-10-01T13:30:45Z</time>
      </trkpt>
      <trkpt lat="42.2946750" lon="-7.2292290">
        <ele>796.0</ele>
        <time>2014-10-01T13:30:46Z</time>
      </trkpt>
      <trkpt lat="42.2946440" lon="-7.2292140">
        <ele>796.3</ele>
        <time>2014-10-01T13:30:47Z</time>
      </trkpt>
      <trkpt lat="42.2946170" lon="-7.2292000">
        <ele>796.6</ele>
        <time>2014-10-01T13:30:48Z</time>
      </trkpt>
      <trkpt lat="42.2945910" lon="-7.2291860">
        <ele>796.8</ele>
        <time>2014-10-01T13:30:49Z</time>
      </trkpt>
      <trkpt lat="42.2945650" lon="-7.2291720">
        <ele>797.1</ele>
        <time>2014-10-01T13:30:50Z</time>
      </trkpt>
      <trkpt lat="42.2945380" lon="-7.2291580">
        <ele>797.4</ele>
        <time>2014-10-01T13:30:51Z</time>
      </trkpt>
      <trkpt lat="42.2944890" lon="-7.2291340">
        <ele>797.9</ele>
        <time>2014-10-01T13:30:53Z</time>
      </trkpt>
      <trkpt lat="42.2944400" lon="-7.2291130">
        <ele>798.4</ele>
        <time>2014-10-01T13:30:55Z</time>
      </trkpt>
      <trkpt lat="42.2943940" lon="-7.2290890">
        <ele>798.9</ele>
        <time>2014-10-01T13:30:57Z</time>
      </trkpt>
      <trkpt lat="42.2943430" lon="-7.2290610">
        <ele>799.5</ele>
        <time>2014-10-01T13:30:59Z</time>
      </trkpt>
      <trkpt lat="42.2942950" lon="-7.2290360">
        <ele>800.0</ele>
        <time>2014-10-01T13:31:01Z</time>
      </trkpt>
      <trkpt lat="42.2942690" lon="-7.2290220">
        <ele>800.3</ele>
        <time>2014-10-01T13:31:02Z</time>
      </trkpt>
      <trkpt lat="42.2942440" lon="-7.2290090">
        <ele>800.6</ele>
        <time>2014-10-01T13:31:03Z</time>
      </trkpt>
      <trkpt lat="42.2941980" lon="-7.2289790">
        <ele>801.2</ele>
        <time>2014-10-01T13:31:05Z</time>
      </trkpt>
      <trkpt lat="42.2941500" lon="-7.2289530">
        <ele>801.7</ele>
        <time>2014-10-01T13:31:07Z</time>
      </trkpt>
      <trkpt lat="42.2941030" lon="-7.2289240">
        <ele>802.3</ele>
        <time>2014-10-01T13:31:09Z</time>
      </trkpt>
      <trkpt lat="42.2940590" lon="-7.2288940">
        <ele>802.9</ele>
        <time>2014-10-01T13:31:11Z</time>
      </trkpt>
      <trkpt lat="42.2940180" lon="-7.2288620">
        <ele>803.4</ele>
        <time>2014-10-01T13:31:13Z</time>
      </trkpt>
      <trkpt lat="42.2939770" lon="-7.2288300">
        <ele>804.0</ele>
        <time>2014-10-01T13:31:15Z</time>
      </trkpt>
      <trkpt lat="42.2939360" lon="-7.2288100">
        <ele>804.5</ele>
        <time>2014-10-01T13:31:17Z</time>
      </trkpt>
      <trkpt lat="42.2938940" lon="-7.2287880">
        <ele>805.1</ele>
        <time>2014-10-01T13:31:19Z</time>
      </trkpt>
      <trkpt lat="42.2938560" lon="-7.2287550">
        <ele>805.7</ele>
        <time>2014-10-01T13:31:21Z</time>
      </trkpt>
      <trkpt lat="42.2938180" lon="-7.2287210">
        <ele>806.2</ele>
        <time>2014-10-01T13:31:23Z</time>
      </trkpt>
      <trkpt lat="42.2937780" lon="-7.2286880">
        <ele>806.8</ele>
        <time>2014-10-01T13:31:25Z</time>
      </trkpt>
      <trkpt lat="42.2937370" lon="-7.2286560">
        <ele>807.5</ele>
        <time>2014-10-01T13:31:27Z</time>
      </trkpt>
      <trkpt lat="42.2936980" lon="-7.2286240">
        <ele>808.0</ele>
        <time>2014-10-01T13:31:29Z</time>
      </trkpt>
      <trkpt lat="42.2936560" lon="-7.2285930">
        <ele>808.7</ele>
        <time>2014-10-01T13:31:31Z</time>
      </trkpt>
      <trkpt lat="42.2936170" lon="-7.2285650">
        <ele>809.3</ele>
        <time>2014-10-01T13:31:33Z</time>
      </trkpt>
      <trkpt lat="42.2935760" lon="-7.2285430">
        <ele>809.9</ele>
        <time>2014-10-01T13:31:35Z</time>
      </trkpt>
      <trkpt lat="42.2935370" lon="-7.2285290">
        <ele>810.4</ele>
        <time>2014-10-01T13:31:37Z</time>
      </trkpt>
      <trkpt lat="42.2934960" lon="-7.2285240">
        <ele>811.0</ele>
        <time>2014-10-01T13:31:39Z</time>
      </trkpt>
      <trkpt lat="42.2934530" lon="-7.2285280">
        <ele>811.6</ele>
        <time>2014-10-01T13:31:41Z</time>
      </trkpt>
      <trkpt lat="42.2934130" lon="-7.2285430">
        <ele>812.2</ele>
        <time>2014-10-01T13:31:43Z</time>
      </trkpt>
      <trkpt lat="42.2933760" lon="-7.2285740">
        <ele>812.8</ele>
        <time>2014-10-01T13:31:45Z</time>
      </trkpt>
      <trkpt lat="42.2933420" lon="-7.2286170">
        <ele>813.4</ele>
        <time>2014-10-01T13:31:47Z</time>
      </trkpt>
      <trkpt lat="42.2933130" lon="-7.2286550">
        <ele>813.9</ele>
        <time>2014-10-01T13:31:49Z</time>
      </trkpt>
      <trkpt lat="42.2932900" lon="-7.2286920">
        <ele>814.4</ele>
        <time>2014-10-01T13:31:51Z</time>
      </trkpt>
      <trkpt lat="42.2932700" lon="-7.2287430">
        <ele>814.9</ele>
        <time>2014-10-01T13:31:53Z</time>
      </trkpt>
      <trkpt lat="42.2932560" lon="-7.2287980">
        <ele>815.5</ele>
        <time>2014-10-01T13:31:55Z</time>
      </trkpt>
      <trkpt lat="42.2932440" lon="-7.2288520">
        <ele>816.0</ele>
        <time>2014-10-01T13:31:57Z</time>
      </trkpt>
      <trkpt lat="42.2932350" lon="-7.2289140">
        <ele>816.5</ele>
        <time>2014-10-01T13:31:59Z</time>
      </trkpt>
      <trkpt lat="42.2932290" lon="-7.2289710">
        <ele>817.0</ele>
        <time>2014-10-01T13:32:01Z</time>
      </trkpt>
      <trkpt lat="42.2932190" lon="-7.2290360">
        <ele>817.6</ele>
        <time>2014-10-01T13:32:03Z</time>
      </trkpt>
      <trkpt lat="42.2932150" lon="-7.2290970">
        <ele>818.2</ele>
        <time>2014-10-01T13:32:05Z</time>
      </trkpt>
      <trkpt lat="42.2932200" lon="-7.2291530">
        <ele>818.7</ele>
        <time>2014-10-01T13:32:07Z</time>
      </trkpt>
      <trkpt lat="42.2932280" lon="-7.2292140">
        <ele>819.3</ele>
        <time>2014-10-01T13:32:09Z</time>
      </trkpt>
      <trkpt lat="42.2932410" lon="-7.2292740">
        <ele>819.8</ele>
        <time>2014-10-01T13:32:11Z</time>
      </trkpt>
      <trkpt lat="42.2932440" lon="-7.2293300">
        <ele>820.4</ele>
        <time>2014-10-01T13:32:13Z</time>
      </trkpt>
      <trkpt lat="42.2932530" lon="-7.2293960">
        <ele>821.0</ele>
        <time>2014-10-01T13:32:15Z</time>
      </trkpt>
      <trkpt lat="42.2932530" lon="-7.2294650">
        <ele>821.7</ele>
        <time>2014-10-01T13:32:17Z</time>
      </trkpt>
      <trkpt lat="42.2932540" lon="-7.2295400">
        <ele>822.4</ele>
        <time>2014-10-01T13:32:19Z</time>
      </trkpt>
      <trkpt lat="42.2932560" lon="-7.2295760">
        <ele>822.8</ele>
        <time>2014-10-01T13:32:20Z</time>
      </trkpt>
      <trkpt lat="42.2932630" lon="-7.2296370">
        <ele>823.4</ele>
        <time>2014-10-01T13:32:22Z</time>
      </trkpt>
      <trkpt lat="42.2932710" lon="-7.2296890">
        <ele>823.9</ele>
        <time>2014-10-01T13:32:24Z</time>
      </trkpt>
      <trkpt lat="42.2932760" lon="-7.2297440">
        <ele>824.4</ele>
        <time>2014-10-01T13:32:26Z</time>
      </trkpt>
      <trkpt lat="42.2932800" lon="-7.2298020">
        <ele>824.9</ele>
        <time>2014-10-01T13:32:28Z</time>
      </trkpt>
      <trkpt lat="42.2932800" lon="-7.2298640">
        <ele>825.5</ele>
        <time>2014-10-01T13:32:30Z</time>
      </trkpt>
      <trkpt lat="42.2932820" lon="-7.2299250">
        <ele>826.1</ele>
        <time>2014-10-01T13:32:32Z</time>
      </trkpt>
      <trkpt lat="42.2932870" lon="-7.2299830">
        <ele>826.7</ele>
        <time>2014-10-01T13:32:34Z</time>
      </trkpt>
      <trkpt lat="42.2932930" lon="-7.2300390">
        <ele>827.2</ele>
        <time>2014-10-01T13:32:36Z</time>
      </trkpt>
      <trkpt lat="42.2933000" lon="-7.2300930">
        <ele>827.8</ele>
        <time>2014-10-01T13:32:38Z</time>
      </trkpt>
      <trkpt lat="42.2933070" lon="-7.2301490">
        <ele>828.3</ele>
        <time>2014-10-01T13:32:40Z</time>
      </trkpt>
      <trkpt lat="42.2933120" lon="-7.2302130">
        <ele>828.9</ele>
        <time>2014-10-01T13:32:42Z</time>
      </trkpt>
      <trkpt lat="42.2933170" lon="-7.2302740">
        <ele>829.5</ele>
        <time>2014-10-01T13:32:44Z</time>
      </trkpt>
      <trkpt lat="42.2933170" lon="-7.2303270">
        <ele>830.1</ele>
        <time>2014-10-01T13:32:46Z</time>
      </trkpt>
      <trkpt lat="42.2933140" lon="-7.2303760">
        <ele>830.6</ele>
        <time>2014-10-01T13:32:48Z</time>
      </trkpt>
      <trkpt lat="42.2933230" lon="-7.2304360">
        <ele>831.2</ele>
        <time>2014-10-01T13:32:50Z</time>
      </trkpt>
      <trkpt lat="42.2933250" lon="-7.2304940">
        <ele>831.8</ele>
        <time>2014-10-01T13:32:52Z</time>
      </trkpt>
      <trkpt lat="42.2933280" lon="-7.2305500">
        <ele>832.3</ele>
        <time>2014-10-01T13:32:54Z</time>
      </trkpt>
      <trkpt lat="42.2933350" lon="-7.2306090">
        <ele>832.9</ele>
        <time>2014-10-01T13:32:56Z</time>
      </trkpt>
      <trkpt lat="42.2933400" lon="-7.2306670">
        <ele>833.4</ele>
        <time>2014-10-01T13:32:58Z</time>
      </trkpt>
      <trkpt lat="42.2933330" lon="-7.2307240">
        <ele>833.9</ele>
        <time>2014-10-01T13:33:00Z</time>
      </trkpt>
      <trkpt lat="42.2933250" lon="-7.2307830">
        <ele>834.4</ele>
        <time>2014-10-01T13:33:02Z</time>
      </trkpt>
      <trkpt lat="42.2933170" lon="-7.2308370">
        <ele>834.9</ele>
        <time>2014-10-01T13:33:04Z</time>
      </trkpt>
      <trkpt lat="42.2933120" lon="-7.2308980">
        <ele>835.4</ele>
        <time>2014-10-01T13:33:06Z</time>
      </trkpt>
      <trkpt lat="42.2933020" lon="-7.2309540">
        <ele>836.0</ele>
        <time>2014-10-01T13:33:08Z</time>
      </trkpt>
      <trkpt lat="42.2932970" lon="-7.2310040">
        <ele>836.5</ele>
        <time>2014-10-01T13:33:10Z</time>
      </trkpt>
      <trkpt lat="42.2932850" lon="-7.2310640">
        <ele>837.1</ele>
        <time>2014-10-01T13:33:12Z</time>
      </trkpt>
      <trkpt lat="42.2932690" lon="-7.2311280">
        <ele>837.7</ele>
        <time>2014-10-01T13:33:14Z</time>
      </trkpt>
      <trkpt lat="42.2932540" lon="-7.2311850">
        <ele>838.3</ele>
        <time>2014-10-01T13:33:16Z</time>
      </trkpt>
      <trkpt lat="42.2932410" lon="-7.2312380">
        <ele>838.8</ele>
        <time>2014-10-01T13:33:18Z</time>
      </trkpt>
      <trkpt lat="42.2932200" lon="-7.2312920">
        <ele>839.3</ele>
        <time>2014-10-01T13:33:20Z</time>
      </trkpt>
      <trkpt lat="42.2932000" lon="-7.2313460">
        <ele>839.9</ele>
        <time>2014-10-01T13:33:22Z</time>
      </trkpt>
      <trkpt lat="42.2931740" lon="-7.2313970">
        <ele>840.5</ele>
        <time>2014-10-01T13:33:24Z</time>
      </trkpt>
      <trkpt lat="42.2931500" lon="-7.2314390">
        <ele>841.0</ele>
        <time>2014-10-01T13:33:26Z</time>
      </trkpt>
      <trkpt lat="42.2931210" lon="-7.2314810">
        <ele>841.5</ele>
        <time>2014-10-01T13:33:28Z</time>
      </trkpt>
      <trkpt lat="42.2930950" lon="-7.2315130">
        <ele>842.0</ele>
        <time>2014-10-01T13:33:30Z</time>
      </trkpt>
      <trkpt lat="42.2930720" lon="-7.2315450">
        <ele>842.4</ele>
        <time>2014-10-01T13:33:32Z</time>
      </trkpt>
      <trkpt lat="42.2930450" lon="-7.2315840">
        <ele>842.9</ele>
        <time>2014-10-01T13:33:34Z</time>
      </trkpt>
      <trkpt lat="42.2930180" lon="-7.2316250">
        <ele>843.5</ele>
        <time>2014-10-01T13:33:36Z</time>
      </trkpt>
      <trkpt lat="42.2929900" lon="-7.2316620">
        <ele>844.0</ele>
        <time>2014-10-01T13:33:38Z</time>
      </trkpt>
      <trkpt lat="42.2929560" lon="-7.2316980">
        <ele>844.5</ele>
        <time>2014-10-01T13:33:40Z</time>
      </trkpt>
      <trkpt lat="42.2929200" lon="-7.2317320">
        <ele>845.1</ele>
        <time>2014-10-01T13:33:42Z</time>
      </trkpt>
      <trkpt lat="42.2928860" lon="-7.2317650">
        <ele>845.7</ele>
        <time>2014-10-01T13:33:44Z</time>
      </trkpt>
      <trkpt lat="42.2928450" lon="-7.2317840">
        <ele>846.3</ele>
        <time>2014-10-01T13:33:46Z</time>
      </trkpt>
      <trkpt lat="42.2928010" lon="-7.2318030">
        <ele>847.0</ele>
        <time>2014-10-01T13:33:48Z</time>
      </trkpt>
      <trkpt lat="42.2927610" lon="-7.2318170">
        <ele>847.5</ele>
        <time>2014-10-01T13:33:50Z</time>
      </trkpt>
      <trkpt lat="42.2927180" lon="-7.2318300">
        <ele>848.2</ele>
        <time>2014-10-01T13:33:52Z</time>
      </trkpt>
      <trkpt lat="42.2926780" lon="-7.2318390">
        <ele>848.7</ele>
        <time>2014-10-01T13:33:54Z</time>
      </trkpt>
      <trkpt lat="42.2926360" lon="-7.2318460">
        <ele>849.3</ele>
        <time>2014-10-01T13:33:56Z</time>
      </trkpt>
      <trkpt lat="42.2925920" lon="-7.2318460">
        <ele>849.9</ele>
        <time>2014-10-01T13:33:58Z</time>
      </trkpt>
      <trkpt lat="42.2925510" lon="-7.2318450">
        <ele>850.4</ele>
        <time>2014-10-01T13:34:00Z</time>
      </trkpt>
      <trkpt lat="42.2925160" lon="-7.2318410">
        <ele>850.9</ele>
        <time>2014-10-01T13:34:02Z</time>
      </trkpt>
      <trkpt lat="42.2924770" lon="-7.2318330">
        <ele>851.4</ele>
        <time>2014-10-01T13:34:04Z</time>
      </trkpt>
      <trkpt lat="42.2924360" lon="-7.2318260">
        <ele>851.9</ele>
        <time>2014-10-01T13:34:06Z</time>
      </trkpt>
      <trkpt lat="42.2923980" lon="-7.2318180">
        <ele>852.4</ele>
        <time>2014-10-01T13:34:08Z</time>
      </trkpt>
      <trkpt lat="42.2923600" lon="-7.2318060">
        <ele>852.9</ele>
        <time>2014-10-01T13:34:10Z</time>
      </trkpt>
      <trkpt lat="42.2923210" lon="-7.2317880">
        <ele>853.5</ele>
        <time>2014-10-01T13:34:12Z</time>
      </trkpt>
      <trkpt lat="42.2922830" lon="-7.2317660">
        <ele>854.0</ele>
        <time>2014-10-01T13:34:14Z</time>
      </trkpt>
      <trkpt lat="42.2922440" lon="-7.2317400">
        <ele>854.6</ele>
        <time>2014-10-01T13:34:16Z</time>
      </trkpt>
      <trkpt lat="42.2922050" lon="-7.2317070">
        <ele>855.1</ele>
        <time>2014-10-01T13:34:18Z</time>
      </trkpt>
      <trkpt lat="42.2921670" lon="-7.2316750">
        <ele>855.6</ele>
        <time>2014-10-01T13:34:20Z</time>
      </trkpt>
      <trkpt lat="42.2921260" lon="-7.2316410">
        <ele>856.2</ele>
        <time>2014-10-01T13:34:22Z</time>
      </trkpt>
      <trkpt lat="42.2920820" lon="-7.2315990">
        <ele>856.7</ele>
        <time>2014-10-01T13:34:24Z</time>
      </trkpt>
      <trkpt lat="42.2920370" lon="-7.2315580">
        <ele>857.3</ele>
        <time>2014-10-01T13:34:26Z</time>
      </trkpt>
      <trkpt lat="42.2919930" lon="-7.2315200">
        <ele>857.7</ele>
        <time>2014-10-01T13:34:28Z</time>
      </trkpt>
      <trkpt lat="42.2919710" lon="-7.2314990">
        <ele>858.0</ele>
        <time>2014-10-01T13:34:29Z</time>
      </trkpt>
      <trkpt lat="42.2919480" lon="-7.2314770">
        <ele>858.2</ele>
        <time>2014-10-01T13:34:30Z</time>
      </trkpt>
      <trkpt lat="42.2919230" lon="-7.2314510">
        <ele>858.4</ele>
        <time>2014-10-01T13:34:31Z</time>
      </trkpt>
      <trkpt lat="42.2919000" lon="-7.2314270">
        <ele>858.7</ele>
        <time>2014-10-01T13:34:32Z</time>
      </trkpt>
      <trkpt lat="42.2918730" lon="-7.2313990">
        <ele>858.9</ele>
        <time>2014-10-01T13:34:33Z</time>
      </trkpt>
      <trkpt lat="42.2918460" lon="-7.2313730">
        <ele>859.2</ele>
        <time>2014-10-01T13:34:34Z</time>
      </trkpt>
      <trkpt lat="42.2918180" lon="-7.2313460">
        <ele>859.4</ele>
        <time>2014-10-01T13:34:35Z</time>
      </trkpt>
      <trkpt lat="42.2917920" lon="-7.2313220">
        <ele>859.6</ele>
        <time>2014-10-01T13:34:36Z</time>
      </trkpt>
      <trkpt lat="42.2917650" lon="-7.2312920">
        <ele>859.8</ele>
        <time>2014-10-01T13:34:37Z</time>
      </trkpt>
      <trkpt lat="42.2917370" lon="-7.2312630">
        <ele>860.0</ele>
        <time>2014-10-01T13:34:38Z</time>
      </trkpt>
      <trkpt lat="42.2917070" lon="-7.2312360">
        <ele>860.2</ele>
        <time>2014-10-01T13:34:39Z</time>
      </trkpt>
      <trkpt lat="42.2916780" lon="-7.2312040">
        <ele>860.3</ele>
        <time>2014-10-01T13:34:40Z</time>
      </trkpt>
      <trkpt lat="42.2916450" lon="-7.2311750">
        <ele>860.5</ele>
        <time>2014-10-01T13:34:41Z</time>
      </trkpt>
      <trkpt lat="42.2916130" lon="-7.2311460">
        <ele>860.7</ele>
        <time>2014-10-01T13:34:42Z</time>
      </trkpt>
      <trkpt lat="42.2915780" lon="-7.2311180">
        <ele>860.9</ele>
        <time>2014-10-01T13:34:43Z</time>
      </trkpt>
      <trkpt lat="42.2915460" lon="-7.2310900">
        <ele>861.1</ele>
        <time>2014-10-01T13:34:44Z</time>
      </trkpt>
      <trkpt lat="42.2915130" lon="-7.2310620">
        <ele>861.3</ele>
        <time>2014-10-01T13:34:45Z</time>
      </trkpt>
      <trkpt lat="42.2914770" lon="-7.2310340">
        <ele>861.5</ele>
        <time>2014-10-01T13:34:46Z</time>
      </trkpt>
      <trkpt lat="42.2914430" lon="-7.2310050">
        <ele>861.7</ele>
        <time>2014-10-01T13:34:47Z</time>
      </trkpt>
      <trkpt lat="42.2914070" lon="-7.2309730">
        <ele>861.9</ele>
        <time>2014-10-01T13:34:48Z</time>
      </trkpt>
      <trkpt lat="42.2913710" lon="-7.2309400">
        <ele>862.1</ele>
        <time>2014-10-01T13:34:49Z</time>
      </trkpt>
      <trkpt lat="42.2913350" lon="-7.2309070">
        <ele>862.3</ele>
        <time>2014-10-01T13:34:50Z</time>
      </trkpt>
      <trkpt lat="42.2913040" lon="-7.2308800">
        <ele>862.5</ele>
        <time>2014-10-01T13:34:51Z</time>
      </trkpt>
      <trkpt lat="42.2912720" lon="-7.2308510">
        <ele>862.7</ele>
        <time>2014-10-01T13:34:52Z</time>
      </trkpt>
      <trkpt lat="42.2912390" lon="-7.2308200">
        <ele>862.9</ele>
        <time>2014-10-01T13:34:53Z</time>
      </trkpt>
      <trkpt lat="42.2912080" lon="-7.2307930">
        <ele>863.1</ele>
        <time>2014-10-01T13:34:54Z</time>
      </trkpt>
      <trkpt lat="42.2911780" lon="-7.2307660">
        <ele>863.3</ele>
        <time>2014-10-01T13:34:55Z</time>
      </trkpt>
      <trkpt lat="42.2911490" lon="-7.2307370">
        <ele>863.5</ele>
        <time>2014-10-01T13:34:56Z</time>
      </trkpt>
      <trkpt lat="42.2911180" lon="-7.2307030">
        <ele>863.7</ele>
        <time>2014-10-01T13:34:57Z</time>
      </trkpt>
      <trkpt lat="42.2910840" lon="-7.2306620">
        <ele>863.9</ele>
        <time>2014-10-01T13:34:58Z</time>
      </trkpt>
      <trkpt lat="42.2910500" lon="-7.2306230">
        <ele>864.1</ele>
        <time>2014-10-01T13:34:59Z</time>
      </trkpt>
      <trkpt lat="42.2910180" lon="-7.2305890">
        <ele>864.3</ele>
        <time>2014-10-01T13:35:00Z</time>
      </trkpt>
      <trkpt lat="42.2909870" lon="-7.2305600">
        <ele>864.4</ele>
        <time>2014-10-01T13:35:01Z</time>
      </trkpt>
      <trkpt lat="42.2909560" lon="-7.2305340">
        <ele>864.6</ele>
        <time>2014-10-01T13:35:02Z</time>
      </trkpt>
      <trkpt lat="42.2909230" lon="-7.2305060">
        <ele>864.8</ele>
        <time>2014-10-01T13:35:03Z</time>
      </trkpt>
      <trkpt lat="42.2908920" lon="-7.2304760">
        <ele>864.9</ele>
        <time>2014-10-01T13:35:04Z</time>
      </trkpt>
      <trkpt lat="42.2908640" lon="-7.2304480">
        <ele>865.1</ele>
        <time>2014-10-01T13:35:05Z</time>
      </trkpt>
      <trkpt lat="42.2908310" lon="-7.2304120">
        <ele>865.3</ele>
        <time>2014-10-01T13:35:06Z</time>
      </trkpt>
      <trkpt lat="42.2907970" lon="-7.2303750">
        <ele>865.6</ele>
        <time>2014-10-01T13:35:07Z</time>
      </trkpt>
      <trkpt lat="42.2907640" lon="-7.2303410">
        <ele>865.8</ele>
        <time>2014-10-01T13:35:08Z</time>
      </trkpt>
      <trkpt lat="42.2907350" lon="-7.2303120">
        <ele>866.0</ele>
        <time>2014-10-01T13:35:09Z</time>
      </trkpt>
      <trkpt lat="42.2907050" lon="-7.2302780">
        <ele>866.2</ele>
        <time>2014-10-01T13:35:10Z</time>
      </trkpt>
      <trkpt lat="42.2906700" lon="-7.2302390">
        <ele>866.5</ele>
        <time>2014-10-01T13:35:11Z</time>
      </trkpt>
      <trkpt lat="42.2906350" lon="-7.2301990">
        <ele>866.8</ele>
        <time>2014-10-01T13:35:12Z</time>
      </trkpt>
      <trkpt lat="42.2906020" lon="-7.2301680">
        <ele>867.1</ele>
        <time>2014-10-01T13:35:13Z</time>
      </trkpt>
      <trkpt lat="42.2905720" lon="-7.2301410">
        <ele>867.4</ele>
        <time>2014-10-01T13:35:14Z</time>
      </trkpt>
      <trkpt lat="42.2905400" lon="-7.2301160">
        <ele>867.6</ele>
        <time>2014-10-01T13:35:15Z</time>
      </trkpt>
      <trkpt lat="42.2905100" lon="-7.2300920">
        <ele>867.9</ele>
        <time>2014-10-01T13:35:16Z</time>
      </trkpt>
      <trkpt lat="42.2904820" lon="-7.2300730">
        <ele>868.2</ele>
        <time>2014-10-01T13:35:17Z</time>
      </trkpt>
      <trkpt lat="42.2904530" lon="-7.2300480">
        <ele>868.5</ele>
        <time>2014-10-01T13:35:18Z</time>
      </trkpt>
      <trkpt lat="42.2904260" lon="-7.2300270">
        <ele>868.7</ele>
        <time>2014-10-01T13:35:19Z</time>
      </trkpt>
      <trkpt lat="42.2903980" lon="-7.2300050">
        <ele>869.0</ele>
        <time>2014-10-01T13:35:20Z</time>
      </trkpt>
      <trkpt lat="42.2903660" lon="-7.2299810">
        <ele>869.3</ele>
        <time>2014-10-01T13:35:21Z</time>
      </trkpt>
      <trkpt lat="42.2903420" lon="-7.2299610">
        <ele>869.6</ele>
        <time>2014-10-01T13:35:22Z</time>
      </trkpt>
      <trkpt lat="42.2903150" lon="-7.2299450">
        <ele>869.9</ele>
        <time>2014-10-01T13:35:23Z</time>
      </trkpt>
      <trkpt lat="42.2902870" lon="-7.2299310">
        <ele>870.1</ele>
        <time>2014-10-01T13:35:24Z</time>
      </trkpt>
      <trkpt lat="42.2902540" lon="-7.2299110">
        <ele>870.4</ele>
        <time>2014-10-01T13:35:25Z</time>
      </trkpt>
      <trkpt lat="42.2902220" lon="-7.2298920">
        <ele>870.8</ele>
        <time>2014-10-01T13:35:26Z</time>
      </trkpt>
      <trkpt lat="42.2901930" lon="-7.2298770">
        <ele>871.0</ele>
        <time>2014-10-01T13:35:27Z</time>
      </trkpt>
      <trkpt lat="42.2901600" lon="-7.2298600">
        <ele>871.3</ele>
        <time>2014-10-01T13:35:28Z</time>
      </trkpt>
      <trkpt lat="42.2901290" lon="-7.2298440">
        <ele>871.6</ele>
        <time>2014-10-01T13:35:29Z</time>
      </trkpt>
      <trkpt lat="42.2900980" lon="-7.2298250">
        <ele>871.8</ele>
        <time>2014-10-01T13:35:30Z</time>
      </trkpt>
      <trkpt lat="42.2900680" lon="-7.2298060">
        <ele>872.0</ele>
        <time>2014-10-01T13:35:31Z</time>
      </trkpt>
      <trkpt lat="42.2900370" lon="-7.2297900">
        <ele>872.2</ele>
        <time>2014-10-01T13:35:32Z</time>
      </trkpt>
      <trkpt lat="42.2900050" lon="-7.2297730">
        <ele>872.4</ele>
        <time>2014-10-01T13:35:33Z</time>
      </trkpt>
      <trkpt lat="42.2899710" lon="-7.2297540">
        <ele>872.6</ele>
        <time>2014-10-01T13:35:34Z</time>
      </trkpt>
      <trkpt lat="42.2899350" lon="-7.2297340">
        <ele>872.8</ele>
        <time>2014-10-01T13:35:35Z</time>
      </trkpt>
      <trkpt lat="42.2898990" lon="-7.2297110">
        <ele>873.0</ele>
        <time>2014-10-01T13:35:36Z</time>
      </trkpt>
      <trkpt lat="42.2898660" lon="-7.2296870">
        <ele>873.2</ele>
        <time>2014-10-01T13:35:37Z</time>
      </trkpt>
      <trkpt lat="42.2898310" lon="-7.2296550">
        <ele>873.4</ele>
        <time>2014-10-01T13:35:38Z</time>
      </trkpt>
      <trkpt lat="42.2897970" lon="-7.2296230">
        <ele>873.6</ele>
        <time>2014-10-01T13:35:39Z</time>
      </trkpt>
      <trkpt lat="42.2897670" lon="-7.2295980">
        <ele>873.8</ele>
        <time>2014-10-01T13:35:40Z</time>
      </trkpt>
      <trkpt lat="42.2897320" lon="-7.2295710">
        <ele>873.9</ele>
        <time>2014-10-01T13:35:41Z</time>
      </trkpt>
      <trkpt lat="42.2896970" lon="-7.2295380">
        <ele>874.1</ele>
        <time>2014-10-01T13:35:42Z</time>
      </trkpt>
      <trkpt lat="42.2896570" lon="-7.2295000">
        <ele>874.3</ele>
        <time>2014-10-01T13:35:43Z</time>
      </trkpt>
      <trkpt lat="42.2896220" lon="-7.2294670">
        <ele>874.5</ele>
        <time>2014-10-01T13:35:44Z</time>
      </trkpt>
      <trkpt lat="42.2895880" lon="-7.2294310">
        <ele>874.6</ele>
        <time>2014-10-01T13:35:45Z</time>
      </trkpt>
      <trkpt lat="42.2895550" lon="-7.2293960">
        <ele>874.8</ele>
        <time>2014-10-01T13:35:46Z</time>
      </trkpt>
      <trkpt lat="42.2895160" lon="-7.2293560">
        <ele>875.0</ele>
        <time>2014-10-01T13:35:47Z</time>
      </trkpt>
      <trkpt lat="42.2894720" lon="-7.2293150">
        <ele>875.1</ele>
        <time>2014-10-01T13:35:48Z</time>
      </trkpt>
      <trkpt lat="42.2894280" lon="-7.2292810">
        <ele>875.3</ele>
        <time>2014-10-01T13:35:49Z</time>
      </trkpt>
      <trkpt lat="42.2893830" lon="-7.2292420">
        <ele>875.4</ele>
        <time>2014-10-01T13:35:50Z</time>
      </trkpt>
      <trkpt lat="42.2893450" lon="-7.2292110">
        <ele>875.6</ele>
        <time>2014-10-01T13:35:51Z</time>
      </trkpt>
      <trkpt lat="42.2893030" lon="-7.2291770">
        <ele>875.7</ele>
        <time>2014-10-01T13:35:52Z</time>
      </trkpt>
      <trkpt lat="42.2892640" lon="-7.2291470">
        <ele>875.9</ele>
        <time>2014-10-01T13:35:53Z</time>
      </trkpt>
      <trkpt lat="42.2892220" lon="-7.2291070">
        <ele>876.0</ele>
        <time>2014-10-01T13:35:54Z</time>
      </trkpt>
      <trkpt lat="42.2891790" lon="-7.2290680">
        <ele>876.1</ele>
        <time>2014-10-01T13:35:55Z</time>
      </trkpt>
      <trkpt lat="42.2891390" lon="-7.2290370">
        <ele>876.3</ele>
        <time>2014-10-01T13:35:56Z</time>
      </trkpt>
      <trkpt lat="42.2890980" lon="-7.2290050">
        <ele>876.4</ele>
        <time>2014-10-01T13:35:57Z</time>
      </trkpt>
      <trkpt lat="42.2890560" lon="-7.2289730">
        <ele>876.5</ele>
        <time>2014-10-01T13:35:58Z</time>
      </trkpt>
      <trkpt lat="42.2890180" lon="-7.2289500">
        <ele>876.6</ele>
        <time>2014-10-01T13:35:59Z</time>
      </trkpt>
      <trkpt lat="42.2889720" lon="-7.2289240">
        <ele>876.8</ele>
        <time>2014-10-01T13:36:00Z</time>
      </trkpt>
      <trkpt lat="42.2889260" lon="-7.2288990">
        <ele>876.9</ele>
        <time>2014-10-01T13:36:01Z</time>
      </trkpt>
      <trkpt lat="42.2888840" lon="-7.2288850">
        <ele>877.0</ele>
        <time>2014-10-01T13:36:02Z</time>
      </trkpt>
      <trkpt lat="42.2888460" lon="-7.2288730">
        <ele>877.2</ele>
        <time>2014-10-01T13:36:03Z</time>
      </trkpt>
      <trkpt lat="42.2888010" lon="-7.2288600">
        <ele>877.4</ele>
        <time>2014-10-01T13:36:04Z</time>
      </trkpt>
      <trkpt lat="42.2887560" lon="-7.2288510">
        <ele>877.7</ele>
        <time>2014-10-01T13:36:05Z</time>
      </trkpt>
      <trkpt lat="42.2887110" lon="-7.2288460">
        <ele>877.9</ele>
        <time>2014-10-01T13:36:06Z</time>
      </trkpt>
      <trkpt lat="42.2886640" lon="-7.2288460">
        <ele>878.2</ele>
        <time>2014-10-01T13:36:07Z</time>
      </trkpt>
      <trkpt lat="42.2886200" lon="-7.2288470">
        <ele>878.5</ele>
        <time>2014-10-01T13:36:08Z</time>
      </trkpt>
      <trkpt lat="42.2885760" lon="-7.2288490">
        <ele>878.8</ele>
        <time>2014-10-01T13:36:09Z</time>
      </trkpt>
      <trkpt lat="42.2885340" lon="-7.2288490">
        <ele>879.2</ele>
        <time>2014-10-01T13:36:10Z</time>
      </trkpt>
      <trkpt lat="42.2884950" lon="-7.2288520">
        <ele>879.5</ele>
        <time>2014-10-01T13:36:11Z</time>
      </trkpt>
      <trkpt lat="42.2884610" lon="-7.2288570">
        <ele>879.8</ele>
        <time>2014-10-01T13:36:12Z</time>
      </trkpt>
      <trkpt lat="42.2884270" lon="-7.2288630">
        <ele>880.1</ele>
        <time>2014-10-01T13:36:13Z</time>
      </trkpt>
      <trkpt lat="42.2883870" lon="-7.2288680">
        <ele>880.5</ele>
        <time>2014-10-01T13:36:14Z</time>
      </trkpt>
      <trkpt lat="42.2883490" lon="-7.2288730">
        <ele>880.8</ele>
        <time>2014-10-01T13:36:15Z</time>
      </trkpt>
      <trkpt lat="42.2883130" lon="-7.2288820">
        <ele>881.1</ele>
        <time>2014-10-01T13:36:16Z</time>
      </trkpt>
      <trkpt lat="42.2882770" lon="-7.2288910">
        <ele>881.5</ele>
        <time>2014-10-01T13:36:17Z</time>
      </trkpt>
      <trkpt lat="42.2882450" lon="-7.2289000">
        <ele>881.8</ele>
        <time>2014-10-01T13:36:18Z</time>
      </trkpt>
      <trkpt lat="42.2882110" lon="-7.2289120">
        <ele>882.1</ele>
        <time>2014-10-01T13:36:19Z</time>
      </trkpt>
      <trkpt lat="42.2881770" lon="-7.2289250">
        <ele>882.4</ele>
        <time>2014-10-01T13:36:20Z</time>
      </trkpt>
      <trkpt lat="42.2881470" lon="-7.2289370">
        <ele>882.7</ele>
        <time>2014-10-01T13:36:21Z</time>
      </trkpt>
      <trkpt lat="42.2881200" lon="-7.2289490">
        <ele>883.0</ele>
        <time>2014-10-01T13:36:22Z</time>
      </trkpt>
      <trkpt lat="42.2880920" lon="-7.2289640">
        <ele>883.3</ele>
        <time>2014-10-01T13:36:23Z</time>
      </trkpt>
      <trkpt lat="42.2880660" lon="-7.2289780">
        <ele>883.6</ele>
        <time>2014-10-01T13:36:24Z</time>
      </trkpt>
      <trkpt lat="42.2880350" lon="-7.2289960">
        <ele>883.9</ele>
        <time>2014-10-01T13:36:25Z</time>
      </trkpt>
      <trkpt lat="42.2880000" lon="-7.2290170">
        <ele>884.2</ele>
        <time>2014-10-01T13:36:26Z</time>
      </trkpt>
      <trkpt lat="42.2879700" lon="-7.2290350">
        <ele>884.6</ele>
        <time>2014-10-01T13:36:27Z</time>
      </trkpt>
      <trkpt lat="42.2879430" lon="-7.2290510">
        <ele>884.8</ele>
        <time>2014-10-01T13:36:28Z</time>
      </trkpt>
      <trkpt lat="42.2879160" lon="-7.2290670">
        <ele>885.1</ele>
        <time>2014-10-01T13:36:29Z</time>
      </trkpt>
      <trkpt lat="42.2878680" lon="-7.2290950">
        <ele>885.7</ele>
        <time>2014-10-01T13:36:31Z</time>
      </trkpt>
      <trkpt lat="42.2878420" lon="-7.2291120">
        <ele>886.0</ele>
        <time>2014-10-01T13:36:32Z</time>
      </trkpt>
      <trkpt lat="42.2877940" lon="-7.2291440">
        <ele>886.5</ele>
        <time>2014-10-01T13:36:34Z</time>
      </trkpt>
      <trkpt lat="42.2877660" lon="-7.2291670">
        <ele>886.9</ele>
        <time>2014-10-01T13:36:35Z</time>
      </trkpt>
      <trkpt lat="42.2877430" lon="-7.2291870">
        <ele>887.2</ele>
        <time>2014-10-01T13:36:36Z</time>
      </trkpt>
      <trkpt lat="42.2876940" lon="-7.2292220">
        <ele>887.8</ele>
        <time>2014-10-01T13:36:38Z</time>
      </trkpt>
      <trkpt lat="42.2876690" lon="-7.2292390">
        <ele>888.1</ele>
        <time>2014-10-01T13:36:39Z</time>
      </trkpt>
      <trkpt lat="42.2876430" lon="-7.2292550">
        <ele>888.4</ele>
        <time>2014-10-01T13:36:40Z</time>
      </trkpt>
      <trkpt lat="42.2876200" lon="-7.2292730">
        <ele>888.7</ele>
        <time>2014-10-01T13:36:41Z</time>
      </trkpt>
      <trkpt lat="42.2875700" lon="-7.2292960">
        <ele>889.3</ele>
        <time>2014-10-01T13:36:43Z</time>
      </trkpt>
      <trkpt lat="42.2875220" lon="-7.2293230">
        <ele>889.9</ele>
        <time>2014-10-01T13:36:45Z</time>
      </trkpt>
      <trkpt lat="42.2874760" lon="-7.2293510">
        <ele>890.5</ele>
        <time>2014-10-01T13:36:47Z</time>
      </trkpt>
      <trkpt lat="42.2874420" lon="-7.2293770">
        <ele>891.0</ele>
        <time>2014-10-01T13:36:49Z</time>
      </trkpt>
      <trkpt lat="42.2874000" lon="-7.2294100">
        <ele>891.6</ele>
        <time>2014-10-01T13:36:51Z</time>
      </trkpt>
      <trkpt lat="42.2873570" lon="-7.2294440">
        <ele>892.3</ele>
        <time>2014-10-01T13:36:53Z</time>
      </trkpt>
      <trkpt lat="42.2873130" lon="-7.2294770">
        <ele>892.9</ele>
        <time>2014-10-01T13:36:55Z</time>
      </trkpt>
      <trkpt lat="42.2872700" lon="-7.2295040">
        <ele>893.6</ele>
        <time>2014-10-01T13:36:57Z</time>
      </trkpt>
      <trkpt lat="42.2872220" lon="-7.2295330">
        <ele>894.2</ele>
        <time>2014-10-01T13:36:59Z</time>
      </trkpt>
      <trkpt lat="42.2871730" lon="-7.2295650">
        <ele>894.9</ele>
        <time>2014-10-01T13:37:01Z</time>
      </trkpt>
      <trkpt lat="42.2871470" lon="-7.2295820">
        <ele>895.2</ele>
        <time>2014-10-01T13:37:02Z</time>
      </trkpt>
      <trkpt lat="42.2871190" lon="-7.2295970">
        <ele>895.6</ele>
        <time>2014-10-01T13:37:03Z</time>
      </trkpt>
      <trkpt lat="42.2870940" lon="-7.2296100">
        <ele>895.9</ele>
        <time>2014-10-01T13:37:04Z</time>
      </trkpt>
      <trkpt lat="42.2870490" lon="-7.2296380">
        <ele>896.5</ele>
        <time>2014-10-01T13:37:06Z</time>
      </trkpt>
      <trkpt lat="42.2870230" lon="-7.2296540">
        <ele>896.8</ele>
        <time>2014-10-01T13:37:07Z</time>
      </trkpt>
      <trkpt lat="42.2869800" lon="-7.2296830">
        <ele>897.3</ele>
        <time>2014-10-01T13:37:09Z</time>
      </trkpt>
      <trkpt lat="42.2869370" lon="-7.2297160">
        <ele>897.8</ele>
        <time>2014-10-01T13:37:11Z</time>
      </trkpt>
      <trkpt lat="42.2869090" lon="-7.2297300">
        <ele>898.1</ele>
        <time>2014-10-01T13:37:12Z</time>
      </trkpt>
      <trkpt lat="42.2868590" lon="-7.2297550">
        <ele>898.6</ele>
        <time>2014-10-01T13:37:14Z</time>
      </trkpt>
      <trkpt lat="42.2868270" lon="-7.2297690">
        <ele>899.0</ele>
        <time>2014-10-01T13:37:15Z</time>
      </trkpt>
      <trkpt lat="42.2867960" lon="-7.2297810">
        <ele>899.3</ele>
        <time>2014-10-01T13:37:16Z</time>
      </trkpt>
      <trkpt lat="42.2867640" lon="-7.2297960">
        <ele>899.6</ele>
        <time>2014-10-01T13:37:17Z</time>
      </trkpt>
      <trkpt lat="42.2867300" lon="-7.2298110">
        <ele>899.9</ele>
        <time>2014-10-01T13:37:18Z</time>
      </trkpt>
      <trkpt lat="42.2866970" lon="-7.2298200">
        <ele>900.2</ele>
        <time>2014-10-01T13:37:19Z</time>
      </trkpt>
      <trkpt lat="42.2866650" lon="-7.2298290">
        <ele>900.5</ele>
        <time>2014-10-01T13:37:20Z</time>
      </trkpt>
      <trkpt lat="42.2866330" lon="-7.2298340">
        <ele>900.8</ele>
        <time>2014-10-01T13:37:21Z</time>
      </trkpt>
      <trkpt lat="42.2866040" lon="-7.2298360">
        <ele>901.0</ele>
        <time>2014-10-01T13:37:22Z</time>
      </trkpt>
      <trkpt lat="42.2865750" lon="-7.2298360">
        <ele>901.3</ele>
        <time>2014-10-01T13:37:23Z</time>
      </trkpt>
      <trkpt lat="42.2865470" lon="-7.2298330">
        <ele>901.5</ele>
        <time>2014-10-01T13:37:24Z</time>
      </trkpt>
      <trkpt lat="42.2865190" lon="-7.2298300">
        <ele>901.8</ele>
        <time>2014-10-01T13:37:25Z</time>
      </trkpt>
      <trkpt lat="42.2864910" lon="-7.2298250">
        <ele>902.0</ele>
        <time>2014-10-01T13:37:26Z</time>
      </trkpt>
      <trkpt lat="42.2864620" lon="-7.2298200">
        <ele>902.2</ele>
        <time>2014-10-01T13:37:27Z</time>
      </trkpt>
      <trkpt lat="42.2864350" lon="-7.2298140">
        <ele>902.5</ele>
        <time>2014-10-01T13:37:28Z</time>
      </trkpt>
      <trkpt lat="42.2864080" lon="-7.2298080">
        <ele>902.7</ele>
        <time>2014-10-01T13:37:29Z</time>
      </trkpt>
      <trkpt lat="42.2863800" lon="-7.2298020">
        <ele>902.9</ele>
        <time>2014-10-01T13:37:30Z</time>
      </trkpt>
      <trkpt lat="42.2863510" lon="-7.2297970">
        <ele>903.2</ele>
        <time>2014-10-01T13:37:31Z</time>
      </trkpt>
      <trkpt lat="42.2863230" lon="-7.2297900">
        <ele>903.4</ele>
        <time>2014-10-01T13:37:32Z</time>
      </trkpt>
      <trkpt lat="42.2862970" lon="-7.2297810">
        <ele>903.6</ele>
        <time>2014-10-01T13:37:33Z</time>
      </trkpt>
      <trkpt lat="42.2862670" lon="-7.2297730">
        <ele>903.8</ele>
        <time>2014-10-01T13:37:34Z</time>
      </trkpt>
      <trkpt lat="42.2862370" lon="-7.2297620">
        <ele>904.1</ele>
        <time>2014-10-01T13:37:35Z</time>
      </trkpt>
      <trkpt lat="42.2862050" lon="-7.2297520">
        <ele>904.3</ele>
        <time>2014-10-01T13:37:36Z</time>
      </trkpt>
      <trkpt lat="42.2861770" lon="-7.2297410">
        <ele>904.5</ele>
        <time>2014-10-01T13:37:37Z</time>
      </trkpt>
      <trkpt lat="42.2861500" lon="-7.2297310">
        <ele>904.7</ele>
        <time>2014-10-01T13:37:38Z</time>
      </trkpt>
      <trkpt lat="42.2861230" lon="-7.2297210">
        <ele>905.0</ele>
        <time>2014-10-01T13:37:39Z</time>
      </trkpt>
      <trkpt lat="42.2860940" lon="-7.2297110">
        <ele>905.2</ele>
        <time>2014-10-01T13:37:40Z</time>
      </trkpt>
      <trkpt lat="42.2860620" lon="-7.2296980">
        <ele>905.4</ele>
        <time>2014-10-01T13:37:41Z</time>
      </trkpt>
      <trkpt lat="42.2860300" lon="-7.2296890">
        <ele>905.7</ele>
        <time>2014-10-01T13:37:42Z</time>
      </trkpt>
      <trkpt lat="42.2860000" lon="-7.2296810">
        <ele>905.9</ele>
        <time>2014-10-01T13:37:43Z</time>
      </trkpt>
      <trkpt lat="42.2859690" lon="-7.2296680">
        <ele>906.1</ele>
        <time>2014-10-01T13:37:44Z</time>
      </trkpt>
      <trkpt lat="42.2859380" lon="-7.2296530">
        <ele>906.3</ele>
        <time>2014-10-01T13:37:45Z</time>
      </trkpt>
      <trkpt lat="42.2859050" lon="-7.2296310">
        <ele>906.6</ele>
        <time>2014-10-01T13:37:46Z</time>
      </trkpt>
      <trkpt lat="42.2858750" lon="-7.2296100">
        <ele>906.9</ele>
        <time>2014-10-01T13:37:47Z</time>
      </trkpt>
      <trkpt lat="42.2858470" lon="-7.2295860">
        <ele>907.2</ele>
        <time>2014-10-01T13:37:48Z</time>
      </trkpt>
      <trkpt lat="42.2858210" lon="-7.2295610">
        <ele>907.4</ele>
        <time>2014-10-01T13:37:49Z</time>
      </trkpt>
      <trkpt lat="42.2857960" lon="-7.2295350">
        <ele>907.7</ele>
        <time>2014-10-01T13:37:50Z</time>
      </trkpt>
      <trkpt lat="42.2857730" lon="-7.2295120">
        <ele>907.9</ele>
        <time>2014-10-01T13:37:51Z</time>
      </trkpt>
      <trkpt lat="42.2857260" lon="-7.2294690">
        <ele>908.4</ele>
        <time>2014-10-01T13:37:53Z</time>
      </trkpt>
      <trkpt lat="42.2857000" lon="-7.2294500">
        <ele>908.6</ele>
        <time>2014-10-01T13:37:54Z</time>
      </trkpt>
      <trkpt lat="42.2856720" lon="-7.2294330">
        <ele>908.8</ele>
        <time>2014-10-01T13:37:55Z</time>
      </trkpt>
      <trkpt lat="42.2856420" lon="-7.2294150">
        <ele>909.1</ele>
        <time>2014-10-01T13:37:56Z</time>
      </trkpt>
      <trkpt lat="42.2856140" lon="-7.2293970">
        <ele>909.3</ele>
        <time>2014-10-01T13:37:57Z</time>
      </trkpt>
      <trkpt lat="42.2855820" lon="-7.2293830">
        <ele>909.5</ele>
        <time>2014-10-01T13:37:58Z</time>
      </trkpt>
      <trkpt lat="42.2855500" lon="-7.2293710">
        <ele>909.8</ele>
        <time>2014-10-01T13:37:59Z</time>
      </trkpt>
      <trkpt lat="42.2855160" lon="-7.2293600">
        <ele>910.0</ele>
        <time>2014-10-01T13:38:00Z</time>
      </trkpt>
      <trkpt lat="42.2854810" lon="-7.2293480">
        <ele>910.2</ele>
        <time>2014-10-01T13:38:01Z</time>
      </trkpt>
      <trkpt lat="42.2854450" lon="-7.2293350">
        <ele>910.4</ele>
        <time>2014-10-01T13:38:02Z</time>
      </trkpt>
      <trkpt lat="42.2854100" lon="-7.2293230">
        <ele>910.6</ele>
        <time>2014-10-01T13:38:03Z</time>
      </trkpt>
      <trkpt lat="42.2853760" lon="-7.2293120">
        <ele>910.8</ele>
        <time>2014-10-01T13:38:04Z</time>
      </trkpt>
      <trkpt lat="42.2853410" lon="-7.2293010">
        <ele>911.0</ele>
        <time>2014-10-01T13:38:05Z</time>
      </trkpt>
      <trkpt lat="42.2853020" lon="-7.2292900">
        <ele>911.2</ele>
        <time>2014-10-01T13:38:06Z</time>
      </trkpt>
      <trkpt lat="42.2852620" lon="-7.2292810">
        <ele>911.4</ele>
        <time>2014-10-01T13:38:07Z</time>
      </trkpt>
      <trkpt lat="42.2852210" lon="-7.2292760">
        <ele>911.6</ele>
        <time>2014-10-01T13:38:08Z</time>
      </trkpt>
      <trkpt lat="42.2851830" lon="-7.2292730">
        <ele>911.8</ele>
        <time>2014-10-01T13:38:09Z</time>
      </trkpt>
      <trkpt lat="42.2851430" lon="-7.2292720">
        <ele>912.0</ele>
        <time>2014-10-01T13:38:10Z</time>
      </trkpt>
      <trkpt lat="42.2851030" lon="-7.2292720">
        <ele>912.1</ele>
        <time>2014-10-01T13:38:11Z</time>
      </trkpt>
      <trkpt lat="42.2850650" lon="-7.2292700">
        <ele>912.3</ele>
        <time>2014-10-01T13:38:12Z</time>
      </trkpt>
      <trkpt lat="42.2850250" lon="-7.2292700">
        <ele>912.5</ele>
        <time>2014-10-01T13:38:13Z</time>
      </trkpt>
      <trkpt lat="42.2849870" lon="-7.2292710">
        <ele>912.6</ele>
        <time>2014-10-01T13:38:14Z</time>
      </trkpt>
      <trkpt lat="42.2849480" lon="-7.2292710">
        <ele>912.8</ele>
        <time>2014-10-01T13:38:15Z</time>
      </trkpt>
      <trkpt lat="42.2849110" lon="-7.2292710">
        <ele>913.0</ele>
        <time>2014-10-01T13:38:16Z</time>
      </trkpt>
      <trkpt lat="42.2848730" lon="-7.2292730">
        <ele>913.2</ele>
        <time>2014-10-01T13:38:17Z</time>
      </trkpt>
      <trkpt lat="42.2848370" lon="-7.2292750">
        <ele>913.3</ele>
        <time>2014-10-01T13:38:18Z</time>
      </trkpt>
      <trkpt lat="42.2848000" lon="-7.2292770">
        <ele>913.5</ele>
        <time>2014-10-01T13:38:19Z</time>
      </trkpt>
      <trkpt lat="42.2847610" lon="-7.2292770">
        <ele>913.7</ele>
        <time>2014-10-01T13:38:20Z</time>
      </trkpt>
      <trkpt lat="42.2847220" lon="-7.2292770">
        <ele>913.9</ele>
        <time>2014-10-01T13:38:21Z</time>
      </trkpt>
      <trkpt lat="42.2846850" lon="-7.2292770">
        <ele>914.1</ele>
        <time>2014-10-01T13:38:22Z</time>
      </trkpt>
      <trkpt lat="42.2846450" lon="-7.2292790">
        <ele>914.3</ele>
        <time>2014-10-01T13:38:23Z</time>
      </trkpt>
      <trkpt lat="42.2846040" lon="-7.2292820">
        <ele>914.5</ele>
        <time>2014-10-01T13:38:24Z</time>
      </trkpt>
      <trkpt lat="42.2845640" lon="-7.2292850">
        <ele>914.7</ele>
        <time>2014-10-01T13:38:25Z</time>
      </trkpt>
      <trkpt lat="42.2845260" lon="-7.2292880">
        <ele>914.9</ele>
        <time>2014-10-01T13:38:26Z</time>
      </trkpt>
      <trkpt lat="42.2844900" lon="-7.2292920">
        <ele>915.1</ele>
        <time>2014-10-01T13:38:27Z</time>
      </trkpt>
      <trkpt lat="42.2844560" lon="-7.2292970">
        <ele>915.3</ele>
        <time>2014-10-01T13:38:28Z</time>
      </trkpt>
      <trkpt lat="42.2844180" lon="-7.2293020">
        <ele>915.5</ele>
        <time>2014-10-01T13:38:29Z</time>
      </trkpt>
      <trkpt lat="42.2843800" lon="-7.2293070">
        <ele>915.8</ele>
        <time>2014-10-01T13:38:30Z</time>
      </trkpt>
      <trkpt lat="42.2843420" lon="-7.2293130">
        <ele>916.0</ele>
        <time>2014-10-01T13:38:31Z</time>
      </trkpt>
      <trkpt lat="42.2843030" lon="-7.2293210">
        <ele>916.3</ele>
        <time>2014-10-01T13:38:32Z</time>
      </trkpt>
      <trkpt lat="42.2842660" lon="-7.2293270">
        <ele>916.5</ele>
        <time>2014-10-01T13:38:33Z</time>
      </trkpt>
      <trkpt lat="42.2842290" lon="-7.2293260">
        <ele>916.8</ele>
        <time>2014-10-01T13:38:34Z</time>
      </trkpt>
      <trkpt lat="42.2841930" lon="-7.2293290">
        <ele>917.0</ele>
        <time>2014-10-01T13:38:35Z</time>
      </trkpt>
      <trkpt lat="42.2841580" lon="-7.2293310">
        <ele>917.2</ele>
        <time>2014-10-01T13:38:36Z</time>
      </trkpt>
      <trkpt lat="42.2841210" lon="-7.2293330">
        <ele>917.4</ele>
        <time>2014-10-01T13:38:37Z</time>
      </trkpt>
      <trkpt lat="42.2840850" lon="-7.2293340">
        <ele>917.7</ele>
        <time>2014-10-01T13:38:38Z</time>
      </trkpt>
      <trkpt lat="42.2840450" lon="-7.2293380">
        <ele>917.9</ele>
        <time>2014-10-01T13:38:39Z</time>
      </trkpt>
      <trkpt lat="42.2840060" lon="-7.2293440">
        <ele>918.2</ele>
        <time>2014-10-01T13:38:40Z</time>
      </trkpt>
      <trkpt lat="42.2839700" lon="-7.2293530">
        <ele>918.4</ele>
        <time>2014-10-01T13:38:41Z</time>
      </trkpt>
      <trkpt lat="42.2839340" lon="-7.2293580">
        <ele>918.7</ele>
        <time>2014-10-01T13:38:42Z</time>
      </trkpt>
      <trkpt lat="42.2838960" lon="-7.2293630">
        <ele>918.9</ele>
        <time>2014-10-01T13:38:43Z</time>
      </trkpt>
      <trkpt lat="42.2838590" lon="-7.2293670">
        <ele>919.2</ele>
        <time>2014-10-01T13:38:44Z</time>
      </trkpt>
      <trkpt lat="42.2838250" lon="-7.2293760">
        <ele>919.4</ele>
        <time>2014-10-01T13:38:45Z</time>
      </trkpt>
      <trkpt lat="42.2837870" lon="-7.2293850">
        <ele>919.7</ele>
        <time>2014-10-01T13:38:46Z</time>
      </trkpt>
      <trkpt lat="42.2837500" lon="-7.2293910">
        <ele>919.9</ele>
        <time>2014-10-01T13:38:47Z</time>
      </trkpt>
      <trkpt lat="42.2837080" lon="-7.2294010">
        <ele>920.2</ele>
        <time>2014-10-01T13:38:48Z</time>
      </trkpt>
      <trkpt lat="42.2836670" lon="-7.2294130">
        <ele>920.5</ele>
        <time>2014-10-01T13:38:49Z</time>
      </trkpt>
      <trkpt lat="42.2836280" lon="-7.2294240">
        <ele>920.8</ele>
        <time>2014-10-01T13:38:50Z</time>
      </trkpt>
      <trkpt lat="42.2835910" lon="-7.2294330">
        <ele>921.1</ele>
        <time>2014-10-01T13:38:51Z</time>
      </trkpt>
      <trkpt lat="42.2835550" lon="-7.2294440">
        <ele>921.3</ele>
        <time>2014-10-01T13:38:52Z</time>
      </trkpt>
      <trkpt lat="42.2835170" lon="-7.2294500">
        <ele>921.5</ele>
        <time>2014-10-01T13:38:53Z</time>
      </trkpt>
      <trkpt lat="42.2834800" lon="-7.2294570">
        <ele>921.8</ele>
        <time>2014-10-01T13:38:54Z</time>
      </trkpt>
      <trkpt lat="42.2834430" lon="-7.2294660">
        <ele>922.0</ele>
        <time>2014-10-01T13:38:55Z</time>
      </trkpt>
      <trkpt lat="42.2834070" lon="-7.2294760">
        <ele>922.2</ele>
        <time>2014-10-01T13:38:56Z</time>
      </trkpt>
      <trkpt lat="42.2833730" lon="-7.2294840">
        <ele>922.5</ele>
        <time>2014-10-01T13:38:57Z</time>
      </trkpt>
      <trkpt lat="42.2833370" lon="-7.2294920">
        <ele>922.7</ele>
        <time>2014-10-01T13:38:58Z</time>
      </trkpt>
      <trkpt lat="42.2833030" lon="-7.2294990">
        <ele>922.9</ele>
        <time>2014-10-01T13:38:59Z</time>
      </trkpt>
      <trkpt lat="42.2832660" lon="-7.2295070">
        <ele>923.1</ele>
        <time>2014-10-01T13:39:00Z</time>
      </trkpt>
      <trkpt lat="42.2832320" lon="-7.2295170">
        <ele>923.4</ele>
        <time>2014-10-01T13:39:01Z</time>
      </trkpt>
      <trkpt lat="42.2831970" lon="-7.2295270">
        <ele>923.6</ele>
        <time>2014-10-01T13:39:02Z</time>
      </trkpt>
      <trkpt lat="42.2831650" lon="-7.2295390">
        <ele>923.8</ele>
        <time>2014-10-01T13:39:03Z</time>
      </trkpt>
      <trkpt lat="42.2831290" lon="-7.2295470">
        <ele>924.0</ele>
        <time>2014-10-01T13:39:04Z</time>
      </trkpt>
      <trkpt lat="42.2830940" lon="-7.2295560">
        <ele>924.3</ele>
        <time>2014-10-01T13:39:05Z</time>
      </trkpt>
      <trkpt lat="42.2830570" lon="-7.2295690">
        <ele>924.5</ele>
        <time>2014-10-01T13:39:06Z</time>
      </trkpt>
      <trkpt lat="42.2830270" lon="-7.2295800">
        <ele>924.7</ele>
        <time>2014-10-01T13:39:07Z</time>
      </trkpt>
      <trkpt lat="42.2829950" lon="-7.2295890">
        <ele>924.9</ele>
        <time>2014-10-01T13:39:08Z</time>
      </trkpt>
      <trkpt lat="42.2829600" lon="-7.2296000">
        <ele>925.0</ele>
        <time>2014-10-01T13:39:09Z</time>
      </trkpt>
      <trkpt lat="42.2829190" lon="-7.2296150">
        <ele>925.3</ele>
        <time>2014-10-01T13:39:10Z</time>
      </trkpt>
      <trkpt lat="42.2828670" lon="-7.2296320">
        <ele>925.7</ele>
        <time>2014-10-01T13:39:11Z</time>
      </trkpt>
      <trkpt lat="42.2828150" lon="-7.2296460">
        <ele>926.1</ele>
        <time>2014-10-01T13:39:12Z</time>
      </trkpt>
      <trkpt lat="42.2827670" lon="-7.2296590">
        <ele>926.4</ele>
        <time>2014-10-01T13:39:13Z</time>
      </trkpt>
      <trkpt lat="42.2827240" lon="-7.2296680">
        <ele>926.6</ele>
        <time>2014-10-01T13:39:14Z</time>
      </trkpt>
      <trkpt lat="42.2826860" lon="-7.2296790">
        <ele>926.8</ele>
        <time>2014-10-01T13:39:15Z</time>
      </trkpt>
      <trkpt lat="42.2826530" lon="-7.2296880">
        <ele>927.0</ele>
        <time>2014-10-01T13:39:16Z</time>
      </trkpt>
      <trkpt lat="42.2826200" lon="-7.2296980">
        <ele>927.1</ele>
        <time>2014-10-01T13:39:17Z</time>
      </trkpt>
      <trkpt lat="42.2825840" lon="-7.2297100">
        <ele>927.3</ele>
        <time>2014-10-01T13:39:18Z</time>
      </trkpt>
      <trkpt lat="42.2825500" lon="-7.2297190">
        <ele>927.5</ele>
        <time>2014-10-01T13:39:19Z</time>
      </trkpt>
      <trkpt lat="42.2825130" lon="-7.2297290">
        <ele>927.7</ele>
        <time>2014-10-01T13:39:20Z</time>
      </trkpt>
      <trkpt lat="42.2824780" lon="-7.2297400">
        <ele>927.9</ele>
        <time>2014-10-01T13:39:21Z</time>
      </trkpt>
      <trkpt lat="42.2824420" lon="-7.2297520">
        <ele>928.0</ele>
        <time>2014-10-01T13:39:22Z</time>
      </trkpt>
      <trkpt lat="42.2824050" lon="-7.2297680">
        <ele>928.2</ele>
        <time>2014-10-01T13:39:23Z</time>
      </trkpt>
      <trkpt lat="42.2823660" lon="-7.2297830">
        <ele>928.4</ele>
        <time>2014-10-01T13:39:24Z</time>
      </trkpt>
      <trkpt lat="42.2823290" lon="-7.2297980">
        <ele>928.6</ele>
        <time>2014-10-01T13:39:25Z</time>
      </trkpt>
      <trkpt lat="42.2822910" lon="-7.2298130">
        <ele>928.8</ele>
        <time>2014-10-01T13:39:26Z</time>
      </trkpt>
      <trkpt lat="42.2822570" lon="-7.2298270">
        <ele>929.0</ele>
        <time>2014-10-01T13:39:27Z</time>
      </trkpt>
      <trkpt lat="42.2822260" lon="-7.2298400">
        <ele>929.1</ele>
        <time>2014-10-01T13:39:28Z</time>
      </trkpt>
      <trkpt lat="42.2821930" lon="-7.2298570">
        <ele>929.3</ele>
        <time>2014-10-01T13:39:29Z</time>
      </trkpt>
      <trkpt lat="42.2821600" lon="-7.2298780">
        <ele>929.4</ele>
        <time>2014-10-01T13:39:30Z</time>
      </trkpt>
      <trkpt lat="42.2821290" lon="-7.2298980">
        <ele>929.6</ele>
        <time>2014-10-01T13:39:31Z</time>
      </trkpt>
      <trkpt lat="42.2820980" lon="-7.2299200">
        <ele>929.7</ele>
        <time>2014-10-01T13:39:32Z</time>
      </trkpt>
      <trkpt lat="42.2820670" lon="-7.2299460">
        <ele>929.9</ele>
        <time>2014-10-01T13:39:33Z</time>
      </trkpt>
      <trkpt lat="42.2820370" lon="-7.2299730">
        <ele>930.1</ele>
        <time>2014-10-01T13:39:34Z</time>
      </trkpt>
      <trkpt lat="42.2820040" lon="-7.2300000">
        <ele>930.2</ele>
        <time>2014-10-01T13:39:35Z</time>
      </trkpt>
      <trkpt lat="42.2819720" lon="-7.2300280">
        <ele>930.4</ele>
        <time>2014-10-01T13:39:36Z</time>
      </trkpt>
      <trkpt lat="42.2819430" lon="-7.2300530">
        <ele>930.6</ele>
        <time>2014-10-01T13:39:37Z</time>
      </trkpt>
      <trkpt lat="42.2819150" lon="-7.2300770">
        <ele>930.7</ele>
        <time>2014-10-01T13:39:38Z</time>
      </trkpt>
      <trkpt lat="42.2818880" lon="-7.2301060">
        <ele>930.9</ele>
        <time>2014-10-01T13:39:39Z</time>
      </trkpt>
      <trkpt lat="42.2818600" lon="-7.2301360">
        <ele>931.1</ele>
        <time>2014-10-01T13:39:40Z</time>
      </trkpt>
      <trkpt lat="42.2818290" lon="-7.2301640">
        <ele>931.3</ele>
        <time>2014-10-01T13:39:41Z</time>
      </trkpt>
      <trkpt lat="42.2817970" lon="-7.2301940">
        <ele>931.5</ele>
        <time>2014-10-01T13:39:42Z</time>
      </trkpt>
      <trkpt lat="42.2817640" lon="-7.2302250">
        <ele>931.7</ele>
        <time>2014-10-01T13:39:43Z</time>
      </trkpt>
      <trkpt lat="42.2817270" lon="-7.2302590">
        <ele>931.9</ele>
        <time>2014-10-01T13:39:44Z</time>
      </trkpt>
      <trkpt lat="42.2816900" lon="-7.2302910">
        <ele>932.2</ele>
        <time>2014-10-01T13:39:45Z</time>
      </trkpt>
      <trkpt lat="42.2816640" lon="-7.2303180">
        <ele>932.3</ele>
        <time>2014-10-01T13:39:46Z</time>
      </trkpt>
      <trkpt lat="42.2816350" lon="-7.2303440">
        <ele>932.5</ele>
        <time>2014-10-01T13:39:47Z</time>
      </trkpt>
      <trkpt lat="42.2816050" lon="-7.2303720">
        <ele>932.7</ele>
        <time>2014-10-01T13:39:48Z</time>
      </trkpt>
      <trkpt lat="42.2815740" lon="-7.2304010">
        <ele>932.9</ele>
        <time>2014-10-01T13:39:49Z</time>
      </trkpt>
      <trkpt lat="42.2815440" lon="-7.2304310">
        <ele>933.0</ele>
        <time>2014-10-01T13:39:50Z</time>
      </trkpt>
      <trkpt lat="42.2815140" lon="-7.2304630">
        <ele>933.2</ele>
        <time>2014-10-01T13:39:51Z</time>
      </trkpt>
      <trkpt lat="42.2814810" lon="-7.2304960">
        <ele>933.4</ele>
        <time>2014-10-01T13:39:52Z</time>
      </trkpt>
      <trkpt lat="42.2814530" lon="-7.2305320">
        <ele>933.6</ele>
        <time>2014-10-01T13:39:53Z</time>
      </trkpt>
      <trkpt lat="42.2814240" lon="-7.2305690">
        <ele>933.8</ele>
        <time>2014-10-01T13:39:54Z</time>
      </trkpt>
      <trkpt lat="42.2813970" lon="-7.2306050">
        <ele>934.0</ele>
        <time>2014-10-01T13:39:55Z</time>
      </trkpt>
      <trkpt lat="42.2813660" lon="-7.2306450">
        <ele>934.2</ele>
        <time>2014-10-01T13:39:56Z</time>
      </trkpt>
      <trkpt lat="42.2813350" lon="-7.2306900">
        <ele>934.4</ele>
        <time>2014-10-01T13:39:57Z</time>
      </trkpt>
      <trkpt lat="42.2813060" lon="-7.2307300">
        <ele>934.6</ele>
        <time>2014-10-01T13:39:58Z</time>
      </trkpt>
      <trkpt lat="42.2812760" lon="-7.2307710">
        <ele>934.8</ele>
        <time>2014-10-01T13:39:59Z</time>
      </trkpt>
      <trkpt lat="42.2812450" lon="-7.2308070">
        <ele>935.0</ele>
        <time>2014-10-01T13:40:00Z</time>
      </trkpt>
      <trkpt lat="42.2812130" lon="-7.2308460">
        <ele>935.1</ele>
        <time>2014-10-01T13:40:01Z</time>
      </trkpt>
      <trkpt lat="42.2811830" lon="-7.2308840">
        <ele>935.3</ele>
        <time>2014-10-01T13:40:02Z</time>
      </trkpt>
      <trkpt lat="42.2811640" lon="-7.2309150">
        <ele>935.4</ele>
        <time>2014-10-01T13:40:03Z</time>
      </trkpt>
      <trkpt lat="42.2811410" lon="-7.2309510">
        <ele>935.6</ele>
        <time>2014-10-01T13:40:04Z</time>
      </trkpt>
      <trkpt lat="42.2811210" lon="-7.2309850">
        <ele>935.7</ele>
        <time>2014-10-01T13:40:05Z</time>
      </trkpt>
      <trkpt lat="42.2810980" lon="-7.2310200">
        <ele>935.9</ele>
        <time>2014-10-01T13:40:06Z</time>
      </trkpt>
      <trkpt lat="42.2810740" lon="-7.2310560">
        <ele>936.0</ele>
        <time>2014-10-01T13:40:07Z</time>
      </trkpt>
      <trkpt lat="42.2810500" lon="-7.2310940">
        <ele>936.2</ele>
        <time>2014-10-01T13:40:08Z</time>
      </trkpt>
      <trkpt lat="42.2810250" lon="-7.2311280">
        <ele>936.3</ele>
        <time>2014-10-01T13:40:09Z</time>
      </trkpt>
      <trkpt lat="42.2809960" lon="-7.2311610">
        <ele>936.5</ele>
        <time>2014-10-01T13:40:10Z</time>
      </trkpt>
      <trkpt lat="42.2809690" lon="-7.2312020">
        <ele>936.7</ele>
        <time>2014-10-01T13:40:11Z</time>
      </trkpt>
      <trkpt lat="42.2809450" lon="-7.2312420">
        <ele>936.9</ele>
        <time>2014-10-01T13:40:12Z</time>
      </trkpt>
      <trkpt lat="42.2809170" lon="-7.2312810">
        <ele>937.1</ele>
        <time>2014-10-01T13:40:13Z</time>
      </trkpt>
      <trkpt lat="42.2808890" lon="-7.2313220">
        <ele>937.3</ele>
        <time>2014-10-01T13:40:14Z</time>
      </trkpt>
      <trkpt lat="42.2808630" lon="-7.2313610">
        <ele>937.5</ele>
        <time>2014-10-01T13:40:15Z</time>
      </trkpt>
      <trkpt lat="42.2808360" lon="-7.2314000">
        <ele>937.6</ele>
        <time>2014-10-01T13:40:16Z</time>
      </trkpt>
      <trkpt lat="42.2808080" lon="-7.2314430">
        <ele>937.9</ele>
        <time>2014-10-01T13:40:17Z</time>
      </trkpt>
      <trkpt lat="42.2807830" lon="-7.2314780">
        <ele>938.0</ele>
        <time>2014-10-01T13:40:18Z</time>
      </trkpt>
      <trkpt lat="42.2807590" lon="-7.2315180">
        <ele>938.2</ele>
        <time>2014-10-01T13:40:19Z</time>
      </trkpt>
      <trkpt lat="42.2807340" lon="-7.2315540">
        <ele>938.4</ele>
        <time>2014-10-01T13:40:20Z</time>
      </trkpt>
      <trkpt lat="42.2807160" lon="-7.2315880">
        <ele>938.6</ele>
        <time>2014-10-01T13:40:21Z</time>
      </trkpt>
      <trkpt lat="42.2806950" lon="-7.2316230">
        <ele>938.7</ele>
        <time>2014-10-01T13:40:22Z</time>
      </trkpt>
      <trkpt lat="42.2806720" lon="-7.2316620">
        <ele>938.9</ele>
        <time>2014-10-01T13:40:23Z</time>
      </trkpt>
      <trkpt lat="42.2806470" lon="-7.2316980">
        <ele>939.1</ele>
        <time>2014-10-01T13:40:24Z</time>
      </trkpt>
      <trkpt lat="42.2806200" lon="-7.2317430">
        <ele>939.3</ele>
        <time>2014-10-01T13:40:25Z</time>
      </trkpt>
      <trkpt lat="42.2806000" lon="-7.2317870">
        <ele>939.5</ele>
        <time>2014-10-01T13:40:26Z</time>
      </trkpt>
      <trkpt lat="42.2805790" lon="-7.2318350">
        <ele>939.7</ele>
        <time>2014-10-01T13:40:27Z</time>
      </trkpt>
      <trkpt lat="42.2805620" lon="-7.2318830">
        <ele>939.8</ele>
        <time>2014-10-01T13:40:28Z</time>
      </trkpt>
      <trkpt lat="42.2805450" lon="-7.2319290">
        <ele>940.0</ele>
        <time>2014-10-01T13:40:29Z</time>
      </trkpt>
      <trkpt lat="42.2805260" lon="-7.2319750">
        <ele>940.2</ele>
        <time>2014-10-01T13:40:30Z</time>
      </trkpt>
      <trkpt lat="42.2805090" lon="-7.2320210">
        <ele>940.4</ele>
        <time>2014-10-01T13:40:31Z</time>
      </trkpt>
      <trkpt lat="42.2804900" lon="-7.2320640">
        <ele>940.6</ele>
        <time>2014-10-01T13:40:32Z</time>
      </trkpt>
      <trkpt lat="42.2804720" lon="-7.2321100">
        <ele>940.8</ele>
        <time>2014-10-01T13:40:33Z</time>
      </trkpt>
      <trkpt lat="42.2804560" lon="-7.2321560">
        <ele>941.1</ele>
        <time>2014-10-01T13:40:34Z</time>
      </trkpt>
      <trkpt lat="42.2804370" lon="-7.2322030">
        <ele>941.3</ele>
        <time>2014-10-01T13:40:35Z</time>
      </trkpt>
      <trkpt lat="42.2804240" lon="-7.2322440">
        <ele>941.5</ele>
        <time>2014-10-01T13:40:36Z</time>
      </trkpt>
      <trkpt lat="42.2804050" lon="-7.2322950">
        <ele>941.8</ele>
        <time>2014-10-01T13:40:37Z</time>
      </trkpt>
      <trkpt lat="42.2803890" lon="-7.2323450">
        <ele>942.0</ele>
        <time>2014-10-01T13:40:38Z</time>
      </trkpt>
      <trkpt lat="42.2803710" lon="-7.2323910">
        <ele>942.2</ele>
        <time>2014-10-01T13:40:39Z</time>
      </trkpt>
      <trkpt lat="42.2803600" lon="-7.2324330">
        <ele>942.4</ele>
        <time>2014-10-01T13:40:40Z</time>
      </trkpt>
      <trkpt lat="42.2803410" lon="-7.2324730">
        <ele>942.6</ele>
        <time>2014-10-01T13:40:41Z</time>
      </trkpt>
      <trkpt lat="42.2803210" lon="-7.2325080">
        <ele>942.8</ele>
        <time>2014-10-01T13:40:42Z</time>
      </trkpt>
      <trkpt lat="42.2803090" lon="-7.2325520">
        <ele>943.0</ele>
        <time>2014-10-01T13:40:43Z</time>
      </trkpt>
      <trkpt lat="42.2802950" lon="-7.2325950">
        <ele>943.2</ele>
        <time>2014-10-01T13:40:44Z</time>
      </trkpt>
      <trkpt lat="42.2802910" lon="-7.2326450">
        <ele>943.4</ele>
        <time>2014-10-01T13:40:45Z</time>
      </trkpt>
      <trkpt lat="42.2802750" lon="-7.2326940">
        <ele>943.6</ele>
        <time>2014-10-01T13:40:46Z</time>
      </trkpt>
      <trkpt lat="42.2802630" lon="-7.2327420">
        <ele>943.8</ele>
        <time>2014-10-01T13:40:47Z</time>
      </trkpt>
      <trkpt lat="42.2802420" lon="-7.2327850">
        <ele>944.0</ele>
        <time>2014-10-01T13:40:48Z</time>
      </trkpt>
      <trkpt lat="42.2802270" lon="-7.2328350">
        <ele>944.2</ele>
        <time>2014-10-01T13:40:49Z</time>
      </trkpt>
      <trkpt lat="42.2802160" lon="-7.2328840">
        <ele>944.5</ele>
        <time>2014-10-01T13:40:50Z</time>
      </trkpt>
      <trkpt lat="42.2802040" lon="-7.2329340">
        <ele>944.7</ele>
        <time>2014-10-01T13:40:51Z</time>
      </trkpt>
      <trkpt lat="42.2801970" lon="-7.2329800">
        <ele>944.9</ele>
        <time>2014-10-01T13:40:52Z</time>
      </trkpt>
      <trkpt lat="42.2801880" lon="-7.2330230">
        <ele>945.1</ele>
        <time>2014-10-01T13:40:53Z</time>
      </trkpt>
      <trkpt lat="42.2801780" lon="-7.2330620">
        <ele>945.3</ele>
        <time>2014-10-01T13:40:54Z</time>
      </trkpt>
      <trkpt lat="42.2801620" lon="-7.2331080">
        <ele>945.5</ele>
        <time>2014-10-01T13:40:55Z</time>
      </trkpt>
      <trkpt lat="42.2801500" lon="-7.2331570">
        <ele>945.7</ele>
        <time>2014-10-01T13:40:56Z</time>
      </trkpt>
      <trkpt lat="42.2801360" lon="-7.2332090">
        <ele>946.0</ele>
        <time>2014-10-01T13:40:57Z</time>
      </trkpt>
      <trkpt lat="42.2801250" lon="-7.2332550">
        <ele>946.2</ele>
        <time>2014-10-01T13:40:58Z</time>
      </trkpt>
      <trkpt lat="42.2801120" lon="-7.2332980">
        <ele>946.4</ele>
        <time>2014-10-01T13:40:59Z</time>
      </trkpt>
      <trkpt lat="42.2800980" lon="-7.2333430">
        <ele>946.6</ele>
        <time>2014-10-01T13:41:00Z</time>
      </trkpt>
      <trkpt lat="42.2800810" lon="-7.2333860">
        <ele>946.8</ele>
        <time>2014-10-01T13:41:01Z</time>
      </trkpt>
      <trkpt lat="42.2800670" lon="-7.2334300">
        <ele>947.0</ele>
        <time>2014-10-01T13:41:02Z</time>
      </trkpt>
      <trkpt lat="42.2800570" lon="-7.2334780">
        <ele>947.2</ele>
        <time>2014-10-01T13:41:03Z</time>
      </trkpt>
      <trkpt lat="42.2800500" lon="-7.2335250">
        <ele>947.4</ele>
        <time>2014-10-01T13:41:04Z</time>
      </trkpt>
      <trkpt lat="42.2800380" lon="-7.2335730">
        <ele>947.6</ele>
        <time>2014-10-01T13:41:05Z</time>
      </trkpt>
      <trkpt lat="42.2800300" lon="-7.2336200">
        <ele>947.8</ele>
        <time>2014-10-01T13:41:06Z</time>
      </trkpt>
      <trkpt lat="42.2800210" lon="-7.2336670">
        <ele>948.0</ele>
        <time>2014-10-01T13:41:07Z</time>
      </trkpt>
      <trkpt lat="42.2800130" lon="-7.2337160">
        <ele>948.2</ele>
        <time>2014-10-01T13:41:08Z</time>
      </trkpt>
      <trkpt lat="42.2800030" lon="-7.2337650">
        <ele>948.4</ele>
        <time>2014-10-01T13:41:09Z</time>
      </trkpt>
      <trkpt lat="42.2799950" lon="-7.2338140">
        <ele>948.5</ele>
        <time>2014-10-01T13:41:10Z</time>
      </trkpt>
      <trkpt lat="42.2799890" lon="-7.2338640">
        <ele>948.7</ele>
        <time>2014-10-01T13:41:11Z</time>
      </trkpt>
      <trkpt lat="42.2799830" lon="-7.2339140">
        <ele>948.9</ele>
        <time>2014-10-01T13:41:12Z</time>
      </trkpt>
      <trkpt lat="42.2799780" lon="-7.2339630">
        <ele>949.0</ele>
        <time>2014-10-01T13:41:13Z</time>
      </trkpt>
      <trkpt lat="42.2799720" lon="-7.2340110">
        <ele>949.1</ele>
        <time>2014-10-01T13:41:14Z</time>
      </trkpt>
      <trkpt lat="42.2799660" lon="-7.2340590">
        <ele>949.3</ele>
        <time>2014-10-01T13:41:15Z</time>
      </trkpt>
      <trkpt lat="42.2799580" lon="-7.2341080">
        <ele>949.4</ele>
        <time>2014-10-01T13:41:16Z</time>
      </trkpt>
      <trkpt lat="42.2799490" lon="-7.2341570">
        <ele>949.7</ele>
        <time>2014-10-01T13:41:17Z</time>
      </trkpt>
      <trkpt lat="42.2799430" lon="-7.2342070">
        <ele>950.1</ele>
        <time>2014-10-01T13:41:18Z</time>
      </trkpt>
      <trkpt lat="42.2799320" lon="-7.2342580">
        <ele>950.4</ele>
        <time>2014-10-01T13:41:19Z</time>
      </trkpt>
      <trkpt lat="42.2799180" lon="-7.2343070">
        <ele>950.7</ele>
        <time>2014-10-01T13:41:20Z</time>
      </trkpt>
      <trkpt lat="42.2799050" lon="-7.2343570">
        <ele>951.0</ele>
        <time>2014-10-01T13:41:21Z</time>
      </trkpt>
      <trkpt lat="42.2798950" lon="-7.2344080">
        <ele>951.3</ele>
        <time>2014-10-01T13:41:22Z</time>
      </trkpt>
      <trkpt lat="42.2798840" lon="-7.2344570">
        <ele>951.5</ele>
        <time>2014-10-01T13:41:23Z</time>
      </trkpt>
      <trkpt lat="42.2798710" lon="-7.2345030">
        <ele>951.8</ele>
        <time>2014-10-01T13:41:24Z</time>
      </trkpt>
      <trkpt lat="42.2798610" lon="-7.2345470">
        <ele>952.0</ele>
        <time>2014-10-01T13:41:25Z</time>
      </trkpt>
      <trkpt lat="42.2798510" lon="-7.2345970">
        <ele>952.3</ele>
        <time>2014-10-01T13:41:26Z</time>
      </trkpt>
      <trkpt lat="42.2798450" lon="-7.2346490">
        <ele>952.5</ele>
        <time>2014-10-01T13:41:27Z</time>
      </trkpt>
      <trkpt lat="42.2798350" lon="-7.2347010">
        <ele>952.8</ele>
        <time>2014-10-01T13:41:28Z</time>
      </trkpt>
      <trkpt lat="42.2798250" lon="-7.2347490">
        <ele>953.0</ele>
        <time>2014-10-01T13:41:29Z</time>
      </trkpt>
      <trkpt lat="42.2798150" lon="-7.2347970">
        <ele>953.3</ele>
        <time>2014-10-01T13:41:30Z</time>
      </trkpt>
      <trkpt lat="42.2798060" lon="-7.2348440">
        <ele>953.5</ele>
        <time>2014-10-01T13:41:31Z</time>
      </trkpt>
      <trkpt lat="42.2797970" lon="-7.2348840">
        <ele>953.7</ele>
        <time>2014-10-01T13:41:32Z</time>
      </trkpt>
      <trkpt lat="42.2797830" lon="-7.2349250">
        <ele>953.9</ele>
        <time>2014-10-01T13:41:33Z</time>
      </trkpt>
      <trkpt lat="42.2797700" lon="-7.2349710">
        <ele>954.2</ele>
        <time>2014-10-01T13:41:34Z</time>
      </trkpt>
      <trkpt lat="42.2797560" lon="-7.2350180">
        <ele>954.4</ele>
        <time>2014-10-01T13:41:35Z</time>
      </trkpt>
      <trkpt lat="42.2797390" lon="-7.2350650">
        <ele>954.6</ele>
        <time>2014-10-01T13:41:36Z</time>
      </trkpt>
      <trkpt lat="42.2797260" lon="-7.2351100">
        <ele>954.9</ele>
        <time>2014-10-01T13:41:37Z</time>
      </trkpt>
      <trkpt lat="42.2797150" lon="-7.2351560">
        <ele>955.2</ele>
        <time>2014-10-01T13:41:38Z</time>
      </trkpt>
      <trkpt lat="42.2797030" lon="-7.2352050">
        <ele>955.4</ele>
        <time>2014-10-01T13:41:39Z</time>
      </trkpt>
      <trkpt lat="42.2797060" lon="-7.2352520">
        <ele>956.4</ele>
        <time>2014-10-01T13:41:40Z</time>
      </trkpt>
      <trkpt lat="42.2797250" lon="-7.2352910">
        <ele>956.7</ele>
        <time>2014-10-01T13:41:41Z</time>
      </trkpt>
      <trkpt lat="42.2797620" lon="-7.2353160">
        <ele>957.1</ele>
        <time>2014-10-01T13:41:43Z</time>
      </trkpt>
      <trkpt lat="42.2798060" lon="-7.2352870">
        <ele>957.6</ele>
        <time>2014-10-01T13:41:45Z</time>
      </trkpt>
      <trkpt lat="42.2798330" lon="-7.2352690">
        <ele>957.8</ele>
        <time>2014-10-01T13:41:46Z</time>
      </trkpt>
      <trkpt lat="42.2798590" lon="-7.2352470">
        <ele>958.1</ele>
        <time>2014-10-01T13:41:47Z</time>
      </trkpt>
      <trkpt lat="42.2798850" lon="-7.2352230">
        <ele>958.3</ele>
        <time>2014-10-01T13:41:48Z</time>
      </trkpt>
      <trkpt lat="42.2799090" lon="-7.2351970">
        <ele>958.6</ele>
        <time>2014-10-01T13:41:49Z</time>
      </trkpt>
      <trkpt lat="42.2799330" lon="-7.2351680">
        <ele>958.8</ele>
        <time>2014-10-01T13:41:50Z</time>
      </trkpt>
      <trkpt lat="42.2799540" lon="-7.2351420">
        <ele>959.1</ele>
        <time>2014-10-01T13:41:51Z</time>
      </trkpt>
      <trkpt lat="42.2799760" lon="-7.2351140">
        <ele>959.3</ele>
        <time>2014-10-01T13:41:52Z</time>
      </trkpt>
      <trkpt lat="42.2799980" lon="-7.2350840">
        <ele>959.5</ele>
        <time>2014-10-01T13:41:53Z</time>
      </trkpt>
      <trkpt lat="42.2800200" lon="-7.2350550">
        <ele>959.8</ele>
        <time>2014-10-01T13:41:54Z</time>
      </trkpt>
      <trkpt lat="42.2800390" lon="-7.2350280">
        <ele>960.0</ele>
        <time>2014-10-01T13:41:55Z</time>
      </trkpt>
      <trkpt lat="42.2800600" lon="-7.2349990">
        <ele>960.2</ele>
        <time>2014-10-01T13:41:56Z</time>
      </trkpt>
      <trkpt lat="42.2800860" lon="-7.2349670">
        <ele>960.4</ele>
        <time>2014-10-01T13:41:57Z</time>
      </trkpt>
      <trkpt lat="42.2801120" lon="-7.2349390">
        <ele>960.6</ele>
        <time>2014-10-01T13:41:58Z</time>
      </trkpt>
      <trkpt lat="42.2801360" lon="-7.2349100">
        <ele>960.9</ele>
        <time>2014-10-01T13:41:59Z</time>
      </trkpt>
      <trkpt lat="42.2801780" lon="-7.2348620">
        <ele>961.2</ele>
        <time>2014-10-01T13:42:01Z</time>
      </trkpt>
      <trkpt lat="42.2802010" lon="-7.2348370">
        <ele>961.4</ele>
        <time>2014-10-01T13:42:02Z</time>
      </trkpt>
      <trkpt lat="42.2802230" lon="-7.2348100">
        <ele>961.6</ele>
        <time>2014-10-01T13:42:03Z</time>
      </trkpt>
      <trkpt lat="42.2802520" lon="-7.2347800">
        <ele>961.8</ele>
        <time>2014-10-01T13:42:04Z</time>
      </trkpt>
      <trkpt lat="42.2802810" lon="-7.2347470">
        <ele>962.0</ele>
        <time>2014-10-01T13:42:05Z</time>
      </trkpt>
      <trkpt lat="42.2803070" lon="-7.2347190">
        <ele>962.2</ele>
        <time>2014-10-01T13:42:06Z</time>
      </trkpt>
      <trkpt lat="42.2803340" lon="-7.2346890">
        <ele>962.4</ele>
        <time>2014-10-01T13:42:07Z</time>
      </trkpt>
      <trkpt lat="42.2803560" lon="-7.2346620">
        <ele>962.6</ele>
        <time>2014-10-01T13:42:08Z</time>
      </trkpt>
      <trkpt lat="42.2803840" lon="-7.2346290">
        <ele>962.8</ele>
        <time>2014-10-01T13:42:09Z</time>
      </trkpt>
      <trkpt lat="42.2804080" lon="-7.2345980">
        <ele>963.0</ele>
        <time>2014-10-01T13:42:10Z</time>
      </trkpt>
      <trkpt lat="42.2804270" lon="-7.2345720">
        <ele>963.2</ele>
        <time>2014-10-01T13:42:11Z</time>
      </trkpt>
      <trkpt lat="42.2804530" lon="-7.2345410">
        <ele>963.4</ele>
        <time>2014-10-01T13:42:12Z</time>
      </trkpt>
      <trkpt lat="42.2804830" lon="-7.2345070">
        <ele>963.5</ele>
        <time>2014-10-01T13:42:13Z</time>
      </trkpt>
      <trkpt lat="42.2805120" lon="-7.2344770">
        <ele>963.7</ele>
        <time>2014-10-01T13:42:14Z</time>
      </trkpt>
      <trkpt lat="42.2805360" lon="-7.2344490">
        <ele>963.9</ele>
        <time>2014-10-01T13:42:15Z</time>
      </trkpt>
      <trkpt lat="42.2805640" lon="-7.2344150">
        <ele>964.1</ele>
        <time>2014-10-01T13:42:16Z</time>
      </trkpt>
      <trkpt lat="42.2805870" lon="-7.2343860">
        <ele>964.2</ele>
        <time>2014-10-01T13:42:17Z</time>
      </trkpt>
      <trkpt lat="42.2806090" lon="-7.2343570">
        <ele>964.4</ele>
        <time>2014-10-01T13:42:18Z</time>
      </trkpt>
      <trkpt lat="42.2806360" lon="-7.2343240">
        <ele>964.6</ele>
        <time>2014-10-01T13:42:19Z</time>
      </trkpt>
      <trkpt lat="42.2806630" lon="-7.2342930">
        <ele>964.8</ele>
        <time>2014-10-01T13:42:20Z</time>
      </trkpt>
      <trkpt lat="42.2806920" lon="-7.2342600">
        <ele>965.0</ele>
        <time>2014-10-01T13:42:21Z</time>
      </trkpt>
      <trkpt lat="42.2807160" lon="-7.2342350">
        <ele>965.2</ele>
        <time>2014-10-01T13:42:22Z</time>
      </trkpt>
      <trkpt lat="42.2807400" lon="-7.2342090">
        <ele>965.4</ele>
        <time>2014-10-01T13:42:23Z</time>
      </trkpt>
      <trkpt lat="42.2807650" lon="-7.2341840">
        <ele>965.6</ele>
        <time>2014-10-01T13:42:24Z</time>
      </trkpt>
      <trkpt lat="42.2807920" lon="-7.2341620">
        <ele>965.8</ele>
        <time>2014-10-01T13:42:25Z</time>
      </trkpt>
      <trkpt lat="42.2808170" lon="-7.2341430">
        <ele>966.0</ele>
        <time>2014-10-01T13:42:26Z</time>
      </trkpt>
      <trkpt lat="42.2808700" lon="-7.2341160">
        <ele>966.3</ele>
        <time>2014-10-01T13:42:28Z</time>
      </trkpt>
      <trkpt lat="42.2809020" lon="-7.2341050">
        <ele>966.6</ele>
        <time>2014-10-01T13:42:29Z</time>
      </trkpt>
      <trkpt lat="42.2809380" lon="-7.2340970">
        <ele>966.8</ele>
        <time>2014-10-01T13:42:30Z</time>
      </trkpt>
      <trkpt lat="42.2809780" lon="-7.2340920">
        <ele>967.1</ele>
        <time>2014-10-01T13:42:31Z</time>
      </trkpt>
      <trkpt lat="42.2810140" lon="-7.2340880">
        <ele>967.3</ele>
        <time>2014-10-01T13:42:32Z</time>
      </trkpt>
      <trkpt lat="42.2810490" lon="-7.2340890">
        <ele>967.5</ele>
        <time>2014-10-01T13:42:33Z</time>
      </trkpt>
      <trkpt lat="42.2810840" lon="-7.2340930">
        <ele>967.7</ele>
        <time>2014-10-01T13:42:34Z</time>
      </trkpt>
      <trkpt lat="42.2811200" lon="-7.2341030">
        <ele>967.9</ele>
        <time>2014-10-01T13:42:35Z</time>
      </trkpt>
      <trkpt lat="42.2811600" lon="-7.2341200">
        <ele>968.1</ele>
        <time>2014-10-01T13:42:36Z</time>
      </trkpt>
      <trkpt lat="42.2811990" lon="-7.2341430">
        <ele>968.3</ele>
        <time>2014-10-01T13:42:37Z</time>
      </trkpt>
      <trkpt lat="42.2812370" lon="-7.2341680">
        <ele>968.5</ele>
        <time>2014-10-01T13:42:38Z</time>
      </trkpt>
      <trkpt lat="42.2812690" lon="-7.2341960">
        <ele>968.7</ele>
        <time>2014-10-01T13:42:39Z</time>
      </trkpt>
      <trkpt lat="42.2812980" lon="-7.2342260">
        <ele>968.9</ele>
        <time>2014-10-01T13:42:40Z</time>
      </trkpt>
      <trkpt lat="42.2813300" lon="-7.2342610">
        <ele>969.1</ele>
        <time>2014-10-01T13:42:41Z</time>
      </trkpt>
      <trkpt lat="42.2813590" lon="-7.2343030">
        <ele>969.4</ele>
        <time>2014-10-01T13:42:42Z</time>
      </trkpt>
      <trkpt lat="42.2813780" lon="-7.2343410">
        <ele>969.7</ele>
        <time>2014-10-01T13:42:43Z</time>
      </trkpt>
      <trkpt lat="42.2813930" lon="-7.2343820">
        <ele>970.0</ele>
        <time>2014-10-01T13:42:44Z</time>
      </trkpt>
      <trkpt lat="42.2814030" lon="-7.2344220">
        <ele>970.3</ele>
        <time>2014-10-01T13:42:45Z</time>
      </trkpt>
      <trkpt lat="42.2814090" lon="-7.2344630">
        <ele>970.6</ele>
        <time>2014-10-01T13:42:46Z</time>
      </trkpt>
      <trkpt lat="42.2814130" lon="-7.2345040">
        <ele>970.9</ele>
        <time>2014-10-01T13:42:47Z</time>
      </trkpt>
      <trkpt lat="42.2814150" lon="-7.2345510">
        <ele>971.2</ele>
        <time>2014-10-01T13:42:48Z</time>
      </trkpt>
      <trkpt lat="42.2814130" lon="-7.2345900">
        <ele>971.5</ele>
        <time>2014-10-01T13:42:49Z</time>
      </trkpt>
      <trkpt lat="42.2814080" lon="-7.2346300">
        <ele>971.9</ele>
        <time>2014-10-01T13:42:50Z</time>
      </trkpt>
      <trkpt lat="42.2814040" lon="-7.2346680">
        <ele>972.2</ele>
        <time>2014-10-01T13:42:51Z</time>
      </trkpt>
      <trkpt lat="42.2814000" lon="-7.2347040">
        <ele>972.5</ele>
        <time>2014-10-01T13:42:52Z</time>
      </trkpt>
      <trkpt lat="42.2813920" lon="-7.2347400">
        <ele>972.9</ele>
        <time>2014-10-01T13:42:53Z</time>
      </trkpt>
      <trkpt lat="42.2813850" lon="-7.2347780">
        <ele>973.2</ele>
        <time>2014-10-01T13:42:54Z</time>
      </trkpt>
      <trkpt lat="42.2813670" lon="-7.2348380">
        <ele>973.8</ele>
        <time>2014-10-01T13:42:56Z</time>
      </trkpt>
      <trkpt lat="42.2813460" lon="-7.2349000">
        <ele>974.4</ele>
        <time>2014-10-01T13:42:58Z</time>
      </trkpt>
      <trkpt lat="42.2813240" lon="-7.2349580">
        <ele>975.0</ele>
        <time>2014-10-01T13:43:00Z</time>
      </trkpt>
      <trkpt lat="42.2813000" lon="-7.2350160">
        <ele>975.6</ele>
        <time>2014-10-01T13:43:02Z</time>
      </trkpt>
      <trkpt lat="42.2812860" lon="-7.2350480">
        <ele>975.9</ele>
        <time>2014-10-01T13:43:03Z</time>
      </trkpt>
      <trkpt lat="42.2812640" lon="-7.2351080">
        <ele>976.4</ele>
        <time>2014-10-01T13:43:05Z</time>
      </trkpt>
      <trkpt lat="42.2812410" lon="-7.2351670">
        <ele>976.9</ele>
        <time>2014-10-01T13:43:07Z</time>
      </trkpt>
      <trkpt lat="42.2812290" lon="-7.2352020">
        <ele>977.2</ele>
        <time>2014-10-01T13:43:08Z</time>
      </trkpt>
      <trkpt lat="42.2812160" lon="-7.2352380">
        <ele>977.4</ele>
        <time>2014-10-01T13:43:09Z</time>
      </trkpt>
      <trkpt lat="42.2812020" lon="-7.2352720">
        <ele>977.7</ele>
        <time>2014-10-01T13:43:10Z</time>
      </trkpt>
      <trkpt lat="42.2811860" lon="-7.2353070">
        <ele>977.9</ele>
        <time>2014-10-01T13:43:11Z</time>
      </trkpt>
      <trkpt lat="42.2811710" lon="-7.2353400">
        <ele>978.2</ele>
        <time>2014-10-01T13:43:12Z</time>
      </trkpt>
      <trkpt lat="42.2811540" lon="-7.2353730">
        <ele>978.4</ele>
        <time>2014-10-01T13:43:13Z</time>
      </trkpt>
      <trkpt lat="42.2811370" lon="-7.2354090">
        <ele>978.6</ele>
        <time>2014-10-01T13:43:14Z</time>
      </trkpt>
      <trkpt lat="42.2811220" lon="-7.2354440">
        <ele>978.9</ele>
        <time>2014-10-01T13:43:15Z</time>
      </trkpt>
      <trkpt lat="42.2811090" lon="-7.2354790">
        <ele>979.1</ele>
        <time>2014-10-01T13:43:16Z</time>
      </trkpt>
      <trkpt lat="42.2810950" lon="-7.2355140">
        <ele>979.3</ele>
        <time>2014-10-01T13:43:17Z</time>
      </trkpt>
      <trkpt lat="42.2810830" lon="-7.2355490">
        <ele>979.5</ele>
        <time>2014-10-01T13:43:18Z</time>
      </trkpt>
      <trkpt lat="42.2810670" lon="-7.2355890">
        <ele>979.8</ele>
        <time>2014-10-01T13:43:19Z</time>
      </trkpt>
      <trkpt lat="42.2810500" lon="-7.2356310">
        <ele>980.0</ele>
        <time>2014-10-01T13:43:20Z</time>
      </trkpt>
      <trkpt lat="42.2810370" lon="-7.2356710">
        <ele>980.3</ele>
        <time>2014-10-01T13:43:21Z</time>
      </trkpt>
      <trkpt lat="42.2810250" lon="-7.2357130">
        <ele>980.5</ele>
        <time>2014-10-01T13:43:22Z</time>
      </trkpt>
      <trkpt lat="42.2810110" lon="-7.2357530">
        <ele>980.8</ele>
        <time>2014-10-01T13:43:23Z</time>
      </trkpt>
      <trkpt lat="42.2809960" lon="-7.2357910">
        <ele>981.0</ele>
        <time>2014-10-01T13:43:24Z</time>
      </trkpt>
      <trkpt lat="42.2809810" lon="-7.2358280">
        <ele>981.2</ele>
        <time>2014-10-01T13:43:25Z</time>
      </trkpt>
      <trkpt lat="42.2809630" lon="-7.2358650">
        <ele>981.4</ele>
        <time>2014-10-01T13:43:26Z</time>
      </trkpt>
      <trkpt lat="42.2809470" lon="-7.2359020">
        <ele>981.6</ele>
        <time>2014-10-01T13:43:27Z</time>
      </trkpt>
      <trkpt lat="42.2809300" lon="-7.2359420">
        <ele>981.9</ele>
        <time>2014-10-01T13:43:28Z</time>
      </trkpt>
      <trkpt lat="42.2809200" lon="-7.2359780">
        <ele>982.1</ele>
        <time>2014-10-01T13:43:29Z</time>
      </trkpt>
      <trkpt lat="42.2809070" lon="-7.2360180">
        <ele>982.3</ele>
        <time>2014-10-01T13:43:30Z</time>
      </trkpt>
      <trkpt lat="42.2808910" lon="-7.2360590">
        <ele>982.5</ele>
        <time>2014-10-01T13:43:31Z</time>
      </trkpt>
      <trkpt lat="42.2808790" lon="-7.2360990">
        <ele>982.8</ele>
        <time>2014-10-01T13:43:32Z</time>
      </trkpt>
      <trkpt lat="42.2808600" lon="-7.2361420">
        <ele>983.1</ele>
        <time>2014-10-01T13:43:33Z</time>
      </trkpt>
      <trkpt lat="42.2808410" lon="-7.2361860">
        <ele>983.4</ele>
        <time>2014-10-01T13:43:34Z</time>
      </trkpt>
      <trkpt lat="42.2808230" lon="-7.2362260">
        <ele>983.7</ele>
        <time>2014-10-01T13:43:35Z</time>
      </trkpt>
      <trkpt lat="42.2808110" lon="-7.2362610">
        <ele>984.0</ele>
        <time>2014-10-01T13:43:36Z</time>
      </trkpt>
      <trkpt lat="42.2807960" lon="-7.2362970">
        <ele>984.3</ele>
        <time>2014-10-01T13:43:37Z</time>
      </trkpt>
      <trkpt lat="42.2807780" lon="-7.2363340">
        <ele>984.7</ele>
        <time>2014-10-01T13:43:38Z</time>
      </trkpt>
      <trkpt lat="42.2807500" lon="-7.2363890">
        <ele>985.2</ele>
        <time>2014-10-01T13:43:40Z</time>
      </trkpt>
      <trkpt lat="42.2807340" lon="-7.2364200">
        <ele>985.5</ele>
        <time>2014-10-01T13:43:41Z</time>
      </trkpt>
      <trkpt lat="42.2807110" lon="-7.2364900">
        <ele>986.2</ele>
        <time>2014-10-01T13:43:43Z</time>
      </trkpt>
      <trkpt lat="42.2806930" lon="-7.2365590">
        <ele>986.7</ele>
        <time>2014-10-01T13:43:45Z</time>
      </trkpt>
      <trkpt lat="42.2806850" lon="-7.2365980">
        <ele>987.1</ele>
        <time>2014-10-01T13:43:46Z</time>
      </trkpt>
      <trkpt lat="42.2806770" lon="-7.2366340">
        <ele>987.4</ele>
        <time>2014-10-01T13:43:47Z</time>
      </trkpt>
      <trkpt lat="42.2806680" lon="-7.2366730">
        <ele>987.7</ele>
        <time>2014-10-01T13:43:48Z</time>
      </trkpt>
      <trkpt lat="42.2806540" lon="-7.2367380">
        <ele>988.3</ele>
        <time>2014-10-01T13:43:50Z</time>
      </trkpt>
      <trkpt lat="42.2806360" lon="-7.2367970">
        <ele>988.9</ele>
        <time>2014-10-01T13:43:52Z</time>
      </trkpt>
      <trkpt lat="42.2806140" lon="-7.2368540">
        <ele>989.4</ele>
        <time>2014-10-01T13:43:54Z</time>
      </trkpt>
      <trkpt lat="42.2805870" lon="-7.2369100">
        <ele>990.0</ele>
        <time>2014-10-01T13:43:56Z</time>
      </trkpt>
      <trkpt lat="42.2805720" lon="-7.2369420">
        <ele>990.3</ele>
        <time>2014-10-01T13:43:57Z</time>
      </trkpt>
      <trkpt lat="42.2805570" lon="-7.2369740">
        <ele>990.6</ele>
        <time>2014-10-01T13:43:58Z</time>
      </trkpt>
      <trkpt lat="42.2805300" lon="-7.2370280">
        <ele>991.2</ele>
        <time>2014-10-01T13:44:00Z</time>
      </trkpt>
      <trkpt lat="42.2805060" lon="-7.2370860">
        <ele>991.7</ele>
        <time>2014-10-01T13:44:02Z</time>
      </trkpt>
      <trkpt lat="42.2804820" lon="-7.2371420">
        <ele>992.2</ele>
        <time>2014-10-01T13:44:04Z</time>
      </trkpt>
      <trkpt lat="42.2804630" lon="-7.2371970">
        <ele>992.7</ele>
        <time>2014-10-01T13:44:06Z</time>
      </trkpt>
      <trkpt lat="42.2804390" lon="-7.2372560">
        <ele>993.1</ele>
        <time>2014-10-01T13:44:08Z</time>
      </trkpt>
      <trkpt lat="42.2804170" lon="-7.2373120">
        <ele>993.6</ele>
        <time>2014-10-01T13:44:10Z</time>
      </trkpt>
      <trkpt lat="42.2803910" lon="-7.2373710">
        <ele>994.0</ele>
        <time>2014-10-01T13:44:12Z</time>
      </trkpt>
      <trkpt lat="42.2803780" lon="-7.2374080">
        <ele>994.2</ele>
        <time>2014-10-01T13:44:13Z</time>
      </trkpt>
      <trkpt lat="42.2803550" lon="-7.2374830">
        <ele>994.7</ele>
        <time>2014-10-01T13:44:15Z</time>
      </trkpt>
      <trkpt lat="42.2803430" lon="-7.2375170">
        <ele>994.9</ele>
        <time>2014-10-01T13:44:16Z</time>
      </trkpt>
      <trkpt lat="42.2803280" lon="-7.2375540">
        <ele>995.1</ele>
        <time>2014-10-01T13:44:17Z</time>
      </trkpt>
      <trkpt lat="42.2803140" lon="-7.2375900">
        <ele>995.4</ele>
        <time>2014-10-01T13:44:18Z</time>
      </trkpt>
      <trkpt lat="42.2802960" lon="-7.2376270">
        <ele>995.6</ele>
        <time>2014-10-01T13:44:19Z</time>
      </trkpt>
      <trkpt lat="42.2802790" lon="-7.2376660">
        <ele>995.8</ele>
        <time>2014-10-01T13:44:20Z</time>
      </trkpt>
      <trkpt lat="42.2802600" lon="-7.2377070">
        <ele>996.0</ele>
        <time>2014-10-01T13:44:21Z</time>
      </trkpt>
      <trkpt lat="42.2802410" lon="-7.2377460">
        <ele>996.3</ele>
        <time>2014-10-01T13:44:22Z</time>
      </trkpt>
      <trkpt lat="42.2802250" lon="-7.2377840">
        <ele>996.6</ele>
        <time>2014-10-01T13:44:23Z</time>
      </trkpt>
      <trkpt lat="42.2802120" lon="-7.2378210">
        <ele>996.8</ele>
        <time>2014-10-01T13:44:24Z</time>
      </trkpt>
      <trkpt lat="42.2801950" lon="-7.2378530">
        <ele>997.0</ele>
        <time>2014-10-01T13:44:25Z</time>
      </trkpt>
      <trkpt lat="42.2801630" lon="-7.2379000">
        <ele>997.4</ele>
        <time>2014-10-01T13:44:27Z</time>
      </trkpt>
      <trkpt lat="42.2801340" lon="-7.2379520">
        <ele>997.8</ele>
        <time>2014-10-01T13:44:29Z</time>
      </trkpt>
      <trkpt lat="42.2801030" lon="-7.2379900">
        <ele>998.1</ele>
        <time>2014-10-01T13:44:31Z</time>
      </trkpt>
      <trkpt lat="42.2800590" lon="-7.2380260">
        <ele>998.5</ele>
        <time>2014-10-01T13:44:33Z</time>
      </trkpt>
      <trkpt lat="42.2800260" lon="-7.2380550">
        <ele>998.9</ele>
        <time>2014-10-01T13:44:35Z</time>
      </trkpt>
      <trkpt lat="42.2799810" lon="-7.2380850">
        <ele>999.3</ele>
        <time>2014-10-01T13:44:37Z</time>
      </trkpt>
      <trkpt lat="42.2799560" lon="-7.2381000">
        <ele>999.5</ele>
        <time>2014-10-01T13:44:38Z</time>
      </trkpt>
      <trkpt lat="42.2799060" lon="-7.2381320">
        <ele>999.9</ele>
        <time>2014-10-01T13:44:40Z</time>
      </trkpt>
      <trkpt lat="42.2798790" lon="-7.2381500">
        <ele>1000.1</ele>
        <time>2014-10-01T13:44:41Z</time>
      </trkpt>
      <trkpt lat="42.2798350" lon="-7.2381780">
        <ele>1000.4</ele>
        <time>2014-10-01T13:44:43Z</time>
      </trkpt>
      <trkpt lat="42.2797950" lon="-7.2382080">
        <ele>1000.7</ele>
        <time>2014-10-01T13:44:45Z</time>
      </trkpt>
      <trkpt lat="42.2797520" lon="-7.2382440">
        <ele>1001.0</ele>
        <time>2014-10-01T13:44:47Z</time>
      </trkpt>
      <trkpt lat="42.2797260" lon="-7.2382660">
        <ele>1001.1</ele>
        <time>2014-10-01T13:44:48Z</time>
      </trkpt>
      <trkpt lat="42.2797000" lon="-7.2382880">
        <ele>1001.3</ele>
        <time>2014-10-01T13:44:49Z</time>
      </trkpt>
      <trkpt lat="42.2796770" lon="-7.2383110">
        <ele>1001.4</ele>
        <time>2014-10-01T13:44:50Z</time>
      </trkpt>
      <trkpt lat="42.2796540" lon="-7.2383360">
        <ele>1001.5</ele>
        <time>2014-10-01T13:44:51Z</time>
      </trkpt>
      <trkpt lat="42.2796280" lon="-7.2383620">
        <ele>1001.6</ele>
        <time>2014-10-01T13:44:52Z</time>
      </trkpt>
      <trkpt lat="42.2795820" lon="-7.2384120">
        <ele>1001.8</ele>
        <time>2014-10-01T13:44:54Z</time>
      </trkpt>
      <trkpt lat="42.2795380" lon="-7.2384660">
        <ele>1002.0</ele>
        <time>2014-10-01T13:44:56Z</time>
      </trkpt>
      <trkpt lat="42.2795090" lon="-7.2385030">
        <ele>1002.1</ele>
        <time>2014-10-01T13:44:57Z</time>
      </trkpt>
      <trkpt lat="42.2794770" lon="-7.2385440">
        <ele>1002.1</ele>
        <time>2014-10-01T13:44:58Z</time>
      </trkpt>
      <trkpt lat="42.2794370" lon="-7.2385890">
        <ele>1002.2</ele>
        <time>2014-10-01T13:44:59Z</time>
      </trkpt>
      <trkpt lat="42.2794040" lon="-7.2386290">
        <ele>1002.3</ele>
        <time>2014-10-01T13:45:00Z</time>
      </trkpt>
      <trkpt lat="42.2793740" lon="-7.2386690">
        <ele>1002.3</ele>
        <time>2014-10-01T13:45:01Z</time>
      </trkpt>
      <trkpt lat="42.2793420" lon="-7.2387090">
        <ele>1002.3</ele>
        <time>2014-10-01T13:45:02Z</time>
      </trkpt>
      <trkpt lat="42.2793090" lon="-7.2387530">
        <ele>1002.3</ele>
        <time>2014-10-01T13:45:03Z</time>
      </trkpt>
      <trkpt lat="42.2792760" lon="-7.2387980">
        <ele>1002.3</ele>
        <time>2014-10-01T13:45:04Z</time>
      </trkpt>
      <trkpt lat="42.2792440" lon="-7.2388410">
        <ele>1002.4</ele>
        <time>2014-10-01T13:45:05Z</time>
      </trkpt>
      <trkpt lat="42.2792200" lon="-7.2388870">
        <ele>1002.4</ele>
        <time>2014-10-01T13:45:06Z</time>
      </trkpt>
      <trkpt lat="42.2791940" lon="-7.2389300">
        <ele>1002.4</ele>
        <time>2014-10-01T13:45:07Z</time>
      </trkpt>
      <trkpt lat="42.2791750" lon="-7.2389690">
        <ele>1002.4</ele>
        <time>2014-10-01T13:45:08Z</time>
      </trkpt>
      <trkpt lat="42.2791520" lon="-7.2390140">
        <ele>1002.4</ele>
        <time>2014-10-01T13:45:09Z</time>
      </trkpt>
      <trkpt lat="42.2791300" lon="-7.2390620">
        <ele>1002.5</ele>
        <time>2014-10-01T13:45:10Z</time>
      </trkpt>
      <trkpt lat="42.2791120" lon="-7.2391040">
        <ele>1002.5</ele>
        <time>2014-10-01T13:45:11Z</time>
      </trkpt>
      <trkpt lat="42.2790910" lon="-7.2391450">
        <ele>1002.5</ele>
        <time>2014-10-01T13:45:12Z</time>
      </trkpt>
      <trkpt lat="42.2790710" lon="-7.2391850">
        <ele>1002.6</ele>
        <time>2014-10-01T13:45:13Z</time>
      </trkpt>
      <trkpt lat="42.2790530" lon="-7.2392280">
        <ele>1002.7</ele>
        <time>2014-10-01T13:45:14Z</time>
      </trkpt>
      <trkpt lat="42.2790340" lon="-7.2392730">
        <ele>1002.8</ele>
        <time>2014-10-01T13:45:15Z</time>
      </trkpt>
      <trkpt lat="42.2790110" lon="-7.2393200">
        <ele>1002.9</ele>
        <time>2014-10-01T13:45:16Z</time>
      </trkpt>
      <trkpt lat="42.2789860" lon="-7.2393670">
        <ele>1003.0</ele>
        <time>2014-10-01T13:45:17Z</time>
      </trkpt>
      <trkpt lat="42.2789560" lon="-7.2394150">
        <ele>1003.1</ele>
        <time>2014-10-01T13:45:18Z</time>
      </trkpt>
      <trkpt lat="42.2789320" lon="-7.2394580">
        <ele>1003.2</ele>
        <time>2014-10-01T13:45:19Z</time>
      </trkpt>
      <trkpt lat="42.2789100" lon="-7.2395010">
        <ele>1003.3</ele>
        <time>2014-10-01T13:45:20Z</time>
      </trkpt>
      <trkpt lat="42.2788890" lon="-7.2395410">
        <ele>1003.4</ele>
        <time>2014-10-01T13:45:21Z</time>
      </trkpt>
      <trkpt lat="42.2788660" lon="-7.2395820">
        <ele>1003.5</ele>
        <time>2014-10-01T13:45:22Z</time>
      </trkpt>
      <trkpt lat="42.2788430" lon="-7.2396200">
        <ele>1003.7</ele>
        <time>2014-10-01T13:45:23Z</time>
      </trkpt>
      <trkpt lat="42.2788140" lon="-7.2396560">
        <ele>1003.8</ele>
        <time>2014-10-01T13:45:24Z</time>
      </trkpt>
      <trkpt lat="42.2787870" lon="-7.2396860">
        <ele>1003.9</ele>
        <time>2014-10-01T13:45:25Z</time>
      </trkpt>
      <trkpt lat="42.2787530" lon="-7.2397100">
        <ele>1004.1</ele>
        <time>2014-10-01T13:45:26Z</time>
      </trkpt>
      <trkpt lat="42.2787190" lon="-7.2397290">
        <ele>1004.2</ele>
        <time>2014-10-01T13:45:27Z</time>
      </trkpt>
      <trkpt lat="42.2786770" lon="-7.2397470">
        <ele>1004.4</ele>
        <time>2014-10-01T13:45:28Z</time>
      </trkpt>
      <trkpt lat="42.2786300" lon="-7.2397660">
        <ele>1004.6</ele>
        <time>2014-10-01T13:45:29Z</time>
      </trkpt>
      <trkpt lat="42.2785950" lon="-7.2397800">
        <ele>1004.8</ele>
        <time>2014-10-01T13:45:30Z</time>
      </trkpt>
      <trkpt lat="42.2785540" lon="-7.2397950">
        <ele>1005.0</ele>
        <time>2014-10-01T13:45:31Z</time>
      </trkpt>
      <trkpt lat="42.2785190" lon="-7.2398080">
        <ele>1005.2</ele>
        <time>2014-10-01T13:45:32Z</time>
      </trkpt>
      <trkpt lat="42.2784870" lon="-7.2398190">
        <ele>1005.3</ele>
        <time>2014-10-01T13:45:33Z</time>
      </trkpt>
      <trkpt lat="42.2784530" lon="-7.2398330">
        <ele>1005.5</ele>
        <time>2014-10-01T13:45:34Z</time>
      </trkpt>
      <trkpt lat="42.2784280" lon="-7.2398450">
        <ele>1005.7</ele>
        <time>2014-10-01T13:45:35Z</time>
      </trkpt>
      <trkpt lat="42.2784020" lon="-7.2398590">
        <ele>1005.8</ele>
        <time>2014-10-01T13:45:36Z</time>
      </trkpt>
      <trkpt lat="42.2783740" lon="-7.2398720">
        <ele>1006.0</ele>
        <time>2014-10-01T13:45:37Z</time>
      </trkpt>
      <trkpt lat="42.2783470" lon="-7.2398870">
        <ele>1006.2</ele>
        <time>2014-10-01T13:45:38Z</time>
      </trkpt>
      <trkpt lat="42.2783030" lon="-7.2399170">
        <ele>1006.5</ele>
        <time>2014-10-01T13:45:40Z</time>
      </trkpt>
      <trkpt lat="42.2782730" lon="-7.2399660">
        <ele>1006.7</ele>
        <time>2014-10-01T13:45:42Z</time>
      </trkpt>
      <trkpt lat="42.2782650" lon="-7.2400040">
        <ele>1006.9</ele>
        <time>2014-10-01T13:45:43Z</time>
      </trkpt>
      <trkpt lat="42.2782770" lon="-7.2400690">
        <ele>1007.3</ele>
        <time>2014-10-01T13:45:45Z</time>
      </trkpt>
      <trkpt lat="42.2783120" lon="-7.2401040">
        <ele>1007.7</ele>
        <time>2014-10-01T13:45:47Z</time>
      </trkpt>
      <trkpt lat="42.2783410" lon="-7.2401150">
        <ele>1008.0</ele>
        <time>2014-10-01T13:45:48Z</time>
      </trkpt>
      <trkpt lat="42.2783740" lon="-7.2401200">
        <ele>1008.3</ele>
        <time>2014-10-01T13:45:49Z</time>
      </trkpt>
      <trkpt lat="42.2784080" lon="-7.2401250">
        <ele>1008.5</ele>
        <time>2014-10-01T13:45:50Z</time>
      </trkpt>
      <trkpt lat="42.2784410" lon="-7.2401280">
        <ele>1008.8</ele>
        <time>2014-10-01T13:45:51Z</time>
      </trkpt>
      <trkpt lat="42.2784690" lon="-7.2401280">
        <ele>1009.0</ele>
        <time>2014-10-01T13:45:52Z</time>
      </trkpt>
      <trkpt lat="42.2785020" lon="-7.2401310">
        <ele>1009.2</ele>
        <time>2014-10-01T13:45:53Z</time>
      </trkpt>
      <trkpt lat="42.2785380" lon="-7.2401340">
        <ele>1009.5</ele>
        <time>2014-10-01T13:45:54Z</time>
      </trkpt>
      <trkpt lat="42.2785740" lon="-7.2401380">
        <ele>1009.8</ele>
        <time>2014-10-01T13:45:55Z</time>
      </trkpt>
      <trkpt lat="42.2786080" lon="-7.2401420">
        <ele>1010.0</ele>
        <time>2014-10-01T13:45:56Z</time>
      </trkpt>
      <trkpt lat="42.2786440" lon="-7.2401470">
        <ele>1010.2</ele>
        <time>2014-10-01T13:45:57Z</time>
      </trkpt>
      <trkpt lat="42.2786800" lon="-7.2401500">
        <ele>1010.5</ele>
        <time>2014-10-01T13:45:58Z</time>
      </trkpt>
      <trkpt lat="42.2787180" lon="-7.2401550">
        <ele>1010.7</ele>
        <time>2014-10-01T13:45:59Z</time>
      </trkpt>
      <trkpt lat="42.2787560" lon="-7.2401580">
        <ele>1011.0</ele>
        <time>2014-10-01T13:46:00Z</time>
      </trkpt>
      <trkpt lat="42.2787930" lon="-7.2401580">
        <ele>1011.2</ele>
        <time>2014-10-01T13:46:01Z</time>
      </trkpt>
      <trkpt lat="42.2788220" lon="-7.2401520">
        <ele>1011.4</ele>
        <time>2014-10-01T13:46:02Z</time>
      </trkpt>
      <trkpt lat="42.2788550" lon="-7.2401400">
        <ele>1011.6</ele>
        <time>2014-10-01T13:46:03Z</time>
      </trkpt>
      <trkpt lat="42.2788940" lon="-7.2401240">
        <ele>1011.8</ele>
        <time>2014-10-01T13:46:04Z</time>
      </trkpt>
      <trkpt lat="42.2789320" lon="-7.2401030">
        <ele>1012.1</ele>
        <time>2014-10-01T13:46:05Z</time>
      </trkpt>
      <trkpt lat="42.2789650" lon="-7.2400800">
        <ele>1012.3</ele>
        <time>2014-10-01T13:46:06Z</time>
      </trkpt>
      <trkpt lat="42.2789950" lon="-7.2400500">
        <ele>1012.6</ele>
        <time>2014-10-01T13:46:07Z</time>
      </trkpt>
      <trkpt lat="42.2790260" lon="-7.2400200">
        <ele>1012.8</ele>
        <time>2014-10-01T13:46:08Z</time>
      </trkpt>
      <trkpt lat="42.2790580" lon="-7.2399870">
        <ele>1013.1</ele>
        <time>2014-10-01T13:46:09Z</time>
      </trkpt>
      <trkpt lat="42.2790890" lon="-7.2399540">
        <ele>1013.4</ele>
        <time>2014-10-01T13:46:10Z</time>
      </trkpt>
      <trkpt lat="42.2791180" lon="-7.2399220">
        <ele>1013.6</ele>
        <time>2014-10-01T13:46:11Z</time>
      </trkpt>
      <trkpt lat="42.2791460" lon="-7.2398940">
        <ele>1013.9</ele>
        <time>2014-10-01T13:46:12Z</time>
      </trkpt>
      <trkpt lat="42.2791700" lon="-7.2398690">
        <ele>1014.2</ele>
        <time>2014-10-01T13:46:13Z</time>
      </trkpt>
      <trkpt lat="42.2791930" lon="-7.2398450">
        <ele>1014.5</ele>
        <time>2014-10-01T13:46:14Z</time>
      </trkpt>
      <trkpt lat="42.2792180" lon="-7.2398200">
        <ele>1014.7</ele>
        <time>2014-10-01T13:46:15Z</time>
      </trkpt>
      <trkpt lat="42.2792400" lon="-7.2397960">
        <ele>1015.0</ele>
        <time>2014-10-01T13:46:16Z</time>
      </trkpt>
      <trkpt lat="42.2792620" lon="-7.2397720">
        <ele>1015.3</ele>
        <time>2014-10-01T13:46:17Z</time>
      </trkpt>
      <trkpt lat="42.2792830" lon="-7.2397480">
        <ele>1015.5</ele>
        <time>2014-10-01T13:46:18Z</time>
      </trkpt>
      <trkpt lat="42.2793050" lon="-7.2397230">
        <ele>1015.8</ele>
        <time>2014-10-01T13:46:19Z</time>
      </trkpt>
      <trkpt lat="42.2793240" lon="-7.2396950">
        <ele>1016.1</ele>
        <time>2014-10-01T13:46:20Z</time>
      </trkpt>
      <trkpt lat="42.2793420" lon="-7.2396660">
        <ele>1016.3</ele>
        <time>2014-10-01T13:46:21Z</time>
      </trkpt>
      <trkpt lat="42.2793610" lon="-7.2396400">
        <ele>1016.6</ele>
        <time>2014-10-01T13:46:22Z</time>
      </trkpt>
      <trkpt lat="42.2793950" lon="-7.2395910">
        <ele>1017.1</ele>
        <time>2014-10-01T13:46:24Z</time>
      </trkpt>
      <trkpt lat="42.2794270" lon="-7.2395410">
        <ele>1017.7</ele>
        <time>2014-10-01T13:46:26Z</time>
      </trkpt>
      <trkpt lat="42.2794580" lon="-7.2394910">
        <ele>1018.2</ele>
        <time>2014-10-01T13:46:28Z</time>
      </trkpt>
      <trkpt lat="42.2794900" lon="-7.2394450">
        <ele>1018.7</ele>
        <time>2014-10-01T13:46:30Z</time>
      </trkpt>
      <trkpt lat="42.2795290" lon="-7.2394020">
        <ele>1019.2</ele>
        <time>2014-10-01T13:46:32Z</time>
      </trkpt>
      <trkpt lat="42.2795700" lon="-7.2393590">
        <ele>1019.7</ele>
        <time>2014-10-01T13:46:34Z</time>
      </trkpt>
      <trkpt lat="42.2796120" lon="-7.2393250">
        <ele>1020.3</ele>
        <time>2014-10-01T13:46:36Z</time>
      </trkpt>
      <trkpt lat="42.2796550" lon="-7.2392920">
        <ele>1020.8</ele>
        <time>2014-10-01T13:46:38Z</time>
      </trkpt>
      <trkpt lat="42.2797000" lon="-7.2392630">
        <ele>1021.3</ele>
        <time>2014-10-01T13:46:40Z</time>
      </trkpt>
      <trkpt lat="42.2797480" lon="-7.2392360">
        <ele>1021.9</ele>
        <time>2014-10-01T13:46:42Z</time>
      </trkpt>
      <trkpt lat="42.2797930" lon="-7.2392180">
        <ele>1022.4</ele>
        <time>2014-10-01T13:46:44Z</time>
      </trkpt>
      <trkpt lat="42.2798400" lon="-7.2392030">
        <ele>1023.0</ele>
        <time>2014-10-01T13:46:46Z</time>
      </trkpt>
      <trkpt lat="42.2798870" lon="-7.2391870">
        <ele>1023.6</ele>
        <time>2014-10-01T13:46:48Z</time>
      </trkpt>
      <trkpt lat="42.2799300" lon="-7.2391720">
        <ele>1024.2</ele>
        <time>2014-10-01T13:46:50Z</time>
      </trkpt>
      <trkpt lat="42.2799740" lon="-7.2391590">
        <ele>1024.8</ele>
        <time>2014-10-01T13:46:52Z</time>
      </trkpt>
      <trkpt lat="42.2800260" lon="-7.2391510">
        <ele>1025.4</ele>
        <time>2014-10-01T13:46:54Z</time>
      </trkpt>
      <trkpt lat="42.2800770" lon="-7.2391470">
        <ele>1026.0</ele>
        <time>2014-10-01T13:46:56Z</time>
      </trkpt>
      <trkpt lat="42.2801300" lon="-7.2391420">
        <ele>1026.6</ele>
        <time>2014-10-01T13:46:58Z</time>
      </trkpt>
      <trkpt lat="42.2801810" lon="-7.2391360">
        <ele>1027.1</ele>
        <time>2014-10-01T13:47:00Z</time>
      </trkpt>
      <trkpt lat="42.2802300" lon="-7.2391320">
        <ele>1027.6</ele>
        <time>2014-10-01T13:47:02Z</time>
      </trkpt>
      <trkpt lat="42.2802790" lon="-7.2391300">
        <ele>1028.1</ele>
        <time>2014-10-01T13:47:04Z</time>
      </trkpt>
      <trkpt lat="42.2803260" lon="-7.2391250">
        <ele>1028.5</ele>
        <time>2014-10-01T13:47:06Z</time>
      </trkpt>
      <trkpt lat="42.2803710" lon="-7.2391200">
        <ele>1028.9</ele>
        <time>2014-10-01T13:47:08Z</time>
      </trkpt>
      <trkpt lat="42.2804180" lon="-7.2391160">
        <ele>1029.3</ele>
        <time>2014-10-01T13:47:10Z</time>
      </trkpt>
      <trkpt lat="42.2804650" lon="-7.2391100">
        <ele>1029.8</ele>
        <time>2014-10-01T13:47:12Z</time>
      </trkpt>
      <trkpt lat="42.2805150" lon="-7.2391020">
        <ele>1030.2</ele>
        <time>2014-10-01T13:47:14Z</time>
      </trkpt>
      <trkpt lat="42.2805680" lon="-7.2390990">
        <ele>1030.7</ele>
        <time>2014-10-01T13:47:16Z</time>
      </trkpt>
      <trkpt lat="42.2806220" lon="-7.2391000">
        <ele>1031.2</ele>
        <time>2014-10-01T13:47:18Z</time>
      </trkpt>
      <trkpt lat="42.2806500" lon="-7.2391010">
        <ele>1031.5</ele>
        <time>2014-10-01T13:47:19Z</time>
      </trkpt>
      <trkpt lat="42.2807040" lon="-7.2391000">
        <ele>1031.9</ele>
        <time>2014-10-01T13:47:21Z</time>
      </trkpt>
      <trkpt lat="42.2807310" lon="-7.2391020">
        <ele>1032.2</ele>
        <time>2014-10-01T13:47:22Z</time>
      </trkpt>
      <trkpt lat="42.2807600" lon="-7.2391040">
        <ele>1032.5</ele>
        <time>2014-10-01T13:47:23Z</time>
      </trkpt>
      <trkpt lat="42.2807920" lon="-7.2391080">
        <ele>1032.7</ele>
        <time>2014-10-01T13:47:24Z</time>
      </trkpt>
      <trkpt lat="42.2808250" lon="-7.2391110">
        <ele>1033.0</ele>
        <time>2014-10-01T13:47:25Z</time>
      </trkpt>
      <trkpt lat="42.2808560" lon="-7.2391130">
        <ele>1033.3</ele>
        <time>2014-10-01T13:47:26Z</time>
      </trkpt>
      <trkpt lat="42.2808870" lon="-7.2391120">
        <ele>1033.5</ele>
        <time>2014-10-01T13:47:27Z</time>
      </trkpt>
      <trkpt lat="42.2809180" lon="-7.2391100">
        <ele>1033.7</ele>
        <time>2014-10-01T13:47:28Z</time>
      </trkpt>
      <trkpt lat="42.2809490" lon="-7.2391100">
        <ele>1034.0</ele>
        <time>2014-10-01T13:47:29Z</time>
      </trkpt>
      <trkpt lat="42.2809820" lon="-7.2391120">
        <ele>1034.3</ele>
        <time>2014-10-01T13:47:30Z</time>
      </trkpt>
      <trkpt lat="42.2810090" lon="-7.2391140">
        <ele>1034.5</ele>
        <time>2014-10-01T13:47:31Z</time>
      </trkpt>
      <trkpt lat="42.2810640" lon="-7.2391250">
        <ele>1034.9</ele>
        <time>2014-10-01T13:47:33Z</time>
      </trkpt>
      <trkpt lat="42.2810920" lon="-7.2391370">
        <ele>1035.2</ele>
        <time>2014-10-01T13:47:34Z</time>
      </trkpt>
      <trkpt lat="42.2811220" lon="-7.2391470">
        <ele>1035.4</ele>
        <time>2014-10-01T13:47:35Z</time>
      </trkpt>
      <trkpt lat="42.2811530" lon="-7.2391620">
        <ele>1035.7</ele>
        <time>2014-10-01T13:47:36Z</time>
      </trkpt>
      <trkpt lat="42.2811850" lon="-7.2391790">
        <ele>1036.0</ele>
        <time>2014-10-01T13:47:37Z</time>
      </trkpt>
      <trkpt lat="42.2812190" lon="-7.2391980">
        <ele>1036.4</ele>
        <time>2014-10-01T13:47:38Z</time>
      </trkpt>
      <trkpt lat="42.2812490" lon="-7.2392190">
        <ele>1036.7</ele>
        <time>2014-10-01T13:47:39Z</time>
      </trkpt>
      <trkpt lat="42.2812760" lon="-7.2392390">
        <ele>1037.0</ele>
        <time>2014-10-01T13:47:40Z</time>
      </trkpt>
      <trkpt lat="42.2813140" lon="-7.2392760">
        <ele>1037.4</ele>
        <time>2014-10-01T13:47:42Z</time>
      </trkpt>
      <trkpt lat="42.2813440" lon="-7.2393170">
        <ele>1037.9</ele>
        <time>2014-10-01T13:47:44Z</time>
      </trkpt>
      <trkpt lat="42.2813670" lon="-7.2393500">
        <ele>1038.3</ele>
        <time>2014-10-01T13:47:45Z</time>
      </trkpt>
      <trkpt lat="42.2813800" lon="-7.2393870">
        <ele>1038.6</ele>
        <time>2014-10-01T13:47:46Z</time>
      </trkpt>
      <trkpt lat="42.2813910" lon="-7.2394310">
        <ele>1039.0</ele>
        <time>2014-10-01T13:47:47Z</time>
      </trkpt>
      <trkpt lat="42.2813970" lon="-7.2394780">
        <ele>1039.4</ele>
        <time>2014-10-01T13:47:48Z</time>
      </trkpt>
      <trkpt lat="42.2814000" lon="-7.2395230">
        <ele>1039.8</ele>
        <time>2014-10-01T13:47:49Z</time>
      </trkpt>
      <trkpt lat="42.2814000" lon="-7.2395620">
        <ele>1040.1</ele>
        <time>2014-10-01T13:47:50Z</time>
      </trkpt>
      <trkpt lat="42.2813980" lon="-7.2396280">
        <ele>1040.6</ele>
        <time>2014-10-01T13:47:52Z</time>
      </trkpt>
      <trkpt lat="42.2813870" lon="-7.2396950">
        <ele>1041.6</ele>
        <time>2014-10-01T13:47:54Z</time>
      </trkpt>
      <trkpt lat="42.2813790" lon="-7.2397310">
        <ele>1042.1</ele>
        <time>2014-10-01T13:47:55Z</time>
      </trkpt>
      <trkpt lat="42.2813680" lon="-7.2397650">
        <ele>1042.6</ele>
        <time>2014-10-01T13:47:56Z</time>
      </trkpt>
      <trkpt lat="42.2813570" lon="-7.2398000">
        <ele>1043.1</ele>
        <time>2014-10-01T13:47:57Z</time>
      </trkpt>
      <trkpt lat="42.2813360" lon="-7.2398670">
        <ele>1043.9</ele>
        <time>2014-10-01T13:47:59Z</time>
      </trkpt>
      <trkpt lat="42.2813120" lon="-7.2399270">
        <ele>1044.6</ele>
        <time>2014-10-01T13:48:01Z</time>
      </trkpt>
      <trkpt lat="42.2812840" lon="-7.2399850">
        <ele>1045.2</ele>
        <time>2014-10-01T13:48:03Z</time>
      </trkpt>
      <trkpt lat="42.2812560" lon="-7.2400390">
        <ele>1045.8</ele>
        <time>2014-10-01T13:48:05Z</time>
      </trkpt>
      <trkpt lat="42.2812250" lon="-7.2400930">
        <ele>1046.5</ele>
        <time>2014-10-01T13:48:07Z</time>
      </trkpt>
      <trkpt lat="42.2811930" lon="-7.2401480">
        <ele>1047.2</ele>
        <time>2014-10-01T13:48:09Z</time>
      </trkpt>
      <trkpt lat="42.2811600" lon="-7.2402020">
        <ele>1047.9</ele>
        <time>2014-10-01T13:48:11Z</time>
      </trkpt>
      <trkpt lat="42.2811420" lon="-7.2402310">
        <ele>1048.3</ele>
        <time>2014-10-01T13:48:12Z</time>
      </trkpt>
      <trkpt lat="42.2811120" lon="-7.2402870">
        <ele>1049.0</ele>
        <time>2014-10-01T13:48:14Z</time>
      </trkpt>
      <trkpt lat="42.2810870" lon="-7.2403340">
        <ele>1049.5</ele>
        <time>2014-10-01T13:48:16Z</time>
      </trkpt>
      <trkpt lat="42.2810640" lon="-7.2403790">
        <ele>1050.1</ele>
        <time>2014-10-01T13:48:18Z</time>
      </trkpt>
      <trkpt lat="42.2810410" lon="-7.2404240">
        <ele>1050.6</ele>
        <time>2014-10-01T13:48:20Z</time>
      </trkpt>
      <trkpt lat="42.2810120" lon="-7.2404700">
        <ele>1051.3</ele>
        <time>2014-10-01T13:48:22Z</time>
      </trkpt>
      <trkpt lat="42.2809850" lon="-7.2405170">
        <ele>1051.9</ele>
        <time>2014-10-01T13:48:24Z</time>
      </trkpt>
      <trkpt lat="42.2809580" lon="-7.2405610">
        <ele>1052.6</ele>
        <time>2014-10-01T13:48:26Z</time>
      </trkpt>
      <trkpt lat="42.2809340" lon="-7.2406100">
        <ele>1053.2</ele>
        <time>2014-10-01T13:48:28Z</time>
      </trkpt>
      <trkpt lat="42.2809070" lon="-7.2406550">
        <ele>1053.8</ele>
        <time>2014-10-01T13:48:30Z</time>
      </trkpt>
      <trkpt lat="42.2808820" lon="-7.2407000">
        <ele>1054.4</ele>
        <time>2014-10-01T13:48:32Z</time>
      </trkpt>
      <trkpt lat="42.2808580" lon="-7.2407470">
        <ele>1055.0</ele>
        <time>2014-10-01T13:48:34Z</time>
      </trkpt>
      <trkpt lat="42.2808340" lon="-7.2407980">
        <ele>1055.7</ele>
        <time>2014-10-01T13:48:36Z</time>
      </trkpt>
      <trkpt lat="42.2808090" lon="-7.2408500">
        <ele>1056.3</ele>
        <time>2014-10-01T13:48:38Z</time>
      </trkpt>
      <trkpt lat="42.2807840" lon="-7.2409000">
        <ele>1057.0</ele>
        <time>2014-10-01T13:48:40Z</time>
      </trkpt>
      <trkpt lat="42.2807600" lon="-7.2409500">
        <ele>1057.6</ele>
        <time>2014-10-01T13:48:42Z</time>
      </trkpt>
      <trkpt lat="42.2807430" lon="-7.2409990">
        <ele>1058.2</ele>
        <time>2014-10-01T13:48:44Z</time>
      </trkpt>
      <trkpt lat="42.2807250" lon="-7.2410520">
        <ele>1058.9</ele>
        <time>2014-10-01T13:48:46Z</time>
      </trkpt>
      <trkpt lat="42.2807120" lon="-7.2411060">
        <ele>1059.5</ele>
        <time>2014-10-01T13:48:48Z</time>
      </trkpt>
      <trkpt lat="42.2807010" lon="-7.2411640">
        <ele>1060.1</ele>
        <time>2014-10-01T13:48:50Z</time>
      </trkpt>
      <trkpt lat="42.2806920" lon="-7.2412220">
        <ele>1060.7</ele>
        <time>2014-10-01T13:48:52Z</time>
      </trkpt>
      <trkpt lat="42.2806810" lon="-7.2412770">
        <ele>1061.3</ele>
        <time>2014-10-01T13:48:54Z</time>
      </trkpt>
      <trkpt lat="42.2806700" lon="-7.2413340">
        <ele>1062.0</ele>
        <time>2014-10-01T13:48:56Z</time>
      </trkpt>
      <trkpt lat="42.2806640" lon="-7.2413940">
        <ele>1062.6</ele>
        <time>2014-10-01T13:48:58Z</time>
      </trkpt>
      <trkpt lat="42.2806590" lon="-7.2414510">
        <ele>1063.3</ele>
        <time>2014-10-01T13:49:00Z</time>
      </trkpt>
      <trkpt lat="42.2806480" lon="-7.2415020">
        <ele>1063.8</ele>
        <time>2014-10-01T13:49:02Z</time>
      </trkpt>
      <trkpt lat="42.2806350" lon="-7.2415550">
        <ele>1064.4</ele>
        <time>2014-10-01T13:49:04Z</time>
      </trkpt>
      <trkpt lat="42.2806210" lon="-7.2416100">
        <ele>1065.1</ele>
        <time>2014-10-01T13:49:06Z</time>
      </trkpt>
      <trkpt lat="42.2806110" lon="-7.2416630">
        <ele>1065.6</ele>
        <time>2014-10-01T13:49:08Z</time>
      </trkpt>
      <trkpt lat="42.2806010" lon="-7.2417160">
        <ele>1066.2</ele>
        <time>2014-10-01T13:49:10Z</time>
      </trkpt>
      <trkpt lat="42.2805880" lon="-7.2417720">
        <ele>1066.8</ele>
        <time>2014-10-01T13:49:12Z</time>
      </trkpt>
      <trkpt lat="42.2805740" lon="-7.2418290">
        <ele>1067.4</ele>
        <time>2014-10-01T13:49:14Z</time>
      </trkpt>
      <trkpt lat="42.2805600" lon="-7.2418980">
        <ele>1068.1</ele>
        <time>2014-10-01T13:49:16Z</time>
      </trkpt>
      <trkpt lat="42.2805440" lon="-7.2419630">
        <ele>1068.7</ele>
        <time>2014-10-01T13:49:18Z</time>
      </trkpt>
      <trkpt lat="42.2805320" lon="-7.2420300">
        <ele>1069.3</ele>
        <time>2014-10-01T13:49:20Z</time>
      </trkpt>
      <trkpt lat="42.2805190" lon="-7.2420980">
        <ele>1069.9</ele>
        <time>2014-10-01T13:49:22Z</time>
      </trkpt>
      <trkpt lat="42.2804990" lon="-7.2421650">
        <ele>1070.5</ele>
        <time>2014-10-01T13:49:24Z</time>
      </trkpt>
      <trkpt lat="42.2804880" lon="-7.2422000">
        <ele>1070.9</ele>
        <time>2014-10-01T13:49:25Z</time>
      </trkpt>
      <trkpt lat="42.2804750" lon="-7.2422340">
        <ele>1071.2</ele>
        <time>2014-10-01T13:49:26Z</time>
      </trkpt>
      <trkpt lat="42.2804630" lon="-7.2422670">
        <ele>1071.5</ele>
        <time>2014-10-01T13:49:27Z</time>
      </trkpt>
      <trkpt lat="42.2804370" lon="-7.2423290">
        <ele>1072.1</ele>
        <time>2014-10-01T13:49:29Z</time>
      </trkpt>
      <trkpt lat="42.2804110" lon="-7.2423910">
        <ele>1072.7</ele>
        <time>2014-10-01T13:49:31Z</time>
      </trkpt>
      <trkpt lat="42.2803870" lon="-7.2424450">
        <ele>1073.3</ele>
        <time>2014-10-01T13:49:33Z</time>
      </trkpt>
      <trkpt lat="42.2803600" lon="-7.2425030">
        <ele>1073.9</ele>
        <time>2014-10-01T13:49:35Z</time>
      </trkpt>
      <trkpt lat="42.2803310" lon="-7.2425600">
        <ele>1074.5</ele>
        <time>2014-10-01T13:49:37Z</time>
      </trkpt>
      <trkpt lat="42.2803160" lon="-7.2425910">
        <ele>1074.9</ele>
        <time>2014-10-01T13:49:38Z</time>
      </trkpt>
      <trkpt lat="42.2803010" lon="-7.2426220">
        <ele>1075.2</ele>
        <time>2014-10-01T13:49:39Z</time>
      </trkpt>
      <trkpt lat="42.2802730" lon="-7.2426800">
        <ele>1075.9</ele>
        <time>2014-10-01T13:49:41Z</time>
      </trkpt>
      <trkpt lat="42.2802480" lon="-7.2427380">
        <ele>1076.6</ele>
        <time>2014-10-01T13:49:43Z</time>
      </trkpt>
      <trkpt lat="42.2802250" lon="-7.2427900">
        <ele>1077.2</ele>
        <time>2014-10-01T13:49:45Z</time>
      </trkpt>
      <trkpt lat="42.2802090" lon="-7.2428280">
        <ele>1077.7</ele>
        <time>2014-10-01T13:49:47Z</time>
      </trkpt>
      <trkpt lat="42.2801830" lon="-7.2428820">
        <ele>1078.4</ele>
        <time>2014-10-01T13:49:49Z</time>
      </trkpt>
      <trkpt lat="42.2801620" lon="-7.2429300">
        <ele>1079.1</ele>
        <time>2014-10-01T13:49:51Z</time>
      </trkpt>
      <trkpt lat="42.2801430" lon="-7.2429780">
        <ele>1079.7</ele>
        <time>2014-10-01T13:49:53Z</time>
      </trkpt>
      <trkpt lat="42.2801250" lon="-7.2430260">
        <ele>1080.3</ele>
        <time>2014-10-01T13:49:55Z</time>
      </trkpt>
      <trkpt lat="42.2801080" lon="-7.2430800">
        <ele>1080.8</ele>
        <time>2014-10-01T13:49:57Z</time>
      </trkpt>
      <trkpt lat="42.2800940" lon="-7.2431280">
        <ele>1081.3</ele>
        <time>2014-10-01T13:49:59Z</time>
      </trkpt>
      <trkpt lat="42.2800790" lon="-7.2431730">
        <ele>1081.7</ele>
        <time>2014-10-01T13:50:01Z</time>
      </trkpt>
      <trkpt lat="42.2800620" lon="-7.2432210">
        <ele>1082.2</ele>
        <time>2014-10-01T13:50:03Z</time>
      </trkpt>
      <trkpt lat="42.2800400" lon="-7.2432720">
        <ele>1082.7</ele>
        <time>2014-10-01T13:50:05Z</time>
      </trkpt>
      <trkpt lat="42.2800200" lon="-7.2433210">
        <ele>1083.2</ele>
        <time>2014-10-01T13:50:07Z</time>
      </trkpt>
      <trkpt lat="42.2799990" lon="-7.2433680">
        <ele>1083.7</ele>
        <time>2014-10-01T13:50:09Z</time>
      </trkpt>
      <trkpt lat="42.2799800" lon="-7.2434070">
        <ele>1084.0</ele>
        <time>2014-10-01T13:50:11Z</time>
      </trkpt>
      <trkpt lat="42.2799570" lon="-7.2434590">
        <ele>1084.5</ele>
        <time>2014-10-01T13:50:13Z</time>
      </trkpt>
      <trkpt lat="42.2799390" lon="-7.2435260">
        <ele>1085.0</ele>
        <time>2014-10-01T13:50:15Z</time>
      </trkpt>
      <trkpt lat="42.2799270" lon="-7.2435600">
        <ele>1085.3</ele>
        <time>2014-10-01T13:50:16Z</time>
      </trkpt>
      <trkpt lat="42.2799160" lon="-7.2435950">
        <ele>1085.6</ele>
        <time>2014-10-01T13:50:17Z</time>
      </trkpt>
      <trkpt lat="42.2799050" lon="-7.2436570">
        <ele>1086.1</ele>
        <time>2014-10-01T13:50:19Z</time>
      </trkpt>
      <trkpt lat="42.2798970" lon="-7.2437210">
        <ele>1086.5</ele>
        <time>2014-10-01T13:50:21Z</time>
      </trkpt>
      <trkpt lat="42.2798950" lon="-7.2437920">
        <ele>1087.0</ele>
        <time>2014-10-01T13:50:23Z</time>
      </trkpt>
      <trkpt lat="42.2798950" lon="-7.2438570">
        <ele>1087.5</ele>
        <time>2014-10-01T13:50:25Z</time>
      </trkpt>
      <trkpt lat="42.2798930" lon="-7.2439240">
        <ele>1087.9</ele>
        <time>2014-10-01T13:50:27Z</time>
      </trkpt>
      <trkpt lat="42.2798950" lon="-7.2439870">
        <ele>1088.4</ele>
        <time>2014-10-01T13:50:29Z</time>
      </trkpt>
      <trkpt lat="42.2799060" lon="-7.2440480">
        <ele>1088.8</ele>
        <time>2014-10-01T13:50:31Z</time>
      </trkpt>
      <trkpt lat="42.2799200" lon="-7.2441140">
        <ele>1089.2</ele>
        <time>2014-10-01T13:50:33Z</time>
      </trkpt>
      <trkpt lat="42.2799280" lon="-7.2441490">
        <ele>1089.5</ele>
        <time>2014-10-01T13:50:34Z</time>
      </trkpt>
      <trkpt lat="42.2799460" lon="-7.2442160">
        <ele>1089.9</ele>
        <time>2014-10-01T13:50:36Z</time>
      </trkpt>
      <trkpt lat="42.2799630" lon="-7.2442830">
        <ele>1090.4</ele>
        <time>2014-10-01T13:50:38Z</time>
      </trkpt>
      <trkpt lat="42.2799880" lon="-7.2443490">
        <ele>1090.8</ele>
        <time>2014-10-01T13:50:40Z</time>
      </trkpt>
      <trkpt lat="42.2800000" lon="-7.2443820">
        <ele>1091.0</ele>
        <time>2014-10-01T13:50:41Z</time>
      </trkpt>
      <trkpt lat="42.2800200" lon="-7.2444490">
        <ele>1091.5</ele>
        <time>2014-10-01T13:50:43Z</time>
      </trkpt>
      <trkpt lat="42.2800340" lon="-7.2445090">
        <ele>1091.9</ele>
        <time>2014-10-01T13:50:45Z</time>
      </trkpt>
      <trkpt lat="42.2800470" lon="-7.2445700">
        <ele>1092.3</ele>
        <time>2014-10-01T13:50:47Z</time>
      </trkpt>
      <trkpt lat="42.2800610" lon="-7.2446350">
        <ele>1092.8</ele>
        <time>2014-10-01T13:50:49Z</time>
      </trkpt>
      <trkpt lat="42.2800730" lon="-7.2446930">
        <ele>1093.2</ele>
        <time>2014-10-01T13:50:51Z</time>
      </trkpt>
      <trkpt lat="42.2800900" lon="-7.2447580">
        <ele>1093.7</ele>
        <time>2014-10-01T13:50:53Z</time>
      </trkpt>
      <trkpt lat="42.2801030" lon="-7.2448180">
        <ele>1094.2</ele>
        <time>2014-10-01T13:50:55Z</time>
      </trkpt>
      <trkpt lat="42.2801100" lon="-7.2448740">
        <ele>1094.6</ele>
        <time>2014-10-01T13:50:57Z</time>
      </trkpt>
      <trkpt lat="42.2801250" lon="-7.2449260">
        <ele>1095.1</ele>
        <time>2014-10-01T13:50:59Z</time>
      </trkpt>
      <trkpt lat="42.2801400" lon="-7.2449740">
        <ele>1095.5</ele>
        <time>2014-10-01T13:51:01Z</time>
      </trkpt>
      <trkpt lat="42.2801510" lon="-7.2450190">
        <ele>1095.9</ele>
        <time>2014-10-01T13:51:03Z</time>
      </trkpt>
      <trkpt lat="42.2801560" lon="-7.2450670">
        <ele>1096.2</ele>
        <time>2014-10-01T13:51:05Z</time>
      </trkpt>
      <trkpt lat="42.2801630" lon="-7.2451170">
        <ele>1096.6</ele>
        <time>2014-10-01T13:51:07Z</time>
      </trkpt>
      <trkpt lat="42.2801710" lon="-7.2451750">
        <ele>1097.1</ele>
        <time>2014-10-01T13:51:09Z</time>
      </trkpt>
      <trkpt lat="42.2801840" lon="-7.2452220">
        <ele>1097.5</ele>
        <time>2014-10-01T13:51:11Z</time>
      </trkpt>
      <trkpt lat="42.2801960" lon="-7.2452670">
        <ele>1097.9</ele>
        <time>2014-10-01T13:51:13Z</time>
      </trkpt>
      <trkpt lat="42.2802010" lon="-7.2453040">
        <ele>1098.2</ele>
        <time>2014-10-01T13:51:15Z</time>
      </trkpt>
      <trkpt lat="42.2802110" lon="-7.2453630">
        <ele>1098.6</ele>
        <time>2014-10-01T13:51:18Z</time>
      </trkpt>
      <trkpt lat="42.2802260" lon="-7.2454090">
        <ele>1099.0</ele>
        <time>2014-10-01T13:51:20Z</time>
      </trkpt>
      <trkpt lat="42.2802440" lon="-7.2454530">
        <ele>1099.4</ele>
        <time>2014-10-01T13:51:22Z</time>
      </trkpt>
      <trkpt lat="42.2802620" lon="-7.2455030">
        <ele>1099.9</ele>
        <time>2014-10-01T13:51:24Z</time>
      </trkpt>
      <trkpt lat="42.2802710" lon="-7.2455520">
        <ele>1100.2</ele>
        <time>2014-10-01T13:51:26Z</time>
      </trkpt>
      <trkpt lat="42.2802780" lon="-7.2455960">
        <ele>1100.6</ele>
        <time>2014-10-01T13:51:28Z</time>
      </trkpt>
      <trkpt lat="42.2802960" lon="-7.2456450">
        <ele>1100.9</ele>
        <time>2014-10-01T13:51:30Z</time>
      </trkpt>
      <trkpt lat="42.2803140" lon="-7.2457000">
        <ele>1101.3</ele>
        <time>2014-10-01T13:51:32Z</time>
      </trkpt>
      <trkpt lat="42.2803320" lon="-7.2457530">
        <ele>1101.7</ele>
        <time>2014-10-01T13:51:34Z</time>
      </trkpt>
      <trkpt lat="42.2803400" lon="-7.2458020">
        <ele>1102.0</ele>
        <time>2014-10-01T13:51:36Z</time>
      </trkpt>
      <trkpt lat="42.2803480" lon="-7.2458600">
        <ele>1102.4</ele>
        <time>2014-10-01T13:51:38Z</time>
      </trkpt>
      <trkpt lat="42.2803600" lon="-7.2459200">
        <ele>1102.8</ele>
        <time>2014-10-01T13:51:40Z</time>
      </trkpt>
      <trkpt lat="42.2803760" lon="-7.2459760">
        <ele>1103.2</ele>
        <time>2014-10-01T13:51:42Z</time>
      </trkpt>
      <trkpt lat="42.2803820" lon="-7.2460270">
        <ele>1103.5</ele>
        <time>2014-10-01T13:51:44Z</time>
      </trkpt>
      <trkpt lat="42.2803940" lon="-7.2460890">
        <ele>1103.9</ele>
        <time>2014-10-01T13:51:46Z</time>
      </trkpt>
      <trkpt lat="42.2804010" lon="-7.2461480">
        <ele>1104.3</ele>
        <time>2014-10-01T13:51:48Z</time>
      </trkpt>
      <trkpt lat="42.2804080" lon="-7.2462200">
        <ele>1104.7</ele>
        <time>2014-10-01T13:51:50Z</time>
      </trkpt>
      <trkpt lat="42.2804140" lon="-7.2462570">
        <ele>1104.9</ele>
        <time>2014-10-01T13:51:51Z</time>
      </trkpt>
      <trkpt lat="42.2804220" lon="-7.2462930">
        <ele>1105.2</ele>
        <time>2014-10-01T13:51:52Z</time>
      </trkpt>
      <trkpt lat="42.2804430" lon="-7.2463560">
        <ele>1105.6</ele>
        <time>2014-10-01T13:51:54Z</time>
      </trkpt>
      <trkpt lat="42.2804670" lon="-7.2464160">
        <ele>1106.0</ele>
        <time>2014-10-01T13:51:56Z</time>
      </trkpt>
      <trkpt lat="42.2804810" lon="-7.2464500">
        <ele>1106.2</ele>
        <time>2014-10-01T13:51:57Z</time>
      </trkpt>
      <trkpt lat="42.2804910" lon="-7.2464860">
        <ele>1106.4</ele>
        <time>2014-10-01T13:51:58Z</time>
      </trkpt>
      <trkpt lat="42.2805100" lon="-7.2465490">
        <ele>1106.9</ele>
        <time>2014-10-01T13:52:00Z</time>
      </trkpt>
      <trkpt lat="42.2805230" lon="-7.2466130">
        <ele>1107.3</ele>
        <time>2014-10-01T13:52:02Z</time>
      </trkpt>
      <trkpt lat="42.2805350" lon="-7.2466760">
        <ele>1107.7</ele>
        <time>2014-10-01T13:52:04Z</time>
      </trkpt>
      <trkpt lat="42.2805480" lon="-7.2467420">
        <ele>1108.1</ele>
        <time>2014-10-01T13:52:06Z</time>
      </trkpt>
      <trkpt lat="42.2805710" lon="-7.2468080">
        <ele>1108.6</ele>
        <time>2014-10-01T13:52:08Z</time>
      </trkpt>
      <trkpt lat="42.2805810" lon="-7.2468440">
        <ele>1108.9</ele>
        <time>2014-10-01T13:52:09Z</time>
      </trkpt>
      <trkpt lat="42.2805910" lon="-7.2468800">
        <ele>1109.1</ele>
        <time>2014-10-01T13:52:10Z</time>
      </trkpt>
      <trkpt lat="42.2806090" lon="-7.2469440">
        <ele>1109.6</ele>
        <time>2014-10-01T13:52:12Z</time>
      </trkpt>
      <trkpt lat="42.2806180" lon="-7.2469820">
        <ele>1110.0</ele>
        <time>2014-10-01T13:52:13Z</time>
      </trkpt>
      <trkpt lat="42.2806240" lon="-7.2470200">
        <ele>1110.3</ele>
        <time>2014-10-01T13:52:14Z</time>
      </trkpt>
      <trkpt lat="42.2806310" lon="-7.2470890">
        <ele>1110.8</ele>
        <time>2014-10-01T13:52:16Z</time>
      </trkpt>
      <trkpt lat="42.2806340" lon="-7.2471420">
        <ele>1111.3</ele>
        <time>2014-10-01T13:52:18Z</time>
      </trkpt>
      <trkpt lat="42.2806410" lon="-7.2471990">
        <ele>1111.8</ele>
        <time>2014-10-01T13:52:20Z</time>
      </trkpt>
      <trkpt lat="42.2806480" lon="-7.2472590">
        <ele>1112.3</ele>
        <time>2014-10-01T13:52:22Z</time>
      </trkpt>
      <trkpt lat="42.2806510" lon="-7.2473090">
        <ele>1112.8</ele>
        <time>2014-10-01T13:52:24Z</time>
      </trkpt>
      <trkpt lat="42.2806630" lon="-7.2473630">
        <ele>1113.3</ele>
        <time>2014-10-01T13:52:26Z</time>
      </trkpt>
      <trkpt lat="42.2806740" lon="-7.2474070">
        <ele>1113.7</ele>
        <time>2014-10-01T13:52:28Z</time>
      </trkpt>
      <trkpt lat="42.2806780" lon="-7.2474550">
        <ele>1114.2</ele>
        <time>2014-10-01T13:52:30Z</time>
      </trkpt>
      <trkpt lat="42.2806840" lon="-7.2475030">
        <ele>1114.6</ele>
        <time>2014-10-01T13:52:32Z</time>
      </trkpt>
      <trkpt lat="42.2806950" lon="-7.2475600">
        <ele>1115.2</ele>
        <time>2014-10-01T13:52:34Z</time>
      </trkpt>
      <trkpt lat="42.2807020" lon="-7.2476020">
        <ele>1115.7</ele>
        <time>2014-10-01T13:52:36Z</time>
      </trkpt>
      <trkpt lat="42.2807100" lon="-7.2476470">
        <ele>1116.1</ele>
        <time>2014-10-01T13:52:38Z</time>
      </trkpt>
      <trkpt lat="42.2807180" lon="-7.2476990">
        <ele>1116.6</ele>
        <time>2014-10-01T13:52:40Z</time>
      </trkpt>
      <trkpt lat="42.2807230" lon="-7.2477550">
        <ele>1117.2</ele>
        <time>2014-10-01T13:52:42Z</time>
      </trkpt>
      <trkpt lat="42.2807230" lon="-7.2478050">
        <ele>1117.7</ele>
        <time>2014-10-01T13:52:44Z</time>
      </trkpt>
      <trkpt lat="42.2807290" lon="-7.2478450">
        <ele>1118.1</ele>
        <time>2014-10-01T13:52:46Z</time>
      </trkpt>
      <trkpt lat="42.2807330" lon="-7.2478890">
        <ele>1118.6</ele>
        <time>2014-10-01T13:52:48Z</time>
      </trkpt>
      <trkpt lat="42.2807350" lon="-7.2479420">
        <ele>1119.2</ele>
        <time>2014-10-01T13:52:50Z</time>
      </trkpt>
      <trkpt lat="42.2807390" lon="-7.2479870">
        <ele>1119.7</ele>
        <time>2014-10-01T13:52:52Z</time>
      </trkpt>
      <trkpt lat="42.2807390" lon="-7.2480340">
        <ele>1120.2</ele>
        <time>2014-10-01T13:52:54Z</time>
      </trkpt>
      <trkpt lat="42.2807430" lon="-7.2480730">
        <ele>1120.6</ele>
        <time>2014-10-01T13:52:56Z</time>
      </trkpt>
      <trkpt lat="42.2807460" lon="-7.2481190">
        <ele>1121.0</ele>
        <time>2014-10-01T13:52:58Z</time>
      </trkpt>
      <trkpt lat="42.2807500" lon="-7.2481720">
        <ele>1121.5</ele>
        <time>2014-10-01T13:53:00Z</time>
      </trkpt>
      <trkpt lat="42.2807550" lon="-7.2482270">
        <ele>1122.0</ele>
        <time>2014-10-01T13:53:02Z</time>
      </trkpt>
      <trkpt lat="42.2807580" lon="-7.2482800">
        <ele>1122.5</ele>
        <time>2014-10-01T13:53:04Z</time>
      </trkpt>
      <trkpt lat="42.2807590" lon="-7.2483410">
        <ele>1123.0</ele>
        <time>2014-10-01T13:53:06Z</time>
      </trkpt>
      <trkpt lat="42.2807600" lon="-7.2483880">
        <ele>1123.3</ele>
        <time>2014-10-01T13:53:08Z</time>
      </trkpt>
      <trkpt lat="42.2807600" lon="-7.2484410">
        <ele>1123.7</ele>
        <time>2014-10-01T13:53:10Z</time>
      </trkpt>
      <trkpt lat="42.2807590" lon="-7.2485020">
        <ele>1124.0</ele>
        <time>2014-10-01T13:53:12Z</time>
      </trkpt>
      <trkpt lat="42.2807600" lon="-7.2485680">
        <ele>1124.4</ele>
        <time>2014-10-01T13:53:14Z</time>
      </trkpt>
      <trkpt lat="42.2807550" lon="-7.2486390">
        <ele>1124.7</ele>
        <time>2014-10-01T13:53:16Z</time>
      </trkpt>
      <trkpt lat="42.2807490" lon="-7.2487120">
        <ele>1125.0</ele>
        <time>2014-10-01T13:53:18Z</time>
      </trkpt>
      <trkpt lat="42.2807420" lon="-7.2487790">
        <ele>1125.3</ele>
        <time>2014-10-01T13:53:20Z</time>
      </trkpt>
      <trkpt lat="42.2807320" lon="-7.2488470">
        <ele>1125.6</ele>
        <time>2014-10-01T13:53:22Z</time>
      </trkpt>
      <trkpt lat="42.2807230" lon="-7.2489150">
        <ele>1125.9</ele>
        <time>2014-10-01T13:53:24Z</time>
      </trkpt>
      <trkpt lat="42.2807110" lon="-7.2489850">
        <ele>1126.2</ele>
        <time>2014-10-01T13:53:26Z</time>
      </trkpt>
      <trkpt lat="42.2806980" lon="-7.2490530">
        <ele>1126.4</ele>
        <time>2014-10-01T13:53:28Z</time>
      </trkpt>
      <trkpt lat="42.2806880" lon="-7.2491190">
        <ele>1126.7</ele>
        <time>2014-10-01T13:53:30Z</time>
      </trkpt>
      <trkpt lat="42.2806830" lon="-7.2491570">
        <ele>1126.9</ele>
        <time>2014-10-01T13:53:31Z</time>
      </trkpt>
      <trkpt lat="42.2806790" lon="-7.2491970">
        <ele>1127.1</ele>
        <time>2014-10-01T13:53:32Z</time>
      </trkpt>
      <trkpt lat="42.2806720" lon="-7.2492370">
        <ele>1127.3</ele>
        <time>2014-10-01T13:53:33Z</time>
      </trkpt>
      <trkpt lat="42.2806590" lon="-7.2493020">
        <ele>1127.7</ele>
        <time>2014-10-01T13:53:35Z</time>
      </trkpt>
      <trkpt lat="42.2806440" lon="-7.2493650">
        <ele>1128.1</ele>
        <time>2014-10-01T13:53:37Z</time>
      </trkpt>
      <trkpt lat="42.2806290" lon="-7.2494280">
        <ele>1128.6</ele>
        <time>2014-10-01T13:53:39Z</time>
      </trkpt>
      <trkpt lat="42.2806170" lon="-7.2494890">
        <ele>1129.1</ele>
        <time>2014-10-01T13:53:41Z</time>
      </trkpt>
      <trkpt lat="42.2806050" lon="-7.2495550">
        <ele>1129.6</ele>
        <time>2014-10-01T13:53:43Z</time>
      </trkpt>
      <trkpt lat="42.2805920" lon="-7.2496190">
        <ele>1130.1</ele>
        <time>2014-10-01T13:53:45Z</time>
      </trkpt>
      <trkpt lat="42.2805780" lon="-7.2496660">
        <ele>1130.5</ele>
        <time>2014-10-01T13:53:47Z</time>
      </trkpt>
      <trkpt lat="42.2805620" lon="-7.2497140">
        <ele>1130.9</ele>
        <time>2014-10-01T13:53:49Z</time>
      </trkpt>
      <trkpt lat="42.2805510" lon="-7.2497610">
        <ele>1131.3</ele>
        <time>2014-10-01T13:53:51Z</time>
      </trkpt>
      <trkpt lat="42.2805390" lon="-7.2498240">
        <ele>1131.8</ele>
        <time>2014-10-01T13:53:53Z</time>
      </trkpt>
      <trkpt lat="42.2805310" lon="-7.2498590">
        <ele>1132.0</ele>
        <time>2014-10-01T13:53:54Z</time>
      </trkpt>
      <trkpt lat="42.2805210" lon="-7.2498960">
        <ele>1132.3</ele>
        <time>2014-10-01T13:53:55Z</time>
      </trkpt>
      <trkpt lat="42.2805130" lon="-7.2499320">
        <ele>1132.5</ele>
        <time>2014-10-01T13:53:56Z</time>
      </trkpt>
      <trkpt lat="42.2804910" lon="-7.2499900">
        <ele>1133.0</ele>
        <time>2014-10-01T13:53:58Z</time>
      </trkpt>
      <trkpt lat="42.2804680" lon="-7.2500420">
        <ele>1133.3</ele>
        <time>2014-10-01T13:54:00Z</time>
      </trkpt>
      <trkpt lat="42.2804390" lon="-7.2500950">
        <ele>1133.7</ele>
        <time>2014-10-01T13:54:02Z</time>
      </trkpt>
      <trkpt lat="42.2804060" lon="-7.2501500">
        <ele>1134.0</ele>
        <time>2014-10-01T13:54:04Z</time>
      </trkpt>
      <trkpt lat="42.2803900" lon="-7.2501800">
        <ele>1134.2</ele>
        <time>2014-10-01T13:54:05Z</time>
      </trkpt>
      <trkpt lat="42.2803590" lon="-7.2502390">
        <ele>1134.6</ele>
        <time>2014-10-01T13:54:07Z</time>
      </trkpt>
      <trkpt lat="42.2803300" lon="-7.2502950">
        <ele>1134.9</ele>
        <time>2014-10-01T13:54:09Z</time>
      </trkpt>
      <trkpt lat="42.2803140" lon="-7.2503240">
        <ele>1135.1</ele>
        <time>2014-10-01T13:54:10Z</time>
      </trkpt>
      <trkpt lat="42.2802820" lon="-7.2503780">
        <ele>1135.5</ele>
        <time>2014-10-01T13:54:12Z</time>
      </trkpt>
      <trkpt lat="42.2802650" lon="-7.2504100">
        <ele>1135.7</ele>
        <time>2014-10-01T13:54:13Z</time>
      </trkpt>
      <trkpt lat="42.2802340" lon="-7.2504680">
        <ele>1136.1</ele>
        <time>2014-10-01T13:54:15Z</time>
      </trkpt>
      <trkpt lat="42.2802190" lon="-7.2505030">
        <ele>1136.4</ele>
        <time>2014-10-01T13:54:16Z</time>
      </trkpt>
      <trkpt lat="42.2802050" lon="-7.2505350">
        <ele>1136.7</ele>
        <time>2014-10-01T13:54:17Z</time>
      </trkpt>
      <trkpt lat="42.2801780" lon="-7.2505960">
        <ele>1137.2</ele>
        <time>2014-10-01T13:54:19Z</time>
      </trkpt>
      <trkpt lat="42.2801630" lon="-7.2506330">
        <ele>1137.5</ele>
        <time>2014-10-01T13:54:20Z</time>
      </trkpt>
      <trkpt lat="42.2801500" lon="-7.2506670">
        <ele>1137.8</ele>
        <time>2014-10-01T13:54:21Z</time>
      </trkpt>
      <trkpt lat="42.2801310" lon="-7.2507240">
        <ele>1138.3</ele>
        <time>2014-10-01T13:54:23Z</time>
      </trkpt>
      <trkpt lat="42.2801100" lon="-7.2507740">
        <ele>1138.9</ele>
        <time>2014-10-01T13:54:25Z</time>
      </trkpt>
      <trkpt lat="42.2800870" lon="-7.2508200">
        <ele>1139.4</ele>
        <time>2014-10-01T13:54:27Z</time>
      </trkpt>
      <trkpt lat="42.2800670" lon="-7.2508620">
        <ele>1140.0</ele>
        <time>2014-10-01T13:54:29Z</time>
      </trkpt>
      <trkpt lat="42.2800480" lon="-7.2509150">
        <ele>1140.6</ele>
        <time>2014-10-01T13:54:31Z</time>
      </trkpt>
      <trkpt lat="42.2800310" lon="-7.2509590">
        <ele>1141.2</ele>
        <time>2014-10-01T13:54:33Z</time>
      </trkpt>
      <trkpt lat="42.2800160" lon="-7.2510040">
        <ele>1141.8</ele>
        <time>2014-10-01T13:54:35Z</time>
      </trkpt>
      <trkpt lat="42.2800030" lon="-7.2510390">
        <ele>1142.2</ele>
        <time>2014-10-01T13:54:37Z</time>
      </trkpt>
      <trkpt lat="42.2799860" lon="-7.2510780">
        <ele>1142.8</ele>
        <time>2014-10-01T13:54:39Z</time>
      </trkpt>
      <trkpt lat="42.2799710" lon="-7.2511140">
        <ele>1143.3</ele>
        <time>2014-10-01T13:54:41Z</time>
      </trkpt>
      <trkpt lat="42.2799540" lon="-7.2511550">
        <ele>1143.8</ele>
        <time>2014-10-01T13:54:43Z</time>
      </trkpt>
      <trkpt lat="42.2799400" lon="-7.2511870">
        <ele>1144.3</ele>
        <time>2014-10-01T13:54:45Z</time>
      </trkpt>
      <trkpt lat="42.2799230" lon="-7.2512200">
        <ele>1144.8</ele>
        <time>2014-10-01T13:54:47Z</time>
      </trkpt>
      <trkpt lat="42.2799090" lon="-7.2512540">
        <ele>1145.3</ele>
        <time>2014-10-01T13:54:49Z</time>
      </trkpt>
      <trkpt lat="42.2798960" lon="-7.2512950">
        <ele>1145.8</ele>
        <time>2014-10-01T13:54:51Z</time>
      </trkpt>
      <trkpt lat="42.2798800" lon="-7.2513360">
        <ele>1146.4</ele>
        <time>2014-10-01T13:54:53Z</time>
      </trkpt>
      <trkpt lat="42.2798630" lon="-7.2513780">
        <ele>1146.9</ele>
        <time>2014-10-01T13:54:55Z</time>
      </trkpt>
      <trkpt lat="42.2798500" lon="-7.2514140">
        <ele>1147.4</ele>
        <time>2014-10-01T13:54:57Z</time>
      </trkpt>
      <trkpt lat="42.2798370" lon="-7.2514540">
        <ele>1147.9</ele>
        <time>2014-10-01T13:54:59Z</time>
      </trkpt>
      <trkpt lat="42.2798230" lon="-7.2514960">
        <ele>1148.4</ele>
        <time>2014-10-01T13:55:01Z</time>
      </trkpt>
      <trkpt lat="42.2798020" lon="-7.2515350">
        <ele>1148.9</ele>
        <time>2014-10-01T13:55:03Z</time>
      </trkpt>
      <trkpt lat="42.2797830" lon="-7.2515750">
        <ele>1149.5</ele>
        <time>2014-10-01T13:55:05Z</time>
      </trkpt>
      <trkpt lat="42.2797640" lon="-7.2516160">
        <ele>1150.0</ele>
        <time>2014-10-01T13:55:07Z</time>
      </trkpt>
      <trkpt lat="42.2797480" lon="-7.2516570">
        <ele>1150.5</ele>
        <time>2014-10-01T13:55:09Z</time>
      </trkpt>
      <trkpt lat="42.2797240" lon="-7.2516930">
        <ele>1151.0</ele>
        <time>2014-10-01T13:55:11Z</time>
      </trkpt>
      <trkpt lat="42.2797000" lon="-7.2517340">
        <ele>1151.6</ele>
        <time>2014-10-01T13:55:13Z</time>
      </trkpt>
      <trkpt lat="42.2796770" lon="-7.2517790">
        <ele>1152.1</ele>
        <time>2014-10-01T13:55:15Z</time>
      </trkpt>
      <trkpt lat="42.2796540" lon="-7.2518220">
        <ele>1152.5</ele>
        <time>2014-10-01T13:55:17Z</time>
      </trkpt>
      <trkpt lat="42.2796290" lon="-7.2518650">
        <ele>1153.0</ele>
        <time>2014-10-01T13:55:19Z</time>
      </trkpt>
      <trkpt lat="42.2796060" lon="-7.2519000">
        <ele>1153.3</ele>
        <time>2014-10-01T13:55:21Z</time>
      </trkpt>
      <trkpt lat="42.2795860" lon="-7.2519450">
        <ele>1153.7</ele>
        <time>2014-10-01T13:55:23Z</time>
      </trkpt>
      <trkpt lat="42.2795640" lon="-7.2519880">
        <ele>1154.1</ele>
        <time>2014-10-01T13:55:25Z</time>
      </trkpt>
      <trkpt lat="42.2795430" lon="-7.2520260">
        <ele>1154.5</ele>
        <time>2014-10-01T13:55:27Z</time>
      </trkpt>
      <trkpt lat="42.2795190" lon="-7.2520650">
        <ele>1154.9</ele>
        <time>2014-10-01T13:55:29Z</time>
      </trkpt>
      <trkpt lat="42.2794970" lon="-7.2521060">
        <ele>1155.2</ele>
        <time>2014-10-01T13:55:31Z</time>
      </trkpt>
      <trkpt lat="42.2794730" lon="-7.2521510">
        <ele>1155.7</ele>
        <time>2014-10-01T13:55:33Z</time>
      </trkpt>
      <trkpt lat="42.2794470" lon="-7.2521950">
        <ele>1156.1</ele>
        <time>2014-10-01T13:55:35Z</time>
      </trkpt>
      <trkpt lat="42.2794190" lon="-7.2522440">
        <ele>1156.5</ele>
        <time>2014-10-01T13:55:37Z</time>
      </trkpt>
      <trkpt lat="42.2793920" lon="-7.2522900">
        <ele>1157.0</ele>
        <time>2014-10-01T13:55:39Z</time>
      </trkpt>
      <trkpt lat="42.2793680" lon="-7.2523310">
        <ele>1157.4</ele>
        <time>2014-10-01T13:55:41Z</time>
      </trkpt>
      <trkpt lat="42.2793440" lon="-7.2523750">
        <ele>1157.8</ele>
        <time>2014-10-01T13:55:43Z</time>
      </trkpt>
      <trkpt lat="42.2793210" lon="-7.2524180">
        <ele>1158.2</ele>
        <time>2014-10-01T13:55:45Z</time>
      </trkpt>
      <trkpt lat="42.2792960" lon="-7.2524660">
        <ele>1158.7</ele>
        <time>2014-10-01T13:55:47Z</time>
      </trkpt>
      <trkpt lat="42.2792690" lon="-7.2525110">
        <ele>1159.1</ele>
        <time>2014-10-01T13:55:49Z</time>
      </trkpt>
      <trkpt lat="42.2792420" lon="-7.2525580">
        <ele>1159.6</ele>
        <time>2014-10-01T13:55:51Z</time>
      </trkpt>
      <trkpt lat="42.2792180" lon="-7.2526040">
        <ele>1160.0</ele>
        <time>2014-10-01T13:55:53Z</time>
      </trkpt>
      <trkpt lat="42.2791990" lon="-7.2526500">
        <ele>1160.4</ele>
        <time>2014-10-01T13:55:55Z</time>
      </trkpt>
      <trkpt lat="42.2791780" lon="-7.2527000">
        <ele>1160.9</ele>
        <time>2014-10-01T13:55:57Z</time>
      </trkpt>
      <trkpt lat="42.2791600" lon="-7.2527460">
        <ele>1161.3</ele>
        <time>2014-10-01T13:55:59Z</time>
      </trkpt>
      <trkpt lat="42.2791410" lon="-7.2527920">
        <ele>1161.7</ele>
        <time>2014-10-01T13:56:01Z</time>
      </trkpt>
      <trkpt lat="42.2791240" lon="-7.2528380">
        <ele>1162.1</ele>
        <time>2014-10-01T13:56:03Z</time>
      </trkpt>
      <trkpt lat="42.2791080" lon="-7.2528870">
        <ele>1162.4</ele>
        <time>2014-10-01T13:56:05Z</time>
      </trkpt>
      <trkpt lat="42.2790970" lon="-7.2529390">
        <ele>1162.8</ele>
        <time>2014-10-01T13:56:07Z</time>
      </trkpt>
      <trkpt lat="42.2790860" lon="-7.2529930">
        <ele>1163.2</ele>
        <time>2014-10-01T13:56:09Z</time>
      </trkpt>
      <trkpt lat="42.2790810" lon="-7.2530490">
        <ele>1163.6</ele>
        <time>2014-10-01T13:56:11Z</time>
      </trkpt>
      <trkpt lat="42.2790890" lon="-7.2531040">
        <ele>1164.0</ele>
        <time>2014-10-01T13:56:13Z</time>
      </trkpt>
      <trkpt lat="42.2791120" lon="-7.2531600">
        <ele>1164.4</ele>
        <time>2014-10-01T13:56:15Z</time>
      </trkpt>
      <trkpt lat="42.2791300" lon="-7.2531900">
        <ele>1164.6</ele>
        <time>2014-10-01T13:56:16Z</time>
      </trkpt>
      <trkpt lat="42.2791520" lon="-7.2532160">
        <ele>1164.8</ele>
        <time>2014-10-01T13:56:17Z</time>
      </trkpt>
      <trkpt lat="42.2791750" lon="-7.2532380">
        <ele>1165.0</ele>
        <time>2014-10-01T13:56:18Z</time>
      </trkpt>
      <trkpt lat="42.2792020" lon="-7.2532580">
        <ele>1165.2</ele>
        <time>2014-10-01T13:56:19Z</time>
      </trkpt>
      <trkpt lat="42.2792350" lon="-7.2532750">
        <ele>1165.4</ele>
        <time>2014-10-01T13:56:20Z</time>
      </trkpt>
      <trkpt lat="42.2792710" lon="-7.2532900">
        <ele>1165.6</ele>
        <time>2014-10-01T13:56:21Z</time>
      </trkpt>
      <trkpt lat="42.2793090" lon="-7.2533040">
        <ele>1165.8</ele>
        <time>2014-10-01T13:56:22Z</time>
      </trkpt>
      <trkpt lat="42.2793520" lon="-7.2533220">
        <ele>1166.0</ele>
        <time>2014-10-01T13:56:23Z</time>
      </trkpt>
      <trkpt lat="42.2793880" lon="-7.2533340">
        <ele>1166.1</ele>
        <time>2014-10-01T13:56:24Z</time>
      </trkpt>
      <trkpt lat="42.2794250" lon="-7.2533410">
        <ele>1166.3</ele>
        <time>2014-10-01T13:56:25Z</time>
      </trkpt>
      <trkpt lat="42.2794640" lon="-7.2533510">
        <ele>1166.4</ele>
        <time>2014-10-01T13:56:26Z</time>
      </trkpt>
      <trkpt lat="42.2794990" lon="-7.2533590">
        <ele>1166.5</ele>
        <time>2014-10-01T13:56:27Z</time>
      </trkpt>
      <trkpt lat="42.2795340" lon="-7.2533670">
        <ele>1166.6</ele>
        <time>2014-10-01T13:56:28Z</time>
      </trkpt>
      <trkpt lat="42.2795760" lon="-7.2533780">
        <ele>1166.7</ele>
        <time>2014-10-01T13:56:29Z</time>
      </trkpt>
      <trkpt lat="42.2796140" lon="-7.2533890">
        <ele>1166.8</ele>
        <time>2014-10-01T13:56:30Z</time>
      </trkpt>
      <trkpt lat="42.2796480" lon="-7.2533960">
        <ele>1167.0</ele>
        <time>2014-10-01T13:56:31Z</time>
      </trkpt>
      <trkpt lat="42.2796850" lon="-7.2534090">
        <ele>1167.2</ele>
        <time>2014-10-01T13:56:32Z</time>
      </trkpt>
      <trkpt lat="42.2797230" lon="-7.2534260">
        <ele>1167.5</ele>
        <time>2014-10-01T13:56:33Z</time>
      </trkpt>
      <trkpt lat="42.2797580" lon="-7.2534450">
        <ele>1167.7</ele>
        <time>2014-10-01T13:56:34Z</time>
      </trkpt>
      <trkpt lat="42.2797930" lon="-7.2534660">
        <ele>1168.0</ele>
        <time>2014-10-01T13:56:35Z</time>
      </trkpt>
      <trkpt lat="42.2798270" lon="-7.2534880">
        <ele>1168.2</ele>
        <time>2014-10-01T13:56:36Z</time>
      </trkpt>
      <trkpt lat="42.2798540" lon="-7.2535080">
        <ele>1168.3</ele>
        <time>2014-10-01T13:56:37Z</time>
      </trkpt>
      <trkpt lat="42.2798790" lon="-7.2535250">
        <ele>1168.5</ele>
        <time>2014-10-01T13:56:38Z</time>
      </trkpt>
      <trkpt lat="42.2799050" lon="-7.2535480">
        <ele>1168.6</ele>
        <time>2014-10-01T13:56:39Z</time>
      </trkpt>
      <trkpt lat="42.2799290" lon="-7.2535690">
        <ele>1168.8</ele>
        <time>2014-10-01T13:56:40Z</time>
      </trkpt>
      <trkpt lat="42.2799700" lon="-7.2536150">
        <ele>1169.1</ele>
        <time>2014-10-01T13:56:42Z</time>
      </trkpt>
      <trkpt lat="42.2800130" lon="-7.2536580">
        <ele>1169.4</ele>
        <time>2014-10-01T13:56:44Z</time>
      </trkpt>
      <trkpt lat="42.2800400" lon="-7.2536800">
        <ele>1169.5</ele>
        <time>2014-10-01T13:56:45Z</time>
      </trkpt>
      <trkpt lat="42.2800680" lon="-7.2537000">
        <ele>1169.7</ele>
        <time>2014-10-01T13:56:46Z</time>
      </trkpt>
      <trkpt lat="42.2800990" lon="-7.2537180">
        <ele>1169.8</ele>
        <time>2014-10-01T13:56:47Z</time>
      </trkpt>
      <trkpt lat="42.2801300" lon="-7.2537320">
        <ele>1169.9</ele>
        <time>2014-10-01T13:56:48Z</time>
      </trkpt>
      <trkpt lat="42.2801630" lon="-7.2537430">
        <ele>1170.0</ele>
        <time>2014-10-01T13:56:49Z</time>
      </trkpt>
      <trkpt lat="42.2801980" lon="-7.2537460">
        <ele>1170.2</ele>
        <time>2014-10-01T13:56:50Z</time>
      </trkpt>
      <trkpt lat="42.2802360" lon="-7.2537460">
        <ele>1170.3</ele>
        <time>2014-10-01T13:56:51Z</time>
      </trkpt>
      <trkpt lat="42.2802790" lon="-7.2537440">
        <ele>1170.5</ele>
        <time>2014-10-01T13:56:52Z</time>
      </trkpt>
      <trkpt lat="42.2803150" lon="-7.2537390">
        <ele>1170.6</ele>
        <time>2014-10-01T13:56:53Z</time>
      </trkpt>
      <trkpt lat="42.2803510" lon="-7.2537300">
        <ele>1170.8</ele>
        <time>2014-10-01T13:56:54Z</time>
      </trkpt>
      <trkpt lat="42.2803900" lon="-7.2537170">
        <ele>1171.0</ele>
        <time>2014-10-01T13:56:55Z</time>
      </trkpt>
      <trkpt lat="42.2804290" lon="-7.2537040">
        <ele>1171.2</ele>
        <time>2014-10-01T13:56:56Z</time>
      </trkpt>
      <trkpt lat="42.2804620" lon="-7.2536960">
        <ele>1171.3</ele>
        <time>2014-10-01T13:56:57Z</time>
      </trkpt>
      <trkpt lat="42.2804980" lon="-7.2536880">
        <ele>1171.5</ele>
        <time>2014-10-01T13:56:58Z</time>
      </trkpt>
      <trkpt lat="42.2805320" lon="-7.2536820">
        <ele>1171.7</ele>
        <time>2014-10-01T13:56:59Z</time>
      </trkpt>
      <trkpt lat="42.2805650" lon="-7.2536800">
        <ele>1171.8</ele>
        <time>2014-10-01T13:57:00Z</time>
      </trkpt>
      <trkpt lat="42.2806010" lon="-7.2536820">
        <ele>1172.0</ele>
        <time>2014-10-01T13:57:01Z</time>
      </trkpt>
      <trkpt lat="42.2806390" lon="-7.2536890">
        <ele>1172.1</ele>
        <time>2014-10-01T13:57:02Z</time>
      </trkpt>
      <trkpt lat="42.2806770" lon="-7.2537030">
        <ele>1172.2</ele>
        <time>2014-10-01T13:57:03Z</time>
      </trkpt>
      <trkpt lat="42.2807140" lon="-7.2537170">
        <ele>1172.3</ele>
        <time>2014-10-01T13:57:04Z</time>
      </trkpt>
      <trkpt lat="42.2807470" lon="-7.2537350">
        <ele>1172.5</ele>
        <time>2014-10-01T13:57:05Z</time>
      </trkpt>
      <trkpt lat="42.2807790" lon="-7.2537510">
        <ele>1172.6</ele>
        <time>2014-10-01T13:57:06Z</time>
      </trkpt>
      <trkpt lat="42.2808090" lon="-7.2537680">
        <ele>1172.7</ele>
        <time>2014-10-01T13:57:07Z</time>
      </trkpt>
      <trkpt lat="42.2808410" lon="-7.2537900">
        <ele>1172.9</ele>
        <time>2014-10-01T13:57:08Z</time>
      </trkpt>
      <trkpt lat="42.2808740" lon="-7.2538130">
        <ele>1173.0</ele>
        <time>2014-10-01T13:57:09Z</time>
      </trkpt>
      <trkpt lat="42.2809060" lon="-7.2538360">
        <ele>1173.1</ele>
        <time>2014-10-01T13:57:10Z</time>
      </trkpt>
      <trkpt lat="42.2809380" lon="-7.2538590">
        <ele>1173.3</ele>
        <time>2014-10-01T13:57:11Z</time>
      </trkpt>
      <trkpt lat="42.2809750" lon="-7.2538860">
        <ele>1173.4</ele>
        <time>2014-10-01T13:57:12Z</time>
      </trkpt>
      <trkpt lat="42.2810110" lon="-7.2539090">
        <ele>1173.5</ele>
        <time>2014-10-01T13:57:13Z</time>
      </trkpt>
      <trkpt lat="42.2810440" lon="-7.2539320">
        <ele>1173.6</ele>
        <time>2014-10-01T13:57:14Z</time>
      </trkpt>
      <trkpt lat="42.2810810" lon="-7.2539530">
        <ele>1173.6</ele>
        <time>2014-10-01T13:57:15Z</time>
      </trkpt>
      <trkpt lat="42.2811130" lon="-7.2539730">
        <ele>1173.7</ele>
        <time>2014-10-01T13:57:16Z</time>
      </trkpt>
      <trkpt lat="42.2811440" lon="-7.2539920">
        <ele>1173.8</ele>
        <time>2014-10-01T13:57:17Z</time>
      </trkpt>
      <trkpt lat="42.2811790" lon="-7.2540100">
        <ele>1173.9</ele>
        <time>2014-10-01T13:57:18Z</time>
      </trkpt>
      <trkpt lat="42.2812110" lon="-7.2540250">
        <ele>1174.0</ele>
        <time>2014-10-01T13:57:19Z</time>
      </trkpt>
      <trkpt lat="42.2812410" lon="-7.2540390">
        <ele>1174.0</ele>
        <time>2014-10-01T13:57:20Z</time>
      </trkpt>
      <trkpt lat="42.2812750" lon="-7.2540550">
        <ele>1174.1</ele>
        <time>2014-10-01T13:57:21Z</time>
      </trkpt>
      <trkpt lat="42.2813160" lon="-7.2540750">
        <ele>1174.3</ele>
        <time>2014-10-01T13:57:22Z</time>
      </trkpt>
      <trkpt lat="42.2813520" lon="-7.2540910">
        <ele>1174.4</ele>
        <time>2014-10-01T13:57:23Z</time>
      </trkpt>
      <trkpt lat="42.2813890" lon="-7.2541090">
        <ele>1174.5</ele>
        <time>2014-10-01T13:57:24Z</time>
      </trkpt>
      <trkpt lat="42.2814250" lon="-7.2541270">
        <ele>1174.6</ele>
        <time>2014-10-01T13:57:25Z</time>
      </trkpt>
      <trkpt lat="42.2814590" lon="-7.2541480">
        <ele>1174.8</ele>
        <time>2014-10-01T13:57:26Z</time>
      </trkpt>
      <trkpt lat="42.2814920" lon="-7.2541650">
        <ele>1174.9</ele>
        <time>2014-10-01T13:57:27Z</time>
      </trkpt>
      <trkpt lat="42.2815300" lon="-7.2541840">
        <ele>1175.0</ele>
        <time>2014-10-01T13:57:28Z</time>
      </trkpt>
      <trkpt lat="42.2815650" lon="-7.2542040">
        <ele>1175.1</ele>
        <time>2014-10-01T13:57:29Z</time>
      </trkpt>
      <trkpt lat="42.2815970" lon="-7.2542220">
        <ele>1175.2</ele>
        <time>2014-10-01T13:57:30Z</time>
      </trkpt>
      <trkpt lat="42.2816310" lon="-7.2542430">
        <ele>1175.4</ele>
        <time>2014-10-01T13:57:31Z</time>
      </trkpt>
      <trkpt lat="42.2816630" lon="-7.2542660">
        <ele>1175.5</ele>
        <time>2014-10-01T13:57:32Z</time>
      </trkpt>
      <trkpt lat="42.2816930" lon="-7.2542870">
        <ele>1175.6</ele>
        <time>2014-10-01T13:57:33Z</time>
      </trkpt>
      <trkpt lat="42.2817240" lon="-7.2543110">
        <ele>1175.7</ele>
        <time>2014-10-01T13:57:34Z</time>
      </trkpt>
      <trkpt lat="42.2817600" lon="-7.2543370">
        <ele>1175.8</ele>
        <time>2014-10-01T13:57:35Z</time>
      </trkpt>
      <trkpt lat="42.2817950" lon="-7.2543660">
        <ele>1176.0</ele>
        <time>2014-10-01T13:57:36Z</time>
      </trkpt>
      <trkpt lat="42.2818250" lon="-7.2543900">
        <ele>1176.1</ele>
        <time>2014-10-01T13:57:37Z</time>
      </trkpt>
      <trkpt lat="42.2818580" lon="-7.2544190">
        <ele>1176.2</ele>
        <time>2014-10-01T13:57:38Z</time>
      </trkpt>
      <trkpt lat="42.2818850" lon="-7.2544470">
        <ele>1176.4</ele>
        <time>2014-10-01T13:57:39Z</time>
      </trkpt>
      <trkpt lat="42.2819130" lon="-7.2544760">
        <ele>1176.5</ele>
        <time>2014-10-01T13:57:40Z</time>
      </trkpt>
      <trkpt lat="42.2819420" lon="-7.2545080">
        <ele>1176.6</ele>
        <time>2014-10-01T13:57:41Z</time>
      </trkpt>
      <trkpt lat="42.2819760" lon="-7.2545460">
        <ele>1176.8</ele>
        <time>2014-10-01T13:57:42Z</time>
      </trkpt>
      <trkpt lat="42.2820100" lon="-7.2545880">
        <ele>1177.0</ele>
        <time>2014-10-01T13:57:43Z</time>
      </trkpt>
      <trkpt lat="42.2820410" lon="-7.2546280">
        <ele>1177.1</ele>
        <time>2014-10-01T13:57:44Z</time>
      </trkpt>
      <trkpt lat="42.2820710" lon="-7.2546660">
        <ele>1177.3</ele>
        <time>2014-10-01T13:57:45Z</time>
      </trkpt>
      <trkpt lat="42.2821020" lon="-7.2547030">
        <ele>1177.5</ele>
        <time>2014-10-01T13:57:46Z</time>
      </trkpt>
      <trkpt lat="42.2821330" lon="-7.2547390">
        <ele>1177.7</ele>
        <time>2014-10-01T13:57:47Z</time>
      </trkpt>
      <trkpt lat="42.2821610" lon="-7.2547760">
        <ele>1177.9</ele>
        <time>2014-10-01T13:57:48Z</time>
      </trkpt>
      <trkpt lat="42.2821900" lon="-7.2548130">
        <ele>1178.1</ele>
        <time>2014-10-01T13:57:49Z</time>
      </trkpt>
      <trkpt lat="42.2822150" lon="-7.2548510">
        <ele>1178.2</ele>
        <time>2014-10-01T13:57:50Z</time>
      </trkpt>
      <trkpt lat="42.2822390" lon="-7.2548890">
        <ele>1178.4</ele>
        <time>2014-10-01T13:57:51Z</time>
      </trkpt>
      <trkpt lat="42.2822670" lon="-7.2549330">
        <ele>1178.6</ele>
        <time>2014-10-01T13:57:52Z</time>
      </trkpt>
      <trkpt lat="42.2822910" lon="-7.2549740">
        <ele>1178.8</ele>
        <time>2014-10-01T13:57:53Z</time>
      </trkpt>
      <trkpt lat="42.2823100" lon="-7.2550120">
        <ele>1179.1</ele>
        <time>2014-10-01T13:57:54Z</time>
      </trkpt>
      <trkpt lat="42.2823320" lon="-7.2550580">
        <ele>1179.3</ele>
        <time>2014-10-01T13:57:55Z</time>
      </trkpt>
      <trkpt lat="42.2823520" lon="-7.2551020">
        <ele>1179.6</ele>
        <time>2014-10-01T13:57:56Z</time>
      </trkpt>
      <trkpt lat="42.2823710" lon="-7.2551460">
        <ele>1179.9</ele>
        <time>2014-10-01T13:57:57Z</time>
      </trkpt>
      <trkpt lat="42.2823840" lon="-7.2551880">
        <ele>1180.1</ele>
        <time>2014-10-01T13:57:58Z</time>
      </trkpt>
      <trkpt lat="42.2823980" lon="-7.2552320">
        <ele>1180.3</ele>
        <time>2014-10-01T13:57:59Z</time>
      </trkpt>
      <trkpt lat="42.2824150" lon="-7.2552770">
        <ele>1180.6</ele>
        <time>2014-10-01T13:58:00Z</time>
      </trkpt>
      <trkpt lat="42.2824300" lon="-7.2553170">
        <ele>1180.9</ele>
        <time>2014-10-01T13:58:01Z</time>
      </trkpt>
      <trkpt lat="42.2824430" lon="-7.2553580">
        <ele>1181.1</ele>
        <time>2014-10-01T13:58:02Z</time>
      </trkpt>
      <trkpt lat="42.2824550" lon="-7.2553990">
        <ele>1181.4</ele>
        <time>2014-10-01T13:58:03Z</time>
      </trkpt>
      <trkpt lat="42.2824670" lon="-7.2554430">
        <ele>1181.7</ele>
        <time>2014-10-01T13:58:04Z</time>
      </trkpt>
      <trkpt lat="42.2824780" lon="-7.2554830">
        <ele>1181.9</ele>
        <time>2014-10-01T13:58:05Z</time>
      </trkpt>
      <trkpt lat="42.2824900" lon="-7.2555230">
        <ele>1182.2</ele>
        <time>2014-10-01T13:58:06Z</time>
      </trkpt>
      <trkpt lat="42.2825020" lon="-7.2555610">
        <ele>1182.4</ele>
        <time>2014-10-01T13:58:07Z</time>
      </trkpt>
      <trkpt lat="42.2825140" lon="-7.2555960">
        <ele>1182.7</ele>
        <time>2014-10-01T13:58:08Z</time>
      </trkpt>
      <trkpt lat="42.2825240" lon="-7.2556310">
        <ele>1182.9</ele>
        <time>2014-10-01T13:58:09Z</time>
      </trkpt>
      <trkpt lat="42.2825350" lon="-7.2556730">
        <ele>1183.2</ele>
        <time>2014-10-01T13:58:10Z</time>
      </trkpt>
      <trkpt lat="42.2825440" lon="-7.2557120">
        <ele>1183.4</ele>
        <time>2014-10-01T13:58:11Z</time>
      </trkpt>
      <trkpt lat="42.2825600" lon="-7.2557740">
        <ele>1183.8</ele>
        <time>2014-10-01T13:58:13Z</time>
      </trkpt>
      <trkpt lat="42.2825690" lon="-7.2558090">
        <ele>1184.0</ele>
        <time>2014-10-01T13:58:14Z</time>
      </trkpt>
      <trkpt lat="42.2825810" lon="-7.2558780">
        <ele>1184.4</ele>
        <time>2014-10-01T13:58:16Z</time>
      </trkpt>
      <trkpt lat="42.2825860" lon="-7.2559220">
        <ele>1184.7</ele>
        <time>2014-10-01T13:58:17Z</time>
      </trkpt>
      <trkpt lat="42.2825870" lon="-7.2559740">
        <ele>1185.0</ele>
        <time>2014-10-01T13:58:18Z</time>
      </trkpt>
      <trkpt lat="42.2825880" lon="-7.2560220">
        <ele>1185.3</ele>
        <time>2014-10-01T13:58:19Z</time>
      </trkpt>
      <trkpt lat="42.2825890" lon="-7.2560900">
        <ele>1185.6</ele>
        <time>2014-10-01T13:58:21Z</time>
      </trkpt>
      <trkpt lat="42.2825880" lon="-7.2561390">
        <ele>1185.9</ele>
        <time>2014-10-01T13:58:22Z</time>
      </trkpt>
      <trkpt lat="42.2825870" lon="-7.2561850">
        <ele>1186.1</ele>
        <time>2014-10-01T13:58:23Z</time>
      </trkpt>
      <trkpt lat="42.2825850" lon="-7.2562300">
        <ele>1186.3</ele>
        <time>2014-10-01T13:58:24Z</time>
      </trkpt>
      <trkpt lat="42.2825850" lon="-7.2562670">
        <ele>1186.5</ele>
        <time>2014-10-01T13:58:25Z</time>
      </trkpt>
      <trkpt lat="42.2825780" lon="-7.2563420">
        <ele>1186.8</ele>
        <time>2014-10-01T13:58:27Z</time>
      </trkpt>
      <trkpt lat="42.2825720" lon="-7.2563890">
        <ele>1187.1</ele>
        <time>2014-10-01T13:58:28Z</time>
      </trkpt>
      <trkpt lat="42.2825660" lon="-7.2564360">
        <ele>1187.3</ele>
        <time>2014-10-01T13:58:29Z</time>
      </trkpt>
      <trkpt lat="42.2825630" lon="-7.2564800">
        <ele>1187.5</ele>
        <time>2014-10-01T13:58:30Z</time>
      </trkpt>
      <trkpt lat="42.2825620" lon="-7.2565240">
        <ele>1187.8</ele>
        <time>2014-10-01T13:58:31Z</time>
      </trkpt>
      <trkpt lat="42.2825600" lon="-7.2565700">
        <ele>1188.0</ele>
        <time>2014-10-01T13:58:32Z</time>
      </trkpt>
      <trkpt lat="42.2825580" lon="-7.2566140">
        <ele>1188.1</ele>
        <time>2014-10-01T13:58:33Z</time>
      </trkpt>
      <trkpt lat="42.2825540" lon="-7.2566640">
        <ele>1188.3</ele>
        <time>2014-10-01T13:58:34Z</time>
      </trkpt>
      <trkpt lat="42.2825540" lon="-7.2567100">
        <ele>1188.5</ele>
        <time>2014-10-01T13:58:35Z</time>
      </trkpt>
      <trkpt lat="42.2825540" lon="-7.2567560">
        <ele>1188.7</ele>
        <time>2014-10-01T13:58:36Z</time>
      </trkpt>
      <trkpt lat="42.2825550" lon="-7.2568000">
        <ele>1188.8</ele>
        <time>2014-10-01T13:58:37Z</time>
      </trkpt>
      <trkpt lat="42.2825580" lon="-7.2568470">
        <ele>1189.0</ele>
        <time>2014-10-01T13:58:38Z</time>
      </trkpt>
      <trkpt lat="42.2825630" lon="-7.2568880">
        <ele>1189.2</ele>
        <time>2014-10-01T13:58:39Z</time>
      </trkpt>
      <trkpt lat="42.2825690" lon="-7.2569310">
        <ele>1189.3</ele>
        <time>2014-10-01T13:58:40Z</time>
      </trkpt>
      <trkpt lat="42.2825750" lon="-7.2569750">
        <ele>1189.5</ele>
        <time>2014-10-01T13:58:41Z</time>
      </trkpt>
      <trkpt lat="42.2825800" lon="-7.2570180">
        <ele>1189.6</ele>
        <time>2014-10-01T13:58:42Z</time>
      </trkpt>
      <trkpt lat="42.2825880" lon="-7.2570610">
        <ele>1189.8</ele>
        <time>2014-10-01T13:58:43Z</time>
      </trkpt>
      <trkpt lat="42.2826000" lon="-7.2571040">
        <ele>1190.0</ele>
        <time>2014-10-01T13:58:44Z</time>
      </trkpt>
      <trkpt lat="42.2826150" lon="-7.2571460">
        <ele>1190.2</ele>
        <time>2014-10-01T13:58:45Z</time>
      </trkpt>
      <trkpt lat="42.2826340" lon="-7.2571780">
        <ele>1190.3</ele>
        <time>2014-10-01T13:58:46Z</time>
      </trkpt>
      <trkpt lat="42.2826600" lon="-7.2572120">
        <ele>1190.5</ele>
        <time>2014-10-01T13:58:47Z</time>
      </trkpt>
      <trkpt lat="42.2826940" lon="-7.2572420">
        <ele>1190.7</ele>
        <time>2014-10-01T13:58:48Z</time>
      </trkpt>
      <trkpt lat="42.2827300" lon="-7.2572620">
        <ele>1190.9</ele>
        <time>2014-10-01T13:58:49Z</time>
      </trkpt>
      <trkpt lat="42.2827650" lon="-7.2572760">
        <ele>1191.0</ele>
        <time>2014-10-01T13:58:50Z</time>
      </trkpt>
      <trkpt lat="42.2828020" lon="-7.2572890">
        <ele>1191.1</ele>
        <time>2014-10-01T13:58:51Z</time>
      </trkpt>
      <trkpt lat="42.2828390" lon="-7.2573020">
        <ele>1191.2</ele>
        <time>2014-10-01T13:58:52Z</time>
      </trkpt>
      <trkpt lat="42.2828730" lon="-7.2573110">
        <ele>1191.4</ele>
        <time>2014-10-01T13:58:53Z</time>
      </trkpt>
      <trkpt lat="42.2829080" lon="-7.2573190">
        <ele>1191.4</ele>
        <time>2014-10-01T13:58:54Z</time>
      </trkpt>
      <trkpt lat="42.2829450" lon="-7.2573240">
        <ele>1191.5</ele>
        <time>2014-10-01T13:58:55Z</time>
      </trkpt>
      <trkpt lat="42.2829840" lon="-7.2573300">
        <ele>1191.6</ele>
        <time>2014-10-01T13:58:56Z</time>
      </trkpt>
      <trkpt lat="42.2830240" lon="-7.2573360">
        <ele>1191.6</ele>
        <time>2014-10-01T13:58:57Z</time>
      </trkpt>
      <trkpt lat="42.2830640" lon="-7.2573420">
        <ele>1191.6</ele>
        <time>2014-10-01T13:58:58Z</time>
      </trkpt>
      <trkpt lat="42.2831060" lon="-7.2573460">
        <ele>1191.7</ele>
        <time>2014-10-01T13:58:59Z</time>
      </trkpt>
      <trkpt lat="42.2831460" lon="-7.2573510">
        <ele>1191.7</ele>
        <time>2014-10-01T13:59:00Z</time>
      </trkpt>
      <trkpt lat="42.2831900" lon="-7.2573590">
        <ele>1191.7</ele>
        <time>2014-10-01T13:59:01Z</time>
      </trkpt>
      <trkpt lat="42.2832300" lon="-7.2573710">
        <ele>1191.8</ele>
        <time>2014-10-01T13:59:02Z</time>
      </trkpt>
      <trkpt lat="42.2832730" lon="-7.2573820">
        <ele>1191.8</ele>
        <time>2014-10-01T13:59:03Z</time>
      </trkpt>
      <trkpt lat="42.2833160" lon="-7.2573950">
        <ele>1191.8</ele>
        <time>2014-10-01T13:59:04Z</time>
      </trkpt>
      <trkpt lat="42.2833580" lon="-7.2574070">
        <ele>1191.8</ele>
        <time>2014-10-01T13:59:05Z</time>
      </trkpt>
      <trkpt lat="42.2834000" lon="-7.2574200">
        <ele>1191.8</ele>
        <time>2014-10-01T13:59:06Z</time>
      </trkpt>
      <trkpt lat="42.2834430" lon="-7.2574340">
        <ele>1191.8</ele>
        <time>2014-10-01T13:59:07Z</time>
      </trkpt>
      <trkpt lat="42.2834860" lon="-7.2574470">
        <ele>1191.7</ele>
        <time>2014-10-01T13:59:08Z</time>
      </trkpt>
      <trkpt lat="42.2835310" lon="-7.2574620">
        <ele>1191.7</ele>
        <time>2014-10-01T13:59:09Z</time>
      </trkpt>
      <trkpt lat="42.2835750" lon="-7.2574750">
        <ele>1191.7</ele>
        <time>2014-10-01T13:59:10Z</time>
      </trkpt>
      <trkpt lat="42.2836200" lon="-7.2574870">
        <ele>1191.7</ele>
        <time>2014-10-01T13:59:11Z</time>
      </trkpt>
      <trkpt lat="42.2836650" lon="-7.2574990">
        <ele>1191.6</ele>
        <time>2014-10-01T13:59:12Z</time>
      </trkpt>
      <trkpt lat="42.2837120" lon="-7.2575100">
        <ele>1191.6</ele>
        <time>2014-10-01T13:59:13Z</time>
      </trkpt>
      <trkpt lat="42.2837620" lon="-7.2575220">
        <ele>1191.5</ele>
        <time>2014-10-01T13:59:14Z</time>
      </trkpt>
      <trkpt lat="42.2838130" lon="-7.2575280">
        <ele>1191.4</ele>
        <time>2014-10-01T13:59:15Z</time>
      </trkpt>
      <trkpt lat="42.2838650" lon="-7.2575260">
        <ele>1191.3</ele>
        <time>2014-10-01T13:59:16Z</time>
      </trkpt>
      <trkpt lat="42.2839160" lon="-7.2575160">
        <ele>1191.2</ele>
        <time>2014-10-01T13:59:17Z</time>
      </trkpt>
      <trkpt lat="42.2839670" lon="-7.2574980">
        <ele>1191.1</ele>
        <time>2014-10-01T13:59:18Z</time>
      </trkpt>
      <trkpt lat="42.2840100" lon="-7.2574730">
        <ele>1191.0</ele>
        <time>2014-10-01T13:59:19Z</time>
      </trkpt>
      <trkpt lat="42.2840570" lon="-7.2574410">
        <ele>1191.0</ele>
        <time>2014-10-01T13:59:20Z</time>
      </trkpt>
      <trkpt lat="42.2841030" lon="-7.2574010">
        <ele>1190.9</ele>
        <time>2014-10-01T13:59:21Z</time>
      </trkpt>
      <trkpt lat="42.2841530" lon="-7.2573560">
        <ele>1190.9</ele>
        <time>2014-10-01T13:59:22Z</time>
      </trkpt>
      <trkpt lat="42.2841990" lon="-7.2573140">
        <ele>1190.9</ele>
        <time>2014-10-01T13:59:23Z</time>
      </trkpt>
      <trkpt lat="42.2842470" lon="-7.2572720">
        <ele>1190.9</ele>
        <time>2014-10-01T13:59:24Z</time>
      </trkpt>
      <trkpt lat="42.2842950" lon="-7.2572290">
        <ele>1190.9</ele>
        <time>2014-10-01T13:59:25Z</time>
      </trkpt>
      <trkpt lat="42.2843410" lon="-7.2571880">
        <ele>1190.9</ele>
        <time>2014-10-01T13:59:26Z</time>
      </trkpt>
      <trkpt lat="42.2843850" lon="-7.2571530">
        <ele>1190.8</ele>
        <time>2014-10-01T13:59:27Z</time>
      </trkpt>
      <trkpt lat="42.2844350" lon="-7.2571210">
        <ele>1190.8</ele>
        <time>2014-10-01T13:59:28Z</time>
      </trkpt>
      <trkpt lat="42.2844840" lon="-7.2570930">
        <ele>1190.8</ele>
        <time>2014-10-01T13:59:29Z</time>
      </trkpt>
      <trkpt lat="42.2845310" lon="-7.2570680">
        <ele>1190.7</ele>
        <time>2014-10-01T13:59:30Z</time>
      </trkpt>
      <trkpt lat="42.2845810" lon="-7.2570440">
        <ele>1190.7</ele>
        <time>2014-10-01T13:59:31Z</time>
      </trkpt>
      <trkpt lat="42.2846300" lon="-7.2570200">
        <ele>1190.7</ele>
        <time>2014-10-01T13:59:32Z</time>
      </trkpt>
      <trkpt lat="42.2846800" lon="-7.2569980">
        <ele>1190.6</ele>
        <time>2014-10-01T13:59:33Z</time>
      </trkpt>
      <trkpt lat="42.2847330" lon="-7.2569770">
        <ele>1190.5</ele>
        <time>2014-10-01T13:59:34Z</time>
      </trkpt>
      <trkpt lat="42.2847860" lon="-7.2569560">
        <ele>1190.5</ele>
        <time>2014-10-01T13:59:35Z</time>
      </trkpt>
      <trkpt lat="42.2848390" lon="-7.2569350">
        <ele>1190.4</ele>
        <time>2014-10-01T13:59:36Z</time>
      </trkpt>
      <trkpt lat="42.2848920" lon="-7.2569150">
        <ele>1190.3</ele>
        <time>2014-10-01T13:59:37Z</time>
      </trkpt>
      <trkpt lat="42.2849470" lon="-7.2568970">
        <ele>1190.2</ele>
        <time>2014-10-01T13:59:38Z</time>
      </trkpt>
      <trkpt lat="42.2850030" lon="-7.2568820">
        <ele>1190.1</ele>
        <time>2014-10-01T13:59:39Z</time>
      </trkpt>
      <trkpt lat="42.2850590" lon="-7.2568670">
        <ele>1190.0</ele>
        <time>2014-10-01T13:59:40Z</time>
      </trkpt>
      <trkpt lat="42.2851150" lon="-7.2568560">
        <ele>1189.9</ele>
        <time>2014-10-01T13:59:41Z</time>
      </trkpt>
      <trkpt lat="42.2851720" lon="-7.2568490">
        <ele>1189.9</ele>
        <time>2014-10-01T13:59:42Z</time>
      </trkpt>
      <trkpt lat="42.2852310" lon="-7.2568490">
        <ele>1189.9</ele>
        <time>2014-10-01T13:59:43Z</time>
      </trkpt>
      <trkpt lat="42.2852880" lon="-7.2568540">
        <ele>1189.8</ele>
        <time>2014-10-01T13:59:44Z</time>
      </trkpt>
      <trkpt lat="42.2853460" lon="-7.2568640">
        <ele>1189.8</ele>
        <time>2014-10-01T13:59:45Z</time>
      </trkpt>
      <trkpt lat="42.2854050" lon="-7.2568780">
        <ele>1189.8</ele>
        <time>2014-10-01T13:59:46Z</time>
      </trkpt>
      <trkpt lat="42.2854650" lon="-7.2568940">
        <ele>1189.8</ele>
        <time>2014-10-01T13:59:47Z</time>
      </trkpt>
      <trkpt lat="42.2855240" lon="-7.2569080">
        <ele>1189.7</ele>
        <time>2014-10-01T13:59:48Z</time>
      </trkpt>
      <trkpt lat="42.2855840" lon="-7.2569260">
        <ele>1189.7</ele>
        <time>2014-10-01T13:59:49Z</time>
      </trkpt>
      <trkpt lat="42.2856450" lon="-7.2569440">
        <ele>1189.6</ele>
        <time>2014-10-01T13:59:50Z</time>
      </trkpt>
      <trkpt lat="42.2857090" lon="-7.2569680">
        <ele>1189.5</ele>
        <time>2014-10-01T13:59:51Z</time>
      </trkpt>
      <trkpt lat="42.2857720" lon="-7.2569920">
        <ele>1189.4</ele>
        <time>2014-10-01T13:59:52Z</time>
      </trkpt>
      <trkpt lat="42.2858370" lon="-7.2570170">
        <ele>1189.3</ele>
        <time>2014-10-01T13:59:53Z</time>
      </trkpt>
      <trkpt lat="42.2859000" lon="-7.2570410">
        <ele>1189.2</ele>
        <time>2014-10-01T13:59:54Z</time>
      </trkpt>
      <trkpt lat="42.2859640" lon="-7.2570620">
        <ele>1189.2</ele>
        <time>2014-10-01T13:59:55Z</time>
      </trkpt>
      <trkpt lat="42.2860280" lon="-7.2570820">
        <ele>1189.1</ele>
        <time>2014-10-01T13:59:56Z</time>
      </trkpt>
      <trkpt lat="42.2860900" lon="-7.2571000">
        <ele>1189.1</ele>
        <time>2014-10-01T13:59:57Z</time>
      </trkpt>
      <trkpt lat="42.2861510" lon="-7.2571170">
        <ele>1189.0</ele>
        <time>2014-10-01T13:59:58Z</time>
      </trkpt>
      <trkpt lat="42.2862130" lon="-7.2571350">
        <ele>1189.0</ele>
        <time>2014-10-01T13:59:59Z</time>
      </trkpt>
      <trkpt lat="42.2862720" lon="-7.2571520">
        <ele>1189.0</ele>
        <time>2014-10-01T14:00:00Z</time>
      </trkpt>
      <trkpt lat="42.2863340" lon="-7.2571660">
        <ele>1189.1</ele>
        <time>2014-10-01T14:00:01Z</time>
      </trkpt>
      <trkpt lat="42.2863950" lon="-7.2571810">
        <ele>1189.3</ele>
        <time>2014-10-01T14:00:02Z</time>
      </trkpt>
      <trkpt lat="42.2864540" lon="-7.2571970">
        <ele>1189.4</ele>
        <time>2014-10-01T14:00:03Z</time>
      </trkpt>
      <trkpt lat="42.2865130" lon="-7.2572150">
        <ele>1189.6</ele>
        <time>2014-10-01T14:00:04Z</time>
      </trkpt>
      <trkpt lat="42.2865720" lon="-7.2572360">
        <ele>1189.7</ele>
        <time>2014-10-01T14:00:05Z</time>
      </trkpt>
      <trkpt lat="42.2866280" lon="-7.2572550">
        <ele>1190.2</ele>
        <time>2014-10-01T14:00:06Z</time>
      </trkpt>
      <trkpt lat="42.2866830" lon="-7.2572730">
        <ele>1190.6</ele>
        <time>2014-10-01T14:00:07Z</time>
      </trkpt>
      <trkpt lat="42.2867350" lon="-7.2572900">
        <ele>1190.8</ele>
        <time>2014-10-01T14:00:08Z</time>
      </trkpt>
      <trkpt lat="42.2867910" lon="-7.2573090">
        <ele>1190.9</ele>
        <time>2014-10-01T14:00:09Z</time>
      </trkpt>
      <trkpt lat="42.2868450" lon="-7.2573280">
        <ele>1191.0</ele>
        <time>2014-10-01T14:00:10Z</time>
      </trkpt>
      <trkpt lat="42.2868960" lon="-7.2573500">
        <ele>1191.1</ele>
        <time>2014-10-01T14:00:11Z</time>
      </trkpt>
      <trkpt lat="42.2869460" lon="-7.2573740">
        <ele>1191.1</ele>
        <time>2014-10-01T14:00:12Z</time>
      </trkpt>
      <trkpt lat="42.2869970" lon="-7.2574020">
        <ele>1191.2</ele>
        <time>2014-10-01T14:00:13Z</time>
      </trkpt>
      <trkpt lat="42.2870480" lon="-7.2574310">
        <ele>1191.2</ele>
        <time>2014-10-01T14:00:14Z</time>
      </trkpt>
      <trkpt lat="42.2870980" lon="-7.2574620">
        <ele>1191.3</ele>
        <time>2014-10-01T14:00:15Z</time>
      </trkpt>
      <trkpt lat="42.2871540" lon="-7.2574980">
        <ele>1191.3</ele>
        <time>2014-10-01T14:00:16Z</time>
      </trkpt>
      <trkpt lat="42.2872070" lon="-7.2575360">
        <ele>1191.3</ele>
        <time>2014-10-01T14:00:17Z</time>
      </trkpt>
      <trkpt lat="42.2872580" lon="-7.2575740">
        <ele>1191.3</ele>
        <time>2014-10-01T14:00:18Z</time>
      </trkpt>
      <trkpt lat="42.2873090" lon="-7.2576160">
        <ele>1191.4</ele>
        <time>2014-10-01T14:00:19Z</time>
      </trkpt>
      <trkpt lat="42.2873560" lon="-7.2576600">
        <ele>1191.4</ele>
        <time>2014-10-01T14:00:20Z</time>
      </trkpt>
      <trkpt lat="42.2874050" lon="-7.2577100">
        <ele>1191.6</ele>
        <time>2014-10-01T14:00:21Z</time>
      </trkpt>
      <trkpt lat="42.2874490" lon="-7.2577590">
        <ele>1191.7</ele>
        <time>2014-10-01T14:00:22Z</time>
      </trkpt>
      <trkpt lat="42.2874930" lon="-7.2578100">
        <ele>1191.9</ele>
        <time>2014-10-01T14:00:23Z</time>
      </trkpt>
      <trkpt lat="42.2875350" lon="-7.2578610">
        <ele>1192.0</ele>
        <time>2014-10-01T14:00:24Z</time>
      </trkpt>
      <trkpt lat="42.2875750" lon="-7.2579130">
        <ele>1192.2</ele>
        <time>2014-10-01T14:00:25Z</time>
      </trkpt>
      <trkpt lat="42.2876140" lon="-7.2579650">
        <ele>1192.4</ele>
        <time>2014-10-01T14:00:26Z</time>
      </trkpt>
      <trkpt lat="42.2876530" lon="-7.2580180">
        <ele>1192.7</ele>
        <time>2014-10-01T14:00:27Z</time>
      </trkpt>
      <trkpt lat="42.2876920" lon="-7.2580690">
        <ele>1192.9</ele>
        <time>2014-10-01T14:00:28Z</time>
      </trkpt>
      <trkpt lat="42.2877330" lon="-7.2581200">
        <ele>1193.1</ele>
        <time>2014-10-01T14:00:29Z</time>
      </trkpt>
      <trkpt lat="42.2877750" lon="-7.2581720">
        <ele>1193.2</ele>
        <time>2014-10-01T14:00:30Z</time>
      </trkpt>
      <trkpt lat="42.2878170" lon="-7.2582240">
        <ele>1193.4</ele>
        <time>2014-10-01T14:00:31Z</time>
      </trkpt>
      <trkpt lat="42.2878580" lon="-7.2582750">
        <ele>1193.5</ele>
        <time>2014-10-01T14:00:32Z</time>
      </trkpt>
      <trkpt lat="42.2878990" lon="-7.2583280">
        <ele>1193.6</ele>
        <time>2014-10-01T14:00:33Z</time>
      </trkpt>
      <trkpt lat="42.2879390" lon="-7.2583800">
        <ele>1193.7</ele>
        <time>2014-10-01T14:00:34Z</time>
      </trkpt>
      <trkpt lat="42.2879790" lon="-7.2584310">
        <ele>1193.8</ele>
        <time>2014-10-01T14:00:35Z</time>
      </trkpt>
      <trkpt lat="42.2880170" lon="-7.2584830">
        <ele>1193.9</ele>
        <time>2014-10-01T14:00:36Z</time>
      </trkpt>
      <trkpt lat="42.2880560" lon="-7.2585350">
        <ele>1193.9</ele>
        <time>2014-10-01T14:00:37Z</time>
      </trkpt>
      <trkpt lat="42.2880920" lon="-7.2585880">
        <ele>1194.0</ele>
        <time>2014-10-01T14:00:38Z</time>
      </trkpt>
      <trkpt lat="42.2881290" lon="-7.2586420">
        <ele>1194.1</ele>
        <time>2014-10-01T14:00:39Z</time>
      </trkpt>
      <trkpt lat="42.2881660" lon="-7.2586970">
        <ele>1194.2</ele>
        <time>2014-10-01T14:00:40Z</time>
      </trkpt>
      <trkpt lat="42.2882020" lon="-7.2587520">
        <ele>1194.3</ele>
        <time>2014-10-01T14:00:41Z</time>
      </trkpt>
      <trkpt lat="42.2882380" lon="-7.2588070">
        <ele>1194.4</ele>
        <time>2014-10-01T14:00:42Z</time>
      </trkpt>
      <trkpt lat="42.2882710" lon="-7.2588600">
        <ele>1194.5</ele>
        <time>2014-10-01T14:00:43Z</time>
      </trkpt>
      <trkpt lat="42.2883060" lon="-7.2589170">
        <ele>1194.6</ele>
        <time>2014-10-01T14:00:44Z</time>
      </trkpt>
      <trkpt lat="42.2883380" lon="-7.2589750">
        <ele>1194.8</ele>
        <time>2014-10-01T14:00:45Z</time>
      </trkpt>
      <trkpt lat="42.2883690" lon="-7.2590340">
        <ele>1194.9</ele>
        <time>2014-10-01T14:00:46Z</time>
      </trkpt>
      <trkpt lat="42.2884010" lon="-7.2590950">
        <ele>1195.0</ele>
        <time>2014-10-01T14:00:47Z</time>
      </trkpt>
      <trkpt lat="42.2884330" lon="-7.2591590">
        <ele>1195.2</ele>
        <time>2014-10-01T14:00:48Z</time>
      </trkpt>
      <trkpt lat="42.2884550" lon="-7.2592340">
        <ele>1195.3</ele>
        <time>2014-10-01T14:00:49Z</time>
      </trkpt>
      <trkpt lat="42.2884740" lon="-7.2593080">
        <ele>1195.6</ele>
        <time>2014-10-01T14:00:50Z</time>
      </trkpt>
      <trkpt lat="42.2884770" lon="-7.2593910">
        <ele>1195.8</ele>
        <time>2014-10-01T14:00:51Z</time>
      </trkpt>
      <trkpt lat="42.2884760" lon="-7.2594660">
        <ele>1196.1</ele>
        <time>2014-10-01T14:00:52Z</time>
      </trkpt>
      <trkpt lat="42.2884700" lon="-7.2595450">
        <ele>1196.3</ele>
        <time>2014-10-01T14:00:53Z</time>
      </trkpt>
      <trkpt lat="42.2884580" lon="-7.2596270">
        <ele>1196.6</ele>
        <time>2014-10-01T14:00:54Z</time>
      </trkpt>
      <trkpt lat="42.2884400" lon="-7.2597070">
        <ele>1196.9</ele>
        <time>2014-10-01T14:00:55Z</time>
      </trkpt>
      <trkpt lat="42.2884220" lon="-7.2597770">
        <ele>1197.2</ele>
        <time>2014-10-01T14:00:56Z</time>
      </trkpt>
      <trkpt lat="42.2884010" lon="-7.2598430">
        <ele>1197.5</ele>
        <time>2014-10-01T14:00:57Z</time>
      </trkpt>
      <trkpt lat="42.2883800" lon="-7.2599070">
        <ele>1197.7</ele>
        <time>2014-10-01T14:00:58Z</time>
      </trkpt>
      <trkpt lat="42.2883590" lon="-7.2599680">
        <ele>1198.0</ele>
        <time>2014-10-01T14:00:59Z</time>
      </trkpt>
      <trkpt lat="42.2883380" lon="-7.2600250">
        <ele>1198.3</ele>
        <time>2014-10-01T14:01:00Z</time>
      </trkpt>
      <trkpt lat="42.2883180" lon="-7.2600800">
        <ele>1198.6</ele>
        <time>2014-10-01T14:01:01Z</time>
      </trkpt>
      <trkpt lat="42.2882970" lon="-7.2601330">
        <ele>1198.9</ele>
        <time>2014-10-01T14:01:02Z</time>
      </trkpt>
      <trkpt lat="42.2882780" lon="-7.2601850">
        <ele>1199.2</ele>
        <time>2014-10-01T14:01:03Z</time>
      </trkpt>
      <trkpt lat="42.2882590" lon="-7.2602380">
        <ele>1199.5</ele>
        <time>2014-10-01T14:01:04Z</time>
      </trkpt>
      <trkpt lat="42.2882400" lon="-7.2602920">
        <ele>1199.8</ele>
        <time>2014-10-01T14:01:05Z</time>
      </trkpt>
      <trkpt lat="42.2882210" lon="-7.2603430">
        <ele>1200.0</ele>
        <time>2014-10-01T14:01:06Z</time>
      </trkpt>
      <trkpt lat="42.2882020" lon="-7.2603950">
        <ele>1200.3</ele>
        <time>2014-10-01T14:01:07Z</time>
      </trkpt>
      <trkpt lat="42.2881830" lon="-7.2604440">
        <ele>1200.6</ele>
        <time>2014-10-01T14:01:08Z</time>
      </trkpt>
      <trkpt lat="42.2881640" lon="-7.2604930">
        <ele>1200.9</ele>
        <time>2014-10-01T14:01:09Z</time>
      </trkpt>
      <trkpt lat="42.2881460" lon="-7.2605400">
        <ele>1201.2</ele>
        <time>2014-10-01T14:01:10Z</time>
      </trkpt>
      <trkpt lat="42.2881280" lon="-7.2605870">
        <ele>1201.4</ele>
        <time>2014-10-01T14:01:11Z</time>
      </trkpt>
      <trkpt lat="42.2881090" lon="-7.2606320">
        <ele>1201.7</ele>
        <time>2014-10-01T14:01:12Z</time>
      </trkpt>
      <trkpt lat="42.2880890" lon="-7.2606780">
        <ele>1201.9</ele>
        <time>2014-10-01T14:01:13Z</time>
      </trkpt>
      <trkpt lat="42.2880700" lon="-7.2607210">
        <ele>1202.2</ele>
        <time>2014-10-01T14:01:14Z</time>
      </trkpt>
      <trkpt lat="42.2880500" lon="-7.2607640">
        <ele>1202.5</ele>
        <time>2014-10-01T14:01:15Z</time>
      </trkpt>
      <trkpt lat="42.2880310" lon="-7.2608070">
        <ele>1202.7</ele>
        <time>2014-10-01T14:01:16Z</time>
      </trkpt>
      <trkpt lat="42.2880120" lon="-7.2608520">
        <ele>1203.0</ele>
        <time>2014-10-01T14:01:17Z</time>
      </trkpt>
      <trkpt lat="42.2879940" lon="-7.2608950">
        <ele>1203.3</ele>
        <time>2014-10-01T14:01:18Z</time>
      </trkpt>
      <trkpt lat="42.2879780" lon="-7.2609350">
        <ele>1203.6</ele>
        <time>2014-10-01T14:01:19Z</time>
      </trkpt>
      <trkpt lat="42.2879620" lon="-7.2609720">
        <ele>1203.8</ele>
        <time>2014-10-01T14:01:20Z</time>
      </trkpt>
      <trkpt lat="42.2879450" lon="-7.2610080">
        <ele>1204.0</ele>
        <time>2014-10-01T14:01:21Z</time>
      </trkpt>
      <trkpt lat="42.2879280" lon="-7.2610420">
        <ele>1204.3</ele>
        <time>2014-10-01T14:01:22Z</time>
      </trkpt>
      <trkpt lat="42.2879090" lon="-7.2610750">
        <ele>1204.5</ele>
        <time>2014-10-01T14:01:23Z</time>
      </trkpt>
      <trkpt lat="42.2878890" lon="-7.2611080">
        <ele>1204.7</ele>
        <time>2014-10-01T14:01:24Z</time>
      </trkpt>
      <trkpt lat="42.2878700" lon="-7.2611400">
        <ele>1205.0</ele>
        <time>2014-10-01T14:01:25Z</time>
      </trkpt>
      <trkpt lat="42.2878510" lon="-7.2611690">
        <ele>1205.2</ele>
        <time>2014-10-01T14:01:26Z</time>
      </trkpt>
      <trkpt lat="42.2878310" lon="-7.2611940">
        <ele>1205.4</ele>
        <time>2014-10-01T14:01:27Z</time>
      </trkpt>
      <trkpt lat="42.2878090" lon="-7.2612220">
        <ele>1205.7</ele>
        <time>2014-10-01T14:01:28Z</time>
      </trkpt>
      <trkpt lat="42.2877870" lon="-7.2612520">
        <ele>1205.9</ele>
        <time>2014-10-01T14:01:29Z</time>
      </trkpt>
      <trkpt lat="42.2877680" lon="-7.2612790">
        <ele>1206.2</ele>
        <time>2014-10-01T14:01:30Z</time>
      </trkpt>
      <trkpt lat="42.2877490" lon="-7.2613060">
        <ele>1206.6</ele>
        <time>2014-10-01T14:01:31Z</time>
      </trkpt>
      <trkpt lat="42.2877110" lon="-7.2613590">
        <ele>1207.3</ele>
        <time>2014-10-01T14:01:33Z</time>
      </trkpt>
      <trkpt lat="42.2876930" lon="-7.2613890">
        <ele>1207.6</ele>
        <time>2014-10-01T14:01:34Z</time>
      </trkpt>
      <trkpt lat="42.2876520" lon="-7.2614380">
        <ele>1208.2</ele>
        <time>2014-10-01T14:01:36Z</time>
      </trkpt>
      <trkpt lat="42.2876300" lon="-7.2614650">
        <ele>1208.5</ele>
        <time>2014-10-01T14:01:37Z</time>
      </trkpt>
      <trkpt lat="42.2875920" lon="-7.2615130">
        <ele>1209.1</ele>
        <time>2014-10-01T14:01:39Z</time>
      </trkpt>
      <trkpt lat="42.2875720" lon="-7.2615380">
        <ele>1209.3</ele>
        <time>2014-10-01T14:01:40Z</time>
      </trkpt>
      <trkpt lat="42.2875520" lon="-7.2615630">
        <ele>1209.6</ele>
        <time>2014-10-01T14:01:41Z</time>
      </trkpt>
      <trkpt lat="42.2875140" lon="-7.2616120">
        <ele>1210.1</ele>
        <time>2014-10-01T14:01:43Z</time>
      </trkpt>
      <trkpt lat="42.2874920" lon="-7.2616370">
        <ele>1210.4</ele>
        <time>2014-10-01T14:01:44Z</time>
      </trkpt>
      <trkpt lat="42.2874710" lon="-7.2616610">
        <ele>1210.6</ele>
        <time>2014-10-01T14:01:45Z</time>
      </trkpt>
      <trkpt lat="42.2874290" lon="-7.2617040">
        <ele>1211.1</ele>
        <time>2014-10-01T14:01:47Z</time>
      </trkpt>
      <trkpt lat="42.2873850" lon="-7.2617440">
        <ele>1211.7</ele>
        <time>2014-10-01T14:01:49Z</time>
      </trkpt>
      <trkpt lat="42.2873390" lon="-7.2617810">
        <ele>1212.2</ele>
        <time>2014-10-01T14:01:51Z</time>
      </trkpt>
      <trkpt lat="42.2872950" lon="-7.2618180">
        <ele>1212.7</ele>
        <time>2014-10-01T14:01:53Z</time>
      </trkpt>
      <trkpt lat="42.2872500" lon="-7.2618530">
        <ele>1213.2</ele>
        <time>2014-10-01T14:01:55Z</time>
      </trkpt>
      <trkpt lat="42.2872080" lon="-7.2618900">
        <ele>1213.7</ele>
        <time>2014-10-01T14:01:57Z</time>
      </trkpt>
      <trkpt lat="42.2871680" lon="-7.2619250">
        <ele>1214.1</ele>
        <time>2014-10-01T14:01:59Z</time>
      </trkpt>
      <trkpt lat="42.2871270" lon="-7.2619620">
        <ele>1214.6</ele>
        <time>2014-10-01T14:02:01Z</time>
      </trkpt>
      <trkpt lat="42.2870850" lon="-7.2619970">
        <ele>1215.1</ele>
        <time>2014-10-01T14:02:03Z</time>
      </trkpt>
      <trkpt lat="42.2870410" lon="-7.2620320">
        <ele>1215.6</ele>
        <time>2014-10-01T14:02:05Z</time>
      </trkpt>
      <trkpt lat="42.2869970" lon="-7.2620670">
        <ele>1216.1</ele>
        <time>2014-10-01T14:02:07Z</time>
      </trkpt>
      <trkpt lat="42.2869550" lon="-7.2621030">
        <ele>1216.6</ele>
        <time>2014-10-01T14:02:09Z</time>
      </trkpt>
      <trkpt lat="42.2869140" lon="-7.2621390">
        <ele>1217.1</ele>
        <time>2014-10-01T14:02:11Z</time>
      </trkpt>
      <trkpt lat="42.2868710" lon="-7.2621770">
        <ele>1217.6</ele>
        <time>2014-10-01T14:02:13Z</time>
      </trkpt>
      <trkpt lat="42.2868280" lon="-7.2622150">
        <ele>1218.1</ele>
        <time>2014-10-01T14:02:15Z</time>
      </trkpt>
      <trkpt lat="42.2867830" lon="-7.2622500">
        <ele>1218.5</ele>
        <time>2014-10-01T14:02:17Z</time>
      </trkpt>
      <trkpt lat="42.2867390" lon="-7.2622830">
        <ele>1219.0</ele>
        <time>2014-10-01T14:02:19Z</time>
      </trkpt>
      <trkpt lat="42.2866970" lon="-7.2623150">
        <ele>1219.4</ele>
        <time>2014-10-01T14:02:21Z</time>
      </trkpt>
      <trkpt lat="42.2866540" lon="-7.2623460">
        <ele>1219.8</ele>
        <time>2014-10-01T14:02:23Z</time>
      </trkpt>
      <trkpt lat="42.2866100" lon="-7.2623770">
        <ele>1220.3</ele>
        <time>2014-10-01T14:02:25Z</time>
      </trkpt>
      <trkpt lat="42.2865680" lon="-7.2624090">
        <ele>1220.8</ele>
        <time>2014-10-01T14:02:27Z</time>
      </trkpt>
      <trkpt lat="42.2865250" lon="-7.2624450">
        <ele>1221.3</ele>
        <time>2014-10-01T14:02:29Z</time>
      </trkpt>
      <trkpt lat="42.2864840" lon="-7.2624800">
        <ele>1221.8</ele>
        <time>2014-10-01T14:02:31Z</time>
      </trkpt>
      <trkpt lat="42.2864400" lon="-7.2625110">
        <ele>1222.3</ele>
        <time>2014-10-01T14:02:33Z</time>
      </trkpt>
      <trkpt lat="42.2863950" lon="-7.2625420">
        <ele>1222.7</ele>
        <time>2014-10-01T14:02:35Z</time>
      </trkpt>
      <trkpt lat="42.2863500" lon="-7.2625750">
        <ele>1223.2</ele>
        <time>2014-10-01T14:02:37Z</time>
      </trkpt>
      <trkpt lat="42.2863040" lon="-7.2626070">
        <ele>1223.7</ele>
        <time>2014-10-01T14:02:39Z</time>
      </trkpt>
      <trkpt lat="42.2862580" lon="-7.2626390">
        <ele>1224.1</ele>
        <time>2014-10-01T14:02:41Z</time>
      </trkpt>
      <trkpt lat="42.2862140" lon="-7.2626700">
        <ele>1224.6</ele>
        <time>2014-10-01T14:02:43Z</time>
      </trkpt>
      <trkpt lat="42.2861680" lon="-7.2627020">
        <ele>1225.0</ele>
        <time>2014-10-01T14:02:45Z</time>
      </trkpt>
      <trkpt lat="42.2861260" lon="-7.2627330">
        <ele>1225.5</ele>
        <time>2014-10-01T14:02:47Z</time>
      </trkpt>
      <trkpt lat="42.2860800" lon="-7.2627630">
        <ele>1225.9</ele>
        <time>2014-10-01T14:02:49Z</time>
      </trkpt>
      <trkpt lat="42.2860330" lon="-7.2627940">
        <ele>1226.4</ele>
        <time>2014-10-01T14:02:51Z</time>
      </trkpt>
      <trkpt lat="42.2859880" lon="-7.2628280">
        <ele>1226.9</ele>
        <time>2014-10-01T14:02:53Z</time>
      </trkpt>
      <trkpt lat="42.2859420" lon="-7.2628630">
        <ele>1227.3</ele>
        <time>2014-10-01T14:02:55Z</time>
      </trkpt>
      <trkpt lat="42.2859000" lon="-7.2628920">
        <ele>1227.8</ele>
        <time>2014-10-01T14:02:57Z</time>
      </trkpt>
      <trkpt lat="42.2858630" lon="-7.2629160">
        <ele>1228.2</ele>
        <time>2014-10-01T14:02:59Z</time>
      </trkpt>
      <trkpt lat="42.2858230" lon="-7.2629420">
        <ele>1228.6</ele>
        <time>2014-10-01T14:03:01Z</time>
      </trkpt>
      <trkpt lat="42.2857800" lon="-7.2629690">
        <ele>1229.1</ele>
        <time>2014-10-01T14:03:03Z</time>
      </trkpt>
      <trkpt lat="42.2857390" lon="-7.2629950">
        <ele>1229.6</ele>
        <time>2014-10-01T14:03:05Z</time>
      </trkpt>
      <trkpt lat="42.2856950" lon="-7.2630180">
        <ele>1230.0</ele>
        <time>2014-10-01T14:03:07Z</time>
      </trkpt>
      <trkpt lat="42.2856530" lon="-7.2630350">
        <ele>1230.5</ele>
        <time>2014-10-01T14:03:09Z</time>
      </trkpt>
      <trkpt lat="42.2856070" lon="-7.2630540">
        <ele>1231.1</ele>
        <time>2014-10-01T14:03:11Z</time>
      </trkpt>
      <trkpt lat="42.2855640" lon="-7.2630740">
        <ele>1231.6</ele>
        <time>2014-10-01T14:03:13Z</time>
      </trkpt>
      <trkpt lat="42.2855190" lon="-7.2630930">
        <ele>1232.1</ele>
        <time>2014-10-01T14:03:15Z</time>
      </trkpt>
      <trkpt lat="42.2854730" lon="-7.2631090">
        <ele>1232.7</ele>
        <time>2014-10-01T14:03:17Z</time>
      </trkpt>
      <trkpt lat="42.2854240" lon="-7.2631210">
        <ele>1233.2</ele>
        <time>2014-10-01T14:03:19Z</time>
      </trkpt>
      <trkpt lat="42.2853730" lon="-7.2631330">
        <ele>1233.8</ele>
        <time>2014-10-01T14:03:21Z</time>
      </trkpt>
      <trkpt lat="42.2853180" lon="-7.2631430">
        <ele>1234.3</ele>
        <time>2014-10-01T14:03:23Z</time>
      </trkpt>
      <trkpt lat="42.2852890" lon="-7.2631490">
        <ele>1234.6</ele>
        <time>2014-10-01T14:03:24Z</time>
      </trkpt>
      <trkpt lat="42.2852590" lon="-7.2631500">
        <ele>1234.9</ele>
        <time>2014-10-01T14:03:25Z</time>
      </trkpt>
      <trkpt lat="42.2852310" lon="-7.2631520">
        <ele>1235.1</ele>
        <time>2014-10-01T14:03:26Z</time>
      </trkpt>
      <trkpt lat="42.2852030" lon="-7.2631530">
        <ele>1235.4</ele>
        <time>2014-10-01T14:03:27Z</time>
      </trkpt>
      <trkpt lat="42.2851760" lon="-7.2631550">
        <ele>1235.6</ele>
        <time>2014-10-01T14:03:28Z</time>
      </trkpt>
      <trkpt lat="42.2851490" lon="-7.2631570">
        <ele>1235.9</ele>
        <time>2014-10-01T14:03:29Z</time>
      </trkpt>
      <trkpt lat="42.2851210" lon="-7.2631600">
        <ele>1236.1</ele>
        <time>2014-10-01T14:03:30Z</time>
      </trkpt>
      <trkpt lat="42.2850940" lon="-7.2631630">
        <ele>1236.3</ele>
        <time>2014-10-01T14:03:31Z</time>
      </trkpt>
      <trkpt lat="42.2850660" lon="-7.2631650">
        <ele>1236.5</ele>
        <time>2014-10-01T14:03:32Z</time>
      </trkpt>
      <trkpt lat="42.2850370" lon="-7.2631670">
        <ele>1236.7</ele>
        <time>2014-10-01T14:03:33Z</time>
      </trkpt>
      <trkpt lat="42.2850090" lon="-7.2631680">
        <ele>1237.0</ele>
        <time>2014-10-01T14:03:34Z</time>
      </trkpt>
      <trkpt lat="42.2849800" lon="-7.2631710">
        <ele>1237.2</ele>
        <time>2014-10-01T14:03:35Z</time>
      </trkpt>
      <trkpt lat="42.2849520" lon="-7.2631720">
        <ele>1237.4</ele>
        <time>2014-10-01T14:03:36Z</time>
      </trkpt>
      <trkpt lat="42.2849010" lon="-7.2631710">
        <ele>1237.8</ele>
        <time>2014-10-01T14:03:38Z</time>
      </trkpt>
      <trkpt lat="42.2848500" lon="-7.2631700">
        <ele>1238.2</ele>
        <time>2014-10-01T14:03:40Z</time>
      </trkpt>
      <trkpt lat="42.2848220" lon="-7.2631690">
        <ele>1238.4</ele>
        <time>2014-10-01T14:03:41Z</time>
      </trkpt>
      <trkpt lat="42.2847940" lon="-7.2631690">
        <ele>1238.6</ele>
        <time>2014-10-01T14:03:42Z</time>
      </trkpt>
      <trkpt lat="42.2847660" lon="-7.2631690">
        <ele>1238.8</ele>
        <time>2014-10-01T14:03:43Z</time>
      </trkpt>
      <trkpt lat="42.2847360" lon="-7.2631690">
        <ele>1239.0</ele>
        <time>2014-10-01T14:03:44Z</time>
      </trkpt>
      <trkpt lat="42.2847080" lon="-7.2631690">
        <ele>1239.3</ele>
        <time>2014-10-01T14:03:45Z</time>
      </trkpt>
      <trkpt lat="42.2846550" lon="-7.2631690">
        <ele>1239.7</ele>
        <time>2014-10-01T14:03:47Z</time>
      </trkpt>
      <trkpt lat="42.2846250" lon="-7.2631690">
        <ele>1239.9</ele>
        <time>2014-10-01T14:03:48Z</time>
      </trkpt>
      <trkpt lat="42.2845960" lon="-7.2631690">
        <ele>1240.2</ele>
        <time>2014-10-01T14:03:49Z</time>
      </trkpt>
      <trkpt lat="42.2845650" lon="-7.2631680">
        <ele>1240.5</ele>
        <time>2014-10-01T14:03:50Z</time>
      </trkpt>
      <trkpt lat="42.2845100" lon="-7.2631670">
        <ele>1240.9</ele>
        <time>2014-10-01T14:03:52Z</time>
      </trkpt>
      <trkpt lat="42.2844810" lon="-7.2631680">
        <ele>1241.2</ele>
        <time>2014-10-01T14:03:53Z</time>
      </trkpt>
      <trkpt lat="42.2844520" lon="-7.2631690">
        <ele>1241.4</ele>
        <time>2014-10-01T14:03:54Z</time>
      </trkpt>
      <trkpt lat="42.2844220" lon="-7.2631700">
        <ele>1241.7</ele>
        <time>2014-10-01T14:03:55Z</time>
      </trkpt>
      <trkpt lat="42.2843890" lon="-7.2631720">
        <ele>1242.0</ele>
        <time>2014-10-01T14:03:56Z</time>
      </trkpt>
      <trkpt lat="42.2843600" lon="-7.2631730">
        <ele>1242.3</ele>
        <time>2014-10-01T14:03:57Z</time>
      </trkpt>
      <trkpt lat="42.2843290" lon="-7.2631770">
        <ele>1242.6</ele>
        <time>2014-10-01T14:03:58Z</time>
      </trkpt>
      <trkpt lat="42.2842970" lon="-7.2631810">
        <ele>1243.0</ele>
        <time>2014-10-01T14:03:59Z</time>
      </trkpt>
      <trkpt lat="42.2842690" lon="-7.2631840">
        <ele>1243.2</ele>
        <time>2014-10-01T14:04:00Z</time>
      </trkpt>
      <trkpt lat="42.2842210" lon="-7.2631870">
        <ele>1243.7</ele>
        <time>2014-10-01T14:04:02Z</time>
      </trkpt>
      <trkpt lat="42.2841940" lon="-7.2631880">
        <ele>1244.0</ele>
        <time>2014-10-01T14:04:03Z</time>
      </trkpt>
      <trkpt lat="42.2841650" lon="-7.2631870">
        <ele>1244.3</ele>
        <time>2014-10-01T14:04:04Z</time>
      </trkpt>
      <trkpt lat="42.2841120" lon="-7.2631860">
        <ele>1244.8</ele>
        <time>2014-10-01T14:04:06Z</time>
      </trkpt>
      <trkpt lat="42.2840850" lon="-7.2631860">
        <ele>1245.0</ele>
        <time>2014-10-01T14:04:07Z</time>
      </trkpt>
      <trkpt lat="42.2840320" lon="-7.2631830">
        <ele>1245.6</ele>
        <time>2014-10-01T14:04:09Z</time>
      </trkpt>
      <trkpt lat="42.2840040" lon="-7.2631790">
        <ele>1245.8</ele>
        <time>2014-10-01T14:04:10Z</time>
      </trkpt>
      <trkpt lat="42.2839570" lon="-7.2631710">
        <ele>1246.3</ele>
        <time>2014-10-01T14:04:12Z</time>
      </trkpt>
      <trkpt lat="42.2839110" lon="-7.2631540">
        <ele>1246.7</ele>
        <time>2014-10-01T14:04:14Z</time>
      </trkpt>
      <trkpt lat="42.2838830" lon="-7.2631440">
        <ele>1247.0</ele>
        <time>2014-10-01T14:04:15Z</time>
      </trkpt>
      <trkpt lat="42.2838560" lon="-7.2631350">
        <ele>1247.3</ele>
        <time>2014-10-01T14:04:16Z</time>
      </trkpt>
      <trkpt lat="42.2838280" lon="-7.2631260">
        <ele>1247.5</ele>
        <time>2014-10-01T14:04:17Z</time>
      </trkpt>
      <trkpt lat="42.2838010" lon="-7.2631170">
        <ele>1247.8</ele>
        <time>2014-10-01T14:04:18Z</time>
      </trkpt>
      <trkpt lat="42.2837740" lon="-7.2631070">
        <ele>1248.0</ele>
        <time>2014-10-01T14:04:19Z</time>
      </trkpt>
      <trkpt lat="42.2837480" lon="-7.2630960">
        <ele>1248.3</ele>
        <time>2014-10-01T14:04:20Z</time>
      </trkpt>
      <trkpt lat="42.2837200" lon="-7.2630820">
        <ele>1248.6</ele>
        <time>2014-10-01T14:04:21Z</time>
      </trkpt>
      <trkpt lat="42.2836920" lon="-7.2630650">
        <ele>1248.8</ele>
        <time>2014-10-01T14:04:22Z</time>
      </trkpt>
      <trkpt lat="42.2836610" lon="-7.2630490">
        <ele>1249.1</ele>
        <time>2014-10-01T14:04:23Z</time>
      </trkpt>
      <trkpt lat="42.2836330" lon="-7.2630350">
        <ele>1249.4</ele>
        <time>2014-10-01T14:04:24Z</time>
      </trkpt>
      <trkpt lat="42.2836070" lon="-7.2630210">
        <ele>1249.7</ele>
        <time>2014-10-01T14:04:25Z</time>
      </trkpt>
      <trkpt lat="42.2835800" lon="-7.2630080">
        <ele>1250.0</ele>
        <time>2014-10-01T14:04:26Z</time>
      </trkpt>
      <trkpt lat="42.2835520" lon="-7.2629920">
        <ele>1250.2</ele>
        <time>2014-10-01T14:04:27Z</time>
      </trkpt>
      <trkpt lat="42.2835260" lon="-7.2629770">
        <ele>1250.5</ele>
        <time>2014-10-01T14:04:28Z</time>
      </trkpt>
      <trkpt lat="42.2834980" lon="-7.2629600">
        <ele>1250.8</ele>
        <time>2014-10-01T14:04:29Z</time>
      </trkpt>
      <trkpt lat="42.2834690" lon="-7.2629410">
        <ele>1251.1</ele>
        <time>2014-10-01T14:04:30Z</time>
      </trkpt>
      <trkpt lat="42.2834440" lon="-7.2629240">
        <ele>1251.3</ele>
        <time>2014-10-01T14:04:31Z</time>
      </trkpt>
      <trkpt lat="42.2833950" lon="-7.2628890">
        <ele>1251.7</ele>
        <time>2014-10-01T14:04:33Z</time>
      </trkpt>
      <trkpt lat="42.2833690" lon="-7.2628720">
        <ele>1252.0</ele>
        <time>2014-10-01T14:04:34Z</time>
      </trkpt>
      <trkpt lat="42.2833430" lon="-7.2628560">
        <ele>1252.2</ele>
        <time>2014-10-01T14:04:35Z</time>
      </trkpt>
      <trkpt lat="42.2833200" lon="-7.2628390">
        <ele>1252.4</ele>
        <time>2014-10-01T14:04:36Z</time>
      </trkpt>
      <trkpt lat="42.2832930" lon="-7.2628170">
        <ele>1252.6</ele>
        <time>2014-10-01T14:04:37Z</time>
      </trkpt>
      <trkpt lat="42.2832690" lon="-7.2627970">
        <ele>1252.8</ele>
        <time>2014-10-01T14:04:38Z</time>
      </trkpt>
      <trkpt lat="42.2832460" lon="-7.2627760">
        <ele>1253.0</ele>
        <time>2014-10-01T14:04:39Z</time>
      </trkpt>
      <trkpt lat="42.2832210" lon="-7.2627550">
        <ele>1253.2</ele>
        <time>2014-10-01T14:04:40Z</time>
      </trkpt>
      <trkpt lat="42.2831980" lon="-7.2627320">
        <ele>1253.4</ele>
        <time>2014-10-01T14:04:41Z</time>
      </trkpt>
      <trkpt lat="42.2831760" lon="-7.2627110">
        <ele>1253.6</ele>
        <time>2014-10-01T14:04:42Z</time>
      </trkpt>
      <trkpt lat="42.2831530" lon="-7.2626870">
        <ele>1253.8</ele>
        <time>2014-10-01T14:04:43Z</time>
      </trkpt>
      <trkpt lat="42.2831280" lon="-7.2626610">
        <ele>1254.0</ele>
        <time>2014-10-01T14:04:44Z</time>
      </trkpt>
      <trkpt lat="42.2831040" lon="-7.2626350">
        <ele>1254.2</ele>
        <time>2014-10-01T14:04:45Z</time>
      </trkpt>
      <trkpt lat="42.2830800" lon="-7.2626090">
        <ele>1254.4</ele>
        <time>2014-10-01T14:04:46Z</time>
      </trkpt>
      <trkpt lat="42.2830530" lon="-7.2625790">
        <ele>1254.6</ele>
        <time>2014-10-01T14:04:47Z</time>
      </trkpt>
      <trkpt lat="42.2830270" lon="-7.2625470">
        <ele>1254.8</ele>
        <time>2014-10-01T14:04:48Z</time>
      </trkpt>
      <trkpt lat="42.2830020" lon="-7.2625180">
        <ele>1255.0</ele>
        <time>2014-10-01T14:04:49Z</time>
      </trkpt>
      <trkpt lat="42.2829780" lon="-7.2624900">
        <ele>1255.2</ele>
        <time>2014-10-01T14:04:50Z</time>
      </trkpt>
      <trkpt lat="42.2829550" lon="-7.2624620">
        <ele>1255.4</ele>
        <time>2014-10-01T14:04:51Z</time>
      </trkpt>
      <trkpt lat="42.2829340" lon="-7.2624350">
        <ele>1255.6</ele>
        <time>2014-10-01T14:04:52Z</time>
      </trkpt>
      <trkpt lat="42.2829110" lon="-7.2624070">
        <ele>1255.7</ele>
        <time>2014-10-01T14:04:53Z</time>
      </trkpt>
      <trkpt lat="42.2828850" lon="-7.2623780">
        <ele>1255.9</ele>
        <time>2014-10-01T14:04:54Z</time>
      </trkpt>
      <trkpt lat="42.2828590" lon="-7.2623490">
        <ele>1256.1</ele>
        <time>2014-10-01T14:04:55Z</time>
      </trkpt>
      <trkpt lat="42.2828290" lon="-7.2623210">
        <ele>1256.3</ele>
        <time>2014-10-01T14:04:56Z</time>
      </trkpt>
      <trkpt lat="42.2827970" lon="-7.2622960">
        <ele>1256.5</ele>
        <time>2014-10-01T14:04:57Z</time>
      </trkpt>
      <trkpt lat="42.2827620" lon="-7.2622720">
        <ele>1256.8</ele>
        <time>2014-10-01T14:04:58Z</time>
      </trkpt>
      <trkpt lat="42.2827300" lon="-7.2622530">
        <ele>1257.0</ele>
        <time>2014-10-01T14:04:59Z</time>
      </trkpt>
      <trkpt lat="42.2826980" lon="-7.2622450">
        <ele>1257.3</ele>
        <time>2014-10-01T14:05:00Z</time>
      </trkpt>
      <trkpt lat="42.2826670" lon="-7.2622370">
        <ele>1257.5</ele>
        <time>2014-10-01T14:05:01Z</time>
      </trkpt>
      <trkpt lat="42.2826380" lon="-7.2622320">
        <ele>1257.7</ele>
        <time>2014-10-01T14:05:02Z</time>
      </trkpt>
      <trkpt lat="42.2826070" lon="-7.2622280">
        <ele>1258.0</ele>
        <time>2014-10-01T14:05:03Z</time>
      </trkpt>
      <trkpt lat="42.2825770" lon="-7.2622280">
        <ele>1258.2</ele>
        <time>2014-10-01T14:05:04Z</time>
      </trkpt>
      <trkpt lat="42.2825480" lon="-7.2622290">
        <ele>1258.4</ele>
        <time>2014-10-01T14:05:05Z</time>
      </trkpt>
      <trkpt lat="42.2825200" lon="-7.2622310">
        <ele>1258.7</ele>
        <time>2014-10-01T14:05:06Z</time>
      </trkpt>
      <trkpt lat="42.2824920" lon="-7.2622330">
        <ele>1258.9</ele>
        <time>2014-10-01T14:05:07Z</time>
      </trkpt>
      <trkpt lat="42.2824640" lon="-7.2622350">
        <ele>1259.2</ele>
        <time>2014-10-01T14:05:08Z</time>
      </trkpt>
      <trkpt lat="42.2824350" lon="-7.2622390">
        <ele>1259.4</ele>
        <time>2014-10-01T14:05:09Z</time>
      </trkpt>
      <trkpt lat="42.2824070" lon="-7.2622410">
        <ele>1259.7</ele>
        <time>2014-10-01T14:05:10Z</time>
      </trkpt>
      <trkpt lat="42.2823800" lon="-7.2622420">
        <ele>1259.9</ele>
        <time>2014-10-01T14:05:11Z</time>
      </trkpt>
      <trkpt lat="42.2823270" lon="-7.2622440">
        <ele>1260.4</ele>
        <time>2014-10-01T14:05:13Z</time>
      </trkpt>
      <trkpt lat="42.2822790" lon="-7.2622430">
        <ele>1260.9</ele>
        <time>2014-10-01T14:05:15Z</time>
      </trkpt>
      <trkpt lat="42.2822310" lon="-7.2622480">
        <ele>1261.3</ele>
        <time>2014-10-01T14:05:17Z</time>
      </trkpt>
      <trkpt lat="42.2822030" lon="-7.2622520">
        <ele>1261.6</ele>
        <time>2014-10-01T14:05:18Z</time>
      </trkpt>
      <trkpt lat="42.2821730" lon="-7.2622560">
        <ele>1261.9</ele>
        <time>2014-10-01T14:05:19Z</time>
      </trkpt>
      <trkpt lat="42.2821420" lon="-7.2622630">
        <ele>1262.2</ele>
        <time>2014-10-01T14:05:20Z</time>
      </trkpt>
      <trkpt lat="42.2821150" lon="-7.2622680">
        <ele>1262.5</ele>
        <time>2014-10-01T14:05:21Z</time>
      </trkpt>
      <trkpt lat="42.2820670" lon="-7.2622730">
        <ele>1263.0</ele>
        <time>2014-10-01T14:05:23Z</time>
      </trkpt>
      <trkpt lat="42.2820170" lon="-7.2622780">
        <ele>1263.5</ele>
        <time>2014-10-01T14:05:25Z</time>
      </trkpt>
      <trkpt lat="42.2819670" lon="-7.2622780">
        <ele>1264.1</ele>
        <time>2014-10-01T14:05:27Z</time>
      </trkpt>
      <trkpt lat="42.2819170" lon="-7.2622730">
        <ele>1264.6</ele>
        <time>2014-10-01T14:05:29Z</time>
      </trkpt>
      <trkpt lat="42.2818670" lon="-7.2622680">
        <ele>1265.2</ele>
        <time>2014-10-01T14:05:31Z</time>
      </trkpt>
      <trkpt lat="42.2818190" lon="-7.2622690">
        <ele>1265.7</ele>
        <time>2014-10-01T14:05:33Z</time>
      </trkpt>
      <trkpt lat="42.2817700" lon="-7.2622720">
        <ele>1266.3</ele>
        <time>2014-10-01T14:05:35Z</time>
      </trkpt>
      <trkpt lat="42.2817250" lon="-7.2622760">
        <ele>1266.9</ele>
        <time>2014-10-01T14:05:37Z</time>
      </trkpt>
      <trkpt lat="42.2816780" lon="-7.2622810">
        <ele>1267.4</ele>
        <time>2014-10-01T14:05:39Z</time>
      </trkpt>
      <trkpt lat="42.2816300" lon="-7.2622850">
        <ele>1268.0</ele>
        <time>2014-10-01T14:05:41Z</time>
      </trkpt>
      <trkpt lat="42.2815820" lon="-7.2622840">
        <ele>1268.6</ele>
        <time>2014-10-01T14:05:43Z</time>
      </trkpt>
      <trkpt lat="42.2815420" lon="-7.2622880">
        <ele>1269.1</ele>
        <time>2014-10-01T14:05:45Z</time>
      </trkpt>
      <trkpt lat="42.2815030" lon="-7.2622870">
        <ele>1269.6</ele>
        <time>2014-10-01T14:05:47Z</time>
      </trkpt>
      <trkpt lat="42.2814620" lon="-7.2622830">
        <ele>1270.1</ele>
        <time>2014-10-01T14:05:49Z</time>
      </trkpt>
      <trkpt lat="42.2814150" lon="-7.2622830">
        <ele>1270.6</ele>
        <time>2014-10-01T14:05:51Z</time>
      </trkpt>
      <trkpt lat="42.2813690" lon="-7.2622880">
        <ele>1271.2</ele>
        <time>2014-10-01T14:05:53Z</time>
      </trkpt>
      <trkpt lat="42.2813240" lon="-7.2622930">
        <ele>1271.6</ele>
        <time>2014-10-01T14:05:55Z</time>
      </trkpt>
      <trkpt lat="42.2812750" lon="-7.2622950">
        <ele>1272.1</ele>
        <time>2014-10-01T14:05:57Z</time>
      </trkpt>
      <trkpt lat="42.2812240" lon="-7.2623000">
        <ele>1272.7</ele>
        <time>2014-10-01T14:05:59Z</time>
      </trkpt>
      <trkpt lat="42.2811760" lon="-7.2623000">
        <ele>1273.2</ele>
        <time>2014-10-01T14:06:01Z</time>
      </trkpt>
      <trkpt lat="42.2811300" lon="-7.2623000">
        <ele>1273.6</ele>
        <time>2014-10-01T14:06:03Z</time>
      </trkpt>
      <trkpt lat="42.2810810" lon="-7.2623020">
        <ele>1274.1</ele>
        <time>2014-10-01T14:06:05Z</time>
      </trkpt>
      <trkpt lat="42.2810330" lon="-7.2623040">
        <ele>1274.6</ele>
        <time>2014-10-01T14:06:07Z</time>
      </trkpt>
      <trkpt lat="42.2809850" lon="-7.2623080">
        <ele>1275.1</ele>
        <time>2014-10-01T14:06:09Z</time>
      </trkpt>
      <trkpt lat="42.2809380" lon="-7.2623130">
        <ele>1275.5</ele>
        <time>2014-10-01T14:06:11Z</time>
      </trkpt>
      <trkpt lat="42.2808920" lon="-7.2623110">
        <ele>1276.0</ele>
        <time>2014-10-01T14:06:13Z</time>
      </trkpt>
      <trkpt lat="42.2808480" lon="-7.2623090">
        <ele>1276.5</ele>
        <time>2014-10-01T14:06:15Z</time>
      </trkpt>
      <trkpt lat="42.2808030" lon="-7.2623090">
        <ele>1277.0</ele>
        <time>2014-10-01T14:06:17Z</time>
      </trkpt>
      <trkpt lat="42.2807540" lon="-7.2623100">
        <ele>1277.5</ele>
        <time>2014-10-01T14:06:19Z</time>
      </trkpt>
      <trkpt lat="42.2807050" lon="-7.2623100">
        <ele>1278.0</ele>
        <time>2014-10-01T14:06:21Z</time>
      </trkpt>
      <trkpt lat="42.2806580" lon="-7.2623110">
        <ele>1278.6</ele>
        <time>2014-10-01T14:06:23Z</time>
      </trkpt>
      <trkpt lat="42.2806110" lon="-7.2623170">
        <ele>1279.1</ele>
        <time>2014-10-01T14:06:25Z</time>
      </trkpt>
      <trkpt lat="42.2805640" lon="-7.2623170">
        <ele>1279.6</ele>
        <time>2014-10-01T14:06:27Z</time>
      </trkpt>
      <trkpt lat="42.2805180" lon="-7.2623160">
        <ele>1280.2</ele>
        <time>2014-10-01T14:06:29Z</time>
      </trkpt>
      <trkpt lat="42.2804730" lon="-7.2623160">
        <ele>1280.7</ele>
        <time>2014-10-01T14:06:31Z</time>
      </trkpt>
      <trkpt lat="42.2804280" lon="-7.2623180">
        <ele>1281.2</ele>
        <time>2014-10-01T14:06:33Z</time>
      </trkpt>
      <trkpt lat="42.2803850" lon="-7.2623170">
        <ele>1281.7</ele>
        <time>2014-10-01T14:06:35Z</time>
      </trkpt>
      <trkpt lat="42.2803400" lon="-7.2623180">
        <ele>1282.2</ele>
        <time>2014-10-01T14:06:37Z</time>
      </trkpt>
      <trkpt lat="42.2802930" lon="-7.2623220">
        <ele>1282.6</ele>
        <time>2014-10-01T14:06:39Z</time>
      </trkpt>
      <trkpt lat="42.2802410" lon="-7.2623270">
        <ele>1283.2</ele>
        <time>2014-10-01T14:06:41Z</time>
      </trkpt>
      <trkpt lat="42.2801880" lon="-7.2623330">
        <ele>1283.7</ele>
        <time>2014-10-01T14:06:43Z</time>
      </trkpt>
      <trkpt lat="42.2801610" lon="-7.2623360">
        <ele>1283.9</ele>
        <time>2014-10-01T14:06:44Z</time>
      </trkpt>
      <trkpt lat="42.2801080" lon="-7.2623400">
        <ele>1284.4</ele>
        <time>2014-10-01T14:06:46Z</time>
      </trkpt>
      <trkpt lat="42.2800570" lon="-7.2623420">
        <ele>1284.9</ele>
        <time>2014-10-01T14:06:48Z</time>
      </trkpt>
      <trkpt lat="42.2800040" lon="-7.2623440">
        <ele>1285.4</ele>
        <time>2014-10-01T14:06:50Z</time>
      </trkpt>
      <trkpt lat="42.2799770" lon="-7.2623490">
        <ele>1285.6</ele>
        <time>2014-10-01T14:06:51Z</time>
      </trkpt>
      <trkpt lat="42.2799490" lon="-7.2623520">
        <ele>1285.8</ele>
        <time>2014-10-01T14:06:52Z</time>
      </trkpt>
      <trkpt lat="42.2799200" lon="-7.2623530">
        <ele>1286.1</ele>
        <time>2014-10-01T14:06:53Z</time>
      </trkpt>
      <trkpt lat="42.2798910" lon="-7.2623550">
        <ele>1286.4</ele>
        <time>2014-10-01T14:06:54Z</time>
      </trkpt>
      <trkpt lat="42.2798630" lon="-7.2623560">
        <ele>1286.6</ele>
        <time>2014-10-01T14:06:55Z</time>
      </trkpt>
      <trkpt lat="42.2798350" lon="-7.2623550">
        <ele>1286.8</ele>
        <time>2014-10-01T14:06:56Z</time>
      </trkpt>
      <trkpt lat="42.2798060" lon="-7.2623550">
        <ele>1287.1</ele>
        <time>2014-10-01T14:06:57Z</time>
      </trkpt>
      <trkpt lat="42.2797770" lon="-7.2623570">
        <ele>1287.3</ele>
        <time>2014-10-01T14:06:58Z</time>
      </trkpt>
      <trkpt lat="42.2797490" lon="-7.2623620">
        <ele>1287.6</ele>
        <time>2014-10-01T14:06:59Z</time>
      </trkpt>
      <trkpt lat="42.2796940" lon="-7.2623780">
        <ele>1288.1</ele>
        <time>2014-10-01T14:07:01Z</time>
      </trkpt>
      <trkpt lat="42.2796650" lon="-7.2623870">
        <ele>1288.4</ele>
        <time>2014-10-01T14:07:02Z</time>
      </trkpt>
      <trkpt lat="42.2796370" lon="-7.2623940">
        <ele>1288.6</ele>
        <time>2014-10-01T14:07:03Z</time>
      </trkpt>
      <trkpt lat="42.2795880" lon="-7.2624130">
        <ele>1289.1</ele>
        <time>2014-10-01T14:07:05Z</time>
      </trkpt>
      <trkpt lat="42.2795380" lon="-7.2624320">
        <ele>1289.6</ele>
        <time>2014-10-01T14:07:07Z</time>
      </trkpt>
      <trkpt lat="42.2795120" lon="-7.2624450">
        <ele>1290.0</ele>
        <time>2014-10-01T14:07:08Z</time>
      </trkpt>
      <trkpt lat="42.2794870" lon="-7.2624590">
        <ele>1290.4</ele>
        <time>2014-10-01T14:07:09Z</time>
      </trkpt>
      <trkpt lat="42.2794410" lon="-7.2624900">
        <ele>1291.1</ele>
        <time>2014-10-01T14:07:11Z</time>
      </trkpt>
      <trkpt lat="42.2793980" lon="-7.2625180">
        <ele>1291.8</ele>
        <time>2014-10-01T14:07:13Z</time>
      </trkpt>
      <trkpt lat="42.2793500" lon="-7.2625470">
        <ele>1292.5</ele>
        <time>2014-10-01T14:07:15Z</time>
      </trkpt>
      <trkpt lat="42.2793060" lon="-7.2625800">
        <ele>1293.1</ele>
        <time>2014-10-01T14:07:17Z</time>
      </trkpt>
      <trkpt lat="42.2792610" lon="-7.2626180">
        <ele>1293.8</ele>
        <time>2014-10-01T14:07:19Z</time>
      </trkpt>
      <trkpt lat="42.2792210" lon="-7.2626630">
        <ele>1294.5</ele>
        <time>2014-10-01T14:07:21Z</time>
      </trkpt>
      <trkpt lat="42.2791830" lon="-7.2627080">
        <ele>1295.1</ele>
        <time>2014-10-01T14:07:23Z</time>
      </trkpt>
      <trkpt lat="42.2791500" lon="-7.2627500">
        <ele>1295.7</ele>
        <time>2014-10-01T14:07:25Z</time>
      </trkpt>
      <trkpt lat="42.2791290" lon="-7.2627730">
        <ele>1296.1</ele>
        <time>2014-10-01T14:07:26Z</time>
      </trkpt>
      <trkpt lat="42.2791070" lon="-7.2627960">
        <ele>1296.5</ele>
        <time>2014-10-01T14:07:27Z</time>
      </trkpt>
      <trkpt lat="42.2790740" lon="-7.2628420">
        <ele>1297.2</ele>
        <time>2014-10-01T14:07:29Z</time>
      </trkpt>
      <trkpt lat="42.2790420" lon="-7.2628930">
        <ele>1298.0</ele>
        <time>2014-10-01T14:07:31Z</time>
      </trkpt>
      <trkpt lat="42.2790230" lon="-7.2629220">
        <ele>1298.3</ele>
        <time>2014-10-01T14:07:32Z</time>
      </trkpt>
      <trkpt lat="42.2789960" lon="-7.2629750">
        <ele>1298.9</ele>
        <time>2014-10-01T14:07:34Z</time>
      </trkpt>
      <trkpt lat="42.2789810" lon="-7.2630180">
        <ele>1299.3</ele>
        <time>2014-10-01T14:07:36Z</time>
      </trkpt>
      <trkpt lat="42.2789610" lon="-7.2630650">
        <ele>1299.7</ele>
        <time>2014-10-01T14:07:38Z</time>
      </trkpt>
      <trkpt lat="42.2789420" lon="-7.2631240">
        <ele>1300.2</ele>
        <time>2014-10-01T14:07:40Z</time>
      </trkpt>
      <trkpt lat="42.2789210" lon="-7.2631850">
        <ele>1300.7</ele>
        <time>2014-10-01T14:07:42Z</time>
      </trkpt>
      <trkpt lat="42.2789040" lon="-7.2632490">
        <ele>1301.2</ele>
        <time>2014-10-01T14:07:44Z</time>
      </trkpt>
      <trkpt lat="42.2788880" lon="-7.2633160">
        <ele>1301.6</ele>
        <time>2014-10-01T14:07:46Z</time>
      </trkpt>
      <trkpt lat="42.2788780" lon="-7.2633520">
        <ele>1301.9</ele>
        <time>2014-10-01T14:07:47Z</time>
      </trkpt>
      <trkpt lat="42.2788700" lon="-7.2633880">
        <ele>1302.1</ele>
        <time>2014-10-01T14:07:48Z</time>
      </trkpt>
      <trkpt lat="42.2788610" lon="-7.2634250">
        <ele>1302.3</ele>
        <time>2014-10-01T14:07:49Z</time>
      </trkpt>
      <trkpt lat="42.2788560" lon="-7.2634610">
        <ele>1302.5</ele>
        <time>2014-10-01T14:07:50Z</time>
      </trkpt>
      <trkpt lat="42.2788510" lon="-7.2635000">
        <ele>1302.7</ele>
        <time>2014-10-01T14:07:51Z</time>
      </trkpt>
      <trkpt lat="42.2788450" lon="-7.2635450">
        <ele>1302.9</ele>
        <time>2014-10-01T14:07:52Z</time>
      </trkpt>
      <trkpt lat="42.2788430" lon="-7.2635890">
        <ele>1303.1</ele>
        <time>2014-10-01T14:07:53Z</time>
      </trkpt>
      <trkpt lat="42.2788410" lon="-7.2636320">
        <ele>1303.3</ele>
        <time>2014-10-01T14:07:54Z</time>
      </trkpt>
      <trkpt lat="42.2788380" lon="-7.2636800">
        <ele>1303.5</ele>
        <time>2014-10-01T14:07:55Z</time>
      </trkpt>
      <trkpt lat="42.2788400" lon="-7.2637240">
        <ele>1303.7</ele>
        <time>2014-10-01T14:07:56Z</time>
      </trkpt>
      <trkpt lat="42.2788410" lon="-7.2637680">
        <ele>1303.8</ele>
        <time>2014-10-01T14:07:57Z</time>
      </trkpt>
      <trkpt lat="42.2788450" lon="-7.2638150">
        <ele>1304.0</ele>
        <time>2014-10-01T14:07:58Z</time>
      </trkpt>
      <trkpt lat="42.2788500" lon="-7.2638600">
        <ele>1304.2</ele>
        <time>2014-10-01T14:07:59Z</time>
      </trkpt>
      <trkpt lat="42.2788570" lon="-7.2639070">
        <ele>1304.4</ele>
        <time>2014-10-01T14:08:00Z</time>
      </trkpt>
      <trkpt lat="42.2788670" lon="-7.2639540">
        <ele>1304.5</ele>
        <time>2014-10-01T14:08:01Z</time>
      </trkpt>
      <trkpt lat="42.2788810" lon="-7.2639980">
        <ele>1304.7</ele>
        <time>2014-10-01T14:08:02Z</time>
      </trkpt>
      <trkpt lat="42.2788960" lon="-7.2640460">
        <ele>1304.9</ele>
        <time>2014-10-01T14:08:03Z</time>
      </trkpt>
      <trkpt lat="42.2789130" lon="-7.2640940">
        <ele>1305.1</ele>
        <time>2014-10-01T14:08:04Z</time>
      </trkpt>
      <trkpt lat="42.2789260" lon="-7.2641390">
        <ele>1305.3</ele>
        <time>2014-10-01T14:08:05Z</time>
      </trkpt>
      <trkpt lat="42.2789380" lon="-7.2641920">
        <ele>1305.5</ele>
        <time>2014-10-01T14:08:06Z</time>
      </trkpt>
      <trkpt lat="42.2789510" lon="-7.2642470">
        <ele>1305.7</ele>
        <time>2014-10-01T14:08:07Z</time>
      </trkpt>
      <trkpt lat="42.2789610" lon="-7.2642980">
        <ele>1305.8</ele>
        <time>2014-10-01T14:08:08Z</time>
      </trkpt>
      <trkpt lat="42.2789720" lon="-7.2643500">
        <ele>1306.0</ele>
        <time>2014-10-01T14:08:09Z</time>
      </trkpt>
      <trkpt lat="42.2789880" lon="-7.2643990">
        <ele>1306.2</ele>
        <time>2014-10-01T14:08:10Z</time>
      </trkpt>
      <trkpt lat="42.2790020" lon="-7.2644490">
        <ele>1306.4</ele>
        <time>2014-10-01T14:08:11Z</time>
      </trkpt>
      <trkpt lat="42.2790190" lon="-7.2644980">
        <ele>1306.7</ele>
        <time>2014-10-01T14:08:12Z</time>
      </trkpt>
      <trkpt lat="42.2790360" lon="-7.2645430">
        <ele>1306.8</ele>
        <time>2014-10-01T14:08:13Z</time>
      </trkpt>
      <trkpt lat="42.2790520" lon="-7.2645870">
        <ele>1307.0</ele>
        <time>2014-10-01T14:08:14Z</time>
      </trkpt>
      <trkpt lat="42.2790660" lon="-7.2646320">
        <ele>1307.2</ele>
        <time>2014-10-01T14:08:15Z</time>
      </trkpt>
      <trkpt lat="42.2790800" lon="-7.2646760">
        <ele>1307.4</ele>
        <time>2014-10-01T14:08:16Z</time>
      </trkpt>
      <trkpt lat="42.2790970" lon="-7.2647200">
        <ele>1307.6</ele>
        <time>2014-10-01T14:08:17Z</time>
      </trkpt>
      <trkpt lat="42.2791140" lon="-7.2647650">
        <ele>1307.9</ele>
        <time>2014-10-01T14:08:18Z</time>
      </trkpt>
      <trkpt lat="42.2791300" lon="-7.2648130">
        <ele>1308.1</ele>
        <time>2014-10-01T14:08:19Z</time>
      </trkpt>
      <trkpt lat="42.2791440" lon="-7.2648570">
        <ele>1308.4</ele>
        <time>2014-10-01T14:08:20Z</time>
      </trkpt>
      <trkpt lat="42.2791570" lon="-7.2649020">
        <ele>1308.6</ele>
        <time>2014-10-01T14:08:21Z</time>
      </trkpt>
      <trkpt lat="42.2791690" lon="-7.2649470">
        <ele>1308.9</ele>
        <time>2014-10-01T14:08:22Z</time>
      </trkpt>
      <trkpt lat="42.2791820" lon="-7.2649870">
        <ele>1309.1</ele>
        <time>2014-10-01T14:08:23Z</time>
      </trkpt>
      <trkpt lat="42.2791950" lon="-7.2650280">
        <ele>1309.4</ele>
        <time>2014-10-01T14:08:24Z</time>
      </trkpt>
      <trkpt lat="42.2792080" lon="-7.2650790">
        <ele>1309.6</ele>
        <time>2014-10-01T14:08:25Z</time>
      </trkpt>
      <trkpt lat="42.2792210" lon="-7.2651330">
        <ele>1310.0</ele>
        <time>2014-10-01T14:08:26Z</time>
      </trkpt>
      <trkpt lat="42.2792300" lon="-7.2651730">
        <ele>1310.2</ele>
        <time>2014-10-01T14:08:27Z</time>
      </trkpt>
      <trkpt lat="42.2792410" lon="-7.2652180">
        <ele>1310.5</ele>
        <time>2014-10-01T14:08:28Z</time>
      </trkpt>
      <trkpt lat="42.2792530" lon="-7.2652590">
        <ele>1310.7</ele>
        <time>2014-10-01T14:08:29Z</time>
      </trkpt>
      <trkpt lat="42.2792660" lon="-7.2653020">
        <ele>1311.0</ele>
        <time>2014-10-01T14:08:30Z</time>
      </trkpt>
      <trkpt lat="42.2792770" lon="-7.2653500">
        <ele>1311.3</ele>
        <time>2014-10-01T14:08:31Z</time>
      </trkpt>
      <trkpt lat="42.2792900" lon="-7.2654010">
        <ele>1311.6</ele>
        <time>2014-10-01T14:08:32Z</time>
      </trkpt>
      <trkpt lat="42.2793000" lon="-7.2654410">
        <ele>1311.8</ele>
        <time>2014-10-01T14:08:33Z</time>
      </trkpt>
      <trkpt lat="42.2793100" lon="-7.2654860">
        <ele>1312.0</ele>
        <time>2014-10-01T14:08:34Z</time>
      </trkpt>
      <trkpt lat="42.2793180" lon="-7.2655210">
        <ele>1312.2</ele>
        <time>2014-10-01T14:08:35Z</time>
      </trkpt>
      <trkpt lat="42.2793250" lon="-7.2655600">
        <ele>1312.4</ele>
        <time>2014-10-01T14:08:36Z</time>
      </trkpt>
      <trkpt lat="42.2793320" lon="-7.2656010">
        <ele>1312.7</ele>
        <time>2014-10-01T14:08:37Z</time>
      </trkpt>
      <trkpt lat="42.2793400" lon="-7.2656480">
        <ele>1312.9</ele>
        <time>2014-10-01T14:08:38Z</time>
      </trkpt>
      <trkpt lat="42.2793520" lon="-7.2657170">
        <ele>1313.4</ele>
        <time>2014-10-01T14:08:40Z</time>
      </trkpt>
      <trkpt lat="42.2793580" lon="-7.2657630">
        <ele>1313.7</ele>
        <time>2014-10-01T14:08:41Z</time>
      </trkpt>
      <trkpt lat="42.2793640" lon="-7.2658110">
        <ele>1314.0</ele>
        <time>2014-10-01T14:08:42Z</time>
      </trkpt>
      <trkpt lat="42.2793660" lon="-7.2658550">
        <ele>1314.3</ele>
        <time>2014-10-01T14:08:43Z</time>
      </trkpt>
      <trkpt lat="42.2793660" lon="-7.2658980">
        <ele>1314.6</ele>
        <time>2014-10-01T14:08:44Z</time>
      </trkpt>
      <trkpt lat="42.2793660" lon="-7.2659340">
        <ele>1314.9</ele>
        <time>2014-10-01T14:08:45Z</time>
      </trkpt>
      <trkpt lat="42.2793640" lon="-7.2660030">
        <ele>1315.3</ele>
        <time>2014-10-01T14:08:47Z</time>
      </trkpt>
      <trkpt lat="42.2793620" lon="-7.2660460">
        <ele>1315.7</ele>
        <time>2014-10-01T14:08:48Z</time>
      </trkpt>
      <trkpt lat="42.2793600" lon="-7.2660920">
        <ele>1316.0</ele>
        <time>2014-10-01T14:08:49Z</time>
      </trkpt>
      <trkpt lat="42.2793580" lon="-7.2661280">
        <ele>1316.3</ele>
        <time>2014-10-01T14:08:50Z</time>
      </trkpt>
      <trkpt lat="42.2793560" lon="-7.2661650">
        <ele>1316.6</ele>
        <time>2014-10-01T14:08:51Z</time>
      </trkpt>
      <trkpt lat="42.2793520" lon="-7.2662080">
        <ele>1316.9</ele>
        <time>2014-10-01T14:08:52Z</time>
      </trkpt>
      <trkpt lat="42.2793460" lon="-7.2662560">
        <ele>1317.3</ele>
        <time>2014-10-01T14:08:53Z</time>
      </trkpt>
      <trkpt lat="42.2793390" lon="-7.2662980">
        <ele>1317.7</ele>
        <time>2014-10-01T14:08:54Z</time>
      </trkpt>
      <trkpt lat="42.2793320" lon="-7.2663720">
        <ele>1318.3</ele>
        <time>2014-10-01T14:08:56Z</time>
      </trkpt>
      <trkpt lat="42.2793260" lon="-7.2664100">
        <ele>1318.6</ele>
        <time>2014-10-01T14:08:57Z</time>
      </trkpt>
      <trkpt lat="42.2793180" lon="-7.2664500">
        <ele>1319.0</ele>
        <time>2014-10-01T14:08:58Z</time>
      </trkpt>
      <trkpt lat="42.2793090" lon="-7.2664930">
        <ele>1319.4</ele>
        <time>2014-10-01T14:08:59Z</time>
      </trkpt>
      <trkpt lat="42.2793000" lon="-7.2665380">
        <ele>1319.8</ele>
        <time>2014-10-01T14:09:00Z</time>
      </trkpt>
      <trkpt lat="42.2792910" lon="-7.2665790">
        <ele>1320.2</ele>
        <time>2014-10-01T14:09:01Z</time>
      </trkpt>
      <trkpt lat="42.2792840" lon="-7.2666140">
        <ele>1320.6</ele>
        <time>2014-10-01T14:09:02Z</time>
      </trkpt>
      <trkpt lat="42.2792680" lon="-7.2666810">
        <ele>1321.2</ele>
        <time>2014-10-01T14:09:04Z</time>
      </trkpt>
      <trkpt lat="42.2792510" lon="-7.2667410">
        <ele>1321.9</ele>
        <time>2014-10-01T14:09:06Z</time>
      </trkpt>
      <trkpt lat="42.2792320" lon="-7.2668000">
        <ele>1322.5</ele>
        <time>2014-10-01T14:09:08Z</time>
      </trkpt>
      <trkpt lat="42.2792130" lon="-7.2668580">
        <ele>1323.1</ele>
        <time>2014-10-01T14:09:10Z</time>
      </trkpt>
      <trkpt lat="42.2791940" lon="-7.2669160">
        <ele>1323.6</ele>
        <time>2014-10-01T14:09:12Z</time>
      </trkpt>
      <trkpt lat="42.2791690" lon="-7.2669740">
        <ele>1324.2</ele>
        <time>2014-10-01T14:09:14Z</time>
      </trkpt>
      <trkpt lat="42.2791440" lon="-7.2670330">
        <ele>1324.7</ele>
        <time>2014-10-01T14:09:16Z</time>
      </trkpt>
      <trkpt lat="42.2791300" lon="-7.2670640">
        <ele>1325.0</ele>
        <time>2014-10-01T14:09:17Z</time>
      </trkpt>
      <trkpt lat="42.2791020" lon="-7.2671150">
        <ele>1325.4</ele>
        <time>2014-10-01T14:09:19Z</time>
      </trkpt>
      <trkpt lat="42.2790680" lon="-7.2671680">
        <ele>1325.9</ele>
        <time>2014-10-01T14:09:21Z</time>
      </trkpt>
      <trkpt lat="42.2790340" lon="-7.2672170">
        <ele>1326.2</ele>
        <time>2014-10-01T14:09:23Z</time>
      </trkpt>
      <trkpt lat="42.2790000" lon="-7.2672630">
        <ele>1326.5</ele>
        <time>2014-10-01T14:09:25Z</time>
      </trkpt>
      <trkpt lat="42.2789700" lon="-7.2673080">
        <ele>1326.7</ele>
        <time>2014-10-01T14:09:27Z</time>
      </trkpt>
      <trkpt lat="42.2789390" lon="-7.2673620">
        <ele>1327.0</ele>
        <time>2014-10-01T14:09:29Z</time>
      </trkpt>
      <trkpt lat="42.2789190" lon="-7.2673900">
        <ele>1327.1</ele>
        <time>2014-10-01T14:09:30Z</time>
      </trkpt>
      <trkpt lat="42.2788960" lon="-7.2674190">
        <ele>1327.2</ele>
        <time>2014-10-01T14:09:31Z</time>
      </trkpt>
      <trkpt lat="42.2788720" lon="-7.2674470">
        <ele>1327.4</ele>
        <time>2014-10-01T14:09:32Z</time>
      </trkpt>
      <trkpt lat="42.2788480" lon="-7.2674740">
        <ele>1327.5</ele>
        <time>2014-10-01T14:09:33Z</time>
      </trkpt>
      <trkpt lat="42.2788230" lon="-7.2675010">
        <ele>1327.6</ele>
        <time>2014-10-01T14:09:34Z</time>
      </trkpt>
      <trkpt lat="42.2787960" lon="-7.2675260">
        <ele>1327.7</ele>
        <time>2014-10-01T14:09:35Z</time>
      </trkpt>
      <trkpt lat="42.2787700" lon="-7.2675500">
        <ele>1327.9</ele>
        <time>2014-10-01T14:09:36Z</time>
      </trkpt>
      <trkpt lat="42.2787410" lon="-7.2675740">
        <ele>1328.0</ele>
        <time>2014-10-01T14:09:37Z</time>
      </trkpt>
      <trkpt lat="42.2787110" lon="-7.2675980">
        <ele>1328.2</ele>
        <time>2014-10-01T14:09:38Z</time>
      </trkpt>
      <trkpt lat="42.2786820" lon="-7.2676210">
        <ele>1328.3</ele>
        <time>2014-10-01T14:09:39Z</time>
      </trkpt>
      <trkpt lat="42.2786530" lon="-7.2676430">
        <ele>1328.5</ele>
        <time>2014-10-01T14:09:40Z</time>
      </trkpt>
      <trkpt lat="42.2786240" lon="-7.2676660">
        <ele>1328.7</ele>
        <time>2014-10-01T14:09:41Z</time>
      </trkpt>
      <trkpt lat="42.2785950" lon="-7.2676910">
        <ele>1328.9</ele>
        <time>2014-10-01T14:09:42Z</time>
      </trkpt>
      <trkpt lat="42.2785650" lon="-7.2677170">
        <ele>1329.1</ele>
        <time>2014-10-01T14:09:43Z</time>
      </trkpt>
      <trkpt lat="42.2785360" lon="-7.2677440">
        <ele>1329.3</ele>
        <time>2014-10-01T14:09:44Z</time>
      </trkpt>
      <trkpt lat="42.2785080" lon="-7.2677720">
        <ele>1329.5</ele>
        <time>2014-10-01T14:09:45Z</time>
      </trkpt>
      <trkpt lat="42.2784800" lon="-7.2678010">
        <ele>1329.8</ele>
        <time>2014-10-01T14:09:46Z</time>
      </trkpt>
      <trkpt lat="42.2784520" lon="-7.2678270">
        <ele>1330.0</ele>
        <time>2014-10-01T14:09:47Z</time>
      </trkpt>
      <trkpt lat="42.2784240" lon="-7.2678520">
        <ele>1330.3</ele>
        <time>2014-10-01T14:09:48Z</time>
      </trkpt>
      <trkpt lat="42.2783990" lon="-7.2678760">
        <ele>1330.5</ele>
        <time>2014-10-01T14:09:49Z</time>
      </trkpt>
      <trkpt lat="42.2783720" lon="-7.2678980">
        <ele>1330.8</ele>
        <time>2014-10-01T14:09:50Z</time>
      </trkpt>
      <trkpt lat="42.2783480" lon="-7.2679190">
        <ele>1331.0</ele>
        <time>2014-10-01T14:09:51Z</time>
      </trkpt>
      <trkpt lat="42.2783050" lon="-7.2679530">
        <ele>1331.5</ele>
        <time>2014-10-01T14:09:53Z</time>
      </trkpt>
      <trkpt lat="42.2782670" lon="-7.2679820">
        <ele>1331.9</ele>
        <time>2014-10-01T14:09:55Z</time>
      </trkpt>
      <trkpt lat="42.2782310" lon="-7.2680150">
        <ele>1332.4</ele>
        <time>2014-10-01T14:09:57Z</time>
      </trkpt>
      <trkpt lat="42.2782000" lon="-7.2680530">
        <ele>1332.9</ele>
        <time>2014-10-01T14:09:59Z</time>
      </trkpt>
      <trkpt lat="42.2781680" lon="-7.2680890">
        <ele>1333.4</ele>
        <time>2014-10-01T14:10:01Z</time>
      </trkpt>
      <trkpt lat="42.2781370" lon="-7.2681230">
        <ele>1333.8</ele>
        <time>2014-10-01T14:10:03Z</time>
      </trkpt>
      <trkpt lat="42.2781060" lon="-7.2681560">
        <ele>1334.3</ele>
        <time>2014-10-01T14:10:05Z</time>
      </trkpt>
      <trkpt lat="42.2780730" lon="-7.2681950">
        <ele>1334.9</ele>
        <time>2014-10-01T14:10:07Z</time>
      </trkpt>
      <trkpt lat="42.2780410" lon="-7.2682300">
        <ele>1335.4</ele>
        <time>2014-10-01T14:10:09Z</time>
      </trkpt>
      <trkpt lat="42.2780040" lon="-7.2682640">
        <ele>1336.0</ele>
        <time>2014-10-01T14:10:11Z</time>
      </trkpt>
      <trkpt lat="42.2779710" lon="-7.2682880">
        <ele>1336.5</ele>
        <time>2014-10-01T14:10:13Z</time>
      </trkpt>
      <trkpt lat="42.2779340" lon="-7.2683220">
        <ele>1337.0</ele>
        <time>2014-10-01T14:10:15Z</time>
      </trkpt>
      <trkpt lat="42.2779040" lon="-7.2683520">
        <ele>1337.5</ele>
        <time>2014-10-01T14:10:17Z</time>
      </trkpt>
      <trkpt lat="42.2778760" lon="-7.2683800">
        <ele>1337.9</ele>
        <time>2014-10-01T14:10:19Z</time>
      </trkpt>
      <trkpt lat="42.2778440" lon="-7.2684100">
        <ele>1338.4</ele>
        <time>2014-10-01T14:10:21Z</time>
      </trkpt>
      <trkpt lat="42.2778090" lon="-7.2684480">
        <ele>1338.9</ele>
        <time>2014-10-01T14:10:23Z</time>
      </trkpt>
      <trkpt lat="42.2777720" lon="-7.2684850">
        <ele>1339.4</ele>
        <time>2014-10-01T14:10:25Z</time>
      </trkpt>
      <trkpt lat="42.2777350" lon="-7.2685170">
        <ele>1340.0</ele>
        <time>2014-10-01T14:10:27Z</time>
      </trkpt>
      <trkpt lat="42.2776990" lon="-7.2685500">
        <ele>1340.5</ele>
        <time>2014-10-01T14:10:29Z</time>
      </trkpt>
      <trkpt lat="42.2776670" lon="-7.2685890">
        <ele>1341.0</ele>
        <time>2014-10-01T14:10:31Z</time>
      </trkpt>
      <trkpt lat="42.2776360" lon="-7.2686240">
        <ele>1341.5</ele>
        <time>2014-10-01T14:10:33Z</time>
      </trkpt>
      <trkpt lat="42.2776050" lon="-7.2686510">
        <ele>1342.0</ele>
        <time>2014-10-01T14:10:35Z</time>
      </trkpt>
      <trkpt lat="42.2775780" lon="-7.2686810">
        <ele>1342.4</ele>
        <time>2014-10-01T14:10:37Z</time>
      </trkpt>
      <trkpt lat="42.2775490" lon="-7.2687150">
        <ele>1342.8</ele>
        <time>2014-10-01T14:10:39Z</time>
      </trkpt>
      <trkpt lat="42.2775130" lon="-7.2687390">
        <ele>1343.3</ele>
        <time>2014-10-01T14:10:41Z</time>
      </trkpt>
      <trkpt lat="42.2774750" lon="-7.2687660">
        <ele>1343.7</ele>
        <time>2014-10-01T14:10:43Z</time>
      </trkpt>
      <trkpt lat="42.2774390" lon="-7.2687910">
        <ele>1344.2</ele>
        <time>2014-10-01T14:10:45Z</time>
      </trkpt>
      <trkpt lat="42.2774050" lon="-7.2688130">
        <ele>1344.6</ele>
        <time>2014-10-01T14:10:47Z</time>
      </trkpt>
      <trkpt lat="42.2773710" lon="-7.2688300">
        <ele>1345.1</ele>
        <time>2014-10-01T14:10:49Z</time>
      </trkpt>
      <trkpt lat="42.2773300" lon="-7.2688480">
        <ele>1345.6</ele>
        <time>2014-10-01T14:10:51Z</time>
      </trkpt>
      <trkpt lat="42.2772890" lon="-7.2688610">
        <ele>1346.1</ele>
        <time>2014-10-01T14:10:53Z</time>
      </trkpt>
      <trkpt lat="42.2772440" lon="-7.2688810">
        <ele>1346.6</ele>
        <time>2014-10-01T14:10:55Z</time>
      </trkpt>
      <trkpt lat="42.2772020" lon="-7.2688950">
        <ele>1347.0</ele>
        <time>2014-10-01T14:10:57Z</time>
      </trkpt>
      <trkpt lat="42.2771620" lon="-7.2688980">
        <ele>1347.5</ele>
        <time>2014-10-01T14:10:59Z</time>
      </trkpt>
      <trkpt lat="42.2771210" lon="-7.2688950">
        <ele>1347.8</ele>
        <time>2014-10-01T14:11:01Z</time>
      </trkpt>
      <trkpt lat="42.2770820" lon="-7.2688850">
        <ele>1348.2</ele>
        <time>2014-10-01T14:11:03Z</time>
      </trkpt>
      <trkpt lat="42.2770380" lon="-7.2688690">
        <ele>1348.6</ele>
        <time>2014-10-01T14:11:05Z</time>
      </trkpt>
      <trkpt lat="42.2769870" lon="-7.2688440">
        <ele>1349.1</ele>
        <time>2014-10-01T14:11:07Z</time>
      </trkpt>
      <trkpt lat="42.2769380" lon="-7.2688230">
        <ele>1349.5</ele>
        <time>2014-10-01T14:11:09Z</time>
      </trkpt>
      <trkpt lat="42.2768850" lon="-7.2688050">
        <ele>1349.9</ele>
        <time>2014-10-01T14:11:11Z</time>
      </trkpt>
      <trkpt lat="42.2768550" lon="-7.2687950">
        <ele>1350.1</ele>
        <time>2014-10-01T14:11:12Z</time>
      </trkpt>
      <trkpt lat="42.2768250" lon="-7.2687850">
        <ele>1350.3</ele>
        <time>2014-10-01T14:11:13Z</time>
      </trkpt>
      <trkpt lat="42.2767950" lon="-7.2687760">
        <ele>1350.6</ele>
        <time>2014-10-01T14:11:14Z</time>
      </trkpt>
      <trkpt lat="42.2767670" lon="-7.2687630">
        <ele>1350.8</ele>
        <time>2014-10-01T14:11:15Z</time>
      </trkpt>
      <trkpt lat="42.2767400" lon="-7.2687500">
        <ele>1351.0</ele>
        <time>2014-10-01T14:11:16Z</time>
      </trkpt>
      <trkpt lat="42.2767140" lon="-7.2687360">
        <ele>1351.2</ele>
        <time>2014-10-01T14:11:17Z</time>
      </trkpt>
      <trkpt lat="42.2766880" lon="-7.2687250">
        <ele>1351.4</ele>
        <time>2014-10-01T14:11:18Z</time>
      </trkpt>
      <trkpt lat="42.2766610" lon="-7.2687150">
        <ele>1351.6</ele>
        <time>2014-10-01T14:11:19Z</time>
      </trkpt>
      <trkpt lat="42.2766090" lon="-7.2686960">
        <ele>1351.9</ele>
        <time>2014-10-01T14:11:21Z</time>
      </trkpt>
      <trkpt lat="42.2765810" lon="-7.2686870">
        <ele>1352.1</ele>
        <time>2014-10-01T14:11:22Z</time>
      </trkpt>
      <trkpt lat="42.2765530" lon="-7.2686770">
        <ele>1352.3</ele>
        <time>2014-10-01T14:11:23Z</time>
      </trkpt>
      <trkpt lat="42.2765250" lon="-7.2686720">
        <ele>1352.5</ele>
        <time>2014-10-01T14:11:24Z</time>
      </trkpt>
      <trkpt lat="42.2764960" lon="-7.2686650">
        <ele>1352.7</ele>
        <time>2014-10-01T14:11:25Z</time>
      </trkpt>
      <trkpt lat="42.2764670" lon="-7.2686630">
        <ele>1352.8</ele>
        <time>2014-10-01T14:11:26Z</time>
      </trkpt>
      <trkpt lat="42.2764390" lon="-7.2686640">
        <ele>1353.0</ele>
        <time>2014-10-01T14:11:27Z</time>
      </trkpt>
      <trkpt lat="42.2763880" lon="-7.2686710">
        <ele>1353.3</ele>
        <time>2014-10-01T14:11:29Z</time>
      </trkpt>
      <trkpt lat="42.2763350" lon="-7.2686780">
        <ele>1353.7</ele>
        <time>2014-10-01T14:11:31Z</time>
      </trkpt>
      <trkpt lat="42.2763070" lon="-7.2686870">
        <ele>1353.9</ele>
        <time>2014-10-01T14:11:32Z</time>
      </trkpt>
      <trkpt lat="42.2762810" lon="-7.2687010">
        <ele>1354.1</ele>
        <time>2014-10-01T14:11:33Z</time>
      </trkpt>
      <trkpt lat="42.2762550" lon="-7.2687160">
        <ele>1354.3</ele>
        <time>2014-10-01T14:11:34Z</time>
      </trkpt>
      <trkpt lat="42.2762050" lon="-7.2687490">
        <ele>1354.8</ele>
        <time>2014-10-01T14:11:36Z</time>
      </trkpt>
      <trkpt lat="42.2761800" lon="-7.2687700">
        <ele>1355.0</ele>
        <time>2014-10-01T14:11:37Z</time>
      </trkpt>
      <trkpt lat="42.2761550" lon="-7.2687920">
        <ele>1355.2</ele>
        <time>2014-10-01T14:11:38Z</time>
      </trkpt>
      <trkpt lat="42.2761310" lon="-7.2688140">
        <ele>1355.5</ele>
        <time>2014-10-01T14:11:39Z</time>
      </trkpt>
      <trkpt lat="42.2761100" lon="-7.2688400">
        <ele>1355.7</ele>
        <time>2014-10-01T14:11:40Z</time>
      </trkpt>
      <trkpt lat="42.2760890" lon="-7.2688680">
        <ele>1355.9</ele>
        <time>2014-10-01T14:11:41Z</time>
      </trkpt>
      <trkpt lat="42.2760680" lon="-7.2688960">
        <ele>1356.2</ele>
        <time>2014-10-01T14:11:42Z</time>
      </trkpt>
      <trkpt lat="42.2760450" lon="-7.2689240">
        <ele>1356.5</ele>
        <time>2014-10-01T14:11:43Z</time>
      </trkpt>
      <trkpt lat="42.2760250" lon="-7.2689510">
        <ele>1356.7</ele>
        <time>2014-10-01T14:11:44Z</time>
      </trkpt>
      <trkpt lat="42.2760070" lon="-7.2689790">
        <ele>1357.0</ele>
        <time>2014-10-01T14:11:45Z</time>
      </trkpt>
      <trkpt lat="42.2759730" lon="-7.2690290">
        <ele>1357.4</ele>
        <time>2014-10-01T14:11:47Z</time>
      </trkpt>
      <trkpt lat="42.2759400" lon="-7.2690790">
        <ele>1357.8</ele>
        <time>2014-10-01T14:11:49Z</time>
      </trkpt>
      <trkpt lat="42.2759100" lon="-7.2691310">
        <ele>1358.3</ele>
        <time>2014-10-01T14:11:51Z</time>
      </trkpt>
      <trkpt lat="42.2758780" lon="-7.2691800">
        <ele>1358.7</ele>
        <time>2014-10-01T14:11:53Z</time>
      </trkpt>
      <trkpt lat="42.2758470" lon="-7.2692290">
        <ele>1359.2</ele>
        <time>2014-10-01T14:11:55Z</time>
      </trkpt>
      <trkpt lat="42.2758150" lon="-7.2692780">
        <ele>1359.6</ele>
        <time>2014-10-01T14:11:57Z</time>
      </trkpt>
      <trkpt lat="42.2757810" lon="-7.2693320">
        <ele>1360.1</ele>
        <time>2014-10-01T14:11:59Z</time>
      </trkpt>
      <trkpt lat="42.2757620" lon="-7.2693620">
        <ele>1360.4</ele>
        <time>2014-10-01T14:12:00Z</time>
      </trkpt>
      <trkpt lat="42.2757420" lon="-7.2693880">
        <ele>1360.6</ele>
        <time>2014-10-01T14:12:01Z</time>
      </trkpt>
      <trkpt lat="42.2757220" lon="-7.2694110">
        <ele>1360.8</ele>
        <time>2014-10-01T14:12:02Z</time>
      </trkpt>
      <trkpt lat="42.2756790" lon="-7.2694600">
        <ele>1361.2</ele>
        <time>2014-10-01T14:12:04Z</time>
      </trkpt>
      <trkpt lat="42.2756590" lon="-7.2694870">
        <ele>1361.4</ele>
        <time>2014-10-01T14:12:05Z</time>
      </trkpt>
      <trkpt lat="42.2756390" lon="-7.2695160">
        <ele>1361.6</ele>
        <time>2014-10-01T14:12:06Z</time>
      </trkpt>
      <trkpt lat="42.2756190" lon="-7.2695440">
        <ele>1361.8</ele>
        <time>2014-10-01T14:12:07Z</time>
      </trkpt>
      <trkpt lat="42.2755990" lon="-7.2695720">
        <ele>1362.0</ele>
        <time>2014-10-01T14:12:08Z</time>
      </trkpt>
      <trkpt lat="42.2755810" lon="-7.2696020">
        <ele>1362.2</ele>
        <time>2014-10-01T14:12:09Z</time>
      </trkpt>
      <trkpt lat="42.2755620" lon="-7.2696320">
        <ele>1362.4</ele>
        <time>2014-10-01T14:12:10Z</time>
      </trkpt>
      <trkpt lat="42.2755430" lon="-7.2696630">
        <ele>1362.6</ele>
        <time>2014-10-01T14:12:11Z</time>
      </trkpt>
      <trkpt lat="42.2755230" lon="-7.2696920">
        <ele>1362.8</ele>
        <time>2014-10-01T14:12:12Z</time>
      </trkpt>
      <trkpt lat="42.2755050" lon="-7.2697200">
        <ele>1363.0</ele>
        <time>2014-10-01T14:12:13Z</time>
      </trkpt>
      <trkpt lat="42.2754820" lon="-7.2697500">
        <ele>1363.2</ele>
        <time>2014-10-01T14:12:14Z</time>
      </trkpt>
      <trkpt lat="42.2754460" lon="-7.2698030">
        <ele>1363.6</ele>
        <time>2014-10-01T14:12:16Z</time>
      </trkpt>
      <trkpt lat="42.2754270" lon="-7.2698330">
        <ele>1363.8</ele>
        <time>2014-10-01T14:12:17Z</time>
      </trkpt>
      <trkpt lat="42.2754100" lon="-7.2698650">
        <ele>1364.0</ele>
        <time>2014-10-01T14:12:18Z</time>
      </trkpt>
      <trkpt lat="42.2753940" lon="-7.2698980">
        <ele>1364.2</ele>
        <time>2014-10-01T14:12:19Z</time>
      </trkpt>
      <trkpt lat="42.2753790" lon="-7.2699300">
        <ele>1364.5</ele>
        <time>2014-10-01T14:12:20Z</time>
      </trkpt>
      <trkpt lat="42.2753640" lon="-7.2699660">
        <ele>1364.7</ele>
        <time>2014-10-01T14:12:21Z</time>
      </trkpt>
      <trkpt lat="42.2753470" lon="-7.2699990">
        <ele>1364.9</ele>
        <time>2014-10-01T14:12:22Z</time>
      </trkpt>
      <trkpt lat="42.2753320" lon="-7.2700340">
        <ele>1365.2</ele>
        <time>2014-10-01T14:12:23Z</time>
      </trkpt>
      <trkpt lat="42.2753170" lon="-7.2700700">
        <ele>1365.4</ele>
        <time>2014-10-01T14:12:24Z</time>
      </trkpt>
      <trkpt lat="42.2753000" lon="-7.2701040">
        <ele>1365.7</ele>
        <time>2014-10-01T14:12:25Z</time>
      </trkpt>
      <trkpt lat="42.2752840" lon="-7.2701360">
        <ele>1365.9</ele>
        <time>2014-10-01T14:12:26Z</time>
      </trkpt>
      <trkpt lat="42.2752660" lon="-7.2701660">
        <ele>1366.2</ele>
        <time>2014-10-01T14:12:27Z</time>
      </trkpt>
      <trkpt lat="42.2752470" lon="-7.2701970">
        <ele>1366.4</ele>
        <time>2014-10-01T14:12:28Z</time>
      </trkpt>
      <trkpt lat="42.2752300" lon="-7.2702270">
        <ele>1366.6</ele>
        <time>2014-10-01T14:12:29Z</time>
      </trkpt>
      <trkpt lat="42.2752000" lon="-7.2702890">
        <ele>1367.1</ele>
        <time>2014-10-01T14:12:31Z</time>
      </trkpt>
      <trkpt lat="42.2751820" lon="-7.2703230">
        <ele>1367.4</ele>
        <time>2014-10-01T14:12:32Z</time>
      </trkpt>
      <trkpt lat="42.2751660" lon="-7.2703530">
        <ele>1367.6</ele>
        <time>2014-10-01T14:12:33Z</time>
      </trkpt>
      <trkpt lat="42.2751360" lon="-7.2704080">
        <ele>1368.0</ele>
        <time>2014-10-01T14:12:35Z</time>
      </trkpt>
      <trkpt lat="42.2751080" lon="-7.2704680">
        <ele>1368.4</ele>
        <time>2014-10-01T14:12:37Z</time>
      </trkpt>
      <trkpt lat="42.2750800" lon="-7.2705260">
        <ele>1368.8</ele>
        <time>2014-10-01T14:12:39Z</time>
      </trkpt>
      <trkpt lat="42.2750650" lon="-7.2705570">
        <ele>1369.0</ele>
        <time>2014-10-01T14:12:40Z</time>
      </trkpt>
      <trkpt lat="42.2750500" lon="-7.2705890">
        <ele>1369.2</ele>
        <time>2014-10-01T14:12:41Z</time>
      </trkpt>
      <trkpt lat="42.2750360" lon="-7.2706200">
        <ele>1369.4</ele>
        <time>2014-10-01T14:12:42Z</time>
      </trkpt>
      <trkpt lat="42.2750200" lon="-7.2706510">
        <ele>1369.6</ele>
        <time>2014-10-01T14:12:43Z</time>
      </trkpt>
      <trkpt lat="42.2750040" lon="-7.2706820">
        <ele>1369.8</ele>
        <time>2014-10-01T14:12:44Z</time>
      </trkpt>
      <trkpt lat="42.2749880" lon="-7.2707140">
        <ele>1370.0</ele>
        <time>2014-10-01T14:12:45Z</time>
      </trkpt>
      <trkpt lat="42.2749730" lon="-7.2707460">
        <ele>1370.2</ele>
        <time>2014-10-01T14:12:46Z</time>
      </trkpt>
      <trkpt lat="42.2749590" lon="-7.2707790">
        <ele>1370.4</ele>
        <time>2014-10-01T14:12:47Z</time>
      </trkpt>
      <trkpt lat="42.2749440" lon="-7.2708130">
        <ele>1370.6</ele>
        <time>2014-10-01T14:12:48Z</time>
      </trkpt>
      <trkpt lat="42.2749300" lon="-7.2708480">
        <ele>1370.7</ele>
        <time>2014-10-01T14:12:49Z</time>
      </trkpt>
      <trkpt lat="42.2749150" lon="-7.2708820">
        <ele>1370.9</ele>
        <time>2014-10-01T14:12:50Z</time>
      </trkpt>
      <trkpt lat="42.2748990" lon="-7.2709150">
        <ele>1371.0</ele>
        <time>2014-10-01T14:12:51Z</time>
      </trkpt>
      <trkpt lat="42.2748820" lon="-7.2709490">
        <ele>1371.0</ele>
        <time>2014-10-01T14:12:52Z</time>
      </trkpt>
      <trkpt lat="42.2748650" lon="-7.2709820">
        <ele>1371.0</ele>
        <time>2014-10-01T14:12:53Z</time>
      </trkpt>
      <trkpt lat="42.2748470" lon="-7.2710160">
        <ele>1371.0</ele>
        <time>2014-10-01T14:12:54Z</time>
      </trkpt>
      <trkpt lat="42.2748290" lon="-7.2710500">
        <ele>1371.0</ele>
        <time>2014-10-01T14:12:55Z</time>
      </trkpt>
      <trkpt lat="42.2748120" lon="-7.2710850">
        <ele>1371.0</ele>
        <time>2014-10-01T14:12:56Z</time>
      </trkpt>
      <trkpt lat="42.2747930" lon="-7.2711200">
        <ele>1371.0</ele>
        <time>2014-10-01T14:12:57Z</time>
      </trkpt>
      <trkpt lat="42.2747750" lon="-7.2711540">
        <ele>1370.9</ele>
        <time>2014-10-01T14:12:58Z</time>
      </trkpt>
      <trkpt lat="42.2747570" lon="-7.2711880">
        <ele>1370.9</ele>
        <time>2014-10-01T14:12:59Z</time>
      </trkpt>
      <trkpt lat="42.2747380" lon="-7.2712230">
        <ele>1370.9</ele>
        <time>2014-10-01T14:13:00Z</time>
      </trkpt>
      <trkpt lat="42.2747200" lon="-7.2712580">
        <ele>1370.9</ele>
        <time>2014-10-01T14:13:01Z</time>
      </trkpt>
      <trkpt lat="42.2747010" lon="-7.2712930">
        <ele>1370.9</ele>
        <time>2014-10-01T14:13:02Z</time>
      </trkpt>
      <trkpt lat="42.2746840" lon="-7.2713260">
        <ele>1370.9</ele>
        <time>2014-10-01T14:13:03Z</time>
      </trkpt>
      <trkpt lat="42.2746660" lon="-7.2713610">
        <ele>1371.0</ele>
        <time>2014-10-01T14:13:04Z</time>
      </trkpt>
      <trkpt lat="42.2746490" lon="-7.2713960">
        <ele>1371.0</ele>
        <time>2014-10-01T14:13:05Z</time>
      </trkpt>
      <trkpt lat="42.2746310" lon="-7.2714300">
        <ele>1371.0</ele>
        <time>2014-10-01T14:13:06Z</time>
      </trkpt>
      <trkpt lat="42.2746120" lon="-7.2714630">
        <ele>1371.1</ele>
        <time>2014-10-01T14:13:07Z</time>
      </trkpt>
      <trkpt lat="42.2745950" lon="-7.2714970">
        <ele>1371.1</ele>
        <time>2014-10-01T14:13:08Z</time>
      </trkpt>
      <trkpt lat="42.2745770" lon="-7.2715320">
        <ele>1371.1</ele>
        <time>2014-10-01T14:13:09Z</time>
      </trkpt>
      <trkpt lat="42.2745600" lon="-7.2715670">
        <ele>1371.2</ele>
        <time>2014-10-01T14:13:10Z</time>
      </trkpt>
      <trkpt lat="42.2745440" lon="-7.2716010">
        <ele>1371.2</ele>
        <time>2014-10-01T14:13:11Z</time>
      </trkpt>
      <trkpt lat="42.2745280" lon="-7.2716330">
        <ele>1371.3</ele>
        <time>2014-10-01T14:13:12Z</time>
      </trkpt>
      <trkpt lat="42.2745110" lon="-7.2716650">
        <ele>1371.3</ele>
        <time>2014-10-01T14:13:13Z</time>
      </trkpt>
      <trkpt lat="42.2744940" lon="-7.2716970">
        <ele>1371.4</ele>
        <time>2014-10-01T14:13:14Z</time>
      </trkpt>
      <trkpt lat="42.2744790" lon="-7.2717300">
        <ele>1371.5</ele>
        <time>2014-10-01T14:13:15Z</time>
      </trkpt>
      <trkpt lat="42.2744660" lon="-7.2717660">
        <ele>1371.5</ele>
        <time>2014-10-01T14:13:16Z</time>
      </trkpt>
      <trkpt lat="42.2744540" lon="-7.2718000">
        <ele>1371.6</ele>
        <time>2014-10-01T14:13:17Z</time>
      </trkpt>
      <trkpt lat="42.2744380" lon="-7.2718340">
        <ele>1371.6</ele>
        <time>2014-10-01T14:13:18Z</time>
      </trkpt>
      <trkpt lat="42.2744100" lon="-7.2718900">
        <ele>1371.8</ele>
        <time>2014-10-01T14:13:20Z</time>
      </trkpt>
      <trkpt lat="42.2743780" lon="-7.2719470">
        <ele>1371.8</ele>
        <time>2014-10-01T14:13:22Z</time>
      </trkpt>
      <trkpt lat="42.2743620" lon="-7.2719780">
        <ele>1371.9</ele>
        <time>2014-10-01T14:13:23Z</time>
      </trkpt>
      <trkpt lat="42.2743450" lon="-7.2720080">
        <ele>1371.9</ele>
        <time>2014-10-01T14:13:24Z</time>
      </trkpt>
      <trkpt lat="42.2743290" lon="-7.2720390">
        <ele>1372.1</ele>
        <time>2014-10-01T14:13:25Z</time>
      </trkpt>
      <trkpt lat="42.2743010" lon="-7.2720990">
        <ele>1372.6</ele>
        <time>2014-10-01T14:13:27Z</time>
      </trkpt>
      <trkpt lat="42.2742700" lon="-7.2721600">
        <ele>1373.1</ele>
        <time>2014-10-01T14:13:29Z</time>
      </trkpt>
      <trkpt lat="42.2742540" lon="-7.2721920">
        <ele>1373.3</ele>
        <time>2014-10-01T14:13:30Z</time>
      </trkpt>
      <trkpt lat="42.2742390" lon="-7.2722240">
        <ele>1373.5</ele>
        <time>2014-10-01T14:13:31Z</time>
      </trkpt>
      <trkpt lat="42.2742250" lon="-7.2722550">
        <ele>1373.7</ele>
        <time>2014-10-01T14:13:32Z</time>
      </trkpt>
      <trkpt lat="42.2741940" lon="-7.2723160">
        <ele>1374.1</ele>
        <time>2014-10-01T14:13:34Z</time>
      </trkpt>
      <trkpt lat="42.2741770" lon="-7.2723450">
        <ele>1374.3</ele>
        <time>2014-10-01T14:13:35Z</time>
      </trkpt>
      <trkpt lat="42.2741600" lon="-7.2723740">
        <ele>1374.5</ele>
        <time>2014-10-01T14:13:36Z</time>
      </trkpt>
      <trkpt lat="42.2741420" lon="-7.2724050">
        <ele>1374.7</ele>
        <time>2014-10-01T14:13:37Z</time>
      </trkpt>
      <trkpt lat="42.2741250" lon="-7.2724350">
        <ele>1374.9</ele>
        <time>2014-10-01T14:13:38Z</time>
      </trkpt>
      <trkpt lat="42.2741080" lon="-7.2724650">
        <ele>1375.0</ele>
        <time>2014-10-01T14:13:39Z</time>
      </trkpt>
      <trkpt lat="42.2740910" lon="-7.2724960">
        <ele>1375.2</ele>
        <time>2014-10-01T14:13:40Z</time>
      </trkpt>
      <trkpt lat="42.2740740" lon="-7.2725260">
        <ele>1375.4</ele>
        <time>2014-10-01T14:13:41Z</time>
      </trkpt>
      <trkpt lat="42.2740560" lon="-7.2725560">
        <ele>1375.6</ele>
        <time>2014-10-01T14:13:42Z</time>
      </trkpt>
      <trkpt lat="42.2740390" lon="-7.2725860">
        <ele>1375.8</ele>
        <time>2014-10-01T14:13:43Z</time>
      </trkpt>
      <trkpt lat="42.2740220" lon="-7.2726160">
        <ele>1376.0</ele>
        <time>2014-10-01T14:13:44Z</time>
      </trkpt>
      <trkpt lat="42.2740050" lon="-7.2726470">
        <ele>1376.2</ele>
        <time>2014-10-01T14:13:45Z</time>
      </trkpt>
      <trkpt lat="42.2739890" lon="-7.2726790">
        <ele>1376.4</ele>
        <time>2014-10-01T14:13:46Z</time>
      </trkpt>
      <trkpt lat="42.2739730" lon="-7.2727110">
        <ele>1376.7</ele>
        <time>2014-10-01T14:13:47Z</time>
      </trkpt>
      <trkpt lat="42.2739570" lon="-7.2727450">
        <ele>1376.9</ele>
        <time>2014-10-01T14:13:48Z</time>
      </trkpt>
      <trkpt lat="42.2739420" lon="-7.2727780">
        <ele>1377.1</ele>
        <time>2014-10-01T14:13:49Z</time>
      </trkpt>
      <trkpt lat="42.2739270" lon="-7.2728120">
        <ele>1377.4</ele>
        <time>2014-10-01T14:13:50Z</time>
      </trkpt>
      <trkpt lat="42.2739150" lon="-7.2728500">
        <ele>1377.7</ele>
        <time>2014-10-01T14:13:51Z</time>
      </trkpt>
      <trkpt lat="42.2739040" lon="-7.2728890">
        <ele>1378.0</ele>
        <time>2014-10-01T14:13:52Z</time>
      </trkpt>
      <trkpt lat="42.2738970" lon="-7.2729270">
        <ele>1378.3</ele>
        <time>2014-10-01T14:13:53Z</time>
      </trkpt>
      <trkpt lat="42.2738900" lon="-7.2729630">
        <ele>1378.6</ele>
        <time>2014-10-01T14:13:54Z</time>
      </trkpt>
      <trkpt lat="42.2738820" lon="-7.2730280">
        <ele>1379.2</ele>
        <time>2014-10-01T14:13:56Z</time>
      </trkpt>
      <trkpt lat="42.2738760" lon="-7.2730890">
        <ele>1379.7</ele>
        <time>2014-10-01T14:13:58Z</time>
      </trkpt>
      <trkpt lat="42.2738720" lon="-7.2731440">
        <ele>1380.2</ele>
        <time>2014-10-01T14:14:00Z</time>
      </trkpt>
      <trkpt lat="42.2738720" lon="-7.2731970">
        <ele>1380.7</ele>
        <time>2014-10-01T14:14:02Z</time>
      </trkpt>
      <trkpt lat="42.2738760" lon="-7.2732570">
        <ele>1381.3</ele>
        <time>2014-10-01T14:14:04Z</time>
      </trkpt>
      <trkpt lat="42.2738790" lon="-7.2733080">
        <ele>1381.8</ele>
        <time>2014-10-01T14:14:06Z</time>
      </trkpt>
      <trkpt lat="42.2738840" lon="-7.2733660">
        <ele>1382.3</ele>
        <time>2014-10-01T14:14:08Z</time>
      </trkpt>
      <trkpt lat="42.2738880" lon="-7.2734220">
        <ele>1382.9</ele>
        <time>2014-10-01T14:14:10Z</time>
      </trkpt>
      <trkpt lat="42.2738930" lon="-7.2734650">
        <ele>1383.4</ele>
        <time>2014-10-01T14:14:12Z</time>
      </trkpt>
      <trkpt lat="42.2739010" lon="-7.2735230">
        <ele>1384.1</ele>
        <time>2014-10-01T14:14:14Z</time>
      </trkpt>
      <trkpt lat="42.2739040" lon="-7.2735760">
        <ele>1384.7</ele>
        <time>2014-10-01T14:14:16Z</time>
      </trkpt>
      <trkpt lat="42.2739070" lon="-7.2736290">
        <ele>1385.3</ele>
        <time>2014-10-01T14:14:18Z</time>
      </trkpt>
      <trkpt lat="42.2739150" lon="-7.2736730">
        <ele>1385.9</ele>
        <time>2014-10-01T14:14:20Z</time>
      </trkpt>
      <trkpt lat="42.2739230" lon="-7.2737150">
        <ele>1386.4</ele>
        <time>2014-10-01T14:14:22Z</time>
      </trkpt>
      <trkpt lat="42.2739270" lon="-7.2737570">
        <ele>1386.9</ele>
        <time>2014-10-01T14:14:24Z</time>
      </trkpt>
      <trkpt lat="42.2739310" lon="-7.2737970">
        <ele>1387.4</ele>
        <time>2014-10-01T14:14:26Z</time>
      </trkpt>
      <trkpt lat="42.2739360" lon="-7.2738390">
        <ele>1387.9</ele>
        <time>2014-10-01T14:14:28Z</time>
      </trkpt>
      <trkpt lat="42.2739320" lon="-7.2738870">
        <ele>1388.5</ele>
        <time>2014-10-01T14:14:30Z</time>
      </trkpt>
      <trkpt lat="42.2739270" lon="-7.2739310">
        <ele>1389.0</ele>
        <time>2014-10-01T14:14:32Z</time>
      </trkpt>
      <trkpt lat="42.2739240" lon="-7.2739790">
        <ele>1389.6</ele>
        <time>2014-10-01T14:14:34Z</time>
      </trkpt>
      <trkpt lat="42.2739210" lon="-7.2740290">
        <ele>1390.2</ele>
        <time>2014-10-01T14:14:36Z</time>
      </trkpt>
      <trkpt lat="42.2739170" lon="-7.2740770">
        <ele>1390.7</ele>
        <time>2014-10-01T14:14:38Z</time>
      </trkpt>
      <trkpt lat="42.2739150" lon="-7.2741210">
        <ele>1391.2</ele>
        <time>2014-10-01T14:14:40Z</time>
      </trkpt>
      <trkpt lat="42.2739150" lon="-7.2741680">
        <ele>1391.7</ele>
        <time>2014-10-01T14:14:42Z</time>
      </trkpt>
      <trkpt lat="42.2739150" lon="-7.2742100">
        <ele>1392.2</ele>
        <time>2014-10-01T14:14:44Z</time>
      </trkpt>
      <trkpt lat="42.2739160" lon="-7.2742550">
        <ele>1392.6</ele>
        <time>2014-10-01T14:14:46Z</time>
      </trkpt>
      <trkpt lat="42.2739200" lon="-7.2743040">
        <ele>1393.1</ele>
        <time>2014-10-01T14:14:48Z</time>
      </trkpt>
      <trkpt lat="42.2739210" lon="-7.2743500">
        <ele>1393.6</ele>
        <time>2014-10-01T14:14:50Z</time>
      </trkpt>
      <trkpt lat="42.2739180" lon="-7.2744020">
        <ele>1394.1</ele>
        <time>2014-10-01T14:14:52Z</time>
      </trkpt>
      <trkpt lat="42.2739140" lon="-7.2744560">
        <ele>1394.6</ele>
        <time>2014-10-01T14:14:54Z</time>
      </trkpt>
      <trkpt lat="42.2739090" lon="-7.2745070">
        <ele>1395.1</ele>
        <time>2014-10-01T14:14:56Z</time>
      </trkpt>
      <trkpt lat="42.2739070" lon="-7.2745590">
        <ele>1395.6</ele>
        <time>2014-10-01T14:14:58Z</time>
      </trkpt>
      <trkpt lat="42.2739050" lon="-7.2746080">
        <ele>1396.0</ele>
        <time>2014-10-01T14:15:00Z</time>
      </trkpt>
      <trkpt lat="42.2739040" lon="-7.2746590">
        <ele>1396.4</ele>
        <time>2014-10-01T14:15:02Z</time>
      </trkpt>
      <trkpt lat="42.2739030" lon="-7.2747130">
        <ele>1396.9</ele>
        <time>2014-10-01T14:15:04Z</time>
      </trkpt>
      <trkpt lat="42.2738970" lon="-7.2747650">
        <ele>1397.3</ele>
        <time>2014-10-01T14:15:06Z</time>
      </trkpt>
      <trkpt lat="42.2738910" lon="-7.2748190">
        <ele>1397.7</ele>
        <time>2014-10-01T14:15:08Z</time>
      </trkpt>
      <trkpt lat="42.2738880" lon="-7.2748750">
        <ele>1398.2</ele>
        <time>2014-10-01T14:15:10Z</time>
      </trkpt>
      <trkpt lat="42.2738860" lon="-7.2749330">
        <ele>1398.6</ele>
        <time>2014-10-01T14:15:12Z</time>
      </trkpt>
      <trkpt lat="42.2738850" lon="-7.2749920">
        <ele>1399.1</ele>
        <time>2014-10-01T14:15:14Z</time>
      </trkpt>
      <trkpt lat="42.2738830" lon="-7.2750500">
        <ele>1399.6</ele>
        <time>2014-10-01T14:15:16Z</time>
      </trkpt>
      <trkpt lat="42.2738840" lon="-7.2751100">
        <ele>1400.0</ele>
        <time>2014-10-01T14:15:18Z</time>
      </trkpt>
      <trkpt lat="42.2738840" lon="-7.2751670">
        <ele>1400.5</ele>
        <time>2014-10-01T14:15:20Z</time>
      </trkpt>
      <trkpt lat="42.2738840" lon="-7.2752280">
        <ele>1400.9</ele>
        <time>2014-10-01T14:15:22Z</time>
      </trkpt>
      <trkpt lat="42.2738840" lon="-7.2752840">
        <ele>1401.4</ele>
        <time>2014-10-01T14:15:24Z</time>
      </trkpt>
      <trkpt lat="42.2738850" lon="-7.2753450">
        <ele>1401.8</ele>
        <time>2014-10-01T14:15:26Z</time>
      </trkpt>
      <trkpt lat="42.2738840" lon="-7.2754070">
        <ele>1402.3</ele>
        <time>2014-10-01T14:15:28Z</time>
      </trkpt>
      <trkpt lat="42.2738850" lon="-7.2754530">
        <ele>1402.6</ele>
        <time>2014-10-01T14:15:30Z</time>
      </trkpt>
      <trkpt lat="42.2738850" lon="-7.2755060">
        <ele>1403.0</ele>
        <time>2014-10-01T14:15:32Z</time>
      </trkpt>
      <trkpt lat="42.2738840" lon="-7.2755620">
        <ele>1403.4</ele>
        <time>2014-10-01T14:15:34Z</time>
      </trkpt>
      <trkpt lat="42.2738830" lon="-7.2756240">
        <ele>1404.0</ele>
        <time>2014-10-01T14:15:36Z</time>
      </trkpt>
      <trkpt lat="42.2738810" lon="-7.2756860">
        <ele>1404.5</ele>
        <time>2014-10-01T14:15:38Z</time>
      </trkpt>
      <trkpt lat="42.2738790" lon="-7.2757430">
        <ele>1405.0</ele>
        <time>2014-10-01T14:15:40Z</time>
      </trkpt>
      <trkpt lat="42.2738800" lon="-7.2757990">
        <ele>1405.5</ele>
        <time>2014-10-01T14:15:42Z</time>
      </trkpt>
      <trkpt lat="42.2738810" lon="-7.2758550">
        <ele>1406.0</ele>
        <time>2014-10-01T14:15:44Z</time>
      </trkpt>
      <trkpt lat="42.2738840" lon="-7.2759100">
        <ele>1406.5</ele>
        <time>2014-10-01T14:15:46Z</time>
      </trkpt>
      <trkpt lat="42.2738870" lon="-7.2759680">
        <ele>1407.0</ele>
        <time>2014-10-01T14:15:48Z</time>
      </trkpt>
      <trkpt lat="42.2738900" lon="-7.2760200">
        <ele>1407.5</ele>
        <time>2014-10-01T14:15:50Z</time>
      </trkpt>
      <trkpt lat="42.2738940" lon="-7.2760780">
        <ele>1408.0</ele>
        <time>2014-10-01T14:15:52Z</time>
      </trkpt>
      <trkpt lat="42.2738990" lon="-7.2761310">
        <ele>1408.5</ele>
        <time>2014-10-01T14:15:54Z</time>
      </trkpt>
      <trkpt lat="42.2739050" lon="-7.2761830">
        <ele>1409.1</ele>
        <time>2014-10-01T14:15:56Z</time>
      </trkpt>
      <trkpt lat="42.2739110" lon="-7.2762410">
        <ele>1409.7</ele>
        <time>2014-10-01T14:15:58Z</time>
      </trkpt>
      <trkpt lat="42.2739180" lon="-7.2762980">
        <ele>1410.3</ele>
        <time>2014-10-01T14:16:00Z</time>
      </trkpt>
      <trkpt lat="42.2739230" lon="-7.2763540">
        <ele>1410.8</ele>
        <time>2014-10-01T14:16:02Z</time>
      </trkpt>
      <trkpt lat="42.2739280" lon="-7.2764120">
        <ele>1411.4</ele>
        <time>2014-10-01T14:16:04Z</time>
      </trkpt>
      <trkpt lat="42.2739320" lon="-7.2764770">
        <ele>1412.1</ele>
        <time>2014-10-01T14:16:06Z</time>
      </trkpt>
      <trkpt lat="42.2739360" lon="-7.2765310">
        <ele>1412.6</ele>
        <time>2014-10-01T14:16:08Z</time>
      </trkpt>
      <trkpt lat="42.2739450" lon="-7.2765870">
        <ele>1413.2</ele>
        <time>2014-10-01T14:16:10Z</time>
      </trkpt>
      <trkpt lat="42.2739550" lon="-7.2766420">
        <ele>1413.7</ele>
        <time>2014-10-01T14:16:12Z</time>
      </trkpt>
      <trkpt lat="42.2739680" lon="-7.2766990">
        <ele>1414.3</ele>
        <time>2014-10-01T14:16:14Z</time>
      </trkpt>
      <trkpt lat="42.2739790" lon="-7.2767550">
        <ele>1415.1</ele>
        <time>2014-10-01T14:16:16Z</time>
      </trkpt>
      <trkpt lat="42.2739870" lon="-7.2768130">
        <ele>1415.8</ele>
        <time>2014-10-01T14:16:18Z</time>
      </trkpt>
      <trkpt lat="42.2739880" lon="-7.2768640">
        <ele>1416.3</ele>
        <time>2014-10-01T14:16:20Z</time>
      </trkpt>
      <trkpt lat="42.2739850" lon="-7.2769160">
        <ele>1416.9</ele>
        <time>2014-10-01T14:16:22Z</time>
      </trkpt>
      <trkpt lat="42.2739830" lon="-7.2769760">
        <ele>1417.5</ele>
        <time>2014-10-01T14:16:24Z</time>
      </trkpt>
      <trkpt lat="42.2739820" lon="-7.2770340">
        <ele>1418.0</ele>
        <time>2014-10-01T14:16:26Z</time>
      </trkpt>
      <trkpt lat="42.2739830" lon="-7.2770870">
        <ele>1418.5</ele>
        <time>2014-10-01T14:16:28Z</time>
      </trkpt>
      <trkpt lat="42.2739860" lon="-7.2771430">
        <ele>1419.0</ele>
        <time>2014-10-01T14:16:30Z</time>
      </trkpt>
      <trkpt lat="42.2739870" lon="-7.2771980">
        <ele>1419.5</ele>
        <time>2014-10-01T14:16:32Z</time>
      </trkpt>
      <trkpt lat="42.2739880" lon="-7.2772600">
        <ele>1420.0</ele>
        <time>2014-10-01T14:16:34Z</time>
      </trkpt>
      <trkpt lat="42.2739890" lon="-7.2773170">
        <ele>1420.5</ele>
        <time>2014-10-01T14:16:36Z</time>
      </trkpt>
      <trkpt lat="42.2739870" lon="-7.2773780">
        <ele>1421.0</ele>
        <time>2014-10-01T14:16:38Z</time>
      </trkpt>
      <trkpt lat="42.2739860" lon="-7.2774430">
        <ele>1421.5</ele>
        <time>2014-10-01T14:16:40Z</time>
      </trkpt>
      <trkpt lat="42.2739850" lon="-7.2775100">
        <ele>1422.0</ele>
        <time>2014-10-01T14:16:42Z</time>
      </trkpt>
      <trkpt lat="42.2739890" lon="-7.2775820">
        <ele>1422.6</ele>
        <time>2014-10-01T14:16:44Z</time>
      </trkpt>
      <trkpt lat="42.2739970" lon="-7.2776470">
        <ele>1423.1</ele>
        <time>2014-10-01T14:16:46Z</time>
      </trkpt>
      <trkpt lat="42.2740010" lon="-7.2777180">
        <ele>1423.6</ele>
        <time>2014-10-01T14:16:48Z</time>
      </trkpt>
      <trkpt lat="42.2740020" lon="-7.2777560">
        <ele>1423.9</ele>
        <time>2014-10-01T14:16:49Z</time>
      </trkpt>
      <trkpt lat="42.2740010" lon="-7.2777920">
        <ele>1424.2</ele>
        <time>2014-10-01T14:16:50Z</time>
      </trkpt>
      <trkpt lat="42.2740010" lon="-7.2778620">
        <ele>1424.7</ele>
        <time>2014-10-01T14:16:52Z</time>
      </trkpt>
      <trkpt lat="42.2740010" lon="-7.2779300">
        <ele>1425.2</ele>
        <time>2014-10-01T14:16:54Z</time>
      </trkpt>
      <trkpt lat="42.2740030" lon="-7.2779940">
        <ele>1425.7</ele>
        <time>2014-10-01T14:16:56Z</time>
      </trkpt>
      <trkpt lat="42.2740040" lon="-7.2780610">
        <ele>1426.2</ele>
        <time>2014-10-01T14:16:58Z</time>
      </trkpt>
      <trkpt lat="42.2740060" lon="-7.2781270">
        <ele>1426.6</ele>
        <time>2014-10-01T14:17:00Z</time>
      </trkpt>
      <trkpt lat="42.2740080" lon="-7.2781930">
        <ele>1427.1</ele>
        <time>2014-10-01T14:17:02Z</time>
      </trkpt>
      <trkpt lat="42.2740090" lon="-7.2782630">
        <ele>1427.6</ele>
        <time>2014-10-01T14:17:04Z</time>
      </trkpt>
      <trkpt lat="42.2740090" lon="-7.2783350">
        <ele>1428.1</ele>
        <time>2014-10-01T14:17:06Z</time>
      </trkpt>
      <trkpt lat="42.2740090" lon="-7.2783710">
        <ele>1428.4</ele>
        <time>2014-10-01T14:17:07Z</time>
      </trkpt>
      <trkpt lat="42.2740100" lon="-7.2784110">
        <ele>1428.6</ele>
        <time>2014-10-01T14:17:08Z</time>
      </trkpt>
      <trkpt lat="42.2740090" lon="-7.2784490">
        <ele>1428.9</ele>
        <time>2014-10-01T14:17:09Z</time>
      </trkpt>
      <trkpt lat="42.2740090" lon="-7.2784890">
        <ele>1429.1</ele>
        <time>2014-10-01T14:17:10Z</time>
      </trkpt>
      <trkpt lat="42.2740080" lon="-7.2785270">
        <ele>1429.4</ele>
        <time>2014-10-01T14:17:11Z</time>
      </trkpt>
      <trkpt lat="42.2740070" lon="-7.2785660">
        <ele>1429.6</ele>
        <time>2014-10-01T14:17:12Z</time>
      </trkpt>
      <trkpt lat="42.2740050" lon="-7.2786040">
        <ele>1429.8</ele>
        <time>2014-10-01T14:17:13Z</time>
      </trkpt>
      <trkpt lat="42.2740030" lon="-7.2786410">
        <ele>1430.1</ele>
        <time>2014-10-01T14:17:14Z</time>
      </trkpt>
      <trkpt lat="42.2739990" lon="-7.2786800">
        <ele>1430.3</ele>
        <time>2014-10-01T14:17:15Z</time>
      </trkpt>
      <trkpt lat="42.2739960" lon="-7.2787190">
        <ele>1430.5</ele>
        <time>2014-10-01T14:17:16Z</time>
      </trkpt>
      <trkpt lat="42.2739940" lon="-7.2787570">
        <ele>1430.7</ele>
        <time>2014-10-01T14:17:17Z</time>
      </trkpt>
      <trkpt lat="42.2739920" lon="-7.2787960">
        <ele>1431.0</ele>
        <time>2014-10-01T14:17:18Z</time>
      </trkpt>
      <trkpt lat="42.2739910" lon="-7.2788690">
        <ele>1431.4</ele>
        <time>2014-10-01T14:17:20Z</time>
      </trkpt>
      <trkpt lat="42.2739920" lon="-7.2789090">
        <ele>1431.6</ele>
        <time>2014-10-01T14:17:21Z</time>
      </trkpt>
      <trkpt lat="42.2739910" lon="-7.2789480">
        <ele>1431.8</ele>
        <time>2014-10-01T14:17:22Z</time>
      </trkpt>
      <trkpt lat="42.2739890" lon="-7.2789900">
        <ele>1432.1</ele>
        <time>2014-10-01T14:17:23Z</time>
      </trkpt>
      <trkpt lat="42.2739870" lon="-7.2790300">
        <ele>1432.3</ele>
        <time>2014-10-01T14:17:24Z</time>
      </trkpt>
      <trkpt lat="42.2739860" lon="-7.2790710">
        <ele>1432.5</ele>
        <time>2014-10-01T14:17:25Z</time>
      </trkpt>
      <trkpt lat="42.2739840" lon="-7.2791110">
        <ele>1432.7</ele>
        <time>2014-10-01T14:17:26Z</time>
      </trkpt>
      <trkpt lat="42.2739820" lon="-7.2791530">
        <ele>1433.0</ele>
        <time>2014-10-01T14:17:27Z</time>
      </trkpt>
      <trkpt lat="42.2739790" lon="-7.2791920">
        <ele>1433.2</ele>
        <time>2014-10-01T14:17:28Z</time>
      </trkpt>
      <trkpt lat="42.2739730" lon="-7.2792330">
        <ele>1433.4</ele>
        <time>2014-10-01T14:17:29Z</time>
      </trkpt>
      <trkpt lat="42.2739670" lon="-7.2792750">
        <ele>1433.7</ele>
        <time>2014-10-01T14:17:30Z</time>
      </trkpt>
      <trkpt lat="42.2739610" lon="-7.2793140">
        <ele>1433.9</ele>
        <time>2014-10-01T14:17:31Z</time>
      </trkpt>
      <trkpt lat="42.2739560" lon="-7.2793550">
        <ele>1434.1</ele>
        <time>2014-10-01T14:17:32Z</time>
      </trkpt>
      <trkpt lat="42.2739540" lon="-7.2793930">
        <ele>1434.3</ele>
        <time>2014-10-01T14:17:33Z</time>
      </trkpt>
      <trkpt lat="42.2739510" lon="-7.2794310">
        <ele>1434.5</ele>
        <time>2014-10-01T14:17:34Z</time>
      </trkpt>
      <trkpt lat="42.2739500" lon="-7.2794710">
        <ele>1434.7</ele>
        <time>2014-10-01T14:17:35Z</time>
      </trkpt>
      <trkpt lat="42.2739460" lon="-7.2795130">
        <ele>1434.9</ele>
        <time>2014-10-01T14:17:36Z</time>
      </trkpt>
      <trkpt lat="42.2739390" lon="-7.2795560">
        <ele>1435.1</ele>
        <time>2014-10-01T14:17:37Z</time>
      </trkpt>
      <trkpt lat="42.2739320" lon="-7.2795990">
        <ele>1435.4</ele>
        <time>2014-10-01T14:17:38Z</time>
      </trkpt>
      <trkpt lat="42.2739240" lon="-7.2796430">
        <ele>1435.6</ele>
        <time>2014-10-01T14:17:39Z</time>
      </trkpt>
      <trkpt lat="42.2739130" lon="-7.2796870">
        <ele>1435.9</ele>
        <time>2014-10-01T14:17:40Z</time>
      </trkpt>
      <trkpt lat="42.2739060" lon="-7.2797280">
        <ele>1436.1</ele>
        <time>2014-10-01T14:17:41Z</time>
      </trkpt>
      <trkpt lat="42.2739000" lon="-7.2797670">
        <ele>1436.4</ele>
        <time>2014-10-01T14:17:42Z</time>
      </trkpt>
      <trkpt lat="42.2738920" lon="-7.2798050">
        <ele>1436.6</ele>
        <time>2014-10-01T14:17:43Z</time>
      </trkpt>
      <trkpt lat="42.2738860" lon="-7.2798440">
        <ele>1436.9</ele>
        <time>2014-10-01T14:17:44Z</time>
      </trkpt>
      <trkpt lat="42.2738790" lon="-7.2798820">
        <ele>1437.1</ele>
        <time>2014-10-01T14:17:45Z</time>
      </trkpt>
      <trkpt lat="42.2738720" lon="-7.2799280">
        <ele>1437.4</ele>
        <time>2014-10-01T14:17:46Z</time>
      </trkpt>
      <trkpt lat="42.2738660" lon="-7.2799700">
        <ele>1437.7</ele>
        <time>2014-10-01T14:17:47Z</time>
      </trkpt>
      <trkpt lat="42.2738580" lon="-7.2800150">
        <ele>1438.0</ele>
        <time>2014-10-01T14:17:48Z</time>
      </trkpt>
      <trkpt lat="42.2738520" lon="-7.2800590">
        <ele>1438.3</ele>
        <time>2014-10-01T14:17:49Z</time>
      </trkpt>
      <trkpt lat="42.2738490" lon="-7.2800980">
        <ele>1438.6</ele>
        <time>2014-10-01T14:17:50Z</time>
      </trkpt>
      <trkpt lat="42.2738450" lon="-7.2801340">
        <ele>1438.8</ele>
        <time>2014-10-01T14:17:51Z</time>
      </trkpt>
      <trkpt lat="42.2738410" lon="-7.2801720">
        <ele>1439.0</ele>
        <time>2014-10-01T14:17:52Z</time>
      </trkpt>
      <trkpt lat="42.2738340" lon="-7.2802120">
        <ele>1439.3</ele>
        <time>2014-10-01T14:17:53Z</time>
      </trkpt>
      <trkpt lat="42.2738310" lon="-7.2802510">
        <ele>1439.6</ele>
        <time>2014-10-01T14:17:54Z</time>
      </trkpt>
      <trkpt lat="42.2738250" lon="-7.2802920">
        <ele>1439.8</ele>
        <time>2014-10-01T14:17:55Z</time>
      </trkpt>
      <trkpt lat="42.2738220" lon="-7.2803310">
        <ele>1440.1</ele>
        <time>2014-10-01T14:17:56Z</time>
      </trkpt>
      <trkpt lat="42.2738140" lon="-7.2803730">
        <ele>1440.4</ele>
        <time>2014-10-01T14:17:57Z</time>
      </trkpt>
      <trkpt lat="42.2738070" lon="-7.2804110">
        <ele>1440.6</ele>
        <time>2014-10-01T14:17:58Z</time>
      </trkpt>
      <trkpt lat="42.2737990" lon="-7.2804810">
        <ele>1441.1</ele>
        <time>2014-10-01T14:18:00Z</time>
      </trkpt>
      <trkpt lat="42.2737920" lon="-7.2805220">
        <ele>1441.3</ele>
        <time>2014-10-01T14:18:01Z</time>
      </trkpt>
      <trkpt lat="42.2737880" lon="-7.2805590">
        <ele>1441.6</ele>
        <time>2014-10-01T14:18:02Z</time>
      </trkpt>
      <trkpt lat="42.2737830" lon="-7.2805980">
        <ele>1441.8</ele>
        <time>2014-10-01T14:18:03Z</time>
      </trkpt>
      <trkpt lat="42.2737790" lon="-7.2806380">
        <ele>1442.1</ele>
        <time>2014-10-01T14:18:04Z</time>
      </trkpt>
      <trkpt lat="42.2737720" lon="-7.2806780">
        <ele>1442.3</ele>
        <time>2014-10-01T14:18:05Z</time>
      </trkpt>
      <trkpt lat="42.2737650" lon="-7.2807180">
        <ele>1442.5</ele>
        <time>2014-10-01T14:18:06Z</time>
      </trkpt>
      <trkpt lat="42.2737590" lon="-7.2807620">
        <ele>1442.8</ele>
        <time>2014-10-01T14:18:07Z</time>
      </trkpt>
      <trkpt lat="42.2737500" lon="-7.2808090">
        <ele>1443.1</ele>
        <time>2014-10-01T14:18:08Z</time>
      </trkpt>
      <trkpt lat="42.2737410" lon="-7.2808520">
        <ele>1443.3</ele>
        <time>2014-10-01T14:18:09Z</time>
      </trkpt>
      <trkpt lat="42.2737330" lon="-7.2808920">
        <ele>1443.5</ele>
        <time>2014-10-01T14:18:10Z</time>
      </trkpt>
      <trkpt lat="42.2737280" lon="-7.2809290">
        <ele>1443.7</ele>
        <time>2014-10-01T14:18:11Z</time>
      </trkpt>
      <trkpt lat="42.2737230" lon="-7.2809670">
        <ele>1443.9</ele>
        <time>2014-10-01T14:18:12Z</time>
      </trkpt>
      <trkpt lat="42.2737160" lon="-7.2810080">
        <ele>1444.1</ele>
        <time>2014-10-01T14:18:13Z</time>
      </trkpt>
      <trkpt lat="42.2737100" lon="-7.2810530">
        <ele>1444.2</ele>
        <time>2014-10-01T14:18:14Z</time>
      </trkpt>
      <trkpt lat="42.2737040" lon="-7.2810990">
        <ele>1444.4</ele>
        <time>2014-10-01T14:18:15Z</time>
      </trkpt>
      <trkpt lat="42.2736980" lon="-7.2811480">
        <ele>1444.6</ele>
        <time>2014-10-01T14:18:16Z</time>
      </trkpt>
      <trkpt lat="42.2736900" lon="-7.2812000">
        <ele>1444.8</ele>
        <time>2014-10-01T14:18:17Z</time>
      </trkpt>
      <trkpt lat="42.2736830" lon="-7.2812490">
        <ele>1445.1</ele>
        <time>2014-10-01T14:18:18Z</time>
      </trkpt>
      <trkpt lat="42.2736760" lon="-7.2812980">
        <ele>1445.3</ele>
        <time>2014-10-01T14:18:19Z</time>
      </trkpt>
      <trkpt lat="42.2736680" lon="-7.2813450">
        <ele>1445.8</ele>
        <time>2014-10-01T14:18:20Z</time>
      </trkpt>
      <trkpt lat="42.2736590" lon="-7.2813910">
        <ele>1446.3</ele>
        <time>2014-10-01T14:18:21Z</time>
      </trkpt>
      <trkpt lat="42.2736520" lon="-7.2814410">
        <ele>1446.8</ele>
        <time>2014-10-01T14:18:22Z</time>
      </trkpt>
      <trkpt lat="42.2736430" lon="-7.2814900">
        <ele>1447.1</ele>
        <time>2014-10-01T14:18:23Z</time>
      </trkpt>
      <trkpt lat="42.2736380" lon="-7.2815340">
        <ele>1447.3</ele>
        <time>2014-10-01T14:18:24Z</time>
      </trkpt>
      <trkpt lat="42.2736330" lon="-7.2815810">
        <ele>1447.4</ele>
        <time>2014-10-01T14:18:25Z</time>
      </trkpt>
      <trkpt lat="42.2736270" lon="-7.2816300">
        <ele>1447.6</ele>
        <time>2014-10-01T14:18:26Z</time>
      </trkpt>
      <trkpt lat="42.2736220" lon="-7.2816790">
        <ele>1447.6</ele>
        <time>2014-10-01T14:18:27Z</time>
      </trkpt>
      <trkpt lat="42.2736170" lon="-7.2817300">
        <ele>1447.7</ele>
        <time>2014-10-01T14:18:28Z</time>
      </trkpt>
      <trkpt lat="42.2736160" lon="-7.2817790">
        <ele>1447.8</ele>
        <time>2014-10-01T14:18:29Z</time>
      </trkpt>
      <trkpt lat="42.2736200" lon="-7.2818320">
        <ele>1448.0</ele>
        <time>2014-10-01T14:18:30Z</time>
      </trkpt>
      <trkpt lat="42.2736220" lon="-7.2818870">
        <ele>1448.2</ele>
        <time>2014-10-01T14:18:31Z</time>
      </trkpt>
      <trkpt lat="42.2736290" lon="-7.2819390">
        <ele>1448.3</ele>
        <time>2014-10-01T14:18:32Z</time>
      </trkpt>
      <trkpt lat="42.2736380" lon="-7.2819880">
        <ele>1448.5</ele>
        <time>2014-10-01T14:18:33Z</time>
      </trkpt>
      <trkpt lat="42.2736450" lon="-7.2820370">
        <ele>1448.7</ele>
        <time>2014-10-01T14:18:34Z</time>
      </trkpt>
      <trkpt lat="42.2736600" lon="-7.2820830">
        <ele>1448.8</ele>
        <time>2014-10-01T14:18:35Z</time>
      </trkpt>
      <trkpt lat="42.2736760" lon="-7.2821260">
        <ele>1449.0</ele>
        <time>2014-10-01T14:18:36Z</time>
      </trkpt>
      <trkpt lat="42.2736910" lon="-7.2821700">
        <ele>1449.2</ele>
        <time>2014-10-01T14:18:37Z</time>
      </trkpt>
      <trkpt lat="42.2737070" lon="-7.2822140">
        <ele>1449.3</ele>
        <time>2014-10-01T14:18:38Z</time>
      </trkpt>
      <trkpt lat="42.2737200" lon="-7.2822580">
        <ele>1449.5</ele>
        <time>2014-10-01T14:18:39Z</time>
      </trkpt>
      <trkpt lat="42.2737320" lon="-7.2823030">
        <ele>1449.7</ele>
        <time>2014-10-01T14:18:40Z</time>
      </trkpt>
      <trkpt lat="42.2737390" lon="-7.2823510">
        <ele>1449.9</ele>
        <time>2014-10-01T14:18:41Z</time>
      </trkpt>
      <trkpt lat="42.2737470" lon="-7.2823980">
        <ele>1450.0</ele>
        <time>2014-10-01T14:18:42Z</time>
      </trkpt>
      <trkpt lat="42.2737550" lon="-7.2824390">
        <ele>1450.2</ele>
        <time>2014-10-01T14:18:43Z</time>
      </trkpt>
      <trkpt lat="42.2737630" lon="-7.2824810">
        <ele>1450.4</ele>
        <time>2014-10-01T14:18:44Z</time>
      </trkpt>
      <trkpt lat="42.2737660" lon="-7.2825230">
        <ele>1450.6</ele>
        <time>2014-10-01T14:18:45Z</time>
      </trkpt>
      <trkpt lat="42.2737700" lon="-7.2825660">
        <ele>1450.8</ele>
        <time>2014-10-01T14:18:46Z</time>
      </trkpt>
      <trkpt lat="42.2737720" lon="-7.2826100">
        <ele>1451.1</ele>
        <time>2014-10-01T14:18:47Z</time>
      </trkpt>
      <trkpt lat="42.2737730" lon="-7.2826500">
        <ele>1451.3</ele>
        <time>2014-10-01T14:18:48Z</time>
      </trkpt>
      <trkpt lat="42.2737720" lon="-7.2826920">
        <ele>1451.5</ele>
        <time>2014-10-01T14:18:49Z</time>
      </trkpt>
      <trkpt lat="42.2737710" lon="-7.2827370">
        <ele>1451.7</ele>
        <time>2014-10-01T14:18:50Z</time>
      </trkpt>
      <trkpt lat="42.2737710" lon="-7.2827810">
        <ele>1452.0</ele>
        <time>2014-10-01T14:18:51Z</time>
      </trkpt>
      <trkpt lat="42.2737730" lon="-7.2828500">
        <ele>1452.3</ele>
        <time>2014-10-01T14:18:53Z</time>
      </trkpt>
      <trkpt lat="42.2737760" lon="-7.2828900">
        <ele>1452.5</ele>
        <time>2014-10-01T14:18:54Z</time>
      </trkpt>
      <trkpt lat="42.2737670" lon="-7.2829610">
        <ele>1452.8</ele>
        <time>2014-10-01T14:18:56Z</time>
      </trkpt>
      <trkpt lat="42.2737620" lon="-7.2830310">
        <ele>1453.2</ele>
        <time>2014-10-01T14:18:58Z</time>
      </trkpt>
      <trkpt lat="42.2737470" lon="-7.2831000">
        <ele>1453.6</ele>
        <time>2014-10-01T14:19:00Z</time>
      </trkpt>
      <trkpt lat="42.2737320" lon="-7.2831720">
        <ele>1454.0</ele>
        <time>2014-10-01T14:19:02Z</time>
      </trkpt>
      <trkpt lat="42.2737250" lon="-7.2832070">
        <ele>1454.2</ele>
        <time>2014-10-01T14:19:03Z</time>
      </trkpt>
      <trkpt lat="42.2737170" lon="-7.2832440">
        <ele>1454.4</ele>
        <time>2014-10-01T14:19:04Z</time>
      </trkpt>
      <trkpt lat="42.2737080" lon="-7.2832820">
        <ele>1454.6</ele>
        <time>2014-10-01T14:19:05Z</time>
      </trkpt>
      <trkpt lat="42.2736970" lon="-7.2833200">
        <ele>1454.8</ele>
        <time>2014-10-01T14:19:06Z</time>
      </trkpt>
      <trkpt lat="42.2736800" lon="-7.2833650">
        <ele>1455.0</ele>
        <time>2014-10-01T14:19:07Z</time>
      </trkpt>
      <trkpt lat="42.2736650" lon="-7.2834080">
        <ele>1455.2</ele>
        <time>2014-10-01T14:19:08Z</time>
      </trkpt>
      <trkpt lat="42.2736510" lon="-7.2834510">
        <ele>1455.4</ele>
        <time>2014-10-01T14:19:09Z</time>
      </trkpt>
      <trkpt lat="42.2736370" lon="-7.2834930">
        <ele>1455.6</ele>
        <time>2014-10-01T14:19:10Z</time>
      </trkpt>
      <trkpt lat="42.2736240" lon="-7.2835390">
        <ele>1455.8</ele>
        <time>2014-10-01T14:19:11Z</time>
      </trkpt>
      <trkpt lat="42.2736090" lon="-7.2835840">
        <ele>1455.9</ele>
        <time>2014-10-01T14:19:12Z</time>
      </trkpt>
      <trkpt lat="42.2735920" lon="-7.2836280">
        <ele>1456.1</ele>
        <time>2014-10-01T14:19:13Z</time>
      </trkpt>
      <trkpt lat="42.2735790" lon="-7.2836620">
        <ele>1456.2</ele>
        <time>2014-10-01T14:19:14Z</time>
      </trkpt>
      <trkpt lat="42.2735640" lon="-7.2837060">
        <ele>1456.3</ele>
        <time>2014-10-01T14:19:15Z</time>
      </trkpt>
      <trkpt lat="42.2735470" lon="-7.2837550">
        <ele>1456.4</ele>
        <time>2014-10-01T14:19:16Z</time>
      </trkpt>
      <trkpt lat="42.2735310" lon="-7.2838080">
        <ele>1456.5</ele>
        <time>2014-10-01T14:19:17Z</time>
      </trkpt>
      <trkpt lat="42.2735170" lon="-7.2838540">
        <ele>1456.6</ele>
        <time>2014-10-01T14:19:18Z</time>
      </trkpt>
      <trkpt lat="42.2735030" lon="-7.2839060">
        <ele>1456.7</ele>
        <time>2014-10-01T14:19:19Z</time>
      </trkpt>
      <trkpt lat="42.2734910" lon="-7.2839510">
        <ele>1456.8</ele>
        <time>2014-10-01T14:19:20Z</time>
      </trkpt>
      <trkpt lat="42.2734750" lon="-7.2839990">
        <ele>1456.9</ele>
        <time>2014-10-01T14:19:21Z</time>
      </trkpt>
      <trkpt lat="42.2734600" lon="-7.2840500">
        <ele>1457.0</ele>
        <time>2014-10-01T14:19:22Z</time>
      </trkpt>
      <trkpt lat="42.2734430" lon="-7.2840980">
        <ele>1457.0</ele>
        <time>2014-10-01T14:19:23Z</time>
      </trkpt>
      <trkpt lat="42.2734240" lon="-7.2841500">
        <ele>1457.2</ele>
        <time>2014-10-01T14:19:24Z</time>
      </trkpt>
      <trkpt lat="42.2734040" lon="-7.2842000">
        <ele>1457.3</ele>
        <time>2014-10-01T14:19:25Z</time>
      </trkpt>
      <trkpt lat="42.2733840" lon="-7.2842520">
        <ele>1457.5</ele>
        <time>2014-10-01T14:19:26Z</time>
      </trkpt>
      <trkpt lat="42.2733590" lon="-7.2843090">
        <ele>1457.8</ele>
        <time>2014-10-01T14:19:27Z</time>
      </trkpt>
      <trkpt lat="42.2733360" lon="-7.2843640">
        <ele>1458.0</ele>
        <time>2014-10-01T14:19:28Z</time>
      </trkpt>
      <trkpt lat="42.2733140" lon="-7.2844170">
        <ele>1458.3</ele>
        <time>2014-10-01T14:19:29Z</time>
      </trkpt>
      <trkpt lat="42.2732930" lon="-7.2844640">
        <ele>1458.5</ele>
        <time>2014-10-01T14:19:30Z</time>
      </trkpt>
      <trkpt lat="42.2732740" lon="-7.2845060">
        <ele>1458.7</ele>
        <time>2014-10-01T14:19:31Z</time>
      </trkpt>
      <trkpt lat="42.2732570" lon="-7.2845570">
        <ele>1459.0</ele>
        <time>2014-10-01T14:19:32Z</time>
      </trkpt>
      <trkpt lat="42.2732430" lon="-7.2846010">
        <ele>1459.2</ele>
        <time>2014-10-01T14:19:33Z</time>
      </trkpt>
      <trkpt lat="42.2732270" lon="-7.2846410">
        <ele>1459.5</ele>
        <time>2014-10-01T14:19:34Z</time>
      </trkpt>
      <trkpt lat="42.2732120" lon="-7.2846780">
        <ele>1459.8</ele>
        <time>2014-10-01T14:19:35Z</time>
      </trkpt>
      <trkpt lat="42.2731970" lon="-7.2847150">
        <ele>1460.1</ele>
        <time>2014-10-01T14:19:36Z</time>
      </trkpt>
      <trkpt lat="42.2731820" lon="-7.2847480">
        <ele>1460.4</ele>
        <time>2014-10-01T14:19:37Z</time>
      </trkpt>
      <trkpt lat="42.2731550" lon="-7.2848070">
        <ele>1460.9</ele>
        <time>2014-10-01T14:19:39Z</time>
      </trkpt>
      <trkpt lat="42.2731270" lon="-7.2848640">
        <ele>1461.5</ele>
        <time>2014-10-01T14:19:41Z</time>
      </trkpt>
      <trkpt lat="42.2731070" lon="-7.2849170">
        <ele>1462.0</ele>
        <time>2014-10-01T14:19:43Z</time>
      </trkpt>
      <trkpt lat="42.2730880" lon="-7.2849750">
        <ele>1462.5</ele>
        <time>2014-10-01T14:19:45Z</time>
      </trkpt>
      <trkpt lat="42.2730730" lon="-7.2850310">
        <ele>1463.1</ele>
        <time>2014-10-01T14:19:47Z</time>
      </trkpt>
      <trkpt lat="42.2730590" lon="-7.2850860">
        <ele>1463.6</ele>
        <time>2014-10-01T14:19:49Z</time>
      </trkpt>
      <trkpt lat="42.2730480" lon="-7.2851400">
        <ele>1464.1</ele>
        <time>2014-10-01T14:19:51Z</time>
      </trkpt>
      <trkpt lat="42.2730390" lon="-7.2851960">
        <ele>1464.7</ele>
        <time>2014-10-01T14:19:53Z</time>
      </trkpt>
      <trkpt lat="42.2730350" lon="-7.2852560">
        <ele>1465.3</ele>
        <time>2014-10-01T14:19:55Z</time>
      </trkpt>
      <trkpt lat="42.2730360" lon="-7.2853130">
        <ele>1465.9</ele>
        <time>2014-10-01T14:19:57Z</time>
      </trkpt>
      <trkpt lat="42.2730390" lon="-7.2853670">
        <ele>1466.4</ele>
        <time>2014-10-01T14:19:59Z</time>
      </trkpt>
      <trkpt lat="42.2730360" lon="-7.2854190">
        <ele>1466.9</ele>
        <time>2014-10-01T14:20:01Z</time>
      </trkpt>
      <trkpt lat="42.2730320" lon="-7.2854630">
        <ele>1467.3</ele>
        <time>2014-10-01T14:20:03Z</time>
      </trkpt>
      <trkpt lat="42.2730290" lon="-7.2855120">
        <ele>1467.8</ele>
        <time>2014-10-01T14:20:05Z</time>
      </trkpt>
      <trkpt lat="42.2730270" lon="-7.2855670">
        <ele>1468.2</ele>
        <time>2014-10-01T14:20:07Z</time>
      </trkpt>
      <trkpt lat="42.2730270" lon="-7.2856200">
        <ele>1468.7</ele>
        <time>2014-10-01T14:20:09Z</time>
      </trkpt>
      <trkpt lat="42.2730300" lon="-7.2856790">
        <ele>1469.2</ele>
        <time>2014-10-01T14:20:11Z</time>
      </trkpt>
      <trkpt lat="42.2730310" lon="-7.2857370">
        <ele>1469.6</ele>
        <time>2014-10-01T14:20:13Z</time>
      </trkpt>
      <trkpt lat="42.2730300" lon="-7.2858010">
        <ele>1470.1</ele>
        <time>2014-10-01T14:20:15Z</time>
      </trkpt>
      <trkpt lat="42.2730250" lon="-7.2858660">
        <ele>1470.5</ele>
        <time>2014-10-01T14:20:17Z</time>
      </trkpt>
      <trkpt lat="42.2730230" lon="-7.2859340">
        <ele>1470.9</ele>
        <time>2014-10-01T14:20:19Z</time>
      </trkpt>
      <trkpt lat="42.2730230" lon="-7.2859720">
        <ele>1471.1</ele>
        <time>2014-10-01T14:20:20Z</time>
      </trkpt>
      <trkpt lat="42.2730220" lon="-7.2860080">
        <ele>1471.2</ele>
        <time>2014-10-01T14:20:21Z</time>
      </trkpt>
      <trkpt lat="42.2730210" lon="-7.2860730">
        <ele>1471.6</ele>
        <time>2014-10-01T14:20:23Z</time>
      </trkpt>
      <trkpt lat="42.2730190" lon="-7.2861460">
        <ele>1471.9</ele>
        <time>2014-10-01T14:20:25Z</time>
      </trkpt>
      <trkpt lat="42.2730150" lon="-7.2861850">
        <ele>1472.1</ele>
        <time>2014-10-01T14:20:26Z</time>
      </trkpt>
      <trkpt lat="42.2730110" lon="-7.2862230">
        <ele>1472.3</ele>
        <time>2014-10-01T14:20:27Z</time>
      </trkpt>
      <trkpt lat="42.2730050" lon="-7.2862640">
        <ele>1472.4</ele>
        <time>2014-10-01T14:20:28Z</time>
      </trkpt>
      <trkpt lat="42.2730010" lon="-7.2863060">
        <ele>1472.5</ele>
        <time>2014-10-01T14:20:29Z</time>
      </trkpt>
      <trkpt lat="42.2729960" lon="-7.2863510">
        <ele>1472.7</ele>
        <time>2014-10-01T14:20:30Z</time>
      </trkpt>
      <trkpt lat="42.2729900" lon="-7.2863900">
        <ele>1472.8</ele>
        <time>2014-10-01T14:20:31Z</time>
      </trkpt>
      <trkpt lat="42.2729840" lon="-7.2864300">
        <ele>1472.8</ele>
        <time>2014-10-01T14:20:32Z</time>
      </trkpt>
      <trkpt lat="42.2729750" lon="-7.2864740">
        <ele>1472.9</ele>
        <time>2014-10-01T14:20:33Z</time>
      </trkpt>
      <trkpt lat="42.2729670" lon="-7.2865220">
        <ele>1473.0</ele>
        <time>2014-10-01T14:20:34Z</time>
      </trkpt>
      <trkpt lat="42.2729580" lon="-7.2865670">
        <ele>1473.1</ele>
        <time>2014-10-01T14:20:35Z</time>
      </trkpt>
      <trkpt lat="42.2729480" lon="-7.2866160">
        <ele>1473.2</ele>
        <time>2014-10-01T14:20:36Z</time>
      </trkpt>
      <trkpt lat="42.2729370" lon="-7.2866650">
        <ele>1473.3</ele>
        <time>2014-10-01T14:20:37Z</time>
      </trkpt>
      <trkpt lat="42.2729240" lon="-7.2867160">
        <ele>1473.5</ele>
        <time>2014-10-01T14:20:38Z</time>
      </trkpt>
      <trkpt lat="42.2729120" lon="-7.2867670">
        <ele>1473.6</ele>
        <time>2014-10-01T14:20:39Z</time>
      </trkpt>
      <trkpt lat="42.2728980" lon="-7.2868210">
        <ele>1473.6</ele>
        <time>2014-10-01T14:20:40Z</time>
      </trkpt>
      <trkpt lat="42.2728850" lon="-7.2868750">
        <ele>1473.7</ele>
        <time>2014-10-01T14:20:41Z</time>
      </trkpt>
      <trkpt lat="42.2728720" lon="-7.2869270">
        <ele>1473.7</ele>
        <time>2014-10-01T14:20:42Z</time>
      </trkpt>
      <trkpt lat="42.2728590" lon="-7.2869780">
        <ele>1473.8</ele>
        <time>2014-10-01T14:20:43Z</time>
      </trkpt>
      <trkpt lat="42.2728460" lon="-7.2870310">
        <ele>1473.8</ele>
        <time>2014-10-01T14:20:44Z</time>
      </trkpt>
      <trkpt lat="42.2728280" lon="-7.2870850">
        <ele>1473.8</ele>
        <time>2014-10-01T14:20:45Z</time>
      </trkpt>
      <trkpt lat="42.2728110" lon="-7.2871410">
        <ele>1473.9</ele>
        <time>2014-10-01T14:20:46Z</time>
      </trkpt>
      <trkpt lat="42.2727930" lon="-7.2871980">
        <ele>1473.9</ele>
        <time>2014-10-01T14:20:47Z</time>
      </trkpt>
      <trkpt lat="42.2727760" lon="-7.2872540">
        <ele>1473.9</ele>
        <time>2014-10-01T14:20:48Z</time>
      </trkpt>
      <trkpt lat="42.2727590" lon="-7.2873100">
        <ele>1473.9</ele>
        <time>2014-10-01T14:20:49Z</time>
      </trkpt>
      <trkpt lat="42.2727390" lon="-7.2873740">
        <ele>1473.9</ele>
        <time>2014-10-01T14:20:50Z</time>
      </trkpt>
      <trkpt lat="42.2727180" lon="-7.2874350">
        <ele>1473.9</ele>
        <time>2014-10-01T14:20:51Z</time>
      </trkpt>
      <trkpt lat="42.2726980" lon="-7.2874940">
        <ele>1473.9</ele>
        <time>2014-10-01T14:20:52Z</time>
      </trkpt>
      <trkpt lat="42.2726780" lon="-7.2875540">
        <ele>1473.8</ele>
        <time>2014-10-01T14:20:53Z</time>
      </trkpt>
      <trkpt lat="42.2726540" lon="-7.2876160">
        <ele>1473.8</ele>
        <time>2014-10-01T14:20:54Z</time>
      </trkpt>
      <trkpt lat="42.2726260" lon="-7.2876850">
        <ele>1473.8</ele>
        <time>2014-10-01T14:20:55Z</time>
      </trkpt>
      <trkpt lat="42.2725990" lon="-7.2877490">
        <ele>1473.8</ele>
        <time>2014-10-01T14:20:56Z</time>
      </trkpt>
      <trkpt lat="42.2725710" lon="-7.2878110">
        <ele>1473.7</ele>
        <time>2014-10-01T14:20:57Z</time>
      </trkpt>
      <trkpt lat="42.2725390" lon="-7.2878740">
        <ele>1473.7</ele>
        <time>2014-10-01T14:20:58Z</time>
      </trkpt>
      <trkpt lat="42.2725040" lon="-7.2879340">
        <ele>1473.8</ele>
        <time>2014-10-01T14:20:59Z</time>
      </trkpt>
      <trkpt lat="42.2724690" lon="-7.2879940">
        <ele>1473.9</ele>
        <time>2014-10-01T14:21:00Z</time>
      </trkpt>
      <trkpt lat="42.2724350" lon="-7.2880530">
        <ele>1473.9</ele>
        <time>2014-10-01T14:21:01Z</time>
      </trkpt>
      <trkpt lat="42.2723990" lon="-7.2881120">
        <ele>1474.0</ele>
        <time>2014-10-01T14:21:02Z</time>
      </trkpt>
      <trkpt lat="42.2723630" lon="-7.2881650">
        <ele>1474.1</ele>
        <time>2014-10-01T14:21:03Z</time>
      </trkpt>
      <trkpt lat="42.2723280" lon="-7.2882160">
        <ele>1474.1</ele>
        <time>2014-10-01T14:21:04Z</time>
      </trkpt>
      <trkpt lat="42.2722940" lon="-7.2882670">
        <ele>1474.2</ele>
        <time>2014-10-01T14:21:05Z</time>
      </trkpt>
      <trkpt lat="42.2722590" lon="-7.2883210">
        <ele>1474.2</ele>
        <time>2014-10-01T14:21:06Z</time>
      </trkpt>
      <trkpt lat="42.2722230" lon="-7.2883750">
        <ele>1474.2</ele>
        <time>2014-10-01T14:21:07Z</time>
      </trkpt>
      <trkpt lat="42.2721840" lon="-7.2884320">
        <ele>1474.1</ele>
        <time>2014-10-01T14:21:08Z</time>
      </trkpt>
      <trkpt lat="42.2721490" lon="-7.2884860">
        <ele>1474.1</ele>
        <time>2014-10-01T14:21:09Z</time>
      </trkpt>
      <trkpt lat="42.2721140" lon="-7.2885400">
        <ele>1474.2</ele>
        <time>2014-10-01T14:21:10Z</time>
      </trkpt>
      <trkpt lat="42.2720760" lon="-7.2885960">
        <ele>1474.2</ele>
        <time>2014-10-01T14:21:11Z</time>
      </trkpt>
      <trkpt lat="42.2720380" lon="-7.2886500">
        <ele>1474.3</ele>
        <time>2014-10-01T14:21:12Z</time>
      </trkpt>
      <trkpt lat="42.2719990" lon="-7.2887020">
        <ele>1474.5</ele>
        <time>2014-10-01T14:21:13Z</time>
      </trkpt>
      <trkpt lat="42.2719630" lon="-7.2887520">
        <ele>1474.7</ele>
        <time>2014-10-01T14:21:14Z</time>
      </trkpt>
      <trkpt lat="42.2719270" lon="-7.2888020">
        <ele>1474.9</ele>
        <time>2014-10-01T14:21:15Z</time>
      </trkpt>
      <trkpt lat="42.2718900" lon="-7.2888500">
        <ele>1475.0</ele>
        <time>2014-10-01T14:21:16Z</time>
      </trkpt>
      <trkpt lat="42.2718540" lon="-7.2888990">
        <ele>1475.2</ele>
        <time>2014-10-01T14:21:17Z</time>
      </trkpt>
      <trkpt lat="42.2718180" lon="-7.2889440">
        <ele>1475.3</ele>
        <time>2014-10-01T14:21:18Z</time>
      </trkpt>
      <trkpt lat="42.2717840" lon="-7.2889890">
        <ele>1475.5</ele>
        <time>2014-10-01T14:21:19Z</time>
      </trkpt>
      <trkpt lat="42.2717540" lon="-7.2890340">
        <ele>1475.6</ele>
        <time>2014-10-01T14:21:20Z</time>
      </trkpt>
      <trkpt lat="42.2717240" lon="-7.2890820">
        <ele>1475.8</ele>
        <time>2014-10-01T14:21:21Z</time>
      </trkpt>
      <trkpt lat="42.2716940" lon="-7.2891320">
        <ele>1475.9</ele>
        <time>2014-10-01T14:21:22Z</time>
      </trkpt>
      <trkpt lat="42.2716650" lon="-7.2891800">
        <ele>1476.1</ele>
        <time>2014-10-01T14:21:23Z</time>
      </trkpt>
      <trkpt lat="42.2716360" lon="-7.2892270">
        <ele>1476.3</ele>
        <time>2014-10-01T14:21:24Z</time>
      </trkpt>
      <trkpt lat="42.2716100" lon="-7.2892730">
        <ele>1476.5</ele>
        <time>2014-10-01T14:21:25Z</time>
      </trkpt>
      <trkpt lat="42.2715830" lon="-7.2893180">
        <ele>1476.7</ele>
        <time>2014-10-01T14:21:26Z</time>
      </trkpt>
      <trkpt lat="42.2715550" lon="-7.2893640">
        <ele>1476.9</ele>
        <time>2014-10-01T14:21:27Z</time>
      </trkpt>
      <trkpt lat="42.2715260" lon="-7.2894110">
        <ele>1477.2</ele>
        <time>2014-10-01T14:21:28Z</time>
      </trkpt>
      <trkpt lat="42.2714990" lon="-7.2894580">
        <ele>1477.4</ele>
        <time>2014-10-01T14:21:29Z</time>
      </trkpt>
      <trkpt lat="42.2714740" lon="-7.2895070">
        <ele>1477.6</ele>
        <time>2014-10-01T14:21:30Z</time>
      </trkpt>
      <trkpt lat="42.2714530" lon="-7.2895560">
        <ele>1477.9</ele>
        <time>2014-10-01T14:21:31Z</time>
      </trkpt>
      <trkpt lat="42.2714350" lon="-7.2896100">
        <ele>1478.2</ele>
        <time>2014-10-01T14:21:32Z</time>
      </trkpt>
      <trkpt lat="42.2714200" lon="-7.2896660">
        <ele>1478.4</ele>
        <time>2014-10-01T14:21:33Z</time>
      </trkpt>
      <trkpt lat="42.2714080" lon="-7.2897210">
        <ele>1478.7</ele>
        <time>2014-10-01T14:21:34Z</time>
      </trkpt>
      <trkpt lat="42.2714060" lon="-7.2897850">
        <ele>1479.0</ele>
        <time>2014-10-01T14:21:35Z</time>
      </trkpt>
      <trkpt lat="42.2714100" lon="-7.2898390">
        <ele>1479.3</ele>
        <time>2014-10-01T14:21:36Z</time>
      </trkpt>
      <trkpt lat="42.2714180" lon="-7.2898850">
        <ele>1479.5</ele>
        <time>2014-10-01T14:21:37Z</time>
      </trkpt>
      <trkpt lat="42.2714360" lon="-7.2899350">
        <ele>1479.7</ele>
        <time>2014-10-01T14:21:38Z</time>
      </trkpt>
      <trkpt lat="42.2714580" lon="-7.2899790">
        <ele>1479.9</ele>
        <time>2014-10-01T14:21:39Z</time>
      </trkpt>
      <trkpt lat="42.2714810" lon="-7.2900170">
        <ele>1480.1</ele>
        <time>2014-10-01T14:21:40Z</time>
      </trkpt>
      <trkpt lat="42.2715100" lon="-7.2900520">
        <ele>1480.2</ele>
        <time>2014-10-01T14:21:41Z</time>
      </trkpt>
      <trkpt lat="42.2715390" lon="-7.2900800">
        <ele>1480.4</ele>
        <time>2014-10-01T14:21:42Z</time>
      </trkpt>
      <trkpt lat="42.2715750" lon="-7.2901080">
        <ele>1480.5</ele>
        <time>2014-10-01T14:21:43Z</time>
      </trkpt>
      <trkpt lat="42.2716180" lon="-7.2901410">
        <ele>1480.7</ele>
        <time>2014-10-01T14:21:44Z</time>
      </trkpt>
      <trkpt lat="42.2716560" lon="-7.2901720">
        <ele>1480.8</ele>
        <time>2014-10-01T14:21:45Z</time>
      </trkpt>
      <trkpt lat="42.2717000" lon="-7.2902030">
        <ele>1481.0</ele>
        <time>2014-10-01T14:21:46Z</time>
      </trkpt>
      <trkpt lat="42.2717490" lon="-7.2902420">
        <ele>1481.1</ele>
        <time>2014-10-01T14:21:47Z</time>
      </trkpt>
      <trkpt lat="42.2718010" lon="-7.2902820">
        <ele>1481.2</ele>
        <time>2014-10-01T14:21:48Z</time>
      </trkpt>
      <trkpt lat="42.2718500" lon="-7.2903230">
        <ele>1481.3</ele>
        <time>2014-10-01T14:21:49Z</time>
      </trkpt>
      <trkpt lat="42.2718950" lon="-7.2903580">
        <ele>1481.3</ele>
        <time>2014-10-01T14:21:50Z</time>
      </trkpt>
      <trkpt lat="42.2719380" lon="-7.2903970">
        <ele>1481.3</ele>
        <time>2014-10-01T14:21:51Z</time>
      </trkpt>
      <trkpt lat="42.2719800" lon="-7.2904340">
        <ele>1481.3</ele>
        <time>2014-10-01T14:21:52Z</time>
      </trkpt>
      <trkpt lat="42.2720260" lon="-7.2904700">
        <ele>1481.3</ele>
        <time>2014-10-01T14:21:53Z</time>
      </trkpt>
      <trkpt lat="42.2720710" lon="-7.2905110">
        <ele>1481.2</ele>
        <time>2014-10-01T14:21:54Z</time>
      </trkpt>
      <trkpt lat="42.2721130" lon="-7.2905550">
        <ele>1481.2</ele>
        <time>2014-10-01T14:21:55Z</time>
      </trkpt>
      <trkpt lat="42.2721500" lon="-7.2906040">
        <ele>1481.2</ele>
        <time>2014-10-01T14:21:56Z</time>
      </trkpt>
      <trkpt lat="42.2721870" lon="-7.2906530">
        <ele>1481.2</ele>
        <time>2014-10-01T14:21:57Z</time>
      </trkpt>
      <trkpt lat="42.2722300" lon="-7.2907010">
        <ele>1481.2</ele>
        <time>2014-10-01T14:21:58Z</time>
      </trkpt>
      <trkpt lat="42.2722810" lon="-7.2907520">
        <ele>1481.2</ele>
        <time>2014-10-01T14:21:59Z</time>
      </trkpt>
      <trkpt lat="42.2723300" lon="-7.2908000">
        <ele>1481.3</ele>
        <time>2014-10-01T14:22:00Z</time>
      </trkpt>
      <trkpt lat="42.2723780" lon="-7.2908470">
        <ele>1481.3</ele>
        <time>2014-10-01T14:22:01Z</time>
      </trkpt>
      <trkpt lat="42.2724260" lon="-7.2908890">
        <ele>1481.4</ele>
        <time>2014-10-01T14:22:02Z</time>
      </trkpt>
      <trkpt lat="42.2724710" lon="-7.2909290">
        <ele>1481.6</ele>
        <time>2014-10-01T14:22:03Z</time>
      </trkpt>
      <trkpt lat="42.2725120" lon="-7.2909730">
        <ele>1481.8</ele>
        <time>2014-10-01T14:22:04Z</time>
      </trkpt>
      <trkpt lat="42.2725480" lon="-7.2910190">
        <ele>1482.0</ele>
        <time>2014-10-01T14:22:05Z</time>
      </trkpt>
      <trkpt lat="42.2725910" lon="-7.2910620">
        <ele>1482.2</ele>
        <time>2014-10-01T14:22:06Z</time>
      </trkpt>
      <trkpt lat="42.2726280" lon="-7.2910990">
        <ele>1482.5</ele>
        <time>2014-10-01T14:22:07Z</time>
      </trkpt>
      <trkpt lat="42.2726650" lon="-7.2911360">
        <ele>1482.7</ele>
        <time>2014-10-01T14:22:08Z</time>
      </trkpt>
      <trkpt lat="42.2727010" lon="-7.2911660">
        <ele>1482.9</ele>
        <time>2014-10-01T14:22:09Z</time>
      </trkpt>
      <trkpt lat="42.2727380" lon="-7.2912000">
        <ele>1483.1</ele>
        <time>2014-10-01T14:22:10Z</time>
      </trkpt>
      <trkpt lat="42.2727690" lon="-7.2912350">
        <ele>1483.2</ele>
        <time>2014-10-01T14:22:11Z</time>
      </trkpt>
      <trkpt lat="42.2727960" lon="-7.2912680">
        <ele>1483.5</ele>
        <time>2014-10-01T14:22:12Z</time>
      </trkpt>
      <trkpt lat="42.2728210" lon="-7.2913010">
        <ele>1483.7</ele>
        <time>2014-10-01T14:22:13Z</time>
      </trkpt>
      <trkpt lat="42.2728430" lon="-7.2913320">
        <ele>1483.9</ele>
        <time>2014-10-01T14:22:14Z</time>
      </trkpt>
      <trkpt lat="42.2728660" lon="-7.2913640">
        <ele>1484.1</ele>
        <time>2014-10-01T14:22:15Z</time>
      </trkpt>
      <trkpt lat="42.2728860" lon="-7.2913890">
        <ele>1484.3</ele>
        <time>2014-10-01T14:22:16Z</time>
      </trkpt>
      <trkpt lat="42.2729020" lon="-7.2914210">
        <ele>1484.4</ele>
        <time>2014-10-01T14:22:17Z</time>
      </trkpt>
      <trkpt lat="42.2729210" lon="-7.2914520">
        <ele>1484.5</ele>
        <time>2014-10-01T14:22:18Z</time>
      </trkpt>
      <trkpt lat="42.2729400" lon="-7.2914800">
        <ele>1484.6</ele>
        <time>2014-10-01T14:22:19Z</time>
      </trkpt>
      <trkpt lat="42.2729640" lon="-7.2915100">
        <ele>1484.8</ele>
        <time>2014-10-01T14:22:20Z</time>
      </trkpt>
      <trkpt lat="42.2729850" lon="-7.2915400">
        <ele>1484.9</ele>
        <time>2014-10-01T14:22:21Z</time>
      </trkpt>
      <trkpt lat="42.2730110" lon="-7.2915680">
        <ele>1485.0</ele>
        <time>2014-10-01T14:22:22Z</time>
      </trkpt>
      <trkpt lat="42.2730310" lon="-7.2915980">
        <ele>1485.1</ele>
        <time>2014-10-01T14:22:23Z</time>
      </trkpt>
      <trkpt lat="42.2730560" lon="-7.2916270">
        <ele>1485.2</ele>
        <time>2014-10-01T14:22:24Z</time>
      </trkpt>
      <trkpt lat="42.2730780" lon="-7.2916580">
        <ele>1485.3</ele>
        <time>2014-10-01T14:22:25Z</time>
      </trkpt>
      <trkpt lat="42.2731010" lon="-7.2916930">
        <ele>1485.5</ele>
        <time>2014-10-01T14:22:26Z</time>
      </trkpt>
      <trkpt lat="42.2731260" lon="-7.2917190">
        <ele>1485.6</ele>
        <time>2014-10-01T14:22:27Z</time>
      </trkpt>
      <trkpt lat="42.2731510" lon="-7.2917530">
        <ele>1485.7</ele>
        <time>2014-10-01T14:22:28Z</time>
      </trkpt>
      <trkpt lat="42.2731690" lon="-7.2917900">
        <ele>1485.9</ele>
        <time>2014-10-01T14:22:29Z</time>
      </trkpt>
      <trkpt lat="42.2731890" lon="-7.2918240">
        <ele>1486.0</ele>
        <time>2014-10-01T14:22:30Z</time>
      </trkpt>
      <trkpt lat="42.2732080" lon="-7.2918530">
        <ele>1486.1</ele>
        <time>2014-10-01T14:22:31Z</time>
      </trkpt>
      <trkpt lat="42.2732310" lon="-7.2918840">
        <ele>1486.2</ele>
        <time>2014-10-01T14:22:32Z</time>
      </trkpt>
      <trkpt lat="42.2732520" lon="-7.2919120">
        <ele>1486.3</ele>
        <time>2014-10-01T14:22:33Z</time>
      </trkpt>
      <trkpt lat="42.2732720" lon="-7.2919410">
        <ele>1486.4</ele>
        <time>2014-10-01T14:22:34Z</time>
      </trkpt>
      <trkpt lat="42.2732920" lon="-7.2919710">
        <ele>1486.5</ele>
        <time>2014-10-01T14:22:35Z</time>
      </trkpt>
      <trkpt lat="42.2733100" lon="-7.2920030">
        <ele>1486.6</ele>
        <time>2014-10-01T14:22:36Z</time>
      </trkpt>
      <trkpt lat="42.2733260" lon="-7.2920340">
        <ele>1486.7</ele>
        <time>2014-10-01T14:22:37Z</time>
      </trkpt>
      <trkpt lat="42.2733400" lon="-7.2920660">
        <ele>1486.8</ele>
        <time>2014-10-01T14:22:38Z</time>
      </trkpt>
      <trkpt lat="42.2733660" lon="-7.2921280">
        <ele>1487.0</ele>
        <time>2014-10-01T14:22:40Z</time>
      </trkpt>
      <trkpt lat="42.2733800" lon="-7.2921600">
        <ele>1487.0</ele>
        <time>2014-10-01T14:22:41Z</time>
      </trkpt>
      <trkpt lat="42.2733980" lon="-7.2921970">
        <ele>1487.0</ele>
        <time>2014-10-01T14:22:42Z</time>
      </trkpt>
      <trkpt lat="42.2734180" lon="-7.2922350">
        <ele>1487.0</ele>
        <time>2014-10-01T14:22:43Z</time>
      </trkpt>
      <trkpt lat="42.2734380" lon="-7.2922670">
        <ele>1487.0</ele>
        <time>2014-10-01T14:22:44Z</time>
      </trkpt>
      <trkpt lat="42.2734590" lon="-7.2923020">
        <ele>1487.0</ele>
        <time>2014-10-01T14:22:45Z</time>
      </trkpt>
      <trkpt lat="42.2734830" lon="-7.2923380">
        <ele>1487.1</ele>
        <time>2014-10-01T14:22:46Z</time>
      </trkpt>
      <trkpt lat="42.2735020" lon="-7.2923750">
        <ele>1487.2</ele>
        <time>2014-10-01T14:22:47Z</time>
      </trkpt>
      <trkpt lat="42.2735220" lon="-7.2924130">
        <ele>1487.3</ele>
        <time>2014-10-01T14:22:48Z</time>
      </trkpt>
      <trkpt lat="42.2735450" lon="-7.2924510">
        <ele>1487.3</ele>
        <time>2014-10-01T14:22:49Z</time>
      </trkpt>
      <trkpt lat="42.2735730" lon="-7.2924890">
        <ele>1487.4</ele>
        <time>2014-10-01T14:22:50Z</time>
      </trkpt>
      <trkpt lat="42.2736050" lon="-7.2925300">
        <ele>1487.5</ele>
        <time>2014-10-01T14:22:51Z</time>
      </trkpt>
      <trkpt lat="42.2736340" lon="-7.2925630">
        <ele>1487.6</ele>
        <time>2014-10-01T14:22:52Z</time>
      </trkpt>
      <trkpt lat="42.2736600" lon="-7.2925960">
        <ele>1487.7</ele>
        <time>2014-10-01T14:22:53Z</time>
      </trkpt>
      <trkpt lat="42.2736890" lon="-7.2926300">
        <ele>1487.8</ele>
        <time>2014-10-01T14:22:54Z</time>
      </trkpt>
      <trkpt lat="42.2737190" lon="-7.2926610">
        <ele>1488.0</ele>
        <time>2014-10-01T14:22:55Z</time>
      </trkpt>
      <trkpt lat="42.2737520" lon="-7.2926810">
        <ele>1488.2</ele>
        <time>2014-10-01T14:22:56Z</time>
      </trkpt>
      <trkpt lat="42.2737830" lon="-7.2927050">
        <ele>1488.3</ele>
        <time>2014-10-01T14:22:57Z</time>
      </trkpt>
      <trkpt lat="42.2738180" lon="-7.2927300">
        <ele>1488.5</ele>
        <time>2014-10-01T14:22:58Z</time>
      </trkpt>
      <trkpt lat="42.2738500" lon="-7.2927530">
        <ele>1488.6</ele>
        <time>2014-10-01T14:22:59Z</time>
      </trkpt>
      <trkpt lat="42.2738800" lon="-7.2927810">
        <ele>1488.8</ele>
        <time>2014-10-01T14:23:00Z</time>
      </trkpt>
      <trkpt lat="42.2739110" lon="-7.2928080">
        <ele>1489.0</ele>
        <time>2014-10-01T14:23:01Z</time>
      </trkpt>
      <trkpt lat="42.2739440" lon="-7.2928370">
        <ele>1489.2</ele>
        <time>2014-10-01T14:23:02Z</time>
      </trkpt>
      <trkpt lat="42.2739770" lon="-7.2928670">
        <ele>1489.5</ele>
        <time>2014-10-01T14:23:03Z</time>
      </trkpt>
      <trkpt lat="42.2740100" lon="-7.2928960">
        <ele>1489.7</ele>
        <time>2014-10-01T14:23:04Z</time>
      </trkpt>
      <trkpt lat="42.2740400" lon="-7.2929250">
        <ele>1489.9</ele>
        <time>2014-10-01T14:23:05Z</time>
      </trkpt>
      <trkpt lat="42.2740680" lon="-7.2929580">
        <ele>1490.1</ele>
        <time>2014-10-01T14:23:06Z</time>
      </trkpt>
      <trkpt lat="42.2740990" lon="-7.2929840">
        <ele>1490.3</ele>
        <time>2014-10-01T14:23:07Z</time>
      </trkpt>
      <trkpt lat="42.2741290" lon="-7.2930100">
        <ele>1490.5</ele>
        <time>2014-10-01T14:23:08Z</time>
      </trkpt>
      <trkpt lat="42.2741600" lon="-7.2930380">
        <ele>1490.8</ele>
        <time>2014-10-01T14:23:09Z</time>
      </trkpt>
      <trkpt lat="42.2741870" lon="-7.2930650">
        <ele>1491.0</ele>
        <time>2014-10-01T14:23:10Z</time>
      </trkpt>
      <trkpt lat="42.2742180" lon="-7.2930910">
        <ele>1491.2</ele>
        <time>2014-10-01T14:23:11Z</time>
      </trkpt>
      <trkpt lat="42.2742460" lon="-7.2931180">
        <ele>1491.4</ele>
        <time>2014-10-01T14:23:12Z</time>
      </trkpt>
      <trkpt lat="42.2742750" lon="-7.2931470">
        <ele>1491.6</ele>
        <time>2014-10-01T14:23:13Z</time>
      </trkpt>
      <trkpt lat="42.2743000" lon="-7.2931780">
        <ele>1491.8</ele>
        <time>2014-10-01T14:23:14Z</time>
      </trkpt>
      <trkpt lat="42.2743250" lon="-7.2932080">
        <ele>1492.0</ele>
        <time>2014-10-01T14:23:15Z</time>
      </trkpt>
      <trkpt lat="42.2743480" lon="-7.2932390">
        <ele>1492.2</ele>
        <time>2014-10-01T14:23:16Z</time>
      </trkpt>
      <trkpt lat="42.2743720" lon="-7.2932700">
        <ele>1492.4</ele>
        <time>2014-10-01T14:23:17Z</time>
      </trkpt>
      <trkpt lat="42.2743960" lon="-7.2933030">
        <ele>1492.6</ele>
        <time>2014-10-01T14:23:18Z</time>
      </trkpt>
      <trkpt lat="42.2744190" lon="-7.2933360">
        <ele>1492.7</ele>
        <time>2014-10-01T14:23:19Z</time>
      </trkpt>
      <trkpt lat="42.2744490" lon="-7.2933660">
        <ele>1492.9</ele>
        <time>2014-10-01T14:23:20Z</time>
      </trkpt>
      <trkpt lat="42.2744760" lon="-7.2933990">
        <ele>1493.0</ele>
        <time>2014-10-01T14:23:21Z</time>
      </trkpt>
      <trkpt lat="42.2745040" lon="-7.2934330">
        <ele>1493.1</ele>
        <time>2014-10-01T14:23:22Z</time>
      </trkpt>
      <trkpt lat="42.2745300" lon="-7.2934620">
        <ele>1493.3</ele>
        <time>2014-10-01T14:23:23Z</time>
      </trkpt>
      <trkpt lat="42.2745580" lon="-7.2934940">
        <ele>1493.3</ele>
        <time>2014-10-01T14:23:24Z</time>
      </trkpt>
      <trkpt lat="42.2745890" lon="-7.2935290">
        <ele>1493.2</ele>
        <time>2014-10-01T14:23:25Z</time>
      </trkpt>
      <trkpt lat="42.2746190" lon="-7.2935640">
        <ele>1493.1</ele>
        <time>2014-10-01T14:23:26Z</time>
      </trkpt>
      <trkpt lat="42.2746500" lon="-7.2936030">
        <ele>1493.0</ele>
        <time>2014-10-01T14:23:27Z</time>
      </trkpt>
      <trkpt lat="42.2746860" lon="-7.2936520">
        <ele>1492.8</ele>
        <time>2014-10-01T14:23:28Z</time>
      </trkpt>
      <trkpt lat="42.2747250" lon="-7.2937080">
        <ele>1492.2</ele>
        <time>2014-10-01T14:23:29Z</time>
      </trkpt>
      <trkpt lat="42.2747710" lon="-7.2937680">
        <ele>1491.5</ele>
        <time>2014-10-01T14:23:30Z</time>
      </trkpt>
      <trkpt lat="42.2748180" lon="-7.2938270">
        <ele>1490.8</ele>
        <time>2014-10-01T14:23:31Z</time>
      </trkpt>
      <trkpt lat="42.2748730" lon="-7.2938960">
        <ele>1489.8</ele>
        <time>2014-10-01T14:23:32Z</time>
      </trkpt>
      <trkpt lat="42.2749310" lon="-7.2939710">
        <ele>1488.8</ele>
        <time>2014-10-01T14:23:33Z</time>
      </trkpt>
      <trkpt lat="42.2749860" lon="-7.2940450">
        <ele>1487.7</ele>
        <time>2014-10-01T14:23:34Z</time>
      </trkpt>
      <trkpt lat="42.2750500" lon="-7.2941260">
        <ele>1486.8</ele>
        <time>2014-10-01T14:23:35Z</time>
      </trkpt>
      <trkpt lat="42.2751150" lon="-7.2942060">
        <ele>1486.1</ele>
        <time>2014-10-01T14:23:36Z</time>
      </trkpt>
      <trkpt lat="42.2751850" lon="-7.2942900">
        <ele>1485.5</ele>
        <time>2014-10-01T14:23:37Z</time>
      </trkpt>
      <trkpt lat="42.2752640" lon="-7.2943800">
        <ele>1484.7</ele>
        <time>2014-10-01T14:23:38Z</time>
      </trkpt>
      <trkpt lat="42.2753470" lon="-7.2944720">
        <ele>1483.6</ele>
        <time>2014-10-01T14:23:39Z</time>
      </trkpt>
      <trkpt lat="42.2754320" lon="-7.2945630">
        <ele>1482.4</ele>
        <time>2014-10-01T14:23:40Z</time>
      </trkpt>
      <trkpt lat="42.2755220" lon="-7.2946590">
        <ele>1481.1</ele>
        <time>2014-10-01T14:23:41Z</time>
      </trkpt>
      <trkpt lat="42.2756180" lon="-7.2947630">
        <ele>1479.8</ele>
        <time>2014-10-01T14:23:42Z</time>
      </trkpt>
      <trkpt lat="42.2757100" lon="-7.2948620">
        <ele>1478.6</ele>
        <time>2014-10-01T14:23:43Z</time>
      </trkpt>
      <trkpt lat="42.2758060" lon="-7.2949600">
        <ele>1477.4</ele>
        <time>2014-10-01T14:23:44Z</time>
      </trkpt>
      <trkpt lat="42.2759060" lon="-7.2950590">
        <ele>1476.2</ele>
        <time>2014-10-01T14:23:45Z</time>
      </trkpt>
      <trkpt lat="42.2760050" lon="-7.2951580">
        <ele>1474.9</ele>
        <time>2014-10-01T14:23:46Z</time>
      </trkpt>
      <trkpt lat="42.2761070" lon="-7.2952540">
        <ele>1473.7</ele>
        <time>2014-10-01T14:23:47Z</time>
      </trkpt>
      <trkpt lat="42.2762080" lon="-7.2953490">
        <ele>1472.5</ele>
        <time>2014-10-01T14:23:48Z</time>
      </trkpt>
      <trkpt lat="42.2763120" lon="-7.2954470">
        <ele>1471.2</ele>
        <time>2014-10-01T14:23:49Z</time>
      </trkpt>
      <trkpt lat="42.2764200" lon="-7.2955430">
        <ele>1469.9</ele>
        <time>2014-10-01T14:23:50Z</time>
      </trkpt>
      <trkpt lat="42.2765250" lon="-7.2956360">
        <ele>1468.7</ele>
        <time>2014-10-01T14:23:51Z</time>
      </trkpt>
      <trkpt lat="42.2766280" lon="-7.2957320">
        <ele>1467.5</ele>
        <time>2014-10-01T14:23:52Z</time>
      </trkpt>
      <trkpt lat="42.2767310" lon="-7.2958340">
        <ele>1466.2</ele>
        <time>2014-10-01T14:23:53Z</time>
      </trkpt>
      <trkpt lat="42.2768340" lon="-7.2959350">
        <ele>1465.0</ele>
        <time>2014-10-01T14:23:54Z</time>
      </trkpt>
      <trkpt lat="42.2769380" lon="-7.2960370">
        <ele>1463.7</ele>
        <time>2014-10-01T14:23:55Z</time>
      </trkpt>
      <trkpt lat="42.2770430" lon="-7.2961370">
        <ele>1462.4</ele>
        <time>2014-10-01T14:23:56Z</time>
      </trkpt>
      <trkpt lat="42.2771460" lon="-7.2962370">
        <ele>1461.2</ele>
        <time>2014-10-01T14:23:57Z</time>
      </trkpt>
      <trkpt lat="42.2772450" lon="-7.2963380">
        <ele>1459.9</ele>
        <time>2014-10-01T14:23:58Z</time>
      </trkpt>
      <trkpt lat="42.2773430" lon="-7.2964380">
        <ele>1458.7</ele>
        <time>2014-10-01T14:23:59Z</time>
      </trkpt>
      <trkpt lat="42.2774370" lon="-7.2965330">
        <ele>1458.1</ele>
        <time>2014-10-01T14:24:00Z</time>
      </trkpt>
      <trkpt lat="42.2775340" lon="-7.2966330">
        <ele>1457.6</ele>
        <time>2014-10-01T14:24:01Z</time>
      </trkpt>
      <trkpt lat="42.2776290" lon="-7.2967350">
        <ele>1457.1</ele>
        <time>2014-10-01T14:24:02Z</time>
      </trkpt>
      <trkpt lat="42.2777200" lon="-7.2968440">
        <ele>1456.6</ele>
        <time>2014-10-01T14:24:03Z</time>
      </trkpt>
      <trkpt lat="42.2778080" lon="-7.2969550">
        <ele>1456.1</ele>
        <time>2014-10-01T14:24:04Z</time>
      </trkpt>
      <trkpt lat="42.2778910" lon="-7.2970710">
        <ele>1455.6</ele>
        <time>2014-10-01T14:24:05Z</time>
      </trkpt>
      <trkpt lat="42.2779690" lon="-7.2971950">
        <ele>1455.2</ele>
        <time>2014-10-01T14:24:06Z</time>
      </trkpt>
      <trkpt lat="42.2780180" lon="-7.2973520">
        <ele>1454.8</ele>
        <time>2014-10-01T14:24:07Z</time>
      </trkpt>
      <trkpt lat="42.2780500" lon="-7.2974890">
        <ele>1454.6</ele>
        <time>2014-10-01T14:24:08Z</time>
      </trkpt>
      <trkpt lat="42.2780480" lon="-7.2976420">
        <ele>1455.5</ele>
        <time>2014-10-01T14:24:09Z</time>
      </trkpt>
      <trkpt lat="42.2780400" lon="-7.2977940">
        <ele>1454.7</ele>
        <time>2014-10-01T14:24:10Z</time>
      </trkpt>
      <trkpt lat="42.2779950" lon="-7.2979340">
        <ele>1453.9</ele>
        <time>2014-10-01T14:24:11Z</time>
      </trkpt>
      <trkpt lat="42.2779230" lon="-7.2980680">
        <ele>1453.1</ele>
        <time>2014-10-01T14:24:12Z</time>
      </trkpt>
      <trkpt lat="42.2778440" lon="-7.2981870">
        <ele>1452.5</ele>
        <time>2014-10-01T14:24:13Z</time>
      </trkpt>
      <trkpt lat="42.2777380" lon="-7.2982890">
        <ele>1451.9</ele>
        <time>2014-10-01T14:24:14Z</time>
      </trkpt>
      <trkpt lat="42.2776370" lon="-7.2983760">
        <ele>1451.4</ele>
        <time>2014-10-01T14:24:15Z</time>
      </trkpt>
      <trkpt lat="42.2775380" lon="-7.2984490">
        <ele>1451.1</ele>
        <time>2014-10-01T14:24:16Z</time>
      </trkpt>
      <trkpt lat="42.2774390" lon="-7.2985150">
        <ele>1450.9</ele>
        <time>2014-10-01T14:24:17Z</time>
      </trkpt>
      <trkpt lat="42.2773490" lon="-7.2985750">
        <ele>1451.5</ele>
        <time>2014-10-01T14:24:18Z</time>
      </trkpt>
      <trkpt lat="42.2772670" lon="-7.2986290">
        <ele>1451.9</ele>
        <time>2014-10-01T14:24:19Z</time>
      </trkpt>
      <trkpt lat="42.2771930" lon="-7.2986840">
        <ele>1452.3</ele>
        <time>2014-10-01T14:24:20Z</time>
      </trkpt>
      <trkpt lat="42.2771370" lon="-7.2987390">
        <ele>1452.7</ele>
        <time>2014-10-01T14:24:21Z</time>
      </trkpt>
      <trkpt lat="42.2770910" lon="-7.2987910">
        <ele>1453.1</ele>
        <time>2014-10-01T14:24:22Z</time>
      </trkpt>
      <trkpt lat="42.2770560" lon="-7.2988540">
        <ele>1453.6</ele>
        <time>2014-10-01T14:24:23Z</time>
      </trkpt>
      <trkpt lat="42.2770270" lon="-7.2989100">
        <ele>1454.0</ele>
        <time>2014-10-01T14:24:24Z</time>
      </trkpt>
      <trkpt lat="42.2770040" lon="-7.2989610">
        <ele>1454.3</ele>
        <time>2014-10-01T14:24:25Z</time>
      </trkpt>
      <trkpt lat="42.2769770" lon="-7.2990240">
        <ele>1454.7</ele>
        <time>2014-10-01T14:24:26Z</time>
      </trkpt>
      <trkpt lat="42.2769560" lon="-7.2990800">
        <ele>1455.0</ele>
        <time>2014-10-01T14:24:27Z</time>
      </trkpt>
      <trkpt lat="42.2769380" lon="-7.2991320">
        <ele>1455.3</ele>
        <time>2014-10-01T14:24:28Z</time>
      </trkpt>
      <trkpt lat="42.2769240" lon="-7.2991850">
        <ele>1455.6</ele>
        <time>2014-10-01T14:24:29Z</time>
      </trkpt>
      <trkpt lat="42.2769100" lon="-7.2992350">
        <ele>1455.9</ele>
        <time>2014-10-01T14:24:30Z</time>
      </trkpt>
      <trkpt lat="42.2768960" lon="-7.2992880">
        <ele>1456.2</ele>
        <time>2014-10-01T14:24:31Z</time>
      </trkpt>
      <trkpt lat="42.2768820" lon="-7.2993370">
        <ele>1456.5</ele>
        <time>2014-10-01T14:24:32Z</time>
      </trkpt>
      <trkpt lat="42.2768690" lon="-7.2993840">
        <ele>1456.7</ele>
        <time>2014-10-01T14:24:33Z</time>
      </trkpt>
      <trkpt lat="42.2768570" lon="-7.2994250">
        <ele>1457.0</ele>
        <time>2014-10-01T14:24:34Z</time>
      </trkpt>
      <trkpt lat="42.2768430" lon="-7.2994690">
        <ele>1457.2</ele>
        <time>2014-10-01T14:24:35Z</time>
      </trkpt>
      <trkpt lat="42.2768290" lon="-7.2995100">
        <ele>1457.4</ele>
        <time>2014-10-01T14:24:36Z</time>
      </trkpt>
      <trkpt lat="42.2768150" lon="-7.2995510">
        <ele>1457.7</ele>
        <time>2014-10-01T14:24:37Z</time>
      </trkpt>
      <trkpt lat="42.2768020" lon="-7.2995920">
        <ele>1457.9</ele>
        <time>2014-10-01T14:24:38Z</time>
      </trkpt>
      <trkpt lat="42.2767910" lon="-7.2996310">
        <ele>1458.1</ele>
        <time>2014-10-01T14:24:39Z</time>
      </trkpt>
      <trkpt lat="42.2767790" lon="-7.2996730">
        <ele>1458.3</ele>
        <time>2014-10-01T14:24:40Z</time>
      </trkpt>
      <trkpt lat="42.2767640" lon="-7.2997160">
        <ele>1458.6</ele>
        <time>2014-10-01T14:24:41Z</time>
      </trkpt>
      <trkpt lat="42.2767490" lon="-7.2997550">
        <ele>1458.8</ele>
        <time>2014-10-01T14:24:42Z</time>
      </trkpt>
      <trkpt lat="42.2767370" lon="-7.2997900">
        <ele>1459.0</ele>
        <time>2014-10-01T14:24:43Z</time>
      </trkpt>
      <trkpt lat="42.2767230" lon="-7.2998280">
        <ele>1459.3</ele>
        <time>2014-10-01T14:24:44Z</time>
      </trkpt>
      <trkpt lat="42.2767080" lon="-7.2998660">
        <ele>1459.5</ele>
        <time>2014-10-01T14:24:45Z</time>
      </trkpt>
      <trkpt lat="42.2766930" lon="-7.2999080">
        <ele>1459.8</ele>
        <time>2014-10-01T14:24:46Z</time>
      </trkpt>
      <trkpt lat="42.2766760" lon="-7.2999510">
        <ele>1460.0</ele>
        <time>2014-10-01T14:24:47Z</time>
      </trkpt>
      <trkpt lat="42.2766610" lon="-7.2999900">
        <ele>1460.2</ele>
        <time>2014-10-01T14:24:48Z</time>
      </trkpt>
      <trkpt lat="42.2766460" lon="-7.3000270">
        <ele>1460.4</ele>
        <time>2014-10-01T14:24:49Z</time>
      </trkpt>
      <trkpt lat="42.2766310" lon="-7.3000600">
        <ele>1460.6</ele>
        <time>2014-10-01T14:24:50Z</time>
      </trkpt>
      <trkpt lat="42.2766160" lon="-7.3000950">
        <ele>1460.8</ele>
        <time>2014-10-01T14:24:51Z</time>
      </trkpt>
      <trkpt lat="42.2766000" lon="-7.3001280">
        <ele>1461.0</ele>
        <time>2014-10-01T14:24:52Z</time>
      </trkpt>
      <trkpt lat="42.2765810" lon="-7.3001630">
        <ele>1461.2</ele>
        <time>2014-10-01T14:24:53Z</time>
      </trkpt>
      <trkpt lat="42.2765630" lon="-7.3001950">
        <ele>1461.4</ele>
        <time>2014-10-01T14:24:54Z</time>
      </trkpt>
      <trkpt lat="42.2765450" lon="-7.3002300">
        <ele>1461.6</ele>
        <time>2014-10-01T14:24:55Z</time>
      </trkpt>
      <trkpt lat="42.2765270" lon="-7.3002630">
        <ele>1461.8</ele>
        <time>2014-10-01T14:24:56Z</time>
      </trkpt>
      <trkpt lat="42.2765080" lon="-7.3002950">
        <ele>1462.0</ele>
        <time>2014-10-01T14:24:57Z</time>
      </trkpt>
      <trkpt lat="42.2764870" lon="-7.3003280">
        <ele>1462.3</ele>
        <time>2014-10-01T14:24:58Z</time>
      </trkpt>
      <trkpt lat="42.2764670" lon="-7.3003600">
        <ele>1462.5</ele>
        <time>2014-10-01T14:24:59Z</time>
      </trkpt>
      <trkpt lat="42.2764480" lon="-7.3003890">
        <ele>1462.7</ele>
        <time>2014-10-01T14:25:00Z</time>
      </trkpt>
      <trkpt lat="42.2764290" lon="-7.3004170">
        <ele>1462.9</ele>
        <time>2014-10-01T14:25:01Z</time>
      </trkpt>
      <trkpt lat="42.2764090" lon="-7.3004470">
        <ele>1463.1</ele>
        <time>2014-10-01T14:25:02Z</time>
      </trkpt>
      <trkpt lat="42.2763740" lon="-7.3005030">
        <ele>1463.5</ele>
        <time>2014-10-01T14:25:04Z</time>
      </trkpt>
      <trkpt lat="42.2763360" lon="-7.3005640">
        <ele>1463.9</ele>
        <time>2014-10-01T14:25:06Z</time>
      </trkpt>
      <trkpt lat="42.2763130" lon="-7.3005990">
        <ele>1464.1</ele>
        <time>2014-10-01T14:25:07Z</time>
      </trkpt>
      <trkpt lat="42.2762890" lon="-7.3006350">
        <ele>1464.4</ele>
        <time>2014-10-01T14:25:08Z</time>
      </trkpt>
      <trkpt lat="42.2762660" lon="-7.3006730">
        <ele>1464.6</ele>
        <time>2014-10-01T14:25:09Z</time>
      </trkpt>
      <trkpt lat="42.2762420" lon="-7.3007100">
        <ele>1464.8</ele>
        <time>2014-10-01T14:25:10Z</time>
      </trkpt>
      <trkpt lat="42.2762190" lon="-7.3007430">
        <ele>1465.0</ele>
        <time>2014-10-01T14:25:11Z</time>
      </trkpt>
      <trkpt lat="42.2761970" lon="-7.3007750">
        <ele>1465.2</ele>
        <time>2014-10-01T14:25:12Z</time>
      </trkpt>
      <trkpt lat="42.2761770" lon="-7.3008050">
        <ele>1465.4</ele>
        <time>2014-10-01T14:25:13Z</time>
      </trkpt>
      <trkpt lat="42.2761540" lon="-7.3008390">
        <ele>1465.6</ele>
        <time>2014-10-01T14:25:14Z</time>
      </trkpt>
      <trkpt lat="42.2761330" lon="-7.3008690">
        <ele>1465.8</ele>
        <time>2014-10-01T14:25:15Z</time>
      </trkpt>
      <trkpt lat="42.2761140" lon="-7.3008970">
        <ele>1466.0</ele>
        <time>2014-10-01T14:25:16Z</time>
      </trkpt>
      <trkpt lat="42.2760900" lon="-7.3009310">
        <ele>1466.2</ele>
        <time>2014-10-01T14:25:17Z</time>
      </trkpt>
      <trkpt lat="42.2760670" lon="-7.3009630">
        <ele>1466.3</ele>
        <time>2014-10-01T14:25:18Z</time>
      </trkpt>
      <trkpt lat="42.2760430" lon="-7.3009960">
        <ele>1466.5</ele>
        <time>2014-10-01T14:25:19Z</time>
      </trkpt>
      <trkpt lat="42.2760180" lon="-7.3010250">
        <ele>1466.7</ele>
        <time>2014-10-01T14:25:20Z</time>
      </trkpt>
      <trkpt lat="42.2759920" lon="-7.3010560">
        <ele>1466.9</ele>
        <time>2014-10-01T14:25:21Z</time>
      </trkpt>
      <trkpt lat="42.2759680" lon="-7.3010850">
        <ele>1467.1</ele>
        <time>2014-10-01T14:25:22Z</time>
      </trkpt>
      <trkpt lat="42.2759450" lon="-7.3011150">
        <ele>1467.3</ele>
        <time>2014-10-01T14:25:23Z</time>
      </trkpt>
      <trkpt lat="42.2759240" lon="-7.3011460">
        <ele>1467.5</ele>
        <time>2014-10-01T14:25:24Z</time>
      </trkpt>
      <trkpt lat="42.2759020" lon="-7.3011760">
        <ele>1467.7</ele>
        <time>2014-10-01T14:25:25Z</time>
      </trkpt>
      <trkpt lat="42.2758800" lon="-7.3012080">
        <ele>1467.9</ele>
        <time>2014-10-01T14:25:26Z</time>
      </trkpt>
      <trkpt lat="42.2758590" lon="-7.3012410">
        <ele>1468.1</ele>
        <time>2014-10-01T14:25:27Z</time>
      </trkpt>
      <trkpt lat="42.2758380" lon="-7.3012710">
        <ele>1468.3</ele>
        <time>2014-10-01T14:25:28Z</time>
      </trkpt>
      <trkpt lat="42.2758160" lon="-7.3013020">
        <ele>1468.5</ele>
        <time>2014-10-01T14:25:29Z</time>
      </trkpt>
      <trkpt lat="42.2757960" lon="-7.3013300">
        <ele>1468.7</ele>
        <time>2014-10-01T14:25:30Z</time>
      </trkpt>
      <trkpt lat="42.2757730" lon="-7.3013570">
        <ele>1468.9</ele>
        <time>2014-10-01T14:25:31Z</time>
      </trkpt>
      <trkpt lat="42.2757450" lon="-7.3013870">
        <ele>1469.2</ele>
        <time>2014-10-01T14:25:32Z</time>
      </trkpt>
      <trkpt lat="42.2757180" lon="-7.3014130">
        <ele>1469.4</ele>
        <time>2014-10-01T14:25:33Z</time>
      </trkpt>
      <trkpt lat="42.2756920" lon="-7.3014370">
        <ele>1469.6</ele>
        <time>2014-10-01T14:25:34Z</time>
      </trkpt>
      <trkpt lat="42.2756700" lon="-7.3014590">
        <ele>1469.8</ele>
        <time>2014-10-01T14:25:35Z</time>
      </trkpt>
      <trkpt lat="42.2756480" lon="-7.3014840">
        <ele>1470.8</ele>
        <time>2014-10-01T14:25:36Z</time>
      </trkpt>
      <trkpt lat="42.2756260" lon="-7.3015090">
        <ele>1471.8</ele>
        <time>2014-10-01T14:25:37Z</time>
      </trkpt>
      <trkpt lat="42.2756040" lon="-7.3015360">
        <ele>1472.8</ele>
        <time>2014-10-01T14:25:38Z</time>
      </trkpt>
      <trkpt lat="42.2755820" lon="-7.3015630">
        <ele>1473.6</ele>
        <time>2014-10-01T14:25:39Z</time>
      </trkpt>
      <trkpt lat="42.2755590" lon="-7.3015900">
        <ele>1474.4</ele>
        <time>2014-10-01T14:25:40Z</time>
      </trkpt>
      <trkpt lat="42.2755350" lon="-7.3016170">
        <ele>1475.0</ele>
        <time>2014-10-01T14:25:41Z</time>
      </trkpt>
      <trkpt lat="42.2755090" lon="-7.3016460">
        <ele>1475.6</ele>
        <time>2014-10-01T14:25:42Z</time>
      </trkpt>
      <trkpt lat="42.2754800" lon="-7.3016710">
        <ele>1476.1</ele>
        <time>2014-10-01T14:25:43Z</time>
      </trkpt>
      <trkpt lat="42.2754520" lon="-7.3016950">
        <ele>1476.6</ele>
        <time>2014-10-01T14:25:44Z</time>
      </trkpt>
      <trkpt lat="42.2754240" lon="-7.3017180">
        <ele>1476.9</ele>
        <time>2014-10-01T14:25:45Z</time>
      </trkpt>
      <trkpt lat="42.2753960" lon="-7.3017390">
        <ele>1477.2</ele>
        <time>2014-10-01T14:25:46Z</time>
      </trkpt>
      <trkpt lat="42.2753670" lon="-7.3017590">
        <ele>1477.5</ele>
        <time>2014-10-01T14:25:47Z</time>
      </trkpt>
      <trkpt lat="42.2753410" lon="-7.3017790">
        <ele>1477.8</ele>
        <time>2014-10-01T14:25:48Z</time>
      </trkpt>
      <trkpt lat="42.2753160" lon="-7.3018000">
        <ele>1478.0</ele>
        <time>2014-10-01T14:25:49Z</time>
      </trkpt>
      <trkpt lat="42.2752930" lon="-7.3018220">
        <ele>1478.2</ele>
        <time>2014-10-01T14:25:50Z</time>
      </trkpt>
      <trkpt lat="42.2752670" lon="-7.3018440">
        <ele>1478.4</ele>
        <time>2014-10-01T14:25:51Z</time>
      </trkpt>
      <trkpt lat="42.2752410" lon="-7.3018670">
        <ele>1478.7</ele>
        <time>2014-10-01T14:25:52Z</time>
      </trkpt>
      <trkpt lat="42.2752150" lon="-7.3018900">
        <ele>1478.9</ele>
        <time>2014-10-01T14:25:53Z</time>
      </trkpt>
      <trkpt lat="42.2751920" lon="-7.3019110">
        <ele>1479.1</ele>
        <time>2014-10-01T14:25:54Z</time>
      </trkpt>
      <trkpt lat="42.2751680" lon="-7.3019340">
        <ele>1479.3</ele>
        <time>2014-10-01T14:25:55Z</time>
      </trkpt>
      <trkpt lat="42.2751430" lon="-7.3019590">
        <ele>1479.5</ele>
        <time>2014-10-01T14:25:56Z</time>
      </trkpt>
      <trkpt lat="42.2751180" lon="-7.3019840">
        <ele>1479.8</ele>
        <time>2014-10-01T14:25:57Z</time>
      </trkpt>
      <trkpt lat="42.2750950" lon="-7.3020110">
        <ele>1480.1</ele>
        <time>2014-10-01T14:25:58Z</time>
      </trkpt>
      <trkpt lat="42.2750720" lon="-7.3020400">
        <ele>1480.4</ele>
        <time>2014-10-01T14:25:59Z</time>
      </trkpt>
      <trkpt lat="42.2750480" lon="-7.3020700">
        <ele>1480.7</ele>
        <time>2014-10-01T14:26:00Z</time>
      </trkpt>
      <trkpt lat="42.2750250" lon="-7.3021040">
        <ele>1481.0</ele>
        <time>2014-10-01T14:26:01Z</time>
      </trkpt>
      <trkpt lat="42.2750070" lon="-7.3021420">
        <ele>1481.3</ele>
        <time>2014-10-01T14:26:02Z</time>
      </trkpt>
      <trkpt lat="42.2749900" lon="-7.3021810">
        <ele>1481.6</ele>
        <time>2014-10-01T14:26:03Z</time>
      </trkpt>
      <trkpt lat="42.2749750" lon="-7.3022180">
        <ele>1481.9</ele>
        <time>2014-10-01T14:26:04Z</time>
      </trkpt>
      <trkpt lat="42.2749630" lon="-7.3022520">
        <ele>1482.2</ele>
        <time>2014-10-01T14:26:05Z</time>
      </trkpt>
      <trkpt lat="42.2749500" lon="-7.3022870">
        <ele>1482.4</ele>
        <time>2014-10-01T14:26:06Z</time>
      </trkpt>
      <trkpt lat="42.2749380" lon="-7.3023200">
        <ele>1482.6</ele>
        <time>2014-10-01T14:26:07Z</time>
      </trkpt>
      <trkpt lat="42.2749250" lon="-7.3023570">
        <ele>1482.9</ele>
        <time>2014-10-01T14:26:08Z</time>
      </trkpt>
      <trkpt lat="42.2749130" lon="-7.3023980">
        <ele>1483.1</ele>
        <time>2014-10-01T14:26:09Z</time>
      </trkpt>
      <trkpt lat="42.2749070" lon="-7.3024390">
        <ele>1483.4</ele>
        <time>2014-10-01T14:26:10Z</time>
      </trkpt>
      <trkpt lat="42.2749030" lon="-7.3024820">
        <ele>1483.6</ele>
        <time>2014-10-01T14:26:11Z</time>
      </trkpt>
      <trkpt lat="42.2749000" lon="-7.3025230">
        <ele>1483.8</ele>
        <time>2014-10-01T14:26:12Z</time>
      </trkpt>
      <trkpt lat="42.2748990" lon="-7.3025690">
        <ele>1484.1</ele>
        <time>2014-10-01T14:26:13Z</time>
      </trkpt>
      <trkpt lat="42.2748990" lon="-7.3026200">
        <ele>1484.4</ele>
        <time>2014-10-01T14:26:14Z</time>
      </trkpt>
      <trkpt lat="42.2749090" lon="-7.3026670">
        <ele>1484.7</ele>
        <time>2014-10-01T14:26:15Z</time>
      </trkpt>
      <trkpt lat="42.2749210" lon="-7.3027160">
        <ele>1485.0</ele>
        <time>2014-10-01T14:26:16Z</time>
      </trkpt>
      <trkpt lat="42.2749350" lon="-7.3027670">
        <ele>1485.3</ele>
        <time>2014-10-01T14:26:17Z</time>
      </trkpt>
      <trkpt lat="42.2749610" lon="-7.3028060">
        <ele>1485.6</ele>
        <time>2014-10-01T14:26:18Z</time>
      </trkpt>
      <trkpt lat="42.2749860" lon="-7.3028420">
        <ele>1485.8</ele>
        <time>2014-10-01T14:26:19Z</time>
      </trkpt>
      <trkpt lat="42.2750130" lon="-7.3028750">
        <ele>1486.1</ele>
        <time>2014-10-01T14:26:20Z</time>
      </trkpt>
      <trkpt lat="42.2750440" lon="-7.3029130">
        <ele>1486.4</ele>
        <time>2014-10-01T14:26:21Z</time>
      </trkpt>
      <trkpt lat="42.2750740" lon="-7.3029450">
        <ele>1486.7</ele>
        <time>2014-10-01T14:26:22Z</time>
      </trkpt>
      <trkpt lat="42.2751070" lon="-7.3029770">
        <ele>1487.0</ele>
        <time>2014-10-01T14:26:23Z</time>
      </trkpt>
      <trkpt lat="42.2751390" lon="-7.3030090">
        <ele>1487.3</ele>
        <time>2014-10-01T14:26:24Z</time>
      </trkpt>
      <trkpt lat="42.2751710" lon="-7.3030430">
        <ele>1487.7</ele>
        <time>2014-10-01T14:26:25Z</time>
      </trkpt>
      <trkpt lat="42.2752000" lon="-7.3030750">
        <ele>1488.0</ele>
        <time>2014-10-01T14:26:26Z</time>
      </trkpt>
      <trkpt lat="42.2752280" lon="-7.3031080">
        <ele>1488.3</ele>
        <time>2014-10-01T14:26:27Z</time>
      </trkpt>
      <trkpt lat="42.2752480" lon="-7.3031520">
        <ele>1488.6</ele>
        <time>2014-10-01T14:26:28Z</time>
      </trkpt>
      <trkpt lat="42.2752640" lon="-7.3031930">
        <ele>1488.9</ele>
        <time>2014-10-01T14:26:29Z</time>
      </trkpt>
      <trkpt lat="42.2752760" lon="-7.3032330">
        <ele>1489.1</ele>
        <time>2014-10-01T14:26:30Z</time>
      </trkpt>
      <trkpt lat="42.2752800" lon="-7.3032810">
        <ele>1489.4</ele>
        <time>2014-10-01T14:26:31Z</time>
      </trkpt>
      <trkpt lat="42.2752830" lon="-7.3033290">
        <ele>1489.6</ele>
        <time>2014-10-01T14:26:32Z</time>
      </trkpt>
      <trkpt lat="42.2752860" lon="-7.3033760">
        <ele>1489.9</ele>
        <time>2014-10-01T14:26:33Z</time>
      </trkpt>
      <trkpt lat="42.2752870" lon="-7.3034180">
        <ele>1490.1</ele>
        <time>2014-10-01T14:26:34Z</time>
      </trkpt>
      <trkpt lat="42.2752860" lon="-7.3034720">
        <ele>1490.4</ele>
        <time>2014-10-01T14:26:35Z</time>
      </trkpt>
      <trkpt lat="42.2752850" lon="-7.3035210">
        <ele>1490.7</ele>
        <time>2014-10-01T14:26:36Z</time>
      </trkpt>
      <trkpt lat="42.2752820" lon="-7.3035650">
        <ele>1490.9</ele>
        <time>2014-10-01T14:26:37Z</time>
      </trkpt>
      <trkpt lat="42.2752720" lon="-7.3036120">
        <ele>1491.2</ele>
        <time>2014-10-01T14:26:38Z</time>
      </trkpt>
      <trkpt lat="42.2752620" lon="-7.3036580">
        <ele>1491.3</ele>
        <time>2014-10-01T14:26:39Z</time>
      </trkpt>
      <trkpt lat="42.2752440" lon="-7.3037260">
        <ele>1491.6</ele>
        <time>2014-10-01T14:26:41Z</time>
      </trkpt>
      <trkpt lat="42.2752240" lon="-7.3037890">
        <ele>1491.8</ele>
        <time>2014-10-01T14:26:43Z</time>
      </trkpt>
      <trkpt lat="42.2752110" lon="-7.3038230">
        <ele>1492.0</ele>
        <time>2014-10-01T14:26:44Z</time>
      </trkpt>
      <trkpt lat="42.2751980" lon="-7.3038570">
        <ele>1492.1</ele>
        <time>2014-10-01T14:26:45Z</time>
      </trkpt>
      <trkpt lat="42.2751850" lon="-7.3038920">
        <ele>1492.2</ele>
        <time>2014-10-01T14:26:46Z</time>
      </trkpt>
      <trkpt lat="42.2751700" lon="-7.3039300">
        <ele>1492.4</ele>
        <time>2014-10-01T14:26:47Z</time>
      </trkpt>
      <trkpt lat="42.2751420" lon="-7.3039900">
        <ele>1492.6</ele>
        <time>2014-10-01T14:26:49Z</time>
      </trkpt>
      <trkpt lat="42.2751250" lon="-7.3040200">
        <ele>1492.7</ele>
        <time>2014-10-01T14:26:50Z</time>
      </trkpt>
      <trkpt lat="42.2750940" lon="-7.3040700">
        <ele>1493.0</ele>
        <time>2014-10-01T14:26:52Z</time>
      </trkpt>
      <trkpt lat="42.2750690" lon="-7.3041050">
        <ele>1493.2</ele>
        <time>2014-10-01T14:26:53Z</time>
      </trkpt>
      <trkpt lat="42.2750440" lon="-7.3041370">
        <ele>1493.3</ele>
        <time>2014-10-01T14:26:54Z</time>
      </trkpt>
      <trkpt lat="42.2750180" lon="-7.3041680">
        <ele>1493.5</ele>
        <time>2014-10-01T14:26:55Z</time>
      </trkpt>
      <trkpt lat="42.2749950" lon="-7.3041920">
        <ele>1493.6</ele>
        <time>2014-10-01T14:26:56Z</time>
      </trkpt>
      <trkpt lat="42.2749720" lon="-7.3042130">
        <ele>1493.7</ele>
        <time>2014-10-01T14:26:57Z</time>
      </trkpt>
      <trkpt lat="42.2749470" lon="-7.3042410">
        <ele>1493.9</ele>
        <time>2014-10-01T14:26:58Z</time>
      </trkpt>
      <trkpt lat="42.2749200" lon="-7.3042670">
        <ele>1494.1</ele>
        <time>2014-10-01T14:26:59Z</time>
      </trkpt>
      <trkpt lat="42.2748930" lon="-7.3042930">
        <ele>1494.3</ele>
        <time>2014-10-01T14:27:00Z</time>
      </trkpt>
      <trkpt lat="42.2748700" lon="-7.3043120">
        <ele>1494.4</ele>
        <time>2014-10-01T14:27:01Z</time>
      </trkpt>
      <trkpt lat="42.2748440" lon="-7.3043320">
        <ele>1494.6</ele>
        <time>2014-10-01T14:27:02Z</time>
      </trkpt>
      <trkpt lat="42.2748180" lon="-7.3043530">
        <ele>1494.8</ele>
        <time>2014-10-01T14:27:03Z</time>
      </trkpt>
      <trkpt lat="42.2747920" lon="-7.3043750">
        <ele>1494.9</ele>
        <time>2014-10-01T14:27:04Z</time>
      </trkpt>
      <trkpt lat="42.2747660" lon="-7.3043950">
        <ele>1495.1</ele>
        <time>2014-10-01T14:27:05Z</time>
      </trkpt>
      <trkpt lat="42.2747260" lon="-7.3044310">
        <ele>1495.4</ele>
        <time>2014-10-01T14:27:07Z</time>
      </trkpt>
      <trkpt lat="42.2746850" lon="-7.3044780">
        <ele>1495.7</ele>
        <time>2014-10-01T14:27:09Z</time>
      </trkpt>
      <trkpt lat="42.2746640" lon="-7.3045070">
        <ele>1495.9</ele>
        <time>2014-10-01T14:27:10Z</time>
      </trkpt>
      <trkpt lat="42.2746440" lon="-7.3045340">
        <ele>1496.1</ele>
        <time>2014-10-01T14:27:11Z</time>
      </trkpt>
      <trkpt lat="42.2746100" lon="-7.3045760">
        <ele>1496.5</ele>
        <time>2014-10-01T14:27:13Z</time>
      </trkpt>
      <trkpt lat="42.2745890" lon="-7.3046010">
        <ele>1496.7</ele>
        <time>2014-10-01T14:27:14Z</time>
      </trkpt>
      <trkpt lat="42.2745690" lon="-7.3046290">
        <ele>1496.9</ele>
        <time>2014-10-01T14:27:15Z</time>
      </trkpt>
      <trkpt lat="42.2745500" lon="-7.3046570">
        <ele>1497.2</ele>
        <time>2014-10-01T14:27:16Z</time>
      </trkpt>
      <trkpt lat="42.2745310" lon="-7.3046850">
        <ele>1497.4</ele>
        <time>2014-10-01T14:27:17Z</time>
      </trkpt>
      <trkpt lat="42.2744990" lon="-7.3047290">
        <ele>1497.8</ele>
        <time>2014-10-01T14:27:19Z</time>
      </trkpt>
      <trkpt lat="42.2744780" lon="-7.3047550">
        <ele>1498.0</ele>
        <time>2014-10-01T14:27:20Z</time>
      </trkpt>
      <trkpt lat="42.2744530" lon="-7.3047870">
        <ele>1498.2</ele>
        <time>2014-10-01T14:27:21Z</time>
      </trkpt>
      <trkpt lat="42.2744300" lon="-7.3048150">
        <ele>1498.4</ele>
        <time>2014-10-01T14:27:22Z</time>
      </trkpt>
      <trkpt lat="42.2744070" lon="-7.3048430">
        <ele>1498.6</ele>
        <time>2014-10-01T14:27:23Z</time>
      </trkpt>
      <trkpt lat="42.2743880" lon="-7.3048700">
        <ele>1498.8</ele>
        <time>2014-10-01T14:27:24Z</time>
      </trkpt>
      <trkpt lat="42.2743470" lon="-7.3049230">
        <ele>1499.1</ele>
        <time>2014-10-01T14:27:26Z</time>
      </trkpt>
      <trkpt lat="42.2743230" lon="-7.3049510">
        <ele>1499.4</ele>
        <time>2014-10-01T14:27:27Z</time>
      </trkpt>
      <trkpt lat="42.2742940" lon="-7.3049770">
        <ele>1499.6</ele>
        <time>2014-10-01T14:27:28Z</time>
      </trkpt>
      <trkpt lat="42.2742640" lon="-7.3050020">
        <ele>1500.0</ele>
        <time>2014-10-01T14:27:29Z</time>
      </trkpt>
      <trkpt lat="42.2742330" lon="-7.3050270">
        <ele>1500.3</ele>
        <time>2014-10-01T14:27:30Z</time>
      </trkpt>
      <trkpt lat="42.2742040" lon="-7.3050510">
        <ele>1500.6</ele>
        <time>2014-10-01T14:27:31Z</time>
      </trkpt>
      <trkpt lat="42.2741750" lon="-7.3050780">
        <ele>1501.0</ele>
        <time>2014-10-01T14:27:32Z</time>
      </trkpt>
      <trkpt lat="42.2741470" lon="-7.3051050">
        <ele>1501.3</ele>
        <time>2014-10-01T14:27:33Z</time>
      </trkpt>
      <trkpt lat="42.2741190" lon="-7.3051310">
        <ele>1501.7</ele>
        <time>2014-10-01T14:27:34Z</time>
      </trkpt>
      <trkpt lat="42.2740910" lon="-7.3051560">
        <ele>1502.0</ele>
        <time>2014-10-01T14:27:35Z</time>
      </trkpt>
      <trkpt lat="42.2740620" lon="-7.3051800">
        <ele>1502.4</ele>
        <time>2014-10-01T14:27:36Z</time>
      </trkpt>
      <trkpt lat="42.2740340" lon="-7.3052030">
        <ele>1502.7</ele>
        <time>2014-10-01T14:27:37Z</time>
      </trkpt>
      <trkpt lat="42.2740070" lon="-7.3052250">
        <ele>1502.9</ele>
        <time>2014-10-01T14:27:38Z</time>
      </trkpt>
      <trkpt lat="42.2739820" lon="-7.3052450">
        <ele>1503.2</ele>
        <time>2014-10-01T14:27:39Z</time>
      </trkpt>
      <trkpt lat="42.2739580" lon="-7.3052650">
        <ele>1503.4</ele>
        <time>2014-10-01T14:27:40Z</time>
      </trkpt>
      <trkpt lat="42.2739070" lon="-7.3052990">
        <ele>1503.9</ele>
        <time>2014-10-01T14:27:42Z</time>
      </trkpt>
      <trkpt lat="42.2738790" lon="-7.3053160">
        <ele>1504.1</ele>
        <time>2014-10-01T14:27:43Z</time>
      </trkpt>
      <trkpt lat="42.2738530" lon="-7.3053330">
        <ele>1504.4</ele>
        <time>2014-10-01T14:27:44Z</time>
      </trkpt>
      <trkpt lat="42.2738280" lon="-7.3053490">
        <ele>1504.6</ele>
        <time>2014-10-01T14:27:45Z</time>
      </trkpt>
      <trkpt lat="42.2738030" lon="-7.3053660">
        <ele>1504.8</ele>
        <time>2014-10-01T14:27:46Z</time>
      </trkpt>
      <trkpt lat="42.2737570" lon="-7.3054010">
        <ele>1505.3</ele>
        <time>2014-10-01T14:27:48Z</time>
      </trkpt>
      <trkpt lat="42.2737130" lon="-7.3054340">
        <ele>1505.6</ele>
        <time>2014-10-01T14:27:50Z</time>
      </trkpt>
      <trkpt lat="42.2736680" lon="-7.3054610">
        <ele>1506.0</ele>
        <time>2014-10-01T14:27:52Z</time>
      </trkpt>
      <trkpt lat="42.2736220" lon="-7.3054940">
        <ele>1506.4</ele>
        <time>2014-10-01T14:27:54Z</time>
      </trkpt>
      <trkpt lat="42.2735750" lon="-7.3055300">
        <ele>1506.8</ele>
        <time>2014-10-01T14:27:56Z</time>
      </trkpt>
      <trkpt lat="42.2735310" lon="-7.3055670">
        <ele>1507.2</ele>
        <time>2014-10-01T14:27:58Z</time>
      </trkpt>
      <trkpt lat="42.2734860" lon="-7.3056070">
        <ele>1507.7</ele>
        <time>2014-10-01T14:28:00Z</time>
      </trkpt>
      <trkpt lat="42.2734480" lon="-7.3056450">
        <ele>1508.1</ele>
        <time>2014-10-01T14:28:02Z</time>
      </trkpt>
      <trkpt lat="42.2734040" lon="-7.3056870">
        <ele>1508.5</ele>
        <time>2014-10-01T14:28:04Z</time>
      </trkpt>
      <trkpt lat="42.2733620" lon="-7.3057270">
        <ele>1508.9</ele>
        <time>2014-10-01T14:28:06Z</time>
      </trkpt>
      <trkpt lat="42.2733240" lon="-7.3057620">
        <ele>1509.3</ele>
        <time>2014-10-01T14:28:08Z</time>
      </trkpt>
      <trkpt lat="42.2732850" lon="-7.3058000">
        <ele>1509.6</ele>
        <time>2014-10-01T14:28:10Z</time>
      </trkpt>
      <trkpt lat="42.2732480" lon="-7.3058410">
        <ele>1509.9</ele>
        <time>2014-10-01T14:28:12Z</time>
      </trkpt>
      <trkpt lat="42.2732090" lon="-7.3058770">
        <ele>1510.3</ele>
        <time>2014-10-01T14:28:14Z</time>
      </trkpt>
      <trkpt lat="42.2731690" lon="-7.3059200">
        <ele>1510.7</ele>
        <time>2014-10-01T14:28:16Z</time>
      </trkpt>
      <trkpt lat="42.2731310" lon="-7.3059650">
        <ele>1511.1</ele>
        <time>2014-10-01T14:28:18Z</time>
      </trkpt>
      <trkpt lat="42.2730960" lon="-7.3060110">
        <ele>1511.5</ele>
        <time>2014-10-01T14:28:20Z</time>
      </trkpt>
      <trkpt lat="42.2730560" lon="-7.3060590">
        <ele>1512.0</ele>
        <time>2014-10-01T14:28:22Z</time>
      </trkpt>
      <trkpt lat="42.2730360" lon="-7.3060850">
        <ele>1512.2</ele>
        <time>2014-10-01T14:28:23Z</time>
      </trkpt>
      <trkpt lat="42.2730170" lon="-7.3061120">
        <ele>1512.5</ele>
        <time>2014-10-01T14:28:24Z</time>
      </trkpt>
      <trkpt lat="42.2729980" lon="-7.3061380">
        <ele>1512.7</ele>
        <time>2014-10-01T14:28:25Z</time>
      </trkpt>
      <trkpt lat="42.2729790" lon="-7.3061670">
        <ele>1513.0</ele>
        <time>2014-10-01T14:28:26Z</time>
      </trkpt>
      <trkpt lat="42.2729590" lon="-7.3061930">
        <ele>1513.3</ele>
        <time>2014-10-01T14:28:27Z</time>
      </trkpt>
      <trkpt lat="42.2729380" lon="-7.3062180">
        <ele>1513.5</ele>
        <time>2014-10-01T14:28:28Z</time>
      </trkpt>
      <trkpt lat="42.2729170" lon="-7.3062440">
        <ele>1513.7</ele>
        <time>2014-10-01T14:28:29Z</time>
      </trkpt>
      <trkpt lat="42.2728800" lon="-7.3062930">
        <ele>1514.1</ele>
        <time>2014-10-01T14:28:31Z</time>
      </trkpt>
      <trkpt lat="42.2728430" lon="-7.3063420">
        <ele>1514.5</ele>
        <time>2014-10-01T14:28:33Z</time>
      </trkpt>
      <trkpt lat="42.2728070" lon="-7.3063890">
        <ele>1515.0</ele>
        <time>2014-10-01T14:28:35Z</time>
      </trkpt>
      <trkpt lat="42.2727700" lon="-7.3064380">
        <ele>1515.4</ele>
        <time>2014-10-01T14:28:37Z</time>
      </trkpt>
      <trkpt lat="42.2727370" lon="-7.3064880">
        <ele>1515.9</ele>
        <time>2014-10-01T14:28:39Z</time>
      </trkpt>
      <trkpt lat="42.2727010" lon="-7.3065410">
        <ele>1516.4</ele>
        <time>2014-10-01T14:28:41Z</time>
      </trkpt>
      <trkpt lat="42.2726640" lon="-7.3065900">
        <ele>1516.9</ele>
        <time>2014-10-01T14:28:43Z</time>
      </trkpt>
      <trkpt lat="42.2726440" lon="-7.3066180">
        <ele>1517.2</ele>
        <time>2014-10-01T14:28:44Z</time>
      </trkpt>
      <trkpt lat="42.2726250" lon="-7.3066470">
        <ele>1517.5</ele>
        <time>2014-10-01T14:28:45Z</time>
      </trkpt>
      <trkpt lat="42.2726070" lon="-7.3066770">
        <ele>1517.8</ele>
        <time>2014-10-01T14:28:46Z</time>
      </trkpt>
      <trkpt lat="42.2725870" lon="-7.3067100">
        <ele>1518.1</ele>
        <time>2014-10-01T14:28:47Z</time>
      </trkpt>
      <trkpt lat="42.2725700" lon="-7.3067410">
        <ele>1518.4</ele>
        <time>2014-10-01T14:28:48Z</time>
      </trkpt>
      <trkpt lat="42.2725520" lon="-7.3067700">
        <ele>1518.6</ele>
        <time>2014-10-01T14:28:49Z</time>
      </trkpt>
      <trkpt lat="42.2725330" lon="-7.3068000">
        <ele>1518.9</ele>
        <time>2014-10-01T14:28:50Z</time>
      </trkpt>
      <trkpt lat="42.2725140" lon="-7.3068280">
        <ele>1519.1</ele>
        <time>2014-10-01T14:28:51Z</time>
      </trkpt>
      <trkpt lat="42.2724950" lon="-7.3068570">
        <ele>1519.3</ele>
        <time>2014-10-01T14:28:52Z</time>
      </trkpt>
      <trkpt lat="42.2724750" lon="-7.3068870">
        <ele>1519.6</ele>
        <time>2014-10-01T14:28:53Z</time>
      </trkpt>
      <trkpt lat="42.2724540" lon="-7.3069180">
        <ele>1519.8</ele>
        <time>2014-10-01T14:28:54Z</time>
      </trkpt>
      <trkpt lat="42.2724320" lon="-7.3069470">
        <ele>1520.0</ele>
        <time>2014-10-01T14:28:55Z</time>
      </trkpt>
      <trkpt lat="42.2724100" lon="-7.3069760">
        <ele>1520.2</ele>
        <time>2014-10-01T14:28:56Z</time>
      </trkpt>
      <trkpt lat="42.2723880" lon="-7.3070070">
        <ele>1520.5</ele>
        <time>2014-10-01T14:28:57Z</time>
      </trkpt>
      <trkpt lat="42.2723670" lon="-7.3070350">
        <ele>1520.7</ele>
        <time>2014-10-01T14:28:58Z</time>
      </trkpt>
      <trkpt lat="42.2723460" lon="-7.3070620">
        <ele>1520.9</ele>
        <time>2014-10-01T14:28:59Z</time>
      </trkpt>
      <trkpt lat="42.2723250" lon="-7.3070880">
        <ele>1521.2</ele>
        <time>2014-10-01T14:29:00Z</time>
      </trkpt>
      <trkpt lat="42.2723040" lon="-7.3071140">
        <ele>1521.4</ele>
        <time>2014-10-01T14:29:01Z</time>
      </trkpt>
      <trkpt lat="42.2722830" lon="-7.3071420">
        <ele>1521.7</ele>
        <time>2014-10-01T14:29:02Z</time>
      </trkpt>
      <trkpt lat="42.2722600" lon="-7.3071680">
        <ele>1521.9</ele>
        <time>2014-10-01T14:29:03Z</time>
      </trkpt>
      <trkpt lat="42.2722370" lon="-7.3071940">
        <ele>1522.2</ele>
        <time>2014-10-01T14:29:04Z</time>
      </trkpt>
      <trkpt lat="42.2722140" lon="-7.3072200">
        <ele>1522.4</ele>
        <time>2014-10-01T14:29:05Z</time>
      </trkpt>
      <trkpt lat="42.2721930" lon="-7.3072450">
        <ele>1522.6</ele>
        <time>2014-10-01T14:29:06Z</time>
      </trkpt>
      <trkpt lat="42.2721720" lon="-7.3072690">
        <ele>1522.8</ele>
        <time>2014-10-01T14:29:07Z</time>
      </trkpt>
      <trkpt lat="42.2721500" lon="-7.3072930">
        <ele>1523.0</ele>
        <time>2014-10-01T14:29:08Z</time>
      </trkpt>
      <trkpt lat="42.2721270" lon="-7.3073130">
        <ele>1523.2</ele>
        <time>2014-10-01T14:29:09Z</time>
      </trkpt>
      <trkpt lat="42.2721050" lon="-7.3073330">
        <ele>1523.4</ele>
        <time>2014-10-01T14:29:10Z</time>
      </trkpt>
      <trkpt lat="42.2720620" lon="-7.3073810">
        <ele>1523.9</ele>
        <time>2014-10-01T14:29:12Z</time>
      </trkpt>
      <trkpt lat="42.2720420" lon="-7.3074090">
        <ele>1524.1</ele>
        <time>2014-10-01T14:29:13Z</time>
      </trkpt>
      <trkpt lat="42.2720230" lon="-7.3074370">
        <ele>1524.3</ele>
        <time>2014-10-01T14:29:14Z</time>
      </trkpt>
      <trkpt lat="42.2720050" lon="-7.3074650">
        <ele>1524.5</ele>
        <time>2014-10-01T14:29:15Z</time>
      </trkpt>
      <trkpt lat="42.2719860" lon="-7.3074920">
        <ele>1524.7</ele>
        <time>2014-10-01T14:29:16Z</time>
      </trkpt>
      <trkpt lat="42.2719670" lon="-7.3075190">
        <ele>1525.0</ele>
        <time>2014-10-01T14:29:17Z</time>
      </trkpt>
      <trkpt lat="42.2719460" lon="-7.3075450">
        <ele>1525.2</ele>
        <time>2014-10-01T14:29:18Z</time>
      </trkpt>
      <trkpt lat="42.2719250" lon="-7.3075720">
        <ele>1525.4</ele>
        <time>2014-10-01T14:29:19Z</time>
      </trkpt>
      <trkpt lat="42.2719030" lon="-7.3075980">
        <ele>1525.6</ele>
        <time>2014-10-01T14:29:20Z</time>
      </trkpt>
      <trkpt lat="42.2718820" lon="-7.3076230">
        <ele>1525.9</ele>
        <time>2014-10-01T14:29:21Z</time>
      </trkpt>
      <trkpt lat="42.2718610" lon="-7.3076450">
        <ele>1526.1</ele>
        <time>2014-10-01T14:29:22Z</time>
      </trkpt>
      <trkpt lat="42.2718390" lon="-7.3076680">
        <ele>1526.3</ele>
        <time>2014-10-01T14:29:23Z</time>
      </trkpt>
      <trkpt lat="42.2718170" lon="-7.3076910">
        <ele>1526.5</ele>
        <time>2014-10-01T14:29:24Z</time>
      </trkpt>
      <trkpt lat="42.2717950" lon="-7.3077130">
        <ele>1526.7</ele>
        <time>2014-10-01T14:29:25Z</time>
      </trkpt>
      <trkpt lat="42.2717710" lon="-7.3077320">
        <ele>1527.0</ele>
        <time>2014-10-01T14:29:26Z</time>
      </trkpt>
      <trkpt lat="42.2717470" lon="-7.3077490">
        <ele>1527.2</ele>
        <time>2014-10-01T14:29:27Z</time>
      </trkpt>
      <trkpt lat="42.2717210" lon="-7.3077660">
        <ele>1527.5</ele>
        <time>2014-10-01T14:29:28Z</time>
      </trkpt>
      <trkpt lat="42.2716750" lon="-7.3078050">
        <ele>1528.0</ele>
        <time>2014-10-01T14:29:30Z</time>
      </trkpt>
      <trkpt lat="42.2716510" lon="-7.3078240">
        <ele>1528.3</ele>
        <time>2014-10-01T14:29:31Z</time>
      </trkpt>
      <trkpt lat="42.2716270" lon="-7.3078420">
        <ele>1528.6</ele>
        <time>2014-10-01T14:29:32Z</time>
      </trkpt>
      <trkpt lat="42.2716030" lon="-7.3078600">
        <ele>1528.8</ele>
        <time>2014-10-01T14:29:33Z</time>
      </trkpt>
      <trkpt lat="42.2715780" lon="-7.3078790">
        <ele>1529.1</ele>
        <time>2014-10-01T14:29:34Z</time>
      </trkpt>
      <trkpt lat="42.2715530" lon="-7.3078990">
        <ele>1529.3</ele>
        <time>2014-10-01T14:29:35Z</time>
      </trkpt>
      <trkpt lat="42.2715300" lon="-7.3079190">
        <ele>1529.5</ele>
        <time>2014-10-01T14:29:36Z</time>
      </trkpt>
      <trkpt lat="42.2715040" lon="-7.3079380">
        <ele>1529.8</ele>
        <time>2014-10-01T14:29:37Z</time>
      </trkpt>
      <trkpt lat="42.2714790" lon="-7.3079560">
        <ele>1530.0</ele>
        <time>2014-10-01T14:29:38Z</time>
      </trkpt>
      <trkpt lat="42.2714550" lon="-7.3079730">
        <ele>1530.2</ele>
        <time>2014-10-01T14:29:39Z</time>
      </trkpt>
      <trkpt lat="42.2714300" lon="-7.3079910">
        <ele>1530.5</ele>
        <time>2014-10-01T14:29:40Z</time>
      </trkpt>
      <trkpt lat="42.2714040" lon="-7.3080070">
        <ele>1530.7</ele>
        <time>2014-10-01T14:29:41Z</time>
      </trkpt>
      <trkpt lat="42.2713770" lon="-7.3080240">
        <ele>1530.9</ele>
        <time>2014-10-01T14:29:42Z</time>
      </trkpt>
      <trkpt lat="42.2713500" lon="-7.3080410">
        <ele>1531.1</ele>
        <time>2014-10-01T14:29:43Z</time>
      </trkpt>
      <trkpt lat="42.2713220" lon="-7.3080600">
        <ele>1531.4</ele>
        <time>2014-10-01T14:29:44Z</time>
      </trkpt>
      <trkpt lat="42.2712960" lon="-7.3080740">
        <ele>1531.6</ele>
        <time>2014-10-01T14:29:45Z</time>
      </trkpt>
      <trkpt lat="42.2712470" lon="-7.3081040">
        <ele>1532.0</ele>
        <time>2014-10-01T14:29:47Z</time>
      </trkpt>
      <trkpt lat="42.2712180" lon="-7.3081170">
        <ele>1532.2</ele>
        <time>2014-10-01T14:29:48Z</time>
      </trkpt>
      <trkpt lat="42.2711910" lon="-7.3081290">
        <ele>1532.4</ele>
        <time>2014-10-01T14:29:49Z</time>
      </trkpt>
      <trkpt lat="42.2711620" lon="-7.3081410">
        <ele>1532.6</ele>
        <time>2014-10-01T14:29:50Z</time>
      </trkpt>
      <trkpt lat="42.2711080" lon="-7.3081620">
        <ele>1533.0</ele>
        <time>2014-10-01T14:29:52Z</time>
      </trkpt>
      <trkpt lat="42.2710730" lon="-7.3081760">
        <ele>1533.3</ele>
        <time>2014-10-01T14:29:53Z</time>
      </trkpt>
      <trkpt lat="42.2710410" lon="-7.3081850">
        <ele>1533.6</ele>
        <time>2014-10-01T14:29:54Z</time>
      </trkpt>
      <trkpt lat="42.2710080" lon="-7.3081930">
        <ele>1533.9</ele>
        <time>2014-10-01T14:29:55Z</time>
      </trkpt>
      <trkpt lat="42.2709780" lon="-7.3081990">
        <ele>1534.1</ele>
        <time>2014-10-01T14:29:56Z</time>
      </trkpt>
      <trkpt lat="42.2709520" lon="-7.3082070">
        <ele>1534.3</ele>
        <time>2014-10-01T14:29:57Z</time>
      </trkpt>
      <trkpt lat="42.2709000" lon="-7.3082140">
        <ele>1534.6</ele>
        <time>2014-10-01T14:29:59Z</time>
      </trkpt>
      <trkpt lat="42.2708730" lon="-7.3082170">
        <ele>1534.8</ele>
        <time>2014-10-01T14:30:00Z</time>
      </trkpt>
      <trkpt lat="42.2708420" lon="-7.3082200">
        <ele>1535.0</ele>
        <time>2014-10-01T14:30:01Z</time>
      </trkpt>
      <trkpt lat="42.2708080" lon="-7.3082270">
        <ele>1535.2</ele>
        <time>2014-10-01T14:30:02Z</time>
      </trkpt>
      <trkpt lat="42.2707800" lon="-7.3082260">
        <ele>1535.3</ele>
        <time>2014-10-01T14:30:03Z</time>
      </trkpt>
      <trkpt lat="42.2707240" lon="-7.3082300">
        <ele>1535.7</ele>
        <time>2014-10-01T14:30:05Z</time>
      </trkpt>
      <trkpt lat="42.2706960" lon="-7.3082350">
        <ele>1535.9</ele>
        <time>2014-10-01T14:30:06Z</time>
      </trkpt>
      <trkpt lat="42.2706420" lon="-7.3082440">
        <ele>1536.3</ele>
        <time>2014-10-01T14:30:08Z</time>
      </trkpt>
      <trkpt lat="42.2705870" lon="-7.3082510">
        <ele>1536.7</ele>
        <time>2014-10-01T14:30:10Z</time>
      </trkpt>
      <trkpt lat="42.2705560" lon="-7.3082550">
        <ele>1536.9</ele>
        <time>2014-10-01T14:30:11Z</time>
      </trkpt>
      <trkpt lat="42.2705270" lon="-7.3082570">
        <ele>1537.0</ele>
        <time>2014-10-01T14:30:12Z</time>
      </trkpt>
      <trkpt lat="42.2704990" lon="-7.3082580">
        <ele>1537.2</ele>
        <time>2014-10-01T14:30:13Z</time>
      </trkpt>
      <trkpt lat="42.2704700" lon="-7.3082610">
        <ele>1537.4</ele>
        <time>2014-10-01T14:30:14Z</time>
      </trkpt>
      <trkpt lat="42.2704400" lon="-7.3082660">
        <ele>1537.5</ele>
        <time>2014-10-01T14:30:15Z</time>
      </trkpt>
      <trkpt lat="42.2704120" lon="-7.3082720">
        <ele>1537.7</ele>
        <time>2014-10-01T14:30:16Z</time>
      </trkpt>
      <trkpt lat="42.2703840" lon="-7.3082800">
        <ele>1537.8</ele>
        <time>2014-10-01T14:30:17Z</time>
      </trkpt>
      <trkpt lat="42.2703340" lon="-7.3082970">
        <ele>1538.1</ele>
        <time>2014-10-01T14:30:19Z</time>
      </trkpt>
      <trkpt lat="42.2702860" lon="-7.3083120">
        <ele>1538.4</ele>
        <time>2014-10-01T14:30:21Z</time>
      </trkpt>
      <trkpt lat="42.2702400" lon="-7.3083280">
        <ele>1538.7</ele>
        <time>2014-10-01T14:30:23Z</time>
      </trkpt>
      <trkpt lat="42.2701900" lon="-7.3083440">
        <ele>1539.1</ele>
        <time>2014-10-01T14:30:25Z</time>
      </trkpt>
      <trkpt lat="42.2701420" lon="-7.3083700">
        <ele>1539.4</ele>
        <time>2014-10-01T14:30:27Z</time>
      </trkpt>
      <trkpt lat="42.2701140" lon="-7.3083920">
        <ele>1539.6</ele>
        <time>2014-10-01T14:30:28Z</time>
      </trkpt>
      <trkpt lat="42.2700860" lon="-7.3084120">
        <ele>1539.8</ele>
        <time>2014-10-01T14:30:29Z</time>
      </trkpt>
      <trkpt lat="42.2700580" lon="-7.3084300">
        <ele>1539.9</ele>
        <time>2014-10-01T14:30:30Z</time>
      </trkpt>
      <trkpt lat="42.2700050" lon="-7.3084630">
        <ele>1540.0</ele>
        <time>2014-10-01T14:30:32Z</time>
      </trkpt>
      <trkpt lat="42.2699740" lon="-7.3084860">
        <ele>1540.0</ele>
        <time>2014-10-01T14:30:33Z</time>
      </trkpt>
      <trkpt lat="42.2699390" lon="-7.3085140">
        <ele>1539.8</ele>
        <time>2014-10-01T14:30:34Z</time>
      </trkpt>
      <trkpt lat="42.2699110" lon="-7.3085410">
        <ele>1539.7</ele>
        <time>2014-10-01T14:30:35Z</time>
      </trkpt>
      <trkpt lat="42.2698820" lon="-7.3085680">
        <ele>1539.5</ele>
        <time>2014-10-01T14:30:36Z</time>
      </trkpt>
      <trkpt lat="42.2698540" lon="-7.3085900">
        <ele>1539.4</ele>
        <time>2014-10-01T14:30:37Z</time>
      </trkpt>
      <trkpt lat="42.2698250" lon="-7.3086090">
        <ele>1539.4</ele>
        <time>2014-10-01T14:30:38Z</time>
      </trkpt>
      <trkpt lat="42.2697980" lon="-7.3086290">
        <ele>1539.3</ele>
        <time>2014-10-01T14:30:39Z</time>
      </trkpt>
      <trkpt lat="42.2697730" lon="-7.3086500">
        <ele>1539.3</ele>
        <time>2014-10-01T14:30:40Z</time>
      </trkpt>
      <trkpt lat="42.2697490" lon="-7.3086710">
        <ele>1539.4</ele>
        <time>2014-10-01T14:30:41Z</time>
      </trkpt>
      <trkpt lat="42.2697250" lon="-7.3086910">
        <ele>1539.6</ele>
        <time>2014-10-01T14:30:42Z</time>
      </trkpt>
      <trkpt lat="42.2696790" lon="-7.3087200">
        <ele>1540.0</ele>
        <time>2014-10-01T14:30:44Z</time>
      </trkpt>
      <trkpt lat="42.2696330" lon="-7.3087540">
        <ele>1540.4</ele>
        <time>2014-10-01T14:30:46Z</time>
      </trkpt>
      <trkpt lat="42.2695840" lon="-7.3087870">
        <ele>1540.9</ele>
        <time>2014-10-01T14:30:48Z</time>
      </trkpt>
      <trkpt lat="42.2695570" lon="-7.3088020">
        <ele>1541.1</ele>
        <time>2014-10-01T14:30:49Z</time>
      </trkpt>
      <trkpt lat="42.2695290" lon="-7.3088170">
        <ele>1541.4</ele>
        <time>2014-10-01T14:30:50Z</time>
      </trkpt>
      <trkpt lat="42.2695020" lon="-7.3088330">
        <ele>1541.6</ele>
        <time>2014-10-01T14:30:51Z</time>
      </trkpt>
      <trkpt lat="42.2694770" lon="-7.3088490">
        <ele>1541.8</ele>
        <time>2014-10-01T14:30:52Z</time>
      </trkpt>
      <trkpt lat="42.2694510" lon="-7.3088620">
        <ele>1542.1</ele>
        <time>2014-10-01T14:30:53Z</time>
      </trkpt>
      <trkpt lat="42.2694040" lon="-7.3088920">
        <ele>1542.5</ele>
        <time>2014-10-01T14:30:55Z</time>
      </trkpt>
      <trkpt lat="42.2693560" lon="-7.3089160">
        <ele>1542.9</ele>
        <time>2014-10-01T14:30:57Z</time>
      </trkpt>
      <trkpt lat="42.2693090" lon="-7.3089400">
        <ele>1543.3</ele>
        <time>2014-10-01T14:30:59Z</time>
      </trkpt>
      <trkpt lat="42.2692840" lon="-7.3089560">
        <ele>1543.6</ele>
        <time>2014-10-01T14:31:00Z</time>
      </trkpt>
      <trkpt lat="42.2692590" lon="-7.3089740">
        <ele>1543.8</ele>
        <time>2014-10-01T14:31:01Z</time>
      </trkpt>
      <trkpt lat="42.2692060" lon="-7.3090060">
        <ele>1544.3</ele>
        <time>2014-10-01T14:31:03Z</time>
      </trkpt>
      <trkpt lat="42.2691780" lon="-7.3090200">
        <ele>1544.5</ele>
        <time>2014-10-01T14:31:04Z</time>
      </trkpt>
      <trkpt lat="42.2691520" lon="-7.3090330">
        <ele>1544.7</ele>
        <time>2014-10-01T14:31:05Z</time>
      </trkpt>
      <trkpt lat="42.2691260" lon="-7.3090460">
        <ele>1545.0</ele>
        <time>2014-10-01T14:31:06Z</time>
      </trkpt>
      <trkpt lat="42.2690790" lon="-7.3090740">
        <ele>1545.4</ele>
        <time>2014-10-01T14:31:08Z</time>
      </trkpt>
      <trkpt lat="42.2690280" lon="-7.3090940">
        <ele>1545.8</ele>
        <time>2014-10-01T14:31:10Z</time>
      </trkpt>
      <trkpt lat="42.2690010" lon="-7.3091020">
        <ele>1546.1</ele>
        <time>2014-10-01T14:31:11Z</time>
      </trkpt>
      <trkpt lat="42.2689740" lon="-7.3091070">
        <ele>1546.3</ele>
        <time>2014-10-01T14:31:12Z</time>
      </trkpt>
      <trkpt lat="42.2689450" lon="-7.3091090">
        <ele>1546.5</ele>
        <time>2014-10-01T14:31:13Z</time>
      </trkpt>
      <trkpt lat="42.2689170" lon="-7.3091050">
        <ele>1546.8</ele>
        <time>2014-10-01T14:31:14Z</time>
      </trkpt>
      <trkpt lat="42.2688900" lon="-7.3090900">
        <ele>1547.0</ele>
        <time>2014-10-01T14:31:15Z</time>
      </trkpt>
      <trkpt lat="42.2688660" lon="-7.3090620">
        <ele>1547.3</ele>
        <time>2014-10-01T14:31:16Z</time>
      </trkpt>
      <trkpt lat="42.2688450" lon="-7.3090240">
        <ele>1547.5</ele>
        <time>2014-10-01T14:31:17Z</time>
      </trkpt>
      <trkpt lat="42.2688310" lon="-7.3089830">
        <ele>1547.8</ele>
        <time>2014-10-01T14:31:18Z</time>
      </trkpt>
      <trkpt lat="42.2688260" lon="-7.3089380">
        <ele>1548.1</ele>
        <time>2014-10-01T14:31:19Z</time>
      </trkpt>
      <trkpt lat="42.2688330" lon="-7.3088990">
        <ele>1548.3</ele>
        <time>2014-10-01T14:31:20Z</time>
      </trkpt>
      <trkpt lat="42.2688450" lon="-7.3088630">
        <ele>1548.6</ele>
        <time>2014-10-01T14:31:21Z</time>
      </trkpt>
      <trkpt lat="42.2688610" lon="-7.3088280">
        <ele>1548.8</ele>
        <time>2014-10-01T14:31:22Z</time>
      </trkpt>
      <trkpt lat="42.2688960" lon="-7.3087780">
        <ele>1549.3</ele>
        <time>2014-10-01T14:31:24Z</time>
      </trkpt>
      <trkpt lat="42.2689390" lon="-7.3087360">
        <ele>1549.7</ele>
        <time>2014-10-01T14:31:26Z</time>
      </trkpt>
      <trkpt lat="42.2689630" lon="-7.3087150">
        <ele>1549.9</ele>
        <time>2014-10-01T14:31:27Z</time>
      </trkpt>
      <trkpt lat="42.2689880" lon="-7.3086950">
        <ele>1550.2</ele>
        <time>2014-10-01T14:31:28Z</time>
      </trkpt>
      <trkpt lat="42.2690110" lon="-7.3086720">
        <ele>1550.4</ele>
        <time>2014-10-01T14:31:29Z</time>
      </trkpt>
      <trkpt lat="42.2690350" lon="-7.3086500">
        <ele>1550.6</ele>
        <time>2014-10-01T14:31:30Z</time>
      </trkpt>
      <trkpt lat="42.2690710" lon="-7.3086150">
        <ele>1551.0</ele>
        <time>2014-10-01T14:31:32Z</time>
      </trkpt>
      <trkpt lat="42.2691150" lon="-7.3085740">
        <ele>1551.4</ele>
        <time>2014-10-01T14:31:34Z</time>
      </trkpt>
      <trkpt lat="42.2691550" lon="-7.3085350">
        <ele>1551.9</ele>
        <time>2014-10-01T14:31:36Z</time>
      </trkpt>
      <trkpt lat="42.2691920" lon="-7.3084950">
        <ele>1552.2</ele>
        <time>2014-10-01T14:31:38Z</time>
      </trkpt>
      <trkpt lat="42.2692280" lon="-7.3084450">
        <ele>1552.7</ele>
        <time>2014-10-01T14:31:40Z</time>
      </trkpt>
      <trkpt lat="42.2692570" lon="-7.3083980">
        <ele>1553.0</ele>
        <time>2014-10-01T14:31:42Z</time>
      </trkpt>
      <trkpt lat="42.2692890" lon="-7.3083460">
        <ele>1553.5</ele>
        <time>2014-10-01T14:31:44Z</time>
      </trkpt>
      <trkpt lat="42.2693200" lon="-7.3082930">
        <ele>1553.9</ele>
        <time>2014-10-01T14:31:46Z</time>
      </trkpt>
      <trkpt lat="42.2693500" lon="-7.3082400">
        <ele>1554.3</ele>
        <time>2014-10-01T14:31:48Z</time>
      </trkpt>
      <trkpt lat="42.2693820" lon="-7.3081900">
        <ele>1554.7</ele>
        <time>2014-10-01T14:31:50Z</time>
      </trkpt>
      <trkpt lat="42.2694190" lon="-7.3081410">
        <ele>1555.1</ele>
        <time>2014-10-01T14:31:52Z</time>
      </trkpt>
      <trkpt lat="42.2694520" lon="-7.3080870">
        <ele>1555.5</ele>
        <time>2014-10-01T14:31:54Z</time>
      </trkpt>
      <trkpt lat="42.2694810" lon="-7.3080390">
        <ele>1555.9</ele>
        <time>2014-10-01T14:31:56Z</time>
      </trkpt>
      <trkpt lat="42.2695120" lon="-7.3079860">
        <ele>1556.3</ele>
        <time>2014-10-01T14:31:58Z</time>
      </trkpt>
      <trkpt lat="42.2695490" lon="-7.3079300">
        <ele>1556.8</ele>
        <time>2014-10-01T14:32:00Z</time>
      </trkpt>
      <trkpt lat="42.2695660" lon="-7.3078980">
        <ele>1557.0</ele>
        <time>2014-10-01T14:32:01Z</time>
      </trkpt>
      <trkpt lat="42.2695830" lon="-7.3078680">
        <ele>1557.2</ele>
        <time>2014-10-01T14:32:02Z</time>
      </trkpt>
      <trkpt lat="42.2695990" lon="-7.3078370">
        <ele>1557.5</ele>
        <time>2014-10-01T14:32:03Z</time>
      </trkpt>
      <trkpt lat="42.2696310" lon="-7.3077810">
        <ele>1557.9</ele>
        <time>2014-10-01T14:32:05Z</time>
      </trkpt>
      <trkpt lat="42.2696590" lon="-7.3077230">
        <ele>1558.3</ele>
        <time>2014-10-01T14:32:07Z</time>
      </trkpt>
      <trkpt lat="42.2696880" lon="-7.3076680">
        <ele>1558.7</ele>
        <time>2014-10-01T14:32:09Z</time>
      </trkpt>
      <trkpt lat="42.2697170" lon="-7.3076110">
        <ele>1559.2</ele>
        <time>2014-10-01T14:32:11Z</time>
      </trkpt>
      <trkpt lat="42.2697450" lon="-7.3075540">
        <ele>1559.6</ele>
        <time>2014-10-01T14:32:13Z</time>
      </trkpt>
      <trkpt lat="42.2697730" lon="-7.3075000">
        <ele>1560.0</ele>
        <time>2014-10-01T14:32:15Z</time>
      </trkpt>
      <trkpt lat="42.2698040" lon="-7.3074480">
        <ele>1560.4</ele>
        <time>2014-10-01T14:32:17Z</time>
      </trkpt>
      <trkpt lat="42.2698380" lon="-7.3073950">
        <ele>1560.8</ele>
        <time>2014-10-01T14:32:19Z</time>
      </trkpt>
      <trkpt lat="42.2698710" lon="-7.3073450">
        <ele>1561.2</ele>
        <time>2014-10-01T14:32:21Z</time>
      </trkpt>
      <trkpt lat="42.2699040" lon="-7.3072990">
        <ele>1561.6</ele>
        <time>2014-10-01T14:32:23Z</time>
      </trkpt>
      <trkpt lat="42.2699400" lon="-7.3072540">
        <ele>1562.0</ele>
        <time>2014-10-01T14:32:25Z</time>
      </trkpt>
      <trkpt lat="42.2699770" lon="-7.3072050">
        <ele>1562.4</ele>
        <time>2014-10-01T14:32:27Z</time>
      </trkpt>
      <trkpt lat="42.2700180" lon="-7.3071570">
        <ele>1562.9</ele>
        <time>2014-10-01T14:32:29Z</time>
      </trkpt>
      <trkpt lat="42.2700420" lon="-7.3071310">
        <ele>1563.1</ele>
        <time>2014-10-01T14:32:30Z</time>
      </trkpt>
      <trkpt lat="42.2700650" lon="-7.3071040">
        <ele>1563.4</ele>
        <time>2014-10-01T14:32:31Z</time>
      </trkpt>
      <trkpt lat="42.2700860" lon="-7.3070780">
        <ele>1563.6</ele>
        <time>2014-10-01T14:32:32Z</time>
      </trkpt>
      <trkpt lat="42.2701090" lon="-7.3070530">
        <ele>1563.9</ele>
        <time>2014-10-01T14:32:33Z</time>
      </trkpt>
      <trkpt lat="42.2701340" lon="-7.3070230">
        <ele>1564.1</ele>
        <time>2014-10-01T14:32:34Z</time>
      </trkpt>
      <trkpt lat="42.2701580" lon="-7.3069940">
        <ele>1564.4</ele>
        <time>2014-10-01T14:32:35Z</time>
      </trkpt>
      <trkpt lat="42.2701810" lon="-7.3069710">
        <ele>1564.6</ele>
        <time>2014-10-01T14:32:36Z</time>
      </trkpt>
      <trkpt lat="42.2702060" lon="-7.3069460">
        <ele>1564.9</ele>
        <time>2014-10-01T14:32:37Z</time>
      </trkpt>
      <trkpt lat="42.2702310" lon="-7.3069200">
        <ele>1565.2</ele>
        <time>2014-10-01T14:32:38Z</time>
      </trkpt>
      <trkpt lat="42.2702550" lon="-7.3068890">
        <ele>1565.4</ele>
        <time>2014-10-01T14:32:39Z</time>
      </trkpt>
      <trkpt lat="42.2702760" lon="-7.3068540">
        <ele>1565.7</ele>
        <time>2014-10-01T14:32:40Z</time>
      </trkpt>
      <trkpt lat="42.2703120" lon="-7.3067970">
        <ele>1566.2</ele>
        <time>2014-10-01T14:32:42Z</time>
      </trkpt>
      <trkpt lat="42.2703370" lon="-7.3067610">
        <ele>1566.5</ele>
        <time>2014-10-01T14:32:43Z</time>
      </trkpt>
      <trkpt lat="42.2703610" lon="-7.3067280">
        <ele>1566.7</ele>
        <time>2014-10-01T14:32:44Z</time>
      </trkpt>
      <trkpt lat="42.2703860" lon="-7.3066940">
        <ele>1567.0</ele>
        <time>2014-10-01T14:32:45Z</time>
      </trkpt>
      <trkpt lat="42.2704100" lon="-7.3066620">
        <ele>1567.3</ele>
        <time>2014-10-01T14:32:46Z</time>
      </trkpt>
      <trkpt lat="42.2704350" lon="-7.3066310">
        <ele>1567.6</ele>
        <time>2014-10-01T14:32:47Z</time>
      </trkpt>
      <trkpt lat="42.2704600" lon="-7.3066000">
        <ele>1567.9</ele>
        <time>2014-10-01T14:32:48Z</time>
      </trkpt>
      <trkpt lat="42.2704830" lon="-7.3065640">
        <ele>1568.2</ele>
        <time>2014-10-01T14:32:49Z</time>
      </trkpt>
      <trkpt lat="42.2705050" lon="-7.3065250">
        <ele>1568.5</ele>
        <time>2014-10-01T14:32:50Z</time>
      </trkpt>
      <trkpt lat="42.2705260" lon="-7.3064880">
        <ele>1568.7</ele>
        <time>2014-10-01T14:32:51Z</time>
      </trkpt>
      <trkpt lat="42.2705490" lon="-7.3064480">
        <ele>1569.1</ele>
        <time>2014-10-01T14:32:52Z</time>
      </trkpt>
      <trkpt lat="42.2705700" lon="-7.3064110">
        <ele>1569.3</ele>
        <time>2014-10-01T14:32:53Z</time>
      </trkpt>
      <trkpt lat="42.2705880" lon="-7.3063740">
        <ele>1569.6</ele>
        <time>2014-10-01T14:32:54Z</time>
      </trkpt>
      <trkpt lat="42.2706050" lon="-7.3063420">
        <ele>1569.8</ele>
        <time>2014-10-01T14:32:55Z</time>
      </trkpt>
      <trkpt lat="42.2706250" lon="-7.3063080">
        <ele>1570.1</ele>
        <time>2014-10-01T14:32:56Z</time>
      </trkpt>
      <trkpt lat="42.2706410" lon="-7.3062750">
        <ele>1570.4</ele>
        <time>2014-10-01T14:32:57Z</time>
      </trkpt>
      <trkpt lat="42.2706550" lon="-7.3062370">
        <ele>1570.6</ele>
        <time>2014-10-01T14:32:58Z</time>
      </trkpt>
      <trkpt lat="42.2706640" lon="-7.3061970">
        <ele>1570.9</ele>
        <time>2014-10-01T14:32:59Z</time>
      </trkpt>
      <trkpt lat="42.2706670" lon="-7.3061530">
        <ele>1571.1</ele>
        <time>2014-10-01T14:33:00Z</time>
      </trkpt>
      <trkpt lat="42.2706630" lon="-7.3061100">
        <ele>1571.4</ele>
        <time>2014-10-01T14:33:01Z</time>
      </trkpt>
      <trkpt lat="42.2706520" lon="-7.3060660">
        <ele>1571.7</ele>
        <time>2014-10-01T14:33:02Z</time>
      </trkpt>
      <trkpt lat="42.2706340" lon="-7.3060400">
        <ele>1571.9</ele>
        <time>2014-10-01T14:33:03Z</time>
      </trkpt>
      <trkpt lat="42.2705910" lon="-7.3060100">
        <ele>1572.3</ele>
        <time>2014-10-01T14:33:05Z</time>
      </trkpt>
      <trkpt lat="42.2705440" lon="-7.3060150">
        <ele>1572.7</ele>
        <time>2014-10-01T14:33:07Z</time>
      </trkpt>
      <trkpt lat="42.2704960" lon="-7.3060530">
        <ele>1573.1</ele>
        <time>2014-10-01T14:33:09Z</time>
      </trkpt>
      <trkpt lat="42.2704720" lon="-7.3060760">
        <ele>1573.4</ele>
        <time>2014-10-01T14:33:10Z</time>
      </trkpt>
      <trkpt lat="42.2704500" lon="-7.3061010">
        <ele>1573.6</ele>
        <time>2014-10-01T14:33:11Z</time>
      </trkpt>
      <trkpt lat="42.2704090" lon="-7.3061520">
        <ele>1574.1</ele>
        <time>2014-10-01T14:33:13Z</time>
      </trkpt>
      <trkpt lat="42.2703910" lon="-7.3061790">
        <ele>1574.3</ele>
        <time>2014-10-01T14:33:14Z</time>
      </trkpt>
      <trkpt lat="42.2703660" lon="-7.3062140">
        <ele>1574.6</ele>
        <time>2014-10-01T14:33:15Z</time>
      </trkpt>
      <trkpt lat="42.2703450" lon="-7.3062450">
        <ele>1574.9</ele>
        <time>2014-10-01T14:33:16Z</time>
      </trkpt>
      <trkpt lat="42.2703240" lon="-7.3062750">
        <ele>1575.1</ele>
        <time>2014-10-01T14:33:17Z</time>
      </trkpt>
      <trkpt lat="42.2703080" lon="-7.3063040">
        <ele>1575.3</ele>
        <time>2014-10-01T14:33:18Z</time>
      </trkpt>
      <trkpt lat="42.2702720" lon="-7.3063630">
        <ele>1575.8</ele>
        <time>2014-10-01T14:33:20Z</time>
      </trkpt>
      <trkpt lat="42.2702510" lon="-7.3063910">
        <ele>1576.0</ele>
        <time>2014-10-01T14:33:21Z</time>
      </trkpt>
      <trkpt lat="42.2702310" lon="-7.3064190">
        <ele>1576.3</ele>
        <time>2014-10-01T14:33:22Z</time>
      </trkpt>
      <trkpt lat="42.2701890" lon="-7.3064690">
        <ele>1576.7</ele>
        <time>2014-10-01T14:33:24Z</time>
      </trkpt>
      <trkpt lat="42.2701660" lon="-7.3064990">
        <ele>1577.0</ele>
        <time>2014-10-01T14:33:25Z</time>
      </trkpt>
      <trkpt lat="42.2701400" lon="-7.3065270">
        <ele>1577.3</ele>
        <time>2014-10-01T14:33:26Z</time>
      </trkpt>
      <trkpt lat="42.2701160" lon="-7.3065500">
        <ele>1577.5</ele>
        <time>2014-10-01T14:33:27Z</time>
      </trkpt>
      <trkpt lat="42.2700930" lon="-7.3065700">
        <ele>1577.7</ele>
        <time>2014-10-01T14:33:28Z</time>
      </trkpt>
      <trkpt lat="42.2700640" lon="-7.3065900">
        <ele>1578.0</ele>
        <time>2014-10-01T14:33:29Z</time>
      </trkpt>
      <trkpt lat="42.2700330" lon="-7.3066080">
        <ele>1578.3</ele>
        <time>2014-10-01T14:33:30Z</time>
      </trkpt>
      <trkpt lat="42.2700000" lon="-7.3066240">
        <ele>1578.6</ele>
        <time>2014-10-01T14:33:31Z</time>
      </trkpt>
      <trkpt lat="42.2699650" lon="-7.3066360">
        <ele>1578.9</ele>
        <time>2014-10-01T14:33:32Z</time>
      </trkpt>
      <trkpt lat="42.2699310" lon="-7.3066490">
        <ele>1579.2</ele>
        <time>2014-10-01T14:33:33Z</time>
      </trkpt>
      <trkpt lat="42.2699000" lon="-7.3066620">
        <ele>1579.4</ele>
        <time>2014-10-01T14:33:34Z</time>
      </trkpt>
      <trkpt lat="42.2698710" lon="-7.3066740">
        <ele>1579.7</ele>
        <time>2014-10-01T14:33:35Z</time>
      </trkpt>
      <trkpt lat="42.2698430" lon="-7.3066870">
        <ele>1579.9</ele>
        <time>2014-10-01T14:33:36Z</time>
      </trkpt>
      <trkpt lat="42.2698140" lon="-7.3067020">
        <ele>1580.2</ele>
        <time>2014-10-01T14:33:37Z</time>
      </trkpt>
      <trkpt lat="42.2697610" lon="-7.3067260">
        <ele>1580.6</ele>
        <time>2014-10-01T14:33:39Z</time>
      </trkpt>
      <trkpt lat="42.2697330" lon="-7.3067360">
        <ele>1580.9</ele>
        <time>2014-10-01T14:33:40Z</time>
      </trkpt>
      <trkpt lat="42.2697010" lon="-7.3067460">
        <ele>1581.1</ele>
        <time>2014-10-01T14:33:41Z</time>
      </trkpt>
      <trkpt lat="42.2696740" lon="-7.3067510">
        <ele>1581.4</ele>
        <time>2014-10-01T14:33:42Z</time>
      </trkpt>
      <trkpt lat="42.2696460" lon="-7.3067550">
        <ele>1581.6</ele>
        <time>2014-10-01T14:33:43Z</time>
      </trkpt>
      <trkpt lat="42.2695950" lon="-7.3067640">
        <ele>1582.0</ele>
        <time>2014-10-01T14:33:45Z</time>
      </trkpt>
      <trkpt lat="42.2695480" lon="-7.3067810">
        <ele>1582.4</ele>
        <time>2014-10-01T14:33:47Z</time>
      </trkpt>
      <trkpt lat="42.2695020" lon="-7.3068030">
        <ele>1582.8</ele>
        <time>2014-10-01T14:33:49Z</time>
      </trkpt>
      <trkpt lat="42.2694580" lon="-7.3068200">
        <ele>1583.2</ele>
        <time>2014-10-01T14:33:51Z</time>
      </trkpt>
      <trkpt lat="42.2694180" lon="-7.3068340">
        <ele>1583.5</ele>
        <time>2014-10-01T14:33:53Z</time>
      </trkpt>
      <trkpt lat="42.2693720" lon="-7.3068530">
        <ele>1583.9</ele>
        <time>2014-10-01T14:33:55Z</time>
      </trkpt>
      <trkpt lat="42.2693280" lon="-7.3068750">
        <ele>1584.3</ele>
        <time>2014-10-01T14:33:57Z</time>
      </trkpt>
      <trkpt lat="42.2692830" lon="-7.3069000">
        <ele>1584.7</ele>
        <time>2014-10-01T14:33:59Z</time>
      </trkpt>
      <trkpt lat="42.2692380" lon="-7.3069240">
        <ele>1585.1</ele>
        <time>2014-10-01T14:34:01Z</time>
      </trkpt>
      <trkpt lat="42.2691940" lon="-7.3069500">
        <ele>1585.5</ele>
        <time>2014-10-01T14:34:03Z</time>
      </trkpt>
      <trkpt lat="42.2691490" lon="-7.3069780">
        <ele>1585.9</ele>
        <time>2014-10-01T14:34:05Z</time>
      </trkpt>
      <trkpt lat="42.2691060" lon="-7.3070110">
        <ele>1586.3</ele>
        <time>2014-10-01T14:34:07Z</time>
      </trkpt>
      <trkpt lat="42.2690640" lon="-7.3070340">
        <ele>1586.7</ele>
        <time>2014-10-01T14:34:09Z</time>
      </trkpt>
      <trkpt lat="42.2690170" lon="-7.3070640">
        <ele>1587.1</ele>
        <time>2014-10-01T14:34:11Z</time>
      </trkpt>
      <trkpt lat="42.2689720" lon="-7.3070980">
        <ele>1587.6</ele>
        <time>2014-10-01T14:34:13Z</time>
      </trkpt>
      <trkpt lat="42.2689330" lon="-7.3071250">
        <ele>1587.9</ele>
        <time>2014-10-01T14:34:15Z</time>
      </trkpt>
      <trkpt lat="42.2688950" lon="-7.3071520">
        <ele>1588.3</ele>
        <time>2014-10-01T14:34:17Z</time>
      </trkpt>
      <trkpt lat="42.2688530" lon="-7.3071800">
        <ele>1588.7</ele>
        <time>2014-10-01T14:34:19Z</time>
      </trkpt>
      <trkpt lat="42.2688120" lon="-7.3071990">
        <ele>1589.0</ele>
        <time>2014-10-01T14:34:21Z</time>
      </trkpt>
      <trkpt lat="42.2687650" lon="-7.3072160">
        <ele>1589.4</ele>
        <time>2014-10-01T14:34:23Z</time>
      </trkpt>
      <trkpt lat="42.2687160" lon="-7.3072310">
        <ele>1589.8</ele>
        <time>2014-10-01T14:34:25Z</time>
      </trkpt>
      <trkpt lat="42.2686630" lon="-7.3072420">
        <ele>1590.3</ele>
        <time>2014-10-01T14:34:27Z</time>
      </trkpt>
      <trkpt lat="42.2686140" lon="-7.3072500">
        <ele>1590.7</ele>
        <time>2014-10-01T14:34:29Z</time>
      </trkpt>
      <trkpt lat="42.2685610" lon="-7.3072560">
        <ele>1591.1</ele>
        <time>2014-10-01T14:34:31Z</time>
      </trkpt>
      <trkpt lat="42.2685110" lon="-7.3072580">
        <ele>1591.5</ele>
        <time>2014-10-01T14:34:33Z</time>
      </trkpt>
      <trkpt lat="42.2684610" lon="-7.3072590">
        <ele>1591.9</ele>
        <time>2014-10-01T14:34:35Z</time>
      </trkpt>
      <trkpt lat="42.2684150" lon="-7.3072580">
        <ele>1592.3</ele>
        <time>2014-10-01T14:34:37Z</time>
      </trkpt>
      <trkpt lat="42.2683650" lon="-7.3072470">
        <ele>1592.7</ele>
        <time>2014-10-01T14:34:39Z</time>
      </trkpt>
      <trkpt lat="42.2683370" lon="-7.3072400">
        <ele>1593.0</ele>
        <time>2014-10-01T14:34:40Z</time>
      </trkpt>
      <trkpt lat="42.2682860" lon="-7.3072320">
        <ele>1593.4</ele>
        <time>2014-10-01T14:34:42Z</time>
      </trkpt>
      <trkpt lat="42.2682360" lon="-7.3072320">
        <ele>1593.8</ele>
        <time>2014-10-01T14:34:44Z</time>
      </trkpt>
      <trkpt lat="42.2681870" lon="-7.3072310">
        <ele>1594.2</ele>
        <time>2014-10-01T14:34:46Z</time>
      </trkpt>
      <trkpt lat="42.2681380" lon="-7.3072350">
        <ele>1594.6</ele>
        <time>2014-10-01T14:34:48Z</time>
      </trkpt>
      <trkpt lat="42.2680870" lon="-7.3072370">
        <ele>1595.0</ele>
        <time>2014-10-01T14:34:50Z</time>
      </trkpt>
      <trkpt lat="42.2680400" lon="-7.3072340">
        <ele>1595.4</ele>
        <time>2014-10-01T14:34:52Z</time>
      </trkpt>
      <trkpt lat="42.2679960" lon="-7.3072320">
        <ele>1595.8</ele>
        <time>2014-10-01T14:34:54Z</time>
      </trkpt>
      <trkpt lat="42.2679430" lon="-7.3072370">
        <ele>1596.2</ele>
        <time>2014-10-01T14:34:56Z</time>
      </trkpt>
      <trkpt lat="42.2679160" lon="-7.3072420">
        <ele>1596.4</ele>
        <time>2014-10-01T14:34:57Z</time>
      </trkpt>
      <trkpt lat="42.2678880" lon="-7.3072470">
        <ele>1596.7</ele>
        <time>2014-10-01T14:34:58Z</time>
      </trkpt>
      <trkpt lat="42.2678370" lon="-7.3072600">
        <ele>1597.1</ele>
        <time>2014-10-01T14:35:00Z</time>
      </trkpt>
      <trkpt lat="42.2677910" lon="-7.3072660">
        <ele>1597.5</ele>
        <time>2014-10-01T14:35:02Z</time>
      </trkpt>
      <trkpt lat="42.2677460" lon="-7.3072720">
        <ele>1597.8</ele>
        <time>2014-10-01T14:35:04Z</time>
      </trkpt>
      <trkpt lat="42.2677030" lon="-7.3072800">
        <ele>1598.2</ele>
        <time>2014-10-01T14:35:06Z</time>
      </trkpt>
      <trkpt lat="42.2676610" lon="-7.3072880">
        <ele>1598.6</ele>
        <time>2014-10-01T14:35:08Z</time>
      </trkpt>
      <trkpt lat="42.2676170" lon="-7.3073000">
        <ele>1598.9</ele>
        <time>2014-10-01T14:35:10Z</time>
      </trkpt>
      <trkpt lat="42.2675730" lon="-7.3073160">
        <ele>1599.3</ele>
        <time>2014-10-01T14:35:12Z</time>
      </trkpt>
      <trkpt lat="42.2675280" lon="-7.3073350">
        <ele>1599.7</ele>
        <time>2014-10-01T14:35:14Z</time>
      </trkpt>
      <trkpt lat="42.2674790" lon="-7.3073560">
        <ele>1600.1</ele>
        <time>2014-10-01T14:35:16Z</time>
      </trkpt>
      <trkpt lat="42.2674330" lon="-7.3073800">
        <ele>1600.5</ele>
        <time>2014-10-01T14:35:18Z</time>
      </trkpt>
      <trkpt lat="42.2673900" lon="-7.3074090">
        <ele>1600.9</ele>
        <time>2014-10-01T14:35:20Z</time>
      </trkpt>
      <trkpt lat="42.2673430" lon="-7.3074400">
        <ele>1601.3</ele>
        <time>2014-10-01T14:35:22Z</time>
      </trkpt>
      <trkpt lat="42.2672960" lon="-7.3074680">
        <ele>1601.8</ele>
        <time>2014-10-01T14:35:24Z</time>
      </trkpt>
      <trkpt lat="42.2672500" lon="-7.3074980">
        <ele>1602.2</ele>
        <time>2014-10-01T14:35:26Z</time>
      </trkpt>
      <trkpt lat="42.2672120" lon="-7.3075270">
        <ele>1602.5</ele>
        <time>2014-10-01T14:35:28Z</time>
      </trkpt>
      <trkpt lat="42.2671710" lon="-7.3075520">
        <ele>1602.9</ele>
        <time>2014-10-01T14:35:30Z</time>
      </trkpt>
      <trkpt lat="42.2671260" lon="-7.3075700">
        <ele>1603.3</ele>
        <time>2014-10-01T14:35:32Z</time>
      </trkpt>
      <trkpt lat="42.2670830" lon="-7.3075730">
        <ele>1603.7</ele>
        <time>2014-10-01T14:35:34Z</time>
      </trkpt>
      <trkpt lat="42.2670370" lon="-7.3075520">
        <ele>1604.1</ele>
        <time>2014-10-01T14:35:36Z</time>
      </trkpt>
      <trkpt lat="42.2669990" lon="-7.3075010">
        <ele>1604.5</ele>
        <time>2014-10-01T14:35:38Z</time>
      </trkpt>
      <trkpt lat="42.2669930" lon="-7.3074600">
        <ele>1604.8</ele>
        <time>2014-10-01T14:35:39Z</time>
      </trkpt>
      <trkpt lat="42.2669920" lon="-7.3074170">
        <ele>1605.0</ele>
        <time>2014-10-01T14:35:40Z</time>
      </trkpt>
      <trkpt lat="42.2670030" lon="-7.3073560">
        <ele>1605.4</ele>
        <time>2014-10-01T14:35:42Z</time>
      </trkpt>
      <trkpt lat="42.2670280" lon="-7.3072970">
        <ele>1605.8</ele>
        <time>2014-10-01T14:35:44Z</time>
      </trkpt>
      <trkpt lat="42.2670570" lon="-7.3072400">
        <ele>1606.2</ele>
        <time>2014-10-01T14:35:46Z</time>
      </trkpt>
      <trkpt lat="42.2670870" lon="-7.3071810">
        <ele>1606.7</ele>
        <time>2014-10-01T14:35:48Z</time>
      </trkpt>
      <trkpt lat="42.2671200" lon="-7.3071310">
        <ele>1607.1</ele>
        <time>2014-10-01T14:35:50Z</time>
      </trkpt>
      <trkpt lat="42.2671610" lon="-7.3070890">
        <ele>1607.5</ele>
        <time>2014-10-01T14:35:52Z</time>
      </trkpt>
      <trkpt lat="42.2672030" lon="-7.3070480">
        <ele>1607.9</ele>
        <time>2014-10-01T14:35:54Z</time>
      </trkpt>
      <trkpt lat="42.2672430" lon="-7.3070040">
        <ele>1608.4</ele>
        <time>2014-10-01T14:35:56Z</time>
      </trkpt>
      <trkpt lat="42.2672820" lon="-7.3069580">
        <ele>1608.8</ele>
        <time>2014-10-01T14:35:58Z</time>
      </trkpt>
      <trkpt lat="42.2673200" lon="-7.3069200">
        <ele>1609.2</ele>
        <time>2014-10-01T14:36:00Z</time>
      </trkpt>
      <trkpt lat="42.2673640" lon="-7.3068830">
        <ele>1609.6</ele>
        <time>2014-10-01T14:36:02Z</time>
      </trkpt>
      <trkpt lat="42.2673860" lon="-7.3068630">
        <ele>1609.8</ele>
        <time>2014-10-01T14:36:03Z</time>
      </trkpt>
      <trkpt lat="42.2674240" lon="-7.3068230">
        <ele>1610.2</ele>
        <time>2014-10-01T14:36:05Z</time>
      </trkpt>
      <trkpt lat="42.2674600" lon="-7.3067810">
        <ele>1610.6</ele>
        <time>2014-10-01T14:36:07Z</time>
      </trkpt>
      <trkpt lat="42.2674910" lon="-7.3067380">
        <ele>1611.0</ele>
        <time>2014-10-01T14:36:09Z</time>
      </trkpt>
      <trkpt lat="42.2675240" lon="-7.3066900">
        <ele>1611.4</ele>
        <time>2014-10-01T14:36:11Z</time>
      </trkpt>
      <trkpt lat="42.2675560" lon="-7.3066450">
        <ele>1611.7</ele>
        <time>2014-10-01T14:36:13Z</time>
      </trkpt>
      <trkpt lat="42.2675910" lon="-7.3066010">
        <ele>1612.1</ele>
        <time>2014-10-01T14:36:15Z</time>
      </trkpt>
      <trkpt lat="42.2676230" lon="-7.3065580">
        <ele>1612.6</ele>
        <time>2014-10-01T14:36:17Z</time>
      </trkpt>
      <trkpt lat="42.2676540" lon="-7.3065160">
        <ele>1613.0</ele>
        <time>2014-10-01T14:36:19Z</time>
      </trkpt>
      <trkpt lat="42.2676910" lon="-7.3064720">
        <ele>1613.5</ele>
        <time>2014-10-01T14:36:21Z</time>
      </trkpt>
      <trkpt lat="42.2677260" lon="-7.3064300">
        <ele>1614.0</ele>
        <time>2014-10-01T14:36:23Z</time>
      </trkpt>
      <trkpt lat="42.2677600" lon="-7.3063860">
        <ele>1614.5</ele>
        <time>2014-10-01T14:36:25Z</time>
      </trkpt>
      <trkpt lat="42.2677950" lon="-7.3063420">
        <ele>1614.9</ele>
        <time>2014-10-01T14:36:27Z</time>
      </trkpt>
      <trkpt lat="42.2678300" lon="-7.3063020">
        <ele>1615.4</ele>
        <time>2014-10-01T14:36:29Z</time>
      </trkpt>
      <trkpt lat="42.2678650" lon="-7.3062560">
        <ele>1615.9</ele>
        <time>2014-10-01T14:36:31Z</time>
      </trkpt>
      <trkpt lat="42.2678990" lon="-7.3062120">
        <ele>1616.4</ele>
        <time>2014-10-01T14:36:33Z</time>
      </trkpt>
      <trkpt lat="42.2679340" lon="-7.3061710">
        <ele>1616.8</ele>
        <time>2014-10-01T14:36:35Z</time>
      </trkpt>
      <trkpt lat="42.2679690" lon="-7.3061410">
        <ele>1617.2</ele>
        <time>2014-10-01T14:36:37Z</time>
      </trkpt>
      <trkpt lat="42.2680100" lon="-7.3061090">
        <ele>1617.7</ele>
        <time>2014-10-01T14:36:39Z</time>
      </trkpt>
      <trkpt lat="42.2680500" lon="-7.3060820">
        <ele>1618.2</ele>
        <time>2014-10-01T14:36:41Z</time>
      </trkpt>
      <trkpt lat="42.2680950" lon="-7.3060490">
        <ele>1618.7</ele>
        <time>2014-10-01T14:36:43Z</time>
      </trkpt>
      <trkpt lat="42.2681190" lon="-7.3060290">
        <ele>1618.9</ele>
        <time>2014-10-01T14:36:44Z</time>
      </trkpt>
      <trkpt lat="42.2681570" lon="-7.3059960">
        <ele>1619.4</ele>
        <time>2014-10-01T14:36:46Z</time>
      </trkpt>
      <trkpt lat="42.2681940" lon="-7.3059620">
        <ele>1619.8</ele>
        <time>2014-10-01T14:36:48Z</time>
      </trkpt>
      <trkpt lat="42.2682350" lon="-7.3059270">
        <ele>1620.3</ele>
        <time>2014-10-01T14:36:50Z</time>
      </trkpt>
      <trkpt lat="42.2682700" lon="-7.3058790">
        <ele>1620.8</ele>
        <time>2014-10-01T14:36:52Z</time>
      </trkpt>
      <trkpt lat="42.2682900" lon="-7.3058230">
        <ele>1621.3</ele>
        <time>2014-10-01T14:36:54Z</time>
      </trkpt>
      <trkpt lat="42.2682930" lon="-7.3057640">
        <ele>1621.7</ele>
        <time>2014-10-01T14:36:56Z</time>
      </trkpt>
      <trkpt lat="42.2682830" lon="-7.3057160">
        <ele>1622.1</ele>
        <time>2014-10-01T14:36:58Z</time>
      </trkpt>
      <trkpt lat="42.2682620" lon="-7.3056720">
        <ele>1622.5</ele>
        <time>2014-10-01T14:37:00Z</time>
      </trkpt>
      <trkpt lat="42.2682320" lon="-7.3056370">
        <ele>1622.9</ele>
        <time>2014-10-01T14:37:02Z</time>
      </trkpt>
      <trkpt lat="42.2682050" lon="-7.3056140">
        <ele>1623.2</ele>
        <time>2014-10-01T14:37:04Z</time>
      </trkpt>
      <trkpt lat="42.2681720" lon="-7.3055990">
        <ele>1623.5</ele>
        <time>2014-10-01T14:37:06Z</time>
      </trkpt>
      <trkpt lat="42.2681320" lon="-7.3055960">
        <ele>1623.9</ele>
        <time>2014-10-01T14:37:08Z</time>
      </trkpt>
      <trkpt lat="42.2680910" lon="-7.3055980">
        <ele>1624.4</ele>
        <time>2014-10-01T14:37:10Z</time>
      </trkpt>
      <trkpt lat="42.2680470" lon="-7.3056050">
        <ele>1624.8</ele>
        <time>2014-10-01T14:37:12Z</time>
      </trkpt>
      <trkpt lat="42.2680020" lon="-7.3056110">
        <ele>1625.2</ele>
        <time>2014-10-01T14:37:14Z</time>
      </trkpt>
      <trkpt lat="42.2679590" lon="-7.3056220">
        <ele>1625.7</ele>
        <time>2014-10-01T14:37:16Z</time>
      </trkpt>
      <trkpt lat="42.2679170" lon="-7.3056390">
        <ele>1626.1</ele>
        <time>2014-10-01T14:37:18Z</time>
      </trkpt>
      <trkpt lat="42.2678750" lon="-7.3056560">
        <ele>1626.6</ele>
        <time>2014-10-01T14:37:20Z</time>
      </trkpt>
      <trkpt lat="42.2678340" lon="-7.3056640">
        <ele>1627.0</ele>
        <time>2014-10-01T14:37:22Z</time>
      </trkpt>
      <trkpt lat="42.2677950" lon="-7.3056700">
        <ele>1627.4</ele>
        <time>2014-10-01T14:37:24Z</time>
      </trkpt>
      <trkpt lat="42.2677570" lon="-7.3056740">
        <ele>1627.7</ele>
        <time>2014-10-01T14:37:26Z</time>
      </trkpt>
      <trkpt lat="42.2677170" lon="-7.3056750">
        <ele>1628.1</ele>
        <time>2014-10-01T14:37:28Z</time>
      </trkpt>
      <trkpt lat="42.2676760" lon="-7.3056770">
        <ele>1628.6</ele>
        <time>2014-10-01T14:37:30Z</time>
      </trkpt>
      <trkpt lat="42.2676340" lon="-7.3056830">
        <ele>1629.0</ele>
        <time>2014-10-01T14:37:32Z</time>
      </trkpt>
      <trkpt lat="42.2675940" lon="-7.3056910">
        <ele>1629.4</ele>
        <time>2014-10-01T14:37:34Z</time>
      </trkpt>
      <trkpt lat="42.2675520" lon="-7.3056990">
        <ele>1629.8</ele>
        <time>2014-10-01T14:37:36Z</time>
      </trkpt>
      <trkpt lat="42.2675110" lon="-7.3057040">
        <ele>1630.2</ele>
        <time>2014-10-01T14:37:38Z</time>
      </trkpt>
      <trkpt lat="42.2674700" lon="-7.3057130">
        <ele>1630.6</ele>
        <time>2014-10-01T14:37:40Z</time>
      </trkpt>
      <trkpt lat="42.2674300" lon="-7.3057230">
        <ele>1631.0</ele>
        <time>2014-10-01T14:37:42Z</time>
      </trkpt>
      <trkpt lat="42.2673880" lon="-7.3057390">
        <ele>1631.5</ele>
        <time>2014-10-01T14:37:44Z</time>
      </trkpt>
      <trkpt lat="42.2673490" lon="-7.3057460">
        <ele>1631.9</ele>
        <time>2014-10-01T14:37:46Z</time>
      </trkpt>
      <trkpt lat="42.2673050" lon="-7.3057530">
        <ele>1632.3</ele>
        <time>2014-10-01T14:37:48Z</time>
      </trkpt>
      <trkpt lat="42.2672590" lon="-7.3057680">
        <ele>1632.8</ele>
        <time>2014-10-01T14:37:50Z</time>
      </trkpt>
      <trkpt lat="42.2672140" lon="-7.3057900">
        <ele>1633.3</ele>
        <time>2014-10-01T14:37:52Z</time>
      </trkpt>
      <trkpt lat="42.2671680" lon="-7.3058070">
        <ele>1633.7</ele>
        <time>2014-10-01T14:37:54Z</time>
      </trkpt>
      <trkpt lat="42.2671220" lon="-7.3058260">
        <ele>1634.2</ele>
        <time>2014-10-01T14:37:56Z</time>
      </trkpt>
      <trkpt lat="42.2670800" lon="-7.3058430">
        <ele>1634.7</ele>
        <time>2014-10-01T14:37:58Z</time>
      </trkpt>
      <trkpt lat="42.2670400" lon="-7.3058620">
        <ele>1635.1</ele>
        <time>2014-10-01T14:38:00Z</time>
      </trkpt>
      <trkpt lat="42.2669980" lon="-7.3058840">
        <ele>1635.5</ele>
        <time>2014-10-01T14:38:02Z</time>
      </trkpt>
      <trkpt lat="42.2669490" lon="-7.3059050">
        <ele>1636.0</ele>
        <time>2014-10-01T14:38:04Z</time>
      </trkpt>
      <trkpt lat="42.2669040" lon="-7.3059210">
        <ele>1636.5</ele>
        <time>2014-10-01T14:38:06Z</time>
      </trkpt>
      <trkpt lat="42.2668580" lon="-7.3059340">
        <ele>1637.0</ele>
        <time>2014-10-01T14:38:08Z</time>
      </trkpt>
      <trkpt lat="42.2668140" lon="-7.3059410">
        <ele>1637.4</ele>
        <time>2014-10-01T14:38:10Z</time>
      </trkpt>
      <trkpt lat="42.2667710" lon="-7.3059310">
        <ele>1637.9</ele>
        <time>2014-10-01T14:38:12Z</time>
      </trkpt>
      <trkpt lat="42.2667290" lon="-7.3059060">
        <ele>1638.3</ele>
        <time>2014-10-01T14:38:14Z</time>
      </trkpt>
      <trkpt lat="42.2666990" lon="-7.3058750">
        <ele>1638.7</ele>
        <time>2014-10-01T14:38:16Z</time>
      </trkpt>
      <trkpt lat="42.2666840" lon="-7.3058130">
        <ele>1639.2</ele>
        <time>2014-10-01T14:38:18Z</time>
      </trkpt>
      <trkpt lat="42.2666870" lon="-7.3057500">
        <ele>1639.6</ele>
        <time>2014-10-01T14:38:20Z</time>
      </trkpt>
      <trkpt lat="42.2667000" lon="-7.3056990">
        <ele>1640.0</ele>
        <time>2014-10-01T14:38:22Z</time>
      </trkpt>
      <trkpt lat="42.2667230" lon="-7.3056520">
        <ele>1640.5</ele>
        <time>2014-10-01T14:38:24Z</time>
      </trkpt>
      <trkpt lat="42.2667530" lon="-7.3056020">
        <ele>1640.9</ele>
        <time>2014-10-01T14:38:26Z</time>
      </trkpt>
      <trkpt lat="42.2667830" lon="-7.3055620">
        <ele>1641.4</ele>
        <time>2014-10-01T14:38:28Z</time>
      </trkpt>
      <trkpt lat="42.2668150" lon="-7.3055200">
        <ele>1641.8</ele>
        <time>2014-10-01T14:38:30Z</time>
      </trkpt>
      <trkpt lat="42.2668460" lon="-7.3054800">
        <ele>1642.2</ele>
        <time>2014-10-01T14:38:32Z</time>
      </trkpt>
      <trkpt lat="42.2668720" lon="-7.3054370">
        <ele>1642.6</ele>
        <time>2014-10-01T14:38:34Z</time>
      </trkpt>
      <trkpt lat="42.2668980" lon="-7.3053920">
        <ele>1643.1</ele>
        <time>2014-10-01T14:38:36Z</time>
      </trkpt>
      <trkpt lat="42.2669220" lon="-7.3053440">
        <ele>1643.5</ele>
        <time>2014-10-01T14:38:38Z</time>
      </trkpt>
      <trkpt lat="42.2669490" lon="-7.3052950">
        <ele>1643.9</ele>
        <time>2014-10-01T14:38:40Z</time>
      </trkpt>
      <trkpt lat="42.2669760" lon="-7.3052500">
        <ele>1644.4</ele>
        <time>2014-10-01T14:38:42Z</time>
      </trkpt>
      <trkpt lat="42.2670040" lon="-7.3052010">
        <ele>1644.8</ele>
        <time>2014-10-01T14:38:44Z</time>
      </trkpt>
      <trkpt lat="42.2670320" lon="-7.3051590">
        <ele>1645.2</ele>
        <time>2014-10-01T14:38:46Z</time>
      </trkpt>
      <trkpt lat="42.2670650" lon="-7.3051160">
        <ele>1645.7</ele>
        <time>2014-10-01T14:38:48Z</time>
      </trkpt>
      <trkpt lat="42.2670960" lon="-7.3050710">
        <ele>1646.2</ele>
        <time>2014-10-01T14:38:50Z</time>
      </trkpt>
      <trkpt lat="42.2671240" lon="-7.3050280">
        <ele>1646.6</ele>
        <time>2014-10-01T14:38:52Z</time>
      </trkpt>
      <trkpt lat="42.2671500" lon="-7.3049840">
        <ele>1647.0</ele>
        <time>2014-10-01T14:38:54Z</time>
      </trkpt>
      <trkpt lat="42.2671770" lon="-7.3049330">
        <ele>1647.5</ele>
        <time>2014-10-01T14:38:56Z</time>
      </trkpt>
      <trkpt lat="42.2672010" lon="-7.3048800">
        <ele>1647.9</ele>
        <time>2014-10-01T14:38:58Z</time>
      </trkpt>
      <trkpt lat="42.2672300" lon="-7.3048300">
        <ele>1648.4</ele>
        <time>2014-10-01T14:39:00Z</time>
      </trkpt>
      <trkpt lat="42.2672620" lon="-7.3047810">
        <ele>1648.9</ele>
        <time>2014-10-01T14:39:02Z</time>
      </trkpt>
      <trkpt lat="42.2672810" lon="-7.3047400">
        <ele>1649.2</ele>
        <time>2014-10-01T14:39:04Z</time>
      </trkpt>
      <trkpt lat="42.2673050" lon="-7.3046880">
        <ele>1649.7</ele>
        <time>2014-10-01T14:39:06Z</time>
      </trkpt>
      <trkpt lat="42.2673280" lon="-7.3046380">
        <ele>1650.1</ele>
        <time>2014-10-01T14:39:08Z</time>
      </trkpt>
      <trkpt lat="42.2673520" lon="-7.3045860">
        <ele>1650.6</ele>
        <time>2014-10-01T14:39:10Z</time>
      </trkpt>
      <trkpt lat="42.2673800" lon="-7.3045330">
        <ele>1651.1</ele>
        <time>2014-10-01T14:39:12Z</time>
      </trkpt>
      <trkpt lat="42.2674040" lon="-7.3044860">
        <ele>1651.5</ele>
        <time>2014-10-01T14:39:14Z</time>
      </trkpt>
      <trkpt lat="42.2674250" lon="-7.3044380">
        <ele>1651.9</ele>
        <time>2014-10-01T14:39:16Z</time>
      </trkpt>
      <trkpt lat="42.2674430" lon="-7.3043900">
        <ele>1652.3</ele>
        <time>2014-10-01T14:39:18Z</time>
      </trkpt>
      <trkpt lat="42.2674600" lon="-7.3043390">
        <ele>1652.7</ele>
        <time>2014-10-01T14:39:20Z</time>
      </trkpt>
      <trkpt lat="42.2674760" lon="-7.3042840">
        <ele>1653.1</ele>
        <time>2014-10-01T14:39:22Z</time>
      </trkpt>
      <trkpt lat="42.2674910" lon="-7.3042310">
        <ele>1653.6</ele>
        <time>2014-10-01T14:39:24Z</time>
      </trkpt>
      <trkpt lat="42.2675010" lon="-7.3041770">
        <ele>1654.0</ele>
        <time>2014-10-01T14:39:26Z</time>
      </trkpt>
      <trkpt lat="42.2675110" lon="-7.3041220">
        <ele>1654.4</ele>
        <time>2014-10-01T14:39:28Z</time>
      </trkpt>
      <trkpt lat="42.2675120" lon="-7.3040640">
        <ele>1654.8</ele>
        <time>2014-10-01T14:39:30Z</time>
      </trkpt>
      <trkpt lat="42.2675090" lon="-7.3040030">
        <ele>1655.3</ele>
        <time>2014-10-01T14:39:32Z</time>
      </trkpt>
      <trkpt lat="42.2675040" lon="-7.3039440">
        <ele>1655.7</ele>
        <time>2014-10-01T14:39:34Z</time>
      </trkpt>
      <trkpt lat="42.2674960" lon="-7.3038890">
        <ele>1656.1</ele>
        <time>2014-10-01T14:39:36Z</time>
      </trkpt>
      <trkpt lat="42.2674860" lon="-7.3038220">
        <ele>1656.6</ele>
        <time>2014-10-01T14:39:38Z</time>
      </trkpt>
      <trkpt lat="42.2674790" lon="-7.3037860">
        <ele>1656.9</ele>
        <time>2014-10-01T14:39:39Z</time>
      </trkpt>
      <trkpt lat="42.2674550" lon="-7.3037320">
        <ele>1657.4</ele>
        <time>2014-10-01T14:39:41Z</time>
      </trkpt>
      <trkpt lat="42.2674190" lon="-7.3036870">
        <ele>1657.9</ele>
        <time>2014-10-01T14:39:43Z</time>
      </trkpt>
      <trkpt lat="42.2673710" lon="-7.3036660">
        <ele>1658.4</ele>
        <time>2014-10-01T14:39:45Z</time>
      </trkpt>
      <trkpt lat="42.2673240" lon="-7.3036680">
        <ele>1658.8</ele>
        <time>2014-10-01T14:39:47Z</time>
      </trkpt>
      <trkpt lat="42.2672820" lon="-7.3036770">
        <ele>1659.3</ele>
        <time>2014-10-01T14:39:49Z</time>
      </trkpt>
      <trkpt lat="42.2672430" lon="-7.3036920">
        <ele>1659.7</ele>
        <time>2014-10-01T14:39:51Z</time>
      </trkpt>
      <trkpt lat="42.2672020" lon="-7.3037230">
        <ele>1660.1</ele>
        <time>2014-10-01T14:39:53Z</time>
      </trkpt>
      <trkpt lat="42.2671600" lon="-7.3037540">
        <ele>1660.6</ele>
        <time>2014-10-01T14:39:55Z</time>
      </trkpt>
      <trkpt lat="42.2671220" lon="-7.3037790">
        <ele>1661.0</ele>
        <time>2014-10-01T14:39:57Z</time>
      </trkpt>
      <trkpt lat="42.2670790" lon="-7.3038030">
        <ele>1661.5</ele>
        <time>2014-10-01T14:39:59Z</time>
      </trkpt>
      <trkpt lat="42.2670390" lon="-7.3038350">
        <ele>1662.0</ele>
        <time>2014-10-01T14:40:01Z</time>
      </trkpt>
      <trkpt lat="42.2669950" lon="-7.3038650">
        <ele>1662.4</ele>
        <time>2014-10-01T14:40:03Z</time>
      </trkpt>
      <trkpt lat="42.2669510" lon="-7.3038920">
        <ele>1662.9</ele>
        <time>2014-10-01T14:40:05Z</time>
      </trkpt>
      <trkpt lat="42.2669090" lon="-7.3039220">
        <ele>1663.4</ele>
        <time>2014-10-01T14:40:07Z</time>
      </trkpt>
      <trkpt lat="42.2668640" lon="-7.3039490">
        <ele>1663.9</ele>
        <time>2014-10-01T14:40:09Z</time>
      </trkpt>
      <trkpt lat="42.2668170" lon="-7.3039720">
        <ele>1664.4</ele>
        <time>2014-10-01T14:40:11Z</time>
      </trkpt>
      <trkpt lat="42.2667700" lon="-7.3039940">
        <ele>1664.9</ele>
        <time>2014-10-01T14:40:13Z</time>
      </trkpt>
      <trkpt lat="42.2667200" lon="-7.3040130">
        <ele>1665.4</ele>
        <time>2014-10-01T14:40:15Z</time>
      </trkpt>
      <trkpt lat="42.2666700" lon="-7.3040340">
        <ele>1665.9</ele>
        <time>2014-10-01T14:40:17Z</time>
      </trkpt>
      <trkpt lat="42.2666430" lon="-7.3040410">
        <ele>1666.2</ele>
        <time>2014-10-01T14:40:18Z</time>
      </trkpt>
      <trkpt lat="42.2665920" lon="-7.3040550">
        <ele>1666.7</ele>
        <time>2014-10-01T14:40:20Z</time>
      </trkpt>
      <trkpt lat="42.2665430" lon="-7.3040650">
        <ele>1667.2</ele>
        <time>2014-10-01T14:40:22Z</time>
      </trkpt>
      <trkpt lat="42.2664910" lon="-7.3040800">
        <ele>1667.8</ele>
        <time>2014-10-01T14:40:24Z</time>
      </trkpt>
      <trkpt lat="42.2664450" lon="-7.3040870">
        <ele>1668.2</ele>
        <time>2014-10-01T14:40:26Z</time>
      </trkpt>
      <trkpt lat="42.2663920" lon="-7.3040900">
        <ele>1668.7</ele>
        <time>2014-10-01T14:40:28Z</time>
      </trkpt>
      <trkpt lat="42.2663650" lon="-7.3040920">
        <ele>1669.0</ele>
        <time>2014-10-01T14:40:29Z</time>
      </trkpt>
      <trkpt lat="42.2663380" lon="-7.3040970">
        <ele>1669.3</ele>
        <time>2014-10-01T14:40:30Z</time>
      </trkpt>
      <trkpt lat="42.2662930" lon="-7.3041000">
        <ele>1669.7</ele>
        <time>2014-10-01T14:40:32Z</time>
      </trkpt>
      <trkpt lat="42.2662480" lon="-7.3041030">
        <ele>1670.2</ele>
        <time>2014-10-01T14:40:34Z</time>
      </trkpt>
      <trkpt lat="42.2662010" lon="-7.3041090">
        <ele>1670.7</ele>
        <time>2014-10-01T14:40:36Z</time>
      </trkpt>
      <trkpt lat="42.2661500" lon="-7.3041140">
        <ele>1671.2</ele>
        <time>2014-10-01T14:40:38Z</time>
      </trkpt>
      <trkpt lat="42.2661000" lon="-7.3041140">
        <ele>1671.7</ele>
        <time>2014-10-01T14:40:40Z</time>
      </trkpt>
      <trkpt lat="42.2660620" lon="-7.3041170">
        <ele>1672.1</ele>
        <time>2014-10-01T14:40:42Z</time>
      </trkpt>
      <trkpt lat="42.2660210" lon="-7.3041210">
        <ele>1672.5</ele>
        <time>2014-10-01T14:40:44Z</time>
      </trkpt>
      <trkpt lat="42.2659720" lon="-7.3041300">
        <ele>1673.0</ele>
        <time>2014-10-01T14:40:46Z</time>
      </trkpt>
      <trkpt lat="42.2659290" lon="-7.3041350">
        <ele>1673.4</ele>
        <time>2014-10-01T14:40:48Z</time>
      </trkpt>
      <trkpt lat="42.2658790" lon="-7.3041330">
        <ele>1673.9</ele>
        <time>2014-10-01T14:40:50Z</time>
      </trkpt>
      <trkpt lat="42.2658360" lon="-7.3041330">
        <ele>1674.3</ele>
        <time>2014-10-01T14:40:52Z</time>
      </trkpt>
      <trkpt lat="42.2657880" lon="-7.3041360">
        <ele>1674.8</ele>
        <time>2014-10-01T14:40:54Z</time>
      </trkpt>
      <trkpt lat="42.2657380" lon="-7.3041370">
        <ele>1675.3</ele>
        <time>2014-10-01T14:40:56Z</time>
      </trkpt>
      <trkpt lat="42.2656890" lon="-7.3041370">
        <ele>1675.8</ele>
        <time>2014-10-01T14:40:58Z</time>
      </trkpt>
      <trkpt lat="42.2656420" lon="-7.3041380">
        <ele>1676.3</ele>
        <time>2014-10-01T14:41:00Z</time>
      </trkpt>
      <trkpt lat="42.2655930" lon="-7.3041360">
        <ele>1676.7</ele>
        <time>2014-10-01T14:41:02Z</time>
      </trkpt>
      <trkpt lat="42.2655440" lon="-7.3041300">
        <ele>1677.2</ele>
        <time>2014-10-01T14:41:04Z</time>
      </trkpt>
      <trkpt lat="42.2655000" lon="-7.3041310">
        <ele>1677.7</ele>
        <time>2014-10-01T14:41:06Z</time>
      </trkpt>
      <trkpt lat="42.2654580" lon="-7.3041260">
        <ele>1678.1</ele>
        <time>2014-10-01T14:41:08Z</time>
      </trkpt>
      <trkpt lat="42.2654140" lon="-7.3041230">
        <ele>1678.5</ele>
        <time>2014-10-01T14:41:10Z</time>
      </trkpt>
      <trkpt lat="42.2653870" lon="-7.3041220">
        <ele>1678.8</ele>
        <time>2014-10-01T14:41:11Z</time>
      </trkpt>
      <trkpt lat="42.2653430" lon="-7.3041210">
        <ele>1679.2</ele>
        <time>2014-10-01T14:41:13Z</time>
      </trkpt>
      <trkpt lat="42.2653020" lon="-7.3041230">
        <ele>1679.7</ele>
        <time>2014-10-01T14:41:15Z</time>
      </trkpt>
      <trkpt lat="42.2652570" lon="-7.3041260">
        <ele>1680.1</ele>
        <time>2014-10-01T14:41:17Z</time>
      </trkpt>
      <trkpt lat="42.2652140" lon="-7.3041290">
        <ele>1680.5</ele>
        <time>2014-10-01T14:41:19Z</time>
      </trkpt>
      <trkpt lat="42.2651710" lon="-7.3041330">
        <ele>1681.0</ele>
        <time>2014-10-01T14:41:21Z</time>
      </trkpt>
      <trkpt lat="42.2651250" lon="-7.3041350">
        <ele>1681.4</ele>
        <time>2014-10-01T14:41:23Z</time>
      </trkpt>
      <trkpt lat="42.2650820" lon="-7.3041390">
        <ele>1681.9</ele>
        <time>2014-10-01T14:41:25Z</time>
      </trkpt>
      <trkpt lat="42.2650450" lon="-7.3041400">
        <ele>1682.2</ele>
        <time>2014-10-01T14:41:27Z</time>
      </trkpt>
      <trkpt lat="42.2650080" lon="-7.3041390">
        <ele>1682.6</ele>
        <time>2014-10-01T14:41:29Z</time>
      </trkpt>
      <trkpt lat="42.2649660" lon="-7.3041430">
        <ele>1683.0</ele>
        <time>2014-10-01T14:41:31Z</time>
      </trkpt>
      <trkpt lat="42.2649190" lon="-7.3041500">
        <ele>1683.5</ele>
        <time>2014-10-01T14:41:33Z</time>
      </trkpt>
      <trkpt lat="42.2648690" lon="-7.3041620">
        <ele>1684.0</ele>
        <time>2014-10-01T14:41:35Z</time>
      </trkpt>
      <trkpt lat="42.2648230" lon="-7.3041710">
        <ele>1684.5</ele>
        <time>2014-10-01T14:41:37Z</time>
      </trkpt>
      <trkpt lat="42.2647770" lon="-7.3041750">
        <ele>1684.9</ele>
        <time>2014-10-01T14:41:39Z</time>
      </trkpt>
      <trkpt lat="42.2647310" lon="-7.3041830">
        <ele>1685.4</ele>
        <time>2014-10-01T14:41:41Z</time>
      </trkpt>
      <trkpt lat="42.2646850" lon="-7.3041930">
        <ele>1685.9</ele>
        <time>2014-10-01T14:41:43Z</time>
      </trkpt>
      <trkpt lat="42.2646360" lon="-7.3042000">
        <ele>1686.3</ele>
        <time>2014-10-01T14:41:45Z</time>
      </trkpt>
      <trkpt lat="42.2645900" lon="-7.3042040">
        <ele>1686.8</ele>
        <time>2014-10-01T14:41:47Z</time>
      </trkpt>
      <trkpt lat="42.2645440" lon="-7.3042080">
        <ele>1687.3</ele>
        <time>2014-10-01T14:41:49Z</time>
      </trkpt>
      <trkpt lat="42.2644950" lon="-7.3042140">
        <ele>1687.8</ele>
        <time>2014-10-01T14:41:51Z</time>
      </trkpt>
      <trkpt lat="42.2644470" lon="-7.3042190">
        <ele>1688.2</ele>
        <time>2014-10-01T14:41:53Z</time>
      </trkpt>
      <trkpt lat="42.2643960" lon="-7.3042200">
        <ele>1688.7</ele>
        <time>2014-10-01T14:41:55Z</time>
      </trkpt>
      <trkpt lat="42.2643480" lon="-7.3042150">
        <ele>1689.2</ele>
        <time>2014-10-01T14:41:57Z</time>
      </trkpt>
      <trkpt lat="42.2643020" lon="-7.3041910">
        <ele>1689.7</ele>
        <time>2014-10-01T14:41:59Z</time>
      </trkpt>
      <trkpt lat="42.2642700" lon="-7.3041490">
        <ele>1690.2</ele>
        <time>2014-10-01T14:42:01Z</time>
      </trkpt>
      <trkpt lat="42.2642490" lon="-7.3040900">
        <ele>1690.6</ele>
        <time>2014-10-01T14:42:03Z</time>
      </trkpt>
      <trkpt lat="42.2642420" lon="-7.3040320">
        <ele>1691.1</ele>
        <time>2014-10-01T14:42:05Z</time>
      </trkpt>
      <trkpt lat="42.2642420" lon="-7.3039790">
        <ele>1691.5</ele>
        <time>2014-10-01T14:42:07Z</time>
      </trkpt>
      <trkpt lat="42.2642500" lon="-7.3039340">
        <ele>1691.8</ele>
        <time>2014-10-01T14:42:09Z</time>
      </trkpt>
      <trkpt lat="42.2642590" lon="-7.3038780">
        <ele>1692.2</ele>
        <time>2014-10-01T14:42:11Z</time>
      </trkpt>
      <trkpt lat="42.2642700" lon="-7.3038220">
        <ele>1692.7</ele>
        <time>2014-10-01T14:42:13Z</time>
      </trkpt>
      <trkpt lat="42.2642810" lon="-7.3037610">
        <ele>1693.1</ele>
        <time>2014-10-01T14:42:15Z</time>
      </trkpt>
      <trkpt lat="42.2642970" lon="-7.3036970">
        <ele>1693.6</ele>
        <time>2014-10-01T14:42:17Z</time>
      </trkpt>
      <trkpt lat="42.2643060" lon="-7.3036620">
        <ele>1693.9</ele>
        <time>2014-10-01T14:42:18Z</time>
      </trkpt>
      <trkpt lat="42.2643220" lon="-7.3036070">
        <ele>1694.3</ele>
        <time>2014-10-01T14:42:20Z</time>
      </trkpt>
      <trkpt lat="42.2643320" lon="-7.3035590">
        <ele>1694.7</ele>
        <time>2014-10-01T14:42:22Z</time>
      </trkpt>
      <trkpt lat="42.2643440" lon="-7.3035040">
        <ele>1695.1</ele>
        <time>2014-10-01T14:42:24Z</time>
      </trkpt>
      <trkpt lat="42.2643530" lon="-7.3034470">
        <ele>1695.6</ele>
        <time>2014-10-01T14:42:26Z</time>
      </trkpt>
      <trkpt lat="42.2643570" lon="-7.3033910">
        <ele>1696.0</ele>
        <time>2014-10-01T14:42:28Z</time>
      </trkpt>
      <trkpt lat="42.2643560" lon="-7.3033350">
        <ele>1696.4</ele>
        <time>2014-10-01T14:42:30Z</time>
      </trkpt>
      <trkpt lat="42.2643480" lon="-7.3032780">
        <ele>1696.8</ele>
        <time>2014-10-01T14:42:32Z</time>
      </trkpt>
      <trkpt lat="42.2643370" lon="-7.3032130">
        <ele>1697.3</ele>
        <time>2014-10-01T14:42:34Z</time>
      </trkpt>
      <trkpt lat="42.2643120" lon="-7.3031580">
        <ele>1697.8</ele>
        <time>2014-10-01T14:42:36Z</time>
      </trkpt>
      <trkpt lat="42.2642800" lon="-7.3031120">
        <ele>1698.3</ele>
        <time>2014-10-01T14:42:38Z</time>
      </trkpt>
      <trkpt lat="42.2642390" lon="-7.3030850">
        <ele>1698.7</ele>
        <time>2014-10-01T14:42:40Z</time>
      </trkpt>
      <trkpt lat="42.2641930" lon="-7.3030630">
        <ele>1699.2</ele>
        <time>2014-10-01T14:42:42Z</time>
      </trkpt>
      <trkpt lat="42.2641480" lon="-7.3030520">
        <ele>1699.9</ele>
        <time>2014-10-01T14:42:44Z</time>
      </trkpt>
      <trkpt lat="42.2641010" lon="-7.3030430">
        <ele>1700.2</ele>
        <time>2014-10-01T14:42:46Z</time>
      </trkpt>
      <trkpt lat="42.2640510" lon="-7.3030430">
        <ele>1700.6</ele>
        <time>2014-10-01T14:42:48Z</time>
      </trkpt>
      <trkpt lat="42.2640000" lon="-7.3030400">
        <ele>1700.9</ele>
        <time>2014-10-01T14:42:50Z</time>
      </trkpt>
      <trkpt lat="42.2639730" lon="-7.3030410">
        <ele>1701.0</ele>
        <time>2014-10-01T14:42:51Z</time>
      </trkpt>
      <trkpt lat="42.2639450" lon="-7.3030400">
        <ele>1701.1</ele>
        <time>2014-10-01T14:42:52Z</time>
      </trkpt>
      <trkpt lat="42.2639140" lon="-7.3030330">
        <ele>1701.3</ele>
        <time>2014-10-01T14:42:53Z</time>
      </trkpt>
      <trkpt lat="42.2638850" lon="-7.3030270">
        <ele>1701.3</ele>
        <time>2014-10-01T14:42:54Z</time>
      </trkpt>
      <trkpt lat="42.2638590" lon="-7.3030190">
        <ele>1701.4</ele>
        <time>2014-10-01T14:42:55Z</time>
      </trkpt>
      <trkpt lat="42.2638110" lon="-7.3030050">
        <ele>1701.5</ele>
        <time>2014-10-01T14:42:57Z</time>
      </trkpt>
      <trkpt lat="42.2637650" lon="-7.3029880">
        <ele>1701.7</ele>
        <time>2014-10-01T14:42:59Z</time>
      </trkpt>
      <trkpt lat="42.2637060" lon="-7.3029680">
        <ele>1701.9</ele>
        <time>2014-10-01T14:43:01Z</time>
      </trkpt>
      <trkpt lat="42.2636740" lon="-7.3029720">
        <ele>1702.0</ele>
        <time>2014-10-01T14:43:02Z</time>
      </trkpt>
      <trkpt lat="42.2636430" lon="-7.3029640">
        <ele>1702.2</ele>
        <time>2014-10-01T14:43:04Z</time>
      </trkpt>
      <trkpt lat="42.2635940" lon="-7.3029480">
        <ele>1702.5</ele>
        <time>2014-10-01T14:43:06Z</time>
      </trkpt>
      <trkpt lat="42.2635380" lon="-7.3029280">
        <ele>1702.8</ele>
        <time>2014-10-01T14:43:08Z</time>
      </trkpt>
      <trkpt lat="42.2635070" lon="-7.3029190">
        <ele>1703.0</ele>
        <time>2014-10-01T14:43:09Z</time>
      </trkpt>
      <trkpt lat="42.2634760" lon="-7.3029070">
        <ele>1703.2</ele>
        <time>2014-10-01T14:43:10Z</time>
      </trkpt>
      <trkpt lat="42.2634450" lon="-7.3028950">
        <ele>1703.4</ele>
        <time>2014-10-01T14:43:11Z</time>
      </trkpt>
      <trkpt lat="42.2634200" lon="-7.3028770">
        <ele>1703.6</ele>
        <time>2014-10-01T14:43:12Z</time>
      </trkpt>
      <trkpt lat="42.2633910" lon="-7.3028740">
        <ele>1703.8</ele>
        <time>2014-10-01T14:43:13Z</time>
      </trkpt>
      <trkpt lat="42.2633580" lon="-7.3028620">
        <ele>1704.0</ele>
        <time>2014-10-01T14:43:14Z</time>
      </trkpt>
      <trkpt lat="42.2633280" lon="-7.3028600">
        <ele>1704.2</ele>
        <time>2014-10-01T14:43:15Z</time>
      </trkpt>
      <trkpt lat="42.2632990" lon="-7.3028520">
        <ele>1704.4</ele>
        <time>2014-10-01T14:43:16Z</time>
      </trkpt>
      <trkpt lat="42.2632620" lon="-7.3028220">
        <ele>1704.7</ele>
        <time>2014-10-01T14:43:18Z</time>
      </trkpt>
      <trkpt lat="42.2632350" lon="-7.3028060">
        <ele>1704.9</ele>
        <time>2014-10-01T14:43:19Z</time>
      </trkpt>
      <trkpt lat="42.2631820" lon="-7.3027770">
        <ele>1705.3</ele>
        <time>2014-10-01T14:43:21Z</time>
      </trkpt>
      <trkpt lat="42.2631360" lon="-7.3027440">
        <ele>1705.7</ele>
        <time>2014-10-01T14:43:23Z</time>
      </trkpt>
      <trkpt lat="42.2630910" lon="-7.3027120">
        <ele>1706.2</ele>
        <time>2014-10-01T14:43:25Z</time>
      </trkpt>
      <trkpt lat="42.2630480" lon="-7.3026880">
        <ele>1706.6</ele>
        <time>2014-10-01T14:43:27Z</time>
      </trkpt>
      <trkpt lat="42.2630010" lon="-7.3026620">
        <ele>1707.0</ele>
        <time>2014-10-01T14:43:29Z</time>
      </trkpt>
      <trkpt lat="42.2629550" lon="-7.3026350">
        <ele>1707.5</ele>
        <time>2014-10-01T14:43:31Z</time>
      </trkpt>
      <trkpt lat="42.2629120" lon="-7.3026110">
        <ele>1708.0</ele>
        <time>2014-10-01T14:43:33Z</time>
      </trkpt>
      <trkpt lat="42.2628660" lon="-7.3025860">
        <ele>1708.5</ele>
        <time>2014-10-01T14:43:35Z</time>
      </trkpt>
      <trkpt lat="42.2628220" lon="-7.3025680">
        <ele>1708.9</ele>
        <time>2014-10-01T14:43:37Z</time>
      </trkpt>
      <trkpt lat="42.2627830" lon="-7.3025510">
        <ele>1709.3</ele>
        <time>2014-10-01T14:43:39Z</time>
      </trkpt>
      <trkpt lat="42.2627420" lon="-7.3025300">
        <ele>1709.8</ele>
        <time>2014-10-01T14:43:41Z</time>
      </trkpt>
      <trkpt lat="42.2627000" lon="-7.3025110">
        <ele>1710.2</ele>
        <time>2014-10-01T14:43:43Z</time>
      </trkpt>
      <trkpt lat="42.2626610" lon="-7.3024900">
        <ele>1710.7</ele>
        <time>2014-10-01T14:43:45Z</time>
      </trkpt>
      <trkpt lat="42.2626210" lon="-7.3024730">
        <ele>1711.1</ele>
        <time>2014-10-01T14:43:47Z</time>
      </trkpt>
      <trkpt lat="42.2625780" lon="-7.3024580">
        <ele>1711.6</ele>
        <time>2014-10-01T14:43:49Z</time>
      </trkpt>
      <trkpt lat="42.2625330" lon="-7.3024450">
        <ele>1712.1</ele>
        <time>2014-10-01T14:43:51Z</time>
      </trkpt>
      <trkpt lat="42.2624860" lon="-7.3024320">
        <ele>1712.7</ele>
        <time>2014-10-01T14:43:53Z</time>
      </trkpt>
      <trkpt lat="42.2624430" lon="-7.3024210">
        <ele>1713.2</ele>
        <time>2014-10-01T14:43:55Z</time>
      </trkpt>
      <trkpt lat="42.2624000" lon="-7.3024090">
        <ele>1713.6</ele>
        <time>2014-10-01T14:43:57Z</time>
      </trkpt>
      <trkpt lat="42.2623550" lon="-7.3024010">
        <ele>1714.1</ele>
        <time>2014-10-01T14:43:59Z</time>
      </trkpt>
      <trkpt lat="42.2623100" lon="-7.3024010">
        <ele>1714.5</ele>
        <time>2014-10-01T14:44:01Z</time>
      </trkpt>
      <trkpt lat="42.2622650" lon="-7.3024050">
        <ele>1715.0</ele>
        <time>2014-10-01T14:44:03Z</time>
      </trkpt>
      <trkpt lat="42.2622200" lon="-7.3024120">
        <ele>1715.4</ele>
        <time>2014-10-01T14:44:05Z</time>
      </trkpt>
      <trkpt lat="42.2621750" lon="-7.3024220">
        <ele>1715.9</ele>
        <time>2014-10-01T14:44:07Z</time>
      </trkpt>
      <trkpt lat="42.2621320" lon="-7.3024360">
        <ele>1716.3</ele>
        <time>2014-10-01T14:44:09Z</time>
      </trkpt>
      <trkpt lat="42.2620870" lon="-7.3024450">
        <ele>1716.8</ele>
        <time>2014-10-01T14:44:11Z</time>
      </trkpt>
      <trkpt lat="42.2620440" lon="-7.3024490">
        <ele>1717.2</ele>
        <time>2014-10-01T14:44:13Z</time>
      </trkpt>
      <trkpt lat="42.2619990" lon="-7.3024600">
        <ele>1717.6</ele>
        <time>2014-10-01T14:44:15Z</time>
      </trkpt>
      <trkpt lat="42.2619520" lon="-7.3024670">
        <ele>1718.0</ele>
        <time>2014-10-01T14:44:17Z</time>
      </trkpt>
      <trkpt lat="42.2619060" lon="-7.3024700">
        <ele>1718.4</ele>
        <time>2014-10-01T14:44:19Z</time>
      </trkpt>
      <trkpt lat="42.2618590" lon="-7.3024690">
        <ele>1718.8</ele>
        <time>2014-10-01T14:44:21Z</time>
      </trkpt>
      <trkpt lat="42.2618140" lon="-7.3024680">
        <ele>1719.1</ele>
        <time>2014-10-01T14:44:23Z</time>
      </trkpt>
      <trkpt lat="42.2617700" lon="-7.3024670">
        <ele>1719.5</ele>
        <time>2014-10-01T14:44:25Z</time>
      </trkpt>
      <trkpt lat="42.2617240" lon="-7.3024610">
        <ele>1719.8</ele>
        <time>2014-10-01T14:44:27Z</time>
      </trkpt>
      <trkpt lat="42.2616750" lon="-7.3024570">
        <ele>1720.3</ele>
        <time>2014-10-01T14:44:29Z</time>
      </trkpt>
      <trkpt lat="42.2616290" lon="-7.3024520">
        <ele>1720.7</ele>
        <time>2014-10-01T14:44:31Z</time>
      </trkpt>
      <trkpt lat="42.2615850" lon="-7.3024470">
        <ele>1721.1</ele>
        <time>2014-10-01T14:44:33Z</time>
      </trkpt>
      <trkpt lat="42.2615410" lon="-7.3024410">
        <ele>1721.6</ele>
        <time>2014-10-01T14:44:35Z</time>
      </trkpt>
      <trkpt lat="42.2615020" lon="-7.3024290">
        <ele>1722.0</ele>
        <time>2014-10-01T14:44:37Z</time>
      </trkpt>
      <trkpt lat="42.2614620" lon="-7.3024220">
        <ele>1722.4</ele>
        <time>2014-10-01T14:44:39Z</time>
      </trkpt>
      <trkpt lat="42.2614140" lon="-7.3024160">
        <ele>1722.9</ele>
        <time>2014-10-01T14:44:41Z</time>
      </trkpt>
      <trkpt lat="42.2613730" lon="-7.3024040">
        <ele>1723.3</ele>
        <time>2014-10-01T14:44:43Z</time>
      </trkpt>
      <trkpt lat="42.2613250" lon="-7.3023860">
        <ele>1723.8</ele>
        <time>2014-10-01T14:44:45Z</time>
      </trkpt>
      <trkpt lat="42.2612820" lon="-7.3023720">
        <ele>1724.2</ele>
        <time>2014-10-01T14:44:47Z</time>
      </trkpt>
      <trkpt lat="42.2612390" lon="-7.3023610">
        <ele>1724.6</ele>
        <time>2014-10-01T14:44:49Z</time>
      </trkpt>
      <trkpt lat="42.2611970" lon="-7.3023490">
        <ele>1725.0</ele>
        <time>2014-10-01T14:44:51Z</time>
      </trkpt>
      <trkpt lat="42.2611560" lon="-7.3023360">
        <ele>1725.5</ele>
        <time>2014-10-01T14:44:53Z</time>
      </trkpt>
      <trkpt lat="42.2611170" lon="-7.3023210">
        <ele>1725.9</ele>
        <time>2014-10-01T14:44:55Z</time>
      </trkpt>
      <trkpt lat="42.2610750" lon="-7.3023040">
        <ele>1726.3</ele>
        <time>2014-10-01T14:44:57Z</time>
      </trkpt>
      <trkpt lat="42.2610310" lon="-7.3022890">
        <ele>1726.7</ele>
        <time>2014-10-01T14:44:59Z</time>
      </trkpt>
      <trkpt lat="42.2609860" lon="-7.3022750">
        <ele>1727.2</ele>
        <time>2014-10-01T14:45:01Z</time>
      </trkpt>
      <trkpt lat="42.2609420" lon="-7.3022580">
        <ele>1727.6</ele>
        <time>2014-10-01T14:45:03Z</time>
      </trkpt>
      <trkpt lat="42.2609020" lon="-7.3022440">
        <ele>1727.9</ele>
        <time>2014-10-01T14:45:05Z</time>
      </trkpt>
      <trkpt lat="42.2608610" lon="-7.3022330">
        <ele>1728.3</ele>
        <time>2014-10-01T14:45:07Z</time>
      </trkpt>
      <trkpt lat="42.2608170" lon="-7.3022230">
        <ele>1728.6</ele>
        <time>2014-10-01T14:45:09Z</time>
      </trkpt>
      <trkpt lat="42.2607710" lon="-7.3022180">
        <ele>1729.0</ele>
        <time>2014-10-01T14:45:11Z</time>
      </trkpt>
      <trkpt lat="42.2607250" lon="-7.3022200">
        <ele>1729.4</ele>
        <time>2014-10-01T14:45:13Z</time>
      </trkpt>
      <trkpt lat="42.2606770" lon="-7.3022250">
        <ele>1729.9</ele>
        <time>2014-10-01T14:45:15Z</time>
      </trkpt>
      <trkpt lat="42.2606300" lon="-7.3022300">
        <ele>1730.3</ele>
        <time>2014-10-01T14:45:17Z</time>
      </trkpt>
      <trkpt lat="42.2605840" lon="-7.3022340">
        <ele>1730.8</ele>
        <time>2014-10-01T14:45:19Z</time>
      </trkpt>
      <trkpt lat="42.2605390" lon="-7.3022380">
        <ele>1731.2</ele>
        <time>2014-10-01T14:45:21Z</time>
      </trkpt>
      <trkpt lat="42.2604950" lon="-7.3022510">
        <ele>1731.5</ele>
        <time>2014-10-01T14:45:23Z</time>
      </trkpt>
      <trkpt lat="42.2604580" lon="-7.3022640">
        <ele>1731.8</ele>
        <time>2014-10-01T14:45:25Z</time>
      </trkpt>
      <trkpt lat="42.2604140" lon="-7.3022840">
        <ele>1732.2</ele>
        <time>2014-10-01T14:45:27Z</time>
      </trkpt>
      <trkpt lat="42.2603700" lon="-7.3023030">
        <ele>1732.5</ele>
        <time>2014-10-01T14:45:29Z</time>
      </trkpt>
      <trkpt lat="42.2603260" lon="-7.3023300">
        <ele>1732.9</ele>
        <time>2014-10-01T14:45:31Z</time>
      </trkpt>
      <trkpt lat="42.2602790" lon="-7.3023580">
        <ele>1733.3</ele>
        <time>2014-10-01T14:45:33Z</time>
      </trkpt>
      <trkpt lat="42.2602380" lon="-7.3023880">
        <ele>1733.7</ele>
        <time>2014-10-01T14:45:35Z</time>
      </trkpt>
      <trkpt lat="42.2601960" lon="-7.3024170">
        <ele>1734.1</ele>
        <time>2014-10-01T14:45:37Z</time>
      </trkpt>
      <trkpt lat="42.2601520" lon="-7.3024500">
        <ele>1734.6</ele>
        <time>2014-10-01T14:45:39Z</time>
      </trkpt>
      <trkpt lat="42.2601090" lon="-7.3024830">
        <ele>1735.0</ele>
        <time>2014-10-01T14:45:41Z</time>
      </trkpt>
      <trkpt lat="42.2600670" lon="-7.3025120">
        <ele>1735.3</ele>
        <time>2014-10-01T14:45:43Z</time>
      </trkpt>
      <trkpt lat="42.2600250" lon="-7.3025460">
        <ele>1735.7</ele>
        <time>2014-10-01T14:45:45Z</time>
      </trkpt>
      <trkpt lat="42.2599810" lon="-7.3025730">
        <ele>1736.0</ele>
        <time>2014-10-01T14:45:47Z</time>
      </trkpt>
      <trkpt lat="42.2599560" lon="-7.3025890">
        <ele>1736.2</ele>
        <time>2014-10-01T14:45:48Z</time>
      </trkpt>
      <trkpt lat="42.2599300" lon="-7.3026030">
        <ele>1736.4</ele>
        <time>2014-10-01T14:45:49Z</time>
      </trkpt>
      <trkpt lat="42.2599020" lon="-7.3026200">
        <ele>1736.6</ele>
        <time>2014-10-01T14:45:50Z</time>
      </trkpt>
      <trkpt lat="42.2598580" lon="-7.3026520">
        <ele>1737.0</ele>
        <time>2014-10-01T14:45:52Z</time>
      </trkpt>
      <trkpt lat="42.2598110" lon="-7.3026860">
        <ele>1737.4</ele>
        <time>2014-10-01T14:45:54Z</time>
      </trkpt>
      <trkpt lat="42.2597800" lon="-7.3027020">
        <ele>1737.6</ele>
        <time>2014-10-01T14:45:55Z</time>
      </trkpt>
      <trkpt lat="42.2597550" lon="-7.3027180">
        <ele>1737.8</ele>
        <time>2014-10-01T14:45:56Z</time>
      </trkpt>
      <trkpt lat="42.2597270" lon="-7.3027380">
        <ele>1738.1</ele>
        <time>2014-10-01T14:45:57Z</time>
      </trkpt>
      <trkpt lat="42.2597000" lon="-7.3027550">
        <ele>1738.3</ele>
        <time>2014-10-01T14:45:58Z</time>
      </trkpt>
      <trkpt lat="42.2596750" lon="-7.3027700">
        <ele>1738.5</ele>
        <time>2014-10-01T14:45:59Z</time>
      </trkpt>
      <trkpt lat="42.2596480" lon="-7.3027870">
        <ele>1738.7</ele>
        <time>2014-10-01T14:46:00Z</time>
      </trkpt>
      <trkpt lat="42.2596220" lon="-7.3028020">
        <ele>1738.9</ele>
        <time>2014-10-01T14:46:01Z</time>
      </trkpt>
      <trkpt lat="42.2595910" lon="-7.3028180">
        <ele>1739.1</ele>
        <time>2014-10-01T14:46:02Z</time>
      </trkpt>
      <trkpt lat="42.2595640" lon="-7.3028320">
        <ele>1739.4</ele>
        <time>2014-10-01T14:46:03Z</time>
      </trkpt>
      <trkpt lat="42.2595360" lon="-7.3028490">
        <ele>1739.6</ele>
        <time>2014-10-01T14:46:04Z</time>
      </trkpt>
      <trkpt lat="42.2595050" lon="-7.3028680">
        <ele>1739.8</ele>
        <time>2014-10-01T14:46:05Z</time>
      </trkpt>
      <trkpt lat="42.2594780" lon="-7.3028840">
        <ele>1740.0</ele>
        <time>2014-10-01T14:46:06Z</time>
      </trkpt>
      <trkpt lat="42.2594530" lon="-7.3029000">
        <ele>1740.2</ele>
        <time>2014-10-01T14:46:07Z</time>
      </trkpt>
      <trkpt lat="42.2594240" lon="-7.3029160">
        <ele>1740.4</ele>
        <time>2014-10-01T14:46:08Z</time>
      </trkpt>
      <trkpt lat="42.2593940" lon="-7.3029340">
        <ele>1740.7</ele>
        <time>2014-10-01T14:46:09Z</time>
      </trkpt>
      <trkpt lat="42.2593670" lon="-7.3029490">
        <ele>1740.8</ele>
        <time>2014-10-01T14:46:10Z</time>
      </trkpt>
      <trkpt lat="42.2593410" lon="-7.3029640">
        <ele>1741.0</ele>
        <time>2014-10-01T14:46:11Z</time>
      </trkpt>
      <trkpt lat="42.2593140" lon="-7.3029800">
        <ele>1741.2</ele>
        <time>2014-10-01T14:46:12Z</time>
      </trkpt>
      <trkpt lat="42.2592870" lon="-7.3029960">
        <ele>1741.4</ele>
        <time>2014-10-01T14:46:13Z</time>
      </trkpt>
      <trkpt lat="42.2592570" lon="-7.3030120">
        <ele>1741.6</ele>
        <time>2014-10-01T14:46:14Z</time>
      </trkpt>
      <trkpt lat="42.2592270" lon="-7.3030280">
        <ele>1741.8</ele>
        <time>2014-10-01T14:46:15Z</time>
      </trkpt>
      <trkpt lat="42.2591990" lon="-7.3030420">
        <ele>1742.0</ele>
        <time>2014-10-01T14:46:16Z</time>
      </trkpt>
      <trkpt lat="42.2591710" lon="-7.3030580">
        <ele>1742.2</ele>
        <time>2014-10-01T14:46:17Z</time>
      </trkpt>
      <trkpt lat="42.2591420" lon="-7.3030720">
        <ele>1742.4</ele>
        <time>2014-10-01T14:46:18Z</time>
      </trkpt>
      <trkpt lat="42.2591120" lon="-7.3030850">
        <ele>1742.7</ele>
        <time>2014-10-01T14:46:19Z</time>
      </trkpt>
      <trkpt lat="42.2590840" lon="-7.3030970">
        <ele>1742.8</ele>
        <time>2014-10-01T14:46:20Z</time>
      </trkpt>
      <trkpt lat="42.2590570" lon="-7.3031090">
        <ele>1743.0</ele>
        <time>2014-10-01T14:46:21Z</time>
      </trkpt>
      <trkpt lat="42.2590290" lon="-7.3031210">
        <ele>1743.2</ele>
        <time>2014-10-01T14:46:22Z</time>
      </trkpt>
      <trkpt lat="42.2590000" lon="-7.3031350">
        <ele>1743.4</ele>
        <time>2014-10-01T14:46:23Z</time>
      </trkpt>
      <trkpt lat="42.2589720" lon="-7.3031480">
        <ele>1743.6</ele>
        <time>2014-10-01T14:46:24Z</time>
      </trkpt>
      <trkpt lat="42.2589420" lon="-7.3031610">
        <ele>1743.8</ele>
        <time>2014-10-01T14:46:25Z</time>
      </trkpt>
      <trkpt lat="42.2589140" lon="-7.3031690">
        <ele>1744.0</ele>
        <time>2014-10-01T14:46:26Z</time>
      </trkpt>
      <trkpt lat="42.2588870" lon="-7.3031750">
        <ele>1744.2</ele>
        <time>2014-10-01T14:46:27Z</time>
      </trkpt>
      <trkpt lat="42.2588580" lon="-7.3031830">
        <ele>1744.4</ele>
        <time>2014-10-01T14:46:28Z</time>
      </trkpt>
      <trkpt lat="42.2588300" lon="-7.3031890">
        <ele>1744.5</ele>
        <time>2014-10-01T14:46:29Z</time>
      </trkpt>
      <trkpt lat="42.2588010" lon="-7.3031960">
        <ele>1744.7</ele>
        <time>2014-10-01T14:46:30Z</time>
      </trkpt>
      <trkpt lat="42.2587480" lon="-7.3032040">
        <ele>1745.1</ele>
        <time>2014-10-01T14:46:32Z</time>
      </trkpt>
      <trkpt lat="42.2587200" lon="-7.3032060">
        <ele>1745.2</ele>
        <time>2014-10-01T14:46:33Z</time>
      </trkpt>
      <trkpt lat="42.2586920" lon="-7.3032080">
        <ele>1745.4</ele>
        <time>2014-10-01T14:46:34Z</time>
      </trkpt>
      <trkpt lat="42.2586630" lon="-7.3032090">
        <ele>1745.6</ele>
        <time>2014-10-01T14:46:35Z</time>
      </trkpt>
      <trkpt lat="42.2586330" lon="-7.3032090">
        <ele>1745.7</ele>
        <time>2014-10-01T14:46:36Z</time>
      </trkpt>
      <trkpt lat="42.2586030" lon="-7.3032090">
        <ele>1745.9</ele>
        <time>2014-10-01T14:46:37Z</time>
      </trkpt>
      <trkpt lat="42.2585740" lon="-7.3032060">
        <ele>1746.1</ele>
        <time>2014-10-01T14:46:38Z</time>
      </trkpt>
      <trkpt lat="42.2585430" lon="-7.3032010">
        <ele>1746.3</ele>
        <time>2014-10-01T14:46:39Z</time>
      </trkpt>
      <trkpt lat="42.2585120" lon="-7.3031970">
        <ele>1746.4</ele>
        <time>2014-10-01T14:46:40Z</time>
      </trkpt>
      <trkpt lat="42.2584800" lon="-7.3031930">
        <ele>1746.6</ele>
        <time>2014-10-01T14:46:41Z</time>
      </trkpt>
      <trkpt lat="42.2584480" lon="-7.3031900">
        <ele>1746.8</ele>
        <time>2014-10-01T14:46:42Z</time>
      </trkpt>
      <trkpt lat="42.2584180" lon="-7.3031840">
        <ele>1747.0</ele>
        <time>2014-10-01T14:46:43Z</time>
      </trkpt>
      <trkpt lat="42.2583880" lon="-7.3031750">
        <ele>1747.1</ele>
        <time>2014-10-01T14:46:44Z</time>
      </trkpt>
      <trkpt lat="42.2583570" lon="-7.3031670">
        <ele>1747.3</ele>
        <time>2014-10-01T14:46:45Z</time>
      </trkpt>
      <trkpt lat="42.2583260" lon="-7.3031550">
        <ele>1747.5</ele>
        <time>2014-10-01T14:46:46Z</time>
      </trkpt>
      <trkpt lat="42.2582960" lon="-7.3031400">
        <ele>1747.6</ele>
        <time>2014-10-01T14:46:47Z</time>
      </trkpt>
      <trkpt lat="42.2582690" lon="-7.3031240">
        <ele>1747.8</ele>
        <time>2014-10-01T14:46:48Z</time>
      </trkpt>
      <trkpt lat="42.2582200" lon="-7.3030920">
        <ele>1748.0</ele>
        <time>2014-10-01T14:46:50Z</time>
      </trkpt>
      <trkpt lat="42.2581930" lon="-7.3030740">
        <ele>1748.2</ele>
        <time>2014-10-01T14:46:51Z</time>
      </trkpt>
      <trkpt lat="42.2581670" lon="-7.3030560">
        <ele>1748.3</ele>
        <time>2014-10-01T14:46:52Z</time>
      </trkpt>
      <trkpt lat="42.2581390" lon="-7.3030340">
        <ele>1748.5</ele>
        <time>2014-10-01T14:46:53Z</time>
      </trkpt>
      <trkpt lat="42.2581120" lon="-7.3030120">
        <ele>1748.6</ele>
        <time>2014-10-01T14:46:54Z</time>
      </trkpt>
      <trkpt lat="42.2580820" lon="-7.3029880">
        <ele>1748.8</ele>
        <time>2014-10-01T14:46:55Z</time>
      </trkpt>
      <trkpt lat="42.2580520" lon="-7.3029650">
        <ele>1749.0</ele>
        <time>2014-10-01T14:46:56Z</time>
      </trkpt>
      <trkpt lat="42.2580240" lon="-7.3029390">
        <ele>1749.1</ele>
        <time>2014-10-01T14:46:57Z</time>
      </trkpt>
      <trkpt lat="42.2579960" lon="-7.3029140">
        <ele>1749.2</ele>
        <time>2014-10-01T14:46:58Z</time>
      </trkpt>
      <trkpt lat="42.2579690" lon="-7.3028870">
        <ele>1749.3</ele>
        <time>2014-10-01T14:46:59Z</time>
      </trkpt>
      <trkpt lat="42.2579440" lon="-7.3028590">
        <ele>1749.4</ele>
        <time>2014-10-01T14:47:00Z</time>
      </trkpt>
      <trkpt lat="42.2579190" lon="-7.3028310">
        <ele>1749.6</ele>
        <time>2014-10-01T14:47:01Z</time>
      </trkpt>
      <trkpt lat="42.2578930" lon="-7.3028030">
        <ele>1749.7</ele>
        <time>2014-10-01T14:47:02Z</time>
      </trkpt>
      <trkpt lat="42.2578690" lon="-7.3027730">
        <ele>1749.8</ele>
        <time>2014-10-01T14:47:03Z</time>
      </trkpt>
      <trkpt lat="42.2578470" lon="-7.3027420">
        <ele>1749.9</ele>
        <time>2014-10-01T14:47:04Z</time>
      </trkpt>
      <trkpt lat="42.2578260" lon="-7.3027090">
        <ele>1750.0</ele>
        <time>2014-10-01T14:47:05Z</time>
      </trkpt>
      <trkpt lat="42.2578060" lon="-7.3026740">
        <ele>1750.1</ele>
        <time>2014-10-01T14:47:06Z</time>
      </trkpt>
      <trkpt lat="42.2577870" lon="-7.3026400">
        <ele>1750.2</ele>
        <time>2014-10-01T14:47:07Z</time>
      </trkpt>
      <trkpt lat="42.2577700" lon="-7.3026070">
        <ele>1750.3</ele>
        <time>2014-10-01T14:47:08Z</time>
      </trkpt>
      <trkpt lat="42.2577520" lon="-7.3025680">
        <ele>1750.5</ele>
        <time>2014-10-01T14:47:09Z</time>
      </trkpt>
      <trkpt lat="42.2577370" lon="-7.3025310">
        <ele>1750.6</ele>
        <time>2014-10-01T14:47:10Z</time>
      </trkpt>
      <trkpt lat="42.2577210" lon="-7.3024890">
        <ele>1750.8</ele>
        <time>2014-10-01T14:47:11Z</time>
      </trkpt>
      <trkpt lat="42.2577070" lon="-7.3024450">
        <ele>1751.0</ele>
        <time>2014-10-01T14:47:12Z</time>
      </trkpt>
      <trkpt lat="42.2576940" lon="-7.3024060">
        <ele>1751.1</ele>
        <time>2014-10-01T14:47:13Z</time>
      </trkpt>
      <trkpt lat="42.2576820" lon="-7.3023710">
        <ele>1751.2</ele>
        <time>2014-10-01T14:47:14Z</time>
      </trkpt>
      <trkpt lat="42.2576710" lon="-7.3023360">
        <ele>1751.3</ele>
        <time>2014-10-01T14:47:15Z</time>
      </trkpt>
      <trkpt lat="42.2576580" lon="-7.3022650">
        <ele>1751.5</ele>
        <time>2014-10-01T14:47:17Z</time>
      </trkpt>
      <trkpt lat="42.2576500" lon="-7.3022250">
        <ele>1751.7</ele>
        <time>2014-10-01T14:47:18Z</time>
      </trkpt>
      <trkpt lat="42.2576430" lon="-7.3021850">
        <ele>1751.8</ele>
        <time>2014-10-01T14:47:19Z</time>
      </trkpt>
      <trkpt lat="42.2576350" lon="-7.3021430">
        <ele>1751.9</ele>
        <time>2014-10-01T14:47:20Z</time>
      </trkpt>
      <trkpt lat="42.2576270" lon="-7.3021020">
        <ele>1752.1</ele>
        <time>2014-10-01T14:47:21Z</time>
      </trkpt>
      <trkpt lat="42.2576200" lon="-7.3020590">
        <ele>1752.2</ele>
        <time>2014-10-01T14:47:22Z</time>
      </trkpt>
      <trkpt lat="42.2576150" lon="-7.3020140">
        <ele>1752.3</ele>
        <time>2014-10-01T14:47:23Z</time>
      </trkpt>
      <trkpt lat="42.2576110" lon="-7.3019700">
        <ele>1752.4</ele>
        <time>2014-10-01T14:47:24Z</time>
      </trkpt>
      <trkpt lat="42.2576080" lon="-7.3019290">
        <ele>1752.5</ele>
        <time>2014-10-01T14:47:25Z</time>
      </trkpt>
      <trkpt lat="42.2576040" lon="-7.3018810">
        <ele>1752.7</ele>
        <time>2014-10-01T14:47:26Z</time>
      </trkpt>
      <trkpt lat="42.2576030" lon="-7.3018330">
        <ele>1752.8</ele>
        <time>2014-10-01T14:47:27Z</time>
      </trkpt>
      <trkpt lat="42.2576050" lon="-7.3017830">
        <ele>1752.9</ele>
        <time>2014-10-01T14:47:28Z</time>
      </trkpt>
      <trkpt lat="42.2576050" lon="-7.3017360">
        <ele>1753.0</ele>
        <time>2014-10-01T14:47:29Z</time>
      </trkpt>
      <trkpt lat="42.2576040" lon="-7.3016920">
        <ele>1753.1</ele>
        <time>2014-10-01T14:47:30Z</time>
      </trkpt>
      <trkpt lat="42.2576040" lon="-7.3016500">
        <ele>1753.2</ele>
        <time>2014-10-01T14:47:31Z</time>
      </trkpt>
      <trkpt lat="42.2576060" lon="-7.3016050">
        <ele>1753.2</ele>
        <time>2014-10-01T14:47:32Z</time>
      </trkpt>
      <trkpt lat="42.2576090" lon="-7.3015570">
        <ele>1753.3</ele>
        <time>2014-10-01T14:47:33Z</time>
      </trkpt>
      <trkpt lat="42.2576160" lon="-7.3015060">
        <ele>1753.3</ele>
        <time>2014-10-01T14:47:34Z</time>
      </trkpt>
      <trkpt lat="42.2576300" lon="-7.3014560">
        <ele>1753.4</ele>
        <time>2014-10-01T14:47:35Z</time>
      </trkpt>
      <trkpt lat="42.2576380" lon="-7.3014110">
        <ele>1753.4</ele>
        <time>2014-10-01T14:47:36Z</time>
      </trkpt>
      <trkpt lat="42.2576470" lon="-7.3013680">
        <ele>1753.4</ele>
        <time>2014-10-01T14:47:37Z</time>
      </trkpt>
      <trkpt lat="42.2576580" lon="-7.3013200">
        <ele>1753.5</ele>
        <time>2014-10-01T14:47:38Z</time>
      </trkpt>
      <trkpt lat="42.2576700" lon="-7.3012720">
        <ele>1753.5</ele>
        <time>2014-10-01T14:47:39Z</time>
      </trkpt>
      <trkpt lat="42.2576840" lon="-7.3012240">
        <ele>1753.5</ele>
        <time>2014-10-01T14:47:40Z</time>
      </trkpt>
      <trkpt lat="42.2576980" lon="-7.3011770">
        <ele>1753.5</ele>
        <time>2014-10-01T14:47:41Z</time>
      </trkpt>
      <trkpt lat="42.2577100" lon="-7.3011280">
        <ele>1753.5</ele>
        <time>2014-10-01T14:47:42Z</time>
      </trkpt>
      <trkpt lat="42.2577260" lon="-7.3010770">
        <ele>1753.4</ele>
        <time>2014-10-01T14:47:43Z</time>
      </trkpt>
      <trkpt lat="42.2577420" lon="-7.3010270">
        <ele>1753.4</ele>
        <time>2014-10-01T14:47:44Z</time>
      </trkpt>
      <trkpt lat="42.2577580" lon="-7.3009760">
        <ele>1753.3</ele>
        <time>2014-10-01T14:47:45Z</time>
      </trkpt>
      <trkpt lat="42.2577740" lon="-7.3009240">
        <ele>1753.3</ele>
        <time>2014-10-01T14:47:46Z</time>
      </trkpt>
      <trkpt lat="42.2577910" lon="-7.3008710">
        <ele>1753.2</ele>
        <time>2014-10-01T14:47:47Z</time>
      </trkpt>
      <trkpt lat="42.2578110" lon="-7.3008190">
        <ele>1753.2</ele>
        <time>2014-10-01T14:47:48Z</time>
      </trkpt>
      <trkpt lat="42.2578310" lon="-7.3007660">
        <ele>1753.1</ele>
        <time>2014-10-01T14:47:49Z</time>
      </trkpt>
      <trkpt lat="42.2578530" lon="-7.3007130">
        <ele>1753.0</ele>
        <time>2014-10-01T14:47:50Z</time>
      </trkpt>
      <trkpt lat="42.2578760" lon="-7.3006610">
        <ele>1752.9</ele>
        <time>2014-10-01T14:47:51Z</time>
      </trkpt>
      <trkpt lat="42.2579030" lon="-7.3006080">
        <ele>1752.7</ele>
        <time>2014-10-01T14:47:52Z</time>
      </trkpt>
      <trkpt lat="42.2579310" lon="-7.3005560">
        <ele>1752.6</ele>
        <time>2014-10-01T14:47:53Z</time>
      </trkpt>
      <trkpt lat="42.2579580" lon="-7.3005040">
        <ele>1752.6</ele>
        <time>2014-10-01T14:47:54Z</time>
      </trkpt>
      <trkpt lat="42.2579860" lon="-7.3004530">
        <ele>1752.5</ele>
        <time>2014-10-01T14:47:55Z</time>
      </trkpt>
      <trkpt lat="42.2580130" lon="-7.3004050">
        <ele>1752.4</ele>
        <time>2014-10-01T14:47:56Z</time>
      </trkpt>
      <trkpt lat="42.2580420" lon="-7.3003550">
        <ele>1752.3</ele>
        <time>2014-10-01T14:47:57Z</time>
      </trkpt>
      <trkpt lat="42.2580720" lon="-7.3003010">
        <ele>1752.2</ele>
        <time>2014-10-01T14:47:58Z</time>
      </trkpt>
      <trkpt lat="42.2581050" lon="-7.3002410">
        <ele>1752.1</ele>
        <time>2014-10-01T14:47:59Z</time>
      </trkpt>
      <trkpt lat="42.2581360" lon="-7.3001820">
        <ele>1752.0</ele>
        <time>2014-10-01T14:48:00Z</time>
      </trkpt>
      <trkpt lat="42.2581700" lon="-7.3001190">
        <ele>1751.8</ele>
        <time>2014-10-01T14:48:01Z</time>
      </trkpt>
      <trkpt lat="42.2582030" lon="-7.3000570">
        <ele>1751.5</ele>
        <time>2014-10-01T14:48:02Z</time>
      </trkpt>
      <trkpt lat="42.2582330" lon="-7.2999930">
        <ele>1751.4</ele>
        <time>2014-10-01T14:48:03Z</time>
      </trkpt>
      <trkpt lat="42.2582640" lon="-7.2999230">
        <ele>1751.3</ele>
        <time>2014-10-01T14:48:04Z</time>
      </trkpt>
      <trkpt lat="42.2582910" lon="-7.2998530">
        <ele>1751.2</ele>
        <time>2014-10-01T14:48:05Z</time>
      </trkpt>
      <trkpt lat="42.2583160" lon="-7.2997860">
        <ele>1751.2</ele>
        <time>2014-10-01T14:48:06Z</time>
      </trkpt>
      <trkpt lat="42.2583440" lon="-7.2997170">
        <ele>1751.0</ele>
        <time>2014-10-01T14:48:07Z</time>
      </trkpt>
      <trkpt lat="42.2583780" lon="-7.2996440">
        <ele>1750.7</ele>
        <time>2014-10-01T14:48:08Z</time>
      </trkpt>
      <trkpt lat="42.2584120" lon="-7.2995720">
        <ele>1750.5</ele>
        <time>2014-10-01T14:48:09Z</time>
      </trkpt>
      <trkpt lat="42.2584470" lon="-7.2995010">
        <ele>1750.2</ele>
        <time>2014-10-01T14:48:10Z</time>
      </trkpt>
      <trkpt lat="42.2584840" lon="-7.2994330">
        <ele>1750.0</ele>
        <time>2014-10-01T14:48:11Z</time>
      </trkpt>
      <trkpt lat="42.2585190" lon="-7.2993670">
        <ele>1749.7</ele>
        <time>2014-10-01T14:48:12Z</time>
      </trkpt>
      <trkpt lat="42.2585560" lon="-7.2993020">
        <ele>1749.4</ele>
        <time>2014-10-01T14:48:13Z</time>
      </trkpt>
      <trkpt lat="42.2585970" lon="-7.2992330">
        <ele>1749.1</ele>
        <time>2014-10-01T14:48:14Z</time>
      </trkpt>
      <trkpt lat="42.2586390" lon="-7.2991680">
        <ele>1748.8</ele>
        <time>2014-10-01T14:48:15Z</time>
      </trkpt>
      <trkpt lat="42.2586830" lon="-7.2991010">
        <ele>1748.5</ele>
        <time>2014-10-01T14:48:16Z</time>
      </trkpt>
      <trkpt lat="42.2587290" lon="-7.2990280">
        <ele>1748.3</ele>
        <time>2014-10-01T14:48:17Z</time>
      </trkpt>
      <trkpt lat="42.2587760" lon="-7.2989580">
        <ele>1748.0</ele>
        <time>2014-10-01T14:48:18Z</time>
      </trkpt>
      <trkpt lat="42.2588180" lon="-7.2988950">
        <ele>1747.7</ele>
        <time>2014-10-01T14:48:19Z</time>
      </trkpt>
      <trkpt lat="42.2588610" lon="-7.2988270">
        <ele>1747.4</ele>
        <time>2014-10-01T14:48:20Z</time>
      </trkpt>
      <trkpt lat="42.2588990" lon="-7.2987710">
        <ele>1747.1</ele>
        <time>2014-10-01T14:48:21Z</time>
      </trkpt>
      <trkpt lat="42.2589340" lon="-7.2987170">
        <ele>1746.9</ele>
        <time>2014-10-01T14:48:22Z</time>
      </trkpt>
      <trkpt lat="42.2589670" lon="-7.2986610">
        <ele>1746.6</ele>
        <time>2014-10-01T14:48:23Z</time>
      </trkpt>
      <trkpt lat="42.2590000" lon="-7.2986030">
        <ele>1746.4</ele>
        <time>2014-10-01T14:48:24Z</time>
      </trkpt>
      <trkpt lat="42.2590300" lon="-7.2985440">
        <ele>1746.2</ele>
        <time>2014-10-01T14:48:25Z</time>
      </trkpt>
      <trkpt lat="42.2590600" lon="-7.2984800">
        <ele>1745.9</ele>
        <time>2014-10-01T14:48:26Z</time>
      </trkpt>
      <trkpt lat="42.2590840" lon="-7.2984180">
        <ele>1745.7</ele>
        <time>2014-10-01T14:48:27Z</time>
      </trkpt>
      <trkpt lat="42.2591060" lon="-7.2983550">
        <ele>1745.5</ele>
        <time>2014-10-01T14:48:28Z</time>
      </trkpt>
      <trkpt lat="42.2591220" lon="-7.2982930">
        <ele>1745.4</ele>
        <time>2014-10-01T14:48:29Z</time>
      </trkpt>
      <trkpt lat="42.2591350" lon="-7.2982300">
        <ele>1745.2</ele>
        <time>2014-10-01T14:48:30Z</time>
      </trkpt>
      <trkpt lat="42.2591490" lon="-7.2981670">
        <ele>1745.1</ele>
        <time>2014-10-01T14:48:31Z</time>
      </trkpt>
      <trkpt lat="42.2591630" lon="-7.2981110">
        <ele>1745.0</ele>
        <time>2014-10-01T14:48:32Z</time>
      </trkpt>
      <trkpt lat="42.2591830" lon="-7.2980550">
        <ele>1744.9</ele>
        <time>2014-10-01T14:48:33Z</time>
      </trkpt>
      <trkpt lat="42.2592120" lon="-7.2980080">
        <ele>1744.8</ele>
        <time>2014-10-01T14:48:34Z</time>
      </trkpt>
      <trkpt lat="42.2592420" lon="-7.2979660">
        <ele>1744.7</ele>
        <time>2014-10-01T14:48:35Z</time>
      </trkpt>
      <trkpt lat="42.2592780" lon="-7.2979340">
        <ele>1744.6</ele>
        <time>2014-10-01T14:48:36Z</time>
      </trkpt>
      <trkpt lat="42.2593110" lon="-7.2979090">
        <ele>1744.6</ele>
        <time>2014-10-01T14:48:37Z</time>
      </trkpt>
      <trkpt lat="42.2593410" lon="-7.2978990">
        <ele>1744.5</ele>
        <time>2014-10-01T14:48:38Z</time>
      </trkpt>
      <trkpt lat="42.2593740" lon="-7.2978970">
        <ele>1744.4</ele>
        <time>2014-10-01T14:48:39Z</time>
      </trkpt>
      <trkpt lat="42.2594050" lon="-7.2979070">
        <ele>1744.4</ele>
        <time>2014-10-01T14:48:40Z</time>
      </trkpt>
      <trkpt lat="42.2594330" lon="-7.2979210">
        <ele>1744.3</ele>
        <time>2014-10-01T14:48:41Z</time>
      </trkpt>
      <trkpt lat="42.2594620" lon="-7.2979480">
        <ele>1744.2</ele>
        <time>2014-10-01T14:48:42Z</time>
      </trkpt>
      <trkpt lat="42.2594810" lon="-7.2979780">
        <ele>1744.1</ele>
        <time>2014-10-01T14:48:43Z</time>
      </trkpt>
      <trkpt lat="42.2594990" lon="-7.2980100">
        <ele>1744.1</ele>
        <time>2014-10-01T14:48:44Z</time>
      </trkpt>
      <trkpt lat="42.2595160" lon="-7.2980400">
        <ele>1744.0</ele>
        <time>2014-10-01T14:48:45Z</time>
      </trkpt>
      <trkpt lat="42.2595520" lon="-7.2980920">
        <ele>1743.9</ele>
        <time>2014-10-01T14:48:47Z</time>
      </trkpt>
      <trkpt lat="42.2595870" lon="-7.2981400">
        <ele>1743.7</ele>
        <time>2014-10-01T14:48:49Z</time>
      </trkpt>
      <trkpt lat="42.2596080" lon="-7.2981740">
        <ele>1743.6</ele>
        <time>2014-10-01T14:48:50Z</time>
      </trkpt>
      <trkpt lat="42.2596290" lon="-7.2982140">
        <ele>1743.5</ele>
        <time>2014-10-01T14:48:51Z</time>
      </trkpt>
      <trkpt lat="42.2596490" lon="-7.2982560">
        <ele>1743.4</ele>
        <time>2014-10-01T14:48:52Z</time>
      </trkpt>
      <trkpt lat="42.2596660" lon="-7.2983010">
        <ele>1743.4</ele>
        <time>2014-10-01T14:48:53Z</time>
      </trkpt>
      <trkpt lat="42.2596830" lon="-7.2983450">
        <ele>1743.4</ele>
        <time>2014-10-01T14:48:54Z</time>
      </trkpt>
      <trkpt lat="42.2596980" lon="-7.2983860">
        <ele>1743.4</ele>
        <time>2014-10-01T14:48:55Z</time>
      </trkpt>
      <trkpt lat="42.2597110" lon="-7.2984220">
        <ele>1743.4</ele>
        <time>2014-10-01T14:48:56Z</time>
      </trkpt>
      <trkpt lat="42.2597220" lon="-7.2984550">
        <ele>1743.5</ele>
        <time>2014-10-01T14:48:57Z</time>
      </trkpt>
      <trkpt lat="42.2597340" lon="-7.2985000">
        <ele>1743.4</ele>
        <time>2014-10-01T14:48:59Z</time>
      </trkpt>
      <trkpt lat="42.2596970" lon="-7.2985600">
        <ele>1742.9</ele>
        <time>2014-10-01T14:50:51Z</time>
      </trkpt>
      <trkpt lat="42.2596890" lon="-7.2986040">
        <ele>1742.9</ele>
        <time>2014-10-01T14:51:01Z</time>
      </trkpt>
      <trkpt lat="42.2596610" lon="-7.2986500">
        <ele>1742.6</ele>
        <time>2014-10-01T14:51:03Z</time>
      </trkpt>
      <trkpt lat="42.2596310" lon="-7.2986970">
        <ele>1742.4</ele>
        <time>2014-10-01T14:51:05Z</time>
      </trkpt>
      <trkpt lat="42.2595940" lon="-7.2987460">
        <ele>1742.5</ele>
        <time>2014-10-01T14:51:07Z</time>
      </trkpt>
      <trkpt lat="42.2595440" lon="-7.2987770">
        <ele>1742.3</ele>
        <time>2014-10-01T14:51:09Z</time>
      </trkpt>
      <trkpt lat="42.2594920" lon="-7.2987770">
        <ele>1742.4</ele>
        <time>2014-10-01T14:51:11Z</time>
      </trkpt>
      <trkpt lat="42.2594650" lon="-7.2987670">
        <ele>1742.4</ele>
        <time>2014-10-01T14:51:12Z</time>
      </trkpt>
      <trkpt lat="42.2594410" lon="-7.2987480">
        <ele>1742.5</ele>
        <time>2014-10-01T14:51:13Z</time>
      </trkpt>
      <trkpt lat="42.2594210" lon="-7.2987220">
        <ele>1742.6</ele>
        <time>2014-10-01T14:51:14Z</time>
      </trkpt>
      <trkpt lat="42.2593890" lon="-7.2986690">
        <ele>1742.8</ele>
        <time>2014-10-01T14:51:16Z</time>
      </trkpt>
      <trkpt lat="42.2593680" lon="-7.2986150">
        <ele>1742.8</ele>
        <time>2014-10-01T14:51:18Z</time>
      </trkpt>
      <trkpt lat="42.2593780" lon="-7.2985750">
        <ele>1742.8</ele>
        <time>2014-10-01T14:51:25Z</time>
      </trkpt>
      <trkpt lat="42.2593240" lon="-7.2984790">
        <ele>1743.4</ele>
        <time>2014-10-01T14:51:42Z</time>
      </trkpt>
      <trkpt lat="42.2592900" lon="-7.2984730">
        <ele>1743.7</ele>
        <time>2014-10-01T14:51:45Z</time>
      </trkpt>
      <trkpt lat="42.2592450" lon="-7.2984840">
        <ele>1744.0</ele>
        <time>2014-10-01T14:51:56Z</time>
      </trkpt>
      <trkpt lat="42.2592080" lon="-7.2984780">
        <ele>1744.4</ele>
        <time>2014-10-01T14:52:01Z</time>
      </trkpt>
      <trkpt lat="42.2591710" lon="-7.2984680">
        <ele>1745.2</ele>
        <time>2014-10-01T14:52:04Z</time>
      </trkpt>
      <trkpt lat="42.2591390" lon="-7.2984880">
        <ele>1745.6</ele>
        <time>2014-10-01T14:52:06Z</time>
      </trkpt>
      <trkpt lat="42.2591250" lon="-7.2985240">
        <ele>1745.6</ele>
        <time>2014-10-01T14:52:08Z</time>
      </trkpt>
      <trkpt lat="42.2591030" lon="-7.2985620">
        <ele>1746.0</ele>
        <time>2014-10-01T14:52:10Z</time>
      </trkpt>
      <trkpt lat="42.2590640" lon="-7.2986000">
        <ele>1746.2</ele>
        <time>2014-10-01T14:52:12Z</time>
      </trkpt>
      <trkpt lat="42.2590330" lon="-7.2986380">
        <ele>1746.3</ele>
        <time>2014-10-01T14:52:14Z</time>
      </trkpt>
      <trkpt lat="42.2590060" lon="-7.2986860">
        <ele>1746.5</ele>
        <time>2014-10-01T14:52:16Z</time>
      </trkpt>
      <trkpt lat="42.2589830" lon="-7.2987300">
        <ele>1746.7</ele>
        <time>2014-10-01T14:52:18Z</time>
      </trkpt>
      <trkpt lat="42.2589620" lon="-7.2987270">
        <ele>1746.7</ele>
        <time>2014-10-01T14:52:20Z</time>
      </trkpt>
      <trkpt lat="42.2589410" lon="-7.2987240">
        <ele>1746.8</ele>
        <time>2014-10-01T14:52:47Z</time>
      </trkpt>
      <trkpt lat="42.2589200" lon="-7.2987210">
        <ele>1746.9</ele>
        <time>2014-10-01T14:52:48Z</time>
      </trkpt>
      <trkpt lat="42.2589560" lon="-7.2986800">
        <ele>1747.1</ele>
        <time>2014-10-01T14:52:59Z</time>
      </trkpt>
      <trkpt lat="42.2590090" lon="-7.2987080">
        <ele>1747.3</ele>
        <time>2014-10-01T14:53:04Z</time>
      </trkpt>
      <trkpt lat="42.2589880" lon="-7.2986820">
        <ele>1747.4</ele>
        <time>2014-10-01T14:53:08Z</time>
      </trkpt>
      <trkpt lat="42.2589600" lon="-7.2986640">
        <ele>1747.5</ele>
        <time>2014-10-01T14:53:10Z</time>
      </trkpt>
      <trkpt lat="42.2589210" lon="-7.2986630">
        <ele>1747.6</ele>
        <time>2014-10-01T14:53:12Z</time>
      </trkpt>
      <trkpt lat="42.2588940" lon="-7.2986990">
        <ele>1747.8</ele>
        <time>2014-10-01T14:53:14Z</time>
      </trkpt>
      <trkpt lat="42.2588770" lon="-7.2987330">
        <ele>1747.9</ele>
        <time>2014-10-01T14:53:15Z</time>
      </trkpt>
      <trkpt lat="42.2588620" lon="-7.2987640">
        <ele>1748.0</ele>
        <time>2014-10-01T14:53:16Z</time>
      </trkpt>
      <trkpt lat="42.2588350" lon="-7.2988170">
        <ele>1748.1</ele>
        <time>2014-10-01T14:53:18Z</time>
      </trkpt>
      <trkpt lat="42.2588030" lon="-7.2988720">
        <ele>1748.3</ele>
        <time>2014-10-01T14:53:20Z</time>
      </trkpt>
      <trkpt lat="42.2587840" lon="-7.2988990">
        <ele>1748.4</ele>
        <time>2014-10-01T14:53:21Z</time>
      </trkpt>
      <trkpt lat="42.2587510" lon="-7.2989460">
        <ele>1748.5</ele>
        <time>2014-10-01T14:53:23Z</time>
      </trkpt>
      <trkpt lat="42.2587220" lon="-7.2989930">
        <ele>1748.7</ele>
        <time>2014-10-01T14:53:25Z</time>
      </trkpt>
      <trkpt lat="42.2586990" lon="-7.2990200">
        <ele>1748.8</ele>
        <time>2014-10-01T14:53:26Z</time>
      </trkpt>
      <trkpt lat="42.2586760" lon="-7.2990450">
        <ele>1748.9</ele>
        <time>2014-10-01T14:53:27Z</time>
      </trkpt>
      <trkpt lat="42.2586560" lon="-7.2990720">
        <ele>1749.0</ele>
        <time>2014-10-01T14:53:28Z</time>
      </trkpt>
      <trkpt lat="42.2586380" lon="-7.2990990">
        <ele>1749.1</ele>
        <time>2014-10-01T14:53:29Z</time>
      </trkpt>
      <trkpt lat="42.2586170" lon="-7.2991320">
        <ele>1749.2</ele>
        <time>2014-10-01T14:53:30Z</time>
      </trkpt>
      <trkpt lat="42.2585910" lon="-7.2991690">
        <ele>1749.4</ele>
        <time>2014-10-01T14:53:31Z</time>
      </trkpt>
      <trkpt lat="42.2585710" lon="-7.2991980">
        <ele>1749.5</ele>
        <time>2014-10-01T14:53:32Z</time>
      </trkpt>
      <trkpt lat="42.2585500" lon="-7.2992250">
        <ele>1749.6</ele>
        <time>2014-10-01T14:53:33Z</time>
      </trkpt>
      <trkpt lat="42.2585290" lon="-7.2992510">
        <ele>1749.7</ele>
        <time>2014-10-01T14:53:34Z</time>
      </trkpt>
      <trkpt lat="42.2585070" lon="-7.2992790">
        <ele>1749.8</ele>
        <time>2014-10-01T14:53:35Z</time>
      </trkpt>
      <trkpt lat="42.2584850" lon="-7.2993120">
        <ele>1749.9</ele>
        <time>2014-10-01T14:53:36Z</time>
      </trkpt>
      <trkpt lat="42.2584630" lon="-7.2993440">
        <ele>1750.0</ele>
        <time>2014-10-01T14:53:37Z</time>
      </trkpt>
      <trkpt lat="42.2584390" lon="-7.2993780">
        <ele>1750.1</ele>
        <time>2014-10-01T14:53:38Z</time>
      </trkpt>
      <trkpt lat="42.2584170" lon="-7.2994070">
        <ele>1750.2</ele>
        <time>2014-10-01T14:53:39Z</time>
      </trkpt>
      <trkpt lat="42.2583980" lon="-7.2994350">
        <ele>1750.3</ele>
        <time>2014-10-01T14:53:40Z</time>
      </trkpt>
      <trkpt lat="42.2583840" lon="-7.2994720">
        <ele>1750.4</ele>
        <time>2014-10-01T14:53:41Z</time>
      </trkpt>
      <trkpt lat="42.2583690" lon="-7.2995150">
        <ele>1750.5</ele>
        <time>2014-10-01T14:53:42Z</time>
      </trkpt>
      <trkpt lat="42.2583550" lon="-7.2995620">
        <ele>1750.7</ele>
        <time>2014-10-01T14:53:43Z</time>
      </trkpt>
      <trkpt lat="42.2583400" lon="-7.2996080">
        <ele>1750.8</ele>
        <time>2014-10-01T14:53:44Z</time>
      </trkpt>
      <trkpt lat="42.2583250" lon="-7.2996500">
        <ele>1750.9</ele>
        <time>2014-10-01T14:53:45Z</time>
      </trkpt>
      <trkpt lat="42.2583110" lon="-7.2996940">
        <ele>1751.0</ele>
        <time>2014-10-01T14:53:46Z</time>
      </trkpt>
      <trkpt lat="42.2582950" lon="-7.2997380">
        <ele>1751.1</ele>
        <time>2014-10-01T14:53:47Z</time>
      </trkpt>
      <trkpt lat="42.2582800" lon="-7.2997820">
        <ele>1751.2</ele>
        <time>2014-10-01T14:53:48Z</time>
      </trkpt>
      <trkpt lat="42.2582650" lon="-7.2998220">
        <ele>1751.2</ele>
        <time>2014-10-01T14:53:49Z</time>
      </trkpt>
      <trkpt lat="42.2582510" lon="-7.2998600">
        <ele>1751.2</ele>
        <time>2014-10-01T14:53:50Z</time>
      </trkpt>
      <trkpt lat="42.2582370" lon="-7.2998980">
        <ele>1751.3</ele>
        <time>2014-10-01T14:53:51Z</time>
      </trkpt>
      <trkpt lat="42.2582220" lon="-7.2999400">
        <ele>1751.3</ele>
        <time>2014-10-01T14:53:52Z</time>
      </trkpt>
      <trkpt lat="42.2582110" lon="-7.2999790">
        <ele>1751.4</ele>
        <time>2014-10-01T14:53:53Z</time>
      </trkpt>
      <trkpt lat="42.2582010" lon="-7.3000150">
        <ele>1751.5</ele>
        <time>2014-10-01T14:53:54Z</time>
      </trkpt>
      <trkpt lat="42.2581900" lon="-7.3000520">
        <ele>1751.6</ele>
        <time>2014-10-01T14:53:55Z</time>
      </trkpt>
      <trkpt lat="42.2581770" lon="-7.3000890">
        <ele>1751.8</ele>
        <time>2014-10-01T14:53:56Z</time>
      </trkpt>
      <trkpt lat="42.2581630" lon="-7.3001240">
        <ele>1751.9</ele>
        <time>2014-10-01T14:53:57Z</time>
      </trkpt>
      <trkpt lat="42.2581460" lon="-7.3001600">
        <ele>1752.0</ele>
        <time>2014-10-01T14:53:58Z</time>
      </trkpt>
      <trkpt lat="42.2581290" lon="-7.3001970">
        <ele>1752.0</ele>
        <time>2014-10-01T14:53:59Z</time>
      </trkpt>
      <trkpt lat="42.2581100" lon="-7.3002370">
        <ele>1752.1</ele>
        <time>2014-10-01T14:54:00Z</time>
      </trkpt>
      <trkpt lat="42.2580900" lon="-7.3002760">
        <ele>1752.2</ele>
        <time>2014-10-01T14:54:01Z</time>
      </trkpt>
      <trkpt lat="42.2580690" lon="-7.3003170">
        <ele>1752.3</ele>
        <time>2014-10-01T14:54:02Z</time>
      </trkpt>
      <trkpt lat="42.2580470" lon="-7.3003570">
        <ele>1752.4</ele>
        <time>2014-10-01T14:54:03Z</time>
      </trkpt>
      <trkpt lat="42.2580260" lon="-7.3003990">
        <ele>1752.4</ele>
        <time>2014-10-01T14:54:04Z</time>
      </trkpt>
      <trkpt lat="42.2580060" lon="-7.3004370">
        <ele>1752.5</ele>
        <time>2014-10-01T14:54:05Z</time>
      </trkpt>
      <trkpt lat="42.2579880" lon="-7.3004750">
        <ele>1752.5</ele>
        <time>2014-10-01T14:54:06Z</time>
      </trkpt>
      <trkpt lat="42.2579630" lon="-7.3005250">
        <ele>1752.6</ele>
        <time>2014-10-01T14:54:07Z</time>
      </trkpt>
      <trkpt lat="42.2579430" lon="-7.3005670">
        <ele>1752.7</ele>
        <time>2014-10-01T14:54:08Z</time>
      </trkpt>
      <trkpt lat="42.2579250" lon="-7.3006050">
        <ele>1752.7</ele>
        <time>2014-10-01T14:54:09Z</time>
      </trkpt>
      <trkpt lat="42.2579090" lon="-7.3006430">
        <ele>1752.8</ele>
        <time>2014-10-01T14:54:10Z</time>
      </trkpt>
      <trkpt lat="42.2578890" lon="-7.3006870">
        <ele>1752.9</ele>
        <time>2014-10-01T14:54:11Z</time>
      </trkpt>
      <trkpt lat="42.2578660" lon="-7.3007350">
        <ele>1753.0</ele>
        <time>2014-10-01T14:54:12Z</time>
      </trkpt>
      <trkpt lat="42.2578430" lon="-7.3007820">
        <ele>1753.1</ele>
        <time>2014-10-01T14:54:13Z</time>
      </trkpt>
      <trkpt lat="42.2578190" lon="-7.3008350">
        <ele>1753.2</ele>
        <time>2014-10-01T14:54:14Z</time>
      </trkpt>
      <trkpt lat="42.2577940" lon="-7.3008890">
        <ele>1753.3</ele>
        <time>2014-10-01T14:54:15Z</time>
      </trkpt>
      <trkpt lat="42.2577720" lon="-7.3009420">
        <ele>1753.3</ele>
        <time>2014-10-01T14:54:16Z</time>
      </trkpt>
      <trkpt lat="42.2577570" lon="-7.3009860">
        <ele>1753.4</ele>
        <time>2014-10-01T14:54:17Z</time>
      </trkpt>
      <trkpt lat="42.2577410" lon="-7.3010340">
        <ele>1753.4</ele>
        <time>2014-10-01T14:54:18Z</time>
      </trkpt>
      <trkpt lat="42.2577260" lon="-7.3010870">
        <ele>1753.4</ele>
        <time>2014-10-01T14:54:19Z</time>
      </trkpt>
      <trkpt lat="42.2577100" lon="-7.3011420">
        <ele>1753.5</ele>
        <time>2014-10-01T14:54:20Z</time>
      </trkpt>
      <trkpt lat="42.2576930" lon="-7.3011980">
        <ele>1753.5</ele>
        <time>2014-10-01T14:54:21Z</time>
      </trkpt>
      <trkpt lat="42.2576770" lon="-7.3012540">
        <ele>1753.5</ele>
        <time>2014-10-01T14:54:22Z</time>
      </trkpt>
      <trkpt lat="42.2576630" lon="-7.3013140">
        <ele>1753.5</ele>
        <time>2014-10-01T14:54:23Z</time>
      </trkpt>
      <trkpt lat="42.2576490" lon="-7.3013810">
        <ele>1753.4</ele>
        <time>2014-10-01T14:54:24Z</time>
      </trkpt>
      <trkpt lat="42.2576380" lon="-7.3014440">
        <ele>1753.4</ele>
        <time>2014-10-01T14:54:25Z</time>
      </trkpt>
      <trkpt lat="42.2576270" lon="-7.3015100">
        <ele>1753.3</ele>
        <time>2014-10-01T14:54:26Z</time>
      </trkpt>
      <trkpt lat="42.2576160" lon="-7.3015770">
        <ele>1753.2</ele>
        <time>2014-10-01T14:54:27Z</time>
      </trkpt>
      <trkpt lat="42.2576080" lon="-7.3016370">
        <ele>1753.2</ele>
        <time>2014-10-01T14:54:28Z</time>
      </trkpt>
      <trkpt lat="42.2575990" lon="-7.3017030">
        <ele>1753.1</ele>
        <time>2014-10-01T14:54:29Z</time>
      </trkpt>
      <trkpt lat="42.2575920" lon="-7.3017840">
        <ele>1752.9</ele>
        <time>2014-10-01T14:54:30Z</time>
      </trkpt>
      <trkpt lat="42.2575850" lon="-7.3018660">
        <ele>1752.7</ele>
        <time>2014-10-01T14:54:31Z</time>
      </trkpt>
      <trkpt lat="42.2575820" lon="-7.3019470">
        <ele>1752.4</ele>
        <time>2014-10-01T14:54:32Z</time>
      </trkpt>
      <trkpt lat="42.2575860" lon="-7.3020350">
        <ele>1752.2</ele>
        <time>2014-10-01T14:54:33Z</time>
      </trkpt>
      <trkpt lat="42.2575960" lon="-7.3021200">
        <ele>1752.0</ele>
        <time>2014-10-01T14:54:34Z</time>
      </trkpt>
      <trkpt lat="42.2576120" lon="-7.3022090">
        <ele>1751.7</ele>
        <time>2014-10-01T14:54:35Z</time>
      </trkpt>
      <trkpt lat="42.2576340" lon="-7.3023000">
        <ele>1751.4</ele>
        <time>2014-10-01T14:54:36Z</time>
      </trkpt>
      <trkpt lat="42.2576620" lon="-7.3023920">
        <ele>1751.1</ele>
        <time>2014-10-01T14:54:37Z</time>
      </trkpt>
      <trkpt lat="42.2576950" lon="-7.3024860">
        <ele>1750.8</ele>
        <time>2014-10-01T14:54:38Z</time>
      </trkpt>
      <trkpt lat="42.2577280" lon="-7.3025710">
        <ele>1750.5</ele>
        <time>2014-10-01T14:54:39Z</time>
      </trkpt>
      <trkpt lat="42.2577740" lon="-7.3026520">
        <ele>1750.1</ele>
        <time>2014-10-01T14:54:40Z</time>
      </trkpt>
      <trkpt lat="42.2578230" lon="-7.3027330">
        <ele>1749.9</ele>
        <time>2014-10-01T14:54:41Z</time>
      </trkpt>
      <trkpt lat="42.2578770" lon="-7.3028180">
        <ele>1749.6</ele>
        <time>2014-10-01T14:54:42Z</time>
      </trkpt>
      <trkpt lat="42.2579340" lon="-7.3028970">
        <ele>1749.3</ele>
        <time>2014-10-01T14:54:43Z</time>
      </trkpt>
      <trkpt lat="42.2580000" lon="-7.3029550">
        <ele>1749.0</ele>
        <time>2014-10-01T14:54:44Z</time>
      </trkpt>
      <trkpt lat="42.2580700" lon="-7.3030100">
        <ele>1748.7</ele>
        <time>2014-10-01T14:54:45Z</time>
      </trkpt>
      <trkpt lat="42.2581440" lon="-7.3030600">
        <ele>1748.3</ele>
        <time>2014-10-01T14:54:46Z</time>
      </trkpt>
      <trkpt lat="42.2582200" lon="-7.3031030">
        <ele>1747.9</ele>
        <time>2014-10-01T14:54:47Z</time>
      </trkpt>
      <trkpt lat="42.2582980" lon="-7.3031410">
        <ele>1747.5</ele>
        <time>2014-10-01T14:54:48Z</time>
      </trkpt>
      <trkpt lat="42.2583810" lon="-7.3031760">
        <ele>1747.0</ele>
        <time>2014-10-01T14:54:49Z</time>
      </trkpt>
      <trkpt lat="42.2584710" lon="-7.3032060">
        <ele>1746.5</ele>
        <time>2014-10-01T14:54:50Z</time>
      </trkpt>
      <trkpt lat="42.2585600" lon="-7.3032110">
        <ele>1746.0</ele>
        <time>2014-10-01T14:54:51Z</time>
      </trkpt>
      <trkpt lat="42.2586430" lon="-7.3032120">
        <ele>1745.5</ele>
        <time>2014-10-01T14:54:52Z</time>
      </trkpt>
      <trkpt lat="42.2587270" lon="-7.3032080">
        <ele>1745.0</ele>
        <time>2014-10-01T14:54:53Z</time>
      </trkpt>
      <trkpt lat="42.2588130" lon="-7.3031970">
        <ele>1744.5</ele>
        <time>2014-10-01T14:54:54Z</time>
      </trkpt>
      <trkpt lat="42.2589020" lon="-7.3031790">
        <ele>1743.9</ele>
        <time>2014-10-01T14:54:55Z</time>
      </trkpt>
      <trkpt lat="42.2589940" lon="-7.3031580">
        <ele>1743.3</ele>
        <time>2014-10-01T14:54:56Z</time>
      </trkpt>
      <trkpt lat="42.2590860" lon="-7.3031300">
        <ele>1742.7</ele>
        <time>2014-10-01T14:54:57Z</time>
      </trkpt>
      <trkpt lat="42.2591780" lon="-7.3030940">
        <ele>1742.1</ele>
        <time>2014-10-01T14:54:58Z</time>
      </trkpt>
      <trkpt lat="42.2592630" lon="-7.3030510">
        <ele>1741.5</ele>
        <time>2014-10-01T14:54:59Z</time>
      </trkpt>
      <trkpt lat="42.2593490" lon="-7.3030010">
        <ele>1740.9</ele>
        <time>2014-10-01T14:55:00Z</time>
      </trkpt>
      <trkpt lat="42.2594380" lon="-7.3029440">
        <ele>1740.2</ele>
        <time>2014-10-01T14:55:01Z</time>
      </trkpt>
      <trkpt lat="42.2595300" lon="-7.3028850">
        <ele>1739.5</ele>
        <time>2014-10-01T14:55:02Z</time>
      </trkpt>
      <trkpt lat="42.2596220" lon="-7.3028270">
        <ele>1738.7</ele>
        <time>2014-10-01T14:55:03Z</time>
      </trkpt>
      <trkpt lat="42.2597160" lon="-7.3027650">
        <ele>1738.0</ele>
        <time>2014-10-01T14:55:04Z</time>
      </trkpt>
      <trkpt lat="42.2598090" lon="-7.3027050">
        <ele>1737.2</ele>
        <time>2014-10-01T14:55:05Z</time>
      </trkpt>
      <trkpt lat="42.2598980" lon="-7.3026450">
        <ele>1736.5</ele>
        <time>2014-10-01T14:55:06Z</time>
      </trkpt>
      <trkpt lat="42.2599900" lon="-7.3025830">
        <ele>1735.8</ele>
        <time>2014-10-01T14:55:07Z</time>
      </trkpt>
      <trkpt lat="42.2600810" lon="-7.3025160">
        <ele>1735.0</ele>
        <time>2014-10-01T14:55:08Z</time>
      </trkpt>
      <trkpt lat="42.2601740" lon="-7.3024490">
        <ele>1734.2</ele>
        <time>2014-10-01T14:55:09Z</time>
      </trkpt>
      <trkpt lat="42.2602730" lon="-7.3023800">
        <ele>1733.2</ele>
        <time>2014-10-01T14:55:10Z</time>
      </trkpt>
      <trkpt lat="42.2603630" lon="-7.3023160">
        <ele>1732.4</ele>
        <time>2014-10-01T14:55:11Z</time>
      </trkpt>
      <trkpt lat="42.2604530" lon="-7.3022600">
        <ele>1731.7</ele>
        <time>2014-10-01T14:55:12Z</time>
      </trkpt>
      <trkpt lat="42.2605370" lon="-7.3022170">
        <ele>1730.9</ele>
        <time>2014-10-01T14:55:13Z</time>
      </trkpt>
      <trkpt lat="42.2606310" lon="-7.3021980">
        <ele>1730.1</ele>
        <time>2014-10-01T14:55:14Z</time>
      </trkpt>
      <trkpt lat="42.2607200" lon="-7.3021860">
        <ele>1729.2</ele>
        <time>2014-10-01T14:55:15Z</time>
      </trkpt>
      <trkpt lat="42.2608140" lon="-7.3021840">
        <ele>1728.4</ele>
        <time>2014-10-01T14:55:16Z</time>
      </trkpt>
      <trkpt lat="42.2609090" lon="-7.3021920">
        <ele>1727.7</ele>
        <time>2014-10-01T14:55:17Z</time>
      </trkpt>
      <trkpt lat="42.2609960" lon="-7.3022070">
        <ele>1726.9</ele>
        <time>2014-10-01T14:55:18Z</time>
      </trkpt>
      <trkpt lat="42.2610920" lon="-7.3022310">
        <ele>1725.9</ele>
        <time>2014-10-01T14:55:19Z</time>
      </trkpt>
      <trkpt lat="42.2611880" lon="-7.3022630">
        <ele>1724.9</ele>
        <time>2014-10-01T14:55:20Z</time>
      </trkpt>
      <trkpt lat="42.2612840" lon="-7.3022990">
        <ele>1724.0</ele>
        <time>2014-10-01T14:55:21Z</time>
      </trkpt>
      <trkpt lat="42.2613820" lon="-7.3023370">
        <ele>1723.0</ele>
        <time>2014-10-01T14:55:22Z</time>
      </trkpt>
      <trkpt lat="42.2614800" lon="-7.3023780">
        <ele>1722.0</ele>
        <time>2014-10-01T14:55:23Z</time>
      </trkpt>
      <trkpt lat="42.2615760" lon="-7.3024160">
        <ele>1721.0</ele>
        <time>2014-10-01T14:55:24Z</time>
      </trkpt>
      <trkpt lat="42.2616700" lon="-7.3024450">
        <ele>1720.1</ele>
        <time>2014-10-01T14:55:25Z</time>
      </trkpt>
      <trkpt lat="42.2617600" lon="-7.3024650">
        <ele>1719.3</ele>
        <time>2014-10-01T14:55:26Z</time>
      </trkpt>
      <trkpt lat="42.2618540" lon="-7.3024760">
        <ele>1718.6</ele>
        <time>2014-10-01T14:55:27Z</time>
      </trkpt>
      <trkpt lat="42.2619430" lon="-7.3024750">
        <ele>1717.9</ele>
        <time>2014-10-01T14:55:28Z</time>
      </trkpt>
      <trkpt lat="42.2620360" lon="-7.3024660">
        <ele>1717.0</ele>
        <time>2014-10-01T14:55:29Z</time>
      </trkpt>
      <trkpt lat="42.2621220" lon="-7.3024500">
        <ele>1716.2</ele>
        <time>2014-10-01T14:55:30Z</time>
      </trkpt>
      <trkpt lat="42.2622100" lon="-7.3024300">
        <ele>1715.3</ele>
        <time>2014-10-01T14:55:31Z</time>
      </trkpt>
      <trkpt lat="42.2622940" lon="-7.3024130">
        <ele>1714.4</ele>
        <time>2014-10-01T14:55:32Z</time>
      </trkpt>
      <trkpt lat="42.2623790" lon="-7.3024040">
        <ele>1713.6</ele>
        <time>2014-10-01T14:55:33Z</time>
      </trkpt>
      <trkpt lat="42.2624630" lon="-7.3024090">
        <ele>1712.7</ele>
        <time>2014-10-01T14:55:34Z</time>
      </trkpt>
      <trkpt lat="42.2625400" lon="-7.3024250">
        <ele>1711.8</ele>
        <time>2014-10-01T14:55:35Z</time>
      </trkpt>
      <trkpt lat="42.2626130" lon="-7.3024470">
        <ele>1711.0</ele>
        <time>2014-10-01T14:55:36Z</time>
      </trkpt>
      <trkpt lat="42.2626780" lon="-7.3024730">
        <ele>1710.3</ele>
        <time>2014-10-01T14:55:37Z</time>
      </trkpt>
      <trkpt lat="42.2627350" lon="-7.3024990">
        <ele>1709.6</ele>
        <time>2014-10-01T14:55:38Z</time>
      </trkpt>
      <trkpt lat="42.2627890" lon="-7.3025250">
        <ele>1709.1</ele>
        <time>2014-10-01T14:55:39Z</time>
      </trkpt>
      <trkpt lat="42.2628380" lon="-7.3025520">
        <ele>1708.6</ele>
        <time>2014-10-01T14:55:40Z</time>
      </trkpt>
      <trkpt lat="42.2628850" lon="-7.3025800">
        <ele>1708.0</ele>
        <time>2014-10-01T14:55:41Z</time>
      </trkpt>
      <trkpt lat="42.2629310" lon="-7.3026100">
        <ele>1707.5</ele>
        <time>2014-10-01T14:55:42Z</time>
      </trkpt>
      <trkpt lat="42.2629720" lon="-7.3026390">
        <ele>1707.1</ele>
        <time>2014-10-01T14:55:43Z</time>
      </trkpt>
      <trkpt lat="42.2630050" lon="-7.3026620">
        <ele>1706.8</ele>
        <time>2014-10-01T14:55:44Z</time>
      </trkpt>
      <trkpt lat="42.2630350" lon="-7.3026840">
        <ele>1706.5</ele>
        <time>2014-10-01T14:55:45Z</time>
      </trkpt>
      <trkpt lat="42.2630650" lon="-7.3027050">
        <ele>1706.2</ele>
        <time>2014-10-01T14:55:46Z</time>
      </trkpt>
      <trkpt lat="42.2630980" lon="-7.3027280">
        <ele>1705.9</ele>
        <time>2014-10-01T14:55:47Z</time>
      </trkpt>
      <trkpt lat="42.2631360" lon="-7.3027500">
        <ele>1705.5</ele>
        <time>2014-10-01T14:55:48Z</time>
      </trkpt>
      <trkpt lat="42.2631820" lon="-7.3027730">
        <ele>1705.2</ele>
        <time>2014-10-01T14:55:49Z</time>
      </trkpt>
      <trkpt lat="42.2632270" lon="-7.3027940">
        <ele>1704.8</ele>
        <time>2014-10-01T14:55:50Z</time>
      </trkpt>
      <trkpt lat="42.2632800" lon="-7.3028220">
        <ele>1704.4</ele>
        <time>2014-10-01T14:55:51Z</time>
      </trkpt>
      <trkpt lat="42.2633340" lon="-7.3028500">
        <ele>1704.0</ele>
        <time>2014-10-01T14:55:52Z</time>
      </trkpt>
      <trkpt lat="42.2633920" lon="-7.3028790">
        <ele>1703.6</ele>
        <time>2014-10-01T14:55:53Z</time>
      </trkpt>
      <trkpt lat="42.2634510" lon="-7.3029090">
        <ele>1703.2</ele>
        <time>2014-10-01T14:55:54Z</time>
      </trkpt>
      <trkpt lat="42.2635130" lon="-7.3029370">
        <ele>1702.8</ele>
        <time>2014-10-01T14:55:55Z</time>
      </trkpt>
      <trkpt lat="42.2635780" lon="-7.3029620">
        <ele>1702.4</ele>
        <time>2014-10-01T14:55:56Z</time>
      </trkpt>
      <trkpt lat="42.2636450" lon="-7.3029850">
        <ele>1702.0</ele>
        <time>2014-10-01T14:55:57Z</time>
      </trkpt>
      <trkpt lat="42.2637130" lon="-7.3030050">
        <ele>1701.8</ele>
        <time>2014-10-01T14:55:58Z</time>
      </trkpt>
      <trkpt lat="42.2637830" lon="-7.3030210">
        <ele>1701.6</ele>
        <time>2014-10-01T14:55:59Z</time>
      </trkpt>
      <trkpt lat="42.2638530" lon="-7.3030340">
        <ele>1701.4</ele>
        <time>2014-10-01T14:56:00Z</time>
      </trkpt>
      <trkpt lat="42.2639240" lon="-7.3030430">
        <ele>1701.1</ele>
        <time>2014-10-01T14:56:01Z</time>
      </trkpt>
      <trkpt lat="42.2639910" lon="-7.3030470">
        <ele>1700.8</ele>
        <time>2014-10-01T14:56:02Z</time>
      </trkpt>
      <trkpt lat="42.2640570" lon="-7.3030490">
        <ele>1700.4</ele>
        <time>2014-10-01T14:56:03Z</time>
      </trkpt>
      <trkpt lat="42.2641220" lon="-7.3030520">
        <ele>1700.0</ele>
        <time>2014-10-01T14:56:04Z</time>
      </trkpt>
      <trkpt lat="42.2641870" lon="-7.3030560">
        <ele>1699.5</ele>
        <time>2014-10-01T14:56:05Z</time>
      </trkpt>
      <trkpt lat="42.2642510" lon="-7.3030820">
        <ele>1698.9</ele>
        <time>2014-10-01T14:56:06Z</time>
      </trkpt>
      <trkpt lat="42.2643080" lon="-7.3031250">
        <ele>1698.2</ele>
        <time>2014-10-01T14:56:07Z</time>
      </trkpt>
      <trkpt lat="42.2643530" lon="-7.3031880">
        <ele>1697.6</ele>
        <time>2014-10-01T14:56:08Z</time>
      </trkpt>
      <trkpt lat="42.2643760" lon="-7.3032760">
        <ele>1696.9</ele>
        <time>2014-10-01T14:56:09Z</time>
      </trkpt>
      <trkpt lat="42.2643840" lon="-7.3033770">
        <ele>1696.2</ele>
        <time>2014-10-01T14:56:10Z</time>
      </trkpt>
      <trkpt lat="42.2643850" lon="-7.3034890">
        <ele>1695.3</ele>
        <time>2014-10-01T14:56:11Z</time>
      </trkpt>
      <trkpt lat="42.2643640" lon="-7.3036000">
        <ele>1694.5</ele>
        <time>2014-10-01T14:56:12Z</time>
      </trkpt>
      <trkpt lat="42.2643420" lon="-7.3037150">
        <ele>1693.6</ele>
        <time>2014-10-01T14:56:13Z</time>
      </trkpt>
      <trkpt lat="42.2643130" lon="-7.3038330">
        <ele>1692.7</ele>
        <time>2014-10-01T14:56:14Z</time>
      </trkpt>
      <trkpt lat="42.2642870" lon="-7.3039390">
        <ele>1691.9</ele>
        <time>2014-10-01T14:56:15Z</time>
      </trkpt>
      <trkpt lat="42.2642660" lon="-7.3040450">
        <ele>1691.1</ele>
        <time>2014-10-01T14:56:16Z</time>
      </trkpt>
      <trkpt lat="42.2642740" lon="-7.3041330">
        <ele>1690.4</ele>
        <time>2014-10-01T14:56:17Z</time>
      </trkpt>
      <trkpt lat="42.2643180" lon="-7.3042010">
        <ele>1689.8</ele>
        <time>2014-10-01T14:56:18Z</time>
      </trkpt>
      <trkpt lat="42.2643850" lon="-7.3042340">
        <ele>1689.1</ele>
        <time>2014-10-01T14:56:19Z</time>
      </trkpt>
      <trkpt lat="42.2644650" lon="-7.3042340">
        <ele>1688.3</ele>
        <time>2014-10-01T14:56:20Z</time>
      </trkpt>
      <trkpt lat="42.2645420" lon="-7.3042270">
        <ele>1687.5</ele>
        <time>2014-10-01T14:56:21Z</time>
      </trkpt>
      <trkpt lat="42.2646050" lon="-7.3042120">
        <ele>1686.9</ele>
        <time>2014-10-01T14:56:22Z</time>
      </trkpt>
      <trkpt lat="42.2646590" lon="-7.3041980">
        <ele>1686.3</ele>
        <time>2014-10-01T14:56:23Z</time>
      </trkpt>
      <trkpt lat="42.2646920" lon="-7.3041980">
        <ele>1686.0</ele>
        <time>2014-10-01T14:56:24Z</time>
      </trkpt>
      <trkpt lat="42.2647300" lon="-7.3042040">
        <ele>1685.6</ele>
        <time>2014-10-01T14:58:07Z</time>
      </trkpt>
      <trkpt lat="42.2647780" lon="-7.3041850">
        <ele>1685.1</ele>
        <time>2014-10-01T14:58:09Z</time>
      </trkpt>
      <trkpt lat="42.2648090" lon="-7.3041750">
        <ele>1684.8</ele>
        <time>2014-10-01T14:58:10Z</time>
      </trkpt>
      <trkpt lat="42.2648460" lon="-7.3041640">
        <ele>1684.4</ele>
        <time>2014-10-01T14:58:11Z</time>
      </trkpt>
      <trkpt lat="42.2648920" lon="-7.3041520">
        <ele>1683.9</ele>
        <time>2014-10-01T14:58:12Z</time>
      </trkpt>
      <trkpt lat="42.2649430" lon="-7.3041410">
        <ele>1683.4</ele>
        <time>2014-10-01T14:58:13Z</time>
      </trkpt>
      <trkpt lat="42.2650030" lon="-7.3041340">
        <ele>1682.8</ele>
        <time>2014-10-01T14:58:14Z</time>
      </trkpt>
      <trkpt lat="42.2650690" lon="-7.3041270">
        <ele>1682.2</ele>
        <time>2014-10-01T14:58:15Z</time>
      </trkpt>
      <trkpt lat="42.2651420" lon="-7.3041220">
        <ele>1681.5</ele>
        <time>2014-10-01T14:58:16Z</time>
      </trkpt>
      <trkpt lat="42.2652210" lon="-7.3041190">
        <ele>1680.7</ele>
        <time>2014-10-01T14:58:17Z</time>
      </trkpt>
      <trkpt lat="42.2653070" lon="-7.3041180">
        <ele>1679.8</ele>
        <time>2014-10-01T14:58:18Z</time>
      </trkpt>
      <trkpt lat="42.2653910" lon="-7.3041170">
        <ele>1679.0</ele>
        <time>2014-10-01T14:58:19Z</time>
      </trkpt>
      <trkpt lat="42.2654800" lon="-7.3041170">
        <ele>1678.1</ele>
        <time>2014-10-01T14:58:20Z</time>
      </trkpt>
      <trkpt lat="42.2655690" lon="-7.3041140">
        <ele>1677.2</ele>
        <time>2014-10-01T14:58:21Z</time>
      </trkpt>
      <trkpt lat="42.2656650" lon="-7.3041090">
        <ele>1676.3</ele>
        <time>2014-10-01T14:58:22Z</time>
      </trkpt>
      <trkpt lat="42.2657660" lon="-7.3041050">
        <ele>1675.3</ele>
        <time>2014-10-01T14:58:23Z</time>
      </trkpt>
      <trkpt lat="42.2658740" lon="-7.3041020">
        <ele>1674.2</ele>
        <time>2014-10-01T14:58:24Z</time>
      </trkpt>
      <trkpt lat="42.2659840" lon="-7.3040990">
        <ele>1673.1</ele>
        <time>2014-10-01T14:58:25Z</time>
      </trkpt>
      <trkpt lat="42.2660950" lon="-7.3040960">
        <ele>1672.0</ele>
        <time>2014-10-01T14:58:26Z</time>
      </trkpt>
      <trkpt lat="42.2662060" lon="-7.3040880">
        <ele>1670.9</ele>
        <time>2014-10-01T14:58:27Z</time>
      </trkpt>
      <trkpt lat="42.2663220" lon="-7.3040810">
        <ele>1669.7</ele>
        <time>2014-10-01T14:58:28Z</time>
      </trkpt>
      <trkpt lat="42.2664400" lon="-7.3040710">
        <ele>1668.6</ele>
        <time>2014-10-01T14:58:29Z</time>
      </trkpt>
      <trkpt lat="42.2665610" lon="-7.3040570">
        <ele>1667.4</ele>
        <time>2014-10-01T14:58:30Z</time>
      </trkpt>
      <trkpt lat="42.2666780" lon="-7.3040330">
        <ele>1666.2</ele>
        <time>2014-10-01T14:58:31Z</time>
      </trkpt>
      <trkpt lat="42.2668010" lon="-7.3040010">
        <ele>1664.9</ele>
        <time>2014-10-01T14:58:32Z</time>
      </trkpt>
      <trkpt lat="42.2669190" lon="-7.3039590">
        <ele>1663.7</ele>
        <time>2014-10-01T14:58:33Z</time>
      </trkpt>
      <trkpt lat="42.2670360" lon="-7.3039030">
        <ele>1662.5</ele>
        <time>2014-10-01T14:58:34Z</time>
      </trkpt>
      <trkpt lat="42.2671460" lon="-7.3038370">
        <ele>1661.3</ele>
        <time>2014-10-01T14:58:35Z</time>
      </trkpt>
      <trkpt lat="42.2672290" lon="-7.3037730">
        <ele>1660.3</ele>
        <time>2014-10-01T14:58:36Z</time>
      </trkpt>
      <trkpt lat="42.2673100" lon="-7.3037230">
        <ele>1659.5</ele>
        <time>2014-10-01T14:58:37Z</time>
      </trkpt>
      <trkpt lat="42.2673920" lon="-7.3037220">
        <ele>1658.6</ele>
        <time>2014-10-01T14:58:38Z</time>
      </trkpt>
      <trkpt lat="42.2674750" lon="-7.3037680">
        <ele>1657.8</ele>
        <time>2014-10-01T14:58:39Z</time>
      </trkpt>
      <trkpt lat="42.2675220" lon="-7.3038510">
        <ele>1657.0</ele>
        <time>2014-10-01T14:58:40Z</time>
      </trkpt>
      <trkpt lat="42.2675380" lon="-7.3039640">
        <ele>1656.1</ele>
        <time>2014-10-01T14:58:41Z</time>
      </trkpt>
      <trkpt lat="42.2675350" lon="-7.3040900">
        <ele>1655.2</ele>
        <time>2014-10-01T14:58:42Z</time>
      </trkpt>
      <trkpt lat="42.2675240" lon="-7.3042230">
        <ele>1654.2</ele>
        <time>2014-10-01T14:58:43Z</time>
      </trkpt>
      <trkpt lat="42.2674810" lon="-7.3043700">
        <ele>1653.1</ele>
        <time>2014-10-01T14:58:44Z</time>
      </trkpt>
      <trkpt lat="42.2674320" lon="-7.3045150">
        <ele>1651.9</ele>
        <time>2014-10-01T14:58:45Z</time>
      </trkpt>
      <trkpt lat="42.2673730" lon="-7.3046610">
        <ele>1650.7</ele>
        <time>2014-10-01T14:58:46Z</time>
      </trkpt>
      <trkpt lat="42.2673060" lon="-7.3048040">
        <ele>1649.4</ele>
        <time>2014-10-01T14:58:47Z</time>
      </trkpt>
      <trkpt lat="42.2672350" lon="-7.3049460">
        <ele>1648.2</ele>
        <time>2014-10-01T14:58:48Z</time>
      </trkpt>
      <trkpt lat="42.2671600" lon="-7.3050870">
        <ele>1646.9</ele>
        <time>2014-10-01T14:58:49Z</time>
      </trkpt>
      <trkpt lat="42.2670870" lon="-7.3052240">
        <ele>1645.7</ele>
        <time>2014-10-01T14:58:50Z</time>
      </trkpt>
      <trkpt lat="42.2670120" lon="-7.3053510">
        <ele>1644.5</ele>
        <time>2014-10-01T14:58:51Z</time>
      </trkpt>
      <trkpt lat="42.2669350" lon="-7.3054650">
        <ele>1643.3</ele>
        <time>2014-10-01T14:58:52Z</time>
      </trkpt>
      <trkpt lat="42.2668580" lon="-7.3055680">
        <ele>1642.3</ele>
        <time>2014-10-01T14:58:53Z</time>
      </trkpt>
      <trkpt lat="42.2667870" lon="-7.3056550">
        <ele>1641.3</ele>
        <time>2014-10-01T14:58:54Z</time>
      </trkpt>
      <trkpt lat="42.2667240" lon="-7.3057350">
        <ele>1640.4</ele>
        <time>2014-10-01T14:58:55Z</time>
      </trkpt>
      <trkpt lat="42.2666900" lon="-7.3058140">
        <ele>1639.8</ele>
        <time>2014-10-01T14:58:56Z</time>
      </trkpt>
      <trkpt lat="42.2666880" lon="-7.3058870">
        <ele>1639.2</ele>
        <time>2014-10-01T14:58:57Z</time>
      </trkpt>
      <trkpt lat="42.2667110" lon="-7.3059480">
        <ele>1638.7</ele>
        <time>2014-10-01T14:58:58Z</time>
      </trkpt>
      <trkpt lat="42.2667510" lon="-7.3059970">
        <ele>1638.2</ele>
        <time>2014-10-01T14:58:59Z</time>
      </trkpt>
      <trkpt lat="42.2668280" lon="-7.3059850">
        <ele>1637.4</ele>
        <time>2014-10-01T14:59:00Z</time>
      </trkpt>
      <trkpt lat="42.2669100" lon="-7.3059410">
        <ele>1636.6</ele>
        <time>2014-10-01T14:59:01Z</time>
      </trkpt>
      <trkpt lat="42.2670110" lon="-7.3058950">
        <ele>1635.5</ele>
        <time>2014-10-01T14:59:02Z</time>
      </trkpt>
      <trkpt lat="42.2671090" lon="-7.3058480">
        <ele>1634.5</ele>
        <time>2014-10-01T14:59:03Z</time>
      </trkpt>
      <trkpt lat="42.2672030" lon="-7.3058030">
        <ele>1633.5</ele>
        <time>2014-10-01T14:59:04Z</time>
      </trkpt>
      <trkpt lat="42.2672960" lon="-7.3057620">
        <ele>1632.5</ele>
        <time>2014-10-01T14:59:05Z</time>
      </trkpt>
      <trkpt lat="42.2673820" lon="-7.3057270">
        <ele>1631.6</ele>
        <time>2014-10-01T14:59:06Z</time>
      </trkpt>
      <trkpt lat="42.2674770" lon="-7.3056920">
        <ele>1630.6</ele>
        <time>2014-10-01T14:59:07Z</time>
      </trkpt>
      <trkpt lat="42.2675750" lon="-7.3056610">
        <ele>1629.6</ele>
        <time>2014-10-01T14:59:08Z</time>
      </trkpt>
      <trkpt lat="42.2676780" lon="-7.3056370">
        <ele>1628.6</ele>
        <time>2014-10-01T14:59:09Z</time>
      </trkpt>
      <trkpt lat="42.2677850" lon="-7.3056220">
        <ele>1627.5</ele>
        <time>2014-10-01T14:59:10Z</time>
      </trkpt>
      <trkpt lat="42.2678900" lon="-7.3056060">
        <ele>1626.5</ele>
        <time>2014-10-01T14:59:11Z</time>
      </trkpt>
      <trkpt lat="42.2679900" lon="-7.3055920">
        <ele>1625.5</ele>
        <time>2014-10-01T14:59:12Z</time>
      </trkpt>
      <trkpt lat="42.2680820" lon="-7.3055800">
        <ele>1624.6</ele>
        <time>2014-10-01T14:59:13Z</time>
      </trkpt>
      <trkpt lat="42.2681630" lon="-7.3055930">
        <ele>1623.7</ele>
        <time>2014-10-01T14:59:14Z</time>
      </trkpt>
      <trkpt lat="42.2682270" lon="-7.3056330">
        <ele>1623.0</ele>
        <time>2014-10-01T14:59:15Z</time>
      </trkpt>
      <trkpt lat="42.2682730" lon="-7.3057160">
        <ele>1622.3</ele>
        <time>2014-10-01T14:59:16Z</time>
      </trkpt>
      <trkpt lat="42.2682920" lon="-7.3058050">
        <ele>1621.6</ele>
        <time>2014-10-01T14:59:17Z</time>
      </trkpt>
      <trkpt lat="42.2682660" lon="-7.3058960">
        <ele>1620.9</ele>
        <time>2014-10-01T14:59:18Z</time>
      </trkpt>
      <trkpt lat="42.2682140" lon="-7.3059730">
        <ele>1620.1</ele>
        <time>2014-10-01T14:59:19Z</time>
      </trkpt>
      <trkpt lat="42.2681490" lon="-7.3060410">
        <ele>1619.3</ele>
        <time>2014-10-01T14:59:20Z</time>
      </trkpt>
      <trkpt lat="42.2680740" lon="-7.3061090">
        <ele>1618.4</ele>
        <time>2014-10-01T14:59:21Z</time>
      </trkpt>
      <trkpt lat="42.2679850" lon="-7.3061930">
        <ele>1617.3</ele>
        <time>2014-10-01T14:59:22Z</time>
      </trkpt>
      <trkpt lat="42.2678980" lon="-7.3062760">
        <ele>1616.3</ele>
        <time>2014-10-01T14:59:23Z</time>
      </trkpt>
      <trkpt lat="42.2678080" lon="-7.3063680">
        <ele>1615.2</ele>
        <time>2014-10-01T14:59:24Z</time>
      </trkpt>
      <trkpt lat="42.2677180" lon="-7.3064700">
        <ele>1614.0</ele>
        <time>2014-10-01T14:59:25Z</time>
      </trkpt>
      <trkpt lat="42.2676270" lon="-7.3065800">
        <ele>1612.8</ele>
        <time>2014-10-01T14:59:26Z</time>
      </trkpt>
      <trkpt lat="42.2675410" lon="-7.3066930">
        <ele>1611.4</ele>
        <time>2014-10-01T14:59:27Z</time>
      </trkpt>
      <trkpt lat="42.2674510" lon="-7.3068110">
        <ele>1610.4</ele>
        <time>2014-10-01T14:59:28Z</time>
      </trkpt>
      <trkpt lat="42.2673580" lon="-7.3069310">
        <ele>1609.3</ele>
        <time>2014-10-01T14:59:29Z</time>
      </trkpt>
      <trkpt lat="42.2672680" lon="-7.3070360">
        <ele>1608.3</ele>
        <time>2014-10-01T14:59:30Z</time>
      </trkpt>
      <trkpt lat="42.2671850" lon="-7.3071290">
        <ele>1607.4</ele>
        <time>2014-10-01T14:59:31Z</time>
      </trkpt>
      <trkpt lat="42.2671090" lon="-7.3072140">
        <ele>1606.6</ele>
        <time>2014-10-01T14:59:32Z</time>
      </trkpt>
      <trkpt lat="42.2670570" lon="-7.3073130">
        <ele>1605.9</ele>
        <time>2014-10-01T14:59:33Z</time>
      </trkpt>
      <trkpt lat="42.2670270" lon="-7.3074130">
        <ele>1605.2</ele>
        <time>2014-10-01T14:59:34Z</time>
      </trkpt>
      <trkpt lat="42.2670250" lon="-7.3075070">
        <ele>1604.7</ele>
        <time>2014-10-01T14:59:35Z</time>
      </trkpt>
      <trkpt lat="42.2670540" lon="-7.3075660">
        <ele>1604.2</ele>
        <time>2014-10-01T14:59:36Z</time>
      </trkpt>
      <trkpt lat="42.2670980" lon="-7.3075930">
        <ele>1603.8</ele>
        <time>2014-10-01T14:59:37Z</time>
      </trkpt>
      <trkpt lat="42.2671570" lon="-7.3075650">
        <ele>1603.3</ele>
        <time>2014-10-01T14:59:38Z</time>
      </trkpt>
      <trkpt lat="42.2672240" lon="-7.3075160">
        <ele>1602.7</ele>
        <time>2014-10-01T14:59:39Z</time>
      </trkpt>
      <trkpt lat="42.2672960" lon="-7.3074550">
        <ele>1602.0</ele>
        <time>2014-10-01T14:59:40Z</time>
      </trkpt>
      <trkpt lat="42.2673740" lon="-7.3073900">
        <ele>1601.2</ele>
        <time>2014-10-01T14:59:41Z</time>
      </trkpt>
      <trkpt lat="42.2674590" lon="-7.3073300">
        <ele>1600.4</ele>
        <time>2014-10-01T14:59:42Z</time>
      </trkpt>
      <trkpt lat="42.2675480" lon="-7.3072810">
        <ele>1599.6</ele>
        <time>2014-10-01T14:59:43Z</time>
      </trkpt>
      <trkpt lat="42.2676390" lon="-7.3072410">
        <ele>1598.9</ele>
        <time>2014-10-01T14:59:44Z</time>
      </trkpt>
      <trkpt lat="42.2677350" lon="-7.3072110">
        <ele>1598.0</ele>
        <time>2014-10-01T14:59:45Z</time>
      </trkpt>
      <trkpt lat="42.2678370" lon="-7.3071870">
        <ele>1597.2</ele>
        <time>2014-10-01T14:59:46Z</time>
      </trkpt>
      <trkpt lat="42.2679400" lon="-7.3071690">
        <ele>1596.3</ele>
        <time>2014-10-01T14:59:47Z</time>
      </trkpt>
      <trkpt lat="42.2680430" lon="-7.3071600">
        <ele>1595.5</ele>
        <time>2014-10-01T14:59:48Z</time>
      </trkpt>
      <trkpt lat="42.2681550" lon="-7.3071570">
        <ele>1594.6</ele>
        <time>2014-10-01T14:59:49Z</time>
      </trkpt>
      <trkpt lat="42.2682650" lon="-7.3071670">
        <ele>1593.7</ele>
        <time>2014-10-01T14:59:50Z</time>
      </trkpt>
      <trkpt lat="42.2683810" lon="-7.3071800">
        <ele>1592.7</ele>
        <time>2014-10-01T14:59:51Z</time>
      </trkpt>
      <trkpt lat="42.2685010" lon="-7.3071960">
        <ele>1591.7</ele>
        <time>2014-10-01T14:59:52Z</time>
      </trkpt>
      <trkpt lat="42.2686290" lon="-7.3072030">
        <ele>1590.7</ele>
        <time>2014-10-01T14:59:53Z</time>
      </trkpt>
      <trkpt lat="42.2687550" lon="-7.3071920">
        <ele>1589.6</ele>
        <time>2014-10-01T14:59:54Z</time>
      </trkpt>
      <trkpt lat="42.2688720" lon="-7.3071350">
        <ele>1588.6</ele>
        <time>2014-10-01T14:59:55Z</time>
      </trkpt>
      <trkpt lat="42.2689900" lon="-7.3070690">
        <ele>1587.5</ele>
        <time>2014-10-01T14:59:56Z</time>
      </trkpt>
      <trkpt lat="42.2691070" lon="-7.3069950">
        <ele>1586.5</ele>
        <time>2014-10-01T14:59:57Z</time>
      </trkpt>
      <trkpt lat="42.2692210" lon="-7.3069220">
        <ele>1585.4</ele>
        <time>2014-10-01T14:59:58Z</time>
      </trkpt>
      <trkpt lat="42.2693360" lon="-7.3068510">
        <ele>1584.4</ele>
        <time>2014-10-01T14:59:59Z</time>
      </trkpt>
      <trkpt lat="42.2694490" lon="-7.3067920">
        <ele>1583.4</ele>
        <time>2014-10-01T15:00:00Z</time>
      </trkpt>
      <trkpt lat="42.2695650" lon="-7.3067400">
        <ele>1582.4</ele>
        <time>2014-10-01T15:00:01Z</time>
      </trkpt>
      <trkpt lat="42.2696870" lon="-7.3066920">
        <ele>1581.3</ele>
        <time>2014-10-01T15:00:02Z</time>
      </trkpt>
      <trkpt lat="42.2698110" lon="-7.3066460">
        <ele>1580.3</ele>
        <time>2014-10-01T15:00:03Z</time>
      </trkpt>
      <trkpt lat="42.2699360" lon="-7.3066000">
        <ele>1579.2</ele>
        <time>2014-10-01T15:00:04Z</time>
      </trkpt>
      <trkpt lat="42.2700640" lon="-7.3065410">
        <ele>1578.1</ele>
        <time>2014-10-01T15:00:05Z</time>
      </trkpt>
      <trkpt lat="42.2701820" lon="-7.3064710">
        <ele>1577.0</ele>
        <time>2014-10-01T15:00:06Z</time>
      </trkpt>
      <trkpt lat="42.2702810" lon="-7.3063620">
        <ele>1576.0</ele>
        <time>2014-10-01T15:00:07Z</time>
      </trkpt>
      <trkpt lat="42.2703740" lon="-7.3062470">
        <ele>1575.0</ele>
        <time>2014-10-01T15:00:08Z</time>
      </trkpt>
      <trkpt lat="42.2704560" lon="-7.3061380">
        <ele>1574.0</ele>
        <time>2014-10-01T15:00:09Z</time>
      </trkpt>
      <trkpt lat="42.2705350" lon="-7.3060450">
        <ele>1573.1</ele>
        <time>2014-10-01T15:00:10Z</time>
      </trkpt>
      <trkpt lat="42.2706140" lon="-7.3060180">
        <ele>1572.5</ele>
        <time>2014-10-01T15:00:11Z</time>
      </trkpt>
      <trkpt lat="42.2706830" lon="-7.3060360">
        <ele>1571.9</ele>
        <time>2014-10-01T15:00:12Z</time>
      </trkpt>
      <trkpt lat="42.2707170" lon="-7.3060930">
        <ele>1571.4</ele>
        <time>2014-10-01T15:00:13Z</time>
      </trkpt>
      <trkpt lat="42.2707280" lon="-7.3061740">
        <ele>1570.9</ele>
        <time>2014-10-01T15:00:14Z</time>
      </trkpt>
      <trkpt lat="42.2707070" lon="-7.3062730">
        <ele>1570.3</ele>
        <time>2014-10-01T15:00:15Z</time>
      </trkpt>
      <trkpt lat="42.2706700" lon="-7.3063620">
        <ele>1569.7</ele>
        <time>2014-10-01T15:00:16Z</time>
      </trkpt>
      <trkpt lat="42.2706230" lon="-7.3064470">
        <ele>1569.0</ele>
        <time>2014-10-01T15:00:17Z</time>
      </trkpt>
      <trkpt lat="42.2705680" lon="-7.3065280">
        <ele>1568.4</ele>
        <time>2014-10-01T15:00:18Z</time>
      </trkpt>
      <trkpt lat="42.2705100" lon="-7.3066140">
        <ele>1567.7</ele>
        <time>2014-10-01T15:00:19Z</time>
      </trkpt>
      <trkpt lat="42.2704480" lon="-7.3067020">
        <ele>1566.9</ele>
        <time>2014-10-01T15:00:20Z</time>
      </trkpt>
      <trkpt lat="42.2703840" lon="-7.3067930">
        <ele>1566.2</ele>
        <time>2014-10-01T15:00:21Z</time>
      </trkpt>
      <trkpt lat="42.2703160" lon="-7.3068840">
        <ele>1565.4</ele>
        <time>2014-10-01T15:00:22Z</time>
      </trkpt>
      <trkpt lat="42.2702480" lon="-7.3069710">
        <ele>1564.6</ele>
        <time>2014-10-01T15:00:23Z</time>
      </trkpt>
      <trkpt lat="42.2701790" lon="-7.3070540">
        <ele>1563.8</ele>
        <time>2014-10-01T15:00:24Z</time>
      </trkpt>
      <trkpt lat="42.2701090" lon="-7.3071360">
        <ele>1563.1</ele>
        <time>2014-10-01T15:00:25Z</time>
      </trkpt>
      <trkpt lat="42.2700370" lon="-7.3072170">
        <ele>1562.3</ele>
        <time>2014-10-01T15:00:26Z</time>
      </trkpt>
      <trkpt lat="42.2699650" lon="-7.3073010">
        <ele>1561.5</ele>
        <time>2014-10-01T15:00:27Z</time>
      </trkpt>
      <trkpt lat="42.2698880" lon="-7.3073930">
        <ele>1560.7</ele>
        <time>2014-10-01T15:00:28Z</time>
      </trkpt>
      <trkpt lat="42.2698150" lon="-7.3074930">
        <ele>1559.8</ele>
        <time>2014-10-01T15:00:29Z</time>
      </trkpt>
      <trkpt lat="42.2697420" lon="-7.3076050">
        <ele>1558.9</ele>
        <time>2014-10-01T15:00:30Z</time>
      </trkpt>
      <trkpt lat="42.2696730" lon="-7.3077180">
        <ele>1558.0</ele>
        <time>2014-10-01T15:00:31Z</time>
      </trkpt>
      <trkpt lat="42.2696040" lon="-7.3078370">
        <ele>1557.1</ele>
        <time>2014-10-01T15:00:32Z</time>
      </trkpt>
      <trkpt lat="42.2695360" lon="-7.3079590">
        <ele>1556.2</ele>
        <time>2014-10-01T15:00:33Z</time>
      </trkpt>
      <trkpt lat="42.2694700" lon="-7.3080870">
        <ele>1555.2</ele>
        <time>2014-10-01T15:00:34Z</time>
      </trkpt>
      <trkpt lat="42.2694030" lon="-7.3082120">
        <ele>1554.3</ele>
        <time>2014-10-01T15:00:35Z</time>
      </trkpt>
      <trkpt lat="42.2693330" lon="-7.3083380">
        <ele>1553.3</ele>
        <time>2014-10-01T15:00:36Z</time>
      </trkpt>
      <trkpt lat="42.2692580" lon="-7.3084660">
        <ele>1552.3</ele>
        <time>2014-10-01T15:00:37Z</time>
      </trkpt>
      <trkpt lat="42.2691790" lon="-7.3085850">
        <ele>1551.4</ele>
        <time>2014-10-01T15:00:38Z</time>
      </trkpt>
      <trkpt lat="42.2690950" lon="-7.3086900">
        <ele>1550.4</ele>
        <time>2014-10-01T15:00:39Z</time>
      </trkpt>
      <trkpt lat="42.2690100" lon="-7.3087810">
        <ele>1549.5</ele>
        <time>2014-10-01T15:00:40Z</time>
      </trkpt>
      <trkpt lat="42.2689280" lon="-7.3088620">
        <ele>1548.7</ele>
        <time>2014-10-01T15:00:41Z</time>
      </trkpt>
      <trkpt lat="42.2688780" lon="-7.3089470">
        <ele>1548.0</ele>
        <time>2014-10-01T15:00:42Z</time>
      </trkpt>
      <trkpt lat="42.2688630" lon="-7.3090290">
        <ele>1547.5</ele>
        <time>2014-10-01T15:00:43Z</time>
      </trkpt>
      <trkpt lat="42.2688800" lon="-7.3090890">
        <ele>1547.1</ele>
        <time>2014-10-01T15:00:44Z</time>
      </trkpt>
      <trkpt lat="42.2689240" lon="-7.3091430">
        <ele>1546.6</ele>
        <time>2014-10-01T15:00:45Z</time>
      </trkpt>
      <trkpt lat="42.2689820" lon="-7.3091420">
        <ele>1546.1</ele>
        <time>2014-10-01T15:00:46Z</time>
      </trkpt>
      <trkpt lat="42.2690380" lon="-7.3091200">
        <ele>1545.7</ele>
        <time>2014-10-01T15:00:47Z</time>
      </trkpt>
      <trkpt lat="42.2691110" lon="-7.3090810">
        <ele>1545.0</ele>
        <time>2014-10-01T15:00:48Z</time>
      </trkpt>
      <trkpt lat="42.2691880" lon="-7.3090310">
        <ele>1544.3</ele>
        <time>2014-10-01T15:00:49Z</time>
      </trkpt>
      <trkpt lat="42.2692700" lon="-7.3089770">
        <ele>1543.6</ele>
        <time>2014-10-01T15:00:50Z</time>
      </trkpt>
      <trkpt lat="42.2693460" lon="-7.3089270">
        <ele>1542.9</ele>
        <time>2014-10-01T15:00:51Z</time>
      </trkpt>
      <trkpt lat="42.2694320" lon="-7.3088740">
        <ele>1542.1</ele>
        <time>2014-10-01T15:00:52Z</time>
      </trkpt>
      <trkpt lat="42.2695210" lon="-7.3088230">
        <ele>1541.3</ele>
        <time>2014-10-01T15:00:53Z</time>
      </trkpt>
      <trkpt lat="42.2696190" lon="-7.3087640">
        <ele>1540.4</ele>
        <time>2014-10-01T15:00:54Z</time>
      </trkpt>
      <trkpt lat="42.2697210" lon="-7.3086970">
        <ele>1539.5</ele>
        <time>2014-10-01T15:00:55Z</time>
      </trkpt>
      <trkpt lat="42.2698250" lon="-7.3086270">
        <ele>1539.4</ele>
        <time>2014-10-01T15:00:56Z</time>
      </trkpt>
      <trkpt lat="42.2699230" lon="-7.3085590">
        <ele>1539.7</ele>
        <time>2014-10-01T15:00:57Z</time>
      </trkpt>
      <trkpt lat="42.2700180" lon="-7.3084890">
        <ele>1540.0</ele>
        <time>2014-10-01T15:00:58Z</time>
      </trkpt>
      <trkpt lat="42.2701190" lon="-7.3084120">
        <ele>1539.6</ele>
        <time>2014-10-01T15:00:59Z</time>
      </trkpt>
      <trkpt lat="42.2702220" lon="-7.3083380">
        <ele>1538.9</ele>
        <time>2014-10-01T15:01:00Z</time>
      </trkpt>
      <trkpt lat="42.2703240" lon="-7.3082820">
        <ele>1538.1</ele>
        <time>2014-10-01T15:01:01Z</time>
      </trkpt>
      <trkpt lat="42.2704370" lon="-7.3082600">
        <ele>1537.5</ele>
        <time>2014-10-01T15:01:02Z</time>
      </trkpt>
      <trkpt lat="42.2705500" lon="-7.3082430">
        <ele>1536.9</ele>
        <time>2014-10-01T15:01:03Z</time>
      </trkpt>
      <trkpt lat="42.2706720" lon="-7.3082240">
        <ele>1536.0</ele>
        <time>2014-10-01T15:01:04Z</time>
      </trkpt>
      <trkpt lat="42.2707880" lon="-7.3082090">
        <ele>1535.2</ele>
        <time>2014-10-01T15:01:05Z</time>
      </trkpt>
      <trkpt lat="42.2709050" lon="-7.3081940">
        <ele>1534.6</ele>
        <time>2014-10-01T15:01:06Z</time>
      </trkpt>
      <trkpt lat="42.2710300" lon="-7.3081680">
        <ele>1533.6</ele>
        <time>2014-10-01T15:01:07Z</time>
      </trkpt>
      <trkpt lat="42.2711550" lon="-7.3081310">
        <ele>1532.6</ele>
        <time>2014-10-01T15:01:08Z</time>
      </trkpt>
      <trkpt lat="42.2712750" lon="-7.3080860">
        <ele>1531.7</ele>
        <time>2014-10-01T15:01:09Z</time>
      </trkpt>
      <trkpt lat="42.2713890" lon="-7.3080360">
        <ele>1530.8</ele>
        <time>2014-10-01T15:01:10Z</time>
      </trkpt>
      <trkpt lat="42.2715000" lon="-7.3079730">
        <ele>1529.9</ele>
        <time>2014-10-01T15:01:11Z</time>
      </trkpt>
      <trkpt lat="42.2716240" lon="-7.3078930">
        <ele>1528.7</ele>
        <time>2014-10-01T15:01:12Z</time>
      </trkpt>
      <trkpt lat="42.2717400" lon="-7.3078090">
        <ele>1527.4</ele>
        <time>2014-10-01T15:01:13Z</time>
      </trkpt>
      <trkpt lat="42.2718520" lon="-7.3077160">
        <ele>1526.3</ele>
        <time>2014-10-01T15:01:14Z</time>
      </trkpt>
      <trkpt lat="42.2719590" lon="-7.3076130">
        <ele>1525.2</ele>
        <time>2014-10-01T15:01:15Z</time>
      </trkpt>
      <trkpt lat="42.2720590" lon="-7.3075050">
        <ele>1524.2</ele>
        <time>2014-10-01T15:01:16Z</time>
      </trkpt>
      <trkpt lat="42.2721620" lon="-7.3073890">
        <ele>1523.2</ele>
        <time>2014-10-01T15:01:17Z</time>
      </trkpt>
      <trkpt lat="42.2722570" lon="-7.3072760">
        <ele>1522.2</ele>
        <time>2014-10-01T15:01:18Z</time>
      </trkpt>
      <trkpt lat="42.2723460" lon="-7.3071610">
        <ele>1521.2</ele>
        <time>2014-10-01T15:01:19Z</time>
      </trkpt>
      <trkpt lat="42.2724340" lon="-7.3070390">
        <ele>1520.2</ele>
        <time>2014-10-01T15:01:20Z</time>
      </trkpt>
      <trkpt lat="42.2725200" lon="-7.3069110">
        <ele>1519.2</ele>
        <time>2014-10-01T15:01:21Z</time>
      </trkpt>
      <trkpt lat="42.2726030" lon="-7.3067840">
        <ele>1518.2</ele>
        <time>2014-10-01T15:01:22Z</time>
      </trkpt>
      <trkpt lat="42.2726820" lon="-7.3066530">
        <ele>1516.9</ele>
        <time>2014-10-01T15:01:23Z</time>
      </trkpt>
      <trkpt lat="42.2727630" lon="-7.3065230">
        <ele>1515.7</ele>
        <time>2014-10-01T15:01:24Z</time>
      </trkpt>
      <trkpt lat="42.2728500" lon="-7.3063910">
        <ele>1514.5</ele>
        <time>2014-10-01T15:01:25Z</time>
      </trkpt>
      <trkpt lat="42.2729420" lon="-7.3062560">
        <ele>1513.4</ele>
        <time>2014-10-01T15:01:26Z</time>
      </trkpt>
      <trkpt lat="42.2730320" lon="-7.3061270">
        <ele>1512.2</ele>
        <time>2014-10-01T15:01:27Z</time>
      </trkpt>
      <trkpt lat="42.2731210" lon="-7.3059950">
        <ele>1511.0</ele>
        <time>2014-10-01T15:01:28Z</time>
      </trkpt>
      <trkpt lat="42.2732110" lon="-7.3058690">
        <ele>1510.0</ele>
        <time>2014-10-01T15:01:29Z</time>
      </trkpt>
      <trkpt lat="42.2733040" lon="-7.3057440">
        <ele>1509.1</ele>
        <time>2014-10-01T15:01:30Z</time>
      </trkpt>
      <trkpt lat="42.2734020" lon="-7.3056280">
        <ele>1508.1</ele>
        <time>2014-10-01T15:01:31Z</time>
      </trkpt>
      <trkpt lat="42.2735060" lon="-7.3055230">
        <ele>1507.0</ele>
        <time>2014-10-01T15:01:32Z</time>
      </trkpt>
      <trkpt lat="42.2736150" lon="-7.3054260">
        <ele>1506.0</ele>
        <time>2014-10-01T15:01:33Z</time>
      </trkpt>
      <trkpt lat="42.2737320" lon="-7.3053320">
        <ele>1505.0</ele>
        <time>2014-10-01T15:01:34Z</time>
      </trkpt>
      <trkpt lat="42.2738500" lon="-7.3052410">
        <ele>1503.8</ele>
        <time>2014-10-01T15:01:35Z</time>
      </trkpt>
      <trkpt lat="42.2739660" lon="-7.3051540">
        <ele>1502.7</ele>
        <time>2014-10-01T15:01:36Z</time>
      </trkpt>
      <trkpt lat="42.2740840" lon="-7.3050680">
        <ele>1501.4</ele>
        <time>2014-10-01T15:01:37Z</time>
      </trkpt>
      <trkpt lat="42.2742100" lon="-7.3049740">
        <ele>1500.0</ele>
        <time>2014-10-01T15:01:38Z</time>
      </trkpt>
      <trkpt lat="42.2743290" lon="-7.3048730">
        <ele>1498.9</ele>
        <time>2014-10-01T15:01:39Z</time>
      </trkpt>
      <trkpt lat="42.2744430" lon="-7.3047680">
        <ele>1498.0</ele>
        <time>2014-10-01T15:01:40Z</time>
      </trkpt>
      <trkpt lat="42.2745510" lon="-7.3046550">
        <ele>1496.9</ele>
        <time>2014-10-01T15:01:41Z</time>
      </trkpt>
      <trkpt lat="42.2746530" lon="-7.3045400">
        <ele>1495.9</ele>
        <time>2014-10-01T15:01:42Z</time>
      </trkpt>
      <trkpt lat="42.2747520" lon="-7.3044210">
        <ele>1495.1</ele>
        <time>2014-10-01T15:01:43Z</time>
      </trkpt>
      <trkpt lat="42.2748540" lon="-7.3043010">
        <ele>1494.3</ele>
        <time>2014-10-01T15:01:44Z</time>
      </trkpt>
      <trkpt lat="42.2749570" lon="-7.3041810">
        <ele>1493.6</ele>
        <time>2014-10-01T15:01:45Z</time>
      </trkpt>
      <trkpt lat="42.2750610" lon="-7.3040590">
        <ele>1492.9</ele>
        <time>2014-10-01T15:01:46Z</time>
      </trkpt>
      <trkpt lat="42.2751560" lon="-7.3039340">
        <ele>1492.3</ele>
        <time>2014-10-01T15:01:47Z</time>
      </trkpt>
      <trkpt lat="42.2752300" lon="-7.3037790">
        <ele>1491.7</ele>
        <time>2014-10-01T15:01:48Z</time>
      </trkpt>
      <trkpt lat="42.2752760" lon="-7.3036040">
        <ele>1491.0</ele>
        <time>2014-10-01T15:01:49Z</time>
      </trkpt>
      <trkpt lat="42.2753150" lon="-7.3034250">
        <ele>1489.9</ele>
        <time>2014-10-01T15:01:50Z</time>
      </trkpt>
      <trkpt lat="42.2752970" lon="-7.3032710">
        <ele>1489.1</ele>
        <time>2014-10-01T15:01:51Z</time>
      </trkpt>
      <trkpt lat="42.2752530" lon="-7.3031340">
        <ele>1488.2</ele>
        <time>2014-10-01T15:01:52Z</time>
      </trkpt>
      <trkpt lat="42.2751890" lon="-7.3030140">
        <ele>1487.3</ele>
        <time>2014-10-01T15:01:53Z</time>
      </trkpt>
      <trkpt lat="42.2751250" lon="-7.3029030">
        <ele>1486.4</ele>
        <time>2014-10-01T15:01:54Z</time>
      </trkpt>
      <trkpt lat="42.2750560" lon="-7.3028110">
        <ele>1485.8</ele>
        <time>2014-10-01T15:01:55Z</time>
      </trkpt>
      <trkpt lat="42.2749920" lon="-7.3027310">
        <ele>1485.1</ele>
        <time>2014-10-01T15:01:56Z</time>
      </trkpt>
      <trkpt lat="42.2749470" lon="-7.3026240">
        <ele>1484.4</ele>
        <time>2014-10-01T15:01:57Z</time>
      </trkpt>
      <trkpt lat="42.2749340" lon="-7.3025110">
        <ele>1483.8</ele>
        <time>2014-10-01T15:01:58Z</time>
      </trkpt>
      <trkpt lat="42.2749420" lon="-7.3023780">
        <ele>1483.0</ele>
        <time>2014-10-01T15:01:59Z</time>
      </trkpt>
      <trkpt lat="42.2749600" lon="-7.3022580">
        <ele>1482.3</ele>
        <time>2014-10-01T15:02:00Z</time>
      </trkpt>
      <trkpt lat="42.2750090" lon="-7.3021360">
        <ele>1481.3</ele>
        <time>2014-10-01T15:02:01Z</time>
      </trkpt>
      <trkpt lat="42.2750650" lon="-7.3020140">
        <ele>1480.3</ele>
        <time>2014-10-01T15:02:02Z</time>
      </trkpt>
      <trkpt lat="42.2751430" lon="-7.3019080">
        <ele>1479.4</ele>
        <time>2014-10-01T15:02:03Z</time>
      </trkpt>
      <trkpt lat="42.2752260" lon="-7.3018120">
        <ele>1478.6</ele>
        <time>2014-10-01T15:02:04Z</time>
      </trkpt>
      <trkpt lat="42.2753130" lon="-7.3017280">
        <ele>1477.8</ele>
        <time>2014-10-01T15:02:05Z</time>
      </trkpt>
      <trkpt lat="42.2754040" lon="-7.3016430">
        <ele>1476.7</ele>
        <time>2014-10-01T15:02:06Z</time>
      </trkpt>
      <trkpt lat="42.2754970" lon="-7.3015540">
        <ele>1475.1</ele>
        <time>2014-10-01T15:02:07Z</time>
      </trkpt>
      <trkpt lat="42.2755870" lon="-7.3014660">
        <ele>1472.2</ele>
        <time>2014-10-01T15:02:08Z</time>
      </trkpt>
      <trkpt lat="42.2756760" lon="-7.3013800">
        <ele>1469.5</ele>
        <time>2014-10-01T15:02:09Z</time>
      </trkpt>
      <trkpt lat="42.2757630" lon="-7.3012920">
        <ele>1468.8</ele>
        <time>2014-10-01T15:02:10Z</time>
      </trkpt>
      <trkpt lat="42.2758560" lon="-7.3011920">
        <ele>1468.0</ele>
        <time>2014-10-01T15:02:11Z</time>
      </trkpt>
      <trkpt lat="42.2759450" lon="-7.3010890">
        <ele>1467.3</ele>
        <time>2014-10-01T15:02:12Z</time>
      </trkpt>
      <trkpt lat="42.2760320" lon="-7.3009820">
        <ele>1466.6</ele>
        <time>2014-10-01T15:02:13Z</time>
      </trkpt>
      <trkpt lat="42.2761160" lon="-7.3008730">
        <ele>1465.9</ele>
        <time>2014-10-01T15:02:14Z</time>
      </trkpt>
      <trkpt lat="42.2761950" lon="-7.3007630">
        <ele>1465.3</ele>
        <time>2014-10-01T15:02:15Z</time>
      </trkpt>
      <trkpt lat="42.2762740" lon="-7.3006490">
        <ele>1464.6</ele>
        <time>2014-10-01T15:02:16Z</time>
      </trkpt>
      <trkpt lat="42.2763530" lon="-7.3005330">
        <ele>1463.8</ele>
        <time>2014-10-01T15:02:17Z</time>
      </trkpt>
      <trkpt lat="42.2764310" lon="-7.3004170">
        <ele>1463.0</ele>
        <time>2014-10-01T15:02:18Z</time>
      </trkpt>
      <trkpt lat="42.2765070" lon="-7.3002940">
        <ele>1462.1</ele>
        <time>2014-10-01T15:02:19Z</time>
      </trkpt>
      <trkpt lat="42.2765820" lon="-7.3001710">
        <ele>1461.3</ele>
        <time>2014-10-01T15:02:20Z</time>
      </trkpt>
      <trkpt lat="42.2766520" lon="-7.3000460">
        <ele>1460.6</ele>
        <time>2014-10-01T15:02:21Z</time>
      </trkpt>
      <trkpt lat="42.2767170" lon="-7.2999160">
        <ele>1459.8</ele>
        <time>2014-10-01T15:02:22Z</time>
      </trkpt>
      <trkpt lat="42.2767760" lon="-7.2997760">
        <ele>1459.0</ele>
        <time>2014-10-01T15:02:23Z</time>
      </trkpt>
      <trkpt lat="42.2768330" lon="-7.2996250">
        <ele>1458.1</ele>
        <time>2014-10-01T15:02:24Z</time>
      </trkpt>
      <trkpt lat="42.2768870" lon="-7.2994720">
        <ele>1457.2</ele>
        <time>2014-10-01T15:02:25Z</time>
      </trkpt>
      <trkpt lat="42.2769360" lon="-7.2993170">
        <ele>1456.3</ele>
        <time>2014-10-01T15:02:26Z</time>
      </trkpt>
      <trkpt lat="42.2769860" lon="-7.2991550">
        <ele>1455.4</ele>
        <time>2014-10-01T15:02:27Z</time>
      </trkpt>
      <trkpt lat="42.2770340" lon="-7.2990020">
        <ele>1454.5</ele>
        <time>2014-10-01T15:02:28Z</time>
      </trkpt>
      <trkpt lat="42.2770830" lon="-7.2988540">
        <ele>1453.6</ele>
        <time>2014-10-01T15:02:29Z</time>
      </trkpt>
      <trkpt lat="42.2771430" lon="-7.2987090">
        <ele>1452.8</ele>
        <time>2014-10-01T15:02:30Z</time>
      </trkpt>
      <trkpt lat="42.2772320" lon="-7.2985970">
        <ele>1452.1</ele>
        <time>2014-10-01T15:02:31Z</time>
      </trkpt>
      <trkpt lat="42.2773180" lon="-7.2985030">
        <ele>1451.6</ele>
        <time>2014-10-01T15:02:32Z</time>
      </trkpt>
      <trkpt lat="42.2774110" lon="-7.2984560">
        <ele>1451.0</ele>
        <time>2014-10-01T15:02:33Z</time>
      </trkpt>
      <trkpt lat="42.2774990" lon="-7.2984450">
        <ele>1452.8</ele>
        <time>2014-10-01T15:02:34Z</time>
      </trkpt>
      <trkpt lat="42.2775890" lon="-7.2984590">
        <ele>1454.0</ele>
        <time>2014-10-01T15:02:35Z</time>
      </trkpt>
      <trkpt lat="42.2776650" lon="-7.2985090">
        <ele>1451.5</ele>
        <time>2014-10-01T15:02:36Z</time>
      </trkpt>
      <trkpt lat="42.2777220" lon="-7.2985960">
        <ele>1450.1</ele>
        <time>2014-10-01T15:02:37Z</time>
      </trkpt>
      <trkpt lat="42.2777570" lon="-7.2987040">
        <ele>1448.7</ele>
        <time>2014-10-01T15:02:38Z</time>
      </trkpt>
      <trkpt lat="42.2777870" lon="-7.2988160">
        <ele>1447.8</ele>
        <time>2014-10-01T15:02:39Z</time>
      </trkpt>
      <trkpt lat="42.2777890" lon="-7.2989460">
        <ele>1446.7</ele>
        <time>2014-10-01T15:02:40Z</time>
      </trkpt>
      <trkpt lat="42.2777900" lon="-7.2990810">
        <ele>1445.5</ele>
        <time>2014-10-01T15:02:41Z</time>
      </trkpt>
      <trkpt lat="42.2777850" lon="-7.2992230">
        <ele>1444.3</ele>
        <time>2014-10-01T15:02:42Z</time>
      </trkpt>
      <trkpt lat="42.2777780" lon="-7.2993710">
        <ele>1443.1</ele>
        <time>2014-10-01T15:02:43Z</time>
      </trkpt>
      <trkpt lat="42.2777730" lon="-7.2995270">
        <ele>1441.7</ele>
        <time>2014-10-01T15:02:44Z</time>
      </trkpt>
      <trkpt lat="42.2777710" lon="-7.2996900">
        <ele>1440.7</ele>
        <time>2014-10-01T15:02:45Z</time>
      </trkpt>
      <trkpt lat="42.2777770" lon="-7.2998570">
        <ele>1439.7</ele>
        <time>2014-10-01T15:02:46Z</time>
      </trkpt>
      <trkpt lat="42.2777930" lon="-7.3000210">
        <ele>1438.6</ele>
        <time>2014-10-01T15:02:47Z</time>
      </trkpt>
      <trkpt lat="42.2778170" lon="-7.3001850">
        <ele>1437.5</ele>
        <time>2014-10-01T15:02:48Z</time>
      </trkpt>
      <trkpt lat="42.2778490" lon="-7.3003440">
        <ele>1436.5</ele>
        <time>2014-10-01T15:02:49Z</time>
      </trkpt>
      <trkpt lat="42.2778890" lon="-7.3005010">
        <ele>1435.3</ele>
        <time>2014-10-01T15:02:50Z</time>
      </trkpt>
      <trkpt lat="42.2779330" lon="-7.3006570">
        <ele>1434.2</ele>
        <time>2014-10-01T15:02:51Z</time>
      </trkpt>
      <trkpt lat="42.2779780" lon="-7.3008120">
        <ele>1433.2</ele>
        <time>2014-10-01T15:02:52Z</time>
      </trkpt>
      <trkpt lat="42.2780270" lon="-7.3009670">
        <ele>1432.2</ele>
        <time>2014-10-01T15:02:53Z</time>
      </trkpt>
      <trkpt lat="42.2780790" lon="-7.3011220">
        <ele>1431.1</ele>
        <time>2014-10-01T15:02:54Z</time>
      </trkpt>
      <trkpt lat="42.2781310" lon="-7.3012790">
        <ele>1430.1</ele>
        <time>2014-10-01T15:02:55Z</time>
      </trkpt>
      <trkpt lat="42.2781910" lon="-7.3014320">
        <ele>1429.0</ele>
        <time>2014-10-01T15:02:56Z</time>
      </trkpt>
      <trkpt lat="42.2782560" lon="-7.3015810">
        <ele>1428.0</ele>
        <time>2014-10-01T15:02:57Z</time>
      </trkpt>
      <trkpt lat="42.2783220" lon="-7.3017180">
        <ele>1426.9</ele>
        <time>2014-10-01T15:02:58Z</time>
      </trkpt>
      <trkpt lat="42.2784190" lon="-7.3018470">
        <ele>1425.7</ele>
        <time>2014-10-01T15:02:59Z</time>
      </trkpt>
      <trkpt lat="42.2785450" lon="-7.3019560">
        <ele>1424.2</ele>
        <time>2014-10-01T15:03:00Z</time>
      </trkpt>
      <trkpt lat="42.2786540" lon="-7.3020590">
        <ele>1423.0</ele>
        <time>2014-10-01T15:03:01Z</time>
      </trkpt>
      <trkpt lat="42.2787590" lon="-7.3021610">
        <ele>1422.0</ele>
        <time>2014-10-01T15:03:02Z</time>
      </trkpt>
      <trkpt lat="42.2788710" lon="-7.3022620">
        <ele>1420.9</ele>
        <time>2014-10-01T15:03:03Z</time>
      </trkpt>
      <trkpt lat="42.2789930" lon="-7.3023600">
        <ele>1419.8</ele>
        <time>2014-10-01T15:03:04Z</time>
      </trkpt>
      <trkpt lat="42.2791240" lon="-7.3024440">
        <ele>1418.7</ele>
        <time>2014-10-01T15:03:05Z</time>
      </trkpt>
      <trkpt lat="42.2792560" lon="-7.3025210">
        <ele>1417.5</ele>
        <time>2014-10-01T15:03:06Z</time>
      </trkpt>
      <trkpt lat="42.2793850" lon="-7.3025990">
        <ele>1416.4</ele>
        <time>2014-10-01T15:03:07Z</time>
      </trkpt>
      <trkpt lat="42.2795140" lon="-7.3026690">
        <ele>1415.3</ele>
        <time>2014-10-01T15:03:08Z</time>
      </trkpt>
      <trkpt lat="42.2796540" lon="-7.3027010">
        <ele>1414.2</ele>
        <time>2014-10-01T15:03:09Z</time>
      </trkpt>
      <trkpt lat="42.2797890" lon="-7.3027270">
        <ele>1413.2</ele>
        <time>2014-10-01T15:03:10Z</time>
      </trkpt>
      <trkpt lat="42.2799200" lon="-7.3027440">
        <ele>1412.1</ele>
        <time>2014-10-01T15:03:11Z</time>
      </trkpt>
      <trkpt lat="42.2800590" lon="-7.3027150">
        <ele>1411.0</ele>
        <time>2014-10-01T15:03:12Z</time>
      </trkpt>
      <trkpt lat="42.2802010" lon="-7.3026810">
        <ele>1409.9</ele>
        <time>2014-10-01T15:03:13Z</time>
      </trkpt>
      <trkpt lat="42.2803380" lon="-7.3026400">
        <ele>1408.8</ele>
        <time>2014-10-01T15:03:14Z</time>
      </trkpt>
      <trkpt lat="42.2804760" lon="-7.3025840">
        <ele>1407.7</ele>
        <time>2014-10-01T15:03:15Z</time>
      </trkpt>
      <trkpt lat="42.2806240" lon="-7.3025060">
        <ele>1406.4</ele>
        <time>2014-10-01T15:03:16Z</time>
      </trkpt>
      <trkpt lat="42.2807600" lon="-7.3024190">
        <ele>1405.2</ele>
        <time>2014-10-01T15:03:17Z</time>
      </trkpt>
      <trkpt lat="42.2808920" lon="-7.3023470">
        <ele>1404.1</ele>
        <time>2014-10-01T15:03:18Z</time>
      </trkpt>
      <trkpt lat="42.2810270" lon="-7.3023240">
        <ele>1403.0</ele>
        <time>2014-10-01T15:03:19Z</time>
      </trkpt>
      <trkpt lat="42.2811480" lon="-7.3023140">
        <ele>1402.1</ele>
        <time>2014-10-01T15:03:20Z</time>
      </trkpt>
      <trkpt lat="42.2812640" lon="-7.3023640">
        <ele>1401.1</ele>
        <time>2014-10-01T15:03:21Z</time>
      </trkpt>
      <trkpt lat="42.2813780" lon="-7.3024580">
        <ele>1400.1</ele>
        <time>2014-10-01T15:03:22Z</time>
      </trkpt>
      <trkpt lat="42.2814710" lon="-7.3025890">
        <ele>1399.0</ele>
        <time>2014-10-01T15:03:23Z</time>
      </trkpt>
      <trkpt lat="42.2815680" lon="-7.3027370">
        <ele>1397.9</ele>
        <time>2014-10-01T15:03:24Z</time>
      </trkpt>
      <trkpt lat="42.2816340" lon="-7.3029100">
        <ele>1396.7</ele>
        <time>2014-10-01T15:03:25Z</time>
      </trkpt>
      <trkpt lat="42.2816990" lon="-7.3030810">
        <ele>1395.6</ele>
        <time>2014-10-01T15:03:26Z</time>
      </trkpt>
      <trkpt lat="42.2817600" lon="-7.3032530">
        <ele>1394.5</ele>
        <time>2014-10-01T15:03:27Z</time>
      </trkpt>
      <trkpt lat="42.2818290" lon="-7.3034230">
        <ele>1393.4</ele>
        <time>2014-10-01T15:03:28Z</time>
      </trkpt>
      <trkpt lat="42.2818980" lon="-7.3035760">
        <ele>1392.4</ele>
        <time>2014-10-01T15:03:29Z</time>
      </trkpt>
      <trkpt lat="42.2820040" lon="-7.3037060">
        <ele>1391.2</ele>
        <time>2014-10-01T15:03:30Z</time>
      </trkpt>
      <trkpt lat="42.2821100" lon="-7.3038340">
        <ele>1390.1</ele>
        <time>2014-10-01T15:03:31Z</time>
      </trkpt>
      <trkpt lat="42.2822200" lon="-7.3039540">
        <ele>1389.0</ele>
        <time>2014-10-01T15:03:32Z</time>
      </trkpt>
      <trkpt lat="42.2823310" lon="-7.3040630">
        <ele>1387.9</ele>
        <time>2014-10-01T15:03:33Z</time>
      </trkpt>
      <trkpt lat="42.2824430" lon="-7.3041660">
        <ele>1386.9</ele>
        <time>2014-10-01T15:03:34Z</time>
      </trkpt>
      <trkpt lat="42.2825520" lon="-7.3042630">
        <ele>1385.8</ele>
        <time>2014-10-01T15:03:35Z</time>
      </trkpt>
      <trkpt lat="42.2826690" lon="-7.3043600">
        <ele>1384.8</ele>
        <time>2014-10-01T15:03:36Z</time>
      </trkpt>
      <trkpt lat="42.2827890" lon="-7.3044570">
        <ele>1383.7</ele>
        <time>2014-10-01T15:03:37Z</time>
      </trkpt>
      <trkpt lat="42.2829080" lon="-7.3045510">
        <ele>1382.6</ele>
        <time>2014-10-01T15:03:38Z</time>
      </trkpt>
      <trkpt lat="42.2830320" lon="-7.3046430">
        <ele>1381.5</ele>
        <time>2014-10-01T15:03:39Z</time>
      </trkpt>
      <trkpt lat="42.2831540" lon="-7.3047330">
        <ele>1380.4</ele>
        <time>2014-10-01T15:03:40Z</time>
      </trkpt>
      <trkpt lat="42.2832770" lon="-7.3048210">
        <ele>1379.3</ele>
        <time>2014-10-01T15:03:41Z</time>
      </trkpt>
      <trkpt lat="42.2834060" lon="-7.3049110">
        <ele>1378.1</ele>
        <time>2014-10-01T15:03:42Z</time>
      </trkpt>
      <trkpt lat="42.2835280" lon="-7.3050140">
        <ele>1377.0</ele>
        <time>2014-10-01T15:03:43Z</time>
      </trkpt>
      <trkpt lat="42.2836450" lon="-7.3051210">
        <ele>1375.9</ele>
        <time>2014-10-01T15:03:44Z</time>
      </trkpt>
      <trkpt lat="42.2837560" lon="-7.3052370">
        <ele>1374.8</ele>
        <time>2014-10-01T15:03:45Z</time>
      </trkpt>
      <trkpt lat="42.2838640" lon="-7.3053610">
        <ele>1373.7</ele>
        <time>2014-10-01T15:03:46Z</time>
      </trkpt>
      <trkpt lat="42.2839680" lon="-7.3054930">
        <ele>1372.6</ele>
        <time>2014-10-01T15:03:47Z</time>
      </trkpt>
      <trkpt lat="42.2840680" lon="-7.3056250">
        <ele>1371.5</ele>
        <time>2014-10-01T15:03:48Z</time>
      </trkpt>
      <trkpt lat="42.2841660" lon="-7.3057650">
        <ele>1370.3</ele>
        <time>2014-10-01T15:03:49Z</time>
      </trkpt>
      <trkpt lat="42.2842670" lon="-7.3059050">
        <ele>1369.2</ele>
        <time>2014-10-01T15:03:50Z</time>
      </trkpt>
      <trkpt lat="42.2843610" lon="-7.3060490">
        <ele>1368.1</ele>
        <time>2014-10-01T15:03:51Z</time>
      </trkpt>
      <trkpt lat="42.2844540" lon="-7.3061930">
        <ele>1367.0</ele>
        <time>2014-10-01T15:03:52Z</time>
      </trkpt>
      <trkpt lat="42.2845470" lon="-7.3063400">
        <ele>1365.9</ele>
        <time>2014-10-01T15:03:53Z</time>
      </trkpt>
      <trkpt lat="42.2846410" lon="-7.3064870">
        <ele>1364.7</ele>
        <time>2014-10-01T15:03:54Z</time>
      </trkpt>
      <trkpt lat="42.2847300" lon="-7.3066330">
        <ele>1363.6</ele>
        <time>2014-10-01T15:03:55Z</time>
      </trkpt>
      <trkpt lat="42.2848190" lon="-7.3067770">
        <ele>1362.5</ele>
        <time>2014-10-01T15:03:56Z</time>
      </trkpt>
      <trkpt lat="42.2849110" lon="-7.3069230">
        <ele>1361.4</ele>
        <time>2014-10-01T15:03:57Z</time>
      </trkpt>
      <trkpt lat="42.2850040" lon="-7.3070700">
        <ele>1360.3</ele>
        <time>2014-10-01T15:03:58Z</time>
      </trkpt>
      <trkpt lat="42.2850920" lon="-7.3072170">
        <ele>1359.2</ele>
        <time>2014-10-01T15:03:59Z</time>
      </trkpt>
      <trkpt lat="42.2851820" lon="-7.3073650">
        <ele>1358.1</ele>
        <time>2014-10-01T15:04:00Z</time>
      </trkpt>
      <trkpt lat="42.2852740" lon="-7.3075070">
        <ele>1357.0</ele>
        <time>2014-10-01T15:04:01Z</time>
      </trkpt>
      <trkpt lat="42.2853670" lon="-7.3076480">
        <ele>1355.9</ele>
        <time>2014-10-01T15:04:02Z</time>
      </trkpt>
      <trkpt lat="42.2854640" lon="-7.3077870">
        <ele>1354.8</ele>
        <time>2014-10-01T15:04:03Z</time>
      </trkpt>
      <trkpt lat="42.2855600" lon="-7.3079260">
        <ele>1353.7</ele>
        <time>2014-10-01T15:04:04Z</time>
      </trkpt>
      <trkpt lat="42.2856570" lon="-7.3080660">
        <ele>1352.6</ele>
        <time>2014-10-01T15:04:05Z</time>
      </trkpt>
      <trkpt lat="42.2857490" lon="-7.3082080">
        <ele>1351.6</ele>
        <time>2014-10-01T15:04:06Z</time>
      </trkpt>
      <trkpt lat="42.2858400" lon="-7.3083500">
        <ele>1350.5</ele>
        <time>2014-10-01T15:04:07Z</time>
      </trkpt>
      <trkpt lat="42.2859310" lon="-7.3084940">
        <ele>1349.4</ele>
        <time>2014-10-01T15:04:08Z</time>
      </trkpt>
      <trkpt lat="42.2860260" lon="-7.3086390">
        <ele>1348.3</ele>
        <time>2014-10-01T15:04:09Z</time>
      </trkpt>
      <trkpt lat="42.2861200" lon="-7.3087840">
        <ele>1347.1</ele>
        <time>2014-10-01T15:04:10Z</time>
      </trkpt>
      <trkpt lat="42.2862180" lon="-7.3089260">
        <ele>1345.9</ele>
        <time>2014-10-01T15:04:11Z</time>
      </trkpt>
      <trkpt lat="42.2863160" lon="-7.3090640">
        <ele>1344.8</ele>
        <time>2014-10-01T15:04:12Z</time>
      </trkpt>
      <trkpt lat="42.2864160" lon="-7.3092030">
        <ele>1343.7</ele>
        <time>2014-10-01T15:04:13Z</time>
      </trkpt>
      <trkpt lat="42.2865180" lon="-7.3093440">
        <ele>1342.5</ele>
        <time>2014-10-01T15:04:14Z</time>
      </trkpt>
      <trkpt lat="42.2866180" lon="-7.3094740">
        <ele>1341.4</ele>
        <time>2014-10-01T15:04:15Z</time>
      </trkpt>
      <trkpt lat="42.2867170" lon="-7.3096070">
        <ele>1340.3</ele>
        <time>2014-10-01T15:04:16Z</time>
      </trkpt>
      <trkpt lat="42.2868150" lon="-7.3097340">
        <ele>1339.2</ele>
        <time>2014-10-01T15:04:17Z</time>
      </trkpt>
      <trkpt lat="42.2869120" lon="-7.3098680">
        <ele>1338.0</ele>
        <time>2014-10-01T15:04:18Z</time>
      </trkpt>
      <trkpt lat="42.2870050" lon="-7.3100030">
        <ele>1336.9</ele>
        <time>2014-10-01T15:04:19Z</time>
      </trkpt>
      <trkpt lat="42.2870940" lon="-7.3101330">
        <ele>1335.8</ele>
        <time>2014-10-01T15:04:20Z</time>
      </trkpt>
      <trkpt lat="42.2871830" lon="-7.3102640">
        <ele>1334.7</ele>
        <time>2014-10-01T15:04:21Z</time>
      </trkpt>
      <trkpt lat="42.2872750" lon="-7.3103990">
        <ele>1333.6</ele>
        <time>2014-10-01T15:04:22Z</time>
      </trkpt>
      <trkpt lat="42.2873620" lon="-7.3105340">
        <ele>1332.5</ele>
        <time>2014-10-01T15:04:23Z</time>
      </trkpt>
      <trkpt lat="42.2874480" lon="-7.3106650">
        <ele>1331.4</ele>
        <time>2014-10-01T15:04:24Z</time>
      </trkpt>
      <trkpt lat="42.2875320" lon="-7.3108060">
        <ele>1330.4</ele>
        <time>2014-10-01T15:04:25Z</time>
      </trkpt>
      <trkpt lat="42.2876060" lon="-7.3109520">
        <ele>1329.4</ele>
        <time>2014-10-01T15:04:26Z</time>
      </trkpt>
      <trkpt lat="42.2876500" lon="-7.3111170">
        <ele>1328.4</ele>
        <time>2014-10-01T15:04:27Z</time>
      </trkpt>
      <trkpt lat="42.2876880" lon="-7.3112850">
        <ele>1327.5</ele>
        <time>2014-10-01T15:04:28Z</time>
      </trkpt>
      <trkpt lat="42.2876990" lon="-7.3114750">
        <ele>1326.6</ele>
        <time>2014-10-01T15:04:29Z</time>
      </trkpt>
      <trkpt lat="42.2877060" lon="-7.3116620">
        <ele>1325.8</ele>
        <time>2014-10-01T15:04:30Z</time>
      </trkpt>
      <trkpt lat="42.2877000" lon="-7.3118370">
        <ele>1325.2</ele>
        <time>2014-10-01T15:04:31Z</time>
      </trkpt>
      <trkpt lat="42.2876610" lon="-7.3119970">
        <ele>1324.6</ele>
        <time>2014-10-01T15:04:32Z</time>
      </trkpt>
      <trkpt lat="42.2876160" lon="-7.3121530">
        <ele>1324.0</ele>
        <time>2014-10-01T15:04:33Z</time>
      </trkpt>
      <trkpt lat="42.2875640" lon="-7.3122980">
        <ele>1323.5</ele>
        <time>2014-10-01T15:04:34Z</time>
      </trkpt>
      <trkpt lat="42.2874880" lon="-7.3124230">
        <ele>1323.1</ele>
        <time>2014-10-01T15:04:35Z</time>
      </trkpt>
      <trkpt lat="42.2874110" lon="-7.3125460">
        <ele>1322.8</ele>
        <time>2014-10-01T15:04:36Z</time>
      </trkpt>
      <trkpt lat="42.2873310" lon="-7.3126580">
        <ele>1322.5</ele>
        <time>2014-10-01T15:04:37Z</time>
      </trkpt>
      <trkpt lat="42.2872450" lon="-7.3127610">
        <ele>1322.3</ele>
        <time>2014-10-01T15:04:38Z</time>
      </trkpt>
      <trkpt lat="42.2871560" lon="-7.3128530">
        <ele>1322.1</ele>
        <time>2014-10-01T15:04:39Z</time>
      </trkpt>
      <trkpt lat="42.2870640" lon="-7.3129370">
        <ele>1322.0</ele>
        <time>2014-10-01T15:04:40Z</time>
      </trkpt>
      <trkpt lat="42.2869740" lon="-7.3130120">
        <ele>1321.9</ele>
        <time>2014-10-01T15:04:41Z</time>
      </trkpt>
      <trkpt lat="42.2868840" lon="-7.3130890">
        <ele>1321.8</ele>
        <time>2014-10-01T15:04:42Z</time>
      </trkpt>
      <trkpt lat="42.2867980" lon="-7.3131630">
        <ele>1321.6</ele>
        <time>2014-10-01T15:04:43Z</time>
      </trkpt>
      <trkpt lat="42.2867150" lon="-7.3132340">
        <ele>1321.6</ele>
        <time>2014-10-01T15:04:44Z</time>
      </trkpt>
      <trkpt lat="42.2866330" lon="-7.3133080">
        <ele>1321.5</ele>
        <time>2014-10-01T15:04:45Z</time>
      </trkpt>
      <trkpt lat="42.2865520" lon="-7.3133860">
        <ele>1321.3</ele>
        <time>2014-10-01T15:04:46Z</time>
      </trkpt>
      <trkpt lat="42.2864780" lon="-7.3134650">
        <ele>1321.2</ele>
        <time>2014-10-01T15:04:47Z</time>
      </trkpt>
      <trkpt lat="42.2864090" lon="-7.3135530">
        <ele>1321.0</ele>
        <time>2014-10-01T15:04:48Z</time>
      </trkpt>
      <trkpt lat="42.2863620" lon="-7.3136650">
        <ele>1320.8</ele>
        <time>2014-10-01T15:04:49Z</time>
      </trkpt>
      <trkpt lat="42.2863180" lon="-7.3137850">
        <ele>1320.6</ele>
        <time>2014-10-01T15:04:50Z</time>
      </trkpt>
      <trkpt lat="42.2862950" lon="-7.3139220">
        <ele>1320.3</ele>
        <time>2014-10-01T15:04:51Z</time>
      </trkpt>
      <trkpt lat="42.2862770" lon="-7.3140560">
        <ele>1320.1</ele>
        <time>2014-10-01T15:04:52Z</time>
      </trkpt>
      <trkpt lat="42.2862650" lon="-7.3141830">
        <ele>1319.9</ele>
        <time>2014-10-01T15:04:53Z</time>
      </trkpt>
      <trkpt lat="42.2862570" lon="-7.3143130">
        <ele>1319.6</ele>
        <time>2014-10-01T15:04:54Z</time>
      </trkpt>
      <trkpt lat="42.2862520" lon="-7.3144450">
        <ele>1319.4</ele>
        <time>2014-10-01T15:04:55Z</time>
      </trkpt>
      <trkpt lat="42.2862500" lon="-7.3145770">
        <ele>1319.1</ele>
        <time>2014-10-01T15:04:56Z</time>
      </trkpt>
      <trkpt lat="42.2862480" lon="-7.3147110">
        <ele>1318.8</ele>
        <time>2014-10-01T15:04:57Z</time>
      </trkpt>
      <trkpt lat="42.2862520" lon="-7.3148370">
        <ele>1318.6</ele>
        <time>2014-10-01T15:04:58Z</time>
      </trkpt>
      <trkpt lat="42.2862580" lon="-7.3149660">
        <ele>1318.3</ele>
        <time>2014-10-01T15:04:59Z</time>
      </trkpt>
      <trkpt lat="42.2862710" lon="-7.3150940">
        <ele>1318.1</ele>
        <time>2014-10-01T15:05:00Z</time>
      </trkpt>
      <trkpt lat="42.2862890" lon="-7.3152240">
        <ele>1317.8</ele>
        <time>2014-10-01T15:05:01Z</time>
      </trkpt>
      <trkpt lat="42.2863140" lon="-7.3153450">
        <ele>1317.5</ele>
        <time>2014-10-01T15:05:02Z</time>
      </trkpt>
      <trkpt lat="42.2863440" lon="-7.3154680">
        <ele>1317.3</ele>
        <time>2014-10-01T15:05:03Z</time>
      </trkpt>
      <trkpt lat="42.2863770" lon="-7.3155900">
        <ele>1317.0</ele>
        <time>2014-10-01T15:05:04Z</time>
      </trkpt>
      <trkpt lat="42.2864130" lon="-7.3157060">
        <ele>1316.8</ele>
        <time>2014-10-01T15:05:05Z</time>
      </trkpt>
      <trkpt lat="42.2864480" lon="-7.3158230">
        <ele>1316.6</ele>
        <time>2014-10-01T15:05:06Z</time>
      </trkpt>
      <trkpt lat="42.2864880" lon="-7.3159320">
        <ele>1316.4</ele>
        <time>2014-10-01T15:05:07Z</time>
      </trkpt>
      <trkpt lat="42.2865290" lon="-7.3160400">
        <ele>1316.3</ele>
        <time>2014-10-01T15:05:08Z</time>
      </trkpt>
      <trkpt lat="42.2865730" lon="-7.3161470">
        <ele>1316.1</ele>
        <time>2014-10-01T15:05:09Z</time>
      </trkpt>
      <trkpt lat="42.2866170" lon="-7.3162550">
        <ele>1316.0</ele>
        <time>2014-10-01T15:05:10Z</time>
      </trkpt>
      <trkpt lat="42.2866630" lon="-7.3163600">
        <ele>1315.8</ele>
        <time>2014-10-01T15:05:11Z</time>
      </trkpt>
      <trkpt lat="42.2867110" lon="-7.3164590">
        <ele>1315.7</ele>
        <time>2014-10-01T15:05:12Z</time>
      </trkpt>
      <trkpt lat="42.2867580" lon="-7.3165570">
        <ele>1315.6</ele>
        <time>2014-10-01T15:05:13Z</time>
      </trkpt>
      <trkpt lat="42.2868030" lon="-7.3166540">
        <ele>1315.4</ele>
        <time>2014-10-01T15:05:14Z</time>
      </trkpt>
      <trkpt lat="42.2868440" lon="-7.3167520">
        <ele>1315.3</ele>
        <time>2014-10-01T15:05:15Z</time>
      </trkpt>
      <trkpt lat="42.2868850" lon="-7.3168490">
        <ele>1315.1</ele>
        <time>2014-10-01T15:05:16Z</time>
      </trkpt>
      <trkpt lat="42.2869240" lon="-7.3169450">
        <ele>1315.0</ele>
        <time>2014-10-01T15:05:17Z</time>
      </trkpt>
      <trkpt lat="42.2869610" lon="-7.3170420">
        <ele>1314.9</ele>
        <time>2014-10-01T15:05:18Z</time>
      </trkpt>
      <trkpt lat="42.2869950" lon="-7.3171400">
        <ele>1314.7</ele>
        <time>2014-10-01T15:05:19Z</time>
      </trkpt>
      <trkpt lat="42.2870250" lon="-7.3172400">
        <ele>1314.6</ele>
        <time>2014-10-01T15:05:20Z</time>
      </trkpt>
      <trkpt lat="42.2870520" lon="-7.3173380">
        <ele>1314.5</ele>
        <time>2014-10-01T15:05:21Z</time>
      </trkpt>
      <trkpt lat="42.2870760" lon="-7.3174440">
        <ele>1314.4</ele>
        <time>2014-10-01T15:05:22Z</time>
      </trkpt>
      <trkpt lat="42.2870960" lon="-7.3175540">
        <ele>1314.2</ele>
        <time>2014-10-01T15:05:23Z</time>
      </trkpt>
      <trkpt lat="42.2871070" lon="-7.3176660">
        <ele>1314.1</ele>
        <time>2014-10-01T15:05:24Z</time>
      </trkpt>
      <trkpt lat="42.2870950" lon="-7.3177890">
        <ele>1313.9</ele>
        <time>2014-10-01T15:05:25Z</time>
      </trkpt>
      <trkpt lat="42.2870800" lon="-7.3179090">
        <ele>1313.3</ele>
        <time>2014-10-01T15:05:26Z</time>
      </trkpt>
      <trkpt lat="42.2870630" lon="-7.3180260">
        <ele>1312.9</ele>
        <time>2014-10-01T15:05:27Z</time>
      </trkpt>
      <trkpt lat="42.2870420" lon="-7.3181450">
        <ele>1312.5</ele>
        <time>2014-10-01T15:05:28Z</time>
      </trkpt>
      <trkpt lat="42.2870210" lon="-7.3182620">
        <ele>1312.2</ele>
        <time>2014-10-01T15:05:29Z</time>
      </trkpt>
      <trkpt lat="42.2870000" lon="-7.3183860">
        <ele>1311.8</ele>
        <time>2014-10-01T15:05:30Z</time>
      </trkpt>
      <trkpt lat="42.2869830" lon="-7.3185120">
        <ele>1311.4</ele>
        <time>2014-10-01T15:05:31Z</time>
      </trkpt>
      <trkpt lat="42.2869890" lon="-7.3186380">
        <ele>1311.0</ele>
        <time>2014-10-01T15:05:32Z</time>
      </trkpt>
      <trkpt lat="42.2869970" lon="-7.3187650">
        <ele>1310.5</ele>
        <time>2014-10-01T15:05:33Z</time>
      </trkpt>
      <trkpt lat="42.2870120" lon="-7.3188890">
        <ele>1310.1</ele>
        <time>2014-10-01T15:05:34Z</time>
      </trkpt>
      <trkpt lat="42.2870320" lon="-7.3190120">
        <ele>1309.8</ele>
        <time>2014-10-01T15:05:35Z</time>
      </trkpt>
      <trkpt lat="42.2870590" lon="-7.3191290">
        <ele>1309.4</ele>
        <time>2014-10-01T15:05:36Z</time>
      </trkpt>
      <trkpt lat="42.2870910" lon="-7.3192490">
        <ele>1309.0</ele>
        <time>2014-10-01T15:05:37Z</time>
      </trkpt>
      <trkpt lat="42.2871280" lon="-7.3193620">
        <ele>1308.7</ele>
        <time>2014-10-01T15:05:38Z</time>
      </trkpt>
      <trkpt lat="42.2871680" lon="-7.3194730">
        <ele>1308.5</ele>
        <time>2014-10-01T15:05:39Z</time>
      </trkpt>
      <trkpt lat="42.2872070" lon="-7.3195830">
        <ele>1308.2</ele>
        <time>2014-10-01T15:05:40Z</time>
      </trkpt>
      <trkpt lat="42.2872490" lon="-7.3196930">
        <ele>1308.0</ele>
        <time>2014-10-01T15:05:41Z</time>
      </trkpt>
      <trkpt lat="42.2872910" lon="-7.3198040">
        <ele>1307.8</ele>
        <time>2014-10-01T15:05:42Z</time>
      </trkpt>
      <trkpt lat="42.2873360" lon="-7.3199150">
        <ele>1307.6</ele>
        <time>2014-10-01T15:05:43Z</time>
      </trkpt>
      <trkpt lat="42.2873830" lon="-7.3200210">
        <ele>1307.4</ele>
        <time>2014-10-01T15:05:44Z</time>
      </trkpt>
      <trkpt lat="42.2874310" lon="-7.3201230">
        <ele>1307.3</ele>
        <time>2014-10-01T15:05:45Z</time>
      </trkpt>
      <trkpt lat="42.2874810" lon="-7.3202220">
        <ele>1307.1</ele>
        <time>2014-10-01T15:05:46Z</time>
      </trkpt>
      <trkpt lat="42.2875370" lon="-7.3203180">
        <ele>1307.0</ele>
        <time>2014-10-01T15:05:47Z</time>
      </trkpt>
      <trkpt lat="42.2875970" lon="-7.3204120">
        <ele>1306.9</ele>
        <time>2014-10-01T15:05:48Z</time>
      </trkpt>
      <trkpt lat="42.2876580" lon="-7.3204960">
        <ele>1306.9</ele>
        <time>2014-10-01T15:05:49Z</time>
      </trkpt>
      <trkpt lat="42.2877200" lon="-7.3205760">
        <ele>1306.9</ele>
        <time>2014-10-01T15:05:50Z</time>
      </trkpt>
      <trkpt lat="42.2877820" lon="-7.3206470">
        <ele>1306.9</ele>
        <time>2014-10-01T15:05:51Z</time>
      </trkpt>
      <trkpt lat="42.2878450" lon="-7.3207180">
        <ele>1306.9</ele>
        <time>2014-10-01T15:05:52Z</time>
      </trkpt>
      <trkpt lat="42.2879070" lon="-7.3207860">
        <ele>1306.9</ele>
        <time>2014-10-01T15:05:53Z</time>
      </trkpt>
      <trkpt lat="42.2879680" lon="-7.3208490">
        <ele>1307.0</ele>
        <time>2014-10-01T15:05:54Z</time>
      </trkpt>
      <trkpt lat="42.2880270" lon="-7.3209100">
        <ele>1307.1</ele>
        <time>2014-10-01T15:05:55Z</time>
      </trkpt>
      <trkpt lat="42.2880850" lon="-7.3209730">
        <ele>1307.1</ele>
        <time>2014-10-01T15:05:56Z</time>
      </trkpt>
      <trkpt lat="42.2881380" lon="-7.3210340">
        <ele>1307.2</ele>
        <time>2014-10-01T15:05:57Z</time>
      </trkpt>
      <trkpt lat="42.2881890" lon="-7.3210990">
        <ele>1307.4</ele>
        <time>2014-10-01T15:05:58Z</time>
      </trkpt>
      <trkpt lat="42.2882370" lon="-7.3211630">
        <ele>1307.5</ele>
        <time>2014-10-01T15:05:59Z</time>
      </trkpt>
      <trkpt lat="42.2882790" lon="-7.3212240">
        <ele>1307.7</ele>
        <time>2014-10-01T15:06:00Z</time>
      </trkpt>
      <trkpt lat="42.2883210" lon="-7.3212880">
        <ele>1307.8</ele>
        <time>2014-10-01T15:06:01Z</time>
      </trkpt>
      <trkpt lat="42.2883620" lon="-7.3213560">
        <ele>1307.9</ele>
        <time>2014-10-01T15:06:02Z</time>
      </trkpt>
      <trkpt lat="42.2884010" lon="-7.3214260">
        <ele>1308.0</ele>
        <time>2014-10-01T15:06:03Z</time>
      </trkpt>
      <trkpt lat="42.2884240" lon="-7.3215060">
        <ele>1308.2</ele>
        <time>2014-10-01T15:06:04Z</time>
      </trkpt>
      <trkpt lat="42.2884450" lon="-7.3215870">
        <ele>1308.3</ele>
        <time>2014-10-01T15:06:05Z</time>
      </trkpt>
      <trkpt lat="42.2884610" lon="-7.3216660">
        <ele>1308.5</ele>
        <time>2014-10-01T15:06:06Z</time>
      </trkpt>
      <trkpt lat="42.2884710" lon="-7.3217460">
        <ele>1308.6</ele>
        <time>2014-10-01T15:06:07Z</time>
      </trkpt>
      <trkpt lat="42.2884650" lon="-7.3218340">
        <ele>1308.8</ele>
        <time>2014-10-01T15:06:08Z</time>
      </trkpt>
      <trkpt lat="42.2884570" lon="-7.3219190">
        <ele>1309.0</ele>
        <time>2014-10-01T15:06:09Z</time>
      </trkpt>
      <trkpt lat="42.2884450" lon="-7.3220060">
        <ele>1309.1</ele>
        <time>2014-10-01T15:06:10Z</time>
      </trkpt>
      <trkpt lat="42.2884310" lon="-7.3220900">
        <ele>1309.2</ele>
        <time>2014-10-01T15:06:11Z</time>
      </trkpt>
      <trkpt lat="42.2884160" lon="-7.3221700">
        <ele>1309.4</ele>
        <time>2014-10-01T15:06:12Z</time>
      </trkpt>
      <trkpt lat="42.2884000" lon="-7.3222520">
        <ele>1309.5</ele>
        <time>2014-10-01T15:06:13Z</time>
      </trkpt>
      <trkpt lat="42.2883820" lon="-7.3223330">
        <ele>1309.7</ele>
        <time>2014-10-01T15:06:14Z</time>
      </trkpt>
      <trkpt lat="42.2883650" lon="-7.3224110">
        <ele>1309.8</ele>
        <time>2014-10-01T15:06:15Z</time>
      </trkpt>
      <trkpt lat="42.2883480" lon="-7.3224870">
        <ele>1309.9</ele>
        <time>2014-10-01T15:06:16Z</time>
      </trkpt>
      <trkpt lat="42.2883310" lon="-7.3225650">
        <ele>1310.1</ele>
        <time>2014-10-01T15:06:17Z</time>
      </trkpt>
      <trkpt lat="42.2883110" lon="-7.3226470">
        <ele>1310.2</ele>
        <time>2014-10-01T15:06:18Z</time>
      </trkpt>
      <trkpt lat="42.2882940" lon="-7.3227260">
        <ele>1310.3</ele>
        <time>2014-10-01T15:06:19Z</time>
      </trkpt>
      <trkpt lat="42.2882770" lon="-7.3228040">
        <ele>1310.5</ele>
        <time>2014-10-01T15:06:20Z</time>
      </trkpt>
      <trkpt lat="42.2882600" lon="-7.3228780">
        <ele>1310.6</ele>
        <time>2014-10-01T15:06:21Z</time>
      </trkpt>
      <trkpt lat="42.2882440" lon="-7.3229480">
        <ele>1310.7</ele>
        <time>2014-10-01T15:06:22Z</time>
      </trkpt>
      <trkpt lat="42.2882280" lon="-7.3230200">
        <ele>1310.9</ele>
        <time>2014-10-01T15:06:23Z</time>
      </trkpt>
      <trkpt lat="42.2882110" lon="-7.3230930">
        <ele>1311.3</ele>
        <time>2014-10-01T15:06:24Z</time>
      </trkpt>
      <trkpt lat="42.2881930" lon="-7.3231700">
        <ele>1311.6</ele>
        <time>2014-10-01T15:06:25Z</time>
      </trkpt>
      <trkpt lat="42.2881750" lon="-7.3232490">
        <ele>1311.8</ele>
        <time>2014-10-01T15:06:26Z</time>
      </trkpt>
      <trkpt lat="42.2881570" lon="-7.3233260">
        <ele>1312.0</ele>
        <time>2014-10-01T15:06:27Z</time>
      </trkpt>
      <trkpt lat="42.2881410" lon="-7.3234020">
        <ele>1312.2</ele>
        <time>2014-10-01T15:06:28Z</time>
      </trkpt>
      <trkpt lat="42.2881260" lon="-7.3234760">
        <ele>1312.3</ele>
        <time>2014-10-01T15:06:29Z</time>
      </trkpt>
      <trkpt lat="42.2881100" lon="-7.3235500">
        <ele>1312.5</ele>
        <time>2014-10-01T15:06:30Z</time>
      </trkpt>
      <trkpt lat="42.2880960" lon="-7.3236250">
        <ele>1312.6</ele>
        <time>2014-10-01T15:06:31Z</time>
      </trkpt>
      <trkpt lat="42.2880830" lon="-7.3236980">
        <ele>1312.7</ele>
        <time>2014-10-01T15:06:32Z</time>
      </trkpt>
      <trkpt lat="42.2880700" lon="-7.3237690">
        <ele>1312.7</ele>
        <time>2014-10-01T15:06:33Z</time>
      </trkpt>
      <trkpt lat="42.2880560" lon="-7.3238410">
        <ele>1312.8</ele>
        <time>2014-10-01T15:06:34Z</time>
      </trkpt>
      <trkpt lat="42.2880430" lon="-7.3239150">
        <ele>1312.9</ele>
        <time>2014-10-01T15:06:35Z</time>
      </trkpt>
      <trkpt lat="42.2880310" lon="-7.3239950">
        <ele>1312.9</ele>
        <time>2014-10-01T15:06:36Z</time>
      </trkpt>
      <trkpt lat="42.2880210" lon="-7.3240760">
        <ele>1312.9</ele>
        <time>2014-10-01T15:06:37Z</time>
      </trkpt>
      <trkpt lat="42.2880120" lon="-7.3241630">
        <ele>1312.9</ele>
        <time>2014-10-01T15:06:38Z</time>
      </trkpt>
      <trkpt lat="42.2880070" lon="-7.3242480">
        <ele>1312.8</ele>
        <time>2014-10-01T15:06:39Z</time>
      </trkpt>
      <trkpt lat="42.2880070" lon="-7.3243350">
        <ele>1312.8</ele>
        <time>2014-10-01T15:06:40Z</time>
      </trkpt>
      <trkpt lat="42.2880210" lon="-7.3244200">
        <ele>1312.7</ele>
        <time>2014-10-01T15:06:41Z</time>
      </trkpt>
      <trkpt lat="42.2880400" lon="-7.3245060">
        <ele>1312.6</ele>
        <time>2014-10-01T15:06:42Z</time>
      </trkpt>
      <trkpt lat="42.2880750" lon="-7.3245840">
        <ele>1312.5</ele>
        <time>2014-10-01T15:06:43Z</time>
      </trkpt>
      <trkpt lat="42.2881120" lon="-7.3246550">
        <ele>1312.3</ele>
        <time>2014-10-01T15:06:44Z</time>
      </trkpt>
      <trkpt lat="42.2881540" lon="-7.3247260">
        <ele>1312.1</ele>
        <time>2014-10-01T15:06:45Z</time>
      </trkpt>
      <trkpt lat="42.2881990" lon="-7.3247930">
        <ele>1311.9</ele>
        <time>2014-10-01T15:06:46Z</time>
      </trkpt>
      <trkpt lat="42.2882560" lon="-7.3248450">
        <ele>1311.6</ele>
        <time>2014-10-01T15:06:47Z</time>
      </trkpt>
      <trkpt lat="42.2883140" lon="-7.3248950">
        <ele>1311.3</ele>
        <time>2014-10-01T15:06:48Z</time>
      </trkpt>
      <trkpt lat="42.2883750" lon="-7.3249430">
        <ele>1311.0</ele>
        <time>2014-10-01T15:06:49Z</time>
      </trkpt>
      <trkpt lat="42.2884390" lon="-7.3249860">
        <ele>1310.7</ele>
        <time>2014-10-01T15:06:50Z</time>
      </trkpt>
      <trkpt lat="42.2885080" lon="-7.3250280">
        <ele>1310.4</ele>
        <time>2014-10-01T15:06:51Z</time>
      </trkpt>
      <trkpt lat="42.2885820" lon="-7.3250690">
        <ele>1309.9</ele>
        <time>2014-10-01T15:06:52Z</time>
      </trkpt>
      <trkpt lat="42.2886590" lon="-7.3251070">
        <ele>1309.5</ele>
        <time>2014-10-01T15:06:53Z</time>
      </trkpt>
      <trkpt lat="42.2887400" lon="-7.3251440">
        <ele>1308.9</ele>
        <time>2014-10-01T15:06:54Z</time>
      </trkpt>
      <trkpt lat="42.2888220" lon="-7.3251790">
        <ele>1308.4</ele>
        <time>2014-10-01T15:06:55Z</time>
      </trkpt>
      <trkpt lat="42.2889060" lon="-7.3252100">
        <ele>1307.9</ele>
        <time>2014-10-01T15:06:56Z</time>
      </trkpt>
      <trkpt lat="42.2889950" lon="-7.3252330">
        <ele>1307.3</ele>
        <time>2014-10-01T15:06:57Z</time>
      </trkpt>
      <trkpt lat="42.2890880" lon="-7.3252510">
        <ele>1306.7</ele>
        <time>2014-10-01T15:06:58Z</time>
      </trkpt>
      <trkpt lat="42.2891820" lon="-7.3252680">
        <ele>1306.0</ele>
        <time>2014-10-01T15:06:59Z</time>
      </trkpt>
      <trkpt lat="42.2892790" lon="-7.3252820">
        <ele>1305.3</ele>
        <time>2014-10-01T15:07:00Z</time>
      </trkpt>
      <trkpt lat="42.2893810" lon="-7.3252870">
        <ele>1304.6</ele>
        <time>2014-10-01T15:07:01Z</time>
      </trkpt>
      <trkpt lat="42.2894880" lon="-7.3252850">
        <ele>1303.8</ele>
        <time>2014-10-01T15:07:02Z</time>
      </trkpt>
      <trkpt lat="42.2896030" lon="-7.3252760">
        <ele>1302.9</ele>
        <time>2014-10-01T15:07:03Z</time>
      </trkpt>
      <trkpt lat="42.2897230" lon="-7.3252630">
        <ele>1302.1</ele>
        <time>2014-10-01T15:07:04Z</time>
      </trkpt>
      <trkpt lat="42.2898390" lon="-7.3252510">
        <ele>1301.3</ele>
        <time>2014-10-01T15:07:05Z</time>
      </trkpt>
      <trkpt lat="42.2899520" lon="-7.3252350">
        <ele>1300.5</ele>
        <time>2014-10-01T15:07:06Z</time>
      </trkpt>
      <trkpt lat="42.2900680" lon="-7.3252200">
        <ele>1299.7</ele>
        <time>2014-10-01T15:07:07Z</time>
      </trkpt>
      <trkpt lat="42.2901810" lon="-7.3252010">
        <ele>1298.8</ele>
        <time>2014-10-01T15:07:08Z</time>
      </trkpt>
      <trkpt lat="42.2902940" lon="-7.3251830">
        <ele>1298.0</ele>
        <time>2014-10-01T15:07:09Z</time>
      </trkpt>
      <trkpt lat="42.2904050" lon="-7.3251620">
        <ele>1297.2</ele>
        <time>2014-10-01T15:07:10Z</time>
      </trkpt>
      <trkpt lat="42.2905160" lon="-7.3251330">
        <ele>1296.4</ele>
        <time>2014-10-01T15:07:11Z</time>
      </trkpt>
      <trkpt lat="42.2906300" lon="-7.3250950">
        <ele>1295.4</ele>
        <time>2014-10-01T15:07:12Z</time>
      </trkpt>
      <trkpt lat="42.2907370" lon="-7.3250250">
        <ele>1294.4</ele>
        <time>2014-10-01T15:07:13Z</time>
      </trkpt>
      <trkpt lat="42.2908410" lon="-7.3249480">
        <ele>1293.4</ele>
        <time>2014-10-01T15:07:14Z</time>
      </trkpt>
      <trkpt lat="42.2909450" lon="-7.3248630">
        <ele>1292.3</ele>
        <time>2014-10-01T15:07:15Z</time>
      </trkpt>
      <trkpt lat="42.2910520" lon="-7.3247700">
        <ele>1291.2</ele>
        <time>2014-10-01T15:07:16Z</time>
      </trkpt>
      <trkpt lat="42.2911560" lon="-7.3246790">
        <ele>1290.2</ele>
        <time>2014-10-01T15:07:17Z</time>
      </trkpt>
      <trkpt lat="42.2912650" lon="-7.3245820">
        <ele>1289.1</ele>
        <time>2014-10-01T15:07:18Z</time>
      </trkpt>
      <trkpt lat="42.2913680" lon="-7.3244910">
        <ele>1288.1</ele>
        <time>2014-10-01T15:07:19Z</time>
      </trkpt>
      <trkpt lat="42.2914680" lon="-7.3244030">
        <ele>1287.2</ele>
        <time>2014-10-01T15:07:20Z</time>
      </trkpt>
      <trkpt lat="42.2915660" lon="-7.3243320">
        <ele>1286.3</ele>
        <time>2014-10-01T15:07:21Z</time>
      </trkpt>
      <trkpt lat="42.2916740" lon="-7.3242690">
        <ele>1285.4</ele>
        <time>2014-10-01T15:07:22Z</time>
      </trkpt>
      <trkpt lat="42.2917860" lon="-7.3242160">
        <ele>1284.5</ele>
        <time>2014-10-01T15:07:23Z</time>
      </trkpt>
      <trkpt lat="42.2919010" lon="-7.3241690">
        <ele>1283.5</ele>
        <time>2014-10-01T15:07:24Z</time>
      </trkpt>
      <trkpt lat="42.2920180" lon="-7.3241270">
        <ele>1282.4</ele>
        <time>2014-10-01T15:07:25Z</time>
      </trkpt>
      <trkpt lat="42.2921400" lon="-7.3240880">
        <ele>1281.3</ele>
        <time>2014-10-01T15:07:26Z</time>
      </trkpt>
      <trkpt lat="42.2922630" lon="-7.3240490">
        <ele>1280.3</ele>
        <time>2014-10-01T15:07:27Z</time>
      </trkpt>
      <trkpt lat="42.2923880" lon="-7.3240140">
        <ele>1279.2</ele>
        <time>2014-10-01T15:07:28Z</time>
      </trkpt>
      <trkpt lat="42.2925190" lon="-7.3239780">
        <ele>1278.1</ele>
        <time>2014-10-01T15:07:29Z</time>
      </trkpt>
      <trkpt lat="42.2926480" lon="-7.3239440">
        <ele>1277.0</ele>
        <time>2014-10-01T15:07:30Z</time>
      </trkpt>
      <trkpt lat="42.2927770" lon="-7.3239110">
        <ele>1275.9</ele>
        <time>2014-10-01T15:07:31Z</time>
      </trkpt>
      <trkpt lat="42.2929100" lon="-7.3238760">
        <ele>1274.8</ele>
        <time>2014-10-01T15:07:32Z</time>
      </trkpt>
      <trkpt lat="42.2930400" lon="-7.3238400">
        <ele>1273.7</ele>
        <time>2014-10-01T15:07:33Z</time>
      </trkpt>
      <trkpt lat="42.2931690" lon="-7.3238070">
        <ele>1272.6</ele>
        <time>2014-10-01T15:07:34Z</time>
      </trkpt>
      <trkpt lat="42.2933030" lon="-7.3237720">
        <ele>1271.4</ele>
        <time>2014-10-01T15:07:35Z</time>
      </trkpt>
      <trkpt lat="42.2934350" lon="-7.3237370">
        <ele>1270.3</ele>
        <time>2014-10-01T15:07:36Z</time>
      </trkpt>
      <trkpt lat="42.2935660" lon="-7.3236980">
        <ele>1269.1</ele>
        <time>2014-10-01T15:07:37Z</time>
      </trkpt>
      <trkpt lat="42.2936960" lon="-7.3236590">
        <ele>1268.0</ele>
        <time>2014-10-01T15:07:38Z</time>
      </trkpt>
      <trkpt lat="42.2938230" lon="-7.3236200">
        <ele>1266.9</ele>
        <time>2014-10-01T15:07:39Z</time>
      </trkpt>
      <trkpt lat="42.2939520" lon="-7.3235810">
        <ele>1265.9</ele>
        <time>2014-10-01T15:07:40Z</time>
      </trkpt>
      <trkpt lat="42.2940830" lon="-7.3235420">
        <ele>1264.8</ele>
        <time>2014-10-01T15:07:41Z</time>
      </trkpt>
      <trkpt lat="42.2942090" lon="-7.3235020">
        <ele>1263.8</ele>
        <time>2014-10-01T15:07:42Z</time>
      </trkpt>
      <trkpt lat="42.2943340" lon="-7.3234670">
        <ele>1262.8</ele>
        <time>2014-10-01T15:07:43Z</time>
      </trkpt>
      <trkpt lat="42.2944630" lon="-7.3234310">
        <ele>1261.8</ele>
        <time>2014-10-01T15:07:44Z</time>
      </trkpt>
      <trkpt lat="42.2945960" lon="-7.3234000">
        <ele>1260.6</ele>
        <time>2014-10-01T15:07:45Z</time>
      </trkpt>
      <trkpt lat="42.2947260" lon="-7.3233700">
        <ele>1259.4</ele>
        <time>2014-10-01T15:07:46Z</time>
      </trkpt>
      <trkpt lat="42.2948560" lon="-7.3233500">
        <ele>1258.4</ele>
        <time>2014-10-01T15:07:47Z</time>
      </trkpt>
      <trkpt lat="42.2949840" lon="-7.3233460">
        <ele>1257.5</ele>
        <time>2014-10-01T15:07:48Z</time>
      </trkpt>
      <trkpt lat="42.2951090" lon="-7.3233860">
        <ele>1256.5</ele>
        <time>2014-10-01T15:07:49Z</time>
      </trkpt>
      <trkpt lat="42.2952370" lon="-7.3234320">
        <ele>1255.4</ele>
        <time>2014-10-01T15:07:50Z</time>
      </trkpt>
      <trkpt lat="42.2953630" lon="-7.3234910">
        <ele>1254.4</ele>
        <time>2014-10-01T15:07:51Z</time>
      </trkpt>
      <trkpt lat="42.2954850" lon="-7.3235570">
        <ele>1253.3</ele>
        <time>2014-10-01T15:07:52Z</time>
      </trkpt>
      <trkpt lat="42.2956050" lon="-7.3236280">
        <ele>1252.3</ele>
        <time>2014-10-01T15:07:53Z</time>
      </trkpt>
      <trkpt lat="42.2957160" lon="-7.3237010">
        <ele>1251.3</ele>
        <time>2014-10-01T15:07:54Z</time>
      </trkpt>
      <trkpt lat="42.2958280" lon="-7.3237750">
        <ele>1250.3</ele>
        <time>2014-10-01T15:07:55Z</time>
      </trkpt>
      <trkpt lat="42.2959460" lon="-7.3238540">
        <ele>1249.2</ele>
        <time>2014-10-01T15:07:56Z</time>
      </trkpt>
      <trkpt lat="42.2960610" lon="-7.3239300">
        <ele>1248.3</ele>
        <time>2014-10-01T15:07:57Z</time>
      </trkpt>
      <trkpt lat="42.2961720" lon="-7.3240100">
        <ele>1247.5</ele>
        <time>2014-10-01T15:07:58Z</time>
      </trkpt>
      <trkpt lat="42.2962800" lon="-7.3240880">
        <ele>1246.5</ele>
        <time>2014-10-01T15:07:59Z</time>
      </trkpt>
      <trkpt lat="42.2963870" lon="-7.3241650">
        <ele>1245.4</ele>
        <time>2014-10-01T15:08:00Z</time>
      </trkpt>
      <trkpt lat="42.2964930" lon="-7.3242410">
        <ele>1244.4</ele>
        <time>2014-10-01T15:08:01Z</time>
      </trkpt>
      <trkpt lat="42.2965980" lon="-7.3243140">
        <ele>1243.4</ele>
        <time>2014-10-01T15:08:02Z</time>
      </trkpt>
      <trkpt lat="42.2967050" lon="-7.3243880">
        <ele>1242.3</ele>
        <time>2014-10-01T15:08:03Z</time>
      </trkpt>
      <trkpt lat="42.2968110" lon="-7.3244610">
        <ele>1241.3</ele>
        <time>2014-10-01T15:08:04Z</time>
      </trkpt>
      <trkpt lat="42.2969200" lon="-7.3245310">
        <ele>1240.3</ele>
        <time>2014-10-01T15:08:05Z</time>
      </trkpt>
      <trkpt lat="42.2970230" lon="-7.3245970">
        <ele>1239.3</ele>
        <time>2014-10-01T15:08:06Z</time>
      </trkpt>
      <trkpt lat="42.2971300" lon="-7.3246610">
        <ele>1238.3</ele>
        <time>2014-10-01T15:08:07Z</time>
      </trkpt>
      <trkpt lat="42.2972360" lon="-7.3247240">
        <ele>1237.4</ele>
        <time>2014-10-01T15:08:08Z</time>
      </trkpt>
      <trkpt lat="42.2973410" lon="-7.3247870">
        <ele>1236.5</ele>
        <time>2014-10-01T15:08:09Z</time>
      </trkpt>
      <trkpt lat="42.2974510" lon="-7.3248530">
        <ele>1235.6</ele>
        <time>2014-10-01T15:08:10Z</time>
      </trkpt>
      <trkpt lat="42.2975590" lon="-7.3249180">
        <ele>1234.6</ele>
        <time>2014-10-01T15:08:11Z</time>
      </trkpt>
      <trkpt lat="42.2976610" lon="-7.3249800">
        <ele>1233.6</ele>
        <time>2014-10-01T15:08:12Z</time>
      </trkpt>
      <trkpt lat="42.2977610" lon="-7.3250440">
        <ele>1232.6</ele>
        <time>2014-10-01T15:08:13Z</time>
      </trkpt>
      <trkpt lat="42.2978640" lon="-7.3251110">
        <ele>1231.7</ele>
        <time>2014-10-01T15:08:14Z</time>
      </trkpt>
      <trkpt lat="42.2979730" lon="-7.3251860">
        <ele>1230.7</ele>
        <time>2014-10-01T15:08:15Z</time>
      </trkpt>
      <trkpt lat="42.2980750" lon="-7.3252650">
        <ele>1229.7</ele>
        <time>2014-10-01T15:08:16Z</time>
      </trkpt>
      <trkpt lat="42.2981750" lon="-7.3253550">
        <ele>1228.6</ele>
        <time>2014-10-01T15:08:17Z</time>
      </trkpt>
      <trkpt lat="42.2982570" lon="-7.3254760">
        <ele>1227.4</ele>
        <time>2014-10-01T15:08:18Z</time>
      </trkpt>
      <trkpt lat="42.2983360" lon="-7.3256030">
        <ele>1226.3</ele>
        <time>2014-10-01T15:08:19Z</time>
      </trkpt>
      <trkpt lat="42.2983950" lon="-7.3257570">
        <ele>1225.1</ele>
        <time>2014-10-01T15:08:20Z</time>
      </trkpt>
      <trkpt lat="42.2984450" lon="-7.3259070">
        <ele>1223.9</ele>
        <time>2014-10-01T15:08:21Z</time>
      </trkpt>
      <trkpt lat="42.2984900" lon="-7.3260580">
        <ele>1222.7</ele>
        <time>2014-10-01T15:08:22Z</time>
      </trkpt>
      <trkpt lat="42.2985250" lon="-7.3262130">
        <ele>1221.6</ele>
        <time>2014-10-01T15:08:23Z</time>
      </trkpt>
      <trkpt lat="42.2985550" lon="-7.3263730">
        <ele>1220.7</ele>
        <time>2014-10-01T15:08:24Z</time>
      </trkpt>
      <trkpt lat="42.2985620" lon="-7.3265460">
        <ele>1219.7</ele>
        <time>2014-10-01T15:08:25Z</time>
      </trkpt>
      <trkpt lat="42.2985630" lon="-7.3267200">
        <ele>1218.7</ele>
        <time>2014-10-01T15:08:26Z</time>
      </trkpt>
      <trkpt lat="42.2985570" lon="-7.3268880">
        <ele>1217.7</ele>
        <time>2014-10-01T15:08:27Z</time>
      </trkpt>
      <trkpt lat="42.2985550" lon="-7.3270550">
        <ele>1216.8</ele>
        <time>2014-10-01T15:08:28Z</time>
      </trkpt>
      <trkpt lat="42.2985560" lon="-7.3272190">
        <ele>1215.9</ele>
        <time>2014-10-01T15:08:29Z</time>
      </trkpt>
      <trkpt lat="42.2985940" lon="-7.3273700">
        <ele>1215.0</ele>
        <time>2014-10-01T15:08:30Z</time>
      </trkpt>
      <trkpt lat="42.2986380" lon="-7.3275190">
        <ele>1214.0</ele>
        <time>2014-10-01T15:08:31Z</time>
      </trkpt>
      <trkpt lat="42.2987200" lon="-7.3276350">
        <ele>1213.0</ele>
        <time>2014-10-01T15:08:32Z</time>
      </trkpt>
      <trkpt lat="42.2988190" lon="-7.3277170">
        <ele>1212.0</ele>
        <time>2014-10-01T15:08:33Z</time>
      </trkpt>
      <trkpt lat="42.2989330" lon="-7.3277620">
        <ele>1211.0</ele>
        <time>2014-10-01T15:08:34Z</time>
      </trkpt>
      <trkpt lat="42.2990560" lon="-7.3277690">
        <ele>1210.1</ele>
        <time>2014-10-01T15:08:35Z</time>
      </trkpt>
      <trkpt lat="42.2991730" lon="-7.3277580">
        <ele>1209.3</ele>
        <time>2014-10-01T15:08:36Z</time>
      </trkpt>
      <trkpt lat="42.2992900" lon="-7.3277110">
        <ele>1208.6</ele>
        <time>2014-10-01T15:08:37Z</time>
      </trkpt>
      <trkpt lat="42.2994090" lon="-7.3276610">
        <ele>1207.9</ele>
        <time>2014-10-01T15:08:38Z</time>
      </trkpt>
      <trkpt lat="42.2995230" lon="-7.3276040">
        <ele>1207.2</ele>
        <time>2014-10-01T15:08:39Z</time>
      </trkpt>
      <trkpt lat="42.2996360" lon="-7.3275410">
        <ele>1206.7</ele>
        <time>2014-10-01T15:08:40Z</time>
      </trkpt>
      <trkpt lat="42.2997450" lon="-7.3274760">
        <ele>1206.1</ele>
        <time>2014-10-01T15:08:41Z</time>
      </trkpt>
      <trkpt lat="42.2998530" lon="-7.3274080">
        <ele>1205.5</ele>
        <time>2014-10-01T15:08:42Z</time>
      </trkpt>
      <trkpt lat="42.2999580" lon="-7.3273440">
        <ele>1205.0</ele>
        <time>2014-10-01T15:08:43Z</time>
      </trkpt>
      <trkpt lat="42.3000620" lon="-7.3272910">
        <ele>1204.6</ele>
        <time>2014-10-01T15:08:44Z</time>
      </trkpt>
      <trkpt lat="42.3001680" lon="-7.3272480">
        <ele>1204.2</ele>
        <time>2014-10-01T15:08:45Z</time>
      </trkpt>
      <trkpt lat="42.3002780" lon="-7.3272170">
        <ele>1203.9</ele>
        <time>2014-10-01T15:08:46Z</time>
      </trkpt>
      <trkpt lat="42.3003880" lon="-7.3272210">
        <ele>1203.7</ele>
        <time>2014-10-01T15:08:47Z</time>
      </trkpt>
      <trkpt lat="42.3004950" lon="-7.3272310">
        <ele>1203.5</ele>
        <time>2014-10-01T15:08:48Z</time>
      </trkpt>
      <trkpt lat="42.3005980" lon="-7.3272490">
        <ele>1203.3</ele>
        <time>2014-10-01T15:08:49Z</time>
      </trkpt>
      <trkpt lat="42.3006990" lon="-7.3272750">
        <ele>1203.0</ele>
        <time>2014-10-01T15:08:50Z</time>
      </trkpt>
      <trkpt lat="42.3007980" lon="-7.3273040">
        <ele>1202.8</ele>
        <time>2014-10-01T15:08:51Z</time>
      </trkpt>
      <trkpt lat="42.3008990" lon="-7.3273370">
        <ele>1202.6</ele>
        <time>2014-10-01T15:08:52Z</time>
      </trkpt>
      <trkpt lat="42.3009970" lon="-7.3273680">
        <ele>1202.3</ele>
        <time>2014-10-01T15:08:53Z</time>
      </trkpt>
      <trkpt lat="42.3010940" lon="-7.3274020">
        <ele>1202.1</ele>
        <time>2014-10-01T15:08:54Z</time>
      </trkpt>
      <trkpt lat="42.3011910" lon="-7.3274350">
        <ele>1202.1</ele>
        <time>2014-10-01T15:08:55Z</time>
      </trkpt>
      <trkpt lat="42.3012830" lon="-7.3274650">
        <ele>1202.1</ele>
        <time>2014-10-01T15:08:56Z</time>
      </trkpt>
      <trkpt lat="42.3013750" lon="-7.3274960">
        <ele>1202.0</ele>
        <time>2014-10-01T15:08:57Z</time>
      </trkpt>
      <trkpt lat="42.3014620" lon="-7.3275280">
        <ele>1202.0</ele>
        <time>2014-10-01T15:08:58Z</time>
      </trkpt>
      <trkpt lat="42.3015470" lon="-7.3275580">
        <ele>1201.8</ele>
        <time>2014-10-01T15:08:59Z</time>
      </trkpt>
      <trkpt lat="42.3016340" lon="-7.3275890">
        <ele>1201.7</ele>
        <time>2014-10-01T15:09:00Z</time>
      </trkpt>
      <trkpt lat="42.3017190" lon="-7.3276180">
        <ele>1201.6</ele>
        <time>2014-10-01T15:09:01Z</time>
      </trkpt>
      <trkpt lat="42.3018020" lon="-7.3276470">
        <ele>1201.4</ele>
        <time>2014-10-01T15:09:02Z</time>
      </trkpt>
      <trkpt lat="42.3018840" lon="-7.3276750">
        <ele>1201.2</ele>
        <time>2014-10-01T15:09:03Z</time>
      </trkpt>
      <trkpt lat="42.3019670" lon="-7.3277030">
        <ele>1200.9</ele>
        <time>2014-10-01T15:09:04Z</time>
      </trkpt>
      <trkpt lat="42.3020470" lon="-7.3277290">
        <ele>1200.7</ele>
        <time>2014-10-01T15:09:05Z</time>
      </trkpt>
      <trkpt lat="42.3021290" lon="-7.3277560">
        <ele>1200.5</ele>
        <time>2014-10-01T15:09:06Z</time>
      </trkpt>
      <trkpt lat="42.3022110" lon="-7.3277820">
        <ele>1200.2</ele>
        <time>2014-10-01T15:09:07Z</time>
      </trkpt>
      <trkpt lat="42.3022930" lon="-7.3278090">
        <ele>1199.9</ele>
        <time>2014-10-01T15:09:08Z</time>
      </trkpt>
      <trkpt lat="42.3023760" lon="-7.3278350">
        <ele>1199.5</ele>
        <time>2014-10-01T15:09:09Z</time>
      </trkpt>
      <trkpt lat="42.3024620" lon="-7.3278630">
        <ele>1199.0</ele>
        <time>2014-10-01T15:09:10Z</time>
      </trkpt>
      <trkpt lat="42.3025470" lon="-7.3278900">
        <ele>1198.4</ele>
        <time>2014-10-01T15:09:11Z</time>
      </trkpt>
      <trkpt lat="42.3026320" lon="-7.3279180">
        <ele>1197.8</ele>
        <time>2014-10-01T15:09:12Z</time>
      </trkpt>
      <trkpt lat="42.3027180" lon="-7.3279460">
        <ele>1197.2</ele>
        <time>2014-10-01T15:09:13Z</time>
      </trkpt>
      <trkpt lat="42.3028050" lon="-7.3279750">
        <ele>1196.6</ele>
        <time>2014-10-01T15:09:14Z</time>
      </trkpt>
      <trkpt lat="42.3028930" lon="-7.3280030">
        <ele>1195.9</ele>
        <time>2014-10-01T15:09:15Z</time>
      </trkpt>
      <trkpt lat="42.3029820" lon="-7.3280280">
        <ele>1195.2</ele>
        <time>2014-10-01T15:09:16Z</time>
      </trkpt>
      <trkpt lat="42.3030770" lon="-7.3280570">
        <ele>1194.6</ele>
        <time>2014-10-01T15:09:17Z</time>
      </trkpt>
      <trkpt lat="42.3031700" lon="-7.3280860">
        <ele>1194.0</ele>
        <time>2014-10-01T15:09:18Z</time>
      </trkpt>
      <trkpt lat="42.3032680" lon="-7.3281180">
        <ele>1193.2</ele>
        <time>2014-10-01T15:09:19Z</time>
      </trkpt>
      <trkpt lat="42.3033680" lon="-7.3281500">
        <ele>1192.5</ele>
        <time>2014-10-01T15:09:20Z</time>
      </trkpt>
      <trkpt lat="42.3034660" lon="-7.3281810">
        <ele>1191.8</ele>
        <time>2014-10-01T15:09:21Z</time>
      </trkpt>
      <trkpt lat="42.3035660" lon="-7.3282130">
        <ele>1191.1</ele>
        <time>2014-10-01T15:09:22Z</time>
      </trkpt>
      <trkpt lat="42.3036680" lon="-7.3282420">
        <ele>1190.3</ele>
        <time>2014-10-01T15:09:23Z</time>
      </trkpt>
      <trkpt lat="42.3037680" lon="-7.3282710">
        <ele>1189.6</ele>
        <time>2014-10-01T15:09:24Z</time>
      </trkpt>
      <trkpt lat="42.3038700" lon="-7.3283010">
        <ele>1188.8</ele>
        <time>2014-10-01T15:09:25Z</time>
      </trkpt>
      <trkpt lat="42.3039750" lon="-7.3283330">
        <ele>1188.0</ele>
        <time>2014-10-01T15:09:26Z</time>
      </trkpt>
      <trkpt lat="42.3040770" lon="-7.3283670">
        <ele>1187.2</ele>
        <time>2014-10-01T15:09:27Z</time>
      </trkpt>
      <trkpt lat="42.3041860" lon="-7.3284040">
        <ele>1186.4</ele>
        <time>2014-10-01T15:09:28Z</time>
      </trkpt>
      <trkpt lat="42.3042940" lon="-7.3284390">
        <ele>1185.6</ele>
        <time>2014-10-01T15:09:29Z</time>
      </trkpt>
      <trkpt lat="42.3044040" lon="-7.3284760">
        <ele>1184.7</ele>
        <time>2014-10-01T15:09:30Z</time>
      </trkpt>
      <trkpt lat="42.3045190" lon="-7.3285140">
        <ele>1183.8</ele>
        <time>2014-10-01T15:09:31Z</time>
      </trkpt>
      <trkpt lat="42.3046320" lon="-7.3285510">
        <ele>1183.0</ele>
        <time>2014-10-01T15:09:32Z</time>
      </trkpt>
      <trkpt lat="42.3047460" lon="-7.3285890">
        <ele>1182.1</ele>
        <time>2014-10-01T15:09:33Z</time>
      </trkpt>
      <trkpt lat="42.3048580" lon="-7.3286250">
        <ele>1181.2</ele>
        <time>2014-10-01T15:09:34Z</time>
      </trkpt>
      <trkpt lat="42.3049690" lon="-7.3286610">
        <ele>1180.4</ele>
        <time>2014-10-01T15:09:35Z</time>
      </trkpt>
      <trkpt lat="42.3050820" lon="-7.3286980">
        <ele>1179.6</ele>
        <time>2014-10-01T15:09:36Z</time>
      </trkpt>
      <trkpt lat="42.3051940" lon="-7.3287350">
        <ele>1178.7</ele>
        <time>2014-10-01T15:09:37Z</time>
      </trkpt>
      <trkpt lat="42.3053060" lon="-7.3287710">
        <ele>1177.8</ele>
        <time>2014-10-01T15:09:38Z</time>
      </trkpt>
      <trkpt lat="42.3054190" lon="-7.3288080">
        <ele>1176.9</ele>
        <time>2014-10-01T15:09:39Z</time>
      </trkpt>
      <trkpt lat="42.3055350" lon="-7.3288460">
        <ele>1175.9</ele>
        <time>2014-10-01T15:09:40Z</time>
      </trkpt>
      <trkpt lat="42.3056490" lon="-7.3288840">
        <ele>1175.0</ele>
        <time>2014-10-01T15:09:41Z</time>
      </trkpt>
      <trkpt lat="42.3057690" lon="-7.3289230">
        <ele>1174.0</ele>
        <time>2014-10-01T15:09:42Z</time>
      </trkpt>
      <trkpt lat="42.3058840" lon="-7.3289600">
        <ele>1173.1</ele>
        <time>2014-10-01T15:09:43Z</time>
      </trkpt>
      <trkpt lat="42.3060010" lon="-7.3289980">
        <ele>1172.2</ele>
        <time>2014-10-01T15:09:44Z</time>
      </trkpt>
      <trkpt lat="42.3061110" lon="-7.3290370">
        <ele>1171.2</ele>
        <time>2014-10-01T15:09:45Z</time>
      </trkpt>
      <trkpt lat="42.3062200" lon="-7.3290800">
        <ele>1170.3</ele>
        <time>2014-10-01T15:09:46Z</time>
      </trkpt>
      <trkpt lat="42.3063420" lon="-7.3291270">
        <ele>1169.3</ele>
        <time>2014-10-01T15:09:47Z</time>
      </trkpt>
      <trkpt lat="42.3064660" lon="-7.3291870">
        <ele>1168.3</ele>
        <time>2014-10-01T15:09:48Z</time>
      </trkpt>
      <trkpt lat="42.3065700" lon="-7.3292820">
        <ele>1167.3</ele>
        <time>2014-10-01T15:09:49Z</time>
      </trkpt>
      <trkpt lat="42.3066710" lon="-7.3293900">
        <ele>1166.2</ele>
        <time>2014-10-01T15:09:50Z</time>
      </trkpt>
      <trkpt lat="42.3067420" lon="-7.3295330">
        <ele>1165.2</ele>
        <time>2014-10-01T15:09:51Z</time>
      </trkpt>
      <trkpt lat="42.3068010" lon="-7.3296760">
        <ele>1164.2</ele>
        <time>2014-10-01T15:09:52Z</time>
      </trkpt>
      <trkpt lat="42.3068350" lon="-7.3298400">
        <ele>1163.4</ele>
        <time>2014-10-01T15:09:53Z</time>
      </trkpt>
      <trkpt lat="42.3068590" lon="-7.3299940">
        <ele>1162.4</ele>
        <time>2014-10-01T15:09:54Z</time>
      </trkpt>
      <trkpt lat="42.3068550" lon="-7.3301560">
        <ele>1161.5</ele>
        <time>2014-10-01T15:09:55Z</time>
      </trkpt>
      <trkpt lat="42.3068470" lon="-7.3303220">
        <ele>1160.5</ele>
        <time>2014-10-01T15:09:56Z</time>
      </trkpt>
      <trkpt lat="42.3068340" lon="-7.3304920">
        <ele>1159.6</ele>
        <time>2014-10-01T15:09:57Z</time>
      </trkpt>
      <trkpt lat="42.3068140" lon="-7.3306630">
        <ele>1158.5</ele>
        <time>2014-10-01T15:09:58Z</time>
      </trkpt>
      <trkpt lat="42.3067940" lon="-7.3308280">
        <ele>1157.4</ele>
        <time>2014-10-01T15:09:59Z</time>
      </trkpt>
      <trkpt lat="42.3067700" lon="-7.3309910">
        <ele>1156.3</ele>
        <time>2014-10-01T15:10:00Z</time>
      </trkpt>
      <trkpt lat="42.3067470" lon="-7.3311640">
        <ele>1155.3</ele>
        <time>2014-10-01T15:10:01Z</time>
      </trkpt>
      <trkpt lat="42.3067220" lon="-7.3313360">
        <ele>1154.2</ele>
        <time>2014-10-01T15:10:02Z</time>
      </trkpt>
      <trkpt lat="42.3066980" lon="-7.3315060">
        <ele>1153.2</ele>
        <time>2014-10-01T15:10:03Z</time>
      </trkpt>
      <trkpt lat="42.3066750" lon="-7.3316780">
        <ele>1152.2</ele>
        <time>2014-10-01T15:10:04Z</time>
      </trkpt>
      <trkpt lat="42.3066530" lon="-7.3318510">
        <ele>1151.2</ele>
        <time>2014-10-01T15:10:05Z</time>
      </trkpt>
      <trkpt lat="42.3066370" lon="-7.3320230">
        <ele>1150.2</ele>
        <time>2014-10-01T15:10:06Z</time>
      </trkpt>
      <trkpt lat="42.3066300" lon="-7.3321920">
        <ele>1149.2</ele>
        <time>2014-10-01T15:10:07Z</time>
      </trkpt>
      <trkpt lat="42.3066290" lon="-7.3323660">
        <ele>1148.2</ele>
        <time>2014-10-01T15:10:08Z</time>
      </trkpt>
      <trkpt lat="42.3066340" lon="-7.3325380">
        <ele>1147.2</ele>
        <time>2014-10-01T15:10:09Z</time>
      </trkpt>
      <trkpt lat="42.3066490" lon="-7.3327130">
        <ele>1146.2</ele>
        <time>2014-10-01T15:10:10Z</time>
      </trkpt>
      <trkpt lat="42.3066700" lon="-7.3328770">
        <ele>1145.1</ele>
        <time>2014-10-01T15:10:11Z</time>
      </trkpt>
      <trkpt lat="42.3066950" lon="-7.3330490">
        <ele>1144.0</ele>
        <time>2014-10-01T15:10:12Z</time>
      </trkpt>
      <trkpt lat="42.3067220" lon="-7.3332170">
        <ele>1143.0</ele>
        <time>2014-10-01T15:10:13Z</time>
      </trkpt>
      <trkpt lat="42.3067520" lon="-7.3333890">
        <ele>1141.7</ele>
        <time>2014-10-01T15:10:14Z</time>
      </trkpt>
      <trkpt lat="42.3067820" lon="-7.3335570">
        <ele>1140.7</ele>
        <time>2014-10-01T15:10:15Z</time>
      </trkpt>
      <trkpt lat="42.3068100" lon="-7.3337230">
        <ele>1139.7</ele>
        <time>2014-10-01T15:10:16Z</time>
      </trkpt>
      <trkpt lat="42.3068390" lon="-7.3338960">
        <ele>1138.6</ele>
        <time>2014-10-01T15:10:17Z</time>
      </trkpt>
      <trkpt lat="42.3068670" lon="-7.3340680">
        <ele>1137.6</ele>
        <time>2014-10-01T15:10:18Z</time>
      </trkpt>
      <trkpt lat="42.3068940" lon="-7.3342370">
        <ele>1136.6</ele>
        <time>2014-10-01T15:10:19Z</time>
      </trkpt>
      <trkpt lat="42.3069180" lon="-7.3344070">
        <ele>1135.7</ele>
        <time>2014-10-01T15:10:20Z</time>
      </trkpt>
      <trkpt lat="42.3069420" lon="-7.3345800">
        <ele>1134.7</ele>
        <time>2014-10-01T15:10:21Z</time>
      </trkpt>
      <trkpt lat="42.3069660" lon="-7.3347510">
        <ele>1133.7</ele>
        <time>2014-10-01T15:10:22Z</time>
      </trkpt>
      <trkpt lat="42.3069910" lon="-7.3349250">
        <ele>1132.7</ele>
        <time>2014-10-01T15:10:23Z</time>
      </trkpt>
      <trkpt lat="42.3070150" lon="-7.3350950">
        <ele>1131.8</ele>
        <time>2014-10-01T15:10:24Z</time>
      </trkpt>
      <trkpt lat="42.3070390" lon="-7.3352660">
        <ele>1130.9</ele>
        <time>2014-10-01T15:10:25Z</time>
      </trkpt>
      <trkpt lat="42.3070640" lon="-7.3354360">
        <ele>1129.9</ele>
        <time>2014-10-01T15:10:26Z</time>
      </trkpt>
      <trkpt lat="42.3070890" lon="-7.3356040">
        <ele>1128.8</ele>
        <time>2014-10-01T15:10:27Z</time>
      </trkpt>
      <trkpt lat="42.3071170" lon="-7.3357690">
        <ele>1127.7</ele>
        <time>2014-10-01T15:10:28Z</time>
      </trkpt>
      <trkpt lat="42.3071450" lon="-7.3359360">
        <ele>1126.6</ele>
        <time>2014-10-01T15:10:29Z</time>
      </trkpt>
      <trkpt lat="42.3071780" lon="-7.3361100">
        <ele>1125.4</ele>
        <time>2014-10-01T15:10:30Z</time>
      </trkpt>
      <trkpt lat="42.3072090" lon="-7.3362790">
        <ele>1124.3</ele>
        <time>2014-10-01T15:10:31Z</time>
      </trkpt>
      <trkpt lat="42.3072410" lon="-7.3364470">
        <ele>1123.2</ele>
        <time>2014-10-01T15:10:32Z</time>
      </trkpt>
      <trkpt lat="42.3072720" lon="-7.3366120">
        <ele>1122.1</ele>
        <time>2014-10-01T15:10:33Z</time>
      </trkpt>
      <trkpt lat="42.3073040" lon="-7.3367840">
        <ele>1120.9</ele>
        <time>2014-10-01T15:10:34Z</time>
      </trkpt>
      <trkpt lat="42.3073360" lon="-7.3369620">
        <ele>1119.8</ele>
        <time>2014-10-01T15:10:35Z</time>
      </trkpt>
      <trkpt lat="42.3073650" lon="-7.3371320">
        <ele>1118.7</ele>
        <time>2014-10-01T15:10:36Z</time>
      </trkpt>
      <trkpt lat="42.3073960" lon="-7.3373090">
        <ele>1117.6</ele>
        <time>2014-10-01T15:10:37Z</time>
      </trkpt>
      <trkpt lat="42.3074280" lon="-7.3374820">
        <ele>1116.6</ele>
        <time>2014-10-01T15:10:38Z</time>
      </trkpt>
      <trkpt lat="42.3074660" lon="-7.3376520">
        <ele>1115.5</ele>
        <time>2014-10-01T15:10:39Z</time>
      </trkpt>
      <trkpt lat="42.3075100" lon="-7.3378210">
        <ele>1114.4</ele>
        <time>2014-10-01T15:10:40Z</time>
      </trkpt>
      <trkpt lat="42.3075610" lon="-7.3379880">
        <ele>1113.4</ele>
        <time>2014-10-01T15:10:41Z</time>
      </trkpt>
      <trkpt lat="42.3076190" lon="-7.3381500">
        <ele>1112.4</ele>
        <time>2014-10-01T15:10:42Z</time>
      </trkpt>
      <trkpt lat="42.3076860" lon="-7.3383040">
        <ele>1111.5</ele>
        <time>2014-10-01T15:10:43Z</time>
      </trkpt>
      <trkpt lat="42.3077580" lon="-7.3384490">
        <ele>1110.5</ele>
        <time>2014-10-01T15:10:44Z</time>
      </trkpt>
      <trkpt lat="42.3078350" lon="-7.3385790">
        <ele>1109.6</ele>
        <time>2014-10-01T15:10:45Z</time>
      </trkpt>
      <trkpt lat="42.3079350" lon="-7.3386910">
        <ele>1108.6</ele>
        <time>2014-10-01T15:10:46Z</time>
      </trkpt>
      <trkpt lat="42.3080410" lon="-7.3387940">
        <ele>1107.6</ele>
        <time>2014-10-01T15:10:47Z</time>
      </trkpt>
      <trkpt lat="42.3081710" lon="-7.3388550">
        <ele>1106.5</ele>
        <time>2014-10-01T15:10:48Z</time>
      </trkpt>
      <trkpt lat="42.3083070" lon="-7.3389040">
        <ele>1105.5</ele>
        <time>2014-10-01T15:10:49Z</time>
      </trkpt>
      <trkpt lat="42.3084500" lon="-7.3389090">
        <ele>1104.6</ele>
        <time>2014-10-01T15:10:50Z</time>
      </trkpt>
      <trkpt lat="42.3085870" lon="-7.3389000">
        <ele>1103.7</ele>
        <time>2014-10-01T15:10:51Z</time>
      </trkpt>
      <trkpt lat="42.3087150" lon="-7.3388800">
        <ele>1102.9</ele>
        <time>2014-10-01T15:10:52Z</time>
      </trkpt>
      <trkpt lat="42.3088430" lon="-7.3388500">
        <ele>1102.2</ele>
        <time>2014-10-01T15:10:53Z</time>
      </trkpt>
      <trkpt lat="42.3089780" lon="-7.3388100">
        <ele>1101.3</ele>
        <time>2014-10-01T15:10:54Z</time>
      </trkpt>
      <trkpt lat="42.3091070" lon="-7.3387700">
        <ele>1100.4</ele>
        <time>2014-10-01T15:10:55Z</time>
      </trkpt>
      <trkpt lat="42.3092270" lon="-7.3387330">
        <ele>1099.6</ele>
        <time>2014-10-01T15:10:56Z</time>
      </trkpt>
      <trkpt lat="42.3093470" lon="-7.3387040">
        <ele>1098.7</ele>
        <time>2014-10-01T15:10:57Z</time>
      </trkpt>
      <trkpt lat="42.3094710" lon="-7.3387140">
        <ele>1097.8</ele>
        <time>2014-10-01T15:10:58Z</time>
      </trkpt>
      <trkpt lat="42.3095990" lon="-7.3387380">
        <ele>1096.9</ele>
        <time>2014-10-01T15:10:59Z</time>
      </trkpt>
      <trkpt lat="42.3097180" lon="-7.3388200">
        <ele>1095.9</ele>
        <time>2014-10-01T15:11:00Z</time>
      </trkpt>
      <trkpt lat="42.3098300" lon="-7.3389130">
        <ele>1095.0</ele>
        <time>2014-10-01T15:11:01Z</time>
      </trkpt>
      <trkpt lat="42.3099130" lon="-7.3390450">
        <ele>1093.9</ele>
        <time>2014-10-01T15:11:02Z</time>
      </trkpt>
      <trkpt lat="42.3099830" lon="-7.3391790">
        <ele>1092.9</ele>
        <time>2014-10-01T15:11:03Z</time>
      </trkpt>
      <trkpt lat="42.3100230" lon="-7.3393320">
        <ele>1091.9</ele>
        <time>2014-10-01T15:11:04Z</time>
      </trkpt>
      <trkpt lat="42.3100380" lon="-7.3394990">
        <ele>1090.9</ele>
        <time>2014-10-01T15:11:05Z</time>
      </trkpt>
      <trkpt lat="42.3100460" lon="-7.3396630">
        <ele>1090.0</ele>
        <time>2014-10-01T15:11:06Z</time>
      </trkpt>
      <trkpt lat="42.3100180" lon="-7.3398330">
        <ele>1088.9</ele>
        <time>2014-10-01T15:11:07Z</time>
      </trkpt>
      <trkpt lat="42.3099850" lon="-7.3400010">
        <ele>1087.8</ele>
        <time>2014-10-01T15:11:08Z</time>
      </trkpt>
      <trkpt lat="42.3099460" lon="-7.3401660">
        <ele>1086.7</ele>
        <time>2014-10-01T15:11:09Z</time>
      </trkpt>
      <trkpt lat="42.3099040" lon="-7.3403240">
        <ele>1085.7</ele>
        <time>2014-10-01T15:11:10Z</time>
      </trkpt>
      <trkpt lat="42.3098630" lon="-7.3404810">
        <ele>1084.6</ele>
        <time>2014-10-01T15:11:11Z</time>
      </trkpt>
      <trkpt lat="42.3098160" lon="-7.3406510">
        <ele>1083.5</ele>
        <time>2014-10-01T15:11:12Z</time>
      </trkpt>
      <trkpt lat="42.3097700" lon="-7.3408140">
        <ele>1082.6</ele>
        <time>2014-10-01T15:11:13Z</time>
      </trkpt>
      <trkpt lat="42.3097210" lon="-7.3409770">
        <ele>1081.6</ele>
        <time>2014-10-01T15:11:14Z</time>
      </trkpt>
      <trkpt lat="42.3096720" lon="-7.3411390">
        <ele>1080.7</ele>
        <time>2014-10-01T15:11:15Z</time>
      </trkpt>
      <trkpt lat="42.3096260" lon="-7.3413030">
        <ele>1079.8</ele>
        <time>2014-10-01T15:11:16Z</time>
      </trkpt>
      <trkpt lat="42.3095860" lon="-7.3414660">
        <ele>1078.9</ele>
        <time>2014-10-01T15:11:17Z</time>
      </trkpt>
      <trkpt lat="42.3095520" lon="-7.3416280">
        <ele>1078.1</ele>
        <time>2014-10-01T15:11:18Z</time>
      </trkpt>
      <trkpt lat="42.3095270" lon="-7.3417880">
        <ele>1077.4</ele>
        <time>2014-10-01T15:11:19Z</time>
      </trkpt>
      <trkpt lat="42.3095080" lon="-7.3419530">
        <ele>1076.7</ele>
        <time>2014-10-01T15:11:20Z</time>
      </trkpt>
      <trkpt lat="42.3094950" lon="-7.3421130">
        <ele>1076.0</ele>
        <time>2014-10-01T15:11:21Z</time>
      </trkpt>
      <trkpt lat="42.3094890" lon="-7.3422780">
        <ele>1075.3</ele>
        <time>2014-10-01T15:11:22Z</time>
      </trkpt>
      <trkpt lat="42.3094890" lon="-7.3424410">
        <ele>1074.6</ele>
        <time>2014-10-01T15:11:23Z</time>
      </trkpt>
      <trkpt lat="42.3094940" lon="-7.3426030">
        <ele>1073.8</ele>
        <time>2014-10-01T15:11:24Z</time>
      </trkpt>
      <trkpt lat="42.3095020" lon="-7.3427630">
        <ele>1072.9</ele>
        <time>2014-10-01T15:11:25Z</time>
      </trkpt>
      <trkpt lat="42.3095130" lon="-7.3429200">
        <ele>1072.1</ele>
        <time>2014-10-01T15:11:26Z</time>
      </trkpt>
      <trkpt lat="42.3095220" lon="-7.3430780">
        <ele>1071.4</ele>
        <time>2014-10-01T15:11:27Z</time>
      </trkpt>
      <trkpt lat="42.3095300" lon="-7.3432410">
        <ele>1070.6</ele>
        <time>2014-10-01T15:11:28Z</time>
      </trkpt>
      <trkpt lat="42.3095370" lon="-7.3434020">
        <ele>1069.8</ele>
        <time>2014-10-01T15:11:29Z</time>
      </trkpt>
      <trkpt lat="42.3095430" lon="-7.3435600">
        <ele>1069.0</ele>
        <time>2014-10-01T15:11:30Z</time>
      </trkpt>
      <trkpt lat="42.3095460" lon="-7.3437210">
        <ele>1068.2</ele>
        <time>2014-10-01T15:11:31Z</time>
      </trkpt>
      <trkpt lat="42.3095430" lon="-7.3438750">
        <ele>1067.5</ele>
        <time>2014-10-01T15:11:32Z</time>
      </trkpt>
      <trkpt lat="42.3095350" lon="-7.3440180">
        <ele>1066.8</ele>
        <time>2014-10-01T15:11:33Z</time>
      </trkpt>
      <trkpt lat="42.3095210" lon="-7.3441690">
        <ele>1066.0</ele>
        <time>2014-10-01T15:11:34Z</time>
      </trkpt>
      <trkpt lat="42.3095020" lon="-7.3443210">
        <ele>1065.3</ele>
        <time>2014-10-01T15:11:35Z</time>
      </trkpt>
      <trkpt lat="42.3094770" lon="-7.3444760">
        <ele>1064.5</ele>
        <time>2014-10-01T15:11:36Z</time>
      </trkpt>
      <trkpt lat="42.3094480" lon="-7.3446320">
        <ele>1063.8</ele>
        <time>2014-10-01T15:11:37Z</time>
      </trkpt>
      <trkpt lat="42.3094150" lon="-7.3447860">
        <ele>1063.0</ele>
        <time>2014-10-01T15:11:38Z</time>
      </trkpt>
      <trkpt lat="42.3093790" lon="-7.3449450">
        <ele>1062.3</ele>
        <time>2014-10-01T15:11:39Z</time>
      </trkpt>
      <trkpt lat="42.3093400" lon="-7.3451080">
        <ele>1061.5</ele>
        <time>2014-10-01T15:11:40Z</time>
      </trkpt>
      <trkpt lat="42.3092970" lon="-7.3452620">
        <ele>1060.7</ele>
        <time>2014-10-01T15:11:41Z</time>
      </trkpt>
      <trkpt lat="42.3092490" lon="-7.3454170">
        <ele>1059.9</ele>
        <time>2014-10-01T15:11:42Z</time>
      </trkpt>
      <trkpt lat="42.3091960" lon="-7.3455630">
        <ele>1059.0</ele>
        <time>2014-10-01T15:11:43Z</time>
      </trkpt>
      <trkpt lat="42.3091370" lon="-7.3457040">
        <ele>1058.2</ele>
        <time>2014-10-01T15:11:44Z</time>
      </trkpt>
      <trkpt lat="42.3090730" lon="-7.3458340">
        <ele>1057.4</ele>
        <time>2014-10-01T15:11:45Z</time>
      </trkpt>
      <trkpt lat="42.3090100" lon="-7.3459520">
        <ele>1056.8</ele>
        <time>2014-10-01T15:11:46Z</time>
      </trkpt>
      <trkpt lat="42.3089560" lon="-7.3460640">
        <ele>1056.3</ele>
        <time>2014-10-01T15:11:47Z</time>
      </trkpt>
      <trkpt lat="42.3089350" lon="-7.3461610">
        <ele>1055.7</ele>
        <time>2014-10-01T15:11:48Z</time>
      </trkpt>
      <trkpt lat="42.3089470" lon="-7.3462500">
        <ele>1054.7</ele>
        <time>2014-10-01T15:11:49Z</time>
      </trkpt>
      <trkpt lat="42.3089840" lon="-7.3462840">
        <ele>1054.6</ele>
        <time>2014-10-01T15:11:50Z</time>
      </trkpt>
      <trkpt lat="42.3090260" lon="-7.3462830">
        <ele>1054.6</ele>
        <time>2014-10-01T15:11:51Z</time>
      </trkpt>
      <trkpt lat="42.3090670" lon="-7.3462570">
        <ele>1054.6</ele>
        <time>2014-10-01T15:11:52Z</time>
      </trkpt>
      <trkpt lat="42.3091040" lon="-7.3462030">
        <ele>1054.5</ele>
        <time>2014-10-01T15:11:53Z</time>
      </trkpt>
      <trkpt lat="42.3091430" lon="-7.3461420">
        <ele>1054.4</ele>
        <time>2014-10-01T15:11:54Z</time>
      </trkpt>
      <trkpt lat="42.3091790" lon="-7.3460760">
        <ele>1054.3</ele>
        <time>2014-10-01T15:11:55Z</time>
      </trkpt>
      <trkpt lat="42.3092130" lon="-7.3460090">
        <ele>1054.3</ele>
        <time>2014-10-01T15:11:56Z</time>
      </trkpt>
      <trkpt lat="42.3092450" lon="-7.3459420">
        <ele>1054.3</ele>
        <time>2014-10-01T15:11:57Z</time>
      </trkpt>
      <trkpt lat="42.3092750" lon="-7.3458700">
        <ele>1054.2</ele>
        <time>2014-10-01T15:11:58Z</time>
      </trkpt>
      <trkpt lat="42.3093020" lon="-7.3457960">
        <ele>1054.2</ele>
        <time>2014-10-01T15:11:59Z</time>
      </trkpt>
      <trkpt lat="42.3093320" lon="-7.3457120">
        <ele>1054.2</ele>
        <time>2014-10-01T15:12:00Z</time>
      </trkpt>
      <trkpt lat="42.3093610" lon="-7.3456330">
        <ele>1054.1</ele>
        <time>2014-10-01T15:12:01Z</time>
      </trkpt>
      <trkpt lat="42.3093870" lon="-7.3455570">
        <ele>1054.1</ele>
        <time>2014-10-01T15:12:02Z</time>
      </trkpt>
      <trkpt lat="42.3094150" lon="-7.3454750">
        <ele>1054.1</ele>
        <time>2014-10-01T15:12:03Z</time>
      </trkpt>
      <trkpt lat="42.3094450" lon="-7.3453860">
        <ele>1054.1</ele>
        <time>2014-10-01T15:12:04Z</time>
      </trkpt>
      <trkpt lat="42.3094750" lon="-7.3452920">
        <ele>1054.1</ele>
        <time>2014-10-01T15:12:05Z</time>
      </trkpt>
      <trkpt lat="42.3095050" lon="-7.3451980">
        <ele>1054.0</ele>
        <time>2014-10-01T15:12:06Z</time>
      </trkpt>
      <trkpt lat="42.3095310" lon="-7.3451100">
        <ele>1054.0</ele>
        <time>2014-10-01T15:12:07Z</time>
      </trkpt>
      <trkpt lat="42.3095570" lon="-7.3450230">
        <ele>1054.0</ele>
        <time>2014-10-01T15:12:08Z</time>
      </trkpt>
      <trkpt lat="42.3095860" lon="-7.3449320">
        <ele>1053.9</ele>
        <time>2014-10-01T15:12:09Z</time>
      </trkpt>
      <trkpt lat="42.3096140" lon="-7.3448440">
        <ele>1053.9</ele>
        <time>2014-10-01T15:12:10Z</time>
      </trkpt>
      <trkpt lat="42.3096430" lon="-7.3447550">
        <ele>1053.9</ele>
        <time>2014-10-01T15:12:11Z</time>
      </trkpt>
      <trkpt lat="42.3096700" lon="-7.3446650">
        <ele>1053.9</ele>
        <time>2014-10-01T15:12:12Z</time>
      </trkpt>
      <trkpt lat="42.3096970" lon="-7.3445730">
        <ele>1053.8</ele>
        <time>2014-10-01T15:12:13Z</time>
      </trkpt>
      <trkpt lat="42.3097250" lon="-7.3444760">
        <ele>1053.8</ele>
        <time>2014-10-01T15:12:14Z</time>
      </trkpt>
      <trkpt lat="42.3097500" lon="-7.3443790">
        <ele>1053.7</ele>
        <time>2014-10-01T15:12:15Z</time>
      </trkpt>
      <trkpt lat="42.3097760" lon="-7.3442800">
        <ele>1053.5</ele>
        <time>2014-10-01T15:12:16Z</time>
      </trkpt>
      <trkpt lat="42.3098000" lon="-7.3441770">
        <ele>1053.3</ele>
        <time>2014-10-01T15:12:17Z</time>
      </trkpt>
      <trkpt lat="42.3098190" lon="-7.3440800">
        <ele>1053.0</ele>
        <time>2014-10-01T15:12:18Z</time>
      </trkpt>
      <trkpt lat="42.3098370" lon="-7.3439820">
        <ele>1052.7</ele>
        <time>2014-10-01T15:12:19Z</time>
      </trkpt>
      <trkpt lat="42.3098550" lon="-7.3438800">
        <ele>1052.3</ele>
        <time>2014-10-01T15:12:20Z</time>
      </trkpt>
      <trkpt lat="42.3098690" lon="-7.3437760">
        <ele>1051.9</ele>
        <time>2014-10-01T15:12:21Z</time>
      </trkpt>
      <trkpt lat="42.3098800" lon="-7.3436750">
        <ele>1051.5</ele>
        <time>2014-10-01T15:12:22Z</time>
      </trkpt>
      <trkpt lat="42.3098870" lon="-7.3435730">
        <ele>1051.0</ele>
        <time>2014-10-01T15:12:23Z</time>
      </trkpt>
      <trkpt lat="42.3098950" lon="-7.3434720">
        <ele>1050.5</ele>
        <time>2014-10-01T15:12:24Z</time>
      </trkpt>
      <trkpt lat="42.3099040" lon="-7.3433580">
        <ele>1049.9</ele>
        <time>2014-10-01T15:12:25Z</time>
      </trkpt>
      <trkpt lat="42.3099140" lon="-7.3432360">
        <ele>1049.2</ele>
        <time>2014-10-01T15:12:26Z</time>
      </trkpt>
      <trkpt lat="42.3099230" lon="-7.3431130">
        <ele>1048.6</ele>
        <time>2014-10-01T15:12:27Z</time>
      </trkpt>
      <trkpt lat="42.3099350" lon="-7.3429890">
        <ele>1047.9</ele>
        <time>2014-10-01T15:12:28Z</time>
      </trkpt>
      <trkpt lat="42.3099480" lon="-7.3428600">
        <ele>1047.2</ele>
        <time>2014-10-01T15:12:29Z</time>
      </trkpt>
      <trkpt lat="42.3099630" lon="-7.3427200">
        <ele>1046.4</ele>
        <time>2014-10-01T15:12:30Z</time>
      </trkpt>
      <trkpt lat="42.3099820" lon="-7.3425810">
        <ele>1045.6</ele>
        <time>2014-10-01T15:12:31Z</time>
      </trkpt>
      <trkpt lat="42.3100060" lon="-7.3424470">
        <ele>1044.9</ele>
        <time>2014-10-01T15:12:32Z</time>
      </trkpt>
      <trkpt lat="42.3100400" lon="-7.3423090">
        <ele>1044.3</ele>
        <time>2014-10-01T15:12:33Z</time>
      </trkpt>
      <trkpt lat="42.3100960" lon="-7.3421790">
        <ele>1043.7</ele>
        <time>2014-10-01T15:12:34Z</time>
      </trkpt>
      <trkpt lat="42.3101590" lon="-7.3420500">
        <ele>1043.3</ele>
        <time>2014-10-01T15:12:35Z</time>
      </trkpt>
      <trkpt lat="42.3102280" lon="-7.3419310">
        <ele>1042.9</ele>
        <time>2014-10-01T15:12:36Z</time>
      </trkpt>
      <trkpt lat="42.3103030" lon="-7.3418210">
        <ele>1042.5</ele>
        <time>2014-10-01T15:12:37Z</time>
      </trkpt>
      <trkpt lat="42.3103870" lon="-7.3417180">
        <ele>1042.2</ele>
        <time>2014-10-01T15:12:38Z</time>
      </trkpt>
      <trkpt lat="42.3104760" lon="-7.3416210">
        <ele>1042.0</ele>
        <time>2014-10-01T15:12:39Z</time>
      </trkpt>
      <trkpt lat="42.3105640" lon="-7.3415280">
        <ele>1041.8</ele>
        <time>2014-10-01T15:12:40Z</time>
      </trkpt>
      <trkpt lat="42.3106510" lon="-7.3414290">
        <ele>1041.5</ele>
        <time>2014-10-01T15:12:41Z</time>
      </trkpt>
      <trkpt lat="42.3107300" lon="-7.3413250">
        <ele>1041.3</ele>
        <time>2014-10-01T15:12:42Z</time>
      </trkpt>
      <trkpt lat="42.3107900" lon="-7.3412050">
        <ele>1041.0</ele>
        <time>2014-10-01T15:12:43Z</time>
      </trkpt>
      <trkpt lat="42.3108420" lon="-7.3410850">
        <ele>1040.7</ele>
        <time>2014-10-01T15:12:44Z</time>
      </trkpt>
      <trkpt lat="42.3108860" lon="-7.3409590">
        <ele>1040.3</ele>
        <time>2014-10-01T15:12:45Z</time>
      </trkpt>
      <trkpt lat="42.3109270" lon="-7.3408210">
        <ele>1040.0</ele>
        <time>2014-10-01T15:12:46Z</time>
      </trkpt>
      <trkpt lat="42.3109610" lon="-7.3406780">
        <ele>1039.7</ele>
        <time>2014-10-01T15:12:47Z</time>
      </trkpt>
      <trkpt lat="42.3109890" lon="-7.3405390">
        <ele>1039.3</ele>
        <time>2014-10-01T15:12:48Z</time>
      </trkpt>
      <trkpt lat="42.3110130" lon="-7.3404040">
        <ele>1038.9</ele>
        <time>2014-10-01T15:12:49Z</time>
      </trkpt>
      <trkpt lat="42.3110330" lon="-7.3402730">
        <ele>1038.6</ele>
        <time>2014-10-01T15:12:50Z</time>
      </trkpt>
      <trkpt lat="42.3110510" lon="-7.3401420">
        <ele>1038.2</ele>
        <time>2014-10-01T15:12:51Z</time>
      </trkpt>
      <trkpt lat="42.3110670" lon="-7.3400110">
        <ele>1037.8</ele>
        <time>2014-10-01T15:12:52Z</time>
      </trkpt>
      <trkpt lat="42.3110840" lon="-7.3398810">
        <ele>1037.4</ele>
        <time>2014-10-01T15:12:53Z</time>
      </trkpt>
      <trkpt lat="42.3111010" lon="-7.3397540">
        <ele>1037.0</ele>
        <time>2014-10-01T15:12:54Z</time>
      </trkpt>
      <trkpt lat="42.3111220" lon="-7.3396290">
        <ele>1036.6</ele>
        <time>2014-10-01T15:12:55Z</time>
      </trkpt>
      <trkpt lat="42.3111490" lon="-7.3395030">
        <ele>1036.2</ele>
        <time>2014-10-01T15:12:56Z</time>
      </trkpt>
      <trkpt lat="42.3111810" lon="-7.3393850">
        <ele>1035.7</ele>
        <time>2014-10-01T15:12:57Z</time>
      </trkpt>
      <trkpt lat="42.3112240" lon="-7.3392640">
        <ele>1035.1</ele>
        <time>2014-10-01T15:12:58Z</time>
      </trkpt>
      <trkpt lat="42.3112720" lon="-7.3391540">
        <ele>1034.4</ele>
        <time>2014-10-01T15:12:59Z</time>
      </trkpt>
      <trkpt lat="42.3113290" lon="-7.3390440">
        <ele>1033.7</ele>
        <time>2014-10-01T15:13:00Z</time>
      </trkpt>
      <trkpt lat="42.3113930" lon="-7.3389310">
        <ele>1032.8</ele>
        <time>2014-10-01T15:13:01Z</time>
      </trkpt>
      <trkpt lat="42.3114630" lon="-7.3388150">
        <ele>1031.7</ele>
        <time>2014-10-01T15:13:02Z</time>
      </trkpt>
      <trkpt lat="42.3115390" lon="-7.3386960">
        <ele>1030.6</ele>
        <time>2014-10-01T15:13:03Z</time>
      </trkpt>
      <trkpt lat="42.3116170" lon="-7.3385720">
        <ele>1029.4</ele>
        <time>2014-10-01T15:13:04Z</time>
      </trkpt>
      <trkpt lat="42.3116990" lon="-7.3384440">
        <ele>1028.2</ele>
        <time>2014-10-01T15:13:05Z</time>
      </trkpt>
      <trkpt lat="42.3117820" lon="-7.3383130">
        <ele>1027.0</ele>
        <time>2014-10-01T15:13:06Z</time>
      </trkpt>
      <trkpt lat="42.3118650" lon="-7.3381810">
        <ele>1025.7</ele>
        <time>2014-10-01T15:13:07Z</time>
      </trkpt>
      <trkpt lat="42.3119470" lon="-7.3380470">
        <ele>1024.3</ele>
        <time>2014-10-01T15:13:08Z</time>
      </trkpt>
      <trkpt lat="42.3120320" lon="-7.3379080">
        <ele>1022.7</ele>
        <time>2014-10-01T15:13:09Z</time>
      </trkpt>
      <trkpt lat="42.3121150" lon="-7.3377600">
        <ele>1021.1</ele>
        <time>2014-10-01T15:13:10Z</time>
      </trkpt>
      <trkpt lat="42.3121970" lon="-7.3376130">
        <ele>1019.4</ele>
        <time>2014-10-01T15:13:11Z</time>
      </trkpt>
      <trkpt lat="42.3122800" lon="-7.3374670">
        <ele>1017.9</ele>
        <time>2014-10-01T15:13:12Z</time>
      </trkpt>
      <trkpt lat="42.3123630" lon="-7.3373240">
        <ele>1016.7</ele>
        <time>2014-10-01T15:13:13Z</time>
      </trkpt>
      <trkpt lat="42.3124450" lon="-7.3371820">
        <ele>1015.8</ele>
        <time>2014-10-01T15:13:14Z</time>
      </trkpt>
      <trkpt lat="42.3125270" lon="-7.3370410">
        <ele>1015.0</ele>
        <time>2014-10-01T15:13:15Z</time>
      </trkpt>
      <trkpt lat="42.3126090" lon="-7.3369010">
        <ele>1014.4</ele>
        <time>2014-10-01T15:13:16Z</time>
      </trkpt>
      <trkpt lat="42.3126930" lon="-7.3367550">
        <ele>1013.8</ele>
        <time>2014-10-01T15:13:17Z</time>
      </trkpt>
      <trkpt lat="42.3127770" lon="-7.3366120">
        <ele>1013.3</ele>
        <time>2014-10-01T15:13:18Z</time>
      </trkpt>
      <trkpt lat="42.3128620" lon="-7.3364690">
        <ele>1012.9</ele>
        <time>2014-10-01T15:13:19Z</time>
      </trkpt>
      <trkpt lat="42.3129380" lon="-7.3363470">
        <ele>1012.4</ele>
        <time>2014-10-01T15:13:20Z</time>
      </trkpt>
      <trkpt lat="42.3130130" lon="-7.3362270">
        <ele>1012.0</ele>
        <time>2014-10-01T15:13:21Z</time>
      </trkpt>
      <trkpt lat="42.3130860" lon="-7.3361080">
        <ele>1011.5</ele>
        <time>2014-10-01T15:13:22Z</time>
      </trkpt>
      <trkpt lat="42.3131600" lon="-7.3359840">
        <ele>1011.0</ele>
        <time>2014-10-01T15:13:23Z</time>
      </trkpt>
      <trkpt lat="42.3132330" lon="-7.3358610">
        <ele>1010.6</ele>
        <time>2014-10-01T15:13:24Z</time>
      </trkpt>
      <trkpt lat="42.3133030" lon="-7.3357380">
        <ele>1010.4</ele>
        <time>2014-10-01T15:13:25Z</time>
      </trkpt>
      <trkpt lat="42.3133700" lon="-7.3356180">
        <ele>1010.1</ele>
        <time>2014-10-01T15:13:26Z</time>
      </trkpt>
      <trkpt lat="42.3134300" lon="-7.3354970">
        <ele>1009.8</ele>
        <time>2014-10-01T15:13:27Z</time>
      </trkpt>
      <trkpt lat="42.3134840" lon="-7.3353780">
        <ele>1009.5</ele>
        <time>2014-10-01T15:13:28Z</time>
      </trkpt>
      <trkpt lat="42.3135360" lon="-7.3352530">
        <ele>1009.2</ele>
        <time>2014-10-01T15:13:29Z</time>
      </trkpt>
      <trkpt lat="42.3135870" lon="-7.3351220">
        <ele>1009.0</ele>
        <time>2014-10-01T15:13:30Z</time>
      </trkpt>
      <trkpt lat="42.3136350" lon="-7.3349950">
        <ele>1008.7</ele>
        <time>2014-10-01T15:13:31Z</time>
      </trkpt>
      <trkpt lat="42.3136820" lon="-7.3348670">
        <ele>1008.5</ele>
        <time>2014-10-01T15:13:32Z</time>
      </trkpt>
      <trkpt lat="42.3137300" lon="-7.3347370">
        <ele>1008.2</ele>
        <time>2014-10-01T15:13:33Z</time>
      </trkpt>
      <trkpt lat="42.3137780" lon="-7.3346090">
        <ele>1008.0</ele>
        <time>2014-10-01T15:13:34Z</time>
      </trkpt>
      <trkpt lat="42.3138230" lon="-7.3344840">
        <ele>1007.8</ele>
        <time>2014-10-01T15:13:35Z</time>
      </trkpt>
      <trkpt lat="42.3138670" lon="-7.3343590">
        <ele>1007.5</ele>
        <time>2014-10-01T15:13:36Z</time>
      </trkpt>
      <trkpt lat="42.3139120" lon="-7.3342380">
        <ele>1007.4</ele>
        <time>2014-10-01T15:13:37Z</time>
      </trkpt>
      <trkpt lat="42.3139590" lon="-7.3341120">
        <ele>1007.3</ele>
        <time>2014-10-01T15:13:38Z</time>
      </trkpt>
      <trkpt lat="42.3140060" lon="-7.3339830">
        <ele>1007.0</ele>
        <time>2014-10-01T15:13:39Z</time>
      </trkpt>
      <trkpt lat="42.3140460" lon="-7.3338570">
        <ele>1006.5</ele>
        <time>2014-10-01T15:13:40Z</time>
      </trkpt>
      <trkpt lat="42.3140860" lon="-7.3337250">
        <ele>1006.1</ele>
        <time>2014-10-01T15:13:41Z</time>
      </trkpt>
      <trkpt lat="42.3141250" lon="-7.3335830">
        <ele>1005.7</ele>
        <time>2014-10-01T15:13:42Z</time>
      </trkpt>
      <trkpt lat="42.3141540" lon="-7.3334540">
        <ele>1005.4</ele>
        <time>2014-10-01T15:13:43Z</time>
      </trkpt>
      <trkpt lat="42.3141840" lon="-7.3333190">
        <ele>1005.1</ele>
        <time>2014-10-01T15:13:44Z</time>
      </trkpt>
      <trkpt lat="42.3142120" lon="-7.3331770">
        <ele>1004.8</ele>
        <time>2014-10-01T15:13:45Z</time>
      </trkpt>
      <trkpt lat="42.3142340" lon="-7.3330410">
        <ele>1004.4</ele>
        <time>2014-10-01T15:13:46Z</time>
      </trkpt>
      <trkpt lat="42.3142510" lon="-7.3329070">
        <ele>1004.1</ele>
        <time>2014-10-01T15:13:47Z</time>
      </trkpt>
      <trkpt lat="42.3142610" lon="-7.3327760">
        <ele>1003.8</ele>
        <time>2014-10-01T15:13:48Z</time>
      </trkpt>
      <trkpt lat="42.3142700" lon="-7.3326400">
        <ele>1003.4</ele>
        <time>2014-10-01T15:13:49Z</time>
      </trkpt>
      <trkpt lat="42.3142750" lon="-7.3324950">
        <ele>1003.1</ele>
        <time>2014-10-01T15:13:50Z</time>
      </trkpt>
      <trkpt lat="42.3142750" lon="-7.3323460">
        <ele>1002.7</ele>
        <time>2014-10-01T15:13:51Z</time>
      </trkpt>
      <trkpt lat="42.3142680" lon="-7.3322080">
        <ele>1002.3</ele>
        <time>2014-10-01T15:13:52Z</time>
      </trkpt>
      <trkpt lat="42.3142600" lon="-7.3320590">
        <ele>1002.0</ele>
        <time>2014-10-01T15:13:53Z</time>
      </trkpt>
      <trkpt lat="42.3142530" lon="-7.3319080">
        <ele>1001.6</ele>
        <time>2014-10-01T15:13:54Z</time>
      </trkpt>
      <trkpt lat="42.3142420" lon="-7.3317590">
        <ele>1001.2</ele>
        <time>2014-10-01T15:13:55Z</time>
      </trkpt>
      <trkpt lat="42.3142280" lon="-7.3316230">
        <ele>1000.9</ele>
        <time>2014-10-01T15:13:56Z</time>
      </trkpt>
      <trkpt lat="42.3142110" lon="-7.3314870">
        <ele>1000.6</ele>
        <time>2014-10-01T15:13:57Z</time>
      </trkpt>
      <trkpt lat="42.3141980" lon="-7.3313440">
        <ele>1000.2</ele>
        <time>2014-10-01T15:13:58Z</time>
      </trkpt>
      <trkpt lat="42.3141860" lon="-7.3312030">
        <ele>999.9</ele>
        <time>2014-10-01T15:13:59Z</time>
      </trkpt>
      <trkpt lat="42.3141780" lon="-7.3310610">
        <ele>999.5</ele>
        <time>2014-10-01T15:14:00Z</time>
      </trkpt>
      <trkpt lat="42.3141700" lon="-7.3309170">
        <ele>999.2</ele>
        <time>2014-10-01T15:14:01Z</time>
      </trkpt>
      <trkpt lat="42.3141610" lon="-7.3307790">
        <ele>999.0</ele>
        <time>2014-10-01T15:14:02Z</time>
      </trkpt>
      <trkpt lat="42.3141520" lon="-7.3306370">
        <ele>998.8</ele>
        <time>2014-10-01T15:14:03Z</time>
      </trkpt>
      <trkpt lat="42.3141440" lon="-7.3304930">
        <ele>998.6</ele>
        <time>2014-10-01T15:14:04Z</time>
      </trkpt>
      <trkpt lat="42.3141360" lon="-7.3303440">
        <ele>998.6</ele>
        <time>2014-10-01T15:14:05Z</time>
      </trkpt>
      <trkpt lat="42.3141310" lon="-7.3301970">
        <ele>998.6</ele>
        <time>2014-10-01T15:14:06Z</time>
      </trkpt>
      <trkpt lat="42.3141270" lon="-7.3300460">
        <ele>998.4</ele>
        <time>2014-10-01T15:14:07Z</time>
      </trkpt>
      <trkpt lat="42.3141240" lon="-7.3298970">
        <ele>998.3</ele>
        <time>2014-10-01T15:14:08Z</time>
      </trkpt>
      <trkpt lat="42.3141230" lon="-7.3297580">
        <ele>998.3</ele>
        <time>2014-10-01T15:14:09Z</time>
      </trkpt>
      <trkpt lat="42.3141220" lon="-7.3296180">
        <ele>998.3</ele>
        <time>2014-10-01T15:14:10Z</time>
      </trkpt>
      <trkpt lat="42.3141210" lon="-7.3294780">
        <ele>998.4</ele>
        <time>2014-10-01T15:14:11Z</time>
      </trkpt>
      <trkpt lat="42.3141240" lon="-7.3293490">
        <ele>998.5</ele>
        <time>2014-10-01T15:14:12Z</time>
      </trkpt>
      <trkpt lat="42.3141290" lon="-7.3292190">
        <ele>998.7</ele>
        <time>2014-10-01T15:14:13Z</time>
      </trkpt>
      <trkpt lat="42.3141400" lon="-7.3290960">
        <ele>998.9</ele>
        <time>2014-10-01T15:14:14Z</time>
      </trkpt>
      <trkpt lat="42.3141530" lon="-7.3289750">
        <ele>999.0</ele>
        <time>2014-10-01T15:14:15Z</time>
      </trkpt>
      <trkpt lat="42.3141680" lon="-7.3288590">
        <ele>999.1</ele>
        <time>2014-10-01T15:14:16Z</time>
      </trkpt>
      <trkpt lat="42.3141860" lon="-7.3287430">
        <ele>999.3</ele>
        <time>2014-10-01T15:14:17Z</time>
      </trkpt>
      <trkpt lat="42.3142100" lon="-7.3286110">
        <ele>999.5</ele>
        <time>2014-10-01T15:14:18Z</time>
      </trkpt>
      <trkpt lat="42.3142330" lon="-7.3284920">
        <ele>999.6</ele>
        <time>2014-10-01T15:14:19Z</time>
      </trkpt>
      <trkpt lat="42.3142560" lon="-7.3283810">
        <ele>999.8</ele>
        <time>2014-10-01T15:14:20Z</time>
      </trkpt>
      <trkpt lat="42.3142780" lon="-7.3282750">
        <ele>999.9</ele>
        <time>2014-10-01T15:14:21Z</time>
      </trkpt>
      <trkpt lat="42.3143020" lon="-7.3281620">
        <ele>999.9</ele>
        <time>2014-10-01T15:14:22Z</time>
      </trkpt>
      <trkpt lat="42.3143250" lon="-7.3280450">
        <ele>999.8</ele>
        <time>2014-10-01T15:14:23Z</time>
      </trkpt>
      <trkpt lat="42.3143490" lon="-7.3279250">
        <ele>999.8</ele>
        <time>2014-10-01T15:14:24Z</time>
      </trkpt>
      <trkpt lat="42.3143700" lon="-7.3278070">
        <ele>999.6</ele>
        <time>2014-10-01T15:14:25Z</time>
      </trkpt>
      <trkpt lat="42.3143920" lon="-7.3276900">
        <ele>999.4</ele>
        <time>2014-10-01T15:14:26Z</time>
      </trkpt>
      <trkpt lat="42.3144140" lon="-7.3275790">
        <ele>999.1</ele>
        <time>2014-10-01T15:14:27Z</time>
      </trkpt>
      <trkpt lat="42.3144370" lon="-7.3274670">
        <ele>998.8</ele>
        <time>2014-10-01T15:14:28Z</time>
      </trkpt>
      <trkpt lat="42.3144590" lon="-7.3273470">
        <ele>998.4</ele>
        <time>2014-10-01T15:14:29Z</time>
      </trkpt>
      <trkpt lat="42.3144830" lon="-7.3272280">
        <ele>997.9</ele>
        <time>2014-10-01T15:14:30Z</time>
      </trkpt>
      <trkpt lat="42.3145040" lon="-7.3271100">
        <ele>997.4</ele>
        <time>2014-10-01T15:14:31Z</time>
      </trkpt>
      <trkpt lat="42.3145250" lon="-7.3269930">
        <ele>996.8</ele>
        <time>2014-10-01T15:14:32Z</time>
      </trkpt>
      <trkpt lat="42.3145480" lon="-7.3268710">
        <ele>996.2</ele>
        <time>2014-10-01T15:14:33Z</time>
      </trkpt>
      <trkpt lat="42.3145750" lon="-7.3267430">
        <ele>995.5</ele>
        <time>2014-10-01T15:14:34Z</time>
      </trkpt>
      <trkpt lat="42.3146050" lon="-7.3266070">
        <ele>994.7</ele>
        <time>2014-10-01T15:14:35Z</time>
      </trkpt>
      <trkpt lat="42.3146370" lon="-7.3264590">
        <ele>993.9</ele>
        <time>2014-10-01T15:14:36Z</time>
      </trkpt>
      <trkpt lat="42.3146710" lon="-7.3263080">
        <ele>993.0</ele>
        <time>2014-10-01T15:14:37Z</time>
      </trkpt>
      <trkpt lat="42.3147040" lon="-7.3261560">
        <ele>992.1</ele>
        <time>2014-10-01T15:14:38Z</time>
      </trkpt>
      <trkpt lat="42.3147370" lon="-7.3260060">
        <ele>991.2</ele>
        <time>2014-10-01T15:14:39Z</time>
      </trkpt>
      <trkpt lat="42.3147670" lon="-7.3258510">
        <ele>990.2</ele>
        <time>2014-10-01T15:14:40Z</time>
      </trkpt>
      <trkpt lat="42.3147950" lon="-7.3256990">
        <ele>989.2</ele>
        <time>2014-10-01T15:14:41Z</time>
      </trkpt>
      <trkpt lat="42.3148220" lon="-7.3255450">
        <ele>988.2</ele>
        <time>2014-10-01T15:14:42Z</time>
      </trkpt>
      <trkpt lat="42.3148510" lon="-7.3253930">
        <ele>987.4</ele>
        <time>2014-10-01T15:14:43Z</time>
      </trkpt>
      <trkpt lat="42.3148860" lon="-7.3252340">
        <ele>986.6</ele>
        <time>2014-10-01T15:14:44Z</time>
      </trkpt>
      <trkpt lat="42.3149220" lon="-7.3250680">
        <ele>985.8</ele>
        <time>2014-10-01T15:14:45Z</time>
      </trkpt>
      <trkpt lat="42.3149620" lon="-7.3249030">
        <ele>988.5</ele>
        <time>2014-10-01T15:14:46Z</time>
      </trkpt>
      <trkpt lat="42.3150050" lon="-7.3247400">
        <ele>987.5</ele>
        <time>2014-10-01T15:14:47Z</time>
      </trkpt>
      <trkpt lat="42.3150510" lon="-7.3245840">
        <ele>986.8</ele>
        <time>2014-10-01T15:14:48Z</time>
      </trkpt>
      <trkpt lat="42.3151020" lon="-7.3244290">
        <ele>986.4</ele>
        <time>2014-10-01T15:14:49Z</time>
      </trkpt>
      <trkpt lat="42.3151580" lon="-7.3242770">
        <ele>986.0</ele>
        <time>2014-10-01T15:14:50Z</time>
      </trkpt>
      <trkpt lat="42.3152160" lon="-7.3241290">
        <ele>985.7</ele>
        <time>2014-10-01T15:14:51Z</time>
      </trkpt>
      <trkpt lat="42.3152760" lon="-7.3239860">
        <ele>985.4</ele>
        <time>2014-10-01T15:14:52Z</time>
      </trkpt>
      <trkpt lat="42.3153360" lon="-7.3238500">
        <ele>985.2</ele>
        <time>2014-10-01T15:14:53Z</time>
      </trkpt>
      <trkpt lat="42.3153920" lon="-7.3237260">
        <ele>985.0</ele>
        <time>2014-10-01T15:14:54Z</time>
      </trkpt>
      <trkpt lat="42.3154480" lon="-7.3235980">
        <ele>984.8</ele>
        <time>2014-10-01T15:14:55Z</time>
      </trkpt>
      <trkpt lat="42.3155060" lon="-7.3234710">
        <ele>984.8</ele>
        <time>2014-10-01T15:14:56Z</time>
      </trkpt>
      <trkpt lat="42.3155630" lon="-7.3233460">
        <ele>984.7</ele>
        <time>2014-10-01T15:14:57Z</time>
      </trkpt>
      <trkpt lat="42.3156190" lon="-7.3232290">
        <ele>984.7</ele>
        <time>2014-10-01T15:14:58Z</time>
      </trkpt>
      <trkpt lat="42.3156710" lon="-7.3231210">
        <ele>984.7</ele>
        <time>2014-10-01T15:14:59Z</time>
      </trkpt>
      <trkpt lat="42.3157250" lon="-7.3230110">
        <ele>984.8</ele>
        <time>2014-10-01T15:15:00Z</time>
      </trkpt>
      <trkpt lat="42.3157780" lon="-7.3229010">
        <ele>984.8</ele>
        <time>2014-10-01T15:15:01Z</time>
      </trkpt>
      <trkpt lat="42.3158310" lon="-7.3227920">
        <ele>984.8</ele>
        <time>2014-10-01T15:15:02Z</time>
      </trkpt>
      <trkpt lat="42.3158820" lon="-7.3226910">
        <ele>984.8</ele>
        <time>2014-10-01T15:15:03Z</time>
      </trkpt>
      <trkpt lat="42.3159320" lon="-7.3225880">
        <ele>984.8</ele>
        <time>2014-10-01T15:15:04Z</time>
      </trkpt>
      <trkpt lat="42.3159820" lon="-7.3224860">
        <ele>984.8</ele>
        <time>2014-10-01T15:15:05Z</time>
      </trkpt>
      <trkpt lat="42.3160300" lon="-7.3223880">
        <ele>984.9</ele>
        <time>2014-10-01T15:15:06Z</time>
      </trkpt>
      <trkpt lat="42.3160800" lon="-7.3222940">
        <ele>985.0</ele>
        <time>2014-10-01T15:15:07Z</time>
      </trkpt>
      <trkpt lat="42.3161310" lon="-7.3222020">
        <ele>985.1</ele>
        <time>2014-10-01T15:15:08Z</time>
      </trkpt>
      <trkpt lat="42.3161820" lon="-7.3221160">
        <ele>985.2</ele>
        <time>2014-10-01T15:15:09Z</time>
      </trkpt>
      <trkpt lat="42.3162340" lon="-7.3220370">
        <ele>985.2</ele>
        <time>2014-10-01T15:15:10Z</time>
      </trkpt>
      <trkpt lat="42.3162870" lon="-7.3219620">
        <ele>985.3</ele>
        <time>2014-10-01T15:15:11Z</time>
      </trkpt>
      <trkpt lat="42.3163440" lon="-7.3218830">
        <ele>985.4</ele>
        <time>2014-10-01T15:15:12Z</time>
      </trkpt>
      <trkpt lat="42.3164030" lon="-7.3218120">
        <ele>985.4</ele>
        <time>2014-10-01T15:15:13Z</time>
      </trkpt>
      <trkpt lat="42.3164650" lon="-7.3217410">
        <ele>985.4</ele>
        <time>2014-10-01T15:15:14Z</time>
      </trkpt>
      <trkpt lat="42.3165280" lon="-7.3216730">
        <ele>985.4</ele>
        <time>2014-10-01T15:15:15Z</time>
      </trkpt>
      <trkpt lat="42.3165900" lon="-7.3216050">
        <ele>985.4</ele>
        <time>2014-10-01T15:15:16Z</time>
      </trkpt>
      <trkpt lat="42.3166540" lon="-7.3215360">
        <ele>985.3</ele>
        <time>2014-10-01T15:15:17Z</time>
      </trkpt>
      <trkpt lat="42.3167170" lon="-7.3214690">
        <ele>985.3</ele>
        <time>2014-10-01T15:15:18Z</time>
      </trkpt>
      <trkpt lat="42.3167790" lon="-7.3214010">
        <ele>985.2</ele>
        <time>2014-10-01T15:15:19Z</time>
      </trkpt>
      <trkpt lat="42.3168390" lon="-7.3213350">
        <ele>985.2</ele>
        <time>2014-10-01T15:15:20Z</time>
      </trkpt>
      <trkpt lat="42.3168960" lon="-7.3212700">
        <ele>985.2</ele>
        <time>2014-10-01T15:15:21Z</time>
      </trkpt>
      <trkpt lat="42.3169560" lon="-7.3212010">
        <ele>985.3</ele>
        <time>2014-10-01T15:15:22Z</time>
      </trkpt>
      <trkpt lat="42.3170150" lon="-7.3211320">
        <ele>985.3</ele>
        <time>2014-10-01T15:15:23Z</time>
      </trkpt>
      <trkpt lat="42.3170750" lon="-7.3210600">
        <ele>985.3</ele>
        <time>2014-10-01T15:15:24Z</time>
      </trkpt>
      <trkpt lat="42.3171350" lon="-7.3209880">
        <ele>985.3</ele>
        <time>2014-10-01T15:15:25Z</time>
      </trkpt>
      <trkpt lat="42.3171940" lon="-7.3209210">
        <ele>985.3</ele>
        <time>2014-10-01T15:15:26Z</time>
      </trkpt>
      <trkpt lat="42.3172550" lon="-7.3208520">
        <ele>985.3</ele>
        <time>2014-10-01T15:15:27Z</time>
      </trkpt>
      <trkpt lat="42.3173150" lon="-7.3207850">
        <ele>985.4</ele>
        <time>2014-10-01T15:15:28Z</time>
      </trkpt>
      <trkpt lat="42.3173750" lon="-7.3207190">
        <ele>985.5</ele>
        <time>2014-10-01T15:15:29Z</time>
      </trkpt>
      <trkpt lat="42.3174330" lon="-7.3206500">
        <ele>985.6</ele>
        <time>2014-10-01T15:15:30Z</time>
      </trkpt>
      <trkpt lat="42.3174890" lon="-7.3205800">
        <ele>985.7</ele>
        <time>2014-10-01T15:15:31Z</time>
      </trkpt>
      <trkpt lat="42.3175420" lon="-7.3205110">
        <ele>985.7</ele>
        <time>2014-10-01T15:15:32Z</time>
      </trkpt>
      <trkpt lat="42.3175940" lon="-7.3204410">
        <ele>985.8</ele>
        <time>2014-10-01T15:15:33Z</time>
      </trkpt>
      <trkpt lat="42.3176440" lon="-7.3203710">
        <ele>985.9</ele>
        <time>2014-10-01T15:15:34Z</time>
      </trkpt>
      <trkpt lat="42.3176960" lon="-7.3202960">
        <ele>986.0</ele>
        <time>2014-10-01T15:15:35Z</time>
      </trkpt>
      <trkpt lat="42.3177450" lon="-7.3202220">
        <ele>986.1</ele>
        <time>2014-10-01T15:15:36Z</time>
      </trkpt>
      <trkpt lat="42.3177900" lon="-7.3201460">
        <ele>986.1</ele>
        <time>2014-10-01T15:15:37Z</time>
      </trkpt>
      <trkpt lat="42.3178320" lon="-7.3200740">
        <ele>986.1</ele>
        <time>2014-10-01T15:15:38Z</time>
      </trkpt>
      <trkpt lat="42.3178740" lon="-7.3199990">
        <ele>986.2</ele>
        <time>2014-10-01T15:15:39Z</time>
      </trkpt>
      <trkpt lat="42.3179160" lon="-7.3199230">
        <ele>986.2</ele>
        <time>2014-10-01T15:15:40Z</time>
      </trkpt>
      <trkpt lat="42.3179570" lon="-7.3198480">
        <ele>986.2</ele>
        <time>2014-10-01T15:15:41Z</time>
      </trkpt>
      <trkpt lat="42.3179970" lon="-7.3197710">
        <ele>986.3</ele>
        <time>2014-10-01T15:15:42Z</time>
      </trkpt>
      <trkpt lat="42.3180370" lon="-7.3196960">
        <ele>986.3</ele>
        <time>2014-10-01T15:15:43Z</time>
      </trkpt>
      <trkpt lat="42.3180770" lon="-7.3196190">
        <ele>986.3</ele>
        <time>2014-10-01T15:15:44Z</time>
      </trkpt>
      <trkpt lat="42.3181160" lon="-7.3195400">
        <ele>986.3</ele>
        <time>2014-10-01T15:15:45Z</time>
      </trkpt>
      <trkpt lat="42.3181550" lon="-7.3194570">
        <ele>986.3</ele>
        <time>2014-10-01T15:15:46Z</time>
      </trkpt>
      <trkpt lat="42.3181930" lon="-7.3193780">
        <ele>986.2</ele>
        <time>2014-10-01T15:15:47Z</time>
      </trkpt>
      <trkpt lat="42.3182290" lon="-7.3193000">
        <ele>986.2</ele>
        <time>2014-10-01T15:15:48Z</time>
      </trkpt>
      <trkpt lat="42.3182650" lon="-7.3192180">
        <ele>986.1</ele>
        <time>2014-10-01T15:15:49Z</time>
      </trkpt>
      <trkpt lat="42.3182970" lon="-7.3191360">
        <ele>986.1</ele>
        <time>2014-10-01T15:15:50Z</time>
      </trkpt>
      <trkpt lat="42.3183280" lon="-7.3190480">
        <ele>986.0</ele>
        <time>2014-10-01T15:15:51Z</time>
      </trkpt>
      <trkpt lat="42.3183570" lon="-7.3189550">
        <ele>985.8</ele>
        <time>2014-10-01T15:15:52Z</time>
      </trkpt>
      <trkpt lat="42.3183840" lon="-7.3188610">
        <ele>985.7</ele>
        <time>2014-10-01T15:15:53Z</time>
      </trkpt>
      <trkpt lat="42.3184110" lon="-7.3187620">
        <ele>985.5</ele>
        <time>2014-10-01T15:15:54Z</time>
      </trkpt>
      <trkpt lat="42.3184360" lon="-7.3186620">
        <ele>985.2</ele>
        <time>2014-10-01T15:15:55Z</time>
      </trkpt>
      <trkpt lat="42.3184610" lon="-7.3185620">
        <ele>985.0</ele>
        <time>2014-10-01T15:15:56Z</time>
      </trkpt>
      <trkpt lat="42.3184850" lon="-7.3184600">
        <ele>984.6</ele>
        <time>2014-10-01T15:15:57Z</time>
      </trkpt>
      <trkpt lat="42.3185070" lon="-7.3183590">
        <ele>984.3</ele>
        <time>2014-10-01T15:15:58Z</time>
      </trkpt>
      <trkpt lat="42.3185290" lon="-7.3182550">
        <ele>984.0</ele>
        <time>2014-10-01T15:15:59Z</time>
      </trkpt>
      <trkpt lat="42.3185500" lon="-7.3181500">
        <ele>983.7</ele>
        <time>2014-10-01T15:16:00Z</time>
      </trkpt>
      <trkpt lat="42.3185720" lon="-7.3180470">
        <ele>983.4</ele>
        <time>2014-10-01T15:16:01Z</time>
      </trkpt>
      <trkpt lat="42.3185940" lon="-7.3179380">
        <ele>983.1</ele>
        <time>2014-10-01T15:16:02Z</time>
      </trkpt>
      <trkpt lat="42.3186160" lon="-7.3178270">
        <ele>982.7</ele>
        <time>2014-10-01T15:16:03Z</time>
      </trkpt>
      <trkpt lat="42.3186360" lon="-7.3177110">
        <ele>982.3</ele>
        <time>2014-10-01T15:16:04Z</time>
      </trkpt>
      <trkpt lat="42.3186570" lon="-7.3175970">
        <ele>981.9</ele>
        <time>2014-10-01T15:16:05Z</time>
      </trkpt>
      <trkpt lat="42.3186780" lon="-7.3174850">
        <ele>981.5</ele>
        <time>2014-10-01T15:16:06Z</time>
      </trkpt>
      <trkpt lat="42.3187010" lon="-7.3173690">
        <ele>981.0</ele>
        <time>2014-10-01T15:16:07Z</time>
      </trkpt>
      <trkpt lat="42.3187270" lon="-7.3172430">
        <ele>980.5</ele>
        <time>2014-10-01T15:16:08Z</time>
      </trkpt>
      <trkpt lat="42.3187540" lon="-7.3171120">
        <ele>979.9</ele>
        <time>2014-10-01T15:16:09Z</time>
      </trkpt>
      <trkpt lat="42.3187820" lon="-7.3169820">
        <ele>979.3</ele>
        <time>2014-10-01T15:16:10Z</time>
      </trkpt>
      <trkpt lat="42.3188090" lon="-7.3168580">
        <ele>978.7</ele>
        <time>2014-10-01T15:16:11Z</time>
      </trkpt>
      <trkpt lat="42.3188390" lon="-7.3167190">
        <ele>978.0</ele>
        <time>2014-10-01T15:16:12Z</time>
      </trkpt>
      <trkpt lat="42.3188660" lon="-7.3165890">
        <ele>977.3</ele>
        <time>2014-10-01T15:16:13Z</time>
      </trkpt>
      <trkpt lat="42.3188940" lon="-7.3164560">
        <ele>976.6</ele>
        <time>2014-10-01T15:16:14Z</time>
      </trkpt>
      <trkpt lat="42.3189260" lon="-7.3163220">
        <ele>975.9</ele>
        <time>2014-10-01T15:16:15Z</time>
      </trkpt>
      <trkpt lat="42.3189570" lon="-7.3161860">
        <ele>975.1</ele>
        <time>2014-10-01T15:16:16Z</time>
      </trkpt>
      <trkpt lat="42.3189890" lon="-7.3160540">
        <ele>974.3</ele>
        <time>2014-10-01T15:16:17Z</time>
      </trkpt>
      <trkpt lat="42.3190170" lon="-7.3159230">
        <ele>973.6</ele>
        <time>2014-10-01T15:16:18Z</time>
      </trkpt>
      <trkpt lat="42.3190480" lon="-7.3157760">
        <ele>972.8</ele>
        <time>2014-10-01T15:16:19Z</time>
      </trkpt>
      <trkpt lat="42.3190790" lon="-7.3156200">
        <ele>971.9</ele>
        <time>2014-10-01T15:16:20Z</time>
      </trkpt>
      <trkpt lat="42.3191110" lon="-7.3154580">
        <ele>970.9</ele>
        <time>2014-10-01T15:16:21Z</time>
      </trkpt>
      <trkpt lat="42.3191420" lon="-7.3152970">
        <ele>969.9</ele>
        <time>2014-10-01T15:16:22Z</time>
      </trkpt>
      <trkpt lat="42.3191760" lon="-7.3151330">
        <ele>968.9</ele>
        <time>2014-10-01T15:16:23Z</time>
      </trkpt>
      <trkpt lat="42.3192120" lon="-7.3149690">
        <ele>968.0</ele>
        <time>2014-10-01T15:16:24Z</time>
      </trkpt>
      <trkpt lat="42.3192440" lon="-7.3148120">
        <ele>967.1</ele>
        <time>2014-10-01T15:16:25Z</time>
      </trkpt>
      <trkpt lat="42.3192770" lon="-7.3146560">
        <ele>966.2</ele>
        <time>2014-10-01T15:16:26Z</time>
      </trkpt>
      <trkpt lat="42.3193120" lon="-7.3145020">
        <ele>965.4</ele>
        <time>2014-10-01T15:16:27Z</time>
      </trkpt>
      <trkpt lat="42.3193470" lon="-7.3143410">
        <ele>964.5</ele>
        <time>2014-10-01T15:16:28Z</time>
      </trkpt>
      <trkpt lat="42.3193840" lon="-7.3141800">
        <ele>963.7</ele>
        <time>2014-10-01T15:16:29Z</time>
      </trkpt>
      <trkpt lat="42.3194210" lon="-7.3140200">
        <ele>962.8</ele>
        <time>2014-10-01T15:16:30Z</time>
      </trkpt>
      <trkpt lat="42.3194570" lon="-7.3138650">
        <ele>961.9</ele>
        <time>2014-10-01T15:16:31Z</time>
      </trkpt>
      <trkpt lat="42.3194930" lon="-7.3137060">
        <ele>961.1</ele>
        <time>2014-10-01T15:16:32Z</time>
      </trkpt>
      <trkpt lat="42.3195290" lon="-7.3135490">
        <ele>960.3</ele>
        <time>2014-10-01T15:16:33Z</time>
      </trkpt>
      <trkpt lat="42.3195690" lon="-7.3133930">
        <ele>959.5</ele>
        <time>2014-10-01T15:16:34Z</time>
      </trkpt>
      <trkpt lat="42.3196130" lon="-7.3132350">
        <ele>958.6</ele>
        <time>2014-10-01T15:16:35Z</time>
      </trkpt>
      <trkpt lat="42.3196640" lon="-7.3130860">
        <ele>957.8</ele>
        <time>2014-10-01T15:16:36Z</time>
      </trkpt>
      <trkpt lat="42.3197250" lon="-7.3129420">
        <ele>957.0</ele>
        <time>2014-10-01T15:16:37Z</time>
      </trkpt>
      <trkpt lat="42.3198190" lon="-7.3128140">
        <ele>956.0</ele>
        <time>2014-10-01T15:16:38Z</time>
      </trkpt>
      <trkpt lat="42.3199190" lon="-7.3126950">
        <ele>955.1</ele>
        <time>2014-10-01T15:16:39Z</time>
      </trkpt>
      <trkpt lat="42.3200410" lon="-7.3126080">
        <ele>954.1</ele>
        <time>2014-10-01T15:16:40Z</time>
      </trkpt>
      <trkpt lat="42.3201640" lon="-7.3125320">
        <ele>953.2</ele>
        <time>2014-10-01T15:16:41Z</time>
      </trkpt>
      <trkpt lat="42.3202840" lon="-7.3124650">
        <ele>952.3</ele>
        <time>2014-10-01T15:16:42Z</time>
      </trkpt>
      <trkpt lat="42.3204050" lon="-7.3124020">
        <ele>951.4</ele>
        <time>2014-10-01T15:16:43Z</time>
      </trkpt>
      <trkpt lat="42.3205260" lon="-7.3123430">
        <ele>950.5</ele>
        <time>2014-10-01T15:16:44Z</time>
      </trkpt>
      <trkpt lat="42.3206470" lon="-7.3122840">
        <ele>949.5</ele>
        <time>2014-10-01T15:16:45Z</time>
      </trkpt>
      <trkpt lat="42.3207640" lon="-7.3122250">
        <ele>948.6</ele>
        <time>2014-10-01T15:16:46Z</time>
      </trkpt>
      <trkpt lat="42.3208830" lon="-7.3121670">
        <ele>947.6</ele>
        <time>2014-10-01T15:16:47Z</time>
      </trkpt>
      <trkpt lat="42.3210000" lon="-7.3121100">
        <ele>946.5</ele>
        <time>2014-10-01T15:16:48Z</time>
      </trkpt>
      <trkpt lat="42.3211190" lon="-7.3120520">
        <ele>945.4</ele>
        <time>2014-10-01T15:16:49Z</time>
      </trkpt>
      <trkpt lat="42.3212390" lon="-7.3119920">
        <ele>944.3</ele>
        <time>2014-10-01T15:16:50Z</time>
      </trkpt>
      <trkpt lat="42.3213630" lon="-7.3119290">
        <ele>943.2</ele>
        <time>2014-10-01T15:16:51Z</time>
      </trkpt>
      <trkpt lat="42.3214850" lon="-7.3118540">
        <ele>942.0</ele>
        <time>2014-10-01T15:16:52Z</time>
      </trkpt>
      <trkpt lat="42.3216040" lon="-7.3117710">
        <ele>940.8</ele>
        <time>2014-10-01T15:16:53Z</time>
      </trkpt>
      <trkpt lat="42.3217190" lon="-7.3116730">
        <ele>939.6</ele>
        <time>2014-10-01T15:16:54Z</time>
      </trkpt>
      <trkpt lat="42.3218130" lon="-7.3115360">
        <ele>938.5</ele>
        <time>2014-10-01T15:16:55Z</time>
      </trkpt>
      <trkpt lat="42.3218940" lon="-7.3113960">
        <ele>937.6</ele>
        <time>2014-10-01T15:16:56Z</time>
      </trkpt>
      <trkpt lat="42.3219440" lon="-7.3112260">
        <ele>936.4</ele>
        <time>2014-10-01T15:16:57Z</time>
      </trkpt>
      <trkpt lat="42.3219870" lon="-7.3110520">
        <ele>935.0</ele>
        <time>2014-10-01T15:16:58Z</time>
      </trkpt>
      <trkpt lat="42.3219940" lon="-7.3108700">
        <ele>933.7</ele>
        <time>2014-10-01T15:16:59Z</time>
      </trkpt>
      <trkpt lat="42.3219940" lon="-7.3106820">
        <ele>932.2</ele>
        <time>2014-10-01T15:17:00Z</time>
      </trkpt>
      <trkpt lat="42.3219880" lon="-7.3104940">
        <ele>930.9</ele>
        <time>2014-10-01T15:17:01Z</time>
      </trkpt>
      <trkpt lat="42.3219770" lon="-7.3103020">
        <ele>929.6</ele>
        <time>2014-10-01T15:17:02Z</time>
      </trkpt>
      <trkpt lat="42.3219640" lon="-7.3101060">
        <ele>928.4</ele>
        <time>2014-10-01T15:17:03Z</time>
      </trkpt>
      <trkpt lat="42.3219500" lon="-7.3099040">
        <ele>926.9</ele>
        <time>2014-10-01T15:17:04Z</time>
      </trkpt>
      <trkpt lat="42.3219320" lon="-7.3097030">
        <ele>925.5</ele>
        <time>2014-10-01T15:17:05Z</time>
      </trkpt>
      <trkpt lat="42.3219100" lon="-7.3095020">
        <ele>924.0</ele>
        <time>2014-10-01T15:17:06Z</time>
      </trkpt>
      <trkpt lat="42.3218850" lon="-7.3093010">
        <ele>922.8</ele>
        <time>2014-10-01T15:17:07Z</time>
      </trkpt>
      <trkpt lat="42.3218610" lon="-7.3091060">
        <ele>921.8</ele>
        <time>2014-10-01T15:17:08Z</time>
      </trkpt>
      <trkpt lat="42.3218390" lon="-7.3089080">
        <ele>920.7</ele>
        <time>2014-10-01T15:17:09Z</time>
      </trkpt>
      <trkpt lat="42.3218180" lon="-7.3087110">
        <ele>919.5</ele>
        <time>2014-10-01T15:17:10Z</time>
      </trkpt>
      <trkpt lat="42.3217960" lon="-7.3085190">
        <ele>918.5</ele>
        <time>2014-10-01T15:17:11Z</time>
      </trkpt>
      <trkpt lat="42.3217740" lon="-7.3083210">
        <ele>917.5</ele>
        <time>2014-10-01T15:17:12Z</time>
      </trkpt>
      <trkpt lat="42.3217560" lon="-7.3081290">
        <ele>916.3</ele>
        <time>2014-10-01T15:17:13Z</time>
      </trkpt>
      <trkpt lat="42.3217390" lon="-7.3079320">
        <ele>915.3</ele>
        <time>2014-10-01T15:17:14Z</time>
      </trkpt>
      <trkpt lat="42.3217240" lon="-7.3077320">
        <ele>914.2</ele>
        <time>2014-10-01T15:17:15Z</time>
      </trkpt>
      <trkpt lat="42.3217100" lon="-7.3075360">
        <ele>913.1</ele>
        <time>2014-10-01T15:17:16Z</time>
      </trkpt>
      <trkpt lat="42.3216920" lon="-7.3073480">
        <ele>912.1</ele>
        <time>2014-10-01T15:17:17Z</time>
      </trkpt>
      <trkpt lat="42.3216750" lon="-7.3071650">
        <ele>911.2</ele>
        <time>2014-10-01T15:17:18Z</time>
      </trkpt>
      <trkpt lat="42.3216570" lon="-7.3069830">
        <ele>910.2</ele>
        <time>2014-10-01T15:17:19Z</time>
      </trkpt>
      <trkpt lat="42.3216420" lon="-7.3067860">
        <ele>909.1</ele>
        <time>2014-10-01T15:17:20Z</time>
      </trkpt>
      <trkpt lat="42.3216330" lon="-7.3065850">
        <ele>908.0</ele>
        <time>2014-10-01T15:17:21Z</time>
      </trkpt>
      <trkpt lat="42.3216290" lon="-7.3063840">
        <ele>906.9</ele>
        <time>2014-10-01T15:17:22Z</time>
      </trkpt>
      <trkpt lat="42.3216360" lon="-7.3061930">
        <ele>905.9</ele>
        <time>2014-10-01T15:17:23Z</time>
      </trkpt>
      <trkpt lat="42.3216770" lon="-7.3060020">
        <ele>904.8</ele>
        <time>2014-10-01T15:17:24Z</time>
      </trkpt>
      <trkpt lat="42.3217230" lon="-7.3058180">
        <ele>903.7</ele>
        <time>2014-10-01T15:17:25Z</time>
      </trkpt>
      <trkpt lat="42.3217710" lon="-7.3056420">
        <ele>902.6</ele>
        <time>2014-10-01T15:17:26Z</time>
      </trkpt>
      <trkpt lat="42.3218190" lon="-7.3054700">
        <ele>901.6</ele>
        <time>2014-10-01T15:17:27Z</time>
      </trkpt>
      <trkpt lat="42.3218680" lon="-7.3052960">
        <ele>900.6</ele>
        <time>2014-10-01T15:17:28Z</time>
      </trkpt>
      <trkpt lat="42.3219180" lon="-7.3051180">
        <ele>899.6</ele>
        <time>2014-10-01T15:17:29Z</time>
      </trkpt>
      <trkpt lat="42.3219700" lon="-7.3049300">
        <ele>898.4</ele>
        <time>2014-10-01T15:17:30Z</time>
      </trkpt>
      <trkpt lat="42.3220230" lon="-7.3047430">
        <ele>897.3</ele>
        <time>2014-10-01T15:17:31Z</time>
      </trkpt>
      <trkpt lat="42.3220770" lon="-7.3045560">
        <ele>896.1</ele>
        <time>2014-10-01T15:17:32Z</time>
      </trkpt>
      <trkpt lat="42.3221280" lon="-7.3043780">
        <ele>895.1</ele>
        <time>2014-10-01T15:17:33Z</time>
      </trkpt>
      <trkpt lat="42.3221780" lon="-7.3042040">
        <ele>894.2</ele>
        <time>2014-10-01T15:17:34Z</time>
      </trkpt>
      <trkpt lat="42.3222280" lon="-7.3040300">
        <ele>893.5</ele>
        <time>2014-10-01T15:17:35Z</time>
      </trkpt>
      <trkpt lat="42.3222780" lon="-7.3038580">
        <ele>893.0</ele>
        <time>2014-10-01T15:17:36Z</time>
      </trkpt>
      <trkpt lat="42.3223250" lon="-7.3036850">
        <ele>892.8</ele>
        <time>2014-10-01T15:17:37Z</time>
      </trkpt>
      <trkpt lat="42.3223720" lon="-7.3035110">
        <ele>892.2</ele>
        <time>2014-10-01T15:17:38Z</time>
      </trkpt>
      <trkpt lat="42.3224170" lon="-7.3033410">
        <ele>891.8</ele>
        <time>2014-10-01T15:17:39Z</time>
      </trkpt>
      <trkpt lat="42.3224580" lon="-7.3031850">
        <ele>891.5</ele>
        <time>2014-10-01T15:17:40Z</time>
      </trkpt>
      <trkpt lat="42.3224950" lon="-7.3030400">
        <ele>891.3</ele>
        <time>2014-10-01T15:17:41Z</time>
      </trkpt>
      <trkpt lat="42.3225310" lon="-7.3028940">
        <ele>891.1</ele>
        <time>2014-10-01T15:17:42Z</time>
      </trkpt>
      <trkpt lat="42.3225670" lon="-7.3027480">
        <ele>890.8</ele>
        <time>2014-10-01T15:17:43Z</time>
      </trkpt>
      <trkpt lat="42.3226020" lon="-7.3025960">
        <ele>890.7</ele>
        <time>2014-10-01T15:17:44Z</time>
      </trkpt>
      <trkpt lat="42.3226370" lon="-7.3024480">
        <ele>890.5</ele>
        <time>2014-10-01T15:17:45Z</time>
      </trkpt>
      <trkpt lat="42.3226710" lon="-7.3023030">
        <ele>890.5</ele>
        <time>2014-10-01T15:17:46Z</time>
      </trkpt>
      <trkpt lat="42.3227070" lon="-7.3021620">
        <ele>890.5</ele>
        <time>2014-10-01T15:17:47Z</time>
      </trkpt>
      <trkpt lat="42.3227420" lon="-7.3020250">
        <ele>890.5</ele>
        <time>2014-10-01T15:17:48Z</time>
      </trkpt>
      <trkpt lat="42.3227760" lon="-7.3018890">
        <ele>890.6</ele>
        <time>2014-10-01T15:17:49Z</time>
      </trkpt>
      <trkpt lat="42.3228110" lon="-7.3017510">
        <ele>890.4</ele>
        <time>2014-10-01T15:17:50Z</time>
      </trkpt>
      <trkpt lat="42.3228450" lon="-7.3016140">
        <ele>890.1</ele>
        <time>2014-10-01T15:17:51Z</time>
      </trkpt>
      <trkpt lat="42.3228770" lon="-7.3014700">
        <ele>890.0</ele>
        <time>2014-10-01T15:17:52Z</time>
      </trkpt>
      <trkpt lat="42.3229050" lon="-7.3013370">
        <ele>890.0</ele>
        <time>2014-10-01T15:17:53Z</time>
      </trkpt>
      <trkpt lat="42.3229340" lon="-7.3011990">
        <ele>890.0</ele>
        <time>2014-10-01T15:17:54Z</time>
      </trkpt>
      <trkpt lat="42.3229630" lon="-7.3010630">
        <ele>890.1</ele>
        <time>2014-10-01T15:17:55Z</time>
      </trkpt>
      <trkpt lat="42.3229910" lon="-7.3009340">
        <ele>890.2</ele>
        <time>2014-10-01T15:17:56Z</time>
      </trkpt>
      <trkpt lat="42.3230180" lon="-7.3008000">
        <ele>890.3</ele>
        <time>2014-10-01T15:17:57Z</time>
      </trkpt>
      <trkpt lat="42.3230460" lon="-7.3006670">
        <ele>890.5</ele>
        <time>2014-10-01T15:17:58Z</time>
      </trkpt>
      <trkpt lat="42.3230730" lon="-7.3005320">
        <ele>890.3</ele>
        <time>2014-10-01T15:17:59Z</time>
      </trkpt>
      <trkpt lat="42.3230970" lon="-7.3004050">
        <ele>890.1</ele>
        <time>2014-10-01T15:18:00Z</time>
      </trkpt>
      <trkpt lat="42.3231200" lon="-7.3002830">
        <ele>889.9</ele>
        <time>2014-10-01T15:18:01Z</time>
      </trkpt>
      <trkpt lat="42.3231440" lon="-7.3001570">
        <ele>889.7</ele>
        <time>2014-10-01T15:18:02Z</time>
      </trkpt>
      <trkpt lat="42.3231690" lon="-7.3000330">
        <ele>889.6</ele>
        <time>2014-10-01T15:18:03Z</time>
      </trkpt>
      <trkpt lat="42.3231930" lon="-7.2999100">
        <ele>889.5</ele>
        <time>2014-10-01T15:18:04Z</time>
      </trkpt>
      <trkpt lat="42.3232170" lon="-7.2997920">
        <ele>889.3</ele>
        <time>2014-10-01T15:18:05Z</time>
      </trkpt>
      <trkpt lat="42.3232410" lon="-7.2996730">
        <ele>889.2</ele>
        <time>2014-10-01T15:18:06Z</time>
      </trkpt>
      <trkpt lat="42.3232650" lon="-7.2995550">
        <ele>889.1</ele>
        <time>2014-10-01T15:18:07Z</time>
      </trkpt>
      <trkpt lat="42.3232920" lon="-7.2994360">
        <ele>888.9</ele>
        <time>2014-10-01T15:18:08Z</time>
      </trkpt>
      <trkpt lat="42.3233190" lon="-7.2993170">
        <ele>888.8</ele>
        <time>2014-10-01T15:18:09Z</time>
      </trkpt>
      <trkpt lat="42.3233470" lon="-7.2992000">
        <ele>888.7</ele>
        <time>2014-10-01T15:18:10Z</time>
      </trkpt>
      <trkpt lat="42.3233770" lon="-7.2990820">
        <ele>888.7</ele>
        <time>2014-10-01T15:18:11Z</time>
      </trkpt>
      <trkpt lat="42.3234050" lon="-7.2989680">
        <ele>888.5</ele>
        <time>2014-10-01T15:18:12Z</time>
      </trkpt>
      <trkpt lat="42.3234340" lon="-7.2988520">
        <ele>888.4</ele>
        <time>2014-10-01T15:18:13Z</time>
      </trkpt>
      <trkpt lat="42.3234630" lon="-7.2987350">
        <ele>888.3</ele>
        <time>2014-10-01T15:18:14Z</time>
      </trkpt>
      <trkpt lat="42.3234890" lon="-7.2986260">
        <ele>888.2</ele>
        <time>2014-10-01T15:18:15Z</time>
      </trkpt>
      <trkpt lat="42.3235170" lon="-7.2985210">
        <ele>888.2</ele>
        <time>2014-10-01T15:18:16Z</time>
      </trkpt>
      <trkpt lat="42.3235450" lon="-7.2984180">
        <ele>888.1</ele>
        <time>2014-10-01T15:18:17Z</time>
      </trkpt>
      <trkpt lat="42.3235790" lon="-7.2983100">
        <ele>888.1</ele>
        <time>2014-10-01T15:18:18Z</time>
      </trkpt>
      <trkpt lat="42.3236160" lon="-7.2982030">
        <ele>888.0</ele>
        <time>2014-10-01T15:18:19Z</time>
      </trkpt>
      <trkpt lat="42.3236540" lon="-7.2981010">
        <ele>887.7</ele>
        <time>2014-10-01T15:18:20Z</time>
      </trkpt>
      <trkpt lat="42.3236940" lon="-7.2980020">
        <ele>887.5</ele>
        <time>2014-10-01T15:18:21Z</time>
      </trkpt>
      <trkpt lat="42.3237370" lon="-7.2979010">
        <ele>887.3</ele>
        <time>2014-10-01T15:18:22Z</time>
      </trkpt>
      <trkpt lat="42.3237790" lon="-7.2978040">
        <ele>887.3</ele>
        <time>2014-10-01T15:18:23Z</time>
      </trkpt>
      <trkpt lat="42.3238240" lon="-7.2977040">
        <ele>887.2</ele>
        <time>2014-10-01T15:18:24Z</time>
      </trkpt>
      <trkpt lat="42.3238710" lon="-7.2976050">
        <ele>887.2</ele>
        <time>2014-10-01T15:18:25Z</time>
      </trkpt>
      <trkpt lat="42.3239180" lon="-7.2975050">
        <ele>887.0</ele>
        <time>2014-10-01T15:18:26Z</time>
      </trkpt>
      <trkpt lat="42.3239650" lon="-7.2974090">
        <ele>886.9</ele>
        <time>2014-10-01T15:18:27Z</time>
      </trkpt>
      <trkpt lat="42.3240110" lon="-7.2973130">
        <ele>886.8</ele>
        <time>2014-10-01T15:18:28Z</time>
      </trkpt>
      <trkpt lat="42.3240560" lon="-7.2972170">
        <ele>886.7</ele>
        <time>2014-10-01T15:18:29Z</time>
      </trkpt>
      <trkpt lat="42.3240980" lon="-7.2971200">
        <ele>886.7</ele>
        <time>2014-10-01T15:18:30Z</time>
      </trkpt>
      <trkpt lat="42.3241420" lon="-7.2970200">
        <ele>886.6</ele>
        <time>2014-10-01T15:18:31Z</time>
      </trkpt>
      <trkpt lat="42.3241850" lon="-7.2969200">
        <ele>886.5</ele>
        <time>2014-10-01T15:18:32Z</time>
      </trkpt>
      <trkpt lat="42.3242280" lon="-7.2968200">
        <ele>886.5</ele>
        <time>2014-10-01T15:18:33Z</time>
      </trkpt>
      <trkpt lat="42.3242700" lon="-7.2967180">
        <ele>886.4</ele>
        <time>2014-10-01T15:18:34Z</time>
      </trkpt>
      <trkpt lat="42.3243100" lon="-7.2966140">
        <ele>886.4</ele>
        <time>2014-10-01T15:18:35Z</time>
      </trkpt>
      <trkpt lat="42.3243460" lon="-7.2965080">
        <ele>886.4</ele>
        <time>2014-10-01T15:18:36Z</time>
      </trkpt>
      <trkpt lat="42.3243790" lon="-7.2963970">
        <ele>886.4</ele>
        <time>2014-10-01T15:18:37Z</time>
      </trkpt>
      <trkpt lat="42.3244100" lon="-7.2962840">
        <ele>886.4</ele>
        <time>2014-10-01T15:18:38Z</time>
      </trkpt>
      <trkpt lat="42.3244390" lon="-7.2961740">
        <ele>886.4</ele>
        <time>2014-10-01T15:18:39Z</time>
      </trkpt>
      <trkpt lat="42.3244660" lon="-7.2960630">
        <ele>886.3</ele>
        <time>2014-10-01T15:18:40Z</time>
      </trkpt>
      <trkpt lat="42.3244920" lon="-7.2959500">
        <ele>886.2</ele>
        <time>2014-10-01T15:18:41Z</time>
      </trkpt>
      <trkpt lat="42.3245180" lon="-7.2958390">
        <ele>886.1</ele>
        <time>2014-10-01T15:18:42Z</time>
      </trkpt>
      <trkpt lat="42.3245440" lon="-7.2957280">
        <ele>885.9</ele>
        <time>2014-10-01T15:18:43Z</time>
      </trkpt>
      <trkpt lat="42.3245710" lon="-7.2956220">
        <ele>885.8</ele>
        <time>2014-10-01T15:18:44Z</time>
      </trkpt>
      <trkpt lat="42.3245990" lon="-7.2955150">
        <ele>885.8</ele>
        <time>2014-10-01T15:18:45Z</time>
      </trkpt>
      <trkpt lat="42.3246280" lon="-7.2954090">
        <ele>885.8</ele>
        <time>2014-10-01T15:18:46Z</time>
      </trkpt>
      <trkpt lat="42.3246560" lon="-7.2953000">
        <ele>885.6</ele>
        <time>2014-10-01T15:18:47Z</time>
      </trkpt>
      <trkpt lat="42.3246850" lon="-7.2951900">
        <ele>885.5</ele>
        <time>2014-10-01T15:18:48Z</time>
      </trkpt>
      <trkpt lat="42.3247140" lon="-7.2950760">
        <ele>885.3</ele>
        <time>2014-10-01T15:18:49Z</time>
      </trkpt>
      <trkpt lat="42.3247430" lon="-7.2949620">
        <ele>885.2</ele>
        <time>2014-10-01T15:18:50Z</time>
      </trkpt>
      <trkpt lat="42.3247730" lon="-7.2948480">
        <ele>885.0</ele>
        <time>2014-10-01T15:18:51Z</time>
      </trkpt>
      <trkpt lat="42.3248010" lon="-7.2947360">
        <ele>884.7</ele>
        <time>2014-10-01T15:18:52Z</time>
      </trkpt>
      <trkpt lat="42.3248280" lon="-7.2946220">
        <ele>884.3</ele>
        <time>2014-10-01T15:18:53Z</time>
      </trkpt>
      <trkpt lat="42.3248560" lon="-7.2945090">
        <ele>883.9</ele>
        <time>2014-10-01T15:18:54Z</time>
      </trkpt>
      <trkpt lat="42.3248840" lon="-7.2943930">
        <ele>883.6</ele>
        <time>2014-10-01T15:18:55Z</time>
      </trkpt>
      <trkpt lat="42.3249120" lon="-7.2942780">
        <ele>883.2</ele>
        <time>2014-10-01T15:18:56Z</time>
      </trkpt>
      <trkpt lat="42.3249400" lon="-7.2941620">
        <ele>882.8</ele>
        <time>2014-10-01T15:18:57Z</time>
      </trkpt>
      <trkpt lat="42.3249690" lon="-7.2940430">
        <ele>882.3</ele>
        <time>2014-10-01T15:18:58Z</time>
      </trkpt>
      <trkpt lat="42.3249990" lon="-7.2939240">
        <ele>881.9</ele>
        <time>2014-10-01T15:18:59Z</time>
      </trkpt>
      <trkpt lat="42.3250290" lon="-7.2938030">
        <ele>881.4</ele>
        <time>2014-10-01T15:19:00Z</time>
      </trkpt>
      <trkpt lat="42.3250640" lon="-7.2936790">
        <ele>880.9</ele>
        <time>2014-10-01T15:19:01Z</time>
      </trkpt>
      <trkpt lat="42.3251010" lon="-7.2935540">
        <ele>880.3</ele>
        <time>2014-10-01T15:19:02Z</time>
      </trkpt>
      <trkpt lat="42.3251400" lon="-7.2934310">
        <ele>879.7</ele>
        <time>2014-10-01T15:19:03Z</time>
      </trkpt>
      <trkpt lat="42.3251840" lon="-7.2933090">
        <ele>879.2</ele>
        <time>2014-10-01T15:19:04Z</time>
      </trkpt>
      <trkpt lat="42.3252320" lon="-7.2931920">
        <ele>878.7</ele>
        <time>2014-10-01T15:19:05Z</time>
      </trkpt>
      <trkpt lat="42.3252890" lon="-7.2930710">
        <ele>878.1</ele>
        <time>2014-10-01T15:19:06Z</time>
      </trkpt>
      <trkpt lat="42.3253570" lon="-7.2929530">
        <ele>877.4</ele>
        <time>2014-10-01T15:19:07Z</time>
      </trkpt>
      <trkpt lat="42.3254330" lon="-7.2928360">
        <ele>876.7</ele>
        <time>2014-10-01T15:19:08Z</time>
      </trkpt>
      <trkpt lat="42.3255120" lon="-7.2927230">
        <ele>876.0</ele>
        <time>2014-10-01T15:19:09Z</time>
      </trkpt>
      <trkpt lat="42.3255910" lon="-7.2926150">
        <ele>875.2</ele>
        <time>2014-10-01T15:19:10Z</time>
      </trkpt>
      <trkpt lat="42.3256760" lon="-7.2924980">
        <ele>874.4</ele>
        <time>2014-10-01T15:19:11Z</time>
      </trkpt>
      <trkpt lat="42.3257610" lon="-7.2923880">
        <ele>873.7</ele>
        <time>2014-10-01T15:19:12Z</time>
      </trkpt>
      <trkpt lat="42.3258510" lon="-7.2922800">
        <ele>872.9</ele>
        <time>2014-10-01T15:19:13Z</time>
      </trkpt>
      <trkpt lat="42.3259440" lon="-7.2921730">
        <ele>872.1</ele>
        <time>2014-10-01T15:19:14Z</time>
      </trkpt>
      <trkpt lat="42.3260380" lon="-7.2920690">
        <ele>871.4</ele>
        <time>2014-10-01T15:19:15Z</time>
      </trkpt>
      <trkpt lat="42.3261260" lon="-7.2919700">
        <ele>870.6</ele>
        <time>2014-10-01T15:19:16Z</time>
      </trkpt>
      <trkpt lat="42.3262110" lon="-7.2918760">
        <ele>869.9</ele>
        <time>2014-10-01T15:19:17Z</time>
      </trkpt>
      <trkpt lat="42.3262970" lon="-7.2917790">
        <ele>869.2</ele>
        <time>2014-10-01T15:19:18Z</time>
      </trkpt>
      <trkpt lat="42.3263860" lon="-7.2916780">
        <ele>868.5</ele>
        <time>2014-10-01T15:19:19Z</time>
      </trkpt>
      <trkpt lat="42.3264770" lon="-7.2915730">
        <ele>867.7</ele>
        <time>2014-10-01T15:19:20Z</time>
      </trkpt>
      <trkpt lat="42.3265650" lon="-7.2914700">
        <ele>867.0</ele>
        <time>2014-10-01T15:19:21Z</time>
      </trkpt>
      <trkpt lat="42.3266580" lon="-7.2913600">
        <ele>866.2</ele>
        <time>2014-10-01T15:19:22Z</time>
      </trkpt>
      <trkpt lat="42.3267480" lon="-7.2912530">
        <ele>865.4</ele>
        <time>2014-10-01T15:19:23Z</time>
      </trkpt>
      <trkpt lat="42.3268390" lon="-7.2911450">
        <ele>864.5</ele>
        <time>2014-10-01T15:19:24Z</time>
      </trkpt>
      <trkpt lat="42.3269290" lon="-7.2910410">
        <ele>863.8</ele>
        <time>2014-10-01T15:19:25Z</time>
      </trkpt>
      <trkpt lat="42.3270170" lon="-7.2909370">
        <ele>863.1</ele>
        <time>2014-10-01T15:19:26Z</time>
      </trkpt>
      <trkpt lat="42.3271050" lon="-7.2908320">
        <ele>862.2</ele>
        <time>2014-10-01T15:19:27Z</time>
      </trkpt>
      <trkpt lat="42.3271950" lon="-7.2907260">
        <ele>861.3</ele>
        <time>2014-10-01T15:19:28Z</time>
      </trkpt>
      <trkpt lat="42.3272840" lon="-7.2906230">
        <ele>860.5</ele>
        <time>2014-10-01T15:19:29Z</time>
      </trkpt>
      <trkpt lat="42.3273770" lon="-7.2905160">
        <ele>859.6</ele>
        <time>2014-10-01T15:19:30Z</time>
      </trkpt>
      <trkpt lat="42.3274690" lon="-7.2904180">
        <ele>858.8</ele>
        <time>2014-10-01T15:19:31Z</time>
      </trkpt>
      <trkpt lat="42.3275660" lon="-7.2903210">
        <ele>857.9</ele>
        <time>2014-10-01T15:19:32Z</time>
      </trkpt>
      <trkpt lat="42.3276600" lon="-7.2902250">
        <ele>857.0</ele>
        <time>2014-10-01T15:19:33Z</time>
      </trkpt>
      <trkpt lat="42.3277560" lon="-7.2901320">
        <ele>856.2</ele>
        <time>2014-10-01T15:19:34Z</time>
      </trkpt>
      <trkpt lat="42.3278540" lon="-7.2900400">
        <ele>855.4</ele>
        <time>2014-10-01T15:19:35Z</time>
      </trkpt>
      <trkpt lat="42.3279620" lon="-7.2899480">
        <ele>854.5</ele>
        <time>2014-10-01T15:19:36Z</time>
      </trkpt>
      <trkpt lat="42.3280680" lon="-7.2898630">
        <ele>853.5</ele>
        <time>2014-10-01T15:19:37Z</time>
      </trkpt>
      <trkpt lat="42.3281750" lon="-7.2897800">
        <ele>852.7</ele>
        <time>2014-10-01T15:19:38Z</time>
      </trkpt>
      <trkpt lat="42.3282810" lon="-7.2897010">
        <ele>852.0</ele>
        <time>2014-10-01T15:19:39Z</time>
      </trkpt>
      <trkpt lat="42.3283820" lon="-7.2896230">
        <ele>851.3</ele>
        <time>2014-10-01T15:19:40Z</time>
      </trkpt>
      <trkpt lat="42.3284840" lon="-7.2895470">
        <ele>850.6</ele>
        <time>2014-10-01T15:19:41Z</time>
      </trkpt>
      <trkpt lat="42.3285810" lon="-7.2894740">
        <ele>849.9</ele>
        <time>2014-10-01T15:19:42Z</time>
      </trkpt>
      <trkpt lat="42.3286730" lon="-7.2894040">
        <ele>849.2</ele>
        <time>2014-10-01T15:19:43Z</time>
      </trkpt>
      <trkpt lat="42.3287760" lon="-7.2893310">
        <ele>848.5</ele>
        <time>2014-10-01T15:19:44Z</time>
      </trkpt>
      <trkpt lat="42.3288860" lon="-7.2892530">
        <ele>847.8</ele>
        <time>2014-10-01T15:19:45Z</time>
      </trkpt>
      <trkpt lat="42.3289990" lon="-7.2891720">
        <ele>847.6</ele>
        <time>2014-10-01T15:19:46Z</time>
      </trkpt>
      <trkpt lat="42.3291120" lon="-7.2890890">
        <ele>846.8</ele>
        <time>2014-10-01T15:19:47Z</time>
      </trkpt>
      <trkpt lat="42.3292190" lon="-7.2890070">
        <ele>845.8</ele>
        <time>2014-10-01T15:19:48Z</time>
      </trkpt>
      <trkpt lat="42.3293220" lon="-7.2889220">
        <ele>844.9</ele>
        <time>2014-10-01T15:19:49Z</time>
      </trkpt>
      <trkpt lat="42.3294210" lon="-7.2888330">
        <ele>844.0</ele>
        <time>2014-10-01T15:19:50Z</time>
      </trkpt>
      <trkpt lat="42.3295180" lon="-7.2887390">
        <ele>843.2</ele>
        <time>2014-10-01T15:19:51Z</time>
      </trkpt>
      <trkpt lat="42.3296120" lon="-7.2886380">
        <ele>842.4</ele>
        <time>2014-10-01T15:19:52Z</time>
      </trkpt>
      <trkpt lat="42.3297080" lon="-7.2885320">
        <ele>841.5</ele>
        <time>2014-10-01T15:19:53Z</time>
      </trkpt>
      <trkpt lat="42.3297990" lon="-7.2884220">
        <ele>840.6</ele>
        <time>2014-10-01T15:19:54Z</time>
      </trkpt>
      <trkpt lat="42.3298820" lon="-7.2883110">
        <ele>839.8</ele>
        <time>2014-10-01T15:19:55Z</time>
      </trkpt>
      <trkpt lat="42.3299580" lon="-7.2881920">
        <ele>839.1</ele>
        <time>2014-10-01T15:19:56Z</time>
      </trkpt>
      <trkpt lat="42.3300240" lon="-7.2880700">
        <ele>838.4</ele>
        <time>2014-10-01T15:19:57Z</time>
      </trkpt>
      <trkpt lat="42.3300690" lon="-7.2879160">
        <ele>837.6</ele>
        <time>2014-10-01T15:19:58Z</time>
      </trkpt>
      <trkpt lat="42.3301110" lon="-7.2877620">
        <ele>836.9</ele>
        <time>2014-10-01T15:19:59Z</time>
      </trkpt>
      <trkpt lat="42.3301240" lon="-7.2876000">
        <ele>836.1</ele>
        <time>2014-10-01T15:20:00Z</time>
      </trkpt>
      <trkpt lat="42.3301220" lon="-7.2874200">
        <ele>835.2</ele>
        <time>2014-10-01T15:20:01Z</time>
      </trkpt>
      <trkpt lat="42.3301060" lon="-7.2872220">
        <ele>834.2</ele>
        <time>2014-10-01T15:20:02Z</time>
      </trkpt>
      <trkpt lat="42.3300890" lon="-7.2870190">
        <ele>833.3</ele>
        <time>2014-10-01T15:20:03Z</time>
      </trkpt>
      <trkpt lat="42.3300500" lon="-7.2868540">
        <ele>832.4</ele>
        <time>2014-10-01T15:20:04Z</time>
      </trkpt>
      <trkpt lat="42.3300190" lon="-7.2866790">
        <ele>831.4</ele>
        <time>2014-10-01T15:20:05Z</time>
      </trkpt>
      <trkpt lat="42.3299920" lon="-7.2865090">
        <ele>830.6</ele>
        <time>2014-10-01T15:20:06Z</time>
      </trkpt>
      <trkpt lat="42.3299730" lon="-7.2863430">
        <ele>829.7</ele>
        <time>2014-10-01T15:20:07Z</time>
      </trkpt>
      <trkpt lat="42.3299550" lon="-7.2861740">
        <ele>829.0</ele>
        <time>2014-10-01T15:20:08Z</time>
      </trkpt>
      <trkpt lat="42.3299380" lon="-7.2860030">
        <ele>828.3</ele>
        <time>2014-10-01T15:20:09Z</time>
      </trkpt>
      <trkpt lat="42.3299240" lon="-7.2858220">
        <ele>827.6</ele>
        <time>2014-10-01T15:20:10Z</time>
      </trkpt>
      <trkpt lat="42.3299100" lon="-7.2856440">
        <ele>827.1</ele>
        <time>2014-10-01T15:20:11Z</time>
      </trkpt>
      <trkpt lat="42.3299010" lon="-7.2854700">
        <ele>826.9</ele>
        <time>2014-10-01T15:20:12Z</time>
      </trkpt>
      <trkpt lat="42.3299020" lon="-7.2853040">
        <ele>826.4</ele>
        <time>2014-10-01T15:20:13Z</time>
      </trkpt>
      <trkpt lat="42.3299370" lon="-7.2851320">
        <ele>825.7</ele>
        <time>2014-10-01T15:20:14Z</time>
      </trkpt>
      <trkpt lat="42.3299800" lon="-7.2849730">
        <ele>825.0</ele>
        <time>2014-10-01T15:20:15Z</time>
      </trkpt>
      <trkpt lat="42.3300270" lon="-7.2848260">
        <ele>824.3</ele>
        <time>2014-10-01T15:20:16Z</time>
      </trkpt>
      <trkpt lat="42.3300990" lon="-7.2846950">
        <ele>823.6</ele>
        <time>2014-10-01T15:20:17Z</time>
      </trkpt>
      <trkpt lat="42.3301720" lon="-7.2845650">
        <ele>823.0</ele>
        <time>2014-10-01T15:20:18Z</time>
      </trkpt>
      <trkpt lat="42.3302450" lon="-7.2844380">
        <ele>822.5</ele>
        <time>2014-10-01T15:20:19Z</time>
      </trkpt>
      <trkpt lat="42.3303180" lon="-7.2843150">
        <ele>822.1</ele>
        <time>2014-10-01T15:20:20Z</time>
      </trkpt>
      <trkpt lat="42.3303910" lon="-7.2841900">
        <ele>821.8</ele>
        <time>2014-10-01T15:20:21Z</time>
      </trkpt>
      <trkpt lat="42.3304660" lon="-7.2840680">
        <ele>821.5</ele>
        <time>2014-10-01T15:20:22Z</time>
      </trkpt>
      <trkpt lat="42.3305430" lon="-7.2839510">
        <ele>821.3</ele>
        <time>2014-10-01T15:20:23Z</time>
      </trkpt>
      <trkpt lat="42.3306200" lon="-7.2838370">
        <ele>821.0</ele>
        <time>2014-10-01T15:20:24Z</time>
      </trkpt>
      <trkpt lat="42.3306950" lon="-7.2837270">
        <ele>820.7</ele>
        <time>2014-10-01T15:20:25Z</time>
      </trkpt>
      <trkpt lat="42.3307740" lon="-7.2836100">
        <ele>820.4</ele>
        <time>2014-10-01T15:20:26Z</time>
      </trkpt>
      <trkpt lat="42.3308440" lon="-7.2834950">
        <ele>820.2</ele>
        <time>2014-10-01T15:20:27Z</time>
      </trkpt>
      <trkpt lat="42.3309080" lon="-7.2833750">
        <ele>820.0</ele>
        <time>2014-10-01T15:20:28Z</time>
      </trkpt>
      <trkpt lat="42.3309490" lon="-7.2832360">
        <ele>819.7</ele>
        <time>2014-10-01T15:20:29Z</time>
      </trkpt>
      <trkpt lat="42.3309820" lon="-7.2831070">
        <ele>819.2</ele>
        <time>2014-10-01T15:20:30Z</time>
      </trkpt>
      <trkpt lat="42.3310130" lon="-7.2829610">
        <ele>818.6</ele>
        <time>2014-10-01T15:20:31Z</time>
      </trkpt>
      <trkpt lat="42.3310450" lon="-7.2828070">
        <ele>818.2</ele>
        <time>2014-10-01T15:20:32Z</time>
      </trkpt>
      <trkpt lat="42.3310750" lon="-7.2826540">
        <ele>817.7</ele>
        <time>2014-10-01T15:20:33Z</time>
      </trkpt>
      <trkpt lat="42.3311030" lon="-7.2824940">
        <ele>817.3</ele>
        <time>2014-10-01T15:20:34Z</time>
      </trkpt>
      <trkpt lat="42.3311290" lon="-7.2823410">
        <ele>817.0</ele>
        <time>2014-10-01T15:20:35Z</time>
      </trkpt>
      <trkpt lat="42.3311580" lon="-7.2821880">
        <ele>816.7</ele>
        <time>2014-10-01T15:20:36Z</time>
      </trkpt>
      <trkpt lat="42.3311870" lon="-7.2820370">
        <ele>816.4</ele>
        <time>2014-10-01T15:20:37Z</time>
      </trkpt>
      <trkpt lat="42.3312170" lon="-7.2818880">
        <ele>816.1</ele>
        <time>2014-10-01T15:20:38Z</time>
      </trkpt>
      <trkpt lat="42.3312440" lon="-7.2817470">
        <ele>815.9</ele>
        <time>2014-10-01T15:20:39Z</time>
      </trkpt>
      <trkpt lat="42.3312680" lon="-7.2816010">
        <ele>815.7</ele>
        <time>2014-10-01T15:20:40Z</time>
      </trkpt>
      <trkpt lat="42.3312920" lon="-7.2814550">
        <ele>815.6</ele>
        <time>2014-10-01T15:20:41Z</time>
      </trkpt>
      <trkpt lat="42.3313200" lon="-7.2813090">
        <ele>815.4</ele>
        <time>2014-10-01T15:20:42Z</time>
      </trkpt>
      <trkpt lat="42.3313470" lon="-7.2811670">
        <ele>815.2</ele>
        <time>2014-10-01T15:20:43Z</time>
      </trkpt>
      <trkpt lat="42.3313750" lon="-7.2810280">
        <ele>814.9</ele>
        <time>2014-10-01T15:20:44Z</time>
      </trkpt>
      <trkpt lat="42.3314020" lon="-7.2808930">
        <ele>814.7</ele>
        <time>2014-10-01T15:20:45Z</time>
      </trkpt>
      <trkpt lat="42.3314290" lon="-7.2807620">
        <ele>814.5</ele>
        <time>2014-10-01T15:20:46Z</time>
      </trkpt>
      <trkpt lat="42.3314590" lon="-7.2806240">
        <ele>814.3</ele>
        <time>2014-10-01T15:20:47Z</time>
      </trkpt>
      <trkpt lat="42.3314880" lon="-7.2804910">
        <ele>814.1</ele>
        <time>2014-10-01T15:20:48Z</time>
      </trkpt>
      <trkpt lat="42.3315170" lon="-7.2803520">
        <ele>813.9</ele>
        <time>2014-10-01T15:20:49Z</time>
      </trkpt>
      <trkpt lat="42.3315440" lon="-7.2802190">
        <ele>813.8</ele>
        <time>2014-10-01T15:20:50Z</time>
      </trkpt>
      <trkpt lat="42.3315720" lon="-7.2800800">
        <ele>813.8</ele>
        <time>2014-10-01T15:20:51Z</time>
      </trkpt>
      <trkpt lat="42.3316000" lon="-7.2799350">
        <ele>813.8</ele>
        <time>2014-10-01T15:20:52Z</time>
      </trkpt>
      <trkpt lat="42.3316250" lon="-7.2798040">
        <ele>813.5</ele>
        <time>2014-10-01T15:20:53Z</time>
      </trkpt>
      <trkpt lat="42.3316490" lon="-7.2796750">
        <ele>813.2</ele>
        <time>2014-10-01T15:20:54Z</time>
      </trkpt>
      <trkpt lat="42.3316750" lon="-7.2795460">
        <ele>812.9</ele>
        <time>2014-10-01T15:20:55Z</time>
      </trkpt>
      <trkpt lat="42.3317050" lon="-7.2794140">
        <ele>812.6</ele>
        <time>2014-10-01T15:20:56Z</time>
      </trkpt>
      <trkpt lat="42.3317340" lon="-7.2792880">
        <ele>812.4</ele>
        <time>2014-10-01T15:20:57Z</time>
      </trkpt>
      <trkpt lat="42.3317630" lon="-7.2791610">
        <ele>812.1</ele>
        <time>2014-10-01T15:20:58Z</time>
      </trkpt>
      <trkpt lat="42.3317920" lon="-7.2790360">
        <ele>812.0</ele>
        <time>2014-10-01T15:20:59Z</time>
      </trkpt>
      <trkpt lat="42.3318230" lon="-7.2789130">
        <ele>811.8</ele>
        <time>2014-10-01T15:21:00Z</time>
      </trkpt>
      <trkpt lat="42.3318620" lon="-7.2787890">
        <ele>811.5</ele>
        <time>2014-10-01T15:21:01Z</time>
      </trkpt>
      <trkpt lat="42.3319250" lon="-7.2786770">
        <ele>811.2</ele>
        <time>2014-10-01T15:21:02Z</time>
      </trkpt>
      <trkpt lat="42.3319900" lon="-7.2785710">
        <ele>810.8</ele>
        <time>2014-10-01T15:21:03Z</time>
      </trkpt>
      <trkpt lat="42.3320590" lon="-7.2784740">
        <ele>810.4</ele>
        <time>2014-10-01T15:21:04Z</time>
      </trkpt>
      <trkpt lat="42.3321330" lon="-7.2783820">
        <ele>810.0</ele>
        <time>2014-10-01T15:21:05Z</time>
      </trkpt>
      <trkpt lat="42.3322050" lon="-7.2782970">
        <ele>809.6</ele>
        <time>2014-10-01T15:21:06Z</time>
      </trkpt>
      <trkpt lat="42.3322820" lon="-7.2782040">
        <ele>809.2</ele>
        <time>2014-10-01T15:21:07Z</time>
      </trkpt>
      <trkpt lat="42.3323670" lon="-7.2781030">
        <ele>808.7</ele>
        <time>2014-10-01T15:21:08Z</time>
      </trkpt>
      <trkpt lat="42.3324490" lon="-7.2780090">
        <ele>808.3</ele>
        <time>2014-10-01T15:21:09Z</time>
      </trkpt>
      <trkpt lat="42.3325290" lon="-7.2779200">
        <ele>807.9</ele>
        <time>2014-10-01T15:21:10Z</time>
      </trkpt>
      <trkpt lat="42.3326110" lon="-7.2778300">
        <ele>807.5</ele>
        <time>2014-10-01T15:21:11Z</time>
      </trkpt>
      <trkpt lat="42.3326950" lon="-7.2777350">
        <ele>807.1</ele>
        <time>2014-10-01T15:21:12Z</time>
      </trkpt>
      <trkpt lat="42.3327770" lon="-7.2776380">
        <ele>806.7</ele>
        <time>2014-10-01T15:21:13Z</time>
      </trkpt>
      <trkpt lat="42.3328650" lon="-7.2775360">
        <ele>806.3</ele>
        <time>2014-10-01T15:21:14Z</time>
      </trkpt>
      <trkpt lat="42.3329510" lon="-7.2774380">
        <ele>805.8</ele>
        <time>2014-10-01T15:21:15Z</time>
      </trkpt>
      <trkpt lat="42.3330380" lon="-7.2773410">
        <ele>805.4</ele>
        <time>2014-10-01T15:21:16Z</time>
      </trkpt>
      <trkpt lat="42.3331320" lon="-7.2772360">
        <ele>804.9</ele>
        <time>2014-10-01T15:21:17Z</time>
      </trkpt>
      <trkpt lat="42.3332200" lon="-7.2771380">
        <ele>804.5</ele>
        <time>2014-10-01T15:21:18Z</time>
      </trkpt>
      <trkpt lat="42.3333080" lon="-7.2770400">
        <ele>804.1</ele>
        <time>2014-10-01T15:21:19Z</time>
      </trkpt>
      <trkpt lat="42.3333910" lon="-7.2769480">
        <ele>803.6</ele>
        <time>2014-10-01T15:21:20Z</time>
      </trkpt>
      <trkpt lat="42.3334750" lon="-7.2768560">
        <ele>803.2</ele>
        <time>2014-10-01T15:21:21Z</time>
      </trkpt>
      <trkpt lat="42.3335560" lon="-7.2767630">
        <ele>802.7</ele>
        <time>2014-10-01T15:21:22Z</time>
      </trkpt>
      <trkpt lat="42.3336350" lon="-7.2766770">
        <ele>802.2</ele>
        <time>2014-10-01T15:21:23Z</time>
      </trkpt>
      <trkpt lat="42.3337180" lon="-7.2765880">
        <ele>801.4</ele>
        <time>2014-10-01T15:21:24Z</time>
      </trkpt>
      <trkpt lat="42.3338030" lon="-7.2764980">
        <ele>800.6</ele>
        <time>2014-10-01T15:21:25Z</time>
      </trkpt>
      <trkpt lat="42.3338950" lon="-7.2764040">
        <ele>799.7</ele>
        <time>2014-10-01T15:21:26Z</time>
      </trkpt>
      <trkpt lat="42.3339850" lon="-7.2763040">
        <ele>798.7</ele>
        <time>2014-10-01T15:21:27Z</time>
      </trkpt>
      <trkpt lat="42.3340730" lon="-7.2761990">
        <ele>797.7</ele>
        <time>2014-10-01T15:21:28Z</time>
      </trkpt>
      <trkpt lat="42.3341590" lon="-7.2760930">
        <ele>796.6</ele>
        <time>2014-10-01T15:21:29Z</time>
      </trkpt>
      <trkpt lat="42.3342490" lon="-7.2759750">
        <ele>795.5</ele>
        <time>2014-10-01T15:21:30Z</time>
      </trkpt>
      <trkpt lat="42.3343400" lon="-7.2758520">
        <ele>794.3</ele>
        <time>2014-10-01T15:21:31Z</time>
      </trkpt>
      <trkpt lat="42.3344190" lon="-7.2757330">
        <ele>793.3</ele>
        <time>2014-10-01T15:21:32Z</time>
      </trkpt>
      <trkpt lat="42.3344770" lon="-7.2755880">
        <ele>792.1</ele>
        <time>2014-10-01T15:21:33Z</time>
      </trkpt>
      <trkpt lat="42.3345280" lon="-7.2754300">
        <ele>791.0</ele>
        <time>2014-10-01T15:21:34Z</time>
      </trkpt>
      <trkpt lat="42.3345450" lon="-7.2752500">
        <ele>789.9</ele>
        <time>2014-10-01T15:21:35Z</time>
      </trkpt>
      <trkpt lat="42.3345570" lon="-7.2750730">
        <ele>788.8</ele>
        <time>2014-10-01T15:21:36Z</time>
      </trkpt>
      <trkpt lat="42.3345640" lon="-7.2748890">
        <ele>787.7</ele>
        <time>2014-10-01T15:21:37Z</time>
      </trkpt>
      <trkpt lat="42.3345640" lon="-7.2747090">
        <ele>786.7</ele>
        <time>2014-10-01T15:21:38Z</time>
      </trkpt>
      <trkpt lat="42.3345570" lon="-7.2745340">
        <ele>786.1</ele>
        <time>2014-10-01T15:21:39Z</time>
      </trkpt>
      <trkpt lat="42.3345450" lon="-7.2743510">
        <ele>785.7</ele>
        <time>2014-10-01T15:21:40Z</time>
      </trkpt>
      <trkpt lat="42.3344940" lon="-7.2741640">
        <ele>785.4</ele>
        <time>2014-10-01T15:21:41Z</time>
      </trkpt>
      <trkpt lat="42.3344410" lon="-7.2739750">
        <ele>785.0</ele>
        <time>2014-10-01T15:21:42Z</time>
      </trkpt>
      <trkpt lat="42.3343830" lon="-7.2737990">
        <ele>784.7</ele>
        <time>2014-10-01T15:21:43Z</time>
      </trkpt>
      <trkpt lat="42.3343160" lon="-7.2736300">
        <ele>784.4</ele>
        <time>2014-10-01T15:21:44Z</time>
      </trkpt>
      <trkpt lat="42.3342140" lon="-7.2734940">
        <ele>784.0</ele>
        <time>2014-10-01T15:21:45Z</time>
      </trkpt>
      <trkpt lat="42.3341140" lon="-7.2733600">
        <ele>783.7</ele>
        <time>2014-10-01T15:21:46Z</time>
      </trkpt>
      <trkpt lat="42.3340190" lon="-7.2732330">
        <ele>783.4</ele>
        <time>2014-10-01T15:21:47Z</time>
      </trkpt>
      <trkpt lat="42.3339240" lon="-7.2731050">
        <ele>783.1</ele>
        <time>2014-10-01T15:21:48Z</time>
      </trkpt>
      <trkpt lat="42.3338300" lon="-7.2729780">
        <ele>782.8</ele>
        <time>2014-10-01T15:21:49Z</time>
      </trkpt>
      <trkpt lat="42.3337400" lon="-7.2728540">
        <ele>782.5</ele>
        <time>2014-10-01T15:21:50Z</time>
      </trkpt>
      <trkpt lat="42.3336560" lon="-7.2727350">
        <ele>782.2</ele>
        <time>2014-10-01T15:21:51Z</time>
      </trkpt>
      <trkpt lat="42.3335740" lon="-7.2726160">
        <ele>781.9</ele>
        <time>2014-10-01T15:21:52Z</time>
      </trkpt>
      <trkpt lat="42.3334960" lon="-7.2725010">
        <ele>781.6</ele>
        <time>2014-10-01T15:21:53Z</time>
      </trkpt>
      <trkpt lat="42.3334230" lon="-7.2723970">
        <ele>781.4</ele>
        <time>2014-10-01T15:21:54Z</time>
      </trkpt>
      <trkpt lat="42.3333530" lon="-7.2722950">
        <ele>781.1</ele>
        <time>2014-10-01T15:21:55Z</time>
      </trkpt>
      <trkpt lat="42.3332820" lon="-7.2721920">
        <ele>780.9</ele>
        <time>2014-10-01T15:21:56Z</time>
      </trkpt>
      <trkpt lat="42.3332140" lon="-7.2720940">
        <ele>780.6</ele>
        <time>2014-10-01T15:21:57Z</time>
      </trkpt>
      <trkpt lat="42.3331390" lon="-7.2719910">
        <ele>780.4</ele>
        <time>2014-10-01T15:21:58Z</time>
      </trkpt>
      <trkpt lat="42.3330620" lon="-7.2718880">
        <ele>780.1</ele>
        <time>2014-10-01T15:21:59Z</time>
      </trkpt>
      <trkpt lat="42.3329900" lon="-7.2717760">
        <ele>779.9</ele>
        <time>2014-10-01T15:22:00Z</time>
      </trkpt>
      <trkpt lat="42.3329380" lon="-7.2716390">
        <ele>779.6</ele>
        <time>2014-10-01T15:22:01Z</time>
      </trkpt>
      <trkpt lat="42.3328920" lon="-7.2714990">
        <ele>779.3</ele>
        <time>2014-10-01T15:22:02Z</time>
      </trkpt>
      <trkpt lat="42.3328490" lon="-7.2713600">
        <ele>779.1</ele>
        <time>2014-10-01T15:22:03Z</time>
      </trkpt>
      <trkpt lat="42.3328130" lon="-7.2712200">
        <ele>778.8</ele>
        <time>2014-10-01T15:22:04Z</time>
      </trkpt>
      <trkpt lat="42.3327830" lon="-7.2710880">
        <ele>778.6</ele>
        <time>2014-10-01T15:22:05Z</time>
      </trkpt>
      <trkpt lat="42.3327840" lon="-7.2709330">
        <ele>778.3</ele>
        <time>2014-10-01T15:22:06Z</time>
      </trkpt>
      <trkpt lat="42.3328070" lon="-7.2707950">
        <ele>778.1</ele>
        <time>2014-10-01T15:22:07Z</time>
      </trkpt>
      <trkpt lat="42.3328560" lon="-7.2706740">
        <ele>777.8</ele>
        <time>2014-10-01T15:22:08Z</time>
      </trkpt>
      <trkpt lat="42.3329280" lon="-7.2705770">
        <ele>777.6</ele>
        <time>2014-10-01T15:22:09Z</time>
      </trkpt>
      <trkpt lat="42.3330150" lon="-7.2705090">
        <ele>777.3</ele>
        <time>2014-10-01T15:22:10Z</time>
      </trkpt>
      <trkpt lat="42.3331030" lon="-7.2704710">
        <ele>777.1</ele>
        <time>2014-10-01T15:22:11Z</time>
      </trkpt>
      <trkpt lat="42.3331840" lon="-7.2704630">
        <ele>776.9</ele>
        <time>2014-10-01T15:22:12Z</time>
      </trkpt>
      <trkpt lat="42.3332790" lon="-7.2704580">
        <ele>776.7</ele>
        <time>2014-10-01T15:22:13Z</time>
      </trkpt>
      <trkpt lat="42.3333560" lon="-7.2704590">
        <ele>776.5</ele>
        <time>2014-10-01T15:22:14Z</time>
      </trkpt>
      <trkpt lat="42.3334380" lon="-7.2704660">
        <ele>776.3</ele>
        <time>2014-10-01T15:22:15Z</time>
      </trkpt>
      <trkpt lat="42.3335210" lon="-7.2704790">
        <ele>776.1</ele>
        <time>2014-10-01T15:22:16Z</time>
      </trkpt>
      <trkpt lat="42.3335950" lon="-7.2705290">
        <ele>775.9</ele>
        <time>2014-10-01T15:22:17Z</time>
      </trkpt>
      <trkpt lat="42.3336720" lon="-7.2705870">
        <ele>775.7</ele>
        <time>2014-10-01T15:22:18Z</time>
      </trkpt>
      <trkpt lat="42.3337460" lon="-7.2706490">
        <ele>775.5</ele>
        <time>2014-10-01T15:22:19Z</time>
      </trkpt>
      <trkpt lat="42.3338130" lon="-7.2707100">
        <ele>775.3</ele>
        <time>2014-10-01T15:22:20Z</time>
      </trkpt>
      <trkpt lat="42.3338760" lon="-7.2707660">
        <ele>775.2</ele>
        <time>2014-10-01T15:22:21Z</time>
      </trkpt>
      <trkpt lat="42.3339370" lon="-7.2708210">
        <ele>775.0</ele>
        <time>2014-10-01T15:22:22Z</time>
      </trkpt>
      <trkpt lat="42.3339980" lon="-7.2708710">
        <ele>774.8</ele>
        <time>2014-10-01T15:22:23Z</time>
      </trkpt>
      <trkpt lat="42.3340720" lon="-7.2708930">
        <ele>774.6</ele>
        <time>2014-10-01T15:22:24Z</time>
      </trkpt>
      <trkpt lat="42.3341430" lon="-7.2708910">
        <ele>774.5</ele>
        <time>2014-10-01T15:22:25Z</time>
      </trkpt>
      <trkpt lat="42.3342000" lon="-7.2708550">
        <ele>774.3</ele>
        <time>2014-10-01T15:22:26Z</time>
      </trkpt>
      <trkpt lat="42.3342540" lon="-7.2708110">
        <ele>774.2</ele>
        <time>2014-10-01T15:22:27Z</time>
      </trkpt>
      <trkpt lat="42.3343000" lon="-7.2707480">
        <ele>774.0</ele>
        <time>2014-10-01T15:22:28Z</time>
      </trkpt>
      <trkpt lat="42.3343450" lon="-7.2706790">
        <ele>773.9</ele>
        <time>2014-10-01T15:22:29Z</time>
      </trkpt>
      <trkpt lat="42.3343750" lon="-7.2706040">
        <ele>773.7</ele>
        <time>2014-10-01T15:22:30Z</time>
      </trkpt>
      <trkpt lat="42.3344080" lon="-7.2705150">
        <ele>773.5</ele>
        <time>2014-10-01T15:22:31Z</time>
      </trkpt>
      <trkpt lat="42.3344400" lon="-7.2704260">
        <ele>773.4</ele>
        <time>2014-10-01T15:22:32Z</time>
      </trkpt>
      <trkpt lat="42.3344710" lon="-7.2703300">
        <ele>773.2</ele>
        <time>2014-10-01T15:22:33Z</time>
      </trkpt>
      <trkpt lat="42.3345060" lon="-7.2702300">
        <ele>773.0</ele>
        <time>2014-10-01T15:22:34Z</time>
      </trkpt>
      <trkpt lat="42.3345380" lon="-7.2701390">
        <ele>772.8</ele>
        <time>2014-10-01T15:22:35Z</time>
      </trkpt>
      <trkpt lat="42.3345710" lon="-7.2700490">
        <ele>772.6</ele>
        <time>2014-10-01T15:22:36Z</time>
      </trkpt>
      <trkpt lat="42.3346050" lon="-7.2699610">
        <ele>772.5</ele>
        <time>2014-10-01T15:22:37Z</time>
      </trkpt>
      <trkpt lat="42.3346400" lon="-7.2698740">
        <ele>772.3</ele>
        <time>2014-10-01T15:22:38Z</time>
      </trkpt>
      <trkpt lat="42.3346770" lon="-7.2697840">
        <ele>772.1</ele>
        <time>2014-10-01T15:22:39Z</time>
      </trkpt>
      <trkpt lat="42.3347100" lon="-7.2697010">
        <ele>771.9</ele>
        <time>2014-10-01T15:22:40Z</time>
      </trkpt>
      <trkpt lat="42.3347410" lon="-7.2696220">
        <ele>771.8</ele>
        <time>2014-10-01T15:22:41Z</time>
      </trkpt>
      <trkpt lat="42.3347720" lon="-7.2695420">
        <ele>771.7</ele>
        <time>2014-10-01T15:22:42Z</time>
      </trkpt>
      <trkpt lat="42.3348070" lon="-7.2694640">
        <ele>771.6</ele>
        <time>2014-10-01T15:22:43Z</time>
      </trkpt>
      <trkpt lat="42.3348440" lon="-7.2693810">
        <ele>771.6</ele>
        <time>2014-10-01T15:22:44Z</time>
      </trkpt>
      <trkpt lat="42.3348820" lon="-7.2692980">
        <ele>771.5</ele>
        <time>2014-10-01T15:22:45Z</time>
      </trkpt>
      <trkpt lat="42.3349210" lon="-7.2692110">
        <ele>771.5</ele>
        <time>2014-10-01T15:22:46Z</time>
      </trkpt>
      <trkpt lat="42.3349610" lon="-7.2691210">
        <ele>771.4</ele>
        <time>2014-10-01T15:22:47Z</time>
      </trkpt>
      <trkpt lat="42.3350040" lon="-7.2690230">
        <ele>771.2</ele>
        <time>2014-10-01T15:22:48Z</time>
      </trkpt>
      <trkpt lat="42.3350440" lon="-7.2689250">
        <ele>771.1</ele>
        <time>2014-10-01T15:22:49Z</time>
      </trkpt>
      <trkpt lat="42.3350850" lon="-7.2688270">
        <ele>771.0</ele>
        <time>2014-10-01T15:22:50Z</time>
      </trkpt>
      <trkpt lat="42.3351230" lon="-7.2687270">
        <ele>770.9</ele>
        <time>2014-10-01T15:22:51Z</time>
      </trkpt>
      <trkpt lat="42.3351600" lon="-7.2686270">
        <ele>770.7</ele>
        <time>2014-10-01T15:22:52Z</time>
      </trkpt>
      <trkpt lat="42.3351940" lon="-7.2685270">
        <ele>770.6</ele>
        <time>2014-10-01T15:22:53Z</time>
      </trkpt>
      <trkpt lat="42.3352310" lon="-7.2684220">
        <ele>770.5</ele>
        <time>2014-10-01T15:22:54Z</time>
      </trkpt>
      <trkpt lat="42.3352690" lon="-7.2683130">
        <ele>770.4</ele>
        <time>2014-10-01T15:22:55Z</time>
      </trkpt>
      <trkpt lat="42.3353030" lon="-7.2682110">
        <ele>770.3</ele>
        <time>2014-10-01T15:22:56Z</time>
      </trkpt>
      <trkpt lat="42.3353380" lon="-7.2681060">
        <ele>770.1</ele>
        <time>2014-10-01T15:22:57Z</time>
      </trkpt>
      <trkpt lat="42.3353700" lon="-7.2680030">
        <ele>770.0</ele>
        <time>2014-10-01T15:22:58Z</time>
      </trkpt>
      <trkpt lat="42.3354050" lon="-7.2678950">
        <ele>769.8</ele>
        <time>2014-10-01T15:22:59Z</time>
      </trkpt>
      <trkpt lat="42.3354390" lon="-7.2677870">
        <ele>769.7</ele>
        <time>2014-10-01T15:23:00Z</time>
      </trkpt>
      <trkpt lat="42.3354730" lon="-7.2676750">
        <ele>769.5</ele>
        <time>2014-10-01T15:23:01Z</time>
      </trkpt>
      <trkpt lat="42.3355000" lon="-7.2675640">
        <ele>769.4</ele>
        <time>2014-10-01T15:23:02Z</time>
      </trkpt>
      <trkpt lat="42.3355270" lon="-7.2674460">
        <ele>769.3</ele>
        <time>2014-10-01T15:23:03Z</time>
      </trkpt>
      <trkpt lat="42.3355490" lon="-7.2673290">
        <ele>769.2</ele>
        <time>2014-10-01T15:23:04Z</time>
      </trkpt>
      <trkpt lat="42.3355710" lon="-7.2672000">
        <ele>768.9</ele>
        <time>2014-10-01T15:23:05Z</time>
      </trkpt>
      <trkpt lat="42.3355620" lon="-7.2670760">
        <ele>768.6</ele>
        <time>2014-10-01T15:23:06Z</time>
      </trkpt>
      <trkpt lat="42.3355530" lon="-7.2669470">
        <ele>768.4</ele>
        <time>2014-10-01T15:23:07Z</time>
      </trkpt>
      <trkpt lat="42.3355390" lon="-7.2668180">
        <ele>768.2</ele>
        <time>2014-10-01T15:23:08Z</time>
      </trkpt>
      <trkpt lat="42.3355190" lon="-7.2666870">
        <ele>768.1</ele>
        <time>2014-10-01T15:23:09Z</time>
      </trkpt>
      <trkpt lat="42.3354920" lon="-7.2665630">
        <ele>767.8</ele>
        <time>2014-10-01T15:23:10Z</time>
      </trkpt>
      <trkpt lat="42.3354600" lon="-7.2664310">
        <ele>767.5</ele>
        <time>2014-10-01T15:23:11Z</time>
      </trkpt>
      <trkpt lat="42.3354240" lon="-7.2663040">
        <ele>767.2</ele>
        <time>2014-10-01T15:23:12Z</time>
      </trkpt>
      <trkpt lat="42.3353850" lon="-7.2661750">
        <ele>766.8</ele>
        <time>2014-10-01T15:23:13Z</time>
      </trkpt>
      <trkpt lat="42.3353490" lon="-7.2660500">
        <ele>766.3</ele>
        <time>2014-10-01T15:23:14Z</time>
      </trkpt>
      <trkpt lat="42.3353150" lon="-7.2659200">
        <ele>765.9</ele>
        <time>2014-10-01T15:23:15Z</time>
      </trkpt>
      <trkpt lat="42.3352880" lon="-7.2657930">
        <ele>765.5</ele>
        <time>2014-10-01T15:23:16Z</time>
      </trkpt>
      <trkpt lat="42.3352960" lon="-7.2656600">
        <ele>765.2</ele>
        <time>2014-10-01T15:23:17Z</time>
      </trkpt>
      <trkpt lat="42.3353390" lon="-7.2655260">
        <ele>764.8</ele>
        <time>2014-10-01T15:23:18Z</time>
      </trkpt>
      <trkpt lat="42.3353900" lon="-7.2654110">
        <ele>764.6</ele>
        <time>2014-10-01T15:23:19Z</time>
      </trkpt>
      <trkpt lat="42.3354670" lon="-7.2653210">
        <ele>764.3</ele>
        <time>2014-10-01T15:23:20Z</time>
      </trkpt>
      <trkpt lat="42.3355480" lon="-7.2652370">
        <ele>764.0</ele>
        <time>2014-10-01T15:23:21Z</time>
      </trkpt>
      <trkpt lat="42.3356310" lon="-7.2651560">
        <ele>763.7</ele>
        <time>2014-10-01T15:23:22Z</time>
      </trkpt>
      <trkpt lat="42.3357080" lon="-7.2650840">
        <ele>763.5</ele>
        <time>2014-10-01T15:23:23Z</time>
      </trkpt>
      <trkpt lat="42.3357880" lon="-7.2650110">
        <ele>763.3</ele>
        <time>2014-10-01T15:23:24Z</time>
      </trkpt>
      <trkpt lat="42.3358640" lon="-7.2649350">
        <ele>763.0</ele>
        <time>2014-10-01T15:23:25Z</time>
      </trkpt>
      <trkpt lat="42.3359360" lon="-7.2648490">
        <ele>762.8</ele>
        <time>2014-10-01T15:23:26Z</time>
      </trkpt>
      <trkpt lat="42.3360080" lon="-7.2647560">
        <ele>762.6</ele>
        <time>2014-10-01T15:23:27Z</time>
      </trkpt>
      <trkpt lat="42.3360750" lon="-7.2646570">
        <ele>762.4</ele>
        <time>2014-10-01T15:23:28Z</time>
      </trkpt>
      <trkpt lat="42.3361380" lon="-7.2645510">
        <ele>762.1</ele>
        <time>2014-10-01T15:23:29Z</time>
      </trkpt>
      <trkpt lat="42.3361960" lon="-7.2644410">
        <ele>761.7</ele>
        <time>2014-10-01T15:23:30Z</time>
      </trkpt>
      <trkpt lat="42.3362470" lon="-7.2643280">
        <ele>761.5</ele>
        <time>2014-10-01T15:23:31Z</time>
      </trkpt>
      <trkpt lat="42.3362960" lon="-7.2642160">
        <ele>761.3</ele>
        <time>2014-10-01T15:23:32Z</time>
      </trkpt>
      <trkpt lat="42.3363450" lon="-7.2641040">
        <ele>761.1</ele>
        <time>2014-10-01T15:23:33Z</time>
      </trkpt>
      <trkpt lat="42.3363910" lon="-7.2639900">
        <ele>760.8</ele>
        <time>2014-10-01T15:23:34Z</time>
      </trkpt>
      <trkpt lat="42.3364360" lon="-7.2638720">
        <ele>760.4</ele>
        <time>2014-10-01T15:23:35Z</time>
      </trkpt>
      <trkpt lat="42.3364770" lon="-7.2637560">
        <ele>760.0</ele>
        <time>2014-10-01T15:23:36Z</time>
      </trkpt>
      <trkpt lat="42.3365180" lon="-7.2636390">
        <ele>759.6</ele>
        <time>2014-10-01T15:23:37Z</time>
      </trkpt>
      <trkpt lat="42.3365580" lon="-7.2635210">
        <ele>759.2</ele>
        <time>2014-10-01T15:23:38Z</time>
      </trkpt>
      <trkpt lat="42.3365990" lon="-7.2634030">
        <ele>758.9</ele>
        <time>2014-10-01T15:23:39Z</time>
      </trkpt>
      <trkpt lat="42.3366390" lon="-7.2632870">
        <ele>758.5</ele>
        <time>2014-10-01T15:23:40Z</time>
      </trkpt>
      <trkpt lat="42.3366840" lon="-7.2631600">
        <ele>757.7</ele>
        <time>2014-10-01T15:23:41Z</time>
      </trkpt>
      <trkpt lat="42.3367290" lon="-7.2630310">
        <ele>756.8</ele>
        <time>2014-10-01T15:23:42Z</time>
      </trkpt>
      <trkpt lat="42.3367700" lon="-7.2629050">
        <ele>756.4</ele>
        <time>2014-10-01T15:23:43Z</time>
      </trkpt>
      <trkpt lat="42.3368060" lon="-7.2627730">
        <ele>755.8</ele>
        <time>2014-10-01T15:23:44Z</time>
      </trkpt>
      <trkpt lat="42.3368360" lon="-7.2626330">
        <ele>755.0</ele>
        <time>2014-10-01T15:23:45Z</time>
      </trkpt>
      <trkpt lat="42.3368450" lon="-7.2624790">
        <ele>754.1</ele>
        <time>2014-10-01T15:23:46Z</time>
      </trkpt>
      <trkpt lat="42.3368540" lon="-7.2623210">
        <ele>753.2</ele>
        <time>2014-10-01T15:23:47Z</time>
      </trkpt>
      <trkpt lat="42.3368590" lon="-7.2621610">
        <ele>752.3</ele>
        <time>2014-10-01T15:23:48Z</time>
      </trkpt>
      <trkpt lat="42.3368610" lon="-7.2620040">
        <ele>751.4</ele>
        <time>2014-10-01T15:23:49Z</time>
      </trkpt>
      <trkpt lat="42.3368600" lon="-7.2618460">
        <ele>750.7</ele>
        <time>2014-10-01T15:23:50Z</time>
      </trkpt>
      <trkpt lat="42.3368560" lon="-7.2616860">
        <ele>749.9</ele>
        <time>2014-10-01T15:23:51Z</time>
      </trkpt>
      <trkpt lat="42.3368500" lon="-7.2615160">
        <ele>749.2</ele>
        <time>2014-10-01T15:23:52Z</time>
      </trkpt>
      <trkpt lat="42.3368380" lon="-7.2613520">
        <ele>748.6</ele>
        <time>2014-10-01T15:23:53Z</time>
      </trkpt>
      <trkpt lat="42.3368220" lon="-7.2611840">
        <ele>748.1</ele>
        <time>2014-10-01T15:23:54Z</time>
      </trkpt>
      <trkpt lat="42.3368050" lon="-7.2610170">
        <ele>747.7</ele>
        <time>2014-10-01T15:23:55Z</time>
      </trkpt>
      <trkpt lat="42.3367860" lon="-7.2608640">
        <ele>747.4</ele>
        <time>2014-10-01T15:23:56Z</time>
      </trkpt>
      <trkpt lat="42.3367720" lon="-7.2607230">
        <ele>747.2</ele>
        <time>2014-10-01T15:23:57Z</time>
      </trkpt>
      <trkpt lat="42.3367670" lon="-7.2605790">
        <ele>746.9</ele>
        <time>2014-10-01T15:23:58Z</time>
      </trkpt>
      <trkpt lat="42.3367900" lon="-7.2604470">
        <ele>746.7</ele>
        <time>2014-10-01T15:23:59Z</time>
      </trkpt>
      <trkpt lat="42.3368200" lon="-7.2603060">
        <ele>746.4</ele>
        <time>2014-10-01T15:24:00Z</time>
      </trkpt>
      <trkpt lat="42.3368510" lon="-7.2601850">
        <ele>746.1</ele>
        <time>2014-10-01T15:24:01Z</time>
      </trkpt>
      <trkpt lat="42.3368840" lon="-7.2600700">
        <ele>745.9</ele>
        <time>2014-10-01T15:24:02Z</time>
      </trkpt>
      <trkpt lat="42.3369200" lon="-7.2599560">
        <ele>745.6</ele>
        <time>2014-10-01T15:24:03Z</time>
      </trkpt>
      <trkpt lat="42.3369580" lon="-7.2598370">
        <ele>745.3</ele>
        <time>2014-10-01T15:24:04Z</time>
      </trkpt>
      <trkpt lat="42.3369980" lon="-7.2597130">
        <ele>744.9</ele>
        <time>2014-10-01T15:24:05Z</time>
      </trkpt>
      <trkpt lat="42.3370350" lon="-7.2595810">
        <ele>744.4</ele>
        <time>2014-10-01T15:24:06Z</time>
      </trkpt>
      <trkpt lat="42.3370650" lon="-7.2594470">
        <ele>743.9</ele>
        <time>2014-10-01T15:24:07Z</time>
      </trkpt>
      <trkpt lat="42.3370900" lon="-7.2593090">
        <ele>743.4</ele>
        <time>2014-10-01T15:24:08Z</time>
      </trkpt>
      <trkpt lat="42.3371100" lon="-7.2591760">
        <ele>743.0</ele>
        <time>2014-10-01T15:24:09Z</time>
      </trkpt>
      <trkpt lat="42.3371290" lon="-7.2590410">
        <ele>742.6</ele>
        <time>2014-10-01T15:24:10Z</time>
      </trkpt>
      <trkpt lat="42.3371450" lon="-7.2589080">
        <ele>742.2</ele>
        <time>2014-10-01T15:24:11Z</time>
      </trkpt>
      <trkpt lat="42.3371650" lon="-7.2587760">
        <ele>741.9</ele>
        <time>2014-10-01T15:24:12Z</time>
      </trkpt>
      <trkpt lat="42.3371890" lon="-7.2586470">
        <ele>741.5</ele>
        <time>2014-10-01T15:24:13Z</time>
      </trkpt>
      <trkpt lat="42.3372170" lon="-7.2585160">
        <ele>741.2</ele>
        <time>2014-10-01T15:24:14Z</time>
      </trkpt>
      <trkpt lat="42.3372480" lon="-7.2583820">
        <ele>740.8</ele>
        <time>2014-10-01T15:24:15Z</time>
      </trkpt>
      <trkpt lat="42.3372790" lon="-7.2582520">
        <ele>740.4</ele>
        <time>2014-10-01T15:24:16Z</time>
      </trkpt>
      <trkpt lat="42.3373120" lon="-7.2581210">
        <ele>740.1</ele>
        <time>2014-10-01T15:24:17Z</time>
      </trkpt>
      <trkpt lat="42.3373450" lon="-7.2579930">
        <ele>739.8</ele>
        <time>2014-10-01T15:24:18Z</time>
      </trkpt>
      <trkpt lat="42.3373820" lon="-7.2578690">
        <ele>739.6</ele>
        <time>2014-10-01T15:24:19Z</time>
      </trkpt>
      <trkpt lat="42.3374250" lon="-7.2577410">
        <ele>739.4</ele>
        <time>2014-10-01T15:24:20Z</time>
      </trkpt>
      <trkpt lat="42.3374720" lon="-7.2576160">
        <ele>738.8</ele>
        <time>2014-10-01T15:24:21Z</time>
      </trkpt>
      <trkpt lat="42.3375210" lon="-7.2574970">
        <ele>738.3</ele>
        <time>2014-10-01T15:24:22Z</time>
      </trkpt>
      <trkpt lat="42.3375740" lon="-7.2573800">
        <ele>738.0</ele>
        <time>2014-10-01T15:24:23Z</time>
      </trkpt>
      <trkpt lat="42.3376290" lon="-7.2572570">
        <ele>737.8</ele>
        <time>2014-10-01T15:24:24Z</time>
      </trkpt>
      <trkpt lat="42.3376840" lon="-7.2571360">
        <ele>737.7</ele>
        <time>2014-10-01T15:24:25Z</time>
      </trkpt>
      <trkpt lat="42.3377330" lon="-7.2570160">
        <ele>737.8</ele>
        <time>2014-10-01T15:24:26Z</time>
      </trkpt>
      <trkpt lat="42.3377780" lon="-7.2568930">
        <ele>737.8</ele>
        <time>2014-10-01T15:24:27Z</time>
      </trkpt>
      <trkpt lat="42.3378180" lon="-7.2567630">
        <ele>737.8</ele>
        <time>2014-10-01T15:24:28Z</time>
      </trkpt>
      <trkpt lat="42.3378530" lon="-7.2566340">
        <ele>738.0</ele>
        <time>2014-10-01T15:24:29Z</time>
      </trkpt>
      <trkpt lat="42.3378840" lon="-7.2565080">
        <ele>738.1</ele>
        <time>2014-10-01T15:24:30Z</time>
      </trkpt>
      <trkpt lat="42.3379110" lon="-7.2563900">
        <ele>738.3</ele>
        <time>2014-10-01T15:24:31Z</time>
      </trkpt>
      <trkpt lat="42.3379350" lon="-7.2562720">
        <ele>738.5</ele>
        <time>2014-10-01T15:24:32Z</time>
      </trkpt>
      <trkpt lat="42.3379550" lon="-7.2561640">
        <ele>738.6</ele>
        <time>2014-10-01T15:24:33Z</time>
      </trkpt>
      <trkpt lat="42.3379710" lon="-7.2560610">
        <ele>738.8</ele>
        <time>2014-10-01T15:24:34Z</time>
      </trkpt>
      <trkpt lat="42.3379880" lon="-7.2559570">
        <ele>739.0</ele>
        <time>2014-10-01T15:24:35Z</time>
      </trkpt>
      <trkpt lat="42.3380030" lon="-7.2558550">
        <ele>739.1</ele>
        <time>2014-10-01T15:24:36Z</time>
      </trkpt>
      <trkpt lat="42.3380200" lon="-7.2557570">
        <ele>739.3</ele>
        <time>2014-10-01T15:24:37Z</time>
      </trkpt>
      <trkpt lat="42.3380390" lon="-7.2556660">
        <ele>739.5</ele>
        <time>2014-10-01T15:24:38Z</time>
      </trkpt>
      <trkpt lat="42.3380660" lon="-7.2555720">
        <ele>739.7</ele>
        <time>2014-10-01T15:24:39Z</time>
      </trkpt>
      <trkpt lat="42.3381100" lon="-7.2554890">
        <ele>739.8</ele>
        <time>2014-10-01T15:24:40Z</time>
      </trkpt>
      <trkpt lat="42.3381580" lon="-7.2554070">
        <ele>739.8</ele>
        <time>2014-10-01T15:24:41Z</time>
      </trkpt>
      <trkpt lat="42.3382180" lon="-7.2553510">
        <ele>739.8</ele>
        <time>2014-10-01T15:24:42Z</time>
      </trkpt>
      <trkpt lat="42.3382770" lon="-7.2552960">
        <ele>739.8</ele>
        <time>2014-10-01T15:24:43Z</time>
      </trkpt>
      <trkpt lat="42.3383360" lon="-7.2552470">
        <ele>739.9</ele>
        <time>2014-10-01T15:24:44Z</time>
      </trkpt>
      <trkpt lat="42.3383980" lon="-7.2551940">
        <ele>740.0</ele>
        <time>2014-10-01T15:24:45Z</time>
      </trkpt>
      <trkpt lat="42.3384610" lon="-7.2551410">
        <ele>740.1</ele>
        <time>2014-10-01T15:24:46Z</time>
      </trkpt>
      <trkpt lat="42.3385250" lon="-7.2550860">
        <ele>740.2</ele>
        <time>2014-10-01T15:24:47Z</time>
      </trkpt>
      <trkpt lat="42.3385920" lon="-7.2550340">
        <ele>740.3</ele>
        <time>2014-10-01T15:24:48Z</time>
      </trkpt>
      <trkpt lat="42.3386560" lon="-7.2549850">
        <ele>740.4</ele>
        <time>2014-10-01T15:24:49Z</time>
      </trkpt>
      <trkpt lat="42.3387160" lon="-7.2549400">
        <ele>740.5</ele>
        <time>2014-10-01T15:24:50Z</time>
      </trkpt>
      <trkpt lat="42.3387750" lon="-7.2548970">
        <ele>740.7</ele>
        <time>2014-10-01T15:24:51Z</time>
      </trkpt>
      <trkpt lat="42.3388300" lon="-7.2548560">
        <ele>740.9</ele>
        <time>2014-10-01T15:24:52Z</time>
      </trkpt>
      <trkpt lat="42.3388810" lon="-7.2548120">
        <ele>741.1</ele>
        <time>2014-10-01T15:24:53Z</time>
      </trkpt>
      <trkpt lat="42.3389220" lon="-7.2547740">
        <ele>741.3</ele>
        <time>2014-10-01T15:24:54Z</time>
      </trkpt>
      <trkpt lat="42.3389580" lon="-7.2547220">
        <ele>741.5</ele>
        <time>2014-10-01T15:24:55Z</time>
      </trkpt>
      <trkpt lat="42.3389900" lon="-7.2546700">
        <ele>741.7</ele>
        <time>2014-10-01T15:24:56Z</time>
      </trkpt>
      <trkpt lat="42.3390200" lon="-7.2546130">
        <ele>741.9</ele>
        <time>2014-10-01T15:24:57Z</time>
      </trkpt>
      <trkpt lat="42.3390510" lon="-7.2545490">
        <ele>742.1</ele>
        <time>2014-10-01T15:24:58Z</time>
      </trkpt>
      <trkpt lat="42.3390850" lon="-7.2544800">
        <ele>742.4</ele>
        <time>2014-10-01T15:24:59Z</time>
      </trkpt>
      <trkpt lat="42.3391120" lon="-7.2544210">
        <ele>742.6</ele>
        <time>2014-10-01T15:25:00Z</time>
      </trkpt>
      <trkpt lat="42.3391420" lon="-7.2543580">
        <ele>742.8</ele>
        <time>2014-10-01T15:25:01Z</time>
      </trkpt>
      <trkpt lat="42.3391790" lon="-7.2542910">
        <ele>743.1</ele>
        <time>2014-10-01T15:25:02Z</time>
      </trkpt>
      <trkpt lat="42.3392100" lon="-7.2542450">
        <ele>743.3</ele>
        <time>2014-10-01T15:25:03Z</time>
      </trkpt>
      <trkpt lat="42.3392220" lon="-7.2542090">
        <ele>743.4</ele>
        <time>2014-10-01T15:25:04Z</time>
      </trkpt>
      <trkpt lat="42.3392360" lon="-7.2541640">
        <ele>743.5</ele>
        <time>2014-10-01T15:25:05Z</time>
      </trkpt>
      <trkpt lat="42.3392530" lon="-7.2541140">
        <ele>743.6</ele>
        <time>2014-10-01T15:25:06Z</time>
      </trkpt>
      <trkpt lat="42.3392650" lon="-7.2540730">
        <ele>743.6</ele>
        <time>2014-10-01T15:25:07Z</time>
      </trkpt>
      <trkpt lat="42.3392770" lon="-7.2540160">
        <ele>743.6</ele>
        <time>2014-10-01T15:25:09Z</time>
      </trkpt>
      <trkpt lat="42.3392590" lon="-7.2539860">
        <ele>743.6</ele>
        <time>2014-10-01T15:25:11Z</time>
      </trkpt>
      <trkpt lat="42.3392210" lon="-7.2539930">
        <ele>743.6</ele>
        <time>2014-10-01T15:25:13Z</time>
      </trkpt>
      <trkpt lat="42.3391810" lon="-7.2539980">
        <ele>743.6</ele>
        <time>2014-10-01T15:25:15Z</time>
      </trkpt>
      <trkpt lat="42.3391240" lon="-7.2540270">
        <ele>743.6</ele>
        <time>2014-10-01T15:25:29Z</time>
      </trkpt>
      <trkpt lat="42.3391400" lon="-7.2537950">
        <ele>743.7</ele>
        <time>2014-10-01T15:32:33Z</time>
      </trkpt>
      <trkpt lat="42.3391580" lon="-7.2538390">
        <ele>743.7</ele>
        <time>2014-10-01T15:32:38Z</time>
      </trkpt>
      <trkpt lat="42.3391850" lon="-7.2538510">
        <ele>743.7</ele>
        <time>2014-10-01T15:32:49Z</time>
      </trkpt>
      <trkpt lat="42.3392160" lon="-7.2538380">
        <ele>743.7</ele>
        <time>2014-10-01T15:32:52Z</time>
      </trkpt>
      <trkpt lat="42.3392420" lon="-7.2538510">
        <ele>743.7</ele>
        <time>2014-10-01T15:33:50Z</time>
      </trkpt>
      <trkpt lat="42.3392550" lon="-7.2538840">
        <ele>743.7</ele>
        <time>2014-10-01T15:34:16Z</time>
      </trkpt>
      <trkpt lat="42.3392630" lon="-7.2539240">
        <ele>743.7</ele>
        <time>2014-10-01T15:34:21Z</time>
      </trkpt>
      <trkpt lat="42.3392930" lon="-7.2539360">
        <ele>743.7</ele>
        <time>2014-10-01T15:36:55Z</time>
      </trkpt>
      <trkpt lat="42.3392930" lon="-7.2538990">
        <ele>743.7</ele>
        <time>2014-10-01T15:37:09Z</time>
      </trkpt>
      <trkpt lat="42.3392740" lon="-7.2539240">
        <ele>743.7</ele>
        <time>2014-10-01T15:38:43Z</time>
      </trkpt>
      <trkpt lat="42.3392560" lon="-7.2539520">
        <ele>743.7</ele>
        <time>2014-10-01T15:38:56Z</time>
      </trkpt>
      <trkpt lat="42.3392650" lon="-7.2539080">
        <ele>743.7</ele>
        <time>2014-10-01T15:39:27Z</time>
      </trkpt>
      <trkpt lat="42.3392860" lon="-7.2539380">
        <ele>743.7</ele>
        <time>2014-10-01T15:40:34Z</time>
      </trkpt>
      <trkpt lat="42.3393090" lon="-7.2539660">
        <ele>743.7</ele>
        <time>2014-10-01T15:41:42Z</time>
      </trkpt>
      <trkpt lat="42.3393350" lon="-7.2539880">
        <ele>743.6</ele>
        <time>2014-10-01T15:42:00Z</time>
      </trkpt>
      <trkpt lat="42.3393200" lon="-7.2539550">
        <ele>743.6</ele>
        <time>2014-10-01T15:42:32Z</time>
      </trkpt>
      <trkpt lat="42.3393090" lon="-7.2539090">
        <ele>743.6</ele>
        <time>2014-10-01T15:42:36Z</time>
      </trkpt>
      <trkpt lat="42.3392800" lon="-7.2539130">
        <ele>743.6</ele>
        <time>2014-10-01T15:43:30Z</time>
      </trkpt>
      <trkpt lat="42.3392570" lon="-7.2538880">
        <ele>743.6</ele>
        <time>2014-10-01T15:44:44Z</time>
      </trkpt>
      <trkpt lat="42.3392520" lon="-7.2539300">
        <ele>743.6</ele>
        <time>2014-10-01T15:46:49Z</time>
      </trkpt>
      <trkpt lat="42.3392430" lon="-7.2539820">
        <ele>743.6</ele>
        <time>2014-10-01T15:46:51Z</time>
      </trkpt>
      <trkpt lat="42.3392570" lon="-7.2540380">
        <ele>743.6</ele>
        <time>2014-10-01T15:46:53Z</time>
      </trkpt>
      <trkpt lat="42.3392740" lon="-7.2540830">
        <ele>743.6</ele>
        <time>2014-10-01T15:46:55Z</time>
      </trkpt>
      <trkpt lat="42.3392800" lon="-7.2541390">
        <ele>743.5</ele>
        <time>2014-10-01T15:46:57Z</time>
      </trkpt>
      <trkpt lat="42.3392940" lon="-7.2542100">
        <ele>743.3</ele>
        <time>2014-10-01T15:46:59Z</time>
      </trkpt>
      <trkpt lat="42.3393060" lon="-7.2542550">
        <ele>743.1</ele>
        <time>2014-10-01T15:47:00Z</time>
      </trkpt>
      <trkpt lat="42.3393200" lon="-7.2543130">
        <ele>742.9</ele>
        <time>2014-10-01T15:47:01Z</time>
      </trkpt>
      <trkpt lat="42.3393300" lon="-7.2543700">
        <ele>742.7</ele>
        <time>2014-10-01T15:47:02Z</time>
      </trkpt>
      <trkpt lat="42.3393470" lon="-7.2544320">
        <ele>742.4</ele>
        <time>2014-10-01T15:47:03Z</time>
      </trkpt>
      <trkpt lat="42.3393630" lon="-7.2544960">
        <ele>742.1</ele>
        <time>2014-10-01T15:47:04Z</time>
      </trkpt>
      <trkpt lat="42.3393800" lon="-7.2545600">
        <ele>741.8</ele>
        <time>2014-10-01T15:47:05Z</time>
      </trkpt>
      <trkpt lat="42.3393990" lon="-7.2546320">
        <ele>741.5</ele>
        <time>2014-10-01T15:47:06Z</time>
      </trkpt>
      <trkpt lat="42.3394210" lon="-7.2547100">
        <ele>741.2</ele>
        <time>2014-10-01T15:47:07Z</time>
      </trkpt>
      <trkpt lat="42.3394390" lon="-7.2547890">
        <ele>740.9</ele>
        <time>2014-10-01T15:47:08Z</time>
      </trkpt>
      <trkpt lat="42.3394640" lon="-7.2548710">
        <ele>740.5</ele>
        <time>2014-10-01T15:47:09Z</time>
      </trkpt>
      <trkpt lat="42.3394900" lon="-7.2549540">
        <ele>740.2</ele>
        <time>2014-10-01T15:47:10Z</time>
      </trkpt>
      <trkpt lat="42.3395160" lon="-7.2550360">
        <ele>739.8</ele>
        <time>2014-10-01T15:47:11Z</time>
      </trkpt>
      <trkpt lat="42.3395440" lon="-7.2551230">
        <ele>739.4</ele>
        <time>2014-10-01T15:47:12Z</time>
      </trkpt>
      <trkpt lat="42.3395710" lon="-7.2552140">
        <ele>739.0</ele>
        <time>2014-10-01T15:47:13Z</time>
      </trkpt>
      <trkpt lat="42.3395970" lon="-7.2553020">
        <ele>738.6</ele>
        <time>2014-10-01T15:47:14Z</time>
      </trkpt>
      <trkpt lat="42.3396220" lon="-7.2553900">
        <ele>738.2</ele>
        <time>2014-10-01T15:47:15Z</time>
      </trkpt>
      <trkpt lat="42.3396500" lon="-7.2554830">
        <ele>737.8</ele>
        <time>2014-10-01T15:47:16Z</time>
      </trkpt>
      <trkpt lat="42.3396790" lon="-7.2555820">
        <ele>737.3</ele>
        <time>2014-10-01T15:47:17Z</time>
      </trkpt>
      <trkpt lat="42.3397090" lon="-7.2556810">
        <ele>736.8</ele>
        <time>2014-10-01T15:47:18Z</time>
      </trkpt>
      <trkpt lat="42.3397390" lon="-7.2557820">
        <ele>736.4</ele>
        <time>2014-10-01T15:47:19Z</time>
      </trkpt>
      <trkpt lat="42.3397690" lon="-7.2558820">
        <ele>735.9</ele>
        <time>2014-10-01T15:47:20Z</time>
      </trkpt>
      <trkpt lat="42.3397970" lon="-7.2559770">
        <ele>735.5</ele>
        <time>2014-10-01T15:47:21Z</time>
      </trkpt>
      <trkpt lat="42.3398250" lon="-7.2560720">
        <ele>735.1</ele>
        <time>2014-10-01T15:47:22Z</time>
      </trkpt>
      <trkpt lat="42.3398540" lon="-7.2561710">
        <ele>734.7</ele>
        <time>2014-10-01T15:47:23Z</time>
      </trkpt>
      <trkpt lat="42.3398860" lon="-7.2562680">
        <ele>734.4</ele>
        <time>2014-10-01T15:47:24Z</time>
      </trkpt>
      <trkpt lat="42.3399190" lon="-7.2563660">
        <ele>734.1</ele>
        <time>2014-10-01T15:47:25Z</time>
      </trkpt>
      <trkpt lat="42.3399530" lon="-7.2564700">
        <ele>733.8</ele>
        <time>2014-10-01T15:47:26Z</time>
      </trkpt>
      <trkpt lat="42.3400160" lon="-7.2566770">
        <ele>733.4</ele>
        <time>2014-10-01T15:47:28Z</time>
      </trkpt>
      <trkpt lat="42.3400460" lon="-7.2567830">
        <ele>733.3</ele>
        <time>2014-10-01T15:47:29Z</time>
      </trkpt>
      <trkpt lat="42.3400730" lon="-7.2568900">
        <ele>733.2</ele>
        <time>2014-10-01T15:47:30Z</time>
      </trkpt>
      <trkpt lat="42.3400980" lon="-7.2570000">
        <ele>733.4</ele>
        <time>2014-10-01T15:47:31Z</time>
      </trkpt>
      <trkpt lat="42.3401180" lon="-7.2571060">
        <ele>733.6</ele>
        <time>2014-10-01T15:47:32Z</time>
      </trkpt>
      <trkpt lat="42.3401340" lon="-7.2572150">
        <ele>733.9</ele>
        <time>2014-10-01T15:47:33Z</time>
      </trkpt>
      <trkpt lat="42.3401480" lon="-7.2573260">
        <ele>734.2</ele>
        <time>2014-10-01T15:47:34Z</time>
      </trkpt>
      <trkpt lat="42.3401570" lon="-7.2574310">
        <ele>734.5</ele>
        <time>2014-10-01T15:47:35Z</time>
      </trkpt>
      <trkpt lat="42.3401660" lon="-7.2575330">
        <ele>734.8</ele>
        <time>2014-10-01T15:47:36Z</time>
      </trkpt>
      <trkpt lat="42.3401730" lon="-7.2576310">
        <ele>735.2</ele>
        <time>2014-10-01T15:47:37Z</time>
      </trkpt>
      <trkpt lat="42.3401800" lon="-7.2577210">
        <ele>735.5</ele>
        <time>2014-10-01T15:47:38Z</time>
      </trkpt>
      <trkpt lat="42.3401940" lon="-7.2577990">
        <ele>735.7</ele>
        <time>2014-10-01T15:47:39Z</time>
      </trkpt>
      <trkpt lat="42.3402310" lon="-7.2578530">
        <ele>735.6</ele>
        <time>2014-10-01T15:47:40Z</time>
      </trkpt>
      <trkpt lat="42.3402900" lon="-7.2578760">
        <ele>735.5</ele>
        <time>2014-10-01T15:47:41Z</time>
      </trkpt>
      <trkpt lat="42.3403490" lon="-7.2578770">
        <ele>735.5</ele>
        <time>2014-10-01T15:47:42Z</time>
      </trkpt>
      <trkpt lat="42.3404000" lon="-7.2578700">
        <ele>735.6</ele>
        <time>2014-10-01T15:47:43Z</time>
      </trkpt>
      <trkpt lat="42.3404540" lon="-7.2578580">
        <ele>735.6</ele>
        <time>2014-10-01T15:47:44Z</time>
      </trkpt>
      <trkpt lat="42.3405100" lon="-7.2578410">
        <ele>735.6</ele>
        <time>2014-10-01T15:47:45Z</time>
      </trkpt>
      <trkpt lat="42.3405680" lon="-7.2578200">
        <ele>735.6</ele>
        <time>2014-10-01T15:47:46Z</time>
      </trkpt>
      <trkpt lat="42.3406290" lon="-7.2577970">
        <ele>735.5</ele>
        <time>2014-10-01T15:47:47Z</time>
      </trkpt>
      <trkpt lat="42.3406900" lon="-7.2577740">
        <ele>735.5</ele>
        <time>2014-10-01T15:47:48Z</time>
      </trkpt>
      <trkpt lat="42.3407500" lon="-7.2577530">
        <ele>735.5</ele>
        <time>2014-10-01T15:47:49Z</time>
      </trkpt>
      <trkpt lat="42.3408110" lon="-7.2577320">
        <ele>735.5</ele>
        <time>2014-10-01T15:47:50Z</time>
      </trkpt>
      <trkpt lat="42.3408720" lon="-7.2577120">
        <ele>735.5</ele>
        <time>2014-10-01T15:47:51Z</time>
      </trkpt>
      <trkpt lat="42.3409370" lon="-7.2576910">
        <ele>735.5</ele>
        <time>2014-10-01T15:47:52Z</time>
      </trkpt>
      <trkpt lat="42.3409990" lon="-7.2576670">
        <ele>735.5</ele>
        <time>2014-10-01T15:47:53Z</time>
      </trkpt>
      <trkpt lat="42.3410640" lon="-7.2576440">
        <ele>735.5</ele>
        <time>2014-10-01T15:47:54Z</time>
      </trkpt>
      <trkpt lat="42.3411310" lon="-7.2576200">
        <ele>735.5</ele>
        <time>2014-10-01T15:47:55Z</time>
      </trkpt>
      <trkpt lat="42.3411940" lon="-7.2575970">
        <ele>735.5</ele>
        <time>2014-10-01T15:47:56Z</time>
      </trkpt>
      <trkpt lat="42.3412580" lon="-7.2575740">
        <ele>735.5</ele>
        <time>2014-10-01T15:47:57Z</time>
      </trkpt>
      <trkpt lat="42.3413210" lon="-7.2575510">
        <ele>735.4</ele>
        <time>2014-10-01T15:47:58Z</time>
      </trkpt>
      <trkpt lat="42.3413810" lon="-7.2575270">
        <ele>735.4</ele>
        <time>2014-10-01T15:47:59Z</time>
      </trkpt>
      <trkpt lat="42.3414450" lon="-7.2574990">
        <ele>735.4</ele>
        <time>2014-10-01T15:48:00Z</time>
      </trkpt>
      <trkpt lat="42.3415030" lon="-7.2574650">
        <ele>735.3</ele>
        <time>2014-10-01T15:48:01Z</time>
      </trkpt>
      <trkpt lat="42.3415500" lon="-7.2574130">
        <ele>735.1</ele>
        <time>2014-10-01T15:48:02Z</time>
      </trkpt>
      <trkpt lat="42.3415970" lon="-7.2573590">
        <ele>734.9</ele>
        <time>2014-10-01T15:48:03Z</time>
      </trkpt>
      <trkpt lat="42.3416460" lon="-7.2572990">
        <ele>734.7</ele>
        <time>2014-10-01T15:48:04Z</time>
      </trkpt>
      <trkpt lat="42.3416950" lon="-7.2572330">
        <ele>734.4</ele>
        <time>2014-10-01T15:48:05Z</time>
      </trkpt>
      <trkpt lat="42.3417290" lon="-7.2571800">
        <ele>734.2</ele>
        <time>2014-10-01T15:48:06Z</time>
      </trkpt>
      <trkpt lat="42.3417760" lon="-7.2570970">
        <ele>733.8</ele>
        <time>2014-10-01T15:48:07Z</time>
      </trkpt>
      <trkpt lat="42.3418170" lon="-7.2570100">
        <ele>733.5</ele>
        <time>2014-10-01T15:48:08Z</time>
      </trkpt>
      <trkpt lat="42.3418550" lon="-7.2569200">
        <ele>733.1</ele>
        <time>2014-10-01T15:48:09Z</time>
      </trkpt>
      <trkpt lat="42.3418870" lon="-7.2568200">
        <ele>732.8</ele>
        <time>2014-10-01T15:48:10Z</time>
      </trkpt>
      <trkpt lat="42.3419180" lon="-7.2567100">
        <ele>732.4</ele>
        <time>2014-10-01T15:48:11Z</time>
      </trkpt>
      <trkpt lat="42.3419470" lon="-7.2565960">
        <ele>731.9</ele>
        <time>2014-10-01T15:48:12Z</time>
      </trkpt>
      <trkpt lat="42.3419710" lon="-7.2564790">
        <ele>731.5</ele>
        <time>2014-10-01T15:48:13Z</time>
      </trkpt>
      <trkpt lat="42.3419900" lon="-7.2563740">
        <ele>731.0</ele>
        <time>2014-10-01T15:48:14Z</time>
      </trkpt>
      <trkpt lat="42.3420120" lon="-7.2562660">
        <ele>730.6</ele>
        <time>2014-10-01T15:48:15Z</time>
      </trkpt>
      <trkpt lat="42.3420340" lon="-7.2561530">
        <ele>730.1</ele>
        <time>2014-10-01T15:48:16Z</time>
      </trkpt>
      <trkpt lat="42.3420540" lon="-7.2560490">
        <ele>729.6</ele>
        <time>2014-10-01T15:48:17Z</time>
      </trkpt>
      <trkpt lat="42.3420790" lon="-7.2559400">
        <ele>729.2</ele>
        <time>2014-10-01T15:48:18Z</time>
      </trkpt>
      <trkpt lat="42.3421110" lon="-7.2558240">
        <ele>728.7</ele>
        <time>2014-10-01T15:48:19Z</time>
      </trkpt>
      <trkpt lat="42.3421430" lon="-7.2557130">
        <ele>728.2</ele>
        <time>2014-10-01T15:48:20Z</time>
      </trkpt>
      <trkpt lat="42.3421830" lon="-7.2556000">
        <ele>727.6</ele>
        <time>2014-10-01T15:48:21Z</time>
      </trkpt>
      <trkpt lat="42.3422250" lon="-7.2554870">
        <ele>727.1</ele>
        <time>2014-10-01T15:48:22Z</time>
      </trkpt>
      <trkpt lat="42.3422750" lon="-7.2553620">
        <ele>726.5</ele>
        <time>2014-10-01T15:48:23Z</time>
      </trkpt>
      <trkpt lat="42.3423260" lon="-7.2552410">
        <ele>726.0</ele>
        <time>2014-10-01T15:48:24Z</time>
      </trkpt>
      <trkpt lat="42.3423790" lon="-7.2551180">
        <ele>725.5</ele>
        <time>2014-10-01T15:48:25Z</time>
      </trkpt>
      <trkpt lat="42.3424340" lon="-7.2549930">
        <ele>725.0</ele>
        <time>2014-10-01T15:48:26Z</time>
      </trkpt>
      <trkpt lat="42.3424900" lon="-7.2548670">
        <ele>724.3</ele>
        <time>2014-10-01T15:48:27Z</time>
      </trkpt>
      <trkpt lat="42.3425420" lon="-7.2547430">
        <ele>723.7</ele>
        <time>2014-10-01T15:48:28Z</time>
      </trkpt>
      <trkpt lat="42.3425950" lon="-7.2546200">
        <ele>723.2</ele>
        <time>2014-10-01T15:48:29Z</time>
      </trkpt>
      <trkpt lat="42.3426540" lon="-7.2544960">
        <ele>722.7</ele>
        <time>2014-10-01T15:48:30Z</time>
      </trkpt>
      <trkpt lat="42.3427220" lon="-7.2543690">
        <ele>722.0</ele>
        <time>2014-10-01T15:48:31Z</time>
      </trkpt>
      <trkpt lat="42.3428120" lon="-7.2542610">
        <ele>721.4</ele>
        <time>2014-10-01T15:48:32Z</time>
      </trkpt>
      <trkpt lat="42.3429090" lon="-7.2541580">
        <ele>720.7</ele>
        <time>2014-10-01T15:48:33Z</time>
      </trkpt>
      <trkpt lat="42.3430130" lon="-7.2540590">
        <ele>720.0</ele>
        <time>2014-10-01T15:48:34Z</time>
      </trkpt>
      <trkpt lat="42.3431200" lon="-7.2539710">
        <ele>719.3</ele>
        <time>2014-10-01T15:48:35Z</time>
      </trkpt>
      <trkpt lat="42.3432260" lon="-7.2538900">
        <ele>718.6</ele>
        <time>2014-10-01T15:48:36Z</time>
      </trkpt>
      <trkpt lat="42.3433290" lon="-7.2538130">
        <ele>718.0</ele>
        <time>2014-10-01T15:48:37Z</time>
      </trkpt>
      <trkpt lat="42.3434280" lon="-7.2537360">
        <ele>717.3</ele>
        <time>2014-10-01T15:48:38Z</time>
      </trkpt>
      <trkpt lat="42.3435240" lon="-7.2536520">
        <ele>716.7</ele>
        <time>2014-10-01T15:48:39Z</time>
      </trkpt>
      <trkpt lat="42.3436130" lon="-7.2535670">
        <ele>716.0</ele>
        <time>2014-10-01T15:48:40Z</time>
      </trkpt>
      <trkpt lat="42.3437030" lon="-7.2534750">
        <ele>715.3</ele>
        <time>2014-10-01T15:48:41Z</time>
      </trkpt>
      <trkpt lat="42.3438030" lon="-7.2533640">
        <ele>714.4</ele>
        <time>2014-10-01T15:48:42Z</time>
      </trkpt>
      <trkpt lat="42.3439010" lon="-7.2532490">
        <ele>713.6</ele>
        <time>2014-10-01T15:48:43Z</time>
      </trkpt>
      <trkpt lat="42.3439950" lon="-7.2531420">
        <ele>712.9</ele>
        <time>2014-10-01T15:48:44Z</time>
      </trkpt>
      <trkpt lat="42.3440860" lon="-7.2530390">
        <ele>712.2</ele>
        <time>2014-10-01T15:48:45Z</time>
      </trkpt>
      <trkpt lat="42.3441800" lon="-7.2529410">
        <ele>711.5</ele>
        <time>2014-10-01T15:48:46Z</time>
      </trkpt>
      <trkpt lat="42.3442790" lon="-7.2528490">
        <ele>710.9</ele>
        <time>2014-10-01T15:48:47Z</time>
      </trkpt>
      <trkpt lat="42.3443930" lon="-7.2527920">
        <ele>710.2</ele>
        <time>2014-10-01T15:48:48Z</time>
      </trkpt>
      <trkpt lat="42.3445010" lon="-7.2527520">
        <ele>709.5</ele>
        <time>2014-10-01T15:48:49Z</time>
      </trkpt>
      <trkpt lat="42.3446130" lon="-7.2527650">
        <ele>709.0</ele>
        <time>2014-10-01T15:48:50Z</time>
      </trkpt>
      <trkpt lat="42.3447290" lon="-7.2528140">
        <ele>708.5</ele>
        <time>2014-10-01T15:48:51Z</time>
      </trkpt>
      <trkpt lat="42.3448270" lon="-7.2528660">
        <ele>708.0</ele>
        <time>2014-10-01T15:48:52Z</time>
      </trkpt>
      <trkpt lat="42.3449220" lon="-7.2529210">
        <ele>707.6</ele>
        <time>2014-10-01T15:48:53Z</time>
      </trkpt>
      <trkpt lat="42.3450190" lon="-7.2529770">
        <ele>707.0</ele>
        <time>2014-10-01T15:48:54Z</time>
      </trkpt>
      <trkpt lat="42.3451140" lon="-7.2530220">
        <ele>706.4</ele>
        <time>2014-10-01T15:48:55Z</time>
      </trkpt>
      <trkpt lat="42.3452090" lon="-7.2530570">
        <ele>705.7</ele>
        <time>2014-10-01T15:48:56Z</time>
      </trkpt>
      <trkpt lat="42.3453190" lon="-7.2530570">
        <ele>705.1</ele>
        <time>2014-10-01T15:48:57Z</time>
      </trkpt>
      <trkpt lat="42.3454300" lon="-7.2530540">
        <ele>704.4</ele>
        <time>2014-10-01T15:48:58Z</time>
      </trkpt>
      <trkpt lat="42.3455310" lon="-7.2530510">
        <ele>703.9</ele>
        <time>2014-10-01T15:48:59Z</time>
      </trkpt>
      <trkpt lat="42.3456390" lon="-7.2530400">
        <ele>703.2</ele>
        <time>2014-10-01T15:49:00Z</time>
      </trkpt>
      <trkpt lat="42.3457480" lon="-7.2530210">
        <ele>702.5</ele>
        <time>2014-10-01T15:49:01Z</time>
      </trkpt>
      <trkpt lat="42.3458490" lon="-7.2529930">
        <ele>701.8</ele>
        <time>2014-10-01T15:49:02Z</time>
      </trkpt>
      <trkpt lat="42.3459520" lon="-7.2529530">
        <ele>701.1</ele>
        <time>2014-10-01T15:49:03Z</time>
      </trkpt>
      <trkpt lat="42.3460560" lon="-7.2529040">
        <ele>700.4</ele>
        <time>2014-10-01T15:49:04Z</time>
      </trkpt>
      <trkpt lat="42.3461760" lon="-7.2528440">
        <ele>699.5</ele>
        <time>2014-10-01T15:49:05Z</time>
      </trkpt>
      <trkpt lat="42.3462910" lon="-7.2527790">
        <ele>698.6</ele>
        <time>2014-10-01T15:49:06Z</time>
      </trkpt>
      <trkpt lat="42.3463990" lon="-7.2527180">
        <ele>697.9</ele>
        <time>2014-10-01T15:49:07Z</time>
      </trkpt>
      <trkpt lat="42.3465130" lon="-7.2526660">
        <ele>697.1</ele>
        <time>2014-10-01T15:49:08Z</time>
      </trkpt>
      <trkpt lat="42.3466320" lon="-7.2526650">
        <ele>696.4</ele>
        <time>2014-10-01T15:49:09Z</time>
      </trkpt>
      <trkpt lat="42.3467410" lon="-7.2527030">
        <ele>695.7</ele>
        <time>2014-10-01T15:49:10Z</time>
      </trkpt>
      <trkpt lat="42.3468270" lon="-7.2527850">
        <ele>695.1</ele>
        <time>2014-10-01T15:49:11Z</time>
      </trkpt>
      <trkpt lat="42.3469120" lon="-7.2528700">
        <ele>694.5</ele>
        <time>2014-10-01T15:49:12Z</time>
      </trkpt>
      <trkpt lat="42.3469980" lon="-7.2529660">
        <ele>693.9</ele>
        <time>2014-10-01T15:49:13Z</time>
      </trkpt>
      <trkpt lat="42.3470870" lon="-7.2530640">
        <ele>693.2</ele>
        <time>2014-10-01T15:49:14Z</time>
      </trkpt>
      <trkpt lat="42.3471730" lon="-7.2531600">
        <ele>692.5</ele>
        <time>2014-10-01T15:49:15Z</time>
      </trkpt>
      <trkpt lat="42.3472580" lon="-7.2532540">
        <ele>691.8</ele>
        <time>2014-10-01T15:49:16Z</time>
      </trkpt>
      <trkpt lat="42.3473430" lon="-7.2533520">
        <ele>691.2</ele>
        <time>2014-10-01T15:49:17Z</time>
      </trkpt>
      <trkpt lat="42.3474300" lon="-7.2534450">
        <ele>690.6</ele>
        <time>2014-10-01T15:49:18Z</time>
      </trkpt>
      <trkpt lat="42.3475090" lon="-7.2535190">
        <ele>690.1</ele>
        <time>2014-10-01T15:49:19Z</time>
      </trkpt>
      <trkpt lat="42.3475930" lon="-7.2535860">
        <ele>689.5</ele>
        <time>2014-10-01T15:49:20Z</time>
      </trkpt>
      <trkpt lat="42.3476870" lon="-7.2536470">
        <ele>689.0</ele>
        <time>2014-10-01T15:49:21Z</time>
      </trkpt>
      <trkpt lat="42.3477890" lon="-7.2536710">
        <ele>688.6</ele>
        <time>2014-10-01T15:49:22Z</time>
      </trkpt>
      <trkpt lat="42.3478940" lon="-7.2536850">
        <ele>688.3</ele>
        <time>2014-10-01T15:49:23Z</time>
      </trkpt>
      <trkpt lat="42.3479880" lon="-7.2536490">
        <ele>688.0</ele>
        <time>2014-10-01T15:49:24Z</time>
      </trkpt>
      <trkpt lat="42.3480830" lon="-7.2536030">
        <ele>687.8</ele>
        <time>2014-10-01T15:49:25Z</time>
      </trkpt>
      <trkpt lat="42.3481610" lon="-7.2535220">
        <ele>687.7</ele>
        <time>2014-10-01T15:49:26Z</time>
      </trkpt>
      <trkpt lat="42.3482370" lon="-7.2534370">
        <ele>687.6</ele>
        <time>2014-10-01T15:49:27Z</time>
      </trkpt>
      <trkpt lat="42.3483140" lon="-7.2533440">
        <ele>687.7</ele>
        <time>2014-10-01T15:49:28Z</time>
      </trkpt>
      <trkpt lat="42.3483910" lon="-7.2532510">
        <ele>687.9</ele>
        <time>2014-10-01T15:49:29Z</time>
      </trkpt>
      <trkpt lat="42.3484670" lon="-7.2531600">
        <ele>688.2</ele>
        <time>2014-10-01T15:49:30Z</time>
      </trkpt>
      <trkpt lat="42.3485360" lon="-7.2530800">
        <ele>688.6</ele>
        <time>2014-10-01T15:49:31Z</time>
      </trkpt>
      <trkpt lat="42.3486050" lon="-7.2530070">
        <ele>688.9</ele>
        <time>2014-10-01T15:49:32Z</time>
      </trkpt>
      <trkpt lat="42.3486690" lon="-7.2529430">
        <ele>689.2</ele>
        <time>2014-10-01T15:49:33Z</time>
      </trkpt>
      <trkpt lat="42.3487350" lon="-7.2528790">
        <ele>689.5</ele>
        <time>2014-10-01T15:49:34Z</time>
      </trkpt>
      <trkpt lat="42.3487980" lon="-7.2528230">
        <ele>689.8</ele>
        <time>2014-10-01T15:49:35Z</time>
      </trkpt>
      <trkpt lat="42.3488540" lon="-7.2527760">
        <ele>690.0</ele>
        <time>2014-10-01T15:49:36Z</time>
      </trkpt>
      <trkpt lat="42.3489150" lon="-7.2527250">
        <ele>690.3</ele>
        <time>2014-10-01T15:49:37Z</time>
      </trkpt>
      <trkpt lat="42.3489720" lon="-7.2526770">
        <ele>690.6</ele>
        <time>2014-10-01T15:49:38Z</time>
      </trkpt>
      <trkpt lat="42.3490270" lon="-7.2526240">
        <ele>690.9</ele>
        <time>2014-10-01T15:49:39Z</time>
      </trkpt>
      <trkpt lat="42.3490790" lon="-7.2525680">
        <ele>691.3</ele>
        <time>2014-10-01T15:49:40Z</time>
      </trkpt>
      <trkpt lat="42.3491250" lon="-7.2525100">
        <ele>691.6</ele>
        <time>2014-10-01T15:49:41Z</time>
      </trkpt>
      <trkpt lat="42.3491680" lon="-7.2524470">
        <ele>691.9</ele>
        <time>2014-10-01T15:49:42Z</time>
      </trkpt>
      <trkpt lat="42.3491970" lon="-7.2523770">
        <ele>692.1</ele>
        <time>2014-10-01T15:49:43Z</time>
      </trkpt>
      <trkpt lat="42.3492230" lon="-7.2523050">
        <ele>692.4</ele>
        <time>2014-10-01T15:49:44Z</time>
      </trkpt>
      <trkpt lat="42.3492470" lon="-7.2522370">
        <ele>692.6</ele>
        <time>2014-10-01T15:49:45Z</time>
      </trkpt>
      <trkpt lat="42.3492630" lon="-7.2521610">
        <ele>692.8</ele>
        <time>2014-10-01T15:49:46Z</time>
      </trkpt>
      <trkpt lat="42.3492800" lon="-7.2520740">
        <ele>693.1</ele>
        <time>2014-10-01T15:49:47Z</time>
      </trkpt>
      <trkpt lat="42.3492950" lon="-7.2519900">
        <ele>693.3</ele>
        <time>2014-10-01T15:49:48Z</time>
      </trkpt>
      <trkpt lat="42.3493090" lon="-7.2519120">
        <ele>693.4</ele>
        <time>2014-10-01T15:49:49Z</time>
      </trkpt>
      <trkpt lat="42.3493210" lon="-7.2518350">
        <ele>693.6</ele>
        <time>2014-10-01T15:49:50Z</time>
      </trkpt>
      <trkpt lat="42.3493320" lon="-7.2517580">
        <ele>693.8</ele>
        <time>2014-10-01T15:49:51Z</time>
      </trkpt>
      <trkpt lat="42.3493390" lon="-7.2516870">
        <ele>693.9</ele>
        <time>2014-10-01T15:49:52Z</time>
      </trkpt>
      <trkpt lat="42.3493490" lon="-7.2516040">
        <ele>694.1</ele>
        <time>2014-10-01T15:49:53Z</time>
      </trkpt>
      <trkpt lat="42.3493580" lon="-7.2515320">
        <ele>694.2</ele>
        <time>2014-10-01T15:49:54Z</time>
      </trkpt>
      <trkpt lat="42.3493680" lon="-7.2514520">
        <ele>694.4</ele>
        <time>2014-10-01T15:49:55Z</time>
      </trkpt>
      <trkpt lat="42.3493730" lon="-7.2513790">
        <ele>694.5</ele>
        <time>2014-10-01T15:49:56Z</time>
      </trkpt>
      <trkpt lat="42.3493780" lon="-7.2513090">
        <ele>694.6</ele>
        <time>2014-10-01T15:49:57Z</time>
      </trkpt>
      <trkpt lat="42.3493850" lon="-7.2512430">
        <ele>694.6</ele>
        <time>2014-10-01T15:49:58Z</time>
      </trkpt>
      <trkpt lat="42.3493950" lon="-7.2511640">
        <ele>694.7</ele>
        <time>2014-10-01T15:49:59Z</time>
      </trkpt>
      <trkpt lat="42.3494060" lon="-7.2510860">
        <ele>694.9</ele>
        <time>2014-10-01T15:50:00Z</time>
      </trkpt>
      <trkpt lat="42.3494150" lon="-7.2510120">
        <ele>695.1</ele>
        <time>2014-10-01T15:50:01Z</time>
      </trkpt>
      <trkpt lat="42.3494290" lon="-7.2509300">
        <ele>695.3</ele>
        <time>2014-10-01T15:50:02Z</time>
      </trkpt>
      <trkpt lat="42.3494410" lon="-7.2508550">
        <ele>695.5</ele>
        <time>2014-10-01T15:50:03Z</time>
      </trkpt>
      <trkpt lat="42.3494540" lon="-7.2507840">
        <ele>695.6</ele>
        <time>2014-10-01T15:50:04Z</time>
      </trkpt>
      <trkpt lat="42.3494670" lon="-7.2507130">
        <ele>695.8</ele>
        <time>2014-10-01T15:50:05Z</time>
      </trkpt>
      <trkpt lat="42.3494820" lon="-7.2506490">
        <ele>695.9</ele>
        <time>2014-10-01T15:50:06Z</time>
      </trkpt>
      <trkpt lat="42.3495030" lon="-7.2505840">
        <ele>696.0</ele>
        <time>2014-10-01T15:50:07Z</time>
      </trkpt>
      <trkpt lat="42.3495250" lon="-7.2505210">
        <ele>696.1</ele>
        <time>2014-10-01T15:50:08Z</time>
      </trkpt>
      <trkpt lat="42.3495580" lon="-7.2504700">
        <ele>696.3</ele>
        <time>2014-10-01T15:50:09Z</time>
      </trkpt>
      <trkpt lat="42.3495920" lon="-7.2504230">
        <ele>696.4</ele>
        <time>2014-10-01T15:50:10Z</time>
      </trkpt>
      <trkpt lat="42.3496300" lon="-7.2503770">
        <ele>696.5</ele>
        <time>2014-10-01T15:50:11Z</time>
      </trkpt>
      <trkpt lat="42.3496680" lon="-7.2503370">
        <ele>696.6</ele>
        <time>2014-10-01T15:50:12Z</time>
      </trkpt>
      <trkpt lat="42.3497180" lon="-7.2503060">
        <ele>696.6</ele>
        <time>2014-10-01T15:50:13Z</time>
      </trkpt>
      <trkpt lat="42.3497730" lon="-7.2502750">
        <ele>696.7</ele>
        <time>2014-10-01T15:50:14Z</time>
      </trkpt>
      <trkpt lat="42.3498250" lon="-7.2502530">
        <ele>696.7</ele>
        <time>2014-10-01T15:50:15Z</time>
      </trkpt>
      <trkpt lat="42.3498890" lon="-7.2502460">
        <ele>696.6</ele>
        <time>2014-10-01T15:50:16Z</time>
      </trkpt>
      <trkpt lat="42.3499470" lon="-7.2502480">
        <ele>696.6</ele>
        <time>2014-10-01T15:50:17Z</time>
      </trkpt>
      <trkpt lat="42.3500110" lon="-7.2502550">
        <ele>696.4</ele>
        <time>2014-10-01T15:50:18Z</time>
      </trkpt>
      <trkpt lat="42.3500800" lon="-7.2502650">
        <ele>696.3</ele>
        <time>2014-10-01T15:50:19Z</time>
      </trkpt>
      <trkpt lat="42.3501550" lon="-7.2502810">
        <ele>696.1</ele>
        <time>2014-10-01T15:50:20Z</time>
      </trkpt>
      <trkpt lat="42.3502250" lon="-7.2503000">
        <ele>695.9</ele>
        <time>2014-10-01T15:50:21Z</time>
      </trkpt>
      <trkpt lat="42.3502990" lon="-7.2503200">
        <ele>695.7</ele>
        <time>2014-10-01T15:50:22Z</time>
      </trkpt>
      <trkpt lat="42.3503730" lon="-7.2503400">
        <ele>695.5</ele>
        <time>2014-10-01T15:50:23Z</time>
      </trkpt>
      <trkpt lat="42.3504490" lon="-7.2503620">
        <ele>695.2</ele>
        <time>2014-10-01T15:50:24Z</time>
      </trkpt>
      <trkpt lat="42.3505240" lon="-7.2503780">
        <ele>694.9</ele>
        <time>2014-10-01T15:50:25Z</time>
      </trkpt>
      <trkpt lat="42.3505960" lon="-7.2503880">
        <ele>694.5</ele>
        <time>2014-10-01T15:50:26Z</time>
      </trkpt>
      <trkpt lat="42.3506680" lon="-7.2503730">
        <ele>694.2</ele>
        <time>2014-10-01T15:50:27Z</time>
      </trkpt>
      <trkpt lat="42.3507490" lon="-7.2503520">
        <ele>693.7</ele>
        <time>2014-10-01T15:50:28Z</time>
      </trkpt>
      <trkpt lat="42.3508270" lon="-7.2503270">
        <ele>693.3</ele>
        <time>2014-10-01T15:50:29Z</time>
      </trkpt>
      <trkpt lat="42.3509060" lon="-7.2502980">
        <ele>692.9</ele>
        <time>2014-10-01T15:50:30Z</time>
      </trkpt>
      <trkpt lat="42.3509870" lon="-7.2502620">
        <ele>692.4</ele>
        <time>2014-10-01T15:50:31Z</time>
      </trkpt>
      <trkpt lat="42.3510730" lon="-7.2502170">
        <ele>691.9</ele>
        <time>2014-10-01T15:50:32Z</time>
      </trkpt>
      <trkpt lat="42.3511520" lon="-7.2501690">
        <ele>691.5</ele>
        <time>2014-10-01T15:50:33Z</time>
      </trkpt>
      <trkpt lat="42.3512360" lon="-7.2501170">
        <ele>691.0</ele>
        <time>2014-10-01T15:50:34Z</time>
      </trkpt>
      <trkpt lat="42.3513200" lon="-7.2500620">
        <ele>690.5</ele>
        <time>2014-10-01T15:50:35Z</time>
      </trkpt>
      <trkpt lat="42.3514130" lon="-7.2500120">
        <ele>689.9</ele>
        <time>2014-10-01T15:50:36Z</time>
      </trkpt>
      <trkpt lat="42.3515050" lon="-7.2499720">
        <ele>689.3</ele>
        <time>2014-10-01T15:50:37Z</time>
      </trkpt>
      <trkpt lat="42.3516060" lon="-7.2499620">
        <ele>688.6</ele>
        <time>2014-10-01T15:50:38Z</time>
      </trkpt>
      <trkpt lat="42.3517000" lon="-7.2499840">
        <ele>688.1</ele>
        <time>2014-10-01T15:50:39Z</time>
      </trkpt>
      <trkpt lat="42.3517880" lon="-7.2500440">
        <ele>687.6</ele>
        <time>2014-10-01T15:50:40Z</time>
      </trkpt>
      <trkpt lat="42.3518520" lon="-7.2501390">
        <ele>687.0</ele>
        <time>2014-10-01T15:50:41Z</time>
      </trkpt>
      <trkpt lat="42.3518890" lon="-7.2502590">
        <ele>686.4</ele>
        <time>2014-10-01T15:50:42Z</time>
      </trkpt>
      <trkpt lat="42.3519060" lon="-7.2503920">
        <ele>685.8</ele>
        <time>2014-10-01T15:50:43Z</time>
      </trkpt>
      <trkpt lat="42.3519230" lon="-7.2505250">
        <ele>685.3</ele>
        <time>2014-10-01T15:50:44Z</time>
      </trkpt>
      <trkpt lat="42.3519480" lon="-7.2506570">
        <ele>684.8</ele>
        <time>2014-10-01T15:50:45Z</time>
      </trkpt>
      <trkpt lat="42.3519990" lon="-7.2507740">
        <ele>684.3</ele>
        <time>2014-10-01T15:50:46Z</time>
      </trkpt>
      <trkpt lat="42.3520670" lon="-7.2508450">
        <ele>683.8</ele>
        <time>2014-10-01T15:50:47Z</time>
      </trkpt>
      <trkpt lat="42.3521470" lon="-7.2508580">
        <ele>683.4</ele>
        <time>2014-10-01T15:50:48Z</time>
      </trkpt>
      <trkpt lat="42.3522070" lon="-7.2508300">
        <ele>683.0</ele>
        <time>2014-10-01T15:50:49Z</time>
      </trkpt>
      <trkpt lat="42.3522570" lon="-7.2507790">
        <ele>682.6</ele>
        <time>2014-10-01T15:50:50Z</time>
      </trkpt>
      <trkpt lat="42.3523160" lon="-7.2507090">
        <ele>682.2</ele>
        <time>2014-10-01T15:50:51Z</time>
      </trkpt>
      <trkpt lat="42.3523670" lon="-7.2506390">
        <ele>681.9</ele>
        <time>2014-10-01T15:50:52Z</time>
      </trkpt>
      <trkpt lat="42.3524240" lon="-7.2505720">
        <ele>681.6</ele>
        <time>2014-10-01T15:50:53Z</time>
      </trkpt>
      <trkpt lat="42.3524870" lon="-7.2505080">
        <ele>681.3</ele>
        <time>2014-10-01T15:50:54Z</time>
      </trkpt>
      <trkpt lat="42.3525560" lon="-7.2504520">
        <ele>681.0</ele>
        <time>2014-10-01T15:50:55Z</time>
      </trkpt>
      <trkpt lat="42.3526240" lon="-7.2504000">
        <ele>680.7</ele>
        <time>2014-10-01T15:50:56Z</time>
      </trkpt>
      <trkpt lat="42.3526960" lon="-7.2503460">
        <ele>680.5</ele>
        <time>2014-10-01T15:50:57Z</time>
      </trkpt>
      <trkpt lat="42.3527710" lon="-7.2502790">
        <ele>680.2</ele>
        <time>2014-10-01T15:50:58Z</time>
      </trkpt>
      <trkpt lat="42.3528380" lon="-7.2502080">
        <ele>680.0</ele>
        <time>2014-10-01T15:50:59Z</time>
      </trkpt>
      <trkpt lat="42.3529060" lon="-7.2501280">
        <ele>679.7</ele>
        <time>2014-10-01T15:51:00Z</time>
      </trkpt>
      <trkpt lat="42.3529730" lon="-7.2500430">
        <ele>679.4</ele>
        <time>2014-10-01T15:51:01Z</time>
      </trkpt>
      <trkpt lat="42.3530380" lon="-7.2499600">
        <ele>679.1</ele>
        <time>2014-10-01T15:51:02Z</time>
      </trkpt>
      <trkpt lat="42.3531050" lon="-7.2498700">
        <ele>678.6</ele>
        <time>2014-10-01T15:51:03Z</time>
      </trkpt>
      <trkpt lat="42.3531670" lon="-7.2497880">
        <ele>678.1</ele>
        <time>2014-10-01T15:51:04Z</time>
      </trkpt>
      <trkpt lat="42.3532300" lon="-7.2497060">
        <ele>677.7</ele>
        <time>2014-10-01T15:51:05Z</time>
      </trkpt>
      <trkpt lat="42.3532880" lon="-7.2496240">
        <ele>677.3</ele>
        <time>2014-10-01T15:51:06Z</time>
      </trkpt>
      <trkpt lat="42.3533510" lon="-7.2495300">
        <ele>676.9</ele>
        <time>2014-10-01T15:51:07Z</time>
      </trkpt>
      <trkpt lat="42.3534140" lon="-7.2494350">
        <ele>676.4</ele>
        <time>2014-10-01T15:51:08Z</time>
      </trkpt>
      <trkpt lat="42.3534680" lon="-7.2493440">
        <ele>676.1</ele>
        <time>2014-10-01T15:51:09Z</time>
      </trkpt>
      <trkpt lat="42.3535220" lon="-7.2492540">
        <ele>675.7</ele>
        <time>2014-10-01T15:51:10Z</time>
      </trkpt>
      <trkpt lat="42.3535780" lon="-7.2491630">
        <ele>675.2</ele>
        <time>2014-10-01T15:51:11Z</time>
      </trkpt>
      <trkpt lat="42.3536390" lon="-7.2490760">
        <ele>674.8</ele>
        <time>2014-10-01T15:51:12Z</time>
      </trkpt>
      <trkpt lat="42.3537290" lon="-7.2489990">
        <ele>674.4</ele>
        <time>2014-10-01T15:51:13Z</time>
      </trkpt>
      <trkpt lat="42.3538250" lon="-7.2489220">
        <ele>674.0</ele>
        <time>2014-10-01T15:51:14Z</time>
      </trkpt>
      <trkpt lat="42.3539270" lon="-7.2488460">
        <ele>673.9</ele>
        <time>2014-10-01T15:51:15Z</time>
      </trkpt>
      <trkpt lat="42.3540280" lon="-7.2487840">
        <ele>673.8</ele>
        <time>2014-10-01T15:51:16Z</time>
      </trkpt>
      <trkpt lat="42.3541280" lon="-7.2487260">
        <ele>673.7</ele>
        <time>2014-10-01T15:51:17Z</time>
      </trkpt>
      <trkpt lat="42.3542300" lon="-7.2486610">
        <ele>673.8</ele>
        <time>2014-10-01T15:51:18Z</time>
      </trkpt>
      <trkpt lat="42.3543210" lon="-7.2485980">
        <ele>673.9</ele>
        <time>2014-10-01T15:51:19Z</time>
      </trkpt>
      <trkpt lat="42.3544030" lon="-7.2485320">
        <ele>674.0</ele>
        <time>2014-10-01T15:51:20Z</time>
      </trkpt>
      <trkpt lat="42.3544840" lon="-7.2484640">
        <ele>674.2</ele>
        <time>2014-10-01T15:51:21Z</time>
      </trkpt>
      <trkpt lat="42.3545560" lon="-7.2484060">
        <ele>674.4</ele>
        <time>2014-10-01T15:51:22Z</time>
      </trkpt>
      <trkpt lat="42.3546250" lon="-7.2483530">
        <ele>674.6</ele>
        <time>2014-10-01T15:51:23Z</time>
      </trkpt>
      <trkpt lat="42.3546990" lon="-7.2483050">
        <ele>674.8</ele>
        <time>2014-10-01T15:51:24Z</time>
      </trkpt>
      <trkpt lat="42.3547760" lon="-7.2482580">
        <ele>675.2</ele>
        <time>2014-10-01T15:51:25Z</time>
      </trkpt>
      <trkpt lat="42.3548480" lon="-7.2482220">
        <ele>675.5</ele>
        <time>2014-10-01T15:51:26Z</time>
      </trkpt>
      <trkpt lat="42.3549120" lon="-7.2481940">
        <ele>675.8</ele>
        <time>2014-10-01T15:51:27Z</time>
      </trkpt>
      <trkpt lat="42.3549760" lon="-7.2481670">
        <ele>676.1</ele>
        <time>2014-10-01T15:51:28Z</time>
      </trkpt>
      <trkpt lat="42.3550370" lon="-7.2481440">
        <ele>676.4</ele>
        <time>2014-10-01T15:51:29Z</time>
      </trkpt>
      <trkpt lat="42.3550960" lon="-7.2481260">
        <ele>676.6</ele>
        <time>2014-10-01T15:51:30Z</time>
      </trkpt>
      <trkpt lat="42.3551580" lon="-7.2481120">
        <ele>676.9</ele>
        <time>2014-10-01T15:51:31Z</time>
      </trkpt>
      <trkpt lat="42.3552150" lon="-7.2481040">
        <ele>677.1</ele>
        <time>2014-10-01T15:51:32Z</time>
      </trkpt>
      <trkpt lat="42.3552720" lon="-7.2481220">
        <ele>677.3</ele>
        <time>2014-10-01T15:51:33Z</time>
      </trkpt>
      <trkpt lat="42.3553360" lon="-7.2481200">
        <ele>677.6</ele>
        <time>2014-10-01T15:51:34Z</time>
      </trkpt>
      <trkpt lat="42.3553880" lon="-7.2481250">
        <ele>677.8</ele>
        <time>2014-10-01T15:51:35Z</time>
      </trkpt>
      <trkpt lat="42.3554420" lon="-7.2481350">
        <ele>677.9</ele>
        <time>2014-10-01T15:51:36Z</time>
      </trkpt>
      <trkpt lat="42.3554950" lon="-7.2481480">
        <ele>678.1</ele>
        <time>2014-10-01T15:51:37Z</time>
      </trkpt>
      <trkpt lat="42.3555460" lon="-7.2481670">
        <ele>678.2</ele>
        <time>2014-10-01T15:51:38Z</time>
      </trkpt>
      <trkpt lat="42.3556010" lon="-7.2481880">
        <ele>678.4</ele>
        <time>2014-10-01T15:51:39Z</time>
      </trkpt>
      <trkpt lat="42.3556570" lon="-7.2482130">
        <ele>678.5</ele>
        <time>2014-10-01T15:51:40Z</time>
      </trkpt>
      <trkpt lat="42.3557170" lon="-7.2482400">
        <ele>678.7</ele>
        <time>2014-10-01T15:51:41Z</time>
      </trkpt>
      <trkpt lat="42.3557690" lon="-7.2482700">
        <ele>678.9</ele>
        <time>2014-10-01T15:51:42Z</time>
      </trkpt>
      <trkpt lat="42.3558240" lon="-7.2483030">
        <ele>679.0</ele>
        <time>2014-10-01T15:51:43Z</time>
      </trkpt>
      <trkpt lat="42.3558810" lon="-7.2483380">
        <ele>679.2</ele>
        <time>2014-10-01T15:51:44Z</time>
      </trkpt>
      <trkpt lat="42.3559300" lon="-7.2483730">
        <ele>679.4</ele>
        <time>2014-10-01T15:51:45Z</time>
      </trkpt>
      <trkpt lat="42.3559790" lon="-7.2484130">
        <ele>679.6</ele>
        <time>2014-10-01T15:51:46Z</time>
      </trkpt>
      <trkpt lat="42.3560270" lon="-7.2484570">
        <ele>679.8</ele>
        <time>2014-10-01T15:51:47Z</time>
      </trkpt>
      <trkpt lat="42.3560720" lon="-7.2485050">
        <ele>680.0</ele>
        <time>2014-10-01T15:51:48Z</time>
      </trkpt>
      <trkpt lat="42.3561130" lon="-7.2485650">
        <ele>680.2</ele>
        <time>2014-10-01T15:51:49Z</time>
      </trkpt>
      <trkpt lat="42.3561490" lon="-7.2486190">
        <ele>680.5</ele>
        <time>2014-10-01T15:51:50Z</time>
      </trkpt>
      <trkpt lat="42.3561830" lon="-7.2486760">
        <ele>680.7</ele>
        <time>2014-10-01T15:51:51Z</time>
      </trkpt>
      <trkpt lat="42.3562180" lon="-7.2487350">
        <ele>681.0</ele>
        <time>2014-10-01T15:51:52Z</time>
      </trkpt>
      <trkpt lat="42.3562500" lon="-7.2487940">
        <ele>681.3</ele>
        <time>2014-10-01T15:51:53Z</time>
      </trkpt>
      <trkpt lat="42.3562810" lon="-7.2488550">
        <ele>681.6</ele>
        <time>2014-10-01T15:51:54Z</time>
      </trkpt>
      <trkpt lat="42.3563070" lon="-7.2489090">
        <ele>681.9</ele>
        <time>2014-10-01T15:51:55Z</time>
      </trkpt>
      <trkpt lat="42.3563310" lon="-7.2489660">
        <ele>682.2</ele>
        <time>2014-10-01T15:51:56Z</time>
      </trkpt>
      <trkpt lat="42.3563540" lon="-7.2490210">
        <ele>682.6</ele>
        <time>2014-10-01T15:51:57Z</time>
      </trkpt>
      <trkpt lat="42.3563730" lon="-7.2490740">
        <ele>682.8</ele>
        <time>2014-10-01T15:51:58Z</time>
      </trkpt>
      <trkpt lat="42.3563950" lon="-7.2491330">
        <ele>683.2</ele>
        <time>2014-10-01T15:51:59Z</time>
      </trkpt>
      <trkpt lat="42.3564130" lon="-7.2491780">
        <ele>683.4</ele>
        <time>2014-10-01T15:52:00Z</time>
      </trkpt>
      <trkpt lat="42.3564330" lon="-7.2492260">
        <ele>683.7</ele>
        <time>2014-10-01T15:52:01Z</time>
      </trkpt>
      <trkpt lat="42.3564550" lon="-7.2492690">
        <ele>683.9</ele>
        <time>2014-10-01T15:52:02Z</time>
      </trkpt>
      <trkpt lat="42.3564820" lon="-7.2492930">
        <ele>684.1</ele>
        <time>2014-10-01T15:52:03Z</time>
      </trkpt>
      <trkpt lat="42.3565140" lon="-7.2493120">
        <ele>684.3</ele>
        <time>2014-10-01T15:52:04Z</time>
      </trkpt>
      <trkpt lat="42.3565480" lon="-7.2493250">
        <ele>684.5</ele>
        <time>2014-10-01T15:52:05Z</time>
      </trkpt>
      <trkpt lat="42.3565880" lon="-7.2493250">
        <ele>684.7</ele>
        <time>2014-10-01T15:52:06Z</time>
      </trkpt>
      <trkpt lat="42.3566300" lon="-7.2493250">
        <ele>684.9</ele>
        <time>2014-10-01T15:52:07Z</time>
      </trkpt>
      <trkpt lat="42.3566680" lon="-7.2493090">
        <ele>685.1</ele>
        <time>2014-10-01T15:52:08Z</time>
      </trkpt>
      <trkpt lat="42.3567040" lon="-7.2492770">
        <ele>685.3</ele>
        <time>2014-10-01T15:52:09Z</time>
      </trkpt>
      <trkpt lat="42.3567420" lon="-7.2492400">
        <ele>685.5</ele>
        <time>2014-10-01T15:52:10Z</time>
      </trkpt>
      <trkpt lat="42.3567780" lon="-7.2492050">
        <ele>685.7</ele>
        <time>2014-10-01T15:52:11Z</time>
      </trkpt>
      <trkpt lat="42.3568130" lon="-7.2491650">
        <ele>686.0</ele>
        <time>2014-10-01T15:52:12Z</time>
      </trkpt>
      <trkpt lat="42.3568480" lon="-7.2491230">
        <ele>686.2</ele>
        <time>2014-10-01T15:52:13Z</time>
      </trkpt>
      <trkpt lat="42.3568800" lon="-7.2490850">
        <ele>686.4</ele>
        <time>2014-10-01T15:52:14Z</time>
      </trkpt>
      <trkpt lat="42.3569130" lon="-7.2490470">
        <ele>686.7</ele>
        <time>2014-10-01T15:52:15Z</time>
      </trkpt>
      <trkpt lat="42.3569430" lon="-7.2490090">
        <ele>687.0</ele>
        <time>2014-10-01T15:52:16Z</time>
      </trkpt>
      <trkpt lat="42.3569770" lon="-7.2489700">
        <ele>687.2</ele>
        <time>2014-10-01T15:52:17Z</time>
      </trkpt>
      <trkpt lat="42.3570080" lon="-7.2489360">
        <ele>687.5</ele>
        <time>2014-10-01T15:52:18Z</time>
      </trkpt>
      <trkpt lat="42.3570410" lon="-7.2489010">
        <ele>687.7</ele>
        <time>2014-10-01T15:52:19Z</time>
      </trkpt>
      <trkpt lat="42.3570740" lon="-7.2488670">
        <ele>688.0</ele>
        <time>2014-10-01T15:52:20Z</time>
      </trkpt>
      <trkpt lat="42.3571100" lon="-7.2488290">
        <ele>688.2</ele>
        <time>2014-10-01T15:52:21Z</time>
      </trkpt>
      <trkpt lat="42.3571470" lon="-7.2487880">
        <ele>688.5</ele>
        <time>2014-10-01T15:52:22Z</time>
      </trkpt>
      <trkpt lat="42.3571770" lon="-7.2487550">
        <ele>688.7</ele>
        <time>2014-10-01T15:52:23Z</time>
      </trkpt>
      <trkpt lat="42.3572040" lon="-7.2487200">
        <ele>689.0</ele>
        <time>2014-10-01T15:52:24Z</time>
      </trkpt>
      <trkpt lat="42.3572290" lon="-7.2486830">
        <ele>689.2</ele>
        <time>2014-10-01T15:52:25Z</time>
      </trkpt>
      <trkpt lat="42.3572520" lon="-7.2486440">
        <ele>689.4</ele>
        <time>2014-10-01T15:52:26Z</time>
      </trkpt>
      <trkpt lat="42.3572740" lon="-7.2485980">
        <ele>689.6</ele>
        <time>2014-10-01T15:52:27Z</time>
      </trkpt>
      <trkpt lat="42.3572880" lon="-7.2485470">
        <ele>689.9</ele>
        <time>2014-10-01T15:52:28Z</time>
      </trkpt>
      <trkpt lat="42.3573030" lon="-7.2484960">
        <ele>690.2</ele>
        <time>2014-10-01T15:52:29Z</time>
      </trkpt>
      <trkpt lat="42.3573200" lon="-7.2484380">
        <ele>690.5</ele>
        <time>2014-10-01T15:52:30Z</time>
      </trkpt>
      <trkpt lat="42.3573330" lon="-7.2483860">
        <ele>690.8</ele>
        <time>2014-10-01T15:52:31Z</time>
      </trkpt>
      <trkpt lat="42.3573440" lon="-7.2483320">
        <ele>691.1</ele>
        <time>2014-10-01T15:52:32Z</time>
      </trkpt>
      <trkpt lat="42.3573550" lon="-7.2482750">
        <ele>691.5</ele>
        <time>2014-10-01T15:52:33Z</time>
      </trkpt>
      <trkpt lat="42.3573630" lon="-7.2482210">
        <ele>691.7</ele>
        <time>2014-10-01T15:52:34Z</time>
      </trkpt>
      <trkpt lat="42.3573690" lon="-7.2481700">
        <ele>692.0</ele>
        <time>2014-10-01T15:52:35Z</time>
      </trkpt>
      <trkpt lat="42.3573760" lon="-7.2481180">
        <ele>692.3</ele>
        <time>2014-10-01T15:52:36Z</time>
      </trkpt>
      <trkpt lat="42.3573820" lon="-7.2480680">
        <ele>692.5</ele>
        <time>2014-10-01T15:52:37Z</time>
      </trkpt>
      <trkpt lat="42.3573880" lon="-7.2480160">
        <ele>692.7</ele>
        <time>2014-10-01T15:52:38Z</time>
      </trkpt>
      <trkpt lat="42.3573940" lon="-7.2479680">
        <ele>692.9</ele>
        <time>2014-10-01T15:52:39Z</time>
      </trkpt>
      <trkpt lat="42.3573990" lon="-7.2479320">
        <ele>693.1</ele>
        <time>2014-10-01T15:52:40Z</time>
      </trkpt>
      <trkpt lat="42.3574050" lon="-7.2478870">
        <ele>693.3</ele>
        <time>2014-10-01T15:52:41Z</time>
      </trkpt>
      <trkpt lat="42.3574120" lon="-7.2478350">
        <ele>693.5</ele>
        <time>2014-10-01T15:52:42Z</time>
      </trkpt>
      <trkpt lat="42.3574170" lon="-7.2477900">
        <ele>693.7</ele>
        <time>2014-10-01T15:52:43Z</time>
      </trkpt>
      <trkpt lat="42.3574170" lon="-7.2477510">
        <ele>693.9</ele>
        <time>2014-10-01T15:52:44Z</time>
      </trkpt>
      <trkpt lat="42.3574170" lon="-7.2477040">
        <ele>694.1</ele>
        <time>2014-10-01T15:52:45Z</time>
      </trkpt>
      <trkpt lat="42.3574170" lon="-7.2476490">
        <ele>694.3</ele>
        <time>2014-10-01T15:52:46Z</time>
      </trkpt>
      <trkpt lat="42.3574170" lon="-7.2475870">
        <ele>694.5</ele>
        <time>2014-10-01T15:52:47Z</time>
      </trkpt>
      <trkpt lat="42.3574180" lon="-7.2475250">
        <ele>694.8</ele>
        <time>2014-10-01T15:52:48Z</time>
      </trkpt>
      <trkpt lat="42.3574200" lon="-7.2474750">
        <ele>695.0</ele>
        <time>2014-10-01T15:52:49Z</time>
      </trkpt>
      <trkpt lat="42.3574230" lon="-7.2474300">
        <ele>695.1</ele>
        <time>2014-10-01T15:52:50Z</time>
      </trkpt>
      <trkpt lat="42.3574260" lon="-7.2473860">
        <ele>695.3</ele>
        <time>2014-10-01T15:52:51Z</time>
      </trkpt>
      <trkpt lat="42.3574320" lon="-7.2473320">
        <ele>695.5</ele>
        <time>2014-10-01T15:52:52Z</time>
      </trkpt>
      <trkpt lat="42.3574420" lon="-7.2472840">
        <ele>695.7</ele>
        <time>2014-10-01T15:52:53Z</time>
      </trkpt>
      <trkpt lat="42.3574540" lon="-7.2472350">
        <ele>695.9</ele>
        <time>2014-10-01T15:52:54Z</time>
      </trkpt>
      <trkpt lat="42.3574690" lon="-7.2471800">
        <ele>696.1</ele>
        <time>2014-10-01T15:52:55Z</time>
      </trkpt>
      <trkpt lat="42.3574830" lon="-7.2471380">
        <ele>696.2</ele>
        <time>2014-10-01T15:52:56Z</time>
      </trkpt>
      <trkpt lat="42.3575000" lon="-7.2470930">
        <ele>696.4</ele>
        <time>2014-10-01T15:52:57Z</time>
      </trkpt>
      <trkpt lat="42.3575190" lon="-7.2470470">
        <ele>696.4</ele>
        <time>2014-10-01T15:52:58Z</time>
      </trkpt>
      <trkpt lat="42.3575360" lon="-7.2470020">
        <ele>696.4</ele>
        <time>2014-10-01T15:52:59Z</time>
      </trkpt>
      <trkpt lat="42.3575550" lon="-7.2469580">
        <ele>696.4</ele>
        <time>2014-10-01T15:53:00Z</time>
      </trkpt>
      <trkpt lat="42.3575770" lon="-7.2469100">
        <ele>696.5</ele>
        <time>2014-10-01T15:53:01Z</time>
      </trkpt>
      <trkpt lat="42.3576020" lon="-7.2468620">
        <ele>696.5</ele>
        <time>2014-10-01T15:53:02Z</time>
      </trkpt>
      <trkpt lat="42.3576330" lon="-7.2468110">
        <ele>696.5</ele>
        <time>2014-10-01T15:53:03Z</time>
      </trkpt>
      <trkpt lat="42.3576790" lon="-7.2467630">
        <ele>696.4</ele>
        <time>2014-10-01T15:53:04Z</time>
      </trkpt>
      <trkpt lat="42.3577240" lon="-7.2467240">
        <ele>696.4</ele>
        <time>2014-10-01T15:53:05Z</time>
      </trkpt>
      <trkpt lat="42.3577720" lon="-7.2467080">
        <ele>696.4</ele>
        <time>2014-10-01T15:53:06Z</time>
      </trkpt>
      <trkpt lat="42.3578290" lon="-7.2466950">
        <ele>696.3</ele>
        <time>2014-10-01T15:53:07Z</time>
      </trkpt>
      <trkpt lat="42.3578810" lon="-7.2466910">
        <ele>696.2</ele>
        <time>2014-10-01T15:53:08Z</time>
      </trkpt>
      <trkpt lat="42.3579370" lon="-7.2466910">
        <ele>696.2</ele>
        <time>2014-10-01T15:53:09Z</time>
      </trkpt>
      <trkpt lat="42.3579960" lon="-7.2466960">
        <ele>696.1</ele>
        <time>2014-10-01T15:53:10Z</time>
      </trkpt>
      <trkpt lat="42.3580520" lon="-7.2467050">
        <ele>696.0</ele>
        <time>2014-10-01T15:53:11Z</time>
      </trkpt>
      <trkpt lat="42.3581080" lon="-7.2467160">
        <ele>696.0</ele>
        <time>2014-10-01T15:53:12Z</time>
      </trkpt>
      <trkpt lat="42.3581610" lon="-7.2467260">
        <ele>695.8</ele>
        <time>2014-10-01T15:53:13Z</time>
      </trkpt>
      <trkpt lat="42.3582150" lon="-7.2467340">
        <ele>695.7</ele>
        <time>2014-10-01T15:53:14Z</time>
      </trkpt>
      <trkpt lat="42.3582720" lon="-7.2467410">
        <ele>695.5</ele>
        <time>2014-10-01T15:53:15Z</time>
      </trkpt>
      <trkpt lat="42.3583330" lon="-7.2467490">
        <ele>695.4</ele>
        <time>2014-10-01T15:53:16Z</time>
      </trkpt>
      <trkpt lat="42.3583930" lon="-7.2467620">
        <ele>695.2</ele>
        <time>2014-10-01T15:53:17Z</time>
      </trkpt>
      <trkpt lat="42.3584570" lon="-7.2467750">
        <ele>694.9</ele>
        <time>2014-10-01T15:53:18Z</time>
      </trkpt>
      <trkpt lat="42.3585210" lon="-7.2467880">
        <ele>694.5</ele>
        <time>2014-10-01T15:53:19Z</time>
      </trkpt>
      <trkpt lat="42.3585850" lon="-7.2468000">
        <ele>694.2</ele>
        <time>2014-10-01T15:53:20Z</time>
      </trkpt>
      <trkpt lat="42.3586560" lon="-7.2468070">
        <ele>693.8</ele>
        <time>2014-10-01T15:53:21Z</time>
      </trkpt>
      <trkpt lat="42.3587290" lon="-7.2468080">
        <ele>693.4</ele>
        <time>2014-10-01T15:53:22Z</time>
      </trkpt>
      <trkpt lat="42.3587960" lon="-7.2468020">
        <ele>693.0</ele>
        <time>2014-10-01T15:53:23Z</time>
      </trkpt>
      <trkpt lat="42.3588760" lon="-7.2467860">
        <ele>692.5</ele>
        <time>2014-10-01T15:53:24Z</time>
      </trkpt>
      <trkpt lat="42.3589510" lon="-7.2467690">
        <ele>692.0</ele>
        <time>2014-10-01T15:53:25Z</time>
      </trkpt>
      <trkpt lat="42.3590290" lon="-7.2467450">
        <ele>691.6</ele>
        <time>2014-10-01T15:53:26Z</time>
      </trkpt>
      <trkpt lat="42.3591100" lon="-7.2467130">
        <ele>691.1</ele>
        <time>2014-10-01T15:53:27Z</time>
      </trkpt>
      <trkpt lat="42.3591930" lon="-7.2466770">
        <ele>690.7</ele>
        <time>2014-10-01T15:53:28Z</time>
      </trkpt>
      <trkpt lat="42.3592800" lon="-7.2466350">
        <ele>690.3</ele>
        <time>2014-10-01T15:53:29Z</time>
      </trkpt>
      <trkpt lat="42.3593610" lon="-7.2465910">
        <ele>689.9</ele>
        <time>2014-10-01T15:53:30Z</time>
      </trkpt>
      <trkpt lat="42.3594380" lon="-7.2465470">
        <ele>689.5</ele>
        <time>2014-10-01T15:53:31Z</time>
      </trkpt>
      <trkpt lat="42.3595200" lon="-7.2465040">
        <ele>689.2</ele>
        <time>2014-10-01T15:53:32Z</time>
      </trkpt>
      <trkpt lat="42.3596020" lon="-7.2464630">
        <ele>688.9</ele>
        <time>2014-10-01T15:53:33Z</time>
      </trkpt>
      <trkpt lat="42.3596760" lon="-7.2464290">
        <ele>688.7</ele>
        <time>2014-10-01T15:53:34Z</time>
      </trkpt>
      <trkpt lat="42.3597530" lon="-7.2463940">
        <ele>688.4</ele>
        <time>2014-10-01T15:53:35Z</time>
      </trkpt>
      <trkpt lat="42.3598300" lon="-7.2463570">
        <ele>688.0</ele>
        <time>2014-10-01T15:53:36Z</time>
      </trkpt>
      <trkpt lat="42.3599080" lon="-7.2463150">
        <ele>687.8</ele>
        <time>2014-10-01T15:53:37Z</time>
      </trkpt>
      <trkpt lat="42.3599870" lon="-7.2462630">
        <ele>687.6</ele>
        <time>2014-10-01T15:53:38Z</time>
      </trkpt>
      <trkpt lat="42.3600430" lon="-7.2461820">
        <ele>687.4</ele>
        <time>2014-10-01T15:53:39Z</time>
      </trkpt>
      <trkpt lat="42.3600980" lon="-7.2460910">
        <ele>687.2</ele>
        <time>2014-10-01T15:53:40Z</time>
      </trkpt>
      <trkpt lat="42.3601360" lon="-7.2459870">
        <ele>687.2</ele>
        <time>2014-10-01T15:53:41Z</time>
      </trkpt>
      <trkpt lat="42.3601730" lon="-7.2458840">
        <ele>687.3</ele>
        <time>2014-10-01T15:53:42Z</time>
      </trkpt>
      <trkpt lat="42.3602040" lon="-7.2457880">
        <ele>687.5</ele>
        <time>2014-10-01T15:53:43Z</time>
      </trkpt>
      <trkpt lat="42.3602330" lon="-7.2456880">
        <ele>687.8</ele>
        <time>2014-10-01T15:53:44Z</time>
      </trkpt>
      <trkpt lat="42.3602600" lon="-7.2455870">
        <ele>688.1</ele>
        <time>2014-10-01T15:53:45Z</time>
      </trkpt>
      <trkpt lat="42.3602840" lon="-7.2454910">
        <ele>688.3</ele>
        <time>2014-10-01T15:53:46Z</time>
      </trkpt>
      <trkpt lat="42.3603080" lon="-7.2453950">
        <ele>688.6</ele>
        <time>2014-10-01T15:53:47Z</time>
      </trkpt>
      <trkpt lat="42.3603310" lon="-7.2452980">
        <ele>688.9</ele>
        <time>2014-10-01T15:53:48Z</time>
      </trkpt>
      <trkpt lat="42.3603530" lon="-7.2452040">
        <ele>689.2</ele>
        <time>2014-10-01T15:53:49Z</time>
      </trkpt>
      <trkpt lat="42.3603710" lon="-7.2451150">
        <ele>689.4</ele>
        <time>2014-10-01T15:53:50Z</time>
      </trkpt>
      <trkpt lat="42.3603880" lon="-7.2450240">
        <ele>689.7</ele>
        <time>2014-10-01T15:53:51Z</time>
      </trkpt>
      <trkpt lat="42.3604050" lon="-7.2449380">
        <ele>689.9</ele>
        <time>2014-10-01T15:53:52Z</time>
      </trkpt>
      <trkpt lat="42.3604190" lon="-7.2448570">
        <ele>690.1</ele>
        <time>2014-10-01T15:53:53Z</time>
      </trkpt>
      <trkpt lat="42.3604340" lon="-7.2447840">
        <ele>690.3</ele>
        <time>2014-10-01T15:53:54Z</time>
      </trkpt>
      <trkpt lat="42.3604530" lon="-7.2447030">
        <ele>690.6</ele>
        <time>2014-10-01T15:53:55Z</time>
      </trkpt>
      <trkpt lat="42.3604760" lon="-7.2446230">
        <ele>691.0</ele>
        <time>2014-10-01T15:53:56Z</time>
      </trkpt>
      <trkpt lat="42.3605090" lon="-7.2445530">
        <ele>691.5</ele>
        <time>2014-10-01T15:53:57Z</time>
      </trkpt>
      <trkpt lat="42.3605430" lon="-7.2444890">
        <ele>692.0</ele>
        <time>2014-10-01T15:53:58Z</time>
      </trkpt>
      <trkpt lat="42.3605760" lon="-7.2444320">
        <ele>692.5</ele>
        <time>2014-10-01T15:53:59Z</time>
      </trkpt>
      <trkpt lat="42.3606070" lon="-7.2443790">
        <ele>692.9</ele>
        <time>2014-10-01T15:54:00Z</time>
      </trkpt>
      <trkpt lat="42.3606380" lon="-7.2443230">
        <ele>693.4</ele>
        <time>2014-10-01T15:54:01Z</time>
      </trkpt>
      <trkpt lat="42.3606660" lon="-7.2442670">
        <ele>693.8</ele>
        <time>2014-10-01T15:54:02Z</time>
      </trkpt>
      <trkpt lat="42.3606930" lon="-7.2442060">
        <ele>694.1</ele>
        <time>2014-10-01T15:54:03Z</time>
      </trkpt>
      <trkpt lat="42.3607160" lon="-7.2441480">
        <ele>694.4</ele>
        <time>2014-10-01T15:54:04Z</time>
      </trkpt>
      <trkpt lat="42.3607310" lon="-7.2440950">
        <ele>694.6</ele>
        <time>2014-10-01T15:54:05Z</time>
      </trkpt>
      <trkpt lat="42.3607440" lon="-7.2440400">
        <ele>694.8</ele>
        <time>2014-10-01T15:54:06Z</time>
      </trkpt>
      <trkpt lat="42.3607580" lon="-7.2439830">
        <ele>695.0</ele>
        <time>2014-10-01T15:54:07Z</time>
      </trkpt>
      <trkpt lat="42.3607680" lon="-7.2439240">
        <ele>695.1</ele>
        <time>2014-10-01T15:54:08Z</time>
      </trkpt>
      <trkpt lat="42.3607790" lon="-7.2438560">
        <ele>695.2</ele>
        <time>2014-10-01T15:54:09Z</time>
      </trkpt>
      <trkpt lat="42.3607880" lon="-7.2437890">
        <ele>695.2</ele>
        <time>2014-10-01T15:54:10Z</time>
      </trkpt>
      <trkpt lat="42.3607940" lon="-7.2437110">
        <ele>695.2</ele>
        <time>2014-10-01T15:54:11Z</time>
      </trkpt>
      <trkpt lat="42.3607990" lon="-7.2436390">
        <ele>695.1</ele>
        <time>2014-10-01T15:54:12Z</time>
      </trkpt>
      <trkpt lat="42.3608060" lon="-7.2435600">
        <ele>695.1</ele>
        <time>2014-10-01T15:54:13Z</time>
      </trkpt>
      <trkpt lat="42.3608150" lon="-7.2434740">
        <ele>695.0</ele>
        <time>2014-10-01T15:54:14Z</time>
      </trkpt>
      <trkpt lat="42.3608250" lon="-7.2433890">
        <ele>694.9</ele>
        <time>2014-10-01T15:54:15Z</time>
      </trkpt>
      <trkpt lat="42.3608340" lon="-7.2433010">
        <ele>694.8</ele>
        <time>2014-10-01T15:54:16Z</time>
      </trkpt>
      <trkpt lat="42.3608430" lon="-7.2432100">
        <ele>694.7</ele>
        <time>2014-10-01T15:54:17Z</time>
      </trkpt>
      <trkpt lat="42.3608520" lon="-7.2431200">
        <ele>694.6</ele>
        <time>2014-10-01T15:54:18Z</time>
      </trkpt>
      <trkpt lat="42.3608600" lon="-7.2430370">
        <ele>694.6</ele>
        <time>2014-10-01T15:54:19Z</time>
      </trkpt>
      <trkpt lat="42.3608680" lon="-7.2429510">
        <ele>694.6</ele>
        <time>2014-10-01T15:54:20Z</time>
      </trkpt>
      <trkpt lat="42.3608770" lon="-7.2428600">
        <ele>694.5</ele>
        <time>2014-10-01T15:54:21Z</time>
      </trkpt>
      <trkpt lat="42.3608860" lon="-7.2427670">
        <ele>694.5</ele>
        <time>2014-10-01T15:54:22Z</time>
      </trkpt>
      <trkpt lat="42.3608990" lon="-7.2426780">
        <ele>694.4</ele>
        <time>2014-10-01T15:54:23Z</time>
      </trkpt>
      <trkpt lat="42.3609140" lon="-7.2425900">
        <ele>694.3</ele>
        <time>2014-10-01T15:54:24Z</time>
      </trkpt>
      <trkpt lat="42.3609340" lon="-7.2425060">
        <ele>694.2</ele>
        <time>2014-10-01T15:54:25Z</time>
      </trkpt>
      <trkpt lat="42.3609580" lon="-7.2424260">
        <ele>694.1</ele>
        <time>2014-10-01T15:54:26Z</time>
      </trkpt>
      <trkpt lat="42.3609870" lon="-7.2423490">
        <ele>693.9</ele>
        <time>2014-10-01T15:54:27Z</time>
      </trkpt>
      <trkpt lat="42.3610230" lon="-7.2422640">
        <ele>693.6</ele>
        <time>2014-10-01T15:54:28Z</time>
      </trkpt>
      <trkpt lat="42.3610610" lon="-7.2421800">
        <ele>693.3</ele>
        <time>2014-10-01T15:54:29Z</time>
      </trkpt>
      <trkpt lat="42.3611010" lon="-7.2421000">
        <ele>693.0</ele>
        <time>2014-10-01T15:54:30Z</time>
      </trkpt>
      <trkpt lat="42.3611440" lon="-7.2420300">
        <ele>692.7</ele>
        <time>2014-10-01T15:54:31Z</time>
      </trkpt>
      <trkpt lat="42.3612050" lon="-7.2419600">
        <ele>692.2</ele>
        <time>2014-10-01T15:54:32Z</time>
      </trkpt>
      <trkpt lat="42.3612710" lon="-7.2418900">
        <ele>691.6</ele>
        <time>2014-10-01T15:54:33Z</time>
      </trkpt>
      <trkpt lat="42.3613480" lon="-7.2418170">
        <ele>690.9</ele>
        <time>2014-10-01T15:54:34Z</time>
      </trkpt>
      <trkpt lat="42.3614270" lon="-7.2417600">
        <ele>690.1</ele>
        <time>2014-10-01T15:54:35Z</time>
      </trkpt>
      <trkpt lat="42.3615110" lon="-7.2417040">
        <ele>689.2</ele>
        <time>2014-10-01T15:54:36Z</time>
      </trkpt>
      <trkpt lat="42.3616110" lon="-7.2416460">
        <ele>688.2</ele>
        <time>2014-10-01T15:54:37Z</time>
      </trkpt>
      <trkpt lat="42.3617170" lon="-7.2415880">
        <ele>687.1</ele>
        <time>2014-10-01T15:54:38Z</time>
      </trkpt>
      <trkpt lat="42.3618180" lon="-7.2415340">
        <ele>686.1</ele>
        <time>2014-10-01T15:54:39Z</time>
      </trkpt>
      <trkpt lat="42.3619230" lon="-7.2414780">
        <ele>685.0</ele>
        <time>2014-10-01T15:54:40Z</time>
      </trkpt>
      <trkpt lat="42.3620290" lon="-7.2414160">
        <ele>683.9</ele>
        <time>2014-10-01T15:54:41Z</time>
      </trkpt>
      <trkpt lat="42.3621390" lon="-7.2413490">
        <ele>682.9</ele>
        <time>2014-10-01T15:54:42Z</time>
      </trkpt>
      <trkpt lat="42.3622440" lon="-7.2412790">
        <ele>682.0</ele>
        <time>2014-10-01T15:54:43Z</time>
      </trkpt>
      <trkpt lat="42.3623540" lon="-7.2412050">
        <ele>681.1</ele>
        <time>2014-10-01T15:54:44Z</time>
      </trkpt>
      <trkpt lat="42.3624590" lon="-7.2411340">
        <ele>680.4</ele>
        <time>2014-10-01T15:54:45Z</time>
      </trkpt>
      <trkpt lat="42.3625670" lon="-7.2410670">
        <ele>679.7</ele>
        <time>2014-10-01T15:54:46Z</time>
      </trkpt>
      <trkpt lat="42.3626770" lon="-7.2410050">
        <ele>678.9</ele>
        <time>2014-10-01T15:54:47Z</time>
      </trkpt>
      <trkpt lat="42.3627890" lon="-7.2409460">
        <ele>678.0</ele>
        <time>2014-10-01T15:54:48Z</time>
      </trkpt>
      <trkpt lat="42.3629020" lon="-7.2408910">
        <ele>676.9</ele>
        <time>2014-10-01T15:54:49Z</time>
      </trkpt>
      <trkpt lat="42.3630190" lon="-7.2408320">
        <ele>675.7</ele>
        <time>2014-10-01T15:54:50Z</time>
      </trkpt>
      <trkpt lat="42.3631370" lon="-7.2407760">
        <ele>674.6</ele>
        <time>2014-10-01T15:54:51Z</time>
      </trkpt>
      <trkpt lat="42.3632520" lon="-7.2407140">
        <ele>673.7</ele>
        <time>2014-10-01T15:54:52Z</time>
      </trkpt>
      <trkpt lat="42.3633620" lon="-7.2406440">
        <ele>672.7</ele>
        <time>2014-10-01T15:54:53Z</time>
      </trkpt>
      <trkpt lat="42.3634580" lon="-7.2405680">
        <ele>671.9</ele>
        <time>2014-10-01T15:54:54Z</time>
      </trkpt>
      <trkpt lat="42.3635480" lon="-7.2404830">
        <ele>671.1</ele>
        <time>2014-10-01T15:54:55Z</time>
      </trkpt>
      <trkpt lat="42.3636370" lon="-7.2403950">
        <ele>670.3</ele>
        <time>2014-10-01T15:54:56Z</time>
      </trkpt>
      <trkpt lat="42.3637200" lon="-7.2403250">
        <ele>669.7</ele>
        <time>2014-10-01T15:54:57Z</time>
      </trkpt>
      <trkpt lat="42.3638190" lon="-7.2402980">
        <ele>669.1</ele>
        <time>2014-10-01T15:54:58Z</time>
      </trkpt>
      <trkpt lat="42.3639260" lon="-7.2402790">
        <ele>668.3</ele>
        <time>2014-10-01T15:54:59Z</time>
      </trkpt>
      <trkpt lat="42.3640370" lon="-7.2402710">
        <ele>667.4</ele>
        <time>2014-10-01T15:55:00Z</time>
      </trkpt>
      <trkpt lat="42.3641430" lon="-7.2402720">
        <ele>666.6</ele>
        <time>2014-10-01T15:55:01Z</time>
      </trkpt>
      <trkpt lat="42.3642420" lon="-7.2402720">
        <ele>665.8</ele>
        <time>2014-10-01T15:55:02Z</time>
      </trkpt>
      <trkpt lat="42.3643310" lon="-7.2402620">
        <ele>665.1</ele>
        <time>2014-10-01T15:55:03Z</time>
      </trkpt>
      <trkpt lat="42.3644010" lon="-7.2401950">
        <ele>664.4</ele>
        <time>2014-10-01T15:55:04Z</time>
      </trkpt>
      <trkpt lat="42.3644430" lon="-7.2400910">
        <ele>663.8</ele>
        <time>2014-10-01T15:55:05Z</time>
      </trkpt>
      <trkpt lat="42.3644590" lon="-7.2399810">
        <ele>663.1</ele>
        <time>2014-10-01T15:55:06Z</time>
      </trkpt>
      <trkpt lat="42.3644690" lon="-7.2398590">
        <ele>662.4</ele>
        <time>2014-10-01T15:55:07Z</time>
      </trkpt>
      <trkpt lat="42.3644770" lon="-7.2397310">
        <ele>661.6</ele>
        <time>2014-10-01T15:55:08Z</time>
      </trkpt>
      <trkpt lat="42.3645060" lon="-7.2396150">
        <ele>660.8</ele>
        <time>2014-10-01T15:55:09Z</time>
      </trkpt>
      <trkpt lat="42.3645490" lon="-7.2395240">
        <ele>660.2</ele>
        <time>2014-10-01T15:55:10Z</time>
      </trkpt>
      <trkpt lat="42.3646160" lon="-7.2394490">
        <ele>659.5</ele>
        <time>2014-10-01T15:55:11Z</time>
      </trkpt>
      <trkpt lat="42.3647010" lon="-7.2393950">
        <ele>658.7</ele>
        <time>2014-10-01T15:55:12Z</time>
      </trkpt>
      <trkpt lat="42.3648040" lon="-7.2393430">
        <ele>657.9</ele>
        <time>2014-10-01T15:55:13Z</time>
      </trkpt>
      <trkpt lat="42.3649090" lon="-7.2393040">
        <ele>657.0</ele>
        <time>2014-10-01T15:55:14Z</time>
      </trkpt>
      <trkpt lat="42.3650240" lon="-7.2392970">
        <ele>656.0</ele>
        <time>2014-10-01T15:55:15Z</time>
      </trkpt>
      <trkpt lat="42.3651370" lon="-7.2392960">
        <ele>655.1</ele>
        <time>2014-10-01T15:55:16Z</time>
      </trkpt>
      <trkpt lat="42.3652520" lon="-7.2393010">
        <ele>654.2</ele>
        <time>2014-10-01T15:55:17Z</time>
      </trkpt>
      <trkpt lat="42.3653650" lon="-7.2393030">
        <ele>653.1</ele>
        <time>2014-10-01T15:55:18Z</time>
      </trkpt>
      <trkpt lat="42.3654740" lon="-7.2393000">
        <ele>652.1</ele>
        <time>2014-10-01T15:55:19Z</time>
      </trkpt>
      <trkpt lat="42.3655750" lon="-7.2392890">
        <ele>651.2</ele>
        <time>2014-10-01T15:55:20Z</time>
      </trkpt>
      <trkpt lat="42.3656560" lon="-7.2392310">
        <ele>650.3</ele>
        <time>2014-10-01T15:55:21Z</time>
      </trkpt>
      <trkpt lat="42.3657210" lon="-7.2391410">
        <ele>649.5</ele>
        <time>2014-10-01T15:55:22Z</time>
      </trkpt>
      <trkpt lat="42.3657610" lon="-7.2390200">
        <ele>648.8</ele>
        <time>2014-10-01T15:55:23Z</time>
      </trkpt>
      <trkpt lat="42.3657810" lon="-7.2388820">
        <ele>648.0</ele>
        <time>2014-10-01T15:55:24Z</time>
      </trkpt>
      <trkpt lat="42.3658000" lon="-7.2387390">
        <ele>647.2</ele>
        <time>2014-10-01T15:55:25Z</time>
      </trkpt>
      <trkpt lat="42.3658200" lon="-7.2385980">
        <ele>646.4</ele>
        <time>2014-10-01T15:55:26Z</time>
      </trkpt>
      <trkpt lat="42.3658460" lon="-7.2384660">
        <ele>645.7</ele>
        <time>2014-10-01T15:55:27Z</time>
      </trkpt>
      <trkpt lat="42.3658750" lon="-7.2383440">
        <ele>645.0</ele>
        <time>2014-10-01T15:55:28Z</time>
      </trkpt>
      <trkpt lat="42.3659070" lon="-7.2382400">
        <ele>644.3</ele>
        <time>2014-10-01T15:55:29Z</time>
      </trkpt>
      <trkpt lat="42.3659580" lon="-7.2381460">
        <ele>643.7</ele>
        <time>2014-10-01T15:55:30Z</time>
      </trkpt>
      <trkpt lat="42.3660290" lon="-7.2380670">
        <ele>643.0</ele>
        <time>2014-10-01T15:55:31Z</time>
      </trkpt>
      <trkpt lat="42.3661040" lon="-7.2379980">
        <ele>642.5</ele>
        <time>2014-10-01T15:55:32Z</time>
      </trkpt>
      <trkpt lat="42.3661930" lon="-7.2379530">
        <ele>641.9</ele>
        <time>2014-10-01T15:55:33Z</time>
      </trkpt>
      <trkpt lat="42.3662840" lon="-7.2379120">
        <ele>641.2</ele>
        <time>2014-10-01T15:55:34Z</time>
      </trkpt>
      <trkpt lat="42.3663810" lon="-7.2378730">
        <ele>640.4</ele>
        <time>2014-10-01T15:55:35Z</time>
      </trkpt>
      <trkpt lat="42.3664850" lon="-7.2378430">
        <ele>639.5</ele>
        <time>2014-10-01T15:55:36Z</time>
      </trkpt>
      <trkpt lat="42.3665920" lon="-7.2378210">
        <ele>638.7</ele>
        <time>2014-10-01T15:55:37Z</time>
      </trkpt>
      <trkpt lat="42.3667050" lon="-7.2378080">
        <ele>637.7</ele>
        <time>2014-10-01T15:55:38Z</time>
      </trkpt>
      <trkpt lat="42.3668180" lon="-7.2378030">
        <ele>636.8</ele>
        <time>2014-10-01T15:55:39Z</time>
      </trkpt>
      <trkpt lat="42.3669260" lon="-7.2378090">
        <ele>636.0</ele>
        <time>2014-10-01T15:55:40Z</time>
      </trkpt>
      <trkpt lat="42.3670330" lon="-7.2378180">
        <ele>635.2</ele>
        <time>2014-10-01T15:55:41Z</time>
      </trkpt>
      <trkpt lat="42.3671390" lon="-7.2378310">
        <ele>634.3</ele>
        <time>2014-10-01T15:55:42Z</time>
      </trkpt>
      <trkpt lat="42.3672450" lon="-7.2378440">
        <ele>633.5</ele>
        <time>2014-10-01T15:55:43Z</time>
      </trkpt>
      <trkpt lat="42.3673470" lon="-7.2378510">
        <ele>632.8</ele>
        <time>2014-10-01T15:55:44Z</time>
      </trkpt>
      <trkpt lat="42.3674470" lon="-7.2378270">
        <ele>632.1</ele>
        <time>2014-10-01T15:55:45Z</time>
      </trkpt>
      <trkpt lat="42.3675520" lon="-7.2377940">
        <ele>631.3</ele>
        <time>2014-10-01T15:55:46Z</time>
      </trkpt>
      <trkpt lat="42.3676550" lon="-7.2377520">
        <ele>630.5</ele>
        <time>2014-10-01T15:55:47Z</time>
      </trkpt>
      <trkpt lat="42.3677580" lon="-7.2377040">
        <ele>629.7</ele>
        <time>2014-10-01T15:55:48Z</time>
      </trkpt>
      <trkpt lat="42.3678610" lon="-7.2376470">
        <ele>628.9</ele>
        <time>2014-10-01T15:55:49Z</time>
      </trkpt>
      <trkpt lat="42.3679630" lon="-7.2375750">
        <ele>628.0</ele>
        <time>2014-10-01T15:55:50Z</time>
      </trkpt>
      <trkpt lat="42.3680620" lon="-7.2374950">
        <ele>627.1</ele>
        <time>2014-10-01T15:55:51Z</time>
      </trkpt>
      <trkpt lat="42.3681570" lon="-7.2374030">
        <ele>626.4</ele>
        <time>2014-10-01T15:55:52Z</time>
      </trkpt>
      <trkpt lat="42.3682470" lon="-7.2373070">
        <ele>625.6</ele>
        <time>2014-10-01T15:55:53Z</time>
      </trkpt>
      <trkpt lat="42.3683380" lon="-7.2372040">
        <ele>624.9</ele>
        <time>2014-10-01T15:55:54Z</time>
      </trkpt>
      <trkpt lat="42.3684280" lon="-7.2370990">
        <ele>624.1</ele>
        <time>2014-10-01T15:55:55Z</time>
      </trkpt>
      <trkpt lat="42.3685160" lon="-7.2369940">
        <ele>623.5</ele>
        <time>2014-10-01T15:55:56Z</time>
      </trkpt>
      <trkpt lat="42.3686130" lon="-7.2368840">
        <ele>623.0</ele>
        <time>2014-10-01T15:55:57Z</time>
      </trkpt>
      <trkpt lat="42.3687090" lon="-7.2367750">
        <ele>622.6</ele>
        <time>2014-10-01T15:55:58Z</time>
      </trkpt>
      <trkpt lat="42.3688000" lon="-7.2366750">
        <ele>622.2</ele>
        <time>2014-10-01T15:55:59Z</time>
      </trkpt>
      <trkpt lat="42.3688870" lon="-7.2365800">
        <ele>621.9</ele>
        <time>2014-10-01T15:56:00Z</time>
      </trkpt>
      <trkpt lat="42.3689700" lon="-7.2364790">
        <ele>621.5</ele>
        <time>2014-10-01T15:56:01Z</time>
      </trkpt>
      <trkpt lat="42.3690490" lon="-7.2363750">
        <ele>621.1</ele>
        <time>2014-10-01T15:56:02Z</time>
      </trkpt>
      <trkpt lat="42.3691280" lon="-7.2362670">
        <ele>620.8</ele>
        <time>2014-10-01T15:56:03Z</time>
      </trkpt>
      <trkpt lat="42.3692040" lon="-7.2361660">
        <ele>620.4</ele>
        <time>2014-10-01T15:56:04Z</time>
      </trkpt>
      <trkpt lat="42.3692710" lon="-7.2360740">
        <ele>620.1</ele>
        <time>2014-10-01T15:56:05Z</time>
      </trkpt>
      <trkpt lat="42.3693360" lon="-7.2359840">
        <ele>619.8</ele>
        <time>2014-10-01T15:56:06Z</time>
      </trkpt>
      <trkpt lat="42.3694040" lon="-7.2359030">
        <ele>619.6</ele>
        <time>2014-10-01T15:56:07Z</time>
      </trkpt>
      <trkpt lat="42.3694900" lon="-7.2358690">
        <ele>619.3</ele>
        <time>2014-10-01T15:56:08Z</time>
      </trkpt>
      <trkpt lat="42.3695760" lon="-7.2358830">
        <ele>618.9</ele>
        <time>2014-10-01T15:56:09Z</time>
      </trkpt>
      <trkpt lat="42.3696570" lon="-7.2359280">
        <ele>618.4</ele>
        <time>2014-10-01T15:56:10Z</time>
      </trkpt>
      <trkpt lat="42.3697220" lon="-7.2359940">
        <ele>617.9</ele>
        <time>2014-10-01T15:56:11Z</time>
      </trkpt>
      <trkpt lat="42.3697860" lon="-7.2360630">
        <ele>617.3</ele>
        <time>2014-10-01T15:56:12Z</time>
      </trkpt>
      <trkpt lat="42.3698360" lon="-7.2361220">
        <ele>616.7</ele>
        <time>2014-10-01T15:56:13Z</time>
      </trkpt>
      <trkpt lat="42.3698740" lon="-7.2361670">
        <ele>616.3</ele>
        <time>2014-10-01T15:56:14Z</time>
      </trkpt>
      <trkpt lat="42.3699010" lon="-7.2362000">
        <ele>615.9</ele>
        <time>2014-10-01T15:56:15Z</time>
      </trkpt>
      <trkpt lat="42.3699280" lon="-7.2362310">
        <ele>615.5</ele>
        <time>2014-10-01T15:56:17Z</time>
      </trkpt>
      <trkpt lat="42.3699360" lon="-7.2362750">
        <ele>615.2</ele>
        <time>2014-10-01T15:56:48Z</time>
      </trkpt>
      <trkpt lat="42.3699430" lon="-7.2363110">
        <ele>614.9</ele>
        <time>2014-10-01T15:56:49Z</time>
      </trkpt>
      <trkpt lat="42.3699590" lon="-7.2363520">
        <ele>614.6</ele>
        <time>2014-10-01T15:56:50Z</time>
      </trkpt>
      <trkpt lat="42.3699800" lon="-7.2363990">
        <ele>614.2</ele>
        <time>2014-10-01T15:56:51Z</time>
      </trkpt>
      <trkpt lat="42.3700100" lon="-7.2364600">
        <ele>613.7</ele>
        <time>2014-10-01T15:56:52Z</time>
      </trkpt>
      <trkpt lat="42.3700430" lon="-7.2365250">
        <ele>613.2</ele>
        <time>2014-10-01T15:56:53Z</time>
      </trkpt>
      <trkpt lat="42.3700770" lon="-7.2365900">
        <ele>612.7</ele>
        <time>2014-10-01T15:56:54Z</time>
      </trkpt>
      <trkpt lat="42.3701130" lon="-7.2366560">
        <ele>612.3</ele>
        <time>2014-10-01T15:56:55Z</time>
      </trkpt>
      <trkpt lat="42.3701500" lon="-7.2367190">
        <ele>611.8</ele>
        <time>2014-10-01T15:56:56Z</time>
      </trkpt>
      <trkpt lat="42.3701840" lon="-7.2367740">
        <ele>611.4</ele>
        <time>2014-10-01T15:56:57Z</time>
      </trkpt>
      <trkpt lat="42.3702240" lon="-7.2368340">
        <ele>611.0</ele>
        <time>2014-10-01T15:56:58Z</time>
      </trkpt>
      <trkpt lat="42.3702720" lon="-7.2368970">
        <ele>610.5</ele>
        <time>2014-10-01T15:56:59Z</time>
      </trkpt>
      <trkpt lat="42.3703210" lon="-7.2369560">
        <ele>610.0</ele>
        <time>2014-10-01T15:57:00Z</time>
      </trkpt>
      <trkpt lat="42.3703700" lon="-7.2370090">
        <ele>609.5</ele>
        <time>2014-10-01T15:57:01Z</time>
      </trkpt>
      <trkpt lat="42.3704150" lon="-7.2370550">
        <ele>609.2</ele>
        <time>2014-10-01T15:57:02Z</time>
      </trkpt>
      <trkpt lat="42.3704530" lon="-7.2370970">
        <ele>608.9</ele>
        <time>2014-10-01T15:57:03Z</time>
      </trkpt>
      <trkpt lat="42.3704860" lon="-7.2371360">
        <ele>608.6</ele>
        <time>2014-10-01T15:57:04Z</time>
      </trkpt>
      <trkpt lat="42.3705100" lon="-7.2371680">
        <ele>608.4</ele>
        <time>2014-10-01T15:57:05Z</time>
      </trkpt>
      <trkpt lat="42.3705310" lon="-7.2372000">
        <ele>608.1</ele>
        <time>2014-10-01T15:57:06Z</time>
      </trkpt>
      <trkpt lat="42.3705540" lon="-7.2372540">
        <ele>607.8</ele>
        <time>2014-10-01T15:57:08Z</time>
      </trkpt>
      <trkpt lat="42.3705670" lon="-7.2372910">
        <ele>607.6</ele>
        <time>2014-10-01T15:57:09Z</time>
      </trkpt>
      <trkpt lat="42.3705800" lon="-7.2373250">
        <ele>607.3</ele>
        <time>2014-10-01T15:57:10Z</time>
      </trkpt>
      <trkpt lat="42.3705940" lon="-7.2373600">
        <ele>607.1</ele>
        <time>2014-10-01T15:57:11Z</time>
      </trkpt>
      <trkpt lat="42.3706100" lon="-7.2374010">
        <ele>606.8</ele>
        <time>2014-10-01T15:57:13Z</time>
      </trkpt>
      <trkpt lat="42.3706340" lon="-7.2374350">
        <ele>606.6</ele>
        <time>2014-10-01T15:59:17Z</time>
      </trkpt>
      <trkpt lat="42.3706450" lon="-7.2375270">
        <ele>606.0</ele>
        <time>2014-10-01T15:59:19Z</time>
      </trkpt>
      <trkpt lat="42.3706550" lon="-7.2375980">
        <ele>605.6</ele>
        <time>2014-10-01T15:59:20Z</time>
      </trkpt>
      <trkpt lat="42.3706650" lon="-7.2376780">
        <ele>605.2</ele>
        <time>2014-10-01T15:59:21Z</time>
      </trkpt>
      <trkpt lat="42.3706740" lon="-7.2377550">
        <ele>604.7</ele>
        <time>2014-10-01T15:59:22Z</time>
      </trkpt>
      <trkpt lat="42.3706800" lon="-7.2378310">
        <ele>604.3</ele>
        <time>2014-10-01T15:59:23Z</time>
      </trkpt>
      <trkpt lat="42.3706730" lon="-7.2379100">
        <ele>603.9</ele>
        <time>2014-10-01T15:59:24Z</time>
      </trkpt>
      <trkpt lat="42.3706660" lon="-7.2379900">
        <ele>603.5</ele>
        <time>2014-10-01T15:59:25Z</time>
      </trkpt>
      <trkpt lat="42.3706590" lon="-7.2380700">
        <ele>603.0</ele>
        <time>2014-10-01T15:59:26Z</time>
      </trkpt>
      <trkpt lat="42.3706500" lon="-7.2381460">
        <ele>602.6</ele>
        <time>2014-10-01T15:59:27Z</time>
      </trkpt>
      <trkpt lat="42.3706400" lon="-7.2382220">
        <ele>602.1</ele>
        <time>2014-10-01T15:59:28Z</time>
      </trkpt>
      <trkpt lat="42.3706300" lon="-7.2382980">
        <ele>601.6</ele>
        <time>2014-10-01T15:59:29Z</time>
      </trkpt>
      <trkpt lat="42.3706190" lon="-7.2383770">
        <ele>600.8</ele>
        <time>2014-10-01T15:59:30Z</time>
      </trkpt>
      <trkpt lat="42.3706140" lon="-7.2384640">
        <ele>600.2</ele>
        <time>2014-10-01T15:59:31Z</time>
      </trkpt>
      <trkpt lat="42.3706130" lon="-7.2385560">
        <ele>599.7</ele>
        <time>2014-10-01T15:59:32Z</time>
      </trkpt>
      <trkpt lat="42.3706140" lon="-7.2386530">
        <ele>599.0</ele>
        <time>2014-10-01T15:59:33Z</time>
      </trkpt>
      <trkpt lat="42.3706160" lon="-7.2387530">
        <ele>598.4</ele>
        <time>2014-10-01T15:59:34Z</time>
      </trkpt>
      <trkpt lat="42.3706210" lon="-7.2388540">
        <ele>597.7</ele>
        <time>2014-10-01T15:59:35Z</time>
      </trkpt>
      <trkpt lat="42.3706260" lon="-7.2389590">
        <ele>597.0</ele>
        <time>2014-10-01T15:59:36Z</time>
      </trkpt>
      <trkpt lat="42.3706280" lon="-7.2390690">
        <ele>596.3</ele>
        <time>2014-10-01T15:59:37Z</time>
      </trkpt>
      <trkpt lat="42.3706250" lon="-7.2391800">
        <ele>595.6</ele>
        <time>2014-10-01T15:59:38Z</time>
      </trkpt>
      <trkpt lat="42.3706170" lon="-7.2392850">
        <ele>595.0</ele>
        <time>2014-10-01T15:59:39Z</time>
      </trkpt>
      <trkpt lat="42.3706050" lon="-7.2394030">
        <ele>594.2</ele>
        <time>2014-10-01T15:59:40Z</time>
      </trkpt>
      <trkpt lat="42.3705890" lon="-7.2395210">
        <ele>593.5</ele>
        <time>2014-10-01T15:59:41Z</time>
      </trkpt>
      <trkpt lat="42.3705720" lon="-7.2396480">
        <ele>592.7</ele>
        <time>2014-10-01T15:59:42Z</time>
      </trkpt>
      <trkpt lat="42.3705540" lon="-7.2397790">
        <ele>591.8</ele>
        <time>2014-10-01T15:59:43Z</time>
      </trkpt>
      <trkpt lat="42.3705400" lon="-7.2399170">
        <ele>590.9</ele>
        <time>2014-10-01T15:59:44Z</time>
      </trkpt>
      <trkpt lat="42.3705490" lon="-7.2400480">
        <ele>590.1</ele>
        <time>2014-10-01T15:59:45Z</time>
      </trkpt>
      <trkpt lat="42.3705620" lon="-7.2401880">
        <ele>589.2</ele>
        <time>2014-10-01T15:59:46Z</time>
      </trkpt>
      <trkpt lat="42.3705850" lon="-7.2403300">
        <ele>588.3</ele>
        <time>2014-10-01T15:59:47Z</time>
      </trkpt>
      <trkpt lat="42.3706180" lon="-7.2404830">
        <ele>587.3</ele>
        <time>2014-10-01T15:59:48Z</time>
      </trkpt>
      <trkpt lat="42.3706580" lon="-7.2406380">
        <ele>586.3</ele>
        <time>2014-10-01T15:59:49Z</time>
      </trkpt>
      <trkpt lat="42.3707050" lon="-7.2408000">
        <ele>585.2</ele>
        <time>2014-10-01T15:59:50Z</time>
      </trkpt>
      <trkpt lat="42.3707540" lon="-7.2409580">
        <ele>584.0</ele>
        <time>2014-10-01T15:59:51Z</time>
      </trkpt>
      <trkpt lat="42.3708020" lon="-7.2411050">
        <ele>582.8</ele>
        <time>2014-10-01T15:59:52Z</time>
      </trkpt>
      <trkpt lat="42.3708510" lon="-7.2412440">
        <ele>581.8</ele>
        <time>2014-10-01T15:59:53Z</time>
      </trkpt>
      <trkpt lat="42.3709100" lon="-7.2413930">
        <ele>580.6</ele>
        <time>2014-10-01T15:59:54Z</time>
      </trkpt>
      <trkpt lat="42.3709730" lon="-7.2415320">
        <ele>579.5</ele>
        <time>2014-10-01T15:59:55Z</time>
      </trkpt>
      <trkpt lat="42.3710370" lon="-7.2416630">
        <ele>578.4</ele>
        <time>2014-10-01T15:59:56Z</time>
      </trkpt>
      <trkpt lat="42.3710990" lon="-7.2417980">
        <ele>577.3</ele>
        <time>2014-10-01T15:59:57Z</time>
      </trkpt>
      <trkpt lat="42.3711570" lon="-7.2419240">
        <ele>576.3</ele>
        <time>2014-10-01T15:59:58Z</time>
      </trkpt>
      <trkpt lat="42.3712030" lon="-7.2420450">
        <ele>575.3</ele>
        <time>2014-10-01T15:59:59Z</time>
      </trkpt>
      <trkpt lat="42.3712180" lon="-7.2421650">
        <ele>574.6</ele>
        <time>2014-10-01T16:00:00Z</time>
      </trkpt>
      <trkpt lat="42.3712090" lon="-7.2422990">
        <ele>573.7</ele>
        <time>2014-10-01T16:00:01Z</time>
      </trkpt>
      <trkpt lat="42.3711890" lon="-7.2424360">
        <ele>573.1</ele>
        <time>2014-10-01T16:00:02Z</time>
      </trkpt>
      <trkpt lat="42.3711360" lon="-7.2425510">
        <ele>572.8</ele>
        <time>2014-10-01T16:00:03Z</time>
      </trkpt>
      <trkpt lat="42.3710770" lon="-7.2426660">
        <ele>572.7</ele>
        <time>2014-10-01T16:00:04Z</time>
      </trkpt>
      <trkpt lat="42.3710010" lon="-7.2427500">
        <ele>572.5</ele>
        <time>2014-10-01T16:00:05Z</time>
      </trkpt>
      <trkpt lat="42.3709220" lon="-7.2428240">
        <ele>572.4</ele>
        <time>2014-10-01T16:00:06Z</time>
      </trkpt>
      <trkpt lat="42.3708310" lon="-7.2428690">
        <ele>572.1</ele>
        <time>2014-10-01T16:00:07Z</time>
      </trkpt>
      <trkpt lat="42.3707410" lon="-7.2429100">
        <ele>571.8</ele>
        <time>2014-10-01T16:00:08Z</time>
      </trkpt>
      <trkpt lat="42.3706530" lon="-7.2429490">
        <ele>571.3</ele>
        <time>2014-10-01T16:00:09Z</time>
      </trkpt>
      <trkpt lat="42.3705630" lon="-7.2429840">
        <ele>570.8</ele>
        <time>2014-10-01T16:00:10Z</time>
      </trkpt>
      <trkpt lat="42.3704730" lon="-7.2430180">
        <ele>570.1</ele>
        <time>2014-10-01T16:00:11Z</time>
      </trkpt>
      <trkpt lat="42.3703820" lon="-7.2430520">
        <ele>569.5</ele>
        <time>2014-10-01T16:00:12Z</time>
      </trkpt>
      <trkpt lat="42.3702900" lon="-7.2430860">
        <ele>568.8</ele>
        <time>2014-10-01T16:00:13Z</time>
      </trkpt>
      <trkpt lat="42.3701940" lon="-7.2431220">
        <ele>568.0</ele>
        <time>2014-10-01T16:00:14Z</time>
      </trkpt>
      <trkpt lat="42.3701040" lon="-7.2431570">
        <ele>567.2</ele>
        <time>2014-10-01T16:00:15Z</time>
      </trkpt>
      <trkpt lat="42.3700220" lon="-7.2431940">
        <ele>566.6</ele>
        <time>2014-10-01T16:00:16Z</time>
      </trkpt>
      <trkpt lat="42.3699570" lon="-7.2432640">
        <ele>565.9</ele>
        <time>2014-10-01T16:00:17Z</time>
      </trkpt>
      <trkpt lat="42.3698940" lon="-7.2433410">
        <ele>565.3</ele>
        <time>2014-10-01T16:00:18Z</time>
      </trkpt>
      <trkpt lat="42.3698610" lon="-7.2434430">
        <ele>564.6</ele>
        <time>2014-10-01T16:00:19Z</time>
      </trkpt>
      <trkpt lat="42.3698280" lon="-7.2435540">
        <ele>563.8</ele>
        <time>2014-10-01T16:00:20Z</time>
      </trkpt>
      <trkpt lat="42.3697960" lon="-7.2436750">
        <ele>563.0</ele>
        <time>2014-10-01T16:00:21Z</time>
      </trkpt>
      <trkpt lat="42.3697660" lon="-7.2437930">
        <ele>562.2</ele>
        <time>2014-10-01T16:00:22Z</time>
      </trkpt>
      <trkpt lat="42.3697560" lon="-7.2439130">
        <ele>561.3</ele>
        <time>2014-10-01T16:00:23Z</time>
      </trkpt>
      <trkpt lat="42.3697550" lon="-7.2440280">
        <ele>560.5</ele>
        <time>2014-10-01T16:00:24Z</time>
      </trkpt>
      <trkpt lat="42.3697900" lon="-7.2441440">
        <ele>559.6</ele>
        <time>2014-10-01T16:00:25Z</time>
      </trkpt>
      <trkpt lat="42.3698290" lon="-7.2442680">
        <ele>558.7</ele>
        <time>2014-10-01T16:00:26Z</time>
      </trkpt>
      <trkpt lat="42.3698650" lon="-7.2444030">
        <ele>557.8</ele>
        <time>2014-10-01T16:00:27Z</time>
      </trkpt>
      <trkpt lat="42.3698770" lon="-7.2445390">
        <ele>556.9</ele>
        <time>2014-10-01T16:00:28Z</time>
      </trkpt>
      <trkpt lat="42.3698900" lon="-7.2446760">
        <ele>556.1</ele>
        <time>2014-10-01T16:00:29Z</time>
      </trkpt>
      <trkpt lat="42.3698940" lon="-7.2448300">
        <ele>555.1</ele>
        <time>2014-10-01T16:00:30Z</time>
      </trkpt>
      <trkpt lat="42.3698900" lon="-7.2449860">
        <ele>554.0</ele>
        <time>2014-10-01T16:00:31Z</time>
      </trkpt>
      <trkpt lat="42.3698760" lon="-7.2451370">
        <ele>553.0</ele>
        <time>2014-10-01T16:00:32Z</time>
      </trkpt>
      <trkpt lat="42.3698570" lon="-7.2452830">
        <ele>552.0</ele>
        <time>2014-10-01T16:00:33Z</time>
      </trkpt>
      <trkpt lat="42.3698330" lon="-7.2454250">
        <ele>550.9</ele>
        <time>2014-10-01T16:00:34Z</time>
      </trkpt>
      <trkpt lat="42.3698050" lon="-7.2455700">
        <ele>549.9</ele>
        <time>2014-10-01T16:00:35Z</time>
      </trkpt>
      <trkpt lat="42.3697510" lon="-7.2457040">
        <ele>548.9</ele>
        <time>2014-10-01T16:00:36Z</time>
      </trkpt>
      <trkpt lat="42.3696920" lon="-7.2458290">
        <ele>548.0</ele>
        <time>2014-10-01T16:00:37Z</time>
      </trkpt>
      <trkpt lat="42.3696320" lon="-7.2459500">
        <ele>547.2</ele>
        <time>2014-10-01T16:00:38Z</time>
      </trkpt>
      <trkpt lat="42.3695820" lon="-7.2460640">
        <ele>546.3</ele>
        <time>2014-10-01T16:00:39Z</time>
      </trkpt>
      <trkpt lat="42.3695640" lon="-7.2461790">
        <ele>545.6</ele>
        <time>2014-10-01T16:00:40Z</time>
      </trkpt>
      <trkpt lat="42.3695520" lon="-7.2462990">
        <ele>544.7</ele>
        <time>2014-10-01T16:00:41Z</time>
      </trkpt>
      <trkpt lat="42.3695400" lon="-7.2464220">
        <ele>543.9</ele>
        <time>2014-10-01T16:00:42Z</time>
      </trkpt>
      <trkpt lat="42.3695280" lon="-7.2465580">
        <ele>542.9</ele>
        <time>2014-10-01T16:00:43Z</time>
      </trkpt>
      <trkpt lat="42.3695150" lon="-7.2467010">
        <ele>541.9</ele>
        <time>2014-10-01T16:00:44Z</time>
      </trkpt>
      <trkpt lat="42.3695010" lon="-7.2468460">
        <ele>540.9</ele>
        <time>2014-10-01T16:00:45Z</time>
      </trkpt>
      <trkpt lat="42.3694860" lon="-7.2469940">
        <ele>540.0</ele>
        <time>2014-10-01T16:00:46Z</time>
      </trkpt>
      <trkpt lat="42.3694730" lon="-7.2471200">
        <ele>539.4</ele>
        <time>2014-10-01T16:00:47Z</time>
      </trkpt>
      <trkpt lat="42.3694670" lon="-7.2472220">
        <ele>538.9</ele>
        <time>2014-10-01T16:00:48Z</time>
      </trkpt>
      <trkpt lat="42.3694920" lon="-7.2472900">
        <ele>538.5</ele>
        <time>2014-10-01T16:00:49Z</time>
      </trkpt>
      <trkpt lat="42.3695400" lon="-7.2473280">
        <ele>538.1</ele>
        <time>2014-10-01T16:00:50Z</time>
      </trkpt>
      <trkpt lat="42.3695790" lon="-7.2473200">
        <ele>537.8</ele>
        <time>2014-10-01T16:00:51Z</time>
      </trkpt>
      <trkpt lat="42.3696110" lon="-7.2472670">
        <ele>537.4</ele>
        <time>2014-10-01T16:00:52Z</time>
      </trkpt>
      <trkpt lat="42.3696160" lon="-7.2472010">
        <ele>537.0</ele>
        <time>2014-10-01T16:00:53Z</time>
      </trkpt>
      <trkpt lat="42.3696200" lon="-7.2471190">
        <ele>536.6</ele>
        <time>2014-10-01T16:00:54Z</time>
      </trkpt>
      <trkpt lat="42.3696220" lon="-7.2470190">
        <ele>536.1</ele>
        <time>2014-10-01T16:00:55Z</time>
      </trkpt>
      <trkpt lat="42.3696300" lon="-7.2469170">
        <ele>535.6</ele>
        <time>2014-10-01T16:00:56Z</time>
      </trkpt>
      <trkpt lat="42.3696610" lon="-7.2468150">
        <ele>535.1</ele>
        <time>2014-10-01T16:00:57Z</time>
      </trkpt>
      <trkpt lat="42.3697000" lon="-7.2467210">
        <ele>534.6</ele>
        <time>2014-10-01T16:00:58Z</time>
      </trkpt>
      <trkpt lat="42.3697480" lon="-7.2466210">
        <ele>534.1</ele>
        <time>2014-10-01T16:00:59Z</time>
      </trkpt>
      <trkpt lat="42.3697980" lon="-7.2465290">
        <ele>533.5</ele>
        <time>2014-10-01T16:01:00Z</time>
      </trkpt>
      <trkpt lat="42.3698490" lon="-7.2464320">
        <ele>532.9</ele>
        <time>2014-10-01T16:01:01Z</time>
      </trkpt>
      <trkpt lat="42.3699010" lon="-7.2463340">
        <ele>532.1</ele>
        <time>2014-10-01T16:01:02Z</time>
      </trkpt>
      <trkpt lat="42.3699610" lon="-7.2462330">
        <ele>531.3</ele>
        <time>2014-10-01T16:01:03Z</time>
      </trkpt>
      <trkpt lat="42.3700290" lon="-7.2461360">
        <ele>530.4</ele>
        <time>2014-10-01T16:01:04Z</time>
      </trkpt>
      <trkpt lat="42.3701000" lon="-7.2460380">
        <ele>529.4</ele>
        <time>2014-10-01T16:01:05Z</time>
      </trkpt>
      <trkpt lat="42.3701730" lon="-7.2459270">
        <ele>528.4</ele>
        <time>2014-10-01T16:01:06Z</time>
      </trkpt>
      <trkpt lat="42.3702370" lon="-7.2458170">
        <ele>527.4</ele>
        <time>2014-10-01T16:01:07Z</time>
      </trkpt>
      <trkpt lat="42.3702980" lon="-7.2456970">
        <ele>526.4</ele>
        <time>2014-10-01T16:01:08Z</time>
      </trkpt>
      <trkpt lat="42.3703540" lon="-7.2455650">
        <ele>525.3</ele>
        <time>2014-10-01T16:01:09Z</time>
      </trkpt>
      <trkpt lat="42.3704130" lon="-7.2454170">
        <ele>524.2</ele>
        <time>2014-10-01T16:01:10Z</time>
      </trkpt>
      <trkpt lat="42.3704730" lon="-7.2452660">
        <ele>523.1</ele>
        <time>2014-10-01T16:01:11Z</time>
      </trkpt>
      <trkpt lat="42.3705340" lon="-7.2451210">
        <ele>522.1</ele>
        <time>2014-10-01T16:01:12Z</time>
      </trkpt>
      <trkpt lat="42.3705920" lon="-7.2449840">
        <ele>520.9</ele>
        <time>2014-10-01T16:01:13Z</time>
      </trkpt>
      <trkpt lat="42.3706570" lon="-7.2448530">
        <ele>519.8</ele>
        <time>2014-10-01T16:01:14Z</time>
      </trkpt>
      <trkpt lat="42.3707300" lon="-7.2447570">
        <ele>518.8</ele>
        <time>2014-10-01T16:01:15Z</time>
      </trkpt>
      <trkpt lat="42.3708070" lon="-7.2446710">
        <ele>517.8</ele>
        <time>2014-10-01T16:01:16Z</time>
      </trkpt>
      <trkpt lat="42.3708980" lon="-7.2446410">
        <ele>517.0</ele>
        <time>2014-10-01T16:01:17Z</time>
      </trkpt>
      <trkpt lat="42.3709890" lon="-7.2446480">
        <ele>516.4</ele>
        <time>2014-10-01T16:01:18Z</time>
      </trkpt>
      <trkpt lat="42.3710830" lon="-7.2446540">
        <ele>515.6</ele>
        <time>2014-10-01T16:01:19Z</time>
      </trkpt>
      <trkpt lat="42.3711700" lon="-7.2446680">
        <ele>514.8</ele>
        <time>2014-10-01T16:01:20Z</time>
      </trkpt>
      <trkpt lat="42.3712640" lon="-7.2446700">
        <ele>514.0</ele>
        <time>2014-10-01T16:01:21Z</time>
      </trkpt>
      <trkpt lat="42.3713620" lon="-7.2446320">
        <ele>513.0</ele>
        <time>2014-10-01T16:01:22Z</time>
      </trkpt>
      <trkpt lat="42.3714670" lon="-7.2445800">
        <ele>511.9</ele>
        <time>2014-10-01T16:01:23Z</time>
      </trkpt>
      <trkpt lat="42.3715670" lon="-7.2445140">
        <ele>510.8</ele>
        <time>2014-10-01T16:01:24Z</time>
      </trkpt>
      <trkpt lat="42.3716560" lon="-7.2444130">
        <ele>509.7</ele>
        <time>2014-10-01T16:01:25Z</time>
      </trkpt>
      <trkpt lat="42.3717460" lon="-7.2443040">
        <ele>508.6</ele>
        <time>2014-10-01T16:01:26Z</time>
      </trkpt>
      <trkpt lat="42.3718350" lon="-7.2441810">
        <ele>507.3</ele>
        <time>2014-10-01T16:01:27Z</time>
      </trkpt>
      <trkpt lat="42.3719220" lon="-7.2440600">
        <ele>506.1</ele>
        <time>2014-10-01T16:01:28Z</time>
      </trkpt>
      <trkpt lat="42.3720110" lon="-7.2439440">
        <ele>504.9</ele>
        <time>2014-10-01T16:01:29Z</time>
      </trkpt>
      <trkpt lat="42.3721120" lon="-7.2438300">
        <ele>503.6</ele>
        <time>2014-10-01T16:01:30Z</time>
      </trkpt>
      <trkpt lat="42.3722180" lon="-7.2437280">
        <ele>502.3</ele>
        <time>2014-10-01T16:01:31Z</time>
      </trkpt>
      <trkpt lat="42.3723290" lon="-7.2436340">
        <ele>501.2</ele>
        <time>2014-10-01T16:01:32Z</time>
      </trkpt>
      <trkpt lat="42.3724520" lon="-7.2435420">
        <ele>500.0</ele>
        <time>2014-10-01T16:01:33Z</time>
      </trkpt>
      <trkpt lat="42.3725790" lon="-7.2434580">
        <ele>498.9</ele>
        <time>2014-10-01T16:01:34Z</time>
      </trkpt>
      <trkpt lat="42.3727070" lon="-7.2433840">
        <ele>497.7</ele>
        <time>2014-10-01T16:01:35Z</time>
      </trkpt>
      <trkpt lat="42.3728270" lon="-7.2433210">
        <ele>496.7</ele>
        <time>2014-10-01T16:01:36Z</time>
      </trkpt>
      <trkpt lat="42.3729370" lon="-7.2432590">
        <ele>495.7</ele>
        <time>2014-10-01T16:01:37Z</time>
      </trkpt>
      <trkpt lat="42.3730470" lon="-7.2431800">
        <ele>494.6</ele>
        <time>2014-10-01T16:01:38Z</time>
      </trkpt>
      <trkpt lat="42.3731400" lon="-7.2430670">
        <ele>493.5</ele>
        <time>2014-10-01T16:01:39Z</time>
      </trkpt>
      <trkpt lat="42.3732240" lon="-7.2429510">
        <ele>492.5</ele>
        <time>2014-10-01T16:01:40Z</time>
      </trkpt>
      <trkpt lat="42.3733040" lon="-7.2428230">
        <ele>491.5</ele>
        <time>2014-10-01T16:01:41Z</time>
      </trkpt>
      <trkpt lat="42.3733750" lon="-7.2426880">
        <ele>490.5</ele>
        <time>2014-10-01T16:01:42Z</time>
      </trkpt>
      <trkpt lat="42.3734410" lon="-7.2425420">
        <ele>489.5</ele>
        <time>2014-10-01T16:01:43Z</time>
      </trkpt>
      <trkpt lat="42.3734980" lon="-7.2423950">
        <ele>488.5</ele>
        <time>2014-10-01T16:01:44Z</time>
      </trkpt>
      <trkpt lat="42.3735550" lon="-7.2422530">
        <ele>487.4</ele>
        <time>2014-10-01T16:01:45Z</time>
      </trkpt>
      <trkpt lat="42.3736080" lon="-7.2421260">
        <ele>486.3</ele>
        <time>2014-10-01T16:01:46Z</time>
      </trkpt>
      <trkpt lat="42.3736640" lon="-7.2420130">
        <ele>485.3</ele>
        <time>2014-10-01T16:01:47Z</time>
      </trkpt>
      <trkpt lat="42.3737050" lon="-7.2419160">
        <ele>484.5</ele>
        <time>2014-10-01T16:01:48Z</time>
      </trkpt>
      <trkpt lat="42.3737230" lon="-7.2417920">
        <ele>483.6</ele>
        <time>2014-10-01T16:01:49Z</time>
      </trkpt>
      <trkpt lat="42.3737090" lon="-7.2416580">
        <ele>482.8</ele>
        <time>2014-10-01T16:01:50Z</time>
      </trkpt>
      <trkpt lat="42.3736650" lon="-7.2415180">
        <ele>481.9</ele>
        <time>2014-10-01T16:01:51Z</time>
      </trkpt>
      <trkpt lat="42.3736140" lon="-7.2413890">
        <ele>481.1</ele>
        <time>2014-10-01T16:01:52Z</time>
      </trkpt>
      <trkpt lat="42.3735610" lon="-7.2412680">
        <ele>480.2</ele>
        <time>2014-10-01T16:01:53Z</time>
      </trkpt>
      <trkpt lat="42.3734950" lon="-7.2411410">
        <ele>479.1</ele>
        <time>2014-10-01T16:01:54Z</time>
      </trkpt>
      <trkpt lat="42.3734250" lon="-7.2410200">
        <ele>478.0</ele>
        <time>2014-10-01T16:01:55Z</time>
      </trkpt>
      <trkpt lat="42.3733490" lon="-7.2408960">
        <ele>477.0</ele>
        <time>2014-10-01T16:01:56Z</time>
      </trkpt>
      <trkpt lat="42.3732690" lon="-7.2407730">
        <ele>475.9</ele>
        <time>2014-10-01T16:01:57Z</time>
      </trkpt>
      <trkpt lat="42.3731960" lon="-7.2406530">
        <ele>475.0</ele>
        <time>2014-10-01T16:01:58Z</time>
      </trkpt>
      <trkpt lat="42.3731500" lon="-7.2405130">
        <ele>474.1</ele>
        <time>2014-10-01T16:01:59Z</time>
      </trkpt>
      <trkpt lat="42.3731130" lon="-7.2403830">
        <ele>473.4</ele>
        <time>2014-10-01T16:02:00Z</time>
      </trkpt>
      <trkpt lat="42.3730810" lon="-7.2402640">
        <ele>472.7</ele>
        <time>2014-10-01T16:02:01Z</time>
      </trkpt>
      <trkpt lat="42.3730460" lon="-7.2401600">
        <ele>472.2</ele>
        <time>2014-10-01T16:02:02Z</time>
      </trkpt>
      <trkpt lat="42.3729780" lon="-7.2400720">
        <ele>471.7</ele>
        <time>2014-10-01T16:02:03Z</time>
      </trkpt>
      <trkpt lat="42.3729060" lon="-7.2399950">
        <ele>471.2</ele>
        <time>2014-10-01T16:02:04Z</time>
      </trkpt>
      <trkpt lat="42.3728330" lon="-7.2399280">
        <ele>470.7</ele>
        <time>2014-10-01T16:02:05Z</time>
      </trkpt>
      <trkpt lat="42.3727600" lon="-7.2398590">
        <ele>470.1</ele>
        <time>2014-10-01T16:02:06Z</time>
      </trkpt>
      <trkpt lat="42.3727110" lon="-7.2397640">
        <ele>469.6</ele>
        <time>2014-10-01T16:02:07Z</time>
      </trkpt>
      <trkpt lat="42.3726890" lon="-7.2396590">
        <ele>469.0</ele>
        <time>2014-10-01T16:02:08Z</time>
      </trkpt>
      <trkpt lat="42.3726890" lon="-7.2395470">
        <ele>468.3</ele>
        <time>2014-10-01T16:02:09Z</time>
      </trkpt>
      <trkpt lat="42.3726940" lon="-7.2394320">
        <ele>467.6</ele>
        <time>2014-10-01T16:02:10Z</time>
      </trkpt>
      <trkpt lat="42.3727020" lon="-7.2393080">
        <ele>466.8</ele>
        <time>2014-10-01T16:02:11Z</time>
      </trkpt>
      <trkpt lat="42.3727080" lon="-7.2391740">
        <ele>466.0</ele>
        <time>2014-10-01T16:02:12Z</time>
      </trkpt>
      <trkpt lat="42.3727150" lon="-7.2390380">
        <ele>465.1</ele>
        <time>2014-10-01T16:02:13Z</time>
      </trkpt>
      <trkpt lat="42.3727210" lon="-7.2388920">
        <ele>464.1</ele>
        <time>2014-10-01T16:02:14Z</time>
      </trkpt>
      <trkpt lat="42.3727280" lon="-7.2387390">
        <ele>463.0</ele>
        <time>2014-10-01T16:02:15Z</time>
      </trkpt>
      <trkpt lat="42.3727350" lon="-7.2385760">
        <ele>461.8</ele>
        <time>2014-10-01T16:02:16Z</time>
      </trkpt>
      <trkpt lat="42.3727460" lon="-7.2384100">
        <ele>460.6</ele>
        <time>2014-10-01T16:02:17Z</time>
      </trkpt>
      <trkpt lat="42.3727640" lon="-7.2382420">
        <ele>459.5</ele>
        <time>2014-10-01T16:02:18Z</time>
      </trkpt>
      <trkpt lat="42.3727900" lon="-7.2380770">
        <ele>458.5</ele>
        <time>2014-10-01T16:02:19Z</time>
      </trkpt>
      <trkpt lat="42.3728160" lon="-7.2379130">
        <ele>457.6</ele>
        <time>2014-10-01T16:02:20Z</time>
      </trkpt>
      <trkpt lat="42.3728390" lon="-7.2377600">
        <ele>456.7</ele>
        <time>2014-10-01T16:02:21Z</time>
      </trkpt>
      <trkpt lat="42.3728550" lon="-7.2376080">
        <ele>455.9</ele>
        <time>2014-10-01T16:02:22Z</time>
      </trkpt>
      <trkpt lat="42.3728330" lon="-7.2374580">
        <ele>455.0</ele>
        <time>2014-10-01T16:02:23Z</time>
      </trkpt>
      <trkpt lat="42.3728050" lon="-7.2373160">
        <ele>454.1</ele>
        <time>2014-10-01T16:02:24Z</time>
      </trkpt>
      <trkpt lat="42.3727670" lon="-7.2371680">
        <ele>452.6</ele>
        <time>2014-10-01T16:02:25Z</time>
      </trkpt>
      <trkpt lat="42.3727050" lon="-7.2370340">
        <ele>451.5</ele>
        <time>2014-10-01T16:02:26Z</time>
      </trkpt>
      <trkpt lat="42.3726400" lon="-7.2368940">
        <ele>450.4</ele>
        <time>2014-10-01T16:02:27Z</time>
      </trkpt>
      <trkpt lat="42.3725760" lon="-7.2367570">
        <ele>449.3</ele>
        <time>2014-10-01T16:02:28Z</time>
      </trkpt>
      <trkpt lat="42.3725120" lon="-7.2366200">
        <ele>448.2</ele>
        <time>2014-10-01T16:02:29Z</time>
      </trkpt>
      <trkpt lat="42.3724500" lon="-7.2364890">
        <ele>447.4</ele>
        <time>2014-10-01T16:02:30Z</time>
      </trkpt>
      <trkpt lat="42.3723920" lon="-7.2363570">
        <ele>446.7</ele>
        <time>2014-10-01T16:02:31Z</time>
      </trkpt>
      <trkpt lat="42.3723350" lon="-7.2362270">
        <ele>446.1</ele>
        <time>2014-10-01T16:02:32Z</time>
      </trkpt>
      <trkpt lat="42.3722790" lon="-7.2361100">
        <ele>445.6</ele>
        <time>2014-10-01T16:02:33Z</time>
      </trkpt>
      <trkpt lat="42.3722030" lon="-7.2360230">
        <ele>445.2</ele>
        <time>2014-10-01T16:02:34Z</time>
      </trkpt>
      <trkpt lat="42.3721100" lon="-7.2359670">
        <ele>444.7</ele>
        <time>2014-10-01T16:02:35Z</time>
      </trkpt>
      <trkpt lat="42.3720170" lon="-7.2359130">
        <ele>444.3</ele>
        <time>2014-10-01T16:02:36Z</time>
      </trkpt>
      <trkpt lat="42.3719400" lon="-7.2358310">
        <ele>443.8</ele>
        <time>2014-10-01T16:02:37Z</time>
      </trkpt>
      <trkpt lat="42.3718690" lon="-7.2357410">
        <ele>443.3</ele>
        <time>2014-10-01T16:02:38Z</time>
      </trkpt>
      <trkpt lat="42.3718280" lon="-7.2356300">
        <ele>442.9</ele>
        <time>2014-10-01T16:02:39Z</time>
      </trkpt>
      <trkpt lat="42.3717940" lon="-7.2355160">
        <ele>442.5</ele>
        <time>2014-10-01T16:02:40Z</time>
      </trkpt>
      <trkpt lat="42.3718000" lon="-7.2353870">
        <ele>442.0</ele>
        <time>2014-10-01T16:02:41Z</time>
      </trkpt>
      <trkpt lat="42.3718300" lon="-7.2352710">
        <ele>441.7</ele>
        <time>2014-10-01T16:02:42Z</time>
      </trkpt>
      <trkpt lat="42.3718670" lon="-7.2351620">
        <ele>441.4</ele>
        <time>2014-10-01T16:02:43Z</time>
      </trkpt>
      <trkpt lat="42.3719070" lon="-7.2350560">
        <ele>440.9</ele>
        <time>2014-10-01T16:02:44Z</time>
      </trkpt>
      <trkpt lat="42.3719480" lon="-7.2349470">
        <ele>440.3</ele>
        <time>2014-10-01T16:02:45Z</time>
      </trkpt>
      <trkpt lat="42.3719840" lon="-7.2348330">
        <ele>439.8</ele>
        <time>2014-10-01T16:02:46Z</time>
      </trkpt>
      <trkpt lat="42.3720190" lon="-7.2347110">
        <ele>439.3</ele>
        <time>2014-10-01T16:02:47Z</time>
      </trkpt>
      <trkpt lat="42.3720460" lon="-7.2345870">
        <ele>438.9</ele>
        <time>2014-10-01T16:02:48Z</time>
      </trkpt>
      <trkpt lat="42.3720700" lon="-7.2344620">
        <ele>438.4</ele>
        <time>2014-10-01T16:02:49Z</time>
      </trkpt>
      <trkpt lat="42.3720930" lon="-7.2343380">
        <ele>437.9</ele>
        <time>2014-10-01T16:02:50Z</time>
      </trkpt>
      <trkpt lat="42.3721200" lon="-7.2342130">
        <ele>437.3</ele>
        <time>2014-10-01T16:02:51Z</time>
      </trkpt>
      <trkpt lat="42.3721510" lon="-7.2340920">
        <ele>436.7</ele>
        <time>2014-10-01T16:02:52Z</time>
      </trkpt>
      <trkpt lat="42.3721830" lon="-7.2339760">
        <ele>436.0</ele>
        <time>2014-10-01T16:02:53Z</time>
      </trkpt>
      <trkpt lat="42.3722110" lon="-7.2338470">
        <ele>435.2</ele>
        <time>2014-10-01T16:02:54Z</time>
      </trkpt>
      <trkpt lat="42.3722360" lon="-7.2337100">
        <ele>434.6</ele>
        <time>2014-10-01T16:02:55Z</time>
      </trkpt>
      <trkpt lat="42.3722570" lon="-7.2335820">
        <ele>434.0</ele>
        <time>2014-10-01T16:02:56Z</time>
      </trkpt>
      <trkpt lat="42.3722460" lon="-7.2334490">
        <ele>433.3</ele>
        <time>2014-10-01T16:02:57Z</time>
      </trkpt>
      <trkpt lat="42.3722260" lon="-7.2333110">
        <ele>432.6</ele>
        <time>2014-10-01T16:02:58Z</time>
      </trkpt>
      <trkpt lat="42.3722110" lon="-7.2331640">
        <ele>431.9</ele>
        <time>2014-10-01T16:02:59Z</time>
      </trkpt>
      <trkpt lat="42.3722180" lon="-7.2330150">
        <ele>431.1</ele>
        <time>2014-10-01T16:03:00Z</time>
      </trkpt>
      <trkpt lat="42.3722440" lon="-7.2328880">
        <ele>430.4</ele>
        <time>2014-10-01T16:03:01Z</time>
      </trkpt>
      <trkpt lat="42.3722980" lon="-7.2327690">
        <ele>429.7</ele>
        <time>2014-10-01T16:03:02Z</time>
      </trkpt>
      <trkpt lat="42.3723580" lon="-7.2326550">
        <ele>429.0</ele>
        <time>2014-10-01T16:03:03Z</time>
      </trkpt>
      <trkpt lat="42.3724220" lon="-7.2325420">
        <ele>428.3</ele>
        <time>2014-10-01T16:03:04Z</time>
      </trkpt>
      <trkpt lat="42.3724910" lon="-7.2324360">
        <ele>427.7</ele>
        <time>2014-10-01T16:03:05Z</time>
      </trkpt>
      <trkpt lat="42.3725790" lon="-7.2323690">
        <ele>427.0</ele>
        <time>2014-10-01T16:03:06Z</time>
      </trkpt>
      <trkpt lat="42.3726760" lon="-7.2323330">
        <ele>426.4</ele>
        <time>2014-10-01T16:03:07Z</time>
      </trkpt>
      <trkpt lat="42.3727710" lon="-7.2323020">
        <ele>425.8</ele>
        <time>2014-10-01T16:03:08Z</time>
      </trkpt>
      <trkpt lat="42.3728420" lon="-7.2322790">
        <ele>425.1</ele>
        <time>2014-10-01T16:03:09Z</time>
      </trkpt>
      <trkpt lat="42.3728950" lon="-7.2322120">
        <ele>424.4</ele>
        <time>2014-10-01T16:03:10Z</time>
      </trkpt>
      <trkpt lat="42.3729180" lon="-7.2321500">
        <ele>423.9</ele>
        <time>2014-10-01T16:03:11Z</time>
      </trkpt>
      <trkpt lat="42.3729140" lon="-7.2320610">
        <ele>423.2</ele>
        <time>2014-10-01T16:03:12Z</time>
      </trkpt>
      <trkpt lat="42.3728830" lon="-7.2319750">
        <ele>422.5</ele>
        <time>2014-10-01T16:03:13Z</time>
      </trkpt>
      <trkpt lat="42.3728340" lon="-7.2318920">
        <ele>421.7</ele>
        <time>2014-10-01T16:03:14Z</time>
      </trkpt>
      <trkpt lat="42.3727830" lon="-7.2317980">
        <ele>420.8</ele>
        <time>2014-10-01T16:03:15Z</time>
      </trkpt>
      <trkpt lat="42.3727230" lon="-7.2316890">
        <ele>419.9</ele>
        <time>2014-10-01T16:03:16Z</time>
      </trkpt>
      <trkpt lat="42.3726580" lon="-7.2315770">
        <ele>419.0</ele>
        <time>2014-10-01T16:03:17Z</time>
      </trkpt>
      <trkpt lat="42.3725970" lon="-7.2314730">
        <ele>418.2</ele>
        <time>2014-10-01T16:03:18Z</time>
      </trkpt>
      <trkpt lat="42.3725310" lon="-7.2313670">
        <ele>417.3</ele>
        <time>2014-10-01T16:03:19Z</time>
      </trkpt>
      <trkpt lat="42.3724570" lon="-7.2312600">
        <ele>416.4</ele>
        <time>2014-10-01T16:03:20Z</time>
      </trkpt>
      <trkpt lat="42.3723780" lon="-7.2311530">
        <ele>415.5</ele>
        <time>2014-10-01T16:03:21Z</time>
      </trkpt>
      <trkpt lat="42.3722980" lon="-7.2310420">
        <ele>414.5</ele>
        <time>2014-10-01T16:03:22Z</time>
      </trkpt>
      <trkpt lat="42.3722170" lon="-7.2309270">
        <ele>413.3</ele>
        <time>2014-10-01T16:03:23Z</time>
      </trkpt>
      <trkpt lat="42.3721350" lon="-7.2308050">
        <ele>412.3</ele>
        <time>2014-10-01T16:03:24Z</time>
      </trkpt>
      <trkpt lat="42.3720530" lon="-7.2306820">
        <ele>411.2</ele>
        <time>2014-10-01T16:03:25Z</time>
      </trkpt>
      <trkpt lat="42.3719680" lon="-7.2305610">
        <ele>410.2</ele>
        <time>2014-10-01T16:03:26Z</time>
      </trkpt>
      <trkpt lat="42.3718830" lon="-7.2304420">
        <ele>409.1</ele>
        <time>2014-10-01T16:03:27Z</time>
      </trkpt>
      <trkpt lat="42.3717910" lon="-7.2303270">
        <ele>408.1</ele>
        <time>2014-10-01T16:03:28Z</time>
      </trkpt>
      <trkpt lat="42.3716980" lon="-7.2302180">
        <ele>407.1</ele>
        <time>2014-10-01T16:03:29Z</time>
      </trkpt>
      <trkpt lat="42.3716030" lon="-7.2301240">
        <ele>406.2</ele>
        <time>2014-10-01T16:03:30Z</time>
      </trkpt>
      <trkpt lat="42.3714960" lon="-7.2300630">
        <ele>405.3</ele>
        <time>2014-10-01T16:03:31Z</time>
      </trkpt>
      <trkpt lat="42.3713900" lon="-7.2300060">
        <ele>404.5</ele>
        <time>2014-10-01T16:03:32Z</time>
      </trkpt>
      <trkpt lat="42.3712790" lon="-7.2299860">
        <ele>403.8</ele>
        <time>2014-10-01T16:03:33Z</time>
      </trkpt>
      <trkpt lat="42.3711680" lon="-7.2299990">
        <ele>403.1</ele>
        <time>2014-10-01T16:03:34Z</time>
      </trkpt>
      <trkpt lat="42.3710550" lon="-7.2300130">
        <ele>402.2</ele>
        <time>2014-10-01T16:03:35Z</time>
      </trkpt>
      <trkpt lat="42.3709420" lon="-7.2300310">
        <ele>401.4</ele>
        <time>2014-10-01T16:03:36Z</time>
      </trkpt>
      <trkpt lat="42.3708310" lon="-7.2300450">
        <ele>400.5</ele>
        <time>2014-10-01T16:03:37Z</time>
      </trkpt>
      <trkpt lat="42.3707180" lon="-7.2300540">
        <ele>399.6</ele>
        <time>2014-10-01T16:03:38Z</time>
      </trkpt>
      <trkpt lat="42.3706040" lon="-7.2300610">
        <ele>398.8</ele>
        <time>2014-10-01T16:03:39Z</time>
      </trkpt>
      <trkpt lat="42.3704870" lon="-7.2300670">
        <ele>398.0</ele>
        <time>2014-10-01T16:03:40Z</time>
      </trkpt>
      <trkpt lat="42.3703680" lon="-7.2300700">
        <ele>397.0</ele>
        <time>2014-10-01T16:03:41Z</time>
      </trkpt>
      <trkpt lat="42.3702480" lon="-7.2300730">
        <ele>396.1</ele>
        <time>2014-10-01T16:03:42Z</time>
      </trkpt>
      <trkpt lat="42.3701240" lon="-7.2300730">
        <ele>395.2</ele>
        <time>2014-10-01T16:03:43Z</time>
      </trkpt>
      <trkpt lat="42.3700020" lon="-7.2300740">
        <ele>394.2</ele>
        <time>2014-10-01T16:03:44Z</time>
      </trkpt>
      <trkpt lat="42.3698810" lon="-7.2300760">
        <ele>393.3</ele>
        <time>2014-10-01T16:03:45Z</time>
      </trkpt>
      <trkpt lat="42.3697620" lon="-7.2300830">
        <ele>392.4</ele>
        <time>2014-10-01T16:03:46Z</time>
      </trkpt>
      <trkpt lat="42.3696500" lon="-7.2300940">
        <ele>391.5</ele>
        <time>2014-10-01T16:03:47Z</time>
      </trkpt>
      <trkpt lat="42.3695560" lon="-7.2301130">
        <ele>390.9</ele>
        <time>2014-10-01T16:03:48Z</time>
      </trkpt>
      <trkpt lat="42.3694830" lon="-7.2301290">
        <ele>390.3</ele>
        <time>2014-10-01T16:03:49Z</time>
      </trkpt>
      <trkpt lat="42.3694280" lon="-7.2301170">
        <ele>389.8</ele>
        <time>2014-10-01T16:03:50Z</time>
      </trkpt>
      <trkpt lat="42.3694220" lon="-7.2300770">
        <ele>389.5</ele>
        <time>2014-10-01T16:03:52Z</time>
      </trkpt>
      <trkpt lat="42.3694660" lon="-7.2300610">
        <ele>388.9</ele>
        <time>2014-10-01T16:03:53Z</time>
      </trkpt>
      <trkpt lat="42.3695190" lon="-7.2300580">
        <ele>388.4</ele>
        <time>2014-10-01T16:03:54Z</time>
      </trkpt>
      <trkpt lat="42.3695780" lon="-7.2300530">
        <ele>387.8</ele>
        <time>2014-10-01T16:03:55Z</time>
      </trkpt>
      <trkpt lat="42.3696520" lon="-7.2300410">
        <ele>387.1</ele>
        <time>2014-10-01T16:03:56Z</time>
      </trkpt>
      <trkpt lat="42.3697330" lon="-7.2300280">
        <ele>386.3</ele>
        <time>2014-10-01T16:03:57Z</time>
      </trkpt>
      <trkpt lat="42.3698110" lon="-7.2300140">
        <ele>385.6</ele>
        <time>2014-10-01T16:03:58Z</time>
      </trkpt>
      <trkpt lat="42.3698990" lon="-7.2299920">
        <ele>384.7</ele>
        <time>2014-10-01T16:03:59Z</time>
      </trkpt>
      <trkpt lat="42.3699910" lon="-7.2299660">
        <ele>383.8</ele>
        <time>2014-10-01T16:04:00Z</time>
      </trkpt>
      <trkpt lat="42.3700910" lon="-7.2299340">
        <ele>382.7</ele>
        <time>2014-10-01T16:04:01Z</time>
      </trkpt>
      <trkpt lat="42.3701930" lon="-7.2298970">
        <ele>381.5</ele>
        <time>2014-10-01T16:04:02Z</time>
      </trkpt>
      <trkpt lat="42.3702940" lon="-7.2298570">
        <ele>380.4</ele>
        <time>2014-10-01T16:04:03Z</time>
      </trkpt>
      <trkpt lat="42.3703980" lon="-7.2298120">
        <ele>379.3</ele>
        <time>2014-10-01T16:04:04Z</time>
      </trkpt>
      <trkpt lat="42.3705080" lon="-7.2297640">
        <ele>378.1</ele>
        <time>2014-10-01T16:04:05Z</time>
      </trkpt>
      <trkpt lat="42.3706220" lon="-7.2297150">
        <ele>377.0</ele>
        <time>2014-10-01T16:04:06Z</time>
      </trkpt>
      <trkpt lat="42.3707400" lon="-7.2296670">
        <ele>375.7</ele>
        <time>2014-10-01T16:04:07Z</time>
      </trkpt>
      <trkpt lat="42.3708660" lon="-7.2296160">
        <ele>374.3</ele>
        <time>2014-10-01T16:04:08Z</time>
      </trkpt>
      <trkpt lat="42.3709850" lon="-7.2295560">
        <ele>373.0</ele>
        <time>2014-10-01T16:04:09Z</time>
      </trkpt>
      <trkpt lat="42.3710980" lon="-7.2294890">
        <ele>371.7</ele>
        <time>2014-10-01T16:04:10Z</time>
      </trkpt>
      <trkpt lat="42.3712040" lon="-7.2294240">
        <ele>370.5</ele>
        <time>2014-10-01T16:04:11Z</time>
      </trkpt>
      <trkpt lat="42.3713160" lon="-7.2293630">
        <ele>369.2</ele>
        <time>2014-10-01T16:04:12Z</time>
      </trkpt>
      <trkpt lat="42.3714300" lon="-7.2293140">
        <ele>368.1</ele>
        <time>2014-10-01T16:04:13Z</time>
      </trkpt>
      <trkpt lat="42.3715480" lon="-7.2292790">
        <ele>367.1</ele>
        <time>2014-10-01T16:04:14Z</time>
      </trkpt>
      <trkpt lat="42.3716740" lon="-7.2292870">
        <ele>366.0</ele>
        <time>2014-10-01T16:04:15Z</time>
      </trkpt>
      <trkpt lat="42.3717960" lon="-7.2293000">
        <ele>365.0</ele>
        <time>2014-10-01T16:04:16Z</time>
      </trkpt>
      <trkpt lat="42.3719120" lon="-7.2293200">
        <ele>364.0</ele>
        <time>2014-10-01T16:04:17Z</time>
      </trkpt>
      <trkpt lat="42.3720200" lon="-7.2293470">
        <ele>363.0</ele>
        <time>2014-10-01T16:04:18Z</time>
      </trkpt>
      <trkpt lat="42.3721200" lon="-7.2294110">
        <ele>362.1</ele>
        <time>2014-10-01T16:04:19Z</time>
      </trkpt>
      <trkpt lat="42.3722160" lon="-7.2294880">
        <ele>361.2</ele>
        <time>2014-10-01T16:04:20Z</time>
      </trkpt>
      <trkpt lat="42.3723020" lon="-7.2296060">
        <ele>360.1</ele>
        <time>2014-10-01T16:04:21Z</time>
      </trkpt>
      <trkpt lat="42.3723950" lon="-7.2297300">
        <ele>359.1</ele>
        <time>2014-10-01T16:04:22Z</time>
      </trkpt>
      <trkpt lat="42.3724900" lon="-7.2298460">
        <ele>358.0</ele>
        <time>2014-10-01T16:04:23Z</time>
      </trkpt>
      <trkpt lat="42.3725820" lon="-7.2299560">
        <ele>356.9</ele>
        <time>2014-10-01T16:04:24Z</time>
      </trkpt>
      <trkpt lat="42.3726750" lon="-7.2300650">
        <ele>355.8</ele>
        <time>2014-10-01T16:04:25Z</time>
      </trkpt>
      <trkpt lat="42.3727660" lon="-7.2301710">
        <ele>354.8</ele>
        <time>2014-10-01T16:04:26Z</time>
      </trkpt>
      <trkpt lat="42.3728600" lon="-7.2302790">
        <ele>353.6</ele>
        <time>2014-10-01T16:04:27Z</time>
      </trkpt>
      <trkpt lat="42.3729580" lon="-7.2303840">
        <ele>352.5</ele>
        <time>2014-10-01T16:04:28Z</time>
      </trkpt>
      <trkpt lat="42.3730570" lon="-7.2304910">
        <ele>351.4</ele>
        <time>2014-10-01T16:04:29Z</time>
      </trkpt>
      <trkpt lat="42.3731560" lon="-7.2306010">
        <ele>350.3</ele>
        <time>2014-10-01T16:04:30Z</time>
      </trkpt>
      <trkpt lat="42.3732550" lon="-7.2307120">
        <ele>349.2</ele>
        <time>2014-10-01T16:04:31Z</time>
      </trkpt>
      <trkpt lat="42.3733590" lon="-7.2308160">
        <ele>348.2</ele>
        <time>2014-10-01T16:04:32Z</time>
      </trkpt>
      <trkpt lat="42.3734590" lon="-7.2309050">
        <ele>347.2</ele>
        <time>2014-10-01T16:04:33Z</time>
      </trkpt>
      <trkpt lat="42.3735640" lon="-7.2309870">
        <ele>346.2</ele>
        <time>2014-10-01T16:04:34Z</time>
      </trkpt>
      <trkpt lat="42.3736770" lon="-7.2310660">
        <ele>345.2</ele>
        <time>2014-10-01T16:04:35Z</time>
      </trkpt>
      <trkpt lat="42.3737970" lon="-7.2311410">
        <ele>344.0</ele>
        <time>2014-10-01T16:04:36Z</time>
      </trkpt>
      <trkpt lat="42.3739190" lon="-7.2312120">
        <ele>342.8</ele>
        <time>2014-10-01T16:04:37Z</time>
      </trkpt>
      <trkpt lat="42.3740430" lon="-7.2312760">
        <ele>341.9</ele>
        <time>2014-10-01T16:04:38Z</time>
      </trkpt>
      <trkpt lat="42.3741670" lon="-7.2313320">
        <ele>340.9</ele>
        <time>2014-10-01T16:04:39Z</time>
      </trkpt>
      <trkpt lat="42.3742940" lon="-7.2313850">
        <ele>339.8</ele>
        <time>2014-10-01T16:04:40Z</time>
      </trkpt>
      <trkpt lat="42.3744200" lon="-7.2314350">
        <ele>338.6</ele>
        <time>2014-10-01T16:04:41Z</time>
      </trkpt>
      <trkpt lat="42.3745430" lon="-7.2314810">
        <ele>337.5</ele>
        <time>2014-10-01T16:04:42Z</time>
      </trkpt>
      <trkpt lat="42.3746720" lon="-7.2315270">
        <ele>336.3</ele>
        <time>2014-10-01T16:04:43Z</time>
      </trkpt>
      <trkpt lat="42.3747990" lon="-7.2315720">
        <ele>335.2</ele>
        <time>2014-10-01T16:04:44Z</time>
      </trkpt>
      <trkpt lat="42.3749230" lon="-7.2316140">
        <ele>334.2</ele>
        <time>2014-10-01T16:04:45Z</time>
      </trkpt>
      <trkpt lat="42.3750470" lon="-7.2316570">
        <ele>333.2</ele>
        <time>2014-10-01T16:04:46Z</time>
      </trkpt>
      <trkpt lat="42.3751710" lon="-7.2316970">
        <ele>332.2</ele>
        <time>2014-10-01T16:04:47Z</time>
      </trkpt>
      <trkpt lat="42.3752890" lon="-7.2317350">
        <ele>331.2</ele>
        <time>2014-10-01T16:04:48Z</time>
      </trkpt>
      <trkpt lat="42.3754020" lon="-7.2317790">
        <ele>330.1</ele>
        <time>2014-10-01T16:04:49Z</time>
      </trkpt>
      <trkpt lat="42.3755180" lon="-7.2318350">
        <ele>328.9</ele>
        <time>2014-10-01T16:04:50Z</time>
      </trkpt>
      <trkpt lat="42.3756270" lon="-7.2318970">
        <ele>327.7</ele>
        <time>2014-10-01T16:04:51Z</time>
      </trkpt>
      <trkpt lat="42.3757340" lon="-7.2319730">
        <ele>326.5</ele>
        <time>2014-10-01T16:04:52Z</time>
      </trkpt>
      <trkpt lat="42.3758410" lon="-7.2320670">
        <ele>325.3</ele>
        <time>2014-10-01T16:04:53Z</time>
      </trkpt>
      <trkpt lat="42.3759410" lon="-7.2321700">
        <ele>324.2</ele>
        <time>2014-10-01T16:04:54Z</time>
      </trkpt>
      <trkpt lat="42.3760310" lon="-7.2322790">
        <ele>323.1</ele>
        <time>2014-10-01T16:04:55Z</time>
      </trkpt>
      <trkpt lat="42.3761150" lon="-7.2323970">
        <ele>322.0</ele>
        <time>2014-10-01T16:04:56Z</time>
      </trkpt>
      <trkpt lat="42.3761670" lon="-7.2325320">
        <ele>321.0</ele>
        <time>2014-10-01T16:04:57Z</time>
      </trkpt>
      <trkpt lat="42.3762090" lon="-7.2326560">
        <ele>320.1</ele>
        <time>2014-10-01T16:04:58Z</time>
      </trkpt>
      <trkpt lat="42.3762040" lon="-7.2327890">
        <ele>319.1</ele>
        <time>2014-10-01T16:04:59Z</time>
      </trkpt>
      <trkpt lat="42.3761680" lon="-7.2329150">
        <ele>318.1</ele>
        <time>2014-10-01T16:05:00Z</time>
      </trkpt>
      <trkpt lat="42.3761310" lon="-7.2330360">
        <ele>317.2</ele>
        <time>2014-10-01T16:05:01Z</time>
      </trkpt>
      <trkpt lat="42.3761020" lon="-7.2331540">
        <ele>316.3</ele>
        <time>2014-10-01T16:05:02Z</time>
      </trkpt>
      <trkpt lat="42.3760750" lon="-7.2332700">
        <ele>315.3</ele>
        <time>2014-10-01T16:05:03Z</time>
      </trkpt>
      <trkpt lat="42.3760220" lon="-7.2333690">
        <ele>314.4</ele>
        <time>2014-10-01T16:05:04Z</time>
      </trkpt>
      <trkpt lat="42.3759420" lon="-7.2334420">
        <ele>313.4</ele>
        <time>2014-10-01T16:05:05Z</time>
      </trkpt>
      <trkpt lat="42.3758560" lon="-7.2335040">
        <ele>312.4</ele>
        <time>2014-10-01T16:05:06Z</time>
      </trkpt>
      <trkpt lat="42.3757660" lon="-7.2335550">
        <ele>311.6</ele>
        <time>2014-10-01T16:05:07Z</time>
      </trkpt>
      <trkpt lat="42.3756720" lon="-7.2335940">
        <ele>310.8</ele>
        <time>2014-10-01T16:05:08Z</time>
      </trkpt>
      <trkpt lat="42.3755640" lon="-7.2335850">
        <ele>310.1</ele>
        <time>2014-10-01T16:05:09Z</time>
      </trkpt>
      <trkpt lat="42.3754570" lon="-7.2335640">
        <ele>309.6</ele>
        <time>2014-10-01T16:05:10Z</time>
      </trkpt>
      <trkpt lat="42.3753540" lon="-7.2335310">
        <ele>309.2</ele>
        <time>2014-10-01T16:05:11Z</time>
      </trkpt>
      <trkpt lat="42.3752540" lon="-7.2334630">
        <ele>309.0</ele>
        <time>2014-10-01T16:05:12Z</time>
      </trkpt>
      <trkpt lat="42.3751620" lon="-7.2333910">
        <ele>308.8</ele>
        <time>2014-10-01T16:05:13Z</time>
      </trkpt>
      <trkpt lat="42.3750810" lon="-7.2333160">
        <ele>308.8</ele>
        <time>2014-10-01T16:05:14Z</time>
      </trkpt>
      <trkpt lat="42.3750040" lon="-7.2332410">
        <ele>308.9</ele>
        <time>2014-10-01T16:05:15Z</time>
      </trkpt>
      <trkpt lat="42.3749270" lon="-7.2331760">
        <ele>308.9</ele>
        <time>2014-10-01T16:05:16Z</time>
      </trkpt>
      <trkpt lat="42.3748560" lon="-7.2331200">
        <ele>309.1</ele>
        <time>2014-10-01T16:05:17Z</time>
      </trkpt>
      <trkpt lat="42.3747840" lon="-7.2330730">
        <ele>309.2</ele>
        <time>2014-10-01T16:05:18Z</time>
      </trkpt>
      <trkpt lat="42.3747210" lon="-7.2330370">
        <ele>309.4</ele>
        <time>2014-10-01T16:05:19Z</time>
      </trkpt>
      <trkpt lat="42.3746500" lon="-7.2330260">
        <ele>309.5</ele>
        <time>2014-10-01T16:05:20Z</time>
      </trkpt>
      <trkpt lat="42.3745810" lon="-7.2330190">
        <ele>309.7</ele>
        <time>2014-10-01T16:05:21Z</time>
      </trkpt>
      <trkpt lat="42.3745070" lon="-7.2330150">
        <ele>309.8</ele>
        <time>2014-10-01T16:05:22Z</time>
      </trkpt>
      <trkpt lat="42.3744320" lon="-7.2330160">
        <ele>309.9</ele>
        <time>2014-10-01T16:05:23Z</time>
      </trkpt>
      <trkpt lat="42.3743560" lon="-7.2330190">
        <ele>310.0</ele>
        <time>2014-10-01T16:05:24Z</time>
      </trkpt>
      <trkpt lat="42.3742880" lon="-7.2330240">
        <ele>310.0</ele>
        <time>2014-10-01T16:05:25Z</time>
      </trkpt>
      <trkpt lat="42.3742200" lon="-7.2330280">
        <ele>310.1</ele>
        <time>2014-10-01T16:05:26Z</time>
      </trkpt>
      <trkpt lat="42.3741540" lon="-7.2330330">
        <ele>310.2</ele>
        <time>2014-10-01T16:05:27Z</time>
      </trkpt>
      <trkpt lat="42.3740850" lon="-7.2330420">
        <ele>310.4</ele>
        <time>2014-10-01T16:05:28Z</time>
      </trkpt>
      <trkpt lat="42.3740260" lon="-7.2330670">
        <ele>310.6</ele>
        <time>2014-10-01T16:05:29Z</time>
      </trkpt>
      <trkpt lat="42.3739610" lon="-7.2330960">
        <ele>310.8</ele>
        <time>2014-10-01T16:05:30Z</time>
      </trkpt>
      <trkpt lat="42.3739040" lon="-7.2331280">
        <ele>311.0</ele>
        <time>2014-10-01T16:05:31Z</time>
      </trkpt>
      <trkpt lat="42.3738550" lon="-7.2331800">
        <ele>311.2</ele>
        <time>2014-10-01T16:05:32Z</time>
      </trkpt>
      <trkpt lat="42.3738060" lon="-7.2332330">
        <ele>311.4</ele>
        <time>2014-10-01T16:05:33Z</time>
      </trkpt>
      <trkpt lat="42.3737590" lon="-7.2332920">
        <ele>311.5</ele>
        <time>2014-10-01T16:05:34Z</time>
      </trkpt>
      <trkpt lat="42.3737150" lon="-7.2333520">
        <ele>311.6</ele>
        <time>2014-10-01T16:05:35Z</time>
      </trkpt>
      <trkpt lat="42.3736810" lon="-7.2334280">
        <ele>311.7</ele>
        <time>2014-10-01T16:05:36Z</time>
      </trkpt>
      <trkpt lat="42.3736510" lon="-7.2335030">
        <ele>311.7</ele>
        <time>2014-10-01T16:05:37Z</time>
      </trkpt>
      <trkpt lat="42.3736280" lon="-7.2335780">
        <ele>311.6</ele>
        <time>2014-10-01T16:05:38Z</time>
      </trkpt>
      <trkpt lat="42.3736250" lon="-7.2336600">
        <ele>311.5</ele>
        <time>2014-10-01T16:05:39Z</time>
      </trkpt>
      <trkpt lat="42.3736230" lon="-7.2337570">
        <ele>311.3</ele>
        <time>2014-10-01T16:05:40Z</time>
      </trkpt>
      <trkpt lat="42.3736240" lon="-7.2338510">
        <ele>311.0</ele>
        <time>2014-10-01T16:05:41Z</time>
      </trkpt>
      <trkpt lat="42.3736290" lon="-7.2339460">
        <ele>310.7</ele>
        <time>2014-10-01T16:05:42Z</time>
      </trkpt>
      <trkpt lat="42.3736370" lon="-7.2340440">
        <ele>310.4</ele>
        <time>2014-10-01T16:05:43Z</time>
      </trkpt>
      <trkpt lat="42.3736470" lon="-7.2341350">
        <ele>310.2</ele>
        <time>2014-10-01T16:05:44Z</time>
      </trkpt>
      <trkpt lat="42.3736620" lon="-7.2342340">
        <ele>309.9</ele>
        <time>2014-10-01T16:05:45Z</time>
      </trkpt>
      <trkpt lat="42.3736810" lon="-7.2343410">
        <ele>309.6</ele>
        <time>2014-10-01T16:05:46Z</time>
      </trkpt>
      <trkpt lat="42.3737050" lon="-7.2344450">
        <ele>309.2</ele>
        <time>2014-10-01T16:05:47Z</time>
      </trkpt>
      <trkpt lat="42.3737320" lon="-7.2345480">
        <ele>308.9</ele>
        <time>2014-10-01T16:05:48Z</time>
      </trkpt>
      <trkpt lat="42.3737780" lon="-7.2346500">
        <ele>308.5</ele>
        <time>2014-10-01T16:05:49Z</time>
      </trkpt>
      <trkpt lat="42.3738210" lon="-7.2347460">
        <ele>308.2</ele>
        <time>2014-10-01T16:05:50Z</time>
      </trkpt>
      <trkpt lat="42.3738780" lon="-7.2348280">
        <ele>307.9</ele>
        <time>2014-10-01T16:05:51Z</time>
      </trkpt>
      <trkpt lat="42.3739340" lon="-7.2349030">
        <ele>307.6</ele>
        <time>2014-10-01T16:05:52Z</time>
      </trkpt>
      <trkpt lat="42.3740020" lon="-7.2349560">
        <ele>307.3</ele>
        <time>2014-10-01T16:05:53Z</time>
      </trkpt>
      <trkpt lat="42.3740770" lon="-7.2350110">
        <ele>306.9</ele>
        <time>2014-10-01T16:05:54Z</time>
      </trkpt>
      <trkpt lat="42.3741410" lon="-7.2350600">
        <ele>306.5</ele>
        <time>2014-10-01T16:05:55Z</time>
      </trkpt>
      <trkpt lat="42.3742150" lon="-7.2351200">
        <ele>306.0</ele>
        <time>2014-10-01T16:05:56Z</time>
      </trkpt>
      <trkpt lat="42.3742900" lon="-7.2351850">
        <ele>305.6</ele>
        <time>2014-10-01T16:05:57Z</time>
      </trkpt>
      <trkpt lat="42.3743630" lon="-7.2352500">
        <ele>305.2</ele>
        <time>2014-10-01T16:05:58Z</time>
      </trkpt>
      <trkpt lat="42.3744390" lon="-7.2353120">
        <ele>304.7</ele>
        <time>2014-10-01T16:05:59Z</time>
      </trkpt>
      <trkpt lat="42.3745170" lon="-7.2353730">
        <ele>304.2</ele>
        <time>2014-10-01T16:06:00Z</time>
      </trkpt>
      <trkpt lat="42.3745960" lon="-7.2354350">
        <ele>303.8</ele>
        <time>2014-10-01T16:06:01Z</time>
      </trkpt>
      <trkpt lat="42.3746770" lon="-7.2354990">
        <ele>303.4</ele>
        <time>2014-10-01T16:06:02Z</time>
      </trkpt>
      <trkpt lat="42.3747600" lon="-7.2355650">
        <ele>302.9</ele>
        <time>2014-10-01T16:06:03Z</time>
      </trkpt>
      <trkpt lat="42.3748430" lon="-7.2356310">
        <ele>302.3</ele>
        <time>2014-10-01T16:06:04Z</time>
      </trkpt>
      <trkpt lat="42.3749220" lon="-7.2356940">
        <ele>301.8</ele>
        <time>2014-10-01T16:06:05Z</time>
      </trkpt>
      <trkpt lat="42.3750000" lon="-7.2357560">
        <ele>301.1</ele>
        <time>2014-10-01T16:06:06Z</time>
      </trkpt>
      <trkpt lat="42.3750860" lon="-7.2358290">
        <ele>300.3</ele>
        <time>2014-10-01T16:06:07Z</time>
      </trkpt>
      <trkpt lat="42.3751810" lon="-7.2359090">
        <ele>299.3</ele>
        <time>2014-10-01T16:06:08Z</time>
      </trkpt>
      <trkpt lat="42.3752720" lon="-7.2359860">
        <ele>298.4</ele>
        <time>2014-10-01T16:06:09Z</time>
      </trkpt>
      <trkpt lat="42.3753590" lon="-7.2360660">
        <ele>297.6</ele>
        <time>2014-10-01T16:06:10Z</time>
      </trkpt>
      <trkpt lat="42.3754330" lon="-7.2361260">
        <ele>297.1</ele>
        <time>2014-10-01T16:06:11Z</time>
      </trkpt>
      <trkpt lat="42.3755120" lon="-7.2361430">
        <ele>297.5</ele>
        <time>2014-10-01T16:06:12Z</time>
      </trkpt>
      <trkpt lat="42.3755810" lon="-7.2361320">
        <ele>297.4</ele>
        <time>2014-10-01T16:06:13Z</time>
      </trkpt>
      <trkpt lat="42.3756460" lon="-7.2361150">
        <ele>297.4</ele>
        <time>2014-10-01T16:06:14Z</time>
      </trkpt>
      <trkpt lat="42.3757090" lon="-7.2360970">
        <ele>297.3</ele>
        <time>2014-10-01T16:06:15Z</time>
      </trkpt>
      <trkpt lat="42.3757610" lon="-7.2360760">
        <ele>297.4</ele>
        <time>2014-10-01T16:06:16Z</time>
      </trkpt>
      <trkpt lat="42.3758120" lon="-7.2360550">
        <ele>297.4</ele>
        <time>2014-10-01T16:06:17Z</time>
      </trkpt>
      <trkpt lat="42.3758600" lon="-7.2360400">
        <ele>297.4</ele>
        <time>2014-10-01T16:06:18Z</time>
      </trkpt>
      <trkpt lat="42.3759080" lon="-7.2360310">
        <ele>297.4</ele>
        <time>2014-10-01T16:06:19Z</time>
      </trkpt>
      <trkpt lat="42.3759560" lon="-7.2360440">
        <ele>297.5</ele>
        <time>2014-10-01T16:06:20Z</time>
      </trkpt>
      <trkpt lat="42.3759910" lon="-7.2360680">
        <ele>297.5</ele>
        <time>2014-10-01T16:06:21Z</time>
      </trkpt>
      <trkpt lat="42.3760210" lon="-7.2360940">
        <ele>297.7</ele>
        <time>2014-10-01T16:06:22Z</time>
      </trkpt>
      <trkpt lat="42.3760610" lon="-7.2361270">
        <ele>298.2</ele>
        <time>2014-10-01T16:06:24Z</time>
      </trkpt>
      <trkpt lat="42.3760990" lon="-7.2361540">
        <ele>298.6</ele>
        <time>2014-10-01T16:06:26Z</time>
      </trkpt>
      <trkpt lat="42.3761340" lon="-7.2361730">
        <ele>298.9</ele>
        <time>2014-10-01T16:06:28Z</time>
      </trkpt>
      <trkpt lat="42.3761730" lon="-7.2361910">
        <ele>299.3</ele>
        <time>2014-10-01T16:06:30Z</time>
      </trkpt>
      <trkpt lat="42.3762200" lon="-7.2362040">
        <ele>299.8</ele>
        <time>2014-10-01T16:06:32Z</time>
      </trkpt>
      <trkpt lat="42.3762730" lon="-7.2362130">
        <ele>300.3</ele>
        <time>2014-10-01T16:06:34Z</time>
      </trkpt>
      <trkpt lat="42.3763220" lon="-7.2362210">
        <ele>300.7</ele>
        <time>2014-10-01T16:06:36Z</time>
      </trkpt>
      <trkpt lat="42.3763590" lon="-7.2362320">
        <ele>301.1</ele>
        <time>2014-10-01T16:06:38Z</time>
      </trkpt>
      <trkpt lat="42.3764020" lon="-7.2362510">
        <ele>301.5</ele>
        <time>2014-10-01T16:06:40Z</time>
      </trkpt>
      <trkpt lat="42.3764430" lon="-7.2362750">
        <ele>301.9</ele>
        <time>2014-10-01T16:06:42Z</time>
      </trkpt>
      <trkpt lat="42.3764830" lon="-7.2363000">
        <ele>302.3</ele>
        <time>2014-10-01T16:06:44Z</time>
      </trkpt>
      <trkpt lat="42.3765190" lon="-7.2363210">
        <ele>302.7</ele>
        <time>2014-10-01T16:06:46Z</time>
      </trkpt>
      <trkpt lat="42.3765610" lon="-7.2363540">
        <ele>303.2</ele>
        <time>2014-10-01T16:06:48Z</time>
      </trkpt>
      <trkpt lat="42.3766000" lon="-7.2363940">
        <ele>303.6</ele>
        <time>2014-10-01T16:06:50Z</time>
      </trkpt>
      <trkpt lat="42.3766330" lon="-7.2364470">
        <ele>304.1</ele>
        <time>2014-10-01T16:06:52Z</time>
      </trkpt>
      <trkpt lat="42.3766600" lon="-7.2365020">
        <ele>304.6</ele>
        <time>2014-10-01T16:06:54Z</time>
      </trkpt>
      <trkpt lat="42.3766870" lon="-7.2365590">
        <ele>305.0</ele>
        <time>2014-10-01T16:06:56Z</time>
      </trkpt>
      <trkpt lat="42.3767040" lon="-7.2365920">
        <ele>305.3</ele>
        <time>2014-10-01T16:06:57Z</time>
      </trkpt>
      <trkpt lat="42.3767300" lon="-7.2366470">
        <ele>305.8</ele>
        <time>2014-10-01T16:06:59Z</time>
      </trkpt>
      <trkpt lat="42.3767580" lon="-7.2367070">
        <ele>306.3</ele>
        <time>2014-10-01T16:07:01Z</time>
      </trkpt>
      <trkpt lat="42.3767720" lon="-7.2367390">
        <ele>306.5</ele>
        <time>2014-10-01T16:07:02Z</time>
      </trkpt>
      <trkpt lat="42.3767850" lon="-7.2367720">
        <ele>306.8</ele>
        <time>2014-10-01T16:07:03Z</time>
      </trkpt>
      <trkpt lat="42.3768090" lon="-7.2368350">
        <ele>307.3</ele>
        <time>2014-10-01T16:07:05Z</time>
      </trkpt>
      <trkpt lat="42.3768310" lon="-7.2369030">
        <ele>307.8</ele>
        <time>2014-10-01T16:07:07Z</time>
      </trkpt>
      <trkpt lat="42.3768420" lon="-7.2369400">
        <ele>308.1</ele>
        <time>2014-10-01T16:07:08Z</time>
      </trkpt>
      <trkpt lat="42.3768530" lon="-7.2369780">
        <ele>308.4</ele>
        <time>2014-10-01T16:07:09Z</time>
      </trkpt>
      <trkpt lat="42.3768700" lon="-7.2370390">
        <ele>308.8</ele>
        <time>2014-10-01T16:07:11Z</time>
      </trkpt>
      <trkpt lat="42.3768860" lon="-7.2370960">
        <ele>309.2</ele>
        <time>2014-10-01T16:07:13Z</time>
      </trkpt>
      <trkpt lat="42.3769030" lon="-7.2371490">
        <ele>309.6</ele>
        <time>2014-10-01T16:07:15Z</time>
      </trkpt>
      <trkpt lat="42.3769220" lon="-7.2371990">
        <ele>310.0</ele>
        <time>2014-10-01T16:07:17Z</time>
      </trkpt>
      <trkpt lat="42.3769460" lon="-7.2372490">
        <ele>310.4</ele>
        <time>2014-10-01T16:07:19Z</time>
      </trkpt>
      <trkpt lat="42.3769710" lon="-7.2373010">
        <ele>310.9</ele>
        <time>2014-10-01T16:07:21Z</time>
      </trkpt>
      <trkpt lat="42.3769990" lon="-7.2373490">
        <ele>311.3</ele>
        <time>2014-10-01T16:07:23Z</time>
      </trkpt>
      <trkpt lat="42.3770330" lon="-7.2373940">
        <ele>311.7</ele>
        <time>2014-10-01T16:07:25Z</time>
      </trkpt>
      <trkpt lat="42.3770670" lon="-7.2374440">
        <ele>312.2</ele>
        <time>2014-10-01T16:07:27Z</time>
      </trkpt>
      <trkpt lat="42.3770970" lon="-7.2374940">
        <ele>312.7</ele>
        <time>2014-10-01T16:07:29Z</time>
      </trkpt>
      <trkpt lat="42.3771240" lon="-7.2375360">
        <ele>313.0</ele>
        <time>2014-10-01T16:07:31Z</time>
      </trkpt>
      <trkpt lat="42.3771500" lon="-7.2375720">
        <ele>313.4</ele>
        <time>2014-10-01T16:07:33Z</time>
      </trkpt>
      <trkpt lat="42.3771770" lon="-7.2376120">
        <ele>313.8</ele>
        <time>2014-10-01T16:07:35Z</time>
      </trkpt>
      <trkpt lat="42.3771990" lon="-7.2376470">
        <ele>314.1</ele>
        <time>2014-10-01T16:07:37Z</time>
      </trkpt>
      <trkpt lat="42.3772210" lon="-7.2376730">
        <ele>314.4</ele>
        <time>2014-10-01T16:08:34Z</time>
      </trkpt>
      <trkpt lat="42.3772420" lon="-7.2377150">
        <ele>314.7</ele>
        <time>2014-10-01T16:08:36Z</time>
      </trkpt>
      <trkpt lat="42.3772710" lon="-7.2377740">
        <ele>315.2</ele>
        <time>2014-10-01T16:08:38Z</time>
      </trkpt>
      <trkpt lat="42.3772880" lon="-7.2378130">
        <ele>315.5</ele>
        <time>2014-10-01T16:08:39Z</time>
      </trkpt>
      <trkpt lat="42.3773010" lon="-7.2378490">
        <ele>315.8</ele>
        <time>2014-10-01T16:08:40Z</time>
      </trkpt>
      <trkpt lat="42.3773130" lon="-7.2378840">
        <ele>316.1</ele>
        <time>2014-10-01T16:08:41Z</time>
      </trkpt>
      <trkpt lat="42.3773230" lon="-7.2379190">
        <ele>316.3</ele>
        <time>2014-10-01T16:08:42Z</time>
      </trkpt>
      <trkpt lat="42.3773320" lon="-7.2379540">
        <ele>316.6</ele>
        <time>2014-10-01T16:08:43Z</time>
      </trkpt>
      <trkpt lat="42.3773490" lon="-7.2380280">
        <ele>317.1</ele>
        <time>2014-10-01T16:08:45Z</time>
      </trkpt>
      <trkpt lat="42.3773600" lon="-7.2380670">
        <ele>317.4</ele>
        <time>2014-10-01T16:08:46Z</time>
      </trkpt>
      <trkpt lat="42.3773690" lon="-7.2381060">
        <ele>317.7</ele>
        <time>2014-10-01T16:08:47Z</time>
      </trkpt>
      <trkpt lat="42.3773800" lon="-7.2381680">
        <ele>318.1</ele>
        <time>2014-10-01T16:08:49Z</time>
      </trkpt>
      <trkpt lat="42.3773890" lon="-7.2382340">
        <ele>318.6</ele>
        <time>2014-10-01T16:08:51Z</time>
      </trkpt>
      <trkpt lat="42.3773930" lon="-7.2383000">
        <ele>319.1</ele>
        <time>2014-10-01T16:08:53Z</time>
      </trkpt>
      <trkpt lat="42.3773960" lon="-7.2383700">
        <ele>319.6</ele>
        <time>2014-10-01T16:08:55Z</time>
      </trkpt>
      <trkpt lat="42.3773990" lon="-7.2384070">
        <ele>319.8</ele>
        <time>2014-10-01T16:08:56Z</time>
      </trkpt>
      <trkpt lat="42.3774040" lon="-7.2384450">
        <ele>320.1</ele>
        <time>2014-10-01T16:08:57Z</time>
      </trkpt>
      <trkpt lat="42.3774130" lon="-7.2385130">
        <ele>320.6</ele>
        <time>2014-10-01T16:08:59Z</time>
      </trkpt>
      <trkpt lat="42.3774190" lon="-7.2385740">
        <ele>321.0</ele>
        <time>2014-10-01T16:09:01Z</time>
      </trkpt>
      <trkpt lat="42.3774220" lon="-7.2386320">
        <ele>321.4</ele>
        <time>2014-10-01T16:09:03Z</time>
      </trkpt>
      <trkpt lat="42.3774240" lon="-7.2386690">
        <ele>321.6</ele>
        <time>2014-10-01T16:09:04Z</time>
      </trkpt>
      <trkpt lat="42.3774250" lon="-7.2387070">
        <ele>321.9</ele>
        <time>2014-10-01T16:09:05Z</time>
      </trkpt>
      <trkpt lat="42.3774270" lon="-7.2387450">
        <ele>322.2</ele>
        <time>2014-10-01T16:09:06Z</time>
      </trkpt>
      <trkpt lat="42.3774290" lon="-7.2387880">
        <ele>322.5</ele>
        <time>2014-10-01T16:09:07Z</time>
      </trkpt>
      <trkpt lat="42.3774300" lon="-7.2388280">
        <ele>322.8</ele>
        <time>2014-10-01T16:09:08Z</time>
      </trkpt>
      <trkpt lat="42.3774320" lon="-7.2388700">
        <ele>323.0</ele>
        <time>2014-10-01T16:09:09Z</time>
      </trkpt>
      <trkpt lat="42.3774340" lon="-7.2389110">
        <ele>323.3</ele>
        <time>2014-10-01T16:09:10Z</time>
      </trkpt>
      <trkpt lat="42.3774360" lon="-7.2389530">
        <ele>323.6</ele>
        <time>2014-10-01T16:09:11Z</time>
      </trkpt>
      <trkpt lat="42.3774370" lon="-7.2390260">
        <ele>324.1</ele>
        <time>2014-10-01T16:09:13Z</time>
      </trkpt>
      <trkpt lat="42.3774350" lon="-7.2390940">
        <ele>324.6</ele>
        <time>2014-10-01T16:09:15Z</time>
      </trkpt>
      <trkpt lat="42.3774340" lon="-7.2391640">
        <ele>325.1</ele>
        <time>2014-10-01T16:09:17Z</time>
      </trkpt>
      <trkpt lat="42.3774310" lon="-7.2392260">
        <ele>325.5</ele>
        <time>2014-10-01T16:09:19Z</time>
      </trkpt>
      <trkpt lat="42.3774270" lon="-7.2392890">
        <ele>326.0</ele>
        <time>2014-10-01T16:09:21Z</time>
      </trkpt>
      <trkpt lat="42.3774210" lon="-7.2393570">
        <ele>326.4</ele>
        <time>2014-10-01T16:09:23Z</time>
      </trkpt>
      <trkpt lat="42.3774160" lon="-7.2394300">
        <ele>326.9</ele>
        <time>2014-10-01T16:09:25Z</time>
      </trkpt>
      <trkpt lat="42.3774140" lon="-7.2394970">
        <ele>327.4</ele>
        <time>2014-10-01T16:09:27Z</time>
      </trkpt>
      <trkpt lat="42.3774140" lon="-7.2395530">
        <ele>327.8</ele>
        <time>2014-10-01T16:09:29Z</time>
      </trkpt>
      <trkpt lat="42.3774170" lon="-7.2396080">
        <ele>328.2</ele>
        <time>2014-10-01T16:09:31Z</time>
      </trkpt>
      <trkpt lat="42.3774260" lon="-7.2396610">
        <ele>328.6</ele>
        <time>2014-10-01T16:09:33Z</time>
      </trkpt>
      <trkpt lat="42.3774370" lon="-7.2397090">
        <ele>328.9</ele>
        <time>2014-10-01T16:09:35Z</time>
      </trkpt>
      <trkpt lat="42.3774600" lon="-7.2397620">
        <ele>329.3</ele>
        <time>2014-10-01T16:09:37Z</time>
      </trkpt>
      <trkpt lat="42.3774830" lon="-7.2398020">
        <ele>329.7</ele>
        <time>2014-10-01T16:09:39Z</time>
      </trkpt>
      <trkpt lat="42.3775300" lon="-7.2398500">
        <ele>330.2</ele>
        <time>2014-10-01T16:09:43Z</time>
      </trkpt>
      <trkpt lat="42.3775570" lon="-7.2398720">
        <ele>330.5</ele>
        <time>2014-10-01T16:09:45Z</time>
      </trkpt>
      <trkpt lat="42.3775830" lon="-7.2399000">
        <ele>330.9</ele>
        <time>2014-10-01T16:09:47Z</time>
      </trkpt>
      <trkpt lat="42.3776100" lon="-7.2399340">
        <ele>331.2</ele>
        <time>2014-10-01T16:09:49Z</time>
      </trkpt>
      <trkpt lat="42.3776580" lon="-7.2399970">
        <ele>331.8</ele>
        <time>2014-10-01T16:09:52Z</time>
      </trkpt>
      <trkpt lat="42.3776790" lon="-7.2400320">
        <ele>332.1</ele>
        <time>2014-10-01T16:09:54Z</time>
      </trkpt>
      <trkpt lat="42.3777020" lon="-7.2400640">
        <ele>332.4</ele>
        <time>2014-10-01T16:09:56Z</time>
      </trkpt>
      <trkpt lat="42.3777300" lon="-7.2400880">
        <ele>332.8</ele>
        <time>2014-10-01T16:09:58Z</time>
      </trkpt>
      <trkpt lat="42.3777650" lon="-7.2401090">
        <ele>333.1</ele>
        <time>2014-10-01T16:10:00Z</time>
      </trkpt>
      <trkpt lat="42.3778030" lon="-7.2401300">
        <ele>333.5</ele>
        <time>2014-10-01T16:10:02Z</time>
      </trkpt>
      <trkpt lat="42.3778390" lon="-7.2401520">
        <ele>333.9</ele>
        <time>2014-10-01T16:10:04Z</time>
      </trkpt>
      <trkpt lat="42.3778820" lon="-7.2401730">
        <ele>334.3</ele>
        <time>2014-10-01T16:10:06Z</time>
      </trkpt>
      <trkpt lat="42.3779280" lon="-7.2401940">
        <ele>334.8</ele>
        <time>2014-10-01T16:10:08Z</time>
      </trkpt>
      <trkpt lat="42.3779710" lon="-7.2402170">
        <ele>335.2</ele>
        <time>2014-10-01T16:10:10Z</time>
      </trkpt>
      <trkpt lat="42.3780070" lon="-7.2402350">
        <ele>335.6</ele>
        <time>2014-10-01T16:10:12Z</time>
      </trkpt>
      <trkpt lat="42.3780450" lon="-7.2402570">
        <ele>335.9</ele>
        <time>2014-10-01T16:10:14Z</time>
      </trkpt>
      <trkpt lat="42.3780820" lon="-7.2402810">
        <ele>336.3</ele>
        <time>2014-10-01T16:10:16Z</time>
      </trkpt>
      <trkpt lat="42.3781230" lon="-7.2403100">
        <ele>336.8</ele>
        <time>2014-10-01T16:10:18Z</time>
      </trkpt>
      <trkpt lat="42.3781640" lon="-7.2403450">
        <ele>337.2</ele>
        <time>2014-10-01T16:10:20Z</time>
      </trkpt>
      <trkpt lat="42.3781990" lon="-7.2403760">
        <ele>337.6</ele>
        <time>2014-10-01T16:10:22Z</time>
      </trkpt>
      <trkpt lat="42.3782360" lon="-7.2404130">
        <ele>338.0</ele>
        <time>2014-10-01T16:10:24Z</time>
      </trkpt>
      <trkpt lat="42.3782650" lon="-7.2404490">
        <ele>338.4</ele>
        <time>2014-10-01T16:10:26Z</time>
      </trkpt>
      <trkpt lat="42.3782960" lon="-7.2404890">
        <ele>338.8</ele>
        <time>2014-10-01T16:10:28Z</time>
      </trkpt>
      <trkpt lat="42.3783280" lon="-7.2405360">
        <ele>339.3</ele>
        <time>2014-10-01T16:10:30Z</time>
      </trkpt>
      <trkpt lat="42.3783580" lon="-7.2405940">
        <ele>339.8</ele>
        <time>2014-10-01T16:10:32Z</time>
      </trkpt>
      <trkpt lat="42.3783710" lon="-7.2406270">
        <ele>340.0</ele>
        <time>2014-10-01T16:10:33Z</time>
      </trkpt>
      <trkpt lat="42.3783810" lon="-7.2406610">
        <ele>340.3</ele>
        <time>2014-10-01T16:10:34Z</time>
      </trkpt>
      <trkpt lat="42.3783900" lon="-7.2406960">
        <ele>340.5</ele>
        <time>2014-10-01T16:10:35Z</time>
      </trkpt>
      <trkpt lat="42.3783980" lon="-7.2407330">
        <ele>340.8</ele>
        <time>2014-10-01T16:10:36Z</time>
      </trkpt>
      <trkpt lat="42.3784130" lon="-7.2408010">
        <ele>341.3</ele>
        <time>2014-10-01T16:10:38Z</time>
      </trkpt>
      <trkpt lat="42.3784250" lon="-7.2408720">
        <ele>341.8</ele>
        <time>2014-10-01T16:10:40Z</time>
      </trkpt>
      <trkpt lat="42.3784350" lon="-7.2409290">
        <ele>342.2</ele>
        <time>2014-10-01T16:10:42Z</time>
      </trkpt>
      <trkpt lat="42.3784500" lon="-7.2409770">
        <ele>342.6</ele>
        <time>2014-10-01T16:10:44Z</time>
      </trkpt>
      <trkpt lat="42.3784740" lon="-7.2410160">
        <ele>342.9</ele>
        <time>2014-10-01T16:10:46Z</time>
      </trkpt>
      <trkpt lat="42.3785040" lon="-7.2410530">
        <ele>343.3</ele>
        <time>2014-10-01T16:10:48Z</time>
      </trkpt>
      <trkpt lat="42.3785370" lon="-7.2410930">
        <ele>343.7</ele>
        <time>2014-10-01T16:10:50Z</time>
      </trkpt>
      <trkpt lat="42.3785700" lon="-7.2411150">
        <ele>344.1</ele>
        <time>2014-10-01T16:10:52Z</time>
      </trkpt>
      <trkpt lat="42.3786100" lon="-7.2411350">
        <ele>344.5</ele>
        <time>2014-10-01T16:10:54Z</time>
      </trkpt>
      <trkpt lat="42.3786450" lon="-7.2411580">
        <ele>344.8</ele>
        <time>2014-10-01T16:10:56Z</time>
      </trkpt>
      <trkpt lat="42.3786770" lon="-7.2411780">
        <ele>345.2</ele>
        <time>2014-10-01T16:10:58Z</time>
      </trkpt>
      <trkpt lat="42.3787130" lon="-7.2411990">
        <ele>345.5</ele>
        <time>2014-10-01T16:11:00Z</time>
      </trkpt>
      <trkpt lat="42.3787460" lon="-7.2412160">
        <ele>345.9</ele>
        <time>2014-10-01T16:11:02Z</time>
      </trkpt>
      <trkpt lat="42.3787780" lon="-7.2412350">
        <ele>346.2</ele>
        <time>2014-10-01T16:11:04Z</time>
      </trkpt>
      <trkpt lat="42.3788110" lon="-7.2412610">
        <ele>346.5</ele>
        <time>2014-10-01T16:11:06Z</time>
      </trkpt>
      <trkpt lat="42.3788540" lon="-7.2412850">
        <ele>347.0</ele>
        <time>2014-10-01T16:11:08Z</time>
      </trkpt>
      <trkpt lat="42.3788950" lon="-7.2413030">
        <ele>347.4</ele>
        <time>2014-10-01T16:11:10Z</time>
      </trkpt>
      <trkpt lat="42.3789270" lon="-7.2413210">
        <ele>347.7</ele>
        <time>2014-10-01T16:11:12Z</time>
      </trkpt>
      <trkpt lat="42.3789490" lon="-7.2413580">
        <ele>348.0</ele>
        <time>2014-10-01T16:11:14Z</time>
      </trkpt>
      <trkpt lat="42.3789520" lon="-7.2414130">
        <ele>348.4</ele>
        <time>2014-10-01T16:11:16Z</time>
      </trkpt>
      <trkpt lat="42.3789370" lon="-7.2414690">
        <ele>348.8</ele>
        <time>2014-10-01T16:11:18Z</time>
      </trkpt>
      <trkpt lat="42.3789020" lon="-7.2415020">
        <ele>349.2</ele>
        <time>2014-10-01T16:11:20Z</time>
      </trkpt>
      <trkpt lat="42.3788600" lon="-7.2415210">
        <ele>349.7</ele>
        <time>2014-10-01T16:11:22Z</time>
      </trkpt>
      <trkpt lat="42.3788170" lon="-7.2415340">
        <ele>350.1</ele>
        <time>2014-10-01T16:11:24Z</time>
      </trkpt>
      <trkpt lat="42.3787690" lon="-7.2415580">
        <ele>350.6</ele>
        <time>2014-10-01T16:11:26Z</time>
      </trkpt>
      <trkpt lat="42.3787230" lon="-7.2415840">
        <ele>351.0</ele>
        <time>2014-10-01T16:11:28Z</time>
      </trkpt>
      <trkpt lat="42.3786970" lon="-7.2415970">
        <ele>351.3</ele>
        <time>2014-10-01T16:11:29Z</time>
      </trkpt>
      <trkpt lat="42.3786510" lon="-7.2416170">
        <ele>351.7</ele>
        <time>2014-10-01T16:11:31Z</time>
      </trkpt>
      <trkpt lat="42.3786100" lon="-7.2416340">
        <ele>352.1</ele>
        <time>2014-10-01T16:11:33Z</time>
      </trkpt>
      <trkpt lat="42.3785720" lon="-7.2416500">
        <ele>352.5</ele>
        <time>2014-10-01T16:11:35Z</time>
      </trkpt>
      <trkpt lat="42.3785370" lon="-7.2416600">
        <ele>352.8</ele>
        <time>2014-10-01T16:11:37Z</time>
      </trkpt>
      <trkpt lat="42.3784990" lon="-7.2416710">
        <ele>353.2</ele>
        <time>2014-10-01T16:11:39Z</time>
      </trkpt>
      <trkpt lat="42.3784630" lon="-7.2416830">
        <ele>353.6</ele>
        <time>2014-10-01T16:11:41Z</time>
      </trkpt>
      <trkpt lat="42.3784350" lon="-7.2416980">
        <ele>353.8</ele>
        <time>2014-10-01T16:11:43Z</time>
      </trkpt>
      <trkpt lat="42.3784120" lon="-7.2417380">
        <ele>354.2</ele>
        <time>2014-10-01T16:11:46Z</time>
      </trkpt>
      <trkpt lat="42.3784330" lon="-7.2417870">
        <ele>354.6</ele>
        <time>2014-10-01T16:11:49Z</time>
      </trkpt>
      <trkpt lat="42.3784690" lon="-7.2418050">
        <ele>355.0</ele>
        <time>2014-10-01T16:11:51Z</time>
      </trkpt>
      <trkpt lat="42.3785060" lon="-7.2418070">
        <ele>355.3</ele>
        <time>2014-10-01T16:11:53Z</time>
      </trkpt>
      <trkpt lat="42.3785420" lon="-7.2418000">
        <ele>355.6</ele>
        <time>2014-10-01T16:11:55Z</time>
      </trkpt>
      <trkpt lat="42.3785760" lon="-7.2417870">
        <ele>356.0</ele>
        <time>2014-10-01T16:11:57Z</time>
      </trkpt>
      <trkpt lat="42.3786120" lon="-7.2417760">
        <ele>356.3</ele>
        <time>2014-10-01T16:11:59Z</time>
      </trkpt>
      <trkpt lat="42.3786560" lon="-7.2417670">
        <ele>356.7</ele>
        <time>2014-10-01T16:12:01Z</time>
      </trkpt>
      <trkpt lat="42.3787020" lon="-7.2417550">
        <ele>357.2</ele>
        <time>2014-10-01T16:12:03Z</time>
      </trkpt>
      <trkpt lat="42.3787480" lon="-7.2417450">
        <ele>357.6</ele>
        <time>2014-10-01T16:12:05Z</time>
      </trkpt>
      <trkpt lat="42.3787920" lon="-7.2417390">
        <ele>358.0</ele>
        <time>2014-10-01T16:12:07Z</time>
      </trkpt>
      <trkpt lat="42.3788320" lon="-7.2417350">
        <ele>358.4</ele>
        <time>2014-10-01T16:12:09Z</time>
      </trkpt>
      <trkpt lat="42.3788740" lon="-7.2417290">
        <ele>358.8</ele>
        <time>2014-10-01T16:12:11Z</time>
      </trkpt>
      <trkpt lat="42.3789140" lon="-7.2417240">
        <ele>359.2</ele>
        <time>2014-10-01T16:12:13Z</time>
      </trkpt>
      <trkpt lat="42.3789580" lon="-7.2417150">
        <ele>359.6</ele>
        <time>2014-10-01T16:12:15Z</time>
      </trkpt>
      <trkpt lat="42.3790080" lon="-7.2417050">
        <ele>360.1</ele>
        <time>2014-10-01T16:12:17Z</time>
      </trkpt>
      <trkpt lat="42.3790500" lon="-7.2416940">
        <ele>360.5</ele>
        <time>2014-10-01T16:12:19Z</time>
      </trkpt>
      <trkpt lat="42.3790920" lon="-7.2416880">
        <ele>360.9</ele>
        <time>2014-10-01T16:12:21Z</time>
      </trkpt>
      <trkpt lat="42.3791300" lon="-7.2416670">
        <ele>361.3</ele>
        <time>2014-10-01T16:12:23Z</time>
      </trkpt>
      <trkpt lat="42.3791670" lon="-7.2416480">
        <ele>361.6</ele>
        <time>2014-10-01T16:12:25Z</time>
      </trkpt>
      <trkpt lat="42.3792030" lon="-7.2416290">
        <ele>362.0</ele>
        <time>2014-10-01T16:12:27Z</time>
      </trkpt>
      <trkpt lat="42.3792360" lon="-7.2416090">
        <ele>362.3</ele>
        <time>2014-10-01T16:12:29Z</time>
      </trkpt>
      <trkpt lat="42.3792680" lon="-7.2415850">
        <ele>362.7</ele>
        <time>2014-10-01T16:12:31Z</time>
      </trkpt>
      <trkpt lat="42.3793030" lon="-7.2415540">
        <ele>363.1</ele>
        <time>2014-10-01T16:12:33Z</time>
      </trkpt>
      <trkpt lat="42.3793420" lon="-7.2415140">
        <ele>363.5</ele>
        <time>2014-10-01T16:12:35Z</time>
      </trkpt>
      <trkpt lat="42.3793820" lon="-7.2414650">
        <ele>364.0</ele>
        <time>2014-10-01T16:12:37Z</time>
      </trkpt>
      <trkpt lat="42.3794200" lon="-7.2414190">
        <ele>364.5</ele>
        <time>2014-10-01T16:12:39Z</time>
      </trkpt>
      <trkpt lat="42.3794530" lon="-7.2413740">
        <ele>365.0</ele>
        <time>2014-10-01T16:12:41Z</time>
      </trkpt>
      <trkpt lat="42.3794850" lon="-7.2413240">
        <ele>365.4</ele>
        <time>2014-10-01T16:12:43Z</time>
      </trkpt>
      <trkpt lat="42.3795230" lon="-7.2412760">
        <ele>365.9</ele>
        <time>2014-10-01T16:12:45Z</time>
      </trkpt>
      <trkpt lat="42.3795660" lon="-7.2412480">
        <ele>366.4</ele>
        <time>2014-10-01T16:12:47Z</time>
      </trkpt>
      <trkpt lat="42.3796030" lon="-7.2412460">
        <ele>366.7</ele>
        <time>2014-10-01T16:12:49Z</time>
      </trkpt>
      <trkpt lat="42.3796390" lon="-7.2412870">
        <ele>367.2</ele>
        <time>2014-10-01T16:12:51Z</time>
      </trkpt>
      <trkpt lat="42.3796440" lon="-7.2413250">
        <ele>367.4</ele>
        <time>2014-10-01T16:12:54Z</time>
      </trkpt>
      <trkpt lat="42.3796280" lon="-7.2413630">
        <ele>367.7</ele>
        <time>2014-10-01T16:12:56Z</time>
      </trkpt>
      <trkpt lat="42.3796070" lon="-7.2414030">
        <ele>368.1</ele>
        <time>2014-10-01T16:12:58Z</time>
      </trkpt>
      <trkpt lat="42.3795850" lon="-7.2414410">
        <ele>368.4</ele>
        <time>2014-10-01T16:13:00Z</time>
      </trkpt>
      <trkpt lat="42.3795560" lon="-7.2414690">
        <ele>368.7</ele>
        <time>2014-10-01T16:13:02Z</time>
      </trkpt>
      <trkpt lat="42.3795340" lon="-7.2415110">
        <ele>369.1</ele>
        <time>2014-10-01T16:13:04Z</time>
      </trkpt>
      <trkpt lat="42.3795060" lon="-7.2415500">
        <ele>369.5</ele>
        <time>2014-10-01T16:13:06Z</time>
      </trkpt>
      <trkpt lat="42.3794750" lon="-7.2415910">
        <ele>369.9</ele>
        <time>2014-10-01T16:13:08Z</time>
      </trkpt>
      <trkpt lat="42.3794420" lon="-7.2416310">
        <ele>370.3</ele>
        <time>2014-10-01T16:13:10Z</time>
      </trkpt>
      <trkpt lat="42.3794110" lon="-7.2416700">
        <ele>370.7</ele>
        <time>2014-10-01T16:13:12Z</time>
      </trkpt>
      <trkpt lat="42.3793820" lon="-7.2417090">
        <ele>371.1</ele>
        <time>2014-10-01T16:13:14Z</time>
      </trkpt>
      <trkpt lat="42.3793500" lon="-7.2417430">
        <ele>371.5</ele>
        <time>2014-10-01T16:13:16Z</time>
      </trkpt>
      <trkpt lat="42.3793250" lon="-7.2417790">
        <ele>371.8</ele>
        <time>2014-10-01T16:13:18Z</time>
      </trkpt>
      <trkpt lat="42.3792860" lon="-7.2418030">
        <ele>372.2</ele>
        <time>2014-10-01T16:13:20Z</time>
      </trkpt>
      <trkpt lat="42.3792390" lon="-7.2418190">
        <ele>372.7</ele>
        <time>2014-10-01T16:13:22Z</time>
      </trkpt>
      <trkpt lat="42.3791920" lon="-7.2418420">
        <ele>373.1</ele>
        <time>2014-10-01T16:13:24Z</time>
      </trkpt>
      <trkpt lat="42.3791490" lon="-7.2418640">
        <ele>373.6</ele>
        <time>2014-10-01T16:13:26Z</time>
      </trkpt>
      <trkpt lat="42.3791040" lon="-7.2418830">
        <ele>374.0</ele>
        <time>2014-10-01T16:13:28Z</time>
      </trkpt>
      <trkpt lat="42.3790630" lon="-7.2419070">
        <ele>374.4</ele>
        <time>2014-10-01T16:13:30Z</time>
      </trkpt>
      <trkpt lat="42.3790200" lon="-7.2419310">
        <ele>374.9</ele>
        <time>2014-10-01T16:13:32Z</time>
      </trkpt>
      <trkpt lat="42.3789760" lon="-7.2419520">
        <ele>375.3</ele>
        <time>2014-10-01T16:13:34Z</time>
      </trkpt>
      <trkpt lat="42.3789370" lon="-7.2419760">
        <ele>375.7</ele>
        <time>2014-10-01T16:13:36Z</time>
      </trkpt>
      <trkpt lat="42.3788970" lon="-7.2419980">
        <ele>376.1</ele>
        <time>2014-10-01T16:13:38Z</time>
      </trkpt>
      <trkpt lat="42.3788580" lon="-7.2420200">
        <ele>376.5</ele>
        <time>2014-10-01T16:13:40Z</time>
      </trkpt>
      <trkpt lat="42.3788240" lon="-7.2420470">
        <ele>376.9</ele>
        <time>2014-10-01T16:13:42Z</time>
      </trkpt>
      <trkpt lat="42.3787920" lon="-7.2420760">
        <ele>377.2</ele>
        <time>2014-10-01T16:13:44Z</time>
      </trkpt>
      <trkpt lat="42.3787640" lon="-7.2421170">
        <ele>377.6</ele>
        <time>2014-10-01T16:13:46Z</time>
      </trkpt>
      <trkpt lat="42.3787340" lon="-7.2421580">
        <ele>378.0</ele>
        <time>2014-10-01T16:13:48Z</time>
      </trkpt>
      <trkpt lat="42.3787070" lon="-7.2422040">
        <ele>378.4</ele>
        <time>2014-10-01T16:13:50Z</time>
      </trkpt>
      <trkpt lat="42.3786820" lon="-7.2422530">
        <ele>378.8</ele>
        <time>2014-10-01T16:13:52Z</time>
      </trkpt>
      <trkpt lat="42.3786660" lon="-7.2422960">
        <ele>379.2</ele>
        <time>2014-10-01T16:13:54Z</time>
      </trkpt>
      <trkpt lat="42.3786560" lon="-7.2423350">
        <ele>379.5</ele>
        <time>2014-10-01T16:13:56Z</time>
      </trkpt>
      <trkpt lat="42.3786450" lon="-7.2423700">
        <ele>379.7</ele>
        <time>2014-10-01T16:13:58Z</time>
      </trkpt>
      <trkpt lat="42.3786350" lon="-7.2424050">
        <ele>380.0</ele>
        <time>2014-10-01T16:14:00Z</time>
      </trkpt>
      <trkpt lat="42.3786290" lon="-7.2424450">
        <ele>380.3</ele>
        <time>2014-10-01T16:14:02Z</time>
      </trkpt>
      <trkpt lat="42.3786390" lon="-7.2424890">
        <ele>380.6</ele>
        <time>2014-10-01T16:14:04Z</time>
      </trkpt>
      <trkpt lat="42.3786510" lon="-7.2425400">
        <ele>381.0</ele>
        <time>2014-10-01T16:14:06Z</time>
      </trkpt>
      <trkpt lat="42.3786720" lon="-7.2425840">
        <ele>381.8</ele>
        <time>2014-10-01T16:14:08Z</time>
      </trkpt>
      <trkpt lat="42.3786940" lon="-7.2426310">
        <ele>382.2</ele>
        <time>2014-10-01T16:14:10Z</time>
      </trkpt>
      <trkpt lat="42.3787150" lon="-7.2426790">
        <ele>382.7</ele>
        <time>2014-10-01T16:14:12Z</time>
      </trkpt>
      <trkpt lat="42.3787270" lon="-7.2427160">
        <ele>383.0</ele>
        <time>2014-10-01T16:14:14Z</time>
      </trkpt>
      <trkpt lat="42.3787360" lon="-7.2427610">
        <ele>383.4</ele>
        <time>2014-10-01T16:14:16Z</time>
      </trkpt>
      <trkpt lat="42.3787420" lon="-7.2428250">
        <ele>383.9</ele>
        <time>2014-10-01T16:14:18Z</time>
      </trkpt>
      <trkpt lat="42.3787450" lon="-7.2428780">
        <ele>384.3</ele>
        <time>2014-10-01T16:14:20Z</time>
      </trkpt>
      <trkpt lat="42.3787440" lon="-7.2429300">
        <ele>384.7</ele>
        <time>2014-10-01T16:14:22Z</time>
      </trkpt>
      <trkpt lat="42.3787410" lon="-7.2429790">
        <ele>385.1</ele>
        <time>2014-10-01T16:14:24Z</time>
      </trkpt>
      <trkpt lat="42.3787400" lon="-7.2430290">
        <ele>385.5</ele>
        <time>2014-10-01T16:14:26Z</time>
      </trkpt>
      <trkpt lat="42.3787410" lon="-7.2430800">
        <ele>385.9</ele>
        <time>2014-10-01T16:14:28Z</time>
      </trkpt>
      <trkpt lat="42.3787420" lon="-7.2431260">
        <ele>386.3</ele>
        <time>2014-10-01T16:14:30Z</time>
      </trkpt>
      <trkpt lat="42.3787470" lon="-7.2431830">
        <ele>386.8</ele>
        <time>2014-10-01T16:14:32Z</time>
      </trkpt>
      <trkpt lat="42.3787500" lon="-7.2432390">
        <ele>387.2</ele>
        <time>2014-10-01T16:14:34Z</time>
      </trkpt>
      <trkpt lat="42.3787470" lon="-7.2432880">
        <ele>387.6</ele>
        <time>2014-10-01T16:14:36Z</time>
      </trkpt>
      <trkpt lat="42.3787400" lon="-7.2433350">
        <ele>388.0</ele>
        <time>2014-10-01T16:14:38Z</time>
      </trkpt>
      <trkpt lat="42.3787350" lon="-7.2433860">
        <ele>388.4</ele>
        <time>2014-10-01T16:14:40Z</time>
      </trkpt>
      <trkpt lat="42.3787340" lon="-7.2434450">
        <ele>388.9</ele>
        <time>2014-10-01T16:14:42Z</time>
      </trkpt>
      <trkpt lat="42.3787260" lon="-7.2434920">
        <ele>389.3</ele>
        <time>2014-10-01T16:14:44Z</time>
      </trkpt>
      <trkpt lat="42.3787180" lon="-7.2435330">
        <ele>389.6</ele>
        <time>2014-10-01T16:14:46Z</time>
      </trkpt>
      <trkpt lat="42.3787140" lon="-7.2435760">
        <ele>389.9</ele>
        <time>2014-10-01T16:14:48Z</time>
      </trkpt>
      <trkpt lat="42.3787120" lon="-7.2436370">
        <ele>390.4</ele>
        <time>2014-10-01T16:14:51Z</time>
      </trkpt>
      <trkpt lat="42.3787140" lon="-7.2437000">
        <ele>390.9</ele>
        <time>2014-10-01T16:14:53Z</time>
      </trkpt>
      <trkpt lat="42.3787070" lon="-7.2437650">
        <ele>391.5</ele>
        <time>2014-10-01T16:14:55Z</time>
      </trkpt>
      <trkpt lat="42.3787030" lon="-7.2438210">
        <ele>391.9</ele>
        <time>2014-10-01T16:14:57Z</time>
      </trkpt>
      <trkpt lat="42.3786970" lon="-7.2438800">
        <ele>392.4</ele>
        <time>2014-10-01T16:14:59Z</time>
      </trkpt>
      <trkpt lat="42.3786940" lon="-7.2439320">
        <ele>392.8</ele>
        <time>2014-10-01T16:15:01Z</time>
      </trkpt>
      <trkpt lat="42.3786900" lon="-7.2439820">
        <ele>393.2</ele>
        <time>2014-10-01T16:15:03Z</time>
      </trkpt>
      <trkpt lat="42.3786910" lon="-7.2440240">
        <ele>393.6</ele>
        <time>2014-10-01T16:15:05Z</time>
      </trkpt>
      <trkpt lat="42.3786940" lon="-7.2440720">
        <ele>393.9</ele>
        <time>2014-10-01T16:15:07Z</time>
      </trkpt>
      <trkpt lat="42.3786920" lon="-7.2441180">
        <ele>394.3</ele>
        <time>2014-10-01T16:15:09Z</time>
      </trkpt>
      <trkpt lat="42.3786900" lon="-7.2441690">
        <ele>394.7</ele>
        <time>2014-10-01T16:15:11Z</time>
      </trkpt>
      <trkpt lat="42.3786870" lon="-7.2442180">
        <ele>395.1</ele>
        <time>2014-10-01T16:15:13Z</time>
      </trkpt>
      <trkpt lat="42.3786830" lon="-7.2442590">
        <ele>395.4</ele>
        <time>2014-10-01T16:15:15Z</time>
      </trkpt>
      <trkpt lat="42.3786760" lon="-7.2443010">
        <ele>395.8</ele>
        <time>2014-10-01T16:15:17Z</time>
      </trkpt>
      <trkpt lat="42.3786570" lon="-7.2443460">
        <ele>396.2</ele>
        <time>2014-10-01T16:15:19Z</time>
      </trkpt>
      <trkpt lat="42.3786350" lon="-7.2443890">
        <ele>396.6</ele>
        <time>2014-10-01T16:15:21Z</time>
      </trkpt>
      <trkpt lat="42.3786130" lon="-7.2444290">
        <ele>397.0</ele>
        <time>2014-10-01T16:15:23Z</time>
      </trkpt>
      <trkpt lat="42.3785900" lon="-7.2444660">
        <ele>397.4</ele>
        <time>2014-10-01T16:15:25Z</time>
      </trkpt>
      <trkpt lat="42.3785750" lon="-7.2445050">
        <ele>397.8</ele>
        <time>2014-10-01T16:15:27Z</time>
      </trkpt>
      <trkpt lat="42.3785620" lon="-7.2445430">
        <ele>398.1</ele>
        <time>2014-10-01T16:15:29Z</time>
      </trkpt>
      <trkpt lat="42.3785440" lon="-7.2445720">
        <ele>398.4</ele>
        <time>2014-10-01T16:15:36Z</time>
      </trkpt>
      <trkpt lat="42.3785350" lon="-7.2446110">
        <ele>398.7</ele>
        <time>2014-10-01T16:15:49Z</time>
      </trkpt>
      <trkpt lat="42.3785180" lon="-7.2446580">
        <ele>399.2</ele>
        <time>2014-10-01T16:15:52Z</time>
      </trkpt>
      <trkpt lat="42.3785210" lon="-7.2447020">
        <ele>399.5</ele>
        <time>2014-10-01T16:15:54Z</time>
      </trkpt>
      <trkpt lat="42.3785290" lon="-7.2447530">
        <ele>399.9</ele>
        <time>2014-10-01T16:15:56Z</time>
      </trkpt>
      <trkpt lat="42.3785370" lon="-7.2447890">
        <ele>400.2</ele>
        <time>2014-10-01T16:15:57Z</time>
      </trkpt>
      <trkpt lat="42.3785390" lon="-7.2448280">
        <ele>400.5</ele>
        <time>2014-10-01T16:15:58Z</time>
      </trkpt>
      <trkpt lat="42.3785460" lon="-7.2448770">
        <ele>400.9</ele>
        <time>2014-10-01T16:15:59Z</time>
      </trkpt>
      <trkpt lat="42.3785460" lon="-7.2449280">
        <ele>401.3</ele>
        <time>2014-10-01T16:16:00Z</time>
      </trkpt>
      <trkpt lat="42.3785430" lon="-7.2449730">
        <ele>401.7</ele>
        <time>2014-10-01T16:16:01Z</time>
      </trkpt>
      <trkpt lat="42.3785390" lon="-7.2450250">
        <ele>402.1</ele>
        <time>2014-10-01T16:16:02Z</time>
      </trkpt>
      <trkpt lat="42.3785160" lon="-7.2450760">
        <ele>402.6</ele>
        <time>2014-10-01T16:16:03Z</time>
      </trkpt>
      <trkpt lat="42.3784870" lon="-7.2451040">
        <ele>403.0</ele>
        <time>2014-10-01T16:16:04Z</time>
      </trkpt>
      <trkpt lat="42.3784560" lon="-7.2451340">
        <ele>403.4</ele>
        <time>2014-10-01T16:16:05Z</time>
      </trkpt>
      <trkpt lat="42.3784270" lon="-7.2451630">
        <ele>403.8</ele>
        <time>2014-10-01T16:16:06Z</time>
      </trkpt>
      <trkpt lat="42.3784060" lon="-7.2451890">
        <ele>404.1</ele>
        <time>2014-10-01T16:16:07Z</time>
      </trkpt>
      <trkpt lat="42.3783800" lon="-7.2452240">
        <ele>404.5</ele>
        <time>2014-10-01T16:16:08Z</time>
      </trkpt>
      <trkpt lat="42.3783560" lon="-7.2452640">
        <ele>404.9</ele>
        <time>2014-10-01T16:16:09Z</time>
      </trkpt>
      <trkpt lat="42.3783270" lon="-7.2453130">
        <ele>405.4</ele>
        <time>2014-10-01T16:16:10Z</time>
      </trkpt>
      <trkpt lat="42.3783050" lon="-7.2453660">
        <ele>405.9</ele>
        <time>2014-10-01T16:16:11Z</time>
      </trkpt>
      <trkpt lat="42.3782930" lon="-7.2454190">
        <ele>406.4</ele>
        <time>2014-10-01T16:16:12Z</time>
      </trkpt>
      <trkpt lat="42.3782780" lon="-7.2454830">
        <ele>406.9</ele>
        <time>2014-10-01T16:16:13Z</time>
      </trkpt>
      <trkpt lat="42.3782680" lon="-7.2455370">
        <ele>407.3</ele>
        <time>2014-10-01T16:16:14Z</time>
      </trkpt>
      <trkpt lat="42.3782730" lon="-7.2455920">
        <ele>407.8</ele>
        <time>2014-10-01T16:16:15Z</time>
      </trkpt>
      <trkpt lat="42.3782870" lon="-7.2456430">
        <ele>408.2</ele>
        <time>2014-10-01T16:16:16Z</time>
      </trkpt>
      <trkpt lat="42.3783090" lon="-7.2457030">
        <ele>408.8</ele>
        <time>2014-10-01T16:16:17Z</time>
      </trkpt>
      <trkpt lat="42.3783270" lon="-7.2457410">
        <ele>409.1</ele>
        <time>2014-10-01T16:16:18Z</time>
      </trkpt>
      <trkpt lat="42.3783480" lon="-7.2457860">
        <ele>409.5</ele>
        <time>2014-10-01T16:16:19Z</time>
      </trkpt>
      <trkpt lat="42.3783720" lon="-7.2458270">
        <ele>410.0</ele>
        <time>2014-10-01T16:16:20Z</time>
      </trkpt>
      <trkpt lat="42.3783970" lon="-7.2458650">
        <ele>410.4</ele>
        <time>2014-10-01T16:16:21Z</time>
      </trkpt>
      <trkpt lat="42.3784240" lon="-7.2459020">
        <ele>410.8</ele>
        <time>2014-10-01T16:16:22Z</time>
      </trkpt>
      <trkpt lat="42.3784470" lon="-7.2459340">
        <ele>411.2</ele>
        <time>2014-10-01T16:16:23Z</time>
      </trkpt>
      <trkpt lat="42.3784690" lon="-7.2459680">
        <ele>411.5</ele>
        <time>2014-10-01T16:16:24Z</time>
      </trkpt>
      <trkpt lat="42.3784940" lon="-7.2460030">
        <ele>411.9</ele>
        <time>2014-10-01T16:16:25Z</time>
      </trkpt>
      <trkpt lat="42.3785210" lon="-7.2460380">
        <ele>412.3</ele>
        <time>2014-10-01T16:16:26Z</time>
      </trkpt>
      <trkpt lat="42.3785460" lon="-7.2460700">
        <ele>412.7</ele>
        <time>2014-10-01T16:16:27Z</time>
      </trkpt>
      <trkpt lat="42.3785690" lon="-7.2460970">
        <ele>413.0</ele>
        <time>2014-10-01T16:16:28Z</time>
      </trkpt>
      <trkpt lat="42.3785950" lon="-7.2461350">
        <ele>413.4</ele>
        <time>2014-10-01T16:16:29Z</time>
      </trkpt>
      <trkpt lat="42.3786220" lon="-7.2461840">
        <ele>413.9</ele>
        <time>2014-10-01T16:16:30Z</time>
      </trkpt>
      <trkpt lat="42.3786510" lon="-7.2462310">
        <ele>414.4</ele>
        <time>2014-10-01T16:16:31Z</time>
      </trkpt>
      <trkpt lat="42.3786790" lon="-7.2462760">
        <ele>414.9</ele>
        <time>2014-10-01T16:16:32Z</time>
      </trkpt>
      <trkpt lat="42.3787060" lon="-7.2463220">
        <ele>415.4</ele>
        <time>2014-10-01T16:16:33Z</time>
      </trkpt>
      <trkpt lat="42.3787310" lon="-7.2463620">
        <ele>415.8</ele>
        <time>2014-10-01T16:16:34Z</time>
      </trkpt>
      <trkpt lat="42.3787510" lon="-7.2464040">
        <ele>416.2</ele>
        <time>2014-10-01T16:16:35Z</time>
      </trkpt>
      <trkpt lat="42.3787690" lon="-7.2464470">
        <ele>416.6</ele>
        <time>2014-10-01T16:16:36Z</time>
      </trkpt>
      <trkpt lat="42.3787860" lon="-7.2464890">
        <ele>417.0</ele>
        <time>2014-10-01T16:16:37Z</time>
      </trkpt>
      <trkpt lat="42.3787990" lon="-7.2465230">
        <ele>417.3</ele>
        <time>2014-10-01T16:16:38Z</time>
      </trkpt>
      <trkpt lat="42.3788110" lon="-7.2465660">
        <ele>417.6</ele>
        <time>2014-10-01T16:16:39Z</time>
      </trkpt>
      <trkpt lat="42.3788200" lon="-7.2466060">
        <ele>418.0</ele>
        <time>2014-10-01T16:16:40Z</time>
      </trkpt>
      <trkpt lat="42.3788270" lon="-7.2466820">
        <ele>418.6</ele>
        <time>2014-10-01T16:16:42Z</time>
      </trkpt>
      <trkpt lat="42.3788220" lon="-7.2467180">
        <ele>418.9</ele>
        <time>2014-10-01T16:16:43Z</time>
      </trkpt>
      <trkpt lat="42.3788080" lon="-7.2467500">
        <ele>419.2</ele>
        <time>2014-10-01T16:16:44Z</time>
      </trkpt>
      <trkpt lat="42.3787690" lon="-7.2467910">
        <ele>419.7</ele>
        <time>2014-10-01T16:16:46Z</time>
      </trkpt>
      <trkpt lat="42.3787200" lon="-7.2468100">
        <ele>420.3</ele>
        <time>2014-10-01T16:16:48Z</time>
      </trkpt>
      <trkpt lat="42.3786790" lon="-7.2468240">
        <ele>420.7</ele>
        <time>2014-10-01T16:16:50Z</time>
      </trkpt>
      <trkpt lat="42.3786300" lon="-7.2468340">
        <ele>421.3</ele>
        <time>2014-10-01T16:16:52Z</time>
      </trkpt>
      <trkpt lat="42.3785900" lon="-7.2468480">
        <ele>421.7</ele>
        <time>2014-10-01T16:16:54Z</time>
      </trkpt>
      <trkpt lat="42.3785510" lon="-7.2468560">
        <ele>422.1</ele>
        <time>2014-10-01T16:16:56Z</time>
      </trkpt>
      <trkpt lat="42.3785140" lon="-7.2468680">
        <ele>422.5</ele>
        <time>2014-10-01T16:16:58Z</time>
      </trkpt>
      <trkpt lat="42.3784690" lon="-7.2468860">
        <ele>423.1</ele>
        <time>2014-10-01T16:17:00Z</time>
      </trkpt>
      <trkpt lat="42.3784310" lon="-7.2468980">
        <ele>423.5</ele>
        <time>2014-10-01T16:17:02Z</time>
      </trkpt>
      <trkpt lat="42.3783880" lon="-7.2469100">
        <ele>424.0</ele>
        <time>2014-10-01T16:17:04Z</time>
      </trkpt>
      <trkpt lat="42.3783450" lon="-7.2469270">
        <ele>424.4</ele>
        <time>2014-10-01T16:17:06Z</time>
      </trkpt>
      <trkpt lat="42.3782870" lon="-7.2469420">
        <ele>425.1</ele>
        <time>2014-10-01T16:17:08Z</time>
      </trkpt>
      <trkpt lat="42.3782490" lon="-7.2469460">
        <ele>425.5</ele>
        <time>2014-10-01T16:17:09Z</time>
      </trkpt>
      <trkpt lat="42.3782030" lon="-7.2469530">
        <ele>426.0</ele>
        <time>2014-10-01T16:17:10Z</time>
      </trkpt>
      <trkpt lat="42.3781640" lon="-7.2469530">
        <ele>426.4</ele>
        <time>2014-10-01T16:17:11Z</time>
      </trkpt>
      <trkpt lat="42.3781290" lon="-7.2469560">
        <ele>426.8</ele>
        <time>2014-10-01T16:17:12Z</time>
      </trkpt>
      <trkpt lat="42.3780940" lon="-7.2469560">
        <ele>427.2</ele>
        <time>2014-10-01T16:17:13Z</time>
      </trkpt>
      <trkpt lat="42.3780580" lon="-7.2469580">
        <ele>427.6</ele>
        <time>2014-10-01T16:17:14Z</time>
      </trkpt>
      <trkpt lat="42.3780250" lon="-7.2469630">
        <ele>427.9</ele>
        <time>2014-10-01T16:17:15Z</time>
      </trkpt>
      <trkpt lat="42.3779950" lon="-7.2469730">
        <ele>428.3</ele>
        <time>2014-10-01T16:17:16Z</time>
      </trkpt>
      <trkpt lat="42.3779660" lon="-7.2469870">
        <ele>428.6</ele>
        <time>2014-10-01T16:17:17Z</time>
      </trkpt>
      <trkpt lat="42.3779370" lon="-7.2470060">
        <ele>429.0</ele>
        <time>2014-10-01T16:17:18Z</time>
      </trkpt>
      <trkpt lat="42.3779100" lon="-7.2470210">
        <ele>429.3</ele>
        <time>2014-10-01T16:17:19Z</time>
      </trkpt>
      <trkpt lat="42.3778550" lon="-7.2470350">
        <ele>429.9</ele>
        <time>2014-10-01T16:17:21Z</time>
      </trkpt>
      <trkpt lat="42.3778210" lon="-7.2470440">
        <ele>430.3</ele>
        <time>2014-10-01T16:17:22Z</time>
      </trkpt>
      <trkpt lat="42.3777910" lon="-7.2470580">
        <ele>430.6</ele>
        <time>2014-10-01T16:17:23Z</time>
      </trkpt>
      <trkpt lat="42.3777660" lon="-7.2470740">
        <ele>430.9</ele>
        <time>2014-10-01T16:17:24Z</time>
      </trkpt>
      <trkpt lat="42.3777260" lon="-7.2471000">
        <ele>431.4</ele>
        <time>2014-10-01T16:17:26Z</time>
      </trkpt>
      <trkpt lat="42.3776850" lon="-7.2471310">
        <ele>431.9</ele>
        <time>2014-10-01T16:17:28Z</time>
      </trkpt>
      <trkpt lat="42.3776430" lon="-7.2471520">
        <ele>432.4</ele>
        <time>2014-10-01T16:17:30Z</time>
      </trkpt>
      <trkpt lat="42.3776070" lon="-7.2471710">
        <ele>432.8</ele>
        <time>2014-10-01T16:17:32Z</time>
      </trkpt>
      <trkpt lat="42.3775700" lon="-7.2471840">
        <ele>433.2</ele>
        <time>2014-10-01T16:17:34Z</time>
      </trkpt>
      <trkpt lat="42.3775300" lon="-7.2471890">
        <ele>433.6</ele>
        <time>2014-10-01T16:17:36Z</time>
      </trkpt>
      <trkpt lat="42.3774900" lon="-7.2472030">
        <ele>434.1</ele>
        <time>2014-10-01T16:17:38Z</time>
      </trkpt>
      <trkpt lat="42.3774500" lon="-7.2472230">
        <ele>434.6</ele>
        <time>2014-10-01T16:17:40Z</time>
      </trkpt>
      <trkpt lat="42.3774160" lon="-7.2472440">
        <ele>434.5</ele>
        <time>2014-10-01T16:17:42Z</time>
      </trkpt>
      <trkpt lat="42.3773790" lon="-7.2472620">
        <ele>434.5</ele>
        <time>2014-10-01T16:17:44Z</time>
      </trkpt>
      <trkpt lat="42.3773460" lon="-7.2472760">
        <ele>434.4</ele>
        <time>2014-10-01T16:17:46Z</time>
      </trkpt>
      <trkpt lat="42.3773130" lon="-7.2472970">
        <ele>434.3</ele>
        <time>2014-10-01T16:17:49Z</time>
      </trkpt>
      <trkpt lat="42.3772860" lon="-7.2473200">
        <ele>434.3</ele>
        <time>2014-10-01T16:17:51Z</time>
      </trkpt>
      <trkpt lat="42.3772580" lon="-7.2473430">
        <ele>434.2</ele>
        <time>2014-10-01T16:17:53Z</time>
      </trkpt>
      <trkpt lat="42.3772190" lon="-7.2473700">
        <ele>434.2</ele>
        <time>2014-10-01T16:17:55Z</time>
      </trkpt>
      <trkpt lat="42.3771870" lon="-7.2474060">
        <ele>434.1</ele>
        <time>2014-10-01T16:17:57Z</time>
      </trkpt>
      <trkpt lat="42.3771660" lon="-7.2474550">
        <ele>433.9</ele>
        <time>2014-10-01T16:17:59Z</time>
      </trkpt>
      <trkpt lat="42.3771480" lon="-7.2475080">
        <ele>433.7</ele>
        <time>2014-10-01T16:18:01Z</time>
      </trkpt>
      <trkpt lat="42.3771310" lon="-7.2475700">
        <ele>433.5</ele>
        <time>2014-10-01T16:18:03Z</time>
      </trkpt>
      <trkpt lat="42.3771180" lon="-7.2476270">
        <ele>434.2</ele>
        <time>2014-10-01T16:18:05Z</time>
      </trkpt>
      <trkpt lat="42.3771090" lon="-7.2476770">
        <ele>435.1</ele>
        <time>2014-10-01T16:18:07Z</time>
      </trkpt>
      <trkpt lat="42.3771090" lon="-7.2477340">
        <ele>436.0</ele>
        <time>2014-10-01T16:18:09Z</time>
      </trkpt>
      <trkpt lat="42.3771280" lon="-7.2477990">
        <ele>437.2</ele>
        <time>2014-10-01T16:18:11Z</time>
      </trkpt>
      <trkpt lat="42.3771530" lon="-7.2478540">
        <ele>438.4</ele>
        <time>2014-10-01T16:18:13Z</time>
      </trkpt>
      <trkpt lat="42.3771800" lon="-7.2479010">
        <ele>439.5</ele>
        <time>2014-10-01T16:18:15Z</time>
      </trkpt>
      <trkpt lat="42.3771930" lon="-7.2479560">
        <ele>440.0</ele>
        <time>2014-10-01T16:18:17Z</time>
      </trkpt>
      <trkpt lat="42.3771970" lon="-7.2480230">
        <ele>440.1</ele>
        <time>2014-10-01T16:18:19Z</time>
      </trkpt>
      <trkpt lat="42.3771980" lon="-7.2480660">
        <ele>440.3</ele>
        <time>2014-10-01T16:18:20Z</time>
      </trkpt>
      <trkpt lat="42.3772040" lon="-7.2481140">
        <ele>440.8</ele>
        <time>2014-10-01T16:18:21Z</time>
      </trkpt>
      <trkpt lat="42.3772120" lon="-7.2481630">
        <ele>441.3</ele>
        <time>2014-10-01T16:18:22Z</time>
      </trkpt>
      <trkpt lat="42.3772200" lon="-7.2482080">
        <ele>441.7</ele>
        <time>2014-10-01T16:18:23Z</time>
      </trkpt>
      <trkpt lat="42.3772260" lon="-7.2482460">
        <ele>442.1</ele>
        <time>2014-10-01T16:18:24Z</time>
      </trkpt>
      <trkpt lat="42.3772340" lon="-7.2483130">
        <ele>442.7</ele>
        <time>2014-10-01T16:18:26Z</time>
      </trkpt>
      <trkpt lat="42.3772540" lon="-7.2483780">
        <ele>443.3</ele>
        <time>2014-10-01T16:18:28Z</time>
      </trkpt>
      <trkpt lat="42.3772700" lon="-7.2484180">
        <ele>443.7</ele>
        <time>2014-10-01T16:18:29Z</time>
      </trkpt>
      <trkpt lat="42.3772800" lon="-7.2484550">
        <ele>444.1</ele>
        <time>2014-10-01T16:18:30Z</time>
      </trkpt>
      <trkpt lat="42.3772890" lon="-7.2484920">
        <ele>444.4</ele>
        <time>2014-10-01T16:18:31Z</time>
      </trkpt>
      <trkpt lat="42.3772970" lon="-7.2485320">
        <ele>444.8</ele>
        <time>2014-10-01T16:18:32Z</time>
      </trkpt>
      <trkpt lat="42.3773050" lon="-7.2485760">
        <ele>445.2</ele>
        <time>2014-10-01T16:18:33Z</time>
      </trkpt>
      <trkpt lat="42.3773090" lon="-7.2486140">
        <ele>445.6</ele>
        <time>2014-10-01T16:18:34Z</time>
      </trkpt>
      <trkpt lat="42.3773150" lon="-7.2486580">
        <ele>446.0</ele>
        <time>2014-10-01T16:18:35Z</time>
      </trkpt>
      <trkpt lat="42.3773220" lon="-7.2487010">
        <ele>446.5</ele>
        <time>2014-10-01T16:18:36Z</time>
      </trkpt>
      <trkpt lat="42.3773340" lon="-7.2487540">
        <ele>447.1</ele>
        <time>2014-10-01T16:18:37Z</time>
      </trkpt>
      <trkpt lat="42.3773420" lon="-7.2487960">
        <ele>447.6</ele>
        <time>2014-10-01T16:18:38Z</time>
      </trkpt>
      <trkpt lat="42.3773500" lon="-7.2488390">
        <ele>448.2</ele>
        <time>2014-10-01T16:18:39Z</time>
      </trkpt>
      <trkpt lat="42.3773550" lon="-7.2488790">
        <ele>448.8</ele>
        <time>2014-10-01T16:18:40Z</time>
      </trkpt>
      <trkpt lat="42.3773600" lon="-7.2489200">
        <ele>449.4</ele>
        <time>2014-10-01T16:18:41Z</time>
      </trkpt>
      <trkpt lat="42.3773690" lon="-7.2489790">
        <ele>450.3</ele>
        <time>2014-10-01T16:18:43Z</time>
      </trkpt>
      <trkpt lat="42.3773800" lon="-7.2490410">
        <ele>451.4</ele>
        <time>2014-10-01T16:18:45Z</time>
      </trkpt>
      <trkpt lat="42.3773990" lon="-7.2490760">
        <ele>452.1</ele>
        <time>2014-10-01T16:18:47Z</time>
      </trkpt>
      <trkpt lat="42.3774300" lon="-7.2491080">
        <ele>453.0</ele>
        <time>2014-10-01T16:18:49Z</time>
      </trkpt>
      <trkpt lat="42.3774560" lon="-7.2491330">
        <ele>453.8</ele>
        <time>2014-10-01T16:18:51Z</time>
      </trkpt>
      <trkpt lat="42.3774870" lon="-7.2491520">
        <ele>454.6</ele>
        <time>2014-10-01T16:18:53Z</time>
      </trkpt>
      <trkpt lat="42.3775240" lon="-7.2491710">
        <ele>455.7</ele>
        <time>2014-10-01T16:18:55Z</time>
      </trkpt>
      <trkpt lat="42.3775580" lon="-7.2491940">
        <ele>456.7</ele>
        <time>2014-10-01T16:18:57Z</time>
      </trkpt>
      <trkpt lat="42.3775820" lon="-7.2492130">
        <ele>457.5</ele>
        <time>2014-10-01T16:18:59Z</time>
      </trkpt>
      <trkpt lat="42.3776110" lon="-7.2492400">
        <ele>458.5</ele>
        <time>2014-10-01T16:19:01Z</time>
      </trkpt>
      <trkpt lat="42.3776370" lon="-7.2492690">
        <ele>459.4</ele>
        <time>2014-10-01T16:19:03Z</time>
      </trkpt>
      <trkpt lat="42.3776530" lon="-7.2493010">
        <ele>460.2</ele>
        <time>2014-10-01T16:19:05Z</time>
      </trkpt>
      <trkpt lat="42.3776660" lon="-7.2493490">
        <ele>461.3</ele>
        <time>2014-10-01T16:19:08Z</time>
      </trkpt>
      <trkpt lat="42.3776670" lon="-7.2493960">
        <ele>462.2</ele>
        <time>2014-10-01T16:19:10Z</time>
      </trkpt>
      <trkpt lat="42.3776640" lon="-7.2494460">
        <ele>463.2</ele>
        <time>2014-10-01T16:19:12Z</time>
      </trkpt>
      <trkpt lat="42.3776620" lon="-7.2494850">
        <ele>464.0</ele>
        <time>2014-10-01T16:19:14Z</time>
      </trkpt>
      <trkpt lat="42.3776560" lon="-7.2495330">
        <ele>465.0</ele>
        <time>2014-10-01T16:19:16Z</time>
      </trkpt>
      <trkpt lat="42.3776520" lon="-7.2495790">
        <ele>466.0</ele>
        <time>2014-10-01T16:19:18Z</time>
      </trkpt>
      <trkpt lat="42.3776610" lon="-7.2496180">
        <ele>466.9</ele>
        <time>2014-10-01T16:19:20Z</time>
      </trkpt>
      <trkpt lat="42.3776860" lon="-7.2496480">
        <ele>467.8</ele>
        <time>2014-10-01T16:19:23Z</time>
      </trkpt>
      <trkpt lat="42.3777280" lon="-7.2496550">
        <ele>469.0</ele>
        <time>2014-10-01T16:19:26Z</time>
      </trkpt>
      <trkpt lat="42.3777570" lon="-7.2496550">
        <ele>469.7</ele>
        <time>2014-10-01T16:19:28Z</time>
      </trkpt>
      <trkpt lat="42.3777820" lon="-7.2496380">
        <ele>470.4</ele>
        <time>2014-10-01T16:19:30Z</time>
      </trkpt>
      <trkpt lat="42.3778090" lon="-7.2495970">
        <ele>471.3</ele>
        <time>2014-10-01T16:19:32Z</time>
      </trkpt>
      <trkpt lat="42.3778330" lon="-7.2495430">
        <ele>472.4</ele>
        <time>2014-10-01T16:19:34Z</time>
      </trkpt>
      <trkpt lat="42.3778520" lon="-7.2494950">
        <ele>473.4</ele>
        <time>2014-10-01T16:19:36Z</time>
      </trkpt>
      <trkpt lat="42.3778700" lon="-7.2494460">
        <ele>474.5</ele>
        <time>2014-10-01T16:19:38Z</time>
      </trkpt>
      <trkpt lat="42.3778830" lon="-7.2493960">
        <ele>475.6</ele>
        <time>2014-10-01T16:19:40Z</time>
      </trkpt>
      <trkpt lat="42.3778950" lon="-7.2493500">
        <ele>475.9</ele>
        <time>2014-10-01T16:19:42Z</time>
      </trkpt>
      <trkpt lat="42.3779100" lon="-7.2493130">
        <ele>476.0</ele>
        <time>2014-10-01T16:19:44Z</time>
      </trkpt>
      <trkpt lat="42.3779170" lon="-7.2492710">
        <ele>476.1</ele>
        <time>2014-10-01T16:19:46Z</time>
      </trkpt>
      <trkpt lat="42.3779260" lon="-7.2492170">
        <ele>476.1</ele>
        <time>2014-10-01T16:19:48Z</time>
      </trkpt>
      <trkpt lat="42.3779380" lon="-7.2491670">
        <ele>476.1</ele>
        <time>2014-10-01T16:19:50Z</time>
      </trkpt>
      <trkpt lat="42.3779540" lon="-7.2491230">
        <ele>476.1</ele>
        <time>2014-10-01T16:19:52Z</time>
      </trkpt>
      <trkpt lat="42.3779720" lon="-7.2490780">
        <ele>476.1</ele>
        <time>2014-10-01T16:19:54Z</time>
      </trkpt>
      <trkpt lat="42.3779950" lon="-7.2490290">
        <ele>476.1</ele>
        <time>2014-10-01T16:19:56Z</time>
      </trkpt>
      <trkpt lat="42.3780120" lon="-7.2489940">
        <ele>476.1</ele>
        <time>2014-10-01T16:19:58Z</time>
      </trkpt>
      <trkpt lat="42.3780340" lon="-7.2489570">
        <ele>476.1</ele>
        <time>2014-10-01T16:20:00Z</time>
      </trkpt>
      <trkpt lat="42.3780490" lon="-7.2489260">
        <ele>476.2</ele>
        <time>2014-10-01T16:20:02Z</time>
      </trkpt>
      <trkpt lat="42.3780650" lon="-7.2488950">
        <ele>476.3</ele>
        <time>2014-10-01T16:20:04Z</time>
      </trkpt>
      <trkpt lat="42.3780810" lon="-7.2488590">
        <ele>476.4</ele>
        <time>2014-10-01T16:20:06Z</time>
      </trkpt>
      <trkpt lat="42.3780970" lon="-7.2488230">
        <ele>476.5</ele>
        <time>2014-10-01T16:20:08Z</time>
      </trkpt>
      <trkpt lat="42.3781140" lon="-7.2487890">
        <ele>476.7</ele>
        <time>2014-10-01T16:20:10Z</time>
      </trkpt>
      <trkpt lat="42.3781340" lon="-7.2487480">
        <ele>476.9</ele>
        <time>2014-10-01T16:20:12Z</time>
      </trkpt>
      <trkpt lat="42.3781580" lon="-7.2487070">
        <ele>477.1</ele>
        <time>2014-10-01T16:20:14Z</time>
      </trkpt>
      <trkpt lat="42.3781920" lon="-7.2486830">
        <ele>477.8</ele>
        <time>2014-10-01T16:20:16Z</time>
      </trkpt>
      <trkpt lat="42.3782290" lon="-7.2486920">
        <ele>478.6</ele>
        <time>2014-10-01T16:20:18Z</time>
      </trkpt>
      <trkpt lat="42.3782470" lon="-7.2487340">
        <ele>479.3</ele>
        <time>2014-10-01T16:20:20Z</time>
      </trkpt>
      <trkpt lat="42.3782520" lon="-7.2487920">
        <ele>480.1</ele>
        <time>2014-10-01T16:20:22Z</time>
      </trkpt>
      <trkpt lat="42.3782510" lon="-7.2488540">
        <ele>480.9</ele>
        <time>2014-10-01T16:20:24Z</time>
      </trkpt>
      <trkpt lat="42.3782510" lon="-7.2489040">
        <ele>481.5</ele>
        <time>2014-10-01T16:20:26Z</time>
      </trkpt>
      <trkpt lat="42.3782520" lon="-7.2489440">
        <ele>482.0</ele>
        <time>2014-10-01T16:20:28Z</time>
      </trkpt>
      <trkpt lat="42.3782540" lon="-7.2489900">
        <ele>482.5</ele>
        <time>2014-10-01T16:20:30Z</time>
      </trkpt>
      <trkpt lat="42.3782620" lon="-7.2490300">
        <ele>483.0</ele>
        <time>2014-10-01T16:20:32Z</time>
      </trkpt>
      <trkpt lat="42.3782670" lon="-7.2490710">
        <ele>483.5</ele>
        <time>2014-10-01T16:20:34Z</time>
      </trkpt>
      <trkpt lat="42.3782730" lon="-7.2491090">
        <ele>484.0</ele>
        <time>2014-10-01T16:20:36Z</time>
      </trkpt>
      <trkpt lat="42.3782770" lon="-7.2491520">
        <ele>484.5</ele>
        <time>2014-10-01T16:20:38Z</time>
      </trkpt>
      <trkpt lat="42.3782830" lon="-7.2491920">
        <ele>485.0</ele>
        <time>2014-10-01T16:20:40Z</time>
      </trkpt>
      <trkpt lat="42.3782940" lon="-7.2492410">
        <ele>485.6</ele>
        <time>2014-10-01T16:20:42Z</time>
      </trkpt>
      <trkpt lat="42.3783020" lon="-7.2492850">
        <ele>486.1</ele>
        <time>2014-10-01T16:20:44Z</time>
      </trkpt>
      <trkpt lat="42.3783120" lon="-7.2493370">
        <ele>486.8</ele>
        <time>2014-10-01T16:20:46Z</time>
      </trkpt>
      <trkpt lat="42.3783200" lon="-7.2493820">
        <ele>487.5</ele>
        <time>2014-10-01T16:20:48Z</time>
      </trkpt>
      <trkpt lat="42.3783270" lon="-7.2494200">
        <ele>488.1</ele>
        <time>2014-10-01T16:20:50Z</time>
      </trkpt>
      <trkpt lat="42.3783400" lon="-7.2494620">
        <ele>488.9</ele>
        <time>2014-10-01T16:20:52Z</time>
      </trkpt>
      <trkpt lat="42.3783550" lon="-7.2494970">
        <ele>489.6</ele>
        <time>2014-10-01T16:20:54Z</time>
      </trkpt>
      <trkpt lat="42.3783670" lon="-7.2495410">
        <ele>490.4</ele>
        <time>2014-10-01T16:20:57Z</time>
      </trkpt>
      <trkpt lat="42.3783820" lon="-7.2495770">
        <ele>491.2</ele>
        <time>2014-10-01T16:20:59Z</time>
      </trkpt>
      <trkpt lat="42.3783950" lon="-7.2496180">
        <ele>492.1</ele>
        <time>2014-10-01T16:21:01Z</time>
      </trkpt>
      <trkpt lat="42.3784140" lon="-7.2496530">
        <ele>492.9</ele>
        <time>2014-10-01T16:21:03Z</time>
      </trkpt>
      <trkpt lat="42.3784320" lon="-7.2496800">
        <ele>493.7</ele>
        <time>2014-10-01T16:21:05Z</time>
      </trkpt>
      <trkpt lat="42.3784620" lon="-7.2497160">
        <ele>494.8</ele>
        <time>2014-10-01T16:21:08Z</time>
      </trkpt>
      <trkpt lat="42.3784850" lon="-7.2497420">
        <ele>495.7</ele>
        <time>2014-10-01T16:21:10Z</time>
      </trkpt>
      <trkpt lat="42.3785090" lon="-7.2497640">
        <ele>496.5</ele>
        <time>2014-10-01T16:21:12Z</time>
      </trkpt>
      <trkpt lat="42.3785240" lon="-7.2498020">
        <ele>496.8</ele>
        <time>2014-10-01T16:21:14Z</time>
      </trkpt>
      <trkpt lat="42.3785440" lon="-7.2498480">
        <ele>497.4</ele>
        <time>2014-10-01T16:21:17Z</time>
      </trkpt>
      <trkpt lat="42.3785590" lon="-7.2498150">
        <ele>497.9</ele>
        <time>2014-10-01T16:22:16Z</time>
      </trkpt>
      <trkpt lat="42.3785730" lon="-7.2497690">
        <ele>498.4</ele>
        <time>2014-10-01T16:22:18Z</time>
      </trkpt>
      <trkpt lat="42.3785770" lon="-7.2497080">
        <ele>499.2</ele>
        <time>2014-10-01T16:22:20Z</time>
      </trkpt>
      <trkpt lat="42.3785810" lon="-7.2496710">
        <ele>499.6</ele>
        <time>2014-10-01T16:22:21Z</time>
      </trkpt>
      <trkpt lat="42.3785960" lon="-7.2496110">
        <ele>500.4</ele>
        <time>2014-10-01T16:22:23Z</time>
      </trkpt>
      <trkpt lat="42.3786040" lon="-7.2495640">
        <ele>501.0</ele>
        <time>2014-10-01T16:22:25Z</time>
      </trkpt>
      <trkpt lat="42.3786060" lon="-7.2495260">
        <ele>501.5</ele>
        <time>2014-10-01T16:22:27Z</time>
      </trkpt>
      <trkpt lat="42.3786180" lon="-7.2494810">
        <ele>502.2</ele>
        <time>2014-10-01T16:22:30Z</time>
      </trkpt>
      <trkpt lat="42.3786280" lon="-7.2494380">
        <ele>502.8</ele>
        <time>2014-10-01T16:22:32Z</time>
      </trkpt>
      <trkpt lat="42.3786370" lon="-7.2493940">
        <ele>503.4</ele>
        <time>2014-10-01T16:22:34Z</time>
      </trkpt>
      <trkpt lat="42.3786430" lon="-7.2493540">
        <ele>503.9</ele>
        <time>2014-10-01T16:22:36Z</time>
      </trkpt>
      <trkpt lat="42.3786550" lon="-7.2493160">
        <ele>504.4</ele>
        <time>2014-10-01T16:22:38Z</time>
      </trkpt>
      <trkpt lat="42.3786710" lon="-7.2492850">
        <ele>504.8</ele>
        <time>2014-10-01T16:22:40Z</time>
      </trkpt>
      <trkpt lat="42.3786860" lon="-7.2492360">
        <ele>505.5</ele>
        <time>2014-10-01T16:22:43Z</time>
      </trkpt>
      <trkpt lat="42.3786990" lon="-7.2491850">
        <ele>506.1</ele>
        <time>2014-10-01T16:22:46Z</time>
      </trkpt>
      <trkpt lat="42.3787080" lon="-7.2491410">
        <ele>506.6</ele>
        <time>2014-10-01T16:22:48Z</time>
      </trkpt>
      <trkpt lat="42.3787130" lon="-7.2490960">
        <ele>507.2</ele>
        <time>2014-10-01T16:22:50Z</time>
      </trkpt>
      <trkpt lat="42.3787280" lon="-7.2490470">
        <ele>507.7</ele>
        <time>2014-10-01T16:22:53Z</time>
      </trkpt>
      <trkpt lat="42.3787430" lon="-7.2490160">
        <ele>508.1</ele>
        <time>2014-10-01T16:22:55Z</time>
      </trkpt>
      <trkpt lat="42.3787600" lon="-7.2489750">
        <ele>508.6</ele>
        <time>2014-10-01T16:22:57Z</time>
      </trkpt>
      <trkpt lat="42.3787750" lon="-7.2489310">
        <ele>509.2</ele>
        <time>2014-10-01T16:22:59Z</time>
      </trkpt>
      <trkpt lat="42.3787900" lon="-7.2488910">
        <ele>509.7</ele>
        <time>2014-10-01T16:23:01Z</time>
      </trkpt>
      <trkpt lat="42.3788050" lon="-7.2488450">
        <ele>510.3</ele>
        <time>2014-10-01T16:23:03Z</time>
      </trkpt>
      <trkpt lat="42.3788290" lon="-7.2488080">
        <ele>510.9</ele>
        <time>2014-10-01T16:23:05Z</time>
      </trkpt>
      <trkpt lat="42.3788600" lon="-7.2487860">
        <ele>511.5</ele>
        <time>2014-10-01T16:23:07Z</time>
      </trkpt>
      <trkpt lat="42.3788930" lon="-7.2487910">
        <ele>512.0</ele>
        <time>2014-10-01T16:23:09Z</time>
      </trkpt>
      <trkpt lat="42.3789290" lon="-7.2488110">
        <ele>512.6</ele>
        <time>2014-10-01T16:23:11Z</time>
      </trkpt>
      <trkpt lat="42.3789570" lon="-7.2488380">
        <ele>513.1</ele>
        <time>2014-10-01T16:23:13Z</time>
      </trkpt>
      <trkpt lat="42.3789820" lon="-7.2488730">
        <ele>513.6</ele>
        <time>2014-10-01T16:23:15Z</time>
      </trkpt>
      <trkpt lat="42.3790030" lon="-7.2489030">
        <ele>514.0</ele>
        <time>2014-10-01T16:23:17Z</time>
      </trkpt>
      <trkpt lat="42.3790170" lon="-7.2489410">
        <ele>514.5</ele>
        <time>2014-10-01T16:23:19Z</time>
      </trkpt>
      <trkpt lat="42.3790310" lon="-7.2489750">
        <ele>514.9</ele>
        <time>2014-10-01T16:23:21Z</time>
      </trkpt>
      <trkpt lat="42.3790480" lon="-7.2490040">
        <ele>515.3</ele>
        <time>2014-10-01T16:23:23Z</time>
      </trkpt>
      <trkpt lat="42.3790740" lon="-7.2490450">
        <ele>515.9</ele>
        <time>2014-10-01T16:23:26Z</time>
      </trkpt>
      <trkpt lat="42.3790940" lon="-7.2490710">
        <ele>516.3</ele>
        <time>2014-10-01T16:23:28Z</time>
      </trkpt>
      <trkpt lat="42.3791100" lon="-7.2491010">
        <ele>516.7</ele>
        <time>2014-10-01T16:23:30Z</time>
      </trkpt>
      <trkpt lat="42.3791300" lon="-7.2491430">
        <ele>517.1</ele>
        <time>2014-10-01T16:23:33Z</time>
      </trkpt>
      <trkpt lat="42.3791470" lon="-7.2491770">
        <ele>517.5</ele>
        <time>2014-10-01T16:23:35Z</time>
      </trkpt>
      <trkpt lat="42.3791600" lon="-7.2492170">
        <ele>518.0</ele>
        <time>2014-10-01T16:23:37Z</time>
      </trkpt>
      <trkpt lat="42.3791710" lon="-7.2492610">
        <ele>518.4</ele>
        <time>2014-10-01T16:23:39Z</time>
      </trkpt>
      <trkpt lat="42.3791770" lon="-7.2493060">
        <ele>518.8</ele>
        <time>2014-10-01T16:23:41Z</time>
      </trkpt>
      <trkpt lat="42.3791810" lon="-7.2493490">
        <ele>519.2</ele>
        <time>2014-10-01T16:23:43Z</time>
      </trkpt>
      <trkpt lat="42.3791910" lon="-7.2493940">
        <ele>519.6</ele>
        <time>2014-10-01T16:23:45Z</time>
      </trkpt>
      <trkpt lat="42.3791970" lon="-7.2494360">
        <ele>520.0</ele>
        <time>2014-10-01T16:23:47Z</time>
      </trkpt>
      <trkpt lat="42.3791980" lon="-7.2494810">
        <ele>520.4</ele>
        <time>2014-10-01T16:23:49Z</time>
      </trkpt>
      <trkpt lat="42.3791980" lon="-7.2495300">
        <ele>520.7</ele>
        <time>2014-10-01T16:23:51Z</time>
      </trkpt>
      <trkpt lat="42.3792030" lon="-7.2495740">
        <ele>521.0</ele>
        <time>2014-10-01T16:23:53Z</time>
      </trkpt>
      <trkpt lat="42.3792110" lon="-7.2496190">
        <ele>521.2</ele>
        <time>2014-10-01T16:23:55Z</time>
      </trkpt>
      <trkpt lat="42.3792170" lon="-7.2496670">
        <ele>521.4</ele>
        <time>2014-10-01T16:23:57Z</time>
      </trkpt>
      <trkpt lat="42.3792300" lon="-7.2497210">
        <ele>521.8</ele>
        <time>2014-10-01T16:23:59Z</time>
      </trkpt>
      <trkpt lat="42.3792390" lon="-7.2497620">
        <ele>522.1</ele>
        <time>2014-10-01T16:24:01Z</time>
      </trkpt>
      <trkpt lat="42.3792480" lon="-7.2498050">
        <ele>522.5</ele>
        <time>2014-10-01T16:24:03Z</time>
      </trkpt>
      <trkpt lat="42.3792560" lon="-7.2498500">
        <ele>522.9</ele>
        <time>2014-10-01T16:24:06Z</time>
      </trkpt>
      <trkpt lat="42.3792580" lon="-7.2498960">
        <ele>523.4</ele>
        <time>2014-10-01T16:24:08Z</time>
      </trkpt>
      <trkpt lat="42.3792640" lon="-7.2499360">
        <ele>523.8</ele>
        <time>2014-10-01T16:24:10Z</time>
      </trkpt>
      <trkpt lat="42.3792700" lon="-7.2499790">
        <ele>524.3</ele>
        <time>2014-10-01T16:24:12Z</time>
      </trkpt>
      <trkpt lat="42.3792790" lon="-7.2500300">
        <ele>524.8</ele>
        <time>2014-10-01T16:24:14Z</time>
      </trkpt>
      <trkpt lat="42.3792920" lon="-7.2500800">
        <ele>525.4</ele>
        <time>2014-10-01T16:24:16Z</time>
      </trkpt>
      <trkpt lat="42.3793020" lon="-7.2501230">
        <ele>525.9</ele>
        <time>2014-10-01T16:24:18Z</time>
      </trkpt>
      <trkpt lat="42.3793050" lon="-7.2501690">
        <ele>526.4</ele>
        <time>2014-10-01T16:24:20Z</time>
      </trkpt>
      <trkpt lat="42.3793030" lon="-7.2502120">
        <ele>526.8</ele>
        <time>2014-10-01T16:24:22Z</time>
      </trkpt>
      <trkpt lat="42.3792960" lon="-7.2502610">
        <ele>527.4</ele>
        <time>2014-10-01T16:24:24Z</time>
      </trkpt>
      <trkpt lat="42.3792910" lon="-7.2503070">
        <ele>527.9</ele>
        <time>2014-10-01T16:24:26Z</time>
      </trkpt>
      <trkpt lat="42.3792810" lon="-7.2503670">
        <ele>528.5</ele>
        <time>2014-10-01T16:24:28Z</time>
      </trkpt>
      <trkpt lat="42.3792740" lon="-7.2504220">
        <ele>529.0</ele>
        <time>2014-10-01T16:24:30Z</time>
      </trkpt>
      <trkpt lat="42.3792730" lon="-7.2504720">
        <ele>529.5</ele>
        <time>2014-10-01T16:24:32Z</time>
      </trkpt>
      <trkpt lat="42.3792780" lon="-7.2505210">
        <ele>530.0</ele>
        <time>2014-10-01T16:24:34Z</time>
      </trkpt>
      <trkpt lat="42.3792830" lon="-7.2505800">
        <ele>530.5</ele>
        <time>2014-10-01T16:24:36Z</time>
      </trkpt>
      <trkpt lat="42.3792880" lon="-7.2506170">
        <ele>530.9</ele>
        <time>2014-10-01T16:24:37Z</time>
      </trkpt>
      <trkpt lat="42.3792870" lon="-7.2506820">
        <ele>531.5</ele>
        <time>2014-10-01T16:24:39Z</time>
      </trkpt>
      <trkpt lat="42.3792770" lon="-7.2507320">
        <ele>532.0</ele>
        <time>2014-10-01T16:24:41Z</time>
      </trkpt>
      <trkpt lat="42.3792550" lon="-7.2507780">
        <ele>532.4</ele>
        <time>2014-10-01T16:24:43Z</time>
      </trkpt>
      <trkpt lat="42.3792220" lon="-7.2508150">
        <ele>532.9</ele>
        <time>2014-10-01T16:24:45Z</time>
      </trkpt>
      <trkpt lat="42.3791810" lon="-7.2508500">
        <ele>533.4</ele>
        <time>2014-10-01T16:24:47Z</time>
      </trkpt>
      <trkpt lat="42.3791420" lon="-7.2508800">
        <ele>533.8</ele>
        <time>2014-10-01T16:24:49Z</time>
      </trkpt>
      <trkpt lat="42.3791020" lon="-7.2509060">
        <ele>534.0</ele>
        <time>2014-10-01T16:24:51Z</time>
      </trkpt>
      <trkpt lat="42.3790510" lon="-7.2509360">
        <ele>534.4</ele>
        <time>2014-10-01T16:24:53Z</time>
      </trkpt>
      <trkpt lat="42.3790210" lon="-7.2509480">
        <ele>534.6</ele>
        <time>2014-10-01T16:24:54Z</time>
      </trkpt>
      <trkpt lat="42.3789880" lon="-7.2509550">
        <ele>534.8</ele>
        <time>2014-10-01T16:24:55Z</time>
      </trkpt>
      <trkpt lat="42.3789540" lon="-7.2509670">
        <ele>535.0</ele>
        <time>2014-10-01T16:24:56Z</time>
      </trkpt>
      <trkpt lat="42.3789200" lon="-7.2509820">
        <ele>535.1</ele>
        <time>2014-10-01T16:24:57Z</time>
      </trkpt>
      <trkpt lat="42.3788870" lon="-7.2510040">
        <ele>535.2</ele>
        <time>2014-10-01T16:24:58Z</time>
      </trkpt>
      <trkpt lat="42.3788480" lon="-7.2510320">
        <ele>535.3</ele>
        <time>2014-10-01T16:24:59Z</time>
      </trkpt>
      <trkpt lat="42.3788110" lon="-7.2510590">
        <ele>535.4</ele>
        <time>2014-10-01T16:25:00Z</time>
      </trkpt>
      <trkpt lat="42.3787740" lon="-7.2510920">
        <ele>535.4</ele>
        <time>2014-10-01T16:25:01Z</time>
      </trkpt>
      <trkpt lat="42.3787390" lon="-7.2511310">
        <ele>535.4</ele>
        <time>2014-10-01T16:25:02Z</time>
      </trkpt>
      <trkpt lat="42.3787030" lon="-7.2511790">
        <ele>535.5</ele>
        <time>2014-10-01T16:25:03Z</time>
      </trkpt>
      <trkpt lat="42.3786720" lon="-7.2512310">
        <ele>535.6</ele>
        <time>2014-10-01T16:25:04Z</time>
      </trkpt>
      <trkpt lat="42.3786420" lon="-7.2512870">
        <ele>535.9</ele>
        <time>2014-10-01T16:25:05Z</time>
      </trkpt>
      <trkpt lat="42.3786140" lon="-7.2513440">
        <ele>536.2</ele>
        <time>2014-10-01T16:25:06Z</time>
      </trkpt>
      <trkpt lat="42.3785860" lon="-7.2514010">
        <ele>536.5</ele>
        <time>2014-10-01T16:25:07Z</time>
      </trkpt>
      <trkpt lat="42.3785610" lon="-7.2514560">
        <ele>536.9</ele>
        <time>2014-10-01T16:25:08Z</time>
      </trkpt>
      <trkpt lat="42.3785370" lon="-7.2515110">
        <ele>537.4</ele>
        <time>2014-10-01T16:25:09Z</time>
      </trkpt>
      <trkpt lat="42.3785120" lon="-7.2515650">
        <ele>537.8</ele>
        <time>2014-10-01T16:25:10Z</time>
      </trkpt>
      <trkpt lat="42.3784870" lon="-7.2516160">
        <ele>538.3</ele>
        <time>2014-10-01T16:25:11Z</time>
      </trkpt>
      <trkpt lat="42.3784620" lon="-7.2516670">
        <ele>538.7</ele>
        <time>2014-10-01T16:25:12Z</time>
      </trkpt>
      <trkpt lat="42.3784360" lon="-7.2517150">
        <ele>539.1</ele>
        <time>2014-10-01T16:25:13Z</time>
      </trkpt>
      <trkpt lat="42.3784090" lon="-7.2517610">
        <ele>539.5</ele>
        <time>2014-10-01T16:25:14Z</time>
      </trkpt>
      <trkpt lat="42.3783840" lon="-7.2517990">
        <ele>539.9</ele>
        <time>2014-10-01T16:25:15Z</time>
      </trkpt>
      <trkpt lat="42.3783650" lon="-7.2518310">
        <ele>540.2</ele>
        <time>2014-10-01T16:25:16Z</time>
      </trkpt>
      <trkpt lat="42.3783440" lon="-7.2518640">
        <ele>540.5</ele>
        <time>2014-10-01T16:25:17Z</time>
      </trkpt>
      <trkpt lat="42.3783120" lon="-7.2519140">
        <ele>540.9</ele>
        <time>2014-10-01T16:25:19Z</time>
      </trkpt>
      <trkpt lat="42.3782860" lon="-7.2519570">
        <ele>541.3</ele>
        <time>2014-10-01T16:25:21Z</time>
      </trkpt>
      <trkpt lat="42.3782590" lon="-7.2520020">
        <ele>541.8</ele>
        <time>2014-10-01T16:25:23Z</time>
      </trkpt>
      <trkpt lat="42.3782310" lon="-7.2520370">
        <ele>542.1</ele>
        <time>2014-10-01T16:25:25Z</time>
      </trkpt>
      <trkpt lat="42.3782060" lon="-7.2520730">
        <ele>542.5</ele>
        <time>2014-10-01T16:25:27Z</time>
      </trkpt>
      <trkpt lat="42.3781750" lon="-7.2521010">
        <ele>542.8</ele>
        <time>2014-10-01T16:25:29Z</time>
      </trkpt>
      <trkpt lat="42.3781410" lon="-7.2521320">
        <ele>543.2</ele>
        <time>2014-10-01T16:25:31Z</time>
      </trkpt>
      <trkpt lat="42.3781050" lon="-7.2521630">
        <ele>543.6</ele>
        <time>2014-10-01T16:25:33Z</time>
      </trkpt>
      <trkpt lat="42.3780680" lon="-7.2521960">
        <ele>544.0</ele>
        <time>2014-10-01T16:25:35Z</time>
      </trkpt>
      <trkpt lat="42.3780350" lon="-7.2522270">
        <ele>544.4</ele>
        <time>2014-10-01T16:25:37Z</time>
      </trkpt>
      <trkpt lat="42.3780000" lon="-7.2522640">
        <ele>544.9</ele>
        <time>2014-10-01T16:25:39Z</time>
      </trkpt>
      <trkpt lat="42.3779730" lon="-7.2523040">
        <ele>545.2</ele>
        <time>2014-10-01T16:25:41Z</time>
      </trkpt>
      <trkpt lat="42.3779440" lon="-7.2523400">
        <ele>545.6</ele>
        <time>2014-10-01T16:25:43Z</time>
      </trkpt>
      <trkpt lat="42.3779110" lon="-7.2523740">
        <ele>546.0</ele>
        <time>2014-10-01T16:25:45Z</time>
      </trkpt>
      <trkpt lat="42.3778670" lon="-7.2524100">
        <ele>546.5</ele>
        <time>2014-10-01T16:25:47Z</time>
      </trkpt>
      <trkpt lat="42.3778440" lon="-7.2524300">
        <ele>546.8</ele>
        <time>2014-10-01T16:25:48Z</time>
      </trkpt>
      <trkpt lat="42.3778020" lon="-7.2524650">
        <ele>547.2</ele>
        <time>2014-10-01T16:25:50Z</time>
      </trkpt>
      <trkpt lat="42.3777560" lon="-7.2524930">
        <ele>547.7</ele>
        <time>2014-10-01T16:25:52Z</time>
      </trkpt>
      <trkpt lat="42.3777130" lon="-7.2525200">
        <ele>548.2</ele>
        <time>2014-10-01T16:25:54Z</time>
      </trkpt>
      <trkpt lat="42.3776690" lon="-7.2525430">
        <ele>548.6</ele>
        <time>2014-10-01T16:25:56Z</time>
      </trkpt>
      <trkpt lat="42.3776180" lon="-7.2525700">
        <ele>549.1</ele>
        <time>2014-10-01T16:25:58Z</time>
      </trkpt>
      <trkpt lat="42.3775880" lon="-7.2525860">
        <ele>549.5</ele>
        <time>2014-10-01T16:25:59Z</time>
      </trkpt>
      <trkpt lat="42.3775550" lon="-7.2526050">
        <ele>549.8</ele>
        <time>2014-10-01T16:26:00Z</time>
      </trkpt>
      <trkpt lat="42.3775210" lon="-7.2526200">
        <ele>550.1</ele>
        <time>2014-10-01T16:26:01Z</time>
      </trkpt>
      <trkpt lat="42.3774920" lon="-7.2526350">
        <ele>550.4</ele>
        <time>2014-10-01T16:26:02Z</time>
      </trkpt>
      <trkpt lat="42.3774660" lon="-7.2526510">
        <ele>550.7</ele>
        <time>2014-10-01T16:26:03Z</time>
      </trkpt>
      <trkpt lat="42.3774390" lon="-7.2526710">
        <ele>551.0</ele>
        <time>2014-10-01T16:26:04Z</time>
      </trkpt>
      <trkpt lat="42.3774110" lon="-7.2526900">
        <ele>551.3</ele>
        <time>2014-10-01T16:26:05Z</time>
      </trkpt>
      <trkpt lat="42.3773820" lon="-7.2527070">
        <ele>551.6</ele>
        <time>2014-10-01T16:26:06Z</time>
      </trkpt>
      <trkpt lat="42.3773530" lon="-7.2527220">
        <ele>551.9</ele>
        <time>2014-10-01T16:26:07Z</time>
      </trkpt>
      <trkpt lat="42.3773250" lon="-7.2527360">
        <ele>552.2</ele>
        <time>2014-10-01T16:26:08Z</time>
      </trkpt>
      <trkpt lat="42.3772970" lon="-7.2527490">
        <ele>552.5</ele>
        <time>2014-10-01T16:26:09Z</time>
      </trkpt>
      <trkpt lat="42.3772670" lon="-7.2527610">
        <ele>552.8</ele>
        <time>2014-10-01T16:26:10Z</time>
      </trkpt>
      <trkpt lat="42.3772390" lon="-7.2527760">
        <ele>553.1</ele>
        <time>2014-10-01T16:26:11Z</time>
      </trkpt>
      <trkpt lat="42.3772130" lon="-7.2527890">
        <ele>553.3</ele>
        <time>2014-10-01T16:26:12Z</time>
      </trkpt>
      <trkpt lat="42.3771860" lon="-7.2528040">
        <ele>553.6</ele>
        <time>2014-10-01T16:26:13Z</time>
      </trkpt>
      <trkpt lat="42.3771390" lon="-7.2528360">
        <ele>554.1</ele>
        <time>2014-10-01T16:26:15Z</time>
      </trkpt>
      <trkpt lat="42.3770920" lon="-7.2528640">
        <ele>554.6</ele>
        <time>2014-10-01T16:26:17Z</time>
      </trkpt>
      <trkpt lat="42.3770460" lon="-7.2528920">
        <ele>555.1</ele>
        <time>2014-10-01T16:26:19Z</time>
      </trkpt>
      <trkpt lat="42.3770020" lon="-7.2529350">
        <ele>555.6</ele>
        <time>2014-10-01T16:26:21Z</time>
      </trkpt>
      <trkpt lat="42.3769630" lon="-7.2529660">
        <ele>556.0</ele>
        <time>2014-10-01T16:26:23Z</time>
      </trkpt>
      <trkpt lat="42.3769280" lon="-7.2529960">
        <ele>556.4</ele>
        <time>2014-10-01T16:26:25Z</time>
      </trkpt>
      <trkpt lat="42.3768920" lon="-7.2530270">
        <ele>556.8</ele>
        <time>2014-10-01T16:26:27Z</time>
      </trkpt>
      <trkpt lat="42.3768580" lon="-7.2530610">
        <ele>557.2</ele>
        <time>2014-10-01T16:26:29Z</time>
      </trkpt>
      <trkpt lat="42.3768210" lon="-7.2530940">
        <ele>557.7</ele>
        <time>2014-10-01T16:26:31Z</time>
      </trkpt>
      <trkpt lat="42.3767820" lon="-7.2531250">
        <ele>558.1</ele>
        <time>2014-10-01T16:26:33Z</time>
      </trkpt>
      <trkpt lat="42.3767400" lon="-7.2531540">
        <ele>558.5</ele>
        <time>2014-10-01T16:26:35Z</time>
      </trkpt>
      <trkpt lat="42.3766970" lon="-7.2531850">
        <ele>559.0</ele>
        <time>2014-10-01T16:26:37Z</time>
      </trkpt>
      <trkpt lat="42.3766530" lon="-7.2532160">
        <ele>559.5</ele>
        <time>2014-10-01T16:26:39Z</time>
      </trkpt>
      <trkpt lat="42.3766140" lon="-7.2532440">
        <ele>559.9</ele>
        <time>2014-10-01T16:26:41Z</time>
      </trkpt>
      <trkpt lat="42.3765720" lon="-7.2532730">
        <ele>560.4</ele>
        <time>2014-10-01T16:26:43Z</time>
      </trkpt>
      <trkpt lat="42.3765360" lon="-7.2532940">
        <ele>560.7</ele>
        <time>2014-10-01T16:26:45Z</time>
      </trkpt>
      <trkpt lat="42.3764960" lon="-7.2533170">
        <ele>561.2</ele>
        <time>2014-10-01T16:26:47Z</time>
      </trkpt>
      <trkpt lat="42.3764570" lon="-7.2533400">
        <ele>561.6</ele>
        <time>2014-10-01T16:26:49Z</time>
      </trkpt>
      <trkpt lat="42.3764200" lon="-7.2533660">
        <ele>562.0</ele>
        <time>2014-10-01T16:26:51Z</time>
      </trkpt>
      <trkpt lat="42.3763870" lon="-7.2533940">
        <ele>562.3</ele>
        <time>2014-10-01T16:26:53Z</time>
      </trkpt>
      <trkpt lat="42.3763570" lon="-7.2534150">
        <ele>562.7</ele>
        <time>2014-10-01T16:26:55Z</time>
      </trkpt>
      <trkpt lat="42.3763280" lon="-7.2534350">
        <ele>563.0</ele>
        <time>2014-10-01T16:26:57Z</time>
      </trkpt>
      <trkpt lat="42.3762960" lon="-7.2534590">
        <ele>563.3</ele>
        <time>2014-10-01T16:26:59Z</time>
      </trkpt>
      <trkpt lat="42.3762650" lon="-7.2534890">
        <ele>563.7</ele>
        <time>2014-10-01T16:27:01Z</time>
      </trkpt>
      <trkpt lat="42.3762340" lon="-7.2535140">
        <ele>564.0</ele>
        <time>2014-10-01T16:27:03Z</time>
      </trkpt>
      <trkpt lat="42.3762090" lon="-7.2535380">
        <ele>564.3</ele>
        <time>2014-10-01T16:27:05Z</time>
      </trkpt>
      <trkpt lat="42.3761760" lon="-7.2535660">
        <ele>564.7</ele>
        <time>2014-10-01T16:27:07Z</time>
      </trkpt>
      <trkpt lat="42.3761420" lon="-7.2535910">
        <ele>565.1</ele>
        <time>2014-10-01T16:27:09Z</time>
      </trkpt>
      <trkpt lat="42.3761080" lon="-7.2536200">
        <ele>565.4</ele>
        <time>2014-10-01T16:27:11Z</time>
      </trkpt>
      <trkpt lat="42.3760760" lon="-7.2536450">
        <ele>565.8</ele>
        <time>2014-10-01T16:27:13Z</time>
      </trkpt>
      <trkpt lat="42.3760430" lon="-7.2536710">
        <ele>566.2</ele>
        <time>2014-10-01T16:27:15Z</time>
      </trkpt>
      <trkpt lat="42.3760160" lon="-7.2537000">
        <ele>566.5</ele>
        <time>2014-10-01T16:27:17Z</time>
      </trkpt>
      <trkpt lat="42.3759840" lon="-7.2537300">
        <ele>566.9</ele>
        <time>2014-10-01T16:27:19Z</time>
      </trkpt>
      <trkpt lat="42.3759530" lon="-7.2537570">
        <ele>567.2</ele>
        <time>2014-10-01T16:27:21Z</time>
      </trkpt>
      <trkpt lat="42.3759190" lon="-7.2537810">
        <ele>567.6</ele>
        <time>2014-10-01T16:27:23Z</time>
      </trkpt>
      <trkpt lat="42.3758830" lon="-7.2538090">
        <ele>568.0</ele>
        <time>2014-10-01T16:27:25Z</time>
      </trkpt>
      <trkpt lat="42.3758490" lon="-7.2538350">
        <ele>568.4</ele>
        <time>2014-10-01T16:27:27Z</time>
      </trkpt>
      <trkpt lat="42.3758140" lon="-7.2538640">
        <ele>568.8</ele>
        <time>2014-10-01T16:27:29Z</time>
      </trkpt>
      <trkpt lat="42.3757720" lon="-7.2539010">
        <ele>569.2</ele>
        <time>2014-10-01T16:27:31Z</time>
      </trkpt>
      <trkpt lat="42.3757330" lon="-7.2539360">
        <ele>569.7</ele>
        <time>2014-10-01T16:27:33Z</time>
      </trkpt>
      <trkpt lat="42.3757010" lon="-7.2539650">
        <ele>570.0</ele>
        <time>2014-10-01T16:27:35Z</time>
      </trkpt>
      <trkpt lat="42.3756680" lon="-7.2539970">
        <ele>570.4</ele>
        <time>2014-10-01T16:27:37Z</time>
      </trkpt>
      <trkpt lat="42.3756360" lon="-7.2540230">
        <ele>570.8</ele>
        <time>2014-10-01T16:27:39Z</time>
      </trkpt>
      <trkpt lat="42.3756040" lon="-7.2540480">
        <ele>571.1</ele>
        <time>2014-10-01T16:27:41Z</time>
      </trkpt>
      <trkpt lat="42.3755770" lon="-7.2540770">
        <ele>571.5</ele>
        <time>2014-10-01T16:27:43Z</time>
      </trkpt>
      <trkpt lat="42.3755480" lon="-7.2541050">
        <ele>571.8</ele>
        <time>2014-10-01T16:27:45Z</time>
      </trkpt>
      <trkpt lat="42.3755170" lon="-7.2541420">
        <ele>572.2</ele>
        <time>2014-10-01T16:27:47Z</time>
      </trkpt>
      <trkpt lat="42.3754860" lon="-7.2541800">
        <ele>572.6</ele>
        <time>2014-10-01T16:27:49Z</time>
      </trkpt>
      <trkpt lat="42.3754560" lon="-7.2542180">
        <ele>573.0</ele>
        <time>2014-10-01T16:27:51Z</time>
      </trkpt>
      <trkpt lat="42.3754300" lon="-7.2542590">
        <ele>573.4</ele>
        <time>2014-10-01T16:27:53Z</time>
      </trkpt>
      <trkpt lat="42.3754070" lon="-7.2543080">
        <ele>573.8</ele>
        <time>2014-10-01T16:27:55Z</time>
      </trkpt>
      <trkpt lat="42.3753890" lon="-7.2543560">
        <ele>574.2</ele>
        <time>2014-10-01T16:27:57Z</time>
      </trkpt>
      <trkpt lat="42.3753710" lon="-7.2544060">
        <ele>574.6</ele>
        <time>2014-10-01T16:27:59Z</time>
      </trkpt>
      <trkpt lat="42.3753590" lon="-7.2544560">
        <ele>574.9</ele>
        <time>2014-10-01T16:28:01Z</time>
      </trkpt>
      <trkpt lat="42.3753530" lon="-7.2545080">
        <ele>575.3</ele>
        <time>2014-10-01T16:28:03Z</time>
      </trkpt>
      <trkpt lat="42.3753460" lon="-7.2545570">
        <ele>575.7</ele>
        <time>2014-10-01T16:28:05Z</time>
      </trkpt>
      <trkpt lat="42.3753430" lon="-7.2546080">
        <ele>576.0</ele>
        <time>2014-10-01T16:28:07Z</time>
      </trkpt>
      <trkpt lat="42.3753400" lon="-7.2546570">
        <ele>576.4</ele>
        <time>2014-10-01T16:28:09Z</time>
      </trkpt>
      <trkpt lat="42.3753390" lon="-7.2547090">
        <ele>576.7</ele>
        <time>2014-10-01T16:28:11Z</time>
      </trkpt>
      <trkpt lat="42.3753390" lon="-7.2547610">
        <ele>577.1</ele>
        <time>2014-10-01T16:28:13Z</time>
      </trkpt>
      <trkpt lat="42.3753400" lon="-7.2548140">
        <ele>577.5</ele>
        <time>2014-10-01T16:28:15Z</time>
      </trkpt>
      <trkpt lat="42.3753470" lon="-7.2548680">
        <ele>577.9</ele>
        <time>2014-10-01T16:28:17Z</time>
      </trkpt>
      <trkpt lat="42.3753550" lon="-7.2549260">
        <ele>578.3</ele>
        <time>2014-10-01T16:28:19Z</time>
      </trkpt>
      <trkpt lat="42.3753570" lon="-7.2549840">
        <ele>578.7</ele>
        <time>2014-10-01T16:28:21Z</time>
      </trkpt>
      <trkpt lat="42.3753610" lon="-7.2550400">
        <ele>579.1</ele>
        <time>2014-10-01T16:28:23Z</time>
      </trkpt>
      <trkpt lat="42.3753660" lon="-7.2550980">
        <ele>579.5</ele>
        <time>2014-10-01T16:28:25Z</time>
      </trkpt>
      <trkpt lat="42.3753710" lon="-7.2551650">
        <ele>580.0</ele>
        <time>2014-10-01T16:28:27Z</time>
      </trkpt>
      <trkpt lat="42.3753780" lon="-7.2552320">
        <ele>580.5</ele>
        <time>2014-10-01T16:28:29Z</time>
      </trkpt>
      <trkpt lat="42.3753810" lon="-7.2552700">
        <ele>580.7</ele>
        <time>2014-10-01T16:28:30Z</time>
      </trkpt>
      <trkpt lat="42.3753860" lon="-7.2553070">
        <ele>581.0</ele>
        <time>2014-10-01T16:28:31Z</time>
      </trkpt>
      <trkpt lat="42.3753970" lon="-7.2553720">
        <ele>581.5</ele>
        <time>2014-10-01T16:28:33Z</time>
      </trkpt>
      <trkpt lat="42.3754060" lon="-7.2554290">
        <ele>581.9</ele>
        <time>2014-10-01T16:28:35Z</time>
      </trkpt>
      <trkpt lat="42.3754110" lon="-7.2554920">
        <ele>582.3</ele>
        <time>2014-10-01T16:28:37Z</time>
      </trkpt>
      <trkpt lat="42.3754090" lon="-7.2555580">
        <ele>582.8</ele>
        <time>2014-10-01T16:28:39Z</time>
      </trkpt>
      <trkpt lat="42.3754140" lon="-7.2556250">
        <ele>583.3</ele>
        <time>2014-10-01T16:28:41Z</time>
      </trkpt>
      <trkpt lat="42.3754200" lon="-7.2556960">
        <ele>583.8</ele>
        <time>2014-10-01T16:28:43Z</time>
      </trkpt>
      <trkpt lat="42.3754240" lon="-7.2557320">
        <ele>584.0</ele>
        <time>2014-10-01T16:28:44Z</time>
      </trkpt>
      <trkpt lat="42.3754280" lon="-7.2557720">
        <ele>584.3</ele>
        <time>2014-10-01T16:28:45Z</time>
      </trkpt>
      <trkpt lat="42.3754360" lon="-7.2558120">
        <ele>584.6</ele>
        <time>2014-10-01T16:28:46Z</time>
      </trkpt>
      <trkpt lat="42.3754430" lon="-7.2558520">
        <ele>584.9</ele>
        <time>2014-10-01T16:28:47Z</time>
      </trkpt>
      <trkpt lat="42.3754500" lon="-7.2558910">
        <ele>585.2</ele>
        <time>2014-10-01T16:28:48Z</time>
      </trkpt>
      <trkpt lat="42.3754560" lon="-7.2559280">
        <ele>585.5</ele>
        <time>2014-10-01T16:28:49Z</time>
      </trkpt>
      <trkpt lat="42.3754660" lon="-7.2560000">
        <ele>586.0</ele>
        <time>2014-10-01T16:28:51Z</time>
      </trkpt>
      <trkpt lat="42.3754740" lon="-7.2560730">
        <ele>586.5</ele>
        <time>2014-10-01T16:28:53Z</time>
      </trkpt>
      <trkpt lat="42.3754880" lon="-7.2561430">
        <ele>587.0</ele>
        <time>2014-10-01T16:28:55Z</time>
      </trkpt>
      <trkpt lat="42.3754950" lon="-7.2561800">
        <ele>587.3</ele>
        <time>2014-10-01T16:28:56Z</time>
      </trkpt>
      <trkpt lat="42.3755010" lon="-7.2562160">
        <ele>587.5</ele>
        <time>2014-10-01T16:28:57Z</time>
      </trkpt>
      <trkpt lat="42.3755120" lon="-7.2562900">
        <ele>588.1</ele>
        <time>2014-10-01T16:28:59Z</time>
      </trkpt>
      <trkpt lat="42.3755280" lon="-7.2563610">
        <ele>588.6</ele>
        <time>2014-10-01T16:29:01Z</time>
      </trkpt>
      <trkpt lat="42.3755370" lon="-7.2564010">
        <ele>588.9</ele>
        <time>2014-10-01T16:29:02Z</time>
      </trkpt>
      <trkpt lat="42.3755480" lon="-7.2564440">
        <ele>589.2</ele>
        <time>2014-10-01T16:29:03Z</time>
      </trkpt>
      <trkpt lat="42.3755570" lon="-7.2564820">
        <ele>589.5</ele>
        <time>2014-10-01T16:29:04Z</time>
      </trkpt>
      <trkpt lat="42.3755640" lon="-7.2565210">
        <ele>589.8</ele>
        <time>2014-10-01T16:29:05Z</time>
      </trkpt>
      <trkpt lat="42.3755690" lon="-7.2565640">
        <ele>590.1</ele>
        <time>2014-10-01T16:29:06Z</time>
      </trkpt>
      <trkpt lat="42.3755700" lon="-7.2566090">
        <ele>590.4</ele>
        <time>2014-10-01T16:29:07Z</time>
      </trkpt>
      <trkpt lat="42.3755680" lon="-7.2566510">
        <ele>590.7</ele>
        <time>2014-10-01T16:29:08Z</time>
      </trkpt>
      <trkpt lat="42.3755530" lon="-7.2566930">
        <ele>591.0</ele>
        <time>2014-10-01T16:29:09Z</time>
      </trkpt>
      <trkpt lat="42.3755300" lon="-7.2567200">
        <ele>591.3</ele>
        <time>2014-10-01T16:29:10Z</time>
      </trkpt>
      <trkpt lat="42.3755040" lon="-7.2567430">
        <ele>591.6</ele>
        <time>2014-10-01T16:29:11Z</time>
      </trkpt>
      <trkpt lat="42.3754770" lon="-7.2567620">
        <ele>591.9</ele>
        <time>2014-10-01T16:29:12Z</time>
      </trkpt>
      <trkpt lat="42.3754270" lon="-7.2567760">
        <ele>592.4</ele>
        <time>2014-10-01T16:29:14Z</time>
      </trkpt>
      <trkpt lat="42.3753820" lon="-7.2567640">
        <ele>592.8</ele>
        <time>2014-10-01T16:29:16Z</time>
      </trkpt>
      <trkpt lat="42.3753370" lon="-7.2567560">
        <ele>593.3</ele>
        <time>2014-10-01T16:29:18Z</time>
      </trkpt>
      <trkpt lat="42.3752950" lon="-7.2567540">
        <ele>593.7</ele>
        <time>2014-10-01T16:29:20Z</time>
      </trkpt>
      <trkpt lat="42.3752460" lon="-7.2567570">
        <ele>594.1</ele>
        <time>2014-10-01T16:29:22Z</time>
      </trkpt>
      <trkpt lat="42.3752040" lon="-7.2567610">
        <ele>594.5</ele>
        <time>2014-10-01T16:29:24Z</time>
      </trkpt>
      <trkpt lat="42.3751610" lon="-7.2567700">
        <ele>595.0</ele>
        <time>2014-10-01T16:29:26Z</time>
      </trkpt>
      <trkpt lat="42.3751200" lon="-7.2567820">
        <ele>595.4</ele>
        <time>2014-10-01T16:29:28Z</time>
      </trkpt>
      <trkpt lat="42.3750780" lon="-7.2567960">
        <ele>595.8</ele>
        <time>2014-10-01T16:29:30Z</time>
      </trkpt>
      <trkpt lat="42.3750340" lon="-7.2568160">
        <ele>596.2</ele>
        <time>2014-10-01T16:29:32Z</time>
      </trkpt>
      <trkpt lat="42.3749900" lon="-7.2568340">
        <ele>596.7</ele>
        <time>2014-10-01T16:29:34Z</time>
      </trkpt>
      <trkpt lat="42.3749490" lon="-7.2568630">
        <ele>597.1</ele>
        <time>2014-10-01T16:29:36Z</time>
      </trkpt>
      <trkpt lat="42.3749050" lon="-7.2568900">
        <ele>597.6</ele>
        <time>2014-10-01T16:29:38Z</time>
      </trkpt>
      <trkpt lat="42.3748620" lon="-7.2569170">
        <ele>598.0</ele>
        <time>2014-10-01T16:29:40Z</time>
      </trkpt>
      <trkpt lat="42.3748210" lon="-7.2569380">
        <ele>598.4</ele>
        <time>2014-10-01T16:29:42Z</time>
      </trkpt>
      <trkpt lat="42.3747820" lon="-7.2569550">
        <ele>598.8</ele>
        <time>2014-10-01T16:29:44Z</time>
      </trkpt>
      <trkpt lat="42.3747310" lon="-7.2569730">
        <ele>599.3</ele>
        <time>2014-10-01T16:29:46Z</time>
      </trkpt>
      <trkpt lat="42.3746810" lon="-7.2569870">
        <ele>599.8</ele>
        <time>2014-10-01T16:29:48Z</time>
      </trkpt>
      <trkpt lat="42.3746480" lon="-7.2569940">
        <ele>600.1</ele>
        <time>2014-10-01T16:29:50Z</time>
      </trkpt>
      <trkpt lat="42.3746760" lon="-7.2571060">
        <ele>601.0</ele>
        <time>2014-10-01T16:29:52Z</time>
      </trkpt>
      <trkpt lat="42.3746830" lon="-7.2571740">
        <ele>601.5</ele>
        <time>2014-10-01T16:29:53Z</time>
      </trkpt>
      <trkpt lat="42.3746940" lon="-7.2572800">
        <ele>602.2</ele>
        <time>2014-10-01T16:29:54Z</time>
      </trkpt>
      <trkpt lat="42.3747000" lon="-7.2573290">
        <ele>602.6</ele>
        <time>2014-10-01T16:29:55Z</time>
      </trkpt>
      <trkpt lat="42.3747020" lon="-7.2573820">
        <ele>602.9</ele>
        <time>2014-10-01T16:29:56Z</time>
      </trkpt>
      <trkpt lat="42.3746790" lon="-7.2574150">
        <ele>603.3</ele>
        <time>2014-10-01T16:29:57Z</time>
      </trkpt>
      <trkpt lat="42.3746530" lon="-7.2573790">
        <ele>603.6</ele>
        <time>2014-10-01T16:29:59Z</time>
      </trkpt>
      <trkpt lat="42.3746180" lon="-7.2573540">
        <ele>604.0</ele>
        <time>2014-10-01T16:30:00Z</time>
      </trkpt>
      <trkpt lat="42.3745810" lon="-7.2573290">
        <ele>604.4</ele>
        <time>2014-10-01T16:30:01Z</time>
      </trkpt>
      <trkpt lat="42.3745410" lon="-7.2573030">
        <ele>604.8</ele>
        <time>2014-10-01T16:30:02Z</time>
      </trkpt>
      <trkpt lat="42.3745020" lon="-7.2572780">
        <ele>605.2</ele>
        <time>2014-10-01T16:30:03Z</time>
      </trkpt>
      <trkpt lat="42.3744670" lon="-7.2572620">
        <ele>605.6</ele>
        <time>2014-10-01T16:30:04Z</time>
      </trkpt>
      <trkpt lat="42.3744360" lon="-7.2572530">
        <ele>605.9</ele>
        <time>2014-10-01T16:30:05Z</time>
      </trkpt>
      <trkpt lat="42.3744020" lon="-7.2572380">
        <ele>606.2</ele>
        <time>2014-10-01T16:30:06Z</time>
      </trkpt>
      <trkpt lat="42.3743680" lon="-7.2572290">
        <ele>606.6</ele>
        <time>2014-10-01T16:30:07Z</time>
      </trkpt>
      <trkpt lat="42.3743350" lon="-7.2572180">
        <ele>606.9</ele>
        <time>2014-10-01T16:30:08Z</time>
      </trkpt>
      <trkpt lat="42.3743040" lon="-7.2572110">
        <ele>607.2</ele>
        <time>2014-10-01T16:30:09Z</time>
      </trkpt>
      <trkpt lat="42.3742750" lon="-7.2572060">
        <ele>607.5</ele>
        <time>2014-10-01T16:30:10Z</time>
      </trkpt>
      <trkpt lat="42.3742240" lon="-7.2572070">
        <ele>608.0</ele>
        <time>2014-10-01T16:30:12Z</time>
      </trkpt>
      <trkpt lat="42.3741740" lon="-7.2572070">
        <ele>608.4</ele>
        <time>2014-10-01T16:30:14Z</time>
      </trkpt>
      <trkpt lat="42.3741200" lon="-7.2572060">
        <ele>609.0</ele>
        <time>2014-10-01T16:30:16Z</time>
      </trkpt>
      <trkpt lat="42.3740910" lon="-7.2572080">
        <ele>609.2</ele>
        <time>2014-10-01T16:30:17Z</time>
      </trkpt>
      <trkpt lat="42.3740640" lon="-7.2572110">
        <ele>609.5</ele>
        <time>2014-10-01T16:30:18Z</time>
      </trkpt>
      <trkpt lat="42.3740370" lon="-7.2572210">
        <ele>609.8</ele>
        <time>2014-10-01T16:30:19Z</time>
      </trkpt>
      <trkpt lat="42.3740090" lon="-7.2572280">
        <ele>610.0</ele>
        <time>2014-10-01T16:30:20Z</time>
      </trkpt>
      <trkpt lat="42.3739800" lon="-7.2572320">
        <ele>610.3</ele>
        <time>2014-10-01T16:30:21Z</time>
      </trkpt>
      <trkpt lat="42.3739530" lon="-7.2572400">
        <ele>610.6</ele>
        <time>2014-10-01T16:30:22Z</time>
      </trkpt>
      <trkpt lat="42.3739250" lon="-7.2572520">
        <ele>610.9</ele>
        <time>2014-10-01T16:30:23Z</time>
      </trkpt>
      <trkpt lat="42.3738970" lon="-7.2572560">
        <ele>611.1</ele>
        <time>2014-10-01T16:30:24Z</time>
      </trkpt>
      <trkpt lat="42.3738690" lon="-7.2572650">
        <ele>611.4</ele>
        <time>2014-10-01T16:30:25Z</time>
      </trkpt>
      <trkpt lat="42.3738370" lon="-7.2572680">
        <ele>611.7</ele>
        <time>2014-10-01T16:30:26Z</time>
      </trkpt>
      <trkpt lat="42.3738090" lon="-7.2572730">
        <ele>612.0</ele>
        <time>2014-10-01T16:30:27Z</time>
      </trkpt>
      <trkpt lat="42.3737540" lon="-7.2572720">
        <ele>612.5</ele>
        <time>2014-10-01T16:30:29Z</time>
      </trkpt>
      <trkpt lat="42.3737010" lon="-7.2572730">
        <ele>613.0</ele>
        <time>2014-10-01T16:30:31Z</time>
      </trkpt>
      <trkpt lat="42.3736490" lon="-7.2572780">
        <ele>613.5</ele>
        <time>2014-10-01T16:30:33Z</time>
      </trkpt>
      <trkpt lat="42.3736210" lon="-7.2572810">
        <ele>613.8</ele>
        <time>2014-10-01T16:30:34Z</time>
      </trkpt>
      <trkpt lat="42.3735940" lon="-7.2572850">
        <ele>614.0</ele>
        <time>2014-10-01T16:30:35Z</time>
      </trkpt>
      <trkpt lat="42.3735660" lon="-7.2572900">
        <ele>614.3</ele>
        <time>2014-10-01T16:30:36Z</time>
      </trkpt>
      <trkpt lat="42.3735390" lon="-7.2572980">
        <ele>614.6</ele>
        <time>2014-10-01T16:30:37Z</time>
      </trkpt>
      <trkpt lat="42.3735120" lon="-7.2573120">
        <ele>614.9</ele>
        <time>2014-10-01T16:30:38Z</time>
      </trkpt>
      <trkpt lat="42.3734850" lon="-7.2573220">
        <ele>615.1</ele>
        <time>2014-10-01T16:30:39Z</time>
      </trkpt>
      <trkpt lat="42.3734340" lon="-7.2573460">
        <ele>615.6</ele>
        <time>2014-10-01T16:30:41Z</time>
      </trkpt>
      <trkpt lat="42.3734080" lon="-7.2573570">
        <ele>615.9</ele>
        <time>2014-10-01T16:30:42Z</time>
      </trkpt>
      <trkpt lat="42.3733780" lon="-7.2573720">
        <ele>616.2</ele>
        <time>2014-10-01T16:30:43Z</time>
      </trkpt>
      <trkpt lat="42.3733450" lon="-7.2573910">
        <ele>616.5</ele>
        <time>2014-10-01T16:30:44Z</time>
      </trkpt>
      <trkpt lat="42.3733100" lon="-7.2574070">
        <ele>616.9</ele>
        <time>2014-10-01T16:30:45Z</time>
      </trkpt>
      <trkpt lat="42.3732760" lon="-7.2574200">
        <ele>617.2</ele>
        <time>2014-10-01T16:30:46Z</time>
      </trkpt>
      <trkpt lat="42.3732450" lon="-7.2574350">
        <ele>617.6</ele>
        <time>2014-10-01T16:30:47Z</time>
      </trkpt>
      <trkpt lat="42.3732170" lon="-7.2574500">
        <ele>617.8</ele>
        <time>2014-10-01T16:30:48Z</time>
      </trkpt>
      <trkpt lat="42.3731890" lon="-7.2574650">
        <ele>618.1</ele>
        <time>2014-10-01T16:30:49Z</time>
      </trkpt>
      <trkpt lat="42.3731600" lon="-7.2574820">
        <ele>618.4</ele>
        <time>2014-10-01T16:30:50Z</time>
      </trkpt>
      <trkpt lat="42.3731330" lon="-7.2574980">
        <ele>618.7</ele>
        <time>2014-10-01T16:30:51Z</time>
      </trkpt>
      <trkpt lat="42.3731050" lon="-7.2575120">
        <ele>619.0</ele>
        <time>2014-10-01T16:30:52Z</time>
      </trkpt>
      <trkpt lat="42.3730740" lon="-7.2575230">
        <ele>619.3</ele>
        <time>2014-10-01T16:30:53Z</time>
      </trkpt>
      <trkpt lat="42.3730210" lon="-7.2575430">
        <ele>619.8</ele>
        <time>2014-10-01T16:30:55Z</time>
      </trkpt>
      <trkpt lat="42.3729930" lon="-7.2575580">
        <ele>620.1</ele>
        <time>2014-10-01T16:30:56Z</time>
      </trkpt>
      <trkpt lat="42.3729620" lon="-7.2575720">
        <ele>620.4</ele>
        <time>2014-10-01T16:30:57Z</time>
      </trkpt>
      <trkpt lat="42.3729320" lon="-7.2575850">
        <ele>620.7</ele>
        <time>2014-10-01T16:30:58Z</time>
      </trkpt>
      <trkpt lat="42.3729010" lon="-7.2576010">
        <ele>621.0</ele>
        <time>2014-10-01T16:30:59Z</time>
      </trkpt>
      <trkpt lat="42.3728720" lon="-7.2576180">
        <ele>621.4</ele>
        <time>2014-10-01T16:31:00Z</time>
      </trkpt>
      <trkpt lat="42.3728450" lon="-7.2576350">
        <ele>621.6</ele>
        <time>2014-10-01T16:31:01Z</time>
      </trkpt>
      <trkpt lat="42.3728190" lon="-7.2576510">
        <ele>621.9</ele>
        <time>2014-10-01T16:31:02Z</time>
      </trkpt>
      <trkpt lat="42.3727920" lon="-7.2576670">
        <ele>622.2</ele>
        <time>2014-10-01T16:31:03Z</time>
      </trkpt>
      <trkpt lat="42.3727650" lon="-7.2576840">
        <ele>622.5</ele>
        <time>2014-10-01T16:31:04Z</time>
      </trkpt>
      <trkpt lat="42.3727370" lon="-7.2576980">
        <ele>622.8</ele>
        <time>2014-10-01T16:31:05Z</time>
      </trkpt>
      <trkpt lat="42.3727090" lon="-7.2577120">
        <ele>623.0</ele>
        <time>2014-10-01T16:31:06Z</time>
      </trkpt>
      <trkpt lat="42.3726800" lon="-7.2577270">
        <ele>623.3</ele>
        <time>2014-10-01T16:31:07Z</time>
      </trkpt>
      <trkpt lat="42.3726530" lon="-7.2577440">
        <ele>623.6</ele>
        <time>2014-10-01T16:31:08Z</time>
      </trkpt>
      <trkpt lat="42.3726260" lon="-7.2577610">
        <ele>623.9</ele>
        <time>2014-10-01T16:31:09Z</time>
      </trkpt>
      <trkpt lat="42.3725950" lon="-7.2577740">
        <ele>624.2</ele>
        <time>2014-10-01T16:31:10Z</time>
      </trkpt>
      <trkpt lat="42.3725660" lon="-7.2577850">
        <ele>624.5</ele>
        <time>2014-10-01T16:31:11Z</time>
      </trkpt>
      <trkpt lat="42.3725360" lon="-7.2577910">
        <ele>624.8</ele>
        <time>2014-10-01T16:31:12Z</time>
      </trkpt>
      <trkpt lat="42.3725030" lon="-7.2577940">
        <ele>625.1</ele>
        <time>2014-10-01T16:31:13Z</time>
      </trkpt>
      <trkpt lat="42.3724730" lon="-7.2577930">
        <ele>625.4</ele>
        <time>2014-10-01T16:31:14Z</time>
      </trkpt>
      <trkpt lat="42.3724310" lon="-7.2577880">
        <ele>625.8</ele>
        <time>2014-10-01T16:31:16Z</time>
      </trkpt>
      <trkpt lat="42.3723930" lon="-7.2577890">
        <ele>626.1</ele>
        <time>2014-10-01T16:31:18Z</time>
      </trkpt>
      <trkpt lat="42.3723560" lon="-7.2577860">
        <ele>626.5</ele>
        <time>2014-10-01T16:31:20Z</time>
      </trkpt>
      <trkpt lat="42.3723210" lon="-7.2577760">
        <ele>626.8</ele>
        <time>2014-10-01T16:31:22Z</time>
      </trkpt>
      <trkpt lat="42.3722880" lon="-7.2577660">
        <ele>627.1</ele>
        <time>2014-10-01T16:31:24Z</time>
      </trkpt>
      <trkpt lat="42.3722510" lon="-7.2577510">
        <ele>627.4</ele>
        <time>2014-10-01T16:31:26Z</time>
      </trkpt>
      <trkpt lat="42.3722110" lon="-7.2577440">
        <ele>627.7</ele>
        <time>2014-10-01T16:31:28Z</time>
      </trkpt>
      <trkpt lat="42.3721720" lon="-7.2577380">
        <ele>628.1</ele>
        <time>2014-10-01T16:31:30Z</time>
      </trkpt>
      <trkpt lat="42.3721330" lon="-7.2577430">
        <ele>628.4</ele>
        <time>2014-10-01T16:31:32Z</time>
      </trkpt>
      <trkpt lat="42.3720950" lon="-7.2577470">
        <ele>628.7</ele>
        <time>2014-10-01T16:31:34Z</time>
      </trkpt>
      <trkpt lat="42.3720600" lon="-7.2577480">
        <ele>629.0</ele>
        <time>2014-10-01T16:31:36Z</time>
      </trkpt>
      <trkpt lat="42.3720260" lon="-7.2577460">
        <ele>629.3</ele>
        <time>2014-10-01T16:31:38Z</time>
      </trkpt>
      <trkpt lat="42.3719920" lon="-7.2577480">
        <ele>629.6</ele>
        <time>2014-10-01T16:31:40Z</time>
      </trkpt>
      <trkpt lat="42.3719590" lon="-7.2577450">
        <ele>629.9</ele>
        <time>2014-10-01T16:31:42Z</time>
      </trkpt>
      <trkpt lat="42.3719280" lon="-7.2577450">
        <ele>630.2</ele>
        <time>2014-10-01T16:31:44Z</time>
      </trkpt>
      <trkpt lat="42.3719000" lon="-7.2577460">
        <ele>630.4</ele>
        <time>2014-10-01T16:31:46Z</time>
      </trkpt>
      <trkpt lat="42.3718720" lon="-7.2577450">
        <ele>630.6</ele>
        <time>2014-10-01T16:31:48Z</time>
      </trkpt>
      <trkpt lat="42.3718430" lon="-7.2577450">
        <ele>630.9</ele>
        <time>2014-10-01T16:31:50Z</time>
      </trkpt>
      <trkpt lat="42.3718160" lon="-7.2577440">
        <ele>631.1</ele>
        <time>2014-10-01T16:31:52Z</time>
      </trkpt>
      <trkpt lat="42.3717850" lon="-7.2577400">
        <ele>631.4</ele>
        <time>2014-10-01T16:31:54Z</time>
      </trkpt>
      <trkpt lat="42.3717510" lon="-7.2577370">
        <ele>631.7</ele>
        <time>2014-10-01T16:31:56Z</time>
      </trkpt>
      <trkpt lat="42.3717180" lon="-7.2577320">
        <ele>632.0</ele>
        <time>2014-10-01T16:31:58Z</time>
      </trkpt>
      <trkpt lat="42.3716880" lon="-7.2577190">
        <ele>632.2</ele>
        <time>2014-10-01T16:32:00Z</time>
      </trkpt>
      <trkpt lat="42.3716600" lon="-7.2577060">
        <ele>632.5</ele>
        <time>2014-10-01T16:32:02Z</time>
      </trkpt>
      <trkpt lat="42.3716330" lon="-7.2576960">
        <ele>632.7</ele>
        <time>2014-10-01T16:32:04Z</time>
      </trkpt>
      <trkpt lat="42.3715960" lon="-7.2576870">
        <ele>633.0</ele>
        <time>2014-10-01T16:32:06Z</time>
      </trkpt>
      <trkpt lat="42.3715630" lon="-7.2576740">
        <ele>633.3</ele>
        <time>2014-10-01T16:32:08Z</time>
      </trkpt>
      <trkpt lat="42.3715320" lon="-7.2576640">
        <ele>633.6</ele>
        <time>2014-10-01T16:32:10Z</time>
      </trkpt>
      <trkpt lat="42.3715000" lon="-7.2576620">
        <ele>633.9</ele>
        <time>2014-10-01T16:32:12Z</time>
      </trkpt>
      <trkpt lat="42.3714640" lon="-7.2576610">
        <ele>634.2</ele>
        <time>2014-10-01T16:32:14Z</time>
      </trkpt>
      <trkpt lat="42.3714270" lon="-7.2576620">
        <ele>634.5</ele>
        <time>2014-10-01T16:32:16Z</time>
      </trkpt>
      <trkpt lat="42.3713920" lon="-7.2576630">
        <ele>634.8</ele>
        <time>2014-10-01T16:32:18Z</time>
      </trkpt>
      <trkpt lat="42.3713570" lon="-7.2576650">
        <ele>635.1</ele>
        <time>2014-10-01T16:32:20Z</time>
      </trkpt>
      <trkpt lat="42.3713220" lon="-7.2576670">
        <ele>635.4</ele>
        <time>2014-10-01T16:32:22Z</time>
      </trkpt>
      <trkpt lat="42.3712860" lon="-7.2576700">
        <ele>635.7</ele>
        <time>2014-10-01T16:32:24Z</time>
      </trkpt>
      <trkpt lat="42.3712520" lon="-7.2576730">
        <ele>636.0</ele>
        <time>2014-10-01T16:32:26Z</time>
      </trkpt>
      <trkpt lat="42.3712170" lon="-7.2576730">
        <ele>636.3</ele>
        <time>2014-10-01T16:32:28Z</time>
      </trkpt>
      <trkpt lat="42.3711830" lon="-7.2576750">
        <ele>636.6</ele>
        <time>2014-10-01T16:32:30Z</time>
      </trkpt>
      <trkpt lat="42.3711490" lon="-7.2576750">
        <ele>636.9</ele>
        <time>2014-10-01T16:32:32Z</time>
      </trkpt>
      <trkpt lat="42.3711150" lon="-7.2576770">
        <ele>637.2</ele>
        <time>2014-10-01T16:32:34Z</time>
      </trkpt>
      <trkpt lat="42.3710820" lon="-7.2576800">
        <ele>637.5</ele>
        <time>2014-10-01T16:32:36Z</time>
      </trkpt>
      <trkpt lat="42.3710500" lon="-7.2576880">
        <ele>637.7</ele>
        <time>2014-10-01T16:32:38Z</time>
      </trkpt>
      <trkpt lat="42.3710230" lon="-7.2576950">
        <ele>638.0</ele>
        <time>2014-10-01T16:32:40Z</time>
      </trkpt>
      <trkpt lat="42.3709960" lon="-7.2577050">
        <ele>638.2</ele>
        <time>2014-10-01T16:32:42Z</time>
      </trkpt>
      <trkpt lat="42.3709650" lon="-7.2577190">
        <ele>638.5</ele>
        <time>2014-10-01T16:32:44Z</time>
      </trkpt>
      <trkpt lat="42.3709350" lon="-7.2577390">
        <ele>638.8</ele>
        <time>2014-10-01T16:32:46Z</time>
      </trkpt>
      <trkpt lat="42.3709090" lon="-7.2577700">
        <ele>639.1</ele>
        <time>2014-10-01T16:32:48Z</time>
      </trkpt>
      <trkpt lat="42.3708820" lon="-7.2578090">
        <ele>639.4</ele>
        <time>2014-10-01T16:32:50Z</time>
      </trkpt>
      <trkpt lat="42.3708670" lon="-7.2578510">
        <ele>639.7</ele>
        <time>2014-10-01T16:32:52Z</time>
      </trkpt>
      <trkpt lat="42.3708560" lon="-7.2578860">
        <ele>639.9</ele>
        <time>2014-10-01T16:32:54Z</time>
      </trkpt>
      <trkpt lat="42.3708460" lon="-7.2579250">
        <ele>640.2</ele>
        <time>2014-10-01T16:32:56Z</time>
      </trkpt>
      <trkpt lat="42.3708370" lon="-7.2579620">
        <ele>640.5</ele>
        <time>2014-10-01T16:32:58Z</time>
      </trkpt>
      <trkpt lat="42.3708260" lon="-7.2580070">
        <ele>640.8</ele>
        <time>2014-10-01T16:33:00Z</time>
      </trkpt>
      <trkpt lat="42.3708150" lon="-7.2580490">
        <ele>641.0</ele>
        <time>2014-10-01T16:33:02Z</time>
      </trkpt>
      <trkpt lat="42.3708110" lon="-7.2580910">
        <ele>641.3</ele>
        <time>2014-10-01T16:33:04Z</time>
      </trkpt>
      <trkpt lat="42.3708090" lon="-7.2581350">
        <ele>641.6</ele>
        <time>2014-10-01T16:33:06Z</time>
      </trkpt>
      <trkpt lat="42.3708070" lon="-7.2581760">
        <ele>641.8</ele>
        <time>2014-10-01T16:33:08Z</time>
      </trkpt>
      <trkpt lat="42.3708000" lon="-7.2582140">
        <ele>642.1</ele>
        <time>2014-10-01T16:33:10Z</time>
      </trkpt>
      <trkpt lat="42.3707910" lon="-7.2582510">
        <ele>642.3</ele>
        <time>2014-10-01T16:33:12Z</time>
      </trkpt>
      <trkpt lat="42.3707820" lon="-7.2582960">
        <ele>642.6</ele>
        <time>2014-10-01T16:33:14Z</time>
      </trkpt>
      <trkpt lat="42.3707730" lon="-7.2583430">
        <ele>642.9</ele>
        <time>2014-10-01T16:33:16Z</time>
      </trkpt>
      <trkpt lat="42.3707700" lon="-7.2583850">
        <ele>643.2</ele>
        <time>2014-10-01T16:33:18Z</time>
      </trkpt>
      <trkpt lat="42.3707720" lon="-7.2584260">
        <ele>643.5</ele>
        <time>2014-10-01T16:33:20Z</time>
      </trkpt>
      <trkpt lat="42.3707700" lon="-7.2584720">
        <ele>643.8</ele>
        <time>2014-10-01T16:33:22Z</time>
      </trkpt>
      <trkpt lat="42.3707650" lon="-7.2585120">
        <ele>644.0</ele>
        <time>2014-10-01T16:33:24Z</time>
      </trkpt>
      <trkpt lat="42.3707630" lon="-7.2585540">
        <ele>644.3</ele>
        <time>2014-10-01T16:33:26Z</time>
      </trkpt>
      <trkpt lat="42.3707600" lon="-7.2585970">
        <ele>644.5</ele>
        <time>2014-10-01T16:33:28Z</time>
      </trkpt>
      <trkpt lat="42.3707610" lon="-7.2586400">
        <ele>644.8</ele>
        <time>2014-10-01T16:33:30Z</time>
      </trkpt>
      <trkpt lat="42.3707580" lon="-7.2586780">
        <ele>645.1</ele>
        <time>2014-10-01T16:33:32Z</time>
      </trkpt>
      <trkpt lat="42.3707570" lon="-7.2587220">
        <ele>645.3</ele>
        <time>2014-10-01T16:33:34Z</time>
      </trkpt>
      <trkpt lat="42.3707580" lon="-7.2587640">
        <ele>645.6</ele>
        <time>2014-10-01T16:33:36Z</time>
      </trkpt>
      <trkpt lat="42.3707570" lon="-7.2588050">
        <ele>645.9</ele>
        <time>2014-10-01T16:33:38Z</time>
      </trkpt>
      <trkpt lat="42.3707540" lon="-7.2588430">
        <ele>646.1</ele>
        <time>2014-10-01T16:33:40Z</time>
      </trkpt>
      <trkpt lat="42.3707460" lon="-7.2588880">
        <ele>646.4</ele>
        <time>2014-10-01T16:33:42Z</time>
      </trkpt>
      <trkpt lat="42.3707390" lon="-7.2589300">
        <ele>646.7</ele>
        <time>2014-10-01T16:33:44Z</time>
      </trkpt>
      <trkpt lat="42.3707250" lon="-7.2589760">
        <ele>647.0</ele>
        <time>2014-10-01T16:33:46Z</time>
      </trkpt>
      <trkpt lat="42.3707110" lon="-7.2590130">
        <ele>647.2</ele>
        <time>2014-10-01T16:33:48Z</time>
      </trkpt>
      <trkpt lat="42.3706990" lon="-7.2590480">
        <ele>647.5</ele>
        <time>2014-10-01T16:33:50Z</time>
      </trkpt>
      <trkpt lat="42.3706870" lon="-7.2590830">
        <ele>647.7</ele>
        <time>2014-10-01T16:33:52Z</time>
      </trkpt>
      <trkpt lat="42.3706690" lon="-7.2591180">
        <ele>648.0</ele>
        <time>2014-10-01T16:33:54Z</time>
      </trkpt>
      <trkpt lat="42.3706550" lon="-7.2591570">
        <ele>648.3</ele>
        <time>2014-10-01T16:33:56Z</time>
      </trkpt>
      <trkpt lat="42.3706340" lon="-7.2592030">
        <ele>648.6</ele>
        <time>2014-10-01T16:33:58Z</time>
      </trkpt>
      <trkpt lat="42.3706210" lon="-7.2592470">
        <ele>648.9</ele>
        <time>2014-10-01T16:34:00Z</time>
      </trkpt>
      <trkpt lat="42.3706090" lon="-7.2592840">
        <ele>649.2</ele>
        <time>2014-10-01T16:34:02Z</time>
      </trkpt>
      <trkpt lat="42.3706000" lon="-7.2593250">
        <ele>649.4</ele>
        <time>2014-10-01T16:34:04Z</time>
      </trkpt>
      <trkpt lat="42.3705960" lon="-7.2593710">
        <ele>649.7</ele>
        <time>2014-10-01T16:34:06Z</time>
      </trkpt>
      <trkpt lat="42.3705910" lon="-7.2594200">
        <ele>650.0</ele>
        <time>2014-10-01T16:34:08Z</time>
      </trkpt>
      <trkpt lat="42.3705840" lon="-7.2594620">
        <ele>650.3</ele>
        <time>2014-10-01T16:34:10Z</time>
      </trkpt>
      <trkpt lat="42.3705720" lon="-7.2595040">
        <ele>650.6</ele>
        <time>2014-10-01T16:34:12Z</time>
      </trkpt>
      <trkpt lat="42.3705590" lon="-7.2595530">
        <ele>650.9</ele>
        <time>2014-10-01T16:34:14Z</time>
      </trkpt>
      <trkpt lat="42.3705470" lon="-7.2595940">
        <ele>651.2</ele>
        <time>2014-10-01T16:34:16Z</time>
      </trkpt>
      <trkpt lat="42.3705290" lon="-7.2596360">
        <ele>651.5</ele>
        <time>2014-10-01T16:34:18Z</time>
      </trkpt>
      <trkpt lat="42.3705120" lon="-7.2596810">
        <ele>651.8</ele>
        <time>2014-10-01T16:34:20Z</time>
      </trkpt>
      <trkpt lat="42.3704960" lon="-7.2597310">
        <ele>652.2</ele>
        <time>2014-10-01T16:34:22Z</time>
      </trkpt>
      <trkpt lat="42.3704760" lon="-7.2597760">
        <ele>652.5</ele>
        <time>2014-10-01T16:34:24Z</time>
      </trkpt>
      <trkpt lat="42.3704480" lon="-7.2598210">
        <ele>652.9</ele>
        <time>2014-10-01T16:34:26Z</time>
      </trkpt>
      <trkpt lat="42.3704130" lon="-7.2598710">
        <ele>653.3</ele>
        <time>2014-10-01T16:34:28Z</time>
      </trkpt>
      <trkpt lat="42.3703770" lon="-7.2599190">
        <ele>653.8</ele>
        <time>2014-10-01T16:34:30Z</time>
      </trkpt>
      <trkpt lat="42.3703400" lon="-7.2599700">
        <ele>654.2</ele>
        <time>2014-10-01T16:34:32Z</time>
      </trkpt>
      <trkpt lat="42.3703180" lon="-7.2599940">
        <ele>654.4</ele>
        <time>2014-10-01T16:34:33Z</time>
      </trkpt>
      <trkpt lat="42.3702950" lon="-7.2600170">
        <ele>654.7</ele>
        <time>2014-10-01T16:34:34Z</time>
      </trkpt>
      <trkpt lat="42.3702720" lon="-7.2600380">
        <ele>654.9</ele>
        <time>2014-10-01T16:34:35Z</time>
      </trkpt>
      <trkpt lat="42.3702260" lon="-7.2600760">
        <ele>655.4</ele>
        <time>2014-10-01T16:34:37Z</time>
      </trkpt>
      <trkpt lat="42.3701800" lon="-7.2601150">
        <ele>655.9</ele>
        <time>2014-10-01T16:34:39Z</time>
      </trkpt>
      <trkpt lat="42.3701530" lon="-7.2601330">
        <ele>656.1</ele>
        <time>2014-10-01T16:34:40Z</time>
      </trkpt>
      <trkpt lat="42.3701250" lon="-7.2601520">
        <ele>656.4</ele>
        <time>2014-10-01T16:34:41Z</time>
      </trkpt>
      <trkpt lat="42.3700950" lon="-7.2601710">
        <ele>656.7</ele>
        <time>2014-10-01T16:34:42Z</time>
      </trkpt>
      <trkpt lat="42.3700640" lon="-7.2601920">
        <ele>657.0</ele>
        <time>2014-10-01T16:34:43Z</time>
      </trkpt>
      <trkpt lat="42.3700330" lon="-7.2602130">
        <ele>657.3</ele>
        <time>2014-10-01T16:34:44Z</time>
      </trkpt>
      <trkpt lat="42.3700010" lon="-7.2602350">
        <ele>657.6</ele>
        <time>2014-10-01T16:34:45Z</time>
      </trkpt>
      <trkpt lat="42.3699690" lon="-7.2602600">
        <ele>657.9</ele>
        <time>2014-10-01T16:34:46Z</time>
      </trkpt>
      <trkpt lat="42.3699390" lon="-7.2602860">
        <ele>658.2</ele>
        <time>2014-10-01T16:34:47Z</time>
      </trkpt>
      <trkpt lat="42.3699090" lon="-7.2603130">
        <ele>658.5</ele>
        <time>2014-10-01T16:34:48Z</time>
      </trkpt>
      <trkpt lat="42.3698790" lon="-7.2603420">
        <ele>658.8</ele>
        <time>2014-10-01T16:34:49Z</time>
      </trkpt>
      <trkpt lat="42.3698480" lon="-7.2603720">
        <ele>659.1</ele>
        <time>2014-10-01T16:34:50Z</time>
      </trkpt>
      <trkpt lat="42.3698180" lon="-7.2604050">
        <ele>659.5</ele>
        <time>2014-10-01T16:34:51Z</time>
      </trkpt>
      <trkpt lat="42.3697880" lon="-7.2604400">
        <ele>659.8</ele>
        <time>2014-10-01T16:34:52Z</time>
      </trkpt>
      <trkpt lat="42.3697550" lon="-7.2604730">
        <ele>660.2</ele>
        <time>2014-10-01T16:34:53Z</time>
      </trkpt>
      <trkpt lat="42.3697240" lon="-7.2605080">
        <ele>660.5</ele>
        <time>2014-10-01T16:34:54Z</time>
      </trkpt>
      <trkpt lat="42.3696940" lon="-7.2605420">
        <ele>660.8</ele>
        <time>2014-10-01T16:34:55Z</time>
      </trkpt>
      <trkpt lat="42.3696670" lon="-7.2605780">
        <ele>661.2</ele>
        <time>2014-10-01T16:34:56Z</time>
      </trkpt>
      <trkpt lat="42.3696360" lon="-7.2606130">
        <ele>661.5</ele>
        <time>2014-10-01T16:34:57Z</time>
      </trkpt>
      <trkpt lat="42.3696090" lon="-7.2606360">
        <ele>661.8</ele>
        <time>2014-10-01T16:34:58Z</time>
      </trkpt>
      <trkpt lat="42.3695680" lon="-7.2606760">
        <ele>662.2</ele>
        <time>2014-10-01T16:35:00Z</time>
      </trkpt>
      <trkpt lat="42.3695410" lon="-7.2607080">
        <ele>662.5</ele>
        <time>2014-10-01T16:35:02Z</time>
      </trkpt>
      <trkpt lat="42.3695090" lon="-7.2607450">
        <ele>662.9</ele>
        <time>2014-10-01T16:35:04Z</time>
      </trkpt>
      <trkpt lat="42.3694780" lon="-7.2607740">
        <ele>663.2</ele>
        <time>2014-10-01T16:35:06Z</time>
      </trkpt>
      <trkpt lat="42.3694430" lon="-7.2608110">
        <ele>663.6</ele>
        <time>2014-10-01T16:35:08Z</time>
      </trkpt>
      <trkpt lat="42.3694090" lon="-7.2608440">
        <ele>663.9</ele>
        <time>2014-10-01T16:35:10Z</time>
      </trkpt>
      <trkpt lat="42.3693720" lon="-7.2608800">
        <ele>664.3</ele>
        <time>2014-10-01T16:35:12Z</time>
      </trkpt>
      <trkpt lat="42.3693400" lon="-7.2609150">
        <ele>664.7</ele>
        <time>2014-10-01T16:35:14Z</time>
      </trkpt>
      <trkpt lat="42.3693100" lon="-7.2609440">
        <ele>665.0</ele>
        <time>2014-10-01T16:35:16Z</time>
      </trkpt>
      <trkpt lat="42.3692860" lon="-7.2609720">
        <ele>665.3</ele>
        <time>2014-10-01T16:35:18Z</time>
      </trkpt>
      <trkpt lat="42.3692590" lon="-7.2610020">
        <ele>665.6</ele>
        <time>2014-10-01T16:35:20Z</time>
      </trkpt>
      <trkpt lat="42.3692320" lon="-7.2610350">
        <ele>665.9</ele>
        <time>2014-10-01T16:35:22Z</time>
      </trkpt>
      <trkpt lat="42.3692090" lon="-7.2610650">
        <ele>666.1</ele>
        <time>2014-10-01T16:35:24Z</time>
      </trkpt>
      <trkpt lat="42.3691890" lon="-7.2610940">
        <ele>666.4</ele>
        <time>2014-10-01T16:35:26Z</time>
      </trkpt>
      <trkpt lat="42.3691670" lon="-7.2611290">
        <ele>666.7</ele>
        <time>2014-10-01T16:35:28Z</time>
      </trkpt>
      <trkpt lat="42.3691390" lon="-7.2611600">
        <ele>667.0</ele>
        <time>2014-10-01T16:35:30Z</time>
      </trkpt>
      <trkpt lat="42.3691110" lon="-7.2611910">
        <ele>667.3</ele>
        <time>2014-10-01T16:35:32Z</time>
      </trkpt>
      <trkpt lat="42.3690710" lon="-7.2612360">
        <ele>667.7</ele>
        <time>2014-10-01T16:35:34Z</time>
      </trkpt>
      <trkpt lat="42.3690470" lon="-7.2612640">
        <ele>668.0</ele>
        <time>2014-10-01T16:35:35Z</time>
      </trkpt>
      <trkpt lat="42.3690240" lon="-7.2612880">
        <ele>668.3</ele>
        <time>2014-10-01T16:35:36Z</time>
      </trkpt>
      <trkpt lat="42.3689970" lon="-7.2613160">
        <ele>668.6</ele>
        <time>2014-10-01T16:35:37Z</time>
      </trkpt>
      <trkpt lat="42.3689680" lon="-7.2613480">
        <ele>668.9</ele>
        <time>2014-10-01T16:35:38Z</time>
      </trkpt>
      <trkpt lat="42.3689390" lon="-7.2613760">
        <ele>669.2</ele>
        <time>2014-10-01T16:35:39Z</time>
      </trkpt>
      <trkpt lat="42.3689120" lon="-7.2614070">
        <ele>669.5</ele>
        <time>2014-10-01T16:35:40Z</time>
      </trkpt>
      <trkpt lat="42.3688850" lon="-7.2614370">
        <ele>669.8</ele>
        <time>2014-10-01T16:35:41Z</time>
      </trkpt>
      <trkpt lat="42.3688630" lon="-7.2614640">
        <ele>670.0</ele>
        <time>2014-10-01T16:35:42Z</time>
      </trkpt>
      <trkpt lat="42.3688310" lon="-7.2615230">
        <ele>670.5</ele>
        <time>2014-10-01T16:35:44Z</time>
      </trkpt>
      <trkpt lat="42.3688170" lon="-7.2615810">
        <ele>670.9</ele>
        <time>2014-10-01T16:35:46Z</time>
      </trkpt>
      <trkpt lat="42.3688170" lon="-7.2616530">
        <ele>671.3</ele>
        <time>2014-10-01T16:35:48Z</time>
      </trkpt>
      <trkpt lat="42.3688200" lon="-7.2616900">
        <ele>671.6</ele>
        <time>2014-10-01T16:35:49Z</time>
      </trkpt>
      <trkpt lat="42.3688270" lon="-7.2617290">
        <ele>671.8</ele>
        <time>2014-10-01T16:35:50Z</time>
      </trkpt>
      <trkpt lat="42.3688380" lon="-7.2617670">
        <ele>672.1</ele>
        <time>2014-10-01T16:35:51Z</time>
      </trkpt>
      <trkpt lat="42.3688500" lon="-7.2618060">
        <ele>672.4</ele>
        <time>2014-10-01T16:35:52Z</time>
      </trkpt>
      <trkpt lat="42.3688620" lon="-7.2618430">
        <ele>672.6</ele>
        <time>2014-10-01T16:35:53Z</time>
      </trkpt>
      <trkpt lat="42.3688750" lon="-7.2618770">
        <ele>672.8</ele>
        <time>2014-10-01T16:35:54Z</time>
      </trkpt>
      <trkpt lat="42.3688930" lon="-7.2619420">
        <ele>673.3</ele>
        <time>2014-10-01T16:35:56Z</time>
      </trkpt>
      <trkpt lat="42.3689120" lon="-7.2619940">
        <ele>673.7</ele>
        <time>2014-10-01T16:35:58Z</time>
      </trkpt>
      <trkpt lat="42.3689340" lon="-7.2620470">
        <ele>674.0</ele>
        <time>2014-10-01T16:36:00Z</time>
      </trkpt>
      <trkpt lat="42.3689560" lon="-7.2621010">
        <ele>674.4</ele>
        <time>2014-10-01T16:36:02Z</time>
      </trkpt>
      <trkpt lat="42.3689790" lon="-7.2621510">
        <ele>674.8</ele>
        <time>2014-10-01T16:36:04Z</time>
      </trkpt>
      <trkpt lat="42.3689990" lon="-7.2621930">
        <ele>675.1</ele>
        <time>2014-10-01T16:36:06Z</time>
      </trkpt>
      <trkpt lat="42.3690210" lon="-7.2622450">
        <ele>675.5</ele>
        <time>2014-10-01T16:36:08Z</time>
      </trkpt>
      <trkpt lat="42.3690420" lon="-7.2623010">
        <ele>675.9</ele>
        <time>2014-10-01T16:36:10Z</time>
      </trkpt>
      <trkpt lat="42.3690630" lon="-7.2623590">
        <ele>676.3</ele>
        <time>2014-10-01T16:36:12Z</time>
      </trkpt>
      <trkpt lat="42.3690840" lon="-7.2624180">
        <ele>676.7</ele>
        <time>2014-10-01T16:36:14Z</time>
      </trkpt>
      <trkpt lat="42.3691060" lon="-7.2624820">
        <ele>677.2</ele>
        <time>2014-10-01T16:36:16Z</time>
      </trkpt>
      <trkpt lat="42.3691280" lon="-7.2625440">
        <ele>677.6</ele>
        <time>2014-10-01T16:36:18Z</time>
      </trkpt>
      <trkpt lat="42.3691490" lon="-7.2626050">
        <ele>678.0</ele>
        <time>2014-10-01T16:36:20Z</time>
      </trkpt>
      <trkpt lat="42.3691690" lon="-7.2626660">
        <ele>678.4</ele>
        <time>2014-10-01T16:36:22Z</time>
      </trkpt>
      <trkpt lat="42.3691920" lon="-7.2627290">
        <ele>678.9</ele>
        <time>2014-10-01T16:36:24Z</time>
      </trkpt>
      <trkpt lat="42.3692180" lon="-7.2627920">
        <ele>679.3</ele>
        <time>2014-10-01T16:36:26Z</time>
      </trkpt>
      <trkpt lat="42.3692320" lon="-7.2628250">
        <ele>679.6</ele>
        <time>2014-10-01T16:36:27Z</time>
      </trkpt>
      <trkpt lat="42.3692620" lon="-7.2628850">
        <ele>680.0</ele>
        <time>2014-10-01T16:36:29Z</time>
      </trkpt>
      <trkpt lat="42.3692910" lon="-7.2629430">
        <ele>680.5</ele>
        <time>2014-10-01T16:36:31Z</time>
      </trkpt>
      <trkpt lat="42.3693190" lon="-7.2630020">
        <ele>680.9</ele>
        <time>2014-10-01T16:36:33Z</time>
      </trkpt>
      <trkpt lat="42.3693470" lon="-7.2630620">
        <ele>681.4</ele>
        <time>2014-10-01T16:36:35Z</time>
      </trkpt>
      <trkpt lat="42.3693750" lon="-7.2631200">
        <ele>681.8</ele>
        <time>2014-10-01T16:36:37Z</time>
      </trkpt>
      <trkpt lat="42.3694030" lon="-7.2631830">
        <ele>682.3</ele>
        <time>2014-10-01T16:36:39Z</time>
      </trkpt>
      <trkpt lat="42.3694160" lon="-7.2632170">
        <ele>682.5</ele>
        <time>2014-10-01T16:36:40Z</time>
      </trkpt>
      <trkpt lat="42.3694400" lon="-7.2632770">
        <ele>682.9</ele>
        <time>2014-10-01T16:36:42Z</time>
      </trkpt>
      <trkpt lat="42.3694630" lon="-7.2633300">
        <ele>683.3</ele>
        <time>2014-10-01T16:36:44Z</time>
      </trkpt>
      <trkpt lat="42.3694880" lon="-7.2633880">
        <ele>683.8</ele>
        <time>2014-10-01T16:36:46Z</time>
      </trkpt>
      <trkpt lat="42.3695110" lon="-7.2634430">
        <ele>684.2</ele>
        <time>2014-10-01T16:36:48Z</time>
      </trkpt>
      <trkpt lat="42.3695400" lon="-7.2635040">
        <ele>684.6</ele>
        <time>2014-10-01T16:36:50Z</time>
      </trkpt>
      <trkpt lat="42.3695550" lon="-7.2635370">
        <ele>684.9</ele>
        <time>2014-10-01T16:36:51Z</time>
      </trkpt>
      <trkpt lat="42.3695710" lon="-7.2635680">
        <ele>685.1</ele>
        <time>2014-10-01T16:36:52Z</time>
      </trkpt>
      <trkpt lat="42.3696010" lon="-7.2636240">
        <ele>685.5</ele>
        <time>2014-10-01T16:36:54Z</time>
      </trkpt>
      <trkpt lat="42.3696290" lon="-7.2636750">
        <ele>685.9</ele>
        <time>2014-10-01T16:36:56Z</time>
      </trkpt>
      <trkpt lat="42.3696450" lon="-7.2637040">
        <ele>686.2</ele>
        <time>2014-10-01T16:36:57Z</time>
      </trkpt>
      <trkpt lat="42.3696610" lon="-7.2637350">
        <ele>686.4</ele>
        <time>2014-10-01T16:36:58Z</time>
      </trkpt>
      <trkpt lat="42.3696780" lon="-7.2637650">
        <ele>686.6</ele>
        <time>2014-10-01T16:36:59Z</time>
      </trkpt>
      <trkpt lat="42.3697110" lon="-7.2638200">
        <ele>687.1</ele>
        <time>2014-10-01T16:37:01Z</time>
      </trkpt>
      <trkpt lat="42.3697460" lon="-7.2638720">
        <ele>687.5</ele>
        <time>2014-10-01T16:37:03Z</time>
      </trkpt>
      <trkpt lat="42.3697760" lon="-7.2639240">
        <ele>688.0</ele>
        <time>2014-10-01T16:37:05Z</time>
      </trkpt>
      <trkpt lat="42.3698040" lon="-7.2639760">
        <ele>688.4</ele>
        <time>2014-10-01T16:37:07Z</time>
      </trkpt>
      <trkpt lat="42.3698300" lon="-7.2640260">
        <ele>688.7</ele>
        <time>2014-10-01T16:37:09Z</time>
      </trkpt>
      <trkpt lat="42.3698560" lon="-7.2640780">
        <ele>689.1</ele>
        <time>2014-10-01T16:37:11Z</time>
      </trkpt>
      <trkpt lat="42.3698840" lon="-7.2641300">
        <ele>689.6</ele>
        <time>2014-10-01T16:37:13Z</time>
      </trkpt>
      <trkpt lat="42.3699090" lon="-7.2641800">
        <ele>689.9</ele>
        <time>2014-10-01T16:37:15Z</time>
      </trkpt>
      <trkpt lat="42.3699360" lon="-7.2642240">
        <ele>690.3</ele>
        <time>2014-10-01T16:37:17Z</time>
      </trkpt>
      <trkpt lat="42.3699680" lon="-7.2642780">
        <ele>690.7</ele>
        <time>2014-10-01T16:37:19Z</time>
      </trkpt>
      <trkpt lat="42.3700050" lon="-7.2643280">
        <ele>691.2</ele>
        <time>2014-10-01T16:37:21Z</time>
      </trkpt>
      <trkpt lat="42.3700410" lon="-7.2643720">
        <ele>691.6</ele>
        <time>2014-10-01T16:37:23Z</time>
      </trkpt>
      <trkpt lat="42.3700770" lon="-7.2644140">
        <ele>692.0</ele>
        <time>2014-10-01T16:37:25Z</time>
      </trkpt>
      <trkpt lat="42.3701170" lon="-7.2644580">
        <ele>692.4</ele>
        <time>2014-10-01T16:37:27Z</time>
      </trkpt>
      <trkpt lat="42.3701560" lon="-7.2644970">
        <ele>692.9</ele>
        <time>2014-10-01T16:37:29Z</time>
      </trkpt>
      <trkpt lat="42.3701940" lon="-7.2645420">
        <ele>693.3</ele>
        <time>2014-10-01T16:37:31Z</time>
      </trkpt>
      <trkpt lat="42.3702300" lon="-7.2645860">
        <ele>693.7</ele>
        <time>2014-10-01T16:37:33Z</time>
      </trkpt>
      <trkpt lat="42.3702610" lon="-7.2646340">
        <ele>694.1</ele>
        <time>2014-10-01T16:37:35Z</time>
      </trkpt>
      <trkpt lat="42.3702890" lon="-7.2646840">
        <ele>694.5</ele>
        <time>2014-10-01T16:37:37Z</time>
      </trkpt>
      <trkpt lat="42.3703170" lon="-7.2647440">
        <ele>694.9</ele>
        <time>2014-10-01T16:37:39Z</time>
      </trkpt>
      <trkpt lat="42.3703390" lon="-7.2648080">
        <ele>695.4</ele>
        <time>2014-10-01T16:37:41Z</time>
      </trkpt>
      <trkpt lat="42.3703510" lon="-7.2648760">
        <ele>695.8</ele>
        <time>2014-10-01T16:37:43Z</time>
      </trkpt>
      <trkpt lat="42.3703550" lon="-7.2649470">
        <ele>696.3</ele>
        <time>2014-10-01T16:37:45Z</time>
      </trkpt>
      <trkpt lat="42.3703570" lon="-7.2650180">
        <ele>696.7</ele>
        <time>2014-10-01T16:37:47Z</time>
      </trkpt>
      <trkpt lat="42.3703570" lon="-7.2650880">
        <ele>697.2</ele>
        <time>2014-10-01T16:37:49Z</time>
      </trkpt>
      <trkpt lat="42.3703570" lon="-7.2651580">
        <ele>697.6</ele>
        <time>2014-10-01T16:37:51Z</time>
      </trkpt>
      <trkpt lat="42.3703640" lon="-7.2652260">
        <ele>698.1</ele>
        <time>2014-10-01T16:37:53Z</time>
      </trkpt>
      <trkpt lat="42.3703810" lon="-7.2652980">
        <ele>698.5</ele>
        <time>2014-10-01T16:37:55Z</time>
      </trkpt>
      <trkpt lat="42.3703940" lon="-7.2653330">
        <ele>698.8</ele>
        <time>2014-10-01T16:37:56Z</time>
      </trkpt>
      <trkpt lat="42.3704180" lon="-7.2653930">
        <ele>699.2</ele>
        <time>2014-10-01T16:37:58Z</time>
      </trkpt>
      <trkpt lat="42.3704350" lon="-7.2654240">
        <ele>699.5</ele>
        <time>2014-10-01T16:37:59Z</time>
      </trkpt>
      <trkpt lat="42.3704530" lon="-7.2654550">
        <ele>699.7</ele>
        <time>2014-10-01T16:38:00Z</time>
      </trkpt>
      <trkpt lat="42.3704750" lon="-7.2654870">
        <ele>700.0</ele>
        <time>2014-10-01T16:38:01Z</time>
      </trkpt>
      <trkpt lat="42.3704970" lon="-7.2655140">
        <ele>700.2</ele>
        <time>2014-10-01T16:38:02Z</time>
      </trkpt>
      <trkpt lat="42.3705230" lon="-7.2655410">
        <ele>700.5</ele>
        <time>2014-10-01T16:38:03Z</time>
      </trkpt>
      <trkpt lat="42.3705510" lon="-7.2655710">
        <ele>700.8</ele>
        <time>2014-10-01T16:38:04Z</time>
      </trkpt>
      <trkpt lat="42.3705820" lon="-7.2655960">
        <ele>701.1</ele>
        <time>2014-10-01T16:38:05Z</time>
      </trkpt>
      <trkpt lat="42.3706170" lon="-7.2656180">
        <ele>701.5</ele>
        <time>2014-10-01T16:38:06Z</time>
      </trkpt>
      <trkpt lat="42.3706520" lon="-7.2656370">
        <ele>701.7</ele>
        <time>2014-10-01T16:38:07Z</time>
      </trkpt>
      <trkpt lat="42.3706940" lon="-7.2656530">
        <ele>702.0</ele>
        <time>2014-10-01T16:38:08Z</time>
      </trkpt>
      <trkpt lat="42.3707330" lon="-7.2656650">
        <ele>702.4</ele>
        <time>2014-10-01T16:38:09Z</time>
      </trkpt>
      <trkpt lat="42.3707710" lon="-7.2656730">
        <ele>702.7</ele>
        <time>2014-10-01T16:38:10Z</time>
      </trkpt>
      <trkpt lat="42.3708070" lon="-7.2656820">
        <ele>703.0</ele>
        <time>2014-10-01T16:38:11Z</time>
      </trkpt>
      <trkpt lat="42.3708430" lon="-7.2656920">
        <ele>703.3</ele>
        <time>2014-10-01T16:38:12Z</time>
      </trkpt>
      <trkpt lat="42.3708780" lon="-7.2657050">
        <ele>703.6</ele>
        <time>2014-10-01T16:38:13Z</time>
      </trkpt>
      <trkpt lat="42.3709020" lon="-7.2657230">
        <ele>703.8</ele>
        <time>2014-10-01T16:38:14Z</time>
      </trkpt>
      <trkpt lat="42.3709240" lon="-7.2657480">
        <ele>704.1</ele>
        <time>2014-10-01T16:38:15Z</time>
      </trkpt>
      <trkpt lat="42.3709470" lon="-7.2657740">
        <ele>704.3</ele>
        <time>2014-10-01T16:38:16Z</time>
      </trkpt>
      <trkpt lat="42.3709650" lon="-7.2658020">
        <ele>704.5</ele>
        <time>2014-10-01T16:38:17Z</time>
      </trkpt>
      <trkpt lat="42.3709950" lon="-7.2658570">
        <ele>705.0</ele>
        <time>2014-10-01T16:38:19Z</time>
      </trkpt>
      <trkpt lat="42.3710170" lon="-7.2659100">
        <ele>705.3</ele>
        <time>2014-10-01T16:38:21Z</time>
      </trkpt>
      <trkpt lat="42.3710430" lon="-7.2659630">
        <ele>705.7</ele>
        <time>2014-10-01T16:38:23Z</time>
      </trkpt>
      <trkpt lat="42.3710660" lon="-7.2660180">
        <ele>706.1</ele>
        <time>2014-10-01T16:38:25Z</time>
      </trkpt>
      <trkpt lat="42.3710890" lon="-7.2660760">
        <ele>706.5</ele>
        <time>2014-10-01T16:38:27Z</time>
      </trkpt>
      <trkpt lat="42.3711060" lon="-7.2661380">
        <ele>706.9</ele>
        <time>2014-10-01T16:38:29Z</time>
      </trkpt>
      <trkpt lat="42.3711110" lon="-7.2662030">
        <ele>707.3</ele>
        <time>2014-10-01T16:38:31Z</time>
      </trkpt>
      <trkpt lat="42.3711080" lon="-7.2662730">
        <ele>707.8</ele>
        <time>2014-10-01T16:38:33Z</time>
      </trkpt>
      <trkpt lat="42.3711020" lon="-7.2663410">
        <ele>708.2</ele>
        <time>2014-10-01T16:38:35Z</time>
      </trkpt>
      <trkpt lat="42.3711010" lon="-7.2664060">
        <ele>708.6</ele>
        <time>2014-10-01T16:38:37Z</time>
      </trkpt>
      <trkpt lat="42.3710990" lon="-7.2664700">
        <ele>709.0</ele>
        <time>2014-10-01T16:38:39Z</time>
      </trkpt>
      <trkpt lat="42.3710990" lon="-7.2665350">
        <ele>709.4</ele>
        <time>2014-10-01T16:38:41Z</time>
      </trkpt>
      <trkpt lat="42.3710980" lon="-7.2666010">
        <ele>709.8</ele>
        <time>2014-10-01T16:38:43Z</time>
      </trkpt>
      <trkpt lat="42.3710970" lon="-7.2666700">
        <ele>710.2</ele>
        <time>2014-10-01T16:38:45Z</time>
      </trkpt>
      <trkpt lat="42.3711000" lon="-7.2667360">
        <ele>710.6</ele>
        <time>2014-10-01T16:38:47Z</time>
      </trkpt>
      <trkpt lat="42.3711040" lon="-7.2668000">
        <ele>711.0</ele>
        <time>2014-10-01T16:38:49Z</time>
      </trkpt>
      <trkpt lat="42.3711090" lon="-7.2668660">
        <ele>711.4</ele>
        <time>2014-10-01T16:38:51Z</time>
      </trkpt>
      <trkpt lat="42.3711150" lon="-7.2669220">
        <ele>711.8</ele>
        <time>2014-10-01T16:38:53Z</time>
      </trkpt>
      <trkpt lat="42.3711220" lon="-7.2669750">
        <ele>712.1</ele>
        <time>2014-10-01T16:38:55Z</time>
      </trkpt>
      <trkpt lat="42.3711280" lon="-7.2670240">
        <ele>712.4</ele>
        <time>2014-10-01T16:38:57Z</time>
      </trkpt>
      <trkpt lat="42.3711330" lon="-7.2670710">
        <ele>712.7</ele>
        <time>2014-10-01T16:38:59Z</time>
      </trkpt>
      <trkpt lat="42.3711430" lon="-7.2671120">
        <ele>712.9</ele>
        <time>2014-10-01T16:39:01Z</time>
      </trkpt>
      <trkpt lat="42.3711550" lon="-7.2671560">
        <ele>713.2</ele>
        <time>2014-10-01T16:39:03Z</time>
      </trkpt>
      <trkpt lat="42.3711690" lon="-7.2671970">
        <ele>713.5</ele>
        <time>2014-10-01T16:39:05Z</time>
      </trkpt>
      <trkpt lat="42.3711870" lon="-7.2672420">
        <ele>713.8</ele>
        <time>2014-10-01T16:39:07Z</time>
      </trkpt>
      <trkpt lat="42.3712010" lon="-7.2672880">
        <ele>714.1</ele>
        <time>2014-10-01T16:39:09Z</time>
      </trkpt>
      <trkpt lat="42.3712170" lon="-7.2673300">
        <ele>714.4</ele>
        <time>2014-10-01T16:39:11Z</time>
      </trkpt>
      <trkpt lat="42.3712320" lon="-7.2673720">
        <ele>714.7</ele>
        <time>2014-10-01T16:39:13Z</time>
      </trkpt>
      <trkpt lat="42.3712510" lon="-7.2674140">
        <ele>715.0</ele>
        <time>2014-10-01T16:39:15Z</time>
      </trkpt>
      <trkpt lat="42.3712710" lon="-7.2674500">
        <ele>715.3</ele>
        <time>2014-10-01T16:39:17Z</time>
      </trkpt>
      <trkpt lat="42.3712900" lon="-7.2674910">
        <ele>715.6</ele>
        <time>2014-10-01T16:39:19Z</time>
      </trkpt>
      <trkpt lat="42.3713040" lon="-7.2675360">
        <ele>715.9</ele>
        <time>2014-10-01T16:39:21Z</time>
      </trkpt>
      <trkpt lat="42.3713210" lon="-7.2675840">
        <ele>716.2</ele>
        <time>2014-10-01T16:39:23Z</time>
      </trkpt>
      <trkpt lat="42.3713360" lon="-7.2676260">
        <ele>716.5</ele>
        <time>2014-10-01T16:39:25Z</time>
      </trkpt>
      <trkpt lat="42.3713510" lon="-7.2676730">
        <ele>716.8</ele>
        <time>2014-10-01T16:39:27Z</time>
      </trkpt>
      <trkpt lat="42.3713680" lon="-7.2677230">
        <ele>717.1</ele>
        <time>2014-10-01T16:39:29Z</time>
      </trkpt>
      <trkpt lat="42.3713800" lon="-7.2677660">
        <ele>717.4</ele>
        <time>2014-10-01T16:39:31Z</time>
      </trkpt>
      <trkpt lat="42.3713900" lon="-7.2678120">
        <ele>717.7</ele>
        <time>2014-10-01T16:39:33Z</time>
      </trkpt>
      <trkpt lat="42.3713980" lon="-7.2678610">
        <ele>718.0</ele>
        <time>2014-10-01T16:39:35Z</time>
      </trkpt>
      <trkpt lat="42.3714090" lon="-7.2679110">
        <ele>718.4</ele>
        <time>2014-10-01T16:39:37Z</time>
      </trkpt>
      <trkpt lat="42.3714160" lon="-7.2679600">
        <ele>718.7</ele>
        <time>2014-10-01T16:39:39Z</time>
      </trkpt>
      <trkpt lat="42.3714170" lon="-7.2680080">
        <ele>719.0</ele>
        <time>2014-10-01T16:39:41Z</time>
      </trkpt>
      <trkpt lat="42.3714180" lon="-7.2680530">
        <ele>719.2</ele>
        <time>2014-10-01T16:39:43Z</time>
      </trkpt>
      <trkpt lat="42.3714240" lon="-7.2681030">
        <ele>719.5</ele>
        <time>2014-10-01T16:39:45Z</time>
      </trkpt>
      <trkpt lat="42.3714320" lon="-7.2681510">
        <ele>719.8</ele>
        <time>2014-10-01T16:39:47Z</time>
      </trkpt>
      <trkpt lat="42.3714410" lon="-7.2681980">
        <ele>720.1</ele>
        <time>2014-10-01T16:39:49Z</time>
      </trkpt>
      <trkpt lat="42.3714530" lon="-7.2682370">
        <ele>720.4</ele>
        <time>2014-10-01T16:39:51Z</time>
      </trkpt>
      <trkpt lat="42.3714630" lon="-7.2682820">
        <ele>720.7</ele>
        <time>2014-10-01T16:39:53Z</time>
      </trkpt>
      <trkpt lat="42.3714720" lon="-7.2683250">
        <ele>721.0</ele>
        <time>2014-10-01T16:39:55Z</time>
      </trkpt>
      <trkpt lat="42.3714810" lon="-7.2683740">
        <ele>721.3</ele>
        <time>2014-10-01T16:39:57Z</time>
      </trkpt>
      <trkpt lat="42.3714880" lon="-7.2684200">
        <ele>721.6</ele>
        <time>2014-10-01T16:39:59Z</time>
      </trkpt>
      <trkpt lat="42.3714990" lon="-7.2684680">
        <ele>721.9</ele>
        <time>2014-10-01T16:40:01Z</time>
      </trkpt>
      <trkpt lat="42.3715100" lon="-7.2685170">
        <ele>722.2</ele>
        <time>2014-10-01T16:40:03Z</time>
      </trkpt>
      <trkpt lat="42.3715180" lon="-7.2685670">
        <ele>722.5</ele>
        <time>2014-10-01T16:40:05Z</time>
      </trkpt>
      <trkpt lat="42.3715240" lon="-7.2686190">
        <ele>722.8</ele>
        <time>2014-10-01T16:40:07Z</time>
      </trkpt>
      <trkpt lat="42.3715300" lon="-7.2686680">
        <ele>723.1</ele>
        <time>2014-10-01T16:40:09Z</time>
      </trkpt>
      <trkpt lat="42.3715340" lon="-7.2687200">
        <ele>723.5</ele>
        <time>2014-10-01T16:40:11Z</time>
      </trkpt>
      <trkpt lat="42.3715410" lon="-7.2687710">
        <ele>723.8</ele>
        <time>2014-10-01T16:40:13Z</time>
      </trkpt>
      <trkpt lat="42.3715510" lon="-7.2688210">
        <ele>724.1</ele>
        <time>2014-10-01T16:40:15Z</time>
      </trkpt>
      <trkpt lat="42.3715630" lon="-7.2688720">
        <ele>724.4</ele>
        <time>2014-10-01T16:40:17Z</time>
      </trkpt>
      <trkpt lat="42.3715750" lon="-7.2689270">
        <ele>724.8</ele>
        <time>2014-10-01T16:40:19Z</time>
      </trkpt>
      <trkpt lat="42.3715910" lon="-7.2689810">
        <ele>725.1</ele>
        <time>2014-10-01T16:40:21Z</time>
      </trkpt>
      <trkpt lat="42.3716150" lon="-7.2690340">
        <ele>725.5</ele>
        <time>2014-10-01T16:40:23Z</time>
      </trkpt>
      <trkpt lat="42.3716480" lon="-7.2690870">
        <ele>725.9</ele>
        <time>2014-10-01T16:40:25Z</time>
      </trkpt>
      <trkpt lat="42.3716820" lon="-7.2691440">
        <ele>726.4</ele>
        <time>2014-10-01T16:40:27Z</time>
      </trkpt>
      <trkpt lat="42.3717020" lon="-7.2691700">
        <ele>726.6</ele>
        <time>2014-10-01T16:40:28Z</time>
      </trkpt>
      <trkpt lat="42.3717210" lon="-7.2691990">
        <ele>726.9</ele>
        <time>2014-10-01T16:40:29Z</time>
      </trkpt>
      <trkpt lat="42.3717400" lon="-7.2692260">
        <ele>727.1</ele>
        <time>2014-10-01T16:40:30Z</time>
      </trkpt>
      <trkpt lat="42.3717630" lon="-7.2692590">
        <ele>727.4</ele>
        <time>2014-10-01T16:40:31Z</time>
      </trkpt>
      <trkpt lat="42.3717880" lon="-7.2692930">
        <ele>727.7</ele>
        <time>2014-10-01T16:40:32Z</time>
      </trkpt>
      <trkpt lat="42.3718130" lon="-7.2693280">
        <ele>728.0</ele>
        <time>2014-10-01T16:40:33Z</time>
      </trkpt>
      <trkpt lat="42.3718410" lon="-7.2693650">
        <ele>728.3</ele>
        <time>2014-10-01T16:40:34Z</time>
      </trkpt>
      <trkpt lat="42.3718670" lon="-7.2693910">
        <ele>728.5</ele>
        <time>2014-10-01T16:40:35Z</time>
      </trkpt>
      <trkpt lat="42.3718940" lon="-7.2694190">
        <ele>728.8</ele>
        <time>2014-10-01T16:40:36Z</time>
      </trkpt>
      <trkpt lat="42.3719190" lon="-7.2694480">
        <ele>729.1</ele>
        <time>2014-10-01T16:40:37Z</time>
      </trkpt>
      <trkpt lat="42.3719470" lon="-7.2694780">
        <ele>729.4</ele>
        <time>2014-10-01T16:40:38Z</time>
      </trkpt>
      <trkpt lat="42.3719790" lon="-7.2695110">
        <ele>729.7</ele>
        <time>2014-10-01T16:40:39Z</time>
      </trkpt>
      <trkpt lat="42.3720090" lon="-7.2695410">
        <ele>730.0</ele>
        <time>2014-10-01T16:40:40Z</time>
      </trkpt>
      <trkpt lat="42.3720390" lon="-7.2695690">
        <ele>730.3</ele>
        <time>2014-10-01T16:40:41Z</time>
      </trkpt>
      <trkpt lat="42.3720690" lon="-7.2695970">
        <ele>730.7</ele>
        <time>2014-10-01T16:40:42Z</time>
      </trkpt>
      <trkpt lat="42.3720970" lon="-7.2696220">
        <ele>730.9</ele>
        <time>2014-10-01T16:40:43Z</time>
      </trkpt>
      <trkpt lat="42.3721260" lon="-7.2696450">
        <ele>731.2</ele>
        <time>2014-10-01T16:40:44Z</time>
      </trkpt>
      <trkpt lat="42.3721530" lon="-7.2696680">
        <ele>731.5</ele>
        <time>2014-10-01T16:40:45Z</time>
      </trkpt>
      <trkpt lat="42.3721790" lon="-7.2696920">
        <ele>731.7</ele>
        <time>2014-10-01T16:40:46Z</time>
      </trkpt>
      <trkpt lat="42.3722060" lon="-7.2697160">
        <ele>732.0</ele>
        <time>2014-10-01T16:40:47Z</time>
      </trkpt>
      <trkpt lat="42.3722330" lon="-7.2697360">
        <ele>732.3</ele>
        <time>2014-10-01T16:40:48Z</time>
      </trkpt>
      <trkpt lat="42.3722620" lon="-7.2697550">
        <ele>732.5</ele>
        <time>2014-10-01T16:40:49Z</time>
      </trkpt>
      <trkpt lat="42.3722880" lon="-7.2697730">
        <ele>732.8</ele>
        <time>2014-10-01T16:40:50Z</time>
      </trkpt>
      <trkpt lat="42.3723110" lon="-7.2697950">
        <ele>733.0</ele>
        <time>2014-10-01T16:40:51Z</time>
      </trkpt>
      <trkpt lat="42.3723590" lon="-7.2698410">
        <ele>733.5</ele>
        <time>2014-10-01T16:40:53Z</time>
      </trkpt>
      <trkpt lat="42.3723930" lon="-7.2698680">
        <ele>733.8</ele>
        <time>2014-10-01T16:40:54Z</time>
      </trkpt>
      <trkpt lat="42.3724260" lon="-7.2698910">
        <ele>734.1</ele>
        <time>2014-10-01T16:40:55Z</time>
      </trkpt>
      <trkpt lat="42.3724550" lon="-7.2699110">
        <ele>734.4</ele>
        <time>2014-10-01T16:40:56Z</time>
      </trkpt>
      <trkpt lat="42.3724860" lon="-7.2699290">
        <ele>734.7</ele>
        <time>2014-10-01T16:40:57Z</time>
      </trkpt>
      <trkpt lat="42.3725280" lon="-7.2699480">
        <ele>735.0</ele>
        <time>2014-10-01T16:40:58Z</time>
      </trkpt>
      <trkpt lat="42.3725640" lon="-7.2699630">
        <ele>735.4</ele>
        <time>2014-10-01T16:40:59Z</time>
      </trkpt>
      <trkpt lat="42.3725960" lon="-7.2699760">
        <ele>735.6</ele>
        <time>2014-10-01T16:41:00Z</time>
      </trkpt>
      <trkpt lat="42.3726400" lon="-7.2699870">
        <ele>736.0</ele>
        <time>2014-10-01T16:41:01Z</time>
      </trkpt>
      <trkpt lat="42.3726880" lon="-7.2699930">
        <ele>736.4</ele>
        <time>2014-10-01T16:41:02Z</time>
      </trkpt>
      <trkpt lat="42.3727280" lon="-7.2699960">
        <ele>736.7</ele>
        <time>2014-10-01T16:41:03Z</time>
      </trkpt>
      <trkpt lat="42.3727630" lon="-7.2699970">
        <ele>737.0</ele>
        <time>2014-10-01T16:41:04Z</time>
      </trkpt>
      <trkpt lat="42.3727980" lon="-7.2699980">
        <ele>737.3</ele>
        <time>2014-10-01T16:41:05Z</time>
      </trkpt>
      <trkpt lat="42.3728310" lon="-7.2700030">
        <ele>737.6</ele>
        <time>2014-10-01T16:41:06Z</time>
      </trkpt>
      <trkpt lat="42.3728640" lon="-7.2700080">
        <ele>737.9</ele>
        <time>2014-10-01T16:41:07Z</time>
      </trkpt>
      <trkpt lat="42.3728930" lon="-7.2700110">
        <ele>738.1</ele>
        <time>2014-10-01T16:41:08Z</time>
      </trkpt>
      <trkpt lat="42.3729390" lon="-7.2700050">
        <ele>738.5</ele>
        <time>2014-10-01T16:41:10Z</time>
      </trkpt>
      <trkpt lat="42.3729690" lon="-7.2699950">
        <ele>738.8</ele>
        <time>2014-10-01T16:41:11Z</time>
      </trkpt>
      <trkpt lat="42.3730020" lon="-7.2699880">
        <ele>739.0</ele>
        <time>2014-10-01T16:41:12Z</time>
      </trkpt>
      <trkpt lat="42.3730380" lon="-7.2699800">
        <ele>739.3</ele>
        <time>2014-10-01T16:41:13Z</time>
      </trkpt>
      <trkpt lat="42.3730770" lon="-7.2699680">
        <ele>739.7</ele>
        <time>2014-10-01T16:41:14Z</time>
      </trkpt>
      <trkpt lat="42.3731150" lon="-7.2699590">
        <ele>740.0</ele>
        <time>2014-10-01T16:41:15Z</time>
      </trkpt>
      <trkpt lat="42.3731550" lon="-7.2699500">
        <ele>740.3</ele>
        <time>2014-10-01T16:41:16Z</time>
      </trkpt>
      <trkpt lat="42.3731920" lon="-7.2699390">
        <ele>740.6</ele>
        <time>2014-10-01T16:41:17Z</time>
      </trkpt>
      <trkpt lat="42.3732300" lon="-7.2699180">
        <ele>741.0</ele>
        <time>2014-10-01T16:41:18Z</time>
      </trkpt>
      <trkpt lat="42.3732670" lon="-7.2699070">
        <ele>741.3</ele>
        <time>2014-10-01T16:41:19Z</time>
      </trkpt>
      <trkpt lat="42.3733070" lon="-7.2698890">
        <ele>741.7</ele>
        <time>2014-10-01T16:41:20Z</time>
      </trkpt>
      <trkpt lat="42.3733460" lon="-7.2698730">
        <ele>742.0</ele>
        <time>2014-10-01T16:41:21Z</time>
      </trkpt>
      <trkpt lat="42.3733870" lon="-7.2698570">
        <ele>742.3</ele>
        <time>2014-10-01T16:41:22Z</time>
      </trkpt>
      <trkpt lat="42.3734300" lon="-7.2698430">
        <ele>742.7</ele>
        <time>2014-10-01T16:41:23Z</time>
      </trkpt>
      <trkpt lat="42.3734700" lon="-7.2698260">
        <ele>743.1</ele>
        <time>2014-10-01T16:41:24Z</time>
      </trkpt>
      <trkpt lat="42.3735040" lon="-7.2698090">
        <ele>743.4</ele>
        <time>2014-10-01T16:41:25Z</time>
      </trkpt>
      <trkpt lat="42.3735330" lon="-7.2697960">
        <ele>743.6</ele>
        <time>2014-10-01T16:41:26Z</time>
      </trkpt>
      <trkpt lat="42.3735650" lon="-7.2697860">
        <ele>743.9</ele>
        <time>2014-10-01T16:41:27Z</time>
      </trkpt>
      <trkpt lat="42.3736010" lon="-7.2697780">
        <ele>744.2</ele>
        <time>2014-10-01T16:41:28Z</time>
      </trkpt>
      <trkpt lat="42.3736450" lon="-7.2697750">
        <ele>744.6</ele>
        <time>2014-10-01T16:41:29Z</time>
      </trkpt>
      <trkpt lat="42.3736870" lon="-7.2697840">
        <ele>744.9</ele>
        <time>2014-10-01T16:41:30Z</time>
      </trkpt>
      <trkpt lat="42.3737200" lon="-7.2697930">
        <ele>745.2</ele>
        <time>2014-10-01T16:41:31Z</time>
      </trkpt>
      <trkpt lat="42.3737520" lon="-7.2698040">
        <ele>745.5</ele>
        <time>2014-10-01T16:41:32Z</time>
      </trkpt>
      <trkpt lat="42.3738030" lon="-7.2698170">
        <ele>745.9</ele>
        <time>2014-10-01T16:41:34Z</time>
      </trkpt>
      <trkpt lat="42.3738450" lon="-7.2698310">
        <ele>746.3</ele>
        <time>2014-10-01T16:41:36Z</time>
      </trkpt>
      <trkpt lat="42.3738910" lon="-7.2698500">
        <ele>746.7</ele>
        <time>2014-10-01T16:41:38Z</time>
      </trkpt>
      <trkpt lat="42.3739360" lon="-7.2698640">
        <ele>747.0</ele>
        <time>2014-10-01T16:41:40Z</time>
      </trkpt>
      <trkpt lat="42.3739840" lon="-7.2698770">
        <ele>747.5</ele>
        <time>2014-10-01T16:41:42Z</time>
      </trkpt>
      <trkpt lat="42.3740290" lon="-7.2698960">
        <ele>747.8</ele>
        <time>2014-10-01T16:41:44Z</time>
      </trkpt>
      <trkpt lat="42.3740710" lon="-7.2699150">
        <ele>748.2</ele>
        <time>2014-10-01T16:41:46Z</time>
      </trkpt>
      <trkpt lat="42.3741150" lon="-7.2699330">
        <ele>748.6</ele>
        <time>2014-10-01T16:41:48Z</time>
      </trkpt>
      <trkpt lat="42.3741620" lon="-7.2699500">
        <ele>749.0</ele>
        <time>2014-10-01T16:41:50Z</time>
      </trkpt>
      <trkpt lat="42.3742110" lon="-7.2699710">
        <ele>749.4</ele>
        <time>2014-10-01T16:41:52Z</time>
      </trkpt>
      <trkpt lat="42.3742560" lon="-7.2699890">
        <ele>749.8</ele>
        <time>2014-10-01T16:41:54Z</time>
      </trkpt>
      <trkpt lat="42.3742990" lon="-7.2700050">
        <ele>750.2</ele>
        <time>2014-10-01T16:41:56Z</time>
      </trkpt>
      <trkpt lat="42.3743410" lon="-7.2700130">
        <ele>750.5</ele>
        <time>2014-10-01T16:41:58Z</time>
      </trkpt>
      <trkpt lat="42.3743870" lon="-7.2700210">
        <ele>750.9</ele>
        <time>2014-10-01T16:42:00Z</time>
      </trkpt>
      <trkpt lat="42.3744310" lon="-7.2700310">
        <ele>751.3</ele>
        <time>2014-10-01T16:42:02Z</time>
      </trkpt>
      <trkpt lat="42.3744750" lon="-7.2700360">
        <ele>751.7</ele>
        <time>2014-10-01T16:42:04Z</time>
      </trkpt>
      <trkpt lat="42.3745190" lon="-7.2700420">
        <ele>752.0</ele>
        <time>2014-10-01T16:42:06Z</time>
      </trkpt>
      <trkpt lat="42.3745600" lon="-7.2700460">
        <ele>752.4</ele>
        <time>2014-10-01T16:42:08Z</time>
      </trkpt>
      <trkpt lat="42.3746050" lon="-7.2700540">
        <ele>752.7</ele>
        <time>2014-10-01T16:42:10Z</time>
      </trkpt>
      <trkpt lat="42.3746450" lon="-7.2700670">
        <ele>753.1</ele>
        <time>2014-10-01T16:42:12Z</time>
      </trkpt>
      <trkpt lat="42.3746770" lon="-7.2700900">
        <ele>753.4</ele>
        <time>2014-10-01T16:42:14Z</time>
      </trkpt>
      <trkpt lat="42.3747090" lon="-7.2701220">
        <ele>753.7</ele>
        <time>2014-10-01T16:42:16Z</time>
      </trkpt>
      <trkpt lat="42.3747360" lon="-7.2701550">
        <ele>754.0</ele>
        <time>2014-10-01T16:42:18Z</time>
      </trkpt>
      <trkpt lat="42.3747640" lon="-7.2701890">
        <ele>754.3</ele>
        <time>2014-10-01T16:42:20Z</time>
      </trkpt>
      <trkpt lat="42.3747940" lon="-7.2702310">
        <ele>754.7</ele>
        <time>2014-10-01T16:42:22Z</time>
      </trkpt>
      <trkpt lat="42.3748200" lon="-7.2702730">
        <ele>755.0</ele>
        <time>2014-10-01T16:42:24Z</time>
      </trkpt>
      <trkpt lat="42.3748450" lon="-7.2703160">
        <ele>755.4</ele>
        <time>2014-10-01T16:42:26Z</time>
      </trkpt>
      <trkpt lat="42.3748670" lon="-7.2703550">
        <ele>755.7</ele>
        <time>2014-10-01T16:42:28Z</time>
      </trkpt>
      <trkpt lat="42.3748870" lon="-7.2704040">
        <ele>756.0</ele>
        <time>2014-10-01T16:42:30Z</time>
      </trkpt>
      <trkpt lat="42.3749060" lon="-7.2704500">
        <ele>756.3</ele>
        <time>2014-10-01T16:42:32Z</time>
      </trkpt>
      <trkpt lat="42.3749160" lon="-7.2704930">
        <ele>756.6</ele>
        <time>2014-10-01T16:42:34Z</time>
      </trkpt>
      <trkpt lat="42.3749270" lon="-7.2705380">
        <ele>756.9</ele>
        <time>2014-10-01T16:42:36Z</time>
      </trkpt>
      <trkpt lat="42.3749420" lon="-7.2705850">
        <ele>757.2</ele>
        <time>2014-10-01T16:42:38Z</time>
      </trkpt>
      <trkpt lat="42.3749540" lon="-7.2706350">
        <ele>757.5</ele>
        <time>2014-10-01T16:42:40Z</time>
      </trkpt>
      <trkpt lat="42.3749640" lon="-7.2706940">
        <ele>757.9</ele>
        <time>2014-10-01T16:42:42Z</time>
      </trkpt>
      <trkpt lat="42.3749720" lon="-7.2707520">
        <ele>758.3</ele>
        <time>2014-10-01T16:42:44Z</time>
      </trkpt>
      <trkpt lat="42.3749750" lon="-7.2708140">
        <ele>758.7</ele>
        <time>2014-10-01T16:42:46Z</time>
      </trkpt>
      <trkpt lat="42.3749780" lon="-7.2708760">
        <ele>759.0</ele>
        <time>2014-10-01T16:42:48Z</time>
      </trkpt>
      <trkpt lat="42.3749860" lon="-7.2709420">
        <ele>759.5</ele>
        <time>2014-10-01T16:42:50Z</time>
      </trkpt>
      <trkpt lat="42.3749940" lon="-7.2710110">
        <ele>759.9</ele>
        <time>2014-10-01T16:42:52Z</time>
      </trkpt>
      <trkpt lat="42.3749990" lon="-7.2710800">
        <ele>760.3</ele>
        <time>2014-10-01T16:42:54Z</time>
      </trkpt>
      <trkpt lat="42.3750000" lon="-7.2711450">
        <ele>760.7</ele>
        <time>2014-10-01T16:42:56Z</time>
      </trkpt>
      <trkpt lat="42.3750000" lon="-7.2712140">
        <ele>761.1</ele>
        <time>2014-10-01T16:42:58Z</time>
      </trkpt>
      <trkpt lat="42.3749960" lon="-7.2712790">
        <ele>761.5</ele>
        <time>2014-10-01T16:43:00Z</time>
      </trkpt>
      <trkpt lat="42.3749880" lon="-7.2713410">
        <ele>761.9</ele>
        <time>2014-10-01T16:43:02Z</time>
      </trkpt>
      <trkpt lat="42.3749860" lon="-7.2713840">
        <ele>762.2</ele>
        <time>2014-10-01T16:43:04Z</time>
      </trkpt>
      <trkpt lat="42.3749870" lon="-7.2714370">
        <ele>762.5</ele>
        <time>2014-10-01T16:43:06Z</time>
      </trkpt>
      <trkpt lat="42.3749880" lon="-7.2714950">
        <ele>762.9</ele>
        <time>2014-10-01T16:43:08Z</time>
      </trkpt>
      <trkpt lat="42.3749890" lon="-7.2715580">
        <ele>763.3</ele>
        <time>2014-10-01T16:43:10Z</time>
      </trkpt>
      <trkpt lat="42.3749890" lon="-7.2716210">
        <ele>763.6</ele>
        <time>2014-10-01T16:43:12Z</time>
      </trkpt>
      <trkpt lat="42.3749890" lon="-7.2716780">
        <ele>764.0</ele>
        <time>2014-10-01T16:43:14Z</time>
      </trkpt>
      <trkpt lat="42.3749930" lon="-7.2717320">
        <ele>764.3</ele>
        <time>2014-10-01T16:43:16Z</time>
      </trkpt>
      <trkpt lat="42.3750000" lon="-7.2717860">
        <ele>764.7</ele>
        <time>2014-10-01T16:43:18Z</time>
      </trkpt>
      <trkpt lat="42.3750080" lon="-7.2718380">
        <ele>765.0</ele>
        <time>2014-10-01T16:43:20Z</time>
      </trkpt>
      <trkpt lat="42.3750160" lon="-7.2718920">
        <ele>765.3</ele>
        <time>2014-10-01T16:43:22Z</time>
      </trkpt>
      <trkpt lat="42.3750210" lon="-7.2719510">
        <ele>765.7</ele>
        <time>2014-10-01T16:43:24Z</time>
      </trkpt>
      <trkpt lat="42.3750280" lon="-7.2720100">
        <ele>766.1</ele>
        <time>2014-10-01T16:43:26Z</time>
      </trkpt>
      <trkpt lat="42.3750410" lon="-7.2720620">
        <ele>766.4</ele>
        <time>2014-10-01T16:43:28Z</time>
      </trkpt>
      <trkpt lat="42.3750550" lon="-7.2721140">
        <ele>766.7</ele>
        <time>2014-10-01T16:43:30Z</time>
      </trkpt>
      <trkpt lat="42.3750700" lon="-7.2721660">
        <ele>767.1</ele>
        <time>2014-10-01T16:43:32Z</time>
      </trkpt>
      <trkpt lat="42.3750840" lon="-7.2722200">
        <ele>767.4</ele>
        <time>2014-10-01T16:43:34Z</time>
      </trkpt>
      <trkpt lat="42.3750990" lon="-7.2722800">
        <ele>767.8</ele>
        <time>2014-10-01T16:43:36Z</time>
      </trkpt>
      <trkpt lat="42.3751180" lon="-7.2723380">
        <ele>768.2</ele>
        <time>2014-10-01T16:43:38Z</time>
      </trkpt>
      <trkpt lat="42.3751440" lon="-7.2723910">
        <ele>768.6</ele>
        <time>2014-10-01T16:43:40Z</time>
      </trkpt>
      <trkpt lat="42.3751680" lon="-7.2724410">
        <ele>769.0</ele>
        <time>2014-10-01T16:43:42Z</time>
      </trkpt>
      <trkpt lat="42.3751930" lon="-7.2724860">
        <ele>769.3</ele>
        <time>2014-10-01T16:43:44Z</time>
      </trkpt>
      <trkpt lat="42.3752150" lon="-7.2725300">
        <ele>769.6</ele>
        <time>2014-10-01T16:43:46Z</time>
      </trkpt>
      <trkpt lat="42.3752360" lon="-7.2725770">
        <ele>770.0</ele>
        <time>2014-10-01T16:43:48Z</time>
      </trkpt>
      <trkpt lat="42.3752570" lon="-7.2726270">
        <ele>770.3</ele>
        <time>2014-10-01T16:43:50Z</time>
      </trkpt>
      <trkpt lat="42.3752760" lon="-7.2726760">
        <ele>770.7</ele>
        <time>2014-10-01T16:43:52Z</time>
      </trkpt>
      <trkpt lat="42.3752960" lon="-7.2727250">
        <ele>771.0</ele>
        <time>2014-10-01T16:43:54Z</time>
      </trkpt>
      <trkpt lat="42.3753170" lon="-7.2727740">
        <ele>771.4</ele>
        <time>2014-10-01T16:43:56Z</time>
      </trkpt>
      <trkpt lat="42.3753340" lon="-7.2728190">
        <ele>771.7</ele>
        <time>2014-10-01T16:43:58Z</time>
      </trkpt>
      <trkpt lat="42.3753530" lon="-7.2728650">
        <ele>772.0</ele>
        <time>2014-10-01T16:44:00Z</time>
      </trkpt>
      <trkpt lat="42.3753720" lon="-7.2729090">
        <ele>772.3</ele>
        <time>2014-10-01T16:44:02Z</time>
      </trkpt>
      <trkpt lat="42.3753900" lon="-7.2729520">
        <ele>772.6</ele>
        <time>2014-10-01T16:44:04Z</time>
      </trkpt>
      <trkpt lat="42.3754090" lon="-7.2729900">
        <ele>772.9</ele>
        <time>2014-10-01T16:44:06Z</time>
      </trkpt>
      <trkpt lat="42.3754250" lon="-7.2730220">
        <ele>773.1</ele>
        <time>2014-10-01T16:44:08Z</time>
      </trkpt>
      <trkpt lat="42.3754440" lon="-7.2730550">
        <ele>773.4</ele>
        <time>2014-10-01T16:44:10Z</time>
      </trkpt>
      <trkpt lat="42.3754590" lon="-7.2730850">
        <ele>773.6</ele>
        <time>2014-10-01T16:44:12Z</time>
      </trkpt>
      <trkpt lat="42.3754820" lon="-7.2731200">
        <ele>773.9</ele>
        <time>2014-10-01T16:44:14Z</time>
      </trkpt>
      <trkpt lat="42.3755140" lon="-7.2731570">
        <ele>774.2</ele>
        <time>2014-10-01T16:44:16Z</time>
      </trkpt>
      <trkpt lat="42.3755490" lon="-7.2731960">
        <ele>774.6</ele>
        <time>2014-10-01T16:44:18Z</time>
      </trkpt>
      <trkpt lat="42.3755820" lon="-7.2732370">
        <ele>775.0</ele>
        <time>2014-10-01T16:44:20Z</time>
      </trkpt>
      <trkpt lat="42.3756130" lon="-7.2732700">
        <ele>775.3</ele>
        <time>2014-10-01T16:44:22Z</time>
      </trkpt>
      <trkpt lat="42.3756530" lon="-7.2733060">
        <ele>775.7</ele>
        <time>2014-10-01T16:44:24Z</time>
      </trkpt>
      <trkpt lat="42.3756950" lon="-7.2733420">
        <ele>776.4</ele>
        <time>2014-10-01T16:44:26Z</time>
      </trkpt>
      <trkpt lat="42.3757370" lon="-7.2733690">
        <ele>777.0</ele>
        <time>2014-10-01T16:44:28Z</time>
      </trkpt>
      <trkpt lat="42.3757790" lon="-7.2734030">
        <ele>777.6</ele>
        <time>2014-10-01T16:44:30Z</time>
      </trkpt>
      <trkpt lat="42.3758220" lon="-7.2734380">
        <ele>777.8</ele>
        <time>2014-10-01T16:44:32Z</time>
      </trkpt>
      <trkpt lat="42.3758620" lon="-7.2734690">
        <ele>777.8</ele>
        <time>2014-10-01T16:44:34Z</time>
      </trkpt>
      <trkpt lat="42.3759080" lon="-7.2735240">
        <ele>777.7</ele>
        <time>2014-10-01T16:44:36Z</time>
      </trkpt>
      <trkpt lat="42.3759370" lon="-7.2735550">
        <ele>777.6</ele>
        <time>2014-10-01T16:44:37Z</time>
      </trkpt>
      <trkpt lat="42.3759610" lon="-7.2735840">
        <ele>777.4</ele>
        <time>2014-10-01T16:44:38Z</time>
      </trkpt>
      <trkpt lat="42.3759870" lon="-7.2736200">
        <ele>777.3</ele>
        <time>2014-10-01T16:44:39Z</time>
      </trkpt>
      <trkpt lat="42.3760140" lon="-7.2736560">
        <ele>777.1</ele>
        <time>2014-10-01T16:44:40Z</time>
      </trkpt>
      <trkpt lat="42.3760380" lon="-7.2736930">
        <ele>776.9</ele>
        <time>2014-10-01T16:44:41Z</time>
      </trkpt>
      <trkpt lat="42.3760660" lon="-7.2737340">
        <ele>776.7</ele>
        <time>2014-10-01T16:44:42Z</time>
      </trkpt>
      <trkpt lat="42.3760940" lon="-7.2737750">
        <ele>776.6</ele>
        <time>2014-10-01T16:44:43Z</time>
      </trkpt>
      <trkpt lat="42.3761210" lon="-7.2738150">
        <ele>776.5</ele>
        <time>2014-10-01T16:44:44Z</time>
      </trkpt>
      <trkpt lat="42.3761500" lon="-7.2738550">
        <ele>776.4</ele>
        <time>2014-10-01T16:44:45Z</time>
      </trkpt>
      <trkpt lat="42.3761850" lon="-7.2738960">
        <ele>776.2</ele>
        <time>2014-10-01T16:44:46Z</time>
      </trkpt>
      <trkpt lat="42.3762180" lon="-7.2739350">
        <ele>776.1</ele>
        <time>2014-10-01T16:44:47Z</time>
      </trkpt>
      <trkpt lat="42.3762540" lon="-7.2739710">
        <ele>776.0</ele>
        <time>2014-10-01T16:44:48Z</time>
      </trkpt>
      <trkpt lat="42.3762900" lon="-7.2740070">
        <ele>775.9</ele>
        <time>2014-10-01T16:44:49Z</time>
      </trkpt>
      <trkpt lat="42.3763270" lon="-7.2740420">
        <ele>775.8</ele>
        <time>2014-10-01T16:44:50Z</time>
      </trkpt>
      <trkpt lat="42.3763640" lon="-7.2740750">
        <ele>775.8</ele>
        <time>2014-10-01T16:44:51Z</time>
      </trkpt>
      <trkpt lat="42.3764030" lon="-7.2741160">
        <ele>775.7</ele>
        <time>2014-10-01T16:44:52Z</time>
      </trkpt>
      <trkpt lat="42.3764350" lon="-7.2741490">
        <ele>775.7</ele>
        <time>2014-10-01T16:44:53Z</time>
      </trkpt>
      <trkpt lat="42.3764680" lon="-7.2741800">
        <ele>775.8</ele>
        <time>2014-10-01T16:44:54Z</time>
      </trkpt>
      <trkpt lat="42.3764940" lon="-7.2742060">
        <ele>776.0</ele>
        <time>2014-10-01T16:44:55Z</time>
      </trkpt>
      <trkpt lat="42.3765190" lon="-7.2742330">
        <ele>776.1</ele>
        <time>2014-10-01T16:44:56Z</time>
      </trkpt>
      <trkpt lat="42.3765460" lon="-7.2742660">
        <ele>776.4</ele>
        <time>2014-10-01T16:44:57Z</time>
      </trkpt>
      <trkpt lat="42.3765670" lon="-7.2742990">
        <ele>776.6</ele>
        <time>2014-10-01T16:44:58Z</time>
      </trkpt>
      <trkpt lat="42.3765900" lon="-7.2743340">
        <ele>776.9</ele>
        <time>2014-10-01T16:44:59Z</time>
      </trkpt>
      <trkpt lat="42.3766250" lon="-7.2743880">
        <ele>777.3</ele>
        <time>2014-10-01T16:45:01Z</time>
      </trkpt>
      <trkpt lat="42.3766520" lon="-7.2744450">
        <ele>777.8</ele>
        <time>2014-10-01T16:45:03Z</time>
      </trkpt>
      <trkpt lat="42.3766680" lon="-7.2745100">
        <ele>778.3</ele>
        <time>2014-10-01T16:45:05Z</time>
      </trkpt>
      <trkpt lat="42.3766790" lon="-7.2745750">
        <ele>778.7</ele>
        <time>2014-10-01T16:45:07Z</time>
      </trkpt>
      <trkpt lat="42.3766910" lon="-7.2746360">
        <ele>779.1</ele>
        <time>2014-10-01T16:45:09Z</time>
      </trkpt>
      <trkpt lat="42.3767030" lon="-7.2746960">
        <ele>779.5</ele>
        <time>2014-10-01T16:45:11Z</time>
      </trkpt>
      <trkpt lat="42.3767140" lon="-7.2747550">
        <ele>780.0</ele>
        <time>2014-10-01T16:45:13Z</time>
      </trkpt>
      <trkpt lat="42.3767230" lon="-7.2748130">
        <ele>780.4</ele>
        <time>2014-10-01T16:45:15Z</time>
      </trkpt>
      <trkpt lat="42.3767300" lon="-7.2748710">
        <ele>780.8</ele>
        <time>2014-10-01T16:45:17Z</time>
      </trkpt>
      <trkpt lat="42.3767370" lon="-7.2749240">
        <ele>781.3</ele>
        <time>2014-10-01T16:45:19Z</time>
      </trkpt>
      <trkpt lat="42.3767440" lon="-7.2749800">
        <ele>781.7</ele>
        <time>2014-10-01T16:45:21Z</time>
      </trkpt>
      <trkpt lat="42.3767530" lon="-7.2750340">
        <ele>782.1</ele>
        <time>2014-10-01T16:45:23Z</time>
      </trkpt>
      <trkpt lat="42.3767690" lon="-7.2750840">
        <ele>782.5</ele>
        <time>2014-10-01T16:45:25Z</time>
      </trkpt>
      <trkpt lat="42.3767800" lon="-7.2751310">
        <ele>782.9</ele>
        <time>2014-10-01T16:45:27Z</time>
      </trkpt>
      <trkpt lat="42.3767910" lon="-7.2751800">
        <ele>783.3</ele>
        <time>2014-10-01T16:45:29Z</time>
      </trkpt>
      <trkpt lat="42.3768030" lon="-7.2752330">
        <ele>783.7</ele>
        <time>2014-10-01T16:45:31Z</time>
      </trkpt>
      <trkpt lat="42.3768150" lon="-7.2752850">
        <ele>784.1</ele>
        <time>2014-10-01T16:45:33Z</time>
      </trkpt>
      <trkpt lat="42.3768320" lon="-7.2753390">
        <ele>784.5</ele>
        <time>2014-10-01T16:45:35Z</time>
      </trkpt>
      <trkpt lat="42.3768490" lon="-7.2753880">
        <ele>784.8</ele>
        <time>2014-10-01T16:45:37Z</time>
      </trkpt>
      <trkpt lat="42.3768720" lon="-7.2754290">
        <ele>785.0</ele>
        <time>2014-10-01T16:45:39Z</time>
      </trkpt>
      <trkpt lat="42.3769030" lon="-7.2754710">
        <ele>785.2</ele>
        <time>2014-10-01T16:45:41Z</time>
      </trkpt>
      <trkpt lat="42.3769370" lon="-7.2755080">
        <ele>785.4</ele>
        <time>2014-10-01T16:45:43Z</time>
      </trkpt>
      <trkpt lat="42.3769840" lon="-7.2755300">
        <ele>785.5</ele>
        <time>2014-10-01T16:45:45Z</time>
      </trkpt>
      <trkpt lat="42.3770370" lon="-7.2755420">
        <ele>785.8</ele>
        <time>2014-10-01T16:45:47Z</time>
      </trkpt>
      <trkpt lat="42.3770660" lon="-7.2755470">
        <ele>786.3</ele>
        <time>2014-10-01T16:45:48Z</time>
      </trkpt>
      <trkpt lat="42.3770980" lon="-7.2755490">
        <ele>786.7</ele>
        <time>2014-10-01T16:45:49Z</time>
      </trkpt>
      <trkpt lat="42.3771360" lon="-7.2755480">
        <ele>787.2</ele>
        <time>2014-10-01T16:45:50Z</time>
      </trkpt>
      <trkpt lat="42.3771700" lon="-7.2755460">
        <ele>787.7</ele>
        <time>2014-10-01T16:45:51Z</time>
      </trkpt>
      <trkpt lat="42.3772020" lon="-7.2755430">
        <ele>788.1</ele>
        <time>2014-10-01T16:45:52Z</time>
      </trkpt>
      <trkpt lat="42.3772340" lon="-7.2755430">
        <ele>788.5</ele>
        <time>2014-10-01T16:45:53Z</time>
      </trkpt>
      <trkpt lat="42.3772700" lon="-7.2755420">
        <ele>789.0</ele>
        <time>2014-10-01T16:45:54Z</time>
      </trkpt>
      <trkpt lat="42.3773100" lon="-7.2755420">
        <ele>789.5</ele>
        <time>2014-10-01T16:45:55Z</time>
      </trkpt>
      <trkpt lat="42.3773510" lon="-7.2755400">
        <ele>790.0</ele>
        <time>2014-10-01T16:45:56Z</time>
      </trkpt>
      <trkpt lat="42.3773880" lon="-7.2755390">
        <ele>790.6</ele>
        <time>2014-10-01T16:45:57Z</time>
      </trkpt>
      <trkpt lat="42.3774200" lon="-7.2755400">
        <ele>791.1</ele>
        <time>2014-10-01T16:45:58Z</time>
      </trkpt>
      <trkpt lat="42.3774550" lon="-7.2755420">
        <ele>791.6</ele>
        <time>2014-10-01T16:45:59Z</time>
      </trkpt>
      <trkpt lat="42.3774890" lon="-7.2755510">
        <ele>792.2</ele>
        <time>2014-10-01T16:46:00Z</time>
      </trkpt>
      <trkpt lat="42.3775270" lon="-7.2755540">
        <ele>792.8</ele>
        <time>2014-10-01T16:46:01Z</time>
      </trkpt>
      <trkpt lat="42.3775610" lon="-7.2755540">
        <ele>793.4</ele>
        <time>2014-10-01T16:46:02Z</time>
      </trkpt>
      <trkpt lat="42.3775950" lon="-7.2755530">
        <ele>793.9</ele>
        <time>2014-10-01T16:46:03Z</time>
      </trkpt>
      <trkpt lat="42.3776290" lon="-7.2755530">
        <ele>794.4</ele>
        <time>2014-10-01T16:46:04Z</time>
      </trkpt>
      <trkpt lat="42.3776570" lon="-7.2755540">
        <ele>794.8</ele>
        <time>2014-10-01T16:46:05Z</time>
      </trkpt>
      <trkpt lat="42.3776890" lon="-7.2755540">
        <ele>795.3</ele>
        <time>2014-10-01T16:46:06Z</time>
      </trkpt>
      <trkpt lat="42.3777200" lon="-7.2755550">
        <ele>795.7</ele>
        <time>2014-10-01T16:46:07Z</time>
      </trkpt>
      <trkpt lat="42.3777550" lon="-7.2755600">
        <ele>796.2</ele>
        <time>2014-10-01T16:46:08Z</time>
      </trkpt>
      <trkpt lat="42.3777940" lon="-7.2755660">
        <ele>796.8</ele>
        <time>2014-10-01T16:46:09Z</time>
      </trkpt>
      <trkpt lat="42.3778320" lon="-7.2755740">
        <ele>797.3</ele>
        <time>2014-10-01T16:46:10Z</time>
      </trkpt>
      <trkpt lat="42.3778720" lon="-7.2755870">
        <ele>797.9</ele>
        <time>2014-10-01T16:46:11Z</time>
      </trkpt>
      <trkpt lat="42.3779110" lon="-7.2756040">
        <ele>798.5</ele>
        <time>2014-10-01T16:46:12Z</time>
      </trkpt>
      <trkpt lat="42.3779470" lon="-7.2756200">
        <ele>799.1</ele>
        <time>2014-10-01T16:46:13Z</time>
      </trkpt>
      <trkpt lat="42.3779790" lon="-7.2756370">
        <ele>799.6</ele>
        <time>2014-10-01T16:46:14Z</time>
      </trkpt>
      <trkpt lat="42.3780140" lon="-7.2756500">
        <ele>800.1</ele>
        <time>2014-10-01T16:46:15Z</time>
      </trkpt>
      <trkpt lat="42.3780420" lon="-7.2756690">
        <ele>800.6</ele>
        <time>2014-10-01T16:46:16Z</time>
      </trkpt>
      <trkpt lat="42.3780730" lon="-7.2756860">
        <ele>801.1</ele>
        <time>2014-10-01T16:46:17Z</time>
      </trkpt>
      <trkpt lat="42.3781030" lon="-7.2757060">
        <ele>801.7</ele>
        <time>2014-10-01T16:46:18Z</time>
      </trkpt>
      <trkpt lat="42.3781320" lon="-7.2757210">
        <ele>802.3</ele>
        <time>2014-10-01T16:46:19Z</time>
      </trkpt>
      <trkpt lat="42.3781700" lon="-7.2757380">
        <ele>803.0</ele>
        <time>2014-10-01T16:46:20Z</time>
      </trkpt>
      <trkpt lat="42.3782080" lon="-7.2757560">
        <ele>803.8</ele>
        <time>2014-10-01T16:46:21Z</time>
      </trkpt>
      <trkpt lat="42.3782400" lon="-7.2757750">
        <ele>804.5</ele>
        <time>2014-10-01T16:46:22Z</time>
      </trkpt>
      <trkpt lat="42.3782860" lon="-7.2758040">
        <ele>805.5</ele>
        <time>2014-10-01T16:46:24Z</time>
      </trkpt>
      <trkpt lat="42.3783350" lon="-7.2758350">
        <ele>806.5</ele>
        <time>2014-10-01T16:46:26Z</time>
      </trkpt>
      <trkpt lat="42.3783600" lon="-7.2758540">
        <ele>807.1</ele>
        <time>2014-10-01T16:46:27Z</time>
      </trkpt>
      <trkpt lat="42.3783960" lon="-7.2759010">
        <ele>808.1</ele>
        <time>2014-10-01T16:46:29Z</time>
      </trkpt>
      <trkpt lat="42.3784390" lon="-7.2759370">
        <ele>809.1</ele>
        <time>2014-10-01T16:46:31Z</time>
      </trkpt>
      <trkpt lat="42.3784700" lon="-7.2759750">
        <ele>809.9</ele>
        <time>2014-10-01T16:46:33Z</time>
      </trkpt>
      <trkpt lat="42.3785030" lon="-7.2760140">
        <ele>810.8</ele>
        <time>2014-10-01T16:46:35Z</time>
      </trkpt>
      <trkpt lat="42.3785350" lon="-7.2760490">
        <ele>811.5</ele>
        <time>2014-10-01T16:46:37Z</time>
      </trkpt>
      <trkpt lat="42.3785700" lon="-7.2760770">
        <ele>812.2</ele>
        <time>2014-10-01T16:46:39Z</time>
      </trkpt>
      <trkpt lat="42.3786020" lon="-7.2761100">
        <ele>812.7</ele>
        <time>2014-10-01T16:46:41Z</time>
      </trkpt>
      <trkpt lat="42.3786420" lon="-7.2761590">
        <ele>813.1</ele>
        <time>2014-10-01T16:46:43Z</time>
      </trkpt>
      <trkpt lat="42.3786600" lon="-7.2761900">
        <ele>813.1</ele>
        <time>2014-10-01T16:46:44Z</time>
      </trkpt>
      <trkpt lat="42.3786750" lon="-7.2762280">
        <ele>813.2</ele>
        <time>2014-10-01T16:46:45Z</time>
      </trkpt>
      <trkpt lat="42.3786860" lon="-7.2762700">
        <ele>813.1</ele>
        <time>2014-10-01T16:46:46Z</time>
      </trkpt>
      <trkpt lat="42.3786990" lon="-7.2763190">
        <ele>813.1</ele>
        <time>2014-10-01T16:46:47Z</time>
      </trkpt>
      <trkpt lat="42.3787060" lon="-7.2763560">
        <ele>813.1</ele>
        <time>2014-10-01T16:46:48Z</time>
      </trkpt>
      <trkpt lat="42.3787100" lon="-7.2763980">
        <ele>813.0</ele>
        <time>2014-10-01T16:46:49Z</time>
      </trkpt>
      <trkpt lat="42.3787070" lon="-7.2764380">
        <ele>813.0</ele>
        <time>2014-10-01T16:46:50Z</time>
      </trkpt>
      <trkpt lat="42.3786980" lon="-7.2764760">
        <ele>812.9</ele>
        <time>2014-10-01T16:46:51Z</time>
      </trkpt>
      <trkpt lat="42.3786940" lon="-7.2765130">
        <ele>812.9</ele>
        <time>2014-10-01T16:46:52Z</time>
      </trkpt>
      <trkpt lat="42.3786920" lon="-7.2765500">
        <ele>812.8</ele>
        <time>2014-10-01T16:46:53Z</time>
      </trkpt>
      <trkpt lat="42.3786900" lon="-7.2766300">
        <ele>812.6</ele>
        <time>2014-10-01T16:46:55Z</time>
      </trkpt>
      <trkpt lat="42.3786910" lon="-7.2766770">
        <ele>812.4</ele>
        <time>2014-10-01T16:46:56Z</time>
      </trkpt>
      <trkpt lat="42.3786920" lon="-7.2767200">
        <ele>812.2</ele>
        <time>2014-10-01T16:46:57Z</time>
      </trkpt>
      <trkpt lat="42.3786910" lon="-7.2767620">
        <ele>812.3</ele>
        <time>2014-10-01T16:46:58Z</time>
      </trkpt>
      <trkpt lat="42.3786920" lon="-7.2768040">
        <ele>812.6</ele>
        <time>2014-10-01T16:46:59Z</time>
      </trkpt>
      <trkpt lat="42.3786900" lon="-7.2768430">
        <ele>812.8</ele>
        <time>2014-10-01T16:47:00Z</time>
      </trkpt>
      <trkpt lat="42.3786850" lon="-7.2768850">
        <ele>813.1</ele>
        <time>2014-10-01T16:47:01Z</time>
      </trkpt>
      <trkpt lat="42.3786820" lon="-7.2769310">
        <ele>813.4</ele>
        <time>2014-10-01T16:47:02Z</time>
      </trkpt>
      <trkpt lat="42.3786740" lon="-7.2769790">
        <ele>813.8</ele>
        <time>2014-10-01T16:47:03Z</time>
      </trkpt>
      <trkpt lat="42.3786660" lon="-7.2770270">
        <ele>814.2</ele>
        <time>2014-10-01T16:47:04Z</time>
      </trkpt>
      <trkpt lat="42.3786580" lon="-7.2770730">
        <ele>814.6</ele>
        <time>2014-10-01T16:47:05Z</time>
      </trkpt>
      <trkpt lat="42.3786510" lon="-7.2771300">
        <ele>815.0</ele>
        <time>2014-10-01T16:47:06Z</time>
      </trkpt>
      <trkpt lat="42.3786480" lon="-7.2771860">
        <ele>815.3</ele>
        <time>2014-10-01T16:47:07Z</time>
      </trkpt>
      <trkpt lat="42.3786450" lon="-7.2772410">
        <ele>815.7</ele>
        <time>2014-10-01T16:47:08Z</time>
      </trkpt>
      <trkpt lat="42.3786450" lon="-7.2772920">
        <ele>816.0</ele>
        <time>2014-10-01T16:47:09Z</time>
      </trkpt>
      <trkpt lat="42.3786450" lon="-7.2773460">
        <ele>816.3</ele>
        <time>2014-10-01T16:47:10Z</time>
      </trkpt>
      <trkpt lat="42.3786480" lon="-7.2773970">
        <ele>816.6</ele>
        <time>2014-10-01T16:47:11Z</time>
      </trkpt>
      <trkpt lat="42.3786530" lon="-7.2774520">
        <ele>817.0</ele>
        <time>2014-10-01T16:47:12Z</time>
      </trkpt>
      <trkpt lat="42.3786630" lon="-7.2775050">
        <ele>817.3</ele>
        <time>2014-10-01T16:47:13Z</time>
      </trkpt>
      <trkpt lat="42.3786760" lon="-7.2775590">
        <ele>817.7</ele>
        <time>2014-10-01T16:47:14Z</time>
      </trkpt>
      <trkpt lat="42.3786940" lon="-7.2776260">
        <ele>818.2</ele>
        <time>2014-10-01T16:47:15Z</time>
      </trkpt>
      <trkpt lat="42.3787150" lon="-7.2776910">
        <ele>818.8</ele>
        <time>2014-10-01T16:47:16Z</time>
      </trkpt>
      <trkpt lat="42.3787400" lon="-7.2777500">
        <ele>819.3</ele>
        <time>2014-10-01T16:47:17Z</time>
      </trkpt>
      <trkpt lat="42.3787660" lon="-7.2778060">
        <ele>819.8</ele>
        <time>2014-10-01T16:47:18Z</time>
      </trkpt>
      <trkpt lat="42.3787940" lon="-7.2778620">
        <ele>820.4</ele>
        <time>2014-10-01T16:47:19Z</time>
      </trkpt>
      <trkpt lat="42.3788190" lon="-7.2779080">
        <ele>820.9</ele>
        <time>2014-10-01T16:47:20Z</time>
      </trkpt>
      <trkpt lat="42.3788460" lon="-7.2779380">
        <ele>821.3</ele>
        <time>2014-10-01T16:47:21Z</time>
      </trkpt>
      <trkpt lat="42.3788720" lon="-7.2779620">
        <ele>821.7</ele>
        <time>2014-10-01T16:47:22Z</time>
      </trkpt>
      <trkpt lat="42.3788950" lon="-7.2779840">
        <ele>822.1</ele>
        <time>2014-10-01T16:47:23Z</time>
      </trkpt>
      <trkpt lat="42.3789370" lon="-7.2780150">
        <ele>822.8</ele>
        <time>2014-10-01T16:47:25Z</time>
      </trkpt>
      <trkpt lat="42.3789790" lon="-7.2780360">
        <ele>823.4</ele>
        <time>2014-10-01T16:47:27Z</time>
      </trkpt>
      <trkpt lat="42.3790170" lon="-7.2780470">
        <ele>824.0</ele>
        <time>2014-10-01T16:47:29Z</time>
      </trkpt>
      <trkpt lat="42.3790600" lon="-7.2780580">
        <ele>824.6</ele>
        <time>2014-10-01T16:47:31Z</time>
      </trkpt>
      <trkpt lat="42.3791060" lon="-7.2780630">
        <ele>825.3</ele>
        <time>2014-10-01T16:47:33Z</time>
      </trkpt>
      <trkpt lat="42.3791330" lon="-7.2780620">
        <ele>825.6</ele>
        <time>2014-10-01T16:47:34Z</time>
      </trkpt>
      <trkpt lat="42.3791640" lon="-7.2780640">
        <ele>826.1</ele>
        <time>2014-10-01T16:47:35Z</time>
      </trkpt>
      <trkpt lat="42.3791910" lon="-7.2780640">
        <ele>826.4</ele>
        <time>2014-10-01T16:47:36Z</time>
      </trkpt>
      <trkpt lat="42.3792200" lon="-7.2780630">
        <ele>826.8</ele>
        <time>2014-10-01T16:47:37Z</time>
      </trkpt>
      <trkpt lat="42.3792490" lon="-7.2780620">
        <ele>827.2</ele>
        <time>2014-10-01T16:47:38Z</time>
      </trkpt>
      <trkpt lat="42.3792780" lon="-7.2780580">
        <ele>827.6</ele>
        <time>2014-10-01T16:47:39Z</time>
      </trkpt>
      <trkpt lat="42.3793050" lon="-7.2780520">
        <ele>827.9</ele>
        <time>2014-10-01T16:47:40Z</time>
      </trkpt>
      <trkpt lat="42.3793560" lon="-7.2780290">
        <ele>828.5</ele>
        <time>2014-10-01T16:47:42Z</time>
      </trkpt>
      <trkpt lat="42.3793830" lon="-7.2780160">
        <ele>828.9</ele>
        <time>2014-10-01T16:47:43Z</time>
      </trkpt>
      <trkpt lat="42.3794100" lon="-7.2780030">
        <ele>829.2</ele>
        <time>2014-10-01T16:47:44Z</time>
      </trkpt>
      <trkpt lat="42.3794350" lon="-7.2779870">
        <ele>829.5</ele>
        <time>2014-10-01T16:47:45Z</time>
      </trkpt>
      <trkpt lat="42.3794590" lon="-7.2779690">
        <ele>829.9</ele>
        <time>2014-10-01T16:47:46Z</time>
      </trkpt>
      <trkpt lat="42.3794830" lon="-7.2779500">
        <ele>830.2</ele>
        <time>2014-10-01T16:47:47Z</time>
      </trkpt>
      <trkpt lat="42.3795310" lon="-7.2779210">
        <ele>830.9</ele>
        <time>2014-10-01T16:47:49Z</time>
      </trkpt>
      <trkpt lat="42.3795540" lon="-7.2779010">
        <ele>831.2</ele>
        <time>2014-10-01T16:47:50Z</time>
      </trkpt>
      <trkpt lat="42.3795970" lon="-7.2778630">
        <ele>831.9</ele>
        <time>2014-10-01T16:47:52Z</time>
      </trkpt>
      <trkpt lat="42.3796380" lon="-7.2778230">
        <ele>832.7</ele>
        <time>2014-10-01T16:47:54Z</time>
      </trkpt>
      <trkpt lat="42.3796570" lon="-7.2777950">
        <ele>833.1</ele>
        <time>2014-10-01T16:47:55Z</time>
      </trkpt>
      <trkpt lat="42.3796750" lon="-7.2777660">
        <ele>833.5</ele>
        <time>2014-10-01T16:47:56Z</time>
      </trkpt>
      <trkpt lat="42.3797100" lon="-7.2777160">
        <ele>834.2</ele>
        <time>2014-10-01T16:47:58Z</time>
      </trkpt>
      <trkpt lat="42.3797440" lon="-7.2776650">
        <ele>834.8</ele>
        <time>2014-10-01T16:48:00Z</time>
      </trkpt>
      <trkpt lat="42.3797790" lon="-7.2776170">
        <ele>835.2</ele>
        <time>2014-10-01T16:48:02Z</time>
      </trkpt>
      <trkpt lat="42.3798160" lon="-7.2775660">
        <ele>835.3</ele>
        <time>2014-10-01T16:48:04Z</time>
      </trkpt>
      <trkpt lat="42.3798340" lon="-7.2775390">
        <ele>835.3</ele>
        <time>2014-10-01T16:48:05Z</time>
      </trkpt>
      <trkpt lat="42.3798740" lon="-7.2774910">
        <ele>835.1</ele>
        <time>2014-10-01T16:48:07Z</time>
      </trkpt>
      <trkpt lat="42.3798950" lon="-7.2774660">
        <ele>835.2</ele>
        <time>2014-10-01T16:48:08Z</time>
      </trkpt>
      <trkpt lat="42.3799160" lon="-7.2774420">
        <ele>835.3</ele>
        <time>2014-10-01T16:48:09Z</time>
      </trkpt>
      <trkpt lat="42.3799420" lon="-7.2774250">
        <ele>835.4</ele>
        <time>2014-10-01T16:48:10Z</time>
      </trkpt>
      <trkpt lat="42.3799690" lon="-7.2774110">
        <ele>835.6</ele>
        <time>2014-10-01T16:48:11Z</time>
      </trkpt>
      <trkpt lat="42.3799950" lon="-7.2773970">
        <ele>835.7</ele>
        <time>2014-10-01T16:48:12Z</time>
      </trkpt>
      <trkpt lat="42.3800510" lon="-7.2773840">
        <ele>836.0</ele>
        <time>2014-10-01T16:48:14Z</time>
      </trkpt>
      <trkpt lat="42.3800800" lon="-7.2773780">
        <ele>836.2</ele>
        <time>2014-10-01T16:48:15Z</time>
      </trkpt>
      <trkpt lat="42.3801120" lon="-7.2773740">
        <ele>836.3</ele>
        <time>2014-10-01T16:48:16Z</time>
      </trkpt>
      <trkpt lat="42.3801450" lon="-7.2773730">
        <ele>836.4</ele>
        <time>2014-10-01T16:48:17Z</time>
      </trkpt>
      <trkpt lat="42.3801800" lon="-7.2773810">
        <ele>836.6</ele>
        <time>2014-10-01T16:48:18Z</time>
      </trkpt>
      <trkpt lat="42.3802130" lon="-7.2773870">
        <ele>836.8</ele>
        <time>2014-10-01T16:48:19Z</time>
      </trkpt>
      <trkpt lat="42.3802430" lon="-7.2773950">
        <ele>837.0</ele>
        <time>2014-10-01T16:48:20Z</time>
      </trkpt>
      <trkpt lat="42.3802740" lon="-7.2774010">
        <ele>837.2</ele>
        <time>2014-10-01T16:48:21Z</time>
      </trkpt>
      <trkpt lat="42.3803050" lon="-7.2774100">
        <ele>837.3</ele>
        <time>2014-10-01T16:48:22Z</time>
      </trkpt>
      <trkpt lat="42.3803370" lon="-7.2774180">
        <ele>837.5</ele>
        <time>2014-10-01T16:48:23Z</time>
      </trkpt>
      <trkpt lat="42.3803710" lon="-7.2774270">
        <ele>837.6</ele>
        <time>2014-10-01T16:48:24Z</time>
      </trkpt>
      <trkpt lat="42.3804000" lon="-7.2774390">
        <ele>837.7</ele>
        <time>2014-10-01T16:48:25Z</time>
      </trkpt>
      <trkpt lat="42.3804340" lon="-7.2774570">
        <ele>837.8</ele>
        <time>2014-10-01T16:48:26Z</time>
      </trkpt>
      <trkpt lat="42.3804620" lon="-7.2774730">
        <ele>837.9</ele>
        <time>2014-10-01T16:48:27Z</time>
      </trkpt>
      <trkpt lat="42.3804870" lon="-7.2774910">
        <ele>837.9</ele>
        <time>2014-10-01T16:48:28Z</time>
      </trkpt>
      <trkpt lat="42.3805200" lon="-7.2775030">
        <ele>838.0</ele>
        <time>2014-10-01T16:48:29Z</time>
      </trkpt>
      <trkpt lat="42.3805520" lon="-7.2775340">
        <ele>838.2</ele>
        <time>2014-10-01T16:48:30Z</time>
      </trkpt>
      <trkpt lat="42.3805890" lon="-7.2775690">
        <ele>838.4</ele>
        <time>2014-10-01T16:48:31Z</time>
      </trkpt>
      <trkpt lat="42.3806230" lon="-7.2776110">
        <ele>838.6</ele>
        <time>2014-10-01T16:48:32Z</time>
      </trkpt>
      <trkpt lat="42.3806490" lon="-7.2776540">
        <ele>838.8</ele>
        <time>2014-10-01T16:48:33Z</time>
      </trkpt>
      <trkpt lat="42.3806750" lon="-7.2777060">
        <ele>839.0</ele>
        <time>2014-10-01T16:48:34Z</time>
      </trkpt>
      <trkpt lat="42.3806920" lon="-7.2777690">
        <ele>839.2</ele>
        <time>2014-10-01T16:48:35Z</time>
      </trkpt>
      <trkpt lat="42.3806980" lon="-7.2778260">
        <ele>839.4</ele>
        <time>2014-10-01T16:48:36Z</time>
      </trkpt>
      <trkpt lat="42.3806960" lon="-7.2778720">
        <ele>839.6</ele>
        <time>2014-10-01T16:48:37Z</time>
      </trkpt>
      <trkpt lat="42.3806900" lon="-7.2779180">
        <ele>839.9</ele>
        <time>2014-10-01T16:48:38Z</time>
      </trkpt>
      <trkpt lat="42.3806810" lon="-7.2779710">
        <ele>840.1</ele>
        <time>2014-10-01T16:48:39Z</time>
      </trkpt>
      <trkpt lat="42.3806700" lon="-7.2780190">
        <ele>840.4</ele>
        <time>2014-10-01T16:48:40Z</time>
      </trkpt>
      <trkpt lat="42.3806610" lon="-7.2780580">
        <ele>840.7</ele>
        <time>2014-10-01T16:48:41Z</time>
      </trkpt>
      <trkpt lat="42.3806430" lon="-7.2781200">
        <ele>841.2</ele>
        <time>2014-10-01T16:48:43Z</time>
      </trkpt>
      <trkpt lat="42.3806210" lon="-7.2781800">
        <ele>841.7</ele>
        <time>2014-10-01T16:48:45Z</time>
      </trkpt>
      <trkpt lat="42.3806010" lon="-7.2782350">
        <ele>842.2</ele>
        <time>2014-10-01T16:48:47Z</time>
      </trkpt>
      <trkpt lat="42.3805840" lon="-7.2782870">
        <ele>842.7</ele>
        <time>2014-10-01T16:48:49Z</time>
      </trkpt>
      <trkpt lat="42.3805660" lon="-7.2783360">
        <ele>843.2</ele>
        <time>2014-10-01T16:48:51Z</time>
      </trkpt>
      <trkpt lat="42.3805500" lon="-7.2783840">
        <ele>843.7</ele>
        <time>2014-10-01T16:48:53Z</time>
      </trkpt>
      <trkpt lat="42.3805340" lon="-7.2784350">
        <ele>844.2</ele>
        <time>2014-10-01T16:48:55Z</time>
      </trkpt>
      <trkpt lat="42.3805200" lon="-7.2784840">
        <ele>844.7</ele>
        <time>2014-10-01T16:48:57Z</time>
      </trkpt>
      <trkpt lat="42.3805090" lon="-7.2785350">
        <ele>845.2</ele>
        <time>2014-10-01T16:48:59Z</time>
      </trkpt>
      <trkpt lat="42.3804970" lon="-7.2785850">
        <ele>845.6</ele>
        <time>2014-10-01T16:49:01Z</time>
      </trkpt>
      <trkpt lat="42.3804850" lon="-7.2786320">
        <ele>846.1</ele>
        <time>2014-10-01T16:49:03Z</time>
      </trkpt>
      <trkpt lat="42.3804760" lon="-7.2786810">
        <ele>846.6</ele>
        <time>2014-10-01T16:49:05Z</time>
      </trkpt>
      <trkpt lat="42.3804670" lon="-7.2787260">
        <ele>847.0</ele>
        <time>2014-10-01T16:49:07Z</time>
      </trkpt>
      <trkpt lat="42.3804530" lon="-7.2787740">
        <ele>847.6</ele>
        <time>2014-10-01T16:49:09Z</time>
      </trkpt>
      <trkpt lat="42.3804400" lon="-7.2788200">
        <ele>848.1</ele>
        <time>2014-10-01T16:49:11Z</time>
      </trkpt>
      <trkpt lat="42.3804240" lon="-7.2788810">
        <ele>848.8</ele>
        <time>2014-10-01T16:49:13Z</time>
      </trkpt>
      <trkpt lat="42.3804070" lon="-7.2789430">
        <ele>849.6</ele>
        <time>2014-10-01T16:49:15Z</time>
      </trkpt>
      <trkpt lat="42.3803930" lon="-7.2789950">
        <ele>850.2</ele>
        <time>2014-10-01T16:49:17Z</time>
      </trkpt>
      <trkpt lat="42.3803830" lon="-7.2790450">
        <ele>850.8</ele>
        <time>2014-10-01T16:49:19Z</time>
      </trkpt>
      <trkpt lat="42.3803690" lon="-7.2790940">
        <ele>851.4</ele>
        <time>2014-10-01T16:49:21Z</time>
      </trkpt>
      <trkpt lat="42.3803550" lon="-7.2791440">
        <ele>852.0</ele>
        <time>2014-10-01T16:49:23Z</time>
      </trkpt>
      <trkpt lat="42.3803470" lon="-7.2791960">
        <ele>852.6</ele>
        <time>2014-10-01T16:49:25Z</time>
      </trkpt>
      <trkpt lat="42.3803440" lon="-7.2792440">
        <ele>853.1</ele>
        <time>2014-10-01T16:49:27Z</time>
      </trkpt>
      <trkpt lat="42.3803390" lon="-7.2792900">
        <ele>853.7</ele>
        <time>2014-10-01T16:49:29Z</time>
      </trkpt>
      <trkpt lat="42.3803300" lon="-7.2793360">
        <ele>854.3</ele>
        <time>2014-10-01T16:49:31Z</time>
      </trkpt>
      <trkpt lat="42.3803210" lon="-7.2793790">
        <ele>854.9</ele>
        <time>2014-10-01T16:49:33Z</time>
      </trkpt>
      <trkpt lat="42.3803230" lon="-7.2794210">
        <ele>855.5</ele>
        <time>2014-10-01T16:49:35Z</time>
      </trkpt>
      <trkpt lat="42.3803250" lon="-7.2794630">
        <ele>856.0</ele>
        <time>2014-10-01T16:49:37Z</time>
      </trkpt>
      <trkpt lat="42.3803190" lon="-7.2795050">
        <ele>856.6</ele>
        <time>2014-10-01T16:49:39Z</time>
      </trkpt>
      <trkpt lat="42.3803140" lon="-7.2795490">
        <ele>857.3</ele>
        <time>2014-10-01T16:49:41Z</time>
      </trkpt>
      <trkpt lat="42.3803170" lon="-7.2795920">
        <ele>857.9</ele>
        <time>2014-10-01T16:49:43Z</time>
      </trkpt>
      <trkpt lat="42.3803190" lon="-7.2796340">
        <ele>858.5</ele>
        <time>2014-10-01T16:49:45Z</time>
      </trkpt>
      <trkpt lat="42.3803240" lon="-7.2796760">
        <ele>859.1</ele>
        <time>2014-10-01T16:49:47Z</time>
      </trkpt>
      <trkpt lat="42.3803270" lon="-7.2797200">
        <ele>859.7</ele>
        <time>2014-10-01T16:49:49Z</time>
      </trkpt>
      <trkpt lat="42.3803360" lon="-7.2797620">
        <ele>860.2</ele>
        <time>2014-10-01T16:49:51Z</time>
      </trkpt>
      <trkpt lat="42.3803450" lon="-7.2798030">
        <ele>860.7</ele>
        <time>2014-10-01T16:49:53Z</time>
      </trkpt>
      <trkpt lat="42.3803520" lon="-7.2798440">
        <ele>861.2</ele>
        <time>2014-10-01T16:49:55Z</time>
      </trkpt>
      <trkpt lat="42.3803580" lon="-7.2798900">
        <ele>861.8</ele>
        <time>2014-10-01T16:49:57Z</time>
      </trkpt>
      <trkpt lat="42.3803580" lon="-7.2799340">
        <ele>862.4</ele>
        <time>2014-10-01T16:49:59Z</time>
      </trkpt>
      <trkpt lat="42.3803630" lon="-7.2799760">
        <ele>862.9</ele>
        <time>2014-10-01T16:50:01Z</time>
      </trkpt>
      <trkpt lat="42.3803700" lon="-7.2800190">
        <ele>863.5</ele>
        <time>2014-10-01T16:50:03Z</time>
      </trkpt>
      <trkpt lat="42.3803780" lon="-7.2800620">
        <ele>864.0</ele>
        <time>2014-10-01T16:50:05Z</time>
      </trkpt>
      <trkpt lat="42.3803860" lon="-7.2801060">
        <ele>864.5</ele>
        <time>2014-10-01T16:50:07Z</time>
      </trkpt>
      <trkpt lat="42.3803920" lon="-7.2801540">
        <ele>865.0</ele>
        <time>2014-10-01T16:50:09Z</time>
      </trkpt>
      <trkpt lat="42.3804000" lon="-7.2802000">
        <ele>865.5</ele>
        <time>2014-10-01T16:50:11Z</time>
      </trkpt>
      <trkpt lat="42.3804130" lon="-7.2802420">
        <ele>866.0</ele>
        <time>2014-10-01T16:50:13Z</time>
      </trkpt>
      <trkpt lat="42.3804250" lon="-7.2802900">
        <ele>866.5</ele>
        <time>2014-10-01T16:50:15Z</time>
      </trkpt>
      <trkpt lat="42.3804390" lon="-7.2803370">
        <ele>867.0</ele>
        <time>2014-10-01T16:50:17Z</time>
      </trkpt>
      <trkpt lat="42.3804470" lon="-7.2803830">
        <ele>867.5</ele>
        <time>2014-10-01T16:50:19Z</time>
      </trkpt>
      <trkpt lat="42.3804540" lon="-7.2804280">
        <ele>867.9</ele>
        <time>2014-10-01T16:50:21Z</time>
      </trkpt>
      <trkpt lat="42.3804600" lon="-7.2804770">
        <ele>868.4</ele>
        <time>2014-10-01T16:50:23Z</time>
      </trkpt>
      <trkpt lat="42.3804660" lon="-7.2805270">
        <ele>868.9</ele>
        <time>2014-10-01T16:50:25Z</time>
      </trkpt>
      <trkpt lat="42.3804720" lon="-7.2805740">
        <ele>869.4</ele>
        <time>2014-10-01T16:50:27Z</time>
      </trkpt>
      <trkpt lat="42.3804790" lon="-7.2806260">
        <ele>870.0</ele>
        <time>2014-10-01T16:50:29Z</time>
      </trkpt>
      <trkpt lat="42.3804870" lon="-7.2806780">
        <ele>870.5</ele>
        <time>2014-10-01T16:50:31Z</time>
      </trkpt>
      <trkpt lat="42.3805010" lon="-7.2807320">
        <ele>871.1</ele>
        <time>2014-10-01T16:50:33Z</time>
      </trkpt>
      <trkpt lat="42.3805100" lon="-7.2807830">
        <ele>871.6</ele>
        <time>2014-10-01T16:50:35Z</time>
      </trkpt>
      <trkpt lat="42.3805190" lon="-7.2808330">
        <ele>872.0</ele>
        <time>2014-10-01T16:50:37Z</time>
      </trkpt>
      <trkpt lat="42.3805280" lon="-7.2808830">
        <ele>872.5</ele>
        <time>2014-10-01T16:50:39Z</time>
      </trkpt>
      <trkpt lat="42.3805350" lon="-7.2809350">
        <ele>872.9</ele>
        <time>2014-10-01T16:50:41Z</time>
      </trkpt>
      <trkpt lat="42.3805430" lon="-7.2809900">
        <ele>873.4</ele>
        <time>2014-10-01T16:50:43Z</time>
      </trkpt>
      <trkpt lat="42.3805510" lon="-7.2810430">
        <ele>873.8</ele>
        <time>2014-10-01T16:50:45Z</time>
      </trkpt>
      <trkpt lat="42.3805570" lon="-7.2810980">
        <ele>874.2</ele>
        <time>2014-10-01T16:50:47Z</time>
      </trkpt>
      <trkpt lat="42.3805620" lon="-7.2811620">
        <ele>874.6</ele>
        <time>2014-10-01T16:50:49Z</time>
      </trkpt>
      <trkpt lat="42.3805640" lon="-7.2812030">
        <ele>874.8</ele>
        <time>2014-10-01T16:50:50Z</time>
      </trkpt>
      <trkpt lat="42.3805690" lon="-7.2812410">
        <ele>875.0</ele>
        <time>2014-10-01T16:50:51Z</time>
      </trkpt>
      <trkpt lat="42.3805790" lon="-7.2813050">
        <ele>875.3</ele>
        <time>2014-10-01T16:50:53Z</time>
      </trkpt>
      <trkpt lat="42.3805820" lon="-7.2813410">
        <ele>875.4</ele>
        <time>2014-10-01T16:50:54Z</time>
      </trkpt>
      <trkpt lat="42.3805880" lon="-7.2814140">
        <ele>875.6</ele>
        <time>2014-10-01T16:50:56Z</time>
      </trkpt>
      <trkpt lat="42.3805910" lon="-7.2814600">
        <ele>875.8</ele>
        <time>2014-10-01T16:50:57Z</time>
      </trkpt>
      <trkpt lat="42.3805950" lon="-7.2815070">
        <ele>875.9</ele>
        <time>2014-10-01T16:50:58Z</time>
      </trkpt>
      <trkpt lat="42.3805980" lon="-7.2815470">
        <ele>875.9</ele>
        <time>2014-10-01T16:50:59Z</time>
      </trkpt>
      <trkpt lat="42.3806020" lon="-7.2815970">
        <ele>876.0</ele>
        <time>2014-10-01T16:51:00Z</time>
      </trkpt>
      <trkpt lat="42.3806040" lon="-7.2816490">
        <ele>876.0</ele>
        <time>2014-10-01T16:51:01Z</time>
      </trkpt>
      <trkpt lat="42.3806060" lon="-7.2817060">
        <ele>876.0</ele>
        <time>2014-10-01T16:51:02Z</time>
      </trkpt>
      <trkpt lat="42.3806010" lon="-7.2817640">
        <ele>876.0</ele>
        <time>2014-10-01T16:51:03Z</time>
      </trkpt>
      <trkpt lat="42.3805870" lon="-7.2818200">
        <ele>876.0</ele>
        <time>2014-10-01T16:51:04Z</time>
      </trkpt>
      <trkpt lat="42.3805600" lon="-7.2818730">
        <ele>876.0</ele>
        <time>2014-10-01T16:51:05Z</time>
      </trkpt>
      <trkpt lat="42.3805210" lon="-7.2819170">
        <ele>876.0</ele>
        <time>2014-10-01T16:51:06Z</time>
      </trkpt>
      <trkpt lat="42.3804810" lon="-7.2819500">
        <ele>876.1</ele>
        <time>2014-10-01T16:51:07Z</time>
      </trkpt>
      <trkpt lat="42.3804410" lon="-7.2819750">
        <ele>876.1</ele>
        <time>2014-10-01T16:51:08Z</time>
      </trkpt>
      <trkpt lat="42.3803990" lon="-7.2819930">
        <ele>876.2</ele>
        <time>2014-10-01T16:51:09Z</time>
      </trkpt>
      <trkpt lat="42.3803610" lon="-7.2820080">
        <ele>876.4</ele>
        <time>2014-10-01T16:51:10Z</time>
      </trkpt>
      <trkpt lat="42.3803170" lon="-7.2820290">
        <ele>876.6</ele>
        <time>2014-10-01T16:51:11Z</time>
      </trkpt>
      <trkpt lat="42.3802680" lon="-7.2820510">
        <ele>876.8</ele>
        <time>2014-10-01T16:51:12Z</time>
      </trkpt>
      <trkpt lat="42.3802180" lon="-7.2820750">
        <ele>877.0</ele>
        <time>2014-10-01T16:51:13Z</time>
      </trkpt>
      <trkpt lat="42.3801740" lon="-7.2821000">
        <ele>877.2</ele>
        <time>2014-10-01T16:51:14Z</time>
      </trkpt>
      <trkpt lat="42.3801330" lon="-7.2821240">
        <ele>877.3</ele>
        <time>2014-10-01T16:51:15Z</time>
      </trkpt>
      <trkpt lat="42.3801010" lon="-7.2821440">
        <ele>877.5</ele>
        <time>2014-10-01T16:51:16Z</time>
      </trkpt>
      <trkpt lat="42.3800680" lon="-7.2821630">
        <ele>877.7</ele>
        <time>2014-10-01T16:51:17Z</time>
      </trkpt>
      <trkpt lat="42.3800320" lon="-7.2821820">
        <ele>877.8</ele>
        <time>2014-10-01T16:51:18Z</time>
      </trkpt>
      <trkpt lat="42.3799940" lon="-7.2822020">
        <ele>877.9</ele>
        <time>2014-10-01T16:51:19Z</time>
      </trkpt>
      <trkpt lat="42.3799540" lon="-7.2822240">
        <ele>878.0</ele>
        <time>2014-10-01T16:51:20Z</time>
      </trkpt>
      <trkpt lat="42.3799160" lon="-7.2822500">
        <ele>878.0</ele>
        <time>2014-10-01T16:51:21Z</time>
      </trkpt>
      <trkpt lat="42.3798800" lon="-7.2822750">
        <ele>878.1</ele>
        <time>2014-10-01T16:51:22Z</time>
      </trkpt>
      <trkpt lat="42.3798480" lon="-7.2823010">
        <ele>878.1</ele>
        <time>2014-10-01T16:51:23Z</time>
      </trkpt>
      <trkpt lat="42.3798170" lon="-7.2823300">
        <ele>878.2</ele>
        <time>2014-10-01T16:51:24Z</time>
      </trkpt>
      <trkpt lat="42.3797870" lon="-7.2823620">
        <ele>878.3</ele>
        <time>2014-10-01T16:51:25Z</time>
      </trkpt>
      <trkpt lat="42.3797530" lon="-7.2823950">
        <ele>878.5</ele>
        <time>2014-10-01T16:51:26Z</time>
      </trkpt>
      <trkpt lat="42.3797230" lon="-7.2824240">
        <ele>878.7</ele>
        <time>2014-10-01T16:51:27Z</time>
      </trkpt>
      <trkpt lat="42.3796950" lon="-7.2824510">
        <ele>878.9</ele>
        <time>2014-10-01T16:51:28Z</time>
      </trkpt>
      <trkpt lat="42.3796640" lon="-7.2824820">
        <ele>879.1</ele>
        <time>2014-10-01T16:51:29Z</time>
      </trkpt>
      <trkpt lat="42.3796320" lon="-7.2825150">
        <ele>879.2</ele>
        <time>2014-10-01T16:51:30Z</time>
      </trkpt>
      <trkpt lat="42.3795980" lon="-7.2825460">
        <ele>879.4</ele>
        <time>2014-10-01T16:51:31Z</time>
      </trkpt>
      <trkpt lat="42.3795690" lon="-7.2825790">
        <ele>879.5</ele>
        <time>2014-10-01T16:51:32Z</time>
      </trkpt>
      <trkpt lat="42.3795410" lon="-7.2826120">
        <ele>879.6</ele>
        <time>2014-10-01T16:51:33Z</time>
      </trkpt>
      <trkpt lat="42.3795140" lon="-7.2826460">
        <ele>879.8</ele>
        <time>2014-10-01T16:51:34Z</time>
      </trkpt>
      <trkpt lat="42.3794840" lon="-7.2826830">
        <ele>879.9</ele>
        <time>2014-10-01T16:51:35Z</time>
      </trkpt>
      <trkpt lat="42.3794560" lon="-7.2827220">
        <ele>880.1</ele>
        <time>2014-10-01T16:51:36Z</time>
      </trkpt>
      <trkpt lat="42.3794270" lon="-7.2827670">
        <ele>880.2</ele>
        <time>2014-10-01T16:51:37Z</time>
      </trkpt>
      <trkpt lat="42.3794040" lon="-7.2828090">
        <ele>880.3</ele>
        <time>2014-10-01T16:51:38Z</time>
      </trkpt>
      <trkpt lat="42.3793850" lon="-7.2828500">
        <ele>880.3</ele>
        <time>2014-10-01T16:51:39Z</time>
      </trkpt>
      <trkpt lat="42.3793640" lon="-7.2828990">
        <ele>880.4</ele>
        <time>2014-10-01T16:51:40Z</time>
      </trkpt>
      <trkpt lat="42.3793430" lon="-7.2829450">
        <ele>880.4</ele>
        <time>2014-10-01T16:51:41Z</time>
      </trkpt>
      <trkpt lat="42.3793210" lon="-7.2829960">
        <ele>880.4</ele>
        <time>2014-10-01T16:51:42Z</time>
      </trkpt>
      <trkpt lat="42.3793000" lon="-7.2830500">
        <ele>880.3</ele>
        <time>2014-10-01T16:51:43Z</time>
      </trkpt>
      <trkpt lat="42.3792760" lon="-7.2831190">
        <ele>880.2</ele>
        <time>2014-10-01T16:51:44Z</time>
      </trkpt>
      <trkpt lat="42.3792530" lon="-7.2831890">
        <ele>880.1</ele>
        <time>2014-10-01T16:51:45Z</time>
      </trkpt>
      <trkpt lat="42.3792290" lon="-7.2832550">
        <ele>879.9</ele>
        <time>2014-10-01T16:51:46Z</time>
      </trkpt>
      <trkpt lat="42.3792080" lon="-7.2833230">
        <ele>879.7</ele>
        <time>2014-10-01T16:51:47Z</time>
      </trkpt>
      <trkpt lat="42.3791950" lon="-7.2833830">
        <ele>879.6</ele>
        <time>2014-10-01T16:51:48Z</time>
      </trkpt>
      <trkpt lat="42.3791810" lon="-7.2834370">
        <ele>879.3</ele>
        <time>2014-10-01T16:51:49Z</time>
      </trkpt>
      <trkpt lat="42.3791700" lon="-7.2834880">
        <ele>879.0</ele>
        <time>2014-10-01T16:51:50Z</time>
      </trkpt>
      <trkpt lat="42.3791590" lon="-7.2835460">
        <ele>878.4</ele>
        <time>2014-10-01T16:51:51Z</time>
      </trkpt>
      <trkpt lat="42.3791470" lon="-7.2836060">
        <ele>877.5</ele>
        <time>2014-10-01T16:51:52Z</time>
      </trkpt>
      <trkpt lat="42.3791280" lon="-7.2836610">
        <ele>876.0</ele>
        <time>2014-10-01T16:51:53Z</time>
      </trkpt>
      <trkpt lat="42.3791010" lon="-7.2837290">
        <ele>875.5</ele>
        <time>2014-10-01T16:51:54Z</time>
      </trkpt>
      <trkpt lat="42.3790750" lon="-7.2837820">
        <ele>875.1</ele>
        <time>2014-10-01T16:51:55Z</time>
      </trkpt>
      <trkpt lat="42.3790470" lon="-7.2838290">
        <ele>874.8</ele>
        <time>2014-10-01T16:51:56Z</time>
      </trkpt>
      <trkpt lat="42.3790180" lon="-7.2838650">
        <ele>874.5</ele>
        <time>2014-10-01T16:51:57Z</time>
      </trkpt>
      <trkpt lat="42.3789840" lon="-7.2839000">
        <ele>874.1</ele>
        <time>2014-10-01T16:51:58Z</time>
      </trkpt>
      <trkpt lat="42.3789380" lon="-7.2839360">
        <ele>873.7</ele>
        <time>2014-10-01T16:51:59Z</time>
      </trkpt>
      <trkpt lat="42.3788900" lon="-7.2839660">
        <ele>873.2</ele>
        <time>2014-10-01T16:52:00Z</time>
      </trkpt>
      <trkpt lat="42.3788380" lon="-7.2839960">
        <ele>872.6</ele>
        <time>2014-10-01T16:52:01Z</time>
      </trkpt>
      <trkpt lat="42.3787840" lon="-7.2840240">
        <ele>871.9</ele>
        <time>2014-10-01T16:52:02Z</time>
      </trkpt>
      <trkpt lat="42.3787280" lon="-7.2840390">
        <ele>871.2</ele>
        <time>2014-10-01T16:52:03Z</time>
      </trkpt>
      <trkpt lat="42.3786680" lon="-7.2840510">
        <ele>870.5</ele>
        <time>2014-10-01T16:52:04Z</time>
      </trkpt>
      <trkpt lat="42.3786060" lon="-7.2840640">
        <ele>869.7</ele>
        <time>2014-10-01T16:52:05Z</time>
      </trkpt>
      <trkpt lat="42.3785400" lon="-7.2840750">
        <ele>868.9</ele>
        <time>2014-10-01T16:52:06Z</time>
      </trkpt>
      <trkpt lat="42.3784660" lon="-7.2840970">
        <ele>868.0</ele>
        <time>2014-10-01T16:52:07Z</time>
      </trkpt>
      <trkpt lat="42.3783840" lon="-7.2841220">
        <ele>867.0</ele>
        <time>2014-10-01T16:52:08Z</time>
      </trkpt>
      <trkpt lat="42.3782900" lon="-7.2841520">
        <ele>866.0</ele>
        <time>2014-10-01T16:52:09Z</time>
      </trkpt>
      <trkpt lat="42.3781950" lon="-7.2841840">
        <ele>865.2</ele>
        <time>2014-10-01T16:52:10Z</time>
      </trkpt>
      <trkpt lat="42.3780960" lon="-7.2842300">
        <ele>864.6</ele>
        <time>2014-10-01T16:52:11Z</time>
      </trkpt>
      <trkpt lat="42.3780110" lon="-7.2842990">
        <ele>864.1</ele>
        <time>2014-10-01T16:52:12Z</time>
      </trkpt>
      <trkpt lat="42.3779350" lon="-7.2843700">
        <ele>863.8</ele>
        <time>2014-10-01T16:52:13Z</time>
      </trkpt>
      <trkpt lat="42.3778710" lon="-7.2844430">
        <ele>863.4</ele>
        <time>2014-10-01T16:52:14Z</time>
      </trkpt>
      <trkpt lat="42.3778180" lon="-7.2845170">
        <ele>863.1</ele>
        <time>2014-10-01T16:52:15Z</time>
      </trkpt>
      <trkpt lat="42.3777710" lon="-7.2845890">
        <ele>862.7</ele>
        <time>2014-10-01T16:52:16Z</time>
      </trkpt>
      <trkpt lat="42.3777280" lon="-7.2846620">
        <ele>862.3</ele>
        <time>2014-10-01T16:52:17Z</time>
      </trkpt>
      <trkpt lat="42.3776870" lon="-7.2847360">
        <ele>861.9</ele>
        <time>2014-10-01T16:52:18Z</time>
      </trkpt>
      <trkpt lat="42.3776500" lon="-7.2848080">
        <ele>861.6</ele>
        <time>2014-10-01T16:52:19Z</time>
      </trkpt>
      <trkpt lat="42.3776170" lon="-7.2848730">
        <ele>861.4</ele>
        <time>2014-10-01T16:52:20Z</time>
      </trkpt>
      <trkpt lat="42.3775830" lon="-7.2849380">
        <ele>861.2</ele>
        <time>2014-10-01T16:52:21Z</time>
      </trkpt>
      <trkpt lat="42.3775510" lon="-7.2849980">
        <ele>861.0</ele>
        <time>2014-10-01T16:52:22Z</time>
      </trkpt>
      <trkpt lat="42.3775200" lon="-7.2850570">
        <ele>861.0</ele>
        <time>2014-10-01T16:52:23Z</time>
      </trkpt>
      <trkpt lat="42.3774870" lon="-7.2851160">
        <ele>860.9</ele>
        <time>2014-10-01T16:52:24Z</time>
      </trkpt>
      <trkpt lat="42.3774540" lon="-7.2851740">
        <ele>860.8</ele>
        <time>2014-10-01T16:52:25Z</time>
      </trkpt>
      <trkpt lat="42.3774180" lon="-7.2852340">
        <ele>860.6</ele>
        <time>2014-10-01T16:52:26Z</time>
      </trkpt>
      <trkpt lat="42.3773800" lon="-7.2852920">
        <ele>860.5</ele>
        <time>2014-10-01T16:52:27Z</time>
      </trkpt>
      <trkpt lat="42.3773410" lon="-7.2853450">
        <ele>860.3</ele>
        <time>2014-10-01T16:52:28Z</time>
      </trkpt>
      <trkpt lat="42.3773000" lon="-7.2853940">
        <ele>860.2</ele>
        <time>2014-10-01T16:52:29Z</time>
      </trkpt>
      <trkpt lat="42.3772560" lon="-7.2854400">
        <ele>860.0</ele>
        <time>2014-10-01T16:52:30Z</time>
      </trkpt>
      <trkpt lat="42.3771940" lon="-7.2854690">
        <ele>859.8</ele>
        <time>2014-10-01T16:52:31Z</time>
      </trkpt>
      <trkpt lat="42.3771270" lon="-7.2854770">
        <ele>859.4</ele>
        <time>2014-10-01T16:52:32Z</time>
      </trkpt>
      <trkpt lat="42.3770600" lon="-7.2854560">
        <ele>859.1</ele>
        <time>2014-10-01T16:52:33Z</time>
      </trkpt>
      <trkpt lat="42.3769990" lon="-7.2854100">
        <ele>858.7</ele>
        <time>2014-10-01T16:52:34Z</time>
      </trkpt>
      <trkpt lat="42.3769360" lon="-7.2853560">
        <ele>858.3</ele>
        <time>2014-10-01T16:52:35Z</time>
      </trkpt>
      <trkpt lat="42.3768820" lon="-7.2853020">
        <ele>857.9</ele>
        <time>2014-10-01T16:52:36Z</time>
      </trkpt>
      <trkpt lat="42.3768310" lon="-7.2852460">
        <ele>857.5</ele>
        <time>2014-10-01T16:52:37Z</time>
      </trkpt>
      <trkpt lat="42.3767780" lon="-7.2851870">
        <ele>857.4</ele>
        <time>2014-10-01T16:52:38Z</time>
      </trkpt>
      <trkpt lat="42.3767330" lon="-7.2851360">
        <ele>857.3</ele>
        <time>2014-10-01T16:52:39Z</time>
      </trkpt>
      <trkpt lat="42.3766860" lon="-7.2850840">
        <ele>857.3</ele>
        <time>2014-10-01T16:52:40Z</time>
      </trkpt>
      <trkpt lat="42.3766410" lon="-7.2850360">
        <ele>857.3</ele>
        <time>2014-10-01T16:52:41Z</time>
      </trkpt>
      <trkpt lat="42.3766060" lon="-7.2849950">
        <ele>857.3</ele>
        <time>2014-10-01T16:52:42Z</time>
      </trkpt>
      <trkpt lat="42.3765720" lon="-7.2849560">
        <ele>857.3</ele>
        <time>2014-10-01T16:52:43Z</time>
      </trkpt>
      <trkpt lat="42.3765350" lon="-7.2849160">
        <ele>857.4</ele>
        <time>2014-10-01T16:52:44Z</time>
      </trkpt>
      <trkpt lat="42.3765050" lon="-7.2848830">
        <ele>857.6</ele>
        <time>2014-10-01T16:52:45Z</time>
      </trkpt>
      <trkpt lat="42.3764750" lon="-7.2848540">
        <ele>857.8</ele>
        <time>2014-10-01T16:52:46Z</time>
      </trkpt>
      <trkpt lat="42.3764280" lon="-7.2848180">
        <ele>858.1</ele>
        <time>2014-10-01T16:52:48Z</time>
      </trkpt>
      <trkpt lat="42.3763780" lon="-7.2847780">
        <ele>858.5</ele>
        <time>2014-10-01T16:52:50Z</time>
      </trkpt>
      <trkpt lat="42.3763520" lon="-7.2847560">
        <ele>858.8</ele>
        <time>2014-10-01T16:52:51Z</time>
      </trkpt>
      <trkpt lat="42.3763100" lon="-7.2847180">
        <ele>859.2</ele>
        <time>2014-10-01T16:52:53Z</time>
      </trkpt>
      <trkpt lat="42.3762680" lon="-7.2846860">
        <ele>859.6</ele>
        <time>2014-10-01T16:52:55Z</time>
      </trkpt>
      <trkpt lat="42.3762140" lon="-7.2846560">
        <ele>860.1</ele>
        <time>2014-10-01T16:52:57Z</time>
      </trkpt>
      <trkpt lat="42.3761750" lon="-7.2846280">
        <ele>860.4</ele>
        <time>2014-10-01T16:52:59Z</time>
      </trkpt>
      <trkpt lat="42.3761380" lon="-7.2845930">
        <ele>860.8</ele>
        <time>2014-10-01T16:53:01Z</time>
      </trkpt>
      <trkpt lat="42.3761040" lon="-7.2845630">
        <ele>861.1</ele>
        <time>2014-10-01T16:53:03Z</time>
      </trkpt>
      <trkpt lat="42.3760790" lon="-7.2845420">
        <ele>861.3</ele>
        <time>2014-10-01T16:53:04Z</time>
      </trkpt>
      <trkpt lat="42.3760420" lon="-7.2845050">
        <ele>861.6</ele>
        <time>2014-10-01T16:53:06Z</time>
      </trkpt>
      <trkpt lat="42.3759950" lon="-7.2844630">
        <ele>862.1</ele>
        <time>2014-10-01T16:53:08Z</time>
      </trkpt>
      <trkpt lat="42.3759700" lon="-7.2844380">
        <ele>862.4</ele>
        <time>2014-10-01T16:53:09Z</time>
      </trkpt>
      <trkpt lat="42.3759400" lon="-7.2844060">
        <ele>862.7</ele>
        <time>2014-10-01T16:53:10Z</time>
      </trkpt>
      <trkpt lat="42.3759130" lon="-7.2843760">
        <ele>863.1</ele>
        <time>2014-10-01T16:53:11Z</time>
      </trkpt>
      <trkpt lat="42.3758870" lon="-7.2843580">
        <ele>863.4</ele>
        <time>2014-10-01T16:53:12Z</time>
      </trkpt>
      <trkpt lat="42.3758540" lon="-7.2843300">
        <ele>863.7</ele>
        <time>2014-10-01T16:53:13Z</time>
      </trkpt>
      <trkpt lat="42.3758250" lon="-7.2843030">
        <ele>864.1</ele>
        <time>2014-10-01T16:53:14Z</time>
      </trkpt>
      <trkpt lat="42.3757870" lon="-7.2842530">
        <ele>864.6</ele>
        <time>2014-10-01T16:53:16Z</time>
      </trkpt>
      <trkpt lat="42.3757640" lon="-7.2842290">
        <ele>864.8</ele>
        <time>2014-10-01T16:53:17Z</time>
      </trkpt>
      <trkpt lat="42.3757420" lon="-7.2842050">
        <ele>865.0</ele>
        <time>2014-10-01T16:53:18Z</time>
      </trkpt>
      <trkpt lat="42.3757030" lon="-7.2841540">
        <ele>865.3</ele>
        <time>2014-10-01T16:53:20Z</time>
      </trkpt>
      <trkpt lat="42.3756840" lon="-7.2841250">
        <ele>865.4</ele>
        <time>2014-10-01T16:53:21Z</time>
      </trkpt>
      <trkpt lat="42.3756600" lon="-7.2840610">
        <ele>865.6</ele>
        <time>2014-10-01T16:53:23Z</time>
      </trkpt>
      <trkpt lat="42.3756440" lon="-7.2840210">
        <ele>865.6</ele>
        <time>2014-10-01T16:53:24Z</time>
      </trkpt>
      <trkpt lat="42.3756210" lon="-7.2839690">
        <ele>865.7</ele>
        <time>2014-10-01T16:53:26Z</time>
      </trkpt>
      <trkpt lat="42.3755980" lon="-7.2839170">
        <ele>865.7</ele>
        <time>2014-10-01T16:53:28Z</time>
      </trkpt>
      <trkpt lat="42.3755720" lon="-7.2838600">
        <ele>865.6</ele>
        <time>2014-10-01T16:53:30Z</time>
      </trkpt>
      <trkpt lat="42.3755440" lon="-7.2838020">
        <ele>865.5</ele>
        <time>2014-10-01T16:53:32Z</time>
      </trkpt>
      <trkpt lat="42.3755140" lon="-7.2837570">
        <ele>865.2</ele>
        <time>2014-10-01T16:53:34Z</time>
      </trkpt>
      <trkpt lat="42.3754700" lon="-7.2837150">
        <ele>864.4</ele>
        <time>2014-10-01T16:53:36Z</time>
      </trkpt>
      <trkpt lat="42.3754460" lon="-7.2836980">
        <ele>863.9</ele>
        <time>2014-10-01T16:53:37Z</time>
      </trkpt>
      <trkpt lat="42.3754190" lon="-7.2836850">
        <ele>863.1</ele>
        <time>2014-10-01T16:53:38Z</time>
      </trkpt>
      <trkpt lat="42.3753710" lon="-7.2836600">
        <ele>861.3</ele>
        <time>2014-10-01T16:53:40Z</time>
      </trkpt>
      <trkpt lat="42.3753280" lon="-7.2836440">
        <ele>861.4</ele>
        <time>2014-10-01T16:53:42Z</time>
      </trkpt>
      <trkpt lat="42.3752780" lon="-7.2836440">
        <ele>862.3</ele>
        <time>2014-10-01T16:53:44Z</time>
      </trkpt>
      <trkpt lat="42.3752330" lon="-7.2836630">
        <ele>863.0</ele>
        <time>2014-10-01T16:53:46Z</time>
      </trkpt>
      <trkpt lat="42.3752000" lon="-7.2836950">
        <ele>863.4</ele>
        <time>2014-10-01T16:53:48Z</time>
      </trkpt>
      <trkpt lat="42.3751630" lon="-7.2837410">
        <ele>863.8</ele>
        <time>2014-10-01T16:53:50Z</time>
      </trkpt>
      <trkpt lat="42.3751440" lon="-7.2837670">
        <ele>864.0</ele>
        <time>2014-10-01T16:53:51Z</time>
      </trkpt>
      <trkpt lat="42.3751140" lon="-7.2838190">
        <ele>864.4</ele>
        <time>2014-10-01T16:53:53Z</time>
      </trkpt>
      <trkpt lat="42.3750940" lon="-7.2838680">
        <ele>864.6</ele>
        <time>2014-10-01T16:53:55Z</time>
      </trkpt>
      <trkpt lat="42.3750840" lon="-7.2839320">
        <ele>864.9</ele>
        <time>2014-10-01T16:53:57Z</time>
      </trkpt>
      <trkpt lat="42.3750780" lon="-7.2839690">
        <ele>865.1</ele>
        <time>2014-10-01T16:53:58Z</time>
      </trkpt>
      <trkpt lat="42.3750730" lon="-7.2840060">
        <ele>865.2</ele>
        <time>2014-10-01T16:53:59Z</time>
      </trkpt>
      <trkpt lat="42.3750640" lon="-7.2840430">
        <ele>865.4</ele>
        <time>2014-10-01T16:54:00Z</time>
      </trkpt>
      <trkpt lat="42.3750510" lon="-7.2840790">
        <ele>865.6</ele>
        <time>2014-10-01T16:54:01Z</time>
      </trkpt>
      <trkpt lat="42.3750360" lon="-7.2841120">
        <ele>865.7</ele>
        <time>2014-10-01T16:54:02Z</time>
      </trkpt>
      <trkpt lat="42.3750200" lon="-7.2841450">
        <ele>865.9</ele>
        <time>2014-10-01T16:54:03Z</time>
      </trkpt>
      <trkpt lat="42.3749900" lon="-7.2842130">
        <ele>866.2</ele>
        <time>2014-10-01T16:54:05Z</time>
      </trkpt>
      <trkpt lat="42.3749770" lon="-7.2842500">
        <ele>866.4</ele>
        <time>2014-10-01T16:54:06Z</time>
      </trkpt>
      <trkpt lat="42.3749620" lon="-7.2842960">
        <ele>866.6</ele>
        <time>2014-10-01T16:54:07Z</time>
      </trkpt>
      <trkpt lat="42.3749470" lon="-7.2843420">
        <ele>866.8</ele>
        <time>2014-10-01T16:54:08Z</time>
      </trkpt>
      <trkpt lat="42.3749320" lon="-7.2843910">
        <ele>866.9</ele>
        <time>2014-10-01T16:54:09Z</time>
      </trkpt>
      <trkpt lat="42.3749140" lon="-7.2844380">
        <ele>867.0</ele>
        <time>2014-10-01T16:54:10Z</time>
      </trkpt>
      <trkpt lat="42.3748950" lon="-7.2844830">
        <ele>867.1</ele>
        <time>2014-10-01T16:54:11Z</time>
      </trkpt>
      <trkpt lat="42.3748730" lon="-7.2845280">
        <ele>867.2</ele>
        <time>2014-10-01T16:54:12Z</time>
      </trkpt>
      <trkpt lat="42.3748430" lon="-7.2845660">
        <ele>867.4</ele>
        <time>2014-10-01T16:54:13Z</time>
      </trkpt>
      <trkpt lat="42.3748140" lon="-7.2846010">
        <ele>867.5</ele>
        <time>2014-10-01T16:54:14Z</time>
      </trkpt>
      <trkpt lat="42.3747850" lon="-7.2846360">
        <ele>867.7</ele>
        <time>2014-10-01T16:54:15Z</time>
      </trkpt>
      <trkpt lat="42.3747550" lon="-7.2846690">
        <ele>867.8</ele>
        <time>2014-10-01T16:54:16Z</time>
      </trkpt>
      <trkpt lat="42.3747250" lon="-7.2847040">
        <ele>868.0</ele>
        <time>2014-10-01T16:54:17Z</time>
      </trkpt>
      <trkpt lat="42.3746880" lon="-7.2847500">
        <ele>868.2</ele>
        <time>2014-10-01T16:54:18Z</time>
      </trkpt>
      <trkpt lat="42.3746530" lon="-7.2847900">
        <ele>868.4</ele>
        <time>2014-10-01T16:54:19Z</time>
      </trkpt>
      <trkpt lat="42.3746190" lon="-7.2848300">
        <ele>868.7</ele>
        <time>2014-10-01T16:54:20Z</time>
      </trkpt>
      <trkpt lat="42.3745860" lon="-7.2848680">
        <ele>869.0</ele>
        <time>2014-10-01T16:54:21Z</time>
      </trkpt>
      <trkpt lat="42.3745560" lon="-7.2848990">
        <ele>869.3</ele>
        <time>2014-10-01T16:54:22Z</time>
      </trkpt>
      <trkpt lat="42.3745270" lon="-7.2849300">
        <ele>869.5</ele>
        <time>2014-10-01T16:54:23Z</time>
      </trkpt>
      <trkpt lat="42.3744970" lon="-7.2849600">
        <ele>869.8</ele>
        <time>2014-10-01T16:54:24Z</time>
      </trkpt>
      <trkpt lat="42.3744630" lon="-7.2849900">
        <ele>870.1</ele>
        <time>2014-10-01T16:54:25Z</time>
      </trkpt>
      <trkpt lat="42.3744330" lon="-7.2850160">
        <ele>870.4</ele>
        <time>2014-10-01T16:54:26Z</time>
      </trkpt>
      <trkpt lat="42.3744030" lon="-7.2850440">
        <ele>870.7</ele>
        <time>2014-10-01T16:54:27Z</time>
      </trkpt>
      <trkpt lat="42.3743740" lon="-7.2850720">
        <ele>870.9</ele>
        <time>2014-10-01T16:54:28Z</time>
      </trkpt>
      <trkpt lat="42.3743440" lon="-7.2851040">
        <ele>871.2</ele>
        <time>2014-10-01T16:54:29Z</time>
      </trkpt>
      <trkpt lat="42.3743180" lon="-7.2851340">
        <ele>871.4</ele>
        <time>2014-10-01T16:54:30Z</time>
      </trkpt>
      <trkpt lat="42.3742940" lon="-7.2851640">
        <ele>871.5</ele>
        <time>2014-10-01T16:54:31Z</time>
      </trkpt>
      <trkpt lat="42.3742720" lon="-7.2851950">
        <ele>871.7</ele>
        <time>2014-10-01T16:54:32Z</time>
      </trkpt>
      <trkpt lat="42.3742480" lon="-7.2852270">
        <ele>871.8</ele>
        <time>2014-10-01T16:54:33Z</time>
      </trkpt>
      <trkpt lat="42.3742230" lon="-7.2852610">
        <ele>872.0</ele>
        <time>2014-10-01T16:54:34Z</time>
      </trkpt>
      <trkpt lat="42.3742000" lon="-7.2852910">
        <ele>872.2</ele>
        <time>2014-10-01T16:54:35Z</time>
      </trkpt>
      <trkpt lat="42.3741760" lon="-7.2853220">
        <ele>872.4</ele>
        <time>2014-10-01T16:54:36Z</time>
      </trkpt>
      <trkpt lat="42.3741530" lon="-7.2853540">
        <ele>872.5</ele>
        <time>2014-10-01T16:54:37Z</time>
      </trkpt>
      <trkpt lat="42.3741300" lon="-7.2853870">
        <ele>872.7</ele>
        <time>2014-10-01T16:54:38Z</time>
      </trkpt>
      <trkpt lat="42.3741090" lon="-7.2854260">
        <ele>872.8</ele>
        <time>2014-10-01T16:54:39Z</time>
      </trkpt>
      <trkpt lat="42.3740900" lon="-7.2854660">
        <ele>872.9</ele>
        <time>2014-10-01T16:54:40Z</time>
      </trkpt>
      <trkpt lat="42.3740700" lon="-7.2855050">
        <ele>873.0</ele>
        <time>2014-10-01T16:54:41Z</time>
      </trkpt>
      <trkpt lat="42.3740500" lon="-7.2855470">
        <ele>873.0</ele>
        <time>2014-10-01T16:54:42Z</time>
      </trkpt>
      <trkpt lat="42.3740320" lon="-7.2855810">
        <ele>873.1</ele>
        <time>2014-10-01T16:54:43Z</time>
      </trkpt>
      <trkpt lat="42.3740110" lon="-7.2856220">
        <ele>873.1</ele>
        <time>2014-10-01T16:54:44Z</time>
      </trkpt>
      <trkpt lat="42.3739910" lon="-7.2856660">
        <ele>873.2</ele>
        <time>2014-10-01T16:54:45Z</time>
      </trkpt>
      <trkpt lat="42.3739740" lon="-7.2857060">
        <ele>873.2</ele>
        <time>2014-10-01T16:54:46Z</time>
      </trkpt>
      <trkpt lat="42.3739570" lon="-7.2857510">
        <ele>873.3</ele>
        <time>2014-10-01T16:54:47Z</time>
      </trkpt>
      <trkpt lat="42.3739390" lon="-7.2858030">
        <ele>873.4</ele>
        <time>2014-10-01T16:54:48Z</time>
      </trkpt>
      <trkpt lat="42.3739220" lon="-7.2858570">
        <ele>873.6</ele>
        <time>2014-10-01T16:54:49Z</time>
      </trkpt>
      <trkpt lat="42.3739050" lon="-7.2859120">
        <ele>873.8</ele>
        <time>2014-10-01T16:54:50Z</time>
      </trkpt>
      <trkpt lat="42.3738860" lon="-7.2859640">
        <ele>873.9</ele>
        <time>2014-10-01T16:54:51Z</time>
      </trkpt>
      <trkpt lat="42.3738650" lon="-7.2860160">
        <ele>874.1</ele>
        <time>2014-10-01T16:54:52Z</time>
      </trkpt>
      <trkpt lat="42.3738450" lon="-7.2860630">
        <ele>874.2</ele>
        <time>2014-10-01T16:54:53Z</time>
      </trkpt>
      <trkpt lat="42.3738240" lon="-7.2861080">
        <ele>874.4</ele>
        <time>2014-10-01T16:54:54Z</time>
      </trkpt>
      <trkpt lat="42.3737990" lon="-7.2861560">
        <ele>874.5</ele>
        <time>2014-10-01T16:54:55Z</time>
      </trkpt>
      <trkpt lat="42.3737710" lon="-7.2862070">
        <ele>874.7</ele>
        <time>2014-10-01T16:54:56Z</time>
      </trkpt>
      <trkpt lat="42.3737420" lon="-7.2862580">
        <ele>874.9</ele>
        <time>2014-10-01T16:54:57Z</time>
      </trkpt>
      <trkpt lat="42.3737130" lon="-7.2863080">
        <ele>875.0</ele>
        <time>2014-10-01T16:54:58Z</time>
      </trkpt>
      <trkpt lat="42.3736850" lon="-7.2863570">
        <ele>875.2</ele>
        <time>2014-10-01T16:54:59Z</time>
      </trkpt>
      <trkpt lat="42.3736560" lon="-7.2864080">
        <ele>875.4</ele>
        <time>2014-10-01T16:55:00Z</time>
      </trkpt>
      <trkpt lat="42.3736310" lon="-7.2864560">
        <ele>875.6</ele>
        <time>2014-10-01T16:55:01Z</time>
      </trkpt>
      <trkpt lat="42.3736100" lon="-7.2864970">
        <ele>875.9</ele>
        <time>2014-10-01T16:55:02Z</time>
      </trkpt>
      <trkpt lat="42.3735880" lon="-7.2865390">
        <ele>876.0</ele>
        <time>2014-10-01T16:55:03Z</time>
      </trkpt>
      <trkpt lat="42.3735700" lon="-7.2865820">
        <ele>876.2</ele>
        <time>2014-10-01T16:55:04Z</time>
      </trkpt>
      <trkpt lat="42.3735520" lon="-7.2866280">
        <ele>876.3</ele>
        <time>2014-10-01T16:55:05Z</time>
      </trkpt>
      <trkpt lat="42.3735350" lon="-7.2866730">
        <ele>876.4</ele>
        <time>2014-10-01T16:55:06Z</time>
      </trkpt>
      <trkpt lat="42.3735130" lon="-7.2867090">
        <ele>876.6</ele>
        <time>2014-10-01T16:55:07Z</time>
      </trkpt>
      <trkpt lat="42.3735010" lon="-7.2867490">
        <ele>876.7</ele>
        <time>2014-10-01T16:55:08Z</time>
      </trkpt>
      <trkpt lat="42.3734870" lon="-7.2867900">
        <ele>876.9</ele>
        <time>2014-10-01T16:55:09Z</time>
      </trkpt>
      <trkpt lat="42.3734720" lon="-7.2868390">
        <ele>877.2</ele>
        <time>2014-10-01T16:55:10Z</time>
      </trkpt>
      <trkpt lat="42.3734590" lon="-7.2868830">
        <ele>877.3</ele>
        <time>2014-10-01T16:55:11Z</time>
      </trkpt>
      <trkpt lat="42.3734450" lon="-7.2869260">
        <ele>877.5</ele>
        <time>2014-10-01T16:55:12Z</time>
      </trkpt>
      <trkpt lat="42.3734340" lon="-7.2869640">
        <ele>877.6</ele>
        <time>2014-10-01T16:55:13Z</time>
      </trkpt>
      <trkpt lat="42.3734190" lon="-7.2870030">
        <ele>877.7</ele>
        <time>2014-10-01T16:55:14Z</time>
      </trkpt>
      <trkpt lat="42.3734000" lon="-7.2870420">
        <ele>877.7</ele>
        <time>2014-10-01T16:55:15Z</time>
      </trkpt>
      <trkpt lat="42.3733730" lon="-7.2870760">
        <ele>877.8</ele>
        <time>2014-10-01T16:55:16Z</time>
      </trkpt>
      <trkpt lat="42.3733440" lon="-7.2871130">
        <ele>877.8</ele>
        <time>2014-10-01T16:55:17Z</time>
      </trkpt>
      <trkpt lat="42.3733130" lon="-7.2871600">
        <ele>877.8</ele>
        <time>2014-10-01T16:55:18Z</time>
      </trkpt>
      <trkpt lat="42.3732830" lon="-7.2872100">
        <ele>877.8</ele>
        <time>2014-10-01T16:55:19Z</time>
      </trkpt>
      <trkpt lat="42.3732520" lon="-7.2872680">
        <ele>877.9</ele>
        <time>2014-10-01T16:55:20Z</time>
      </trkpt>
      <trkpt lat="42.3732250" lon="-7.2873270">
        <ele>878.1</ele>
        <time>2014-10-01T16:55:21Z</time>
      </trkpt>
      <trkpt lat="42.3732000" lon="-7.2873850">
        <ele>878.3</ele>
        <time>2014-10-01T16:55:22Z</time>
      </trkpt>
      <trkpt lat="42.3731800" lon="-7.2874410">
        <ele>878.4</ele>
        <time>2014-10-01T16:55:23Z</time>
      </trkpt>
      <trkpt lat="42.3731590" lon="-7.2874990">
        <ele>878.6</ele>
        <time>2014-10-01T16:55:24Z</time>
      </trkpt>
      <trkpt lat="42.3731400" lon="-7.2875540">
        <ele>878.8</ele>
        <time>2014-10-01T16:55:25Z</time>
      </trkpt>
      <trkpt lat="42.3731200" lon="-7.2876120">
        <ele>878.9</ele>
        <time>2014-10-01T16:55:26Z</time>
      </trkpt>
      <trkpt lat="42.3731010" lon="-7.2876730">
        <ele>879.1</ele>
        <time>2014-10-01T16:55:27Z</time>
      </trkpt>
      <trkpt lat="42.3730860" lon="-7.2877360">
        <ele>879.3</ele>
        <time>2014-10-01T16:55:28Z</time>
      </trkpt>
      <trkpt lat="42.3730840" lon="-7.2878020">
        <ele>879.5</ele>
        <time>2014-10-01T16:55:29Z</time>
      </trkpt>
      <trkpt lat="42.3730840" lon="-7.2878570">
        <ele>879.7</ele>
        <time>2014-10-01T16:55:30Z</time>
      </trkpt>
      <trkpt lat="42.3730840" lon="-7.2879070">
        <ele>879.8</ele>
        <time>2014-10-01T16:55:31Z</time>
      </trkpt>
      <trkpt lat="42.3730960" lon="-7.2879600">
        <ele>879.9</ele>
        <time>2014-10-01T16:55:32Z</time>
      </trkpt>
      <trkpt lat="42.3731080" lon="-7.2880130">
        <ele>879.9</ele>
        <time>2014-10-01T16:55:33Z</time>
      </trkpt>
      <trkpt lat="42.3731200" lon="-7.2880550">
        <ele>879.9</ele>
        <time>2014-10-01T16:55:34Z</time>
      </trkpt>
      <trkpt lat="42.3731350" lon="-7.2881020">
        <ele>879.9</ele>
        <time>2014-10-01T16:55:35Z</time>
      </trkpt>
      <trkpt lat="42.3731540" lon="-7.2881510">
        <ele>879.8</ele>
        <time>2014-10-01T16:55:36Z</time>
      </trkpt>
      <trkpt lat="42.3731750" lon="-7.2882030">
        <ele>879.6</ele>
        <time>2014-10-01T16:55:37Z</time>
      </trkpt>
      <trkpt lat="42.3732020" lon="-7.2882590">
        <ele>879.4</ele>
        <time>2014-10-01T16:55:38Z</time>
      </trkpt>
      <trkpt lat="42.3732270" lon="-7.2883110">
        <ele>879.2</ele>
        <time>2014-10-01T16:55:39Z</time>
      </trkpt>
      <trkpt lat="42.3732530" lon="-7.2883630">
        <ele>879.0</ele>
        <time>2014-10-01T16:55:40Z</time>
      </trkpt>
      <trkpt lat="42.3732810" lon="-7.2884260">
        <ele>878.9</ele>
        <time>2014-10-01T16:55:41Z</time>
      </trkpt>
      <trkpt lat="42.3733080" lon="-7.2884890">
        <ele>878.9</ele>
        <time>2014-10-01T16:55:42Z</time>
      </trkpt>
      <trkpt lat="42.3733390" lon="-7.2885640">
        <ele>879.0</ele>
        <time>2014-10-01T16:55:43Z</time>
      </trkpt>
      <trkpt lat="42.3733710" lon="-7.2886420">
        <ele>879.2</ele>
        <time>2014-10-01T16:55:44Z</time>
      </trkpt>
      <trkpt lat="42.3734030" lon="-7.2887170">
        <ele>879.4</ele>
        <time>2014-10-01T16:55:45Z</time>
      </trkpt>
      <trkpt lat="42.3734340" lon="-7.2887880">
        <ele>879.6</ele>
        <time>2014-10-01T16:55:46Z</time>
      </trkpt>
      <trkpt lat="42.3734680" lon="-7.2888550">
        <ele>879.7</ele>
        <time>2014-10-01T16:55:47Z</time>
      </trkpt>
      <trkpt lat="42.3734950" lon="-7.2889140">
        <ele>879.9</ele>
        <time>2014-10-01T16:55:48Z</time>
      </trkpt>
      <trkpt lat="42.3735230" lon="-7.2889700">
        <ele>880.1</ele>
        <time>2014-10-01T16:55:49Z</time>
      </trkpt>
      <trkpt lat="42.3735520" lon="-7.2890280">
        <ele>880.3</ele>
        <time>2014-10-01T16:55:50Z</time>
      </trkpt>
      <trkpt lat="42.3735810" lon="-7.2890840">
        <ele>880.5</ele>
        <time>2014-10-01T16:55:51Z</time>
      </trkpt>
      <trkpt lat="42.3736130" lon="-7.2891400">
        <ele>880.6</ele>
        <time>2014-10-01T16:55:52Z</time>
      </trkpt>
      <trkpt lat="42.3736440" lon="-7.2891900">
        <ele>880.8</ele>
        <time>2014-10-01T16:55:53Z</time>
      </trkpt>
      <trkpt lat="42.3736710" lon="-7.2892360">
        <ele>880.9</ele>
        <time>2014-10-01T16:55:54Z</time>
      </trkpt>
      <trkpt lat="42.3736960" lon="-7.2892840">
        <ele>881.0</ele>
        <time>2014-10-01T16:55:55Z</time>
      </trkpt>
      <trkpt lat="42.3737140" lon="-7.2893400">
        <ele>881.2</ele>
        <time>2014-10-01T16:55:56Z</time>
      </trkpt>
      <trkpt lat="42.3737240" lon="-7.2894030">
        <ele>881.4</ele>
        <time>2014-10-01T16:55:57Z</time>
      </trkpt>
      <trkpt lat="42.3737200" lon="-7.2894600">
        <ele>881.5</ele>
        <time>2014-10-01T16:55:58Z</time>
      </trkpt>
      <trkpt lat="42.3737030" lon="-7.2895170">
        <ele>881.5</ele>
        <time>2014-10-01T16:55:59Z</time>
      </trkpt>
      <trkpt lat="42.3736820" lon="-7.2895710">
        <ele>881.6</ele>
        <time>2014-10-01T16:56:00Z</time>
      </trkpt>
      <trkpt lat="42.3736560" lon="-7.2896230">
        <ele>881.7</ele>
        <time>2014-10-01T16:56:01Z</time>
      </trkpt>
      <trkpt lat="42.3736190" lon="-7.2896700">
        <ele>881.8</ele>
        <time>2014-10-01T16:56:02Z</time>
      </trkpt>
      <trkpt lat="42.3735810" lon="-7.2897190">
        <ele>882.2</ele>
        <time>2014-10-01T16:56:03Z</time>
      </trkpt>
      <trkpt lat="42.3735440" lon="-7.2897610">
        <ele>882.6</ele>
        <time>2014-10-01T16:56:04Z</time>
      </trkpt>
      <trkpt lat="42.3735080" lon="-7.2897970">
        <ele>883.0</ele>
        <time>2014-10-01T16:56:05Z</time>
      </trkpt>
      <trkpt lat="42.3734730" lon="-7.2898340">
        <ele>883.4</ele>
        <time>2014-10-01T16:56:06Z</time>
      </trkpt>
      <trkpt lat="42.3734410" lon="-7.2898660">
        <ele>883.8</ele>
        <time>2014-10-01T16:56:07Z</time>
      </trkpt>
      <trkpt lat="42.3734180" lon="-7.2898870">
        <ele>884.0</ele>
        <time>2014-10-01T16:56:08Z</time>
      </trkpt>
      <trkpt lat="42.3733780" lon="-7.2899280">
        <ele>884.6</ele>
        <time>2014-10-01T16:56:10Z</time>
      </trkpt>
      <trkpt lat="42.3733530" lon="-7.2899550">
        <ele>884.9</ele>
        <time>2014-10-01T16:56:11Z</time>
      </trkpt>
      <trkpt lat="42.3733310" lon="-7.2899920">
        <ele>885.3</ele>
        <time>2014-10-01T16:56:12Z</time>
      </trkpt>
      <trkpt lat="42.3733130" lon="-7.2900310">
        <ele>885.6</ele>
        <time>2014-10-01T16:56:13Z</time>
      </trkpt>
      <trkpt lat="42.3733000" lon="-7.2900660">
        <ele>885.9</ele>
        <time>2014-10-01T16:56:14Z</time>
      </trkpt>
      <trkpt lat="42.3732880" lon="-7.2901030">
        <ele>886.1</ele>
        <time>2014-10-01T16:56:15Z</time>
      </trkpt>
      <trkpt lat="42.3732800" lon="-7.2901460">
        <ele>886.4</ele>
        <time>2014-10-01T16:56:16Z</time>
      </trkpt>
      <trkpt lat="42.3732720" lon="-7.2901930">
        <ele>886.6</ele>
        <time>2014-10-01T16:56:17Z</time>
      </trkpt>
      <trkpt lat="42.3732640" lon="-7.2902420">
        <ele>886.9</ele>
        <time>2014-10-01T16:56:18Z</time>
      </trkpt>
      <trkpt lat="42.3732610" lon="-7.2902890">
        <ele>887.1</ele>
        <time>2014-10-01T16:56:19Z</time>
      </trkpt>
      <trkpt lat="42.3732600" lon="-7.2903380">
        <ele>887.3</ele>
        <time>2014-10-01T16:56:20Z</time>
      </trkpt>
      <trkpt lat="42.3732610" lon="-7.2903900">
        <ele>887.4</ele>
        <time>2014-10-01T16:56:21Z</time>
      </trkpt>
      <trkpt lat="42.3732630" lon="-7.2904410">
        <ele>887.6</ele>
        <time>2014-10-01T16:56:22Z</time>
      </trkpt>
      <trkpt lat="42.3732650" lon="-7.2905010">
        <ele>887.7</ele>
        <time>2014-10-01T16:56:23Z</time>
      </trkpt>
      <trkpt lat="42.3732710" lon="-7.2905580">
        <ele>887.8</ele>
        <time>2014-10-01T16:56:24Z</time>
      </trkpt>
      <trkpt lat="42.3732780" lon="-7.2906150">
        <ele>887.9</ele>
        <time>2014-10-01T16:56:25Z</time>
      </trkpt>
      <trkpt lat="42.3732860" lon="-7.2906740">
        <ele>887.9</ele>
        <time>2014-10-01T16:56:26Z</time>
      </trkpt>
      <trkpt lat="42.3732940" lon="-7.2907310">
        <ele>887.9</ele>
        <time>2014-10-01T16:56:27Z</time>
      </trkpt>
      <trkpt lat="42.3733030" lon="-7.2907920">
        <ele>888.0</ele>
        <time>2014-10-01T16:56:28Z</time>
      </trkpt>
      <trkpt lat="42.3733100" lon="-7.2908450">
        <ele>888.0</ele>
        <time>2014-10-01T16:56:29Z</time>
      </trkpt>
      <trkpt lat="42.3733210" lon="-7.2909000">
        <ele>888.0</ele>
        <time>2014-10-01T16:56:30Z</time>
      </trkpt>
      <trkpt lat="42.3733310" lon="-7.2909570">
        <ele>888.1</ele>
        <time>2014-10-01T16:56:31Z</time>
      </trkpt>
      <trkpt lat="42.3733390" lon="-7.2910140">
        <ele>888.1</ele>
        <time>2014-10-01T16:56:32Z</time>
      </trkpt>
      <trkpt lat="42.3733420" lon="-7.2910740">
        <ele>888.1</ele>
        <time>2014-10-01T16:56:33Z</time>
      </trkpt>
      <trkpt lat="42.3733320" lon="-7.2911370">
        <ele>888.0</ele>
        <time>2014-10-01T16:56:34Z</time>
      </trkpt>
      <trkpt lat="42.3733080" lon="-7.2911980">
        <ele>887.9</ele>
        <time>2014-10-01T16:56:35Z</time>
      </trkpt>
      <trkpt lat="42.3732690" lon="-7.2912550">
        <ele>887.8</ele>
        <time>2014-10-01T16:56:36Z</time>
      </trkpt>
      <trkpt lat="42.3732260" lon="-7.2913090">
        <ele>887.6</ele>
        <time>2014-10-01T16:56:37Z</time>
      </trkpt>
      <trkpt lat="42.3731740" lon="-7.2913440">
        <ele>887.6</ele>
        <time>2014-10-01T16:56:38Z</time>
      </trkpt>
      <trkpt lat="42.3731340" lon="-7.2913670">
        <ele>887.6</ele>
        <time>2014-10-01T16:56:39Z</time>
      </trkpt>
      <trkpt lat="42.3730860" lon="-7.2913880">
        <ele>887.6</ele>
        <time>2014-10-01T16:56:40Z</time>
      </trkpt>
      <trkpt lat="42.3730330" lon="-7.2914060">
        <ele>887.7</ele>
        <time>2014-10-01T16:56:41Z</time>
      </trkpt>
      <trkpt lat="42.3729750" lon="-7.2914240">
        <ele>887.9</ele>
        <time>2014-10-01T16:56:42Z</time>
      </trkpt>
      <trkpt lat="42.3729110" lon="-7.2914410">
        <ele>888.1</ele>
        <time>2014-10-01T16:56:43Z</time>
      </trkpt>
      <trkpt lat="42.3728510" lon="-7.2914540">
        <ele>888.3</ele>
        <time>2014-10-01T16:56:44Z</time>
      </trkpt>
      <trkpt lat="42.3727970" lon="-7.2914640">
        <ele>888.5</ele>
        <time>2014-10-01T16:56:45Z</time>
      </trkpt>
      <trkpt lat="42.3727500" lon="-7.2914710">
        <ele>888.6</ele>
        <time>2014-10-01T16:56:46Z</time>
      </trkpt>
      <trkpt lat="42.3727010" lon="-7.2914800">
        <ele>888.8</ele>
        <time>2014-10-01T16:56:47Z</time>
      </trkpt>
      <trkpt lat="42.3726570" lon="-7.2914890">
        <ele>889.0</ele>
        <time>2014-10-01T16:56:48Z</time>
      </trkpt>
      <trkpt lat="42.3726120" lon="-7.2915040">
        <ele>889.1</ele>
        <time>2014-10-01T16:56:49Z</time>
      </trkpt>
      <trkpt lat="42.3725680" lon="-7.2915240">
        <ele>889.3</ele>
        <time>2014-10-01T16:56:50Z</time>
      </trkpt>
      <trkpt lat="42.3725280" lon="-7.2915570">
        <ele>889.3</ele>
        <time>2014-10-01T16:56:51Z</time>
      </trkpt>
      <trkpt lat="42.3724860" lon="-7.2915960">
        <ele>889.4</ele>
        <time>2014-10-01T16:56:52Z</time>
      </trkpt>
      <trkpt lat="42.3724470" lon="-7.2916360">
        <ele>889.4</ele>
        <time>2014-10-01T16:56:53Z</time>
      </trkpt>
      <trkpt lat="42.3724080" lon="-7.2916790">
        <ele>889.4</ele>
        <time>2014-10-01T16:56:54Z</time>
      </trkpt>
      <trkpt lat="42.3723710" lon="-7.2917260">
        <ele>889.4</ele>
        <time>2014-10-01T16:56:55Z</time>
      </trkpt>
      <trkpt lat="42.3723330" lon="-7.2917760">
        <ele>889.5</ele>
        <time>2014-10-01T16:56:56Z</time>
      </trkpt>
      <trkpt lat="42.3722970" lon="-7.2918300">
        <ele>889.7</ele>
        <time>2014-10-01T16:56:57Z</time>
      </trkpt>
      <trkpt lat="42.3722610" lon="-7.2918880">
        <ele>889.8</ele>
        <time>2014-10-01T16:56:58Z</time>
      </trkpt>
      <trkpt lat="42.3722280" lon="-7.2919470">
        <ele>890.0</ele>
        <time>2014-10-01T16:56:59Z</time>
      </trkpt>
      <trkpt lat="42.3721970" lon="-7.2920030">
        <ele>890.2</ele>
        <time>2014-10-01T16:57:00Z</time>
      </trkpt>
      <trkpt lat="42.3721670" lon="-7.2920600">
        <ele>890.4</ele>
        <time>2014-10-01T16:57:01Z</time>
      </trkpt>
      <trkpt lat="42.3721370" lon="-7.2921140">
        <ele>890.7</ele>
        <time>2014-10-01T16:57:02Z</time>
      </trkpt>
      <trkpt lat="42.3721080" lon="-7.2921690">
        <ele>891.1</ele>
        <time>2014-10-01T16:57:03Z</time>
      </trkpt>
      <trkpt lat="42.3720790" lon="-7.2922250">
        <ele>891.5</ele>
        <time>2014-10-01T16:57:04Z</time>
      </trkpt>
      <trkpt lat="42.3720530" lon="-7.2922800">
        <ele>891.9</ele>
        <time>2014-10-01T16:57:05Z</time>
      </trkpt>
      <trkpt lat="42.3720310" lon="-7.2923230">
        <ele>892.3</ele>
        <time>2014-10-01T16:57:06Z</time>
      </trkpt>
      <trkpt lat="42.3720080" lon="-7.2923700">
        <ele>892.7</ele>
        <time>2014-10-01T16:57:07Z</time>
      </trkpt>
      <trkpt lat="42.3719840" lon="-7.2924220">
        <ele>893.2</ele>
        <time>2014-10-01T16:57:08Z</time>
      </trkpt>
      <trkpt lat="42.3719680" lon="-7.2924600">
        <ele>893.5</ele>
        <time>2014-10-01T16:57:09Z</time>
      </trkpt>
      <trkpt lat="42.3719510" lon="-7.2925040">
        <ele>893.8</ele>
        <time>2014-10-01T16:57:10Z</time>
      </trkpt>
      <trkpt lat="42.3719460" lon="-7.2925480">
        <ele>894.1</ele>
        <time>2014-10-01T16:57:11Z</time>
      </trkpt>
      <trkpt lat="42.3719510" lon="-7.2925880">
        <ele>894.3</ele>
        <time>2014-10-01T16:57:12Z</time>
      </trkpt>
      <trkpt lat="42.3719820" lon="-7.2926320">
        <ele>895.6</ele>
        <time>2014-10-01T16:57:14Z</time>
      </trkpt>
      <trkpt lat="42.3720330" lon="-7.2926030">
        <ele>895.8</ele>
        <time>2014-10-01T16:57:16Z</time>
      </trkpt>
      <trkpt lat="42.3720610" lon="-7.2925740">
        <ele>896.0</ele>
        <time>2014-10-01T16:57:17Z</time>
      </trkpt>
      <trkpt lat="42.3720880" lon="-7.2925450">
        <ele>896.2</ele>
        <time>2014-10-01T16:57:18Z</time>
      </trkpt>
      <trkpt lat="42.3721150" lon="-7.2925150">
        <ele>896.4</ele>
        <time>2014-10-01T16:57:19Z</time>
      </trkpt>
      <trkpt lat="42.3721380" lon="-7.2924860">
        <ele>896.5</ele>
        <time>2014-10-01T16:57:20Z</time>
      </trkpt>
      <trkpt lat="42.3721600" lon="-7.2924570">
        <ele>896.7</ele>
        <time>2014-10-01T16:57:21Z</time>
      </trkpt>
      <trkpt lat="42.3721820" lon="-7.2924280">
        <ele>896.8</ele>
        <time>2014-10-01T16:57:22Z</time>
      </trkpt>
      <trkpt lat="42.3722060" lon="-7.2924080">
        <ele>896.9</ele>
        <time>2014-10-01T16:57:23Z</time>
      </trkpt>
      <trkpt lat="42.3722320" lon="-7.2923860">
        <ele>897.1</ele>
        <time>2014-10-01T16:57:24Z</time>
      </trkpt>
      <trkpt lat="42.3722570" lon="-7.2923630">
        <ele>897.3</ele>
        <time>2014-10-01T16:57:25Z</time>
      </trkpt>
      <trkpt lat="42.3722830" lon="-7.2923390">
        <ele>897.4</ele>
        <time>2014-10-01T16:57:26Z</time>
      </trkpt>
      <trkpt lat="42.3723090" lon="-7.2923130">
        <ele>897.6</ele>
        <time>2014-10-01T16:57:27Z</time>
      </trkpt>
      <trkpt lat="42.3723350" lon="-7.2922890">
        <ele>897.8</ele>
        <time>2014-10-01T16:57:28Z</time>
      </trkpt>
      <trkpt lat="42.3723610" lon="-7.2922690">
        <ele>898.0</ele>
        <time>2014-10-01T16:57:29Z</time>
      </trkpt>
      <trkpt lat="42.3723880" lon="-7.2922480">
        <ele>898.1</ele>
        <time>2014-10-01T16:57:30Z</time>
      </trkpt>
      <trkpt lat="42.3724150" lon="-7.2922280">
        <ele>898.3</ele>
        <time>2014-10-01T16:57:31Z</time>
      </trkpt>
      <trkpt lat="42.3724430" lon="-7.2922070">
        <ele>898.5</ele>
        <time>2014-10-01T16:57:32Z</time>
      </trkpt>
      <trkpt lat="42.3724700" lon="-7.2921850">
        <ele>898.7</ele>
        <time>2014-10-01T16:57:33Z</time>
      </trkpt>
      <trkpt lat="42.3724950" lon="-7.2921650">
        <ele>898.9</ele>
        <time>2014-10-01T16:57:34Z</time>
      </trkpt>
      <trkpt lat="42.3725210" lon="-7.2921470">
        <ele>899.1</ele>
        <time>2014-10-01T16:57:35Z</time>
      </trkpt>
      <trkpt lat="42.3725460" lon="-7.2921330">
        <ele>899.3</ele>
        <time>2014-10-01T16:57:36Z</time>
      </trkpt>
      <trkpt lat="42.3725970" lon="-7.2921110">
        <ele>899.6</ele>
        <time>2014-10-01T16:57:38Z</time>
      </trkpt>
      <trkpt lat="42.3726300" lon="-7.2920980">
        <ele>899.9</ele>
        <time>2014-10-01T16:57:39Z</time>
      </trkpt>
      <trkpt lat="42.3726590" lon="-7.2920910">
        <ele>900.1</ele>
        <time>2014-10-01T16:57:40Z</time>
      </trkpt>
      <trkpt lat="42.3726940" lon="-7.2920840">
        <ele>900.3</ele>
        <time>2014-10-01T16:57:41Z</time>
      </trkpt>
      <trkpt lat="42.3727280" lon="-7.2920790">
        <ele>900.6</ele>
        <time>2014-10-01T16:57:42Z</time>
      </trkpt>
      <trkpt lat="42.3727550" lon="-7.2920780">
        <ele>900.8</ele>
        <time>2014-10-01T16:57:43Z</time>
      </trkpt>
      <trkpt lat="42.3727860" lon="-7.2920790">
        <ele>901.0</ele>
        <time>2014-10-01T16:57:44Z</time>
      </trkpt>
      <trkpt lat="42.3728180" lon="-7.2920820">
        <ele>901.2</ele>
        <time>2014-10-01T16:57:45Z</time>
      </trkpt>
      <trkpt lat="42.3728510" lon="-7.2920820">
        <ele>901.5</ele>
        <time>2014-10-01T16:57:46Z</time>
      </trkpt>
      <trkpt lat="42.3728790" lon="-7.2920800">
        <ele>901.7</ele>
        <time>2014-10-01T16:57:47Z</time>
      </trkpt>
      <trkpt lat="42.3729070" lon="-7.2920790">
        <ele>901.9</ele>
        <time>2014-10-01T16:57:48Z</time>
      </trkpt>
      <trkpt lat="42.3729350" lon="-7.2920810">
        <ele>902.1</ele>
        <time>2014-10-01T16:57:49Z</time>
      </trkpt>
      <trkpt lat="42.3729640" lon="-7.2920820">
        <ele>902.3</ele>
        <time>2014-10-01T16:57:50Z</time>
      </trkpt>
      <trkpt lat="42.3729930" lon="-7.2920850">
        <ele>902.5</ele>
        <time>2014-10-01T16:57:51Z</time>
      </trkpt>
      <trkpt lat="42.3730250" lon="-7.2920930">
        <ele>902.7</ele>
        <time>2014-10-01T16:57:52Z</time>
      </trkpt>
      <trkpt lat="42.3730580" lon="-7.2921030">
        <ele>902.9</ele>
        <time>2014-10-01T16:57:53Z</time>
      </trkpt>
      <trkpt lat="42.3730880" lon="-7.2921130">
        <ele>903.1</ele>
        <time>2014-10-01T16:57:54Z</time>
      </trkpt>
      <trkpt lat="42.3731200" lon="-7.2921230">
        <ele>903.4</ele>
        <time>2014-10-01T16:57:55Z</time>
      </trkpt>
      <trkpt lat="42.3731480" lon="-7.2921350">
        <ele>903.6</ele>
        <time>2014-10-01T16:57:56Z</time>
      </trkpt>
      <trkpt lat="42.3731750" lon="-7.2921500">
        <ele>903.8</ele>
        <time>2014-10-01T16:57:57Z</time>
      </trkpt>
      <trkpt lat="42.3732020" lon="-7.2921640">
        <ele>904.0</ele>
        <time>2014-10-01T16:57:58Z</time>
      </trkpt>
      <trkpt lat="42.3732270" lon="-7.2921780">
        <ele>904.2</ele>
        <time>2014-10-01T16:57:59Z</time>
      </trkpt>
      <trkpt lat="42.3732550" lon="-7.2921940">
        <ele>904.5</ele>
        <time>2014-10-01T16:58:00Z</time>
      </trkpt>
      <trkpt lat="42.3732800" lon="-7.2922100">
        <ele>904.7</ele>
        <time>2014-10-01T16:58:01Z</time>
      </trkpt>
      <trkpt lat="42.3733270" lon="-7.2922400">
        <ele>905.1</ele>
        <time>2014-10-01T16:58:03Z</time>
      </trkpt>
      <trkpt lat="42.3733680" lon="-7.2922830">
        <ele>905.5</ele>
        <time>2014-10-01T16:58:05Z</time>
      </trkpt>
      <trkpt lat="42.3733930" lon="-7.2923030">
        <ele>905.7</ele>
        <time>2014-10-01T16:58:06Z</time>
      </trkpt>
      <trkpt lat="42.3734140" lon="-7.2923270">
        <ele>906.0</ele>
        <time>2014-10-01T16:58:07Z</time>
      </trkpt>
      <trkpt lat="42.3734540" lon="-7.2923760">
        <ele>906.4</ele>
        <time>2014-10-01T16:58:09Z</time>
      </trkpt>
      <trkpt lat="42.3734780" lon="-7.2924010">
        <ele>906.7</ele>
        <time>2014-10-01T16:58:10Z</time>
      </trkpt>
      <trkpt lat="42.3735010" lon="-7.2924230">
        <ele>906.9</ele>
        <time>2014-10-01T16:58:11Z</time>
      </trkpt>
      <trkpt lat="42.3735280" lon="-7.2924470">
        <ele>907.2</ele>
        <time>2014-10-01T16:58:12Z</time>
      </trkpt>
      <trkpt lat="42.3735520" lon="-7.2924720">
        <ele>907.5</ele>
        <time>2014-10-01T16:58:13Z</time>
      </trkpt>
      <trkpt lat="42.3735770" lon="-7.2924960">
        <ele>907.7</ele>
        <time>2014-10-01T16:58:14Z</time>
      </trkpt>
      <trkpt lat="42.3736050" lon="-7.2925210">
        <ele>908.0</ele>
        <time>2014-10-01T16:58:15Z</time>
      </trkpt>
      <trkpt lat="42.3736310" lon="-7.2925430">
        <ele>908.2</ele>
        <time>2014-10-01T16:58:16Z</time>
      </trkpt>
      <trkpt lat="42.3736560" lon="-7.2925630">
        <ele>908.4</ele>
        <time>2014-10-01T16:58:17Z</time>
      </trkpt>
      <trkpt lat="42.3736840" lon="-7.2925860">
        <ele>908.6</ele>
        <time>2014-10-01T16:58:18Z</time>
      </trkpt>
      <trkpt lat="42.3737280" lon="-7.2926280">
        <ele>909.0</ele>
        <time>2014-10-01T16:58:20Z</time>
      </trkpt>
      <trkpt lat="42.3737550" lon="-7.2926430">
        <ele>909.3</ele>
        <time>2014-10-01T16:58:21Z</time>
      </trkpt>
      <trkpt lat="42.3737880" lon="-7.2926610">
        <ele>909.5</ele>
        <time>2014-10-01T16:58:22Z</time>
      </trkpt>
      <trkpt lat="42.3738270" lon="-7.2926770">
        <ele>909.8</ele>
        <time>2014-10-01T16:58:23Z</time>
      </trkpt>
      <trkpt lat="42.3738640" lon="-7.2926910">
        <ele>910.0</ele>
        <time>2014-10-01T16:58:24Z</time>
      </trkpt>
      <trkpt lat="42.3738950" lon="-7.2927000">
        <ele>910.2</ele>
        <time>2014-10-01T16:58:25Z</time>
      </trkpt>
      <trkpt lat="42.3739490" lon="-7.2927070">
        <ele>910.6</ele>
        <time>2014-10-01T16:58:27Z</time>
      </trkpt>
      <trkpt lat="42.3739960" lon="-7.2927060">
        <ele>910.9</ele>
        <time>2014-10-01T16:58:29Z</time>
      </trkpt>
      <trkpt lat="42.3740380" lon="-7.2927040">
        <ele>911.2</ele>
        <time>2014-10-01T16:58:31Z</time>
      </trkpt>
      <trkpt lat="42.3740850" lon="-7.2926990">
        <ele>911.6</ele>
        <time>2014-10-01T16:58:33Z</time>
      </trkpt>
      <trkpt lat="42.3741160" lon="-7.2926920">
        <ele>911.8</ele>
        <time>2014-10-01T16:58:34Z</time>
      </trkpt>
      <trkpt lat="42.3741490" lon="-7.2926850">
        <ele>912.1</ele>
        <time>2014-10-01T16:58:35Z</time>
      </trkpt>
      <trkpt lat="42.3741790" lon="-7.2926810">
        <ele>912.4</ele>
        <time>2014-10-01T16:58:36Z</time>
      </trkpt>
      <trkpt lat="42.3742060" lon="-7.2926730">
        <ele>912.6</ele>
        <time>2014-10-01T16:58:37Z</time>
      </trkpt>
      <trkpt lat="42.3742600" lon="-7.2926690">
        <ele>913.2</ele>
        <time>2014-10-01T16:58:39Z</time>
      </trkpt>
      <trkpt lat="42.3743110" lon="-7.2926600">
        <ele>913.7</ele>
        <time>2014-10-01T16:58:41Z</time>
      </trkpt>
      <trkpt lat="42.3743600" lon="-7.2926410">
        <ele>914.1</ele>
        <time>2014-10-01T16:58:43Z</time>
      </trkpt>
      <trkpt lat="42.3743880" lon="-7.2926280">
        <ele>914.4</ele>
        <time>2014-10-01T16:58:44Z</time>
      </trkpt>
      <trkpt lat="42.3744190" lon="-7.2926150">
        <ele>914.7</ele>
        <time>2014-10-01T16:58:45Z</time>
      </trkpt>
      <trkpt lat="42.3744470" lon="-7.2926020">
        <ele>915.0</ele>
        <time>2014-10-01T16:58:46Z</time>
      </trkpt>
      <trkpt lat="42.3744730" lon="-7.2925890">
        <ele>915.2</ele>
        <time>2014-10-01T16:58:47Z</time>
      </trkpt>
      <trkpt lat="42.3744990" lon="-7.2925750">
        <ele>915.4</ele>
        <time>2014-10-01T16:58:48Z</time>
      </trkpt>
      <trkpt lat="42.3745460" lon="-7.2925360">
        <ele>915.7</ele>
        <time>2014-10-01T16:58:50Z</time>
      </trkpt>
      <trkpt lat="42.3745690" lon="-7.2925140">
        <ele>915.9</ele>
        <time>2014-10-01T16:58:51Z</time>
      </trkpt>
      <trkpt lat="42.3746150" lon="-7.2924740">
        <ele>916.2</ele>
        <time>2014-10-01T16:58:53Z</time>
      </trkpt>
      <trkpt lat="42.3746360" lon="-7.2924500">
        <ele>916.3</ele>
        <time>2014-10-01T16:58:54Z</time>
      </trkpt>
      <trkpt lat="42.3746560" lon="-7.2924250">
        <ele>916.5</ele>
        <time>2014-10-01T16:58:55Z</time>
      </trkpt>
      <trkpt lat="42.3746990" lon="-7.2923750">
        <ele>916.8</ele>
        <time>2014-10-01T16:58:57Z</time>
      </trkpt>
      <trkpt lat="42.3747240" lon="-7.2923500">
        <ele>917.0</ele>
        <time>2014-10-01T16:58:58Z</time>
      </trkpt>
      <trkpt lat="42.3747680" lon="-7.2923100">
        <ele>917.3</ele>
        <time>2014-10-01T16:59:00Z</time>
      </trkpt>
      <trkpt lat="42.3748150" lon="-7.2922870">
        <ele>917.5</ele>
        <time>2014-10-01T16:59:02Z</time>
      </trkpt>
      <trkpt lat="42.3748630" lon="-7.2922630">
        <ele>917.8</ele>
        <time>2014-10-01T16:59:04Z</time>
      </trkpt>
      <trkpt lat="42.3749100" lon="-7.2922460">
        <ele>918.1</ele>
        <time>2014-10-01T16:59:06Z</time>
      </trkpt>
      <trkpt lat="42.3749380" lon="-7.2922370">
        <ele>918.3</ele>
        <time>2014-10-01T16:59:07Z</time>
      </trkpt>
      <trkpt lat="42.3749900" lon="-7.2922220">
        <ele>918.6</ele>
        <time>2014-10-01T16:59:09Z</time>
      </trkpt>
      <trkpt lat="42.3750180" lon="-7.2922130">
        <ele>918.8</ele>
        <time>2014-10-01T16:59:10Z</time>
      </trkpt>
      <trkpt lat="42.3750460" lon="-7.2922010">
        <ele>918.9</ele>
        <time>2014-10-01T16:59:11Z</time>
      </trkpt>
      <trkpt lat="42.3750780" lon="-7.2921900">
        <ele>919.1</ele>
        <time>2014-10-01T16:59:12Z</time>
      </trkpt>
      <trkpt lat="42.3751080" lon="-7.2921820">
        <ele>919.3</ele>
        <time>2014-10-01T16:59:13Z</time>
      </trkpt>
      <trkpt lat="42.3751410" lon="-7.2921770">
        <ele>919.5</ele>
        <time>2014-10-01T16:59:14Z</time>
      </trkpt>
      <trkpt lat="42.3751700" lon="-7.2921730">
        <ele>919.7</ele>
        <time>2014-10-01T16:59:15Z</time>
      </trkpt>
      <trkpt lat="42.3751990" lon="-7.2921690">
        <ele>919.9</ele>
        <time>2014-10-01T16:59:16Z</time>
      </trkpt>
      <trkpt lat="42.3752310" lon="-7.2921640">
        <ele>920.1</ele>
        <time>2014-10-01T16:59:17Z</time>
      </trkpt>
      <trkpt lat="42.3752590" lon="-7.2921600">
        <ele>920.3</ele>
        <time>2014-10-01T16:59:18Z</time>
      </trkpt>
      <trkpt lat="42.3752890" lon="-7.2921540">
        <ele>920.5</ele>
        <time>2014-10-01T16:59:19Z</time>
      </trkpt>
      <trkpt lat="42.3753190" lon="-7.2921500">
        <ele>920.6</ele>
        <time>2014-10-01T16:59:20Z</time>
      </trkpt>
      <trkpt lat="42.3753640" lon="-7.2921460">
        <ele>920.9</ele>
        <time>2014-10-01T16:59:22Z</time>
      </trkpt>
      <trkpt lat="42.3754150" lon="-7.2921440">
        <ele>921.2</ele>
        <time>2014-10-01T16:59:24Z</time>
      </trkpt>
      <trkpt lat="42.3754710" lon="-7.2921380">
        <ele>921.5</ele>
        <time>2014-10-01T16:59:26Z</time>
      </trkpt>
      <trkpt lat="42.3755260" lon="-7.2921430">
        <ele>921.9</ele>
        <time>2014-10-01T16:59:28Z</time>
      </trkpt>
      <trkpt lat="42.3755560" lon="-7.2921440">
        <ele>922.0</ele>
        <time>2014-10-01T16:59:29Z</time>
      </trkpt>
      <trkpt lat="42.3755880" lon="-7.2921440">
        <ele>922.2</ele>
        <time>2014-10-01T16:59:30Z</time>
      </trkpt>
      <trkpt lat="42.3756230" lon="-7.2921390">
        <ele>922.4</ele>
        <time>2014-10-01T16:59:31Z</time>
      </trkpt>
      <trkpt lat="42.3756560" lon="-7.2921370">
        <ele>922.6</ele>
        <time>2014-10-01T16:59:32Z</time>
      </trkpt>
      <trkpt lat="42.3756910" lon="-7.2921320">
        <ele>922.7</ele>
        <time>2014-10-01T16:59:33Z</time>
      </trkpt>
      <trkpt lat="42.3757220" lon="-7.2921270">
        <ele>922.9</ele>
        <time>2014-10-01T16:59:34Z</time>
      </trkpt>
      <trkpt lat="42.3757480" lon="-7.2921240">
        <ele>923.0</ele>
        <time>2014-10-01T16:59:35Z</time>
      </trkpt>
      <trkpt lat="42.3757790" lon="-7.2921220">
        <ele>923.1</ele>
        <time>2014-10-01T16:59:36Z</time>
      </trkpt>
      <trkpt lat="42.3758130" lon="-7.2921170">
        <ele>923.2</ele>
        <time>2014-10-01T16:59:37Z</time>
      </trkpt>
      <trkpt lat="42.3758570" lon="-7.2921090">
        <ele>923.4</ele>
        <time>2014-10-01T16:59:38Z</time>
      </trkpt>
      <trkpt lat="42.3758990" lon="-7.2921030">
        <ele>923.6</ele>
        <time>2014-10-01T16:59:39Z</time>
      </trkpt>
      <trkpt lat="42.3759350" lon="-7.2920960">
        <ele>923.7</ele>
        <time>2014-10-01T16:59:40Z</time>
      </trkpt>
      <trkpt lat="42.3759700" lon="-7.2920890">
        <ele>923.8</ele>
        <time>2014-10-01T16:59:41Z</time>
      </trkpt>
      <trkpt lat="42.3760050" lon="-7.2920840">
        <ele>923.9</ele>
        <time>2014-10-01T16:59:42Z</time>
      </trkpt>
      <trkpt lat="42.3760420" lon="-7.2920750">
        <ele>924.1</ele>
        <time>2014-10-01T16:59:43Z</time>
      </trkpt>
      <trkpt lat="42.3761000" lon="-7.2920670">
        <ele>924.3</ele>
        <time>2014-10-01T16:59:45Z</time>
      </trkpt>
      <trkpt lat="42.3761370" lon="-7.2920600">
        <ele>924.4</ele>
        <time>2014-10-01T16:59:46Z</time>
      </trkpt>
      <trkpt lat="42.3761770" lon="-7.2920550">
        <ele>924.5</ele>
        <time>2014-10-01T16:59:47Z</time>
      </trkpt>
      <trkpt lat="42.3762190" lon="-7.2920490">
        <ele>924.6</ele>
        <time>2014-10-01T16:59:48Z</time>
      </trkpt>
      <trkpt lat="42.3762620" lon="-7.2920450">
        <ele>924.8</ele>
        <time>2014-10-01T16:59:49Z</time>
      </trkpt>
      <trkpt lat="42.3762960" lon="-7.2920390">
        <ele>924.9</ele>
        <time>2014-10-01T16:59:50Z</time>
      </trkpt>
      <trkpt lat="42.3763280" lon="-7.2920350">
        <ele>925.0</ele>
        <time>2014-10-01T16:59:51Z</time>
      </trkpt>
      <trkpt lat="42.3763600" lon="-7.2920280">
        <ele>925.2</ele>
        <time>2014-10-01T16:59:52Z</time>
      </trkpt>
      <trkpt lat="42.3763960" lon="-7.2920270">
        <ele>925.3</ele>
        <time>2014-10-01T16:59:53Z</time>
      </trkpt>
      <trkpt lat="42.3764330" lon="-7.2920250">
        <ele>925.5</ele>
        <time>2014-10-01T16:59:54Z</time>
      </trkpt>
      <trkpt lat="42.3764720" lon="-7.2920210">
        <ele>925.7</ele>
        <time>2014-10-01T16:59:55Z</time>
      </trkpt>
      <trkpt lat="42.3765090" lon="-7.2920210">
        <ele>925.8</ele>
        <time>2014-10-01T16:59:56Z</time>
      </trkpt>
      <trkpt lat="42.3765440" lon="-7.2920190">
        <ele>926.0</ele>
        <time>2014-10-01T16:59:57Z</time>
      </trkpt>
      <trkpt lat="42.3765780" lon="-7.2920180">
        <ele>926.2</ele>
        <time>2014-10-01T16:59:58Z</time>
      </trkpt>
      <trkpt lat="42.3766130" lon="-7.2920140">
        <ele>926.4</ele>
        <time>2014-10-01T16:59:59Z</time>
      </trkpt>
      <trkpt lat="42.3766490" lon="-7.2920100">
        <ele>926.5</ele>
        <time>2014-10-01T17:00:00Z</time>
      </trkpt>
      <trkpt lat="42.3766870" lon="-7.2920060">
        <ele>926.7</ele>
        <time>2014-10-01T17:00:01Z</time>
      </trkpt>
      <trkpt lat="42.3767210" lon="-7.2920050">
        <ele>926.9</ele>
        <time>2014-10-01T17:00:02Z</time>
      </trkpt>
      <trkpt lat="42.3767520" lon="-7.2920030">
        <ele>927.0</ele>
        <time>2014-10-01T17:00:03Z</time>
      </trkpt>
      <trkpt lat="42.3767820" lon="-7.2920010">
        <ele>927.1</ele>
        <time>2014-10-01T17:00:04Z</time>
      </trkpt>
      <trkpt lat="42.3768170" lon="-7.2919980">
        <ele>927.3</ele>
        <time>2014-10-01T17:00:05Z</time>
      </trkpt>
      <trkpt lat="42.3768490" lon="-7.2919970">
        <ele>927.5</ele>
        <time>2014-10-01T17:00:06Z</time>
      </trkpt>
      <trkpt lat="42.3768820" lon="-7.2919920">
        <ele>927.6</ele>
        <time>2014-10-01T17:00:07Z</time>
      </trkpt>
      <trkpt lat="42.3769140" lon="-7.2919870">
        <ele>927.8</ele>
        <time>2014-10-01T17:00:08Z</time>
      </trkpt>
      <trkpt lat="42.3769470" lon="-7.2919830">
        <ele>928.0</ele>
        <time>2014-10-01T17:00:09Z</time>
      </trkpt>
      <trkpt lat="42.3769790" lon="-7.2919780">
        <ele>928.1</ele>
        <time>2014-10-01T17:00:10Z</time>
      </trkpt>
      <trkpt lat="42.3770090" lon="-7.2919930">
        <ele>928.3</ele>
        <time>2014-10-01T17:00:11Z</time>
      </trkpt>
      <trkpt lat="42.3770410" lon="-7.2919940">
        <ele>928.4</ele>
        <time>2014-10-01T17:00:12Z</time>
      </trkpt>
      <trkpt lat="42.3770680" lon="-7.2919980">
        <ele>928.5</ele>
        <time>2014-10-01T17:00:13Z</time>
      </trkpt>
      <trkpt lat="42.3771010" lon="-7.2920080">
        <ele>928.6</ele>
        <time>2014-10-01T17:00:14Z</time>
      </trkpt>
      <trkpt lat="42.3771310" lon="-7.2920160">
        <ele>928.7</ele>
        <time>2014-10-01T17:00:15Z</time>
      </trkpt>
      <trkpt lat="42.3771660" lon="-7.2920250">
        <ele>928.9</ele>
        <time>2014-10-01T17:00:16Z</time>
      </trkpt>
      <trkpt lat="42.3772010" lon="-7.2920330">
        <ele>929.0</ele>
        <time>2014-10-01T17:00:17Z</time>
      </trkpt>
      <trkpt lat="42.3772390" lon="-7.2920430">
        <ele>929.1</ele>
        <time>2014-10-01T17:00:18Z</time>
      </trkpt>
      <trkpt lat="42.3772700" lon="-7.2920570">
        <ele>929.2</ele>
        <time>2014-10-01T17:00:19Z</time>
      </trkpt>
      <trkpt lat="42.3772990" lon="-7.2920700">
        <ele>929.3</ele>
        <time>2014-10-01T17:00:20Z</time>
      </trkpt>
      <trkpt lat="42.3773280" lon="-7.2920820">
        <ele>929.5</ele>
        <time>2014-10-01T17:00:21Z</time>
      </trkpt>
      <trkpt lat="42.3773800" lon="-7.2921120">
        <ele>929.7</ele>
        <time>2014-10-01T17:00:23Z</time>
      </trkpt>
      <trkpt lat="42.3774080" lon="-7.2921290">
        <ele>929.9</ele>
        <time>2014-10-01T17:00:24Z</time>
      </trkpt>
      <trkpt lat="42.3774350" lon="-7.2921430">
        <ele>930.0</ele>
        <time>2014-10-01T17:00:25Z</time>
      </trkpt>
      <trkpt lat="42.3774630" lon="-7.2921680">
        <ele>930.2</ele>
        <time>2014-10-01T17:00:26Z</time>
      </trkpt>
      <trkpt lat="42.3774960" lon="-7.2921950">
        <ele>930.3</ele>
        <time>2014-10-01T17:00:27Z</time>
      </trkpt>
      <trkpt lat="42.3775270" lon="-7.2922250">
        <ele>930.4</ele>
        <time>2014-10-01T17:00:28Z</time>
      </trkpt>
      <trkpt lat="42.3775590" lon="-7.2922540">
        <ele>930.4</ele>
        <time>2014-10-01T17:00:29Z</time>
      </trkpt>
      <trkpt lat="42.3775890" lon="-7.2922830">
        <ele>930.3</ele>
        <time>2014-10-01T17:00:30Z</time>
      </trkpt>
      <trkpt lat="42.3776180" lon="-7.2923150">
        <ele>930.3</ele>
        <time>2014-10-01T17:00:31Z</time>
      </trkpt>
      <trkpt lat="42.3776490" lon="-7.2923400">
        <ele>930.3</ele>
        <time>2014-10-01T17:00:32Z</time>
      </trkpt>
      <trkpt lat="42.3776800" lon="-7.2923700">
        <ele>930.3</ele>
        <time>2014-10-01T17:00:33Z</time>
      </trkpt>
      <trkpt lat="42.3777090" lon="-7.2924050">
        <ele>930.3</ele>
        <time>2014-10-01T17:00:34Z</time>
      </trkpt>
      <trkpt lat="42.3777450" lon="-7.2924400">
        <ele>930.4</ele>
        <time>2014-10-01T17:00:35Z</time>
      </trkpt>
      <trkpt lat="42.3777790" lon="-7.2924740">
        <ele>930.5</ele>
        <time>2014-10-01T17:00:36Z</time>
      </trkpt>
      <trkpt lat="42.3778100" lon="-7.2925090">
        <ele>930.6</ele>
        <time>2014-10-01T17:00:37Z</time>
      </trkpt>
      <trkpt lat="42.3778330" lon="-7.2925410">
        <ele>930.7</ele>
        <time>2014-10-01T17:00:38Z</time>
      </trkpt>
      <trkpt lat="42.3778610" lon="-7.2925720">
        <ele>930.9</ele>
        <time>2014-10-01T17:00:39Z</time>
      </trkpt>
      <trkpt lat="42.3778910" lon="-7.2926000">
        <ele>931.1</ele>
        <time>2014-10-01T17:00:40Z</time>
      </trkpt>
      <trkpt lat="42.3779190" lon="-7.2926240">
        <ele>931.2</ele>
        <time>2014-10-01T17:00:41Z</time>
      </trkpt>
      <trkpt lat="42.3779480" lon="-7.2926480">
        <ele>931.5</ele>
        <time>2014-10-01T17:00:42Z</time>
      </trkpt>
      <trkpt lat="42.3779760" lon="-7.2926770">
        <ele>931.7</ele>
        <time>2014-10-01T17:00:43Z</time>
      </trkpt>
      <trkpt lat="42.3780030" lon="-7.2927090">
        <ele>931.9</ele>
        <time>2014-10-01T17:00:44Z</time>
      </trkpt>
      <trkpt lat="42.3780320" lon="-7.2927460">
        <ele>932.2</ele>
        <time>2014-10-01T17:00:45Z</time>
      </trkpt>
      <trkpt lat="42.3780610" lon="-7.2927750">
        <ele>932.5</ele>
        <time>2014-10-01T17:00:46Z</time>
      </trkpt>
      <trkpt lat="42.3780850" lon="-7.2928020">
        <ele>932.7</ele>
        <time>2014-10-01T17:00:47Z</time>
      </trkpt>
      <trkpt lat="42.3781130" lon="-7.2928340">
        <ele>932.8</ele>
        <time>2014-10-01T17:00:48Z</time>
      </trkpt>
      <trkpt lat="42.3781450" lon="-7.2928670">
        <ele>933.0</ele>
        <time>2014-10-01T17:00:49Z</time>
      </trkpt>
      <trkpt lat="42.3781770" lon="-7.2928930">
        <ele>933.2</ele>
        <time>2014-10-01T17:00:50Z</time>
      </trkpt>
      <trkpt lat="42.3782040" lon="-7.2929170">
        <ele>933.3</ele>
        <time>2014-10-01T17:00:51Z</time>
      </trkpt>
      <trkpt lat="42.3782290" lon="-7.2929360">
        <ele>933.5</ele>
        <time>2014-10-01T17:00:52Z</time>
      </trkpt>
      <trkpt lat="42.3782570" lon="-7.2929550">
        <ele>933.6</ele>
        <time>2014-10-01T17:00:53Z</time>
      </trkpt>
      <trkpt lat="42.3782820" lon="-7.2929750">
        <ele>933.7</ele>
        <time>2014-10-01T17:00:54Z</time>
      </trkpt>
      <trkpt lat="42.3783070" lon="-7.2930030">
        <ele>933.9</ele>
        <time>2014-10-01T17:00:55Z</time>
      </trkpt>
      <trkpt lat="42.3783380" lon="-7.2930300">
        <ele>934.1</ele>
        <time>2014-10-01T17:00:56Z</time>
      </trkpt>
      <trkpt lat="42.3783640" lon="-7.2930510">
        <ele>934.2</ele>
        <time>2014-10-01T17:00:57Z</time>
      </trkpt>
      <trkpt lat="42.3783890" lon="-7.2930700">
        <ele>934.3</ele>
        <time>2014-10-01T17:00:58Z</time>
      </trkpt>
      <trkpt lat="42.3784130" lon="-7.2930930">
        <ele>934.5</ele>
        <time>2014-10-01T17:00:59Z</time>
      </trkpt>
      <trkpt lat="42.3784380" lon="-7.2931140">
        <ele>934.7</ele>
        <time>2014-10-01T17:01:00Z</time>
      </trkpt>
      <trkpt lat="42.3784830" lon="-7.2931460">
        <ele>935.0</ele>
        <time>2014-10-01T17:01:02Z</time>
      </trkpt>
      <trkpt lat="42.3785240" lon="-7.2931670">
        <ele>935.3</ele>
        <time>2014-10-01T17:01:04Z</time>
      </trkpt>
      <trkpt lat="42.3785530" lon="-7.2931830">
        <ele>935.5</ele>
        <time>2014-10-01T17:01:05Z</time>
      </trkpt>
      <trkpt lat="42.3785800" lon="-7.2932000">
        <ele>935.7</ele>
        <time>2014-10-01T17:01:06Z</time>
      </trkpt>
      <trkpt lat="42.3786260" lon="-7.2932130">
        <ele>936.1</ele>
        <time>2014-10-01T17:01:08Z</time>
      </trkpt>
      <trkpt lat="42.3786750" lon="-7.2932150">
        <ele>936.6</ele>
        <time>2014-10-01T17:01:10Z</time>
      </trkpt>
      <trkpt lat="42.3787030" lon="-7.2932180">
        <ele>936.8</ele>
        <time>2014-10-01T17:01:11Z</time>
      </trkpt>
      <trkpt lat="42.3787300" lon="-7.2932310">
        <ele>937.1</ele>
        <time>2014-10-01T17:01:12Z</time>
      </trkpt>
      <trkpt lat="42.3787810" lon="-7.2932510">
        <ele>937.7</ele>
        <time>2014-10-01T17:01:14Z</time>
      </trkpt>
      <trkpt lat="42.3788100" lon="-7.2932580">
        <ele>938.0</ele>
        <time>2014-10-01T17:01:15Z</time>
      </trkpt>
      <trkpt lat="42.3788400" lon="-7.2932670">
        <ele>938.3</ele>
        <time>2014-10-01T17:01:16Z</time>
      </trkpt>
      <trkpt lat="42.3788670" lon="-7.2932740">
        <ele>938.6</ele>
        <time>2014-10-01T17:01:17Z</time>
      </trkpt>
      <trkpt lat="42.3788970" lon="-7.2932820">
        <ele>938.9</ele>
        <time>2014-10-01T17:01:18Z</time>
      </trkpt>
      <trkpt lat="42.3789280" lon="-7.2932940">
        <ele>939.3</ele>
        <time>2014-10-01T17:01:19Z</time>
      </trkpt>
      <trkpt lat="42.3789560" lon="-7.2933050">
        <ele>939.6</ele>
        <time>2014-10-01T17:01:20Z</time>
      </trkpt>
      <trkpt lat="42.3790100" lon="-7.2933230">
        <ele>940.2</ele>
        <time>2014-10-01T17:01:22Z</time>
      </trkpt>
      <trkpt lat="42.3790560" lon="-7.2933370">
        <ele>940.7</ele>
        <time>2014-10-01T17:01:24Z</time>
      </trkpt>
      <trkpt lat="42.3790970" lon="-7.2933410">
        <ele>941.1</ele>
        <time>2014-10-01T17:01:26Z</time>
      </trkpt>
      <trkpt lat="42.3791400" lon="-7.2933370">
        <ele>941.5</ele>
        <time>2014-10-01T17:01:28Z</time>
      </trkpt>
      <trkpt lat="42.3791770" lon="-7.2933420">
        <ele>941.8</ele>
        <time>2014-10-01T17:01:30Z</time>
      </trkpt>
      <trkpt lat="42.3792230" lon="-7.2933590">
        <ele>942.2</ele>
        <time>2014-10-01T17:01:32Z</time>
      </trkpt>
      <trkpt lat="42.3792740" lon="-7.2933850">
        <ele>942.6</ele>
        <time>2014-10-01T17:01:34Z</time>
      </trkpt>
      <trkpt lat="42.3793030" lon="-7.2934000">
        <ele>942.8</ele>
        <time>2014-10-01T17:01:35Z</time>
      </trkpt>
      <trkpt lat="42.3793320" lon="-7.2934170">
        <ele>943.1</ele>
        <time>2014-10-01T17:01:36Z</time>
      </trkpt>
      <trkpt lat="42.3793610" lon="-7.2934360">
        <ele>943.3</ele>
        <time>2014-10-01T17:01:37Z</time>
      </trkpt>
      <trkpt lat="42.3793860" lon="-7.2934510">
        <ele>943.4</ele>
        <time>2014-10-01T17:01:38Z</time>
      </trkpt>
      <trkpt lat="42.3794290" lon="-7.2934790">
        <ele>943.8</ele>
        <time>2014-10-01T17:01:40Z</time>
      </trkpt>
      <trkpt lat="42.3794690" lon="-7.2935070">
        <ele>944.1</ele>
        <time>2014-10-01T17:01:42Z</time>
      </trkpt>
      <trkpt lat="42.3795140" lon="-7.2935320">
        <ele>944.4</ele>
        <time>2014-10-01T17:01:44Z</time>
      </trkpt>
      <trkpt lat="42.3795620" lon="-7.2935610">
        <ele>944.7</ele>
        <time>2014-10-01T17:01:46Z</time>
      </trkpt>
      <trkpt lat="42.3796120" lon="-7.2935900">
        <ele>945.1</ele>
        <time>2014-10-01T17:01:48Z</time>
      </trkpt>
      <trkpt lat="42.3796560" lon="-7.2936180">
        <ele>945.4</ele>
        <time>2014-10-01T17:01:50Z</time>
      </trkpt>
      <trkpt lat="42.3796830" lon="-7.2936320">
        <ele>945.5</ele>
        <time>2014-10-01T17:01:51Z</time>
      </trkpt>
      <trkpt lat="42.3797310" lon="-7.2936640">
        <ele>945.9</ele>
        <time>2014-10-01T17:01:53Z</time>
      </trkpt>
      <trkpt lat="42.3797640" lon="-7.2936830">
        <ele>946.1</ele>
        <time>2014-10-01T17:01:54Z</time>
      </trkpt>
      <trkpt lat="42.3797970" lon="-7.2937020">
        <ele>946.4</ele>
        <time>2014-10-01T17:01:55Z</time>
      </trkpt>
      <trkpt lat="42.3798270" lon="-7.2937160">
        <ele>946.6</ele>
        <time>2014-10-01T17:01:56Z</time>
      </trkpt>
      <trkpt lat="42.3798570" lon="-7.2937330">
        <ele>946.9</ele>
        <time>2014-10-01T17:01:57Z</time>
      </trkpt>
      <trkpt lat="42.3798890" lon="-7.2937500">
        <ele>947.1</ele>
        <time>2014-10-01T17:01:58Z</time>
      </trkpt>
      <trkpt lat="42.3799200" lon="-7.2937650">
        <ele>947.4</ele>
        <time>2014-10-01T17:01:59Z</time>
      </trkpt>
      <trkpt lat="42.3799500" lon="-7.2937750">
        <ele>947.6</ele>
        <time>2014-10-01T17:02:00Z</time>
      </trkpt>
      <trkpt lat="42.3799780" lon="-7.2937840">
        <ele>947.8</ele>
        <time>2014-10-01T17:02:01Z</time>
      </trkpt>
      <trkpt lat="42.3800070" lon="-7.2937980">
        <ele>948.0</ele>
        <time>2014-10-01T17:02:02Z</time>
      </trkpt>
      <trkpt lat="42.3800310" lon="-7.2938160">
        <ele>948.2</ele>
        <time>2014-10-01T17:02:03Z</time>
      </trkpt>
      <trkpt lat="42.3800620" lon="-7.2938360">
        <ele>948.5</ele>
        <time>2014-10-01T17:02:04Z</time>
      </trkpt>
      <trkpt lat="42.3800930" lon="-7.2938590">
        <ele>948.7</ele>
        <time>2014-10-01T17:02:05Z</time>
      </trkpt>
      <trkpt lat="42.3801180" lon="-7.2938770">
        <ele>948.9</ele>
        <time>2014-10-01T17:02:06Z</time>
      </trkpt>
      <trkpt lat="42.3801420" lon="-7.2938970">
        <ele>949.2</ele>
        <time>2014-10-01T17:02:07Z</time>
      </trkpt>
      <trkpt lat="42.3801840" lon="-7.2939480">
        <ele>949.6</ele>
        <time>2014-10-01T17:02:09Z</time>
      </trkpt>
      <trkpt lat="42.3802070" lon="-7.2939710">
        <ele>949.8</ele>
        <time>2014-10-01T17:02:10Z</time>
      </trkpt>
      <trkpt lat="42.3802570" lon="-7.2940090">
        <ele>950.2</ele>
        <time>2014-10-01T17:02:12Z</time>
      </trkpt>
      <trkpt lat="42.3802930" lon="-7.2940320">
        <ele>950.5</ele>
        <time>2014-10-01T17:02:13Z</time>
      </trkpt>
      <trkpt lat="42.3803320" lon="-7.2940540">
        <ele>950.8</ele>
        <time>2014-10-01T17:02:14Z</time>
      </trkpt>
      <trkpt lat="42.3803690" lon="-7.2940760">
        <ele>951.1</ele>
        <time>2014-10-01T17:02:15Z</time>
      </trkpt>
      <trkpt lat="42.3804010" lon="-7.2940900">
        <ele>951.3</ele>
        <time>2014-10-01T17:02:16Z</time>
      </trkpt>
      <trkpt lat="42.3804290" lon="-7.2941010">
        <ele>951.5</ele>
        <time>2014-10-01T17:02:17Z</time>
      </trkpt>
      <trkpt lat="42.3804560" lon="-7.2941150">
        <ele>951.8</ele>
        <time>2014-10-01T17:02:18Z</time>
      </trkpt>
      <trkpt lat="42.3804860" lon="-7.2941290">
        <ele>952.0</ele>
        <time>2014-10-01T17:02:19Z</time>
      </trkpt>
      <trkpt lat="42.3805150" lon="-7.2941370">
        <ele>952.3</ele>
        <time>2014-10-01T17:02:20Z</time>
      </trkpt>
      <trkpt lat="42.3805420" lon="-7.2941520">
        <ele>952.5</ele>
        <time>2014-10-01T17:02:21Z</time>
      </trkpt>
      <trkpt lat="42.3805680" lon="-7.2941660">
        <ele>952.7</ele>
        <time>2014-10-01T17:02:22Z</time>
      </trkpt>
      <trkpt lat="42.3805980" lon="-7.2941780">
        <ele>953.0</ele>
        <time>2014-10-01T17:02:23Z</time>
      </trkpt>
      <trkpt lat="42.3806270" lon="-7.2941860">
        <ele>953.2</ele>
        <time>2014-10-01T17:02:24Z</time>
      </trkpt>
      <trkpt lat="42.3806760" lon="-7.2942160">
        <ele>953.6</ele>
        <time>2014-10-01T17:02:26Z</time>
      </trkpt>
      <trkpt lat="42.3807030" lon="-7.2942270">
        <ele>953.8</ele>
        <time>2014-10-01T17:02:27Z</time>
      </trkpt>
      <trkpt lat="42.3807520" lon="-7.2942350">
        <ele>954.2</ele>
        <time>2014-10-01T17:02:29Z</time>
      </trkpt>
      <trkpt lat="42.3808020" lon="-7.2942390">
        <ele>954.6</ele>
        <time>2014-10-01T17:02:31Z</time>
      </trkpt>
      <trkpt lat="42.3808290" lon="-7.2942310">
        <ele>954.8</ele>
        <time>2014-10-01T17:02:32Z</time>
      </trkpt>
      <trkpt lat="42.3808610" lon="-7.2942260">
        <ele>955.0</ele>
        <time>2014-10-01T17:02:33Z</time>
      </trkpt>
      <trkpt lat="42.3808930" lon="-7.2942210">
        <ele>955.2</ele>
        <time>2014-10-01T17:02:34Z</time>
      </trkpt>
      <trkpt lat="42.3809230" lon="-7.2942080">
        <ele>955.4</ele>
        <time>2014-10-01T17:02:35Z</time>
      </trkpt>
      <trkpt lat="42.3809530" lon="-7.2942020">
        <ele>955.6</ele>
        <time>2014-10-01T17:02:36Z</time>
      </trkpt>
      <trkpt lat="42.3809870" lon="-7.2941920">
        <ele>955.8</ele>
        <time>2014-10-01T17:02:37Z</time>
      </trkpt>
      <trkpt lat="42.3810190" lon="-7.2941820">
        <ele>956.0</ele>
        <time>2014-10-01T17:02:38Z</time>
      </trkpt>
      <trkpt lat="42.3810730" lon="-7.2941710">
        <ele>956.4</ele>
        <time>2014-10-01T17:02:40Z</time>
      </trkpt>
      <trkpt lat="42.3811230" lon="-7.2941530">
        <ele>956.7</ele>
        <time>2014-10-01T17:02:42Z</time>
      </trkpt>
      <trkpt lat="42.3811510" lon="-7.2941370">
        <ele>956.9</ele>
        <time>2014-10-01T17:02:43Z</time>
      </trkpt>
      <trkpt lat="42.3812000" lon="-7.2941070">
        <ele>957.2</ele>
        <time>2014-10-01T17:02:45Z</time>
      </trkpt>
      <trkpt lat="42.3812320" lon="-7.2940900">
        <ele>957.3</ele>
        <time>2014-10-01T17:02:46Z</time>
      </trkpt>
      <trkpt lat="42.3812610" lon="-7.2940730">
        <ele>957.5</ele>
        <time>2014-10-01T17:02:47Z</time>
      </trkpt>
      <trkpt lat="42.3812960" lon="-7.2940600">
        <ele>957.7</ele>
        <time>2014-10-01T17:02:48Z</time>
      </trkpt>
      <trkpt lat="42.3813350" lon="-7.2940410">
        <ele>958.0</ele>
        <time>2014-10-01T17:02:49Z</time>
      </trkpt>
      <trkpt lat="42.3813730" lon="-7.2940290">
        <ele>958.2</ele>
        <time>2014-10-01T17:02:50Z</time>
      </trkpt>
      <trkpt lat="42.3814080" lon="-7.2940140">
        <ele>958.4</ele>
        <time>2014-10-01T17:02:51Z</time>
      </trkpt>
      <trkpt lat="42.3814400" lon="-7.2939930">
        <ele>958.6</ele>
        <time>2014-10-01T17:02:52Z</time>
      </trkpt>
      <trkpt lat="42.3814730" lon="-7.2939770">
        <ele>958.8</ele>
        <time>2014-10-01T17:02:53Z</time>
      </trkpt>
      <trkpt lat="42.3815010" lon="-7.2939620">
        <ele>959.0</ele>
        <time>2014-10-01T17:02:54Z</time>
      </trkpt>
      <trkpt lat="42.3815310" lon="-7.2939420">
        <ele>959.2</ele>
        <time>2014-10-01T17:02:55Z</time>
      </trkpt>
      <trkpt lat="42.3815620" lon="-7.2939210">
        <ele>959.4</ele>
        <time>2014-10-01T17:02:56Z</time>
      </trkpt>
      <trkpt lat="42.3815970" lon="-7.2939010">
        <ele>959.6</ele>
        <time>2014-10-01T17:02:57Z</time>
      </trkpt>
      <trkpt lat="42.3816350" lon="-7.2938840">
        <ele>959.9</ele>
        <time>2014-10-01T17:02:58Z</time>
      </trkpt>
      <trkpt lat="42.3816720" lon="-7.2938670">
        <ele>960.1</ele>
        <time>2014-10-01T17:02:59Z</time>
      </trkpt>
      <trkpt lat="42.3817020" lon="-7.2938520">
        <ele>960.3</ele>
        <time>2014-10-01T17:03:00Z</time>
      </trkpt>
      <trkpt lat="42.3817310" lon="-7.2938300">
        <ele>960.5</ele>
        <time>2014-10-01T17:03:01Z</time>
      </trkpt>
      <trkpt lat="42.3817610" lon="-7.2938090">
        <ele>960.7</ele>
        <time>2014-10-01T17:03:02Z</time>
      </trkpt>
      <trkpt lat="42.3817900" lon="-7.2937910">
        <ele>960.9</ele>
        <time>2014-10-01T17:03:03Z</time>
      </trkpt>
      <trkpt lat="42.3818230" lon="-7.2937740">
        <ele>961.0</ele>
        <time>2014-10-01T17:03:04Z</time>
      </trkpt>
      <trkpt lat="42.3818560" lon="-7.2937540">
        <ele>961.2</ele>
        <time>2014-10-01T17:03:05Z</time>
      </trkpt>
      <trkpt lat="42.3818880" lon="-7.2937370">
        <ele>961.4</ele>
        <time>2014-10-01T17:03:06Z</time>
      </trkpt>
      <trkpt lat="42.3819170" lon="-7.2937220">
        <ele>961.5</ele>
        <time>2014-10-01T17:03:07Z</time>
      </trkpt>
      <trkpt lat="42.3819480" lon="-7.2937090">
        <ele>961.7</ele>
        <time>2014-10-01T17:03:08Z</time>
      </trkpt>
      <trkpt lat="42.3819770" lon="-7.2936970">
        <ele>961.8</ele>
        <time>2014-10-01T17:03:09Z</time>
      </trkpt>
      <trkpt lat="42.3820100" lon="-7.2936810">
        <ele>962.0</ele>
        <time>2014-10-01T17:03:10Z</time>
      </trkpt>
      <trkpt lat="42.3820410" lon="-7.2936640">
        <ele>962.2</ele>
        <time>2014-10-01T17:03:11Z</time>
      </trkpt>
      <trkpt lat="42.3820740" lon="-7.2936450">
        <ele>962.4</ele>
        <time>2014-10-01T17:03:12Z</time>
      </trkpt>
      <trkpt lat="42.3821100" lon="-7.2936250">
        <ele>962.5</ele>
        <time>2014-10-01T17:03:13Z</time>
      </trkpt>
      <trkpt lat="42.3821440" lon="-7.2936050">
        <ele>962.7</ele>
        <time>2014-10-01T17:03:14Z</time>
      </trkpt>
      <trkpt lat="42.3821770" lon="-7.2935830">
        <ele>962.9</ele>
        <time>2014-10-01T17:03:15Z</time>
      </trkpt>
      <trkpt lat="42.3822140" lon="-7.2935580">
        <ele>963.1</ele>
        <time>2014-10-01T17:03:16Z</time>
      </trkpt>
      <trkpt lat="42.3822470" lon="-7.2935380">
        <ele>963.2</ele>
        <time>2014-10-01T17:03:17Z</time>
      </trkpt>
      <trkpt lat="42.3822820" lon="-7.2935140">
        <ele>963.4</ele>
        <time>2014-10-01T17:03:18Z</time>
      </trkpt>
      <trkpt lat="42.3823190" lon="-7.2934900">
        <ele>963.6</ele>
        <time>2014-10-01T17:03:19Z</time>
      </trkpt>
      <trkpt lat="42.3823560" lon="-7.2934650">
        <ele>963.8</ele>
        <time>2014-10-01T17:03:20Z</time>
      </trkpt>
      <trkpt lat="42.3823900" lon="-7.2934410">
        <ele>964.0</ele>
        <time>2014-10-01T17:03:21Z</time>
      </trkpt>
      <trkpt lat="42.3824170" lon="-7.2934190">
        <ele>964.2</ele>
        <time>2014-10-01T17:03:22Z</time>
      </trkpt>
      <trkpt lat="42.3824520" lon="-7.2933910">
        <ele>964.4</ele>
        <time>2014-10-01T17:03:23Z</time>
      </trkpt>
      <trkpt lat="42.3824870" lon="-7.2933650">
        <ele>964.6</ele>
        <time>2014-10-01T17:03:24Z</time>
      </trkpt>
      <trkpt lat="42.3825300" lon="-7.2933360">
        <ele>964.9</ele>
        <time>2014-10-01T17:03:25Z</time>
      </trkpt>
      <trkpt lat="42.3825680" lon="-7.2933100">
        <ele>965.1</ele>
        <time>2014-10-01T17:03:26Z</time>
      </trkpt>
      <trkpt lat="42.3826060" lon="-7.2932830">
        <ele>965.3</ele>
        <time>2014-10-01T17:03:27Z</time>
      </trkpt>
      <trkpt lat="42.3826410" lon="-7.2932590">
        <ele>965.5</ele>
        <time>2014-10-01T17:03:28Z</time>
      </trkpt>
      <trkpt lat="42.3826810" lon="-7.2932330">
        <ele>965.6</ele>
        <time>2014-10-01T17:03:29Z</time>
      </trkpt>
      <trkpt lat="42.3827180" lon="-7.2932090">
        <ele>965.8</ele>
        <time>2014-10-01T17:03:30Z</time>
      </trkpt>
      <trkpt lat="42.3827530" lon="-7.2931860">
        <ele>965.9</ele>
        <time>2014-10-01T17:03:31Z</time>
      </trkpt>
      <trkpt lat="42.3827900" lon="-7.2931600">
        <ele>966.1</ele>
        <time>2014-10-01T17:03:32Z</time>
      </trkpt>
      <trkpt lat="42.3828250" lon="-7.2931290">
        <ele>966.3</ele>
        <time>2014-10-01T17:03:33Z</time>
      </trkpt>
      <trkpt lat="42.3828610" lon="-7.2930980">
        <ele>966.5</ele>
        <time>2014-10-01T17:03:34Z</time>
      </trkpt>
      <trkpt lat="42.3828970" lon="-7.2930690">
        <ele>966.6</ele>
        <time>2014-10-01T17:03:35Z</time>
      </trkpt>
      <trkpt lat="42.3829350" lon="-7.2930400">
        <ele>966.8</ele>
        <time>2014-10-01T17:03:36Z</time>
      </trkpt>
      <trkpt lat="42.3829740" lon="-7.2930140">
        <ele>967.0</ele>
        <time>2014-10-01T17:03:37Z</time>
      </trkpt>
      <trkpt lat="42.3830130" lon="-7.2929860">
        <ele>967.2</ele>
        <time>2014-10-01T17:03:38Z</time>
      </trkpt>
      <trkpt lat="42.3830520" lon="-7.2929560">
        <ele>967.4</ele>
        <time>2014-10-01T17:03:39Z</time>
      </trkpt>
      <trkpt lat="42.3830890" lon="-7.2929250">
        <ele>967.6</ele>
        <time>2014-10-01T17:03:40Z</time>
      </trkpt>
      <trkpt lat="42.3831290" lon="-7.2928960">
        <ele>967.8</ele>
        <time>2014-10-01T17:03:41Z</time>
      </trkpt>
      <trkpt lat="42.3831650" lon="-7.2928680">
        <ele>968.0</ele>
        <time>2014-10-01T17:03:42Z</time>
      </trkpt>
      <trkpt lat="42.3832040" lon="-7.2928370">
        <ele>968.2</ele>
        <time>2014-10-01T17:03:43Z</time>
      </trkpt>
      <trkpt lat="42.3832430" lon="-7.2928050">
        <ele>968.3</ele>
        <time>2014-10-01T17:03:44Z</time>
      </trkpt>
      <trkpt lat="42.3832800" lon="-7.2927740">
        <ele>968.5</ele>
        <time>2014-10-01T17:03:45Z</time>
      </trkpt>
      <trkpt lat="42.3833160" lon="-7.2927440">
        <ele>968.7</ele>
        <time>2014-10-01T17:03:46Z</time>
      </trkpt>
      <trkpt lat="42.3833560" lon="-7.2927110">
        <ele>968.9</ele>
        <time>2014-10-01T17:03:47Z</time>
      </trkpt>
      <trkpt lat="42.3833940" lon="-7.2926810">
        <ele>969.0</ele>
        <time>2014-10-01T17:03:48Z</time>
      </trkpt>
      <trkpt lat="42.3834320" lon="-7.2926540">
        <ele>969.1</ele>
        <time>2014-10-01T17:03:49Z</time>
      </trkpt>
      <trkpt lat="42.3834670" lon="-7.2926300">
        <ele>969.1</ele>
        <time>2014-10-01T17:03:50Z</time>
      </trkpt>
      <trkpt lat="42.3835020" lon="-7.2926040">
        <ele>969.2</ele>
        <time>2014-10-01T17:03:51Z</time>
      </trkpt>
      <trkpt lat="42.3835370" lon="-7.2925770">
        <ele>969.3</ele>
        <time>2014-10-01T17:03:52Z</time>
      </trkpt>
      <trkpt lat="42.3835740" lon="-7.2925480">
        <ele>969.3</ele>
        <time>2014-10-01T17:03:53Z</time>
      </trkpt>
      <trkpt lat="42.3836100" lon="-7.2925190">
        <ele>969.4</ele>
        <time>2014-10-01T17:03:54Z</time>
      </trkpt>
      <trkpt lat="42.3836470" lon="-7.2924900">
        <ele>969.4</ele>
        <time>2014-10-01T17:03:55Z</time>
      </trkpt>
      <trkpt lat="42.3836860" lon="-7.2924610">
        <ele>969.4</ele>
        <time>2014-10-01T17:03:56Z</time>
      </trkpt>
      <trkpt lat="42.3837250" lon="-7.2924300">
        <ele>969.4</ele>
        <time>2014-10-01T17:03:57Z</time>
      </trkpt>
      <trkpt lat="42.3837630" lon="-7.2923960">
        <ele>969.4</ele>
        <time>2014-10-01T17:03:58Z</time>
      </trkpt>
      <trkpt lat="42.3838030" lon="-7.2923610">
        <ele>969.3</ele>
        <time>2014-10-01T17:03:59Z</time>
      </trkpt>
      <trkpt lat="42.3838440" lon="-7.2923270">
        <ele>969.2</ele>
        <time>2014-10-01T17:04:00Z</time>
      </trkpt>
      <trkpt lat="42.3838880" lon="-7.2922910">
        <ele>969.2</ele>
        <time>2014-10-01T17:04:01Z</time>
      </trkpt>
      <trkpt lat="42.3839310" lon="-7.2922600">
        <ele>969.1</ele>
        <time>2014-10-01T17:04:02Z</time>
      </trkpt>
      <trkpt lat="42.3839750" lon="-7.2922300">
        <ele>969.0</ele>
        <time>2014-10-01T17:04:03Z</time>
      </trkpt>
      <trkpt lat="42.3840210" lon="-7.2922050">
        <ele>968.8</ele>
        <time>2014-10-01T17:04:04Z</time>
      </trkpt>
      <trkpt lat="42.3840740" lon="-7.2921850">
        <ele>968.6</ele>
        <time>2014-10-01T17:04:05Z</time>
      </trkpt>
      <trkpt lat="42.3841290" lon="-7.2921730">
        <ele>968.4</ele>
        <time>2014-10-01T17:04:06Z</time>
      </trkpt>
      <trkpt lat="42.3841760" lon="-7.2921790">
        <ele>968.1</ele>
        <time>2014-10-01T17:04:07Z</time>
      </trkpt>
      <trkpt lat="42.3842240" lon="-7.2921930">
        <ele>967.9</ele>
        <time>2014-10-01T17:04:08Z</time>
      </trkpt>
      <trkpt lat="42.3842760" lon="-7.2922240">
        <ele>967.6</ele>
        <time>2014-10-01T17:04:09Z</time>
      </trkpt>
      <trkpt lat="42.3843220" lon="-7.2922670">
        <ele>967.3</ele>
        <time>2014-10-01T17:04:10Z</time>
      </trkpt>
      <trkpt lat="42.3843690" lon="-7.2923170">
        <ele>967.0</ele>
        <time>2014-10-01T17:04:11Z</time>
      </trkpt>
      <trkpt lat="42.3844190" lon="-7.2923760">
        <ele>966.7</ele>
        <time>2014-10-01T17:04:12Z</time>
      </trkpt>
      <trkpt lat="42.3844660" lon="-7.2924350">
        <ele>966.4</ele>
        <time>2014-10-01T17:04:13Z</time>
      </trkpt>
      <trkpt lat="42.3845180" lon="-7.2924990">
        <ele>966.1</ele>
        <time>2014-10-01T17:04:14Z</time>
      </trkpt>
      <trkpt lat="42.3845710" lon="-7.2925660">
        <ele>965.8</ele>
        <time>2014-10-01T17:04:15Z</time>
      </trkpt>
      <trkpt lat="42.3846260" lon="-7.2926300">
        <ele>965.2</ele>
        <time>2014-10-01T17:04:16Z</time>
      </trkpt>
      <trkpt lat="42.3846840" lon="-7.2927000">
        <ele>964.2</ele>
        <time>2014-10-01T17:04:17Z</time>
      </trkpt>
      <trkpt lat="42.3847440" lon="-7.2927590">
        <ele>962.7</ele>
        <time>2014-10-01T17:04:18Z</time>
      </trkpt>
      <trkpt lat="42.3848220" lon="-7.2927940">
        <ele>961.9</ele>
        <time>2014-10-01T17:04:19Z</time>
      </trkpt>
      <trkpt lat="42.3849020" lon="-7.2928050">
        <ele>961.6</ele>
        <time>2014-10-01T17:04:20Z</time>
      </trkpt>
      <trkpt lat="42.3849810" lon="-7.2928070">
        <ele>961.3</ele>
        <time>2014-10-01T17:04:21Z</time>
      </trkpt>
      <trkpt lat="42.3850550" lon="-7.2928000">
        <ele>961.2</ele>
        <time>2014-10-01T17:04:22Z</time>
      </trkpt>
      <trkpt lat="42.3851300" lon="-7.2927850">
        <ele>961.2</ele>
        <time>2014-10-01T17:04:23Z</time>
      </trkpt>
      <trkpt lat="42.3852060" lon="-7.2927650">
        <ele>961.3</ele>
        <time>2014-10-01T17:04:24Z</time>
      </trkpt>
      <trkpt lat="42.3852760" lon="-7.2927440">
        <ele>961.5</ele>
        <time>2014-10-01T17:04:25Z</time>
      </trkpt>
      <trkpt lat="42.3853420" lon="-7.2927230">
        <ele>961.7</ele>
        <time>2014-10-01T17:04:26Z</time>
      </trkpt>
      <trkpt lat="42.3854100" lon="-7.2927020">
        <ele>961.9</ele>
        <time>2014-10-01T17:04:27Z</time>
      </trkpt>
      <trkpt lat="42.3854770" lon="-7.2926810">
        <ele>962.2</ele>
        <time>2014-10-01T17:04:28Z</time>
      </trkpt>
      <trkpt lat="42.3855420" lon="-7.2926630">
        <ele>962.6</ele>
        <time>2014-10-01T17:04:29Z</time>
      </trkpt>
      <trkpt lat="42.3856010" lon="-7.2926440">
        <ele>962.9</ele>
        <time>2014-10-01T17:04:30Z</time>
      </trkpt>
      <trkpt lat="42.3856490" lon="-7.2926270">
        <ele>963.2</ele>
        <time>2014-10-01T17:04:31Z</time>
      </trkpt>
      <trkpt lat="42.3857000" lon="-7.2926130">
        <ele>963.5</ele>
        <time>2014-10-01T17:04:32Z</time>
      </trkpt>
      <trkpt lat="42.3857440" lon="-7.2926030">
        <ele>963.7</ele>
        <time>2014-10-01T17:04:33Z</time>
      </trkpt>
      <trkpt lat="42.3857920" lon="-7.2925980">
        <ele>963.9</ele>
        <time>2014-10-01T17:04:34Z</time>
      </trkpt>
      <trkpt lat="42.3858460" lon="-7.2925970">
        <ele>964.2</ele>
        <time>2014-10-01T17:04:35Z</time>
      </trkpt>
      <trkpt lat="42.3858970" lon="-7.2926000">
        <ele>964.5</ele>
        <time>2014-10-01T17:04:36Z</time>
      </trkpt>
      <trkpt lat="42.3859470" lon="-7.2926050">
        <ele>964.7</ele>
        <time>2014-10-01T17:04:37Z</time>
      </trkpt>
      <trkpt lat="42.3859890" lon="-7.2926120">
        <ele>964.9</ele>
        <time>2014-10-01T17:04:38Z</time>
      </trkpt>
      <trkpt lat="42.3860330" lon="-7.2926190">
        <ele>965.0</ele>
        <time>2014-10-01T17:04:39Z</time>
      </trkpt>
      <trkpt lat="42.3860730" lon="-7.2926250">
        <ele>965.1</ele>
        <time>2014-10-01T17:04:40Z</time>
      </trkpt>
      <trkpt lat="42.3861120" lon="-7.2926310">
        <ele>965.2</ele>
        <time>2014-10-01T17:04:41Z</time>
      </trkpt>
      <trkpt lat="42.3861520" lon="-7.2926380">
        <ele>965.3</ele>
        <time>2014-10-01T17:04:42Z</time>
      </trkpt>
      <trkpt lat="42.3861970" lon="-7.2926460">
        <ele>965.4</ele>
        <time>2014-10-01T17:04:43Z</time>
      </trkpt>
      <trkpt lat="42.3862420" lon="-7.2926550">
        <ele>965.5</ele>
        <time>2014-10-01T17:04:44Z</time>
      </trkpt>
      <trkpt lat="42.3862840" lon="-7.2926660">
        <ele>965.6</ele>
        <time>2014-10-01T17:04:45Z</time>
      </trkpt>
      <trkpt lat="42.3863200" lon="-7.2926770">
        <ele>965.7</ele>
        <time>2014-10-01T17:04:46Z</time>
      </trkpt>
      <trkpt lat="42.3863570" lon="-7.2926890">
        <ele>965.8</ele>
        <time>2014-10-01T17:04:47Z</time>
      </trkpt>
      <trkpt lat="42.3863990" lon="-7.2927000">
        <ele>966.0</ele>
        <time>2014-10-01T17:04:48Z</time>
      </trkpt>
      <trkpt lat="42.3864420" lon="-7.2927120">
        <ele>966.1</ele>
        <time>2014-10-01T17:04:49Z</time>
      </trkpt>
      <trkpt lat="42.3864840" lon="-7.2927230">
        <ele>966.2</ele>
        <time>2014-10-01T17:04:50Z</time>
      </trkpt>
      <trkpt lat="42.3865270" lon="-7.2927320">
        <ele>966.3</ele>
        <time>2014-10-01T17:04:51Z</time>
      </trkpt>
      <trkpt lat="42.3865700" lon="-7.2927420">
        <ele>966.5</ele>
        <time>2014-10-01T17:04:52Z</time>
      </trkpt>
      <trkpt lat="42.3866110" lon="-7.2927500">
        <ele>966.6</ele>
        <time>2014-10-01T17:04:53Z</time>
      </trkpt>
      <trkpt lat="42.3866530" lon="-7.2927640">
        <ele>966.7</ele>
        <time>2014-10-01T17:04:54Z</time>
      </trkpt>
      <trkpt lat="42.3866960" lon="-7.2927820">
        <ele>966.8</ele>
        <time>2014-10-01T17:04:55Z</time>
      </trkpt>
      <trkpt lat="42.3867440" lon="-7.2928030">
        <ele>967.0</ele>
        <time>2014-10-01T17:04:56Z</time>
      </trkpt>
      <trkpt lat="42.3867870" lon="-7.2928230">
        <ele>967.1</ele>
        <time>2014-10-01T17:04:57Z</time>
      </trkpt>
      <trkpt lat="42.3868250" lon="-7.2928460">
        <ele>967.2</ele>
        <time>2014-10-01T17:04:58Z</time>
      </trkpt>
      <trkpt lat="42.3868600" lon="-7.2928780">
        <ele>967.3</ele>
        <time>2014-10-01T17:04:59Z</time>
      </trkpt>
      <trkpt lat="42.3868950" lon="-7.2929150">
        <ele>967.4</ele>
        <time>2014-10-01T17:05:00Z</time>
      </trkpt>
      <trkpt lat="42.3869280" lon="-7.2929540">
        <ele>967.5</ele>
        <time>2014-10-01T17:05:01Z</time>
      </trkpt>
      <trkpt lat="42.3869600" lon="-7.2929970">
        <ele>967.6</ele>
        <time>2014-10-01T17:05:02Z</time>
      </trkpt>
      <trkpt lat="42.3869880" lon="-7.2930410">
        <ele>967.8</ele>
        <time>2014-10-01T17:05:03Z</time>
      </trkpt>
      <trkpt lat="42.3870140" lon="-7.2930860">
        <ele>968.0</ele>
        <time>2014-10-01T17:05:04Z</time>
      </trkpt>
      <trkpt lat="42.3870400" lon="-7.2931370">
        <ele>968.1</ele>
        <time>2014-10-01T17:05:05Z</time>
      </trkpt>
      <trkpt lat="42.3870640" lon="-7.2931860">
        <ele>968.2</ele>
        <time>2014-10-01T17:05:06Z</time>
      </trkpt>
      <trkpt lat="42.3870880" lon="-7.2932370">
        <ele>968.4</ele>
        <time>2014-10-01T17:05:07Z</time>
      </trkpt>
      <trkpt lat="42.3871140" lon="-7.2932910">
        <ele>968.4</ele>
        <time>2014-10-01T17:05:08Z</time>
      </trkpt>
      <trkpt lat="42.3871400" lon="-7.2933430">
        <ele>968.5</ele>
        <time>2014-10-01T17:05:09Z</time>
      </trkpt>
      <trkpt lat="42.3871640" lon="-7.2933920">
        <ele>968.5</ele>
        <time>2014-10-01T17:05:10Z</time>
      </trkpt>
      <trkpt lat="42.3871910" lon="-7.2934440">
        <ele>968.6</ele>
        <time>2014-10-01T17:05:11Z</time>
      </trkpt>
      <trkpt lat="42.3872160" lon="-7.2934890">
        <ele>968.6</ele>
        <time>2014-10-01T17:05:12Z</time>
      </trkpt>
      <trkpt lat="42.3872440" lon="-7.2935330">
        <ele>968.7</ele>
        <time>2014-10-01T17:05:13Z</time>
      </trkpt>
      <trkpt lat="42.3872760" lon="-7.2935720">
        <ele>968.7</ele>
        <time>2014-10-01T17:05:14Z</time>
      </trkpt>
      <trkpt lat="42.3873160" lon="-7.2936150">
        <ele>968.8</ele>
        <time>2014-10-01T17:05:15Z</time>
      </trkpt>
      <trkpt lat="42.3873600" lon="-7.2936560">
        <ele>968.8</ele>
        <time>2014-10-01T17:05:16Z</time>
      </trkpt>
      <trkpt lat="42.3874040" lon="-7.2936980">
        <ele>968.9</ele>
        <time>2014-10-01T17:05:17Z</time>
      </trkpt>
      <trkpt lat="42.3874470" lon="-7.2937360">
        <ele>968.9</ele>
        <time>2014-10-01T17:05:18Z</time>
      </trkpt>
      <trkpt lat="42.3874920" lon="-7.2937720">
        <ele>968.9</ele>
        <time>2014-10-01T17:05:19Z</time>
      </trkpt>
      <trkpt lat="42.3875380" lon="-7.2938060">
        <ele>968.8</ele>
        <time>2014-10-01T17:05:20Z</time>
      </trkpt>
      <trkpt lat="42.3875850" lon="-7.2938350">
        <ele>968.8</ele>
        <time>2014-10-01T17:05:21Z</time>
      </trkpt>
      <trkpt lat="42.3876320" lon="-7.2938590">
        <ele>968.8</ele>
        <time>2014-10-01T17:05:22Z</time>
      </trkpt>
      <trkpt lat="42.3876780" lon="-7.2938830">
        <ele>968.8</ele>
        <time>2014-10-01T17:05:23Z</time>
      </trkpt>
      <trkpt lat="42.3877240" lon="-7.2939060">
        <ele>968.8</ele>
        <time>2014-10-01T17:05:24Z</time>
      </trkpt>
      <trkpt lat="42.3877750" lon="-7.2939300">
        <ele>968.7</ele>
        <time>2014-10-01T17:05:25Z</time>
      </trkpt>
      <trkpt lat="42.3878210" lon="-7.2939520">
        <ele>968.7</ele>
        <time>2014-10-01T17:05:26Z</time>
      </trkpt>
      <trkpt lat="42.3878660" lon="-7.2939740">
        <ele>968.7</ele>
        <time>2014-10-01T17:05:27Z</time>
      </trkpt>
      <trkpt lat="42.3879110" lon="-7.2939960">
        <ele>968.6</ele>
        <time>2014-10-01T17:05:28Z</time>
      </trkpt>
      <trkpt lat="42.3879570" lon="-7.2940180">
        <ele>968.5</ele>
        <time>2014-10-01T17:05:29Z</time>
      </trkpt>
      <trkpt lat="42.3880050" lon="-7.2940420">
        <ele>968.4</ele>
        <time>2014-10-01T17:05:30Z</time>
      </trkpt>
      <trkpt lat="42.3880530" lon="-7.2940660">
        <ele>968.3</ele>
        <time>2014-10-01T17:05:31Z</time>
      </trkpt>
      <trkpt lat="42.3881050" lon="-7.2940970">
        <ele>968.1</ele>
        <time>2014-10-01T17:05:32Z</time>
      </trkpt>
      <trkpt lat="42.3881600" lon="-7.2941300">
        <ele>967.8</ele>
        <time>2014-10-01T17:05:33Z</time>
      </trkpt>
      <trkpt lat="42.3882140" lon="-7.2941640">
        <ele>967.6</ele>
        <time>2014-10-01T17:05:34Z</time>
      </trkpt>
      <trkpt lat="42.3882760" lon="-7.2942000">
        <ele>967.3</ele>
        <time>2014-10-01T17:05:35Z</time>
      </trkpt>
      <trkpt lat="42.3883380" lon="-7.2942340">
        <ele>967.1</ele>
        <time>2014-10-01T17:05:36Z</time>
      </trkpt>
      <trkpt lat="42.3884040" lon="-7.2942680">
        <ele>966.9</ele>
        <time>2014-10-01T17:05:37Z</time>
      </trkpt>
      <trkpt lat="42.3884690" lon="-7.2942970">
        <ele>966.8</ele>
        <time>2014-10-01T17:05:38Z</time>
      </trkpt>
      <trkpt lat="42.3885330" lon="-7.2943210">
        <ele>966.7</ele>
        <time>2014-10-01T17:05:39Z</time>
      </trkpt>
      <trkpt lat="42.3885970" lon="-7.2943360">
        <ele>966.7</ele>
        <time>2014-10-01T17:05:40Z</time>
      </trkpt>
      <trkpt lat="42.3886670" lon="-7.2943190">
        <ele>966.7</ele>
        <time>2014-10-01T17:05:41Z</time>
      </trkpt>
      <trkpt lat="42.3887370" lon="-7.2942950">
        <ele>966.7</ele>
        <time>2014-10-01T17:05:42Z</time>
      </trkpt>
      <trkpt lat="42.3888050" lon="-7.2942450">
        <ele>966.7</ele>
        <time>2014-10-01T17:05:43Z</time>
      </trkpt>
      <trkpt lat="42.3888730" lon="-7.2941910">
        <ele>966.9</ele>
        <time>2014-10-01T17:05:44Z</time>
      </trkpt>
      <trkpt lat="42.3889380" lon="-7.2941360">
        <ele>967.1</ele>
        <time>2014-10-01T17:05:45Z</time>
      </trkpt>
      <trkpt lat="42.3889950" lon="-7.2940830">
        <ele>967.3</ele>
        <time>2014-10-01T17:05:46Z</time>
      </trkpt>
      <trkpt lat="42.3890460" lon="-7.2940310">
        <ele>967.5</ele>
        <time>2014-10-01T17:05:47Z</time>
      </trkpt>
      <trkpt lat="42.3890960" lon="-7.2939810">
        <ele>967.7</ele>
        <time>2014-10-01T17:05:48Z</time>
      </trkpt>
      <trkpt lat="42.3891440" lon="-7.2939310">
        <ele>968.0</ele>
        <time>2014-10-01T17:05:49Z</time>
      </trkpt>
      <trkpt lat="42.3891910" lon="-7.2938830">
        <ele>968.3</ele>
        <time>2014-10-01T17:05:50Z</time>
      </trkpt>
      <trkpt lat="42.3892350" lon="-7.2938370">
        <ele>968.6</ele>
        <time>2014-10-01T17:05:51Z</time>
      </trkpt>
      <trkpt lat="42.3892780" lon="-7.2937910">
        <ele>968.9</ele>
        <time>2014-10-01T17:05:52Z</time>
      </trkpt>
      <trkpt lat="42.3893250" lon="-7.2937460">
        <ele>969.2</ele>
        <time>2014-10-01T17:05:53Z</time>
      </trkpt>
      <trkpt lat="42.3893700" lon="-7.2936990">
        <ele>969.5</ele>
        <time>2014-10-01T17:05:54Z</time>
      </trkpt>
      <trkpt lat="42.3894140" lon="-7.2936570">
        <ele>969.8</ele>
        <time>2014-10-01T17:05:55Z</time>
      </trkpt>
      <trkpt lat="42.3894600" lon="-7.2936210">
        <ele>970.0</ele>
        <time>2014-10-01T17:05:56Z</time>
      </trkpt>
      <trkpt lat="42.3895070" lon="-7.2935920">
        <ele>970.3</ele>
        <time>2014-10-01T17:05:57Z</time>
      </trkpt>
      <trkpt lat="42.3895540" lon="-7.2935730">
        <ele>970.5</ele>
        <time>2014-10-01T17:05:58Z</time>
      </trkpt>
      <trkpt lat="42.3896040" lon="-7.2935540">
        <ele>970.7</ele>
        <time>2014-10-01T17:05:59Z</time>
      </trkpt>
      <trkpt lat="42.3896510" lon="-7.2935360">
        <ele>970.8</ele>
        <time>2014-10-01T17:06:00Z</time>
      </trkpt>
      <trkpt lat="42.3896970" lon="-7.2935190">
        <ele>971.0</ele>
        <time>2014-10-01T17:06:01Z</time>
      </trkpt>
      <trkpt lat="42.3897430" lon="-7.2935000">
        <ele>971.3</ele>
        <time>2014-10-01T17:06:02Z</time>
      </trkpt>
      <trkpt lat="42.3897860" lon="-7.2934810">
        <ele>971.5</ele>
        <time>2014-10-01T17:06:03Z</time>
      </trkpt>
      <trkpt lat="42.3898270" lon="-7.2934630">
        <ele>971.7</ele>
        <time>2014-10-01T17:06:04Z</time>
      </trkpt>
      <trkpt lat="42.3898670" lon="-7.2934470">
        <ele>972.0</ele>
        <time>2014-10-01T17:06:05Z</time>
      </trkpt>
      <trkpt lat="42.3899060" lon="-7.2934310">
        <ele>972.2</ele>
        <time>2014-10-01T17:06:06Z</time>
      </trkpt>
      <trkpt lat="42.3899450" lon="-7.2934150">
        <ele>972.4</ele>
        <time>2014-10-01T17:06:07Z</time>
      </trkpt>
      <trkpt lat="42.3899830" lon="-7.2934000">
        <ele>972.6</ele>
        <time>2014-10-01T17:06:08Z</time>
      </trkpt>
      <trkpt lat="42.3900190" lon="-7.2933890">
        <ele>972.8</ele>
        <time>2014-10-01T17:06:09Z</time>
      </trkpt>
      <trkpt lat="42.3900580" lon="-7.2933760">
        <ele>973.0</ele>
        <time>2014-10-01T17:06:10Z</time>
      </trkpt>
      <trkpt lat="42.3901010" lon="-7.2933630">
        <ele>973.2</ele>
        <time>2014-10-01T17:06:11Z</time>
      </trkpt>
      <trkpt lat="42.3901430" lon="-7.2933500">
        <ele>973.5</ele>
        <time>2014-10-01T17:06:12Z</time>
      </trkpt>
      <trkpt lat="42.3901890" lon="-7.2933360">
        <ele>973.8</ele>
        <time>2014-10-01T17:06:13Z</time>
      </trkpt>
      <trkpt lat="42.3902320" lon="-7.2933220">
        <ele>974.0</ele>
        <time>2014-10-01T17:06:14Z</time>
      </trkpt>
      <trkpt lat="42.3902750" lon="-7.2933090">
        <ele>974.3</ele>
        <time>2014-10-01T17:06:15Z</time>
      </trkpt>
      <trkpt lat="42.3903230" lon="-7.2932950">
        <ele>974.6</ele>
        <time>2014-10-01T17:06:16Z</time>
      </trkpt>
      <trkpt lat="42.3903720" lon="-7.2932820">
        <ele>974.9</ele>
        <time>2014-10-01T17:06:17Z</time>
      </trkpt>
      <trkpt lat="42.3904190" lon="-7.2932710">
        <ele>975.3</ele>
        <time>2014-10-01T17:06:18Z</time>
      </trkpt>
      <trkpt lat="42.3904600" lon="-7.2932590">
        <ele>975.6</ele>
        <time>2014-10-01T17:06:19Z</time>
      </trkpt>
      <trkpt lat="42.3905000" lon="-7.2932470">
        <ele>975.9</ele>
        <time>2014-10-01T17:06:20Z</time>
      </trkpt>
      <trkpt lat="42.3905390" lon="-7.2932340">
        <ele>976.2</ele>
        <time>2014-10-01T17:06:21Z</time>
      </trkpt>
      <trkpt lat="42.3905730" lon="-7.2932240">
        <ele>976.5</ele>
        <time>2014-10-01T17:06:22Z</time>
      </trkpt>
      <trkpt lat="42.3906040" lon="-7.2932140">
        <ele>976.8</ele>
        <time>2014-10-01T17:06:23Z</time>
      </trkpt>
      <trkpt lat="42.3906320" lon="-7.2932040">
        <ele>977.1</ele>
        <time>2014-10-01T17:06:24Z</time>
      </trkpt>
      <trkpt lat="42.3906600" lon="-7.2931920">
        <ele>977.4</ele>
        <time>2014-10-01T17:06:25Z</time>
      </trkpt>
      <trkpt lat="42.3906950" lon="-7.2931800">
        <ele>977.8</ele>
        <time>2014-10-01T17:06:26Z</time>
      </trkpt>
      <trkpt lat="42.3907340" lon="-7.2931660">
        <ele>978.1</ele>
        <time>2014-10-01T17:06:27Z</time>
      </trkpt>
      <trkpt lat="42.3907740" lon="-7.2931550">
        <ele>978.5</ele>
        <time>2014-10-01T17:06:28Z</time>
      </trkpt>
      <trkpt lat="42.3908120" lon="-7.2931460">
        <ele>978.8</ele>
        <time>2014-10-01T17:06:29Z</time>
      </trkpt>
      <trkpt lat="42.3908500" lon="-7.2931350">
        <ele>979.1</ele>
        <time>2014-10-01T17:06:30Z</time>
      </trkpt>
      <trkpt lat="42.3908840" lon="-7.2931230">
        <ele>979.4</ele>
        <time>2014-10-01T17:06:31Z</time>
      </trkpt>
      <trkpt lat="42.3909200" lon="-7.2931090">
        <ele>979.5</ele>
        <time>2014-10-01T17:06:32Z</time>
      </trkpt>
      <trkpt lat="42.3909570" lon="-7.2930940">
        <ele>979.7</ele>
        <time>2014-10-01T17:06:33Z</time>
      </trkpt>
      <trkpt lat="42.3909940" lon="-7.2930790">
        <ele>979.8</ele>
        <time>2014-10-01T17:06:34Z</time>
      </trkpt>
      <trkpt lat="42.3910290" lon="-7.2930650">
        <ele>980.0</ele>
        <time>2014-10-01T17:06:35Z</time>
      </trkpt>
      <trkpt lat="42.3910630" lon="-7.2930520">
        <ele>980.2</ele>
        <time>2014-10-01T17:06:36Z</time>
      </trkpt>
      <trkpt lat="42.3910980" lon="-7.2930400">
        <ele>980.4</ele>
        <time>2014-10-01T17:06:37Z</time>
      </trkpt>
      <trkpt lat="42.3911320" lon="-7.2930270">
        <ele>980.6</ele>
        <time>2014-10-01T17:06:38Z</time>
      </trkpt>
      <trkpt lat="42.3911630" lon="-7.2930140">
        <ele>980.8</ele>
        <time>2014-10-01T17:06:39Z</time>
      </trkpt>
      <trkpt lat="42.3911950" lon="-7.2930010">
        <ele>981.0</ele>
        <time>2014-10-01T17:06:40Z</time>
      </trkpt>
      <trkpt lat="42.3912270" lon="-7.2929910">
        <ele>981.2</ele>
        <time>2014-10-01T17:06:41Z</time>
      </trkpt>
      <trkpt lat="42.3912590" lon="-7.2929810">
        <ele>981.5</ele>
        <time>2014-10-01T17:06:42Z</time>
      </trkpt>
      <trkpt lat="42.3912930" lon="-7.2929730">
        <ele>981.7</ele>
        <time>2014-10-01T17:06:43Z</time>
      </trkpt>
      <trkpt lat="42.3913290" lon="-7.2929640">
        <ele>981.9</ele>
        <time>2014-10-01T17:06:44Z</time>
      </trkpt>
      <trkpt lat="42.3913620" lon="-7.2929560">
        <ele>982.2</ele>
        <time>2014-10-01T17:06:45Z</time>
      </trkpt>
      <trkpt lat="42.3913930" lon="-7.2929440">
        <ele>982.4</ele>
        <time>2014-10-01T17:06:46Z</time>
      </trkpt>
      <trkpt lat="42.3914250" lon="-7.2929300">
        <ele>982.6</ele>
        <time>2014-10-01T17:06:47Z</time>
      </trkpt>
      <trkpt lat="42.3914560" lon="-7.2929160">
        <ele>982.9</ele>
        <time>2014-10-01T17:06:48Z</time>
      </trkpt>
      <trkpt lat="42.3914880" lon="-7.2929050">
        <ele>983.1</ele>
        <time>2014-10-01T17:06:49Z</time>
      </trkpt>
      <trkpt lat="42.3915200" lon="-7.2928950">
        <ele>983.3</ele>
        <time>2014-10-01T17:06:50Z</time>
      </trkpt>
      <trkpt lat="42.3915490" lon="-7.2928850">
        <ele>983.6</ele>
        <time>2014-10-01T17:06:51Z</time>
      </trkpt>
      <trkpt lat="42.3915780" lon="-7.2928730">
        <ele>983.8</ele>
        <time>2014-10-01T17:06:52Z</time>
      </trkpt>
      <trkpt lat="42.3916080" lon="-7.2928630">
        <ele>984.0</ele>
        <time>2014-10-01T17:06:53Z</time>
      </trkpt>
      <trkpt lat="42.3916400" lon="-7.2928500">
        <ele>984.3</ele>
        <time>2014-10-01T17:06:54Z</time>
      </trkpt>
      <trkpt lat="42.3916740" lon="-7.2928380">
        <ele>984.5</ele>
        <time>2014-10-01T17:06:55Z</time>
      </trkpt>
      <trkpt lat="42.3917100" lon="-7.2928270">
        <ele>984.8</ele>
        <time>2014-10-01T17:06:56Z</time>
      </trkpt>
      <trkpt lat="42.3917450" lon="-7.2928170">
        <ele>985.1</ele>
        <time>2014-10-01T17:06:57Z</time>
      </trkpt>
      <trkpt lat="42.3917790" lon="-7.2928070">
        <ele>985.3</ele>
        <time>2014-10-01T17:06:58Z</time>
      </trkpt>
      <trkpt lat="42.3918100" lon="-7.2927940">
        <ele>985.6</ele>
        <time>2014-10-01T17:06:59Z</time>
      </trkpt>
      <trkpt lat="42.3918440" lon="-7.2927820">
        <ele>985.8</ele>
        <time>2014-10-01T17:07:00Z</time>
      </trkpt>
      <trkpt lat="42.3918800" lon="-7.2927710">
        <ele>986.1</ele>
        <time>2014-10-01T17:07:01Z</time>
      </trkpt>
      <trkpt lat="42.3919170" lon="-7.2927620">
        <ele>986.3</ele>
        <time>2014-10-01T17:07:02Z</time>
      </trkpt>
      <trkpt lat="42.3919530" lon="-7.2927520">
        <ele>986.5</ele>
        <time>2014-10-01T17:07:03Z</time>
      </trkpt>
      <trkpt lat="42.3919870" lon="-7.2927420">
        <ele>986.8</ele>
        <time>2014-10-01T17:07:04Z</time>
      </trkpt>
      <trkpt lat="42.3920190" lon="-7.2927300">
        <ele>987.0</ele>
        <time>2014-10-01T17:07:05Z</time>
      </trkpt>
      <trkpt lat="42.3920530" lon="-7.2927170">
        <ele>987.2</ele>
        <time>2014-10-01T17:07:06Z</time>
      </trkpt>
      <trkpt lat="42.3920890" lon="-7.2927040">
        <ele>987.4</ele>
        <time>2014-10-01T17:07:07Z</time>
      </trkpt>
      <trkpt lat="42.3921240" lon="-7.2926930">
        <ele>987.6</ele>
        <time>2014-10-01T17:07:08Z</time>
      </trkpt>
      <trkpt lat="42.3921590" lon="-7.2926820">
        <ele>987.9</ele>
        <time>2014-10-01T17:07:09Z</time>
      </trkpt>
      <trkpt lat="42.3921930" lon="-7.2926700">
        <ele>988.1</ele>
        <time>2014-10-01T17:07:10Z</time>
      </trkpt>
      <trkpt lat="42.3922250" lon="-7.2926560">
        <ele>988.3</ele>
        <time>2014-10-01T17:07:11Z</time>
      </trkpt>
      <trkpt lat="42.3922600" lon="-7.2926450">
        <ele>988.5</ele>
        <time>2014-10-01T17:07:12Z</time>
      </trkpt>
      <trkpt lat="42.3922930" lon="-7.2926350">
        <ele>988.7</ele>
        <time>2014-10-01T17:07:13Z</time>
      </trkpt>
      <trkpt lat="42.3923250" lon="-7.2926250">
        <ele>989.0</ele>
        <time>2014-10-01T17:07:14Z</time>
      </trkpt>
      <trkpt lat="42.3923570" lon="-7.2926170">
        <ele>989.2</ele>
        <time>2014-10-01T17:07:15Z</time>
      </trkpt>
      <trkpt lat="42.3923890" lon="-7.2926060">
        <ele>989.4</ele>
        <time>2014-10-01T17:07:16Z</time>
      </trkpt>
      <trkpt lat="42.3924190" lon="-7.2925950">
        <ele>989.6</ele>
        <time>2014-10-01T17:07:17Z</time>
      </trkpt>
      <trkpt lat="42.3924490" lon="-7.2925830">
        <ele>989.8</ele>
        <time>2014-10-01T17:07:18Z</time>
      </trkpt>
      <trkpt lat="42.3924810" lon="-7.2925710">
        <ele>990.1</ele>
        <time>2014-10-01T17:07:19Z</time>
      </trkpt>
      <trkpt lat="42.3925150" lon="-7.2925590">
        <ele>990.3</ele>
        <time>2014-10-01T17:07:20Z</time>
      </trkpt>
      <trkpt lat="42.3925490" lon="-7.2925490">
        <ele>990.5</ele>
        <time>2014-10-01T17:07:21Z</time>
      </trkpt>
      <trkpt lat="42.3925830" lon="-7.2925410">
        <ele>990.7</ele>
        <time>2014-10-01T17:07:22Z</time>
      </trkpt>
      <trkpt lat="42.3926160" lon="-7.2925320">
        <ele>990.9</ele>
        <time>2014-10-01T17:07:23Z</time>
      </trkpt>
      <trkpt lat="42.3926530" lon="-7.2925250">
        <ele>991.2</ele>
        <time>2014-10-01T17:07:24Z</time>
      </trkpt>
      <trkpt lat="42.3926860" lon="-7.2925220">
        <ele>991.4</ele>
        <time>2014-10-01T17:07:25Z</time>
      </trkpt>
      <trkpt lat="42.3927210" lon="-7.2925190">
        <ele>991.6</ele>
        <time>2014-10-01T17:07:26Z</time>
      </trkpt>
      <trkpt lat="42.3927560" lon="-7.2925180">
        <ele>991.8</ele>
        <time>2014-10-01T17:07:27Z</time>
      </trkpt>
      <trkpt lat="42.3927910" lon="-7.2925200">
        <ele>992.0</ele>
        <time>2014-10-01T17:07:28Z</time>
      </trkpt>
      <trkpt lat="42.3928240" lon="-7.2925250">
        <ele>992.1</ele>
        <time>2014-10-01T17:07:29Z</time>
      </trkpt>
      <trkpt lat="42.3928570" lon="-7.2925430">
        <ele>992.3</ele>
        <time>2014-10-01T17:07:30Z</time>
      </trkpt>
      <trkpt lat="42.3928900" lon="-7.2925590">
        <ele>992.5</ele>
        <time>2014-10-01T17:07:31Z</time>
      </trkpt>
      <trkpt lat="42.3929240" lon="-7.2925780">
        <ele>992.6</ele>
        <time>2014-10-01T17:07:32Z</time>
      </trkpt>
      <trkpt lat="42.3929540" lon="-7.2925990">
        <ele>992.8</ele>
        <time>2014-10-01T17:07:33Z</time>
      </trkpt>
      <trkpt lat="42.3929900" lon="-7.2926250">
        <ele>993.0</ele>
        <time>2014-10-01T17:07:34Z</time>
      </trkpt>
      <trkpt lat="42.3930250" lon="-7.2926550">
        <ele>993.1</ele>
        <time>2014-10-01T17:07:35Z</time>
      </trkpt>
      <trkpt lat="42.3930570" lon="-7.2926860">
        <ele>993.3</ele>
        <time>2014-10-01T17:07:36Z</time>
      </trkpt>
      <trkpt lat="42.3930820" lon="-7.2927170">
        <ele>993.4</ele>
        <time>2014-10-01T17:07:37Z</time>
      </trkpt>
      <trkpt lat="42.3931130" lon="-7.2927550">
        <ele>993.6</ele>
        <time>2014-10-01T17:07:38Z</time>
      </trkpt>
      <trkpt lat="42.3931410" lon="-7.2927960">
        <ele>993.7</ele>
        <time>2014-10-01T17:07:39Z</time>
      </trkpt>
      <trkpt lat="42.3931650" lon="-7.2928360">
        <ele>993.8</ele>
        <time>2014-10-01T17:07:40Z</time>
      </trkpt>
      <trkpt lat="42.3931900" lon="-7.2928790">
        <ele>994.0</ele>
        <time>2014-10-01T17:07:41Z</time>
      </trkpt>
      <trkpt lat="42.3932180" lon="-7.2929260">
        <ele>994.2</ele>
        <time>2014-10-01T17:07:42Z</time>
      </trkpt>
      <trkpt lat="42.3932460" lon="-7.2929740">
        <ele>994.3</ele>
        <time>2014-10-01T17:07:43Z</time>
      </trkpt>
      <trkpt lat="42.3932710" lon="-7.2930190">
        <ele>994.5</ele>
        <time>2014-10-01T17:07:44Z</time>
      </trkpt>
      <trkpt lat="42.3932990" lon="-7.2930690">
        <ele>994.6</ele>
        <time>2014-10-01T17:07:45Z</time>
      </trkpt>
      <trkpt lat="42.3933260" lon="-7.2931160">
        <ele>994.7</ele>
        <time>2014-10-01T17:07:46Z</time>
      </trkpt>
      <trkpt lat="42.3933510" lon="-7.2931570">
        <ele>994.8</ele>
        <time>2014-10-01T17:07:47Z</time>
      </trkpt>
      <trkpt lat="42.3933760" lon="-7.2931990">
        <ele>995.0</ele>
        <time>2014-10-01T17:07:48Z</time>
      </trkpt>
      <trkpt lat="42.3934000" lon="-7.2932420">
        <ele>995.1</ele>
        <time>2014-10-01T17:07:49Z</time>
      </trkpt>
      <trkpt lat="42.3934280" lon="-7.2932870">
        <ele>995.2</ele>
        <time>2014-10-01T17:07:50Z</time>
      </trkpt>
      <trkpt lat="42.3934590" lon="-7.2933340">
        <ele>995.2</ele>
        <time>2014-10-01T17:07:51Z</time>
      </trkpt>
      <trkpt lat="42.3934930" lon="-7.2933800">
        <ele>995.2</ele>
        <time>2014-10-01T17:07:52Z</time>
      </trkpt>
      <trkpt lat="42.3935290" lon="-7.2934220">
        <ele>995.2</ele>
        <time>2014-10-01T17:07:53Z</time>
      </trkpt>
      <trkpt lat="42.3935680" lon="-7.2934630">
        <ele>995.2</ele>
        <time>2014-10-01T17:07:54Z</time>
      </trkpt>
      <trkpt lat="42.3936030" lon="-7.2934940">
        <ele>995.2</ele>
        <time>2014-10-01T17:07:55Z</time>
      </trkpt>
      <trkpt lat="42.3936390" lon="-7.2935220">
        <ele>995.2</ele>
        <time>2014-10-01T17:07:56Z</time>
      </trkpt>
      <trkpt lat="42.3936780" lon="-7.2935480">
        <ele>995.2</ele>
        <time>2014-10-01T17:07:57Z</time>
      </trkpt>
      <trkpt lat="42.3937190" lon="-7.2935700">
        <ele>995.2</ele>
        <time>2014-10-01T17:07:58Z</time>
      </trkpt>
      <trkpt lat="42.3937630" lon="-7.2935910">
        <ele>995.2</ele>
        <time>2014-10-01T17:07:59Z</time>
      </trkpt>
      <trkpt lat="42.3938080" lon="-7.2936120">
        <ele>995.2</ele>
        <time>2014-10-01T17:08:00Z</time>
      </trkpt>
      <trkpt lat="42.3938540" lon="-7.2936320">
        <ele>995.1</ele>
        <time>2014-10-01T17:08:01Z</time>
      </trkpt>
      <trkpt lat="42.3938980" lon="-7.2936500">
        <ele>995.1</ele>
        <time>2014-10-01T17:08:02Z</time>
      </trkpt>
      <trkpt lat="42.3939430" lon="-7.2936650">
        <ele>995.0</ele>
        <time>2014-10-01T17:08:03Z</time>
      </trkpt>
      <trkpt lat="42.3939880" lon="-7.2936770">
        <ele>995.0</ele>
        <time>2014-10-01T17:08:04Z</time>
      </trkpt>
      <trkpt lat="42.3940360" lon="-7.2936890">
        <ele>994.9</ele>
        <time>2014-10-01T17:08:05Z</time>
      </trkpt>
      <trkpt lat="42.3940840" lon="-7.2936990">
        <ele>994.9</ele>
        <time>2014-10-01T17:08:06Z</time>
      </trkpt>
      <trkpt lat="42.3941360" lon="-7.2937100">
        <ele>994.8</ele>
        <time>2014-10-01T17:08:07Z</time>
      </trkpt>
      <trkpt lat="42.3941890" lon="-7.2937190">
        <ele>994.8</ele>
        <time>2014-10-01T17:08:08Z</time>
      </trkpt>
      <trkpt lat="42.3942430" lon="-7.2937270">
        <ele>994.7</ele>
        <time>2014-10-01T17:08:09Z</time>
      </trkpt>
      <trkpt lat="42.3942970" lon="-7.2937350">
        <ele>994.7</ele>
        <time>2014-10-01T17:08:10Z</time>
      </trkpt>
      <trkpt lat="42.3943530" lon="-7.2937450">
        <ele>994.7</ele>
        <time>2014-10-01T17:08:11Z</time>
      </trkpt>
      <trkpt lat="42.3944070" lon="-7.2937510">
        <ele>994.6</ele>
        <time>2014-10-01T17:08:12Z</time>
      </trkpt>
      <trkpt lat="42.3944600" lon="-7.2937580">
        <ele>994.6</ele>
        <time>2014-10-01T17:08:13Z</time>
      </trkpt>
      <trkpt lat="42.3945110" lon="-7.2937630">
        <ele>994.6</ele>
        <time>2014-10-01T17:08:14Z</time>
      </trkpt>
      <trkpt lat="42.3945630" lon="-7.2937680">
        <ele>994.7</ele>
        <time>2014-10-01T17:08:15Z</time>
      </trkpt>
      <trkpt lat="42.3946170" lon="-7.2937710">
        <ele>994.7</ele>
        <time>2014-10-01T17:08:16Z</time>
      </trkpt>
      <trkpt lat="42.3946720" lon="-7.2937760">
        <ele>994.7</ele>
        <time>2014-10-01T17:08:17Z</time>
      </trkpt>
      <trkpt lat="42.3947260" lon="-7.2937800">
        <ele>994.7</ele>
        <time>2014-10-01T17:08:18Z</time>
      </trkpt>
      <trkpt lat="42.3947820" lon="-7.2937890">
        <ele>994.7</ele>
        <time>2014-10-01T17:08:19Z</time>
      </trkpt>
      <trkpt lat="42.3948370" lon="-7.2937970">
        <ele>994.7</ele>
        <time>2014-10-01T17:08:20Z</time>
      </trkpt>
      <trkpt lat="42.3948900" lon="-7.2938050">
        <ele>994.7</ele>
        <time>2014-10-01T17:08:21Z</time>
      </trkpt>
      <trkpt lat="42.3949430" lon="-7.2938140">
        <ele>994.7</ele>
        <time>2014-10-01T17:08:22Z</time>
      </trkpt>
      <trkpt lat="42.3949970" lon="-7.2938250">
        <ele>994.8</ele>
        <time>2014-10-01T17:08:23Z</time>
      </trkpt>
      <trkpt lat="42.3950520" lon="-7.2938370">
        <ele>994.9</ele>
        <time>2014-10-01T17:08:24Z</time>
      </trkpt>
      <trkpt lat="42.3951050" lon="-7.2938500">
        <ele>995.0</ele>
        <time>2014-10-01T17:08:25Z</time>
      </trkpt>
      <trkpt lat="42.3951610" lon="-7.2938650">
        <ele>995.2</ele>
        <time>2014-10-01T17:08:26Z</time>
      </trkpt>
      <trkpt lat="42.3952150" lon="-7.2938810">
        <ele>995.4</ele>
        <time>2014-10-01T17:08:27Z</time>
      </trkpt>
      <trkpt lat="42.3952680" lon="-7.2938950">
        <ele>995.5</ele>
        <time>2014-10-01T17:08:28Z</time>
      </trkpt>
      <trkpt lat="42.3953210" lon="-7.2939120">
        <ele>995.6</ele>
        <time>2014-10-01T17:08:29Z</time>
      </trkpt>
      <trkpt lat="42.3953720" lon="-7.2939280">
        <ele>995.7</ele>
        <time>2014-10-01T17:08:30Z</time>
      </trkpt>
      <trkpt lat="42.3954240" lon="-7.2939450">
        <ele>995.8</ele>
        <time>2014-10-01T17:08:31Z</time>
      </trkpt>
      <trkpt lat="42.3954750" lon="-7.2939620">
        <ele>996.0</ele>
        <time>2014-10-01T17:08:32Z</time>
      </trkpt>
      <trkpt lat="42.3955240" lon="-7.2939800">
        <ele>996.1</ele>
        <time>2014-10-01T17:08:33Z</time>
      </trkpt>
      <trkpt lat="42.3955710" lon="-7.2940000">
        <ele>996.2</ele>
        <time>2014-10-01T17:08:34Z</time>
      </trkpt>
      <trkpt lat="42.3956180" lon="-7.2940220">
        <ele>996.4</ele>
        <time>2014-10-01T17:08:35Z</time>
      </trkpt>
      <trkpt lat="42.3956690" lon="-7.2940500">
        <ele>996.6</ele>
        <time>2014-10-01T17:08:36Z</time>
      </trkpt>
      <trkpt lat="42.3957180" lon="-7.2940790">
        <ele>996.8</ele>
        <time>2014-10-01T17:08:37Z</time>
      </trkpt>
      <trkpt lat="42.3957670" lon="-7.2941060">
        <ele>997.0</ele>
        <time>2014-10-01T17:08:38Z</time>
      </trkpt>
      <trkpt lat="42.3958140" lon="-7.2941390">
        <ele>997.2</ele>
        <time>2014-10-01T17:08:39Z</time>
      </trkpt>
      <trkpt lat="42.3958580" lon="-7.2941740">
        <ele>997.4</ele>
        <time>2014-10-01T17:08:40Z</time>
      </trkpt>
      <trkpt lat="42.3959040" lon="-7.2942130">
        <ele>997.6</ele>
        <time>2014-10-01T17:08:41Z</time>
      </trkpt>
      <trkpt lat="42.3959460" lon="-7.2942490">
        <ele>997.7</ele>
        <time>2014-10-01T17:08:42Z</time>
      </trkpt>
      <trkpt lat="42.3959860" lon="-7.2942830">
        <ele>997.9</ele>
        <time>2014-10-01T17:08:43Z</time>
      </trkpt>
      <trkpt lat="42.3960270" lon="-7.2943220">
        <ele>998.0</ele>
        <time>2014-10-01T17:08:44Z</time>
      </trkpt>
      <trkpt lat="42.3960640" lon="-7.2943550">
        <ele>998.2</ele>
        <time>2014-10-01T17:08:45Z</time>
      </trkpt>
      <trkpt lat="42.3961030" lon="-7.2943910">
        <ele>998.4</ele>
        <time>2014-10-01T17:08:46Z</time>
      </trkpt>
      <trkpt lat="42.3961400" lon="-7.2944250">
        <ele>998.5</ele>
        <time>2014-10-01T17:08:47Z</time>
      </trkpt>
      <trkpt lat="42.3961780" lon="-7.2944580">
        <ele>998.7</ele>
        <time>2014-10-01T17:08:48Z</time>
      </trkpt>
      <trkpt lat="42.3962170" lon="-7.2944900">
        <ele>998.9</ele>
        <time>2014-10-01T17:08:49Z</time>
      </trkpt>
      <trkpt lat="42.3962570" lon="-7.2945250">
        <ele>999.0</ele>
        <time>2014-10-01T17:08:50Z</time>
      </trkpt>
      <trkpt lat="42.3962930" lon="-7.2945570">
        <ele>999.1</ele>
        <time>2014-10-01T17:08:51Z</time>
      </trkpt>
      <trkpt lat="42.3963290" lon="-7.2945910">
        <ele>999.2</ele>
        <time>2014-10-01T17:08:52Z</time>
      </trkpt>
      <trkpt lat="42.3963640" lon="-7.2946250">
        <ele>999.3</ele>
        <time>2014-10-01T17:08:53Z</time>
      </trkpt>
      <trkpt lat="42.3964010" lon="-7.2946600">
        <ele>999.5</ele>
        <time>2014-10-01T17:08:54Z</time>
      </trkpt>
      <trkpt lat="42.3964330" lon="-7.2946900">
        <ele>999.6</ele>
        <time>2014-10-01T17:08:55Z</time>
      </trkpt>
      <trkpt lat="42.3964710" lon="-7.2947240">
        <ele>999.7</ele>
        <time>2014-10-01T17:08:56Z</time>
      </trkpt>
      <trkpt lat="42.3965070" lon="-7.2947580">
        <ele>999.7</ele>
        <time>2014-10-01T17:08:57Z</time>
      </trkpt>
      <trkpt lat="42.3965430" lon="-7.2947900">
        <ele>999.8</ele>
        <time>2014-10-01T17:08:58Z</time>
      </trkpt>
      <trkpt lat="42.3965790" lon="-7.2948240">
        <ele>999.9</ele>
        <time>2014-10-01T17:08:59Z</time>
      </trkpt>
      <trkpt lat="42.3966150" lon="-7.2948590">
        <ele>1000.0</ele>
        <time>2014-10-01T17:09:00Z</time>
      </trkpt>
      <trkpt lat="42.3966520" lon="-7.2948960">
        <ele>1000.1</ele>
        <time>2014-10-01T17:09:01Z</time>
      </trkpt>
      <trkpt lat="42.3966880" lon="-7.2949320">
        <ele>1000.2</ele>
        <time>2014-10-01T17:09:02Z</time>
      </trkpt>
      <trkpt lat="42.3967230" lon="-7.2949670">
        <ele>1000.3</ele>
        <time>2014-10-01T17:09:03Z</time>
      </trkpt>
      <trkpt lat="42.3967590" lon="-7.2950040">
        <ele>1000.4</ele>
        <time>2014-10-01T17:09:04Z</time>
      </trkpt>
      <trkpt lat="42.3967940" lon="-7.2950410">
        <ele>1000.4</ele>
        <time>2014-10-01T17:09:05Z</time>
      </trkpt>
      <trkpt lat="42.3968310" lon="-7.2950780">
        <ele>1000.4</ele>
        <time>2014-10-01T17:09:06Z</time>
      </trkpt>
      <trkpt lat="42.3968670" lon="-7.2951160">
        <ele>1000.5</ele>
        <time>2014-10-01T17:09:07Z</time>
      </trkpt>
      <trkpt lat="42.3969020" lon="-7.2951530">
        <ele>1000.5</ele>
        <time>2014-10-01T17:09:08Z</time>
      </trkpt>
      <trkpt lat="42.3969380" lon="-7.2951910">
        <ele>1000.5</ele>
        <time>2014-10-01T17:09:09Z</time>
      </trkpt>
      <trkpt lat="42.3969720" lon="-7.2952290">
        <ele>1000.5</ele>
        <time>2014-10-01T17:09:10Z</time>
      </trkpt>
      <trkpt lat="42.3970070" lon="-7.2952700">
        <ele>1000.5</ele>
        <time>2014-10-01T17:09:11Z</time>
      </trkpt>
      <trkpt lat="42.3970400" lon="-7.2953100">
        <ele>1000.5</ele>
        <time>2014-10-01T17:09:12Z</time>
      </trkpt>
      <trkpt lat="42.3970750" lon="-7.2953540">
        <ele>1000.5</ele>
        <time>2014-10-01T17:09:13Z</time>
      </trkpt>
      <trkpt lat="42.3971120" lon="-7.2954010">
        <ele>1000.4</ele>
        <time>2014-10-01T17:09:14Z</time>
      </trkpt>
      <trkpt lat="42.3971470" lon="-7.2954500">
        <ele>1000.4</ele>
        <time>2014-10-01T17:09:15Z</time>
      </trkpt>
      <trkpt lat="42.3971830" lon="-7.2955050">
        <ele>1000.3</ele>
        <time>2014-10-01T17:09:16Z</time>
      </trkpt>
      <trkpt lat="42.3972160" lon="-7.2955620">
        <ele>1000.1</ele>
        <time>2014-10-01T17:09:17Z</time>
      </trkpt>
      <trkpt lat="42.3972470" lon="-7.2956230">
        <ele>1000.0</ele>
        <time>2014-10-01T17:09:18Z</time>
      </trkpt>
      <trkpt lat="42.3972760" lon="-7.2956880">
        <ele>999.8</ele>
        <time>2014-10-01T17:09:19Z</time>
      </trkpt>
      <trkpt lat="42.3973000" lon="-7.2957540">
        <ele>999.8</ele>
        <time>2014-10-01T17:09:20Z</time>
      </trkpt>
      <trkpt lat="42.3973120" lon="-7.2958260">
        <ele>999.7</ele>
        <time>2014-10-01T17:09:21Z</time>
      </trkpt>
      <trkpt lat="42.3973260" lon="-7.2958990">
        <ele>999.6</ele>
        <time>2014-10-01T17:09:22Z</time>
      </trkpt>
      <trkpt lat="42.3973390" lon="-7.2959740">
        <ele>999.6</ele>
        <time>2014-10-01T17:09:23Z</time>
      </trkpt>
      <trkpt lat="42.3973540" lon="-7.2960510">
        <ele>999.5</ele>
        <time>2014-10-01T17:09:24Z</time>
      </trkpt>
      <trkpt lat="42.3973690" lon="-7.2961320">
        <ele>999.3</ele>
        <time>2014-10-01T17:09:25Z</time>
      </trkpt>
      <trkpt lat="42.3973840" lon="-7.2962120">
        <ele>999.2</ele>
        <time>2014-10-01T17:09:26Z</time>
      </trkpt>
      <trkpt lat="42.3974000" lon="-7.2962900">
        <ele>999.1</ele>
        <time>2014-10-01T17:09:27Z</time>
      </trkpt>
      <trkpt lat="42.3974150" lon="-7.2963700">
        <ele>999.0</ele>
        <time>2014-10-01T17:09:28Z</time>
      </trkpt>
      <trkpt lat="42.3974310" lon="-7.2964480">
        <ele>998.8</ele>
        <time>2014-10-01T17:09:29Z</time>
      </trkpt>
      <trkpt lat="42.3974490" lon="-7.2965270">
        <ele>998.7</ele>
        <time>2014-10-01T17:09:30Z</time>
      </trkpt>
      <trkpt lat="42.3974690" lon="-7.2966050">
        <ele>998.7</ele>
        <time>2014-10-01T17:09:31Z</time>
      </trkpt>
      <trkpt lat="42.3974950" lon="-7.2966840">
        <ele>998.6</ele>
        <time>2014-10-01T17:09:32Z</time>
      </trkpt>
      <trkpt lat="42.3975320" lon="-7.2967490">
        <ele>998.4</ele>
        <time>2014-10-01T17:09:33Z</time>
      </trkpt>
      <trkpt lat="42.3975800" lon="-7.2968080">
        <ele>998.3</ele>
        <time>2014-10-01T17:09:34Z</time>
      </trkpt>
      <trkpt lat="42.3976320" lon="-7.2968630">
        <ele>998.1</ele>
        <time>2014-10-01T17:09:35Z</time>
      </trkpt>
      <trkpt lat="42.3976940" lon="-7.2969010">
        <ele>997.9</ele>
        <time>2014-10-01T17:09:36Z</time>
      </trkpt>
      <trkpt lat="42.3977630" lon="-7.2969380">
        <ele>997.8</ele>
        <time>2014-10-01T17:09:37Z</time>
      </trkpt>
      <trkpt lat="42.3978290" lon="-7.2969670">
        <ele>997.6</ele>
        <time>2014-10-01T17:09:38Z</time>
      </trkpt>
      <trkpt lat="42.3978970" lon="-7.2969900">
        <ele>997.5</ele>
        <time>2014-10-01T17:09:39Z</time>
      </trkpt>
      <trkpt lat="42.3979640" lon="-7.2970090">
        <ele>997.3</ele>
        <time>2014-10-01T17:09:40Z</time>
      </trkpt>
      <trkpt lat="42.3980270" lon="-7.2970240">
        <ele>997.1</ele>
        <time>2014-10-01T17:09:41Z</time>
      </trkpt>
      <trkpt lat="42.3980920" lon="-7.2970400">
        <ele>996.9</ele>
        <time>2014-10-01T17:09:42Z</time>
      </trkpt>
      <trkpt lat="42.3981560" lon="-7.2970540">
        <ele>996.7</ele>
        <time>2014-10-01T17:09:43Z</time>
      </trkpt>
      <trkpt lat="42.3982190" lon="-7.2970680">
        <ele>996.5</ele>
        <time>2014-10-01T17:09:44Z</time>
      </trkpt>
      <trkpt lat="42.3982760" lon="-7.2970750">
        <ele>996.4</ele>
        <time>2014-10-01T17:09:45Z</time>
      </trkpt>
      <trkpt lat="42.3983380" lon="-7.2970830">
        <ele>996.2</ele>
        <time>2014-10-01T17:09:46Z</time>
      </trkpt>
      <trkpt lat="42.3984060" lon="-7.2970890">
        <ele>996.0</ele>
        <time>2014-10-01T17:09:47Z</time>
      </trkpt>
      <trkpt lat="42.3984760" lon="-7.2970980">
        <ele>995.8</ele>
        <time>2014-10-01T17:09:48Z</time>
      </trkpt>
      <trkpt lat="42.3985480" lon="-7.2971050">
        <ele>995.7</ele>
        <time>2014-10-01T17:09:49Z</time>
      </trkpt>
      <trkpt lat="42.3986190" lon="-7.2971100">
        <ele>995.6</ele>
        <time>2014-10-01T17:09:50Z</time>
      </trkpt>
      <trkpt lat="42.3986860" lon="-7.2971150">
        <ele>995.5</ele>
        <time>2014-10-01T17:09:51Z</time>
      </trkpt>
      <trkpt lat="42.3987550" lon="-7.2971200">
        <ele>995.3</ele>
        <time>2014-10-01T17:09:52Z</time>
      </trkpt>
      <trkpt lat="42.3988240" lon="-7.2971240">
        <ele>995.3</ele>
        <time>2014-10-01T17:09:53Z</time>
      </trkpt>
      <trkpt lat="42.3988950" lon="-7.2971240">
        <ele>995.2</ele>
        <time>2014-10-01T17:09:54Z</time>
      </trkpt>
      <trkpt lat="42.3989680" lon="-7.2971180">
        <ele>995.2</ele>
        <time>2014-10-01T17:09:55Z</time>
      </trkpt>
      <trkpt lat="42.3990390" lon="-7.2971080">
        <ele>995.0</ele>
        <time>2014-10-01T17:09:56Z</time>
      </trkpt>
      <trkpt lat="42.3991120" lon="-7.2970920">
        <ele>994.9</ele>
        <time>2014-10-01T17:09:57Z</time>
      </trkpt>
      <trkpt lat="42.3991840" lon="-7.2970730">
        <ele>994.8</ele>
        <time>2014-10-01T17:09:58Z</time>
      </trkpt>
      <trkpt lat="42.3992520" lon="-7.2970490">
        <ele>994.7</ele>
        <time>2014-10-01T17:09:59Z</time>
      </trkpt>
      <trkpt lat="42.3993160" lon="-7.2970240">
        <ele>994.5</ele>
        <time>2014-10-01T17:10:00Z</time>
      </trkpt>
      <trkpt lat="42.3993830" lon="-7.2969950">
        <ele>994.4</ele>
        <time>2014-10-01T17:10:01Z</time>
      </trkpt>
      <trkpt lat="42.3994490" lon="-7.2969690">
        <ele>994.3</ele>
        <time>2014-10-01T17:10:02Z</time>
      </trkpt>
      <trkpt lat="42.3995150" lon="-7.2969450">
        <ele>994.2</ele>
        <time>2014-10-01T17:10:03Z</time>
      </trkpt>
      <trkpt lat="42.3995790" lon="-7.2969200">
        <ele>994.1</ele>
        <time>2014-10-01T17:10:04Z</time>
      </trkpt>
      <trkpt lat="42.3996440" lon="-7.2968940">
        <ele>994.0</ele>
        <time>2014-10-01T17:10:05Z</time>
      </trkpt>
      <trkpt lat="42.3997110" lon="-7.2968680">
        <ele>993.9</ele>
        <time>2014-10-01T17:10:06Z</time>
      </trkpt>
      <trkpt lat="42.3997820" lon="-7.2968410">
        <ele>993.7</ele>
        <time>2014-10-01T17:10:07Z</time>
      </trkpt>
      <trkpt lat="42.3998510" lon="-7.2968120">
        <ele>993.5</ele>
        <time>2014-10-01T17:10:08Z</time>
      </trkpt>
      <trkpt lat="42.3999210" lon="-7.2967850">
        <ele>993.3</ele>
        <time>2014-10-01T17:10:09Z</time>
      </trkpt>
      <trkpt lat="42.3999880" lon="-7.2967590">
        <ele>993.1</ele>
        <time>2014-10-01T17:10:10Z</time>
      </trkpt>
      <trkpt lat="42.4000560" lon="-7.2967330">
        <ele>992.9</ele>
        <time>2014-10-01T17:10:11Z</time>
      </trkpt>
      <trkpt lat="42.4001250" lon="-7.2967070">
        <ele>992.8</ele>
        <time>2014-10-01T17:10:12Z</time>
      </trkpt>
      <trkpt lat="42.4001970" lon="-7.2966800">
        <ele>992.6</ele>
        <time>2014-10-01T17:10:13Z</time>
      </trkpt>
      <trkpt lat="42.4002670" lon="-7.2966530">
        <ele>992.4</ele>
        <time>2014-10-01T17:10:14Z</time>
      </trkpt>
      <trkpt lat="42.4003390" lon="-7.2966220">
        <ele>992.2</ele>
        <time>2014-10-01T17:10:15Z</time>
      </trkpt>
      <trkpt lat="42.4004130" lon="-7.2965910">
        <ele>992.0</ele>
        <time>2014-10-01T17:10:16Z</time>
      </trkpt>
      <trkpt lat="42.4004870" lon="-7.2965580">
        <ele>991.8</ele>
        <time>2014-10-01T17:10:17Z</time>
      </trkpt>
      <trkpt lat="42.4005610" lon="-7.2965260">
        <ele>991.5</ele>
        <time>2014-10-01T17:10:18Z</time>
      </trkpt>
      <trkpt lat="42.4006360" lon="-7.2964960">
        <ele>991.3</ele>
        <time>2014-10-01T17:10:19Z</time>
      </trkpt>
      <trkpt lat="42.4007090" lon="-7.2964670">
        <ele>991.1</ele>
        <time>2014-10-01T17:10:20Z</time>
      </trkpt>
      <trkpt lat="42.4007860" lon="-7.2964370">
        <ele>991.0</ele>
        <time>2014-10-01T17:10:21Z</time>
      </trkpt>
      <trkpt lat="42.4008620" lon="-7.2964080">
        <ele>990.9</ele>
        <time>2014-10-01T17:10:22Z</time>
      </trkpt>
      <trkpt lat="42.4009370" lon="-7.2963790">
        <ele>990.9</ele>
        <time>2014-10-01T17:10:23Z</time>
      </trkpt>
      <trkpt lat="42.4010130" lon="-7.2963490">
        <ele>990.9</ele>
        <time>2014-10-01T17:10:24Z</time>
      </trkpt>
      <trkpt lat="42.4010840" lon="-7.2963200">
        <ele>991.0</ele>
        <time>2014-10-01T17:10:25Z</time>
      </trkpt>
      <trkpt lat="42.4011540" lon="-7.2962920">
        <ele>991.0</ele>
        <time>2014-10-01T17:10:26Z</time>
      </trkpt>
      <trkpt lat="42.4012210" lon="-7.2962650">
        <ele>991.1</ele>
        <time>2014-10-01T17:10:27Z</time>
      </trkpt>
      <trkpt lat="42.4012850" lon="-7.2962350">
        <ele>991.2</ele>
        <time>2014-10-01T17:10:28Z</time>
      </trkpt>
      <trkpt lat="42.4013460" lon="-7.2962020">
        <ele>991.3</ele>
        <time>2014-10-01T17:10:29Z</time>
      </trkpt>
      <trkpt lat="42.4014070" lon="-7.2961660">
        <ele>991.8</ele>
        <time>2014-10-01T17:10:30Z</time>
      </trkpt>
      <trkpt lat="42.4014670" lon="-7.2961300">
        <ele>992.4</ele>
        <time>2014-10-01T17:10:31Z</time>
      </trkpt>
      <trkpt lat="42.4015240" lon="-7.2960930">
        <ele>992.9</ele>
        <time>2014-10-01T17:10:32Z</time>
      </trkpt>
      <trkpt lat="42.4015780" lon="-7.2960560">
        <ele>993.4</ele>
        <time>2014-10-01T17:10:33Z</time>
      </trkpt>
      <trkpt lat="42.4016310" lon="-7.2960190">
        <ele>993.9</ele>
        <time>2014-10-01T17:10:34Z</time>
      </trkpt>
      <trkpt lat="42.4016800" lon="-7.2959810">
        <ele>994.3</ele>
        <time>2014-10-01T17:10:35Z</time>
      </trkpt>
      <trkpt lat="42.4017300" lon="-7.2959430">
        <ele>994.8</ele>
        <time>2014-10-01T17:10:36Z</time>
      </trkpt>
      <trkpt lat="42.4017780" lon="-7.2959040">
        <ele>995.2</ele>
        <time>2014-10-01T17:10:37Z</time>
      </trkpt>
      <trkpt lat="42.4018190" lon="-7.2958720">
        <ele>995.6</ele>
        <time>2014-10-01T17:10:38Z</time>
      </trkpt>
      <trkpt lat="42.4018590" lon="-7.2958410">
        <ele>996.0</ele>
        <time>2014-10-01T17:10:39Z</time>
      </trkpt>
      <trkpt lat="42.4018960" lon="-7.2958150">
        <ele>996.3</ele>
        <time>2014-10-01T17:10:40Z</time>
      </trkpt>
      <trkpt lat="42.4019310" lon="-7.2957920">
        <ele>996.6</ele>
        <time>2014-10-01T17:10:41Z</time>
      </trkpt>
      <trkpt lat="42.4019630" lon="-7.2957690">
        <ele>996.9</ele>
        <time>2014-10-01T17:10:42Z</time>
      </trkpt>
      <trkpt lat="42.4019950" lon="-7.2957460">
        <ele>997.2</ele>
        <time>2014-10-01T17:10:43Z</time>
      </trkpt>
      <trkpt lat="42.4020220" lon="-7.2957240">
        <ele>997.5</ele>
        <time>2014-10-01T17:10:44Z</time>
      </trkpt>
      <trkpt lat="42.4020460" lon="-7.2957040">
        <ele>997.7</ele>
        <time>2014-10-01T17:10:45Z</time>
      </trkpt>
      <trkpt lat="42.4020920" lon="-7.2956700">
        <ele>998.1</ele>
        <time>2014-10-01T17:10:47Z</time>
      </trkpt>
      <trkpt lat="42.4021350" lon="-7.2956350">
        <ele>998.5</ele>
        <time>2014-10-01T17:10:49Z</time>
      </trkpt>
      <trkpt lat="42.4021600" lon="-7.2956180">
        <ele>998.7</ele>
        <time>2014-10-01T17:10:50Z</time>
      </trkpt>
      <trkpt lat="42.4021870" lon="-7.2956020">
        <ele>999.0</ele>
        <time>2014-10-01T17:10:51Z</time>
      </trkpt>
      <trkpt lat="42.4022120" lon="-7.2955890">
        <ele>999.2</ele>
        <time>2014-10-01T17:10:52Z</time>
      </trkpt>
      <trkpt lat="42.4022590" lon="-7.2955600">
        <ele>999.6</ele>
        <time>2014-10-01T17:10:54Z</time>
      </trkpt>
      <trkpt lat="42.4023050" lon="-7.2955260">
        <ele>1000.0</ele>
        <time>2014-10-01T17:10:56Z</time>
      </trkpt>
      <trkpt lat="42.4023550" lon="-7.2954970">
        <ele>1000.5</ele>
        <time>2014-10-01T17:10:58Z</time>
      </trkpt>
      <trkpt lat="42.4023970" lon="-7.2954690">
        <ele>1000.9</ele>
        <time>2014-10-01T17:11:00Z</time>
      </trkpt>
      <trkpt lat="42.4024400" lon="-7.2954380">
        <ele>1001.3</ele>
        <time>2014-10-01T17:11:02Z</time>
      </trkpt>
      <trkpt lat="42.4024800" lon="-7.2954030">
        <ele>1001.6</ele>
        <time>2014-10-01T17:11:04Z</time>
      </trkpt>
      <trkpt lat="42.4025160" lon="-7.2953750">
        <ele>1002.0</ele>
        <time>2014-10-01T17:11:06Z</time>
      </trkpt>
      <trkpt lat="42.4025500" lon="-7.2953460">
        <ele>1002.3</ele>
        <time>2014-10-01T17:11:08Z</time>
      </trkpt>
      <trkpt lat="42.4025880" lon="-7.2953210">
        <ele>1002.6</ele>
        <time>2014-10-01T17:11:10Z</time>
      </trkpt>
      <trkpt lat="42.4026220" lon="-7.2952900">
        <ele>1003.0</ele>
        <time>2014-10-01T17:11:12Z</time>
      </trkpt>
      <trkpt lat="42.4026560" lon="-7.2952600">
        <ele>1003.3</ele>
        <time>2014-10-01T17:11:14Z</time>
      </trkpt>
      <trkpt lat="42.4026880" lon="-7.2952270">
        <ele>1003.6</ele>
        <time>2014-10-01T17:11:16Z</time>
      </trkpt>
      <trkpt lat="42.4027190" lon="-7.2951940">
        <ele>1003.9</ele>
        <time>2014-10-01T17:11:18Z</time>
      </trkpt>
      <trkpt lat="42.4027490" lon="-7.2951640">
        <ele>1004.2</ele>
        <time>2014-10-01T17:11:20Z</time>
      </trkpt>
      <trkpt lat="42.4027790" lon="-7.2951360">
        <ele>1004.5</ele>
        <time>2014-10-01T17:11:22Z</time>
      </trkpt>
      <trkpt lat="42.4028100" lon="-7.2951060">
        <ele>1004.8</ele>
        <time>2014-10-01T17:11:24Z</time>
      </trkpt>
      <trkpt lat="42.4028490" lon="-7.2950740">
        <ele>1005.2</ele>
        <time>2014-10-01T17:11:26Z</time>
      </trkpt>
      <trkpt lat="42.4028870" lon="-7.2950360">
        <ele>1005.6</ele>
        <time>2014-10-01T17:11:28Z</time>
      </trkpt>
      <trkpt lat="42.4029240" lon="-7.2949940">
        <ele>1006.0</ele>
        <time>2014-10-01T17:11:30Z</time>
      </trkpt>
      <trkpt lat="42.4029600" lon="-7.2949570">
        <ele>1006.3</ele>
        <time>2014-10-01T17:11:32Z</time>
      </trkpt>
      <trkpt lat="42.4029990" lon="-7.2949200">
        <ele>1006.7</ele>
        <time>2014-10-01T17:11:34Z</time>
      </trkpt>
      <trkpt lat="42.4030340" lon="-7.2948810">
        <ele>1007.1</ele>
        <time>2014-10-01T17:11:36Z</time>
      </trkpt>
      <trkpt lat="42.4030630" lon="-7.2948370">
        <ele>1007.4</ele>
        <time>2014-10-01T17:11:38Z</time>
      </trkpt>
      <trkpt lat="42.4030890" lon="-7.2947840">
        <ele>1007.8</ele>
        <time>2014-10-01T17:11:40Z</time>
      </trkpt>
      <trkpt lat="42.4031180" lon="-7.2947380">
        <ele>1008.2</ele>
        <time>2014-10-01T17:11:42Z</time>
      </trkpt>
      <trkpt lat="42.4031500" lon="-7.2947030">
        <ele>1008.5</ele>
        <time>2014-10-01T17:11:44Z</time>
      </trkpt>
      <trkpt lat="42.4031840" lon="-7.2946690">
        <ele>1008.9</ele>
        <time>2014-10-01T17:11:46Z</time>
      </trkpt>
      <trkpt lat="42.4032170" lon="-7.2946340">
        <ele>1009.2</ele>
        <time>2014-10-01T17:11:48Z</time>
      </trkpt>
      <trkpt lat="42.4032510" lon="-7.2946000">
        <ele>1009.5</ele>
        <time>2014-10-01T17:11:50Z</time>
      </trkpt>
      <trkpt lat="42.4032860" lon="-7.2945670">
        <ele>1009.9</ele>
        <time>2014-10-01T17:11:52Z</time>
      </trkpt>
      <trkpt lat="42.4033260" lon="-7.2945340">
        <ele>1010.3</ele>
        <time>2014-10-01T17:11:54Z</time>
      </trkpt>
      <trkpt lat="42.4033700" lon="-7.2944950">
        <ele>1010.7</ele>
        <time>2014-10-01T17:11:56Z</time>
      </trkpt>
      <trkpt lat="42.4033920" lon="-7.2944740">
        <ele>1010.9</ele>
        <time>2014-10-01T17:11:57Z</time>
      </trkpt>
      <trkpt lat="42.4034350" lon="-7.2944330">
        <ele>1011.3</ele>
        <time>2014-10-01T17:11:59Z</time>
      </trkpt>
      <trkpt lat="42.4034730" lon="-7.2943920">
        <ele>1011.7</ele>
        <time>2014-10-01T17:12:01Z</time>
      </trkpt>
      <trkpt lat="42.4035070" lon="-7.2943470">
        <ele>1012.1</ele>
        <time>2014-10-01T17:12:03Z</time>
      </trkpt>
      <trkpt lat="42.4035350" lon="-7.2942960">
        <ele>1012.5</ele>
        <time>2014-10-01T17:12:05Z</time>
      </trkpt>
      <trkpt lat="42.4035570" lon="-7.2942450">
        <ele>1012.8</ele>
        <time>2014-10-01T17:12:07Z</time>
      </trkpt>
      <trkpt lat="42.4035740" lon="-7.2941900">
        <ele>1013.2</ele>
        <time>2014-10-01T17:12:09Z</time>
      </trkpt>
      <trkpt lat="42.4035920" lon="-7.2941330">
        <ele>1013.6</ele>
        <time>2014-10-01T17:12:11Z</time>
      </trkpt>
      <trkpt lat="42.4036080" lon="-7.2940700">
        <ele>1013.9</ele>
        <time>2014-10-01T17:12:13Z</time>
      </trkpt>
      <trkpt lat="42.4036210" lon="-7.2940050">
        <ele>1014.3</ele>
        <time>2014-10-01T17:12:15Z</time>
      </trkpt>
      <trkpt lat="42.4036350" lon="-7.2939450">
        <ele>1014.7</ele>
        <time>2014-10-01T17:12:17Z</time>
      </trkpt>
      <trkpt lat="42.4036500" lon="-7.2938830">
        <ele>1015.1</ele>
        <time>2014-10-01T17:12:19Z</time>
      </trkpt>
      <trkpt lat="42.4036650" lon="-7.2938210">
        <ele>1015.5</ele>
        <time>2014-10-01T17:12:21Z</time>
      </trkpt>
      <trkpt lat="42.4036830" lon="-7.2937580">
        <ele>1015.9</ele>
        <time>2014-10-01T17:12:23Z</time>
      </trkpt>
      <trkpt lat="42.4037040" lon="-7.2936940">
        <ele>1016.3</ele>
        <time>2014-10-01T17:12:25Z</time>
      </trkpt>
      <trkpt lat="42.4037280" lon="-7.2936310">
        <ele>1016.7</ele>
        <time>2014-10-01T17:12:27Z</time>
      </trkpt>
      <trkpt lat="42.4037410" lon="-7.2935980">
        <ele>1017.0</ele>
        <time>2014-10-01T17:12:28Z</time>
      </trkpt>
      <trkpt lat="42.4037550" lon="-7.2935640">
        <ele>1017.2</ele>
        <time>2014-10-01T17:12:29Z</time>
      </trkpt>
      <trkpt lat="42.4037720" lon="-7.2935270">
        <ele>1017.5</ele>
        <time>2014-10-01T17:12:30Z</time>
      </trkpt>
      <trkpt lat="42.4037870" lon="-7.2934930">
        <ele>1017.7</ele>
        <time>2014-10-01T17:12:31Z</time>
      </trkpt>
      <trkpt lat="42.4038030" lon="-7.2934590">
        <ele>1017.9</ele>
        <time>2014-10-01T17:12:32Z</time>
      </trkpt>
      <trkpt lat="42.4038190" lon="-7.2934190">
        <ele>1018.2</ele>
        <time>2014-10-01T17:12:33Z</time>
      </trkpt>
      <trkpt lat="42.4038320" lon="-7.2933850">
        <ele>1018.4</ele>
        <time>2014-10-01T17:12:34Z</time>
      </trkpt>
      <trkpt lat="42.4038430" lon="-7.2933510">
        <ele>1018.7</ele>
        <time>2014-10-01T17:12:35Z</time>
      </trkpt>
      <trkpt lat="42.4038540" lon="-7.2933130">
        <ele>1018.9</ele>
        <time>2014-10-01T17:12:36Z</time>
      </trkpt>
      <trkpt lat="42.4038640" lon="-7.2932740">
        <ele>1019.1</ele>
        <time>2014-10-01T17:12:37Z</time>
      </trkpt>
      <trkpt lat="42.4038710" lon="-7.2932370">
        <ele>1019.4</ele>
        <time>2014-10-01T17:12:38Z</time>
      </trkpt>
      <trkpt lat="42.4038840" lon="-7.2931750">
        <ele>1019.8</ele>
        <time>2014-10-01T17:12:40Z</time>
      </trkpt>
      <trkpt lat="42.4038930" lon="-7.2931400">
        <ele>1020.0</ele>
        <time>2014-10-01T17:12:41Z</time>
      </trkpt>
      <trkpt lat="42.4039040" lon="-7.2931040">
        <ele>1020.2</ele>
        <time>2014-10-01T17:12:42Z</time>
      </trkpt>
      <trkpt lat="42.4039270" lon="-7.2930320">
        <ele>1020.7</ele>
        <time>2014-10-01T17:12:44Z</time>
      </trkpt>
      <trkpt lat="42.4039380" lon="-7.2929970">
        <ele>1020.9</ele>
        <time>2014-10-01T17:12:45Z</time>
      </trkpt>
      <trkpt lat="42.4039560" lon="-7.2929370">
        <ele>1021.3</ele>
        <time>2014-10-01T17:12:47Z</time>
      </trkpt>
      <trkpt lat="42.4039760" lon="-7.2928800">
        <ele>1021.7</ele>
        <time>2014-10-01T17:12:49Z</time>
      </trkpt>
      <trkpt lat="42.4040010" lon="-7.2928270">
        <ele>1022.0</ele>
        <time>2014-10-01T17:12:51Z</time>
      </trkpt>
      <trkpt lat="42.4040270" lon="-7.2927820">
        <ele>1022.4</ele>
        <time>2014-10-01T17:12:53Z</time>
      </trkpt>
      <trkpt lat="42.4040530" lon="-7.2927380">
        <ele>1022.7</ele>
        <time>2014-10-01T17:12:55Z</time>
      </trkpt>
      <trkpt lat="42.4040770" lon="-7.2926940">
        <ele>1023.0</ele>
        <time>2014-10-01T17:12:57Z</time>
      </trkpt>
      <trkpt lat="42.4041010" lon="-7.2926510">
        <ele>1023.4</ele>
        <time>2014-10-01T17:12:59Z</time>
      </trkpt>
      <trkpt lat="42.4041240" lon="-7.2926080">
        <ele>1023.7</ele>
        <time>2014-10-01T17:13:01Z</time>
      </trkpt>
      <trkpt lat="42.4041470" lon="-7.2925650">
        <ele>1024.0</ele>
        <time>2014-10-01T17:13:03Z</time>
      </trkpt>
      <trkpt lat="42.4041720" lon="-7.2925250">
        <ele>1024.3</ele>
        <time>2014-10-01T17:13:05Z</time>
      </trkpt>
      <trkpt lat="42.4042000" lon="-7.2924850">
        <ele>1024.6</ele>
        <time>2014-10-01T17:13:07Z</time>
      </trkpt>
      <trkpt lat="42.4042280" lon="-7.2924500">
        <ele>1024.9</ele>
        <time>2014-10-01T17:13:09Z</time>
      </trkpt>
      <trkpt lat="42.4042570" lon="-7.2924200">
        <ele>1025.2</ele>
        <time>2014-10-01T17:13:11Z</time>
      </trkpt>
      <trkpt lat="42.4042850" lon="-7.2923900">
        <ele>1025.5</ele>
        <time>2014-10-01T17:13:13Z</time>
      </trkpt>
      <trkpt lat="42.4043100" lon="-7.2923540">
        <ele>1025.8</ele>
        <time>2014-10-01T17:13:15Z</time>
      </trkpt>
      <trkpt lat="42.4043340" lon="-7.2923240">
        <ele>1026.1</ele>
        <time>2014-10-01T17:13:17Z</time>
      </trkpt>
      <trkpt lat="42.4043590" lon="-7.2922890">
        <ele>1026.4</ele>
        <time>2014-10-01T17:13:19Z</time>
      </trkpt>
      <trkpt lat="42.4043810" lon="-7.2922530">
        <ele>1026.6</ele>
        <time>2014-10-01T17:13:21Z</time>
      </trkpt>
      <trkpt lat="42.4044050" lon="-7.2922230">
        <ele>1026.9</ele>
        <time>2014-10-01T17:13:23Z</time>
      </trkpt>
      <trkpt lat="42.4044320" lon="-7.2921900">
        <ele>1027.2</ele>
        <time>2014-10-01T17:13:25Z</time>
      </trkpt>
      <trkpt lat="42.4044580" lon="-7.2921530">
        <ele>1027.5</ele>
        <time>2014-10-01T17:13:27Z</time>
      </trkpt>
      <trkpt lat="42.4044840" lon="-7.2921230">
        <ele>1027.8</ele>
        <time>2014-10-01T17:13:29Z</time>
      </trkpt>
      <trkpt lat="42.4045110" lon="-7.2920910">
        <ele>1028.1</ele>
        <time>2014-10-01T17:13:31Z</time>
      </trkpt>
      <trkpt lat="42.4045420" lon="-7.2920620">
        <ele>1028.4</ele>
        <time>2014-10-01T17:13:33Z</time>
      </trkpt>
      <trkpt lat="42.4045750" lon="-7.2920360">
        <ele>1028.7</ele>
        <time>2014-10-01T17:13:35Z</time>
      </trkpt>
      <trkpt lat="42.4046090" lon="-7.2920110">
        <ele>1029.0</ele>
        <time>2014-10-01T17:13:37Z</time>
      </trkpt>
      <trkpt lat="42.4046440" lon="-7.2919860">
        <ele>1029.3</ele>
        <time>2014-10-01T17:13:39Z</time>
      </trkpt>
      <trkpt lat="42.4046900" lon="-7.2919510">
        <ele>1029.7</ele>
        <time>2014-10-01T17:13:41Z</time>
      </trkpt>
      <trkpt lat="42.4047290" lon="-7.2919260">
        <ele>1030.1</ele>
        <time>2014-10-01T17:13:43Z</time>
      </trkpt>
      <trkpt lat="42.4047690" lon="-7.2919100">
        <ele>1030.4</ele>
        <time>2014-10-01T17:13:45Z</time>
      </trkpt>
      <trkpt lat="42.4048200" lon="-7.2918900">
        <ele>1030.9</ele>
        <time>2014-10-01T17:13:47Z</time>
      </trkpt>
      <trkpt lat="42.4048650" lon="-7.2918760">
        <ele>1031.2</ele>
        <time>2014-10-01T17:13:49Z</time>
      </trkpt>
      <trkpt lat="42.4049160" lon="-7.2918580">
        <ele>1031.7</ele>
        <time>2014-10-01T17:13:51Z</time>
      </trkpt>
      <trkpt lat="42.4049680" lon="-7.2918400">
        <ele>1032.1</ele>
        <time>2014-10-01T17:13:53Z</time>
      </trkpt>
      <trkpt lat="42.4049980" lon="-7.2918290">
        <ele>1032.3</ele>
        <time>2014-10-01T17:13:54Z</time>
      </trkpt>
      <trkpt lat="42.4050270" lon="-7.2918200">
        <ele>1032.6</ele>
        <time>2014-10-01T17:13:55Z</time>
      </trkpt>
      <trkpt lat="42.4050880" lon="-7.2918000">
        <ele>1033.1</ele>
        <time>2014-10-01T17:13:57Z</time>
      </trkpt>
      <trkpt lat="42.4051270" lon="-7.2917850">
        <ele>1033.4</ele>
        <time>2014-10-01T17:13:58Z</time>
      </trkpt>
      <trkpt lat="42.4051660" lon="-7.2917650">
        <ele>1033.7</ele>
        <time>2014-10-01T17:13:59Z</time>
      </trkpt>
      <trkpt lat="42.4052020" lon="-7.2917420">
        <ele>1034.1</ele>
        <time>2014-10-01T17:14:00Z</time>
      </trkpt>
      <trkpt lat="42.4052370" lon="-7.2917160">
        <ele>1034.4</ele>
        <time>2014-10-01T17:14:01Z</time>
      </trkpt>
      <trkpt lat="42.4052730" lon="-7.2916870">
        <ele>1034.7</ele>
        <time>2014-10-01T17:14:02Z</time>
      </trkpt>
      <trkpt lat="42.4053090" lon="-7.2916550">
        <ele>1035.1</ele>
        <time>2014-10-01T17:14:03Z</time>
      </trkpt>
      <trkpt lat="42.4053490" lon="-7.2916190">
        <ele>1035.5</ele>
        <time>2014-10-01T17:14:04Z</time>
      </trkpt>
      <trkpt lat="42.4053850" lon="-7.2915800">
        <ele>1035.8</ele>
        <time>2014-10-01T17:14:05Z</time>
      </trkpt>
      <trkpt lat="42.4054210" lon="-7.2915370">
        <ele>1036.2</ele>
        <time>2014-10-01T17:14:06Z</time>
      </trkpt>
      <trkpt lat="42.4054570" lon="-7.2914890">
        <ele>1036.6</ele>
        <time>2014-10-01T17:14:07Z</time>
      </trkpt>
      <trkpt lat="42.4054990" lon="-7.2914330">
        <ele>1037.1</ele>
        <time>2014-10-01T17:14:08Z</time>
      </trkpt>
      <trkpt lat="42.4055320" lon="-7.2913810">
        <ele>1037.5</ele>
        <time>2014-10-01T17:14:09Z</time>
      </trkpt>
      <trkpt lat="42.4055660" lon="-7.2913290">
        <ele>1037.9</ele>
        <time>2014-10-01T17:14:10Z</time>
      </trkpt>
      <trkpt lat="42.4055980" lon="-7.2912790">
        <ele>1038.3</ele>
        <time>2014-10-01T17:14:11Z</time>
      </trkpt>
      <trkpt lat="42.4056310" lon="-7.2912280">
        <ele>1038.7</ele>
        <time>2014-10-01T17:14:12Z</time>
      </trkpt>
      <trkpt lat="42.4056620" lon="-7.2911790">
        <ele>1039.1</ele>
        <time>2014-10-01T17:14:13Z</time>
      </trkpt>
      <trkpt lat="42.4056930" lon="-7.2911290">
        <ele>1039.5</ele>
        <time>2014-10-01T17:14:14Z</time>
      </trkpt>
      <trkpt lat="42.4057250" lon="-7.2910810">
        <ele>1039.9</ele>
        <time>2014-10-01T17:14:15Z</time>
      </trkpt>
      <trkpt lat="42.4057560" lon="-7.2910280">
        <ele>1040.3</ele>
        <time>2014-10-01T17:14:16Z</time>
      </trkpt>
      <trkpt lat="42.4057850" lon="-7.2909740">
        <ele>1040.7</ele>
        <time>2014-10-01T17:14:17Z</time>
      </trkpt>
      <trkpt lat="42.4058130" lon="-7.2909180">
        <ele>1041.1</ele>
        <time>2014-10-01T17:14:18Z</time>
      </trkpt>
      <trkpt lat="42.4058390" lon="-7.2908600">
        <ele>1041.5</ele>
        <time>2014-10-01T17:14:19Z</time>
      </trkpt>
      <trkpt lat="42.4058640" lon="-7.2907990">
        <ele>1041.8</ele>
        <time>2014-10-01T17:14:20Z</time>
      </trkpt>
      <trkpt lat="42.4058870" lon="-7.2907390">
        <ele>1042.0</ele>
        <time>2014-10-01T17:14:21Z</time>
      </trkpt>
      <trkpt lat="42.4059070" lon="-7.2906790">
        <ele>1042.2</ele>
        <time>2014-10-01T17:14:22Z</time>
      </trkpt>
      <trkpt lat="42.4059240" lon="-7.2906210">
        <ele>1042.4</ele>
        <time>2014-10-01T17:14:23Z</time>
      </trkpt>
      <trkpt lat="42.4059380" lon="-7.2905630">
        <ele>1042.7</ele>
        <time>2014-10-01T17:14:24Z</time>
      </trkpt>
      <trkpt lat="42.4059510" lon="-7.2905040">
        <ele>1042.9</ele>
        <time>2014-10-01T17:14:25Z</time>
      </trkpt>
      <trkpt lat="42.4059640" lon="-7.2904400">
        <ele>1043.1</ele>
        <time>2014-10-01T17:14:26Z</time>
      </trkpt>
      <trkpt lat="42.4059760" lon="-7.2903760">
        <ele>1043.3</ele>
        <time>2014-10-01T17:14:27Z</time>
      </trkpt>
      <trkpt lat="42.4059880" lon="-7.2903070">
        <ele>1043.5</ele>
        <time>2014-10-01T17:14:28Z</time>
      </trkpt>
      <trkpt lat="42.4059980" lon="-7.2902400">
        <ele>1043.8</ele>
        <time>2014-10-01T17:14:29Z</time>
      </trkpt>
      <trkpt lat="42.4060060" lon="-7.2901790">
        <ele>1044.0</ele>
        <time>2014-10-01T17:14:30Z</time>
      </trkpt>
      <trkpt lat="42.4060150" lon="-7.2901220">
        <ele>1044.2</ele>
        <time>2014-10-01T17:14:31Z</time>
      </trkpt>
      <trkpt lat="42.4060240" lon="-7.2900590">
        <ele>1044.4</ele>
        <time>2014-10-01T17:14:32Z</time>
      </trkpt>
      <trkpt lat="42.4060310" lon="-7.2899990">
        <ele>1044.6</ele>
        <time>2014-10-01T17:14:33Z</time>
      </trkpt>
      <trkpt lat="42.4060390" lon="-7.2899400">
        <ele>1044.8</ele>
        <time>2014-10-01T17:14:34Z</time>
      </trkpt>
      <trkpt lat="42.4060500" lon="-7.2898750">
        <ele>1045.0</ele>
        <time>2014-10-01T17:14:35Z</time>
      </trkpt>
      <trkpt lat="42.4060630" lon="-7.2898130">
        <ele>1045.2</ele>
        <time>2014-10-01T17:14:36Z</time>
      </trkpt>
      <trkpt lat="42.4060760" lon="-7.2897560">
        <ele>1045.4</ele>
        <time>2014-10-01T17:14:37Z</time>
      </trkpt>
      <trkpt lat="42.4060900" lon="-7.2897000">
        <ele>1045.6</ele>
        <time>2014-10-01T17:14:38Z</time>
      </trkpt>
      <trkpt lat="42.4061030" lon="-7.2896480">
        <ele>1045.8</ele>
        <time>2014-10-01T17:14:39Z</time>
      </trkpt>
      <trkpt lat="42.4061150" lon="-7.2895990">
        <ele>1046.0</ele>
        <time>2014-10-01T17:14:40Z</time>
      </trkpt>
      <trkpt lat="42.4061270" lon="-7.2895470">
        <ele>1046.2</ele>
        <time>2014-10-01T17:14:41Z</time>
      </trkpt>
      <trkpt lat="42.4061390" lon="-7.2894940">
        <ele>1046.4</ele>
        <time>2014-10-01T17:14:42Z</time>
      </trkpt>
      <trkpt lat="42.4061510" lon="-7.2894390">
        <ele>1046.6</ele>
        <time>2014-10-01T17:14:43Z</time>
      </trkpt>
      <trkpt lat="42.4061630" lon="-7.2893850">
        <ele>1046.7</ele>
        <time>2014-10-01T17:14:44Z</time>
      </trkpt>
      <trkpt lat="42.4061760" lon="-7.2893350">
        <ele>1046.9</ele>
        <time>2014-10-01T17:14:45Z</time>
      </trkpt>
      <trkpt lat="42.4061880" lon="-7.2892890">
        <ele>1047.1</ele>
        <time>2014-10-01T17:14:46Z</time>
      </trkpt>
      <trkpt lat="42.4061980" lon="-7.2892360">
        <ele>1047.3</ele>
        <time>2014-10-01T17:14:47Z</time>
      </trkpt>
      <trkpt lat="42.4062060" lon="-7.2891890">
        <ele>1047.4</ele>
        <time>2014-10-01T17:14:48Z</time>
      </trkpt>
      <trkpt lat="42.4062180" lon="-7.2891410">
        <ele>1047.6</ele>
        <time>2014-10-01T17:14:49Z</time>
      </trkpt>
      <trkpt lat="42.4062300" lon="-7.2891020">
        <ele>1047.7</ele>
        <time>2014-10-01T17:14:50Z</time>
      </trkpt>
      <trkpt lat="42.4062420" lon="-7.2890560">
        <ele>1047.9</ele>
        <time>2014-10-01T17:14:51Z</time>
      </trkpt>
      <trkpt lat="42.4062520" lon="-7.2890170">
        <ele>1048.0</ele>
        <time>2014-10-01T17:14:52Z</time>
      </trkpt>
      <trkpt lat="42.4062620" lon="-7.2889830">
        <ele>1048.2</ele>
        <time>2014-10-01T17:14:53Z</time>
      </trkpt>
      <trkpt lat="42.4062710" lon="-7.2889440">
        <ele>1048.3</ele>
        <time>2014-10-01T17:14:54Z</time>
      </trkpt>
      <trkpt lat="42.4062800" lon="-7.2889010">
        <ele>1048.5</ele>
        <time>2014-10-01T17:14:55Z</time>
      </trkpt>
      <trkpt lat="42.4062890" lon="-7.2888640">
        <ele>1048.6</ele>
        <time>2014-10-01T17:14:56Z</time>
      </trkpt>
      <trkpt lat="42.4063100" lon="-7.2887990">
        <ele>1048.8</ele>
        <time>2014-10-01T17:14:58Z</time>
      </trkpt>
      <trkpt lat="42.4063220" lon="-7.2887580">
        <ele>1049.0</ele>
        <time>2014-10-01T17:14:59Z</time>
      </trkpt>
      <trkpt lat="42.4063350" lon="-7.2887150">
        <ele>1049.1</ele>
        <time>2014-10-01T17:15:00Z</time>
      </trkpt>
      <trkpt lat="42.4063510" lon="-7.2886750">
        <ele>1049.3</ele>
        <time>2014-10-01T17:15:01Z</time>
      </trkpt>
      <trkpt lat="42.4063670" lon="-7.2886270">
        <ele>1049.5</ele>
        <time>2014-10-01T17:15:02Z</time>
      </trkpt>
      <trkpt lat="42.4063830" lon="-7.2885770">
        <ele>1049.6</ele>
        <time>2014-10-01T17:15:03Z</time>
      </trkpt>
      <trkpt lat="42.4064030" lon="-7.2885190">
        <ele>1049.9</ele>
        <time>2014-10-01T17:15:04Z</time>
      </trkpt>
      <trkpt lat="42.4064200" lon="-7.2884700">
        <ele>1050.0</ele>
        <time>2014-10-01T17:15:05Z</time>
      </trkpt>
      <trkpt lat="42.4064360" lon="-7.2884260">
        <ele>1050.2</ele>
        <time>2014-10-01T17:15:06Z</time>
      </trkpt>
      <trkpt lat="42.4064530" lon="-7.2883800">
        <ele>1050.4</ele>
        <time>2014-10-01T17:15:07Z</time>
      </trkpt>
      <trkpt lat="42.4064730" lon="-7.2883270">
        <ele>1050.6</ele>
        <time>2014-10-01T17:15:08Z</time>
      </trkpt>
      <trkpt lat="42.4064900" lon="-7.2882800">
        <ele>1050.7</ele>
        <time>2014-10-01T17:15:09Z</time>
      </trkpt>
      <trkpt lat="42.4065070" lon="-7.2882300">
        <ele>1050.9</ele>
        <time>2014-10-01T17:15:10Z</time>
      </trkpt>
      <trkpt lat="42.4065240" lon="-7.2881770">
        <ele>1051.1</ele>
        <time>2014-10-01T17:15:11Z</time>
      </trkpt>
      <trkpt lat="42.4065400" lon="-7.2881230">
        <ele>1051.3</ele>
        <time>2014-10-01T17:15:12Z</time>
      </trkpt>
      <trkpt lat="42.4065570" lon="-7.2880700">
        <ele>1051.5</ele>
        <time>2014-10-01T17:15:13Z</time>
      </trkpt>
      <trkpt lat="42.4065730" lon="-7.2880200">
        <ele>1051.7</ele>
        <time>2014-10-01T17:15:14Z</time>
      </trkpt>
      <trkpt lat="42.4065890" lon="-7.2879640">
        <ele>1051.9</ele>
        <time>2014-10-01T17:15:15Z</time>
      </trkpt>
      <trkpt lat="42.4066070" lon="-7.2879080">
        <ele>1052.1</ele>
        <time>2014-10-01T17:15:16Z</time>
      </trkpt>
      <trkpt lat="42.4066260" lon="-7.2878500">
        <ele>1052.3</ele>
        <time>2014-10-01T17:15:17Z</time>
      </trkpt>
      <trkpt lat="42.4066460" lon="-7.2877900">
        <ele>1052.5</ele>
        <time>2014-10-01T17:15:18Z</time>
      </trkpt>
      <trkpt lat="42.4066660" lon="-7.2877290">
        <ele>1052.8</ele>
        <time>2014-10-01T17:15:19Z</time>
      </trkpt>
      <trkpt lat="42.4066850" lon="-7.2876680">
        <ele>1053.0</ele>
        <time>2014-10-01T17:15:20Z</time>
      </trkpt>
      <trkpt lat="42.4067040" lon="-7.2876090">
        <ele>1053.2</ele>
        <time>2014-10-01T17:15:21Z</time>
      </trkpt>
      <trkpt lat="42.4067220" lon="-7.2875510">
        <ele>1053.4</ele>
        <time>2014-10-01T17:15:22Z</time>
      </trkpt>
      <trkpt lat="42.4067450" lon="-7.2874890">
        <ele>1053.6</ele>
        <time>2014-10-01T17:15:23Z</time>
      </trkpt>
      <trkpt lat="42.4067660" lon="-7.2874310">
        <ele>1053.9</ele>
        <time>2014-10-01T17:15:24Z</time>
      </trkpt>
      <trkpt lat="42.4067920" lon="-7.2873700">
        <ele>1054.1</ele>
        <time>2014-10-01T17:15:25Z</time>
      </trkpt>
      <trkpt lat="42.4068150" lon="-7.2873130">
        <ele>1054.3</ele>
        <time>2014-10-01T17:15:26Z</time>
      </trkpt>
      <trkpt lat="42.4068370" lon="-7.2872570">
        <ele>1054.5</ele>
        <time>2014-10-01T17:15:27Z</time>
      </trkpt>
      <trkpt lat="42.4068590" lon="-7.2872000">
        <ele>1054.7</ele>
        <time>2014-10-01T17:15:28Z</time>
      </trkpt>
      <trkpt lat="42.4068780" lon="-7.2871480">
        <ele>1054.9</ele>
        <time>2014-10-01T17:15:29Z</time>
      </trkpt>
      <trkpt lat="42.4068980" lon="-7.2870950">
        <ele>1055.0</ele>
        <time>2014-10-01T17:15:30Z</time>
      </trkpt>
      <trkpt lat="42.4069210" lon="-7.2870380">
        <ele>1055.2</ele>
        <time>2014-10-01T17:15:31Z</time>
      </trkpt>
      <trkpt lat="42.4069430" lon="-7.2869860">
        <ele>1055.4</ele>
        <time>2014-10-01T17:15:32Z</time>
      </trkpt>
      <trkpt lat="42.4069660" lon="-7.2869280">
        <ele>1055.6</ele>
        <time>2014-10-01T17:15:33Z</time>
      </trkpt>
      <trkpt lat="42.4069860" lon="-7.2868810">
        <ele>1055.7</ele>
        <time>2014-10-01T17:15:34Z</time>
      </trkpt>
      <trkpt lat="42.4070070" lon="-7.2868320">
        <ele>1055.9</ele>
        <time>2014-10-01T17:15:35Z</time>
      </trkpt>
      <trkpt lat="42.4070320" lon="-7.2867860">
        <ele>1056.0</ele>
        <time>2014-10-01T17:15:36Z</time>
      </trkpt>
      <trkpt lat="42.4070550" lon="-7.2867440">
        <ele>1056.2</ele>
        <time>2014-10-01T17:15:37Z</time>
      </trkpt>
      <trkpt lat="42.4070760" lon="-7.2867030">
        <ele>1056.3</ele>
        <time>2014-10-01T17:15:38Z</time>
      </trkpt>
      <trkpt lat="42.4070980" lon="-7.2866680">
        <ele>1056.4</ele>
        <time>2014-10-01T17:15:39Z</time>
      </trkpt>
      <trkpt lat="42.4071200" lon="-7.2866320">
        <ele>1056.6</ele>
        <time>2014-10-01T17:15:40Z</time>
      </trkpt>
      <trkpt lat="42.4071400" lon="-7.2865930">
        <ele>1056.7</ele>
        <time>2014-10-01T17:15:41Z</time>
      </trkpt>
      <trkpt lat="42.4071590" lon="-7.2865570">
        <ele>1056.8</ele>
        <time>2014-10-01T17:15:42Z</time>
      </trkpt>
      <trkpt lat="42.4071790" lon="-7.2865230">
        <ele>1056.9</ele>
        <time>2014-10-01T17:15:43Z</time>
      </trkpt>
      <trkpt lat="42.4072010" lon="-7.2864930">
        <ele>1057.1</ele>
        <time>2014-10-01T17:15:44Z</time>
      </trkpt>
      <trkpt lat="42.4072230" lon="-7.2864640">
        <ele>1057.2</ele>
        <time>2014-10-01T17:15:45Z</time>
      </trkpt>
      <trkpt lat="42.4072440" lon="-7.2864340">
        <ele>1057.3</ele>
        <time>2014-10-01T17:15:46Z</time>
      </trkpt>
      <trkpt lat="42.4072650" lon="-7.2864030">
        <ele>1057.4</ele>
        <time>2014-10-01T17:15:47Z</time>
      </trkpt>
      <trkpt lat="42.4072900" lon="-7.2863730">
        <ele>1057.5</ele>
        <time>2014-10-01T17:15:48Z</time>
      </trkpt>
      <trkpt lat="42.4073100" lon="-7.2863490">
        <ele>1057.6</ele>
        <time>2014-10-01T17:15:49Z</time>
      </trkpt>
      <trkpt lat="42.4073330" lon="-7.2863230">
        <ele>1057.7</ele>
        <time>2014-10-01T17:15:50Z</time>
      </trkpt>
      <trkpt lat="42.4073550" lon="-7.2862990">
        <ele>1057.9</ele>
        <time>2014-10-01T17:15:51Z</time>
      </trkpt>
      <trkpt lat="42.4073760" lon="-7.2862740">
        <ele>1058.0</ele>
        <time>2014-10-01T17:15:52Z</time>
      </trkpt>
      <trkpt lat="42.4074000" lon="-7.2862490">
        <ele>1058.1</ele>
        <time>2014-10-01T17:15:53Z</time>
      </trkpt>
      <trkpt lat="42.4074220" lon="-7.2862250">
        <ele>1058.2</ele>
        <time>2014-10-01T17:15:54Z</time>
      </trkpt>
      <trkpt lat="42.4074470" lon="-7.2862000">
        <ele>1058.3</ele>
        <time>2014-10-01T17:15:55Z</time>
      </trkpt>
      <trkpt lat="42.4074680" lon="-7.2861770">
        <ele>1058.4</ele>
        <time>2014-10-01T17:15:56Z</time>
      </trkpt>
      <trkpt lat="42.4074890" lon="-7.2861530">
        <ele>1058.5</ele>
        <time>2014-10-01T17:15:57Z</time>
      </trkpt>
      <trkpt lat="42.4075110" lon="-7.2861300">
        <ele>1058.6</ele>
        <time>2014-10-01T17:15:58Z</time>
      </trkpt>
      <trkpt lat="42.4075330" lon="-7.2861050">
        <ele>1058.7</ele>
        <time>2014-10-01T17:15:59Z</time>
      </trkpt>
      <trkpt lat="42.4075570" lon="-7.2860800">
        <ele>1058.8</ele>
        <time>2014-10-01T17:16:00Z</time>
      </trkpt>
      <trkpt lat="42.4075800" lon="-7.2860540">
        <ele>1058.9</ele>
        <time>2014-10-01T17:16:01Z</time>
      </trkpt>
      <trkpt lat="42.4076040" lon="-7.2860250">
        <ele>1059.1</ele>
        <time>2014-10-01T17:16:02Z</time>
      </trkpt>
      <trkpt lat="42.4076280" lon="-7.2859960">
        <ele>1059.2</ele>
        <time>2014-10-01T17:16:03Z</time>
      </trkpt>
      <trkpt lat="42.4076490" lon="-7.2859690">
        <ele>1059.3</ele>
        <time>2014-10-01T17:16:04Z</time>
      </trkpt>
      <trkpt lat="42.4076690" lon="-7.2859410">
        <ele>1059.4</ele>
        <time>2014-10-01T17:16:05Z</time>
      </trkpt>
      <trkpt lat="42.4076910" lon="-7.2859120">
        <ele>1059.5</ele>
        <time>2014-10-01T17:16:06Z</time>
      </trkpt>
      <trkpt lat="42.4077140" lon="-7.2858830">
        <ele>1059.6</ele>
        <time>2014-10-01T17:16:07Z</time>
      </trkpt>
      <trkpt lat="42.4077350" lon="-7.2858540">
        <ele>1059.8</ele>
        <time>2014-10-01T17:16:08Z</time>
      </trkpt>
      <trkpt lat="42.4077570" lon="-7.2858230">
        <ele>1059.9</ele>
        <time>2014-10-01T17:16:09Z</time>
      </trkpt>
      <trkpt lat="42.4077750" lon="-7.2857920">
        <ele>1060.0</ele>
        <time>2014-10-01T17:16:10Z</time>
      </trkpt>
      <trkpt lat="42.4077960" lon="-7.2857580">
        <ele>1060.1</ele>
        <time>2014-10-01T17:16:11Z</time>
      </trkpt>
      <trkpt lat="42.4078200" lon="-7.2857240">
        <ele>1060.2</ele>
        <time>2014-10-01T17:16:12Z</time>
      </trkpt>
      <trkpt lat="42.4078410" lon="-7.2856930">
        <ele>1060.4</ele>
        <time>2014-10-01T17:16:13Z</time>
      </trkpt>
      <trkpt lat="42.4078600" lon="-7.2856610">
        <ele>1060.5</ele>
        <time>2014-10-01T17:16:14Z</time>
      </trkpt>
      <trkpt lat="42.4078810" lon="-7.2856260">
        <ele>1060.6</ele>
        <time>2014-10-01T17:16:15Z</time>
      </trkpt>
      <trkpt lat="42.4079010" lon="-7.2855910">
        <ele>1060.7</ele>
        <time>2014-10-01T17:16:16Z</time>
      </trkpt>
      <trkpt lat="42.4079220" lon="-7.2855530">
        <ele>1060.9</ele>
        <time>2014-10-01T17:16:17Z</time>
      </trkpt>
      <trkpt lat="42.4079460" lon="-7.2855090">
        <ele>1061.0</ele>
        <time>2014-10-01T17:16:18Z</time>
      </trkpt>
      <trkpt lat="42.4079690" lon="-7.2854710">
        <ele>1061.1</ele>
        <time>2014-10-01T17:16:19Z</time>
      </trkpt>
      <trkpt lat="42.4079910" lon="-7.2854330">
        <ele>1061.3</ele>
        <time>2014-10-01T17:16:20Z</time>
      </trkpt>
      <trkpt lat="42.4080110" lon="-7.2853950">
        <ele>1061.4</ele>
        <time>2014-10-01T17:16:21Z</time>
      </trkpt>
      <trkpt lat="42.4080320" lon="-7.2853540">
        <ele>1061.6</ele>
        <time>2014-10-01T17:16:22Z</time>
      </trkpt>
      <trkpt lat="42.4080500" lon="-7.2853100">
        <ele>1061.7</ele>
        <time>2014-10-01T17:16:23Z</time>
      </trkpt>
      <trkpt lat="42.4080690" lon="-7.2852640">
        <ele>1061.8</ele>
        <time>2014-10-01T17:16:24Z</time>
      </trkpt>
      <trkpt lat="42.4080890" lon="-7.2852160">
        <ele>1062.0</ele>
        <time>2014-10-01T17:16:25Z</time>
      </trkpt>
      <trkpt lat="42.4081070" lon="-7.2851670">
        <ele>1062.1</ele>
        <time>2014-10-01T17:16:26Z</time>
      </trkpt>
      <trkpt lat="42.4081230" lon="-7.2851190">
        <ele>1062.3</ele>
        <time>2014-10-01T17:16:27Z</time>
      </trkpt>
      <trkpt lat="42.4081420" lon="-7.2850690">
        <ele>1062.5</ele>
        <time>2014-10-01T17:16:28Z</time>
      </trkpt>
      <trkpt lat="42.4081620" lon="-7.2850160">
        <ele>1062.6</ele>
        <time>2014-10-01T17:16:29Z</time>
      </trkpt>
      <trkpt lat="42.4081820" lon="-7.2849630">
        <ele>1062.8</ele>
        <time>2014-10-01T17:16:30Z</time>
      </trkpt>
      <trkpt lat="42.4082020" lon="-7.2849070">
        <ele>1063.0</ele>
        <time>2014-10-01T17:16:31Z</time>
      </trkpt>
      <trkpt lat="42.4082200" lon="-7.2848510">
        <ele>1063.1</ele>
        <time>2014-10-01T17:16:32Z</time>
      </trkpt>
      <trkpt lat="42.4082380" lon="-7.2847940">
        <ele>1063.3</ele>
        <time>2014-10-01T17:16:33Z</time>
      </trkpt>
      <trkpt lat="42.4082550" lon="-7.2847380">
        <ele>1063.5</ele>
        <time>2014-10-01T17:16:34Z</time>
      </trkpt>
      <trkpt lat="42.4082710" lon="-7.2846840">
        <ele>1063.6</ele>
        <time>2014-10-01T17:16:35Z</time>
      </trkpt>
      <trkpt lat="42.4082880" lon="-7.2846310">
        <ele>1063.8</ele>
        <time>2014-10-01T17:16:36Z</time>
      </trkpt>
      <trkpt lat="42.4083050" lon="-7.2845780">
        <ele>1064.0</ele>
        <time>2014-10-01T17:16:37Z</time>
      </trkpt>
      <trkpt lat="42.4083220" lon="-7.2845240">
        <ele>1064.1</ele>
        <time>2014-10-01T17:16:38Z</time>
      </trkpt>
      <trkpt lat="42.4083400" lon="-7.2844710">
        <ele>1064.3</ele>
        <time>2014-10-01T17:16:39Z</time>
      </trkpt>
      <trkpt lat="42.4083570" lon="-7.2844180">
        <ele>1064.4</ele>
        <time>2014-10-01T17:16:40Z</time>
      </trkpt>
      <trkpt lat="42.4083730" lon="-7.2843670">
        <ele>1064.6</ele>
        <time>2014-10-01T17:16:41Z</time>
      </trkpt>
      <trkpt lat="42.4083910" lon="-7.2843150">
        <ele>1064.8</ele>
        <time>2014-10-01T17:16:42Z</time>
      </trkpt>
      <trkpt lat="42.4084120" lon="-7.2842630">
        <ele>1065.0</ele>
        <time>2014-10-01T17:16:43Z</time>
      </trkpt>
      <trkpt lat="42.4084310" lon="-7.2842150">
        <ele>1065.5</ele>
        <time>2014-10-01T17:16:44Z</time>
      </trkpt>
      <trkpt lat="42.4084490" lon="-7.2841660">
        <ele>1065.9</ele>
        <time>2014-10-01T17:16:45Z</time>
      </trkpt>
      <trkpt lat="42.4084670" lon="-7.2841170">
        <ele>1066.4</ele>
        <time>2014-10-01T17:16:46Z</time>
      </trkpt>
      <trkpt lat="42.4084840" lon="-7.2840680">
        <ele>1066.8</ele>
        <time>2014-10-01T17:16:47Z</time>
      </trkpt>
      <trkpt lat="42.4085020" lon="-7.2840190">
        <ele>1067.3</ele>
        <time>2014-10-01T17:16:48Z</time>
      </trkpt>
      <trkpt lat="42.4085200" lon="-7.2839660">
        <ele>1067.8</ele>
        <time>2014-10-01T17:16:49Z</time>
      </trkpt>
      <trkpt lat="42.4085400" lon="-7.2839180">
        <ele>1068.3</ele>
        <time>2014-10-01T17:16:50Z</time>
      </trkpt>
      <trkpt lat="42.4085600" lon="-7.2838690">
        <ele>1068.7</ele>
        <time>2014-10-01T17:16:51Z</time>
      </trkpt>
      <trkpt lat="42.4085810" lon="-7.2838210">
        <ele>1069.2</ele>
        <time>2014-10-01T17:16:52Z</time>
      </trkpt>
      <trkpt lat="42.4086030" lon="-7.2837730">
        <ele>1069.7</ele>
        <time>2014-10-01T17:16:53Z</time>
      </trkpt>
      <trkpt lat="42.4086240" lon="-7.2837230">
        <ele>1070.2</ele>
        <time>2014-10-01T17:16:54Z</time>
      </trkpt>
      <trkpt lat="42.4086460" lon="-7.2836730">
        <ele>1070.7</ele>
        <time>2014-10-01T17:16:55Z</time>
      </trkpt>
      <trkpt lat="42.4086690" lon="-7.2836250">
        <ele>1071.2</ele>
        <time>2014-10-01T17:16:56Z</time>
      </trkpt>
      <trkpt lat="42.4086930" lon="-7.2835790">
        <ele>1071.6</ele>
        <time>2014-10-01T17:16:57Z</time>
      </trkpt>
      <trkpt lat="42.4087150" lon="-7.2835350">
        <ele>1072.1</ele>
        <time>2014-10-01T17:16:58Z</time>
      </trkpt>
      <trkpt lat="42.4087410" lon="-7.2834870">
        <ele>1072.6</ele>
        <time>2014-10-01T17:16:59Z</time>
      </trkpt>
      <trkpt lat="42.4087630" lon="-7.2834460">
        <ele>1073.0</ele>
        <time>2014-10-01T17:17:00Z</time>
      </trkpt>
      <trkpt lat="42.4087850" lon="-7.2834130">
        <ele>1073.4</ele>
        <time>2014-10-01T17:17:01Z</time>
      </trkpt>
      <trkpt lat="42.4088140" lon="-7.2833710">
        <ele>1073.9</ele>
        <time>2014-10-01T17:17:02Z</time>
      </trkpt>
      <trkpt lat="42.4088400" lon="-7.2833320">
        <ele>1074.3</ele>
        <time>2014-10-01T17:17:03Z</time>
      </trkpt>
      <trkpt lat="42.4088660" lon="-7.2833010">
        <ele>1074.7</ele>
        <time>2014-10-01T17:17:04Z</time>
      </trkpt>
      <trkpt lat="42.4088880" lon="-7.2832680">
        <ele>1075.1</ele>
        <time>2014-10-01T17:17:05Z</time>
      </trkpt>
      <trkpt lat="42.4089110" lon="-7.2832320">
        <ele>1075.5</ele>
        <time>2014-10-01T17:17:06Z</time>
      </trkpt>
      <trkpt lat="42.4089330" lon="-7.2831890">
        <ele>1076.0</ele>
        <time>2014-10-01T17:17:07Z</time>
      </trkpt>
      <trkpt lat="42.4089610" lon="-7.2831450">
        <ele>1076.4</ele>
        <time>2014-10-01T17:17:08Z</time>
      </trkpt>
      <trkpt lat="42.4089910" lon="-7.2830970">
        <ele>1077.0</ele>
        <time>2014-10-01T17:17:09Z</time>
      </trkpt>
      <trkpt lat="42.4090180" lon="-7.2830590">
        <ele>1077.4</ele>
        <time>2014-10-01T17:17:10Z</time>
      </trkpt>
      <trkpt lat="42.4090410" lon="-7.2830230">
        <ele>1077.8</ele>
        <time>2014-10-01T17:17:11Z</time>
      </trkpt>
      <trkpt lat="42.4090630" lon="-7.2829970">
        <ele>1078.2</ele>
        <time>2014-10-01T17:17:12Z</time>
      </trkpt>
      <trkpt lat="42.4090940" lon="-7.2829380">
        <ele>1078.8</ele>
        <time>2014-10-01T17:17:14Z</time>
      </trkpt>
      <trkpt lat="42.4091200" lon="-7.2829130">
        <ele>1079.1</ele>
        <time>2014-10-01T17:17:15Z</time>
      </trkpt>
      <trkpt lat="42.4091360" lon="-7.2828810">
        <ele>1079.5</ele>
        <time>2014-10-01T17:17:16Z</time>
      </trkpt>
      <trkpt lat="42.4091530" lon="-7.2828520">
        <ele>1079.8</ele>
        <time>2014-10-01T17:17:17Z</time>
      </trkpt>
      <trkpt lat="42.4091740" lon="-7.2828230">
        <ele>1080.1</ele>
        <time>2014-10-01T17:17:18Z</time>
      </trkpt>
      <trkpt lat="42.4091900" lon="-7.2827930">
        <ele>1080.5</ele>
        <time>2014-10-01T17:17:19Z</time>
      </trkpt>
      <trkpt lat="42.4092170" lon="-7.2827650">
        <ele>1080.8</ele>
        <time>2014-10-01T17:17:20Z</time>
      </trkpt>
      <trkpt lat="42.4092440" lon="-7.2827320">
        <ele>1081.3</ele>
        <time>2014-10-01T17:17:21Z</time>
      </trkpt>
      <trkpt lat="42.4092800" lon="-7.2826890">
        <ele>1081.8</ele>
        <time>2014-10-01T17:17:23Z</time>
      </trkpt>
      <trkpt lat="42.4093030" lon="-7.2826410">
        <ele>1082.3</ele>
        <time>2014-10-01T17:17:25Z</time>
      </trkpt>
      <trkpt lat="42.4093370" lon="-7.2825880">
        <ele>1082.9</ele>
        <time>2014-10-01T17:17:27Z</time>
      </trkpt>
      <trkpt lat="42.4093760" lon="-7.2825420">
        <ele>1083.5</ele>
        <time>2014-10-01T17:17:29Z</time>
      </trkpt>
      <trkpt lat="42.4094130" lon="-7.2825000">
        <ele>1084.0</ele>
        <time>2014-10-01T17:17:31Z</time>
      </trkpt>
      <trkpt lat="42.4094510" lon="-7.2824630">
        <ele>1084.6</ele>
        <time>2014-10-01T17:17:33Z</time>
      </trkpt>
      <trkpt lat="42.4094900" lon="-7.2824270">
        <ele>1085.1</ele>
        <time>2014-10-01T17:17:35Z</time>
      </trkpt>
      <trkpt lat="42.4095270" lon="-7.2823840">
        <ele>1085.7</ele>
        <time>2014-10-01T17:17:37Z</time>
      </trkpt>
      <trkpt lat="42.4095610" lon="-7.2823370">
        <ele>1086.2</ele>
        <time>2014-10-01T17:17:39Z</time>
      </trkpt>
      <trkpt lat="42.4095910" lon="-7.2822930">
        <ele>1086.7</ele>
        <time>2014-10-01T17:17:41Z</time>
      </trkpt>
      <trkpt lat="42.4096200" lon="-7.2822510">
        <ele>1087.2</ele>
        <time>2014-10-01T17:17:43Z</time>
      </trkpt>
      <trkpt lat="42.4096510" lon="-7.2822030">
        <ele>1087.8</ele>
        <time>2014-10-01T17:17:45Z</time>
      </trkpt>
      <trkpt lat="42.4096820" lon="-7.2821610">
        <ele>1088.3</ele>
        <time>2014-10-01T17:17:47Z</time>
      </trkpt>
      <trkpt lat="42.4097180" lon="-7.2821120">
        <ele>1088.9</ele>
        <time>2014-10-01T17:17:49Z</time>
      </trkpt>
      <trkpt lat="42.4097530" lon="-7.2820660">
        <ele>1089.4</ele>
        <time>2014-10-01T17:17:51Z</time>
      </trkpt>
      <trkpt lat="42.4097900" lon="-7.2820250">
        <ele>1090.0</ele>
        <time>2014-10-01T17:17:53Z</time>
      </trkpt>
      <trkpt lat="42.4098260" lon="-7.2819780">
        <ele>1090.5</ele>
        <time>2014-10-01T17:17:55Z</time>
      </trkpt>
      <trkpt lat="42.4098590" lon="-7.2819210">
        <ele>1091.2</ele>
        <time>2014-10-01T17:17:57Z</time>
      </trkpt>
      <trkpt lat="42.4098940" lon="-7.2818700">
        <ele>1091.8</ele>
        <time>2014-10-01T17:17:59Z</time>
      </trkpt>
      <trkpt lat="42.4099340" lon="-7.2818290">
        <ele>1092.3</ele>
        <time>2014-10-01T17:18:01Z</time>
      </trkpt>
      <trkpt lat="42.4099720" lon="-7.2817870">
        <ele>1092.9</ele>
        <time>2014-10-01T17:18:03Z</time>
      </trkpt>
      <trkpt lat="42.4100040" lon="-7.2817420">
        <ele>1093.4</ele>
        <time>2014-10-01T17:18:05Z</time>
      </trkpt>
      <trkpt lat="42.4100320" lon="-7.2816910">
        <ele>1094.0</ele>
        <time>2014-10-01T17:18:07Z</time>
      </trkpt>
      <trkpt lat="42.4100590" lon="-7.2816430">
        <ele>1094.5</ele>
        <time>2014-10-01T17:18:09Z</time>
      </trkpt>
      <trkpt lat="42.4100870" lon="-7.2815980">
        <ele>1095.0</ele>
        <time>2014-10-01T17:18:11Z</time>
      </trkpt>
      <trkpt lat="42.4101140" lon="-7.2815530">
        <ele>1095.5</ele>
        <time>2014-10-01T17:18:13Z</time>
      </trkpt>
      <trkpt lat="42.4101440" lon="-7.2815070">
        <ele>1096.0</ele>
        <time>2014-10-01T17:18:15Z</time>
      </trkpt>
      <trkpt lat="42.4101720" lon="-7.2814610">
        <ele>1096.5</ele>
        <time>2014-10-01T17:18:17Z</time>
      </trkpt>
      <trkpt lat="42.4102040" lon="-7.2814180">
        <ele>1097.0</ele>
        <time>2014-10-01T17:18:19Z</time>
      </trkpt>
      <trkpt lat="42.4102340" lon="-7.2813850">
        <ele>1097.5</ele>
        <time>2014-10-01T17:18:21Z</time>
      </trkpt>
      <trkpt lat="42.4102660" lon="-7.2813410">
        <ele>1098.0</ele>
        <time>2014-10-01T17:18:23Z</time>
      </trkpt>
      <trkpt lat="42.4102950" lon="-7.2812970">
        <ele>1098.5</ele>
        <time>2014-10-01T17:18:25Z</time>
      </trkpt>
      <trkpt lat="42.4103220" lon="-7.2812520">
        <ele>1099.0</ele>
        <time>2014-10-01T17:18:27Z</time>
      </trkpt>
      <trkpt lat="42.4103470" lon="-7.2812070">
        <ele>1099.4</ele>
        <time>2014-10-01T17:18:29Z</time>
      </trkpt>
      <trkpt lat="42.4103720" lon="-7.2811660">
        <ele>1099.9</ele>
        <time>2014-10-01T17:18:31Z</time>
      </trkpt>
      <trkpt lat="42.4104000" lon="-7.2811210">
        <ele>1100.4</ele>
        <time>2014-10-01T17:18:33Z</time>
      </trkpt>
      <trkpt lat="42.4104310" lon="-7.2810760">
        <ele>1100.9</ele>
        <time>2014-10-01T17:18:35Z</time>
      </trkpt>
      <trkpt lat="42.4104540" lon="-7.2810370">
        <ele>1101.3</ele>
        <time>2014-10-01T17:18:37Z</time>
      </trkpt>
      <trkpt lat="42.4104840" lon="-7.2809890">
        <ele>1101.9</ele>
        <time>2014-10-01T17:18:39Z</time>
      </trkpt>
      <trkpt lat="42.4105090" lon="-7.2809440">
        <ele>1101.4</ele>
        <time>2014-10-01T17:18:41Z</time>
      </trkpt>
      <trkpt lat="42.4105350" lon="-7.2809200">
        <ele>1101.1</ele>
        <time>2014-10-01T17:18:43Z</time>
      </trkpt>
      <trkpt lat="42.4105350" lon="-7.2809620">
        <ele>1100.8</ele>
        <time>2014-10-01T17:18:46Z</time>
      </trkpt>
      <trkpt lat="42.4104940" lon="-7.2810160">
        <ele>1100.1</ele>
        <time>2014-10-01T17:18:48Z</time>
      </trkpt>
      <trkpt lat="42.4104620" lon="-7.2810580">
        <ele>1099.6</ele>
        <time>2014-10-01T17:18:49Z</time>
      </trkpt>
      <trkpt lat="42.4104280" lon="-7.2811020">
        <ele>1099.1</ele>
        <time>2014-10-01T17:18:50Z</time>
      </trkpt>
      <trkpt lat="42.4103950" lon="-7.2811500">
        <ele>1098.6</ele>
        <time>2014-10-01T17:18:51Z</time>
      </trkpt>
      <trkpt lat="42.4103620" lon="-7.2811980">
        <ele>1098.1</ele>
        <time>2014-10-01T17:18:52Z</time>
      </trkpt>
      <trkpt lat="42.4103250" lon="-7.2812470">
        <ele>1097.5</ele>
        <time>2014-10-01T17:18:53Z</time>
      </trkpt>
      <trkpt lat="42.4102870" lon="-7.2812980">
        <ele>1096.9</ele>
        <time>2014-10-01T17:18:54Z</time>
      </trkpt>
      <trkpt lat="42.4102470" lon="-7.2813490">
        <ele>1096.3</ele>
        <time>2014-10-01T17:18:55Z</time>
      </trkpt>
      <trkpt lat="42.4102020" lon="-7.2814060">
        <ele>1095.6</ele>
        <time>2014-10-01T17:18:56Z</time>
      </trkpt>
      <trkpt lat="42.4101580" lon="-7.2814640">
        <ele>1094.9</ele>
        <time>2014-10-01T17:18:57Z</time>
      </trkpt>
      <trkpt lat="42.4101110" lon="-7.2815220">
        <ele>1094.2</ele>
        <time>2014-10-01T17:18:58Z</time>
      </trkpt>
      <trkpt lat="42.4100600" lon="-7.2815860">
        <ele>1093.5</ele>
        <time>2014-10-01T17:18:59Z</time>
      </trkpt>
      <trkpt lat="42.4100070" lon="-7.2816560">
        <ele>1092.7</ele>
        <time>2014-10-01T17:19:00Z</time>
      </trkpt>
      <trkpt lat="42.4099520" lon="-7.2817340">
        <ele>1091.8</ele>
        <time>2014-10-01T17:19:01Z</time>
      </trkpt>
      <trkpt lat="42.4098900" lon="-7.2818200">
        <ele>1090.8</ele>
        <time>2014-10-01T17:19:02Z</time>
      </trkpt>
      <trkpt lat="42.4098320" lon="-7.2819020">
        <ele>1089.9</ele>
        <time>2014-10-01T17:19:03Z</time>
      </trkpt>
      <trkpt lat="42.4097780" lon="-7.2819810">
        <ele>1089.0</ele>
        <time>2014-10-01T17:19:04Z</time>
      </trkpt>
      <trkpt lat="42.4097210" lon="-7.2820620">
        <ele>1088.1</ele>
        <time>2014-10-01T17:19:05Z</time>
      </trkpt>
      <trkpt lat="42.4096640" lon="-7.2821440">
        <ele>1087.2</ele>
        <time>2014-10-01T17:19:06Z</time>
      </trkpt>
      <trkpt lat="42.4096060" lon="-7.2822260">
        <ele>1086.3</ele>
        <time>2014-10-01T17:19:07Z</time>
      </trkpt>
      <trkpt lat="42.4095460" lon="-7.2823110">
        <ele>1085.3</ele>
        <time>2014-10-01T17:19:08Z</time>
      </trkpt>
      <trkpt lat="42.4094840" lon="-7.2823980">
        <ele>1084.4</ele>
        <time>2014-10-01T17:19:09Z</time>
      </trkpt>
      <trkpt lat="42.4094200" lon="-7.2824900">
        <ele>1083.3</ele>
        <time>2014-10-01T17:19:10Z</time>
      </trkpt>
      <trkpt lat="42.4093530" lon="-7.2825840">
        <ele>1082.3</ele>
        <time>2014-10-01T17:19:11Z</time>
      </trkpt>
      <trkpt lat="42.4092840" lon="-7.2826780">
        <ele>1081.2</ele>
        <time>2014-10-01T17:19:12Z</time>
      </trkpt>
      <trkpt lat="42.4092120" lon="-7.2827770">
        <ele>1080.1</ele>
        <time>2014-10-01T17:19:13Z</time>
      </trkpt>
      <trkpt lat="42.4091380" lon="-7.2828780">
        <ele>1078.9</ele>
        <time>2014-10-01T17:19:14Z</time>
      </trkpt>
      <trkpt lat="42.4090680" lon="-7.2829760">
        <ele>1077.8</ele>
        <time>2014-10-01T17:19:15Z</time>
      </trkpt>
      <trkpt lat="42.4089990" lon="-7.2830770">
        <ele>1076.7</ele>
        <time>2014-10-01T17:19:16Z</time>
      </trkpt>
      <trkpt lat="42.4089320" lon="-7.2831780">
        <ele>1075.6</ele>
        <time>2014-10-01T17:19:17Z</time>
      </trkpt>
      <trkpt lat="42.4088680" lon="-7.2832780">
        <ele>1074.5</ele>
        <time>2014-10-01T17:19:18Z</time>
      </trkpt>
      <trkpt lat="42.4088060" lon="-7.2833750">
        <ele>1073.5</ele>
        <time>2014-10-01T17:19:19Z</time>
      </trkpt>
      <trkpt lat="42.4087410" lon="-7.2834770">
        <ele>1072.4</ele>
        <time>2014-10-01T17:19:20Z</time>
      </trkpt>
      <trkpt lat="42.4086820" lon="-7.2835820">
        <ele>1071.3</ele>
        <time>2014-10-01T17:19:21Z</time>
      </trkpt>
      <trkpt lat="42.4086260" lon="-7.2836920">
        <ele>1070.2</ele>
        <time>2014-10-01T17:19:22Z</time>
      </trkpt>
      <trkpt lat="42.4085710" lon="-7.2838100">
        <ele>1069.1</ele>
        <time>2014-10-01T17:19:23Z</time>
      </trkpt>
      <trkpt lat="42.4085190" lon="-7.2839290">
        <ele>1068.0</ele>
        <time>2014-10-01T17:19:24Z</time>
      </trkpt>
      <trkpt lat="42.4084710" lon="-7.2840470">
        <ele>1066.9</ele>
        <time>2014-10-01T17:19:25Z</time>
      </trkpt>
      <trkpt lat="42.4084260" lon="-7.2841650">
        <ele>1065.8</ele>
        <time>2014-10-01T17:19:26Z</time>
      </trkpt>
      <trkpt lat="42.4083820" lon="-7.2842870">
        <ele>1064.8</ele>
        <time>2014-10-01T17:19:27Z</time>
      </trkpt>
      <trkpt lat="42.4083350" lon="-7.2844130">
        <ele>1064.4</ele>
        <time>2014-10-01T17:19:28Z</time>
      </trkpt>
      <trkpt lat="42.4082980" lon="-7.2845230">
        <ele>1064.1</ele>
        <time>2014-10-01T17:19:29Z</time>
      </trkpt>
      <trkpt lat="42.4082560" lon="-7.2846410">
        <ele>1063.7</ele>
        <time>2014-10-01T17:19:30Z</time>
      </trkpt>
      <trkpt lat="42.4082190" lon="-7.2847580">
        <ele>1063.4</ele>
        <time>2014-10-01T17:19:31Z</time>
      </trkpt>
      <trkpt lat="42.4081820" lon="-7.2848720">
        <ele>1063.0</ele>
        <time>2014-10-01T17:19:32Z</time>
      </trkpt>
      <trkpt lat="42.4081490" lon="-7.2849790">
        <ele>1062.7</ele>
        <time>2014-10-01T17:19:33Z</time>
      </trkpt>
      <trkpt lat="42.4081140" lon="-7.2850800">
        <ele>1062.4</ele>
        <time>2014-10-01T17:19:34Z</time>
      </trkpt>
      <trkpt lat="42.4080820" lon="-7.2851750">
        <ele>1062.1</ele>
        <time>2014-10-01T17:19:35Z</time>
      </trkpt>
      <trkpt lat="42.4080470" lon="-7.2852720">
        <ele>1061.8</ele>
        <time>2014-10-01T17:19:36Z</time>
      </trkpt>
      <trkpt lat="42.4080070" lon="-7.2853730">
        <ele>1061.5</ele>
        <time>2014-10-01T17:19:37Z</time>
      </trkpt>
      <trkpt lat="42.4079670" lon="-7.2854660">
        <ele>1061.2</ele>
        <time>2014-10-01T17:19:38Z</time>
      </trkpt>
      <trkpt lat="42.4079290" lon="-7.2855510">
        <ele>1060.9</ele>
        <time>2014-10-01T17:19:39Z</time>
      </trkpt>
      <trkpt lat="42.4078920" lon="-7.2856260">
        <ele>1060.6</ele>
        <time>2014-10-01T17:19:40Z</time>
      </trkpt>
      <trkpt lat="42.4078480" lon="-7.2857070">
        <ele>1060.4</ele>
        <time>2014-10-01T17:19:41Z</time>
      </trkpt>
      <trkpt lat="42.4078070" lon="-7.2857770">
        <ele>1060.1</ele>
        <time>2014-10-01T17:19:42Z</time>
      </trkpt>
      <trkpt lat="42.4077610" lon="-7.2858490">
        <ele>1059.8</ele>
        <time>2014-10-01T17:19:43Z</time>
      </trkpt>
      <trkpt lat="42.4077120" lon="-7.2859230">
        <ele>1059.6</ele>
        <time>2014-10-01T17:19:44Z</time>
      </trkpt>
      <trkpt lat="42.4076570" lon="-7.2859980">
        <ele>1059.3</ele>
        <time>2014-10-01T17:19:45Z</time>
      </trkpt>
      <trkpt lat="42.4075960" lon="-7.2860710">
        <ele>1059.0</ele>
        <time>2014-10-01T17:19:46Z</time>
      </trkpt>
      <trkpt lat="42.4075310" lon="-7.2861410">
        <ele>1058.7</ele>
        <time>2014-10-01T17:19:47Z</time>
      </trkpt>
      <trkpt lat="42.4074690" lon="-7.2862070">
        <ele>1058.4</ele>
        <time>2014-10-01T17:19:48Z</time>
      </trkpt>
      <trkpt lat="42.4074110" lon="-7.2862670">
        <ele>1058.1</ele>
        <time>2014-10-01T17:19:49Z</time>
      </trkpt>
      <trkpt lat="42.4073610" lon="-7.2863210">
        <ele>1057.8</ele>
        <time>2014-10-01T17:19:50Z</time>
      </trkpt>
      <trkpt lat="42.4073100" lon="-7.2863740">
        <ele>1057.6</ele>
        <time>2014-10-01T17:19:51Z</time>
      </trkpt>
      <trkpt lat="42.4072560" lon="-7.2864320">
        <ele>1057.3</ele>
        <time>2014-10-01T17:19:52Z</time>
      </trkpt>
      <trkpt lat="42.4072010" lon="-7.2864920">
        <ele>1057.1</ele>
        <time>2014-10-01T17:19:53Z</time>
      </trkpt>
      <trkpt lat="42.4071470" lon="-7.2865600">
        <ele>1056.8</ele>
        <time>2014-10-01T17:19:54Z</time>
      </trkpt>
      <trkpt lat="42.4070890" lon="-7.2866440">
        <ele>1056.5</ele>
        <time>2014-10-01T17:19:55Z</time>
      </trkpt>
      <trkpt lat="42.4070300" lon="-7.2867400">
        <ele>1056.1</ele>
        <time>2014-10-01T17:19:56Z</time>
      </trkpt>
      <trkpt lat="42.4069730" lon="-7.2868460">
        <ele>1055.8</ele>
        <time>2014-10-01T17:19:57Z</time>
      </trkpt>
      <trkpt lat="42.4069190" lon="-7.2869600">
        <ele>1055.4</ele>
        <time>2014-10-01T17:19:58Z</time>
      </trkpt>
      <trkpt lat="42.4068750" lon="-7.2870720">
        <ele>1055.0</ele>
        <time>2014-10-01T17:19:59Z</time>
      </trkpt>
      <trkpt lat="42.4068340" lon="-7.2871860">
        <ele>1054.7</ele>
        <time>2014-10-01T17:20:00Z</time>
      </trkpt>
      <trkpt lat="42.4067900" lon="-7.2873060">
        <ele>1054.3</ele>
        <time>2014-10-01T17:20:01Z</time>
      </trkpt>
      <trkpt lat="42.4067450" lon="-7.2874250">
        <ele>1053.8</ele>
        <time>2014-10-01T17:20:02Z</time>
      </trkpt>
      <trkpt lat="42.4066990" lon="-7.2875470">
        <ele>1053.4</ele>
        <time>2014-10-01T17:20:03Z</time>
      </trkpt>
      <trkpt lat="42.4066570" lon="-7.2876600">
        <ele>1053.0</ele>
        <time>2014-10-01T17:20:04Z</time>
      </trkpt>
      <trkpt lat="42.4066210" lon="-7.2877690">
        <ele>1052.6</ele>
        <time>2014-10-01T17:20:05Z</time>
      </trkpt>
      <trkpt lat="42.4065910" lon="-7.2878770">
        <ele>1052.2</ele>
        <time>2014-10-01T17:20:06Z</time>
      </trkpt>
      <trkpt lat="42.4065620" lon="-7.2879850">
        <ele>1051.8</ele>
        <time>2014-10-01T17:20:07Z</time>
      </trkpt>
      <trkpt lat="42.4065330" lon="-7.2880900">
        <ele>1051.4</ele>
        <time>2014-10-01T17:20:08Z</time>
      </trkpt>
      <trkpt lat="42.4065060" lon="-7.2881900">
        <ele>1051.0</ele>
        <time>2014-10-01T17:20:09Z</time>
      </trkpt>
      <trkpt lat="42.4064790" lon="-7.2882850">
        <ele>1050.7</ele>
        <time>2014-10-01T17:20:10Z</time>
      </trkpt>
      <trkpt lat="42.4064480" lon="-7.2883820">
        <ele>1050.3</ele>
        <time>2014-10-01T17:20:11Z</time>
      </trkpt>
      <trkpt lat="42.4064190" lon="-7.2884700">
        <ele>1050.0</ele>
        <time>2014-10-01T17:20:12Z</time>
      </trkpt>
      <trkpt lat="42.4063930" lon="-7.2885540">
        <ele>1049.7</ele>
        <time>2014-10-01T17:20:13Z</time>
      </trkpt>
      <trkpt lat="42.4063630" lon="-7.2886460">
        <ele>1049.4</ele>
        <time>2014-10-01T17:20:14Z</time>
      </trkpt>
      <trkpt lat="42.4063330" lon="-7.2887360">
        <ele>1049.0</ele>
        <time>2014-10-01T17:20:15Z</time>
      </trkpt>
      <trkpt lat="42.4063040" lon="-7.2888230">
        <ele>1048.7</ele>
        <time>2014-10-01T17:20:16Z</time>
      </trkpt>
      <trkpt lat="42.4062770" lon="-7.2889100">
        <ele>1048.4</ele>
        <time>2014-10-01T17:20:17Z</time>
      </trkpt>
      <trkpt lat="42.4062500" lon="-7.2890020">
        <ele>1048.1</ele>
        <time>2014-10-01T17:20:18Z</time>
      </trkpt>
      <trkpt lat="42.4062240" lon="-7.2891070">
        <ele>1047.7</ele>
        <time>2014-10-01T17:20:19Z</time>
      </trkpt>
      <trkpt lat="42.4061930" lon="-7.2892250">
        <ele>1047.3</ele>
        <time>2014-10-01T17:20:20Z</time>
      </trkpt>
      <trkpt lat="42.4061670" lon="-7.2893410">
        <ele>1046.9</ele>
        <time>2014-10-01T17:20:21Z</time>
      </trkpt>
      <trkpt lat="42.4061370" lon="-7.2894670">
        <ele>1046.4</ele>
        <time>2014-10-01T17:20:22Z</time>
      </trkpt>
      <trkpt lat="42.4061130" lon="-7.2895850">
        <ele>1046.0</ele>
        <time>2014-10-01T17:20:23Z</time>
      </trkpt>
      <trkpt lat="42.4060870" lon="-7.2897090">
        <ele>1045.6</ele>
        <time>2014-10-01T17:20:24Z</time>
      </trkpt>
      <trkpt lat="42.4060620" lon="-7.2898360">
        <ele>1045.1</ele>
        <time>2014-10-01T17:20:25Z</time>
      </trkpt>
      <trkpt lat="42.4060350" lon="-7.2899660">
        <ele>1044.7</ele>
        <time>2014-10-01T17:20:26Z</time>
      </trkpt>
      <trkpt lat="42.4060070" lon="-7.2901010">
        <ele>1044.2</ele>
        <time>2014-10-01T17:20:27Z</time>
      </trkpt>
      <trkpt lat="42.4059830" lon="-7.2902220">
        <ele>1043.8</ele>
        <time>2014-10-01T17:20:28Z</time>
      </trkpt>
      <trkpt lat="42.4059580" lon="-7.2903510">
        <ele>1043.4</ele>
        <time>2014-10-01T17:20:29Z</time>
      </trkpt>
      <trkpt lat="42.4059360" lon="-7.2904740">
        <ele>1042.9</ele>
        <time>2014-10-01T17:20:30Z</time>
      </trkpt>
      <trkpt lat="42.4059140" lon="-7.2905900">
        <ele>1042.5</ele>
        <time>2014-10-01T17:20:31Z</time>
      </trkpt>
      <trkpt lat="42.4058880" lon="-7.2907030">
        <ele>1042.1</ele>
        <time>2014-10-01T17:20:32Z</time>
      </trkpt>
      <trkpt lat="42.4058550" lon="-7.2908130">
        <ele>1041.7</ele>
        <time>2014-10-01T17:20:33Z</time>
      </trkpt>
      <trkpt lat="42.4058170" lon="-7.2909140">
        <ele>1041.1</ele>
        <time>2014-10-01T17:20:34Z</time>
      </trkpt>
      <trkpt lat="42.4057640" lon="-7.2910050">
        <ele>1040.5</ele>
        <time>2014-10-01T17:20:35Z</time>
      </trkpt>
      <trkpt lat="42.4057120" lon="-7.2910920">
        <ele>1039.8</ele>
        <time>2014-10-01T17:20:36Z</time>
      </trkpt>
      <trkpt lat="42.4056640" lon="-7.2911710">
        <ele>1039.2</ele>
        <time>2014-10-01T17:20:37Z</time>
      </trkpt>
      <trkpt lat="42.4056180" lon="-7.2912470">
        <ele>1038.6</ele>
        <time>2014-10-01T17:20:38Z</time>
      </trkpt>
      <trkpt lat="42.4055740" lon="-7.2913180">
        <ele>1038.1</ele>
        <time>2014-10-01T17:20:39Z</time>
      </trkpt>
      <trkpt lat="42.4055310" lon="-7.2913860">
        <ele>1037.6</ele>
        <time>2014-10-01T17:20:40Z</time>
      </trkpt>
      <trkpt lat="42.4054860" lon="-7.2914540">
        <ele>1037.0</ele>
        <time>2014-10-01T17:20:41Z</time>
      </trkpt>
      <trkpt lat="42.4054400" lon="-7.2915240">
        <ele>1036.5</ele>
        <time>2014-10-01T17:20:42Z</time>
      </trkpt>
      <trkpt lat="42.4053950" lon="-7.2915840">
        <ele>1036.0</ele>
        <time>2014-10-01T17:20:43Z</time>
      </trkpt>
      <trkpt lat="42.4053490" lon="-7.2916350">
        <ele>1035.5</ele>
        <time>2014-10-01T17:20:44Z</time>
      </trkpt>
      <trkpt lat="42.4052990" lon="-7.2916830">
        <ele>1035.0</ele>
        <time>2014-10-01T17:20:45Z</time>
      </trkpt>
      <trkpt lat="42.4052460" lon="-7.2917250">
        <ele>1034.6</ele>
        <time>2014-10-01T17:20:46Z</time>
      </trkpt>
      <trkpt lat="42.4051880" lon="-7.2917650">
        <ele>1034.0</ele>
        <time>2014-10-01T17:20:47Z</time>
      </trkpt>
      <trkpt lat="42.4051290" lon="-7.2918000">
        <ele>1033.5</ele>
        <time>2014-10-01T17:20:48Z</time>
      </trkpt>
      <trkpt lat="42.4050680" lon="-7.2918290">
        <ele>1033.0</ele>
        <time>2014-10-01T17:20:49Z</time>
      </trkpt>
      <trkpt lat="42.4050060" lon="-7.2918550">
        <ele>1032.5</ele>
        <time>2014-10-01T17:20:50Z</time>
      </trkpt>
      <trkpt lat="42.4049430" lon="-7.2918790">
        <ele>1032.0</ele>
        <time>2014-10-01T17:20:51Z</time>
      </trkpt>
      <trkpt lat="42.4048890" lon="-7.2918970">
        <ele>1031.5</ele>
        <time>2014-10-01T17:20:52Z</time>
      </trkpt>
      <trkpt lat="42.4048270" lon="-7.2919170">
        <ele>1031.0</ele>
        <time>2014-10-01T17:20:53Z</time>
      </trkpt>
      <trkpt lat="42.4047660" lon="-7.2919380">
        <ele>1030.5</ele>
        <time>2014-10-01T17:20:54Z</time>
      </trkpt>
      <trkpt lat="42.4047060" lon="-7.2919670">
        <ele>1030.0</ele>
        <time>2014-10-01T17:20:55Z</time>
      </trkpt>
      <trkpt lat="42.4046430" lon="-7.2920030">
        <ele>1029.5</ele>
        <time>2014-10-01T17:20:56Z</time>
      </trkpt>
      <trkpt lat="42.4045810" lon="-7.2920450">
        <ele>1028.9</ele>
        <time>2014-10-01T17:20:57Z</time>
      </trkpt>
      <trkpt lat="42.4045130" lon="-7.2920970">
        <ele>1028.3</ele>
        <time>2014-10-01T17:20:58Z</time>
      </trkpt>
      <trkpt lat="42.4044440" lon="-7.2921580">
        <ele>1027.7</ele>
        <time>2014-10-01T17:20:59Z</time>
      </trkpt>
      <trkpt lat="42.4043720" lon="-7.2922350">
        <ele>1026.9</ele>
        <time>2014-10-01T17:21:00Z</time>
      </trkpt>
      <trkpt lat="42.4042990" lon="-7.2923260">
        <ele>1026.2</ele>
        <time>2014-10-01T17:21:01Z</time>
      </trkpt>
      <trkpt lat="42.4042270" lon="-7.2924300">
        <ele>1025.3</ele>
        <time>2014-10-01T17:21:02Z</time>
      </trkpt>
      <trkpt lat="42.4041530" lon="-7.2925450">
        <ele>1024.4</ele>
        <time>2014-10-01T17:21:03Z</time>
      </trkpt>
      <trkpt lat="42.4040770" lon="-7.2926680">
        <ele>1023.5</ele>
        <time>2014-10-01T17:21:04Z</time>
      </trkpt>
      <trkpt lat="42.4040030" lon="-7.2928040">
        <ele>1022.5</ele>
        <time>2014-10-01T17:21:05Z</time>
      </trkpt>
      <trkpt lat="42.4039310" lon="-7.2929540">
        <ele>1021.5</ele>
        <time>2014-10-01T17:21:06Z</time>
      </trkpt>
      <trkpt lat="42.4038670" lon="-7.2931150">
        <ele>1020.4</ele>
        <time>2014-10-01T17:21:07Z</time>
      </trkpt>
      <trkpt lat="42.4037970" lon="-7.2932920">
        <ele>1019.2</ele>
        <time>2014-10-01T17:21:08Z</time>
      </trkpt>
      <trkpt lat="42.4037410" lon="-7.2934540">
        <ele>1018.2</ele>
        <time>2014-10-01T17:21:09Z</time>
      </trkpt>
      <trkpt lat="42.4036890" lon="-7.2936130">
        <ele>1017.2</ele>
        <time>2014-10-01T17:21:10Z</time>
      </trkpt>
      <trkpt lat="42.4036450" lon="-7.2937680">
        <ele>1016.2</ele>
        <time>2014-10-01T17:21:11Z</time>
      </trkpt>
      <trkpt lat="42.4036090" lon="-7.2939180">
        <ele>1015.3</ele>
        <time>2014-10-01T17:21:12Z</time>
      </trkpt>
      <trkpt lat="42.4035760" lon="-7.2940660">
        <ele>1014.4</ele>
        <time>2014-10-01T17:21:13Z</time>
      </trkpt>
      <trkpt lat="42.4035410" lon="-7.2942120">
        <ele>1013.5</ele>
        <time>2014-10-01T17:21:14Z</time>
      </trkpt>
      <trkpt lat="42.4034970" lon="-7.2943460">
        <ele>1012.6</ele>
        <time>2014-10-01T17:21:15Z</time>
      </trkpt>
      <trkpt lat="42.4034240" lon="-7.2944510">
        <ele>1011.8</ele>
        <time>2014-10-01T17:21:16Z</time>
      </trkpt>
      <trkpt lat="42.4033490" lon="-7.2945460">
        <ele>1010.9</ele>
        <time>2014-10-01T17:21:17Z</time>
      </trkpt>
      <trkpt lat="42.4032700" lon="-7.2946320">
        <ele>1010.1</ele>
        <time>2014-10-01T17:21:18Z</time>
      </trkpt>
      <trkpt lat="42.4031830" lon="-7.2947260">
        <ele>1009.3</ele>
        <time>2014-10-01T17:21:19Z</time>
      </trkpt>
      <trkpt lat="42.4030870" lon="-7.2948300">
        <ele>1008.3</ele>
        <time>2014-10-01T17:21:20Z</time>
      </trkpt>
      <trkpt lat="42.4029960" lon="-7.2949370">
        <ele>1007.3</ele>
        <time>2014-10-01T17:21:21Z</time>
      </trkpt>
      <trkpt lat="42.4029020" lon="-7.2950480">
        <ele>1006.3</ele>
        <time>2014-10-01T17:21:22Z</time>
      </trkpt>
      <trkpt lat="42.4028060" lon="-7.2951610">
        <ele>1005.3</ele>
        <time>2014-10-01T17:21:23Z</time>
      </trkpt>
      <trkpt lat="42.4027070" lon="-7.2952650">
        <ele>1004.3</ele>
        <time>2014-10-01T17:21:24Z</time>
      </trkpt>
      <trkpt lat="42.4026040" lon="-7.2953620">
        <ele>1003.4</ele>
        <time>2014-10-01T17:21:25Z</time>
      </trkpt>
      <trkpt lat="42.4024930" lon="-7.2954570">
        <ele>1002.3</ele>
        <time>2014-10-01T17:21:26Z</time>
      </trkpt>
      <trkpt lat="42.4023790" lon="-7.2955470">
        <ele>1001.3</ele>
        <time>2014-10-01T17:21:27Z</time>
      </trkpt>
      <trkpt lat="42.4022690" lon="-7.2956250">
        <ele>1000.3</ele>
        <time>2014-10-01T17:21:28Z</time>
      </trkpt>
      <trkpt lat="42.4021600" lon="-7.2957040">
        <ele>999.3</ele>
        <time>2014-10-01T17:21:29Z</time>
      </trkpt>
      <trkpt lat="42.4020550" lon="-7.2957750">
        <ele>998.4</ele>
        <time>2014-10-01T17:21:30Z</time>
      </trkpt>
      <trkpt lat="42.4019530" lon="-7.2958440">
        <ele>997.5</ele>
        <time>2014-10-01T17:21:31Z</time>
      </trkpt>
      <trkpt lat="42.4018580" lon="-7.2959090">
        <ele>996.6</ele>
        <time>2014-10-01T17:21:32Z</time>
      </trkpt>
      <trkpt lat="42.4017690" lon="-7.2959660">
        <ele>995.8</ele>
        <time>2014-10-01T17:21:33Z</time>
      </trkpt>
      <trkpt lat="42.4016880" lon="-7.2960180">
        <ele>995.1</ele>
        <time>2014-10-01T17:21:34Z</time>
      </trkpt>
      <trkpt lat="42.4016120" lon="-7.2960640">
        <ele>994.5</ele>
        <time>2014-10-01T17:21:35Z</time>
      </trkpt>
      <trkpt lat="42.4015550" lon="-7.2960960">
        <ele>994.0</ele>
        <time>2014-10-01T17:21:36Z</time>
      </trkpt>
      <trkpt lat="42.4015060" lon="-7.2961240">
        <ele>993.6</ele>
        <time>2014-10-01T17:21:37Z</time>
      </trkpt>
      <trkpt lat="42.4014800" lon="-7.2961510">
        <ele>993.3</ele>
        <time>2014-10-01T17:21:38Z</time>
      </trkpt>
      <trkpt lat="42.4014740" lon="-7.2961880">
        <ele>993.1</ele>
        <time>2014-10-01T17:21:40Z</time>
      </trkpt>
      <trkpt lat="42.4014270" lon="-7.2961390">
        <ele>992.6</ele>
        <time>2014-10-01T17:22:09Z</time>
      </trkpt>
      <trkpt lat="42.4014680" lon="-7.2961740">
        <ele>992.2</ele>
        <time>2014-10-01T17:22:41Z</time>
      </trkpt>
      <trkpt lat="42.4015100" lon="-7.2962250">
        <ele>991.2</ele>
        <time>2014-10-01T17:22:43Z</time>
      </trkpt>
      <trkpt lat="42.4015310" lon="-7.2962480">
        <ele>991.1</ele>
        <time>2014-10-01T17:22:44Z</time>
      </trkpt>
      <trkpt lat="42.4015540" lon="-7.2962710">
        <ele>991.1</ele>
        <time>2014-10-01T17:22:45Z</time>
      </trkpt>
      <trkpt lat="42.4015830" lon="-7.2962820">
        <ele>991.1</ele>
        <time>2014-10-01T17:22:46Z</time>
      </trkpt>
      <trkpt lat="42.4016160" lon="-7.2962920">
        <ele>991.1</ele>
        <time>2014-10-01T17:22:47Z</time>
      </trkpt>
      <trkpt lat="42.4016750" lon="-7.2963040">
        <ele>991.1</ele>
        <time>2014-10-01T17:22:49Z</time>
      </trkpt>
      <trkpt lat="42.4017140" lon="-7.2963150">
        <ele>991.1</ele>
        <time>2014-10-01T17:22:50Z</time>
      </trkpt>
      <trkpt lat="42.4017540" lon="-7.2963260">
        <ele>991.2</ele>
        <time>2014-10-01T17:22:51Z</time>
      </trkpt>
      <trkpt lat="42.4017990" lon="-7.2963450">
        <ele>991.2</ele>
        <time>2014-10-01T17:22:52Z</time>
      </trkpt>
      <trkpt lat="42.4018450" lon="-7.2963650">
        <ele>991.3</ele>
        <time>2014-10-01T17:22:53Z</time>
      </trkpt>
      <trkpt lat="42.4018950" lon="-7.2963870">
        <ele>991.3</ele>
        <time>2014-10-01T17:22:54Z</time>
      </trkpt>
      <trkpt lat="42.4019450" lon="-7.2964110">
        <ele>991.3</ele>
        <time>2014-10-01T17:22:55Z</time>
      </trkpt>
      <trkpt lat="42.4019940" lon="-7.2964370">
        <ele>991.4</ele>
        <time>2014-10-01T17:22:56Z</time>
      </trkpt>
      <trkpt lat="42.4020420" lon="-7.2964660">
        <ele>991.5</ele>
        <time>2014-10-01T17:22:57Z</time>
      </trkpt>
      <trkpt lat="42.4020900" lon="-7.2964980">
        <ele>991.6</ele>
        <time>2014-10-01T17:22:58Z</time>
      </trkpt>
      <trkpt lat="42.4021360" lon="-7.2965300">
        <ele>991.6</ele>
        <time>2014-10-01T17:22:59Z</time>
      </trkpt>
      <trkpt lat="42.4021790" lon="-7.2965610">
        <ele>991.6</ele>
        <time>2014-10-01T17:23:00Z</time>
      </trkpt>
      <trkpt lat="42.4022210" lon="-7.2965930">
        <ele>991.7</ele>
        <time>2014-10-01T17:23:01Z</time>
      </trkpt>
      <trkpt lat="42.4022610" lon="-7.2966230">
        <ele>991.7</ele>
        <time>2014-10-01T17:23:02Z</time>
      </trkpt>
      <trkpt lat="42.4023030" lon="-7.2966560">
        <ele>991.7</ele>
        <time>2014-10-01T17:23:03Z</time>
      </trkpt>
      <trkpt lat="42.4023460" lon="-7.2966920">
        <ele>991.7</ele>
        <time>2014-10-01T17:23:04Z</time>
      </trkpt>
      <trkpt lat="42.4023850" lon="-7.2967250">
        <ele>991.7</ele>
        <time>2014-10-01T17:23:05Z</time>
      </trkpt>
      <trkpt lat="42.4024270" lon="-7.2967610">
        <ele>991.7</ele>
        <time>2014-10-01T17:23:06Z</time>
      </trkpt>
      <trkpt lat="42.4024650" lon="-7.2967930">
        <ele>991.7</ele>
        <time>2014-10-01T17:23:07Z</time>
      </trkpt>
      <trkpt lat="42.4025020" lon="-7.2968260">
        <ele>991.8</ele>
        <time>2014-10-01T17:23:08Z</time>
      </trkpt>
      <trkpt lat="42.4025390" lon="-7.2968580">
        <ele>991.8</ele>
        <time>2014-10-01T17:23:09Z</time>
      </trkpt>
      <trkpt lat="42.4025740" lon="-7.2968920">
        <ele>991.9</ele>
        <time>2014-10-01T17:23:10Z</time>
      </trkpt>
      <trkpt lat="42.4026090" lon="-7.2969260">
        <ele>991.9</ele>
        <time>2014-10-01T17:23:11Z</time>
      </trkpt>
      <trkpt lat="42.4026490" lon="-7.2969670">
        <ele>991.9</ele>
        <time>2014-10-01T17:23:12Z</time>
      </trkpt>
      <trkpt lat="42.4026880" lon="-7.2970040">
        <ele>992.0</ele>
        <time>2014-10-01T17:23:13Z</time>
      </trkpt>
      <trkpt lat="42.4027290" lon="-7.2970490">
        <ele>992.0</ele>
        <time>2014-10-01T17:23:14Z</time>
      </trkpt>
      <trkpt lat="42.4027710" lon="-7.2971000">
        <ele>992.1</ele>
        <time>2014-10-01T17:23:15Z</time>
      </trkpt>
      <trkpt lat="42.4028110" lon="-7.2971500">
        <ele>992.1</ele>
        <time>2014-10-01T17:23:16Z</time>
      </trkpt>
      <trkpt lat="42.4028490" lon="-7.2972000">
        <ele>992.0</ele>
        <time>2014-10-01T17:23:17Z</time>
      </trkpt>
      <trkpt lat="42.4028870" lon="-7.2972560">
        <ele>992.0</ele>
        <time>2014-10-01T17:23:18Z</time>
      </trkpt>
      <trkpt lat="42.4029240" lon="-7.2973130">
        <ele>992.0</ele>
        <time>2014-10-01T17:23:19Z</time>
      </trkpt>
      <trkpt lat="42.4029620" lon="-7.2973740">
        <ele>991.9</ele>
        <time>2014-10-01T17:23:20Z</time>
      </trkpt>
      <trkpt lat="42.4030020" lon="-7.2974360">
        <ele>991.9</ele>
        <time>2014-10-01T17:23:21Z</time>
      </trkpt>
      <trkpt lat="42.4030370" lon="-7.2974960">
        <ele>991.8</ele>
        <time>2014-10-01T17:23:22Z</time>
      </trkpt>
      <trkpt lat="42.4030710" lon="-7.2975510">
        <ele>991.6</ele>
        <time>2014-10-01T17:23:23Z</time>
      </trkpt>
      <trkpt lat="42.4031030" lon="-7.2976060">
        <ele>991.5</ele>
        <time>2014-10-01T17:23:24Z</time>
      </trkpt>
      <trkpt lat="42.4031350" lon="-7.2976600">
        <ele>991.4</ele>
        <time>2014-10-01T17:23:25Z</time>
      </trkpt>
      <trkpt lat="42.4031660" lon="-7.2977130">
        <ele>991.3</ele>
        <time>2014-10-01T17:23:26Z</time>
      </trkpt>
      <trkpt lat="42.4031990" lon="-7.2977670">
        <ele>991.1</ele>
        <time>2014-10-01T17:23:27Z</time>
      </trkpt>
      <trkpt lat="42.4032350" lon="-7.2978200">
        <ele>990.9</ele>
        <time>2014-10-01T17:23:28Z</time>
      </trkpt>
      <trkpt lat="42.4032700" lon="-7.2978710">
        <ele>990.7</ele>
        <time>2014-10-01T17:23:29Z</time>
      </trkpt>
      <trkpt lat="42.4033060" lon="-7.2979230">
        <ele>990.6</ele>
        <time>2014-10-01T17:23:30Z</time>
      </trkpt>
      <trkpt lat="42.4033400" lon="-7.2979720">
        <ele>990.4</ele>
        <time>2014-10-01T17:23:31Z</time>
      </trkpt>
      <trkpt lat="42.4033750" lon="-7.2980240">
        <ele>990.2</ele>
        <time>2014-10-01T17:23:32Z</time>
      </trkpt>
      <trkpt lat="42.4034060" lon="-7.2980760">
        <ele>990.1</ele>
        <time>2014-10-01T17:23:33Z</time>
      </trkpt>
      <trkpt lat="42.4034350" lon="-7.2981360">
        <ele>989.9</ele>
        <time>2014-10-01T17:23:34Z</time>
      </trkpt>
      <trkpt lat="42.4034660" lon="-7.2982010">
        <ele>989.7</ele>
        <time>2014-10-01T17:23:35Z</time>
      </trkpt>
      <trkpt lat="42.4035010" lon="-7.2982650">
        <ele>989.5</ele>
        <time>2014-10-01T17:23:36Z</time>
      </trkpt>
      <trkpt lat="42.4035360" lon="-7.2983230">
        <ele>989.3</ele>
        <time>2014-10-01T17:23:37Z</time>
      </trkpt>
      <trkpt lat="42.4035700" lon="-7.2983790">
        <ele>989.1</ele>
        <time>2014-10-01T17:23:38Z</time>
      </trkpt>
      <trkpt lat="42.4036030" lon="-7.2984350">
        <ele>988.9</ele>
        <time>2014-10-01T17:23:39Z</time>
      </trkpt>
      <trkpt lat="42.4036380" lon="-7.2984990">
        <ele>988.7</ele>
        <time>2014-10-01T17:23:40Z</time>
      </trkpt>
      <trkpt lat="42.4036720" lon="-7.2985620">
        <ele>988.6</ele>
        <time>2014-10-01T17:23:41Z</time>
      </trkpt>
      <trkpt lat="42.4037070" lon="-7.2986280">
        <ele>988.4</ele>
        <time>2014-10-01T17:23:42Z</time>
      </trkpt>
      <trkpt lat="42.4037450" lon="-7.2987010">
        <ele>988.2</ele>
        <time>2014-10-01T17:23:43Z</time>
      </trkpt>
      <trkpt lat="42.4037830" lon="-7.2987730">
        <ele>988.1</ele>
        <time>2014-10-01T17:23:44Z</time>
      </trkpt>
      <trkpt lat="42.4038190" lon="-7.2988370">
        <ele>987.9</ele>
        <time>2014-10-01T17:23:45Z</time>
      </trkpt>
      <trkpt lat="42.4038590" lon="-7.2989020">
        <ele>987.6</ele>
        <time>2014-10-01T17:23:46Z</time>
      </trkpt>
      <trkpt lat="42.4039020" lon="-7.2989690">
        <ele>987.4</ele>
        <time>2014-10-01T17:23:47Z</time>
      </trkpt>
      <trkpt lat="42.4039440" lon="-7.2990320">
        <ele>987.3</ele>
        <time>2014-10-01T17:23:48Z</time>
      </trkpt>
      <trkpt lat="42.4039870" lon="-7.2991000">
        <ele>987.1</ele>
        <time>2014-10-01T17:23:49Z</time>
      </trkpt>
      <trkpt lat="42.4040310" lon="-7.2991700">
        <ele>987.0</ele>
        <time>2014-10-01T17:23:50Z</time>
      </trkpt>
      <trkpt lat="42.4040740" lon="-7.2992430">
        <ele>986.8</ele>
        <time>2014-10-01T17:23:51Z</time>
      </trkpt>
      <trkpt lat="42.4041180" lon="-7.2993170">
        <ele>986.7</ele>
        <time>2014-10-01T17:23:52Z</time>
      </trkpt>
      <trkpt lat="42.4041640" lon="-7.2993910">
        <ele>986.5</ele>
        <time>2014-10-01T17:23:53Z</time>
      </trkpt>
      <trkpt lat="42.4042080" lon="-7.2994640">
        <ele>986.3</ele>
        <time>2014-10-01T17:23:54Z</time>
      </trkpt>
      <trkpt lat="42.4042540" lon="-7.2995330">
        <ele>986.1</ele>
        <time>2014-10-01T17:23:55Z</time>
      </trkpt>
      <trkpt lat="42.4043000" lon="-7.2996020">
        <ele>985.9</ele>
        <time>2014-10-01T17:23:56Z</time>
      </trkpt>
      <trkpt lat="42.4043460" lon="-7.2996700">
        <ele>985.7</ele>
        <time>2014-10-01T17:23:57Z</time>
      </trkpt>
      <trkpt lat="42.4043950" lon="-7.2997420">
        <ele>985.5</ele>
        <time>2014-10-01T17:23:58Z</time>
      </trkpt>
      <trkpt lat="42.4044400" lon="-7.2998100">
        <ele>985.4</ele>
        <time>2014-10-01T17:23:59Z</time>
      </trkpt>
      <trkpt lat="42.4044850" lon="-7.2998840">
        <ele>985.2</ele>
        <time>2014-10-01T17:24:00Z</time>
      </trkpt>
      <trkpt lat="42.4045280" lon="-7.2999550">
        <ele>985.0</ele>
        <time>2014-10-01T17:24:01Z</time>
      </trkpt>
      <trkpt lat="42.4045740" lon="-7.3000240">
        <ele>984.9</ele>
        <time>2014-10-01T17:24:02Z</time>
      </trkpt>
      <trkpt lat="42.4046240" lon="-7.3000890">
        <ele>984.7</ele>
        <time>2014-10-01T17:24:03Z</time>
      </trkpt>
      <trkpt lat="42.4046780" lon="-7.3001480">
        <ele>984.5</ele>
        <time>2014-10-01T17:24:04Z</time>
      </trkpt>
      <trkpt lat="42.4047340" lon="-7.3002000">
        <ele>984.3</ele>
        <time>2014-10-01T17:24:05Z</time>
      </trkpt>
      <trkpt lat="42.4047930" lon="-7.3002490">
        <ele>984.2</ele>
        <time>2014-10-01T17:24:06Z</time>
      </trkpt>
      <trkpt lat="42.4048550" lon="-7.3002950">
        <ele>984.0</ele>
        <time>2014-10-01T17:24:07Z</time>
      </trkpt>
      <trkpt lat="42.4049170" lon="-7.3003370">
        <ele>983.8</ele>
        <time>2014-10-01T17:24:08Z</time>
      </trkpt>
      <trkpt lat="42.4049810" lon="-7.3003800">
        <ele>983.7</ele>
        <time>2014-10-01T17:24:09Z</time>
      </trkpt>
      <trkpt lat="42.4050450" lon="-7.3004180">
        <ele>983.6</ele>
        <time>2014-10-01T17:24:10Z</time>
      </trkpt>
      <trkpt lat="42.4051100" lon="-7.3004520">
        <ele>983.6</ele>
        <time>2014-10-01T17:24:11Z</time>
      </trkpt>
      <trkpt lat="42.4051750" lon="-7.3004800">
        <ele>983.6</ele>
        <time>2014-10-01T17:24:12Z</time>
      </trkpt>
      <trkpt lat="42.4052380" lon="-7.3005030">
        <ele>983.6</ele>
        <time>2014-10-01T17:24:13Z</time>
      </trkpt>
      <trkpt lat="42.4053000" lon="-7.3005200">
        <ele>983.5</ele>
        <time>2014-10-01T17:24:14Z</time>
      </trkpt>
      <trkpt lat="42.4053660" lon="-7.3005330">
        <ele>983.5</ele>
        <time>2014-10-01T17:24:15Z</time>
      </trkpt>
      <trkpt lat="42.4054310" lon="-7.3005410">
        <ele>983.5</ele>
        <time>2014-10-01T17:24:16Z</time>
      </trkpt>
      <trkpt lat="42.4054960" lon="-7.3005440">
        <ele>983.4</ele>
        <time>2014-10-01T17:24:17Z</time>
      </trkpt>
      <trkpt lat="42.4055580" lon="-7.3005280">
        <ele>983.2</ele>
        <time>2014-10-01T17:24:18Z</time>
      </trkpt>
      <trkpt lat="42.4056220" lon="-7.3005080">
        <ele>982.8</ele>
        <time>2014-10-01T17:24:19Z</time>
      </trkpt>
      <trkpt lat="42.4056840" lon="-7.3004810">
        <ele>982.0</ele>
        <time>2014-10-01T17:24:20Z</time>
      </trkpt>
      <trkpt lat="42.4057460" lon="-7.3004480">
        <ele>981.8</ele>
        <time>2014-10-01T17:24:21Z</time>
      </trkpt>
      <trkpt lat="42.4058060" lon="-7.3004100">
        <ele>981.8</ele>
        <time>2014-10-01T17:24:22Z</time>
      </trkpt>
      <trkpt lat="42.4058660" lon="-7.3003690">
        <ele>981.9</ele>
        <time>2014-10-01T17:24:23Z</time>
      </trkpt>
      <trkpt lat="42.4059260" lon="-7.3003280">
        <ele>981.9</ele>
        <time>2014-10-01T17:24:24Z</time>
      </trkpt>
      <trkpt lat="42.4059880" lon="-7.3002900">
        <ele>982.0</ele>
        <time>2014-10-01T17:24:25Z</time>
      </trkpt>
      <trkpt lat="42.4060480" lon="-7.3002640">
        <ele>982.2</ele>
        <time>2014-10-01T17:24:26Z</time>
      </trkpt>
      <trkpt lat="42.4061160" lon="-7.3002620">
        <ele>982.4</ele>
        <time>2014-10-01T17:24:27Z</time>
      </trkpt>
      <trkpt lat="42.4061870" lon="-7.3002650">
        <ele>982.7</ele>
        <time>2014-10-01T17:24:28Z</time>
      </trkpt>
      <trkpt lat="42.4062560" lon="-7.3002740">
        <ele>983.0</ele>
        <time>2014-10-01T17:24:29Z</time>
      </trkpt>
      <trkpt lat="42.4063190" lon="-7.3002880">
        <ele>983.2</ele>
        <time>2014-10-01T17:24:30Z</time>
      </trkpt>
      <trkpt lat="42.4063750" lon="-7.3003040">
        <ele>983.4</ele>
        <time>2014-10-01T17:24:31Z</time>
      </trkpt>
      <trkpt lat="42.4064270" lon="-7.3003210">
        <ele>983.6</ele>
        <time>2014-10-01T17:24:32Z</time>
      </trkpt>
      <trkpt lat="42.4064810" lon="-7.3003450">
        <ele>983.8</ele>
        <time>2014-10-01T17:24:33Z</time>
      </trkpt>
      <trkpt lat="42.4065330" lon="-7.3003660">
        <ele>984.0</ele>
        <time>2014-10-01T17:24:34Z</time>
      </trkpt>
      <trkpt lat="42.4065900" lon="-7.3003880">
        <ele>984.2</ele>
        <time>2014-10-01T17:24:35Z</time>
      </trkpt>
      <trkpt lat="42.4066440" lon="-7.3004060">
        <ele>984.4</ele>
        <time>2014-10-01T17:24:36Z</time>
      </trkpt>
      <trkpt lat="42.4066950" lon="-7.3004210">
        <ele>984.6</ele>
        <time>2014-10-01T17:24:37Z</time>
      </trkpt>
      <trkpt lat="42.4067490" lon="-7.3004360">
        <ele>984.9</ele>
        <time>2014-10-01T17:24:38Z</time>
      </trkpt>
      <trkpt lat="42.4068000" lon="-7.3004500">
        <ele>985.1</ele>
        <time>2014-10-01T17:24:39Z</time>
      </trkpt>
      <trkpt lat="42.4068540" lon="-7.3004680">
        <ele>985.4</ele>
        <time>2014-10-01T17:24:40Z</time>
      </trkpt>
      <trkpt lat="42.4069060" lon="-7.3004860">
        <ele>985.7</ele>
        <time>2014-10-01T17:24:41Z</time>
      </trkpt>
      <trkpt lat="42.4069520" lon="-7.3005000">
        <ele>985.9</ele>
        <time>2014-10-01T17:24:42Z</time>
      </trkpt>
      <trkpt lat="42.4070030" lon="-7.3005200">
        <ele>986.1</ele>
        <time>2014-10-01T17:24:43Z</time>
      </trkpt>
      <trkpt lat="42.4070540" lon="-7.3005390">
        <ele>986.4</ele>
        <time>2014-10-01T17:24:44Z</time>
      </trkpt>
      <trkpt lat="42.4071010" lon="-7.3005550">
        <ele>986.6</ele>
        <time>2014-10-01T17:24:45Z</time>
      </trkpt>
      <trkpt lat="42.4071510" lon="-7.3005760">
        <ele>986.8</ele>
        <time>2014-10-01T17:24:46Z</time>
      </trkpt>
      <trkpt lat="42.4072050" lon="-7.3005930">
        <ele>987.0</ele>
        <time>2014-10-01T17:24:47Z</time>
      </trkpt>
      <trkpt lat="42.4072530" lon="-7.3006100">
        <ele>987.2</ele>
        <time>2014-10-01T17:24:48Z</time>
      </trkpt>
      <trkpt lat="42.4073040" lon="-7.3006270">
        <ele>987.3</ele>
        <time>2014-10-01T17:24:49Z</time>
      </trkpt>
      <trkpt lat="42.4073500" lon="-7.3006420">
        <ele>987.5</ele>
        <time>2014-10-01T17:24:50Z</time>
      </trkpt>
      <trkpt lat="42.4073970" lon="-7.3006550">
        <ele>987.6</ele>
        <time>2014-10-01T17:24:51Z</time>
      </trkpt>
      <trkpt lat="42.4074510" lon="-7.3006670">
        <ele>987.8</ele>
        <time>2014-10-01T17:24:52Z</time>
      </trkpt>
      <trkpt lat="42.4075110" lon="-7.3006700">
        <ele>987.9</ele>
        <time>2014-10-01T17:24:53Z</time>
      </trkpt>
      <trkpt lat="42.4075750" lon="-7.3006540">
        <ele>988.1</ele>
        <time>2014-10-01T17:24:54Z</time>
      </trkpt>
      <trkpt lat="42.4076390" lon="-7.3006350">
        <ele>988.2</ele>
        <time>2014-10-01T17:24:55Z</time>
      </trkpt>
      <trkpt lat="42.4077010" lon="-7.3006100">
        <ele>988.3</ele>
        <time>2014-10-01T17:24:56Z</time>
      </trkpt>
      <trkpt lat="42.4077600" lon="-7.3005790">
        <ele>988.4</ele>
        <time>2014-10-01T17:24:57Z</time>
      </trkpt>
      <trkpt lat="42.4078190" lon="-7.3005430">
        <ele>988.5</ele>
        <time>2014-10-01T17:24:58Z</time>
      </trkpt>
      <trkpt lat="42.4078690" lon="-7.3005080">
        <ele>988.6</ele>
        <time>2014-10-01T17:24:59Z</time>
      </trkpt>
      <trkpt lat="42.4079140" lon="-7.3004700">
        <ele>988.7</ele>
        <time>2014-10-01T17:25:00Z</time>
      </trkpt>
      <trkpt lat="42.4079670" lon="-7.3004220">
        <ele>988.8</ele>
        <time>2014-10-01T17:25:01Z</time>
      </trkpt>
      <trkpt lat="42.4080190" lon="-7.3003670">
        <ele>988.9</ele>
        <time>2014-10-01T17:25:02Z</time>
      </trkpt>
      <trkpt lat="42.4080680" lon="-7.3003090">
        <ele>989.0</ele>
        <time>2014-10-01T17:25:03Z</time>
      </trkpt>
      <trkpt lat="42.4081150" lon="-7.3002490">
        <ele>989.1</ele>
        <time>2014-10-01T17:25:04Z</time>
      </trkpt>
      <trkpt lat="42.4081570" lon="-7.3001890">
        <ele>989.2</ele>
        <time>2014-10-01T17:25:05Z</time>
      </trkpt>
      <trkpt lat="42.4081970" lon="-7.3001290">
        <ele>989.3</ele>
        <time>2014-10-01T17:25:06Z</time>
      </trkpt>
      <trkpt lat="42.4082370" lon="-7.3000670">
        <ele>989.5</ele>
        <time>2014-10-01T17:25:07Z</time>
      </trkpt>
      <trkpt lat="42.4082790" lon="-7.3000030">
        <ele>989.6</ele>
        <time>2014-10-01T17:25:08Z</time>
      </trkpt>
      <trkpt lat="42.4083200" lon="-7.2999430">
        <ele>989.7</ele>
        <time>2014-10-01T17:25:09Z</time>
      </trkpt>
      <trkpt lat="42.4083660" lon="-7.2998850">
        <ele>989.8</ele>
        <time>2014-10-01T17:25:10Z</time>
      </trkpt>
      <trkpt lat="42.4084190" lon="-7.2998520">
        <ele>989.9</ele>
        <time>2014-10-01T17:25:11Z</time>
      </trkpt>
      <trkpt lat="42.4084750" lon="-7.2998240">
        <ele>989.8</ele>
        <time>2014-10-01T17:25:12Z</time>
      </trkpt>
      <trkpt lat="42.4085310" lon="-7.2998240">
        <ele>989.8</ele>
        <time>2014-10-01T17:25:13Z</time>
      </trkpt>
      <trkpt lat="42.4085840" lon="-7.2998420">
        <ele>989.7</ele>
        <time>2014-10-01T17:25:14Z</time>
      </trkpt>
      <trkpt lat="42.4086320" lon="-7.2998870">
        <ele>989.7</ele>
        <time>2014-10-01T17:25:15Z</time>
      </trkpt>
      <trkpt lat="42.4086830" lon="-7.2999400">
        <ele>989.7</ele>
        <time>2014-10-01T17:25:16Z</time>
      </trkpt>
      <trkpt lat="42.4087320" lon="-7.2999990">
        <ele>989.7</ele>
        <time>2014-10-01T17:25:17Z</time>
      </trkpt>
      <trkpt lat="42.4087790" lon="-7.3000560">
        <ele>989.6</ele>
        <time>2014-10-01T17:25:18Z</time>
      </trkpt>
      <trkpt lat="42.4088250" lon="-7.3001070">
        <ele>989.5</ele>
        <time>2014-10-01T17:25:19Z</time>
      </trkpt>
      <trkpt lat="42.4088750" lon="-7.3001530">
        <ele>989.4</ele>
        <time>2014-10-01T17:25:20Z</time>
      </trkpt>
      <trkpt lat="42.4089330" lon="-7.3001970">
        <ele>989.4</ele>
        <time>2014-10-01T17:25:21Z</time>
      </trkpt>
      <trkpt lat="42.4089920" lon="-7.3002370">
        <ele>989.3</ele>
        <time>2014-10-01T17:25:22Z</time>
      </trkpt>
      <trkpt lat="42.4090480" lon="-7.3002730">
        <ele>989.4</ele>
        <time>2014-10-01T17:25:23Z</time>
      </trkpt>
      <trkpt lat="42.4091050" lon="-7.3003100">
        <ele>989.7</ele>
        <time>2014-10-01T17:25:24Z</time>
      </trkpt>
      <trkpt lat="42.4091560" lon="-7.3003460">
        <ele>989.8</ele>
        <time>2014-10-01T17:25:25Z</time>
      </trkpt>
      <trkpt lat="42.4092030" lon="-7.3003860">
        <ele>989.9</ele>
        <time>2014-10-01T17:25:26Z</time>
      </trkpt>
      <trkpt lat="42.4092470" lon="-7.3004290">
        <ele>990.0</ele>
        <time>2014-10-01T17:25:27Z</time>
      </trkpt>
      <trkpt lat="42.4092880" lon="-7.3004720">
        <ele>990.0</ele>
        <time>2014-10-01T17:25:28Z</time>
      </trkpt>
      <trkpt lat="42.4093290" lon="-7.3005190">
        <ele>990.0</ele>
        <time>2014-10-01T17:25:29Z</time>
      </trkpt>
      <trkpt lat="42.4093700" lon="-7.3005680">
        <ele>990.0</ele>
        <time>2014-10-01T17:25:30Z</time>
      </trkpt>
      <trkpt lat="42.4094130" lon="-7.3006180">
        <ele>989.9</ele>
        <time>2014-10-01T17:25:31Z</time>
      </trkpt>
      <trkpt lat="42.4094580" lon="-7.3006690">
        <ele>989.9</ele>
        <time>2014-10-01T17:25:32Z</time>
      </trkpt>
      <trkpt lat="42.4095050" lon="-7.3007220">
        <ele>989.8</ele>
        <time>2014-10-01T17:25:33Z</time>
      </trkpt>
      <trkpt lat="42.4095520" lon="-7.3007770">
        <ele>989.7</ele>
        <time>2014-10-01T17:25:34Z</time>
      </trkpt>
      <trkpt lat="42.4095990" lon="-7.3008350">
        <ele>989.6</ele>
        <time>2014-10-01T17:25:35Z</time>
      </trkpt>
      <trkpt lat="42.4096460" lon="-7.3008920">
        <ele>989.6</ele>
        <time>2014-10-01T17:25:36Z</time>
      </trkpt>
      <trkpt lat="42.4096900" lon="-7.3009490">
        <ele>989.5</ele>
        <time>2014-10-01T17:25:37Z</time>
      </trkpt>
      <trkpt lat="42.4097330" lon="-7.3010050">
        <ele>989.3</ele>
        <time>2014-10-01T17:25:38Z</time>
      </trkpt>
      <trkpt lat="42.4097770" lon="-7.3010620">
        <ele>989.2</ele>
        <time>2014-10-01T17:25:39Z</time>
      </trkpt>
      <trkpt lat="42.4098230" lon="-7.3011210">
        <ele>989.1</ele>
        <time>2014-10-01T17:25:40Z</time>
      </trkpt>
      <trkpt lat="42.4098700" lon="-7.3011790">
        <ele>988.9</ele>
        <time>2014-10-01T17:25:41Z</time>
      </trkpt>
      <trkpt lat="42.4099160" lon="-7.3012360">
        <ele>988.7</ele>
        <time>2014-10-01T17:25:42Z</time>
      </trkpt>
      <trkpt lat="42.4099640" lon="-7.3012920">
        <ele>988.5</ele>
        <time>2014-10-01T17:25:43Z</time>
      </trkpt>
      <trkpt lat="42.4100120" lon="-7.3013440">
        <ele>988.2</ele>
        <time>2014-10-01T17:25:44Z</time>
      </trkpt>
      <trkpt lat="42.4100620" lon="-7.3013920">
        <ele>988.0</ele>
        <time>2014-10-01T17:25:45Z</time>
      </trkpt>
      <trkpt lat="42.4101210" lon="-7.3014400">
        <ele>987.7</ele>
        <time>2014-10-01T17:25:46Z</time>
      </trkpt>
      <trkpt lat="42.4101920" lon="-7.3014710">
        <ele>987.4</ele>
        <time>2014-10-01T17:25:47Z</time>
      </trkpt>
      <trkpt lat="42.4102670" lon="-7.3015030">
        <ele>987.1</ele>
        <time>2014-10-01T17:25:48Z</time>
      </trkpt>
      <trkpt lat="42.4103440" lon="-7.3015320">
        <ele>986.7</ele>
        <time>2014-10-01T17:25:49Z</time>
      </trkpt>
      <trkpt lat="42.4104230" lon="-7.3015530">
        <ele>986.3</ele>
        <time>2014-10-01T17:25:50Z</time>
      </trkpt>
      <trkpt lat="42.4105050" lon="-7.3015430">
        <ele>985.9</ele>
        <time>2014-10-01T17:25:51Z</time>
      </trkpt>
      <trkpt lat="42.4105850" lon="-7.3015270">
        <ele>985.4</ele>
        <time>2014-10-01T17:25:52Z</time>
      </trkpt>
      <trkpt lat="42.4106650" lon="-7.3015050">
        <ele>985.1</ele>
        <time>2014-10-01T17:25:53Z</time>
      </trkpt>
      <trkpt lat="42.4107400" lon="-7.3014620">
        <ele>984.8</ele>
        <time>2014-10-01T17:25:54Z</time>
      </trkpt>
      <trkpt lat="42.4108130" lon="-7.3014120">
        <ele>984.4</ele>
        <time>2014-10-01T17:25:55Z</time>
      </trkpt>
      <trkpt lat="42.4108780" lon="-7.3013400">
        <ele>984.0</ele>
        <time>2014-10-01T17:25:56Z</time>
      </trkpt>
      <trkpt lat="42.4109390" lon="-7.3012640">
        <ele>983.7</ele>
        <time>2014-10-01T17:25:57Z</time>
      </trkpt>
      <trkpt lat="42.4110010" lon="-7.3011780">
        <ele>983.2</ele>
        <time>2014-10-01T17:25:58Z</time>
      </trkpt>
      <trkpt lat="42.4110570" lon="-7.3010870">
        <ele>982.7</ele>
        <time>2014-10-01T17:25:59Z</time>
      </trkpt>
      <trkpt lat="42.4111080" lon="-7.3009910">
        <ele>982.2</ele>
        <time>2014-10-01T17:26:00Z</time>
      </trkpt>
      <trkpt lat="42.4111590" lon="-7.3008970">
        <ele>981.7</ele>
        <time>2014-10-01T17:26:01Z</time>
      </trkpt>
      <trkpt lat="42.4112120" lon="-7.3008020">
        <ele>981.2</ele>
        <time>2014-10-01T17:26:02Z</time>
      </trkpt>
      <trkpt lat="42.4112700" lon="-7.3007170">
        <ele>980.8</ele>
        <time>2014-10-01T17:26:03Z</time>
      </trkpt>
      <trkpt lat="42.4113340" lon="-7.3006390">
        <ele>980.4</ele>
        <time>2014-10-01T17:26:04Z</time>
      </trkpt>
      <trkpt lat="42.4114040" lon="-7.3005640">
        <ele>979.9</ele>
        <time>2014-10-01T17:26:05Z</time>
      </trkpt>
      <trkpt lat="42.4114820" lon="-7.3004880">
        <ele>979.3</ele>
        <time>2014-10-01T17:26:06Z</time>
      </trkpt>
      <trkpt lat="42.4115580" lon="-7.3004180">
        <ele>978.8</ele>
        <time>2014-10-01T17:26:07Z</time>
      </trkpt>
      <trkpt lat="42.4116370" lon="-7.3003450">
        <ele>978.3</ele>
        <time>2014-10-01T17:26:08Z</time>
      </trkpt>
      <trkpt lat="42.4117170" lon="-7.3002710">
        <ele>977.7</ele>
        <time>2014-10-01T17:26:09Z</time>
      </trkpt>
      <trkpt lat="42.4117930" lon="-7.3001870">
        <ele>977.1</ele>
        <time>2014-10-01T17:26:10Z</time>
      </trkpt>
      <trkpt lat="42.4118440" lon="-7.3000750">
        <ele>976.5</ele>
        <time>2014-10-01T17:26:11Z</time>
      </trkpt>
      <trkpt lat="42.4118750" lon="-7.2999520">
        <ele>975.8</ele>
        <time>2014-10-01T17:26:12Z</time>
      </trkpt>
      <trkpt lat="42.4119020" lon="-7.2998130">
        <ele>974.9</ele>
        <time>2014-10-01T17:26:13Z</time>
      </trkpt>
      <trkpt lat="42.4119080" lon="-7.2996760">
        <ele>974.0</ele>
        <time>2014-10-01T17:26:14Z</time>
      </trkpt>
      <trkpt lat="42.4119020" lon="-7.2995390">
        <ele>973.0</ele>
        <time>2014-10-01T17:26:15Z</time>
      </trkpt>
      <trkpt lat="42.4119040" lon="-7.2993970">
        <ele>972.0</ele>
        <time>2014-10-01T17:26:16Z</time>
      </trkpt>
      <trkpt lat="42.4119380" lon="-7.2992400">
        <ele>970.8</ele>
        <time>2014-10-01T17:26:17Z</time>
      </trkpt>
      <trkpt lat="42.4119960" lon="-7.2990930">
        <ele>969.8</ele>
        <time>2014-10-01T17:26:18Z</time>
      </trkpt>
      <trkpt lat="42.4120750" lon="-7.2989820">
        <ele>968.9</ele>
        <time>2014-10-01T17:26:19Z</time>
      </trkpt>
      <trkpt lat="42.4121720" lon="-7.2989110">
        <ele>968.2</ele>
        <time>2014-10-01T17:26:20Z</time>
      </trkpt>
      <trkpt lat="42.4122770" lon="-7.2988800">
        <ele>967.7</ele>
        <time>2014-10-01T17:26:21Z</time>
      </trkpt>
      <trkpt lat="42.4123830" lon="-7.2988810">
        <ele>967.3</ele>
        <time>2014-10-01T17:26:22Z</time>
      </trkpt>
      <trkpt lat="42.4124880" lon="-7.2989190">
        <ele>967.2</ele>
        <time>2014-10-01T17:26:23Z</time>
      </trkpt>
      <trkpt lat="42.4125790" lon="-7.2989960">
        <ele>967.1</ele>
        <time>2014-10-01T17:26:24Z</time>
      </trkpt>
      <trkpt lat="42.4126510" lon="-7.2990980">
        <ele>967.1</ele>
        <time>2014-10-01T17:26:25Z</time>
      </trkpt>
      <trkpt lat="42.4127130" lon="-7.2992030">
        <ele>967.1</ele>
        <time>2014-10-01T17:26:26Z</time>
      </trkpt>
      <trkpt lat="42.4127560" lon="-7.2993190">
        <ele>967.3</ele>
        <time>2014-10-01T17:26:27Z</time>
      </trkpt>
      <trkpt lat="42.4127970" lon="-7.2994330">
        <ele>967.6</ele>
        <time>2014-10-01T17:26:28Z</time>
      </trkpt>
      <trkpt lat="42.4128380" lon="-7.2995420">
        <ele>967.9</ele>
        <time>2014-10-01T17:26:29Z</time>
      </trkpt>
      <trkpt lat="42.4128770" lon="-7.2996490">
        <ele>968.3</ele>
        <time>2014-10-01T17:26:30Z</time>
      </trkpt>
      <trkpt lat="42.4129170" lon="-7.2997520">
        <ele>968.7</ele>
        <time>2014-10-01T17:26:31Z</time>
      </trkpt>
      <trkpt lat="42.4129550" lon="-7.2998480">
        <ele>969.2</ele>
        <time>2014-10-01T17:26:32Z</time>
      </trkpt>
      <trkpt lat="42.4129940" lon="-7.2999390">
        <ele>969.7</ele>
        <time>2014-10-01T17:26:33Z</time>
      </trkpt>
      <trkpt lat="42.4130290" lon="-7.3000240">
        <ele>970.2</ele>
        <time>2014-10-01T17:26:34Z</time>
      </trkpt>
      <trkpt lat="42.4130630" lon="-7.3001030">
        <ele>970.6</ele>
        <time>2014-10-01T17:26:35Z</time>
      </trkpt>
      <trkpt lat="42.4131000" lon="-7.3001860">
        <ele>971.1</ele>
        <time>2014-10-01T17:26:36Z</time>
      </trkpt>
      <trkpt lat="42.4131420" lon="-7.3002640">
        <ele>971.5</ele>
        <time>2014-10-01T17:26:37Z</time>
      </trkpt>
      <trkpt lat="42.4131850" lon="-7.3003310">
        <ele>971.8</ele>
        <time>2014-10-01T17:26:38Z</time>
      </trkpt>
      <trkpt lat="42.4132360" lon="-7.3003760">
        <ele>972.1</ele>
        <time>2014-10-01T17:26:39Z</time>
      </trkpt>
      <trkpt lat="42.4132850" lon="-7.3004200">
        <ele>972.5</ele>
        <time>2014-10-01T17:26:40Z</time>
      </trkpt>
      <trkpt lat="42.4133360" lon="-7.3004580">
        <ele>972.8</ele>
        <time>2014-10-01T17:26:41Z</time>
      </trkpt>
      <trkpt lat="42.4133870" lon="-7.3004930">
        <ele>973.1</ele>
        <time>2014-10-01T17:26:42Z</time>
      </trkpt>
      <trkpt lat="42.4134400" lon="-7.3005230">
        <ele>973.4</ele>
        <time>2014-10-01T17:26:43Z</time>
      </trkpt>
      <trkpt lat="42.4134870" lon="-7.3005450">
        <ele>973.7</ele>
        <time>2014-10-01T17:26:44Z</time>
      </trkpt>
      <trkpt lat="42.4135370" lon="-7.3005670">
        <ele>973.9</ele>
        <time>2014-10-01T17:26:45Z</time>
      </trkpt>
      <trkpt lat="42.4135850" lon="-7.3005830">
        <ele>974.1</ele>
        <time>2014-10-01T17:26:46Z</time>
      </trkpt>
      <trkpt lat="42.4136340" lon="-7.3006000">
        <ele>974.2</ele>
        <time>2014-10-01T17:26:47Z</time>
      </trkpt>
      <trkpt lat="42.4136800" lon="-7.3006120">
        <ele>974.3</ele>
        <time>2014-10-01T17:26:48Z</time>
      </trkpt>
      <trkpt lat="42.4137250" lon="-7.3006270">
        <ele>974.3</ele>
        <time>2014-10-01T17:26:49Z</time>
      </trkpt>
      <trkpt lat="42.4137740" lon="-7.3006410">
        <ele>974.5</ele>
        <time>2014-10-01T17:26:50Z</time>
      </trkpt>
      <trkpt lat="42.4138220" lon="-7.3006530">
        <ele>974.7</ele>
        <time>2014-10-01T17:26:51Z</time>
      </trkpt>
      <trkpt lat="42.4138670" lon="-7.3006650">
        <ele>974.9</ele>
        <time>2014-10-01T17:26:52Z</time>
      </trkpt>
      <trkpt lat="42.4139150" lon="-7.3006780">
        <ele>975.1</ele>
        <time>2014-10-01T17:26:53Z</time>
      </trkpt>
      <trkpt lat="42.4139590" lon="-7.3006870">
        <ele>975.2</ele>
        <time>2014-10-01T17:26:54Z</time>
      </trkpt>
      <trkpt lat="42.4140020" lon="-7.3006970">
        <ele>975.4</ele>
        <time>2014-10-01T17:26:55Z</time>
      </trkpt>
      <trkpt lat="42.4140410" lon="-7.3007050">
        <ele>975.5</ele>
        <time>2014-10-01T17:26:56Z</time>
      </trkpt>
      <trkpt lat="42.4140820" lon="-7.3007130">
        <ele>975.6</ele>
        <time>2014-10-01T17:26:57Z</time>
      </trkpt>
      <trkpt lat="42.4141270" lon="-7.3007220">
        <ele>975.7</ele>
        <time>2014-10-01T17:26:58Z</time>
      </trkpt>
      <trkpt lat="42.4141750" lon="-7.3007330">
        <ele>975.8</ele>
        <time>2014-10-01T17:26:59Z</time>
      </trkpt>
      <trkpt lat="42.4142250" lon="-7.3007420">
        <ele>976.0</ele>
        <time>2014-10-01T17:27:00Z</time>
      </trkpt>
      <trkpt lat="42.4142730" lon="-7.3007500">
        <ele>976.1</ele>
        <time>2014-10-01T17:27:01Z</time>
      </trkpt>
      <trkpt lat="42.4143240" lon="-7.3007590">
        <ele>976.2</ele>
        <time>2014-10-01T17:27:02Z</time>
      </trkpt>
      <trkpt lat="42.4143770" lon="-7.3007720">
        <ele>976.4</ele>
        <time>2014-10-01T17:27:03Z</time>
      </trkpt>
      <trkpt lat="42.4144260" lon="-7.3007830">
        <ele>976.5</ele>
        <time>2014-10-01T17:27:04Z</time>
      </trkpt>
      <trkpt lat="42.4144740" lon="-7.3007910">
        <ele>976.6</ele>
        <time>2014-10-01T17:27:05Z</time>
      </trkpt>
      <trkpt lat="42.4145240" lon="-7.3008010">
        <ele>976.6</ele>
        <time>2014-10-01T17:27:06Z</time>
      </trkpt>
      <trkpt lat="42.4145720" lon="-7.3008110">
        <ele>976.7</ele>
        <time>2014-10-01T17:27:07Z</time>
      </trkpt>
      <trkpt lat="42.4146240" lon="-7.3008240">
        <ele>976.7</ele>
        <time>2014-10-01T17:27:08Z</time>
      </trkpt>
      <trkpt lat="42.4146770" lon="-7.3008390">
        <ele>976.7</ele>
        <time>2014-10-01T17:27:09Z</time>
      </trkpt>
      <trkpt lat="42.4147290" lon="-7.3008560">
        <ele>976.7</ele>
        <time>2014-10-01T17:27:10Z</time>
      </trkpt>
      <trkpt lat="42.4147790" lon="-7.3008740">
        <ele>976.7</ele>
        <time>2014-10-01T17:27:11Z</time>
      </trkpt>
      <trkpt lat="42.4148290" lon="-7.3008970">
        <ele>976.7</ele>
        <time>2014-10-01T17:27:12Z</time>
      </trkpt>
      <trkpt lat="42.4148730" lon="-7.3009200">
        <ele>976.7</ele>
        <time>2014-10-01T17:27:13Z</time>
      </trkpt>
      <trkpt lat="42.4149240" lon="-7.3009650">
        <ele>976.6</ele>
        <time>2014-10-01T17:27:14Z</time>
      </trkpt>
      <trkpt lat="42.4149750" lon="-7.3010160">
        <ele>976.6</ele>
        <time>2014-10-01T17:27:15Z</time>
      </trkpt>
      <trkpt lat="42.4150110" lon="-7.3010900">
        <ele>976.6</ele>
        <time>2014-10-01T17:27:16Z</time>
      </trkpt>
      <trkpt lat="42.4150410" lon="-7.3011650">
        <ele>976.6</ele>
        <time>2014-10-01T17:27:17Z</time>
      </trkpt>
      <trkpt lat="42.4150630" lon="-7.3012340">
        <ele>976.6</ele>
        <time>2014-10-01T17:27:18Z</time>
      </trkpt>
      <trkpt lat="42.4150840" lon="-7.3013120">
        <ele>976.6</ele>
        <time>2014-10-01T17:27:19Z</time>
      </trkpt>
      <trkpt lat="42.4151040" lon="-7.3013950">
        <ele>976.7</ele>
        <time>2014-10-01T17:27:20Z</time>
      </trkpt>
      <trkpt lat="42.4151230" lon="-7.3014790">
        <ele>976.7</ele>
        <time>2014-10-01T17:27:21Z</time>
      </trkpt>
      <trkpt lat="42.4151420" lon="-7.3015660">
        <ele>976.7</ele>
        <time>2014-10-01T17:27:22Z</time>
      </trkpt>
      <trkpt lat="42.4151620" lon="-7.3016540">
        <ele>976.7</ele>
        <time>2014-10-01T17:27:23Z</time>
      </trkpt>
      <trkpt lat="42.4151860" lon="-7.3017410">
        <ele>976.7</ele>
        <time>2014-10-01T17:27:24Z</time>
      </trkpt>
      <trkpt lat="42.4152100" lon="-7.3018220">
        <ele>976.6</ele>
        <time>2014-10-01T17:27:25Z</time>
      </trkpt>
      <trkpt lat="42.4152360" lon="-7.3018930">
        <ele>976.5</ele>
        <time>2014-10-01T17:27:26Z</time>
      </trkpt>
      <trkpt lat="42.4152650" lon="-7.3019680">
        <ele>976.3</ele>
        <time>2014-10-01T17:27:27Z</time>
      </trkpt>
      <trkpt lat="42.4152970" lon="-7.3020460">
        <ele>976.1</ele>
        <time>2014-10-01T17:27:28Z</time>
      </trkpt>
      <trkpt lat="42.4153300" lon="-7.3021200">
        <ele>976.0</ele>
        <time>2014-10-01T17:27:29Z</time>
      </trkpt>
      <trkpt lat="42.4153670" lon="-7.3021980">
        <ele>975.8</ele>
        <time>2014-10-01T17:27:30Z</time>
      </trkpt>
      <trkpt lat="42.4154060" lon="-7.3022720">
        <ele>975.6</ele>
        <time>2014-10-01T17:27:31Z</time>
      </trkpt>
      <trkpt lat="42.4154480" lon="-7.3023460">
        <ele>975.5</ele>
        <time>2014-10-01T17:27:32Z</time>
      </trkpt>
      <trkpt lat="42.4154960" lon="-7.3024190">
        <ele>975.4</ele>
        <time>2014-10-01T17:27:33Z</time>
      </trkpt>
      <trkpt lat="42.4155440" lon="-7.3024890">
        <ele>975.3</ele>
        <time>2014-10-01T17:27:34Z</time>
      </trkpt>
      <trkpt lat="42.4155910" lon="-7.3025520">
        <ele>975.2</ele>
        <time>2014-10-01T17:27:35Z</time>
      </trkpt>
      <trkpt lat="42.4156440" lon="-7.3026160">
        <ele>975.1</ele>
        <time>2014-10-01T17:27:36Z</time>
      </trkpt>
      <trkpt lat="42.4157000" lon="-7.3026760">
        <ele>974.9</ele>
        <time>2014-10-01T17:27:37Z</time>
      </trkpt>
      <trkpt lat="42.4157580" lon="-7.3027290">
        <ele>974.8</ele>
        <time>2014-10-01T17:27:38Z</time>
      </trkpt>
      <trkpt lat="42.4158180" lon="-7.3027760">
        <ele>974.6</ele>
        <time>2014-10-01T17:27:39Z</time>
      </trkpt>
      <trkpt lat="42.4158800" lon="-7.3028180">
        <ele>974.5</ele>
        <time>2014-10-01T17:27:40Z</time>
      </trkpt>
      <trkpt lat="42.4159460" lon="-7.3028570">
        <ele>974.5</ele>
        <time>2014-10-01T17:27:41Z</time>
      </trkpt>
      <trkpt lat="42.4160060" lon="-7.3028890">
        <ele>974.4</ele>
        <time>2014-10-01T17:27:42Z</time>
      </trkpt>
      <trkpt lat="42.4160690" lon="-7.3029200">
        <ele>974.3</ele>
        <time>2014-10-01T17:27:43Z</time>
      </trkpt>
      <trkpt lat="42.4161360" lon="-7.3029550">
        <ele>974.2</ele>
        <time>2014-10-01T17:27:44Z</time>
      </trkpt>
      <trkpt lat="42.4162020" lon="-7.3029910">
        <ele>974.1</ele>
        <time>2014-10-01T17:27:45Z</time>
      </trkpt>
      <trkpt lat="42.4162640" lon="-7.3030260">
        <ele>974.0</ele>
        <time>2014-10-01T17:27:46Z</time>
      </trkpt>
      <trkpt lat="42.4163240" lon="-7.3030590">
        <ele>974.0</ele>
        <time>2014-10-01T17:27:47Z</time>
      </trkpt>
      <trkpt lat="42.4163820" lon="-7.3030910">
        <ele>973.9</ele>
        <time>2014-10-01T17:27:48Z</time>
      </trkpt>
      <trkpt lat="42.4164380" lon="-7.3031210">
        <ele>973.9</ele>
        <time>2014-10-01T17:27:49Z</time>
      </trkpt>
      <trkpt lat="42.4164930" lon="-7.3031490">
        <ele>973.8</ele>
        <time>2014-10-01T17:27:50Z</time>
      </trkpt>
      <trkpt lat="42.4165520" lon="-7.3031820">
        <ele>973.7</ele>
        <time>2014-10-01T17:27:51Z</time>
      </trkpt>
      <trkpt lat="42.4166140" lon="-7.3032190">
        <ele>973.6</ele>
        <time>2014-10-01T17:27:52Z</time>
      </trkpt>
      <trkpt lat="42.4166740" lon="-7.3032600">
        <ele>973.5</ele>
        <time>2014-10-01T17:27:53Z</time>
      </trkpt>
      <trkpt lat="42.4167330" lon="-7.3033040">
        <ele>973.3</ele>
        <time>2014-10-01T17:27:54Z</time>
      </trkpt>
      <trkpt lat="42.4167880" lon="-7.3033530">
        <ele>973.2</ele>
        <time>2014-10-01T17:27:55Z</time>
      </trkpt>
      <trkpt lat="42.4168380" lon="-7.3034070">
        <ele>973.1</ele>
        <time>2014-10-01T17:27:56Z</time>
      </trkpt>
      <trkpt lat="42.4168870" lon="-7.3034690">
        <ele>973.0</ele>
        <time>2014-10-01T17:27:57Z</time>
      </trkpt>
      <trkpt lat="42.4169260" lon="-7.3035480">
        <ele>972.9</ele>
        <time>2014-10-01T17:27:58Z</time>
      </trkpt>
      <trkpt lat="42.4169590" lon="-7.3036220">
        <ele>972.8</ele>
        <time>2014-10-01T17:27:59Z</time>
      </trkpt>
      <trkpt lat="42.4169960" lon="-7.3037010">
        <ele>972.7</ele>
        <time>2014-10-01T17:28:00Z</time>
      </trkpt>
      <trkpt lat="42.4170340" lon="-7.3037780">
        <ele>972.6</ele>
        <time>2014-10-01T17:28:01Z</time>
      </trkpt>
      <trkpt lat="42.4170710" lon="-7.3038530">
        <ele>972.5</ele>
        <time>2014-10-01T17:28:02Z</time>
      </trkpt>
      <trkpt lat="42.4171080" lon="-7.3039330">
        <ele>972.4</ele>
        <time>2014-10-01T17:28:03Z</time>
      </trkpt>
      <trkpt lat="42.4171420" lon="-7.3040070">
        <ele>972.3</ele>
        <time>2014-10-01T17:28:04Z</time>
      </trkpt>
      <trkpt lat="42.4171740" lon="-7.3040830">
        <ele>972.2</ele>
        <time>2014-10-01T17:28:05Z</time>
      </trkpt>
      <trkpt lat="42.4172060" lon="-7.3041590">
        <ele>972.1</ele>
        <time>2014-10-01T17:28:06Z</time>
      </trkpt>
      <trkpt lat="42.4172400" lon="-7.3042400">
        <ele>972.1</ele>
        <time>2014-10-01T17:28:07Z</time>
      </trkpt>
      <trkpt lat="42.4172740" lon="-7.3043200">
        <ele>972.0</ele>
        <time>2014-10-01T17:28:08Z</time>
      </trkpt>
      <trkpt lat="42.4173100" lon="-7.3043910">
        <ele>971.9</ele>
        <time>2014-10-01T17:28:09Z</time>
      </trkpt>
      <trkpt lat="42.4173470" lon="-7.3044600">
        <ele>971.9</ele>
        <time>2014-10-01T17:28:10Z</time>
      </trkpt>
      <trkpt lat="42.4173830" lon="-7.3045250">
        <ele>971.8</ele>
        <time>2014-10-01T17:28:11Z</time>
      </trkpt>
      <trkpt lat="42.4174190" lon="-7.3045920">
        <ele>971.7</ele>
        <time>2014-10-01T17:28:12Z</time>
      </trkpt>
      <trkpt lat="42.4174560" lon="-7.3046580">
        <ele>971.6</ele>
        <time>2014-10-01T17:28:13Z</time>
      </trkpt>
      <trkpt lat="42.4174990" lon="-7.3047280">
        <ele>971.4</ele>
        <time>2014-10-01T17:28:14Z</time>
      </trkpt>
      <trkpt lat="42.4175410" lon="-7.3047950">
        <ele>971.3</ele>
        <time>2014-10-01T17:28:15Z</time>
      </trkpt>
      <trkpt lat="42.4175820" lon="-7.3048580">
        <ele>971.2</ele>
        <time>2014-10-01T17:28:16Z</time>
      </trkpt>
      <trkpt lat="42.4176220" lon="-7.3049180">
        <ele>971.1</ele>
        <time>2014-10-01T17:28:17Z</time>
      </trkpt>
      <trkpt lat="42.4176660" lon="-7.3049800">
        <ele>971.0</ele>
        <time>2014-10-01T17:28:18Z</time>
      </trkpt>
      <trkpt lat="42.4177080" lon="-7.3050410">
        <ele>970.9</ele>
        <time>2014-10-01T17:28:19Z</time>
      </trkpt>
      <trkpt lat="42.4177550" lon="-7.3051090">
        <ele>970.8</ele>
        <time>2014-10-01T17:28:20Z</time>
      </trkpt>
      <trkpt lat="42.4178050" lon="-7.3051770">
        <ele>970.7</ele>
        <time>2014-10-01T17:28:21Z</time>
      </trkpt>
      <trkpt lat="42.4178530" lon="-7.3052420">
        <ele>970.7</ele>
        <time>2014-10-01T17:28:22Z</time>
      </trkpt>
      <trkpt lat="42.4179020" lon="-7.3053110">
        <ele>970.6</ele>
        <time>2014-10-01T17:28:23Z</time>
      </trkpt>
      <trkpt lat="42.4179500" lon="-7.3053770">
        <ele>970.6</ele>
        <time>2014-10-01T17:28:24Z</time>
      </trkpt>
      <trkpt lat="42.4179960" lon="-7.3054410">
        <ele>970.7</ele>
        <time>2014-10-01T17:28:25Z</time>
      </trkpt>
      <trkpt lat="42.4180420" lon="-7.3055040">
        <ele>970.7</ele>
        <time>2014-10-01T17:28:26Z</time>
      </trkpt>
      <trkpt lat="42.4180850" lon="-7.3055650">
        <ele>970.7</ele>
        <time>2014-10-01T17:28:27Z</time>
      </trkpt>
      <trkpt lat="42.4181320" lon="-7.3056300">
        <ele>970.8</ele>
        <time>2014-10-01T17:28:28Z</time>
      </trkpt>
      <trkpt lat="42.4181770" lon="-7.3056880">
        <ele>970.8</ele>
        <time>2014-10-01T17:28:29Z</time>
      </trkpt>
      <trkpt lat="42.4182240" lon="-7.3057480">
        <ele>970.9</ele>
        <time>2014-10-01T17:28:30Z</time>
      </trkpt>
      <trkpt lat="42.4182750" lon="-7.3058070">
        <ele>971.0</ele>
        <time>2014-10-01T17:28:31Z</time>
      </trkpt>
      <trkpt lat="42.4183230" lon="-7.3058610">
        <ele>971.0</ele>
        <time>2014-10-01T17:28:32Z</time>
      </trkpt>
      <trkpt lat="42.4183730" lon="-7.3059150">
        <ele>971.2</ele>
        <time>2014-10-01T17:28:33Z</time>
      </trkpt>
      <trkpt lat="42.4184210" lon="-7.3059610">
        <ele>971.3</ele>
        <time>2014-10-01T17:28:34Z</time>
      </trkpt>
      <trkpt lat="42.4184690" lon="-7.3060030">
        <ele>971.4</ele>
        <time>2014-10-01T17:28:35Z</time>
      </trkpt>
      <trkpt lat="42.4185160" lon="-7.3060360">
        <ele>971.5</ele>
        <time>2014-10-01T17:28:36Z</time>
      </trkpt>
      <trkpt lat="42.4185650" lon="-7.3060640">
        <ele>971.6</ele>
        <time>2014-10-01T17:28:37Z</time>
      </trkpt>
      <trkpt lat="42.4186220" lon="-7.3060960">
        <ele>971.6</ele>
        <time>2014-10-01T17:28:38Z</time>
      </trkpt>
      <trkpt lat="42.4186860" lon="-7.3061290">
        <ele>971.7</ele>
        <time>2014-10-01T17:28:39Z</time>
      </trkpt>
      <trkpt lat="42.4187470" lon="-7.3061570">
        <ele>971.8</ele>
        <time>2014-10-01T17:28:40Z</time>
      </trkpt>
      <trkpt lat="42.4188070" lon="-7.3061830">
        <ele>971.9</ele>
        <time>2014-10-01T17:28:41Z</time>
      </trkpt>
      <trkpt lat="42.4188680" lon="-7.3062080">
        <ele>971.9</ele>
        <time>2014-10-01T17:28:42Z</time>
      </trkpt>
      <trkpt lat="42.4189240" lon="-7.3062310">
        <ele>972.0</ele>
        <time>2014-10-01T17:28:43Z</time>
      </trkpt>
      <trkpt lat="42.4189760" lon="-7.3062500">
        <ele>972.1</ele>
        <time>2014-10-01T17:28:44Z</time>
      </trkpt>
      <trkpt lat="42.4190300" lon="-7.3062700">
        <ele>972.1</ele>
        <time>2014-10-01T17:28:45Z</time>
      </trkpt>
      <trkpt lat="42.4190850" lon="-7.3062910">
        <ele>972.2</ele>
        <time>2014-10-01T17:28:46Z</time>
      </trkpt>
      <trkpt lat="42.4191330" lon="-7.3063050">
        <ele>972.2</ele>
        <time>2014-10-01T17:28:47Z</time>
      </trkpt>
      <trkpt lat="42.4191850" lon="-7.3063200">
        <ele>972.3</ele>
        <time>2014-10-01T17:28:48Z</time>
      </trkpt>
      <trkpt lat="42.4192320" lon="-7.3063360">
        <ele>972.2</ele>
        <time>2014-10-01T17:28:49Z</time>
      </trkpt>
      <trkpt lat="42.4192800" lon="-7.3063510">
        <ele>972.2</ele>
        <time>2014-10-01T17:28:50Z</time>
      </trkpt>
      <trkpt lat="42.4193320" lon="-7.3063690">
        <ele>972.1</ele>
        <time>2014-10-01T17:28:51Z</time>
      </trkpt>
      <trkpt lat="42.4193840" lon="-7.3063860">
        <ele>972.1</ele>
        <time>2014-10-01T17:28:52Z</time>
      </trkpt>
      <trkpt lat="42.4194350" lon="-7.3064020">
        <ele>972.1</ele>
        <time>2014-10-01T17:28:53Z</time>
      </trkpt>
      <trkpt lat="42.4194870" lon="-7.3064180">
        <ele>972.1</ele>
        <time>2014-10-01T17:28:54Z</time>
      </trkpt>
      <trkpt lat="42.4195380" lon="-7.3064330">
        <ele>972.0</ele>
        <time>2014-10-01T17:28:55Z</time>
      </trkpt>
      <trkpt lat="42.4195880" lon="-7.3064480">
        <ele>971.9</ele>
        <time>2014-10-01T17:28:56Z</time>
      </trkpt>
      <trkpt lat="42.4196390" lon="-7.3064630">
        <ele>971.9</ele>
        <time>2014-10-01T17:28:57Z</time>
      </trkpt>
      <trkpt lat="42.4196940" lon="-7.3064820">
        <ele>971.8</ele>
        <time>2014-10-01T17:28:58Z</time>
      </trkpt>
      <trkpt lat="42.4197520" lon="-7.3065010">
        <ele>971.7</ele>
        <time>2014-10-01T17:28:59Z</time>
      </trkpt>
      <trkpt lat="42.4198080" lon="-7.3065190">
        <ele>971.7</ele>
        <time>2014-10-01T17:29:00Z</time>
      </trkpt>
      <trkpt lat="42.4198650" lon="-7.3065390">
        <ele>971.6</ele>
        <time>2014-10-01T17:29:01Z</time>
      </trkpt>
      <trkpt lat="42.4199230" lon="-7.3065600">
        <ele>971.5</ele>
        <time>2014-10-01T17:29:02Z</time>
      </trkpt>
      <trkpt lat="42.4199810" lon="-7.3065860">
        <ele>971.5</ele>
        <time>2014-10-01T17:29:03Z</time>
      </trkpt>
      <trkpt lat="42.4200390" lon="-7.3066110">
        <ele>971.4</ele>
        <time>2014-10-01T17:29:04Z</time>
      </trkpt>
      <trkpt lat="42.4200970" lon="-7.3066350">
        <ele>971.3</ele>
        <time>2014-10-01T17:29:05Z</time>
      </trkpt>
      <trkpt lat="42.4201580" lon="-7.3066580">
        <ele>971.1</ele>
        <time>2014-10-01T17:29:06Z</time>
      </trkpt>
      <trkpt lat="42.4202160" lon="-7.3066800">
        <ele>971.0</ele>
        <time>2014-10-01T17:29:07Z</time>
      </trkpt>
      <trkpt lat="42.4202740" lon="-7.3067040">
        <ele>970.9</ele>
        <time>2014-10-01T17:29:08Z</time>
      </trkpt>
      <trkpt lat="42.4203330" lon="-7.3067270">
        <ele>970.8</ele>
        <time>2014-10-01T17:29:09Z</time>
      </trkpt>
      <trkpt lat="42.4203930" lon="-7.3067530">
        <ele>970.7</ele>
        <time>2014-10-01T17:29:10Z</time>
      </trkpt>
      <trkpt lat="42.4204550" lon="-7.3067820">
        <ele>970.6</ele>
        <time>2014-10-01T17:29:11Z</time>
      </trkpt>
      <trkpt lat="42.4205160" lon="-7.3068130">
        <ele>970.5</ele>
        <time>2014-10-01T17:29:12Z</time>
      </trkpt>
      <trkpt lat="42.4205750" lon="-7.3068490">
        <ele>970.4</ele>
        <time>2014-10-01T17:29:13Z</time>
      </trkpt>
      <trkpt lat="42.4206310" lon="-7.3068870">
        <ele>970.4</ele>
        <time>2014-10-01T17:29:14Z</time>
      </trkpt>
      <trkpt lat="42.4206820" lon="-7.3069420">
        <ele>970.3</ele>
        <time>2014-10-01T17:29:15Z</time>
      </trkpt>
      <trkpt lat="42.4207340" lon="-7.3070030">
        <ele>970.2</ele>
        <time>2014-10-01T17:29:16Z</time>
      </trkpt>
      <trkpt lat="42.4207810" lon="-7.3070700">
        <ele>970.1</ele>
        <time>2014-10-01T17:29:17Z</time>
      </trkpt>
      <trkpt lat="42.4208300" lon="-7.3071500">
        <ele>970.1</ele>
        <time>2014-10-01T17:29:18Z</time>
      </trkpt>
      <trkpt lat="42.4208730" lon="-7.3072280">
        <ele>970.1</ele>
        <time>2014-10-01T17:29:19Z</time>
      </trkpt>
      <trkpt lat="42.4209120" lon="-7.3073090">
        <ele>970.0</ele>
        <time>2014-10-01T17:29:20Z</time>
      </trkpt>
      <trkpt lat="42.4209480" lon="-7.3073900">
        <ele>970.1</ele>
        <time>2014-10-01T17:29:21Z</time>
      </trkpt>
      <trkpt lat="42.4209810" lon="-7.3074710">
        <ele>970.1</ele>
        <time>2014-10-01T17:29:22Z</time>
      </trkpt>
      <trkpt lat="42.4210110" lon="-7.3075540">
        <ele>970.1</ele>
        <time>2014-10-01T17:29:23Z</time>
      </trkpt>
      <trkpt lat="42.4210380" lon="-7.3076360">
        <ele>970.1</ele>
        <time>2014-10-01T17:29:24Z</time>
      </trkpt>
      <trkpt lat="42.4210650" lon="-7.3077200">
        <ele>970.0</ele>
        <time>2014-10-01T17:29:25Z</time>
      </trkpt>
      <trkpt lat="42.4210920" lon="-7.3078020">
        <ele>970.1</ele>
        <time>2014-10-01T17:29:26Z</time>
      </trkpt>
      <trkpt lat="42.4211170" lon="-7.3078830">
        <ele>970.1</ele>
        <time>2014-10-01T17:29:27Z</time>
      </trkpt>
      <trkpt lat="42.4211420" lon="-7.3079630">
        <ele>970.2</ele>
        <time>2014-10-01T17:29:28Z</time>
      </trkpt>
      <trkpt lat="42.4211710" lon="-7.3080460">
        <ele>970.3</ele>
        <time>2014-10-01T17:29:29Z</time>
      </trkpt>
      <trkpt lat="42.4211990" lon="-7.3081200">
        <ele>970.4</ele>
        <time>2014-10-01T17:29:30Z</time>
      </trkpt>
      <trkpt lat="42.4212250" lon="-7.3081880">
        <ele>970.5</ele>
        <time>2014-10-01T17:29:31Z</time>
      </trkpt>
      <trkpt lat="42.4212520" lon="-7.3082610">
        <ele>970.6</ele>
        <time>2014-10-01T17:29:32Z</time>
      </trkpt>
      <trkpt lat="42.4212790" lon="-7.3083340">
        <ele>970.7</ele>
        <time>2014-10-01T17:29:33Z</time>
      </trkpt>
      <trkpt lat="42.4213060" lon="-7.3084050">
        <ele>970.7</ele>
        <time>2014-10-01T17:29:34Z</time>
      </trkpt>
      <trkpt lat="42.4213350" lon="-7.3084800">
        <ele>970.8</ele>
        <time>2014-10-01T17:29:35Z</time>
      </trkpt>
      <trkpt lat="42.4213630" lon="-7.3085500">
        <ele>970.9</ele>
        <time>2014-10-01T17:29:36Z</time>
      </trkpt>
      <trkpt lat="42.4213900" lon="-7.3086200">
        <ele>970.9</ele>
        <time>2014-10-01T17:29:37Z</time>
      </trkpt>
      <trkpt lat="42.4214180" lon="-7.3086890">
        <ele>970.9</ele>
        <time>2014-10-01T17:29:38Z</time>
      </trkpt>
      <trkpt lat="42.4214490" lon="-7.3087600">
        <ele>970.8</ele>
        <time>2014-10-01T17:29:39Z</time>
      </trkpt>
      <trkpt lat="42.4214780" lon="-7.3088240">
        <ele>970.7</ele>
        <time>2014-10-01T17:29:40Z</time>
      </trkpt>
      <trkpt lat="42.4215070" lon="-7.3088870">
        <ele>970.6</ele>
        <time>2014-10-01T17:29:41Z</time>
      </trkpt>
      <trkpt lat="42.4215360" lon="-7.3089520">
        <ele>970.5</ele>
        <time>2014-10-01T17:29:42Z</time>
      </trkpt>
      <trkpt lat="42.4215650" lon="-7.3090180">
        <ele>970.4</ele>
        <time>2014-10-01T17:29:43Z</time>
      </trkpt>
      <trkpt lat="42.4215950" lon="-7.3090870">
        <ele>970.4</ele>
        <time>2014-10-01T17:29:44Z</time>
      </trkpt>
      <trkpt lat="42.4216240" lon="-7.3091530">
        <ele>970.4</ele>
        <time>2014-10-01T17:29:45Z</time>
      </trkpt>
      <trkpt lat="42.4216540" lon="-7.3092200">
        <ele>970.4</ele>
        <time>2014-10-01T17:29:46Z</time>
      </trkpt>
      <trkpt lat="42.4216840" lon="-7.3092860">
        <ele>970.4</ele>
        <time>2014-10-01T17:29:47Z</time>
      </trkpt>
      <trkpt lat="42.4217160" lon="-7.3093570">
        <ele>970.5</ele>
        <time>2014-10-01T17:29:48Z</time>
      </trkpt>
      <trkpt lat="42.4217500" lon="-7.3094280">
        <ele>970.5</ele>
        <time>2014-10-01T17:29:49Z</time>
      </trkpt>
      <trkpt lat="42.4217820" lon="-7.3094960">
        <ele>970.5</ele>
        <time>2014-10-01T17:29:50Z</time>
      </trkpt>
      <trkpt lat="42.4218140" lon="-7.3095580">
        <ele>970.6</ele>
        <time>2014-10-01T17:29:51Z</time>
      </trkpt>
      <trkpt lat="42.4218490" lon="-7.3096220">
        <ele>970.7</ele>
        <time>2014-10-01T17:29:52Z</time>
      </trkpt>
      <trkpt lat="42.4218850" lon="-7.3096830">
        <ele>970.7</ele>
        <time>2014-10-01T17:29:53Z</time>
      </trkpt>
      <trkpt lat="42.4219220" lon="-7.3097420">
        <ele>970.8</ele>
        <time>2014-10-01T17:29:54Z</time>
      </trkpt>
      <trkpt lat="42.4219600" lon="-7.3098020">
        <ele>970.9</ele>
        <time>2014-10-01T17:29:55Z</time>
      </trkpt>
      <trkpt lat="42.4219990" lon="-7.3098630">
        <ele>971.0</ele>
        <time>2014-10-01T17:29:56Z</time>
      </trkpt>
      <trkpt lat="42.4220380" lon="-7.3099250">
        <ele>971.0</ele>
        <time>2014-10-01T17:29:57Z</time>
      </trkpt>
      <trkpt lat="42.4220770" lon="-7.3099820">
        <ele>971.1</ele>
        <time>2014-10-01T17:29:58Z</time>
      </trkpt>
      <trkpt lat="42.4221160" lon="-7.3100400">
        <ele>971.2</ele>
        <time>2014-10-01T17:29:59Z</time>
      </trkpt>
      <trkpt lat="42.4221580" lon="-7.3101000">
        <ele>971.3</ele>
        <time>2014-10-01T17:30:00Z</time>
      </trkpt>
      <trkpt lat="42.4221980" lon="-7.3101610">
        <ele>971.4</ele>
        <time>2014-10-01T17:30:01Z</time>
      </trkpt>
      <trkpt lat="42.4222370" lon="-7.3102230">
        <ele>971.4</ele>
        <time>2014-10-01T17:30:02Z</time>
      </trkpt>
      <trkpt lat="42.4222740" lon="-7.3102840">
        <ele>971.4</ele>
        <time>2014-10-01T17:30:03Z</time>
      </trkpt>
      <trkpt lat="42.4223100" lon="-7.3103450">
        <ele>971.5</ele>
        <time>2014-10-01T17:30:04Z</time>
      </trkpt>
      <trkpt lat="42.4223460" lon="-7.3104070">
        <ele>971.6</ele>
        <time>2014-10-01T17:30:05Z</time>
      </trkpt>
      <trkpt lat="42.4223810" lon="-7.3104670">
        <ele>971.7</ele>
        <time>2014-10-01T17:30:06Z</time>
      </trkpt>
      <trkpt lat="42.4224170" lon="-7.3105280">
        <ele>971.8</ele>
        <time>2014-10-01T17:30:07Z</time>
      </trkpt>
      <trkpt lat="42.4224540" lon="-7.3105910">
        <ele>971.9</ele>
        <time>2014-10-01T17:30:08Z</time>
      </trkpt>
      <trkpt lat="42.4224910" lon="-7.3106520">
        <ele>972.0</ele>
        <time>2014-10-01T17:30:09Z</time>
      </trkpt>
      <trkpt lat="42.4225280" lon="-7.3107090">
        <ele>972.0</ele>
        <time>2014-10-01T17:30:10Z</time>
      </trkpt>
      <trkpt lat="42.4225660" lon="-7.3107640">
        <ele>972.0</ele>
        <time>2014-10-01T17:30:11Z</time>
      </trkpt>
      <trkpt lat="42.4226040" lon="-7.3108220">
        <ele>972.0</ele>
        <time>2014-10-01T17:30:12Z</time>
      </trkpt>
      <trkpt lat="42.4226400" lon="-7.3108810">
        <ele>972.0</ele>
        <time>2014-10-01T17:30:13Z</time>
      </trkpt>
      <trkpt lat="42.4226770" lon="-7.3109400">
        <ele>972.0</ele>
        <time>2014-10-01T17:30:14Z</time>
      </trkpt>
      <trkpt lat="42.4227130" lon="-7.3109990">
        <ele>972.0</ele>
        <time>2014-10-01T17:30:15Z</time>
      </trkpt>
      <trkpt lat="42.4227500" lon="-7.3110580">
        <ele>972.1</ele>
        <time>2014-10-01T17:30:16Z</time>
      </trkpt>
      <trkpt lat="42.4227870" lon="-7.3111160">
        <ele>972.1</ele>
        <time>2014-10-01T17:30:17Z</time>
      </trkpt>
      <trkpt lat="42.4228240" lon="-7.3111750">
        <ele>972.2</ele>
        <time>2014-10-01T17:30:18Z</time>
      </trkpt>
      <trkpt lat="42.4228590" lon="-7.3112300">
        <ele>972.3</ele>
        <time>2014-10-01T17:30:19Z</time>
      </trkpt>
      <trkpt lat="42.4228960" lon="-7.3112890">
        <ele>972.4</ele>
        <time>2014-10-01T17:30:20Z</time>
      </trkpt>
      <trkpt lat="42.4229340" lon="-7.3113490">
        <ele>972.5</ele>
        <time>2014-10-01T17:30:21Z</time>
      </trkpt>
      <trkpt lat="42.4229700" lon="-7.3114100">
        <ele>972.6</ele>
        <time>2014-10-01T17:30:22Z</time>
      </trkpt>
      <trkpt lat="42.4230020" lon="-7.3114610">
        <ele>972.8</ele>
        <time>2014-10-01T17:30:23Z</time>
      </trkpt>
      <trkpt lat="42.4230370" lon="-7.3115130">
        <ele>972.9</ele>
        <time>2014-10-01T17:30:24Z</time>
      </trkpt>
      <trkpt lat="42.4230780" lon="-7.3115690">
        <ele>973.0</ele>
        <time>2014-10-01T17:30:25Z</time>
      </trkpt>
      <trkpt lat="42.4231130" lon="-7.3116240">
        <ele>973.1</ele>
        <time>2014-10-01T17:30:26Z</time>
      </trkpt>
      <trkpt lat="42.4231470" lon="-7.3116800">
        <ele>973.2</ele>
        <time>2014-10-01T17:30:27Z</time>
      </trkpt>
      <trkpt lat="42.4231810" lon="-7.3117330">
        <ele>973.3</ele>
        <time>2014-10-01T17:30:28Z</time>
      </trkpt>
      <trkpt lat="42.4232150" lon="-7.3117890">
        <ele>973.3</ele>
        <time>2014-10-01T17:30:29Z</time>
      </trkpt>
      <trkpt lat="42.4232500" lon="-7.3118450">
        <ele>973.2</ele>
        <time>2014-10-01T17:30:30Z</time>
      </trkpt>
      <trkpt lat="42.4232880" lon="-7.3119050">
        <ele>973.2</ele>
        <time>2014-10-01T17:30:31Z</time>
      </trkpt>
      <trkpt lat="42.4233260" lon="-7.3119630">
        <ele>973.2</ele>
        <time>2014-10-01T17:30:32Z</time>
      </trkpt>
      <trkpt lat="42.4233620" lon="-7.3120160">
        <ele>973.3</ele>
        <time>2014-10-01T17:30:33Z</time>
      </trkpt>
      <trkpt lat="42.4233960" lon="-7.3120700">
        <ele>973.4</ele>
        <time>2014-10-01T17:30:34Z</time>
      </trkpt>
      <trkpt lat="42.4234320" lon="-7.3121260">
        <ele>973.4</ele>
        <time>2014-10-01T17:30:35Z</time>
      </trkpt>
      <trkpt lat="42.4234640" lon="-7.3121780">
        <ele>973.4</ele>
        <time>2014-10-01T17:30:36Z</time>
      </trkpt>
      <trkpt lat="42.4234980" lon="-7.3122360">
        <ele>973.5</ele>
        <time>2014-10-01T17:30:37Z</time>
      </trkpt>
      <trkpt lat="42.4235340" lon="-7.3122910">
        <ele>973.5</ele>
        <time>2014-10-01T17:30:38Z</time>
      </trkpt>
      <trkpt lat="42.4235710" lon="-7.3123480">
        <ele>973.5</ele>
        <time>2014-10-01T17:30:39Z</time>
      </trkpt>
      <trkpt lat="42.4236080" lon="-7.3124020">
        <ele>973.6</ele>
        <time>2014-10-01T17:30:40Z</time>
      </trkpt>
      <trkpt lat="42.4236440" lon="-7.3124520">
        <ele>973.6</ele>
        <time>2014-10-01T17:30:41Z</time>
      </trkpt>
      <trkpt lat="42.4236830" lon="-7.3125090">
        <ele>973.6</ele>
        <time>2014-10-01T17:30:42Z</time>
      </trkpt>
      <trkpt lat="42.4237210" lon="-7.3125650">
        <ele>973.6</ele>
        <time>2014-10-01T17:30:43Z</time>
      </trkpt>
      <trkpt lat="42.4237570" lon="-7.3126180">
        <ele>973.6</ele>
        <time>2014-10-01T17:30:44Z</time>
      </trkpt>
      <trkpt lat="42.4237910" lon="-7.3126700">
        <ele>973.6</ele>
        <time>2014-10-01T17:30:45Z</time>
      </trkpt>
      <trkpt lat="42.4238270" lon="-7.3127240">
        <ele>973.5</ele>
        <time>2014-10-01T17:30:46Z</time>
      </trkpt>
      <trkpt lat="42.4238620" lon="-7.3127750">
        <ele>973.5</ele>
        <time>2014-10-01T17:30:47Z</time>
      </trkpt>
      <trkpt lat="42.4239010" lon="-7.3128300">
        <ele>973.5</ele>
        <time>2014-10-01T17:30:48Z</time>
      </trkpt>
      <trkpt lat="42.4239390" lon="-7.3128850">
        <ele>973.5</ele>
        <time>2014-10-01T17:30:49Z</time>
      </trkpt>
      <trkpt lat="42.4239800" lon="-7.3129370">
        <ele>973.5</ele>
        <time>2014-10-01T17:30:50Z</time>
      </trkpt>
      <trkpt lat="42.4240220" lon="-7.3129880">
        <ele>973.4</ele>
        <time>2014-10-01T17:30:51Z</time>
      </trkpt>
      <trkpt lat="42.4240630" lon="-7.3130380">
        <ele>973.4</ele>
        <time>2014-10-01T17:30:52Z</time>
      </trkpt>
      <trkpt lat="42.4241070" lon="-7.3130930">
        <ele>973.3</ele>
        <time>2014-10-01T17:30:53Z</time>
      </trkpt>
      <trkpt lat="42.4241480" lon="-7.3131460">
        <ele>973.2</ele>
        <time>2014-10-01T17:30:54Z</time>
      </trkpt>
      <trkpt lat="42.4241900" lon="-7.3131990">
        <ele>973.1</ele>
        <time>2014-10-01T17:30:55Z</time>
      </trkpt>
      <trkpt lat="42.4242350" lon="-7.3132560">
        <ele>973.0</ele>
        <time>2014-10-01T17:30:56Z</time>
      </trkpt>
      <trkpt lat="42.4242800" lon="-7.3133130">
        <ele>972.9</ele>
        <time>2014-10-01T17:30:57Z</time>
      </trkpt>
      <trkpt lat="42.4243250" lon="-7.3133680">
        <ele>972.8</ele>
        <time>2014-10-01T17:30:58Z</time>
      </trkpt>
      <trkpt lat="42.4243680" lon="-7.3134230">
        <ele>972.7</ele>
        <time>2014-10-01T17:30:59Z</time>
      </trkpt>
      <trkpt lat="42.4244160" lon="-7.3134820">
        <ele>972.6</ele>
        <time>2014-10-01T17:31:00Z</time>
      </trkpt>
      <trkpt lat="42.4244600" lon="-7.3135380">
        <ele>972.6</ele>
        <time>2014-10-01T17:31:01Z</time>
      </trkpt>
      <trkpt lat="42.4245050" lon="-7.3135960">
        <ele>972.5</ele>
        <time>2014-10-01T17:31:02Z</time>
      </trkpt>
      <trkpt lat="42.4245500" lon="-7.3136550">
        <ele>972.4</ele>
        <time>2014-10-01T17:31:03Z</time>
      </trkpt>
      <trkpt lat="42.4245960" lon="-7.3137140">
        <ele>972.3</ele>
        <time>2014-10-01T17:31:04Z</time>
      </trkpt>
      <trkpt lat="42.4246440" lon="-7.3137730">
        <ele>972.2</ele>
        <time>2014-10-01T17:31:05Z</time>
      </trkpt>
      <trkpt lat="42.4246930" lon="-7.3138350">
        <ele>972.1</ele>
        <time>2014-10-01T17:31:06Z</time>
      </trkpt>
      <trkpt lat="42.4247400" lon="-7.3138930">
        <ele>972.1</ele>
        <time>2014-10-01T17:31:07Z</time>
      </trkpt>
      <trkpt lat="42.4247910" lon="-7.3139560">
        <ele>972.0</ele>
        <time>2014-10-01T17:31:08Z</time>
      </trkpt>
      <trkpt lat="42.4248400" lon="-7.3140160">
        <ele>971.9</ele>
        <time>2014-10-01T17:31:09Z</time>
      </trkpt>
      <trkpt lat="42.4248900" lon="-7.3140770">
        <ele>971.8</ele>
        <time>2014-10-01T17:31:10Z</time>
      </trkpt>
      <trkpt lat="42.4249390" lon="-7.3141380">
        <ele>971.7</ele>
        <time>2014-10-01T17:31:11Z</time>
      </trkpt>
      <trkpt lat="42.4249850" lon="-7.3141990">
        <ele>971.5</ele>
        <time>2014-10-01T17:31:12Z</time>
      </trkpt>
      <trkpt lat="42.4250330" lon="-7.3142630">
        <ele>971.4</ele>
        <time>2014-10-01T17:31:13Z</time>
      </trkpt>
      <trkpt lat="42.4250780" lon="-7.3143280">
        <ele>971.4</ele>
        <time>2014-10-01T17:31:14Z</time>
      </trkpt>
      <trkpt lat="42.4251230" lon="-7.3143980">
        <ele>971.3</ele>
        <time>2014-10-01T17:31:15Z</time>
      </trkpt>
      <trkpt lat="42.4251640" lon="-7.3144670">
        <ele>971.3</ele>
        <time>2014-10-01T17:31:16Z</time>
      </trkpt>
      <trkpt lat="42.4252010" lon="-7.3145360">
        <ele>971.2</ele>
        <time>2014-10-01T17:31:17Z</time>
      </trkpt>
      <trkpt lat="42.4252360" lon="-7.3146110">
        <ele>971.2</ele>
        <time>2014-10-01T17:31:18Z</time>
      </trkpt>
      <trkpt lat="42.4252640" lon="-7.3146820">
        <ele>971.3</ele>
        <time>2014-10-01T17:31:19Z</time>
      </trkpt>
      <trkpt lat="42.4252920" lon="-7.3147640">
        <ele>971.3</ele>
        <time>2014-10-01T17:31:20Z</time>
      </trkpt>
      <trkpt lat="42.4253160" lon="-7.3148470">
        <ele>971.4</ele>
        <time>2014-10-01T17:31:21Z</time>
      </trkpt>
      <trkpt lat="42.4253360" lon="-7.3149250">
        <ele>971.5</ele>
        <time>2014-10-01T17:31:22Z</time>
      </trkpt>
      <trkpt lat="42.4253570" lon="-7.3150070">
        <ele>971.5</ele>
        <time>2014-10-01T17:31:23Z</time>
      </trkpt>
      <trkpt lat="42.4253760" lon="-7.3150880">
        <ele>971.6</ele>
        <time>2014-10-01T17:31:24Z</time>
      </trkpt>
      <trkpt lat="42.4253940" lon="-7.3151640">
        <ele>971.7</ele>
        <time>2014-10-01T17:31:25Z</time>
      </trkpt>
      <trkpt lat="42.4254120" lon="-7.3152480">
        <ele>971.8</ele>
        <time>2014-10-01T17:31:26Z</time>
      </trkpt>
      <trkpt lat="42.4254270" lon="-7.3153310">
        <ele>971.9</ele>
        <time>2014-10-01T17:31:27Z</time>
      </trkpt>
      <trkpt lat="42.4254420" lon="-7.3154110">
        <ele>972.0</ele>
        <time>2014-10-01T17:31:28Z</time>
      </trkpt>
      <trkpt lat="42.4254560" lon="-7.3154860">
        <ele>972.1</ele>
        <time>2014-10-01T17:31:29Z</time>
      </trkpt>
      <trkpt lat="42.4254680" lon="-7.3155630">
        <ele>972.2</ele>
        <time>2014-10-01T17:31:30Z</time>
      </trkpt>
      <trkpt lat="42.4254800" lon="-7.3156380">
        <ele>972.4</ele>
        <time>2014-10-01T17:31:31Z</time>
      </trkpt>
      <trkpt lat="42.4254950" lon="-7.3157250">
        <ele>972.6</ele>
        <time>2014-10-01T17:31:32Z</time>
      </trkpt>
      <trkpt lat="42.4255090" lon="-7.3158060">
        <ele>972.7</ele>
        <time>2014-10-01T17:31:33Z</time>
      </trkpt>
      <trkpt lat="42.4255250" lon="-7.3158890">
        <ele>972.9</ele>
        <time>2014-10-01T17:31:34Z</time>
      </trkpt>
      <trkpt lat="42.4255410" lon="-7.3159670">
        <ele>973.0</ele>
        <time>2014-10-01T17:31:35Z</time>
      </trkpt>
      <trkpt lat="42.4255570" lon="-7.3160340">
        <ele>973.2</ele>
        <time>2014-10-01T17:31:36Z</time>
      </trkpt>
      <trkpt lat="42.4255740" lon="-7.3161020">
        <ele>973.4</ele>
        <time>2014-10-01T17:31:37Z</time>
      </trkpt>
      <trkpt lat="42.4255910" lon="-7.3161690">
        <ele>973.5</ele>
        <time>2014-10-01T17:31:38Z</time>
      </trkpt>
      <trkpt lat="42.4256080" lon="-7.3162330">
        <ele>973.7</ele>
        <time>2014-10-01T17:31:39Z</time>
      </trkpt>
      <trkpt lat="42.4256250" lon="-7.3163030">
        <ele>973.9</ele>
        <time>2014-10-01T17:31:40Z</time>
      </trkpt>
      <trkpt lat="42.4256420" lon="-7.3163730">
        <ele>974.0</ele>
        <time>2014-10-01T17:31:41Z</time>
      </trkpt>
      <trkpt lat="42.4256590" lon="-7.3164380">
        <ele>974.0</ele>
        <time>2014-10-01T17:31:42Z</time>
      </trkpt>
      <trkpt lat="42.4256760" lon="-7.3164990">
        <ele>974.1</ele>
        <time>2014-10-01T17:31:43Z</time>
      </trkpt>
      <trkpt lat="42.4256930" lon="-7.3165620">
        <ele>974.2</ele>
        <time>2014-10-01T17:31:44Z</time>
      </trkpt>
      <trkpt lat="42.4257100" lon="-7.3166280">
        <ele>974.3</ele>
        <time>2014-10-01T17:31:45Z</time>
      </trkpt>
      <trkpt lat="42.4257290" lon="-7.3166980">
        <ele>974.4</ele>
        <time>2014-10-01T17:31:46Z</time>
      </trkpt>
      <trkpt lat="42.4257450" lon="-7.3167640">
        <ele>974.5</ele>
        <time>2014-10-01T17:31:47Z</time>
      </trkpt>
      <trkpt lat="42.4257630" lon="-7.3168310">
        <ele>974.6</ele>
        <time>2014-10-01T17:31:48Z</time>
      </trkpt>
      <trkpt lat="42.4257810" lon="-7.3169020">
        <ele>974.7</ele>
        <time>2014-10-01T17:31:49Z</time>
      </trkpt>
      <trkpt lat="42.4258010" lon="-7.3169750">
        <ele>974.8</ele>
        <time>2014-10-01T17:31:50Z</time>
      </trkpt>
      <trkpt lat="42.4258200" lon="-7.3170390">
        <ele>974.8</ele>
        <time>2014-10-01T17:31:51Z</time>
      </trkpt>
      <trkpt lat="42.4258410" lon="-7.3171000">
        <ele>974.8</ele>
        <time>2014-10-01T17:31:52Z</time>
      </trkpt>
      <trkpt lat="42.4258610" lon="-7.3171620">
        <ele>974.8</ele>
        <time>2014-10-01T17:31:53Z</time>
      </trkpt>
      <trkpt lat="42.4258860" lon="-7.3172230">
        <ele>974.7</ele>
        <time>2014-10-01T17:31:54Z</time>
      </trkpt>
      <trkpt lat="42.4259130" lon="-7.3172830">
        <ele>974.7</ele>
        <time>2014-10-01T17:31:55Z</time>
      </trkpt>
      <trkpt lat="42.4259450" lon="-7.3173460">
        <ele>974.6</ele>
        <time>2014-10-01T17:31:56Z</time>
      </trkpt>
      <trkpt lat="42.4259800" lon="-7.3174080">
        <ele>974.5</ele>
        <time>2014-10-01T17:31:57Z</time>
      </trkpt>
      <trkpt lat="42.4260190" lon="-7.3174680">
        <ele>974.3</ele>
        <time>2014-10-01T17:31:58Z</time>
      </trkpt>
      <trkpt lat="42.4260600" lon="-7.3175250">
        <ele>974.1</ele>
        <time>2014-10-01T17:31:59Z</time>
      </trkpt>
      <trkpt lat="42.4261050" lon="-7.3175810">
        <ele>973.9</ele>
        <time>2014-10-01T17:32:00Z</time>
      </trkpt>
      <trkpt lat="42.4261500" lon="-7.3176340">
        <ele>973.7</ele>
        <time>2014-10-01T17:32:01Z</time>
      </trkpt>
      <trkpt lat="42.4261990" lon="-7.3176870">
        <ele>973.5</ele>
        <time>2014-10-01T17:32:02Z</time>
      </trkpt>
      <trkpt lat="42.4262520" lon="-7.3177420">
        <ele>973.2</ele>
        <time>2014-10-01T17:32:03Z</time>
      </trkpt>
      <trkpt lat="42.4263090" lon="-7.3178030">
        <ele>972.9</ele>
        <time>2014-10-01T17:32:04Z</time>
      </trkpt>
      <trkpt lat="42.4263680" lon="-7.3178640">
        <ele>972.4</ele>
        <time>2014-10-01T17:32:05Z</time>
      </trkpt>
      <trkpt lat="42.4264290" lon="-7.3179290">
        <ele>971.9</ele>
        <time>2014-10-01T17:32:06Z</time>
      </trkpt>
      <trkpt lat="42.4264890" lon="-7.3179920">
        <ele>971.3</ele>
        <time>2014-10-01T17:32:07Z</time>
      </trkpt>
      <trkpt lat="42.4265480" lon="-7.3180540">
        <ele>970.6</ele>
        <time>2014-10-01T17:32:08Z</time>
      </trkpt>
      <trkpt lat="42.4266050" lon="-7.3181180">
        <ele>970.0</ele>
        <time>2014-10-01T17:32:09Z</time>
      </trkpt>
      <trkpt lat="42.4266570" lon="-7.3181810">
        <ele>969.3</ele>
        <time>2014-10-01T17:32:10Z</time>
      </trkpt>
      <trkpt lat="42.4267080" lon="-7.3182480">
        <ele>968.7</ele>
        <time>2014-10-01T17:32:11Z</time>
      </trkpt>
      <trkpt lat="42.4267590" lon="-7.3183180">
        <ele>968.0</ele>
        <time>2014-10-01T17:32:12Z</time>
      </trkpt>
      <trkpt lat="42.4268060" lon="-7.3183900">
        <ele>967.4</ele>
        <time>2014-10-01T17:32:13Z</time>
      </trkpt>
      <trkpt lat="42.4268530" lon="-7.3184680">
        <ele>966.7</ele>
        <time>2014-10-01T17:32:14Z</time>
      </trkpt>
      <trkpt lat="42.4268990" lon="-7.3185540">
        <ele>965.9</ele>
        <time>2014-10-01T17:32:15Z</time>
      </trkpt>
      <trkpt lat="42.4269470" lon="-7.3186420">
        <ele>965.0</ele>
        <time>2014-10-01T17:32:16Z</time>
      </trkpt>
      <trkpt lat="42.4270000" lon="-7.3187390">
        <ele>963.9</ele>
        <time>2014-10-01T17:32:17Z</time>
      </trkpt>
      <trkpt lat="42.4270540" lon="-7.3188290">
        <ele>962.8</ele>
        <time>2014-10-01T17:32:18Z</time>
      </trkpt>
      <trkpt lat="42.4271120" lon="-7.3189110">
        <ele>961.7</ele>
        <time>2014-10-01T17:32:19Z</time>
      </trkpt>
      <trkpt lat="42.4271920" lon="-7.3189840">
        <ele>960.4</ele>
        <time>2014-10-01T17:32:20Z</time>
      </trkpt>
      <trkpt lat="42.4272770" lon="-7.3190610">
        <ele>959.0</ele>
        <time>2014-10-01T17:32:21Z</time>
      </trkpt>
      <trkpt lat="42.4273650" lon="-7.3191310">
        <ele>957.5</ele>
        <time>2014-10-01T17:32:22Z</time>
      </trkpt>
      <trkpt lat="42.4274580" lon="-7.3191960">
        <ele>956.1</ele>
        <time>2014-10-01T17:32:23Z</time>
      </trkpt>
      <trkpt lat="42.4275490" lon="-7.3192530">
        <ele>954.6</ele>
        <time>2014-10-01T17:32:24Z</time>
      </trkpt>
      <trkpt lat="42.4276370" lon="-7.3193070">
        <ele>953.3</ele>
        <time>2014-10-01T17:32:25Z</time>
      </trkpt>
      <trkpt lat="42.4277320" lon="-7.3193560">
        <ele>951.9</ele>
        <time>2014-10-01T17:32:26Z</time>
      </trkpt>
      <trkpt lat="42.4278250" lon="-7.3193980">
        <ele>950.6</ele>
        <time>2014-10-01T17:32:27Z</time>
      </trkpt>
      <trkpt lat="42.4279280" lon="-7.3194020">
        <ele>949.2</ele>
        <time>2014-10-01T17:32:28Z</time>
      </trkpt>
      <trkpt lat="42.4280330" lon="-7.3194020">
        <ele>947.7</ele>
        <time>2014-10-01T17:32:29Z</time>
      </trkpt>
      <trkpt lat="42.4281380" lon="-7.3193950">
        <ele>946.4</ele>
        <time>2014-10-01T17:32:30Z</time>
      </trkpt>
      <trkpt lat="42.4282500" lon="-7.3193840">
        <ele>945.0</ele>
        <time>2014-10-01T17:32:31Z</time>
      </trkpt>
      <trkpt lat="42.4283670" lon="-7.3193700">
        <ele>943.5</ele>
        <time>2014-10-01T17:32:32Z</time>
      </trkpt>
      <trkpt lat="42.4284810" lon="-7.3193520">
        <ele>942.1</ele>
        <time>2014-10-01T17:32:33Z</time>
      </trkpt>
      <trkpt lat="42.4285990" lon="-7.3193310">
        <ele>940.6</ele>
        <time>2014-10-01T17:32:34Z</time>
      </trkpt>
      <trkpt lat="42.4287130" lon="-7.3193060">
        <ele>939.2</ele>
        <time>2014-10-01T17:32:35Z</time>
      </trkpt>
      <trkpt lat="42.4288220" lon="-7.3192820">
        <ele>937.7</ele>
        <time>2014-10-01T17:32:36Z</time>
      </trkpt>
      <trkpt lat="42.4289210" lon="-7.3192520">
        <ele>936.4</ele>
        <time>2014-10-01T17:32:37Z</time>
      </trkpt>
      <trkpt lat="42.4290130" lon="-7.3192130">
        <ele>935.1</ele>
        <time>2014-10-01T17:32:38Z</time>
      </trkpt>
      <trkpt lat="42.4291100" lon="-7.3191330">
        <ele>933.5</ele>
        <time>2014-10-01T17:32:39Z</time>
      </trkpt>
      <trkpt lat="42.4292080" lon="-7.3190450">
        <ele>932.0</ele>
        <time>2014-10-01T17:32:40Z</time>
      </trkpt>
      <trkpt lat="42.4293100" lon="-7.3189390">
        <ele>930.5</ele>
        <time>2014-10-01T17:32:41Z</time>
      </trkpt>
      <trkpt lat="42.4294080" lon="-7.3188210">
        <ele>928.9</ele>
        <time>2014-10-01T17:32:42Z</time>
      </trkpt>
      <trkpt lat="42.4294950" lon="-7.3186960">
        <ele>927.5</ele>
        <time>2014-10-01T17:32:43Z</time>
      </trkpt>
      <trkpt lat="42.4295800" lon="-7.3185640">
        <ele>926.1</ele>
        <time>2014-10-01T17:32:44Z</time>
      </trkpt>
      <trkpt lat="42.4296630" lon="-7.3184440">
        <ele>924.8</ele>
        <time>2014-10-01T17:32:45Z</time>
      </trkpt>
      <trkpt lat="42.4297670" lon="-7.3183580">
        <ele>924.0</ele>
        <time>2014-10-01T17:32:46Z</time>
      </trkpt>
      <trkpt lat="42.4298680" lon="-7.3182900">
        <ele>923.4</ele>
        <time>2014-10-01T17:32:47Z</time>
      </trkpt>
      <trkpt lat="42.4299860" lon="-7.3182640">
        <ele>922.5</ele>
        <time>2014-10-01T17:32:48Z</time>
      </trkpt>
      <trkpt lat="42.4301050" lon="-7.3182380">
        <ele>921.6</ele>
        <time>2014-10-01T17:32:49Z</time>
      </trkpt>
      <trkpt lat="42.4302220" lon="-7.3182110">
        <ele>920.7</ele>
        <time>2014-10-01T17:32:50Z</time>
      </trkpt>
      <trkpt lat="42.4303430" lon="-7.3181850">
        <ele>919.7</ele>
        <time>2014-10-01T17:32:51Z</time>
      </trkpt>
      <trkpt lat="42.4304600" lon="-7.3181590">
        <ele>918.7</ele>
        <time>2014-10-01T17:32:52Z</time>
      </trkpt>
      <trkpt lat="42.4305750" lon="-7.3181280">
        <ele>917.8</ele>
        <time>2014-10-01T17:32:53Z</time>
      </trkpt>
      <trkpt lat="42.4306890" lon="-7.3180960">
        <ele>916.8</ele>
        <time>2014-10-01T17:32:54Z</time>
      </trkpt>
      <trkpt lat="42.4308030" lon="-7.3180570">
        <ele>915.9</ele>
        <time>2014-10-01T17:32:55Z</time>
      </trkpt>
      <trkpt lat="42.4309240" lon="-7.3180100">
        <ele>914.9</ele>
        <time>2014-10-01T17:32:56Z</time>
      </trkpt>
      <trkpt lat="42.4310470" lon="-7.3179560">
        <ele>913.8</ele>
        <time>2014-10-01T17:32:57Z</time>
      </trkpt>
      <trkpt lat="42.4311710" lon="-7.3178920">
        <ele>912.7</ele>
        <time>2014-10-01T17:32:58Z</time>
      </trkpt>
      <trkpt lat="42.4312900" lon="-7.3178190">
        <ele>911.7</ele>
        <time>2014-10-01T17:32:59Z</time>
      </trkpt>
      <trkpt lat="42.4314110" lon="-7.3177370">
        <ele>910.5</ele>
        <time>2014-10-01T17:33:00Z</time>
      </trkpt>
      <trkpt lat="42.4315260" lon="-7.3176540">
        <ele>909.5</ele>
        <time>2014-10-01T17:33:01Z</time>
      </trkpt>
      <trkpt lat="42.4316290" lon="-7.3175720">
        <ele>908.6</ele>
        <time>2014-10-01T17:33:02Z</time>
      </trkpt>
      <trkpt lat="42.4317290" lon="-7.3174840">
        <ele>907.7</ele>
        <time>2014-10-01T17:33:03Z</time>
      </trkpt>
      <trkpt lat="42.4318140" lon="-7.3173700">
        <ele>906.6</ele>
        <time>2014-10-01T17:33:04Z</time>
      </trkpt>
      <trkpt lat="42.4318950" lon="-7.3172460">
        <ele>905.5</ele>
        <time>2014-10-01T17:33:05Z</time>
      </trkpt>
      <trkpt lat="42.4319660" lon="-7.3171200">
        <ele>904.4</ele>
        <time>2014-10-01T17:33:06Z</time>
      </trkpt>
      <trkpt lat="42.4320210" lon="-7.3170080">
        <ele>903.4</ele>
        <time>2014-10-01T17:33:07Z</time>
      </trkpt>
      <trkpt lat="42.4320630" lon="-7.3169090">
        <ele>902.6</ele>
        <time>2014-10-01T17:33:08Z</time>
      </trkpt>
      <trkpt lat="42.4320950" lon="-7.3168240">
        <ele>901.9</ele>
        <time>2014-10-01T17:33:09Z</time>
      </trkpt>
      <trkpt lat="42.4321200" lon="-7.3167500">
        <ele>901.3</ele>
        <time>2014-10-01T17:33:10Z</time>
      </trkpt>
      <trkpt lat="42.4321400" lon="-7.3166770">
        <ele>900.7</ele>
        <time>2014-10-01T17:33:11Z</time>
      </trkpt>
      <trkpt lat="42.4321420" lon="-7.3166170">
        <ele>900.2</ele>
        <time>2014-10-01T17:33:12Z</time>
      </trkpt>
      <trkpt lat="42.4321490" lon="-7.3165480">
        <ele>899.7</ele>
        <time>2014-10-01T17:33:13Z</time>
      </trkpt>
      <trkpt lat="42.4321520" lon="-7.3164900">
        <ele>899.3</ele>
        <time>2014-10-01T17:33:14Z</time>
      </trkpt>
      <trkpt lat="42.4321540" lon="-7.3164440">
        <ele>899.0</ele>
        <time>2014-10-01T17:33:15Z</time>
      </trkpt>
      <trkpt lat="42.4321600" lon="-7.3163920">
        <ele>898.6</ele>
        <time>2014-10-01T17:33:16Z</time>
      </trkpt>
      <trkpt lat="42.4321660" lon="-7.3163370">
        <ele>898.3</ele>
        <time>2014-10-01T17:33:17Z</time>
      </trkpt>
      <trkpt lat="42.4321720" lon="-7.3162740">
        <ele>897.8</ele>
        <time>2014-10-01T17:33:18Z</time>
      </trkpt>
      <trkpt lat="42.4321790" lon="-7.3162000">
        <ele>897.3</ele>
        <time>2014-10-01T17:33:19Z</time>
      </trkpt>
      <trkpt lat="42.4321870" lon="-7.3161240">
        <ele>896.8</ele>
        <time>2014-10-01T17:33:20Z</time>
      </trkpt>
      <trkpt lat="42.4321920" lon="-7.3160540">
        <ele>896.3</ele>
        <time>2014-10-01T17:33:21Z</time>
      </trkpt>
      <trkpt lat="42.4321950" lon="-7.3159870">
        <ele>895.8</ele>
        <time>2014-10-01T17:33:22Z</time>
      </trkpt>
      <trkpt lat="42.4321990" lon="-7.3159240">
        <ele>895.4</ele>
        <time>2014-10-01T17:33:23Z</time>
      </trkpt>
      <trkpt lat="42.4322020" lon="-7.3158720">
        <ele>895.0</ele>
        <time>2014-10-01T17:33:24Z</time>
      </trkpt>
      <trkpt lat="42.4322040" lon="-7.3158350">
        <ele>894.8</ele>
        <time>2014-10-01T17:33:25Z</time>
      </trkpt>
      <trkpt lat="42.4321870" lon="-7.3157650">
        <ele>894.2</ele>
        <time>2014-10-01T17:33:27Z</time>
      </trkpt>
      <trkpt lat="42.4321740" lon="-7.3157200">
        <ele>893.9</ele>
        <time>2014-10-01T17:33:28Z</time>
      </trkpt>
      <trkpt lat="42.4321550" lon="-7.3156690">
        <ele>893.4</ele>
        <time>2014-10-01T17:33:29Z</time>
      </trkpt>
      <trkpt lat="42.4321330" lon="-7.3156070">
        <ele>892.9</ele>
        <time>2014-10-01T17:33:30Z</time>
      </trkpt>
      <trkpt lat="42.4321040" lon="-7.3155440">
        <ele>892.4</ele>
        <time>2014-10-01T17:33:31Z</time>
      </trkpt>
      <trkpt lat="42.4320580" lon="-7.3154740">
        <ele>891.8</ele>
        <time>2014-10-01T17:33:32Z</time>
      </trkpt>
      <trkpt lat="42.4320120" lon="-7.3154030">
        <ele>891.2</ele>
        <time>2014-10-01T17:33:33Z</time>
      </trkpt>
      <trkpt lat="42.4319610" lon="-7.3153240">
        <ele>890.6</ele>
        <time>2014-10-01T17:33:34Z</time>
      </trkpt>
      <trkpt lat="42.4319090" lon="-7.3152290">
        <ele>890.2</ele>
        <time>2014-10-01T17:33:35Z</time>
      </trkpt>
      <trkpt lat="42.4318620" lon="-7.3151220">
        <ele>889.8</ele>
        <time>2014-10-01T17:33:36Z</time>
      </trkpt>
      <trkpt lat="42.4318180" lon="-7.3150160">
        <ele>889.5</ele>
        <time>2014-10-01T17:33:37Z</time>
      </trkpt>
      <trkpt lat="42.4317750" lon="-7.3149060">
        <ele>889.4</ele>
        <time>2014-10-01T17:33:38Z</time>
      </trkpt>
      <trkpt lat="42.4317130" lon="-7.3148220">
        <ele>889.3</ele>
        <time>2014-10-01T17:33:39Z</time>
      </trkpt>
      <trkpt lat="42.4316570" lon="-7.3147430">
        <ele>889.3</ele>
        <time>2014-10-01T17:33:40Z</time>
      </trkpt>
      <trkpt lat="42.4316010" lon="-7.3146680">
        <ele>889.3</ele>
        <time>2014-10-01T17:33:41Z</time>
      </trkpt>
      <trkpt lat="42.4315390" lon="-7.3145930">
        <ele>889.4</ele>
        <time>2014-10-01T17:33:42Z</time>
      </trkpt>
      <trkpt lat="42.4314830" lon="-7.3145310">
        <ele>889.4</ele>
        <time>2014-10-01T17:33:43Z</time>
      </trkpt>
      <trkpt lat="42.4314340" lon="-7.3144750">
        <ele>889.4</ele>
        <time>2014-10-01T17:33:44Z</time>
      </trkpt>
      <trkpt lat="42.4313770" lon="-7.3144220">
        <ele>889.4</ele>
        <time>2014-10-01T17:33:45Z</time>
      </trkpt>
      <trkpt lat="42.4313080" lon="-7.3143670">
        <ele>889.3</ele>
        <time>2014-10-01T17:33:46Z</time>
      </trkpt>
      <trkpt lat="42.4312570" lon="-7.3143350">
        <ele>889.2</ele>
        <time>2014-10-01T17:33:47Z</time>
      </trkpt>
      <trkpt lat="42.4311980" lon="-7.3142990">
        <ele>889.1</ele>
        <time>2014-10-01T17:33:48Z</time>
      </trkpt>
      <trkpt lat="42.4311300" lon="-7.3142660">
        <ele>888.8</ele>
        <time>2014-10-01T17:33:49Z</time>
      </trkpt>
      <trkpt lat="42.4310670" lon="-7.3142340">
        <ele>888.4</ele>
        <time>2014-10-01T17:33:50Z</time>
      </trkpt>
      <trkpt lat="42.4310030" lon="-7.3142000">
        <ele>888.0</ele>
        <time>2014-10-01T17:33:51Z</time>
      </trkpt>
      <trkpt lat="42.4309320" lon="-7.3141090">
        <ele>887.2</ele>
        <time>2014-10-01T17:33:52Z</time>
      </trkpt>
      <trkpt lat="42.4308880" lon="-7.3139990">
        <ele>886.4</ele>
        <time>2014-10-01T17:33:53Z</time>
      </trkpt>
      <trkpt lat="42.4308800" lon="-7.3138860">
        <ele>885.6</ele>
        <time>2014-10-01T17:33:54Z</time>
      </trkpt>
      <trkpt lat="42.4309040" lon="-7.3137740">
        <ele>884.8</ele>
        <time>2014-10-01T17:33:55Z</time>
      </trkpt>
      <trkpt lat="42.4309610" lon="-7.3136840">
        <ele>883.9</ele>
        <time>2014-10-01T17:33:56Z</time>
      </trkpt>
      <trkpt lat="42.4310260" lon="-7.3135970">
        <ele>882.9</ele>
        <time>2014-10-01T17:33:57Z</time>
      </trkpt>
      <trkpt lat="42.4311230" lon="-7.3135430">
        <ele>881.8</ele>
        <time>2014-10-01T17:33:58Z</time>
      </trkpt>
      <trkpt lat="42.4312330" lon="-7.3134830">
        <ele>880.6</ele>
        <time>2014-10-01T17:33:59Z</time>
      </trkpt>
      <trkpt lat="42.4313490" lon="-7.3134240">
        <ele>879.4</ele>
        <time>2014-10-01T17:34:00Z</time>
      </trkpt>
      <trkpt lat="42.4314600" lon="-7.3133700">
        <ele>878.2</ele>
        <time>2014-10-01T17:34:01Z</time>
      </trkpt>
      <trkpt lat="42.4315660" lon="-7.3133180">
        <ele>877.1</ele>
        <time>2014-10-01T17:34:02Z</time>
      </trkpt>
      <trkpt lat="42.4316660" lon="-7.3132560">
        <ele>875.9</ele>
        <time>2014-10-01T17:34:03Z</time>
      </trkpt>
      <trkpt lat="42.4317510" lon="-7.3131600">
        <ele>874.9</ele>
        <time>2014-10-01T17:34:04Z</time>
      </trkpt>
      <trkpt lat="42.4318340" lon="-7.3130530">
        <ele>873.7</ele>
        <time>2014-10-01T17:34:05Z</time>
      </trkpt>
      <trkpt lat="42.4319090" lon="-7.3129440">
        <ele>872.5</ele>
        <time>2014-10-01T17:34:06Z</time>
      </trkpt>
      <trkpt lat="42.4319810" lon="-7.3128370">
        <ele>871.4</ele>
        <time>2014-10-01T17:34:07Z</time>
      </trkpt>
      <trkpt lat="42.4320450" lon="-7.3127330">
        <ele>870.3</ele>
        <time>2014-10-01T17:34:08Z</time>
      </trkpt>
      <trkpt lat="42.4321000" lon="-7.3126320">
        <ele>869.4</ele>
        <time>2014-10-01T17:34:09Z</time>
      </trkpt>
      <trkpt lat="42.4321500" lon="-7.3125180">
        <ele>868.3</ele>
        <time>2014-10-01T17:34:10Z</time>
      </trkpt>
      <trkpt lat="42.4321590" lon="-7.3123800">
        <ele>867.4</ele>
        <time>2014-10-01T17:34:11Z</time>
      </trkpt>
      <trkpt lat="42.4321120" lon="-7.3122310">
        <ele>866.6</ele>
        <time>2014-10-01T17:34:12Z</time>
      </trkpt>
      <trkpt lat="42.4320720" lon="-7.3120720">
        <ele>866.1</ele>
        <time>2014-10-01T17:34:13Z</time>
      </trkpt>
      <trkpt lat="42.4320390" lon="-7.3119150">
        <ele>865.9</ele>
        <time>2014-10-01T17:34:14Z</time>
      </trkpt>
      <trkpt lat="42.4320120" lon="-7.3117610">
        <ele>865.8</ele>
        <time>2014-10-01T17:34:15Z</time>
      </trkpt>
      <trkpt lat="42.4319920" lon="-7.3116140">
        <ele>865.8</ele>
        <time>2014-10-01T17:34:16Z</time>
      </trkpt>
      <trkpt lat="42.4319710" lon="-7.3114780">
        <ele>865.8</ele>
        <time>2014-10-01T17:34:17Z</time>
      </trkpt>
      <trkpt lat="42.4319450" lon="-7.3113490">
        <ele>865.7</ele>
        <time>2014-10-01T17:34:18Z</time>
      </trkpt>
      <trkpt lat="42.4319080" lon="-7.3112190">
        <ele>865.6</ele>
        <time>2014-10-01T17:34:19Z</time>
      </trkpt>
      <trkpt lat="42.4318730" lon="-7.3110940">
        <ele>865.4</ele>
        <time>2014-10-01T17:34:20Z</time>
      </trkpt>
      <trkpt lat="42.4318380" lon="-7.3109720">
        <ele>865.1</ele>
        <time>2014-10-01T17:34:21Z</time>
      </trkpt>
      <trkpt lat="42.4318090" lon="-7.3108540">
        <ele>864.6</ele>
        <time>2014-10-01T17:34:22Z</time>
      </trkpt>
      <trkpt lat="42.4318020" lon="-7.3107310">
        <ele>864.2</ele>
        <time>2014-10-01T17:34:23Z</time>
      </trkpt>
      <trkpt lat="42.4318020" lon="-7.3106060">
        <ele>863.7</ele>
        <time>2014-10-01T17:34:24Z</time>
      </trkpt>
      <trkpt lat="42.4318270" lon="-7.3104910">
        <ele>863.1</ele>
        <time>2014-10-01T17:34:25Z</time>
      </trkpt>
      <trkpt lat="42.4318800" lon="-7.3103940">
        <ele>862.5</ele>
        <time>2014-10-01T17:34:26Z</time>
      </trkpt>
      <trkpt lat="42.4319490" lon="-7.3103310">
        <ele>861.7</ele>
        <time>2014-10-01T17:34:27Z</time>
      </trkpt>
      <trkpt lat="42.4320340" lon="-7.3103100">
        <ele>860.9</ele>
        <time>2014-10-01T17:34:28Z</time>
      </trkpt>
      <trkpt lat="42.4321320" lon="-7.3102950">
        <ele>859.8</ele>
        <time>2014-10-01T17:34:29Z</time>
      </trkpt>
      <trkpt lat="42.4322330" lon="-7.3102870">
        <ele>858.7</ele>
        <time>2014-10-01T17:34:30Z</time>
      </trkpt>
      <trkpt lat="42.4323350" lon="-7.3102890">
        <ele>857.6</ele>
        <time>2014-10-01T17:34:31Z</time>
      </trkpt>
      <trkpt lat="42.4324450" lon="-7.3102940">
        <ele>856.4</ele>
        <time>2014-10-01T17:34:32Z</time>
      </trkpt>
      <trkpt lat="42.4325600" lon="-7.3103020">
        <ele>855.1</ele>
        <time>2014-10-01T17:34:33Z</time>
      </trkpt>
      <trkpt lat="42.4326750" lon="-7.3103170">
        <ele>853.9</ele>
        <time>2014-10-01T17:34:34Z</time>
      </trkpt>
      <trkpt lat="42.4327940" lon="-7.3103420">
        <ele>852.5</ele>
        <time>2014-10-01T17:34:35Z</time>
      </trkpt>
      <trkpt lat="42.4329220" lon="-7.3103640">
        <ele>851.0</ele>
        <time>2014-10-01T17:34:36Z</time>
      </trkpt>
      <trkpt lat="42.4330480" lon="-7.3103890">
        <ele>849.5</ele>
        <time>2014-10-01T17:34:37Z</time>
      </trkpt>
      <trkpt lat="42.4331730" lon="-7.3104120">
        <ele>848.0</ele>
        <time>2014-10-01T17:34:38Z</time>
      </trkpt>
      <trkpt lat="42.4332990" lon="-7.3104350">
        <ele>846.5</ele>
        <time>2014-10-01T17:34:39Z</time>
      </trkpt>
      <trkpt lat="42.4334350" lon="-7.3104720">
        <ele>844.9</ele>
        <time>2014-10-01T17:34:40Z</time>
      </trkpt>
      <trkpt lat="42.4335780" lon="-7.3105190">
        <ele>843.2</ele>
        <time>2014-10-01T17:34:41Z</time>
      </trkpt>
      <trkpt lat="42.4337200" lon="-7.3105640">
        <ele>841.5</ele>
        <time>2014-10-01T17:34:42Z</time>
      </trkpt>
      <trkpt lat="42.4338570" lon="-7.3106210">
        <ele>839.9</ele>
        <time>2014-10-01T17:34:43Z</time>
      </trkpt>
      <trkpt lat="42.4339900" lon="-7.3106830">
        <ele>838.4</ele>
        <time>2014-10-01T17:34:44Z</time>
      </trkpt>
      <trkpt lat="42.4341270" lon="-7.3107460">
        <ele>836.8</ele>
        <time>2014-10-01T17:34:45Z</time>
      </trkpt>
      <trkpt lat="42.4342650" lon="-7.3108070">
        <ele>835.1</ele>
        <time>2014-10-01T17:34:46Z</time>
      </trkpt>
      <trkpt lat="42.4344020" lon="-7.3108670">
        <ele>833.5</ele>
        <time>2014-10-01T17:34:47Z</time>
      </trkpt>
      <trkpt lat="42.4345440" lon="-7.3109300">
        <ele>831.9</ele>
        <time>2014-10-01T17:34:48Z</time>
      </trkpt>
      <trkpt lat="42.4346860" lon="-7.3109950">
        <ele>830.2</ele>
        <time>2014-10-01T17:34:49Z</time>
      </trkpt>
      <trkpt lat="42.4348300" lon="-7.3110600">
        <ele>828.5</ele>
        <time>2014-10-01T17:34:50Z</time>
      </trkpt>
      <trkpt lat="42.4349770" lon="-7.3111240">
        <ele>826.8</ele>
        <time>2014-10-01T17:34:51Z</time>
      </trkpt>
      <trkpt lat="42.4351310" lon="-7.3111940">
        <ele>825.0</ele>
        <time>2014-10-01T17:34:52Z</time>
      </trkpt>
      <trkpt lat="42.4352840" lon="-7.3112650">
        <ele>823.2</ele>
        <time>2014-10-01T17:34:53Z</time>
      </trkpt>
      <trkpt lat="42.4354380" lon="-7.3113320">
        <ele>821.4</ele>
        <time>2014-10-01T17:34:54Z</time>
      </trkpt>
      <trkpt lat="42.4355970" lon="-7.3114010">
        <ele>819.7</ele>
        <time>2014-10-01T17:34:55Z</time>
      </trkpt>
      <trkpt lat="42.4357650" lon="-7.3114600">
        <ele>817.8</ele>
        <time>2014-10-01T17:34:56Z</time>
      </trkpt>
      <trkpt lat="42.4359310" lon="-7.3114960">
        <ele>815.9</ele>
        <time>2014-10-01T17:34:57Z</time>
      </trkpt>
      <trkpt lat="42.4360880" lon="-7.3115200">
        <ele>814.1</ele>
        <time>2014-10-01T17:34:58Z</time>
      </trkpt>
      <trkpt lat="42.4362400" lon="-7.3115440">
        <ele>812.3</ele>
        <time>2014-10-01T17:34:59Z</time>
      </trkpt>
      <trkpt lat="42.4363860" lon="-7.3115500">
        <ele>810.5</ele>
        <time>2014-10-01T17:35:00Z</time>
      </trkpt>
      <trkpt lat="42.4365370" lon="-7.3115450">
        <ele>808.8</ele>
        <time>2014-10-01T17:35:01Z</time>
      </trkpt>
      <trkpt lat="42.4366860" lon="-7.3115260">
        <ele>807.0</ele>
        <time>2014-10-01T17:35:02Z</time>
      </trkpt>
      <trkpt lat="42.4368370" lon="-7.3115030">
        <ele>805.2</ele>
        <time>2014-10-01T17:35:03Z</time>
      </trkpt>
      <trkpt lat="42.4369920" lon="-7.3114730">
        <ele>803.4</ele>
        <time>2014-10-01T17:35:04Z</time>
      </trkpt>
      <trkpt lat="42.4371450" lon="-7.3114460">
        <ele>801.6</ele>
        <time>2014-10-01T17:35:05Z</time>
      </trkpt>
      <trkpt lat="42.4373020" lon="-7.3114220">
        <ele>799.7</ele>
        <time>2014-10-01T17:35:06Z</time>
      </trkpt>
      <trkpt lat="42.4374580" lon="-7.3113920">
        <ele>797.9</ele>
        <time>2014-10-01T17:35:07Z</time>
      </trkpt>
      <trkpt lat="42.4376160" lon="-7.3113560">
        <ele>796.0</ele>
        <time>2014-10-01T17:35:08Z</time>
      </trkpt>
      <trkpt lat="42.4377760" lon="-7.3113170">
        <ele>794.1</ele>
        <time>2014-10-01T17:35:09Z</time>
      </trkpt>
      <trkpt lat="42.4379430" lon="-7.3112900">
        <ele>792.2</ele>
        <time>2014-10-01T17:35:10Z</time>
      </trkpt>
      <trkpt lat="42.4381190" lon="-7.3112690">
        <ele>790.2</ele>
        <time>2014-10-01T17:35:11Z</time>
      </trkpt>
      <trkpt lat="42.4383040" lon="-7.3112480">
        <ele>788.1</ele>
        <time>2014-10-01T17:35:12Z</time>
      </trkpt>
      <trkpt lat="42.4384780" lon="-7.3112500">
        <ele>786.1</ele>
        <time>2014-10-01T17:35:13Z</time>
      </trkpt>
      <trkpt lat="42.4386490" lon="-7.3112610">
        <ele>784.1</ele>
        <time>2014-10-01T17:35:14Z</time>
      </trkpt>
      <trkpt lat="42.4388210" lon="-7.3112730">
        <ele>782.2</ele>
        <time>2014-10-01T17:35:15Z</time>
      </trkpt>
      <trkpt lat="42.4389950" lon="-7.3112820">
        <ele>780.3</ele>
        <time>2014-10-01T17:35:16Z</time>
      </trkpt>
      <trkpt lat="42.4391570" lon="-7.3113230">
        <ele>778.5</ele>
        <time>2014-10-01T17:35:17Z</time>
      </trkpt>
      <trkpt lat="42.4393050" lon="-7.3113640">
        <ele>776.8</ele>
        <time>2014-10-01T17:35:18Z</time>
      </trkpt>
      <trkpt lat="42.4394700" lon="-7.3113910">
        <ele>775.0</ele>
        <time>2014-10-01T17:35:19Z</time>
      </trkpt>
      <trkpt lat="42.4396240" lon="-7.3114160">
        <ele>773.3</ele>
        <time>2014-10-01T17:35:20Z</time>
      </trkpt>
      <trkpt lat="42.4397730" lon="-7.3114380">
        <ele>771.8</ele>
        <time>2014-10-01T17:35:21Z</time>
      </trkpt>
      <trkpt lat="42.4399250" lon="-7.3114550">
        <ele>770.2</ele>
        <time>2014-10-01T17:35:22Z</time>
      </trkpt>
      <trkpt lat="42.4400770" lon="-7.3114340">
        <ele>768.5</ele>
        <time>2014-10-01T17:35:23Z</time>
      </trkpt>
      <trkpt lat="42.4402190" lon="-7.3114060">
        <ele>766.9</ele>
        <time>2014-10-01T17:35:24Z</time>
      </trkpt>
      <trkpt lat="42.4403520" lon="-7.3113760">
        <ele>765.6</ele>
        <time>2014-10-01T17:35:25Z</time>
      </trkpt>
      <trkpt lat="42.4404730" lon="-7.3113420">
        <ele>764.3</ele>
        <time>2014-10-01T17:35:26Z</time>
      </trkpt>
      <trkpt lat="42.4405660" lon="-7.3112860">
        <ele>763.2</ele>
        <time>2014-10-01T17:35:27Z</time>
      </trkpt>
      <trkpt lat="42.4406290" lon="-7.3112080">
        <ele>762.3</ele>
        <time>2014-10-01T17:35:28Z</time>
      </trkpt>
      <trkpt lat="42.4406680" lon="-7.3111000">
        <ele>761.3</ele>
        <time>2014-10-01T17:35:29Z</time>
      </trkpt>
      <trkpt lat="42.4406930" lon="-7.3110020">
        <ele>760.4</ele>
        <time>2014-10-01T17:35:30Z</time>
      </trkpt>
      <trkpt lat="42.4406550" lon="-7.3108680">
        <ele>759.4</ele>
        <time>2014-10-01T17:35:31Z</time>
      </trkpt>
      <trkpt lat="42.4406140" lon="-7.3107370">
        <ele>758.3</ele>
        <time>2014-10-01T17:35:32Z</time>
      </trkpt>
      <trkpt lat="42.4405680" lon="-7.3106040">
        <ele>757.2</ele>
        <time>2014-10-01T17:35:33Z</time>
      </trkpt>
      <trkpt lat="42.4405220" lon="-7.3104740">
        <ele>756.1</ele>
        <time>2014-10-01T17:35:34Z</time>
      </trkpt>
      <trkpt lat="42.4404800" lon="-7.3103240">
        <ele>754.9</ele>
        <time>2014-10-01T17:35:35Z</time>
      </trkpt>
      <trkpt lat="42.4404400" lon="-7.3101510">
        <ele>753.6</ele>
        <time>2014-10-01T17:35:36Z</time>
      </trkpt>
      <trkpt lat="42.4404020" lon="-7.3099750">
        <ele>752.2</ele>
        <time>2014-10-01T17:35:37Z</time>
      </trkpt>
      <trkpt lat="42.4403680" lon="-7.3098200">
        <ele>750.9</ele>
        <time>2014-10-01T17:35:38Z</time>
      </trkpt>
      <trkpt lat="42.4403350" lon="-7.3096530">
        <ele>749.5</ele>
        <time>2014-10-01T17:35:39Z</time>
      </trkpt>
      <trkpt lat="42.4402980" lon="-7.3094870">
        <ele>748.2</ele>
        <time>2014-10-01T17:35:40Z</time>
      </trkpt>
      <trkpt lat="42.4402510" lon="-7.3093180">
        <ele>746.8</ele>
        <time>2014-10-01T17:35:41Z</time>
      </trkpt>
      <trkpt lat="42.4401930" lon="-7.3091490">
        <ele>745.3</ele>
        <time>2014-10-01T17:35:42Z</time>
      </trkpt>
      <trkpt lat="42.4401290" lon="-7.3089770">
        <ele>743.7</ele>
        <time>2014-10-01T17:35:43Z</time>
      </trkpt>
      <trkpt lat="42.4400660" lon="-7.3088050">
        <ele>742.3</ele>
        <time>2014-10-01T17:35:44Z</time>
      </trkpt>
      <trkpt lat="42.4400140" lon="-7.3086240">
        <ele>740.7</ele>
        <time>2014-10-01T17:35:45Z</time>
      </trkpt>
      <trkpt lat="42.4399780" lon="-7.3084580">
        <ele>739.4</ele>
        <time>2014-10-01T17:35:46Z</time>
      </trkpt>
      <trkpt lat="42.4399530" lon="-7.3083070">
        <ele>738.1</ele>
        <time>2014-10-01T17:35:47Z</time>
      </trkpt>
      <trkpt lat="42.4399310" lon="-7.3081700">
        <ele>736.9</ele>
        <time>2014-10-01T17:35:48Z</time>
      </trkpt>
      <trkpt lat="42.4398830" lon="-7.3080490">
        <ele>735.7</ele>
        <time>2014-10-01T17:35:49Z</time>
      </trkpt>
      <trkpt lat="42.4398000" lon="-7.3079600">
        <ele>734.5</ele>
        <time>2014-10-01T17:35:50Z</time>
      </trkpt>
      <trkpt lat="42.4397070" lon="-7.3078740">
        <ele>733.3</ele>
        <time>2014-10-01T17:35:51Z</time>
      </trkpt>
      <trkpt lat="42.4396170" lon="-7.3078060">
        <ele>732.2</ele>
        <time>2014-10-01T17:35:52Z</time>
      </trkpt>
      <trkpt lat="42.4395300" lon="-7.3077530">
        <ele>731.2</ele>
        <time>2014-10-01T17:35:53Z</time>
      </trkpt>
      <trkpt lat="42.4394320" lon="-7.3077790">
        <ele>730.3</ele>
        <time>2014-10-01T17:35:54Z</time>
      </trkpt>
      <trkpt lat="42.4393220" lon="-7.3078160">
        <ele>729.2</ele>
        <time>2014-10-01T17:35:55Z</time>
      </trkpt>
      <trkpt lat="42.4392120" lon="-7.3078490">
        <ele>728.2</ele>
        <time>2014-10-01T17:35:56Z</time>
      </trkpt>
      <trkpt lat="42.4390990" lon="-7.3078760">
        <ele>727.2</ele>
        <time>2014-10-01T17:35:57Z</time>
      </trkpt>
      <trkpt lat="42.4389830" lon="-7.3078580">
        <ele>726.1</ele>
        <time>2014-10-01T17:35:58Z</time>
      </trkpt>
      <trkpt lat="42.4388670" lon="-7.3078290">
        <ele>724.9</ele>
        <time>2014-10-01T17:35:59Z</time>
      </trkpt>
      <trkpt lat="42.4387460" lon="-7.3078000">
        <ele>723.6</ele>
        <time>2014-10-01T17:36:00Z</time>
      </trkpt>
      <trkpt lat="42.4386370" lon="-7.3077470">
        <ele>722.4</ele>
        <time>2014-10-01T17:36:01Z</time>
      </trkpt>
      <trkpt lat="42.4385440" lon="-7.3076790">
        <ele>721.3</ele>
        <time>2014-10-01T17:36:02Z</time>
      </trkpt>
      <trkpt lat="42.4384470" lon="-7.3075560">
        <ele>720.0</ele>
        <time>2014-10-01T17:36:03Z</time>
      </trkpt>
      <trkpt lat="42.4383530" lon="-7.3074210">
        <ele>718.6</ele>
        <time>2014-10-01T17:36:04Z</time>
      </trkpt>
      <trkpt lat="42.4382690" lon="-7.3072890">
        <ele>717.3</ele>
        <time>2014-10-01T17:36:05Z</time>
      </trkpt>
      <trkpt lat="42.4381780" lon="-7.3071310">
        <ele>715.7</ele>
        <time>2014-10-01T17:36:06Z</time>
      </trkpt>
      <trkpt lat="42.4380930" lon="-7.3069550">
        <ele>714.3</ele>
        <time>2014-10-01T17:36:07Z</time>
      </trkpt>
      <trkpt lat="42.4380310" lon="-7.3067680">
        <ele>712.9</ele>
        <time>2014-10-01T17:36:08Z</time>
      </trkpt>
      <trkpt lat="42.4379720" lon="-7.3065850">
        <ele>711.6</ele>
        <time>2014-10-01T17:36:09Z</time>
      </trkpt>
      <trkpt lat="42.4379170" lon="-7.3064180">
        <ele>710.3</ele>
        <time>2014-10-01T17:36:10Z</time>
      </trkpt>
      <trkpt lat="42.4378610" lon="-7.3062550">
        <ele>709.0</ele>
        <time>2014-10-01T17:36:11Z</time>
      </trkpt>
      <trkpt lat="42.4378050" lon="-7.3061030">
        <ele>707.7</ele>
        <time>2014-10-01T17:36:12Z</time>
      </trkpt>
      <trkpt lat="42.4377500" lon="-7.3059570">
        <ele>706.4</ele>
        <time>2014-10-01T17:36:13Z</time>
      </trkpt>
      <trkpt lat="42.4377090" lon="-7.3058210">
        <ele>705.4</ele>
        <time>2014-10-01T17:36:14Z</time>
      </trkpt>
      <trkpt lat="42.4376960" lon="-7.3056880">
        <ele>704.4</ele>
        <time>2014-10-01T17:36:15Z</time>
      </trkpt>
      <trkpt lat="42.4377040" lon="-7.3055730">
        <ele>703.4</ele>
        <time>2014-10-01T17:36:16Z</time>
      </trkpt>
      <trkpt lat="42.4377290" lon="-7.3054740">
        <ele>702.5</ele>
        <time>2014-10-01T17:36:17Z</time>
      </trkpt>
      <trkpt lat="42.4377720" lon="-7.3053740">
        <ele>701.6</ele>
        <time>2014-10-01T17:36:18Z</time>
      </trkpt>
      <trkpt lat="42.4378240" lon="-7.3053040">
        <ele>700.7</ele>
        <time>2014-10-01T17:36:19Z</time>
      </trkpt>
      <trkpt lat="42.4379040" lon="-7.3052700">
        <ele>699.8</ele>
        <time>2014-10-01T17:36:20Z</time>
      </trkpt>
      <trkpt lat="42.4379840" lon="-7.3052770">
        <ele>698.9</ele>
        <time>2014-10-01T17:36:21Z</time>
      </trkpt>
      <trkpt lat="42.4380740" lon="-7.3052960">
        <ele>697.9</ele>
        <time>2014-10-01T17:36:22Z</time>
      </trkpt>
      <trkpt lat="42.4381670" lon="-7.3053240">
        <ele>696.9</ele>
        <time>2014-10-01T17:36:23Z</time>
      </trkpt>
      <trkpt lat="42.4382550" lon="-7.3053590">
        <ele>695.9</ele>
        <time>2014-10-01T17:36:24Z</time>
      </trkpt>
      <trkpt lat="42.4383480" lon="-7.3054020">
        <ele>694.7</ele>
        <time>2014-10-01T17:36:25Z</time>
      </trkpt>
      <trkpt lat="42.4384490" lon="-7.3054490">
        <ele>693.5</ele>
        <time>2014-10-01T17:36:26Z</time>
      </trkpt>
      <trkpt lat="42.4385550" lon="-7.3054990">
        <ele>692.2</ele>
        <time>2014-10-01T17:36:27Z</time>
      </trkpt>
      <trkpt lat="42.4386650" lon="-7.3055510">
        <ele>690.9</ele>
        <time>2014-10-01T17:36:28Z</time>
      </trkpt>
      <trkpt lat="42.4387800" lon="-7.3056020">
        <ele>689.5</ele>
        <time>2014-10-01T17:36:29Z</time>
      </trkpt>
      <trkpt lat="42.4388890" lon="-7.3056560">
        <ele>688.2</ele>
        <time>2014-10-01T17:36:30Z</time>
      </trkpt>
      <trkpt lat="42.4389860" lon="-7.3057110">
        <ele>687.0</ele>
        <time>2014-10-01T17:36:31Z</time>
      </trkpt>
      <trkpt lat="42.4390710" lon="-7.3057680">
        <ele>685.9</ele>
        <time>2014-10-01T17:36:32Z</time>
      </trkpt>
      <trkpt lat="42.4391480" lon="-7.3058150">
        <ele>684.8</ele>
        <time>2014-10-01T17:36:33Z</time>
      </trkpt>
      <trkpt lat="42.4392200" lon="-7.3058170">
        <ele>683.9</ele>
        <time>2014-10-01T17:36:34Z</time>
      </trkpt>
      <trkpt lat="42.4392870" lon="-7.3057720">
        <ele>683.0</ele>
        <time>2014-10-01T17:36:35Z</time>
      </trkpt>
      <trkpt lat="42.4393380" lon="-7.3057000">
        <ele>682.1</ele>
        <time>2014-10-01T17:36:36Z</time>
      </trkpt>
      <trkpt lat="42.4393840" lon="-7.3056140">
        <ele>681.2</ele>
        <time>2014-10-01T17:36:37Z</time>
      </trkpt>
      <trkpt lat="42.4394280" lon="-7.3055230">
        <ele>680.2</ele>
        <time>2014-10-01T17:36:38Z</time>
      </trkpt>
      <trkpt lat="42.4394700" lon="-7.3054120">
        <ele>679.1</ele>
        <time>2014-10-01T17:36:39Z</time>
      </trkpt>
      <trkpt lat="42.4395140" lon="-7.3052850">
        <ele>677.9</ele>
        <time>2014-10-01T17:36:40Z</time>
      </trkpt>
      <trkpt lat="42.4395580" lon="-7.3051450">
        <ele>676.6</ele>
        <time>2014-10-01T17:36:41Z</time>
      </trkpt>
      <trkpt lat="42.4395980" lon="-7.3049920">
        <ele>675.2</ele>
        <time>2014-10-01T17:36:42Z</time>
      </trkpt>
      <trkpt lat="42.4396100" lon="-7.3048430">
        <ele>674.0</ele>
        <time>2014-10-01T17:36:43Z</time>
      </trkpt>
      <trkpt lat="42.4396190" lon="-7.3047050">
        <ele>672.8</ele>
        <time>2014-10-01T17:36:44Z</time>
      </trkpt>
      <trkpt lat="42.4396280" lon="-7.3045730">
        <ele>671.6</ele>
        <time>2014-10-01T17:36:45Z</time>
      </trkpt>
      <trkpt lat="42.4396450" lon="-7.3044380">
        <ele>670.4</ele>
        <time>2014-10-01T17:36:46Z</time>
      </trkpt>
      <trkpt lat="42.4396600" lon="-7.3042970">
        <ele>669.2</ele>
        <time>2014-10-01T17:36:47Z</time>
      </trkpt>
      <trkpt lat="42.4396860" lon="-7.3041740">
        <ele>668.0</ele>
        <time>2014-10-01T17:36:48Z</time>
      </trkpt>
      <trkpt lat="42.4397090" lon="-7.3040490">
        <ele>666.8</ele>
        <time>2014-10-01T17:36:49Z</time>
      </trkpt>
      <trkpt lat="42.4397250" lon="-7.3039320">
        <ele>665.7</ele>
        <time>2014-10-01T17:36:50Z</time>
      </trkpt>
      <trkpt lat="42.4397380" lon="-7.3038310">
        <ele>664.8</ele>
        <time>2014-10-01T17:36:51Z</time>
      </trkpt>
      <trkpt lat="42.4397490" lon="-7.3037440">
        <ele>664.0</ele>
        <time>2014-10-01T17:36:52Z</time>
      </trkpt>
      <trkpt lat="42.4397590" lon="-7.3036680">
        <ele>663.3</ele>
        <time>2014-10-01T17:36:53Z</time>
      </trkpt>
      <trkpt lat="42.4397900" lon="-7.3035980">
        <ele>662.6</ele>
        <time>2014-10-01T17:36:54Z</time>
      </trkpt>
      <trkpt lat="42.4398260" lon="-7.3035220">
        <ele>661.8</ele>
        <time>2014-10-01T17:36:55Z</time>
      </trkpt>
      <trkpt lat="42.4398660" lon="-7.3034540">
        <ele>661.0</ele>
        <time>2014-10-01T17:36:56Z</time>
      </trkpt>
      <trkpt lat="42.4399130" lon="-7.3033920">
        <ele>660.2</ele>
        <time>2014-10-01T17:36:57Z</time>
      </trkpt>
      <trkpt lat="42.4399690" lon="-7.3033300">
        <ele>659.3</ele>
        <time>2014-10-01T17:36:58Z</time>
      </trkpt>
      <trkpt lat="42.4400570" lon="-7.3033080">
        <ele>658.1</ele>
        <time>2014-10-01T17:36:59Z</time>
      </trkpt>
      <trkpt lat="42.4401570" lon="-7.3032870">
        <ele>656.9</ele>
        <time>2014-10-01T17:37:00Z</time>
      </trkpt>
      <trkpt lat="42.4402570" lon="-7.3032570">
        <ele>655.6</ele>
        <time>2014-10-01T17:37:01Z</time>
      </trkpt>
      <trkpt lat="42.4403600" lon="-7.3031620">
        <ele>654.1</ele>
        <time>2014-10-01T17:37:02Z</time>
      </trkpt>
      <trkpt lat="42.4404520" lon="-7.3030760">
        <ele>652.7</ele>
        <time>2014-10-01T17:37:03Z</time>
      </trkpt>
      <trkpt lat="42.4405470" lon="-7.3029810">
        <ele>651.4</ele>
        <time>2014-10-01T17:37:04Z</time>
      </trkpt>
      <trkpt lat="42.4406500" lon="-7.3028840">
        <ele>649.9</ele>
        <time>2014-10-01T17:37:05Z</time>
      </trkpt>
      <trkpt lat="42.4407610" lon="-7.3028040">
        <ele>648.4</ele>
        <time>2014-10-01T17:37:06Z</time>
      </trkpt>
      <trkpt lat="42.4408820" lon="-7.3027420">
        <ele>646.7</ele>
        <time>2014-10-01T17:37:07Z</time>
      </trkpt>
      <trkpt lat="42.4410070" lon="-7.3026750">
        <ele>645.1</ele>
        <time>2014-10-01T17:37:08Z</time>
      </trkpt>
      <trkpt lat="42.4411320" lon="-7.3025930">
        <ele>643.4</ele>
        <time>2014-10-01T17:37:09Z</time>
      </trkpt>
      <trkpt lat="42.4412560" lon="-7.3025020">
        <ele>641.7</ele>
        <time>2014-10-01T17:37:10Z</time>
      </trkpt>
      <trkpt lat="42.4413860" lon="-7.3024070">
        <ele>640.0</ele>
        <time>2014-10-01T17:37:11Z</time>
      </trkpt>
      <trkpt lat="42.4415200" lon="-7.3023030">
        <ele>638.1</ele>
        <time>2014-10-01T17:37:12Z</time>
      </trkpt>
      <trkpt lat="42.4416590" lon="-7.3021930">
        <ele>636.2</ele>
        <time>2014-10-01T17:37:13Z</time>
      </trkpt>
      <trkpt lat="42.4417920" lon="-7.3020980">
        <ele>634.3</ele>
        <time>2014-10-01T17:37:14Z</time>
      </trkpt>
      <trkpt lat="42.4419310" lon="-7.3020060">
        <ele>632.5</ele>
        <time>2014-10-01T17:37:15Z</time>
      </trkpt>
      <trkpt lat="42.4420710" lon="-7.3019160">
        <ele>630.7</ele>
        <time>2014-10-01T17:37:16Z</time>
      </trkpt>
      <trkpt lat="42.4422220" lon="-7.3018150">
        <ele>628.7</ele>
        <time>2014-10-01T17:37:17Z</time>
      </trkpt>
      <trkpt lat="42.4423610" lon="-7.3017110">
        <ele>626.9</ele>
        <time>2014-10-01T17:37:18Z</time>
      </trkpt>
      <trkpt lat="42.4425000" lon="-7.3016010">
        <ele>625.1</ele>
        <time>2014-10-01T17:37:19Z</time>
      </trkpt>
      <trkpt lat="42.4426310" lon="-7.3014980">
        <ele>623.3</ele>
        <time>2014-10-01T17:37:20Z</time>
      </trkpt>
      <trkpt lat="42.4427750" lon="-7.3013840">
        <ele>621.3</ele>
        <time>2014-10-01T17:37:21Z</time>
      </trkpt>
      <trkpt lat="42.4429190" lon="-7.3012700">
        <ele>619.3</ele>
        <time>2014-10-01T17:37:22Z</time>
      </trkpt>
      <trkpt lat="42.4430630" lon="-7.3011550">
        <ele>617.3</ele>
        <time>2014-10-01T17:37:23Z</time>
      </trkpt>
      <trkpt lat="42.4432040" lon="-7.3010430">
        <ele>615.4</ele>
        <time>2014-10-01T17:37:24Z</time>
      </trkpt>
      <trkpt lat="42.4433370" lon="-7.3009350">
        <ele>613.5</ele>
        <time>2014-10-01T17:37:25Z</time>
      </trkpt>
      <trkpt lat="42.4434610" lon="-7.3008230">
        <ele>611.7</ele>
        <time>2014-10-01T17:37:26Z</time>
      </trkpt>
      <trkpt lat="42.4435800" lon="-7.3007020">
        <ele>610.0</ele>
        <time>2014-10-01T17:37:27Z</time>
      </trkpt>
      <trkpt lat="42.4436920" lon="-7.3005660">
        <ele>608.2</ele>
        <time>2014-10-01T17:37:28Z</time>
      </trkpt>
      <trkpt lat="42.4437960" lon="-7.3004160">
        <ele>606.4</ele>
        <time>2014-10-01T17:37:29Z</time>
      </trkpt>
      <trkpt lat="42.4438930" lon="-7.3002530">
        <ele>604.5</ele>
        <time>2014-10-01T17:37:30Z</time>
      </trkpt>
      <trkpt lat="42.4439820" lon="-7.3000920">
        <ele>602.9</ele>
        <time>2014-10-01T17:37:31Z</time>
      </trkpt>
      <trkpt lat="42.4440650" lon="-7.2999410">
        <ele>601.3</ele>
        <time>2014-10-01T17:37:32Z</time>
      </trkpt>
      <trkpt lat="42.4441630" lon="-7.2997840">
        <ele>599.3</ele>
        <time>2014-10-01T17:37:33Z</time>
      </trkpt>
      <trkpt lat="42.4442620" lon="-7.2996330">
        <ele>597.5</ele>
        <time>2014-10-01T17:37:34Z</time>
      </trkpt>
      <trkpt lat="42.4443600" lon="-7.2994800">
        <ele>595.6</ele>
        <time>2014-10-01T17:37:35Z</time>
      </trkpt>
      <trkpt lat="42.4444540" lon="-7.2993200">
        <ele>593.9</ele>
        <time>2014-10-01T17:37:36Z</time>
      </trkpt>
      <trkpt lat="42.4445390" lon="-7.2991580">
        <ele>592.2</ele>
        <time>2014-10-01T17:37:37Z</time>
      </trkpt>
      <trkpt lat="42.4446170" lon="-7.2989940">
        <ele>590.6</ele>
        <time>2014-10-01T17:37:38Z</time>
      </trkpt>
      <trkpt lat="42.4446620" lon="-7.2988220">
        <ele>589.0</ele>
        <time>2014-10-01T17:37:39Z</time>
      </trkpt>
      <trkpt lat="42.4446950" lon="-7.2986590">
        <ele>587.6</ele>
        <time>2014-10-01T17:37:40Z</time>
      </trkpt>
      <trkpt lat="42.4446990" lon="-7.2984760">
        <ele>586.0</ele>
        <time>2014-10-01T17:37:41Z</time>
      </trkpt>
      <trkpt lat="42.4447000" lon="-7.2982830">
        <ele>584.3</ele>
        <time>2014-10-01T17:37:42Z</time>
      </trkpt>
      <trkpt lat="42.4447030" lon="-7.2980840">
        <ele>582.6</ele>
        <time>2014-10-01T17:37:43Z</time>
      </trkpt>
      <trkpt lat="42.4447170" lon="-7.2978920">
        <ele>581.0</ele>
        <time>2014-10-01T17:37:44Z</time>
      </trkpt>
      <trkpt lat="42.4447720" lon="-7.2977050">
        <ele>579.3</ele>
        <time>2014-10-01T17:37:45Z</time>
      </trkpt>
      <trkpt lat="42.4448280" lon="-7.2975180">
        <ele>577.6</ele>
        <time>2014-10-01T17:37:46Z</time>
      </trkpt>
      <trkpt lat="42.4448890" lon="-7.2973270">
        <ele>575.8</ele>
        <time>2014-10-01T17:37:47Z</time>
      </trkpt>
      <trkpt lat="42.4449540" lon="-7.2971300">
        <ele>573.9</ele>
        <time>2014-10-01T17:37:48Z</time>
      </trkpt>
      <trkpt lat="42.4450250" lon="-7.2969370">
        <ele>572.1</ele>
        <time>2014-10-01T17:37:49Z</time>
      </trkpt>
      <trkpt lat="42.4450990" lon="-7.2967510">
        <ele>570.3</ele>
        <time>2014-10-01T17:37:50Z</time>
      </trkpt>
      <trkpt lat="42.4451770" lon="-7.2965650">
        <ele>568.5</ele>
        <time>2014-10-01T17:37:51Z</time>
      </trkpt>
      <trkpt lat="42.4452640" lon="-7.2963820">
        <ele>566.6</ele>
        <time>2014-10-01T17:37:52Z</time>
      </trkpt>
      <trkpt lat="42.4453570" lon="-7.2962130">
        <ele>564.8</ele>
        <time>2014-10-01T17:37:53Z</time>
      </trkpt>
      <trkpt lat="42.4454580" lon="-7.2960550">
        <ele>563.0</ele>
        <time>2014-10-01T17:37:54Z</time>
      </trkpt>
      <trkpt lat="42.4455670" lon="-7.2958990">
        <ele>561.3</ele>
        <time>2014-10-01T17:37:55Z</time>
      </trkpt>
      <trkpt lat="42.4456850" lon="-7.2957450">
        <ele>559.4</ele>
        <time>2014-10-01T17:37:56Z</time>
      </trkpt>
      <trkpt lat="42.4458080" lon="-7.2955950">
        <ele>557.6</ele>
        <time>2014-10-01T17:37:57Z</time>
      </trkpt>
      <trkpt lat="42.4459300" lon="-7.2954490">
        <ele>555.8</ele>
        <time>2014-10-01T17:37:58Z</time>
      </trkpt>
      <trkpt lat="42.4460540" lon="-7.2952930">
        <ele>553.9</ele>
        <time>2014-10-01T17:37:59Z</time>
      </trkpt>
      <trkpt lat="42.4461660" lon="-7.2951410">
        <ele>552.1</ele>
        <time>2014-10-01T17:38:00Z</time>
      </trkpt>
      <trkpt lat="42.4462610" lon="-7.2949920">
        <ele>550.5</ele>
        <time>2014-10-01T17:38:01Z</time>
      </trkpt>
      <trkpt lat="42.4463160" lon="-7.2948260">
        <ele>549.1</ele>
        <time>2014-10-01T17:38:02Z</time>
      </trkpt>
      <trkpt lat="42.4463620" lon="-7.2946590">
        <ele>547.7</ele>
        <time>2014-10-01T17:38:03Z</time>
      </trkpt>
      <trkpt lat="42.4463620" lon="-7.2944790">
        <ele>546.3</ele>
        <time>2014-10-01T17:38:04Z</time>
      </trkpt>
      <trkpt lat="42.4463550" lon="-7.2942940">
        <ele>544.9</ele>
        <time>2014-10-01T17:38:05Z</time>
      </trkpt>
      <trkpt lat="42.4463370" lon="-7.2941060">
        <ele>543.4</ele>
        <time>2014-10-01T17:38:06Z</time>
      </trkpt>
      <trkpt lat="42.4463100" lon="-7.2939240">
        <ele>541.9</ele>
        <time>2014-10-01T17:38:07Z</time>
      </trkpt>
      <trkpt lat="42.4462820" lon="-7.2937430">
        <ele>540.4</ele>
        <time>2014-10-01T17:38:08Z</time>
      </trkpt>
      <trkpt lat="42.4462510" lon="-7.2935630">
        <ele>538.9</ele>
        <time>2014-10-01T17:38:09Z</time>
      </trkpt>
      <trkpt lat="42.4462240" lon="-7.2933780">
        <ele>537.4</ele>
        <time>2014-10-01T17:38:10Z</time>
      </trkpt>
      <trkpt lat="42.4462070" lon="-7.2931910">
        <ele>536.0</ele>
        <time>2014-10-01T17:38:11Z</time>
      </trkpt>
      <trkpt lat="42.4462030" lon="-7.2930070">
        <ele>534.6</ele>
        <time>2014-10-01T17:38:12Z</time>
      </trkpt>
      <trkpt lat="42.4462110" lon="-7.2928190">
        <ele>533.2</ele>
        <time>2014-10-01T17:38:13Z</time>
      </trkpt>
      <trkpt lat="42.4462270" lon="-7.2926420">
        <ele>531.9</ele>
        <time>2014-10-01T17:38:14Z</time>
      </trkpt>
      <trkpt lat="42.4462480" lon="-7.2924650">
        <ele>530.6</ele>
        <time>2014-10-01T17:38:15Z</time>
      </trkpt>
      <trkpt lat="42.4462770" lon="-7.2923110">
        <ele>529.3</ele>
        <time>2014-10-01T17:38:16Z</time>
      </trkpt>
      <trkpt lat="42.4463260" lon="-7.2921750">
        <ele>528.0</ele>
        <time>2014-10-01T17:38:17Z</time>
      </trkpt>
      <trkpt lat="42.4463720" lon="-7.2920640">
        <ele>526.9</ele>
        <time>2014-10-01T17:38:18Z</time>
      </trkpt>
      <trkpt lat="42.4464160" lon="-7.2919690">
        <ele>525.8</ele>
        <time>2014-10-01T17:38:19Z</time>
      </trkpt>
      <trkpt lat="42.4464870" lon="-7.2919080">
        <ele>524.3</ele>
        <time>2014-10-01T17:38:20Z</time>
      </trkpt>
      <trkpt lat="42.4465660" lon="-7.2918880">
        <ele>523.3</ele>
        <time>2014-10-01T17:38:21Z</time>
      </trkpt>
      <trkpt lat="42.4466430" lon="-7.2919200">
        <ele>522.4</ele>
        <time>2014-10-01T17:38:22Z</time>
      </trkpt>
      <trkpt lat="42.4467080" lon="-7.2919940">
        <ele>521.5</ele>
        <time>2014-10-01T17:38:23Z</time>
      </trkpt>
      <trkpt lat="42.4467690" lon="-7.2920740">
        <ele>520.6</ele>
        <time>2014-10-01T17:38:24Z</time>
      </trkpt>
      <trkpt lat="42.4468240" lon="-7.2921650">
        <ele>519.7</ele>
        <time>2014-10-01T17:38:25Z</time>
      </trkpt>
      <trkpt lat="42.4468790" lon="-7.2922750">
        <ele>518.7</ele>
        <time>2014-10-01T17:38:26Z</time>
      </trkpt>
      <trkpt lat="42.4469380" lon="-7.2923900">
        <ele>517.7</ele>
        <time>2014-10-01T17:38:27Z</time>
      </trkpt>
      <trkpt lat="42.4469970" lon="-7.2925170">
        <ele>516.5</ele>
        <time>2014-10-01T17:38:28Z</time>
      </trkpt>
      <trkpt lat="42.4470580" lon="-7.2926490">
        <ele>515.3</ele>
        <time>2014-10-01T17:38:29Z</time>
      </trkpt>
      <trkpt lat="42.4471190" lon="-7.2927830">
        <ele>513.9</ele>
        <time>2014-10-01T17:38:30Z</time>
      </trkpt>
      <trkpt lat="42.4471820" lon="-7.2929130">
        <ele>512.7</ele>
        <time>2014-10-01T17:38:31Z</time>
      </trkpt>
      <trkpt lat="42.4472410" lon="-7.2930430">
        <ele>511.4</ele>
        <time>2014-10-01T17:38:32Z</time>
      </trkpt>
      <trkpt lat="42.4472990" lon="-7.2931900">
        <ele>510.0</ele>
        <time>2014-10-01T17:38:33Z</time>
      </trkpt>
      <trkpt lat="42.4473570" lon="-7.2933500">
        <ele>508.6</ele>
        <time>2014-10-01T17:38:34Z</time>
      </trkpt>
      <trkpt lat="42.4474160" lon="-7.2935260">
        <ele>507.2</ele>
        <time>2014-10-01T17:38:35Z</time>
      </trkpt>
      <trkpt lat="42.4474670" lon="-7.2936960">
        <ele>505.8</ele>
        <time>2014-10-01T17:38:36Z</time>
      </trkpt>
      <trkpt lat="42.4475150" lon="-7.2938770">
        <ele>504.3</ele>
        <time>2014-10-01T17:38:37Z</time>
      </trkpt>
      <trkpt lat="42.4475560" lon="-7.2940530">
        <ele>503.0</ele>
        <time>2014-10-01T17:38:38Z</time>
      </trkpt>
      <trkpt lat="42.4475920" lon="-7.2942320">
        <ele>501.7</ele>
        <time>2014-10-01T17:38:39Z</time>
      </trkpt>
      <trkpt lat="42.4476230" lon="-7.2944060">
        <ele>500.5</ele>
        <time>2014-10-01T17:38:40Z</time>
      </trkpt>
      <trkpt lat="42.4476440" lon="-7.2945600">
        <ele>499.4</ele>
        <time>2014-10-01T17:38:41Z</time>
      </trkpt>
      <trkpt lat="42.4476600" lon="-7.2947010">
        <ele>498.4</ele>
        <time>2014-10-01T17:38:42Z</time>
      </trkpt>
      <trkpt lat="42.4476700" lon="-7.2948120">
        <ele>497.4</ele>
        <time>2014-10-01T17:38:43Z</time>
      </trkpt>
      <trkpt lat="42.4477020" lon="-7.2949150">
        <ele>496.5</ele>
        <time>2014-10-01T17:38:44Z</time>
      </trkpt>
      <trkpt lat="42.4477460" lon="-7.2949870">
        <ele>495.7</ele>
        <time>2014-10-01T17:38:45Z</time>
      </trkpt>
      <trkpt lat="42.4477910" lon="-7.2949990">
        <ele>495.2</ele>
        <time>2014-10-01T17:38:46Z</time>
      </trkpt>
      <trkpt lat="42.4478320" lon="-7.2950220">
        <ele>494.7</ele>
        <time>2014-10-01T17:38:47Z</time>
      </trkpt>
      <trkpt lat="42.4478770" lon="-7.2949980">
        <ele>494.2</ele>
        <time>2014-10-01T17:38:48Z</time>
      </trkpt>
      <trkpt lat="42.4478700" lon="-7.2948920">
        <ele>493.4</ele>
        <time>2014-10-01T17:38:49Z</time>
      </trkpt>
      <trkpt lat="42.4478690" lon="-7.2947740">
        <ele>492.6</ele>
        <time>2014-10-01T17:38:50Z</time>
      </trkpt>
      <trkpt lat="42.4478600" lon="-7.2946240">
        <ele>491.6</ele>
        <time>2014-10-01T17:38:51Z</time>
      </trkpt>
      <trkpt lat="42.4478590" lon="-7.2944650">
        <ele>490.5</ele>
        <time>2014-10-01T17:38:52Z</time>
      </trkpt>
      <trkpt lat="42.4478640" lon="-7.2942900">
        <ele>489.4</ele>
        <time>2014-10-01T17:38:53Z</time>
      </trkpt>
      <trkpt lat="42.4478780" lon="-7.2941220">
        <ele>488.2</ele>
        <time>2014-10-01T17:38:54Z</time>
      </trkpt>
      <trkpt lat="42.4479000" lon="-7.2939600">
        <ele>487.1</ele>
        <time>2014-10-01T17:38:55Z</time>
      </trkpt>
      <trkpt lat="42.4479240" lon="-7.2937990">
        <ele>485.9</ele>
        <time>2014-10-01T17:38:56Z</time>
      </trkpt>
      <trkpt lat="42.4479520" lon="-7.2936330">
        <ele>484.7</ele>
        <time>2014-10-01T17:38:57Z</time>
      </trkpt>
      <trkpt lat="42.4479790" lon="-7.2934620">
        <ele>483.4</ele>
        <time>2014-10-01T17:38:58Z</time>
      </trkpt>
      <trkpt lat="42.4480120" lon="-7.2932860">
        <ele>482.0</ele>
        <time>2014-10-01T17:38:59Z</time>
      </trkpt>
      <trkpt lat="42.4480510" lon="-7.2931180">
        <ele>480.7</ele>
        <time>2014-10-01T17:39:00Z</time>
      </trkpt>
      <trkpt lat="42.4481000" lon="-7.2929510">
        <ele>479.5</ele>
        <time>2014-10-01T17:39:01Z</time>
      </trkpt>
      <trkpt lat="42.4481840" lon="-7.2927950">
        <ele>478.2</ele>
        <time>2014-10-01T17:39:02Z</time>
      </trkpt>
      <trkpt lat="42.4482720" lon="-7.2926400">
        <ele>477.0</ele>
        <time>2014-10-01T17:39:03Z</time>
      </trkpt>
      <trkpt lat="42.4483450" lon="-7.2925080">
        <ele>475.8</ele>
        <time>2014-10-01T17:39:04Z</time>
      </trkpt>
      <trkpt lat="42.4484080" lon="-7.2923730">
        <ele>474.7</ele>
        <time>2014-10-01T17:39:05Z</time>
      </trkpt>
      <trkpt lat="42.4484400" lon="-7.2922130">
        <ele>473.6</ele>
        <time>2014-10-01T17:39:06Z</time>
      </trkpt>
      <trkpt lat="42.4484650" lon="-7.2920510">
        <ele>472.4</ele>
        <time>2014-10-01T17:39:07Z</time>
      </trkpt>
      <trkpt lat="42.4484520" lon="-7.2918990">
        <ele>471.3</ele>
        <time>2014-10-01T17:39:08Z</time>
      </trkpt>
      <trkpt lat="42.4484380" lon="-7.2917510">
        <ele>470.2</ele>
        <time>2014-10-01T17:39:09Z</time>
      </trkpt>
      <trkpt lat="42.4484190" lon="-7.2916070">
        <ele>469.0</ele>
        <time>2014-10-01T17:39:10Z</time>
      </trkpt>
      <trkpt lat="42.4483930" lon="-7.2914640">
        <ele>467.8</ele>
        <time>2014-10-01T17:39:11Z</time>
      </trkpt>
      <trkpt lat="42.4483650" lon="-7.2913330">
        <ele>466.6</ele>
        <time>2014-10-01T17:39:12Z</time>
      </trkpt>
      <trkpt lat="42.4483150" lon="-7.2912170">
        <ele>465.4</ele>
        <time>2014-10-01T17:39:13Z</time>
      </trkpt>
      <trkpt lat="42.4482540" lon="-7.2910830">
        <ele>463.9</ele>
        <time>2014-10-01T17:39:14Z</time>
      </trkpt>
      <trkpt lat="42.4482290" lon="-7.2909520">
        <ele>462.5</ele>
        <time>2014-10-01T17:39:15Z</time>
      </trkpt>
      <trkpt lat="42.4482310" lon="-7.2908110">
        <ele>461.1</ele>
        <time>2014-10-01T17:39:16Z</time>
      </trkpt>
      <trkpt lat="42.4482590" lon="-7.2906920">
        <ele>459.8</ele>
        <time>2014-10-01T17:39:17Z</time>
      </trkpt>
      <trkpt lat="42.4483210" lon="-7.2906330">
        <ele>458.8</ele>
        <time>2014-10-01T17:39:18Z</time>
      </trkpt>
      <trkpt lat="42.4484060" lon="-7.2906210">
        <ele>457.8</ele>
        <time>2014-10-01T17:39:19Z</time>
      </trkpt>
      <trkpt lat="42.4484810" lon="-7.2906530">
        <ele>457.0</ele>
        <time>2014-10-01T17:39:20Z</time>
      </trkpt>
      <trkpt lat="42.4485390" lon="-7.2907180">
        <ele>456.3</ele>
        <time>2014-10-01T17:39:21Z</time>
      </trkpt>
      <trkpt lat="42.4485970" lon="-7.2907810">
        <ele>455.7</ele>
        <time>2014-10-01T17:39:22Z</time>
      </trkpt>
      <trkpt lat="42.4486490" lon="-7.2908720">
        <ele>454.9</ele>
        <time>2014-10-01T17:39:23Z</time>
      </trkpt>
      <trkpt lat="42.4486920" lon="-7.2909920">
        <ele>453.9</ele>
        <time>2014-10-01T17:39:24Z</time>
      </trkpt>
      <trkpt lat="42.4487360" lon="-7.2911090">
        <ele>452.9</ele>
        <time>2014-10-01T17:39:25Z</time>
      </trkpt>
      <trkpt lat="42.4487820" lon="-7.2912300">
        <ele>451.8</ele>
        <time>2014-10-01T17:39:26Z</time>
      </trkpt>
      <trkpt lat="42.4488280" lon="-7.2913560">
        <ele>450.7</ele>
        <time>2014-10-01T17:39:27Z</time>
      </trkpt>
      <trkpt lat="42.4488830" lon="-7.2914840">
        <ele>449.4</ele>
        <time>2014-10-01T17:39:28Z</time>
      </trkpt>
      <trkpt lat="42.4489510" lon="-7.2916390">
        <ele>447.9</ele>
        <time>2014-10-01T17:39:29Z</time>
      </trkpt>
      <trkpt lat="42.4490400" lon="-7.2917690">
        <ele>446.4</ele>
        <time>2014-10-01T17:39:30Z</time>
      </trkpt>
      <trkpt lat="42.4491280" lon="-7.2918980">
        <ele>445.1</ele>
        <time>2014-10-01T17:39:31Z</time>
      </trkpt>
      <trkpt lat="42.4492160" lon="-7.2920260">
        <ele>443.7</ele>
        <time>2014-10-01T17:39:32Z</time>
      </trkpt>
      <trkpt lat="42.4493260" lon="-7.2921050">
        <ele>442.4</ele>
        <time>2014-10-01T17:39:33Z</time>
      </trkpt>
      <trkpt lat="42.4494390" lon="-7.2921400">
        <ele>441.2</ele>
        <time>2014-10-01T17:39:34Z</time>
      </trkpt>
      <trkpt lat="42.4495560" lon="-7.2921380">
        <ele>440.0</ele>
        <time>2014-10-01T17:39:35Z</time>
      </trkpt>
      <trkpt lat="42.4496710" lon="-7.2921250">
        <ele>438.8</ele>
        <time>2014-10-01T17:39:36Z</time>
      </trkpt>
      <trkpt lat="42.4497850" lon="-7.2920930">
        <ele>437.8</ele>
        <time>2014-10-01T17:39:37Z</time>
      </trkpt>
      <trkpt lat="42.4499000" lon="-7.2920500">
        <ele>436.8</ele>
        <time>2014-10-01T17:39:38Z</time>
      </trkpt>
      <trkpt lat="42.4500150" lon="-7.2920030">
        <ele>436.0</ele>
        <time>2014-10-01T17:39:39Z</time>
      </trkpt>
      <trkpt lat="42.4501310" lon="-7.2919520">
        <ele>435.2</ele>
        <time>2014-10-01T17:39:40Z</time>
      </trkpt>
      <trkpt lat="42.4502480" lon="-7.2918930">
        <ele>434.4</ele>
        <time>2014-10-01T17:39:41Z</time>
      </trkpt>
      <trkpt lat="42.4503600" lon="-7.2918270">
        <ele>433.5</ele>
        <time>2014-10-01T17:39:42Z</time>
      </trkpt>
      <trkpt lat="42.4504680" lon="-7.2917520">
        <ele>432.7</ele>
        <time>2014-10-01T17:39:43Z</time>
      </trkpt>
      <trkpt lat="42.4505570" lon="-7.2916410">
        <ele>431.9</ele>
        <time>2014-10-01T17:39:44Z</time>
      </trkpt>
      <trkpt lat="42.4506450" lon="-7.2915180">
        <ele>431.0</ele>
        <time>2014-10-01T17:39:45Z</time>
      </trkpt>
      <trkpt lat="42.4507070" lon="-7.2913630">
        <ele>429.9</ele>
        <time>2014-10-01T17:39:46Z</time>
      </trkpt>
      <trkpt lat="42.4507640" lon="-7.2912080">
        <ele>428.8</ele>
        <time>2014-10-01T17:39:47Z</time>
      </trkpt>
      <trkpt lat="42.4508190" lon="-7.2910600">
        <ele>427.7</ele>
        <time>2014-10-01T17:39:48Z</time>
      </trkpt>
      <trkpt lat="42.4508800" lon="-7.2909260">
        <ele>426.6</ele>
        <time>2014-10-01T17:39:49Z</time>
      </trkpt>
      <trkpt lat="42.4509650" lon="-7.2908190">
        <ele>425.4</ele>
        <time>2014-10-01T17:39:50Z</time>
      </trkpt>
      <trkpt lat="42.4510600" lon="-7.2907120">
        <ele>424.0</ele>
        <time>2014-10-01T17:39:51Z</time>
      </trkpt>
      <trkpt lat="42.4511560" lon="-7.2906120">
        <ele>422.6</ele>
        <time>2014-10-01T17:39:52Z</time>
      </trkpt>
      <trkpt lat="42.4512550" lon="-7.2905160">
        <ele>421.2</ele>
        <time>2014-10-01T17:39:53Z</time>
      </trkpt>
      <trkpt lat="42.4513610" lon="-7.2904200">
        <ele>419.8</ele>
        <time>2014-10-01T17:39:54Z</time>
      </trkpt>
      <trkpt lat="42.4514700" lon="-7.2903270">
        <ele>418.3</ele>
        <time>2014-10-01T17:39:55Z</time>
      </trkpt>
      <trkpt lat="42.4515800" lon="-7.2902420">
        <ele>416.6</ele>
        <time>2014-10-01T17:39:56Z</time>
      </trkpt>
      <trkpt lat="42.4516750" lon="-7.2901790">
        <ele>415.3</ele>
        <time>2014-10-01T17:39:57Z</time>
      </trkpt>
      <trkpt lat="42.4517850" lon="-7.2901670">
        <ele>413.9</ele>
        <time>2014-10-01T17:39:58Z</time>
      </trkpt>
      <trkpt lat="42.4518970" lon="-7.2901910">
        <ele>412.5</ele>
        <time>2014-10-01T17:39:59Z</time>
      </trkpt>
      <trkpt lat="42.4520070" lon="-7.2902300">
        <ele>411.0</ele>
        <time>2014-10-01T17:40:00Z</time>
      </trkpt>
      <trkpt lat="42.4521230" lon="-7.2902750">
        <ele>409.6</ele>
        <time>2014-10-01T17:40:01Z</time>
      </trkpt>
      <trkpt lat="42.4522450" lon="-7.2903330">
        <ele>408.1</ele>
        <time>2014-10-01T17:40:02Z</time>
      </trkpt>
      <trkpt lat="42.4523680" lon="-7.2903930">
        <ele>406.6</ele>
        <time>2014-10-01T17:40:03Z</time>
      </trkpt>
      <trkpt lat="42.4524940" lon="-7.2904610">
        <ele>404.9</ele>
        <time>2014-10-01T17:40:04Z</time>
      </trkpt>
      <trkpt lat="42.4526140" lon="-7.2905300">
        <ele>403.4</ele>
        <time>2014-10-01T17:40:05Z</time>
      </trkpt>
      <trkpt lat="42.4527410" lon="-7.2905980">
        <ele>402.0</ele>
        <time>2014-10-01T17:40:06Z</time>
      </trkpt>
      <trkpt lat="42.4528780" lon="-7.2906600">
        <ele>400.8</ele>
        <time>2014-10-01T17:40:07Z</time>
      </trkpt>
      <trkpt lat="42.4530080" lon="-7.2907080">
        <ele>399.8</ele>
        <time>2014-10-01T17:40:08Z</time>
      </trkpt>
      <trkpt lat="42.4531380" lon="-7.2907110">
        <ele>399.1</ele>
        <time>2014-10-01T17:40:09Z</time>
      </trkpt>
      <trkpt lat="42.4532770" lon="-7.2907070">
        <ele>398.4</ele>
        <time>2014-10-01T17:40:10Z</time>
      </trkpt>
      <trkpt lat="42.4534190" lon="-7.2906940">
        <ele>397.6</ele>
        <time>2014-10-01T17:40:11Z</time>
      </trkpt>
      <trkpt lat="42.4535530" lon="-7.2906700">
        <ele>396.8</ele>
        <time>2014-10-01T17:40:12Z</time>
      </trkpt>
      <trkpt lat="42.4536850" lon="-7.2906370">
        <ele>395.8</ele>
        <time>2014-10-01T17:40:13Z</time>
      </trkpt>
      <trkpt lat="42.4538090" lon="-7.2905950">
        <ele>394.9</ele>
        <time>2014-10-01T17:40:14Z</time>
      </trkpt>
      <trkpt lat="42.4539330" lon="-7.2905450">
        <ele>394.1</ele>
        <time>2014-10-01T17:40:15Z</time>
      </trkpt>
      <trkpt lat="42.4540630" lon="-7.2904900">
        <ele>393.0</ele>
        <time>2014-10-01T17:40:16Z</time>
      </trkpt>
      <trkpt lat="42.4542000" lon="-7.2904310">
        <ele>391.8</ele>
        <time>2014-10-01T17:40:17Z</time>
      </trkpt>
      <trkpt lat="42.4543200" lon="-7.2903730">
        <ele>390.8</ele>
        <time>2014-10-01T17:40:18Z</time>
      </trkpt>
      <trkpt lat="42.4544380" lon="-7.2903170">
        <ele>390.0</ele>
        <time>2014-10-01T17:40:19Z</time>
      </trkpt>
      <trkpt lat="42.4545650" lon="-7.2902550">
        <ele>389.2</ele>
        <time>2014-10-01T17:40:20Z</time>
      </trkpt>
      <trkpt lat="42.4546920" lon="-7.2901850">
        <ele>388.6</ele>
        <time>2014-10-01T17:40:21Z</time>
      </trkpt>
      <trkpt lat="42.4548160" lon="-7.2901030">
        <ele>388.2</ele>
        <time>2014-10-01T17:40:22Z</time>
      </trkpt>
      <trkpt lat="42.4549220" lon="-7.2899900">
        <ele>387.9</ele>
        <time>2014-10-01T17:40:23Z</time>
      </trkpt>
      <trkpt lat="42.4550240" lon="-7.2898750">
        <ele>387.8</ele>
        <time>2014-10-01T17:40:24Z</time>
      </trkpt>
      <trkpt lat="42.4551190" lon="-7.2897630">
        <ele>387.7</ele>
        <time>2014-10-01T17:40:25Z</time>
      </trkpt>
      <trkpt lat="42.4552100" lon="-7.2896510">
        <ele>387.8</ele>
        <time>2014-10-01T17:40:26Z</time>
      </trkpt>
      <trkpt lat="42.4552990" lon="-7.2895410">
        <ele>388.0</ele>
        <time>2014-10-01T17:40:27Z</time>
      </trkpt>
      <trkpt lat="42.4553880" lon="-7.2894300">
        <ele>388.3</ele>
        <time>2014-10-01T17:40:28Z</time>
      </trkpt>
      <trkpt lat="42.4554770" lon="-7.2893210">
        <ele>388.6</ele>
        <time>2014-10-01T17:40:29Z</time>
      </trkpt>
      <trkpt lat="42.4555590" lon="-7.2892200">
        <ele>388.9</ele>
        <time>2014-10-01T17:40:30Z</time>
      </trkpt>
      <trkpt lat="42.4556410" lon="-7.2891200">
        <ele>389.2</ele>
        <time>2014-10-01T17:40:31Z</time>
      </trkpt>
      <trkpt lat="42.4557170" lon="-7.2890310">
        <ele>389.4</ele>
        <time>2014-10-01T17:40:32Z</time>
      </trkpt>
      <trkpt lat="42.4557920" lon="-7.2889430">
        <ele>389.6</ele>
        <time>2014-10-01T17:40:33Z</time>
      </trkpt>
      <trkpt lat="42.4558640" lon="-7.2888590">
        <ele>389.9</ele>
        <time>2014-10-01T17:40:34Z</time>
      </trkpt>
      <trkpt lat="42.4559350" lon="-7.2887760">
        <ele>390.1</ele>
        <time>2014-10-01T17:40:35Z</time>
      </trkpt>
      <trkpt lat="42.4560010" lon="-7.2886960">
        <ele>390.3</ele>
        <time>2014-10-01T17:40:36Z</time>
      </trkpt>
      <trkpt lat="42.4560730" lon="-7.2886160">
        <ele>390.4</ele>
        <time>2014-10-01T17:40:37Z</time>
      </trkpt>
      <trkpt lat="42.4561380" lon="-7.2885420">
        <ele>390.5</ele>
        <time>2014-10-01T17:40:38Z</time>
      </trkpt>
      <trkpt lat="42.4562020" lon="-7.2884630">
        <ele>390.5</ele>
        <time>2014-10-01T17:40:39Z</time>
      </trkpt>
      <trkpt lat="42.4562620" lon="-7.2883860">
        <ele>390.5</ele>
        <time>2014-10-01T17:40:40Z</time>
      </trkpt>
      <trkpt lat="42.4563210" lon="-7.2883060">
        <ele>390.4</ele>
        <time>2014-10-01T17:40:41Z</time>
      </trkpt>
      <trkpt lat="42.4563840" lon="-7.2882230">
        <ele>390.3</ele>
        <time>2014-10-01T17:40:42Z</time>
      </trkpt>
      <trkpt lat="42.4564460" lon="-7.2881340">
        <ele>390.1</ele>
        <time>2014-10-01T17:40:43Z</time>
      </trkpt>
      <trkpt lat="42.4565030" lon="-7.2880450">
        <ele>389.8</ele>
        <time>2014-10-01T17:40:44Z</time>
      </trkpt>
      <trkpt lat="42.4565570" lon="-7.2879540">
        <ele>389.4</ele>
        <time>2014-10-01T17:40:45Z</time>
      </trkpt>
      <trkpt lat="42.4566100" lon="-7.2878580">
        <ele>389.0</ele>
        <time>2014-10-01T17:40:46Z</time>
      </trkpt>
      <trkpt lat="42.4566630" lon="-7.2877580">
        <ele>388.6</ele>
        <time>2014-10-01T17:40:47Z</time>
      </trkpt>
      <trkpt lat="42.4567200" lon="-7.2876470">
        <ele>388.1</ele>
        <time>2014-10-01T17:40:48Z</time>
      </trkpt>
      <trkpt lat="42.4567770" lon="-7.2875300">
        <ele>387.5</ele>
        <time>2014-10-01T17:40:49Z</time>
      </trkpt>
      <trkpt lat="42.4568330" lon="-7.2874110">
        <ele>386.8</ele>
        <time>2014-10-01T17:40:50Z</time>
      </trkpt>
      <trkpt lat="42.4568830" lon="-7.2872890">
        <ele>386.0</ele>
        <time>2014-10-01T17:40:51Z</time>
      </trkpt>
      <trkpt lat="42.4569300" lon="-7.2871620">
        <ele>385.2</ele>
        <time>2014-10-01T17:40:52Z</time>
      </trkpt>
      <trkpt lat="42.4569740" lon="-7.2870330">
        <ele>384.4</ele>
        <time>2014-10-01T17:40:53Z</time>
      </trkpt>
      <trkpt lat="42.4570200" lon="-7.2869000">
        <ele>383.3</ele>
        <time>2014-10-01T17:40:54Z</time>
      </trkpt>
      <trkpt lat="42.4570720" lon="-7.2867640">
        <ele>382.2</ele>
        <time>2014-10-01T17:40:55Z</time>
      </trkpt>
      <trkpt lat="42.4571330" lon="-7.2866330">
        <ele>380.9</ele>
        <time>2014-10-01T17:40:56Z</time>
      </trkpt>
      <trkpt lat="42.4572220" lon="-7.2865160">
        <ele>379.5</ele>
        <time>2014-10-01T17:40:57Z</time>
      </trkpt>
      <trkpt lat="42.4573130" lon="-7.2864070">
        <ele>378.2</ele>
        <time>2014-10-01T17:40:58Z</time>
      </trkpt>
      <trkpt lat="42.4574100" lon="-7.2863110">
        <ele>376.8</ele>
        <time>2014-10-01T17:40:59Z</time>
      </trkpt>
      <trkpt lat="42.4575310" lon="-7.2862500">
        <ele>375.2</ele>
        <time>2014-10-01T17:41:00Z</time>
      </trkpt>
      <trkpt lat="42.4576510" lon="-7.2862030">
        <ele>373.6</ele>
        <time>2014-10-01T17:41:01Z</time>
      </trkpt>
      <trkpt lat="42.4577760" lon="-7.2861990">
        <ele>372.1</ele>
        <time>2014-10-01T17:41:02Z</time>
      </trkpt>
      <trkpt lat="42.4579040" lon="-7.2862080">
        <ele>370.5</ele>
        <time>2014-10-01T17:41:03Z</time>
      </trkpt>
      <trkpt lat="42.4580370" lon="-7.2862730">
        <ele>368.7</ele>
        <time>2014-10-01T17:41:04Z</time>
      </trkpt>
      <trkpt lat="42.4581760" lon="-7.2863550">
        <ele>366.7</ele>
        <time>2014-10-01T17:41:05Z</time>
      </trkpt>
      <trkpt lat="42.4583000" lon="-7.2864820">
        <ele>364.8</ele>
        <time>2014-10-01T17:41:06Z</time>
      </trkpt>
      <trkpt lat="42.4584030" lon="-7.2866400">
        <ele>362.8</ele>
        <time>2014-10-01T17:41:07Z</time>
      </trkpt>
      <trkpt lat="42.4584970" lon="-7.2868100">
        <ele>360.7</ele>
        <time>2014-10-01T17:41:08Z</time>
      </trkpt>
      <trkpt lat="42.4585610" lon="-7.2870100">
        <ele>358.8</ele>
        <time>2014-10-01T17:41:09Z</time>
      </trkpt>
      <trkpt lat="42.4586240" lon="-7.2872100">
        <ele>356.7</ele>
        <time>2014-10-01T17:41:10Z</time>
      </trkpt>
      <trkpt lat="42.4586850" lon="-7.2874120">
        <ele>354.8</ele>
        <time>2014-10-01T17:41:11Z</time>
      </trkpt>
      <trkpt lat="42.4587450" lon="-7.2876210">
        <ele>352.8</ele>
        <time>2014-10-01T17:41:12Z</time>
      </trkpt>
      <trkpt lat="42.4588010" lon="-7.2878340">
        <ele>350.6</ele>
        <time>2014-10-01T17:41:13Z</time>
      </trkpt>
      <trkpt lat="42.4588440" lon="-7.2880390">
        <ele>348.7</ele>
        <time>2014-10-01T17:41:14Z</time>
      </trkpt>
      <trkpt lat="42.4588720" lon="-7.2882490">
        <ele>346.7</ele>
        <time>2014-10-01T17:41:15Z</time>
      </trkpt>
      <trkpt lat="42.4588880" lon="-7.2884710">
        <ele>344.7</ele>
        <time>2014-10-01T17:41:16Z</time>
      </trkpt>
      <trkpt lat="42.4588680" lon="-7.2886960">
        <ele>342.6</ele>
        <time>2014-10-01T17:41:17Z</time>
      </trkpt>
      <trkpt lat="42.4588460" lon="-7.2889140">
        <ele>340.6</ele>
        <time>2014-10-01T17:41:18Z</time>
      </trkpt>
      <trkpt lat="42.4588190" lon="-7.2891180">
        <ele>338.7</ele>
        <time>2014-10-01T17:41:19Z</time>
      </trkpt>
      <trkpt lat="42.4587920" lon="-7.2893160">
        <ele>336.9</ele>
        <time>2014-10-01T17:41:20Z</time>
      </trkpt>
      <trkpt lat="42.4587670" lon="-7.2895210">
        <ele>334.9</ele>
        <time>2014-10-01T17:41:21Z</time>
      </trkpt>
      <trkpt lat="42.4587930" lon="-7.2896880">
        <ele>333.3</ele>
        <time>2014-10-01T17:41:22Z</time>
      </trkpt>
      <trkpt lat="42.4588560" lon="-7.2898200">
        <ele>331.8</ele>
        <time>2014-10-01T17:41:23Z</time>
      </trkpt>
      <trkpt lat="42.4589220" lon="-7.2899560">
        <ele>330.2</ele>
        <time>2014-10-01T17:41:24Z</time>
      </trkpt>
      <trkpt lat="42.4590390" lon="-7.2900330">
        <ele>328.5</ele>
        <time>2014-10-01T17:41:25Z</time>
      </trkpt>
      <trkpt lat="42.4591570" lon="-7.2900720">
        <ele>326.9</ele>
        <time>2014-10-01T17:41:26Z</time>
      </trkpt>
      <trkpt lat="42.4592920" lon="-7.2900860">
        <ele>325.2</ele>
        <time>2014-10-01T17:41:27Z</time>
      </trkpt>
      <trkpt lat="42.4594380" lon="-7.2900480">
        <ele>323.4</ele>
        <time>2014-10-01T17:41:28Z</time>
      </trkpt>
      <trkpt lat="42.4595850" lon="-7.2900130">
        <ele>321.5</ele>
        <time>2014-10-01T17:41:29Z</time>
      </trkpt>
      <trkpt lat="42.4597410" lon="-7.2899710">
        <ele>319.5</ele>
        <time>2014-10-01T17:41:30Z</time>
      </trkpt>
      <trkpt lat="42.4599050" lon="-7.2899280">
        <ele>317.5</ele>
        <time>2014-10-01T17:41:31Z</time>
      </trkpt>
      <trkpt lat="42.4600680" lon="-7.2898840">
        <ele>315.5</ele>
        <time>2014-10-01T17:41:32Z</time>
      </trkpt>
      <trkpt lat="42.4602210" lon="-7.2898420">
        <ele>313.6</ele>
        <time>2014-10-01T17:41:33Z</time>
      </trkpt>
      <trkpt lat="42.4603700" lon="-7.2897860">
        <ele>311.7</ele>
        <time>2014-10-01T17:41:34Z</time>
      </trkpt>
      <trkpt lat="42.4605110" lon="-7.2896730">
        <ele>309.7</ele>
        <time>2014-10-01T17:41:35Z</time>
      </trkpt>
      <trkpt lat="42.4606480" lon="-7.2895430">
        <ele>307.5</ele>
        <time>2014-10-01T17:41:36Z</time>
      </trkpt>
      <trkpt lat="42.4607620" lon="-7.2893530">
        <ele>305.2</ele>
        <time>2014-10-01T17:41:37Z</time>
      </trkpt>
      <trkpt lat="42.4608690" lon="-7.2891500">
        <ele>302.8</ele>
        <time>2014-10-01T17:41:38Z</time>
      </trkpt>
      <trkpt lat="42.4609610" lon="-7.2889580">
        <ele>300.7</ele>
        <time>2014-10-01T17:41:39Z</time>
      </trkpt>
      <trkpt lat="42.4610380" lon="-7.2887850">
        <ele>298.7</ele>
        <time>2014-10-01T17:41:40Z</time>
      </trkpt>
      <trkpt lat="42.4611000" lon="-7.2886400">
        <ele>297.0</ele>
        <time>2014-10-01T17:41:41Z</time>
      </trkpt>
      <trkpt lat="42.4611900" lon="-7.2885390">
        <ele>295.4</ele>
        <time>2014-10-01T17:41:42Z</time>
      </trkpt>
      <trkpt lat="42.4612770" lon="-7.2884920">
        <ele>294.1</ele>
        <time>2014-10-01T17:41:43Z</time>
      </trkpt>
      <trkpt lat="42.4613730" lon="-7.2885070">
        <ele>292.8</ele>
        <time>2014-10-01T17:41:44Z</time>
      </trkpt>
      <trkpt lat="42.4614550" lon="-7.2885380">
        <ele>291.6</ele>
        <time>2014-10-01T17:41:45Z</time>
      </trkpt>
      <trkpt lat="42.4615310" lon="-7.2885930">
        <ele>291.0</ele>
        <time>2014-10-01T17:41:46Z</time>
      </trkpt>
      <trkpt lat="42.4615600" lon="-7.2887450">
        <ele>289.7</ele>
        <time>2014-10-01T17:41:47Z</time>
      </trkpt>
      <trkpt lat="42.4615630" lon="-7.2889060">
        <ele>288.3</ele>
        <time>2014-10-01T17:41:48Z</time>
      </trkpt>
      <trkpt lat="42.4615640" lon="-7.2890750">
        <ele>287.0</ele>
        <time>2014-10-01T17:41:49Z</time>
      </trkpt>
      <trkpt lat="42.4615650" lon="-7.2892540">
        <ele>285.7</ele>
        <time>2014-10-01T17:41:50Z</time>
      </trkpt>
      <trkpt lat="42.4615620" lon="-7.2894410">
        <ele>284.6</ele>
        <time>2014-10-01T17:41:51Z</time>
      </trkpt>
      <trkpt lat="42.4615550" lon="-7.2896240">
        <ele>283.6</ele>
        <time>2014-10-01T17:41:52Z</time>
      </trkpt>
      <trkpt lat="42.4615460" lon="-7.2898030">
        <ele>282.6</ele>
        <time>2014-10-01T17:41:53Z</time>
      </trkpt>
      <trkpt lat="42.4615710" lon="-7.2899650">
        <ele>281.6</ele>
        <time>2014-10-01T17:41:54Z</time>
      </trkpt>
      <trkpt lat="42.4616060" lon="-7.2901210">
        <ele>280.5</ele>
        <time>2014-10-01T17:41:55Z</time>
      </trkpt>
      <trkpt lat="42.4616770" lon="-7.2902510">
        <ele>279.4</ele>
        <time>2014-10-01T17:41:56Z</time>
      </trkpt>
      <trkpt lat="42.4617530" lon="-7.2903780">
        <ele>278.2</ele>
        <time>2014-10-01T17:41:57Z</time>
      </trkpt>
      <trkpt lat="42.4618360" lon="-7.2905070">
        <ele>277.1</ele>
        <time>2014-10-01T17:41:58Z</time>
      </trkpt>
      <trkpt lat="42.4619400" lon="-7.2906100">
        <ele>275.9</ele>
        <time>2014-10-01T17:41:59Z</time>
      </trkpt>
      <trkpt lat="42.4620520" lon="-7.2907120">
        <ele>274.7</ele>
        <time>2014-10-01T17:42:00Z</time>
      </trkpt>
      <trkpt lat="42.4621630" lon="-7.2907910">
        <ele>273.5</ele>
        <time>2014-10-01T17:42:01Z</time>
      </trkpt>
      <trkpt lat="42.4622760" lon="-7.2908140">
        <ele>272.5</ele>
        <time>2014-10-01T17:42:02Z</time>
      </trkpt>
      <trkpt lat="42.4623750" lon="-7.2907880">
        <ele>271.5</ele>
        <time>2014-10-01T17:42:03Z</time>
      </trkpt>
      <trkpt lat="42.4624560" lon="-7.2907070">
        <ele>270.4</ele>
        <time>2014-10-01T17:42:04Z</time>
      </trkpt>
      <trkpt lat="42.4625260" lon="-7.2905960">
        <ele>269.0</ele>
        <time>2014-10-01T17:42:05Z</time>
      </trkpt>
      <trkpt lat="42.4626020" lon="-7.2904660">
        <ele>267.2</ele>
        <time>2014-10-01T17:42:06Z</time>
      </trkpt>
      <trkpt lat="42.4626700" lon="-7.2903370">
        <ele>265.5</ele>
        <time>2014-10-01T17:42:07Z</time>
      </trkpt>
      <trkpt lat="42.4627330" lon="-7.2902230">
        <ele>263.9</ele>
        <time>2014-10-01T17:42:08Z</time>
      </trkpt>
      <trkpt lat="42.4627950" lon="-7.2901020">
        <ele>262.3</ele>
        <time>2014-10-01T17:42:09Z</time>
      </trkpt>
      <trkpt lat="42.4628510" lon="-7.2899950">
        <ele>260.9</ele>
        <time>2014-10-01T17:42:10Z</time>
      </trkpt>
      <trkpt lat="42.4629250" lon="-7.2899190">
        <ele>259.7</ele>
        <time>2014-10-01T17:42:11Z</time>
      </trkpt>
      <trkpt lat="42.4629970" lon="-7.2898900">
        <ele>258.9</ele>
        <time>2014-10-01T17:42:12Z</time>
      </trkpt>
      <trkpt lat="42.4630680" lon="-7.2898690">
        <ele>258.2</ele>
        <time>2014-10-01T17:42:13Z</time>
      </trkpt>
      <trkpt lat="42.4631420" lon="-7.2899380">
        <ele>257.9</ele>
        <time>2014-10-01T17:42:14Z</time>
      </trkpt>
      <trkpt lat="42.4632200" lon="-7.2900080">
        <ele>257.5</ele>
        <time>2014-10-01T17:42:15Z</time>
      </trkpt>
      <trkpt lat="42.4632920" lon="-7.2900980">
        <ele>257.1</ele>
        <time>2014-10-01T17:42:16Z</time>
      </trkpt>
      <trkpt lat="42.4633620" lon="-7.2901750">
        <ele>256.8</ele>
        <time>2014-10-01T17:42:17Z</time>
      </trkpt>
      <trkpt lat="42.4634480" lon="-7.2902150">
        <ele>256.4</ele>
        <time>2014-10-01T17:42:18Z</time>
      </trkpt>
      <trkpt lat="42.4635370" lon="-7.2902460">
        <ele>255.9</ele>
        <time>2014-10-01T17:42:19Z</time>
      </trkpt>
      <trkpt lat="42.4636300" lon="-7.2902350">
        <ele>255.5</ele>
        <time>2014-10-01T17:42:20Z</time>
      </trkpt>
      <trkpt lat="42.4637210" lon="-7.2901920">
        <ele>255.0</ele>
        <time>2014-10-01T17:42:21Z</time>
      </trkpt>
      <trkpt lat="42.4638050" lon="-7.2901470">
        <ele>254.5</ele>
        <time>2014-10-01T17:42:22Z</time>
      </trkpt>
      <trkpt lat="42.4638890" lon="-7.2900940">
        <ele>254.2</ele>
        <time>2014-10-01T17:42:23Z</time>
      </trkpt>
      <trkpt lat="42.4639620" lon="-7.2900240">
        <ele>253.9</ele>
        <time>2014-10-01T17:42:24Z</time>
      </trkpt>
      <trkpt lat="42.4640350" lon="-7.2899320">
        <ele>253.7</ele>
        <time>2014-10-01T17:42:25Z</time>
      </trkpt>
      <trkpt lat="42.4641100" lon="-7.2898370">
        <ele>253.5</ele>
        <time>2014-10-01T17:42:26Z</time>
      </trkpt>
      <trkpt lat="42.4641720" lon="-7.2897510">
        <ele>253.2</ele>
        <time>2014-10-01T17:42:27Z</time>
      </trkpt>
      <trkpt lat="42.4642590" lon="-7.2896900">
        <ele>252.9</ele>
        <time>2014-10-01T17:42:28Z</time>
      </trkpt>
      <trkpt lat="42.4643620" lon="-7.2896680">
        <ele>252.5</ele>
        <time>2014-10-01T17:42:29Z</time>
      </trkpt>
      <trkpt lat="42.4644520" lon="-7.2896970">
        <ele>252.1</ele>
        <time>2014-10-01T17:42:30Z</time>
      </trkpt>
      <trkpt lat="42.4645460" lon="-7.2897290">
        <ele>251.6</ele>
        <time>2014-10-01T17:42:31Z</time>
      </trkpt>
      <trkpt lat="42.4646420" lon="-7.2897590">
        <ele>251.0</ele>
        <time>2014-10-01T17:42:32Z</time>
      </trkpt>
      <trkpt lat="42.4647440" lon="-7.2897500">
        <ele>250.4</ele>
        <time>2014-10-01T17:42:33Z</time>
      </trkpt>
      <trkpt lat="42.4648320" lon="-7.2897350">
        <ele>249.8</ele>
        <time>2014-10-01T17:42:34Z</time>
      </trkpt>
      <trkpt lat="42.4649330" lon="-7.2897110">
        <ele>249.0</ele>
        <time>2014-10-01T17:42:35Z</time>
      </trkpt>
      <trkpt lat="42.4650310" lon="-7.2896860">
        <ele>248.2</ele>
        <time>2014-10-01T17:42:36Z</time>
      </trkpt>
      <trkpt lat="42.4651230" lon="-7.2896610">
        <ele>247.7</ele>
        <time>2014-10-01T17:42:37Z</time>
      </trkpt>
      <trkpt lat="42.4652100" lon="-7.2896360">
        <ele>247.6</ele>
        <time>2014-10-01T17:42:38Z</time>
      </trkpt>
      <trkpt lat="42.4652890" lon="-7.2896180">
        <ele>247.5</ele>
        <time>2014-10-01T17:42:39Z</time>
      </trkpt>
      <trkpt lat="42.4653530" lon="-7.2896060">
        <ele>247.4</ele>
        <time>2014-10-01T17:42:40Z</time>
      </trkpt>
      <trkpt lat="42.4654040" lon="-7.2895960">
        <ele>247.3</ele>
        <time>2014-10-01T17:42:41Z</time>
      </trkpt>
      <trkpt lat="42.4654570" lon="-7.2895860">
        <ele>247.2</ele>
        <time>2014-10-01T17:42:42Z</time>
      </trkpt>
      <trkpt lat="42.4654870" lon="-7.2895690">
        <ele>247.1</ele>
        <time>2014-10-01T17:42:43Z</time>
      </trkpt>
      <trkpt lat="42.4655050" lon="-7.2895290">
        <ele>247.1</ele>
        <time>2014-10-01T17:42:44Z</time>
      </trkpt>
      <trkpt lat="42.4655110" lon="-7.2894800">
        <ele>247.0</ele>
        <time>2014-10-01T17:42:45Z</time>
      </trkpt>
      <trkpt lat="42.4655070" lon="-7.2894260">
        <ele>246.9</ele>
        <time>2014-10-01T17:42:46Z</time>
      </trkpt>
      <trkpt lat="42.4655010" lon="-7.2893760">
        <ele>246.9</ele>
        <time>2014-10-01T17:42:47Z</time>
      </trkpt>
      <trkpt lat="42.4654950" lon="-7.2893170">
        <ele>246.8</ele>
        <time>2014-10-01T17:42:48Z</time>
      </trkpt>
      <trkpt lat="42.4654880" lon="-7.2892630">
        <ele>246.7</ele>
        <time>2014-10-01T17:42:49Z</time>
      </trkpt>
      <trkpt lat="42.4654820" lon="-7.2892060">
        <ele>246.6</ele>
        <time>2014-10-01T17:42:50Z</time>
      </trkpt>
      <trkpt lat="42.4654750" lon="-7.2891430">
        <ele>246.6</ele>
        <time>2014-10-01T17:42:51Z</time>
      </trkpt>
      <trkpt lat="42.4654680" lon="-7.2890780">
        <ele>246.5</ele>
        <time>2014-10-01T17:42:52Z</time>
      </trkpt>
      <trkpt lat="42.4654580" lon="-7.2890050">
        <ele>246.4</ele>
        <time>2014-10-01T17:42:53Z</time>
      </trkpt>
      <trkpt lat="42.4654470" lon="-7.2889250">
        <ele>246.3</ele>
        <time>2014-10-01T17:42:54Z</time>
      </trkpt>
      <trkpt lat="42.4654360" lon="-7.2888400">
        <ele>246.2</ele>
        <time>2014-10-01T17:42:55Z</time>
      </trkpt>
      <trkpt lat="42.4654280" lon="-7.2887480">
        <ele>246.0</ele>
        <time>2014-10-01T17:42:56Z</time>
      </trkpt>
      <trkpt lat="42.4654210" lon="-7.2886660">
        <ele>245.9</ele>
        <time>2014-10-01T17:42:57Z</time>
      </trkpt>
      <trkpt lat="42.4654150" lon="-7.2885880">
        <ele>245.9</ele>
        <time>2014-10-01T17:42:58Z</time>
      </trkpt>
      <trkpt lat="42.4654100" lon="-7.2885070">
        <ele>245.8</ele>
        <time>2014-10-01T17:42:59Z</time>
      </trkpt>
      <trkpt lat="42.4654030" lon="-7.2884270">
        <ele>245.7</ele>
        <time>2014-10-01T17:43:00Z</time>
      </trkpt>
      <trkpt lat="42.4653920" lon="-7.2883480">
        <ele>245.6</ele>
        <time>2014-10-01T17:43:01Z</time>
      </trkpt>
      <trkpt lat="42.4653810" lon="-7.2882680">
        <ele>245.5</ele>
        <time>2014-10-01T17:43:02Z</time>
      </trkpt>
      <trkpt lat="42.4653700" lon="-7.2881890">
        <ele>245.5</ele>
        <time>2014-10-01T17:43:03Z</time>
      </trkpt>
      <trkpt lat="42.4653610" lon="-7.2881080">
        <ele>245.4</ele>
        <time>2014-10-01T17:43:04Z</time>
      </trkpt>
      <trkpt lat="42.4653740" lon="-7.2880200">
        <ele>245.3</ele>
        <time>2014-10-01T17:43:05Z</time>
      </trkpt>
      <trkpt lat="42.4653970" lon="-7.2879510">
        <ele>245.2</ele>
        <time>2014-10-01T17:43:06Z</time>
      </trkpt>
      <trkpt lat="42.4654220" lon="-7.2878800">
        <ele>245.1</ele>
        <time>2014-10-01T17:43:07Z</time>
      </trkpt>
      <trkpt lat="42.4654630" lon="-7.2878200">
        <ele>245.0</ele>
        <time>2014-10-01T17:43:08Z</time>
      </trkpt>
      <trkpt lat="42.4655060" lon="-7.2877630">
        <ele>244.7</ele>
        <time>2014-10-01T17:43:09Z</time>
      </trkpt>
      <trkpt lat="42.4655540" lon="-7.2877080">
        <ele>244.4</ele>
        <time>2014-10-01T17:43:10Z</time>
      </trkpt>
      <trkpt lat="42.4656120" lon="-7.2876520">
        <ele>244.2</ele>
        <time>2014-10-01T17:43:11Z</time>
      </trkpt>
      <trkpt lat="42.4656690" lon="-7.2876020">
        <ele>244.1</ele>
        <time>2014-10-01T17:43:12Z</time>
      </trkpt>
      <trkpt lat="42.4657360" lon="-7.2875480">
        <ele>243.9</ele>
        <time>2014-10-01T17:43:13Z</time>
      </trkpt>
      <trkpt lat="42.4657860" lon="-7.2875040">
        <ele>243.8</ele>
        <time>2014-10-01T17:43:14Z</time>
      </trkpt>
      <trkpt lat="42.4658400" lon="-7.2874610">
        <ele>243.7</ele>
        <time>2014-10-01T17:43:15Z</time>
      </trkpt>
      <trkpt lat="42.4659030" lon="-7.2874130">
        <ele>243.5</ele>
        <time>2014-10-01T17:43:16Z</time>
      </trkpt>
      <trkpt lat="42.4659710" lon="-7.2873670">
        <ele>243.4</ele>
        <time>2014-10-01T17:43:17Z</time>
      </trkpt>
      <trkpt lat="42.4660470" lon="-7.2873060">
        <ele>243.2</ele>
        <time>2014-10-01T17:43:18Z</time>
      </trkpt>
      <trkpt lat="42.4661150" lon="-7.2872390">
        <ele>242.7</ele>
        <time>2014-10-01T17:43:19Z</time>
      </trkpt>
      <trkpt lat="42.4661710" lon="-7.2871580">
        <ele>242.1</ele>
        <time>2014-10-01T17:43:20Z</time>
      </trkpt>
      <trkpt lat="42.4662130" lon="-7.2870520">
        <ele>241.4</ele>
        <time>2014-10-01T17:43:21Z</time>
      </trkpt>
      <trkpt lat="42.4662210" lon="-7.2869390">
        <ele>241.2</ele>
        <time>2014-10-01T17:43:22Z</time>
      </trkpt>
      <trkpt lat="42.4662320" lon="-7.2868230">
        <ele>241.1</ele>
        <time>2014-10-01T17:43:23Z</time>
      </trkpt>
      <trkpt lat="42.4662470" lon="-7.2867150">
        <ele>240.9</ele>
        <time>2014-10-01T17:43:24Z</time>
      </trkpt>
      <trkpt lat="42.4662650" lon="-7.2866040">
        <ele>240.6</ele>
        <time>2014-10-01T17:43:25Z</time>
      </trkpt>
      <trkpt lat="42.4662900" lon="-7.2864870">
        <ele>240.4</ele>
        <time>2014-10-01T17:43:26Z</time>
      </trkpt>
      <trkpt lat="42.4663370" lon="-7.2863760">
        <ele>240.2</ele>
        <time>2014-10-01T17:43:27Z</time>
      </trkpt>
      <trkpt lat="42.4663790" lon="-7.2862750">
        <ele>240.1</ele>
        <time>2014-10-01T17:43:28Z</time>
      </trkpt>
      <trkpt lat="42.4664290" lon="-7.2861780">
        <ele>240.0</ele>
        <time>2014-10-01T17:43:29Z</time>
      </trkpt>
      <trkpt lat="42.4664800" lon="-7.2860910">
        <ele>239.9</ele>
        <time>2014-10-01T17:43:30Z</time>
      </trkpt>
      <trkpt lat="42.4665340" lon="-7.2860070">
        <ele>239.8</ele>
        <time>2014-10-01T17:43:31Z</time>
      </trkpt>
      <trkpt lat="42.4665950" lon="-7.2859230">
        <ele>239.7</ele>
        <time>2014-10-01T17:43:32Z</time>
      </trkpt>
      <trkpt lat="42.4666590" lon="-7.2858420">
        <ele>239.7</ele>
        <time>2014-10-01T17:43:33Z</time>
      </trkpt>
      <trkpt lat="42.4667240" lon="-7.2857590">
        <ele>239.7</ele>
        <time>2014-10-01T17:43:34Z</time>
      </trkpt>
      <trkpt lat="42.4667870" lon="-7.2856800">
        <ele>239.7</ele>
        <time>2014-10-01T17:43:35Z</time>
      </trkpt>
      <trkpt lat="42.4668540" lon="-7.2856050">
        <ele>239.6</ele>
        <time>2014-10-01T17:43:36Z</time>
      </trkpt>
      <trkpt lat="42.4669190" lon="-7.2855260">
        <ele>239.6</ele>
        <time>2014-10-01T17:43:37Z</time>
      </trkpt>
      <trkpt lat="42.4669810" lon="-7.2854480">
        <ele>239.5</ele>
        <time>2014-10-01T17:43:38Z</time>
      </trkpt>
      <trkpt lat="42.4670470" lon="-7.2853600">
        <ele>239.4</ele>
        <time>2014-10-01T17:43:39Z</time>
      </trkpt>
      <trkpt lat="42.4671120" lon="-7.2852710">
        <ele>239.4</ele>
        <time>2014-10-01T17:43:40Z</time>
      </trkpt>
      <trkpt lat="42.4671770" lon="-7.2851800">
        <ele>239.3</ele>
        <time>2014-10-01T17:43:41Z</time>
      </trkpt>
      <trkpt lat="42.4672390" lon="-7.2850920">
        <ele>239.2</ele>
        <time>2014-10-01T17:43:42Z</time>
      </trkpt>
      <trkpt lat="42.4672990" lon="-7.2850040">
        <ele>239.2</ele>
        <time>2014-10-01T17:43:43Z</time>
      </trkpt>
      <trkpt lat="42.4673600" lon="-7.2849180">
        <ele>239.2</ele>
        <time>2014-10-01T17:43:44Z</time>
      </trkpt>
      <trkpt lat="42.4674190" lon="-7.2848370">
        <ele>239.3</ele>
        <time>2014-10-01T17:43:45Z</time>
      </trkpt>
      <trkpt lat="42.4674800" lon="-7.2847560">
        <ele>239.3</ele>
        <time>2014-10-01T17:43:46Z</time>
      </trkpt>
      <trkpt lat="42.4675390" lon="-7.2846780">
        <ele>239.4</ele>
        <time>2014-10-01T17:43:47Z</time>
      </trkpt>
      <trkpt lat="42.4675970" lon="-7.2845980">
        <ele>239.4</ele>
        <time>2014-10-01T17:43:48Z</time>
      </trkpt>
      <trkpt lat="42.4676480" lon="-7.2845250">
        <ele>239.3</ele>
        <time>2014-10-01T17:43:49Z</time>
      </trkpt>
      <trkpt lat="42.4677030" lon="-7.2844460">
        <ele>239.3</ele>
        <time>2014-10-01T17:43:50Z</time>
      </trkpt>
      <trkpt lat="42.4677610" lon="-7.2843620">
        <ele>239.4</ele>
        <time>2014-10-01T17:43:51Z</time>
      </trkpt>
      <trkpt lat="42.4678150" lon="-7.2842840">
        <ele>239.4</ele>
        <time>2014-10-01T17:43:52Z</time>
      </trkpt>
      <trkpt lat="42.4678660" lon="-7.2842090">
        <ele>239.5</ele>
        <time>2014-10-01T17:43:53Z</time>
      </trkpt>
      <trkpt lat="42.4679160" lon="-7.2841370">
        <ele>239.5</ele>
        <time>2014-10-01T17:43:54Z</time>
      </trkpt>
      <trkpt lat="42.4679290" lon="-7.2840800">
        <ele>239.6</ele>
        <time>2014-10-01T17:43:55Z</time>
      </trkpt>
      <trkpt lat="42.4679420" lon="-7.2840240">
        <ele>239.7</ele>
        <time>2014-10-01T17:43:56Z</time>
      </trkpt>
      <trkpt lat="42.4679970" lon="-7.2839650">
        <ele>239.7</ele>
        <time>2014-10-01T17:43:57Z</time>
      </trkpt>
      <trkpt lat="42.4680650" lon="-7.2838800">
        <ele>239.7</ele>
        <time>2014-10-01T17:43:58Z</time>
      </trkpt>
      <trkpt lat="42.4681250" lon="-7.2838020">
        <ele>239.6</ele>
        <time>2014-10-01T17:43:59Z</time>
      </trkpt>
      <trkpt lat="42.4681910" lon="-7.2837250">
        <ele>239.6</ele>
        <time>2014-10-01T17:44:00Z</time>
      </trkpt>
      <trkpt lat="42.4682690" lon="-7.2836390">
        <ele>239.7</ele>
        <time>2014-10-01T17:44:01Z</time>
      </trkpt>
      <trkpt lat="42.4683430" lon="-7.2835540">
        <ele>239.7</ele>
        <time>2014-10-01T17:44:02Z</time>
      </trkpt>
      <trkpt lat="42.4684070" lon="-7.2834750">
        <ele>239.7</ele>
        <time>2014-10-01T17:44:03Z</time>
      </trkpt>
      <trkpt lat="42.4684680" lon="-7.2833990">
        <ele>239.7</ele>
        <time>2014-10-01T17:44:04Z</time>
      </trkpt>
      <trkpt lat="42.4685280" lon="-7.2833220">
        <ele>239.7</ele>
        <time>2014-10-01T17:44:05Z</time>
      </trkpt>
      <trkpt lat="42.4685840" lon="-7.2832470">
        <ele>239.7</ele>
        <time>2014-10-01T17:44:06Z</time>
      </trkpt>
      <trkpt lat="42.4686380" lon="-7.2831750">
        <ele>239.7</ele>
        <time>2014-10-01T17:44:07Z</time>
      </trkpt>
      <trkpt lat="42.4686910" lon="-7.2831030">
        <ele>239.7</ele>
        <time>2014-10-01T17:44:08Z</time>
      </trkpt>
      <trkpt lat="42.4687430" lon="-7.2830320">
        <ele>239.8</ele>
        <time>2014-10-01T17:44:09Z</time>
      </trkpt>
      <trkpt lat="42.4687950" lon="-7.2829610">
        <ele>239.8</ele>
        <time>2014-10-01T17:44:10Z</time>
      </trkpt>
      <trkpt lat="42.4688480" lon="-7.2828910">
        <ele>239.8</ele>
        <time>2014-10-01T17:44:11Z</time>
      </trkpt>
      <trkpt lat="42.4689030" lon="-7.2828190">
        <ele>239.8</ele>
        <time>2014-10-01T17:44:12Z</time>
      </trkpt>
      <trkpt lat="42.4689600" lon="-7.2827470">
        <ele>239.8</ele>
        <time>2014-10-01T17:44:13Z</time>
      </trkpt>
      <trkpt lat="42.4690160" lon="-7.2826760">
        <ele>239.8</ele>
        <time>2014-10-01T17:44:14Z</time>
      </trkpt>
      <trkpt lat="42.4690700" lon="-7.2826080">
        <ele>239.7</ele>
        <time>2014-10-01T17:44:15Z</time>
      </trkpt>
      <trkpt lat="42.4691250" lon="-7.2825360">
        <ele>239.7</ele>
        <time>2014-10-01T17:44:16Z</time>
      </trkpt>
      <trkpt lat="42.4691800" lon="-7.2824650">
        <ele>239.7</ele>
        <time>2014-10-01T17:44:17Z</time>
      </trkpt>
      <trkpt lat="42.4692350" lon="-7.2823920">
        <ele>239.6</ele>
        <time>2014-10-01T17:44:18Z</time>
      </trkpt>
      <trkpt lat="42.4692890" lon="-7.2823210">
        <ele>239.5</ele>
        <time>2014-10-01T17:44:19Z</time>
      </trkpt>
      <trkpt lat="42.4693410" lon="-7.2822480">
        <ele>239.5</ele>
        <time>2014-10-01T17:44:20Z</time>
      </trkpt>
      <trkpt lat="42.4693960" lon="-7.2821730">
        <ele>239.5</ele>
        <time>2014-10-01T17:44:21Z</time>
      </trkpt>
      <trkpt lat="42.4694470" lon="-7.2820980">
        <ele>239.4</ele>
        <time>2014-10-01T17:44:22Z</time>
      </trkpt>
      <trkpt lat="42.4694970" lon="-7.2820230">
        <ele>239.4</ele>
        <time>2014-10-01T17:44:23Z</time>
      </trkpt>
      <trkpt lat="42.4695470" lon="-7.2819490">
        <ele>239.4</ele>
        <time>2014-10-01T17:44:24Z</time>
      </trkpt>
      <trkpt lat="42.4696010" lon="-7.2818740">
        <ele>239.3</ele>
        <time>2014-10-01T17:44:25Z</time>
      </trkpt>
      <trkpt lat="42.4696590" lon="-7.2817960">
        <ele>239.3</ele>
        <time>2014-10-01T17:44:26Z</time>
      </trkpt>
      <trkpt lat="42.4697160" lon="-7.2817190">
        <ele>239.3</ele>
        <time>2014-10-01T17:44:27Z</time>
      </trkpt>
      <trkpt lat="42.4697740" lon="-7.2816410">
        <ele>239.2</ele>
        <time>2014-10-01T17:44:28Z</time>
      </trkpt>
      <trkpt lat="42.4698310" lon="-7.2815640">
        <ele>239.2</ele>
        <time>2014-10-01T17:44:29Z</time>
      </trkpt>
      <trkpt lat="42.4698840" lon="-7.2814880">
        <ele>239.1</ele>
        <time>2014-10-01T17:44:30Z</time>
      </trkpt>
      <trkpt lat="42.4699360" lon="-7.2814120">
        <ele>239.3</ele>
        <time>2014-10-01T17:44:31Z</time>
      </trkpt>
      <trkpt lat="42.4699890" lon="-7.2813390">
        <ele>239.5</ele>
        <time>2014-10-01T17:44:32Z</time>
      </trkpt>
      <trkpt lat="42.4700460" lon="-7.2812680">
        <ele>239.6</ele>
        <time>2014-10-01T17:44:33Z</time>
      </trkpt>
      <trkpt lat="42.4701000" lon="-7.2812060">
        <ele>239.8</ele>
        <time>2014-10-01T17:44:34Z</time>
      </trkpt>
      <trkpt lat="42.4701550" lon="-7.2811530">
        <ele>239.9</ele>
        <time>2014-10-01T17:44:35Z</time>
      </trkpt>
      <trkpt lat="42.4702100" lon="-7.2811080">
        <ele>240.0</ele>
        <time>2014-10-01T17:44:36Z</time>
      </trkpt>
      <trkpt lat="42.4702710" lon="-7.2810670">
        <ele>240.1</ele>
        <time>2014-10-01T17:44:37Z</time>
      </trkpt>
      <trkpt lat="42.4703350" lon="-7.2810330">
        <ele>240.3</ele>
        <time>2014-10-01T17:44:38Z</time>
      </trkpt>
      <trkpt lat="42.4703980" lon="-7.2810050">
        <ele>240.6</ele>
        <time>2014-10-01T17:44:39Z</time>
      </trkpt>
      <trkpt lat="42.4704610" lon="-7.2809820">
        <ele>240.8</ele>
        <time>2014-10-01T17:44:40Z</time>
      </trkpt>
      <trkpt lat="42.4705260" lon="-7.2809650">
        <ele>241.0</ele>
        <time>2014-10-01T17:44:41Z</time>
      </trkpt>
      <trkpt lat="42.4705970" lon="-7.2809650">
        <ele>241.1</ele>
        <time>2014-10-01T17:44:42Z</time>
      </trkpt>
      <trkpt lat="42.4706660" lon="-7.2809650">
        <ele>241.2</ele>
        <time>2014-10-01T17:44:43Z</time>
      </trkpt>
      <trkpt lat="42.4707320" lon="-7.2809670">
        <ele>241.3</ele>
        <time>2014-10-01T17:44:44Z</time>
      </trkpt>
      <trkpt lat="42.4707960" lon="-7.2809670">
        <ele>241.4</ele>
        <time>2014-10-01T17:44:45Z</time>
      </trkpt>
      <trkpt lat="42.4708630" lon="-7.2809690">
        <ele>241.5</ele>
        <time>2014-10-01T17:44:46Z</time>
      </trkpt>
      <trkpt lat="42.4709270" lon="-7.2809700">
        <ele>241.6</ele>
        <time>2014-10-01T17:44:47Z</time>
      </trkpt>
      <trkpt lat="42.4709890" lon="-7.2809710">
        <ele>241.7</ele>
        <time>2014-10-01T17:44:48Z</time>
      </trkpt>
      <trkpt lat="42.4710520" lon="-7.2809730">
        <ele>241.7</ele>
        <time>2014-10-01T17:44:49Z</time>
      </trkpt>
      <trkpt lat="42.4711160" lon="-7.2809740">
        <ele>241.8</ele>
        <time>2014-10-01T17:44:50Z</time>
      </trkpt>
      <trkpt lat="42.4711800" lon="-7.2809740">
        <ele>241.8</ele>
        <time>2014-10-01T17:44:51Z</time>
      </trkpt>
      <trkpt lat="42.4712450" lon="-7.2809750">
        <ele>241.8</ele>
        <time>2014-10-01T17:44:52Z</time>
      </trkpt>
      <trkpt lat="42.4713110" lon="-7.2809760">
        <ele>241.8</ele>
        <time>2014-10-01T17:44:53Z</time>
      </trkpt>
      <trkpt lat="42.4713780" lon="-7.2809780">
        <ele>241.8</ele>
        <time>2014-10-01T17:44:54Z</time>
      </trkpt>
      <trkpt lat="42.4714450" lon="-7.2809770">
        <ele>241.8</ele>
        <time>2014-10-01T17:44:55Z</time>
      </trkpt>
      <trkpt lat="42.4715100" lon="-7.2809770">
        <ele>241.8</ele>
        <time>2014-10-01T17:44:56Z</time>
      </trkpt>
      <trkpt lat="42.4715830" lon="-7.2809760">
        <ele>241.8</ele>
        <time>2014-10-01T17:44:57Z</time>
      </trkpt>
      <trkpt lat="42.4716550" lon="-7.2809750">
        <ele>241.8</ele>
        <time>2014-10-01T17:44:58Z</time>
      </trkpt>
      <trkpt lat="42.4717270" lon="-7.2809740">
        <ele>241.8</ele>
        <time>2014-10-01T17:44:59Z</time>
      </trkpt>
      <trkpt lat="42.4717990" lon="-7.2809770">
        <ele>241.9</ele>
        <time>2014-10-01T17:45:00Z</time>
      </trkpt>
      <trkpt lat="42.4718690" lon="-7.2809800">
        <ele>241.9</ele>
        <time>2014-10-01T17:45:01Z</time>
      </trkpt>
      <trkpt lat="42.4719400" lon="-7.2809830">
        <ele>241.9</ele>
        <time>2014-10-01T17:45:02Z</time>
      </trkpt>
      <trkpt lat="42.4720090" lon="-7.2809860">
        <ele>241.9</ele>
        <time>2014-10-01T17:45:03Z</time>
      </trkpt>
      <trkpt lat="42.4720810" lon="-7.2809880">
        <ele>241.8</ele>
        <time>2014-10-01T17:45:04Z</time>
      </trkpt>
      <trkpt lat="42.4721510" lon="-7.2809890">
        <ele>241.8</ele>
        <time>2014-10-01T17:45:05Z</time>
      </trkpt>
      <trkpt lat="42.4722220" lon="-7.2809910">
        <ele>241.8</ele>
        <time>2014-10-01T17:45:06Z</time>
      </trkpt>
      <trkpt lat="42.4722930" lon="-7.2809920">
        <ele>241.8</ele>
        <time>2014-10-01T17:45:07Z</time>
      </trkpt>
      <trkpt lat="42.4723630" lon="-7.2809930">
        <ele>241.7</ele>
        <time>2014-10-01T17:45:08Z</time>
      </trkpt>
      <trkpt lat="42.4724340" lon="-7.2809950">
        <ele>241.7</ele>
        <time>2014-10-01T17:45:09Z</time>
      </trkpt>
      <trkpt lat="42.4725050" lon="-7.2809950">
        <ele>241.6</ele>
        <time>2014-10-01T17:45:10Z</time>
      </trkpt>
      <trkpt lat="42.4725720" lon="-7.2809920">
        <ele>241.5</ele>
        <time>2014-10-01T17:45:11Z</time>
      </trkpt>
      <trkpt lat="42.4726420" lon="-7.2809840">
        <ele>241.5</ele>
        <time>2014-10-01T17:45:12Z</time>
      </trkpt>
      <trkpt lat="42.4727080" lon="-7.2809730">
        <ele>241.6</ele>
        <time>2014-10-01T17:45:13Z</time>
      </trkpt>
      <trkpt lat="42.4727780" lon="-7.2809560">
        <ele>241.7</ele>
        <time>2014-10-01T17:45:14Z</time>
      </trkpt>
      <trkpt lat="42.4728490" lon="-7.2809310">
        <ele>241.7</ele>
        <time>2014-10-01T17:45:15Z</time>
      </trkpt>
      <trkpt lat="42.4729150" lon="-7.2809020">
        <ele>241.8</ele>
        <time>2014-10-01T17:45:16Z</time>
      </trkpt>
      <trkpt lat="42.4729780" lon="-7.2808500">
        <ele>241.9</ele>
        <time>2014-10-01T17:45:17Z</time>
      </trkpt>
      <trkpt lat="42.4730370" lon="-7.2807960">
        <ele>242.2</ele>
        <time>2014-10-01T17:45:18Z</time>
      </trkpt>
      <trkpt lat="42.4730870" lon="-7.2807250">
        <ele>242.5</ele>
        <time>2014-10-01T17:45:19Z</time>
      </trkpt>
      <trkpt lat="42.4731350" lon="-7.2806470">
        <ele>242.8</ele>
        <time>2014-10-01T17:45:20Z</time>
      </trkpt>
      <trkpt lat="42.4731680" lon="-7.2805580">
        <ele>243.0</ele>
        <time>2014-10-01T17:45:21Z</time>
      </trkpt>
      <trkpt lat="42.4731930" lon="-7.2804790">
        <ele>243.2</ele>
        <time>2014-10-01T17:45:22Z</time>
      </trkpt>
      <trkpt lat="42.4732160" lon="-7.2804010">
        <ele>243.5</ele>
        <time>2014-10-01T17:45:23Z</time>
      </trkpt>
      <trkpt lat="42.4732250" lon="-7.2803170">
        <ele>243.7</ele>
        <time>2014-10-01T17:45:24Z</time>
      </trkpt>
      <trkpt lat="42.4732360" lon="-7.2802360">
        <ele>244.0</ele>
        <time>2014-10-01T17:45:25Z</time>
      </trkpt>
      <trkpt lat="42.4732470" lon="-7.2801590">
        <ele>244.3</ele>
        <time>2014-10-01T17:45:26Z</time>
      </trkpt>
      <trkpt lat="42.4732560" lon="-7.2800850">
        <ele>244.6</ele>
        <time>2014-10-01T17:45:27Z</time>
      </trkpt>
      <trkpt lat="42.4732690" lon="-7.2800180">
        <ele>244.9</ele>
        <time>2014-10-01T17:45:28Z</time>
      </trkpt>
      <trkpt lat="42.4732830" lon="-7.2799480">
        <ele>245.2</ele>
        <time>2014-10-01T17:45:29Z</time>
      </trkpt>
      <trkpt lat="42.4732970" lon="-7.2798870">
        <ele>245.7</ele>
        <time>2014-10-01T17:45:30Z</time>
      </trkpt>
      <trkpt lat="42.4733060" lon="-7.2798380">
        <ele>246.0</ele>
        <time>2014-10-01T17:45:31Z</time>
      </trkpt>
      <trkpt lat="42.4733150" lon="-7.2797830">
        <ele>246.4</ele>
        <time>2014-10-01T17:45:32Z</time>
      </trkpt>
      <trkpt lat="42.4733260" lon="-7.2797220">
        <ele>246.8</ele>
        <time>2014-10-01T17:45:33Z</time>
      </trkpt>
      <trkpt lat="42.4733390" lon="-7.2796650">
        <ele>247.2</ele>
        <time>2014-10-01T17:45:34Z</time>
      </trkpt>
      <trkpt lat="42.4733520" lon="-7.2796070">
        <ele>247.6</ele>
        <time>2014-10-01T17:45:35Z</time>
      </trkpt>
      <trkpt lat="42.4733700" lon="-7.2795410">
        <ele>248.1</ele>
        <time>2014-10-01T17:45:36Z</time>
      </trkpt>
      <trkpt lat="42.4733910" lon="-7.2794790">
        <ele>248.5</ele>
        <time>2014-10-01T17:45:37Z</time>
      </trkpt>
      <trkpt lat="42.4734120" lon="-7.2794180">
        <ele>248.9</ele>
        <time>2014-10-01T17:45:38Z</time>
      </trkpt>
      <trkpt lat="42.4734360" lon="-7.2793590">
        <ele>248.8</ele>
        <time>2014-10-01T17:45:39Z</time>
      </trkpt>
      <trkpt lat="42.4734590" lon="-7.2793040">
        <ele>248.5</ele>
        <time>2014-10-01T17:45:40Z</time>
      </trkpt>
      <trkpt lat="42.4734820" lon="-7.2792480">
        <ele>248.6</ele>
        <time>2014-10-01T17:45:41Z</time>
      </trkpt>
      <trkpt lat="42.4735070" lon="-7.2791940">
        <ele>248.9</ele>
        <time>2014-10-01T17:45:42Z</time>
      </trkpt>
      <trkpt lat="42.4735280" lon="-7.2791430">
        <ele>249.1</ele>
        <time>2014-10-01T17:45:43Z</time>
      </trkpt>
      <trkpt lat="42.4735470" lon="-7.2790980">
        <ele>249.4</ele>
        <time>2014-10-01T17:45:44Z</time>
      </trkpt>
      <trkpt lat="42.4735690" lon="-7.2790510">
        <ele>249.6</ele>
        <time>2014-10-01T17:45:45Z</time>
      </trkpt>
      <trkpt lat="42.4735920" lon="-7.2790040">
        <ele>249.9</ele>
        <time>2014-10-01T17:45:46Z</time>
      </trkpt>
      <trkpt lat="42.4736150" lon="-7.2789560">
        <ele>250.1</ele>
        <time>2014-10-01T17:45:47Z</time>
      </trkpt>
      <trkpt lat="42.4736360" lon="-7.2789090">
        <ele>250.4</ele>
        <time>2014-10-01T17:45:48Z</time>
      </trkpt>
      <trkpt lat="42.4736600" lon="-7.2788560">
        <ele>250.6</ele>
        <time>2014-10-01T17:45:49Z</time>
      </trkpt>
      <trkpt lat="42.4736870" lon="-7.2788040">
        <ele>250.8</ele>
        <time>2014-10-01T17:45:50Z</time>
      </trkpt>
      <trkpt lat="42.4737160" lon="-7.2787550">
        <ele>250.9</ele>
        <time>2014-10-01T17:45:51Z</time>
      </trkpt>
      <trkpt lat="42.4737470" lon="-7.2787080">
        <ele>251.1</ele>
        <time>2014-10-01T17:45:52Z</time>
      </trkpt>
      <trkpt lat="42.4737810" lon="-7.2786580">
        <ele>251.2</ele>
        <time>2014-10-01T17:45:53Z</time>
      </trkpt>
      <trkpt lat="42.4738140" lon="-7.2786100">
        <ele>251.4</ele>
        <time>2014-10-01T17:45:54Z</time>
      </trkpt>
      <trkpt lat="42.4738440" lon="-7.2785670">
        <ele>251.6</ele>
        <time>2014-10-01T17:45:55Z</time>
      </trkpt>
      <trkpt lat="42.4738710" lon="-7.2785270">
        <ele>251.7</ele>
        <time>2014-10-01T17:45:56Z</time>
      </trkpt>
      <trkpt lat="42.4739000" lon="-7.2784860">
        <ele>252.0</ele>
        <time>2014-10-01T17:45:57Z</time>
      </trkpt>
      <trkpt lat="42.4739290" lon="-7.2784440">
        <ele>252.4</ele>
        <time>2014-10-01T17:45:58Z</time>
      </trkpt>
      <trkpt lat="42.4739570" lon="-7.2784030">
        <ele>252.7</ele>
        <time>2014-10-01T17:45:59Z</time>
      </trkpt>
      <trkpt lat="42.4739840" lon="-7.2783630">
        <ele>253.1</ele>
        <time>2014-10-01T17:46:00Z</time>
      </trkpt>
      <trkpt lat="42.4740130" lon="-7.2783190">
        <ele>253.4</ele>
        <time>2014-10-01T17:46:01Z</time>
      </trkpt>
      <trkpt lat="42.4740390" lon="-7.2782790">
        <ele>253.8</ele>
        <time>2014-10-01T17:46:02Z</time>
      </trkpt>
      <trkpt lat="42.4740670" lon="-7.2782360">
        <ele>254.1</ele>
        <time>2014-10-01T17:46:03Z</time>
      </trkpt>
      <trkpt lat="42.4740940" lon="-7.2781950">
        <ele>254.5</ele>
        <time>2014-10-01T17:46:04Z</time>
      </trkpt>
      <trkpt lat="42.4741210" lon="-7.2781570">
        <ele>254.8</ele>
        <time>2014-10-01T17:46:05Z</time>
      </trkpt>
      <trkpt lat="42.4741460" lon="-7.2781250">
        <ele>255.1</ele>
        <time>2014-10-01T17:46:06Z</time>
      </trkpt>
      <trkpt lat="42.4741730" lon="-7.2780860">
        <ele>255.5</ele>
        <time>2014-10-01T17:46:07Z</time>
      </trkpt>
      <trkpt lat="42.4741980" lon="-7.2780430">
        <ele>255.8</ele>
        <time>2014-10-01T17:46:08Z</time>
      </trkpt>
      <trkpt lat="42.4742280" lon="-7.2779970">
        <ele>256.2</ele>
        <time>2014-10-01T17:46:09Z</time>
      </trkpt>
      <trkpt lat="42.4742540" lon="-7.2779570">
        <ele>256.4</ele>
        <time>2014-10-01T17:46:10Z</time>
      </trkpt>
      <trkpt lat="42.4742790" lon="-7.2779160">
        <ele>256.5</ele>
        <time>2014-10-01T17:46:11Z</time>
      </trkpt>
      <trkpt lat="42.4743060" lon="-7.2778700">
        <ele>256.7</ele>
        <time>2014-10-01T17:46:12Z</time>
      </trkpt>
      <trkpt lat="42.4743310" lon="-7.2778270">
        <ele>256.9</ele>
        <time>2014-10-01T17:46:13Z</time>
      </trkpt>
      <trkpt lat="42.4743530" lon="-7.2777890">
        <ele>257.1</ele>
        <time>2014-10-01T17:46:14Z</time>
      </trkpt>
      <trkpt lat="42.4743720" lon="-7.2777540">
        <ele>257.3</ele>
        <time>2014-10-01T17:46:15Z</time>
      </trkpt>
      <trkpt lat="42.4743960" lon="-7.2777150">
        <ele>257.5</ele>
        <time>2014-10-01T17:46:16Z</time>
      </trkpt>
      <trkpt lat="42.4744160" lon="-7.2776790">
        <ele>257.6</ele>
        <time>2014-10-01T17:46:17Z</time>
      </trkpt>
      <trkpt lat="42.4744380" lon="-7.2776420">
        <ele>257.8</ele>
        <time>2014-10-01T17:46:18Z</time>
      </trkpt>
      <trkpt lat="42.4744670" lon="-7.2775990">
        <ele>258.0</ele>
        <time>2014-10-01T17:46:19Z</time>
      </trkpt>
      <trkpt lat="42.4744940" lon="-7.2775570">
        <ele>258.2</ele>
        <time>2014-10-01T17:46:20Z</time>
      </trkpt>
      <trkpt lat="42.4745180" lon="-7.2775180">
        <ele>258.5</ele>
        <time>2014-10-01T17:46:21Z</time>
      </trkpt>
      <trkpt lat="42.4745410" lon="-7.2774820">
        <ele>258.8</ele>
        <time>2014-10-01T17:46:22Z</time>
      </trkpt>
      <trkpt lat="42.4745630" lon="-7.2774470">
        <ele>259.1</ele>
        <time>2014-10-01T17:46:23Z</time>
      </trkpt>
      <trkpt lat="42.4745930" lon="-7.2774090">
        <ele>259.4</ele>
        <time>2014-10-01T17:46:24Z</time>
      </trkpt>
      <trkpt lat="42.4746170" lon="-7.2773770">
        <ele>259.7</ele>
        <time>2014-10-01T17:46:25Z</time>
      </trkpt>
      <trkpt lat="42.4746450" lon="-7.2773400">
        <ele>260.0</ele>
        <time>2014-10-01T17:46:26Z</time>
      </trkpt>
      <trkpt lat="42.4746690" lon="-7.2773080">
        <ele>260.2</ele>
        <time>2014-10-01T17:46:27Z</time>
      </trkpt>
      <trkpt lat="42.4746910" lon="-7.2772730">
        <ele>260.4</ele>
        <time>2014-10-01T17:46:28Z</time>
      </trkpt>
      <trkpt lat="42.4747120" lon="-7.2772420">
        <ele>260.6</ele>
        <time>2014-10-01T17:46:29Z</time>
      </trkpt>
      <trkpt lat="42.4747390" lon="-7.2772110">
        <ele>260.8</ele>
        <time>2014-10-01T17:46:30Z</time>
      </trkpt>
      <trkpt lat="42.4747640" lon="-7.2771810">
        <ele>261.0</ele>
        <time>2014-10-01T17:46:31Z</time>
      </trkpt>
      <trkpt lat="42.4747850" lon="-7.2771470">
        <ele>261.3</ele>
        <time>2014-10-01T17:46:32Z</time>
      </trkpt>
      <trkpt lat="42.4748050" lon="-7.2771170">
        <ele>261.5</ele>
        <time>2014-10-01T17:46:33Z</time>
      </trkpt>
      <trkpt lat="42.4748320" lon="-7.2770800">
        <ele>261.7</ele>
        <time>2014-10-01T17:46:34Z</time>
      </trkpt>
      <trkpt lat="42.4748540" lon="-7.2770470">
        <ele>261.9</ele>
        <time>2014-10-01T17:46:35Z</time>
      </trkpt>
      <trkpt lat="42.4748870" lon="-7.2770060">
        <ele>262.3</ele>
        <time>2014-10-01T17:46:36Z</time>
      </trkpt>
      <trkpt lat="42.4749090" lon="-7.2769740">
        <ele>262.6</ele>
        <time>2014-10-01T17:46:37Z</time>
      </trkpt>
      <trkpt lat="42.4749470" lon="-7.2769140">
        <ele>263.1</ele>
        <time>2014-10-01T17:46:39Z</time>
      </trkpt>
      <trkpt lat="42.4749660" lon="-7.2768830">
        <ele>263.4</ele>
        <time>2014-10-01T17:46:40Z</time>
      </trkpt>
      <trkpt lat="42.4749880" lon="-7.2768480">
        <ele>263.7</ele>
        <time>2014-10-01T17:46:41Z</time>
      </trkpt>
      <trkpt lat="42.4750090" lon="-7.2768110">
        <ele>263.9</ele>
        <time>2014-10-01T17:46:42Z</time>
      </trkpt>
      <trkpt lat="42.4750330" lon="-7.2767700">
        <ele>264.2</ele>
        <time>2014-10-01T17:46:43Z</time>
      </trkpt>
      <trkpt lat="42.4750680" lon="-7.2767210">
        <ele>264.6</ele>
        <time>2014-10-01T17:46:44Z</time>
      </trkpt>
      <trkpt lat="42.4751070" lon="-7.2766700">
        <ele>265.0</ele>
        <time>2014-10-01T17:46:45Z</time>
      </trkpt>
      <trkpt lat="42.4751420" lon="-7.2766250">
        <ele>265.4</ele>
        <time>2014-10-01T17:46:46Z</time>
      </trkpt>
      <trkpt lat="42.4751740" lon="-7.2765810">
        <ele>265.8</ele>
        <time>2014-10-01T17:46:47Z</time>
      </trkpt>
      <trkpt lat="42.4752050" lon="-7.2765410">
        <ele>266.1</ele>
        <time>2014-10-01T17:46:48Z</time>
      </trkpt>
      <trkpt lat="42.4752350" lon="-7.2765010">
        <ele>266.4</ele>
        <time>2014-10-01T17:46:49Z</time>
      </trkpt>
      <trkpt lat="42.4752660" lon="-7.2764580">
        <ele>266.6</ele>
        <time>2014-10-01T17:46:50Z</time>
      </trkpt>
      <trkpt lat="42.4752930" lon="-7.2764160">
        <ele>266.8</ele>
        <time>2014-10-01T17:46:51Z</time>
      </trkpt>
      <trkpt lat="42.4753170" lon="-7.2763790">
        <ele>267.0</ele>
        <time>2014-10-01T17:46:52Z</time>
      </trkpt>
      <trkpt lat="42.4753390" lon="-7.2763420">
        <ele>267.2</ele>
        <time>2014-10-01T17:46:53Z</time>
      </trkpt>
      <trkpt lat="42.4753620" lon="-7.2763070">
        <ele>267.4</ele>
        <time>2014-10-01T17:46:54Z</time>
      </trkpt>
      <trkpt lat="42.4753850" lon="-7.2762690">
        <ele>267.5</ele>
        <time>2014-10-01T17:46:55Z</time>
      </trkpt>
      <trkpt lat="42.4754080" lon="-7.2762300">
        <ele>267.7</ele>
        <time>2014-10-01T17:46:56Z</time>
      </trkpt>
      <trkpt lat="42.4754290" lon="-7.2761930">
        <ele>267.9</ele>
        <time>2014-10-01T17:46:57Z</time>
      </trkpt>
      <trkpt lat="42.4754520" lon="-7.2761530">
        <ele>268.1</ele>
        <time>2014-10-01T17:46:58Z</time>
      </trkpt>
      <trkpt lat="42.4754750" lon="-7.2761150">
        <ele>268.3</ele>
        <time>2014-10-01T17:46:59Z</time>
      </trkpt>
      <trkpt lat="42.4754950" lon="-7.2760830">
        <ele>268.4</ele>
        <time>2014-10-01T17:47:00Z</time>
      </trkpt>
      <trkpt lat="42.4755130" lon="-7.2760530">
        <ele>268.6</ele>
        <time>2014-10-01T17:47:01Z</time>
      </trkpt>
      <trkpt lat="42.4755340" lon="-7.2760180">
        <ele>268.7</ele>
        <time>2014-10-01T17:47:02Z</time>
      </trkpt>
      <trkpt lat="42.4755540" lon="-7.2759840">
        <ele>268.9</ele>
        <time>2014-10-01T17:47:03Z</time>
      </trkpt>
      <trkpt lat="42.4755810" lon="-7.2759400">
        <ele>269.1</ele>
        <time>2014-10-01T17:47:04Z</time>
      </trkpt>
      <trkpt lat="42.4756040" lon="-7.2759010">
        <ele>269.3</ele>
        <time>2014-10-01T17:47:05Z</time>
      </trkpt>
      <trkpt lat="42.4756300" lon="-7.2758590">
        <ele>269.4</ele>
        <time>2014-10-01T17:47:06Z</time>
      </trkpt>
      <trkpt lat="42.4756550" lon="-7.2758180">
        <ele>269.6</ele>
        <time>2014-10-01T17:47:07Z</time>
      </trkpt>
      <trkpt lat="42.4756780" lon="-7.2757800">
        <ele>269.8</ele>
        <time>2014-10-01T17:47:08Z</time>
      </trkpt>
      <trkpt lat="42.4756990" lon="-7.2757440">
        <ele>270.0</ele>
        <time>2014-10-01T17:47:09Z</time>
      </trkpt>
      <trkpt lat="42.4757200" lon="-7.2757080">
        <ele>270.1</ele>
        <time>2014-10-01T17:47:10Z</time>
      </trkpt>
      <trkpt lat="42.4757430" lon="-7.2756690">
        <ele>270.3</ele>
        <time>2014-10-01T17:47:11Z</time>
      </trkpt>
      <trkpt lat="42.4757670" lon="-7.2756270">
        <ele>270.4</ele>
        <time>2014-10-01T17:47:12Z</time>
      </trkpt>
      <trkpt lat="42.4757940" lon="-7.2755790">
        <ele>270.6</ele>
        <time>2014-10-01T17:47:13Z</time>
      </trkpt>
      <trkpt lat="42.4758200" lon="-7.2755350">
        <ele>270.8</ele>
        <time>2014-10-01T17:47:14Z</time>
      </trkpt>
      <trkpt lat="42.4758450" lon="-7.2754890">
        <ele>271.0</ele>
        <time>2014-10-01T17:47:15Z</time>
      </trkpt>
      <trkpt lat="42.4758680" lon="-7.2754450">
        <ele>271.1</ele>
        <time>2014-10-01T17:47:16Z</time>
      </trkpt>
      <trkpt lat="42.4758910" lon="-7.2754000">
        <ele>271.3</ele>
        <time>2014-10-01T17:47:17Z</time>
      </trkpt>
      <trkpt lat="42.4759140" lon="-7.2753540">
        <ele>271.4</ele>
        <time>2014-10-01T17:47:18Z</time>
      </trkpt>
      <trkpt lat="42.4759390" lon="-7.2753030">
        <ele>271.6</ele>
        <time>2014-10-01T17:47:19Z</time>
      </trkpt>
      <trkpt lat="42.4759620" lon="-7.2752560">
        <ele>271.7</ele>
        <time>2014-10-01T17:47:20Z</time>
      </trkpt>
      <trkpt lat="42.4759790" lon="-7.2752130">
        <ele>271.8</ele>
        <time>2014-10-01T17:47:21Z</time>
      </trkpt>
      <trkpt lat="42.4759990" lon="-7.2751650">
        <ele>271.8</ele>
        <time>2014-10-01T17:47:22Z</time>
      </trkpt>
      <trkpt lat="42.4760190" lon="-7.2751160">
        <ele>271.9</ele>
        <time>2014-10-01T17:47:23Z</time>
      </trkpt>
      <trkpt lat="42.4760370" lon="-7.2750700">
        <ele>272.0</ele>
        <time>2014-10-01T17:47:24Z</time>
      </trkpt>
      <trkpt lat="42.4760570" lon="-7.2750160">
        <ele>272.1</ele>
        <time>2014-10-01T17:47:25Z</time>
      </trkpt>
      <trkpt lat="42.4760770" lon="-7.2749680">
        <ele>272.1</ele>
        <time>2014-10-01T17:47:26Z</time>
      </trkpt>
      <trkpt lat="42.4760990" lon="-7.2749130">
        <ele>272.2</ele>
        <time>2014-10-01T17:47:27Z</time>
      </trkpt>
      <trkpt lat="42.4761220" lon="-7.2748530">
        <ele>272.3</ele>
        <time>2014-10-01T17:47:28Z</time>
      </trkpt>
      <trkpt lat="42.4761430" lon="-7.2747970">
        <ele>272.4</ele>
        <time>2014-10-01T17:47:29Z</time>
      </trkpt>
      <trkpt lat="42.4761650" lon="-7.2747400">
        <ele>272.4</ele>
        <time>2014-10-01T17:47:30Z</time>
      </trkpt>
      <trkpt lat="42.4761820" lon="-7.2746900">
        <ele>272.5</ele>
        <time>2014-10-01T17:47:31Z</time>
      </trkpt>
      <trkpt lat="42.4761970" lon="-7.2746410">
        <ele>272.6</ele>
        <time>2014-10-01T17:47:32Z</time>
      </trkpt>
      <trkpt lat="42.4762130" lon="-7.2745890">
        <ele>272.6</ele>
        <time>2014-10-01T17:47:33Z</time>
      </trkpt>
      <trkpt lat="42.4762250" lon="-7.2745420">
        <ele>272.7</ele>
        <time>2014-10-01T17:47:34Z</time>
      </trkpt>
      <trkpt lat="42.4762400" lon="-7.2744720">
        <ele>272.7</ele>
        <time>2014-10-01T17:47:35Z</time>
      </trkpt>
      <trkpt lat="42.4762530" lon="-7.2744010">
        <ele>272.8</ele>
        <time>2014-10-01T17:47:36Z</time>
      </trkpt>
      <trkpt lat="42.4762620" lon="-7.2743290">
        <ele>272.8</ele>
        <time>2014-10-01T17:47:37Z</time>
      </trkpt>
      <trkpt lat="42.4762690" lon="-7.2742550">
        <ele>272.9</ele>
        <time>2014-10-01T17:47:38Z</time>
      </trkpt>
      <trkpt lat="42.4762750" lon="-7.2741880">
        <ele>272.9</ele>
        <time>2014-10-01T17:47:39Z</time>
      </trkpt>
      <trkpt lat="42.4762790" lon="-7.2741280">
        <ele>273.0</ele>
        <time>2014-10-01T17:47:40Z</time>
      </trkpt>
      <trkpt lat="42.4762830" lon="-7.2740680">
        <ele>273.0</ele>
        <time>2014-10-01T17:47:41Z</time>
      </trkpt>
      <trkpt lat="42.4762860" lon="-7.2740080">
        <ele>273.0</ele>
        <time>2014-10-01T17:47:42Z</time>
      </trkpt>
      <trkpt lat="42.4762900" lon="-7.2739450">
        <ele>273.1</ele>
        <time>2014-10-01T17:47:43Z</time>
      </trkpt>
      <trkpt lat="42.4762970" lon="-7.2738840">
        <ele>273.1</ele>
        <time>2014-10-01T17:47:44Z</time>
      </trkpt>
      <trkpt lat="42.4763040" lon="-7.2738190">
        <ele>273.1</ele>
        <time>2014-10-01T17:47:45Z</time>
      </trkpt>
      <trkpt lat="42.4763080" lon="-7.2737540">
        <ele>273.1</ele>
        <time>2014-10-01T17:47:46Z</time>
      </trkpt>
      <trkpt lat="42.4763110" lon="-7.2736870">
        <ele>273.2</ele>
        <time>2014-10-01T17:47:47Z</time>
      </trkpt>
      <trkpt lat="42.4763110" lon="-7.2736240">
        <ele>273.2</ele>
        <time>2014-10-01T17:47:48Z</time>
      </trkpt>
      <trkpt lat="42.4763110" lon="-7.2735630">
        <ele>273.2</ele>
        <time>2014-10-01T17:47:49Z</time>
      </trkpt>
      <trkpt lat="42.4763100" lon="-7.2735020">
        <ele>273.2</ele>
        <time>2014-10-01T17:47:50Z</time>
      </trkpt>
      <trkpt lat="42.4763090" lon="-7.2734480">
        <ele>273.2</ele>
        <time>2014-10-01T17:47:51Z</time>
      </trkpt>
      <trkpt lat="42.4763020" lon="-7.2733820">
        <ele>273.2</ele>
        <time>2014-10-01T17:47:52Z</time>
      </trkpt>
      <trkpt lat="42.4762970" lon="-7.2733230">
        <ele>273.2</ele>
        <time>2014-10-01T17:47:53Z</time>
      </trkpt>
      <trkpt lat="42.4762870" lon="-7.2732600">
        <ele>273.1</ele>
        <time>2014-10-01T17:47:54Z</time>
      </trkpt>
      <trkpt lat="42.4762770" lon="-7.2731910">
        <ele>273.0</ele>
        <time>2014-10-01T17:47:55Z</time>
      </trkpt>
      <trkpt lat="42.4762650" lon="-7.2731220">
        <ele>272.8</ele>
        <time>2014-10-01T17:47:56Z</time>
      </trkpt>
      <trkpt lat="42.4762560" lon="-7.2730540">
        <ele>272.7</ele>
        <time>2014-10-01T17:47:57Z</time>
      </trkpt>
      <trkpt lat="42.4762470" lon="-7.2729840">
        <ele>272.5</ele>
        <time>2014-10-01T17:47:58Z</time>
      </trkpt>
      <trkpt lat="42.4762300" lon="-7.2729160">
        <ele>272.3</ele>
        <time>2014-10-01T17:47:59Z</time>
      </trkpt>
      <trkpt lat="42.4762130" lon="-7.2728400">
        <ele>272.1</ele>
        <time>2014-10-01T17:48:00Z</time>
      </trkpt>
      <trkpt lat="42.4761970" lon="-7.2727730">
        <ele>271.9</ele>
        <time>2014-10-01T17:48:01Z</time>
      </trkpt>
      <trkpt lat="42.4761750" lon="-7.2726990">
        <ele>271.7</ele>
        <time>2014-10-01T17:48:02Z</time>
      </trkpt>
      <trkpt lat="42.4761550" lon="-7.2726230">
        <ele>271.5</ele>
        <time>2014-10-01T17:48:03Z</time>
      </trkpt>
      <trkpt lat="42.4761360" lon="-7.2725420">
        <ele>271.3</ele>
        <time>2014-10-01T17:48:04Z</time>
      </trkpt>
      <trkpt lat="42.4761120" lon="-7.2724610">
        <ele>271.1</ele>
        <time>2014-10-01T17:48:05Z</time>
      </trkpt>
      <trkpt lat="42.4760860" lon="-7.2723820">
        <ele>270.9</ele>
        <time>2014-10-01T17:48:06Z</time>
      </trkpt>
      <trkpt lat="42.4760570" lon="-7.2723100">
        <ele>270.8</ele>
        <time>2014-10-01T17:48:07Z</time>
      </trkpt>
      <trkpt lat="42.4760310" lon="-7.2722360">
        <ele>270.7</ele>
        <time>2014-10-01T17:48:08Z</time>
      </trkpt>
      <trkpt lat="42.4760060" lon="-7.2721520">
        <ele>270.6</ele>
        <time>2014-10-01T17:48:09Z</time>
      </trkpt>
      <trkpt lat="42.4759810" lon="-7.2720740">
        <ele>270.4</ele>
        <time>2014-10-01T17:48:10Z</time>
      </trkpt>
      <trkpt lat="42.4759550" lon="-7.2719930">
        <ele>270.3</ele>
        <time>2014-10-01T17:48:11Z</time>
      </trkpt>
      <trkpt lat="42.4759270" lon="-7.2719100">
        <ele>270.1</ele>
        <time>2014-10-01T17:48:12Z</time>
      </trkpt>
      <trkpt lat="42.4758980" lon="-7.2718300">
        <ele>270.0</ele>
        <time>2014-10-01T17:48:13Z</time>
      </trkpt>
      <trkpt lat="42.4758710" lon="-7.2717490">
        <ele>269.8</ele>
        <time>2014-10-01T17:48:14Z</time>
      </trkpt>
      <trkpt lat="42.4758530" lon="-7.2716730">
        <ele>269.7</ele>
        <time>2014-10-01T17:48:15Z</time>
      </trkpt>
      <trkpt lat="42.4758340" lon="-7.2716040">
        <ele>269.5</ele>
        <time>2014-10-01T17:48:16Z</time>
      </trkpt>
      <trkpt lat="42.4758170" lon="-7.2715390">
        <ele>269.3</ele>
        <time>2014-10-01T17:48:17Z</time>
      </trkpt>
      <trkpt lat="42.4758010" lon="-7.2714730">
        <ele>269.2</ele>
        <time>2014-10-01T17:48:18Z</time>
      </trkpt>
      <trkpt lat="42.4757850" lon="-7.2714160">
        <ele>269.0</ele>
        <time>2014-10-01T17:48:19Z</time>
      </trkpt>
      <trkpt lat="42.4757690" lon="-7.2713570">
        <ele>268.9</ele>
        <time>2014-10-01T17:48:20Z</time>
      </trkpt>
      <trkpt lat="42.4757460" lon="-7.2712920">
        <ele>268.9</ele>
        <time>2014-10-01T17:48:22Z</time>
      </trkpt>
      <trkpt lat="42.4757330" lon="-7.2712580">
        <ele>268.9</ele>
        <time>2014-10-01T17:48:23Z</time>
      </trkpt>
      <trkpt lat="42.4757300" lon="-7.2711800">
        <ele>268.9</ele>
        <time>2014-10-01T17:48:27Z</time>
      </trkpt>
      <trkpt lat="42.4757560" lon="-7.2711680">
        <ele>268.9</ele>
        <time>2014-10-01T17:48:30Z</time>
      </trkpt>
      <trkpt lat="42.4758550" lon="-7.2711350">
        <ele>268.8</ele>
        <time>2014-10-01T17:49:18Z</time>
      </trkpt>
      <trkpt lat="42.4758470" lon="-7.2712630">
        <ele>268.8</ele>
        <time>2014-10-01T17:49:38Z</time>
      </trkpt>
      <trkpt lat="42.4758710" lon="-7.2714310">
        <ele>268.8</ele>
        <time>2014-10-01T17:49:54Z</time>
      </trkpt>
      <trkpt lat="42.4757500" lon="-7.2714150">
        <ele>268.8</ele>
        <time>2014-10-01T17:49:56Z</time>
      </trkpt>
      <trkpt lat="42.4757140" lon="-7.2712970">
        <ele>268.8</ele>
        <time>2014-10-01T17:50:02Z</time>
      </trkpt>
    </trkseg>
  </trk>
</gpx>
